<?xml version="1.0" encoding="UTF-8" standalone="no" ?>
<gpx xmlns="http://www.topografix.com/GPX/1/1" xmlns:xsi="http://www.w3.org/2001/XMLSchema-instance" xsi:schemaLocation="http://www.topografix.com/GPX/1/1 http://www.topografix.com/GPX/1/1/gpx.xsd" version="1.1" creator="VisuGPX - https://www.visugpx.com">
  <metadata>
    <name>Itinérance 3j entre Savoie-HS-Ain avec Flora</name>
  </metadata>
  <trk>
    <name><![CDATA[Itinérance 3j entre Savoie-HS-Ain avec Flora_1]]></name>
    <extensions>
      <line xmlns="http://www.topografix.com/GPX/gpx_style/0/2">
        <color>0000FF</color>
        <width>4</width>
      </line>
    </extensions>
    <trkseg>
      <trkpt lat="45.56879" lon="5.93004">
        <ele>286</ele>
        <time>2021-09-10T07:35:03.662Z</time>
      </trkpt>
      <trkpt lat="45.56882" lon="5.93006">
        <ele>286</ele>
        <time>2021-09-10T07:35:04.661Z</time>
      </trkpt>
      <trkpt lat="45.56885" lon="5.93007">
        <ele>286</ele>
        <time>2021-09-10T07:35:05.662Z</time>
      </trkpt>
      <trkpt lat="45.56888" lon="5.93008">
        <ele>286</ele>
        <time>2021-09-10T07:35:06.662Z</time>
      </trkpt>
      <trkpt lat="45.56892" lon="5.93008">
        <ele>286</ele>
        <time>2021-09-10T07:35:07.662Z</time>
      </trkpt>
      <trkpt lat="45.56895" lon="5.93006">
        <ele>286</ele>
        <time>2021-09-10T07:35:08.661Z</time>
      </trkpt>
      <trkpt lat="45.56897" lon="5.93001">
        <ele>286</ele>
        <time>2021-09-10T07:35:09.662Z</time>
      </trkpt>
      <trkpt lat="45.56897" lon="5.92996">
        <ele>286</ele>
        <time>2021-09-10T07:35:10.662Z</time>
      </trkpt>
      <trkpt lat="45.56897" lon="5.92991">
        <ele>286</ele>
        <time>2021-09-10T07:35:11.662Z</time>
      </trkpt>
      <trkpt lat="45.56895" lon="5.92986">
        <ele>286</ele>
        <time>2021-09-10T07:35:12.661Z</time>
      </trkpt>
      <trkpt lat="45.56894" lon="5.92981">
        <ele>285</ele>
        <time>2021-09-10T07:35:13.661Z</time>
      </trkpt>
      <trkpt lat="45.56892" lon="5.92977">
        <ele>285</ele>
        <time>2021-09-10T07:35:14.662Z</time>
      </trkpt>
      <trkpt lat="45.5689" lon="5.92972">
        <ele>285</ele>
        <time>2021-09-10T07:35:15.662Z</time>
      </trkpt>
      <trkpt lat="45.56888" lon="5.92967">
        <ele>286</ele>
        <time>2021-09-10T07:35:16.662Z</time>
      </trkpt>
      <trkpt lat="45.56886" lon="5.92962">
        <ele>286</ele>
        <time>2021-09-10T07:35:17.662Z</time>
      </trkpt>
      <trkpt lat="45.56885" lon="5.92957">
        <ele>286</ele>
        <time>2021-09-10T07:35:18.661Z</time>
      </trkpt>
      <trkpt lat="45.56883" lon="5.92951">
        <ele>286</ele>
        <time>2021-09-10T07:35:19.662Z</time>
      </trkpt>
      <trkpt lat="45.56882" lon="5.92946">
        <ele>287</ele>
        <time>2021-09-10T07:35:20.662Z</time>
      </trkpt>
      <trkpt lat="45.56881" lon="5.9294">
        <ele>287</ele>
        <time>2021-09-10T07:35:21.662Z</time>
      </trkpt>
      <trkpt lat="45.56881" lon="5.92935">
        <ele>287</ele>
        <time>2021-09-10T07:35:22.661Z</time>
      </trkpt>
      <trkpt lat="45.5688" lon="5.92929">
        <ele>287</ele>
        <time>2021-09-10T07:35:23.661Z</time>
      </trkpt>
      <trkpt lat="45.5688" lon="5.92923">
        <ele>288</ele>
        <time>2021-09-10T07:35:24.662Z</time>
      </trkpt>
      <trkpt lat="45.56879" lon="5.92918">
        <ele>288</ele>
        <time>2021-09-10T07:35:25.662Z</time>
      </trkpt>
      <trkpt lat="45.56879" lon="5.92911">
        <ele>288</ele>
        <time>2021-09-10T07:35:26.662Z</time>
      </trkpt>
      <trkpt lat="45.56879" lon="5.92905">
        <ele>288</ele>
        <time>2021-09-10T07:35:27.661Z</time>
      </trkpt>
      <trkpt lat="45.56878" lon="5.92898">
        <ele>289</ele>
        <time>2021-09-10T07:35:28.662Z</time>
      </trkpt>
      <trkpt lat="45.56878" lon="5.92891">
        <ele>289</ele>
        <time>2021-09-10T07:35:29.661Z</time>
      </trkpt>
      <trkpt lat="45.56878" lon="5.92884">
        <ele>288</ele>
        <time>2021-09-10T07:35:30.662Z</time>
      </trkpt>
      <trkpt lat="45.56878" lon="5.92877">
        <ele>288</ele>
        <time>2021-09-10T07:35:31.662Z</time>
      </trkpt>
      <trkpt lat="45.56878" lon="5.9287">
        <ele>287</ele>
        <time>2021-09-10T07:35:32.661Z</time>
      </trkpt>
      <trkpt lat="45.56879" lon="5.92862">
        <ele>286</ele>
        <time>2021-09-10T07:35:33.662Z</time>
      </trkpt>
      <trkpt lat="45.56879" lon="5.92855">
        <ele>285</ele>
        <time>2021-09-10T07:35:34.662Z</time>
      </trkpt>
      <trkpt lat="45.56879" lon="5.9285">
        <ele>284</ele>
        <time>2021-09-10T07:35:35.662Z</time>
      </trkpt>
      <trkpt lat="45.56879" lon="5.92841">
        <ele>284</ele>
        <time>2021-09-10T07:35:36.662Z</time>
      </trkpt>
      <trkpt lat="45.56879" lon="5.92834">
        <ele>283</ele>
        <time>2021-09-10T07:35:37.661Z</time>
      </trkpt>
      <trkpt lat="45.56879" lon="5.92827">
        <ele>283</ele>
        <time>2021-09-10T07:35:38.662Z</time>
      </trkpt>
      <trkpt lat="45.56879" lon="5.9282">
        <ele>283</ele>
        <time>2021-09-10T07:35:39.661Z</time>
      </trkpt>
      <trkpt lat="45.56879" lon="5.92812">
        <ele>283</ele>
        <time>2021-09-10T07:35:40.662Z</time>
      </trkpt>
      <trkpt lat="45.56879" lon="5.92805">
        <ele>283</ele>
        <time>2021-09-10T07:35:41.662Z</time>
      </trkpt>
      <trkpt lat="45.56878" lon="5.92798">
        <ele>284</ele>
        <time>2021-09-10T07:35:42.662Z</time>
      </trkpt>
      <trkpt lat="45.56877" lon="5.92791">
        <ele>284</ele>
        <time>2021-09-10T07:35:43.661Z</time>
      </trkpt>
      <trkpt lat="45.56877" lon="5.92785">
        <ele>284</ele>
        <time>2021-09-10T07:35:44.661Z</time>
      </trkpt>
      <trkpt lat="45.56876" lon="5.92777">
        <ele>284</ele>
        <time>2021-09-10T07:35:45.662Z</time>
      </trkpt>
      <trkpt lat="45.56876" lon="5.9277">
        <ele>285</ele>
        <time>2021-09-10T07:35:46.661Z</time>
      </trkpt>
      <trkpt lat="45.56876" lon="5.92764">
        <ele>285</ele>
        <time>2021-09-10T07:35:47.662Z</time>
      </trkpt>
      <trkpt lat="45.56877" lon="5.92757">
        <ele>284</ele>
        <time>2021-09-10T07:35:48.661Z</time>
      </trkpt>
      <trkpt lat="45.56878" lon="5.9275">
        <ele>284</ele>
        <time>2021-09-10T07:35:49.661Z</time>
      </trkpt>
      <trkpt lat="45.56879" lon="5.92741">
        <ele>284</ele>
        <time>2021-09-10T07:35:50.661Z</time>
      </trkpt>
      <trkpt lat="45.56879" lon="5.92734">
        <ele>284</ele>
        <time>2021-09-10T07:35:51.661Z</time>
      </trkpt>
      <trkpt lat="45.56878" lon="5.92727">
        <ele>284</ele>
        <time>2021-09-10T07:35:52.662Z</time>
      </trkpt>
      <trkpt lat="45.56877" lon="5.92722">
        <ele>285</ele>
        <time>2021-09-10T07:35:53.662Z</time>
      </trkpt>
      <trkpt lat="45.56875" lon="5.92714">
        <ele>285</ele>
        <time>2021-09-10T07:35:54.661Z</time>
      </trkpt>
      <trkpt lat="45.56875" lon="5.92708">
        <ele>285</ele>
        <time>2021-09-10T07:35:55.662Z</time>
      </trkpt>
      <trkpt lat="45.56874" lon="5.92701">
        <ele>285</ele>
        <time>2021-09-10T07:35:56.662Z</time>
      </trkpt>
      <trkpt lat="45.56873" lon="5.92695">
        <ele>286</ele>
        <time>2021-09-10T07:35:57.661Z</time>
      </trkpt>
      <trkpt lat="45.56873" lon="5.92689">
        <ele>287</ele>
        <time>2021-09-10T07:35:58.662Z</time>
      </trkpt>
      <trkpt lat="45.56873" lon="5.92682">
        <ele>287</ele>
        <time>2021-09-10T07:35:59.661Z</time>
      </trkpt>
      <trkpt lat="45.56873" lon="5.92675">
        <ele>288</ele>
        <time>2021-09-10T07:36:00.662Z</time>
      </trkpt>
      <trkpt lat="45.56873" lon="5.9267">
        <ele>288</ele>
        <time>2021-09-10T07:36:01.662Z</time>
      </trkpt>
      <trkpt lat="45.56872" lon="5.92665">
        <ele>288</ele>
        <time>2021-09-10T07:36:02.661Z</time>
      </trkpt>
      <trkpt lat="45.56871" lon="5.92659">
        <ele>288</ele>
        <time>2021-09-10T07:36:03.662Z</time>
      </trkpt>
      <trkpt lat="45.56871" lon="5.92653">
        <ele>288</ele>
        <time>2021-09-10T07:36:04.662Z</time>
      </trkpt>
      <trkpt lat="45.5687" lon="5.92648">
        <ele>288</ele>
        <time>2021-09-10T07:36:05.662Z</time>
      </trkpt>
      <trkpt lat="45.56869" lon="5.92642">
        <ele>288</ele>
        <time>2021-09-10T07:36:06.661Z</time>
      </trkpt>
      <trkpt lat="45.56869" lon="5.92636">
        <ele>288</ele>
        <time>2021-09-10T07:36:07.662Z</time>
      </trkpt>
      <trkpt lat="45.56868" lon="5.92629">
        <ele>288</ele>
        <time>2021-09-10T07:36:08.662Z</time>
      </trkpt>
      <trkpt lat="45.56868" lon="5.92623">
        <ele>288</ele>
        <time>2021-09-10T07:36:09.662Z</time>
      </trkpt>
      <trkpt lat="45.56868" lon="5.92618">
        <ele>288</ele>
        <time>2021-09-10T07:36:10.662Z</time>
      </trkpt>
      <trkpt lat="45.56868" lon="5.92613">
        <ele>289</ele>
        <time>2021-09-10T07:36:11.662Z</time>
      </trkpt>
      <trkpt lat="45.56868" lon="5.92609">
        <ele>289</ele>
        <time>2021-09-10T07:36:12.662Z</time>
      </trkpt>
      <trkpt lat="45.56866" lon="5.92601">
        <ele>289</ele>
        <time>2021-09-10T07:36:13.661Z</time>
      </trkpt>
      <trkpt lat="45.56866" lon="5.92597">
        <ele>289</ele>
        <time>2021-09-10T07:36:14.661Z</time>
      </trkpt>
      <trkpt lat="45.56865" lon="5.92591">
        <ele>289</ele>
        <time>2021-09-10T07:36:15.662Z</time>
      </trkpt>
      <trkpt lat="45.56864" lon="5.92584">
        <ele>290</ele>
        <time>2021-09-10T07:36:16.661Z</time>
      </trkpt>
      <trkpt lat="45.56864" lon="5.92579">
        <ele>290</ele>
        <time>2021-09-10T07:36:17.662Z</time>
      </trkpt>
      <trkpt lat="45.56863" lon="5.92574">
        <ele>290</ele>
        <time>2021-09-10T07:36:18.661Z</time>
      </trkpt>
      <trkpt lat="45.56863" lon="5.92569">
        <ele>291</ele>
        <time>2021-09-10T07:36:19.662Z</time>
      </trkpt>
      <trkpt lat="45.56863" lon="5.92563">
        <ele>291</ele>
        <time>2021-09-10T07:36:20.662Z</time>
      </trkpt>
      <trkpt lat="45.56863" lon="5.92558">
        <ele>291</ele>
        <time>2021-09-10T07:36:21.662Z</time>
      </trkpt>
      <trkpt lat="45.56863" lon="5.92553">
        <ele>291</ele>
        <time>2021-09-10T07:36:22.662Z</time>
      </trkpt>
      <trkpt lat="45.56862" lon="5.92548">
        <ele>292</ele>
        <time>2021-09-10T07:36:23.662Z</time>
      </trkpt>
      <trkpt lat="45.56862" lon="5.92543">
        <ele>292</ele>
        <time>2021-09-10T07:36:24.662Z</time>
      </trkpt>
      <trkpt lat="45.56862" lon="5.92537">
        <ele>292</ele>
        <time>2021-09-10T07:36:25.662Z</time>
      </trkpt>
      <trkpt lat="45.56862" lon="5.92532">
        <ele>293</ele>
        <time>2021-09-10T07:36:26.662Z</time>
      </trkpt>
      <trkpt lat="45.56862" lon="5.92527">
        <ele>293</ele>
        <time>2021-09-10T07:36:27.661Z</time>
      </trkpt>
      <trkpt lat="45.56861" lon="5.92522">
        <ele>293</ele>
        <time>2021-09-10T07:36:28.662Z</time>
      </trkpt>
      <trkpt lat="45.5686" lon="5.92516">
        <ele>293</ele>
        <time>2021-09-10T07:36:29.662Z</time>
      </trkpt>
      <trkpt lat="45.5686" lon="5.92512">
        <ele>292</ele>
        <time>2021-09-10T07:36:30.662Z</time>
      </trkpt>
      <trkpt lat="45.56859" lon="5.92507">
        <ele>292</ele>
        <time>2021-09-10T07:36:31.661Z</time>
      </trkpt>
      <trkpt lat="45.56859" lon="5.92503">
        <ele>292</ele>
        <time>2021-09-10T07:36:32.662Z</time>
      </trkpt>
      <trkpt lat="45.56858" lon="5.92499">
        <ele>292</ele>
        <time>2021-09-10T07:36:33.662Z</time>
      </trkpt>
      <trkpt lat="45.56857" lon="5.92495">
        <ele>291</ele>
        <time>2021-09-10T07:36:34.662Z</time>
      </trkpt>
      <trkpt lat="45.56856" lon="5.92491">
        <ele>290</ele>
        <time>2021-09-10T07:36:35.662Z</time>
      </trkpt>
      <trkpt lat="45.56855" lon="5.92488">
        <ele>289</ele>
        <time>2021-09-10T07:36:36.662Z</time>
      </trkpt>
      <trkpt lat="45.56854" lon="5.92484">
        <ele>289</ele>
        <time>2021-09-10T07:36:37.661Z</time>
      </trkpt>
      <trkpt lat="45.56853" lon="5.92481">
        <ele>289</ele>
        <time>2021-09-10T07:36:38.661Z</time>
      </trkpt>
      <trkpt lat="45.56852" lon="5.92478">
        <ele>288</ele>
        <time>2021-09-10T07:36:39.661Z</time>
      </trkpt>
      <trkpt lat="45.56852" lon="5.92476">
        <ele>288</ele>
        <time>2021-09-10T07:36:40.662Z</time>
      </trkpt>
      <trkpt lat="45.56852" lon="5.92475">
        <ele>289</ele>
        <time>2021-09-10T07:36:41.662Z</time>
      </trkpt>
      <trkpt lat="45.56852" lon="5.92475">
        <ele>289</ele>
        <time>2021-09-10T07:36:42.661Z</time>
      </trkpt>
      <trkpt lat="45.56852" lon="5.92475">
        <ele>290</ele>
        <time>2021-09-10T07:36:43.662Z</time>
      </trkpt>
      <trkpt lat="45.56852" lon="5.92476">
        <ele>291</ele>
        <time>2021-09-10T07:36:44.661Z</time>
      </trkpt>
      <trkpt lat="45.56851" lon="5.92477">
        <ele>292</ele>
        <time>2021-09-10T07:36:45.661Z</time>
      </trkpt>
      <trkpt lat="45.5685" lon="5.92477">
        <ele>292</ele>
        <time>2021-09-10T07:36:46.661Z</time>
      </trkpt>
      <trkpt lat="45.56848" lon="5.92467">
        <ele>303</ele>
        <time>2021-09-10T07:36:47.662Z</time>
      </trkpt>
      <trkpt lat="45.56846" lon="5.92463">
        <ele>303</ele>
        <time>2021-09-10T07:36:48.661Z</time>
      </trkpt>
      <trkpt lat="45.56844" lon="5.92459">
        <ele>303</ele>
        <time>2021-09-10T07:36:49.661Z</time>
      </trkpt>
      <trkpt lat="45.5684" lon="5.92455">
        <ele>302</ele>
        <time>2021-09-10T07:36:50.662Z</time>
      </trkpt>
      <trkpt lat="45.56837" lon="5.92452">
        <ele>302</ele>
        <time>2021-09-10T07:36:51.662Z</time>
      </trkpt>
      <trkpt lat="45.56833" lon="5.92449">
        <ele>302</ele>
        <time>2021-09-10T07:36:52.661Z</time>
      </trkpt>
      <trkpt lat="45.56829" lon="5.92446">
        <ele>301</ele>
        <time>2021-09-10T07:36:53.661Z</time>
      </trkpt>
      <trkpt lat="45.56825" lon="5.92443">
        <ele>300</ele>
        <time>2021-09-10T07:36:54.662Z</time>
      </trkpt>
      <trkpt lat="45.5682" lon="5.92441">
        <ele>300</ele>
        <time>2021-09-10T07:36:55.662Z</time>
      </trkpt>
      <trkpt lat="45.56815" lon="5.9244">
        <ele>299</ele>
        <time>2021-09-10T07:36:56.662Z</time>
      </trkpt>
      <trkpt lat="45.56811" lon="5.92439">
        <ele>298</ele>
        <time>2021-09-10T07:36:57.661Z</time>
      </trkpt>
      <trkpt lat="45.56806" lon="5.9244">
        <ele>298</ele>
        <time>2021-09-10T07:36:58.662Z</time>
      </trkpt>
      <trkpt lat="45.56801" lon="5.92441">
        <ele>297</ele>
        <time>2021-09-10T07:36:59.662Z</time>
      </trkpt>
      <trkpt lat="45.56797" lon="5.92442">
        <ele>297</ele>
        <time>2021-09-10T07:37:00.662Z</time>
      </trkpt>
      <trkpt lat="45.56793" lon="5.92442">
        <ele>297</ele>
        <time>2021-09-10T07:37:01.661Z</time>
      </trkpt>
      <trkpt lat="45.56789" lon="5.92444">
        <ele>297</ele>
        <time>2021-09-10T07:37:02.661Z</time>
      </trkpt>
      <trkpt lat="45.56784" lon="5.92446">
        <ele>297</ele>
        <time>2021-09-10T07:37:03.662Z</time>
      </trkpt>
      <trkpt lat="45.56781" lon="5.92447">
        <ele>297</ele>
        <time>2021-09-10T07:37:04.662Z</time>
      </trkpt>
      <trkpt lat="45.56779" lon="5.92448">
        <ele>297</ele>
        <time>2021-09-10T07:37:05.662Z</time>
      </trkpt>
      <trkpt lat="45.56776" lon="5.92448">
        <ele>297</ele>
        <time>2021-09-10T07:37:06.662Z</time>
      </trkpt>
      <trkpt lat="45.56774" lon="5.92449">
        <ele>297</ele>
        <time>2021-09-10T07:37:07.662Z</time>
      </trkpt>
      <trkpt lat="45.56772" lon="5.92449">
        <ele>297</ele>
        <time>2021-09-10T07:37:08.662Z</time>
      </trkpt>
      <trkpt lat="45.5677" lon="5.92449">
        <ele>297</ele>
        <time>2021-09-10T07:37:09.662Z</time>
      </trkpt>
      <trkpt lat="45.56767" lon="5.92447">
        <ele>297</ele>
        <time>2021-09-10T07:37:10.662Z</time>
      </trkpt>
      <trkpt lat="45.56763" lon="5.92444">
        <ele>297</ele>
        <time>2021-09-10T07:37:11.662Z</time>
      </trkpt>
      <trkpt lat="45.56761" lon="5.92441">
        <ele>297</ele>
        <time>2021-09-10T07:37:12.662Z</time>
      </trkpt>
      <trkpt lat="45.56757" lon="5.92438">
        <ele>297</ele>
        <time>2021-09-10T07:37:13.662Z</time>
      </trkpt>
      <trkpt lat="45.56755" lon="5.9243">
        <ele>297</ele>
        <time>2021-09-10T07:37:14.661Z</time>
      </trkpt>
      <trkpt lat="45.56755" lon="5.92423">
        <ele>296</ele>
        <time>2021-09-10T07:37:15.662Z</time>
      </trkpt>
      <trkpt lat="45.56754" lon="5.92416">
        <ele>295</ele>
        <time>2021-09-10T07:37:16.662Z</time>
      </trkpt>
      <trkpt lat="45.56754" lon="5.92409">
        <ele>295</ele>
        <time>2021-09-10T07:37:17.662Z</time>
      </trkpt>
      <trkpt lat="45.56754" lon="5.92399">
        <ele>294</ele>
        <time>2021-09-10T07:37:18.662Z</time>
      </trkpt>
      <trkpt lat="45.56755" lon="5.92392">
        <ele>294</ele>
        <time>2021-09-10T07:37:19.662Z</time>
      </trkpt>
      <trkpt lat="45.56756" lon="5.92384">
        <ele>294</ele>
        <time>2021-09-10T07:37:20.662Z</time>
      </trkpt>
      <trkpt lat="45.56757" lon="5.92378">
        <ele>294</ele>
        <time>2021-09-10T07:37:21.662Z</time>
      </trkpt>
      <trkpt lat="45.56759" lon="5.92369">
        <ele>294</ele>
        <time>2021-09-10T07:37:22.662Z</time>
      </trkpt>
      <trkpt lat="45.5676" lon="5.92362">
        <ele>294</ele>
        <time>2021-09-10T07:37:23.662Z</time>
      </trkpt>
      <trkpt lat="45.56762" lon="5.92355">
        <ele>294</ele>
        <time>2021-09-10T07:37:24.662Z</time>
      </trkpt>
      <trkpt lat="45.56763" lon="5.92349">
        <ele>294</ele>
        <time>2021-09-10T07:37:25.662Z</time>
      </trkpt>
      <trkpt lat="45.56766" lon="5.92342">
        <ele>294</ele>
        <time>2021-09-10T07:37:26.661Z</time>
      </trkpt>
      <trkpt lat="45.56769" lon="5.92334">
        <ele>293</ele>
        <time>2021-09-10T07:37:27.662Z</time>
      </trkpt>
      <trkpt lat="45.56773" lon="5.92327">
        <ele>292</ele>
        <time>2021-09-10T07:37:28.662Z</time>
      </trkpt>
      <trkpt lat="45.56776" lon="5.9232">
        <ele>290</ele>
        <time>2021-09-10T07:37:29.662Z</time>
      </trkpt>
      <trkpt lat="45.56779" lon="5.92312">
        <ele>289</ele>
        <time>2021-09-10T07:37:30.662Z</time>
      </trkpt>
      <trkpt lat="45.56783" lon="5.92307">
        <ele>289</ele>
        <time>2021-09-10T07:37:31.661Z</time>
      </trkpt>
      <trkpt lat="45.56786" lon="5.923">
        <ele>288</ele>
        <time>2021-09-10T07:37:32.661Z</time>
      </trkpt>
      <trkpt lat="45.56789" lon="5.92292">
        <ele>287</ele>
        <time>2021-09-10T07:37:33.661Z</time>
      </trkpt>
      <trkpt lat="45.56792" lon="5.92285">
        <ele>287</ele>
        <time>2021-09-10T07:37:34.662Z</time>
      </trkpt>
      <trkpt lat="45.56795" lon="5.92278">
        <ele>287</ele>
        <time>2021-09-10T07:37:35.661Z</time>
      </trkpt>
      <trkpt lat="45.56798" lon="5.92271">
        <ele>286</ele>
        <time>2021-09-10T07:37:36.662Z</time>
      </trkpt>
      <trkpt lat="45.56801" lon="5.92264">
        <ele>286</ele>
        <time>2021-09-10T07:37:37.662Z</time>
      </trkpt>
      <trkpt lat="45.56803" lon="5.92257">
        <ele>286</ele>
        <time>2021-09-10T07:37:38.662Z</time>
      </trkpt>
      <trkpt lat="45.56806" lon="5.92249">
        <ele>286</ele>
        <time>2021-09-10T07:37:39.661Z</time>
      </trkpt>
      <trkpt lat="45.56808" lon="5.92241">
        <ele>286</ele>
        <time>2021-09-10T07:37:40.662Z</time>
      </trkpt>
      <trkpt lat="45.56811" lon="5.92234">
        <ele>286</ele>
        <time>2021-09-10T07:37:41.662Z</time>
      </trkpt>
      <trkpt lat="45.56814" lon="5.92227">
        <ele>286</ele>
        <time>2021-09-10T07:37:42.662Z</time>
      </trkpt>
      <trkpt lat="45.56818" lon="5.92218">
        <ele>287</ele>
        <time>2021-09-10T07:37:43.662Z</time>
      </trkpt>
      <trkpt lat="45.5682" lon="5.92211">
        <ele>287</ele>
        <time>2021-09-10T07:37:44.662Z</time>
      </trkpt>
      <trkpt lat="45.56822" lon="5.92204">
        <ele>287</ele>
        <time>2021-09-10T07:37:45.662Z</time>
      </trkpt>
      <trkpt lat="45.56824" lon="5.92198">
        <ele>287</ele>
        <time>2021-09-10T07:37:46.662Z</time>
      </trkpt>
      <trkpt lat="45.56826" lon="5.92191">
        <ele>288</ele>
        <time>2021-09-10T07:37:47.662Z</time>
      </trkpt>
      <trkpt lat="45.56828" lon="5.92185">
        <ele>287</ele>
        <time>2021-09-10T07:37:48.662Z</time>
      </trkpt>
      <trkpt lat="45.5683" lon="5.9218">
        <ele>287</ele>
        <time>2021-09-10T07:37:49.662Z</time>
      </trkpt>
      <trkpt lat="45.56833" lon="5.92175">
        <ele>287</ele>
        <time>2021-09-10T07:37:50.662Z</time>
      </trkpt>
      <trkpt lat="45.56836" lon="5.9217">
        <ele>287</ele>
        <time>2021-09-10T07:37:51.662Z</time>
      </trkpt>
      <trkpt lat="45.56838" lon="5.92166">
        <ele>287</ele>
        <time>2021-09-10T07:37:52.662Z</time>
      </trkpt>
      <trkpt lat="45.5684" lon="5.92162">
        <ele>288</ele>
        <time>2021-09-10T07:37:53.661Z</time>
      </trkpt>
      <trkpt lat="45.56842" lon="5.92158">
        <ele>288</ele>
        <time>2021-09-10T07:37:54.661Z</time>
      </trkpt>
      <trkpt lat="45.56843" lon="5.92155">
        <ele>288</ele>
        <time>2021-09-10T07:37:55.662Z</time>
      </trkpt>
      <trkpt lat="45.56844" lon="5.92152">
        <ele>288</ele>
        <time>2021-09-10T07:37:56.662Z</time>
      </trkpt>
      <trkpt lat="45.56844" lon="5.92152">
        <ele>289</ele>
        <time>2021-09-10T07:37:57.662Z</time>
      </trkpt>
      <trkpt lat="45.56843" lon="5.92153">
        <ele>289</ele>
        <time>2021-09-10T07:37:58.661Z</time>
      </trkpt>
      <trkpt lat="45.56841" lon="5.92153">
        <ele>289</ele>
        <time>2021-09-10T07:37:59.662Z</time>
      </trkpt>
      <trkpt lat="45.5684" lon="5.92153">
        <ele>293</ele>
        <time>2021-09-10T07:38:00.662Z</time>
      </trkpt>
      <trkpt lat="45.5684" lon="5.92154">
        <ele>292</ele>
        <time>2021-09-10T07:38:01.663Z</time>
      </trkpt>
      <trkpt lat="45.5684" lon="5.92154">
        <ele>291</ele>
        <time>2021-09-10T07:38:02.663Z</time>
      </trkpt>
      <trkpt lat="45.56841" lon="5.92154">
        <ele>290</ele>
        <time>2021-09-10T07:38:03.662Z</time>
      </trkpt>
      <trkpt lat="45.56847" lon="5.92148">
        <ele>285</ele>
        <time>2021-09-10T07:38:04.664Z</time>
      </trkpt>
      <trkpt lat="45.56849" lon="5.92144">
        <ele>285</ele>
        <time>2021-09-10T07:38:05.664Z</time>
      </trkpt>
      <trkpt lat="45.56851" lon="5.92138">
        <ele>285</ele>
        <time>2021-09-10T07:38:06.663Z</time>
      </trkpt>
      <trkpt lat="45.56853" lon="5.92132">
        <ele>284</ele>
        <time>2021-09-10T07:38:07.663Z</time>
      </trkpt>
      <trkpt lat="45.56854" lon="5.92126">
        <ele>284</ele>
        <time>2021-09-10T07:38:08.664Z</time>
      </trkpt>
      <trkpt lat="45.56857" lon="5.92119">
        <ele>285</ele>
        <time>2021-09-10T07:38:09.663Z</time>
      </trkpt>
      <trkpt lat="45.56859" lon="5.92112">
        <ele>285</ele>
        <time>2021-09-10T07:38:10.664Z</time>
      </trkpt>
      <trkpt lat="45.56861" lon="5.92105">
        <ele>285</ele>
        <time>2021-09-10T07:38:11.664Z</time>
      </trkpt>
      <trkpt lat="45.56863" lon="5.92098">
        <ele>285</ele>
        <time>2021-09-10T07:38:12.664Z</time>
      </trkpt>
      <trkpt lat="45.56865" lon="5.9209">
        <ele>285</ele>
        <time>2021-09-10T07:38:13.664Z</time>
      </trkpt>
      <trkpt lat="45.56867" lon="5.92083">
        <ele>285</ele>
        <time>2021-09-10T07:38:14.663Z</time>
      </trkpt>
      <trkpt lat="45.56869" lon="5.92075">
        <ele>285</ele>
        <time>2021-09-10T07:38:15.663Z</time>
      </trkpt>
      <trkpt lat="45.56871" lon="5.92067">
        <ele>285</ele>
        <time>2021-09-10T07:38:16.663Z</time>
      </trkpt>
      <trkpt lat="45.56873" lon="5.92059">
        <ele>285</ele>
        <time>2021-09-10T07:38:17.664Z</time>
      </trkpt>
      <trkpt lat="45.56875" lon="5.92051">
        <ele>286</ele>
        <time>2021-09-10T07:38:18.663Z</time>
      </trkpt>
      <trkpt lat="45.56877" lon="5.92042">
        <ele>286</ele>
        <time>2021-09-10T07:38:19.664Z</time>
      </trkpt>
      <trkpt lat="45.56879" lon="5.92034">
        <ele>287</ele>
        <time>2021-09-10T07:38:20.664Z</time>
      </trkpt>
      <trkpt lat="45.56881" lon="5.92026">
        <ele>287</ele>
        <time>2021-09-10T07:38:21.663Z</time>
      </trkpt>
      <trkpt lat="45.56884" lon="5.92019">
        <ele>288</ele>
        <time>2021-09-10T07:38:22.664Z</time>
      </trkpt>
      <trkpt lat="45.56886" lon="5.92011">
        <ele>289</ele>
        <time>2021-09-10T07:38:23.664Z</time>
      </trkpt>
      <trkpt lat="45.56888" lon="5.92004">
        <ele>290</ele>
        <time>2021-09-10T07:38:24.663Z</time>
      </trkpt>
      <trkpt lat="45.56891" lon="5.91996">
        <ele>290</ele>
        <time>2021-09-10T07:38:25.664Z</time>
      </trkpt>
      <trkpt lat="45.56893" lon="5.91991">
        <ele>291</ele>
        <time>2021-09-10T07:38:26.663Z</time>
      </trkpt>
      <trkpt lat="45.56895" lon="5.91984">
        <ele>292</ele>
        <time>2021-09-10T07:38:27.663Z</time>
      </trkpt>
      <trkpt lat="45.56897" lon="5.91977">
        <ele>292</ele>
        <time>2021-09-10T07:38:28.664Z</time>
      </trkpt>
      <trkpt lat="45.56899" lon="5.91971">
        <ele>293</ele>
        <time>2021-09-10T07:38:29.664Z</time>
      </trkpt>
      <trkpt lat="45.56901" lon="5.91967">
        <ele>294</ele>
        <time>2021-09-10T07:38:30.664Z</time>
      </trkpt>
      <trkpt lat="45.56902" lon="5.91964">
        <ele>294</ele>
        <time>2021-09-10T07:38:31.664Z</time>
      </trkpt>
      <trkpt lat="45.56903" lon="5.91961">
        <ele>295</ele>
        <time>2021-09-10T07:38:32.663Z</time>
      </trkpt>
      <trkpt lat="45.56904" lon="5.91959">
        <ele>295</ele>
        <time>2021-09-10T07:38:33.663Z</time>
      </trkpt>
      <trkpt lat="45.56906" lon="5.91957">
        <ele>295</ele>
        <time>2021-09-10T07:38:34.664Z</time>
      </trkpt>
      <trkpt lat="45.56909" lon="5.91956">
        <ele>296</ele>
        <time>2021-09-10T07:38:35.663Z</time>
      </trkpt>
      <trkpt lat="45.56911" lon="5.91954">
        <ele>296</ele>
        <time>2021-09-10T07:38:36.663Z</time>
      </trkpt>
      <trkpt lat="45.56913" lon="5.91952">
        <ele>296</ele>
        <time>2021-09-10T07:38:37.664Z</time>
      </trkpt>
      <trkpt lat="45.56915" lon="5.91951">
        <ele>296</ele>
        <time>2021-09-10T07:38:38.663Z</time>
      </trkpt>
      <trkpt lat="45.56914" lon="5.9195">
        <ele>296</ele>
        <time>2021-09-10T07:38:39.664Z</time>
      </trkpt>
      <trkpt lat="45.56914" lon="5.9195">
        <ele>296</ele>
        <time>2021-09-10T07:38:40.664Z</time>
      </trkpt>
      <trkpt lat="45.56914" lon="5.91951">
        <ele>295</ele>
        <time>2021-09-10T07:38:41.664Z</time>
      </trkpt>
      <trkpt lat="45.56914" lon="5.91951">
        <ele>295</ele>
        <time>2021-09-10T07:38:42.663Z</time>
      </trkpt>
      <trkpt lat="45.56913" lon="5.91953">
        <ele>295</ele>
        <time>2021-09-10T07:38:43.664Z</time>
      </trkpt>
      <trkpt lat="45.56913" lon="5.91952">
        <ele>294</ele>
        <time>2021-09-10T07:38:44.663Z</time>
      </trkpt>
      <trkpt lat="45.56913" lon="5.91952">
        <ele>294</ele>
        <time>2021-09-10T07:38:45.664Z</time>
      </trkpt>
      <trkpt lat="45.56912" lon="5.91951">
        <ele>294</ele>
        <time>2021-09-10T07:38:46.663Z</time>
      </trkpt>
      <trkpt lat="45.56911" lon="5.91951">
        <ele>294</ele>
        <time>2021-09-10T07:38:47.664Z</time>
      </trkpt>
      <trkpt lat="45.56909" lon="5.91949">
        <ele>293</ele>
        <time>2021-09-10T07:38:48.664Z</time>
      </trkpt>
      <trkpt lat="45.56907" lon="5.91947">
        <ele>293</ele>
        <time>2021-09-10T07:38:49.664Z</time>
      </trkpt>
      <trkpt lat="45.56904" lon="5.91943">
        <ele>292</ele>
        <time>2021-09-10T07:38:50.663Z</time>
      </trkpt>
      <trkpt lat="45.56902" lon="5.9194">
        <ele>291</ele>
        <time>2021-09-10T07:38:51.664Z</time>
      </trkpt>
      <trkpt lat="45.56899" lon="5.91935">
        <ele>290</ele>
        <time>2021-09-10T07:38:52.663Z</time>
      </trkpt>
      <trkpt lat="45.56896" lon="5.91933">
        <ele>289</ele>
        <time>2021-09-10T07:38:53.664Z</time>
      </trkpt>
      <trkpt lat="45.56892" lon="5.91931">
        <ele>288</ele>
        <time>2021-09-10T07:38:54.664Z</time>
      </trkpt>
      <trkpt lat="45.56888" lon="5.91928">
        <ele>288</ele>
        <time>2021-09-10T07:38:55.664Z</time>
      </trkpt>
      <trkpt lat="45.56885" lon="5.91926">
        <ele>287</ele>
        <time>2021-09-10T07:38:56.664Z</time>
      </trkpt>
      <trkpt lat="45.56883" lon="5.91925">
        <ele>287</ele>
        <time>2021-09-10T07:38:57.663Z</time>
      </trkpt>
      <trkpt lat="45.56882" lon="5.91924">
        <ele>286</ele>
        <time>2021-09-10T07:38:58.664Z</time>
      </trkpt>
      <trkpt lat="45.56881" lon="5.91924">
        <ele>286</ele>
        <time>2021-09-10T07:38:59.664Z</time>
      </trkpt>
      <trkpt lat="45.56881" lon="5.91924">
        <ele>285</ele>
        <time>2021-09-10T07:39:00.664Z</time>
      </trkpt>
      <trkpt lat="45.56881" lon="5.91924">
        <ele>284</ele>
        <time>2021-09-10T07:39:01.664Z</time>
      </trkpt>
      <trkpt lat="45.5688" lon="5.91922">
        <ele>281</ele>
        <time>2021-09-10T07:39:02.663Z</time>
      </trkpt>
      <trkpt lat="45.56879" lon="5.9192">
        <ele>281</ele>
        <time>2021-09-10T07:39:03.663Z</time>
      </trkpt>
      <trkpt lat="45.56879" lon="5.91918">
        <ele>281</ele>
        <time>2021-09-10T07:39:04.664Z</time>
      </trkpt>
      <trkpt lat="45.56879" lon="5.91916">
        <ele>281</ele>
        <time>2021-09-10T07:39:05.663Z</time>
      </trkpt>
      <trkpt lat="45.5688" lon="5.91913">
        <ele>281</ele>
        <time>2021-09-10T07:39:06.664Z</time>
      </trkpt>
      <trkpt lat="45.56881" lon="5.9191">
        <ele>282</ele>
        <time>2021-09-10T07:39:07.664Z</time>
      </trkpt>
      <trkpt lat="45.56883" lon="5.91906">
        <ele>282</ele>
        <time>2021-09-10T07:39:08.664Z</time>
      </trkpt>
      <trkpt lat="45.56886" lon="5.91903">
        <ele>282</ele>
        <time>2021-09-10T07:39:09.664Z</time>
      </trkpt>
      <trkpt lat="45.56889" lon="5.919">
        <ele>282</ele>
        <time>2021-09-10T07:39:10.664Z</time>
      </trkpt>
      <trkpt lat="45.56892" lon="5.91897">
        <ele>282</ele>
        <time>2021-09-10T07:39:11.664Z</time>
      </trkpt>
      <trkpt lat="45.56895" lon="5.91894">
        <ele>282</ele>
        <time>2021-09-10T07:39:12.664Z</time>
      </trkpt>
      <trkpt lat="45.56898" lon="5.91891">
        <ele>281</ele>
        <time>2021-09-10T07:39:13.664Z</time>
      </trkpt>
      <trkpt lat="45.56902" lon="5.91888">
        <ele>281</ele>
        <time>2021-09-10T07:39:14.664Z</time>
      </trkpt>
      <trkpt lat="45.56904" lon="5.91885">
        <ele>281</ele>
        <time>2021-09-10T07:39:15.664Z</time>
      </trkpt>
      <trkpt lat="45.56907" lon="5.91881">
        <ele>282</ele>
        <time>2021-09-10T07:39:16.664Z</time>
      </trkpt>
      <trkpt lat="45.56909" lon="5.91878">
        <ele>282</ele>
        <time>2021-09-10T07:39:17.664Z</time>
      </trkpt>
      <trkpt lat="45.56911" lon="5.91874">
        <ele>282</ele>
        <time>2021-09-10T07:39:18.664Z</time>
      </trkpt>
      <trkpt lat="45.56913" lon="5.91871">
        <ele>283</ele>
        <time>2021-09-10T07:39:19.664Z</time>
      </trkpt>
      <trkpt lat="45.56916" lon="5.91868">
        <ele>284</ele>
        <time>2021-09-10T07:39:20.663Z</time>
      </trkpt>
      <trkpt lat="45.56918" lon="5.91866">
        <ele>284</ele>
        <time>2021-09-10T07:39:21.664Z</time>
      </trkpt>
      <trkpt lat="45.56921" lon="5.91863">
        <ele>284</ele>
        <time>2021-09-10T07:39:22.663Z</time>
      </trkpt>
      <trkpt lat="45.56924" lon="5.91861">
        <ele>284</ele>
        <time>2021-09-10T07:39:23.664Z</time>
      </trkpt>
      <trkpt lat="45.56927" lon="5.91857">
        <ele>284</ele>
        <time>2021-09-10T07:39:24.664Z</time>
      </trkpt>
      <trkpt lat="45.56931" lon="5.91853">
        <ele>284</ele>
        <time>2021-09-10T07:39:25.664Z</time>
      </trkpt>
      <trkpt lat="45.56934" lon="5.9185">
        <ele>284</ele>
        <time>2021-09-10T07:39:26.663Z</time>
      </trkpt>
      <trkpt lat="45.56939" lon="5.91846">
        <ele>284</ele>
        <time>2021-09-10T07:39:27.664Z</time>
      </trkpt>
      <trkpt lat="45.56942" lon="5.91843">
        <ele>284</ele>
        <time>2021-09-10T07:39:28.663Z</time>
      </trkpt>
      <trkpt lat="45.56946" lon="5.9184">
        <ele>283</ele>
        <time>2021-09-10T07:39:29.664Z</time>
      </trkpt>
      <trkpt lat="45.5695" lon="5.91836">
        <ele>283</ele>
        <time>2021-09-10T07:39:30.664Z</time>
      </trkpt>
      <trkpt lat="45.56954" lon="5.91833">
        <ele>283</ele>
        <time>2021-09-10T07:39:31.664Z</time>
      </trkpt>
      <trkpt lat="45.56958" lon="5.9183">
        <ele>282</ele>
        <time>2021-09-10T07:39:32.663Z</time>
      </trkpt>
      <trkpt lat="45.56963" lon="5.91826">
        <ele>282</ele>
        <time>2021-09-10T07:39:33.664Z</time>
      </trkpt>
      <trkpt lat="45.56968" lon="5.91822">
        <ele>282</ele>
        <time>2021-09-10T07:39:34.663Z</time>
      </trkpt>
      <trkpt lat="45.56971" lon="5.91819">
        <ele>282</ele>
        <time>2021-09-10T07:39:35.664Z</time>
      </trkpt>
      <trkpt lat="45.56975" lon="5.91815">
        <ele>282</ele>
        <time>2021-09-10T07:39:36.664Z</time>
      </trkpt>
      <trkpt lat="45.5698" lon="5.91811">
        <ele>282</ele>
        <time>2021-09-10T07:39:37.663Z</time>
      </trkpt>
      <trkpt lat="45.56983" lon="5.91808">
        <ele>282</ele>
        <time>2021-09-10T07:39:38.664Z</time>
      </trkpt>
      <trkpt lat="45.56988" lon="5.91804">
        <ele>282</ele>
        <time>2021-09-10T07:39:39.664Z</time>
      </trkpt>
      <trkpt lat="45.56992" lon="5.91801">
        <ele>282</ele>
        <time>2021-09-10T07:39:40.663Z</time>
      </trkpt>
      <trkpt lat="45.56996" lon="5.91797">
        <ele>282</ele>
        <time>2021-09-10T07:39:41.663Z</time>
      </trkpt>
      <trkpt lat="45.57" lon="5.91793">
        <ele>282</ele>
        <time>2021-09-10T07:39:42.664Z</time>
      </trkpt>
      <trkpt lat="45.57004" lon="5.91788">
        <ele>282</ele>
        <time>2021-09-10T07:39:43.664Z</time>
      </trkpt>
      <trkpt lat="45.57008" lon="5.91785">
        <ele>282</ele>
        <time>2021-09-10T07:39:44.663Z</time>
      </trkpt>
      <trkpt lat="45.57012" lon="5.91782">
        <ele>282</ele>
        <time>2021-09-10T07:39:45.663Z</time>
      </trkpt>
      <trkpt lat="45.57016" lon="5.91779">
        <ele>282</ele>
        <time>2021-09-10T07:39:46.664Z</time>
      </trkpt>
      <trkpt lat="45.5702" lon="5.91776">
        <ele>282</ele>
        <time>2021-09-10T07:39:47.663Z</time>
      </trkpt>
      <trkpt lat="45.57025" lon="5.91773">
        <ele>282</ele>
        <time>2021-09-10T07:39:48.663Z</time>
      </trkpt>
      <trkpt lat="45.57029" lon="5.9177">
        <ele>282</ele>
        <time>2021-09-10T07:39:49.664Z</time>
      </trkpt>
      <trkpt lat="45.57033" lon="5.91766">
        <ele>282</ele>
        <time>2021-09-10T07:39:50.663Z</time>
      </trkpt>
      <trkpt lat="45.57037" lon="5.91763">
        <ele>283</ele>
        <time>2021-09-10T07:39:51.663Z</time>
      </trkpt>
      <trkpt lat="45.57042" lon="5.91759">
        <ele>283</ele>
        <time>2021-09-10T07:39:52.664Z</time>
      </trkpt>
      <trkpt lat="45.57045" lon="5.91756">
        <ele>282</ele>
        <time>2021-09-10T07:39:53.664Z</time>
      </trkpt>
      <trkpt lat="45.57047" lon="5.91753">
        <ele>281</ele>
        <time>2021-09-10T07:39:54.664Z</time>
      </trkpt>
      <trkpt lat="45.5705" lon="5.9175">
        <ele>280</ele>
        <time>2021-09-10T07:39:55.664Z</time>
      </trkpt>
      <trkpt lat="45.57053" lon="5.91747">
        <ele>279</ele>
        <time>2021-09-10T07:39:56.663Z</time>
      </trkpt>
      <trkpt lat="45.57054" lon="5.91746">
        <ele>279</ele>
        <time>2021-09-10T07:39:57.664Z</time>
      </trkpt>
      <trkpt lat="45.57056" lon="5.91746">
        <ele>279</ele>
        <time>2021-09-10T07:39:58.663Z</time>
      </trkpt>
      <trkpt lat="45.57057" lon="5.91745">
        <ele>279</ele>
        <time>2021-09-10T07:39:59.664Z</time>
      </trkpt>
      <trkpt lat="45.57058" lon="5.91743">
        <ele>279</ele>
        <time>2021-09-10T07:40:00.663Z</time>
      </trkpt>
      <trkpt lat="45.5706" lon="5.91742">
        <ele>279</ele>
        <time>2021-09-10T07:40:01.664Z</time>
      </trkpt>
      <trkpt lat="45.57062" lon="5.91741">
        <ele>279</ele>
        <time>2021-09-10T07:40:02.664Z</time>
      </trkpt>
      <trkpt lat="45.57064" lon="5.91739">
        <ele>279</ele>
        <time>2021-09-10T07:40:03.664Z</time>
      </trkpt>
      <trkpt lat="45.57067" lon="5.91738">
        <ele>279</ele>
        <time>2021-09-10T07:40:04.664Z</time>
      </trkpt>
      <trkpt lat="45.57069" lon="5.91738">
        <ele>279</ele>
        <time>2021-09-10T07:40:05.663Z</time>
      </trkpt>
      <trkpt lat="45.57072" lon="5.91738">
        <ele>279</ele>
        <time>2021-09-10T07:40:06.663Z</time>
      </trkpt>
      <trkpt lat="45.57074" lon="5.91739">
        <ele>280</ele>
        <time>2021-09-10T07:40:07.664Z</time>
      </trkpt>
      <trkpt lat="45.57075" lon="5.9174">
        <ele>280</ele>
        <time>2021-09-10T07:40:08.664Z</time>
      </trkpt>
      <trkpt lat="45.57077" lon="5.91742">
        <ele>280</ele>
        <time>2021-09-10T07:40:09.664Z</time>
      </trkpt>
      <trkpt lat="45.57079" lon="5.91744">
        <ele>281</ele>
        <time>2021-09-10T07:40:10.664Z</time>
      </trkpt>
      <trkpt lat="45.57081" lon="5.91745">
        <ele>282</ele>
        <time>2021-09-10T07:40:11.663Z</time>
      </trkpt>
      <trkpt lat="45.57083" lon="5.91744">
        <ele>282</ele>
        <time>2021-09-10T07:40:12.664Z</time>
      </trkpt>
      <trkpt lat="45.57086" lon="5.91742">
        <ele>283</ele>
        <time>2021-09-10T07:40:13.664Z</time>
      </trkpt>
      <trkpt lat="45.57088" lon="5.91739">
        <ele>283</ele>
        <time>2021-09-10T07:40:14.664Z</time>
      </trkpt>
      <trkpt lat="45.5709" lon="5.91735">
        <ele>283</ele>
        <time>2021-09-10T07:40:15.664Z</time>
      </trkpt>
      <trkpt lat="45.57093" lon="5.91731">
        <ele>284</ele>
        <time>2021-09-10T07:40:16.663Z</time>
      </trkpt>
      <trkpt lat="45.57096" lon="5.91725">
        <ele>284</ele>
        <time>2021-09-10T07:40:17.664Z</time>
      </trkpt>
      <trkpt lat="45.57099" lon="5.91722">
        <ele>285</ele>
        <time>2021-09-10T07:40:18.664Z</time>
      </trkpt>
      <trkpt lat="45.57103" lon="5.91718">
        <ele>285</ele>
        <time>2021-09-10T07:40:19.663Z</time>
      </trkpt>
      <trkpt lat="45.57107" lon="5.91714">
        <ele>285</ele>
        <time>2021-09-10T07:40:20.663Z</time>
      </trkpt>
      <trkpt lat="45.57111" lon="5.9171">
        <ele>286</ele>
        <time>2021-09-10T07:40:21.664Z</time>
      </trkpt>
      <trkpt lat="45.57114" lon="5.91706">
        <ele>286</ele>
        <time>2021-09-10T07:40:22.664Z</time>
      </trkpt>
      <trkpt lat="45.57119" lon="5.91702">
        <ele>287</ele>
        <time>2021-09-10T07:40:23.664Z</time>
      </trkpt>
      <trkpt lat="45.57123" lon="5.91698">
        <ele>287</ele>
        <time>2021-09-10T07:40:24.663Z</time>
      </trkpt>
      <trkpt lat="45.57127" lon="5.91695">
        <ele>288</ele>
        <time>2021-09-10T07:40:25.664Z</time>
      </trkpt>
      <trkpt lat="45.57133" lon="5.9169">
        <ele>288</ele>
        <time>2021-09-10T07:40:26.664Z</time>
      </trkpt>
      <trkpt lat="45.57137" lon="5.91686">
        <ele>288</ele>
        <time>2021-09-10T07:40:27.663Z</time>
      </trkpt>
      <trkpt lat="45.57141" lon="5.91683">
        <ele>288</ele>
        <time>2021-09-10T07:40:28.664Z</time>
      </trkpt>
      <trkpt lat="45.57146" lon="5.91678">
        <ele>289</ele>
        <time>2021-09-10T07:40:29.663Z</time>
      </trkpt>
      <trkpt lat="45.5715" lon="5.91676">
        <ele>289</ele>
        <time>2021-09-10T07:40:30.664Z</time>
      </trkpt>
      <trkpt lat="45.57155" lon="5.91673">
        <ele>289</ele>
        <time>2021-09-10T07:40:31.663Z</time>
      </trkpt>
      <trkpt lat="45.57159" lon="5.91669">
        <ele>289</ele>
        <time>2021-09-10T07:40:32.664Z</time>
      </trkpt>
      <trkpt lat="45.57164" lon="5.91667">
        <ele>289</ele>
        <time>2021-09-10T07:40:33.664Z</time>
      </trkpt>
      <trkpt lat="45.57168" lon="5.91663">
        <ele>289</ele>
        <time>2021-09-10T07:40:34.664Z</time>
      </trkpt>
      <trkpt lat="45.57173" lon="5.9166">
        <ele>290</ele>
        <time>2021-09-10T07:40:35.664Z</time>
      </trkpt>
      <trkpt lat="45.57179" lon="5.91656">
        <ele>290</ele>
        <time>2021-09-10T07:40:36.664Z</time>
      </trkpt>
      <trkpt lat="45.57184" lon="5.91653">
        <ele>290</ele>
        <time>2021-09-10T07:40:37.664Z</time>
      </trkpt>
      <trkpt lat="45.57189" lon="5.9165">
        <ele>291</ele>
        <time>2021-09-10T07:40:38.663Z</time>
      </trkpt>
      <trkpt lat="45.57195" lon="5.91646">
        <ele>292</ele>
        <time>2021-09-10T07:40:39.663Z</time>
      </trkpt>
      <trkpt lat="45.57198" lon="5.91644">
        <ele>292</ele>
        <time>2021-09-10T07:40:40.664Z</time>
      </trkpt>
      <trkpt lat="45.57199" lon="5.9164">
        <ele>293</ele>
        <time>2021-09-10T07:40:41.663Z</time>
      </trkpt>
      <trkpt lat="45.57204" lon="5.91635">
        <ele>294</ele>
        <time>2021-09-10T07:40:42.663Z</time>
      </trkpt>
      <trkpt lat="45.57208" lon="5.91633">
        <ele>294</ele>
        <time>2021-09-10T07:40:43.664Z</time>
      </trkpt>
      <trkpt lat="45.57213" lon="5.9163">
        <ele>294</ele>
        <time>2021-09-10T07:40:44.664Z</time>
      </trkpt>
      <trkpt lat="45.57217" lon="5.91626">
        <ele>294</ele>
        <time>2021-09-10T07:40:45.664Z</time>
      </trkpt>
      <trkpt lat="45.57221" lon="5.91623">
        <ele>294</ele>
        <time>2021-09-10T07:40:46.664Z</time>
      </trkpt>
      <trkpt lat="45.57225" lon="5.9162">
        <ele>294</ele>
        <time>2021-09-10T07:40:47.664Z</time>
      </trkpt>
      <trkpt lat="45.57228" lon="5.91617">
        <ele>293</ele>
        <time>2021-09-10T07:40:48.664Z</time>
      </trkpt>
      <trkpt lat="45.57232" lon="5.91615">
        <ele>293</ele>
        <time>2021-09-10T07:40:49.664Z</time>
      </trkpt>
      <trkpt lat="45.57236" lon="5.91612">
        <ele>293</ele>
        <time>2021-09-10T07:40:50.663Z</time>
      </trkpt>
      <trkpt lat="45.5724" lon="5.91609">
        <ele>292</ele>
        <time>2021-09-10T07:40:51.664Z</time>
      </trkpt>
      <trkpt lat="45.57244" lon="5.91608">
        <ele>292</ele>
        <time>2021-09-10T07:40:52.664Z</time>
      </trkpt>
      <trkpt lat="45.57248" lon="5.91608">
        <ele>292</ele>
        <time>2021-09-10T07:40:53.664Z</time>
      </trkpt>
      <trkpt lat="45.57253" lon="5.91606">
        <ele>292</ele>
        <time>2021-09-10T07:40:54.663Z</time>
      </trkpt>
      <trkpt lat="45.57257" lon="5.91603">
        <ele>292</ele>
        <time>2021-09-10T07:40:55.663Z</time>
      </trkpt>
      <trkpt lat="45.5726" lon="5.916">
        <ele>292</ele>
        <time>2021-09-10T07:40:56.664Z</time>
      </trkpt>
      <trkpt lat="45.57263" lon="5.91597">
        <ele>292</ele>
        <time>2021-09-10T07:40:57.664Z</time>
      </trkpt>
      <trkpt lat="45.57266" lon="5.91594">
        <ele>292</ele>
        <time>2021-09-10T07:40:58.664Z</time>
      </trkpt>
      <trkpt lat="45.5727" lon="5.9159">
        <ele>292</ele>
        <time>2021-09-10T07:40:59.664Z</time>
      </trkpt>
      <trkpt lat="45.57274" lon="5.91587">
        <ele>292</ele>
        <time>2021-09-10T07:41:00.664Z</time>
      </trkpt>
      <trkpt lat="45.57278" lon="5.91584">
        <ele>291</ele>
        <time>2021-09-10T07:41:01.663Z</time>
      </trkpt>
      <trkpt lat="45.57282" lon="5.91581">
        <ele>290</ele>
        <time>2021-09-10T07:41:02.664Z</time>
      </trkpt>
      <trkpt lat="45.57286" lon="5.91578">
        <ele>290</ele>
        <time>2021-09-10T07:41:03.664Z</time>
      </trkpt>
      <trkpt lat="45.57288" lon="5.91576">
        <ele>290</ele>
        <time>2021-09-10T07:41:04.663Z</time>
      </trkpt>
      <trkpt lat="45.5729" lon="5.91574">
        <ele>290</ele>
        <time>2021-09-10T07:41:05.663Z</time>
      </trkpt>
      <trkpt lat="45.57292" lon="5.91572">
        <ele>290</ele>
        <time>2021-09-10T07:41:06.664Z</time>
      </trkpt>
      <trkpt lat="45.57294" lon="5.9157">
        <ele>290</ele>
        <time>2021-09-10T07:41:07.664Z</time>
      </trkpt>
      <trkpt lat="45.57298" lon="5.91567">
        <ele>290</ele>
        <time>2021-09-10T07:41:08.664Z</time>
      </trkpt>
      <trkpt lat="45.57301" lon="5.91564">
        <ele>290</ele>
        <time>2021-09-10T07:41:09.663Z</time>
      </trkpt>
      <trkpt lat="45.57304" lon="5.91562">
        <ele>290</ele>
        <time>2021-09-10T07:41:10.664Z</time>
      </trkpt>
      <trkpt lat="45.57307" lon="5.91561">
        <ele>290</ele>
        <time>2021-09-10T07:41:11.663Z</time>
      </trkpt>
      <trkpt lat="45.57311" lon="5.91559">
        <ele>290</ele>
        <time>2021-09-10T07:41:12.664Z</time>
      </trkpt>
      <trkpt lat="45.57314" lon="5.91558">
        <ele>290</ele>
        <time>2021-09-10T07:41:13.663Z</time>
      </trkpt>
      <trkpt lat="45.57318" lon="5.91557">
        <ele>291</ele>
        <time>2021-09-10T07:41:14.664Z</time>
      </trkpt>
      <trkpt lat="45.57321" lon="5.91555">
        <ele>291</ele>
        <time>2021-09-10T07:41:15.664Z</time>
      </trkpt>
      <trkpt lat="45.57324" lon="5.91553">
        <ele>291</ele>
        <time>2021-09-10T07:41:16.664Z</time>
      </trkpt>
      <trkpt lat="45.57327" lon="5.91552">
        <ele>291</ele>
        <time>2021-09-10T07:41:17.663Z</time>
      </trkpt>
      <trkpt lat="45.57328" lon="5.91551">
        <ele>291</ele>
        <time>2021-09-10T07:41:18.663Z</time>
      </trkpt>
      <trkpt lat="45.57329" lon="5.91552">
        <ele>290</ele>
        <time>2021-09-10T07:41:19.664Z</time>
      </trkpt>
      <trkpt lat="45.57329" lon="5.91553">
        <ele>289</ele>
        <time>2021-09-10T07:41:20.663Z</time>
      </trkpt>
      <trkpt lat="45.57329" lon="5.91553">
        <ele>288</ele>
        <time>2021-09-10T07:41:21.663Z</time>
      </trkpt>
      <trkpt lat="45.57329" lon="5.91554">
        <ele>287</ele>
        <time>2021-09-10T07:41:22.664Z</time>
      </trkpt>
      <trkpt lat="45.57329" lon="5.91553">
        <ele>287</ele>
        <time>2021-09-10T07:41:23.663Z</time>
      </trkpt>
      <trkpt lat="45.57342" lon="5.91547">
        <ele>287</ele>
        <time>2021-09-10T07:41:24.664Z</time>
      </trkpt>
      <trkpt lat="45.57344" lon="5.91546">
        <ele>287</ele>
        <time>2021-09-10T07:41:25.663Z</time>
      </trkpt>
      <trkpt lat="45.57346" lon="5.91546">
        <ele>287</ele>
        <time>2021-09-10T07:41:26.663Z</time>
      </trkpt>
      <trkpt lat="45.57349" lon="5.91544">
        <ele>287</ele>
        <time>2021-09-10T07:41:27.664Z</time>
      </trkpt>
      <trkpt lat="45.57353" lon="5.91542">
        <ele>287</ele>
        <time>2021-09-10T07:41:28.664Z</time>
      </trkpt>
      <trkpt lat="45.57356" lon="5.91541">
        <ele>288</ele>
        <time>2021-09-10T07:41:29.663Z</time>
      </trkpt>
      <trkpt lat="45.5736" lon="5.91539">
        <ele>288</ele>
        <time>2021-09-10T07:41:30.663Z</time>
      </trkpt>
      <trkpt lat="45.57363" lon="5.91538">
        <ele>289</ele>
        <time>2021-09-10T07:41:31.664Z</time>
      </trkpt>
      <trkpt lat="45.57366" lon="5.91536">
        <ele>289</ele>
        <time>2021-09-10T07:41:32.664Z</time>
      </trkpt>
      <trkpt lat="45.57369" lon="5.91534">
        <ele>289</ele>
        <time>2021-09-10T07:41:33.664Z</time>
      </trkpt>
      <trkpt lat="45.57373" lon="5.91532">
        <ele>290</ele>
        <time>2021-09-10T07:41:34.663Z</time>
      </trkpt>
      <trkpt lat="45.57376" lon="5.91531">
        <ele>290</ele>
        <time>2021-09-10T07:41:35.664Z</time>
      </trkpt>
      <trkpt lat="45.57379" lon="5.91529">
        <ele>289</ele>
        <time>2021-09-10T07:41:36.664Z</time>
      </trkpt>
      <trkpt lat="45.57382" lon="5.91528">
        <ele>289</ele>
        <time>2021-09-10T07:41:37.664Z</time>
      </trkpt>
      <trkpt lat="45.57385" lon="5.91527">
        <ele>289</ele>
        <time>2021-09-10T07:41:38.663Z</time>
      </trkpt>
      <trkpt lat="45.57389" lon="5.91526">
        <ele>289</ele>
        <time>2021-09-10T07:41:39.664Z</time>
      </trkpt>
      <trkpt lat="45.57394" lon="5.91525">
        <ele>289</ele>
        <time>2021-09-10T07:41:40.663Z</time>
      </trkpt>
      <trkpt lat="45.574" lon="5.91524">
        <ele>289</ele>
        <time>2021-09-10T07:41:41.664Z</time>
      </trkpt>
      <trkpt lat="45.57405" lon="5.91523">
        <ele>289</ele>
        <time>2021-09-10T07:41:42.663Z</time>
      </trkpt>
      <trkpt lat="45.5741" lon="5.91521">
        <ele>290</ele>
        <time>2021-09-10T07:41:43.663Z</time>
      </trkpt>
      <trkpt lat="45.57415" lon="5.91519">
        <ele>290</ele>
        <time>2021-09-10T07:41:44.664Z</time>
      </trkpt>
      <trkpt lat="45.5742" lon="5.91517">
        <ele>290</ele>
        <time>2021-09-10T07:41:45.664Z</time>
      </trkpt>
      <trkpt lat="45.57425" lon="5.91517">
        <ele>291</ele>
        <time>2021-09-10T07:41:46.663Z</time>
      </trkpt>
      <trkpt lat="45.5743" lon="5.91516">
        <ele>290</ele>
        <time>2021-09-10T07:41:47.664Z</time>
      </trkpt>
      <trkpt lat="45.57436" lon="5.91514">
        <ele>290</ele>
        <time>2021-09-10T07:41:48.664Z</time>
      </trkpt>
      <trkpt lat="45.57441" lon="5.91513">
        <ele>289</ele>
        <time>2021-09-10T07:41:49.663Z</time>
      </trkpt>
      <trkpt lat="45.57446" lon="5.91512">
        <ele>288</ele>
        <time>2021-09-10T07:41:50.664Z</time>
      </trkpt>
      <trkpt lat="45.57453" lon="5.91511">
        <ele>287</ele>
        <time>2021-09-10T07:41:51.664Z</time>
      </trkpt>
      <trkpt lat="45.57457" lon="5.9151">
        <ele>286</ele>
        <time>2021-09-10T07:41:52.663Z</time>
      </trkpt>
      <trkpt lat="45.57461" lon="5.9151">
        <ele>286</ele>
        <time>2021-09-10T07:41:53.664Z</time>
      </trkpt>
      <trkpt lat="45.57466" lon="5.9151">
        <ele>285</ele>
        <time>2021-09-10T07:41:54.664Z</time>
      </trkpt>
      <trkpt lat="45.57471" lon="5.91509">
        <ele>285</ele>
        <time>2021-09-10T07:41:55.663Z</time>
      </trkpt>
      <trkpt lat="45.57475" lon="5.91508">
        <ele>285</ele>
        <time>2021-09-10T07:41:56.664Z</time>
      </trkpt>
      <trkpt lat="45.5748" lon="5.91507">
        <ele>284</ele>
        <time>2021-09-10T07:41:57.664Z</time>
      </trkpt>
      <trkpt lat="45.57485" lon="5.91506">
        <ele>283</ele>
        <time>2021-09-10T07:41:58.664Z</time>
      </trkpt>
      <trkpt lat="45.57489" lon="5.91505">
        <ele>283</ele>
        <time>2021-09-10T07:41:59.664Z</time>
      </trkpt>
      <trkpt lat="45.57494" lon="5.91504">
        <ele>282</ele>
        <time>2021-09-10T07:42:00.663Z</time>
      </trkpt>
      <trkpt lat="45.575" lon="5.91504">
        <ele>282</ele>
        <time>2021-09-10T07:42:01.664Z</time>
      </trkpt>
      <trkpt lat="45.57504" lon="5.91503">
        <ele>282</ele>
        <time>2021-09-10T07:42:02.664Z</time>
      </trkpt>
      <trkpt lat="45.57509" lon="5.91503">
        <ele>281</ele>
        <time>2021-09-10T07:42:03.664Z</time>
      </trkpt>
      <trkpt lat="45.57512" lon="5.91502">
        <ele>281</ele>
        <time>2021-09-10T07:42:04.663Z</time>
      </trkpt>
      <trkpt lat="45.57516" lon="5.91501">
        <ele>281</ele>
        <time>2021-09-10T07:42:05.664Z</time>
      </trkpt>
      <trkpt lat="45.57521" lon="5.915">
        <ele>281</ele>
        <time>2021-09-10T07:42:06.664Z</time>
      </trkpt>
      <trkpt lat="45.57526" lon="5.91499">
        <ele>281</ele>
        <time>2021-09-10T07:42:07.664Z</time>
      </trkpt>
      <trkpt lat="45.57531" lon="5.91497">
        <ele>280</ele>
        <time>2021-09-10T07:42:08.663Z</time>
      </trkpt>
      <trkpt lat="45.57536" lon="5.91496">
        <ele>280</ele>
        <time>2021-09-10T07:42:09.664Z</time>
      </trkpt>
      <trkpt lat="45.57541" lon="5.91495">
        <ele>280</ele>
        <time>2021-09-10T07:42:10.664Z</time>
      </trkpt>
      <trkpt lat="45.57545" lon="5.91494">
        <ele>279</ele>
        <time>2021-09-10T07:42:11.664Z</time>
      </trkpt>
      <trkpt lat="45.5755" lon="5.91493">
        <ele>279</ele>
        <time>2021-09-10T07:42:12.663Z</time>
      </trkpt>
      <trkpt lat="45.57553" lon="5.91491">
        <ele>279</ele>
        <time>2021-09-10T07:42:13.664Z</time>
      </trkpt>
      <trkpt lat="45.57555" lon="5.9149">
        <ele>278</ele>
        <time>2021-09-10T07:42:14.664Z</time>
      </trkpt>
      <trkpt lat="45.57556" lon="5.91487">
        <ele>277</ele>
        <time>2021-09-10T07:42:15.664Z</time>
      </trkpt>
      <trkpt lat="45.57557" lon="5.91483">
        <ele>277</ele>
        <time>2021-09-10T07:42:16.664Z</time>
      </trkpt>
      <trkpt lat="45.57557" lon="5.9148">
        <ele>276</ele>
        <time>2021-09-10T07:42:17.664Z</time>
      </trkpt>
      <trkpt lat="45.57556" lon="5.91476">
        <ele>276</ele>
        <time>2021-09-10T07:42:18.664Z</time>
      </trkpt>
      <trkpt lat="45.57556" lon="5.9147">
        <ele>276</ele>
        <time>2021-09-10T07:42:19.663Z</time>
      </trkpt>
      <trkpt lat="45.57555" lon="5.91465">
        <ele>276</ele>
        <time>2021-09-10T07:42:20.664Z</time>
      </trkpt>
      <trkpt lat="45.57555" lon="5.91462">
        <ele>276</ele>
        <time>2021-09-10T07:42:21.664Z</time>
      </trkpt>
      <trkpt lat="45.57554" lon="5.91458">
        <ele>275</ele>
        <time>2021-09-10T07:42:22.664Z</time>
      </trkpt>
      <trkpt lat="45.57554" lon="5.91454">
        <ele>275</ele>
        <time>2021-09-10T07:42:23.663Z</time>
      </trkpt>
      <trkpt lat="45.57553" lon="5.9145">
        <ele>274</ele>
        <time>2021-09-10T07:42:24.663Z</time>
      </trkpt>
      <trkpt lat="45.57552" lon="5.91446">
        <ele>274</ele>
        <time>2021-09-10T07:42:25.664Z</time>
      </trkpt>
      <trkpt lat="45.57551" lon="5.91442">
        <ele>274</ele>
        <time>2021-09-10T07:42:26.664Z</time>
      </trkpt>
      <trkpt lat="45.57551" lon="5.91439">
        <ele>273</ele>
        <time>2021-09-10T07:42:27.663Z</time>
      </trkpt>
      <trkpt lat="45.5755" lon="5.91435">
        <ele>273</ele>
        <time>2021-09-10T07:42:28.664Z</time>
      </trkpt>
      <trkpt lat="45.57549" lon="5.91431">
        <ele>273</ele>
        <time>2021-09-10T07:42:29.664Z</time>
      </trkpt>
      <trkpt lat="45.57548" lon="5.91427">
        <ele>273</ele>
        <time>2021-09-10T07:42:30.664Z</time>
      </trkpt>
      <trkpt lat="45.57547" lon="5.91424">
        <ele>273</ele>
        <time>2021-09-10T07:42:31.664Z</time>
      </trkpt>
      <trkpt lat="45.57546" lon="5.9142">
        <ele>273</ele>
        <time>2021-09-10T07:42:32.664Z</time>
      </trkpt>
      <trkpt lat="45.57545" lon="5.91416">
        <ele>272</ele>
        <time>2021-09-10T07:42:33.664Z</time>
      </trkpt>
      <trkpt lat="45.57544" lon="5.91413">
        <ele>272</ele>
        <time>2021-09-10T07:42:34.664Z</time>
      </trkpt>
      <trkpt lat="45.57543" lon="5.9141">
        <ele>272</ele>
        <time>2021-09-10T07:42:35.664Z</time>
      </trkpt>
      <trkpt lat="45.57542" lon="5.91406">
        <ele>272</ele>
        <time>2021-09-10T07:42:36.664Z</time>
      </trkpt>
      <trkpt lat="45.57541" lon="5.91403">
        <ele>272</ele>
        <time>2021-09-10T07:42:37.664Z</time>
      </trkpt>
      <trkpt lat="45.57541" lon="5.91399">
        <ele>272</ele>
        <time>2021-09-10T07:42:38.664Z</time>
      </trkpt>
      <trkpt lat="45.57539" lon="5.91396">
        <ele>272</ele>
        <time>2021-09-10T07:42:39.663Z</time>
      </trkpt>
      <trkpt lat="45.57539" lon="5.91393">
        <ele>272</ele>
        <time>2021-09-10T07:42:40.664Z</time>
      </trkpt>
      <trkpt lat="45.57538" lon="5.9139">
        <ele>273</ele>
        <time>2021-09-10T07:42:41.663Z</time>
      </trkpt>
      <trkpt lat="45.57538" lon="5.91387">
        <ele>273</ele>
        <time>2021-09-10T07:42:42.664Z</time>
      </trkpt>
      <trkpt lat="45.57537" lon="5.91384">
        <ele>274</ele>
        <time>2021-09-10T07:42:43.664Z</time>
      </trkpt>
      <trkpt lat="45.57536" lon="5.91381">
        <ele>274</ele>
        <time>2021-09-10T07:42:44.663Z</time>
      </trkpt>
      <trkpt lat="45.57535" lon="5.91378">
        <ele>275</ele>
        <time>2021-09-10T07:42:45.663Z</time>
      </trkpt>
      <trkpt lat="45.57534" lon="5.91375">
        <ele>275</ele>
        <time>2021-09-10T07:42:46.663Z</time>
      </trkpt>
      <trkpt lat="45.57533" lon="5.91373">
        <ele>275</ele>
        <time>2021-09-10T07:42:47.664Z</time>
      </trkpt>
      <trkpt lat="45.57532" lon="5.9137">
        <ele>275</ele>
        <time>2021-09-10T07:42:48.664Z</time>
      </trkpt>
      <trkpt lat="45.57531" lon="5.91367">
        <ele>276</ele>
        <time>2021-09-10T07:42:49.664Z</time>
      </trkpt>
      <trkpt lat="45.57531" lon="5.91364">
        <ele>275</ele>
        <time>2021-09-10T07:42:50.664Z</time>
      </trkpt>
      <trkpt lat="45.5753" lon="5.9136">
        <ele>274</ele>
        <time>2021-09-10T07:42:51.664Z</time>
      </trkpt>
      <trkpt lat="45.5753" lon="5.91357">
        <ele>274</ele>
        <time>2021-09-10T07:42:52.664Z</time>
      </trkpt>
      <trkpt lat="45.57529" lon="5.91354">
        <ele>274</ele>
        <time>2021-09-10T07:42:53.663Z</time>
      </trkpt>
      <trkpt lat="45.57528" lon="5.91351">
        <ele>274</ele>
        <time>2021-09-10T07:42:54.664Z</time>
      </trkpt>
      <trkpt lat="45.57528" lon="5.91347">
        <ele>274</ele>
        <time>2021-09-10T07:42:55.664Z</time>
      </trkpt>
      <trkpt lat="45.57527" lon="5.91343">
        <ele>274</ele>
        <time>2021-09-10T07:42:56.664Z</time>
      </trkpt>
      <trkpt lat="45.57525" lon="5.9134">
        <ele>274</ele>
        <time>2021-09-10T07:42:57.664Z</time>
      </trkpt>
      <trkpt lat="45.57524" lon="5.91336">
        <ele>273</ele>
        <time>2021-09-10T07:42:58.664Z</time>
      </trkpt>
      <trkpt lat="45.57524" lon="5.91331">
        <ele>273</ele>
        <time>2021-09-10T07:42:59.664Z</time>
      </trkpt>
      <trkpt lat="45.57523" lon="5.91327">
        <ele>272</ele>
        <time>2021-09-10T07:43:00.663Z</time>
      </trkpt>
      <trkpt lat="45.57522" lon="5.91323">
        <ele>272</ele>
        <time>2021-09-10T07:43:01.663Z</time>
      </trkpt>
      <trkpt lat="45.57522" lon="5.91318">
        <ele>273</ele>
        <time>2021-09-10T07:43:02.664Z</time>
      </trkpt>
      <trkpt lat="45.57521" lon="5.91314">
        <ele>273</ele>
        <time>2021-09-10T07:43:03.664Z</time>
      </trkpt>
      <trkpt lat="45.57521" lon="5.91311">
        <ele>273</ele>
        <time>2021-09-10T07:43:04.663Z</time>
      </trkpt>
      <trkpt lat="45.5752" lon="5.91307">
        <ele>273</ele>
        <time>2021-09-10T07:43:05.664Z</time>
      </trkpt>
      <trkpt lat="45.57519" lon="5.91302">
        <ele>274</ele>
        <time>2021-09-10T07:43:06.664Z</time>
      </trkpt>
      <trkpt lat="45.57518" lon="5.91298">
        <ele>274</ele>
        <time>2021-09-10T07:43:07.663Z</time>
      </trkpt>
      <trkpt lat="45.57517" lon="5.91293">
        <ele>274</ele>
        <time>2021-09-10T07:43:08.663Z</time>
      </trkpt>
      <trkpt lat="45.57516" lon="5.91288">
        <ele>274</ele>
        <time>2021-09-10T07:43:09.664Z</time>
      </trkpt>
      <trkpt lat="45.57515" lon="5.91283">
        <ele>274</ele>
        <time>2021-09-10T07:43:10.664Z</time>
      </trkpt>
      <trkpt lat="45.57514" lon="5.91277">
        <ele>274</ele>
        <time>2021-09-10T07:43:11.663Z</time>
      </trkpt>
      <trkpt lat="45.57514" lon="5.91271">
        <ele>273</ele>
        <time>2021-09-10T07:43:12.663Z</time>
      </trkpt>
      <trkpt lat="45.57512" lon="5.91266">
        <ele>273</ele>
        <time>2021-09-10T07:43:13.664Z</time>
      </trkpt>
      <trkpt lat="45.57511" lon="5.91261">
        <ele>273</ele>
        <time>2021-09-10T07:43:14.663Z</time>
      </trkpt>
      <trkpt lat="45.57511" lon="5.91256">
        <ele>273</ele>
        <time>2021-09-10T07:43:15.663Z</time>
      </trkpt>
      <trkpt lat="45.5751" lon="5.9125">
        <ele>273</ele>
        <time>2021-09-10T07:43:16.664Z</time>
      </trkpt>
      <trkpt lat="45.57509" lon="5.91245">
        <ele>273</ele>
        <time>2021-09-10T07:43:17.664Z</time>
      </trkpt>
      <trkpt lat="45.57508" lon="5.9124">
        <ele>274</ele>
        <time>2021-09-10T07:43:18.663Z</time>
      </trkpt>
      <trkpt lat="45.57507" lon="5.91234">
        <ele>274</ele>
        <time>2021-09-10T07:43:19.664Z</time>
      </trkpt>
      <trkpt lat="45.57507" lon="5.91229">
        <ele>274</ele>
        <time>2021-09-10T07:43:20.664Z</time>
      </trkpt>
      <trkpt lat="45.57506" lon="5.91224">
        <ele>275</ele>
        <time>2021-09-10T07:43:21.663Z</time>
      </trkpt>
      <trkpt lat="45.57505" lon="5.9122">
        <ele>275</ele>
        <time>2021-09-10T07:43:22.663Z</time>
      </trkpt>
      <trkpt lat="45.57505" lon="5.91215">
        <ele>275</ele>
        <time>2021-09-10T07:43:23.664Z</time>
      </trkpt>
      <trkpt lat="45.57504" lon="5.9121">
        <ele>275</ele>
        <time>2021-09-10T07:43:24.663Z</time>
      </trkpt>
      <trkpt lat="45.57504" lon="5.91204">
        <ele>276</ele>
        <time>2021-09-10T07:43:25.664Z</time>
      </trkpt>
      <trkpt lat="45.57504" lon="5.91199">
        <ele>276</ele>
        <time>2021-09-10T07:43:26.663Z</time>
      </trkpt>
      <trkpt lat="45.57504" lon="5.91194">
        <ele>275</ele>
        <time>2021-09-10T07:43:27.664Z</time>
      </trkpt>
      <trkpt lat="45.57505" lon="5.91189">
        <ele>275</ele>
        <time>2021-09-10T07:43:28.664Z</time>
      </trkpt>
      <trkpt lat="45.57506" lon="5.91184">
        <ele>276</ele>
        <time>2021-09-10T07:43:29.664Z</time>
      </trkpt>
      <trkpt lat="45.57506" lon="5.91179">
        <ele>276</ele>
        <time>2021-09-10T07:43:30.663Z</time>
      </trkpt>
      <trkpt lat="45.57507" lon="5.91173">
        <ele>276</ele>
        <time>2021-09-10T07:43:31.664Z</time>
      </trkpt>
      <trkpt lat="45.57508" lon="5.91168">
        <ele>276</ele>
        <time>2021-09-10T07:43:32.663Z</time>
      </trkpt>
      <trkpt lat="45.57509" lon="5.91162">
        <ele>277</ele>
        <time>2021-09-10T07:43:33.664Z</time>
      </trkpt>
      <trkpt lat="45.5751" lon="5.91158">
        <ele>276</ele>
        <time>2021-09-10T07:43:34.664Z</time>
      </trkpt>
      <trkpt lat="45.57512" lon="5.91152">
        <ele>276</ele>
        <time>2021-09-10T07:43:35.664Z</time>
      </trkpt>
      <trkpt lat="45.57513" lon="5.91147">
        <ele>276</ele>
        <time>2021-09-10T07:43:36.663Z</time>
      </trkpt>
      <trkpt lat="45.57514" lon="5.91141">
        <ele>276</ele>
        <time>2021-09-10T07:43:37.664Z</time>
      </trkpt>
      <trkpt lat="45.57515" lon="5.91136">
        <ele>276</ele>
        <time>2021-09-10T07:43:38.664Z</time>
      </trkpt>
      <trkpt lat="45.57516" lon="5.9113">
        <ele>276</ele>
        <time>2021-09-10T07:43:39.664Z</time>
      </trkpt>
      <trkpt lat="45.57517" lon="5.91125">
        <ele>276</ele>
        <time>2021-09-10T07:43:40.663Z</time>
      </trkpt>
      <trkpt lat="45.57518" lon="5.91119">
        <ele>276</ele>
        <time>2021-09-10T07:43:41.664Z</time>
      </trkpt>
      <trkpt lat="45.57519" lon="5.91113">
        <ele>276</ele>
        <time>2021-09-10T07:43:42.663Z</time>
      </trkpt>
      <trkpt lat="45.5752" lon="5.91107">
        <ele>276</ele>
        <time>2021-09-10T07:43:43.664Z</time>
      </trkpt>
      <trkpt lat="45.57521" lon="5.91101">
        <ele>276</ele>
        <time>2021-09-10T07:43:44.664Z</time>
      </trkpt>
      <trkpt lat="45.57522" lon="5.91095">
        <ele>276</ele>
        <time>2021-09-10T07:43:45.663Z</time>
      </trkpt>
      <trkpt lat="45.57523" lon="5.91089">
        <ele>276</ele>
        <time>2021-09-10T07:43:46.664Z</time>
      </trkpt>
      <trkpt lat="45.57525" lon="5.91082">
        <ele>275</ele>
        <time>2021-09-10T07:43:47.663Z</time>
      </trkpt>
      <trkpt lat="45.57526" lon="5.91075">
        <ele>275</ele>
        <time>2021-09-10T07:43:48.663Z</time>
      </trkpt>
      <trkpt lat="45.57527" lon="5.91068">
        <ele>275</ele>
        <time>2021-09-10T07:43:49.664Z</time>
      </trkpt>
      <trkpt lat="45.57528" lon="5.91061">
        <ele>275</ele>
        <time>2021-09-10T07:43:50.664Z</time>
      </trkpt>
      <trkpt lat="45.57529" lon="5.91055">
        <ele>275</ele>
        <time>2021-09-10T07:43:51.663Z</time>
      </trkpt>
      <trkpt lat="45.5753" lon="5.91048">
        <ele>276</ele>
        <time>2021-09-10T07:43:52.664Z</time>
      </trkpt>
      <trkpt lat="45.57532" lon="5.91039">
        <ele>276</ele>
        <time>2021-09-10T07:43:53.664Z</time>
      </trkpt>
      <trkpt lat="45.57533" lon="5.91034">
        <ele>276</ele>
        <time>2021-09-10T07:43:54.664Z</time>
      </trkpt>
      <trkpt lat="45.57534" lon="5.91027">
        <ele>275</ele>
        <time>2021-09-10T07:43:55.664Z</time>
      </trkpt>
      <trkpt lat="45.57535" lon="5.9102">
        <ele>275</ele>
        <time>2021-09-10T07:43:56.663Z</time>
      </trkpt>
      <trkpt lat="45.57537" lon="5.91013">
        <ele>276</ele>
        <time>2021-09-10T07:43:57.664Z</time>
      </trkpt>
      <trkpt lat="45.57538" lon="5.91006">
        <ele>276</ele>
        <time>2021-09-10T07:43:58.663Z</time>
      </trkpt>
      <trkpt lat="45.57539" lon="5.91">
        <ele>276</ele>
        <time>2021-09-10T07:43:59.664Z</time>
      </trkpt>
      <trkpt lat="45.5754" lon="5.90993">
        <ele>276</ele>
        <time>2021-09-10T07:44:00.664Z</time>
      </trkpt>
      <trkpt lat="45.57541" lon="5.90986">
        <ele>276</ele>
        <time>2021-09-10T07:44:01.663Z</time>
      </trkpt>
      <trkpt lat="45.57542" lon="5.9098">
        <ele>276</ele>
        <time>2021-09-10T07:44:02.664Z</time>
      </trkpt>
      <trkpt lat="45.57543" lon="5.90973">
        <ele>275</ele>
        <time>2021-09-10T07:44:03.664Z</time>
      </trkpt>
      <trkpt lat="45.57544" lon="5.90966">
        <ele>275</ele>
        <time>2021-09-10T07:44:04.664Z</time>
      </trkpt>
      <trkpt lat="45.57545" lon="5.9096">
        <ele>274</ele>
        <time>2021-09-10T07:44:05.663Z</time>
      </trkpt>
      <trkpt lat="45.57547" lon="5.90954">
        <ele>274</ele>
        <time>2021-09-10T07:44:06.663Z</time>
      </trkpt>
      <trkpt lat="45.57549" lon="5.90947">
        <ele>273</ele>
        <time>2021-09-10T07:44:07.663Z</time>
      </trkpt>
      <trkpt lat="45.5755" lon="5.90941">
        <ele>273</ele>
        <time>2021-09-10T07:44:08.664Z</time>
      </trkpt>
      <trkpt lat="45.57551" lon="5.90934">
        <ele>273</ele>
        <time>2021-09-10T07:44:09.663Z</time>
      </trkpt>
      <trkpt lat="45.57553" lon="5.90928">
        <ele>273</ele>
        <time>2021-09-10T07:44:10.664Z</time>
      </trkpt>
      <trkpt lat="45.57554" lon="5.90921">
        <ele>273</ele>
        <time>2021-09-10T07:44:11.664Z</time>
      </trkpt>
      <trkpt lat="45.57555" lon="5.90915">
        <ele>273</ele>
        <time>2021-09-10T07:44:12.663Z</time>
      </trkpt>
      <trkpt lat="45.57557" lon="5.90908">
        <ele>273</ele>
        <time>2021-09-10T07:44:13.664Z</time>
      </trkpt>
      <trkpt lat="45.57558" lon="5.90901">
        <ele>273</ele>
        <time>2021-09-10T07:44:14.663Z</time>
      </trkpt>
      <trkpt lat="45.57559" lon="5.90895">
        <ele>273</ele>
        <time>2021-09-10T07:44:15.664Z</time>
      </trkpt>
      <trkpt lat="45.5756" lon="5.90887">
        <ele>273</ele>
        <time>2021-09-10T07:44:16.664Z</time>
      </trkpt>
      <trkpt lat="45.57561" lon="5.90881">
        <ele>273</ele>
        <time>2021-09-10T07:44:17.664Z</time>
      </trkpt>
      <trkpt lat="45.57563" lon="5.90875">
        <ele>273</ele>
        <time>2021-09-10T07:44:18.663Z</time>
      </trkpt>
      <trkpt lat="45.57564" lon="5.90868">
        <ele>273</ele>
        <time>2021-09-10T07:44:19.664Z</time>
      </trkpt>
      <trkpt lat="45.57565" lon="5.90862">
        <ele>273</ele>
        <time>2021-09-10T07:44:20.663Z</time>
      </trkpt>
      <trkpt lat="45.57567" lon="5.90855">
        <ele>274</ele>
        <time>2021-09-10T07:44:21.664Z</time>
      </trkpt>
      <trkpt lat="45.57568" lon="5.90849">
        <ele>274</ele>
        <time>2021-09-10T07:44:22.664Z</time>
      </trkpt>
      <trkpt lat="45.57569" lon="5.90842">
        <ele>274</ele>
        <time>2021-09-10T07:44:23.663Z</time>
      </trkpt>
      <trkpt lat="45.5757" lon="5.90836">
        <ele>274</ele>
        <time>2021-09-10T07:44:24.663Z</time>
      </trkpt>
      <trkpt lat="45.57571" lon="5.90829">
        <ele>274</ele>
        <time>2021-09-10T07:44:25.664Z</time>
      </trkpt>
      <trkpt lat="45.57572" lon="5.90822">
        <ele>275</ele>
        <time>2021-09-10T07:44:26.663Z</time>
      </trkpt>
      <trkpt lat="45.57573" lon="5.90815">
        <ele>275</ele>
        <time>2021-09-10T07:44:27.664Z</time>
      </trkpt>
      <trkpt lat="45.57574" lon="5.90809">
        <ele>275</ele>
        <time>2021-09-10T07:44:28.664Z</time>
      </trkpt>
      <trkpt lat="45.57574" lon="5.90803">
        <ele>275</ele>
        <time>2021-09-10T07:44:29.663Z</time>
      </trkpt>
      <trkpt lat="45.57575" lon="5.90796">
        <ele>276</ele>
        <time>2021-09-10T07:44:30.663Z</time>
      </trkpt>
      <trkpt lat="45.57576" lon="5.9079">
        <ele>276</ele>
        <time>2021-09-10T07:44:31.663Z</time>
      </trkpt>
      <trkpt lat="45.57577" lon="5.90784">
        <ele>277</ele>
        <time>2021-09-10T07:44:32.663Z</time>
      </trkpt>
      <trkpt lat="45.57579" lon="5.90777">
        <ele>277</ele>
        <time>2021-09-10T07:44:33.664Z</time>
      </trkpt>
      <trkpt lat="45.5758" lon="5.90771">
        <ele>278</ele>
        <time>2021-09-10T07:44:34.664Z</time>
      </trkpt>
      <trkpt lat="45.57581" lon="5.90765">
        <ele>278</ele>
        <time>2021-09-10T07:44:35.663Z</time>
      </trkpt>
      <trkpt lat="45.57582" lon="5.90759">
        <ele>279</ele>
        <time>2021-09-10T07:44:36.663Z</time>
      </trkpt>
      <trkpt lat="45.57583" lon="5.90753">
        <ele>279</ele>
        <time>2021-09-10T07:44:37.664Z</time>
      </trkpt>
      <trkpt lat="45.57584" lon="5.90747">
        <ele>279</ele>
        <time>2021-09-10T07:44:38.663Z</time>
      </trkpt>
      <trkpt lat="45.57585" lon="5.90742">
        <ele>279</ele>
        <time>2021-09-10T07:44:39.663Z</time>
      </trkpt>
      <trkpt lat="45.57586" lon="5.90738">
        <ele>279</ele>
        <time>2021-09-10T07:44:40.664Z</time>
      </trkpt>
      <trkpt lat="45.57587" lon="5.90734">
        <ele>279</ele>
        <time>2021-09-10T07:44:41.664Z</time>
      </trkpt>
      <trkpt lat="45.57588" lon="5.90731">
        <ele>279</ele>
        <time>2021-09-10T07:44:42.664Z</time>
      </trkpt>
      <trkpt lat="45.57588" lon="5.9073">
        <ele>279</ele>
        <time>2021-09-10T07:44:43.663Z</time>
      </trkpt>
      <trkpt lat="45.57588" lon="5.90729">
        <ele>279</ele>
        <time>2021-09-10T07:44:44.664Z</time>
      </trkpt>
      <trkpt lat="45.57588" lon="5.90729">
        <ele>279</ele>
        <time>2021-09-10T07:44:45.664Z</time>
      </trkpt>
      <trkpt lat="45.57588" lon="5.90728">
        <ele>279</ele>
        <time>2021-09-10T07:44:46.664Z</time>
      </trkpt>
      <trkpt lat="45.57592" lon="5.90726">
        <ele>266</ele>
        <time>2021-09-10T07:44:47.664Z</time>
      </trkpt>
      <trkpt lat="45.57593" lon="5.90722">
        <ele>266</ele>
        <time>2021-09-10T07:44:48.663Z</time>
      </trkpt>
      <trkpt lat="45.57593" lon="5.90717">
        <ele>266</ele>
        <time>2021-09-10T07:44:49.663Z</time>
      </trkpt>
      <trkpt lat="45.57594" lon="5.90712">
        <ele>266</ele>
        <time>2021-09-10T07:44:50.664Z</time>
      </trkpt>
      <trkpt lat="45.57595" lon="5.90707">
        <ele>266</ele>
        <time>2021-09-10T07:44:51.664Z</time>
      </trkpt>
      <trkpt lat="45.57596" lon="5.90702">
        <ele>266</ele>
        <time>2021-09-10T07:44:52.663Z</time>
      </trkpt>
      <trkpt lat="45.57597" lon="5.90697">
        <ele>267</ele>
        <time>2021-09-10T07:44:53.664Z</time>
      </trkpt>
      <trkpt lat="45.57598" lon="5.90692">
        <ele>267</ele>
        <time>2021-09-10T07:44:54.664Z</time>
      </trkpt>
      <trkpt lat="45.57599" lon="5.90687">
        <ele>267</ele>
        <time>2021-09-10T07:44:55.663Z</time>
      </trkpt>
      <trkpt lat="45.576" lon="5.90682">
        <ele>267</ele>
        <time>2021-09-10T07:44:56.664Z</time>
      </trkpt>
      <trkpt lat="45.57601" lon="5.90677">
        <ele>267</ele>
        <time>2021-09-10T07:44:57.664Z</time>
      </trkpt>
      <trkpt lat="45.57602" lon="5.90672">
        <ele>267</ele>
        <time>2021-09-10T07:44:58.664Z</time>
      </trkpt>
      <trkpt lat="45.57603" lon="5.90667">
        <ele>267</ele>
        <time>2021-09-10T07:44:59.664Z</time>
      </trkpt>
      <trkpt lat="45.57603" lon="5.90663">
        <ele>268</ele>
        <time>2021-09-10T07:45:00.664Z</time>
      </trkpt>
      <trkpt lat="45.57604" lon="5.90658">
        <ele>268</ele>
        <time>2021-09-10T07:45:01.664Z</time>
      </trkpt>
      <trkpt lat="45.57605" lon="5.90652">
        <ele>268</ele>
        <time>2021-09-10T07:45:02.664Z</time>
      </trkpt>
      <trkpt lat="45.57606" lon="5.90647">
        <ele>268</ele>
        <time>2021-09-10T07:45:03.664Z</time>
      </trkpt>
      <trkpt lat="45.57606" lon="5.90641">
        <ele>268</ele>
        <time>2021-09-10T07:45:04.664Z</time>
      </trkpt>
      <trkpt lat="45.57608" lon="5.90635">
        <ele>269</ele>
        <time>2021-09-10T07:45:05.663Z</time>
      </trkpt>
      <trkpt lat="45.57609" lon="5.90629">
        <ele>269</ele>
        <time>2021-09-10T07:45:06.663Z</time>
      </trkpt>
      <trkpt lat="45.5761" lon="5.90623">
        <ele>270</ele>
        <time>2021-09-10T07:45:07.663Z</time>
      </trkpt>
      <trkpt lat="45.57611" lon="5.90616">
        <ele>270</ele>
        <time>2021-09-10T07:45:08.663Z</time>
      </trkpt>
      <trkpt lat="45.57612" lon="5.9061">
        <ele>270</ele>
        <time>2021-09-10T07:45:09.664Z</time>
      </trkpt>
      <trkpt lat="45.57614" lon="5.90603">
        <ele>270</ele>
        <time>2021-09-10T07:45:10.664Z</time>
      </trkpt>
      <trkpt lat="45.57615" lon="5.90596">
        <ele>270</ele>
        <time>2021-09-10T07:45:11.664Z</time>
      </trkpt>
      <trkpt lat="45.57615" lon="5.9059">
        <ele>270</ele>
        <time>2021-09-10T07:45:12.664Z</time>
      </trkpt>
      <trkpt lat="45.57617" lon="5.90582">
        <ele>270</ele>
        <time>2021-09-10T07:45:13.664Z</time>
      </trkpt>
      <trkpt lat="45.57618" lon="5.90575">
        <ele>270</ele>
        <time>2021-09-10T07:45:14.664Z</time>
      </trkpt>
      <trkpt lat="45.57619" lon="5.90568">
        <ele>270</ele>
        <time>2021-09-10T07:45:15.664Z</time>
      </trkpt>
      <trkpt lat="45.5762" lon="5.90561">
        <ele>270</ele>
        <time>2021-09-10T07:45:16.664Z</time>
      </trkpt>
      <trkpt lat="45.57621" lon="5.90554">
        <ele>271</ele>
        <time>2021-09-10T07:45:17.663Z</time>
      </trkpt>
      <trkpt lat="45.57621" lon="5.90546">
        <ele>271</ele>
        <time>2021-09-10T07:45:18.663Z</time>
      </trkpt>
      <trkpt lat="45.57622" lon="5.90539">
        <ele>271</ele>
        <time>2021-09-10T07:45:19.664Z</time>
      </trkpt>
      <trkpt lat="45.57623" lon="5.90531">
        <ele>270</ele>
        <time>2021-09-10T07:45:20.664Z</time>
      </trkpt>
      <trkpt lat="45.57624" lon="5.90524">
        <ele>271</ele>
        <time>2021-09-10T07:45:21.664Z</time>
      </trkpt>
      <trkpt lat="45.57625" lon="5.90516">
        <ele>271</ele>
        <time>2021-09-10T07:45:22.663Z</time>
      </trkpt>
      <trkpt lat="45.57627" lon="5.90509">
        <ele>271</ele>
        <time>2021-09-10T07:45:23.664Z</time>
      </trkpt>
      <trkpt lat="45.57628" lon="5.90501">
        <ele>272</ele>
        <time>2021-09-10T07:45:24.663Z</time>
      </trkpt>
      <trkpt lat="45.57629" lon="5.90493">
        <ele>272</ele>
        <time>2021-09-10T07:45:25.664Z</time>
      </trkpt>
      <trkpt lat="45.5763" lon="5.90486">
        <ele>272</ele>
        <time>2021-09-10T07:45:26.663Z</time>
      </trkpt>
      <trkpt lat="45.57632" lon="5.90479">
        <ele>272</ele>
        <time>2021-09-10T07:45:27.663Z</time>
      </trkpt>
      <trkpt lat="45.57635" lon="5.90472">
        <ele>272</ele>
        <time>2021-09-10T07:45:28.664Z</time>
      </trkpt>
      <trkpt lat="45.57639" lon="5.90468">
        <ele>273</ele>
        <time>2021-09-10T07:45:29.664Z</time>
      </trkpt>
      <trkpt lat="45.57643" lon="5.90465">
        <ele>272</ele>
        <time>2021-09-10T07:45:30.664Z</time>
      </trkpt>
      <trkpt lat="45.57648" lon="5.90463">
        <ele>272</ele>
        <time>2021-09-10T07:45:31.664Z</time>
      </trkpt>
      <trkpt lat="45.57652" lon="5.90463">
        <ele>271</ele>
        <time>2021-09-10T07:45:32.664Z</time>
      </trkpt>
      <trkpt lat="45.57657" lon="5.90465">
        <ele>271</ele>
        <time>2021-09-10T07:45:33.664Z</time>
      </trkpt>
      <trkpt lat="45.57662" lon="5.90466">
        <ele>271</ele>
        <time>2021-09-10T07:45:34.664Z</time>
      </trkpt>
      <trkpt lat="45.57667" lon="5.9047">
        <ele>270</ele>
        <time>2021-09-10T07:45:35.664Z</time>
      </trkpt>
      <trkpt lat="45.57672" lon="5.90473">
        <ele>270</ele>
        <time>2021-09-10T07:45:36.663Z</time>
      </trkpt>
      <trkpt lat="45.57676" lon="5.90476">
        <ele>270</ele>
        <time>2021-09-10T07:45:37.664Z</time>
      </trkpt>
      <trkpt lat="45.5768" lon="5.90478">
        <ele>270</ele>
        <time>2021-09-10T07:45:38.664Z</time>
      </trkpt>
      <trkpt lat="45.57683" lon="5.9048">
        <ele>269</ele>
        <time>2021-09-10T07:45:39.664Z</time>
      </trkpt>
      <trkpt lat="45.57687" lon="5.90482">
        <ele>269</ele>
        <time>2021-09-10T07:45:40.663Z</time>
      </trkpt>
      <trkpt lat="45.5769" lon="5.90485">
        <ele>268</ele>
        <time>2021-09-10T07:45:41.664Z</time>
      </trkpt>
      <trkpt lat="45.57693" lon="5.90487">
        <ele>267</ele>
        <time>2021-09-10T07:45:42.664Z</time>
      </trkpt>
      <trkpt lat="45.57697" lon="5.9049">
        <ele>267</ele>
        <time>2021-09-10T07:45:43.664Z</time>
      </trkpt>
      <trkpt lat="45.57701" lon="5.90493">
        <ele>267</ele>
        <time>2021-09-10T07:45:44.664Z</time>
      </trkpt>
      <trkpt lat="45.57705" lon="5.90495">
        <ele>267</ele>
        <time>2021-09-10T07:45:45.664Z</time>
      </trkpt>
      <trkpt lat="45.57709" lon="5.90498">
        <ele>267</ele>
        <time>2021-09-10T07:45:46.664Z</time>
      </trkpt>
      <trkpt lat="45.57713" lon="5.90501">
        <ele>266</ele>
        <time>2021-09-10T07:45:47.664Z</time>
      </trkpt>
      <trkpt lat="45.57717" lon="5.90503">
        <ele>266</ele>
        <time>2021-09-10T07:45:48.664Z</time>
      </trkpt>
      <trkpt lat="45.57721" lon="5.90505">
        <ele>266</ele>
        <time>2021-09-10T07:45:49.664Z</time>
      </trkpt>
      <trkpt lat="45.57725" lon="5.90508">
        <ele>265</ele>
        <time>2021-09-10T07:45:50.664Z</time>
      </trkpt>
      <trkpt lat="45.5773" lon="5.90511">
        <ele>265</ele>
        <time>2021-09-10T07:45:51.664Z</time>
      </trkpt>
      <trkpt lat="45.57734" lon="5.90513">
        <ele>265</ele>
        <time>2021-09-10T07:45:52.664Z</time>
      </trkpt>
      <trkpt lat="45.57738" lon="5.90516">
        <ele>266</ele>
        <time>2021-09-10T07:45:53.664Z</time>
      </trkpt>
      <trkpt lat="45.57743" lon="5.90518">
        <ele>266</ele>
        <time>2021-09-10T07:45:54.664Z</time>
      </trkpt>
      <trkpt lat="45.57747" lon="5.90521">
        <ele>266</ele>
        <time>2021-09-10T07:45:55.664Z</time>
      </trkpt>
      <trkpt lat="45.57751" lon="5.90523">
        <ele>266</ele>
        <time>2021-09-10T07:45:56.663Z</time>
      </trkpt>
      <trkpt lat="45.57756" lon="5.90526">
        <ele>266</ele>
        <time>2021-09-10T07:45:57.664Z</time>
      </trkpt>
      <trkpt lat="45.57761" lon="5.90529">
        <ele>267</ele>
        <time>2021-09-10T07:45:58.664Z</time>
      </trkpt>
      <trkpt lat="45.57765" lon="5.90531">
        <ele>267</ele>
        <time>2021-09-10T07:45:59.664Z</time>
      </trkpt>
      <trkpt lat="45.5777" lon="5.90534">
        <ele>267</ele>
        <time>2021-09-10T07:46:00.664Z</time>
      </trkpt>
      <trkpt lat="45.57775" lon="5.90536">
        <ele>267</ele>
        <time>2021-09-10T07:46:01.664Z</time>
      </trkpt>
      <trkpt lat="45.5778" lon="5.90539">
        <ele>267</ele>
        <time>2021-09-10T07:46:02.664Z</time>
      </trkpt>
      <trkpt lat="45.57784" lon="5.90542">
        <ele>267</ele>
        <time>2021-09-10T07:46:03.663Z</time>
      </trkpt>
      <trkpt lat="45.57789" lon="5.90544">
        <ele>267</ele>
        <time>2021-09-10T07:46:04.663Z</time>
      </trkpt>
      <trkpt lat="45.57794" lon="5.90545">
        <ele>267</ele>
        <time>2021-09-10T07:46:05.664Z</time>
      </trkpt>
      <trkpt lat="45.57799" lon="5.90546">
        <ele>267</ele>
        <time>2021-09-10T07:46:06.664Z</time>
      </trkpt>
      <trkpt lat="45.57803" lon="5.90544">
        <ele>267</ele>
        <time>2021-09-10T07:46:07.663Z</time>
      </trkpt>
      <trkpt lat="45.57808" lon="5.90542">
        <ele>267</ele>
        <time>2021-09-10T07:46:08.664Z</time>
      </trkpt>
      <trkpt lat="45.57812" lon="5.90538">
        <ele>267</ele>
        <time>2021-09-10T07:46:09.663Z</time>
      </trkpt>
      <trkpt lat="45.57815" lon="5.90533">
        <ele>267</ele>
        <time>2021-09-10T07:46:10.664Z</time>
      </trkpt>
      <trkpt lat="45.57817" lon="5.90527">
        <ele>266</ele>
        <time>2021-09-10T07:46:11.664Z</time>
      </trkpt>
      <trkpt lat="45.5782" lon="5.90521">
        <ele>265</ele>
        <time>2021-09-10T07:46:12.663Z</time>
      </trkpt>
      <trkpt lat="45.57822" lon="5.90515">
        <ele>265</ele>
        <time>2021-09-10T07:46:13.664Z</time>
      </trkpt>
      <trkpt lat="45.57824" lon="5.90508">
        <ele>265</ele>
        <time>2021-09-10T07:46:14.664Z</time>
      </trkpt>
      <trkpt lat="45.57825" lon="5.90502">
        <ele>265</ele>
        <time>2021-09-10T07:46:15.664Z</time>
      </trkpt>
      <trkpt lat="45.57827" lon="5.90495">
        <ele>265</ele>
        <time>2021-09-10T07:46:16.664Z</time>
      </trkpt>
      <trkpt lat="45.57828" lon="5.90488">
        <ele>265</ele>
        <time>2021-09-10T07:46:17.664Z</time>
      </trkpt>
      <trkpt lat="45.5783" lon="5.90481">
        <ele>265</ele>
        <time>2021-09-10T07:46:18.664Z</time>
      </trkpt>
      <trkpt lat="45.57831" lon="5.90475">
        <ele>265</ele>
        <time>2021-09-10T07:46:19.664Z</time>
      </trkpt>
      <trkpt lat="45.57832" lon="5.90468">
        <ele>266</ele>
        <time>2021-09-10T07:46:20.664Z</time>
      </trkpt>
      <trkpt lat="45.57834" lon="5.9046">
        <ele>266</ele>
        <time>2021-09-10T07:46:21.664Z</time>
      </trkpt>
      <trkpt lat="45.57835" lon="5.90455">
        <ele>266</ele>
        <time>2021-09-10T07:46:22.664Z</time>
      </trkpt>
      <trkpt lat="45.57837" lon="5.9045">
        <ele>267</ele>
        <time>2021-09-10T07:46:23.664Z</time>
      </trkpt>
      <trkpt lat="45.5784" lon="5.90445">
        <ele>268</ele>
        <time>2021-09-10T07:46:24.664Z</time>
      </trkpt>
      <trkpt lat="45.57843" lon="5.90441">
        <ele>268</ele>
        <time>2021-09-10T07:46:25.664Z</time>
      </trkpt>
      <trkpt lat="45.57847" lon="5.9044">
        <ele>268</ele>
        <time>2021-09-10T07:46:26.663Z</time>
      </trkpt>
      <trkpt lat="45.5785" lon="5.9044">
        <ele>268</ele>
        <time>2021-09-10T07:46:27.664Z</time>
      </trkpt>
      <trkpt lat="45.57854" lon="5.9044">
        <ele>268</ele>
        <time>2021-09-10T07:46:28.663Z</time>
      </trkpt>
      <trkpt lat="45.57858" lon="5.9044">
        <ele>268</ele>
        <time>2021-09-10T07:46:29.664Z</time>
      </trkpt>
      <trkpt lat="45.57861" lon="5.9044">
        <ele>268</ele>
        <time>2021-09-10T07:46:30.664Z</time>
      </trkpt>
      <trkpt lat="45.57865" lon="5.9044">
        <ele>268</ele>
        <time>2021-09-10T07:46:31.664Z</time>
      </trkpt>
      <trkpt lat="45.5787" lon="5.90439">
        <ele>269</ele>
        <time>2021-09-10T07:46:32.664Z</time>
      </trkpt>
      <trkpt lat="45.57875" lon="5.90438">
        <ele>270</ele>
        <time>2021-09-10T07:46:33.664Z</time>
      </trkpt>
      <trkpt lat="45.57878" lon="5.90437">
        <ele>270</ele>
        <time>2021-09-10T07:46:34.664Z</time>
      </trkpt>
      <trkpt lat="45.57882" lon="5.90435">
        <ele>270</ele>
        <time>2021-09-10T07:46:35.664Z</time>
      </trkpt>
      <trkpt lat="45.57887" lon="5.90433">
        <ele>270</ele>
        <time>2021-09-10T07:46:36.664Z</time>
      </trkpt>
      <trkpt lat="45.57892" lon="5.9043">
        <ele>270</ele>
        <time>2021-09-10T07:46:37.664Z</time>
      </trkpt>
      <trkpt lat="45.57895" lon="5.90428">
        <ele>270</ele>
        <time>2021-09-10T07:46:38.663Z</time>
      </trkpt>
      <trkpt lat="45.579" lon="5.90426">
        <ele>270</ele>
        <time>2021-09-10T07:46:39.664Z</time>
      </trkpt>
      <trkpt lat="45.57904" lon="5.90424">
        <ele>270</ele>
        <time>2021-09-10T07:46:40.664Z</time>
      </trkpt>
      <trkpt lat="45.57909" lon="5.90422">
        <ele>270</ele>
        <time>2021-09-10T07:46:41.664Z</time>
      </trkpt>
      <trkpt lat="45.57913" lon="5.90419">
        <ele>270</ele>
        <time>2021-09-10T07:46:42.664Z</time>
      </trkpt>
      <trkpt lat="45.57918" lon="5.90417">
        <ele>269</ele>
        <time>2021-09-10T07:46:43.664Z</time>
      </trkpt>
      <trkpt lat="45.57922" lon="5.90415">
        <ele>270</ele>
        <time>2021-09-10T07:46:44.663Z</time>
      </trkpt>
      <trkpt lat="45.57927" lon="5.90412">
        <ele>270</ele>
        <time>2021-09-10T07:46:45.664Z</time>
      </trkpt>
      <trkpt lat="45.57931" lon="5.9041">
        <ele>270</ele>
        <time>2021-09-10T07:46:46.664Z</time>
      </trkpt>
      <trkpt lat="45.57936" lon="5.90408">
        <ele>270</ele>
        <time>2021-09-10T07:46:47.664Z</time>
      </trkpt>
      <trkpt lat="45.57941" lon="5.90405">
        <ele>270</ele>
        <time>2021-09-10T07:46:48.664Z</time>
      </trkpt>
      <trkpt lat="45.57945" lon="5.90404">
        <ele>269</ele>
        <time>2021-09-10T07:46:49.663Z</time>
      </trkpt>
      <trkpt lat="45.57949" lon="5.90403">
        <ele>269</ele>
        <time>2021-09-10T07:46:50.664Z</time>
      </trkpt>
      <trkpt lat="45.57954" lon="5.90404">
        <ele>269</ele>
        <time>2021-09-10T07:46:51.663Z</time>
      </trkpt>
      <trkpt lat="45.57958" lon="5.90405">
        <ele>268</ele>
        <time>2021-09-10T07:46:52.664Z</time>
      </trkpt>
      <trkpt lat="45.57963" lon="5.90405">
        <ele>268</ele>
        <time>2021-09-10T07:46:53.664Z</time>
      </trkpt>
      <trkpt lat="45.57967" lon="5.90404">
        <ele>267</ele>
        <time>2021-09-10T07:46:54.664Z</time>
      </trkpt>
      <trkpt lat="45.57971" lon="5.90402">
        <ele>267</ele>
        <time>2021-09-10T07:46:55.664Z</time>
      </trkpt>
      <trkpt lat="45.57975" lon="5.90398">
        <ele>267</ele>
        <time>2021-09-10T07:46:56.664Z</time>
      </trkpt>
      <trkpt lat="45.57979" lon="5.90394">
        <ele>267</ele>
        <time>2021-09-10T07:46:57.664Z</time>
      </trkpt>
      <trkpt lat="45.57984" lon="5.90389">
        <ele>267</ele>
        <time>2021-09-10T07:46:58.664Z</time>
      </trkpt>
      <trkpt lat="45.57988" lon="5.90385">
        <ele>266</ele>
        <time>2021-09-10T07:46:59.664Z</time>
      </trkpt>
      <trkpt lat="45.57992" lon="5.90382">
        <ele>266</ele>
        <time>2021-09-10T07:47:00.663Z</time>
      </trkpt>
      <trkpt lat="45.57997" lon="5.90379">
        <ele>266</ele>
        <time>2021-09-10T07:47:01.663Z</time>
      </trkpt>
      <trkpt lat="45.58002" lon="5.90376">
        <ele>266</ele>
        <time>2021-09-10T07:47:02.664Z</time>
      </trkpt>
      <trkpt lat="45.58006" lon="5.90374">
        <ele>266</ele>
        <time>2021-09-10T07:47:03.664Z</time>
      </trkpt>
      <trkpt lat="45.58011" lon="5.90371">
        <ele>265</ele>
        <time>2021-09-10T07:47:04.664Z</time>
      </trkpt>
      <trkpt lat="45.58016" lon="5.90369">
        <ele>265</ele>
        <time>2021-09-10T07:47:05.664Z</time>
      </trkpt>
      <trkpt lat="45.58021" lon="5.90366">
        <ele>264</ele>
        <time>2021-09-10T07:47:06.663Z</time>
      </trkpt>
      <trkpt lat="45.58025" lon="5.90364">
        <ele>264</ele>
        <time>2021-09-10T07:47:07.664Z</time>
      </trkpt>
      <trkpt lat="45.5803" lon="5.90362">
        <ele>264</ele>
        <time>2021-09-10T07:47:08.664Z</time>
      </trkpt>
      <trkpt lat="45.58034" lon="5.90359">
        <ele>264</ele>
        <time>2021-09-10T07:47:09.664Z</time>
      </trkpt>
      <trkpt lat="45.58039" lon="5.90356">
        <ele>264</ele>
        <time>2021-09-10T07:47:10.663Z</time>
      </trkpt>
      <trkpt lat="45.58043" lon="5.90354">
        <ele>263</ele>
        <time>2021-09-10T07:47:11.664Z</time>
      </trkpt>
      <trkpt lat="45.58047" lon="5.90351">
        <ele>264</ele>
        <time>2021-09-10T07:47:12.663Z</time>
      </trkpt>
      <trkpt lat="45.58052" lon="5.90349">
        <ele>264</ele>
        <time>2021-09-10T07:47:13.664Z</time>
      </trkpt>
      <trkpt lat="45.58056" lon="5.90347">
        <ele>264</ele>
        <time>2021-09-10T07:47:14.664Z</time>
      </trkpt>
      <trkpt lat="45.5806" lon="5.90345">
        <ele>264</ele>
        <time>2021-09-10T07:47:15.664Z</time>
      </trkpt>
      <trkpt lat="45.58065" lon="5.90343">
        <ele>264</ele>
        <time>2021-09-10T07:47:16.663Z</time>
      </trkpt>
      <trkpt lat="45.58069" lon="5.9034">
        <ele>264</ele>
        <time>2021-09-10T07:47:17.664Z</time>
      </trkpt>
      <trkpt lat="45.58073" lon="5.90338">
        <ele>265</ele>
        <time>2021-09-10T07:47:18.663Z</time>
      </trkpt>
      <trkpt lat="45.58078" lon="5.90336">
        <ele>265</ele>
        <time>2021-09-10T07:47:19.664Z</time>
      </trkpt>
      <trkpt lat="45.58082" lon="5.90333">
        <ele>265</ele>
        <time>2021-09-10T07:47:20.664Z</time>
      </trkpt>
      <trkpt lat="45.58086" lon="5.90331">
        <ele>265</ele>
        <time>2021-09-10T07:47:21.664Z</time>
      </trkpt>
      <trkpt lat="45.58091" lon="5.90329">
        <ele>265</ele>
        <time>2021-09-10T07:47:22.663Z</time>
      </trkpt>
      <trkpt lat="45.58096" lon="5.90327">
        <ele>265</ele>
        <time>2021-09-10T07:47:23.664Z</time>
      </trkpt>
      <trkpt lat="45.58101" lon="5.90326">
        <ele>265</ele>
        <time>2021-09-10T07:47:24.664Z</time>
      </trkpt>
      <trkpt lat="45.58106" lon="5.90324">
        <ele>265</ele>
        <time>2021-09-10T07:47:25.664Z</time>
      </trkpt>
      <trkpt lat="45.5811" lon="5.90322">
        <ele>265</ele>
        <time>2021-09-10T07:47:26.664Z</time>
      </trkpt>
      <trkpt lat="45.58116" lon="5.9032">
        <ele>266</ele>
        <time>2021-09-10T07:47:27.664Z</time>
      </trkpt>
      <trkpt lat="45.5812" lon="5.90319">
        <ele>266</ele>
        <time>2021-09-10T07:47:28.663Z</time>
      </trkpt>
      <trkpt lat="45.58125" lon="5.90318">
        <ele>266</ele>
        <time>2021-09-10T07:47:29.664Z</time>
      </trkpt>
      <trkpt lat="45.5813" lon="5.90317">
        <ele>266</ele>
        <time>2021-09-10T07:47:30.664Z</time>
      </trkpt>
      <trkpt lat="45.58135" lon="5.90316">
        <ele>266</ele>
        <time>2021-09-10T07:47:31.664Z</time>
      </trkpt>
      <trkpt lat="45.5814" lon="5.90315">
        <ele>266</ele>
        <time>2021-09-10T07:47:32.664Z</time>
      </trkpt>
      <trkpt lat="45.58145" lon="5.90314">
        <ele>266</ele>
        <time>2021-09-10T07:47:33.664Z</time>
      </trkpt>
      <trkpt lat="45.5815" lon="5.90313">
        <ele>266</ele>
        <time>2021-09-10T07:47:34.663Z</time>
      </trkpt>
      <trkpt lat="45.58155" lon="5.90312">
        <ele>266</ele>
        <time>2021-09-10T07:47:35.664Z</time>
      </trkpt>
      <trkpt lat="45.5816" lon="5.90311">
        <ele>266</ele>
        <time>2021-09-10T07:47:36.663Z</time>
      </trkpt>
      <trkpt lat="45.58164" lon="5.9031">
        <ele>266</ele>
        <time>2021-09-10T07:47:37.664Z</time>
      </trkpt>
      <trkpt lat="45.58169" lon="5.90309">
        <ele>267</ele>
        <time>2021-09-10T07:47:38.664Z</time>
      </trkpt>
      <trkpt lat="45.58174" lon="5.90307">
        <ele>267</ele>
        <time>2021-09-10T07:47:39.663Z</time>
      </trkpt>
      <trkpt lat="45.58178" lon="5.90307">
        <ele>267</ele>
        <time>2021-09-10T07:47:40.664Z</time>
      </trkpt>
      <trkpt lat="45.58183" lon="5.90306">
        <ele>268</ele>
        <time>2021-09-10T07:47:41.664Z</time>
      </trkpt>
      <trkpt lat="45.58188" lon="5.90305">
        <ele>268</ele>
        <time>2021-09-10T07:47:42.664Z</time>
      </trkpt>
      <trkpt lat="45.58193" lon="5.90304">
        <ele>268</ele>
        <time>2021-09-10T07:47:43.664Z</time>
      </trkpt>
      <trkpt lat="45.58198" lon="5.90303">
        <ele>268</ele>
        <time>2021-09-10T07:47:44.664Z</time>
      </trkpt>
      <trkpt lat="45.58203" lon="5.90302">
        <ele>268</ele>
        <time>2021-09-10T07:47:45.664Z</time>
      </trkpt>
      <trkpt lat="45.58208" lon="5.90301">
        <ele>267</ele>
        <time>2021-09-10T07:47:46.664Z</time>
      </trkpt>
      <trkpt lat="45.58213" lon="5.903">
        <ele>267</ele>
        <time>2021-09-10T07:47:47.663Z</time>
      </trkpt>
      <trkpt lat="45.58218" lon="5.903">
        <ele>267</ele>
        <time>2021-09-10T07:47:48.663Z</time>
      </trkpt>
      <trkpt lat="45.58222" lon="5.90299">
        <ele>267</ele>
        <time>2021-09-10T07:47:49.664Z</time>
      </trkpt>
      <trkpt lat="45.58227" lon="5.90298">
        <ele>267</ele>
        <time>2021-09-10T07:47:50.664Z</time>
      </trkpt>
      <trkpt lat="45.58232" lon="5.90297">
        <ele>267</ele>
        <time>2021-09-10T07:47:51.664Z</time>
      </trkpt>
      <trkpt lat="45.58237" lon="5.90296">
        <ele>268</ele>
        <time>2021-09-10T07:47:52.663Z</time>
      </trkpt>
      <trkpt lat="45.58242" lon="5.90294">
        <ele>268</ele>
        <time>2021-09-10T07:47:53.664Z</time>
      </trkpt>
      <trkpt lat="45.58247" lon="5.90293">
        <ele>268</ele>
        <time>2021-09-10T07:47:54.664Z</time>
      </trkpt>
      <trkpt lat="45.58252" lon="5.90291">
        <ele>268</ele>
        <time>2021-09-10T07:47:55.663Z</time>
      </trkpt>
      <trkpt lat="45.58257" lon="5.90288">
        <ele>268</ele>
        <time>2021-09-10T07:47:56.664Z</time>
      </trkpt>
      <trkpt lat="45.58262" lon="5.90285">
        <ele>268</ele>
        <time>2021-09-10T07:47:57.663Z</time>
      </trkpt>
      <trkpt lat="45.58267" lon="5.90282">
        <ele>267</ele>
        <time>2021-09-10T07:47:58.664Z</time>
      </trkpt>
      <trkpt lat="45.58271" lon="5.90279">
        <ele>267</ele>
        <time>2021-09-10T07:47:59.664Z</time>
      </trkpt>
      <trkpt lat="45.58276" lon="5.90276">
        <ele>266</ele>
        <time>2021-09-10T07:48:00.664Z</time>
      </trkpt>
      <trkpt lat="45.5828" lon="5.90272">
        <ele>266</ele>
        <time>2021-09-10T07:48:01.664Z</time>
      </trkpt>
      <trkpt lat="45.58284" lon="5.90268">
        <ele>266</ele>
        <time>2021-09-10T07:48:02.664Z</time>
      </trkpt>
      <trkpt lat="45.58288" lon="5.90264">
        <ele>266</ele>
        <time>2021-09-10T07:48:03.663Z</time>
      </trkpt>
      <trkpt lat="45.58291" lon="5.90259">
        <ele>266</ele>
        <time>2021-09-10T07:48:04.664Z</time>
      </trkpt>
      <trkpt lat="45.58295" lon="5.90255">
        <ele>266</ele>
        <time>2021-09-10T07:48:05.664Z</time>
      </trkpt>
      <trkpt lat="45.58299" lon="5.90251">
        <ele>265</ele>
        <time>2021-09-10T07:48:06.663Z</time>
      </trkpt>
      <trkpt lat="45.58302" lon="5.90246">
        <ele>265</ele>
        <time>2021-09-10T07:48:07.664Z</time>
      </trkpt>
      <trkpt lat="45.58306" lon="5.90242">
        <ele>265</ele>
        <time>2021-09-10T07:48:08.664Z</time>
      </trkpt>
      <trkpt lat="45.58308" lon="5.90237">
        <ele>264</ele>
        <time>2021-09-10T07:48:09.664Z</time>
      </trkpt>
      <trkpt lat="45.58311" lon="5.90234">
        <ele>263</ele>
        <time>2021-09-10T07:48:10.664Z</time>
      </trkpt>
      <trkpt lat="45.58314" lon="5.9023">
        <ele>263</ele>
        <time>2021-09-10T07:48:11.664Z</time>
      </trkpt>
      <trkpt lat="45.58316" lon="5.90226">
        <ele>263</ele>
        <time>2021-09-10T07:48:12.664Z</time>
      </trkpt>
      <trkpt lat="45.58318" lon="5.90223">
        <ele>263</ele>
        <time>2021-09-10T07:48:13.664Z</time>
      </trkpt>
      <trkpt lat="45.5832" lon="5.9022">
        <ele>263</ele>
        <time>2021-09-10T07:48:14.663Z</time>
      </trkpt>
      <trkpt lat="45.58322" lon="5.90216">
        <ele>263</ele>
        <time>2021-09-10T07:48:15.664Z</time>
      </trkpt>
      <trkpt lat="45.58323" lon="5.90213">
        <ele>263</ele>
        <time>2021-09-10T07:48:16.664Z</time>
      </trkpt>
      <trkpt lat="45.58325" lon="5.9021">
        <ele>263</ele>
        <time>2021-09-10T07:48:17.664Z</time>
      </trkpt>
      <trkpt lat="45.58327" lon="5.90206">
        <ele>264</ele>
        <time>2021-09-10T07:48:18.664Z</time>
      </trkpt>
      <trkpt lat="45.58329" lon="5.90203">
        <ele>264</ele>
        <time>2021-09-10T07:48:19.664Z</time>
      </trkpt>
      <trkpt lat="45.58331" lon="5.90199">
        <ele>264</ele>
        <time>2021-09-10T07:48:20.663Z</time>
      </trkpt>
      <trkpt lat="45.58334" lon="5.90196">
        <ele>264</ele>
        <time>2021-09-10T07:48:21.664Z</time>
      </trkpt>
      <trkpt lat="45.58336" lon="5.90192">
        <ele>263</ele>
        <time>2021-09-10T07:48:22.664Z</time>
      </trkpt>
      <trkpt lat="45.58339" lon="5.90189">
        <ele>263</ele>
        <time>2021-09-10T07:48:23.664Z</time>
      </trkpt>
      <trkpt lat="45.58341" lon="5.90187">
        <ele>262</ele>
        <time>2021-09-10T07:48:24.663Z</time>
      </trkpt>
      <trkpt lat="45.58344" lon="5.90183">
        <ele>262</ele>
        <time>2021-09-10T07:48:25.664Z</time>
      </trkpt>
      <trkpt lat="45.58346" lon="5.9018">
        <ele>261</ele>
        <time>2021-09-10T07:48:26.664Z</time>
      </trkpt>
      <trkpt lat="45.58349" lon="5.90176">
        <ele>261</ele>
        <time>2021-09-10T07:48:27.663Z</time>
      </trkpt>
      <trkpt lat="45.58352" lon="5.90173">
        <ele>261</ele>
        <time>2021-09-10T07:48:28.664Z</time>
      </trkpt>
      <trkpt lat="45.58355" lon="5.90169">
        <ele>261</ele>
        <time>2021-09-10T07:48:29.664Z</time>
      </trkpt>
      <trkpt lat="45.58358" lon="5.90165">
        <ele>260</ele>
        <time>2021-09-10T07:48:30.664Z</time>
      </trkpt>
      <trkpt lat="45.58361" lon="5.90161">
        <ele>260</ele>
        <time>2021-09-10T07:48:31.664Z</time>
      </trkpt>
      <trkpt lat="45.58364" lon="5.90157">
        <ele>260</ele>
        <time>2021-09-10T07:48:32.664Z</time>
      </trkpt>
      <trkpt lat="45.58368" lon="5.90152">
        <ele>259</ele>
        <time>2021-09-10T07:48:33.664Z</time>
      </trkpt>
      <trkpt lat="45.58371" lon="5.90148">
        <ele>259</ele>
        <time>2021-09-10T07:48:34.664Z</time>
      </trkpt>
      <trkpt lat="45.58374" lon="5.90143">
        <ele>259</ele>
        <time>2021-09-10T07:48:35.664Z</time>
      </trkpt>
      <trkpt lat="45.58377" lon="5.90139">
        <ele>259</ele>
        <time>2021-09-10T07:48:36.664Z</time>
      </trkpt>
      <trkpt lat="45.5838" lon="5.90135">
        <ele>259</ele>
        <time>2021-09-10T07:48:37.664Z</time>
      </trkpt>
      <trkpt lat="45.58384" lon="5.9013">
        <ele>259</ele>
        <time>2021-09-10T07:48:38.664Z</time>
      </trkpt>
      <trkpt lat="45.58387" lon="5.90125">
        <ele>259</ele>
        <time>2021-09-10T07:48:39.664Z</time>
      </trkpt>
      <trkpt lat="45.5839" lon="5.90121">
        <ele>259</ele>
        <time>2021-09-10T07:48:40.663Z</time>
      </trkpt>
      <trkpt lat="45.58393" lon="5.90116">
        <ele>259</ele>
        <time>2021-09-10T07:48:41.664Z</time>
      </trkpt>
      <trkpt lat="45.58396" lon="5.90112">
        <ele>259</ele>
        <time>2021-09-10T07:48:42.664Z</time>
      </trkpt>
      <trkpt lat="45.58399" lon="5.90108">
        <ele>259</ele>
        <time>2021-09-10T07:48:43.663Z</time>
      </trkpt>
      <trkpt lat="45.58401" lon="5.90104">
        <ele>259</ele>
        <time>2021-09-10T07:48:44.663Z</time>
      </trkpt>
      <trkpt lat="45.58404" lon="5.901">
        <ele>260</ele>
        <time>2021-09-10T07:48:45.664Z</time>
      </trkpt>
      <trkpt lat="45.58407" lon="5.90096">
        <ele>260</ele>
        <time>2021-09-10T07:48:46.664Z</time>
      </trkpt>
      <trkpt lat="45.5841" lon="5.90092">
        <ele>260</ele>
        <time>2021-09-10T07:48:47.664Z</time>
      </trkpt>
      <trkpt lat="45.58414" lon="5.90088">
        <ele>260</ele>
        <time>2021-09-10T07:48:48.664Z</time>
      </trkpt>
      <trkpt lat="45.58417" lon="5.90083">
        <ele>260</ele>
        <time>2021-09-10T07:48:49.663Z</time>
      </trkpt>
      <trkpt lat="45.58421" lon="5.90079">
        <ele>260</ele>
        <time>2021-09-10T07:48:50.664Z</time>
      </trkpt>
      <trkpt lat="45.58424" lon="5.90074">
        <ele>260</ele>
        <time>2021-09-10T07:48:51.664Z</time>
      </trkpt>
      <trkpt lat="45.58428" lon="5.9007">
        <ele>260</ele>
        <time>2021-09-10T07:48:52.664Z</time>
      </trkpt>
      <trkpt lat="45.58431" lon="5.90065">
        <ele>260</ele>
        <time>2021-09-10T07:48:53.664Z</time>
      </trkpt>
      <trkpt lat="45.58434" lon="5.9006">
        <ele>260</ele>
        <time>2021-09-10T07:48:54.664Z</time>
      </trkpt>
      <trkpt lat="45.58438" lon="5.90056">
        <ele>260</ele>
        <time>2021-09-10T07:48:55.664Z</time>
      </trkpt>
      <trkpt lat="45.58441" lon="5.90052">
        <ele>260</ele>
        <time>2021-09-10T07:48:56.664Z</time>
      </trkpt>
      <trkpt lat="45.58445" lon="5.90048">
        <ele>260</ele>
        <time>2021-09-10T07:48:57.664Z</time>
      </trkpt>
      <trkpt lat="45.58449" lon="5.90044">
        <ele>260</ele>
        <time>2021-09-10T07:48:58.663Z</time>
      </trkpt>
      <trkpt lat="45.58452" lon="5.90041">
        <ele>259</ele>
        <time>2021-09-10T07:48:59.664Z</time>
      </trkpt>
      <trkpt lat="45.58455" lon="5.90039">
        <ele>259</ele>
        <time>2021-09-10T07:49:00.663Z</time>
      </trkpt>
      <trkpt lat="45.58457" lon="5.90038">
        <ele>259</ele>
        <time>2021-09-10T07:49:01.663Z</time>
      </trkpt>
      <trkpt lat="45.58459" lon="5.90037">
        <ele>258</ele>
        <time>2021-09-10T07:49:02.663Z</time>
      </trkpt>
      <trkpt lat="45.5846" lon="5.90037">
        <ele>258</ele>
        <time>2021-09-10T07:49:03.664Z</time>
      </trkpt>
      <trkpt lat="45.58462" lon="5.90036">
        <ele>257</ele>
        <time>2021-09-10T07:49:04.664Z</time>
      </trkpt>
      <trkpt lat="45.58463" lon="5.90036">
        <ele>257</ele>
        <time>2021-09-10T07:49:05.664Z</time>
      </trkpt>
      <trkpt lat="45.58465" lon="5.90036">
        <ele>257</ele>
        <time>2021-09-10T07:49:06.664Z</time>
      </trkpt>
      <trkpt lat="45.58465" lon="5.90036">
        <ele>257</ele>
        <time>2021-09-10T07:49:07.663Z</time>
      </trkpt>
      <trkpt lat="45.58466" lon="5.90036">
        <ele>257</ele>
        <time>2021-09-10T07:49:08.664Z</time>
      </trkpt>
      <trkpt lat="45.58465" lon="5.90036">
        <ele>256</ele>
        <time>2021-09-10T07:49:09.664Z</time>
      </trkpt>
      <trkpt lat="45.58466" lon="5.9004">
        <ele>255</ele>
        <time>2021-09-10T07:49:10.666Z</time>
      </trkpt>
      <trkpt lat="45.58468" lon="5.90038">
        <ele>255</ele>
        <time>2021-09-10T07:49:11.666Z</time>
      </trkpt>
      <trkpt lat="45.5847" lon="5.90037">
        <ele>256</ele>
        <time>2021-09-10T07:49:12.665Z</time>
      </trkpt>
      <trkpt lat="45.58473" lon="5.90035">
        <ele>257</ele>
        <time>2021-09-10T07:49:13.665Z</time>
      </trkpt>
      <trkpt lat="45.58475" lon="5.90033">
        <ele>258</ele>
        <time>2021-09-10T07:49:14.665Z</time>
      </trkpt>
      <trkpt lat="45.58479" lon="5.90031">
        <ele>259</ele>
        <time>2021-09-10T07:49:15.666Z</time>
      </trkpt>
      <trkpt lat="45.58481" lon="5.90032">
        <ele>260</ele>
        <time>2021-09-10T07:49:16.665Z</time>
      </trkpt>
      <trkpt lat="45.58484" lon="5.90033">
        <ele>260</ele>
        <time>2021-09-10T07:49:17.666Z</time>
      </trkpt>
      <trkpt lat="45.58486" lon="5.90035">
        <ele>260</ele>
        <time>2021-09-10T07:49:18.665Z</time>
      </trkpt>
      <trkpt lat="45.58488" lon="5.90038">
        <ele>260</ele>
        <time>2021-09-10T07:49:19.666Z</time>
      </trkpt>
      <trkpt lat="45.5849" lon="5.90042">
        <ele>259</ele>
        <time>2021-09-10T07:49:20.666Z</time>
      </trkpt>
      <trkpt lat="45.58492" lon="5.90047">
        <ele>258</ele>
        <time>2021-09-10T07:49:21.666Z</time>
      </trkpt>
      <trkpt lat="45.58494" lon="5.90051">
        <ele>258</ele>
        <time>2021-09-10T07:49:22.666Z</time>
      </trkpt>
      <trkpt lat="45.58496" lon="5.90057">
        <ele>258</ele>
        <time>2021-09-10T07:49:23.666Z</time>
      </trkpt>
      <trkpt lat="45.58497" lon="5.90062">
        <ele>258</ele>
        <time>2021-09-10T07:49:24.666Z</time>
      </trkpt>
      <trkpt lat="45.58499" lon="5.90067">
        <ele>257</ele>
        <time>2021-09-10T07:49:25.665Z</time>
      </trkpt>
      <trkpt lat="45.58501" lon="5.90072">
        <ele>257</ele>
        <time>2021-09-10T07:49:26.665Z</time>
      </trkpt>
      <trkpt lat="45.58503" lon="5.90078">
        <ele>257</ele>
        <time>2021-09-10T07:49:27.665Z</time>
      </trkpt>
      <trkpt lat="45.58505" lon="5.90084">
        <ele>257</ele>
        <time>2021-09-10T07:49:28.666Z</time>
      </trkpt>
      <trkpt lat="45.58506" lon="5.9009">
        <ele>257</ele>
        <time>2021-09-10T07:49:29.665Z</time>
      </trkpt>
      <trkpt lat="45.58508" lon="5.90096">
        <ele>257</ele>
        <time>2021-09-10T07:49:30.666Z</time>
      </trkpt>
      <trkpt lat="45.5851" lon="5.90102">
        <ele>257</ele>
        <time>2021-09-10T07:49:31.666Z</time>
      </trkpt>
      <trkpt lat="45.58512" lon="5.90108">
        <ele>257</ele>
        <time>2021-09-10T07:49:32.666Z</time>
      </trkpt>
      <trkpt lat="45.58514" lon="5.90114">
        <ele>257</ele>
        <time>2021-09-10T07:49:33.666Z</time>
      </trkpt>
      <trkpt lat="45.58516" lon="5.9012">
        <ele>257</ele>
        <time>2021-09-10T07:49:34.666Z</time>
      </trkpt>
      <trkpt lat="45.58518" lon="5.90126">
        <ele>257</ele>
        <time>2021-09-10T07:49:35.665Z</time>
      </trkpt>
      <trkpt lat="45.58519" lon="5.90132">
        <ele>257</ele>
        <time>2021-09-10T07:49:36.666Z</time>
      </trkpt>
      <trkpt lat="45.58521" lon="5.90138">
        <ele>257</ele>
        <time>2021-09-10T07:49:37.665Z</time>
      </trkpt>
      <trkpt lat="45.58523" lon="5.90144">
        <ele>257</ele>
        <time>2021-09-10T07:49:38.666Z</time>
      </trkpt>
      <trkpt lat="45.58525" lon="5.9015">
        <ele>257</ele>
        <time>2021-09-10T07:49:39.665Z</time>
      </trkpt>
      <trkpt lat="45.58527" lon="5.90156">
        <ele>257</ele>
        <time>2021-09-10T07:49:40.666Z</time>
      </trkpt>
      <trkpt lat="45.58529" lon="5.90162">
        <ele>257</ele>
        <time>2021-09-10T07:49:41.666Z</time>
      </trkpt>
      <trkpt lat="45.58531" lon="5.90168">
        <ele>257</ele>
        <time>2021-09-10T07:49:42.665Z</time>
      </trkpt>
      <trkpt lat="45.58533" lon="5.90174">
        <ele>257</ele>
        <time>2021-09-10T07:49:43.666Z</time>
      </trkpt>
      <trkpt lat="45.58535" lon="5.9018">
        <ele>258</ele>
        <time>2021-09-10T07:49:44.666Z</time>
      </trkpt>
      <trkpt lat="45.58538" lon="5.90186">
        <ele>258</ele>
        <time>2021-09-10T07:49:45.666Z</time>
      </trkpt>
      <trkpt lat="45.58541" lon="5.90191">
        <ele>258</ele>
        <time>2021-09-10T07:49:46.666Z</time>
      </trkpt>
      <trkpt lat="45.58544" lon="5.90195">
        <ele>259</ele>
        <time>2021-09-10T07:49:47.666Z</time>
      </trkpt>
      <trkpt lat="45.58547" lon="5.90199">
        <ele>259</ele>
        <time>2021-09-10T07:49:48.666Z</time>
      </trkpt>
      <trkpt lat="45.58549" lon="5.90203">
        <ele>260</ele>
        <time>2021-09-10T07:49:49.666Z</time>
      </trkpt>
      <trkpt lat="45.58551" lon="5.90206">
        <ele>260</ele>
        <time>2021-09-10T07:49:50.665Z</time>
      </trkpt>
      <trkpt lat="45.58552" lon="5.90209">
        <ele>260</ele>
        <time>2021-09-10T07:49:51.666Z</time>
      </trkpt>
      <trkpt lat="45.58554" lon="5.90213">
        <ele>260</ele>
        <time>2021-09-10T07:49:52.665Z</time>
      </trkpt>
      <trkpt lat="45.58555" lon="5.90217">
        <ele>260</ele>
        <time>2021-09-10T07:49:53.665Z</time>
      </trkpt>
      <trkpt lat="45.58555" lon="5.90222">
        <ele>259</ele>
        <time>2021-09-10T07:49:54.666Z</time>
      </trkpt>
      <trkpt lat="45.58554" lon="5.90227">
        <ele>259</ele>
        <time>2021-09-10T07:49:55.666Z</time>
      </trkpt>
      <trkpt lat="45.58554" lon="5.90232">
        <ele>260</ele>
        <time>2021-09-10T07:49:56.666Z</time>
      </trkpt>
      <trkpt lat="45.58554" lon="5.90238">
        <ele>260</ele>
        <time>2021-09-10T07:49:57.666Z</time>
      </trkpt>
      <trkpt lat="45.58554" lon="5.90243">
        <ele>260</ele>
        <time>2021-09-10T07:49:58.666Z</time>
      </trkpt>
      <trkpt lat="45.58555" lon="5.90249">
        <ele>261</ele>
        <time>2021-09-10T07:49:59.666Z</time>
      </trkpt>
      <trkpt lat="45.58556" lon="5.90255">
        <ele>261</ele>
        <time>2021-09-10T07:50:00.666Z</time>
      </trkpt>
      <trkpt lat="45.58558" lon="5.90261">
        <ele>261</ele>
        <time>2021-09-10T07:50:01.666Z</time>
      </trkpt>
      <trkpt lat="45.58559" lon="5.90267">
        <ele>261</ele>
        <time>2021-09-10T07:50:02.665Z</time>
      </trkpt>
      <trkpt lat="45.58561" lon="5.90273">
        <ele>261</ele>
        <time>2021-09-10T07:50:03.666Z</time>
      </trkpt>
      <trkpt lat="45.58563" lon="5.90279">
        <ele>260</ele>
        <time>2021-09-10T07:50:04.666Z</time>
      </trkpt>
      <trkpt lat="45.58564" lon="5.90285">
        <ele>260</ele>
        <time>2021-09-10T07:50:05.666Z</time>
      </trkpt>
      <trkpt lat="45.58566" lon="5.9029">
        <ele>259</ele>
        <time>2021-09-10T07:50:06.666Z</time>
      </trkpt>
      <trkpt lat="45.58568" lon="5.90296">
        <ele>259</ele>
        <time>2021-09-10T07:50:07.666Z</time>
      </trkpt>
      <trkpt lat="45.5857" lon="5.90302">
        <ele>259</ele>
        <time>2021-09-10T07:50:08.666Z</time>
      </trkpt>
      <trkpt lat="45.58572" lon="5.90307">
        <ele>258</ele>
        <time>2021-09-10T07:50:09.666Z</time>
      </trkpt>
      <trkpt lat="45.58574" lon="5.90313">
        <ele>258</ele>
        <time>2021-09-10T07:50:10.666Z</time>
      </trkpt>
      <trkpt lat="45.58575" lon="5.90319">
        <ele>259</ele>
        <time>2021-09-10T07:50:11.666Z</time>
      </trkpt>
      <trkpt lat="45.58577" lon="5.90325">
        <ele>259</ele>
        <time>2021-09-10T07:50:12.666Z</time>
      </trkpt>
      <trkpt lat="45.58579" lon="5.9033">
        <ele>259</ele>
        <time>2021-09-10T07:50:13.666Z</time>
      </trkpt>
      <trkpt lat="45.58581" lon="5.90336">
        <ele>259</ele>
        <time>2021-09-10T07:50:14.666Z</time>
      </trkpt>
      <trkpt lat="45.58584" lon="5.90342">
        <ele>259</ele>
        <time>2021-09-10T07:50:15.665Z</time>
      </trkpt>
      <trkpt lat="45.58585" lon="5.90348">
        <ele>259</ele>
        <time>2021-09-10T07:50:16.666Z</time>
      </trkpt>
      <trkpt lat="45.58587" lon="5.90353">
        <ele>259</ele>
        <time>2021-09-10T07:50:17.666Z</time>
      </trkpt>
      <trkpt lat="45.58589" lon="5.90359">
        <ele>260</ele>
        <time>2021-09-10T07:50:18.666Z</time>
      </trkpt>
      <trkpt lat="45.58591" lon="5.90365">
        <ele>260</ele>
        <time>2021-09-10T07:50:19.665Z</time>
      </trkpt>
      <trkpt lat="45.58593" lon="5.90371">
        <ele>260</ele>
        <time>2021-09-10T07:50:20.665Z</time>
      </trkpt>
      <trkpt lat="45.58595" lon="5.90376">
        <ele>260</ele>
        <time>2021-09-10T07:50:21.665Z</time>
      </trkpt>
      <trkpt lat="45.58597" lon="5.90382">
        <ele>261</ele>
        <time>2021-09-10T07:50:22.666Z</time>
      </trkpt>
      <trkpt lat="45.58599" lon="5.90388">
        <ele>261</ele>
        <time>2021-09-10T07:50:23.666Z</time>
      </trkpt>
      <trkpt lat="45.58602" lon="5.90392">
        <ele>261</ele>
        <time>2021-09-10T07:50:24.665Z</time>
      </trkpt>
      <trkpt lat="45.58604" lon="5.90397">
        <ele>261</ele>
        <time>2021-09-10T07:50:25.666Z</time>
      </trkpt>
      <trkpt lat="45.58608" lon="5.90399">
        <ele>261</ele>
        <time>2021-09-10T07:50:26.666Z</time>
      </trkpt>
      <trkpt lat="45.58612" lon="5.904">
        <ele>261</ele>
        <time>2021-09-10T07:50:27.666Z</time>
      </trkpt>
      <trkpt lat="45.58615" lon="5.90401">
        <ele>261</ele>
        <time>2021-09-10T07:50:28.666Z</time>
      </trkpt>
      <trkpt lat="45.58619" lon="5.90402">
        <ele>261</ele>
        <time>2021-09-10T07:50:29.666Z</time>
      </trkpt>
      <trkpt lat="45.58622" lon="5.90404">
        <ele>260</ele>
        <time>2021-09-10T07:50:30.665Z</time>
      </trkpt>
      <trkpt lat="45.58625" lon="5.90407">
        <ele>260</ele>
        <time>2021-09-10T07:50:31.666Z</time>
      </trkpt>
      <trkpt lat="45.58627" lon="5.90408">
        <ele>259</ele>
        <time>2021-09-10T07:50:32.666Z</time>
      </trkpt>
      <trkpt lat="45.58629" lon="5.90408">
        <ele>259</ele>
        <time>2021-09-10T07:50:33.666Z</time>
      </trkpt>
      <trkpt lat="45.58631" lon="5.90406">
        <ele>259</ele>
        <time>2021-09-10T07:50:34.666Z</time>
      </trkpt>
      <trkpt lat="45.58633" lon="5.90404">
        <ele>259</ele>
        <time>2021-09-10T07:50:35.665Z</time>
      </trkpt>
      <trkpt lat="45.58635" lon="5.90401">
        <ele>259</ele>
        <time>2021-09-10T07:50:36.666Z</time>
      </trkpt>
      <trkpt lat="45.58636" lon="5.90398">
        <ele>259</ele>
        <time>2021-09-10T07:50:37.666Z</time>
      </trkpt>
      <trkpt lat="45.58638" lon="5.90395">
        <ele>259</ele>
        <time>2021-09-10T07:50:38.666Z</time>
      </trkpt>
      <trkpt lat="45.5864" lon="5.90391">
        <ele>259</ele>
        <time>2021-09-10T07:50:39.666Z</time>
      </trkpt>
      <trkpt lat="45.58642" lon="5.90388">
        <ele>259</ele>
        <time>2021-09-10T07:50:40.665Z</time>
      </trkpt>
      <trkpt lat="45.58644" lon="5.90385">
        <ele>259</ele>
        <time>2021-09-10T07:50:41.666Z</time>
      </trkpt>
      <trkpt lat="45.58646" lon="5.90381">
        <ele>258</ele>
        <time>2021-09-10T07:50:42.665Z</time>
      </trkpt>
      <trkpt lat="45.58648" lon="5.90377">
        <ele>258</ele>
        <time>2021-09-10T07:50:43.665Z</time>
      </trkpt>
      <trkpt lat="45.5865" lon="5.90373">
        <ele>258</ele>
        <time>2021-09-10T07:50:44.666Z</time>
      </trkpt>
      <trkpt lat="45.58651" lon="5.90369">
        <ele>258</ele>
        <time>2021-09-10T07:50:45.666Z</time>
      </trkpt>
      <trkpt lat="45.58653" lon="5.90365">
        <ele>259</ele>
        <time>2021-09-10T07:50:46.666Z</time>
      </trkpt>
      <trkpt lat="45.58655" lon="5.90361">
        <ele>259</ele>
        <time>2021-09-10T07:50:47.665Z</time>
      </trkpt>
      <trkpt lat="45.58657" lon="5.90357">
        <ele>259</ele>
        <time>2021-09-10T07:50:48.666Z</time>
      </trkpt>
      <trkpt lat="45.58659" lon="5.90353">
        <ele>259</ele>
        <time>2021-09-10T07:50:49.665Z</time>
      </trkpt>
      <trkpt lat="45.58661" lon="5.90349">
        <ele>260</ele>
        <time>2021-09-10T07:50:50.666Z</time>
      </trkpt>
      <trkpt lat="45.58664" lon="5.90345">
        <ele>260</ele>
        <time>2021-09-10T07:50:51.665Z</time>
      </trkpt>
      <trkpt lat="45.58666" lon="5.9034">
        <ele>260</ele>
        <time>2021-09-10T07:50:52.665Z</time>
      </trkpt>
      <trkpt lat="45.58669" lon="5.90336">
        <ele>260</ele>
        <time>2021-09-10T07:50:53.666Z</time>
      </trkpt>
      <trkpt lat="45.58672" lon="5.90332">
        <ele>259</ele>
        <time>2021-09-10T07:50:54.666Z</time>
      </trkpt>
      <trkpt lat="45.58675" lon="5.90328">
        <ele>259</ele>
        <time>2021-09-10T07:50:55.666Z</time>
      </trkpt>
      <trkpt lat="45.58678" lon="5.90323">
        <ele>259</ele>
        <time>2021-09-10T07:50:56.665Z</time>
      </trkpt>
      <trkpt lat="45.58681" lon="5.90319">
        <ele>259</ele>
        <time>2021-09-10T07:50:57.666Z</time>
      </trkpt>
      <trkpt lat="45.58684" lon="5.90314">
        <ele>258</ele>
        <time>2021-09-10T07:50:58.665Z</time>
      </trkpt>
      <trkpt lat="45.58687" lon="5.9031">
        <ele>259</ele>
        <time>2021-09-10T07:50:59.666Z</time>
      </trkpt>
      <trkpt lat="45.58691" lon="5.90305">
        <ele>259</ele>
        <time>2021-09-10T07:51:00.666Z</time>
      </trkpt>
      <trkpt lat="45.58694" lon="5.90301">
        <ele>259</ele>
        <time>2021-09-10T07:51:01.665Z</time>
      </trkpt>
      <trkpt lat="45.58698" lon="5.90296">
        <ele>259</ele>
        <time>2021-09-10T07:51:02.666Z</time>
      </trkpt>
      <trkpt lat="45.58701" lon="5.90291">
        <ele>259</ele>
        <time>2021-09-10T07:51:03.665Z</time>
      </trkpt>
      <trkpt lat="45.58705" lon="5.90286">
        <ele>259</ele>
        <time>2021-09-10T07:51:04.665Z</time>
      </trkpt>
      <trkpt lat="45.58708" lon="5.90282">
        <ele>259</ele>
        <time>2021-09-10T07:51:05.666Z</time>
      </trkpt>
      <trkpt lat="45.58711" lon="5.90278">
        <ele>259</ele>
        <time>2021-09-10T07:51:06.666Z</time>
      </trkpt>
      <trkpt lat="45.58714" lon="5.90273">
        <ele>259</ele>
        <time>2021-09-10T07:51:07.665Z</time>
      </trkpt>
      <trkpt lat="45.58717" lon="5.90269">
        <ele>259</ele>
        <time>2021-09-10T07:51:08.666Z</time>
      </trkpt>
      <trkpt lat="45.58721" lon="5.90264">
        <ele>259</ele>
        <time>2021-09-10T07:51:09.666Z</time>
      </trkpt>
      <trkpt lat="45.58724" lon="5.9026">
        <ele>259</ele>
        <time>2021-09-10T07:51:10.665Z</time>
      </trkpt>
      <trkpt lat="45.58727" lon="5.90255">
        <ele>259</ele>
        <time>2021-09-10T07:51:11.665Z</time>
      </trkpt>
      <trkpt lat="45.58731" lon="5.90251">
        <ele>259</ele>
        <time>2021-09-10T07:51:12.665Z</time>
      </trkpt>
      <trkpt lat="45.58735" lon="5.90246">
        <ele>259</ele>
        <time>2021-09-10T07:51:13.666Z</time>
      </trkpt>
      <trkpt lat="45.58738" lon="5.90242">
        <ele>259</ele>
        <time>2021-09-10T07:51:14.666Z</time>
      </trkpt>
      <trkpt lat="45.58741" lon="5.90237">
        <ele>260</ele>
        <time>2021-09-10T07:51:15.665Z</time>
      </trkpt>
      <trkpt lat="45.58744" lon="5.90231">
        <ele>260</ele>
        <time>2021-09-10T07:51:16.665Z</time>
      </trkpt>
      <trkpt lat="45.58747" lon="5.90226">
        <ele>260</ele>
        <time>2021-09-10T07:51:17.666Z</time>
      </trkpt>
      <trkpt lat="45.58752" lon="5.90222">
        <ele>259</ele>
        <time>2021-09-10T07:51:18.666Z</time>
      </trkpt>
      <trkpt lat="45.58755" lon="5.90217">
        <ele>259</ele>
        <time>2021-09-10T07:51:19.666Z</time>
      </trkpt>
      <trkpt lat="45.58759" lon="5.90213">
        <ele>258</ele>
        <time>2021-09-10T07:51:20.666Z</time>
      </trkpt>
      <trkpt lat="45.58762" lon="5.90208">
        <ele>258</ele>
        <time>2021-09-10T07:51:21.666Z</time>
      </trkpt>
      <trkpt lat="45.58765" lon="5.90203">
        <ele>258</ele>
        <time>2021-09-10T07:51:22.665Z</time>
      </trkpt>
      <trkpt lat="45.58768" lon="5.90199">
        <ele>258</ele>
        <time>2021-09-10T07:51:23.665Z</time>
      </trkpt>
      <trkpt lat="45.58772" lon="5.90194">
        <ele>258</ele>
        <time>2021-09-10T07:51:24.665Z</time>
      </trkpt>
      <trkpt lat="45.58775" lon="5.90189">
        <ele>258</ele>
        <time>2021-09-10T07:51:25.665Z</time>
      </trkpt>
      <trkpt lat="45.58779" lon="5.90185">
        <ele>258</ele>
        <time>2021-09-10T07:51:26.665Z</time>
      </trkpt>
      <trkpt lat="45.58782" lon="5.9018">
        <ele>258</ele>
        <time>2021-09-10T07:51:27.666Z</time>
      </trkpt>
      <trkpt lat="45.58785" lon="5.90176">
        <ele>258</ele>
        <time>2021-09-10T07:51:28.666Z</time>
      </trkpt>
      <trkpt lat="45.58789" lon="5.90171">
        <ele>258</ele>
        <time>2021-09-10T07:51:29.666Z</time>
      </trkpt>
      <trkpt lat="45.58792" lon="5.90167">
        <ele>258</ele>
        <time>2021-09-10T07:51:30.665Z</time>
      </trkpt>
      <trkpt lat="45.58796" lon="5.90162">
        <ele>258</ele>
        <time>2021-09-10T07:51:31.666Z</time>
      </trkpt>
      <trkpt lat="45.58799" lon="5.90158">
        <ele>258</ele>
        <time>2021-09-10T07:51:32.666Z</time>
      </trkpt>
      <trkpt lat="45.58803" lon="5.90153">
        <ele>258</ele>
        <time>2021-09-10T07:51:33.665Z</time>
      </trkpt>
      <trkpt lat="45.58806" lon="5.90148">
        <ele>258</ele>
        <time>2021-09-10T07:51:34.666Z</time>
      </trkpt>
      <trkpt lat="45.58809" lon="5.90144">
        <ele>257</ele>
        <time>2021-09-10T07:51:35.665Z</time>
      </trkpt>
      <trkpt lat="45.58813" lon="5.9014">
        <ele>257</ele>
        <time>2021-09-10T07:51:36.666Z</time>
      </trkpt>
      <trkpt lat="45.58816" lon="5.90135">
        <ele>257</ele>
        <time>2021-09-10T07:51:37.666Z</time>
      </trkpt>
      <trkpt lat="45.58819" lon="5.90131">
        <ele>258</ele>
        <time>2021-09-10T07:51:38.666Z</time>
      </trkpt>
      <trkpt lat="45.58822" lon="5.90127">
        <ele>258</ele>
        <time>2021-09-10T07:51:39.666Z</time>
      </trkpt>
      <trkpt lat="45.58826" lon="5.90123">
        <ele>258</ele>
        <time>2021-09-10T07:51:40.665Z</time>
      </trkpt>
      <trkpt lat="45.58829" lon="5.90119">
        <ele>258</ele>
        <time>2021-09-10T07:51:41.666Z</time>
      </trkpt>
      <trkpt lat="45.58833" lon="5.90115">
        <ele>259</ele>
        <time>2021-09-10T07:51:42.665Z</time>
      </trkpt>
      <trkpt lat="45.58837" lon="5.90112">
        <ele>259</ele>
        <time>2021-09-10T07:51:43.666Z</time>
      </trkpt>
      <trkpt lat="45.58841" lon="5.90109">
        <ele>258</ele>
        <time>2021-09-10T07:51:44.666Z</time>
      </trkpt>
      <trkpt lat="45.58845" lon="5.90107">
        <ele>258</ele>
        <time>2021-09-10T07:51:45.666Z</time>
      </trkpt>
      <trkpt lat="45.5885" lon="5.90104">
        <ele>258</ele>
        <time>2021-09-10T07:51:46.666Z</time>
      </trkpt>
      <trkpt lat="45.58855" lon="5.90102">
        <ele>258</ele>
        <time>2021-09-10T07:51:47.666Z</time>
      </trkpt>
      <trkpt lat="45.5886" lon="5.90098">
        <ele>258</ele>
        <time>2021-09-10T07:51:48.666Z</time>
      </trkpt>
      <trkpt lat="45.58865" lon="5.90094">
        <ele>258</ele>
        <time>2021-09-10T07:51:49.666Z</time>
      </trkpt>
      <trkpt lat="45.58871" lon="5.9009">
        <ele>258</ele>
        <time>2021-09-10T07:51:50.665Z</time>
      </trkpt>
      <trkpt lat="45.58876" lon="5.90085">
        <ele>258</ele>
        <time>2021-09-10T07:51:51.666Z</time>
      </trkpt>
      <trkpt lat="45.58883" lon="5.90079">
        <ele>257</ele>
        <time>2021-09-10T07:51:52.665Z</time>
      </trkpt>
      <trkpt lat="45.58888" lon="5.90075">
        <ele>257</ele>
        <time>2021-09-10T07:51:53.666Z</time>
      </trkpt>
      <trkpt lat="45.58895" lon="5.90069">
        <ele>257</ele>
        <time>2021-09-10T07:51:54.665Z</time>
      </trkpt>
      <trkpt lat="45.58901" lon="5.90063">
        <ele>256</ele>
        <time>2021-09-10T07:51:55.666Z</time>
      </trkpt>
      <trkpt lat="45.58906" lon="5.90056">
        <ele>256</ele>
        <time>2021-09-10T07:51:56.666Z</time>
      </trkpt>
      <trkpt lat="45.5891" lon="5.90049">
        <ele>256</ele>
        <time>2021-09-10T07:51:57.665Z</time>
      </trkpt>
      <trkpt lat="45.58914" lon="5.90042">
        <ele>256</ele>
        <time>2021-09-10T07:51:58.666Z</time>
      </trkpt>
      <trkpt lat="45.58917" lon="5.90034">
        <ele>255</ele>
        <time>2021-09-10T07:51:59.666Z</time>
      </trkpt>
      <trkpt lat="45.5892" lon="5.90028">
        <ele>255</ele>
        <time>2021-09-10T07:52:00.666Z</time>
      </trkpt>
      <trkpt lat="45.58922" lon="5.90022">
        <ele>254</ele>
        <time>2021-09-10T07:52:01.665Z</time>
      </trkpt>
      <trkpt lat="45.58925" lon="5.90016">
        <ele>254</ele>
        <time>2021-09-10T07:52:02.666Z</time>
      </trkpt>
      <trkpt lat="45.58927" lon="5.90011">
        <ele>254</ele>
        <time>2021-09-10T07:52:03.665Z</time>
      </trkpt>
      <trkpt lat="45.58929" lon="5.90006">
        <ele>254</ele>
        <time>2021-09-10T07:52:04.666Z</time>
      </trkpt>
      <trkpt lat="45.58932" lon="5.9">
        <ele>254</ele>
        <time>2021-09-10T07:52:05.665Z</time>
      </trkpt>
      <trkpt lat="45.58934" lon="5.89994">
        <ele>255</ele>
        <time>2021-09-10T07:52:06.665Z</time>
      </trkpt>
      <trkpt lat="45.58937" lon="5.89989">
        <ele>255</ele>
        <time>2021-09-10T07:52:07.665Z</time>
      </trkpt>
      <trkpt lat="45.5894" lon="5.89984">
        <ele>255</ele>
        <time>2021-09-10T07:52:08.665Z</time>
      </trkpt>
      <trkpt lat="45.58944" lon="5.8998">
        <ele>255</ele>
        <time>2021-09-10T07:52:09.665Z</time>
      </trkpt>
      <trkpt lat="45.58947" lon="5.89974">
        <ele>255</ele>
        <time>2021-09-10T07:52:10.666Z</time>
      </trkpt>
      <trkpt lat="45.58951" lon="5.8997">
        <ele>256</ele>
        <time>2021-09-10T07:52:11.665Z</time>
      </trkpt>
      <trkpt lat="45.58954" lon="5.89965">
        <ele>257</ele>
        <time>2021-09-10T07:52:12.666Z</time>
      </trkpt>
      <trkpt lat="45.58957" lon="5.8996">
        <ele>257</ele>
        <time>2021-09-10T07:52:13.666Z</time>
      </trkpt>
      <trkpt lat="45.58961" lon="5.89955">
        <ele>258</ele>
        <time>2021-09-10T07:52:14.666Z</time>
      </trkpt>
      <trkpt lat="45.58965" lon="5.89949">
        <ele>258</ele>
        <time>2021-09-10T07:52:15.666Z</time>
      </trkpt>
      <trkpt lat="45.58968" lon="5.89944">
        <ele>258</ele>
        <time>2021-09-10T07:52:16.666Z</time>
      </trkpt>
      <trkpt lat="45.58972" lon="5.89939">
        <ele>258</ele>
        <time>2021-09-10T07:52:17.666Z</time>
      </trkpt>
      <trkpt lat="45.58976" lon="5.89934">
        <ele>258</ele>
        <time>2021-09-10T07:52:18.666Z</time>
      </trkpt>
      <trkpt lat="45.5898" lon="5.89929">
        <ele>258</ele>
        <time>2021-09-10T07:52:19.666Z</time>
      </trkpt>
      <trkpt lat="45.58984" lon="5.89924">
        <ele>258</ele>
        <time>2021-09-10T07:52:20.666Z</time>
      </trkpt>
      <trkpt lat="45.58987" lon="5.89919">
        <ele>258</ele>
        <time>2021-09-10T07:52:21.666Z</time>
      </trkpt>
      <trkpt lat="45.58991" lon="5.89914">
        <ele>258</ele>
        <time>2021-09-10T07:52:22.666Z</time>
      </trkpt>
      <trkpt lat="45.58995" lon="5.8991">
        <ele>257</ele>
        <time>2021-09-10T07:52:23.666Z</time>
      </trkpt>
      <trkpt lat="45.58998" lon="5.89905">
        <ele>257</ele>
        <time>2021-09-10T07:52:24.665Z</time>
      </trkpt>
      <trkpt lat="45.59001" lon="5.899">
        <ele>258</ele>
        <time>2021-09-10T07:52:25.666Z</time>
      </trkpt>
      <trkpt lat="45.59004" lon="5.89895">
        <ele>258</ele>
        <time>2021-09-10T07:52:26.666Z</time>
      </trkpt>
      <trkpt lat="45.59007" lon="5.89889">
        <ele>258</ele>
        <time>2021-09-10T07:52:27.666Z</time>
      </trkpt>
      <trkpt lat="45.59011" lon="5.89884">
        <ele>259</ele>
        <time>2021-09-10T07:52:28.666Z</time>
      </trkpt>
      <trkpt lat="45.59014" lon="5.89878">
        <ele>259</ele>
        <time>2021-09-10T07:52:29.666Z</time>
      </trkpt>
      <trkpt lat="45.59017" lon="5.89873">
        <ele>260</ele>
        <time>2021-09-10T07:52:30.666Z</time>
      </trkpt>
      <trkpt lat="45.59021" lon="5.89867">
        <ele>261</ele>
        <time>2021-09-10T07:52:31.666Z</time>
      </trkpt>
      <trkpt lat="45.59024" lon="5.89862">
        <ele>261</ele>
        <time>2021-09-10T07:52:32.666Z</time>
      </trkpt>
      <trkpt lat="45.59028" lon="5.89856">
        <ele>262</ele>
        <time>2021-09-10T07:52:33.666Z</time>
      </trkpt>
      <trkpt lat="45.59032" lon="5.89851">
        <ele>263</ele>
        <time>2021-09-10T07:52:34.666Z</time>
      </trkpt>
      <trkpt lat="45.59036" lon="5.89846">
        <ele>263</ele>
        <time>2021-09-10T07:52:35.666Z</time>
      </trkpt>
      <trkpt lat="45.5904" lon="5.89841">
        <ele>263</ele>
        <time>2021-09-10T07:52:36.666Z</time>
      </trkpt>
      <trkpt lat="45.59043" lon="5.89835">
        <ele>263</ele>
        <time>2021-09-10T07:52:37.666Z</time>
      </trkpt>
      <trkpt lat="45.59047" lon="5.8983">
        <ele>262</ele>
        <time>2021-09-10T07:52:38.666Z</time>
      </trkpt>
      <trkpt lat="45.59051" lon="5.89825">
        <ele>262</ele>
        <time>2021-09-10T07:52:39.665Z</time>
      </trkpt>
      <trkpt lat="45.59055" lon="5.8982">
        <ele>262</ele>
        <time>2021-09-10T07:52:40.666Z</time>
      </trkpt>
      <trkpt lat="45.59058" lon="5.89814">
        <ele>261</ele>
        <time>2021-09-10T07:52:41.665Z</time>
      </trkpt>
      <trkpt lat="45.59062" lon="5.8981">
        <ele>261</ele>
        <time>2021-09-10T07:52:42.665Z</time>
      </trkpt>
      <trkpt lat="45.59065" lon="5.89805">
        <ele>261</ele>
        <time>2021-09-10T07:52:43.665Z</time>
      </trkpt>
      <trkpt lat="45.59069" lon="5.89799">
        <ele>260</ele>
        <time>2021-09-10T07:52:44.666Z</time>
      </trkpt>
      <trkpt lat="45.59072" lon="5.89794">
        <ele>260</ele>
        <time>2021-09-10T07:52:45.666Z</time>
      </trkpt>
      <trkpt lat="45.59076" lon="5.8979">
        <ele>260</ele>
        <time>2021-09-10T07:52:46.666Z</time>
      </trkpt>
      <trkpt lat="45.5908" lon="5.89785">
        <ele>259</ele>
        <time>2021-09-10T07:52:47.666Z</time>
      </trkpt>
      <trkpt lat="45.59084" lon="5.8978">
        <ele>259</ele>
        <time>2021-09-10T07:52:48.666Z</time>
      </trkpt>
      <trkpt lat="45.59088" lon="5.89776">
        <ele>258</ele>
        <time>2021-09-10T07:52:49.665Z</time>
      </trkpt>
      <trkpt lat="45.59092" lon="5.89771">
        <ele>258</ele>
        <time>2021-09-10T07:52:50.666Z</time>
      </trkpt>
      <trkpt lat="45.59096" lon="5.89767">
        <ele>257</ele>
        <time>2021-09-10T07:52:51.666Z</time>
      </trkpt>
      <trkpt lat="45.591" lon="5.89763">
        <ele>257</ele>
        <time>2021-09-10T07:52:52.666Z</time>
      </trkpt>
      <trkpt lat="45.59104" lon="5.89758">
        <ele>257</ele>
        <time>2021-09-10T07:52:53.666Z</time>
      </trkpt>
      <trkpt lat="45.59109" lon="5.89754">
        <ele>257</ele>
        <time>2021-09-10T07:52:54.665Z</time>
      </trkpt>
      <trkpt lat="45.59113" lon="5.8975">
        <ele>256</ele>
        <time>2021-09-10T07:52:55.666Z</time>
      </trkpt>
      <trkpt lat="45.59117" lon="5.89746">
        <ele>256</ele>
        <time>2021-09-10T07:52:56.666Z</time>
      </trkpt>
      <trkpt lat="45.59121" lon="5.89741">
        <ele>255</ele>
        <time>2021-09-10T07:52:57.666Z</time>
      </trkpt>
      <trkpt lat="45.59125" lon="5.89737">
        <ele>255</ele>
        <time>2021-09-10T07:52:58.665Z</time>
      </trkpt>
      <trkpt lat="45.59129" lon="5.89732">
        <ele>255</ele>
        <time>2021-09-10T07:52:59.665Z</time>
      </trkpt>
      <trkpt lat="45.59133" lon="5.89728">
        <ele>255</ele>
        <time>2021-09-10T07:53:00.666Z</time>
      </trkpt>
      <trkpt lat="45.59137" lon="5.89723">
        <ele>254</ele>
        <time>2021-09-10T07:53:01.666Z</time>
      </trkpt>
      <trkpt lat="45.59141" lon="5.89718">
        <ele>254</ele>
        <time>2021-09-10T07:53:02.665Z</time>
      </trkpt>
      <trkpt lat="45.59145" lon="5.89714">
        <ele>254</ele>
        <time>2021-09-10T07:53:03.666Z</time>
      </trkpt>
      <trkpt lat="45.59149" lon="5.89709">
        <ele>254</ele>
        <time>2021-09-10T07:53:04.666Z</time>
      </trkpt>
      <trkpt lat="45.59153" lon="5.89704">
        <ele>254</ele>
        <time>2021-09-10T07:53:05.666Z</time>
      </trkpt>
      <trkpt lat="45.59157" lon="5.89699">
        <ele>254</ele>
        <time>2021-09-10T07:53:06.666Z</time>
      </trkpt>
      <trkpt lat="45.59161" lon="5.89694">
        <ele>254</ele>
        <time>2021-09-10T07:53:07.665Z</time>
      </trkpt>
      <trkpt lat="45.59164" lon="5.89689">
        <ele>253</ele>
        <time>2021-09-10T07:53:08.665Z</time>
      </trkpt>
      <trkpt lat="45.59168" lon="5.89684">
        <ele>253</ele>
        <time>2021-09-10T07:53:09.666Z</time>
      </trkpt>
      <trkpt lat="45.59172" lon="5.89679">
        <ele>254</ele>
        <time>2021-09-10T07:53:10.666Z</time>
      </trkpt>
      <trkpt lat="45.59176" lon="5.89674">
        <ele>254</ele>
        <time>2021-09-10T07:53:11.666Z</time>
      </trkpt>
      <trkpt lat="45.59179" lon="5.89668">
        <ele>254</ele>
        <time>2021-09-10T07:53:12.665Z</time>
      </trkpt>
      <trkpt lat="45.59183" lon="5.89663">
        <ele>255</ele>
        <time>2021-09-10T07:53:13.665Z</time>
      </trkpt>
      <trkpt lat="45.59187" lon="5.89659">
        <ele>255</ele>
        <time>2021-09-10T07:53:14.666Z</time>
      </trkpt>
      <trkpt lat="45.5919" lon="5.89653">
        <ele>256</ele>
        <time>2021-09-10T07:53:15.665Z</time>
      </trkpt>
      <trkpt lat="45.59194" lon="5.89648">
        <ele>257</ele>
        <time>2021-09-10T07:53:16.666Z</time>
      </trkpt>
      <trkpt lat="45.59198" lon="5.89643">
        <ele>257</ele>
        <time>2021-09-10T07:53:17.665Z</time>
      </trkpt>
      <trkpt lat="45.59202" lon="5.89638">
        <ele>258</ele>
        <time>2021-09-10T07:53:18.666Z</time>
      </trkpt>
      <trkpt lat="45.59205" lon="5.89633">
        <ele>258</ele>
        <time>2021-09-10T07:53:19.666Z</time>
      </trkpt>
      <trkpt lat="45.59209" lon="5.89628">
        <ele>258</ele>
        <time>2021-09-10T07:53:20.666Z</time>
      </trkpt>
      <trkpt lat="45.59213" lon="5.89624">
        <ele>258</ele>
        <time>2021-09-10T07:53:21.666Z</time>
      </trkpt>
      <trkpt lat="45.59216" lon="5.89619">
        <ele>258</ele>
        <time>2021-09-10T07:53:22.665Z</time>
      </trkpt>
      <trkpt lat="45.5922" lon="5.89614">
        <ele>258</ele>
        <time>2021-09-10T07:53:23.666Z</time>
      </trkpt>
      <trkpt lat="45.59224" lon="5.89609">
        <ele>258</ele>
        <time>2021-09-10T07:53:24.666Z</time>
      </trkpt>
      <trkpt lat="45.59227" lon="5.89604">
        <ele>258</ele>
        <time>2021-09-10T07:53:25.665Z</time>
      </trkpt>
      <trkpt lat="45.59231" lon="5.89598">
        <ele>258</ele>
        <time>2021-09-10T07:53:26.666Z</time>
      </trkpt>
      <trkpt lat="45.59235" lon="5.89593">
        <ele>258</ele>
        <time>2021-09-10T07:53:27.666Z</time>
      </trkpt>
      <trkpt lat="45.59238" lon="5.89588">
        <ele>258</ele>
        <time>2021-09-10T07:53:28.665Z</time>
      </trkpt>
      <trkpt lat="45.59242" lon="5.89582">
        <ele>258</ele>
        <time>2021-09-10T07:53:29.665Z</time>
      </trkpt>
      <trkpt lat="45.59245" lon="5.89577">
        <ele>258</ele>
        <time>2021-09-10T07:53:30.666Z</time>
      </trkpt>
      <trkpt lat="45.59249" lon="5.89572">
        <ele>258</ele>
        <time>2021-09-10T07:53:31.665Z</time>
      </trkpt>
      <trkpt lat="45.59253" lon="5.89566">
        <ele>258</ele>
        <time>2021-09-10T07:53:32.666Z</time>
      </trkpt>
      <trkpt lat="45.59256" lon="5.89561">
        <ele>258</ele>
        <time>2021-09-10T07:53:33.666Z</time>
      </trkpt>
      <trkpt lat="45.5926" lon="5.89555">
        <ele>257</ele>
        <time>2021-09-10T07:53:34.666Z</time>
      </trkpt>
      <trkpt lat="45.59263" lon="5.8955">
        <ele>258</ele>
        <time>2021-09-10T07:53:35.665Z</time>
      </trkpt>
      <trkpt lat="45.59267" lon="5.89545">
        <ele>258</ele>
        <time>2021-09-10T07:53:36.665Z</time>
      </trkpt>
      <trkpt lat="45.59271" lon="5.8954">
        <ele>257</ele>
        <time>2021-09-10T07:53:37.666Z</time>
      </trkpt>
      <trkpt lat="45.59275" lon="5.89535">
        <ele>257</ele>
        <time>2021-09-10T07:53:38.666Z</time>
      </trkpt>
      <trkpt lat="45.59278" lon="5.8953">
        <ele>256</ele>
        <time>2021-09-10T07:53:39.666Z</time>
      </trkpt>
      <trkpt lat="45.59282" lon="5.89524">
        <ele>256</ele>
        <time>2021-09-10T07:53:40.666Z</time>
      </trkpt>
      <trkpt lat="45.59286" lon="5.89519">
        <ele>256</ele>
        <time>2021-09-10T07:53:41.666Z</time>
      </trkpt>
      <trkpt lat="45.59291" lon="5.89514">
        <ele>256</ele>
        <time>2021-09-10T07:53:42.666Z</time>
      </trkpt>
      <trkpt lat="45.59295" lon="5.89508">
        <ele>256</ele>
        <time>2021-09-10T07:53:43.665Z</time>
      </trkpt>
      <trkpt lat="45.59298" lon="5.89503">
        <ele>256</ele>
        <time>2021-09-10T07:53:44.666Z</time>
      </trkpt>
      <trkpt lat="45.59302" lon="5.89498">
        <ele>256</ele>
        <time>2021-09-10T07:53:45.666Z</time>
      </trkpt>
      <trkpt lat="45.59305" lon="5.89493">
        <ele>256</ele>
        <time>2021-09-10T07:53:46.666Z</time>
      </trkpt>
      <trkpt lat="45.59309" lon="5.89487">
        <ele>256</ele>
        <time>2021-09-10T07:53:47.666Z</time>
      </trkpt>
      <trkpt lat="45.59313" lon="5.89482">
        <ele>256</ele>
        <time>2021-09-10T07:53:48.666Z</time>
      </trkpt>
      <trkpt lat="45.59316" lon="5.89477">
        <ele>256</ele>
        <time>2021-09-10T07:53:49.666Z</time>
      </trkpt>
      <trkpt lat="45.5932" lon="5.8947">
        <ele>256</ele>
        <time>2021-09-10T07:53:50.666Z</time>
      </trkpt>
      <trkpt lat="45.59324" lon="5.89465">
        <ele>256</ele>
        <time>2021-09-10T07:53:51.665Z</time>
      </trkpt>
      <trkpt lat="45.59327" lon="5.8946">
        <ele>256</ele>
        <time>2021-09-10T07:53:52.666Z</time>
      </trkpt>
      <trkpt lat="45.59332" lon="5.89455">
        <ele>256</ele>
        <time>2021-09-10T07:53:53.666Z</time>
      </trkpt>
      <trkpt lat="45.59336" lon="5.8945">
        <ele>256</ele>
        <time>2021-09-10T07:53:54.665Z</time>
      </trkpt>
      <trkpt lat="45.5934" lon="5.89444">
        <ele>256</ele>
        <time>2021-09-10T07:53:55.665Z</time>
      </trkpt>
      <trkpt lat="45.59343" lon="5.89439">
        <ele>255</ele>
        <time>2021-09-10T07:53:56.666Z</time>
      </trkpt>
      <trkpt lat="45.59347" lon="5.89434">
        <ele>255</ele>
        <time>2021-09-10T07:53:57.666Z</time>
      </trkpt>
      <trkpt lat="45.59351" lon="5.89429">
        <ele>255</ele>
        <time>2021-09-10T07:53:58.666Z</time>
      </trkpt>
      <trkpt lat="45.59355" lon="5.89424">
        <ele>255</ele>
        <time>2021-09-10T07:53:59.666Z</time>
      </trkpt>
      <trkpt lat="45.59358" lon="5.89418">
        <ele>255</ele>
        <time>2021-09-10T07:54:00.666Z</time>
      </trkpt>
      <trkpt lat="45.59361" lon="5.89414">
        <ele>255</ele>
        <time>2021-09-10T07:54:01.666Z</time>
      </trkpt>
      <trkpt lat="45.59365" lon="5.89408">
        <ele>255</ele>
        <time>2021-09-10T07:54:02.665Z</time>
      </trkpt>
      <trkpt lat="45.59368" lon="5.89403">
        <ele>255</ele>
        <time>2021-09-10T07:54:03.665Z</time>
      </trkpt>
      <trkpt lat="45.59372" lon="5.89397">
        <ele>255</ele>
        <time>2021-09-10T07:54:04.666Z</time>
      </trkpt>
      <trkpt lat="45.59376" lon="5.89392">
        <ele>255</ele>
        <time>2021-09-10T07:54:05.665Z</time>
      </trkpt>
      <trkpt lat="45.59379" lon="5.89387">
        <ele>255</ele>
        <time>2021-09-10T07:54:06.666Z</time>
      </trkpt>
      <trkpt lat="45.59383" lon="5.89383">
        <ele>255</ele>
        <time>2021-09-10T07:54:07.665Z</time>
      </trkpt>
      <trkpt lat="45.59386" lon="5.89377">
        <ele>255</ele>
        <time>2021-09-10T07:54:08.666Z</time>
      </trkpt>
      <trkpt lat="45.5939" lon="5.89373">
        <ele>255</ele>
        <time>2021-09-10T07:54:09.665Z</time>
      </trkpt>
      <trkpt lat="45.59394" lon="5.89368">
        <ele>256</ele>
        <time>2021-09-10T07:54:10.666Z</time>
      </trkpt>
      <trkpt lat="45.59398" lon="5.89364">
        <ele>256</ele>
        <time>2021-09-10T07:54:11.666Z</time>
      </trkpt>
      <trkpt lat="45.59402" lon="5.8936">
        <ele>256</ele>
        <time>2021-09-10T07:54:12.665Z</time>
      </trkpt>
      <trkpt lat="45.59406" lon="5.89356">
        <ele>257</ele>
        <time>2021-09-10T07:54:13.665Z</time>
      </trkpt>
      <trkpt lat="45.5941" lon="5.89352">
        <ele>257</ele>
        <time>2021-09-10T07:54:14.666Z</time>
      </trkpt>
      <trkpt lat="45.59414" lon="5.89348">
        <ele>257</ele>
        <time>2021-09-10T07:54:15.666Z</time>
      </trkpt>
      <trkpt lat="45.59418" lon="5.89344">
        <ele>257</ele>
        <time>2021-09-10T07:54:16.666Z</time>
      </trkpt>
      <trkpt lat="45.59422" lon="5.8934">
        <ele>257</ele>
        <time>2021-09-10T07:54:17.665Z</time>
      </trkpt>
      <trkpt lat="45.59426" lon="5.89336">
        <ele>257</ele>
        <time>2021-09-10T07:54:18.666Z</time>
      </trkpt>
      <trkpt lat="45.5943" lon="5.89332">
        <ele>257</ele>
        <time>2021-09-10T07:54:19.666Z</time>
      </trkpt>
      <trkpt lat="45.59434" lon="5.89327">
        <ele>257</ele>
        <time>2021-09-10T07:54:20.665Z</time>
      </trkpt>
      <trkpt lat="45.59438" lon="5.89323">
        <ele>257</ele>
        <time>2021-09-10T07:54:21.666Z</time>
      </trkpt>
      <trkpt lat="45.59442" lon="5.89319">
        <ele>257</ele>
        <time>2021-09-10T07:54:22.666Z</time>
      </trkpt>
      <trkpt lat="45.59445" lon="5.89315">
        <ele>257</ele>
        <time>2021-09-10T07:54:23.666Z</time>
      </trkpt>
      <trkpt lat="45.5945" lon="5.89312">
        <ele>257</ele>
        <time>2021-09-10T07:54:24.666Z</time>
      </trkpt>
      <trkpt lat="45.59454" lon="5.89308">
        <ele>257</ele>
        <time>2021-09-10T07:54:25.665Z</time>
      </trkpt>
      <trkpt lat="45.59459" lon="5.89304">
        <ele>257</ele>
        <time>2021-09-10T07:54:26.666Z</time>
      </trkpt>
      <trkpt lat="45.59463" lon="5.893">
        <ele>257</ele>
        <time>2021-09-10T07:54:27.666Z</time>
      </trkpt>
      <trkpt lat="45.59468" lon="5.89297">
        <ele>256</ele>
        <time>2021-09-10T07:54:28.666Z</time>
      </trkpt>
      <trkpt lat="45.59472" lon="5.89295">
        <ele>256</ele>
        <time>2021-09-10T07:54:29.666Z</time>
      </trkpt>
      <trkpt lat="45.59476" lon="5.89293">
        <ele>256</ele>
        <time>2021-09-10T07:54:30.666Z</time>
      </trkpt>
      <trkpt lat="45.5948" lon="5.89289">
        <ele>255</ele>
        <time>2021-09-10T07:54:31.666Z</time>
      </trkpt>
      <trkpt lat="45.59484" lon="5.89287">
        <ele>255</ele>
        <time>2021-09-10T07:54:32.665Z</time>
      </trkpt>
      <trkpt lat="45.59487" lon="5.89285">
        <ele>255</ele>
        <time>2021-09-10T07:54:33.666Z</time>
      </trkpt>
      <trkpt lat="45.59491" lon="5.89282">
        <ele>255</ele>
        <time>2021-09-10T07:54:34.666Z</time>
      </trkpt>
      <trkpt lat="45.59496" lon="5.8928">
        <ele>255</ele>
        <time>2021-09-10T07:54:35.665Z</time>
      </trkpt>
      <trkpt lat="45.59501" lon="5.89277">
        <ele>255</ele>
        <time>2021-09-10T07:54:36.666Z</time>
      </trkpt>
      <trkpt lat="45.59506" lon="5.89275">
        <ele>255</ele>
        <time>2021-09-10T07:54:37.666Z</time>
      </trkpt>
      <trkpt lat="45.59511" lon="5.89273">
        <ele>255</ele>
        <time>2021-09-10T07:54:38.666Z</time>
      </trkpt>
      <trkpt lat="45.59516" lon="5.89271">
        <ele>255</ele>
        <time>2021-09-10T07:54:39.665Z</time>
      </trkpt>
      <trkpt lat="45.59521" lon="5.89269">
        <ele>255</ele>
        <time>2021-09-10T07:54:40.666Z</time>
      </trkpt>
      <trkpt lat="45.59526" lon="5.89268">
        <ele>255</ele>
        <time>2021-09-10T07:54:41.666Z</time>
      </trkpt>
      <trkpt lat="45.59532" lon="5.89267">
        <ele>255</ele>
        <time>2021-09-10T07:54:42.666Z</time>
      </trkpt>
      <trkpt lat="45.59537" lon="5.89266">
        <ele>255</ele>
        <time>2021-09-10T07:54:43.665Z</time>
      </trkpt>
      <trkpt lat="45.59542" lon="5.89264">
        <ele>255</ele>
        <time>2021-09-10T07:54:44.666Z</time>
      </trkpt>
      <trkpt lat="45.59547" lon="5.89263">
        <ele>255</ele>
        <time>2021-09-10T07:54:45.666Z</time>
      </trkpt>
      <trkpt lat="45.59552" lon="5.89263">
        <ele>254</ele>
        <time>2021-09-10T07:54:46.666Z</time>
      </trkpt>
      <trkpt lat="45.59557" lon="5.89261">
        <ele>254</ele>
        <time>2021-09-10T07:54:47.666Z</time>
      </trkpt>
      <trkpt lat="45.59561" lon="5.8926">
        <ele>254</ele>
        <time>2021-09-10T07:54:48.666Z</time>
      </trkpt>
      <trkpt lat="45.59566" lon="5.8926">
        <ele>254</ele>
        <time>2021-09-10T07:54:49.666Z</time>
      </trkpt>
      <trkpt lat="45.59571" lon="5.89259">
        <ele>254</ele>
        <time>2021-09-10T07:54:50.665Z</time>
      </trkpt>
      <trkpt lat="45.59576" lon="5.89258">
        <ele>255</ele>
        <time>2021-09-10T07:54:51.665Z</time>
      </trkpt>
      <trkpt lat="45.59581" lon="5.89256">
        <ele>254</ele>
        <time>2021-09-10T07:54:52.665Z</time>
      </trkpt>
      <trkpt lat="45.59585" lon="5.89255">
        <ele>254</ele>
        <time>2021-09-10T07:54:53.666Z</time>
      </trkpt>
      <trkpt lat="45.5959" lon="5.89254">
        <ele>255</ele>
        <time>2021-09-10T07:54:54.665Z</time>
      </trkpt>
      <trkpt lat="45.59594" lon="5.89253">
        <ele>255</ele>
        <time>2021-09-10T07:54:55.666Z</time>
      </trkpt>
      <trkpt lat="45.59599" lon="5.89253">
        <ele>255</ele>
        <time>2021-09-10T07:54:56.666Z</time>
      </trkpt>
      <trkpt lat="45.59604" lon="5.89253">
        <ele>256</ele>
        <time>2021-09-10T07:54:57.666Z</time>
      </trkpt>
      <trkpt lat="45.59609" lon="5.89252">
        <ele>256</ele>
        <time>2021-09-10T07:54:58.666Z</time>
      </trkpt>
      <trkpt lat="45.59614" lon="5.89251">
        <ele>256</ele>
        <time>2021-09-10T07:54:59.666Z</time>
      </trkpt>
      <trkpt lat="45.59618" lon="5.8925">
        <ele>256</ele>
        <time>2021-09-10T07:55:00.666Z</time>
      </trkpt>
      <trkpt lat="45.59623" lon="5.8925">
        <ele>256</ele>
        <time>2021-09-10T07:55:01.666Z</time>
      </trkpt>
      <trkpt lat="45.59627" lon="5.8925">
        <ele>256</ele>
        <time>2021-09-10T07:55:02.666Z</time>
      </trkpt>
      <trkpt lat="45.59632" lon="5.8925">
        <ele>256</ele>
        <time>2021-09-10T07:55:03.666Z</time>
      </trkpt>
      <trkpt lat="45.59638" lon="5.89249">
        <ele>256</ele>
        <time>2021-09-10T07:55:04.666Z</time>
      </trkpt>
      <trkpt lat="45.59644" lon="5.89248">
        <ele>256</ele>
        <time>2021-09-10T07:55:05.665Z</time>
      </trkpt>
      <trkpt lat="45.59649" lon="5.89248">
        <ele>256</ele>
        <time>2021-09-10T07:55:06.666Z</time>
      </trkpt>
      <trkpt lat="45.59653" lon="5.89248">
        <ele>256</ele>
        <time>2021-09-10T07:55:07.665Z</time>
      </trkpt>
      <trkpt lat="45.59658" lon="5.89245">
        <ele>255</ele>
        <time>2021-09-10T07:55:08.666Z</time>
      </trkpt>
      <trkpt lat="45.59663" lon="5.89244">
        <ele>255</ele>
        <time>2021-09-10T07:55:09.666Z</time>
      </trkpt>
      <trkpt lat="45.59669" lon="5.89242">
        <ele>254</ele>
        <time>2021-09-10T07:55:10.665Z</time>
      </trkpt>
      <trkpt lat="45.59674" lon="5.8924">
        <ele>254</ele>
        <time>2021-09-10T07:55:11.666Z</time>
      </trkpt>
      <trkpt lat="45.59679" lon="5.89239">
        <ele>254</ele>
        <time>2021-09-10T07:55:12.665Z</time>
      </trkpt>
      <trkpt lat="45.59684" lon="5.89237">
        <ele>254</ele>
        <time>2021-09-10T07:55:13.666Z</time>
      </trkpt>
      <trkpt lat="45.59688" lon="5.89236">
        <ele>253</ele>
        <time>2021-09-10T07:55:14.666Z</time>
      </trkpt>
      <trkpt lat="45.59693" lon="5.89234">
        <ele>253</ele>
        <time>2021-09-10T07:55:15.665Z</time>
      </trkpt>
      <trkpt lat="45.59698" lon="5.89232">
        <ele>253</ele>
        <time>2021-09-10T07:55:16.666Z</time>
      </trkpt>
      <trkpt lat="45.59702" lon="5.89229">
        <ele>254</ele>
        <time>2021-09-10T07:55:17.666Z</time>
      </trkpt>
      <trkpt lat="45.59707" lon="5.89226">
        <ele>254</ele>
        <time>2021-09-10T07:55:18.665Z</time>
      </trkpt>
      <trkpt lat="45.5971" lon="5.89222">
        <ele>254</ele>
        <time>2021-09-10T07:55:19.666Z</time>
      </trkpt>
      <trkpt lat="45.59712" lon="5.89216">
        <ele>254</ele>
        <time>2021-09-10T07:55:20.666Z</time>
      </trkpt>
      <trkpt lat="45.59713" lon="5.8921">
        <ele>254</ele>
        <time>2021-09-10T07:55:21.666Z</time>
      </trkpt>
      <trkpt lat="45.59714" lon="5.89203">
        <ele>254</ele>
        <time>2021-09-10T07:55:22.666Z</time>
      </trkpt>
      <trkpt lat="45.59714" lon="5.89195">
        <ele>254</ele>
        <time>2021-09-10T07:55:23.665Z</time>
      </trkpt>
      <trkpt lat="45.59714" lon="5.89188">
        <ele>254</ele>
        <time>2021-09-10T07:55:24.666Z</time>
      </trkpt>
      <trkpt lat="45.59714" lon="5.89181">
        <ele>254</ele>
        <time>2021-09-10T07:55:25.666Z</time>
      </trkpt>
      <trkpt lat="45.59714" lon="5.89174">
        <ele>254</ele>
        <time>2021-09-10T07:55:26.665Z</time>
      </trkpt>
      <trkpt lat="45.59714" lon="5.89166">
        <ele>255</ele>
        <time>2021-09-10T07:55:27.666Z</time>
      </trkpt>
      <trkpt lat="45.59716" lon="5.89159">
        <ele>255</ele>
        <time>2021-09-10T07:55:28.666Z</time>
      </trkpt>
      <trkpt lat="45.59719" lon="5.89153">
        <ele>255</ele>
        <time>2021-09-10T07:55:29.665Z</time>
      </trkpt>
      <trkpt lat="45.59723" lon="5.89149">
        <ele>254</ele>
        <time>2021-09-10T07:55:30.666Z</time>
      </trkpt>
      <trkpt lat="45.59728" lon="5.89146">
        <ele>254</ele>
        <time>2021-09-10T07:55:31.666Z</time>
      </trkpt>
      <trkpt lat="45.59732" lon="5.89144">
        <ele>254</ele>
        <time>2021-09-10T07:55:32.665Z</time>
      </trkpt>
      <trkpt lat="45.59737" lon="5.89141">
        <ele>254</ele>
        <time>2021-09-10T07:55:33.665Z</time>
      </trkpt>
      <trkpt lat="45.59741" lon="5.89139">
        <ele>254</ele>
        <time>2021-09-10T07:55:34.666Z</time>
      </trkpt>
      <trkpt lat="45.59746" lon="5.89137">
        <ele>254</ele>
        <time>2021-09-10T07:55:35.666Z</time>
      </trkpt>
      <trkpt lat="45.59749" lon="5.89135">
        <ele>254</ele>
        <time>2021-09-10T07:55:36.665Z</time>
      </trkpt>
      <trkpt lat="45.59753" lon="5.89133">
        <ele>254</ele>
        <time>2021-09-10T07:55:37.666Z</time>
      </trkpt>
      <trkpt lat="45.59756" lon="5.89132">
        <ele>254</ele>
        <time>2021-09-10T07:55:38.666Z</time>
      </trkpt>
      <trkpt lat="45.59759" lon="5.8913">
        <ele>254</ele>
        <time>2021-09-10T07:55:39.666Z</time>
      </trkpt>
      <trkpt lat="45.59763" lon="5.89129">
        <ele>254</ele>
        <time>2021-09-10T07:55:40.666Z</time>
      </trkpt>
      <trkpt lat="45.59767" lon="5.89127">
        <ele>254</ele>
        <time>2021-09-10T07:55:41.666Z</time>
      </trkpt>
      <trkpt lat="45.59771" lon="5.89126">
        <ele>254</ele>
        <time>2021-09-10T07:55:42.666Z</time>
      </trkpt>
      <trkpt lat="45.59774" lon="5.89124">
        <ele>254</ele>
        <time>2021-09-10T07:55:43.666Z</time>
      </trkpt>
      <trkpt lat="45.59778" lon="5.89122">
        <ele>254</ele>
        <time>2021-09-10T07:55:44.666Z</time>
      </trkpt>
      <trkpt lat="45.59782" lon="5.8912">
        <ele>254</ele>
        <time>2021-09-10T07:55:45.666Z</time>
      </trkpt>
      <trkpt lat="45.59785" lon="5.89119">
        <ele>254</ele>
        <time>2021-09-10T07:55:46.666Z</time>
      </trkpt>
      <trkpt lat="45.59789" lon="5.89117">
        <ele>254</ele>
        <time>2021-09-10T07:55:47.666Z</time>
      </trkpt>
      <trkpt lat="45.59793" lon="5.89115">
        <ele>254</ele>
        <time>2021-09-10T07:55:48.665Z</time>
      </trkpt>
      <trkpt lat="45.59796" lon="5.89113">
        <ele>254</ele>
        <time>2021-09-10T07:55:49.666Z</time>
      </trkpt>
      <trkpt lat="45.598" lon="5.89111">
        <ele>254</ele>
        <time>2021-09-10T07:55:50.665Z</time>
      </trkpt>
      <trkpt lat="45.59804" lon="5.8911">
        <ele>254</ele>
        <time>2021-09-10T07:55:51.666Z</time>
      </trkpt>
      <trkpt lat="45.59808" lon="5.89109">
        <ele>253</ele>
        <time>2021-09-10T07:55:52.666Z</time>
      </trkpt>
      <trkpt lat="45.59812" lon="5.89107">
        <ele>253</ele>
        <time>2021-09-10T07:55:53.666Z</time>
      </trkpt>
      <trkpt lat="45.59815" lon="5.89106">
        <ele>253</ele>
        <time>2021-09-10T07:55:54.666Z</time>
      </trkpt>
      <trkpt lat="45.59819" lon="5.89104">
        <ele>253</ele>
        <time>2021-09-10T07:55:55.666Z</time>
      </trkpt>
      <trkpt lat="45.59823" lon="5.89103">
        <ele>253</ele>
        <time>2021-09-10T07:55:56.666Z</time>
      </trkpt>
      <trkpt lat="45.59827" lon="5.89101">
        <ele>253</ele>
        <time>2021-09-10T07:55:57.666Z</time>
      </trkpt>
      <trkpt lat="45.59831" lon="5.89099">
        <ele>253</ele>
        <time>2021-09-10T07:55:58.666Z</time>
      </trkpt>
      <trkpt lat="45.59835" lon="5.89098">
        <ele>253</ele>
        <time>2021-09-10T07:55:59.666Z</time>
      </trkpt>
      <trkpt lat="45.59838" lon="5.89096">
        <ele>254</ele>
        <time>2021-09-10T07:56:00.666Z</time>
      </trkpt>
      <trkpt lat="45.59842" lon="5.89094">
        <ele>254</ele>
        <time>2021-09-10T07:56:01.666Z</time>
      </trkpt>
      <trkpt lat="45.59845" lon="5.89092">
        <ele>254</ele>
        <time>2021-09-10T07:56:02.666Z</time>
      </trkpt>
      <trkpt lat="45.59849" lon="5.8909">
        <ele>255</ele>
        <time>2021-09-10T07:56:03.666Z</time>
      </trkpt>
      <trkpt lat="45.59853" lon="5.89088">
        <ele>255</ele>
        <time>2021-09-10T07:56:04.666Z</time>
      </trkpt>
      <trkpt lat="45.59856" lon="5.89086">
        <ele>256</ele>
        <time>2021-09-10T07:56:05.666Z</time>
      </trkpt>
      <trkpt lat="45.59859" lon="5.89083">
        <ele>256</ele>
        <time>2021-09-10T07:56:06.666Z</time>
      </trkpt>
      <trkpt lat="45.59863" lon="5.89081">
        <ele>256</ele>
        <time>2021-09-10T07:56:07.666Z</time>
      </trkpt>
      <trkpt lat="45.59867" lon="5.89079">
        <ele>256</ele>
        <time>2021-09-10T07:56:08.666Z</time>
      </trkpt>
      <trkpt lat="45.59871" lon="5.89077">
        <ele>256</ele>
        <time>2021-09-10T07:56:09.665Z</time>
      </trkpt>
      <trkpt lat="45.59874" lon="5.89074">
        <ele>256</ele>
        <time>2021-09-10T07:56:10.666Z</time>
      </trkpt>
      <trkpt lat="45.59878" lon="5.89072">
        <ele>256</ele>
        <time>2021-09-10T07:56:11.666Z</time>
      </trkpt>
      <trkpt lat="45.59881" lon="5.89069">
        <ele>257</ele>
        <time>2021-09-10T07:56:12.666Z</time>
      </trkpt>
      <trkpt lat="45.59885" lon="5.89067">
        <ele>256</ele>
        <time>2021-09-10T07:56:13.665Z</time>
      </trkpt>
      <trkpt lat="45.59889" lon="5.89064">
        <ele>257</ele>
        <time>2021-09-10T07:56:14.665Z</time>
      </trkpt>
      <trkpt lat="45.59893" lon="5.89061">
        <ele>257</ele>
        <time>2021-09-10T07:56:15.666Z</time>
      </trkpt>
      <trkpt lat="45.59896" lon="5.89059">
        <ele>256</ele>
        <time>2021-09-10T07:56:16.665Z</time>
      </trkpt>
      <trkpt lat="45.599" lon="5.89056">
        <ele>256</ele>
        <time>2021-09-10T07:56:17.666Z</time>
      </trkpt>
      <trkpt lat="45.59903" lon="5.89054">
        <ele>256</ele>
        <time>2021-09-10T07:56:18.666Z</time>
      </trkpt>
      <trkpt lat="45.59907" lon="5.89052">
        <ele>256</ele>
        <time>2021-09-10T07:56:19.665Z</time>
      </trkpt>
      <trkpt lat="45.59911" lon="5.8905">
        <ele>255</ele>
        <time>2021-09-10T07:56:20.665Z</time>
      </trkpt>
      <trkpt lat="45.59915" lon="5.89047">
        <ele>255</ele>
        <time>2021-09-10T07:56:21.665Z</time>
      </trkpt>
      <trkpt lat="45.59918" lon="5.89045">
        <ele>254</ele>
        <time>2021-09-10T07:56:22.666Z</time>
      </trkpt>
      <trkpt lat="45.59922" lon="5.89042">
        <ele>254</ele>
        <time>2021-09-10T07:56:23.666Z</time>
      </trkpt>
      <trkpt lat="45.59925" lon="5.8904">
        <ele>253</ele>
        <time>2021-09-10T07:56:24.666Z</time>
      </trkpt>
      <trkpt lat="45.59929" lon="5.89037">
        <ele>253</ele>
        <time>2021-09-10T07:56:25.665Z</time>
      </trkpt>
      <trkpt lat="45.59933" lon="5.89035">
        <ele>253</ele>
        <time>2021-09-10T07:56:26.666Z</time>
      </trkpt>
      <trkpt lat="45.59937" lon="5.89032">
        <ele>254</ele>
        <time>2021-09-10T07:56:27.666Z</time>
      </trkpt>
      <trkpt lat="45.5994" lon="5.8903">
        <ele>254</ele>
        <time>2021-09-10T07:56:28.666Z</time>
      </trkpt>
      <trkpt lat="45.59944" lon="5.89028">
        <ele>254</ele>
        <time>2021-09-10T07:56:29.665Z</time>
      </trkpt>
      <trkpt lat="45.59947" lon="5.89025">
        <ele>255</ele>
        <time>2021-09-10T07:56:30.665Z</time>
      </trkpt>
      <trkpt lat="45.5995" lon="5.89022">
        <ele>255</ele>
        <time>2021-09-10T07:56:31.666Z</time>
      </trkpt>
      <trkpt lat="45.59952" lon="5.89018">
        <ele>255</ele>
        <time>2021-09-10T07:56:32.666Z</time>
      </trkpt>
      <trkpt lat="45.59954" lon="5.89014">
        <ele>255</ele>
        <time>2021-09-10T07:56:33.666Z</time>
      </trkpt>
      <trkpt lat="45.59955" lon="5.89009">
        <ele>255</ele>
        <time>2021-09-10T07:56:34.666Z</time>
      </trkpt>
      <trkpt lat="45.59956" lon="5.89004">
        <ele>256</ele>
        <time>2021-09-10T07:56:35.665Z</time>
      </trkpt>
      <trkpt lat="45.59956" lon="5.89">
        <ele>255</ele>
        <time>2021-09-10T07:56:36.666Z</time>
      </trkpt>
      <trkpt lat="45.59956" lon="5.88995">
        <ele>256</ele>
        <time>2021-09-10T07:56:37.666Z</time>
      </trkpt>
      <trkpt lat="45.59955" lon="5.8899">
        <ele>256</ele>
        <time>2021-09-10T07:56:38.665Z</time>
      </trkpt>
      <trkpt lat="45.59953" lon="5.88985">
        <ele>256</ele>
        <time>2021-09-10T07:56:39.666Z</time>
      </trkpt>
      <trkpt lat="45.59952" lon="5.88981">
        <ele>256</ele>
        <time>2021-09-10T07:56:40.666Z</time>
      </trkpt>
      <trkpt lat="45.5995" lon="5.88976">
        <ele>255</ele>
        <time>2021-09-10T07:56:41.666Z</time>
      </trkpt>
      <trkpt lat="45.59948" lon="5.88971">
        <ele>255</ele>
        <time>2021-09-10T07:56:42.665Z</time>
      </trkpt>
      <trkpt lat="45.59946" lon="5.88966">
        <ele>255</ele>
        <time>2021-09-10T07:56:43.666Z</time>
      </trkpt>
      <trkpt lat="45.59944" lon="5.8896">
        <ele>256</ele>
        <time>2021-09-10T07:56:44.666Z</time>
      </trkpt>
      <trkpt lat="45.59941" lon="5.88954">
        <ele>256</ele>
        <time>2021-09-10T07:56:45.665Z</time>
      </trkpt>
      <trkpt lat="45.59938" lon="5.88948">
        <ele>256</ele>
        <time>2021-09-10T07:56:46.666Z</time>
      </trkpt>
      <trkpt lat="45.59936" lon="5.88941">
        <ele>256</ele>
        <time>2021-09-10T07:56:47.665Z</time>
      </trkpt>
      <trkpt lat="45.59934" lon="5.88934">
        <ele>255</ele>
        <time>2021-09-10T07:56:48.666Z</time>
      </trkpt>
      <trkpt lat="45.59931" lon="5.88927">
        <ele>255</ele>
        <time>2021-09-10T07:56:49.666Z</time>
      </trkpt>
      <trkpt lat="45.59928" lon="5.8892">
        <ele>255</ele>
        <time>2021-09-10T07:56:50.666Z</time>
      </trkpt>
      <trkpt lat="45.59925" lon="5.88912">
        <ele>255</ele>
        <time>2021-09-10T07:56:51.665Z</time>
      </trkpt>
      <trkpt lat="45.59921" lon="5.88904">
        <ele>256</ele>
        <time>2021-09-10T07:56:52.666Z</time>
      </trkpt>
      <trkpt lat="45.59917" lon="5.88895">
        <ele>256</ele>
        <time>2021-09-10T07:56:53.665Z</time>
      </trkpt>
      <trkpt lat="45.59913" lon="5.88886">
        <ele>256</ele>
        <time>2021-09-10T07:56:54.665Z</time>
      </trkpt>
      <trkpt lat="45.59909" lon="5.88878">
        <ele>256</ele>
        <time>2021-09-10T07:56:55.665Z</time>
      </trkpt>
      <trkpt lat="45.59906" lon="5.88869">
        <ele>256</ele>
        <time>2021-09-10T07:56:56.666Z</time>
      </trkpt>
      <trkpt lat="45.59902" lon="5.88861">
        <ele>256</ele>
        <time>2021-09-10T07:56:57.665Z</time>
      </trkpt>
      <trkpt lat="45.59899" lon="5.88853">
        <ele>256</ele>
        <time>2021-09-10T07:56:58.665Z</time>
      </trkpt>
      <trkpt lat="45.59896" lon="5.88846">
        <ele>255</ele>
        <time>2021-09-10T07:56:59.666Z</time>
      </trkpt>
      <trkpt lat="45.59894" lon="5.88839">
        <ele>255</ele>
        <time>2021-09-10T07:57:00.666Z</time>
      </trkpt>
      <trkpt lat="45.59891" lon="5.88832">
        <ele>254</ele>
        <time>2021-09-10T07:57:01.666Z</time>
      </trkpt>
      <trkpt lat="45.59889" lon="5.88824">
        <ele>254</ele>
        <time>2021-09-10T07:57:02.665Z</time>
      </trkpt>
      <trkpt lat="45.59888" lon="5.88816">
        <ele>254</ele>
        <time>2021-09-10T07:57:03.666Z</time>
      </trkpt>
      <trkpt lat="45.59888" lon="5.88808">
        <ele>254</ele>
        <time>2021-09-10T07:57:04.665Z</time>
      </trkpt>
      <trkpt lat="45.59887" lon="5.888">
        <ele>254</ele>
        <time>2021-09-10T07:57:05.665Z</time>
      </trkpt>
      <trkpt lat="45.59886" lon="5.88792">
        <ele>254</ele>
        <time>2021-09-10T07:57:06.665Z</time>
      </trkpt>
      <trkpt lat="45.59884" lon="5.88784">
        <ele>254</ele>
        <time>2021-09-10T07:57:07.665Z</time>
      </trkpt>
      <trkpt lat="45.59883" lon="5.88777">
        <ele>255</ele>
        <time>2021-09-10T07:57:08.665Z</time>
      </trkpt>
      <trkpt lat="45.59882" lon="5.8877">
        <ele>255</ele>
        <time>2021-09-10T07:57:09.665Z</time>
      </trkpt>
      <trkpt lat="45.5988" lon="5.88762">
        <ele>255</ele>
        <time>2021-09-10T07:57:10.665Z</time>
      </trkpt>
      <trkpt lat="45.59879" lon="5.88755">
        <ele>255</ele>
        <time>2021-09-10T07:57:11.666Z</time>
      </trkpt>
      <trkpt lat="45.59877" lon="5.88748">
        <ele>256</ele>
        <time>2021-09-10T07:57:12.666Z</time>
      </trkpt>
      <trkpt lat="45.59876" lon="5.88741">
        <ele>256</ele>
        <time>2021-09-10T07:57:13.666Z</time>
      </trkpt>
      <trkpt lat="45.59874" lon="5.88734">
        <ele>256</ele>
        <time>2021-09-10T07:57:14.665Z</time>
      </trkpt>
      <trkpt lat="45.59873" lon="5.88727">
        <ele>256</ele>
        <time>2021-09-10T07:57:15.665Z</time>
      </trkpt>
      <trkpt lat="45.59872" lon="5.88721">
        <ele>256</ele>
        <time>2021-09-10T07:57:16.666Z</time>
      </trkpt>
      <trkpt lat="45.59871" lon="5.88714">
        <ele>256</ele>
        <time>2021-09-10T07:57:17.666Z</time>
      </trkpt>
      <trkpt lat="45.59871" lon="5.88707">
        <ele>256</ele>
        <time>2021-09-10T07:57:18.666Z</time>
      </trkpt>
      <trkpt lat="45.59872" lon="5.88701">
        <ele>255</ele>
        <time>2021-09-10T07:57:19.666Z</time>
      </trkpt>
      <trkpt lat="45.59874" lon="5.88696">
        <ele>255</ele>
        <time>2021-09-10T07:57:20.666Z</time>
      </trkpt>
      <trkpt lat="45.59878" lon="5.88691">
        <ele>255</ele>
        <time>2021-09-10T07:57:21.666Z</time>
      </trkpt>
      <trkpt lat="45.59882" lon="5.88687">
        <ele>255</ele>
        <time>2021-09-10T07:57:22.666Z</time>
      </trkpt>
      <trkpt lat="45.59886" lon="5.88685">
        <ele>254</ele>
        <time>2021-09-10T07:57:23.665Z</time>
      </trkpt>
      <trkpt lat="45.5989" lon="5.88683">
        <ele>254</ele>
        <time>2021-09-10T07:57:24.666Z</time>
      </trkpt>
      <trkpt lat="45.59894" lon="5.88681">
        <ele>253</ele>
        <time>2021-09-10T07:57:25.666Z</time>
      </trkpt>
      <trkpt lat="45.59899" lon="5.88679">
        <ele>253</ele>
        <time>2021-09-10T07:57:26.666Z</time>
      </trkpt>
      <trkpt lat="45.59903" lon="5.88678">
        <ele>253</ele>
        <time>2021-09-10T07:57:27.666Z</time>
      </trkpt>
      <trkpt lat="45.59908" lon="5.88676">
        <ele>253</ele>
        <time>2021-09-10T07:57:28.665Z</time>
      </trkpt>
      <trkpt lat="45.59913" lon="5.88675">
        <ele>253</ele>
        <time>2021-09-10T07:57:29.666Z</time>
      </trkpt>
      <trkpt lat="45.59918" lon="5.88673">
        <ele>253</ele>
        <time>2021-09-10T07:57:30.666Z</time>
      </trkpt>
      <trkpt lat="45.59922" lon="5.88672">
        <ele>253</ele>
        <time>2021-09-10T07:57:31.666Z</time>
      </trkpt>
      <trkpt lat="45.59927" lon="5.8867">
        <ele>253</ele>
        <time>2021-09-10T07:57:32.666Z</time>
      </trkpt>
      <trkpt lat="45.59932" lon="5.88669">
        <ele>253</ele>
        <time>2021-09-10T07:57:33.666Z</time>
      </trkpt>
      <trkpt lat="45.59936" lon="5.88668">
        <ele>253</ele>
        <time>2021-09-10T07:57:34.666Z</time>
      </trkpt>
      <trkpt lat="45.59941" lon="5.88667">
        <ele>252</ele>
        <time>2021-09-10T07:57:35.666Z</time>
      </trkpt>
      <trkpt lat="45.59946" lon="5.88665">
        <ele>252</ele>
        <time>2021-09-10T07:57:36.666Z</time>
      </trkpt>
      <trkpt lat="45.5995" lon="5.88664">
        <ele>252</ele>
        <time>2021-09-10T07:57:37.666Z</time>
      </trkpt>
      <trkpt lat="45.59955" lon="5.88663">
        <ele>252</ele>
        <time>2021-09-10T07:57:38.665Z</time>
      </trkpt>
      <trkpt lat="45.59959" lon="5.88661">
        <ele>252</ele>
        <time>2021-09-10T07:57:39.666Z</time>
      </trkpt>
      <trkpt lat="45.59963" lon="5.8866">
        <ele>253</ele>
        <time>2021-09-10T07:57:40.665Z</time>
      </trkpt>
      <trkpt lat="45.59968" lon="5.88659">
        <ele>253</ele>
        <time>2021-09-10T07:57:41.666Z</time>
      </trkpt>
      <trkpt lat="45.59972" lon="5.88658">
        <ele>253</ele>
        <time>2021-09-10T07:57:42.666Z</time>
      </trkpt>
      <trkpt lat="45.59976" lon="5.88656">
        <ele>253</ele>
        <time>2021-09-10T07:57:43.665Z</time>
      </trkpt>
      <trkpt lat="45.5998" lon="5.88655">
        <ele>253</ele>
        <time>2021-09-10T07:57:44.665Z</time>
      </trkpt>
      <trkpt lat="45.59984" lon="5.88654">
        <ele>253</ele>
        <time>2021-09-10T07:57:45.666Z</time>
      </trkpt>
      <trkpt lat="45.59989" lon="5.88653">
        <ele>253</ele>
        <time>2021-09-10T07:57:46.666Z</time>
      </trkpt>
      <trkpt lat="45.59993" lon="5.88651">
        <ele>253</ele>
        <time>2021-09-10T07:57:47.666Z</time>
      </trkpt>
      <trkpt lat="45.59997" lon="5.8865">
        <ele>253</ele>
        <time>2021-09-10T07:57:48.666Z</time>
      </trkpt>
      <trkpt lat="45.60002" lon="5.88648">
        <ele>253</ele>
        <time>2021-09-10T07:57:49.665Z</time>
      </trkpt>
      <trkpt lat="45.60006" lon="5.88647">
        <ele>253</ele>
        <time>2021-09-10T07:57:50.665Z</time>
      </trkpt>
      <trkpt lat="45.6001" lon="5.88646">
        <ele>253</ele>
        <time>2021-09-10T07:57:51.666Z</time>
      </trkpt>
      <trkpt lat="45.60014" lon="5.88645">
        <ele>253</ele>
        <time>2021-09-10T07:57:52.666Z</time>
      </trkpt>
      <trkpt lat="45.60019" lon="5.88643">
        <ele>253</ele>
        <time>2021-09-10T07:57:53.666Z</time>
      </trkpt>
      <trkpt lat="45.60023" lon="5.88642">
        <ele>253</ele>
        <time>2021-09-10T07:57:54.665Z</time>
      </trkpt>
      <trkpt lat="45.60027" lon="5.88639">
        <ele>253</ele>
        <time>2021-09-10T07:57:55.665Z</time>
      </trkpt>
      <trkpt lat="45.60031" lon="5.88637">
        <ele>253</ele>
        <time>2021-09-10T07:57:56.666Z</time>
      </trkpt>
      <trkpt lat="45.60035" lon="5.88635">
        <ele>253</ele>
        <time>2021-09-10T07:57:57.666Z</time>
      </trkpt>
      <trkpt lat="45.60038" lon="5.88632">
        <ele>253</ele>
        <time>2021-09-10T07:57:58.666Z</time>
      </trkpt>
      <trkpt lat="45.60042" lon="5.88629">
        <ele>252</ele>
        <time>2021-09-10T07:57:59.665Z</time>
      </trkpt>
      <trkpt lat="45.60046" lon="5.88626">
        <ele>252</ele>
        <time>2021-09-10T07:58:00.665Z</time>
      </trkpt>
      <trkpt lat="45.60049" lon="5.88622">
        <ele>252</ele>
        <time>2021-09-10T07:58:01.666Z</time>
      </trkpt>
      <trkpt lat="45.60053" lon="5.88618">
        <ele>253</ele>
        <time>2021-09-10T07:58:02.666Z</time>
      </trkpt>
      <trkpt lat="45.60056" lon="5.88615">
        <ele>253</ele>
        <time>2021-09-10T07:58:03.666Z</time>
      </trkpt>
      <trkpt lat="45.60059" lon="5.8861">
        <ele>253</ele>
        <time>2021-09-10T07:58:04.666Z</time>
      </trkpt>
      <trkpt lat="45.60062" lon="5.88606">
        <ele>254</ele>
        <time>2021-09-10T07:58:05.665Z</time>
      </trkpt>
      <trkpt lat="45.60065" lon="5.88601">
        <ele>254</ele>
        <time>2021-09-10T07:58:06.666Z</time>
      </trkpt>
      <trkpt lat="45.60067" lon="5.88597">
        <ele>255</ele>
        <time>2021-09-10T07:58:07.665Z</time>
      </trkpt>
      <trkpt lat="45.6007" lon="5.88592">
        <ele>255</ele>
        <time>2021-09-10T07:58:08.666Z</time>
      </trkpt>
      <trkpt lat="45.60072" lon="5.88588">
        <ele>255</ele>
        <time>2021-09-10T07:58:09.665Z</time>
      </trkpt>
      <trkpt lat="45.60075" lon="5.88583">
        <ele>255</ele>
        <time>2021-09-10T07:58:10.665Z</time>
      </trkpt>
      <trkpt lat="45.60078" lon="5.88579">
        <ele>255</ele>
        <time>2021-09-10T07:58:11.666Z</time>
      </trkpt>
      <trkpt lat="45.60081" lon="5.88574">
        <ele>255</ele>
        <time>2021-09-10T07:58:12.666Z</time>
      </trkpt>
      <trkpt lat="45.60084" lon="5.8857">
        <ele>255</ele>
        <time>2021-09-10T07:58:13.665Z</time>
      </trkpt>
      <trkpt lat="45.60087" lon="5.88565">
        <ele>255</ele>
        <time>2021-09-10T07:58:14.665Z</time>
      </trkpt>
      <trkpt lat="45.6009" lon="5.8856">
        <ele>254</ele>
        <time>2021-09-10T07:58:15.665Z</time>
      </trkpt>
      <trkpt lat="45.60093" lon="5.88555">
        <ele>254</ele>
        <time>2021-09-10T07:58:16.665Z</time>
      </trkpt>
      <trkpt lat="45.60096" lon="5.88551">
        <ele>254</ele>
        <time>2021-09-10T07:58:17.666Z</time>
      </trkpt>
      <trkpt lat="45.60099" lon="5.88546">
        <ele>255</ele>
        <time>2021-09-10T07:58:18.665Z</time>
      </trkpt>
      <trkpt lat="45.60102" lon="5.88541">
        <ele>255</ele>
        <time>2021-09-10T07:58:19.665Z</time>
      </trkpt>
      <trkpt lat="45.60105" lon="5.88537">
        <ele>255</ele>
        <time>2021-09-10T07:58:20.665Z</time>
      </trkpt>
      <trkpt lat="45.60108" lon="5.88532">
        <ele>254</ele>
        <time>2021-09-10T07:58:21.665Z</time>
      </trkpt>
      <trkpt lat="45.60111" lon="5.88527">
        <ele>254</ele>
        <time>2021-09-10T07:58:22.666Z</time>
      </trkpt>
      <trkpt lat="45.60114" lon="5.88522">
        <ele>254</ele>
        <time>2021-09-10T07:58:23.665Z</time>
      </trkpt>
      <trkpt lat="45.60118" lon="5.88518">
        <ele>254</ele>
        <time>2021-09-10T07:58:24.665Z</time>
      </trkpt>
      <trkpt lat="45.60121" lon="5.88513">
        <ele>254</ele>
        <time>2021-09-10T07:58:25.665Z</time>
      </trkpt>
      <trkpt lat="45.60124" lon="5.88508">
        <ele>254</ele>
        <time>2021-09-10T07:58:26.666Z</time>
      </trkpt>
      <trkpt lat="45.60128" lon="5.88503">
        <ele>254</ele>
        <time>2021-09-10T07:58:27.665Z</time>
      </trkpt>
      <trkpt lat="45.60131" lon="5.88498">
        <ele>253</ele>
        <time>2021-09-10T07:58:28.665Z</time>
      </trkpt>
      <trkpt lat="45.60135" lon="5.88493">
        <ele>253</ele>
        <time>2021-09-10T07:58:29.665Z</time>
      </trkpt>
      <trkpt lat="45.60138" lon="5.88487">
        <ele>253</ele>
        <time>2021-09-10T07:58:30.665Z</time>
      </trkpt>
      <trkpt lat="45.60142" lon="5.88482">
        <ele>252</ele>
        <time>2021-09-10T07:58:31.665Z</time>
      </trkpt>
      <trkpt lat="45.60145" lon="5.88477">
        <ele>252</ele>
        <time>2021-09-10T07:58:32.665Z</time>
      </trkpt>
      <trkpt lat="45.60149" lon="5.88471">
        <ele>252</ele>
        <time>2021-09-10T07:58:33.665Z</time>
      </trkpt>
      <trkpt lat="45.60152" lon="5.88466">
        <ele>252</ele>
        <time>2021-09-10T07:58:34.665Z</time>
      </trkpt>
      <trkpt lat="45.60155" lon="5.8846">
        <ele>252</ele>
        <time>2021-09-10T07:58:35.665Z</time>
      </trkpt>
      <trkpt lat="45.60158" lon="5.88453">
        <ele>252</ele>
        <time>2021-09-10T07:58:36.665Z</time>
      </trkpt>
      <trkpt lat="45.60161" lon="5.88447">
        <ele>253</ele>
        <time>2021-09-10T07:58:37.665Z</time>
      </trkpt>
      <trkpt lat="45.60164" lon="5.8844">
        <ele>253</ele>
        <time>2021-09-10T07:58:38.665Z</time>
      </trkpt>
      <trkpt lat="45.60166" lon="5.88433">
        <ele>253</ele>
        <time>2021-09-10T07:58:39.665Z</time>
      </trkpt>
      <trkpt lat="45.60168" lon="5.88426">
        <ele>253</ele>
        <time>2021-09-10T07:58:40.666Z</time>
      </trkpt>
      <trkpt lat="45.60169" lon="5.88418">
        <ele>254</ele>
        <time>2021-09-10T07:58:41.666Z</time>
      </trkpt>
      <trkpt lat="45.6017" lon="5.88411">
        <ele>254</ele>
        <time>2021-09-10T07:58:42.665Z</time>
      </trkpt>
      <trkpt lat="45.60171" lon="5.88403">
        <ele>255</ele>
        <time>2021-09-10T07:58:43.666Z</time>
      </trkpt>
      <trkpt lat="45.60172" lon="5.88395">
        <ele>255</ele>
        <time>2021-09-10T07:58:44.665Z</time>
      </trkpt>
      <trkpt lat="45.60172" lon="5.88387">
        <ele>256</ele>
        <time>2021-09-10T07:58:45.666Z</time>
      </trkpt>
      <trkpt lat="45.60173" lon="5.88379">
        <ele>256</ele>
        <time>2021-09-10T07:58:46.666Z</time>
      </trkpt>
      <trkpt lat="45.60173" lon="5.88372">
        <ele>256</ele>
        <time>2021-09-10T07:58:47.665Z</time>
      </trkpt>
      <trkpt lat="45.60174" lon="5.88364">
        <ele>257</ele>
        <time>2021-09-10T07:58:48.666Z</time>
      </trkpt>
      <trkpt lat="45.60175" lon="5.88356">
        <ele>256</ele>
        <time>2021-09-10T07:58:49.665Z</time>
      </trkpt>
      <trkpt lat="45.60176" lon="5.88349">
        <ele>256</ele>
        <time>2021-09-10T07:58:50.666Z</time>
      </trkpt>
      <trkpt lat="45.60176" lon="5.88341">
        <ele>256</ele>
        <time>2021-09-10T07:58:51.665Z</time>
      </trkpt>
      <trkpt lat="45.60177" lon="5.88333">
        <ele>256</ele>
        <time>2021-09-10T07:58:52.666Z</time>
      </trkpt>
      <trkpt lat="45.60178" lon="5.88325">
        <ele>256</ele>
        <time>2021-09-10T07:58:53.666Z</time>
      </trkpt>
      <trkpt lat="45.60179" lon="5.88317">
        <ele>256</ele>
        <time>2021-09-10T07:58:54.665Z</time>
      </trkpt>
      <trkpt lat="45.6018" lon="5.88309">
        <ele>256</ele>
        <time>2021-09-10T07:58:55.666Z</time>
      </trkpt>
      <trkpt lat="45.6018" lon="5.88301">
        <ele>256</ele>
        <time>2021-09-10T07:58:56.666Z</time>
      </trkpt>
      <trkpt lat="45.60181" lon="5.88293">
        <ele>256</ele>
        <time>2021-09-10T07:58:57.665Z</time>
      </trkpt>
      <trkpt lat="45.60182" lon="5.88286">
        <ele>256</ele>
        <time>2021-09-10T07:58:58.665Z</time>
      </trkpt>
      <trkpt lat="45.60183" lon="5.88278">
        <ele>255</ele>
        <time>2021-09-10T07:58:59.665Z</time>
      </trkpt>
      <trkpt lat="45.60184" lon="5.88271">
        <ele>255</ele>
        <time>2021-09-10T07:59:00.666Z</time>
      </trkpt>
      <trkpt lat="45.60185" lon="5.88263">
        <ele>256</ele>
        <time>2021-09-10T07:59:01.666Z</time>
      </trkpt>
      <trkpt lat="45.60185" lon="5.88255">
        <ele>256</ele>
        <time>2021-09-10T07:59:02.666Z</time>
      </trkpt>
      <trkpt lat="45.60187" lon="5.88248">
        <ele>255</ele>
        <time>2021-09-10T07:59:03.666Z</time>
      </trkpt>
      <trkpt lat="45.60188" lon="5.88241">
        <ele>255</ele>
        <time>2021-09-10T07:59:04.666Z</time>
      </trkpt>
      <trkpt lat="45.6019" lon="5.88234">
        <ele>255</ele>
        <time>2021-09-10T07:59:05.666Z</time>
      </trkpt>
      <trkpt lat="45.60193" lon="5.88229">
        <ele>254</ele>
        <time>2021-09-10T07:59:06.666Z</time>
      </trkpt>
      <trkpt lat="45.60197" lon="5.88221">
        <ele>254</ele>
        <time>2021-09-10T07:59:07.666Z</time>
      </trkpt>
      <trkpt lat="45.602" lon="5.88216">
        <ele>253</ele>
        <time>2021-09-10T07:59:08.665Z</time>
      </trkpt>
      <trkpt lat="45.60204" lon="5.88211">
        <ele>253</ele>
        <time>2021-09-10T07:59:09.666Z</time>
      </trkpt>
      <trkpt lat="45.60208" lon="5.88206">
        <ele>253</ele>
        <time>2021-09-10T07:59:10.666Z</time>
      </trkpt>
      <trkpt lat="45.60213" lon="5.88202">
        <ele>252</ele>
        <time>2021-09-10T07:59:11.666Z</time>
      </trkpt>
      <trkpt lat="45.60218" lon="5.88198">
        <ele>252</ele>
        <time>2021-09-10T07:59:12.665Z</time>
      </trkpt>
      <trkpt lat="45.60222" lon="5.88193">
        <ele>251</ele>
        <time>2021-09-10T07:59:13.665Z</time>
      </trkpt>
      <trkpt lat="45.60226" lon="5.88188">
        <ele>251</ele>
        <time>2021-09-10T07:59:14.666Z</time>
      </trkpt>
      <trkpt lat="45.6023" lon="5.88184">
        <ele>250</ele>
        <time>2021-09-10T07:59:15.666Z</time>
      </trkpt>
      <trkpt lat="45.60235" lon="5.88179">
        <ele>250</ele>
        <time>2021-09-10T07:59:16.666Z</time>
      </trkpt>
      <trkpt lat="45.60239" lon="5.88175">
        <ele>250</ele>
        <time>2021-09-10T07:59:17.665Z</time>
      </trkpt>
      <trkpt lat="45.60243" lon="5.88171">
        <ele>249</ele>
        <time>2021-09-10T07:59:18.666Z</time>
      </trkpt>
      <trkpt lat="45.60248" lon="5.88166">
        <ele>249</ele>
        <time>2021-09-10T07:59:19.666Z</time>
      </trkpt>
      <trkpt lat="45.60251" lon="5.88162">
        <ele>249</ele>
        <time>2021-09-10T07:59:20.666Z</time>
      </trkpt>
      <trkpt lat="45.60257" lon="5.88157">
        <ele>249</ele>
        <time>2021-09-10T07:59:21.666Z</time>
      </trkpt>
      <trkpt lat="45.60261" lon="5.88152">
        <ele>249</ele>
        <time>2021-09-10T07:59:22.666Z</time>
      </trkpt>
      <trkpt lat="45.60265" lon="5.88146">
        <ele>248</ele>
        <time>2021-09-10T07:59:23.666Z</time>
      </trkpt>
      <trkpt lat="45.60268" lon="5.88141">
        <ele>248</ele>
        <time>2021-09-10T07:59:24.666Z</time>
      </trkpt>
      <trkpt lat="45.60271" lon="5.88135">
        <ele>248</ele>
        <time>2021-09-10T07:59:25.666Z</time>
      </trkpt>
      <trkpt lat="45.60275" lon="5.88128">
        <ele>248</ele>
        <time>2021-09-10T07:59:26.665Z</time>
      </trkpt>
      <trkpt lat="45.60277" lon="5.88121">
        <ele>248</ele>
        <time>2021-09-10T07:59:27.666Z</time>
      </trkpt>
      <trkpt lat="45.60279" lon="5.88114">
        <ele>248</ele>
        <time>2021-09-10T07:59:28.666Z</time>
      </trkpt>
      <trkpt lat="45.6028" lon="5.88107">
        <ele>249</ele>
        <time>2021-09-10T07:59:29.666Z</time>
      </trkpt>
      <trkpt lat="45.60281" lon="5.881">
        <ele>249</ele>
        <time>2021-09-10T07:59:30.666Z</time>
      </trkpt>
      <trkpt lat="45.60281" lon="5.88093">
        <ele>250</ele>
        <time>2021-09-10T07:59:31.666Z</time>
      </trkpt>
      <trkpt lat="45.60281" lon="5.88086">
        <ele>251</ele>
        <time>2021-09-10T07:59:32.666Z</time>
      </trkpt>
      <trkpt lat="45.60281" lon="5.88079">
        <ele>252</ele>
        <time>2021-09-10T07:59:33.665Z</time>
      </trkpt>
      <trkpt lat="45.6028" lon="5.88071">
        <ele>252</ele>
        <time>2021-09-10T07:59:34.666Z</time>
      </trkpt>
      <trkpt lat="45.60279" lon="5.88065">
        <ele>253</ele>
        <time>2021-09-10T07:59:35.666Z</time>
      </trkpt>
      <trkpt lat="45.60279" lon="5.88058">
        <ele>254</ele>
        <time>2021-09-10T07:59:36.666Z</time>
      </trkpt>
      <trkpt lat="45.60278" lon="5.88051">
        <ele>255</ele>
        <time>2021-09-10T07:59:37.666Z</time>
      </trkpt>
      <trkpt lat="45.60277" lon="5.88045">
        <ele>256</ele>
        <time>2021-09-10T07:59:38.666Z</time>
      </trkpt>
      <trkpt lat="45.60276" lon="5.88038">
        <ele>257</ele>
        <time>2021-09-10T07:59:39.665Z</time>
      </trkpt>
      <trkpt lat="45.60275" lon="5.88031">
        <ele>257</ele>
        <time>2021-09-10T07:59:40.666Z</time>
      </trkpt>
      <trkpt lat="45.60274" lon="5.88024">
        <ele>258</ele>
        <time>2021-09-10T07:59:41.666Z</time>
      </trkpt>
      <trkpt lat="45.60273" lon="5.88018">
        <ele>258</ele>
        <time>2021-09-10T07:59:42.666Z</time>
      </trkpt>
      <trkpt lat="45.60272" lon="5.88011">
        <ele>258</ele>
        <time>2021-09-10T07:59:43.666Z</time>
      </trkpt>
      <trkpt lat="45.60271" lon="5.88005">
        <ele>258</ele>
        <time>2021-09-10T07:59:44.666Z</time>
      </trkpt>
      <trkpt lat="45.6027" lon="5.87999">
        <ele>257</ele>
        <time>2021-09-10T07:59:45.666Z</time>
      </trkpt>
      <trkpt lat="45.60269" lon="5.87993">
        <ele>257</ele>
        <time>2021-09-10T07:59:46.666Z</time>
      </trkpt>
      <trkpt lat="45.60267" lon="5.87986">
        <ele>257</ele>
        <time>2021-09-10T07:59:47.665Z</time>
      </trkpt>
      <trkpt lat="45.60266" lon="5.8798">
        <ele>257</ele>
        <time>2021-09-10T07:59:48.665Z</time>
      </trkpt>
      <trkpt lat="45.60265" lon="5.87972">
        <ele>257</ele>
        <time>2021-09-10T07:59:49.665Z</time>
      </trkpt>
      <trkpt lat="45.60264" lon="5.87965">
        <ele>257</ele>
        <time>2021-09-10T07:59:50.665Z</time>
      </trkpt>
      <trkpt lat="45.60263" lon="5.87959">
        <ele>257</ele>
        <time>2021-09-10T07:59:51.666Z</time>
      </trkpt>
      <trkpt lat="45.60263" lon="5.87952">
        <ele>257</ele>
        <time>2021-09-10T07:59:52.666Z</time>
      </trkpt>
      <trkpt lat="45.60262" lon="5.87945">
        <ele>257</ele>
        <time>2021-09-10T07:59:53.666Z</time>
      </trkpt>
      <trkpt lat="45.60261" lon="5.87939">
        <ele>258</ele>
        <time>2021-09-10T07:59:54.666Z</time>
      </trkpt>
      <trkpt lat="45.6026" lon="5.87933">
        <ele>258</ele>
        <time>2021-09-10T07:59:55.665Z</time>
      </trkpt>
      <trkpt lat="45.60259" lon="5.87926">
        <ele>258</ele>
        <time>2021-09-10T07:59:56.665Z</time>
      </trkpt>
      <trkpt lat="45.60258" lon="5.8792">
        <ele>259</ele>
        <time>2021-09-10T07:59:57.666Z</time>
      </trkpt>
      <trkpt lat="45.60257" lon="5.87914">
        <ele>259</ele>
        <time>2021-09-10T07:59:58.666Z</time>
      </trkpt>
      <trkpt lat="45.60256" lon="5.87906">
        <ele>260</ele>
        <time>2021-09-10T07:59:59.666Z</time>
      </trkpt>
      <trkpt lat="45.60255" lon="5.87899">
        <ele>260</ele>
        <time>2021-09-10T08:00:00.665Z</time>
      </trkpt>
      <trkpt lat="45.60254" lon="5.87893">
        <ele>260</ele>
        <time>2021-09-10T08:00:01.666Z</time>
      </trkpt>
      <trkpt lat="45.60254" lon="5.87886">
        <ele>260</ele>
        <time>2021-09-10T08:00:02.665Z</time>
      </trkpt>
      <trkpt lat="45.60253" lon="5.87879">
        <ele>260</ele>
        <time>2021-09-10T08:00:03.666Z</time>
      </trkpt>
      <trkpt lat="45.60252" lon="5.87873">
        <ele>260</ele>
        <time>2021-09-10T08:00:04.666Z</time>
      </trkpt>
      <trkpt lat="45.60252" lon="5.87866">
        <ele>260</ele>
        <time>2021-09-10T08:00:05.666Z</time>
      </trkpt>
      <trkpt lat="45.60251" lon="5.8786">
        <ele>260</ele>
        <time>2021-09-10T08:00:06.666Z</time>
      </trkpt>
      <trkpt lat="45.60251" lon="5.87856">
        <ele>260</ele>
        <time>2021-09-10T08:00:07.666Z</time>
      </trkpt>
      <trkpt lat="45.6025" lon="5.8785">
        <ele>259</ele>
        <time>2021-09-10T08:00:08.666Z</time>
      </trkpt>
      <trkpt lat="45.60249" lon="5.87843">
        <ele>259</ele>
        <time>2021-09-10T08:00:09.666Z</time>
      </trkpt>
      <trkpt lat="45.60248" lon="5.87837">
        <ele>259</ele>
        <time>2021-09-10T08:00:10.666Z</time>
      </trkpt>
      <trkpt lat="45.60248" lon="5.87831">
        <ele>259</ele>
        <time>2021-09-10T08:00:11.666Z</time>
      </trkpt>
      <trkpt lat="45.60247" lon="5.87827">
        <ele>259</ele>
        <time>2021-09-10T08:00:12.665Z</time>
      </trkpt>
      <trkpt lat="45.60246" lon="5.87821">
        <ele>260</ele>
        <time>2021-09-10T08:00:13.665Z</time>
      </trkpt>
      <trkpt lat="45.60245" lon="5.87814">
        <ele>260</ele>
        <time>2021-09-10T08:00:14.665Z</time>
      </trkpt>
      <trkpt lat="45.60244" lon="5.87808">
        <ele>260</ele>
        <time>2021-09-10T08:00:15.666Z</time>
      </trkpt>
      <trkpt lat="45.60244" lon="5.87801">
        <ele>261</ele>
        <time>2021-09-10T08:00:16.666Z</time>
      </trkpt>
      <trkpt lat="45.60243" lon="5.87795">
        <ele>261</ele>
        <time>2021-09-10T08:00:17.666Z</time>
      </trkpt>
      <trkpt lat="45.60242" lon="5.87788">
        <ele>261</ele>
        <time>2021-09-10T08:00:18.666Z</time>
      </trkpt>
      <trkpt lat="45.60241" lon="5.87781">
        <ele>262</ele>
        <time>2021-09-10T08:00:19.666Z</time>
      </trkpt>
      <trkpt lat="45.6024" lon="5.87774">
        <ele>262</ele>
        <time>2021-09-10T08:00:20.665Z</time>
      </trkpt>
      <trkpt lat="45.60239" lon="5.87769">
        <ele>263</ele>
        <time>2021-09-10T08:00:21.666Z</time>
      </trkpt>
      <trkpt lat="45.60238" lon="5.87763">
        <ele>263</ele>
        <time>2021-09-10T08:00:22.666Z</time>
      </trkpt>
      <trkpt lat="45.60238" lon="5.87757">
        <ele>264</ele>
        <time>2021-09-10T08:00:23.666Z</time>
      </trkpt>
      <trkpt lat="45.60237" lon="5.87752">
        <ele>264</ele>
        <time>2021-09-10T08:00:24.665Z</time>
      </trkpt>
      <trkpt lat="45.60236" lon="5.87746">
        <ele>264</ele>
        <time>2021-09-10T08:00:25.666Z</time>
      </trkpt>
      <trkpt lat="45.60236" lon="5.87741">
        <ele>263</ele>
        <time>2021-09-10T08:00:26.666Z</time>
      </trkpt>
      <trkpt lat="45.60235" lon="5.87736">
        <ele>263</ele>
        <time>2021-09-10T08:00:27.666Z</time>
      </trkpt>
      <trkpt lat="45.60235" lon="5.8773">
        <ele>263</ele>
        <time>2021-09-10T08:00:28.666Z</time>
      </trkpt>
      <trkpt lat="45.60234" lon="5.87724">
        <ele>262</ele>
        <time>2021-09-10T08:00:29.666Z</time>
      </trkpt>
      <trkpt lat="45.60234" lon="5.87719">
        <ele>262</ele>
        <time>2021-09-10T08:00:30.666Z</time>
      </trkpt>
      <trkpt lat="45.60233" lon="5.87715">
        <ele>262</ele>
        <time>2021-09-10T08:00:31.666Z</time>
      </trkpt>
      <trkpt lat="45.60232" lon="5.87709">
        <ele>262</ele>
        <time>2021-09-10T08:00:32.666Z</time>
      </trkpt>
      <trkpt lat="45.60231" lon="5.87704">
        <ele>262</ele>
        <time>2021-09-10T08:00:33.665Z</time>
      </trkpt>
      <trkpt lat="45.60229" lon="5.877">
        <ele>262</ele>
        <time>2021-09-10T08:00:34.665Z</time>
      </trkpt>
      <trkpt lat="45.60227" lon="5.87695">
        <ele>262</ele>
        <time>2021-09-10T08:00:35.665Z</time>
      </trkpt>
      <trkpt lat="45.60226" lon="5.87691">
        <ele>262</ele>
        <time>2021-09-10T08:00:36.666Z</time>
      </trkpt>
      <trkpt lat="45.60224" lon="5.87686">
        <ele>262</ele>
        <time>2021-09-10T08:00:37.665Z</time>
      </trkpt>
      <trkpt lat="45.60222" lon="5.87682">
        <ele>262</ele>
        <time>2021-09-10T08:00:38.665Z</time>
      </trkpt>
      <trkpt lat="45.60221" lon="5.87678">
        <ele>261</ele>
        <time>2021-09-10T08:00:39.666Z</time>
      </trkpt>
      <trkpt lat="45.60221" lon="5.87675">
        <ele>261</ele>
        <time>2021-09-10T08:00:40.665Z</time>
      </trkpt>
      <trkpt lat="45.60221" lon="5.87672">
        <ele>261</ele>
        <time>2021-09-10T08:00:41.666Z</time>
      </trkpt>
      <trkpt lat="45.60222" lon="5.87668">
        <ele>260</ele>
        <time>2021-09-10T08:00:42.666Z</time>
      </trkpt>
      <trkpt lat="45.60223" lon="5.87665">
        <ele>260</ele>
        <time>2021-09-10T08:00:43.666Z</time>
      </trkpt>
      <trkpt lat="45.60224" lon="5.87662">
        <ele>260</ele>
        <time>2021-09-10T08:00:44.666Z</time>
      </trkpt>
      <trkpt lat="45.60226" lon="5.87658">
        <ele>259</ele>
        <time>2021-09-10T08:00:45.666Z</time>
      </trkpt>
      <trkpt lat="45.60228" lon="5.87656">
        <ele>259</ele>
        <time>2021-09-10T08:00:46.665Z</time>
      </trkpt>
      <trkpt lat="45.60232" lon="5.87653">
        <ele>258</ele>
        <time>2021-09-10T08:00:47.665Z</time>
      </trkpt>
      <trkpt lat="45.60235" lon="5.87651">
        <ele>258</ele>
        <time>2021-09-10T08:00:48.665Z</time>
      </trkpt>
      <trkpt lat="45.60238" lon="5.87649">
        <ele>258</ele>
        <time>2021-09-10T08:00:49.665Z</time>
      </trkpt>
      <trkpt lat="45.60242" lon="5.87648">
        <ele>258</ele>
        <time>2021-09-10T08:00:50.666Z</time>
      </trkpt>
      <trkpt lat="45.60246" lon="5.87648">
        <ele>258</ele>
        <time>2021-09-10T08:00:51.666Z</time>
      </trkpt>
      <trkpt lat="45.6025" lon="5.87648">
        <ele>257</ele>
        <time>2021-09-10T08:00:52.665Z</time>
      </trkpt>
      <trkpt lat="45.60253" lon="5.87646">
        <ele>257</ele>
        <time>2021-09-10T08:00:53.665Z</time>
      </trkpt>
      <trkpt lat="45.60257" lon="5.87645">
        <ele>257</ele>
        <time>2021-09-10T08:00:54.666Z</time>
      </trkpt>
      <trkpt lat="45.60261" lon="5.87644">
        <ele>257</ele>
        <time>2021-09-10T08:00:55.666Z</time>
      </trkpt>
      <trkpt lat="45.60264" lon="5.87642">
        <ele>256</ele>
        <time>2021-09-10T08:00:56.665Z</time>
      </trkpt>
      <trkpt lat="45.60267" lon="5.87642">
        <ele>256</ele>
        <time>2021-09-10T08:00:57.666Z</time>
      </trkpt>
      <trkpt lat="45.60272" lon="5.87642">
        <ele>256</ele>
        <time>2021-09-10T08:00:58.666Z</time>
      </trkpt>
      <trkpt lat="45.60276" lon="5.87642">
        <ele>256</ele>
        <time>2021-09-10T08:00:59.665Z</time>
      </trkpt>
      <trkpt lat="45.60281" lon="5.87643">
        <ele>256</ele>
        <time>2021-09-10T08:01:00.665Z</time>
      </trkpt>
      <trkpt lat="45.60286" lon="5.87646">
        <ele>255</ele>
        <time>2021-09-10T08:01:01.666Z</time>
      </trkpt>
      <trkpt lat="45.60291" lon="5.87647">
        <ele>254</ele>
        <time>2021-09-10T08:01:02.665Z</time>
      </trkpt>
      <trkpt lat="45.60295" lon="5.87649">
        <ele>253</ele>
        <time>2021-09-10T08:01:03.665Z</time>
      </trkpt>
      <trkpt lat="45.60298" lon="5.87652">
        <ele>252</ele>
        <time>2021-09-10T08:01:04.666Z</time>
      </trkpt>
      <trkpt lat="45.60302" lon="5.87656">
        <ele>252</ele>
        <time>2021-09-10T08:01:05.665Z</time>
      </trkpt>
      <trkpt lat="45.60304" lon="5.8766">
        <ele>251</ele>
        <time>2021-09-10T08:01:06.666Z</time>
      </trkpt>
      <trkpt lat="45.60306" lon="5.87665">
        <ele>251</ele>
        <time>2021-09-10T08:01:07.666Z</time>
      </trkpt>
      <trkpt lat="45.60307" lon="5.87672">
        <ele>251</ele>
        <time>2021-09-10T08:01:08.665Z</time>
      </trkpt>
      <trkpt lat="45.60308" lon="5.87677">
        <ele>251</ele>
        <time>2021-09-10T08:01:09.666Z</time>
      </trkpt>
      <trkpt lat="45.60308" lon="5.87684">
        <ele>251</ele>
        <time>2021-09-10T08:01:10.666Z</time>
      </trkpt>
      <trkpt lat="45.6031" lon="5.87693">
        <ele>252</ele>
        <time>2021-09-10T08:01:11.666Z</time>
      </trkpt>
      <trkpt lat="45.60311" lon="5.877">
        <ele>252</ele>
        <time>2021-09-10T08:01:12.665Z</time>
      </trkpt>
      <trkpt lat="45.60311" lon="5.87709">
        <ele>253</ele>
        <time>2021-09-10T08:01:13.666Z</time>
      </trkpt>
      <trkpt lat="45.60312" lon="5.87717">
        <ele>253</ele>
        <time>2021-09-10T08:01:14.666Z</time>
      </trkpt>
      <trkpt lat="45.60312" lon="5.87726">
        <ele>253</ele>
        <time>2021-09-10T08:01:15.666Z</time>
      </trkpt>
      <trkpt lat="45.60313" lon="5.87735">
        <ele>253</ele>
        <time>2021-09-10T08:01:16.666Z</time>
      </trkpt>
      <trkpt lat="45.60314" lon="5.87743">
        <ele>253</ele>
        <time>2021-09-10T08:01:17.666Z</time>
      </trkpt>
      <trkpt lat="45.60314" lon="5.87752">
        <ele>254</ele>
        <time>2021-09-10T08:01:18.666Z</time>
      </trkpt>
      <trkpt lat="45.60314" lon="5.8776">
        <ele>254</ele>
        <time>2021-09-10T08:01:19.666Z</time>
      </trkpt>
      <trkpt lat="45.60315" lon="5.87768">
        <ele>253</ele>
        <time>2021-09-10T08:01:20.666Z</time>
      </trkpt>
      <trkpt lat="45.60316" lon="5.87777">
        <ele>253</ele>
        <time>2021-09-10T08:01:21.666Z</time>
      </trkpt>
      <trkpt lat="45.60316" lon="5.87784">
        <ele>252</ele>
        <time>2021-09-10T08:01:22.666Z</time>
      </trkpt>
      <trkpt lat="45.60317" lon="5.87792">
        <ele>252</ele>
        <time>2021-09-10T08:01:23.666Z</time>
      </trkpt>
      <trkpt lat="45.60317" lon="5.878">
        <ele>251</ele>
        <time>2021-09-10T08:01:24.665Z</time>
      </trkpt>
      <trkpt lat="45.60318" lon="5.87807">
        <ele>251</ele>
        <time>2021-09-10T08:01:25.666Z</time>
      </trkpt>
      <trkpt lat="45.60319" lon="5.87814">
        <ele>251</ele>
        <time>2021-09-10T08:01:26.666Z</time>
      </trkpt>
      <trkpt lat="45.6032" lon="5.87821">
        <ele>250</ele>
        <time>2021-09-10T08:01:27.665Z</time>
      </trkpt>
      <trkpt lat="45.6032" lon="5.87828">
        <ele>250</ele>
        <time>2021-09-10T08:01:28.666Z</time>
      </trkpt>
      <trkpt lat="45.60321" lon="5.87835">
        <ele>249</ele>
        <time>2021-09-10T08:01:29.666Z</time>
      </trkpt>
      <trkpt lat="45.60322" lon="5.87841">
        <ele>249</ele>
        <time>2021-09-10T08:01:30.666Z</time>
      </trkpt>
      <trkpt lat="45.60322" lon="5.87848">
        <ele>249</ele>
        <time>2021-09-10T08:01:31.666Z</time>
      </trkpt>
      <trkpt lat="45.60323" lon="5.87855">
        <ele>248</ele>
        <time>2021-09-10T08:01:32.665Z</time>
      </trkpt>
      <trkpt lat="45.60323" lon="5.8786">
        <ele>248</ele>
        <time>2021-09-10T08:01:33.665Z</time>
      </trkpt>
      <trkpt lat="45.60325" lon="5.87867">
        <ele>248</ele>
        <time>2021-09-10T08:01:34.665Z</time>
      </trkpt>
      <trkpt lat="45.60326" lon="5.87875">
        <ele>248</ele>
        <time>2021-09-10T08:01:35.666Z</time>
      </trkpt>
      <trkpt lat="45.60327" lon="5.87882">
        <ele>248</ele>
        <time>2021-09-10T08:01:36.666Z</time>
      </trkpt>
      <trkpt lat="45.60328" lon="5.8789">
        <ele>248</ele>
        <time>2021-09-10T08:01:37.666Z</time>
      </trkpt>
      <trkpt lat="45.6033" lon="5.87897">
        <ele>248</ele>
        <time>2021-09-10T08:01:38.665Z</time>
      </trkpt>
      <trkpt lat="45.60331" lon="5.87903">
        <ele>249</ele>
        <time>2021-09-10T08:01:39.666Z</time>
      </trkpt>
      <trkpt lat="45.60332" lon="5.87911">
        <ele>249</ele>
        <time>2021-09-10T08:01:40.665Z</time>
      </trkpt>
      <trkpt lat="45.60335" lon="5.87921">
        <ele>249</ele>
        <time>2021-09-10T08:01:41.666Z</time>
      </trkpt>
      <trkpt lat="45.60336" lon="5.87929">
        <ele>250</ele>
        <time>2021-09-10T08:01:42.666Z</time>
      </trkpt>
      <trkpt lat="45.60338" lon="5.87938">
        <ele>250</ele>
        <time>2021-09-10T08:01:43.666Z</time>
      </trkpt>
      <trkpt lat="45.6034" lon="5.87945">
        <ele>250</ele>
        <time>2021-09-10T08:01:44.666Z</time>
      </trkpt>
      <trkpt lat="45.60342" lon="5.87956">
        <ele>250</ele>
        <time>2021-09-10T08:01:45.666Z</time>
      </trkpt>
      <trkpt lat="45.60344" lon="5.87965">
        <ele>249</ele>
        <time>2021-09-10T08:01:46.666Z</time>
      </trkpt>
      <trkpt lat="45.60346" lon="5.87973">
        <ele>249</ele>
        <time>2021-09-10T08:01:47.665Z</time>
      </trkpt>
      <trkpt lat="45.60348" lon="5.87982">
        <ele>249</ele>
        <time>2021-09-10T08:01:48.666Z</time>
      </trkpt>
      <trkpt lat="45.6035" lon="5.87991">
        <ele>249</ele>
        <time>2021-09-10T08:01:49.666Z</time>
      </trkpt>
      <trkpt lat="45.60351" lon="5.87997">
        <ele>249</ele>
        <time>2021-09-10T08:01:50.666Z</time>
      </trkpt>
      <trkpt lat="45.60353" lon="5.88007">
        <ele>249</ele>
        <time>2021-09-10T08:01:51.666Z</time>
      </trkpt>
      <trkpt lat="45.60355" lon="5.88015">
        <ele>248</ele>
        <time>2021-09-10T08:01:52.665Z</time>
      </trkpt>
      <trkpt lat="45.60356" lon="5.88023">
        <ele>248</ele>
        <time>2021-09-10T08:01:53.665Z</time>
      </trkpt>
      <trkpt lat="45.60357" lon="5.88031">
        <ele>249</ele>
        <time>2021-09-10T08:01:54.666Z</time>
      </trkpt>
      <trkpt lat="45.60359" lon="5.88039">
        <ele>249</ele>
        <time>2021-09-10T08:01:55.665Z</time>
      </trkpt>
      <trkpt lat="45.60361" lon="5.88046">
        <ele>249</ele>
        <time>2021-09-10T08:01:56.665Z</time>
      </trkpt>
      <trkpt lat="45.60362" lon="5.88054">
        <ele>249</ele>
        <time>2021-09-10T08:01:57.666Z</time>
      </trkpt>
      <trkpt lat="45.60364" lon="5.88061">
        <ele>250</ele>
        <time>2021-09-10T08:01:58.666Z</time>
      </trkpt>
      <trkpt lat="45.60365" lon="5.88067">
        <ele>250</ele>
        <time>2021-09-10T08:01:59.666Z</time>
      </trkpt>
      <trkpt lat="45.60367" lon="5.88074">
        <ele>250</ele>
        <time>2021-09-10T08:02:00.665Z</time>
      </trkpt>
      <trkpt lat="45.6037" lon="5.88083">
        <ele>250</ele>
        <time>2021-09-10T08:02:01.666Z</time>
      </trkpt>
      <trkpt lat="45.60373" lon="5.8809">
        <ele>250</ele>
        <time>2021-09-10T08:02:02.666Z</time>
      </trkpt>
      <trkpt lat="45.60376" lon="5.88096">
        <ele>250</ele>
        <time>2021-09-10T08:02:03.665Z</time>
      </trkpt>
      <trkpt lat="45.60378" lon="5.88101">
        <ele>249</ele>
        <time>2021-09-10T08:02:04.666Z</time>
      </trkpt>
      <trkpt lat="45.60382" lon="5.88108">
        <ele>249</ele>
        <time>2021-09-10T08:02:05.666Z</time>
      </trkpt>
      <trkpt lat="45.60385" lon="5.88114">
        <ele>248</ele>
        <time>2021-09-10T08:02:06.666Z</time>
      </trkpt>
      <trkpt lat="45.60389" lon="5.88119">
        <ele>248</ele>
        <time>2021-09-10T08:02:07.665Z</time>
      </trkpt>
      <trkpt lat="45.60393" lon="5.88124">
        <ele>248</ele>
        <time>2021-09-10T08:02:08.665Z</time>
      </trkpt>
      <trkpt lat="45.60396" lon="5.88127">
        <ele>248</ele>
        <time>2021-09-10T08:02:09.666Z</time>
      </trkpt>
      <trkpt lat="45.60401" lon="5.88132">
        <ele>248</ele>
        <time>2021-09-10T08:02:10.666Z</time>
      </trkpt>
      <trkpt lat="45.60405" lon="5.88134">
        <ele>248</ele>
        <time>2021-09-10T08:02:11.666Z</time>
      </trkpt>
      <trkpt lat="45.60411" lon="5.88138">
        <ele>247</ele>
        <time>2021-09-10T08:02:12.666Z</time>
      </trkpt>
      <trkpt lat="45.60415" lon="5.88141">
        <ele>247</ele>
        <time>2021-09-10T08:02:13.666Z</time>
      </trkpt>
      <trkpt lat="45.6042" lon="5.88145">
        <ele>246</ele>
        <time>2021-09-10T08:02:14.666Z</time>
      </trkpt>
      <trkpt lat="45.60425" lon="5.88148">
        <ele>246</ele>
        <time>2021-09-10T08:02:15.666Z</time>
      </trkpt>
      <trkpt lat="45.6043" lon="5.88152">
        <ele>245</ele>
        <time>2021-09-10T08:02:16.665Z</time>
      </trkpt>
      <trkpt lat="45.60435" lon="5.88155">
        <ele>245</ele>
        <time>2021-09-10T08:02:17.666Z</time>
      </trkpt>
      <trkpt lat="45.6044" lon="5.88158">
        <ele>245</ele>
        <time>2021-09-10T08:02:18.665Z</time>
      </trkpt>
      <trkpt lat="45.60445" lon="5.88161">
        <ele>245</ele>
        <time>2021-09-10T08:02:19.665Z</time>
      </trkpt>
      <trkpt lat="45.6045" lon="5.88163">
        <ele>245</ele>
        <time>2021-09-10T08:02:20.666Z</time>
      </trkpt>
      <trkpt lat="45.60456" lon="5.88167">
        <ele>246</ele>
        <time>2021-09-10T08:02:21.666Z</time>
      </trkpt>
      <trkpt lat="45.60462" lon="5.8817">
        <ele>246</ele>
        <time>2021-09-10T08:02:22.666Z</time>
      </trkpt>
      <trkpt lat="45.60468" lon="5.88172">
        <ele>245</ele>
        <time>2021-09-10T08:02:23.666Z</time>
      </trkpt>
      <trkpt lat="45.60473" lon="5.88175">
        <ele>245</ele>
        <time>2021-09-10T08:02:24.666Z</time>
      </trkpt>
      <trkpt lat="45.60479" lon="5.88177">
        <ele>245</ele>
        <time>2021-09-10T08:02:25.666Z</time>
      </trkpt>
      <trkpt lat="45.60484" lon="5.8818">
        <ele>245</ele>
        <time>2021-09-10T08:02:26.666Z</time>
      </trkpt>
      <trkpt lat="45.60489" lon="5.88183">
        <ele>245</ele>
        <time>2021-09-10T08:02:27.666Z</time>
      </trkpt>
      <trkpt lat="45.60495" lon="5.88186">
        <ele>245</ele>
        <time>2021-09-10T08:02:28.665Z</time>
      </trkpt>
      <trkpt lat="45.60499" lon="5.88189">
        <ele>245</ele>
        <time>2021-09-10T08:02:29.666Z</time>
      </trkpt>
      <trkpt lat="45.60503" lon="5.88191">
        <ele>245</ele>
        <time>2021-09-10T08:02:30.665Z</time>
      </trkpt>
      <trkpt lat="45.60508" lon="5.88195">
        <ele>245</ele>
        <time>2021-09-10T08:02:31.666Z</time>
      </trkpt>
      <trkpt lat="45.60513" lon="5.88199">
        <ele>245</ele>
        <time>2021-09-10T08:02:32.666Z</time>
      </trkpt>
      <trkpt lat="45.60517" lon="5.88203">
        <ele>245</ele>
        <time>2021-09-10T08:02:33.665Z</time>
      </trkpt>
      <trkpt lat="45.6052" lon="5.88207">
        <ele>245</ele>
        <time>2021-09-10T08:02:34.666Z</time>
      </trkpt>
      <trkpt lat="45.60524" lon="5.8821">
        <ele>245</ele>
        <time>2021-09-10T08:02:35.666Z</time>
      </trkpt>
      <trkpt lat="45.60529" lon="5.88215">
        <ele>245</ele>
        <time>2021-09-10T08:02:36.666Z</time>
      </trkpt>
      <trkpt lat="45.60533" lon="5.88218">
        <ele>245</ele>
        <time>2021-09-10T08:02:37.666Z</time>
      </trkpt>
      <trkpt lat="45.60536" lon="5.88223">
        <ele>245</ele>
        <time>2021-09-10T08:02:38.666Z</time>
      </trkpt>
      <trkpt lat="45.6054" lon="5.88227">
        <ele>244</ele>
        <time>2021-09-10T08:02:39.666Z</time>
      </trkpt>
      <trkpt lat="45.60543" lon="5.8823">
        <ele>244</ele>
        <time>2021-09-10T08:02:40.665Z</time>
      </trkpt>
      <trkpt lat="45.60547" lon="5.88236">
        <ele>244</ele>
        <time>2021-09-10T08:02:41.666Z</time>
      </trkpt>
      <trkpt lat="45.6055" lon="5.88241">
        <ele>244</ele>
        <time>2021-09-10T08:02:42.666Z</time>
      </trkpt>
      <trkpt lat="45.60553" lon="5.88245">
        <ele>244</ele>
        <time>2021-09-10T08:02:43.665Z</time>
      </trkpt>
      <trkpt lat="45.60556" lon="5.8825">
        <ele>244</ele>
        <time>2021-09-10T08:02:44.665Z</time>
      </trkpt>
      <trkpt lat="45.60559" lon="5.88255">
        <ele>244</ele>
        <time>2021-09-10T08:02:45.666Z</time>
      </trkpt>
      <trkpt lat="45.60563" lon="5.8826">
        <ele>244</ele>
        <time>2021-09-10T08:02:46.666Z</time>
      </trkpt>
      <trkpt lat="45.60566" lon="5.88266">
        <ele>245</ele>
        <time>2021-09-10T08:02:47.666Z</time>
      </trkpt>
      <trkpt lat="45.60569" lon="5.88271">
        <ele>245</ele>
        <time>2021-09-10T08:02:48.665Z</time>
      </trkpt>
      <trkpt lat="45.60571" lon="5.88277">
        <ele>246</ele>
        <time>2021-09-10T08:02:49.666Z</time>
      </trkpt>
      <trkpt lat="45.60574" lon="5.88283">
        <ele>246</ele>
        <time>2021-09-10T08:02:50.666Z</time>
      </trkpt>
      <trkpt lat="45.60576" lon="5.88289">
        <ele>246</ele>
        <time>2021-09-10T08:02:51.666Z</time>
      </trkpt>
      <trkpt lat="45.60578" lon="5.88295">
        <ele>246</ele>
        <time>2021-09-10T08:02:52.665Z</time>
      </trkpt>
      <trkpt lat="45.60579" lon="5.88301">
        <ele>246</ele>
        <time>2021-09-10T08:02:53.665Z</time>
      </trkpt>
      <trkpt lat="45.60581" lon="5.88307">
        <ele>246</ele>
        <time>2021-09-10T08:02:54.666Z</time>
      </trkpt>
      <trkpt lat="45.60582" lon="5.88314">
        <ele>246</ele>
        <time>2021-09-10T08:02:55.666Z</time>
      </trkpt>
      <trkpt lat="45.60583" lon="5.88319">
        <ele>247</ele>
        <time>2021-09-10T08:02:56.666Z</time>
      </trkpt>
      <trkpt lat="45.60584" lon="5.88327">
        <ele>248</ele>
        <time>2021-09-10T08:02:57.666Z</time>
      </trkpt>
      <trkpt lat="45.60585" lon="5.88334">
        <ele>249</ele>
        <time>2021-09-10T08:02:58.666Z</time>
      </trkpt>
      <trkpt lat="45.60586" lon="5.88341">
        <ele>249</ele>
        <time>2021-09-10T08:02:59.665Z</time>
      </trkpt>
      <trkpt lat="45.60587" lon="5.88348">
        <ele>250</ele>
        <time>2021-09-10T08:03:00.666Z</time>
      </trkpt>
      <trkpt lat="45.60588" lon="5.88355">
        <ele>250</ele>
        <time>2021-09-10T08:03:01.666Z</time>
      </trkpt>
      <trkpt lat="45.60587" lon="5.88361">
        <ele>251</ele>
        <time>2021-09-10T08:03:02.665Z</time>
      </trkpt>
      <trkpt lat="45.60586" lon="5.88365">
        <ele>251</ele>
        <time>2021-09-10T08:03:03.666Z</time>
      </trkpt>
      <trkpt lat="45.60585" lon="5.88369">
        <ele>252</ele>
        <time>2021-09-10T08:03:04.666Z</time>
      </trkpt>
      <trkpt lat="45.60585" lon="5.88371">
        <ele>252</ele>
        <time>2021-09-10T08:03:05.666Z</time>
      </trkpt>
      <trkpt lat="45.60585" lon="5.88371">
        <ele>252</ele>
        <time>2021-09-10T08:03:06.666Z</time>
      </trkpt>
      <trkpt lat="45.60585" lon="5.88371">
        <ele>252</ele>
        <time>2021-09-10T08:03:07.666Z</time>
      </trkpt>
      <trkpt lat="45.60585" lon="5.88371">
        <ele>252</ele>
        <time>2021-09-10T08:03:08.666Z</time>
      </trkpt>
      <trkpt lat="45.60585" lon="5.88372">
        <ele>252</ele>
        <time>2021-09-10T08:03:09.665Z</time>
      </trkpt>
      <trkpt lat="45.60586" lon="5.88372">
        <ele>252</ele>
        <time>2021-09-10T08:03:10.665Z</time>
      </trkpt>
      <trkpt lat="45.60585" lon="5.88376">
        <ele>256</ele>
        <time>2021-09-10T08:03:11.668Z</time>
      </trkpt>
      <trkpt lat="45.60585" lon="5.8838">
        <ele>256</ele>
        <time>2021-09-10T08:03:12.668Z</time>
      </trkpt>
      <trkpt lat="45.60586" lon="5.88383">
        <ele>256</ele>
        <time>2021-09-10T08:03:13.667Z</time>
      </trkpt>
      <trkpt lat="45.60586" lon="5.88386">
        <ele>255</ele>
        <time>2021-09-10T08:03:14.668Z</time>
      </trkpt>
      <trkpt lat="45.60586" lon="5.8839">
        <ele>254</ele>
        <time>2021-09-10T08:03:15.667Z</time>
      </trkpt>
      <trkpt lat="45.60586" lon="5.88394">
        <ele>254</ele>
        <time>2021-09-10T08:03:16.667Z</time>
      </trkpt>
      <trkpt lat="45.60586" lon="5.88398">
        <ele>253</ele>
        <time>2021-09-10T08:03:17.668Z</time>
      </trkpt>
      <trkpt lat="45.60585" lon="5.88404">
        <ele>253</ele>
        <time>2021-09-10T08:03:18.668Z</time>
      </trkpt>
      <trkpt lat="45.60585" lon="5.88408">
        <ele>253</ele>
        <time>2021-09-10T08:03:19.667Z</time>
      </trkpt>
      <trkpt lat="45.60584" lon="5.88413">
        <ele>253</ele>
        <time>2021-09-10T08:03:20.668Z</time>
      </trkpt>
      <trkpt lat="45.60583" lon="5.88418">
        <ele>253</ele>
        <time>2021-09-10T08:03:21.668Z</time>
      </trkpt>
      <trkpt lat="45.60582" lon="5.88422">
        <ele>253</ele>
        <time>2021-09-10T08:03:22.668Z</time>
      </trkpt>
      <trkpt lat="45.60581" lon="5.88426">
        <ele>253</ele>
        <time>2021-09-10T08:03:23.668Z</time>
      </trkpt>
      <trkpt lat="45.6058" lon="5.88432">
        <ele>253</ele>
        <time>2021-09-10T08:03:24.667Z</time>
      </trkpt>
      <trkpt lat="45.60578" lon="5.88437">
        <ele>254</ele>
        <time>2021-09-10T08:03:25.668Z</time>
      </trkpt>
      <trkpt lat="45.60577" lon="5.88442">
        <ele>254</ele>
        <time>2021-09-10T08:03:26.668Z</time>
      </trkpt>
      <trkpt lat="45.60575" lon="5.88447">
        <ele>254</ele>
        <time>2021-09-10T08:03:27.668Z</time>
      </trkpt>
      <trkpt lat="45.60574" lon="5.8845">
        <ele>254</ele>
        <time>2021-09-10T08:03:28.667Z</time>
      </trkpt>
      <trkpt lat="45.60572" lon="5.88455">
        <ele>255</ele>
        <time>2021-09-10T08:03:29.667Z</time>
      </trkpt>
      <trkpt lat="45.6057" lon="5.8846">
        <ele>255</ele>
        <time>2021-09-10T08:03:30.668Z</time>
      </trkpt>
      <trkpt lat="45.60569" lon="5.88464">
        <ele>255</ele>
        <time>2021-09-10T08:03:31.667Z</time>
      </trkpt>
      <trkpt lat="45.60568" lon="5.88467">
        <ele>254</ele>
        <time>2021-09-10T08:03:32.667Z</time>
      </trkpt>
      <trkpt lat="45.60567" lon="5.8847">
        <ele>254</ele>
        <time>2021-09-10T08:03:33.668Z</time>
      </trkpt>
      <trkpt lat="45.60566" lon="5.88473">
        <ele>253</ele>
        <time>2021-09-10T08:03:34.667Z</time>
      </trkpt>
      <trkpt lat="45.60564" lon="5.88477">
        <ele>253</ele>
        <time>2021-09-10T08:03:35.668Z</time>
      </trkpt>
      <trkpt lat="45.60563" lon="5.8848">
        <ele>253</ele>
        <time>2021-09-10T08:03:36.667Z</time>
      </trkpt>
      <trkpt lat="45.60562" lon="5.88482">
        <ele>252</ele>
        <time>2021-09-10T08:03:37.667Z</time>
      </trkpt>
      <trkpt lat="45.60561" lon="5.88485">
        <ele>252</ele>
        <time>2021-09-10T08:03:38.668Z</time>
      </trkpt>
      <trkpt lat="45.60559" lon="5.88488">
        <ele>252</ele>
        <time>2021-09-10T08:03:39.668Z</time>
      </trkpt>
      <trkpt lat="45.60558" lon="5.88492">
        <ele>253</ele>
        <time>2021-09-10T08:03:40.668Z</time>
      </trkpt>
      <trkpt lat="45.60557" lon="5.88496">
        <ele>254</ele>
        <time>2021-09-10T08:03:41.668Z</time>
      </trkpt>
      <trkpt lat="45.60555" lon="5.885">
        <ele>254</ele>
        <time>2021-09-10T08:03:42.668Z</time>
      </trkpt>
      <trkpt lat="45.60554" lon="5.88504">
        <ele>255</ele>
        <time>2021-09-10T08:03:43.668Z</time>
      </trkpt>
      <trkpt lat="45.60553" lon="5.8851">
        <ele>256</ele>
        <time>2021-09-10T08:03:44.668Z</time>
      </trkpt>
      <trkpt lat="45.60551" lon="5.88515">
        <ele>256</ele>
        <time>2021-09-10T08:03:45.668Z</time>
      </trkpt>
      <trkpt lat="45.60551" lon="5.88519">
        <ele>257</ele>
        <time>2021-09-10T08:03:46.668Z</time>
      </trkpt>
      <trkpt lat="45.6055" lon="5.88523">
        <ele>257</ele>
        <time>2021-09-10T08:03:47.668Z</time>
      </trkpt>
      <trkpt lat="45.60551" lon="5.88527">
        <ele>257</ele>
        <time>2021-09-10T08:03:48.668Z</time>
      </trkpt>
      <trkpt lat="45.60552" lon="5.8853">
        <ele>257</ele>
        <time>2021-09-10T08:03:49.668Z</time>
      </trkpt>
      <trkpt lat="45.60555" lon="5.88534">
        <ele>257</ele>
        <time>2021-09-10T08:03:50.668Z</time>
      </trkpt>
      <trkpt lat="45.60557" lon="5.88536">
        <ele>256</ele>
        <time>2021-09-10T08:03:51.668Z</time>
      </trkpt>
      <trkpt lat="45.60559" lon="5.88537">
        <ele>256</ele>
        <time>2021-09-10T08:03:52.667Z</time>
      </trkpt>
      <trkpt lat="45.60562" lon="5.88538">
        <ele>256</ele>
        <time>2021-09-10T08:03:53.668Z</time>
      </trkpt>
      <trkpt lat="45.60564" lon="5.88538">
        <ele>255</ele>
        <time>2021-09-10T08:03:54.668Z</time>
      </trkpt>
      <trkpt lat="45.60568" lon="5.88537">
        <ele>255</ele>
        <time>2021-09-10T08:03:55.668Z</time>
      </trkpt>
      <trkpt lat="45.60571" lon="5.88536">
        <ele>255</ele>
        <time>2021-09-10T08:03:56.668Z</time>
      </trkpt>
      <trkpt lat="45.60574" lon="5.88535">
        <ele>255</ele>
        <time>2021-09-10T08:03:57.667Z</time>
      </trkpt>
      <trkpt lat="45.60578" lon="5.88534">
        <ele>255</ele>
        <time>2021-09-10T08:03:58.668Z</time>
      </trkpt>
      <trkpt lat="45.60581" lon="5.88534">
        <ele>255</ele>
        <time>2021-09-10T08:03:59.668Z</time>
      </trkpt>
      <trkpt lat="45.60583" lon="5.88534">
        <ele>255</ele>
        <time>2021-09-10T08:04:00.668Z</time>
      </trkpt>
      <trkpt lat="45.60586" lon="5.88535">
        <ele>255</ele>
        <time>2021-09-10T08:04:01.668Z</time>
      </trkpt>
      <trkpt lat="45.60589" lon="5.88537">
        <ele>255</ele>
        <time>2021-09-10T08:04:02.668Z</time>
      </trkpt>
      <trkpt lat="45.6059" lon="5.8854">
        <ele>255</ele>
        <time>2021-09-10T08:04:03.668Z</time>
      </trkpt>
      <trkpt lat="45.60592" lon="5.88543">
        <ele>255</ele>
        <time>2021-09-10T08:04:04.668Z</time>
      </trkpt>
      <trkpt lat="45.60593" lon="5.88548">
        <ele>255</ele>
        <time>2021-09-10T08:04:05.668Z</time>
      </trkpt>
      <trkpt lat="45.60595" lon="5.88552">
        <ele>254</ele>
        <time>2021-09-10T08:04:06.668Z</time>
      </trkpt>
      <trkpt lat="45.60596" lon="5.88557">
        <ele>254</ele>
        <time>2021-09-10T08:04:07.668Z</time>
      </trkpt>
      <trkpt lat="45.60597" lon="5.88561">
        <ele>254</ele>
        <time>2021-09-10T08:04:08.668Z</time>
      </trkpt>
      <trkpt lat="45.60598" lon="5.88567">
        <ele>254</ele>
        <time>2021-09-10T08:04:09.668Z</time>
      </trkpt>
      <trkpt lat="45.60599" lon="5.88571">
        <ele>254</ele>
        <time>2021-09-10T08:04:10.668Z</time>
      </trkpt>
      <trkpt lat="45.60601" lon="5.88576">
        <ele>253</ele>
        <time>2021-09-10T08:04:11.667Z</time>
      </trkpt>
      <trkpt lat="45.60602" lon="5.88579">
        <ele>253</ele>
        <time>2021-09-10T08:04:12.668Z</time>
      </trkpt>
      <trkpt lat="45.60602" lon="5.88583">
        <ele>253</ele>
        <time>2021-09-10T08:04:13.668Z</time>
      </trkpt>
      <trkpt lat="45.60603" lon="5.88586">
        <ele>253</ele>
        <time>2021-09-10T08:04:14.667Z</time>
      </trkpt>
      <trkpt lat="45.60605" lon="5.88589">
        <ele>254</ele>
        <time>2021-09-10T08:04:15.668Z</time>
      </trkpt>
      <trkpt lat="45.60607" lon="5.8859">
        <ele>254</ele>
        <time>2021-09-10T08:04:16.668Z</time>
      </trkpt>
      <trkpt lat="45.60609" lon="5.88591">
        <ele>254</ele>
        <time>2021-09-10T08:04:17.667Z</time>
      </trkpt>
      <trkpt lat="45.60611" lon="5.8859">
        <ele>254</ele>
        <time>2021-09-10T08:04:18.667Z</time>
      </trkpt>
      <trkpt lat="45.60614" lon="5.88589">
        <ele>254</ele>
        <time>2021-09-10T08:04:19.667Z</time>
      </trkpt>
      <trkpt lat="45.60617" lon="5.88587">
        <ele>254</ele>
        <time>2021-09-10T08:04:20.668Z</time>
      </trkpt>
      <trkpt lat="45.6062" lon="5.88584">
        <ele>254</ele>
        <time>2021-09-10T08:04:21.667Z</time>
      </trkpt>
      <trkpt lat="45.60623" lon="5.88582">
        <ele>254</ele>
        <time>2021-09-10T08:04:22.668Z</time>
      </trkpt>
      <trkpt lat="45.60627" lon="5.88579">
        <ele>254</ele>
        <time>2021-09-10T08:04:23.668Z</time>
      </trkpt>
      <trkpt lat="45.60631" lon="5.88577">
        <ele>255</ele>
        <time>2021-09-10T08:04:24.668Z</time>
      </trkpt>
      <trkpt lat="45.60635" lon="5.88575">
        <ele>255</ele>
        <time>2021-09-10T08:04:25.668Z</time>
      </trkpt>
      <trkpt lat="45.60639" lon="5.88572">
        <ele>255</ele>
        <time>2021-09-10T08:04:26.668Z</time>
      </trkpt>
      <trkpt lat="45.60643" lon="5.88571">
        <ele>255</ele>
        <time>2021-09-10T08:04:27.667Z</time>
      </trkpt>
      <trkpt lat="45.60647" lon="5.88569">
        <ele>255</ele>
        <time>2021-09-10T08:04:28.667Z</time>
      </trkpt>
      <trkpt lat="45.60651" lon="5.88567">
        <ele>255</ele>
        <time>2021-09-10T08:04:29.668Z</time>
      </trkpt>
      <trkpt lat="45.60655" lon="5.88565">
        <ele>254</ele>
        <time>2021-09-10T08:04:30.668Z</time>
      </trkpt>
      <trkpt lat="45.60659" lon="5.88564">
        <ele>254</ele>
        <time>2021-09-10T08:04:31.667Z</time>
      </trkpt>
      <trkpt lat="45.60663" lon="5.88562">
        <ele>254</ele>
        <time>2021-09-10T08:04:32.668Z</time>
      </trkpt>
      <trkpt lat="45.60667" lon="5.8856">
        <ele>254</ele>
        <time>2021-09-10T08:04:33.668Z</time>
      </trkpt>
      <trkpt lat="45.60671" lon="5.88558">
        <ele>254</ele>
        <time>2021-09-10T08:04:34.668Z</time>
      </trkpt>
      <trkpt lat="45.60674" lon="5.88556">
        <ele>254</ele>
        <time>2021-09-10T08:04:35.667Z</time>
      </trkpt>
      <trkpt lat="45.60678" lon="5.88554">
        <ele>254</ele>
        <time>2021-09-10T08:04:36.667Z</time>
      </trkpt>
      <trkpt lat="45.60681" lon="5.88552">
        <ele>254</ele>
        <time>2021-09-10T08:04:37.668Z</time>
      </trkpt>
      <trkpt lat="45.60685" lon="5.88551">
        <ele>254</ele>
        <time>2021-09-10T08:04:38.668Z</time>
      </trkpt>
      <trkpt lat="45.60688" lon="5.88549">
        <ele>254</ele>
        <time>2021-09-10T08:04:39.668Z</time>
      </trkpt>
      <trkpt lat="45.60692" lon="5.88548">
        <ele>254</ele>
        <time>2021-09-10T08:04:40.668Z</time>
      </trkpt>
      <trkpt lat="45.60696" lon="5.88546">
        <ele>254</ele>
        <time>2021-09-10T08:04:41.668Z</time>
      </trkpt>
      <trkpt lat="45.607" lon="5.88545">
        <ele>254</ele>
        <time>2021-09-10T08:04:42.667Z</time>
      </trkpt>
      <trkpt lat="45.60705" lon="5.88543">
        <ele>254</ele>
        <time>2021-09-10T08:04:43.668Z</time>
      </trkpt>
      <trkpt lat="45.60709" lon="5.88541">
        <ele>253</ele>
        <time>2021-09-10T08:04:44.668Z</time>
      </trkpt>
      <trkpt lat="45.60712" lon="5.8854">
        <ele>253</ele>
        <time>2021-09-10T08:04:45.668Z</time>
      </trkpt>
      <trkpt lat="45.60717" lon="5.88538">
        <ele>253</ele>
        <time>2021-09-10T08:04:46.667Z</time>
      </trkpt>
      <trkpt lat="45.60722" lon="5.88536">
        <ele>252</ele>
        <time>2021-09-10T08:04:47.668Z</time>
      </trkpt>
      <trkpt lat="45.60726" lon="5.88534">
        <ele>252</ele>
        <time>2021-09-10T08:04:48.667Z</time>
      </trkpt>
      <trkpt lat="45.6073" lon="5.88532">
        <ele>251</ele>
        <time>2021-09-10T08:04:49.668Z</time>
      </trkpt>
      <trkpt lat="45.60735" lon="5.8853">
        <ele>250</ele>
        <time>2021-09-10T08:04:50.668Z</time>
      </trkpt>
      <trkpt lat="45.60739" lon="5.88528">
        <ele>250</ele>
        <time>2021-09-10T08:04:51.668Z</time>
      </trkpt>
      <trkpt lat="45.60743" lon="5.88527">
        <ele>250</ele>
        <time>2021-09-10T08:04:52.667Z</time>
      </trkpt>
      <trkpt lat="45.60748" lon="5.88525">
        <ele>250</ele>
        <time>2021-09-10T08:04:53.668Z</time>
      </trkpt>
      <trkpt lat="45.60752" lon="5.88523">
        <ele>250</ele>
        <time>2021-09-10T08:04:54.667Z</time>
      </trkpt>
      <trkpt lat="45.60757" lon="5.88521">
        <ele>250</ele>
        <time>2021-09-10T08:04:55.668Z</time>
      </trkpt>
      <trkpt lat="45.60761" lon="5.88519">
        <ele>250</ele>
        <time>2021-09-10T08:04:56.667Z</time>
      </trkpt>
      <trkpt lat="45.60766" lon="5.88517">
        <ele>250</ele>
        <time>2021-09-10T08:04:57.668Z</time>
      </trkpt>
      <trkpt lat="45.6077" lon="5.88514">
        <ele>250</ele>
        <time>2021-09-10T08:04:58.668Z</time>
      </trkpt>
      <trkpt lat="45.60775" lon="5.88512">
        <ele>250</ele>
        <time>2021-09-10T08:04:59.667Z</time>
      </trkpt>
      <trkpt lat="45.60779" lon="5.8851">
        <ele>250</ele>
        <time>2021-09-10T08:05:00.667Z</time>
      </trkpt>
      <trkpt lat="45.60784" lon="5.88508">
        <ele>250</ele>
        <time>2021-09-10T08:05:01.668Z</time>
      </trkpt>
      <trkpt lat="45.60788" lon="5.88506">
        <ele>250</ele>
        <time>2021-09-10T08:05:02.668Z</time>
      </trkpt>
      <trkpt lat="45.60793" lon="5.88504">
        <ele>250</ele>
        <time>2021-09-10T08:05:03.668Z</time>
      </trkpt>
      <trkpt lat="45.60797" lon="5.88502">
        <ele>250</ele>
        <time>2021-09-10T08:05:04.668Z</time>
      </trkpt>
      <trkpt lat="45.60802" lon="5.88499">
        <ele>250</ele>
        <time>2021-09-10T08:05:05.668Z</time>
      </trkpt>
      <trkpt lat="45.60806" lon="5.88497">
        <ele>250</ele>
        <time>2021-09-10T08:05:06.668Z</time>
      </trkpt>
      <trkpt lat="45.6081" lon="5.88495">
        <ele>250</ele>
        <time>2021-09-10T08:05:07.668Z</time>
      </trkpt>
      <trkpt lat="45.60815" lon="5.88493">
        <ele>250</ele>
        <time>2021-09-10T08:05:08.668Z</time>
      </trkpt>
      <trkpt lat="45.6082" lon="5.88491">
        <ele>250</ele>
        <time>2021-09-10T08:05:09.667Z</time>
      </trkpt>
      <trkpt lat="45.60824" lon="5.88489">
        <ele>250</ele>
        <time>2021-09-10T08:05:10.667Z</time>
      </trkpt>
      <trkpt lat="45.60828" lon="5.88487">
        <ele>250</ele>
        <time>2021-09-10T08:05:11.668Z</time>
      </trkpt>
      <trkpt lat="45.60832" lon="5.88484">
        <ele>250</ele>
        <time>2021-09-10T08:05:12.667Z</time>
      </trkpt>
      <trkpt lat="45.60836" lon="5.88482">
        <ele>250</ele>
        <time>2021-09-10T08:05:13.667Z</time>
      </trkpt>
      <trkpt lat="45.6084" lon="5.8848">
        <ele>251</ele>
        <time>2021-09-10T08:05:14.667Z</time>
      </trkpt>
      <trkpt lat="45.60844" lon="5.88479">
        <ele>251</ele>
        <time>2021-09-10T08:05:15.667Z</time>
      </trkpt>
      <trkpt lat="45.60849" lon="5.88476">
        <ele>251</ele>
        <time>2021-09-10T08:05:16.667Z</time>
      </trkpt>
      <trkpt lat="45.60853" lon="5.88474">
        <ele>251</ele>
        <time>2021-09-10T08:05:17.668Z</time>
      </trkpt>
      <trkpt lat="45.60857" lon="5.88472">
        <ele>251</ele>
        <time>2021-09-10T08:05:18.667Z</time>
      </trkpt>
      <trkpt lat="45.60862" lon="5.8847">
        <ele>250</ele>
        <time>2021-09-10T08:05:19.668Z</time>
      </trkpt>
      <trkpt lat="45.60867" lon="5.88468">
        <ele>250</ele>
        <time>2021-09-10T08:05:20.668Z</time>
      </trkpt>
      <trkpt lat="45.60871" lon="5.88466">
        <ele>250</ele>
        <time>2021-09-10T08:05:21.667Z</time>
      </trkpt>
      <trkpt lat="45.60876" lon="5.88464">
        <ele>250</ele>
        <time>2021-09-10T08:05:22.667Z</time>
      </trkpt>
      <trkpt lat="45.6088" lon="5.88463">
        <ele>250</ele>
        <time>2021-09-10T08:05:23.667Z</time>
      </trkpt>
      <trkpt lat="45.60884" lon="5.8846">
        <ele>250</ele>
        <time>2021-09-10T08:05:24.667Z</time>
      </trkpt>
      <trkpt lat="45.60888" lon="5.88458">
        <ele>250</ele>
        <time>2021-09-10T08:05:25.668Z</time>
      </trkpt>
      <trkpt lat="45.60893" lon="5.88457">
        <ele>250</ele>
        <time>2021-09-10T08:05:26.668Z</time>
      </trkpt>
      <trkpt lat="45.60897" lon="5.88455">
        <ele>250</ele>
        <time>2021-09-10T08:05:27.667Z</time>
      </trkpt>
      <trkpt lat="45.60902" lon="5.88453">
        <ele>250</ele>
        <time>2021-09-10T08:05:28.668Z</time>
      </trkpt>
      <trkpt lat="45.60906" lon="5.88451">
        <ele>250</ele>
        <time>2021-09-10T08:05:29.668Z</time>
      </trkpt>
      <trkpt lat="45.6091" lon="5.88449">
        <ele>250</ele>
        <time>2021-09-10T08:05:30.668Z</time>
      </trkpt>
      <trkpt lat="45.60915" lon="5.88448">
        <ele>250</ele>
        <time>2021-09-10T08:05:31.668Z</time>
      </trkpt>
      <trkpt lat="45.60919" lon="5.88446">
        <ele>249</ele>
        <time>2021-09-10T08:05:32.668Z</time>
      </trkpt>
      <trkpt lat="45.60924" lon="5.88444">
        <ele>249</ele>
        <time>2021-09-10T08:05:33.668Z</time>
      </trkpt>
      <trkpt lat="45.60928" lon="5.88442">
        <ele>249</ele>
        <time>2021-09-10T08:05:34.667Z</time>
      </trkpt>
      <trkpt lat="45.60932" lon="5.8844">
        <ele>249</ele>
        <time>2021-09-10T08:05:35.667Z</time>
      </trkpt>
      <trkpt lat="45.60937" lon="5.88438">
        <ele>248</ele>
        <time>2021-09-10T08:05:36.668Z</time>
      </trkpt>
      <trkpt lat="45.60941" lon="5.88437">
        <ele>248</ele>
        <time>2021-09-10T08:05:37.667Z</time>
      </trkpt>
      <trkpt lat="45.60944" lon="5.88435">
        <ele>248</ele>
        <time>2021-09-10T08:05:38.668Z</time>
      </trkpt>
      <trkpt lat="45.60948" lon="5.88433">
        <ele>248</ele>
        <time>2021-09-10T08:05:39.668Z</time>
      </trkpt>
      <trkpt lat="45.60952" lon="5.88431">
        <ele>248</ele>
        <time>2021-09-10T08:05:40.668Z</time>
      </trkpt>
      <trkpt lat="45.60957" lon="5.88428">
        <ele>248</ele>
        <time>2021-09-10T08:05:41.668Z</time>
      </trkpt>
      <trkpt lat="45.60961" lon="5.88426">
        <ele>248</ele>
        <time>2021-09-10T08:05:42.668Z</time>
      </trkpt>
      <trkpt lat="45.60966" lon="5.88424">
        <ele>248</ele>
        <time>2021-09-10T08:05:43.667Z</time>
      </trkpt>
      <trkpt lat="45.6097" lon="5.88422">
        <ele>248</ele>
        <time>2021-09-10T08:05:44.668Z</time>
      </trkpt>
      <trkpt lat="45.60975" lon="5.8842">
        <ele>248</ele>
        <time>2021-09-10T08:05:45.668Z</time>
      </trkpt>
      <trkpt lat="45.6098" lon="5.88417">
        <ele>248</ele>
        <time>2021-09-10T08:05:46.668Z</time>
      </trkpt>
      <trkpt lat="45.60984" lon="5.88415">
        <ele>248</ele>
        <time>2021-09-10T08:05:47.668Z</time>
      </trkpt>
      <trkpt lat="45.60989" lon="5.88413">
        <ele>248</ele>
        <time>2021-09-10T08:05:48.668Z</time>
      </trkpt>
      <trkpt lat="45.60993" lon="5.88411">
        <ele>248</ele>
        <time>2021-09-10T08:05:49.668Z</time>
      </trkpt>
      <trkpt lat="45.60998" lon="5.88408">
        <ele>248</ele>
        <time>2021-09-10T08:05:50.668Z</time>
      </trkpt>
      <trkpt lat="45.61002" lon="5.88406">
        <ele>248</ele>
        <time>2021-09-10T08:05:51.668Z</time>
      </trkpt>
      <trkpt lat="45.61007" lon="5.88404">
        <ele>247</ele>
        <time>2021-09-10T08:05:52.668Z</time>
      </trkpt>
      <trkpt lat="45.61012" lon="5.88402">
        <ele>248</ele>
        <time>2021-09-10T08:05:53.668Z</time>
      </trkpt>
      <trkpt lat="45.61016" lon="5.88399">
        <ele>248</ele>
        <time>2021-09-10T08:05:54.667Z</time>
      </trkpt>
      <trkpt lat="45.6102" lon="5.88397">
        <ele>248</ele>
        <time>2021-09-10T08:05:55.668Z</time>
      </trkpt>
      <trkpt lat="45.61025" lon="5.88395">
        <ele>248</ele>
        <time>2021-09-10T08:05:56.668Z</time>
      </trkpt>
      <trkpt lat="45.61029" lon="5.88393">
        <ele>248</ele>
        <time>2021-09-10T08:05:57.668Z</time>
      </trkpt>
      <trkpt lat="45.61034" lon="5.88391">
        <ele>249</ele>
        <time>2021-09-10T08:05:58.668Z</time>
      </trkpt>
      <trkpt lat="45.61039" lon="5.8839">
        <ele>248</ele>
        <time>2021-09-10T08:05:59.668Z</time>
      </trkpt>
      <trkpt lat="45.61044" lon="5.88388">
        <ele>248</ele>
        <time>2021-09-10T08:06:00.668Z</time>
      </trkpt>
      <trkpt lat="45.61048" lon="5.88386">
        <ele>248</ele>
        <time>2021-09-10T08:06:01.667Z</time>
      </trkpt>
      <trkpt lat="45.61054" lon="5.88384">
        <ele>249</ele>
        <time>2021-09-10T08:06:02.667Z</time>
      </trkpt>
      <trkpt lat="45.61059" lon="5.88383">
        <ele>249</ele>
        <time>2021-09-10T08:06:03.668Z</time>
      </trkpt>
      <trkpt lat="45.61063" lon="5.88381">
        <ele>249</ele>
        <time>2021-09-10T08:06:04.668Z</time>
      </trkpt>
      <trkpt lat="45.61067" lon="5.8838">
        <ele>249</ele>
        <time>2021-09-10T08:06:05.668Z</time>
      </trkpt>
      <trkpt lat="45.61072" lon="5.88378">
        <ele>249</ele>
        <time>2021-09-10T08:06:06.668Z</time>
      </trkpt>
      <trkpt lat="45.61076" lon="5.88377">
        <ele>249</ele>
        <time>2021-09-10T08:06:07.668Z</time>
      </trkpt>
      <trkpt lat="45.61081" lon="5.88376">
        <ele>249</ele>
        <time>2021-09-10T08:06:08.667Z</time>
      </trkpt>
      <trkpt lat="45.61086" lon="5.88375">
        <ele>249</ele>
        <time>2021-09-10T08:06:09.667Z</time>
      </trkpt>
      <trkpt lat="45.61089" lon="5.88374">
        <ele>249</ele>
        <time>2021-09-10T08:06:10.668Z</time>
      </trkpt>
      <trkpt lat="45.61094" lon="5.88372">
        <ele>249</ele>
        <time>2021-09-10T08:06:11.667Z</time>
      </trkpt>
      <trkpt lat="45.61099" lon="5.88371">
        <ele>249</ele>
        <time>2021-09-10T08:06:12.668Z</time>
      </trkpt>
      <trkpt lat="45.61104" lon="5.8837">
        <ele>249</ele>
        <time>2021-09-10T08:06:13.668Z</time>
      </trkpt>
      <trkpt lat="45.61108" lon="5.88369">
        <ele>249</ele>
        <time>2021-09-10T08:06:14.667Z</time>
      </trkpt>
      <trkpt lat="45.61113" lon="5.88367">
        <ele>249</ele>
        <time>2021-09-10T08:06:15.668Z</time>
      </trkpt>
      <trkpt lat="45.61118" lon="5.88366">
        <ele>249</ele>
        <time>2021-09-10T08:06:16.668Z</time>
      </trkpt>
      <trkpt lat="45.61123" lon="5.88364">
        <ele>248</ele>
        <time>2021-09-10T08:06:17.668Z</time>
      </trkpt>
      <trkpt lat="45.61129" lon="5.88363">
        <ele>248</ele>
        <time>2021-09-10T08:06:18.668Z</time>
      </trkpt>
      <trkpt lat="45.61134" lon="5.88362">
        <ele>248</ele>
        <time>2021-09-10T08:06:19.668Z</time>
      </trkpt>
      <trkpt lat="45.61138" lon="5.8836">
        <ele>248</ele>
        <time>2021-09-10T08:06:20.668Z</time>
      </trkpt>
      <trkpt lat="45.61143" lon="5.88359">
        <ele>249</ele>
        <time>2021-09-10T08:06:21.668Z</time>
      </trkpt>
      <trkpt lat="45.61149" lon="5.88357">
        <ele>249</ele>
        <time>2021-09-10T08:06:22.668Z</time>
      </trkpt>
      <trkpt lat="45.61154" lon="5.88356">
        <ele>249</ele>
        <time>2021-09-10T08:06:23.668Z</time>
      </trkpt>
      <trkpt lat="45.61158" lon="5.88355">
        <ele>249</ele>
        <time>2021-09-10T08:06:24.668Z</time>
      </trkpt>
      <trkpt lat="45.61163" lon="5.88354">
        <ele>249</ele>
        <time>2021-09-10T08:06:25.668Z</time>
      </trkpt>
      <trkpt lat="45.61168" lon="5.88353">
        <ele>249</ele>
        <time>2021-09-10T08:06:26.667Z</time>
      </trkpt>
      <trkpt lat="45.61172" lon="5.88352">
        <ele>249</ele>
        <time>2021-09-10T08:06:27.667Z</time>
      </trkpt>
      <trkpt lat="45.61177" lon="5.88351">
        <ele>249</ele>
        <time>2021-09-10T08:06:28.668Z</time>
      </trkpt>
      <trkpt lat="45.61181" lon="5.8835">
        <ele>248</ele>
        <time>2021-09-10T08:06:29.668Z</time>
      </trkpt>
      <trkpt lat="45.61186" lon="5.88349">
        <ele>248</ele>
        <time>2021-09-10T08:06:30.668Z</time>
      </trkpt>
      <trkpt lat="45.61191" lon="5.88348">
        <ele>248</ele>
        <time>2021-09-10T08:06:31.667Z</time>
      </trkpt>
      <trkpt lat="45.61195" lon="5.88348">
        <ele>248</ele>
        <time>2021-09-10T08:06:32.668Z</time>
      </trkpt>
      <trkpt lat="45.61199" lon="5.88347">
        <ele>248</ele>
        <time>2021-09-10T08:06:33.668Z</time>
      </trkpt>
      <trkpt lat="45.61204" lon="5.88346">
        <ele>248</ele>
        <time>2021-09-10T08:06:34.668Z</time>
      </trkpt>
      <trkpt lat="45.61208" lon="5.88345">
        <ele>248</ele>
        <time>2021-09-10T08:06:35.668Z</time>
      </trkpt>
      <trkpt lat="45.61213" lon="5.88344">
        <ele>248</ele>
        <time>2021-09-10T08:06:36.667Z</time>
      </trkpt>
      <trkpt lat="45.61218" lon="5.88343">
        <ele>248</ele>
        <time>2021-09-10T08:06:37.668Z</time>
      </trkpt>
      <trkpt lat="45.61222" lon="5.88342">
        <ele>249</ele>
        <time>2021-09-10T08:06:38.668Z</time>
      </trkpt>
      <trkpt lat="45.61227" lon="5.88342">
        <ele>249</ele>
        <time>2021-09-10T08:06:39.668Z</time>
      </trkpt>
      <trkpt lat="45.61232" lon="5.88342">
        <ele>249</ele>
        <time>2021-09-10T08:06:40.668Z</time>
      </trkpt>
      <trkpt lat="45.61237" lon="5.88341">
        <ele>249</ele>
        <time>2021-09-10T08:06:41.668Z</time>
      </trkpt>
      <trkpt lat="45.61241" lon="5.8834">
        <ele>249</ele>
        <time>2021-09-10T08:06:42.668Z</time>
      </trkpt>
      <trkpt lat="45.61246" lon="5.8834">
        <ele>249</ele>
        <time>2021-09-10T08:06:43.668Z</time>
      </trkpt>
      <trkpt lat="45.61251" lon="5.88339">
        <ele>248</ele>
        <time>2021-09-10T08:06:44.667Z</time>
      </trkpt>
      <trkpt lat="45.61256" lon="5.88338">
        <ele>248</ele>
        <time>2021-09-10T08:06:45.668Z</time>
      </trkpt>
      <trkpt lat="45.6126" lon="5.88337">
        <ele>248</ele>
        <time>2021-09-10T08:06:46.668Z</time>
      </trkpt>
      <trkpt lat="45.61265" lon="5.88336">
        <ele>248</ele>
        <time>2021-09-10T08:06:47.668Z</time>
      </trkpt>
      <trkpt lat="45.6127" lon="5.88335">
        <ele>248</ele>
        <time>2021-09-10T08:06:48.668Z</time>
      </trkpt>
      <trkpt lat="45.61275" lon="5.88335">
        <ele>247</ele>
        <time>2021-09-10T08:06:49.668Z</time>
      </trkpt>
      <trkpt lat="45.6128" lon="5.88335">
        <ele>248</ele>
        <time>2021-09-10T08:06:50.668Z</time>
      </trkpt>
      <trkpt lat="45.61285" lon="5.88335">
        <ele>248</ele>
        <time>2021-09-10T08:06:51.668Z</time>
      </trkpt>
      <trkpt lat="45.61289" lon="5.88335">
        <ele>249</ele>
        <time>2021-09-10T08:06:52.668Z</time>
      </trkpt>
      <trkpt lat="45.61294" lon="5.88336">
        <ele>249</ele>
        <time>2021-09-10T08:06:53.668Z</time>
      </trkpt>
      <trkpt lat="45.61298" lon="5.88335">
        <ele>249</ele>
        <time>2021-09-10T08:06:54.668Z</time>
      </trkpt>
      <trkpt lat="45.61303" lon="5.88335">
        <ele>249</ele>
        <time>2021-09-10T08:06:55.668Z</time>
      </trkpt>
      <trkpt lat="45.61307" lon="5.88336">
        <ele>249</ele>
        <time>2021-09-10T08:06:56.668Z</time>
      </trkpt>
      <trkpt lat="45.61311" lon="5.88336">
        <ele>249</ele>
        <time>2021-09-10T08:06:57.668Z</time>
      </trkpt>
      <trkpt lat="45.61315" lon="5.88336">
        <ele>249</ele>
        <time>2021-09-10T08:06:58.668Z</time>
      </trkpt>
      <trkpt lat="45.61318" lon="5.88336">
        <ele>248</ele>
        <time>2021-09-10T08:06:59.667Z</time>
      </trkpt>
      <trkpt lat="45.61322" lon="5.88336">
        <ele>248</ele>
        <time>2021-09-10T08:07:00.668Z</time>
      </trkpt>
      <trkpt lat="45.61327" lon="5.88336">
        <ele>248</ele>
        <time>2021-09-10T08:07:01.668Z</time>
      </trkpt>
      <trkpt lat="45.61331" lon="5.88336">
        <ele>248</ele>
        <time>2021-09-10T08:07:02.668Z</time>
      </trkpt>
      <trkpt lat="45.61335" lon="5.88336">
        <ele>248</ele>
        <time>2021-09-10T08:07:03.667Z</time>
      </trkpt>
      <trkpt lat="45.6134" lon="5.88336">
        <ele>248</ele>
        <time>2021-09-10T08:07:04.667Z</time>
      </trkpt>
      <trkpt lat="45.61344" lon="5.88336">
        <ele>248</ele>
        <time>2021-09-10T08:07:05.667Z</time>
      </trkpt>
      <trkpt lat="45.61348" lon="5.88336">
        <ele>248</ele>
        <time>2021-09-10T08:07:06.668Z</time>
      </trkpt>
      <trkpt lat="45.61353" lon="5.88336">
        <ele>247</ele>
        <time>2021-09-10T08:07:07.668Z</time>
      </trkpt>
      <trkpt lat="45.61357" lon="5.88336">
        <ele>247</ele>
        <time>2021-09-10T08:07:08.668Z</time>
      </trkpt>
      <trkpt lat="45.61362" lon="5.88336">
        <ele>247</ele>
        <time>2021-09-10T08:07:09.668Z</time>
      </trkpt>
      <trkpt lat="45.61366" lon="5.88336">
        <ele>246</ele>
        <time>2021-09-10T08:07:10.667Z</time>
      </trkpt>
      <trkpt lat="45.6137" lon="5.88336">
        <ele>246</ele>
        <time>2021-09-10T08:07:11.668Z</time>
      </trkpt>
      <trkpt lat="45.61375" lon="5.88337">
        <ele>246</ele>
        <time>2021-09-10T08:07:12.667Z</time>
      </trkpt>
      <trkpt lat="45.6138" lon="5.88337">
        <ele>246</ele>
        <time>2021-09-10T08:07:13.668Z</time>
      </trkpt>
      <trkpt lat="45.61384" lon="5.88337">
        <ele>246</ele>
        <time>2021-09-10T08:07:14.668Z</time>
      </trkpt>
      <trkpt lat="45.61389" lon="5.88337">
        <ele>247</ele>
        <time>2021-09-10T08:07:15.668Z</time>
      </trkpt>
      <trkpt lat="45.61393" lon="5.88338">
        <ele>247</ele>
        <time>2021-09-10T08:07:16.668Z</time>
      </trkpt>
      <trkpt lat="45.61397" lon="5.88337">
        <ele>246</ele>
        <time>2021-09-10T08:07:17.667Z</time>
      </trkpt>
      <trkpt lat="45.61402" lon="5.88337">
        <ele>246</ele>
        <time>2021-09-10T08:07:18.668Z</time>
      </trkpt>
      <trkpt lat="45.61406" lon="5.88337">
        <ele>246</ele>
        <time>2021-09-10T08:07:19.668Z</time>
      </trkpt>
      <trkpt lat="45.6141" lon="5.88337">
        <ele>246</ele>
        <time>2021-09-10T08:07:20.668Z</time>
      </trkpt>
      <trkpt lat="45.61415" lon="5.88337">
        <ele>246</ele>
        <time>2021-09-10T08:07:21.667Z</time>
      </trkpt>
      <trkpt lat="45.61419" lon="5.88337">
        <ele>247</ele>
        <time>2021-09-10T08:07:22.668Z</time>
      </trkpt>
      <trkpt lat="45.61424" lon="5.88337">
        <ele>247</ele>
        <time>2021-09-10T08:07:23.668Z</time>
      </trkpt>
      <trkpt lat="45.61428" lon="5.88337">
        <ele>247</ele>
        <time>2021-09-10T08:07:24.668Z</time>
      </trkpt>
      <trkpt lat="45.61433" lon="5.88337">
        <ele>247</ele>
        <time>2021-09-10T08:07:25.668Z</time>
      </trkpt>
      <trkpt lat="45.61438" lon="5.88337">
        <ele>247</ele>
        <time>2021-09-10T08:07:26.667Z</time>
      </trkpt>
      <trkpt lat="45.61442" lon="5.88337">
        <ele>247</ele>
        <time>2021-09-10T08:07:27.667Z</time>
      </trkpt>
      <trkpt lat="45.61447" lon="5.88337">
        <ele>246</ele>
        <time>2021-09-10T08:07:28.667Z</time>
      </trkpt>
      <trkpt lat="45.61452" lon="5.88337">
        <ele>246</ele>
        <time>2021-09-10T08:07:29.667Z</time>
      </trkpt>
      <trkpt lat="45.61456" lon="5.88336">
        <ele>245</ele>
        <time>2021-09-10T08:07:30.668Z</time>
      </trkpt>
      <trkpt lat="45.61461" lon="5.88336">
        <ele>245</ele>
        <time>2021-09-10T08:07:31.668Z</time>
      </trkpt>
      <trkpt lat="45.61466" lon="5.88336">
        <ele>245</ele>
        <time>2021-09-10T08:07:32.668Z</time>
      </trkpt>
      <trkpt lat="45.6147" lon="5.88336">
        <ele>246</ele>
        <time>2021-09-10T08:07:33.668Z</time>
      </trkpt>
      <trkpt lat="45.61475" lon="5.88336">
        <ele>246</ele>
        <time>2021-09-10T08:07:34.668Z</time>
      </trkpt>
      <trkpt lat="45.61479" lon="5.88336">
        <ele>246</ele>
        <time>2021-09-10T08:07:35.668Z</time>
      </trkpt>
      <trkpt lat="45.61484" lon="5.88336">
        <ele>246</ele>
        <time>2021-09-10T08:07:36.668Z</time>
      </trkpt>
      <trkpt lat="45.61488" lon="5.88335">
        <ele>247</ele>
        <time>2021-09-10T08:07:37.668Z</time>
      </trkpt>
      <trkpt lat="45.61492" lon="5.88335">
        <ele>247</ele>
        <time>2021-09-10T08:07:38.667Z</time>
      </trkpt>
      <trkpt lat="45.61497" lon="5.88335">
        <ele>247</ele>
        <time>2021-09-10T08:07:39.668Z</time>
      </trkpt>
      <trkpt lat="45.61501" lon="5.88334">
        <ele>248</ele>
        <time>2021-09-10T08:07:40.668Z</time>
      </trkpt>
      <trkpt lat="45.61505" lon="5.88334">
        <ele>248</ele>
        <time>2021-09-10T08:07:41.667Z</time>
      </trkpt>
      <trkpt lat="45.6151" lon="5.88334">
        <ele>248</ele>
        <time>2021-09-10T08:07:42.668Z</time>
      </trkpt>
      <trkpt lat="45.61514" lon="5.88334">
        <ele>248</ele>
        <time>2021-09-10T08:07:43.668Z</time>
      </trkpt>
      <trkpt lat="45.61519" lon="5.88334">
        <ele>248</ele>
        <time>2021-09-10T08:07:44.668Z</time>
      </trkpt>
      <trkpt lat="45.61523" lon="5.88334">
        <ele>248</ele>
        <time>2021-09-10T08:07:45.667Z</time>
      </trkpt>
      <trkpt lat="45.61527" lon="5.88334">
        <ele>248</ele>
        <time>2021-09-10T08:07:46.668Z</time>
      </trkpt>
      <trkpt lat="45.61532" lon="5.88335">
        <ele>248</ele>
        <time>2021-09-10T08:07:47.667Z</time>
      </trkpt>
      <trkpt lat="45.61536" lon="5.88334">
        <ele>248</ele>
        <time>2021-09-10T08:07:48.667Z</time>
      </trkpt>
      <trkpt lat="45.6154" lon="5.88334">
        <ele>248</ele>
        <time>2021-09-10T08:07:49.668Z</time>
      </trkpt>
      <trkpt lat="45.61544" lon="5.88334">
        <ele>249</ele>
        <time>2021-09-10T08:07:50.668Z</time>
      </trkpt>
      <trkpt lat="45.61549" lon="5.88333">
        <ele>249</ele>
        <time>2021-09-10T08:07:51.668Z</time>
      </trkpt>
      <trkpt lat="45.61553" lon="5.88333">
        <ele>249</ele>
        <time>2021-09-10T08:07:52.668Z</time>
      </trkpt>
      <trkpt lat="45.61557" lon="5.88333">
        <ele>249</ele>
        <time>2021-09-10T08:07:53.667Z</time>
      </trkpt>
      <trkpt lat="45.61561" lon="5.88332">
        <ele>249</ele>
        <time>2021-09-10T08:07:54.667Z</time>
      </trkpt>
      <trkpt lat="45.61565" lon="5.88332">
        <ele>249</ele>
        <time>2021-09-10T08:07:55.668Z</time>
      </trkpt>
      <trkpt lat="45.6157" lon="5.88332">
        <ele>249</ele>
        <time>2021-09-10T08:07:56.667Z</time>
      </trkpt>
      <trkpt lat="45.61573" lon="5.88331">
        <ele>249</ele>
        <time>2021-09-10T08:07:57.667Z</time>
      </trkpt>
      <trkpt lat="45.61577" lon="5.88331">
        <ele>250</ele>
        <time>2021-09-10T08:07:58.668Z</time>
      </trkpt>
      <trkpt lat="45.6158" lon="5.88331">
        <ele>250</ele>
        <time>2021-09-10T08:07:59.667Z</time>
      </trkpt>
      <trkpt lat="45.61584" lon="5.88331">
        <ele>249</ele>
        <time>2021-09-10T08:08:00.667Z</time>
      </trkpt>
      <trkpt lat="45.61588" lon="5.88332">
        <ele>249</ele>
        <time>2021-09-10T08:08:01.667Z</time>
      </trkpt>
      <trkpt lat="45.61592" lon="5.88333">
        <ele>248</ele>
        <time>2021-09-10T08:08:02.667Z</time>
      </trkpt>
      <trkpt lat="45.61595" lon="5.88333">
        <ele>248</ele>
        <time>2021-09-10T08:08:03.667Z</time>
      </trkpt>
      <trkpt lat="45.61599" lon="5.88334">
        <ele>248</ele>
        <time>2021-09-10T08:08:04.668Z</time>
      </trkpt>
      <trkpt lat="45.61603" lon="5.88334">
        <ele>247</ele>
        <time>2021-09-10T08:08:05.668Z</time>
      </trkpt>
      <trkpt lat="45.61607" lon="5.88334">
        <ele>247</ele>
        <time>2021-09-10T08:08:06.667Z</time>
      </trkpt>
      <trkpt lat="45.61612" lon="5.88332">
        <ele>246</ele>
        <time>2021-09-10T08:08:07.667Z</time>
      </trkpt>
      <trkpt lat="45.61617" lon="5.88331">
        <ele>246</ele>
        <time>2021-09-10T08:08:08.668Z</time>
      </trkpt>
      <trkpt lat="45.61623" lon="5.88329">
        <ele>246</ele>
        <time>2021-09-10T08:08:09.667Z</time>
      </trkpt>
      <trkpt lat="45.61627" lon="5.88327">
        <ele>246</ele>
        <time>2021-09-10T08:08:10.667Z</time>
      </trkpt>
      <trkpt lat="45.61631" lon="5.88325">
        <ele>245</ele>
        <time>2021-09-10T08:08:11.668Z</time>
      </trkpt>
      <trkpt lat="45.61634" lon="5.88323">
        <ele>245</ele>
        <time>2021-09-10T08:08:12.667Z</time>
      </trkpt>
      <trkpt lat="45.61637" lon="5.88322">
        <ele>245</ele>
        <time>2021-09-10T08:08:13.667Z</time>
      </trkpt>
      <trkpt lat="45.61639" lon="5.88321">
        <ele>245</ele>
        <time>2021-09-10T08:08:14.667Z</time>
      </trkpt>
      <trkpt lat="45.61641" lon="5.88319">
        <ele>245</ele>
        <time>2021-09-10T08:08:15.667Z</time>
      </trkpt>
      <trkpt lat="45.61642" lon="5.88319">
        <ele>244</ele>
        <time>2021-09-10T08:08:16.667Z</time>
      </trkpt>
      <trkpt lat="45.61642" lon="5.88319">
        <ele>244</ele>
        <time>2021-09-10T08:08:17.668Z</time>
      </trkpt>
      <trkpt lat="45.61643" lon="5.88319">
        <ele>244</ele>
        <time>2021-09-10T08:08:18.667Z</time>
      </trkpt>
      <trkpt lat="45.61644" lon="5.88319">
        <ele>244</ele>
        <time>2021-09-10T08:08:19.667Z</time>
      </trkpt>
      <trkpt lat="45.61644" lon="5.8832">
        <ele>244</ele>
        <time>2021-09-10T08:08:20.668Z</time>
      </trkpt>
      <trkpt lat="45.61645" lon="5.88322">
        <ele>243</ele>
        <time>2021-09-10T08:08:21.668Z</time>
      </trkpt>
      <trkpt lat="45.61646" lon="5.88325">
        <ele>244</ele>
        <time>2021-09-10T08:08:22.668Z</time>
      </trkpt>
      <trkpt lat="45.61646" lon="5.88327">
        <ele>243</ele>
        <time>2021-09-10T08:08:23.668Z</time>
      </trkpt>
      <trkpt lat="45.61647" lon="5.88329">
        <ele>243</ele>
        <time>2021-09-10T08:08:24.668Z</time>
      </trkpt>
      <trkpt lat="45.61648" lon="5.8833">
        <ele>243</ele>
        <time>2021-09-10T08:08:25.668Z</time>
      </trkpt>
      <trkpt lat="45.6165" lon="5.88331">
        <ele>243</ele>
        <time>2021-09-10T08:08:26.668Z</time>
      </trkpt>
      <trkpt lat="45.61651" lon="5.88332">
        <ele>243</ele>
        <time>2021-09-10T08:08:27.668Z</time>
      </trkpt>
      <trkpt lat="45.61652" lon="5.88334">
        <ele>243</ele>
        <time>2021-09-10T08:08:28.668Z</time>
      </trkpt>
      <trkpt lat="45.61654" lon="5.88337">
        <ele>243</ele>
        <time>2021-09-10T08:08:29.668Z</time>
      </trkpt>
      <trkpt lat="45.61656" lon="5.88339">
        <ele>244</ele>
        <time>2021-09-10T08:08:30.667Z</time>
      </trkpt>
      <trkpt lat="45.61658" lon="5.8834">
        <ele>243</ele>
        <time>2021-09-10T08:08:31.668Z</time>
      </trkpt>
      <trkpt lat="45.6166" lon="5.88341">
        <ele>243</ele>
        <time>2021-09-10T08:08:32.668Z</time>
      </trkpt>
      <trkpt lat="45.61662" lon="5.88342">
        <ele>243</ele>
        <time>2021-09-10T08:08:33.668Z</time>
      </trkpt>
      <trkpt lat="45.61666" lon="5.88343">
        <ele>243</ele>
        <time>2021-09-10T08:08:34.668Z</time>
      </trkpt>
      <trkpt lat="45.61669" lon="5.88344">
        <ele>243</ele>
        <time>2021-09-10T08:08:35.668Z</time>
      </trkpt>
      <trkpt lat="45.61672" lon="5.88346">
        <ele>244</ele>
        <time>2021-09-10T08:08:36.667Z</time>
      </trkpt>
      <trkpt lat="45.61674" lon="5.88347">
        <ele>244</ele>
        <time>2021-09-10T08:08:37.668Z</time>
      </trkpt>
      <trkpt lat="45.61677" lon="5.88349">
        <ele>244</ele>
        <time>2021-09-10T08:08:38.668Z</time>
      </trkpt>
      <trkpt lat="45.6168" lon="5.8835">
        <ele>244</ele>
        <time>2021-09-10T08:08:39.667Z</time>
      </trkpt>
      <trkpt lat="45.61682" lon="5.88353">
        <ele>244</ele>
        <time>2021-09-10T08:08:40.667Z</time>
      </trkpt>
      <trkpt lat="45.61686" lon="5.88355">
        <ele>244</ele>
        <time>2021-09-10T08:08:41.668Z</time>
      </trkpt>
      <trkpt lat="45.61689" lon="5.88358">
        <ele>244</ele>
        <time>2021-09-10T08:08:42.668Z</time>
      </trkpt>
      <trkpt lat="45.61692" lon="5.8836">
        <ele>244</ele>
        <time>2021-09-10T08:08:43.668Z</time>
      </trkpt>
      <trkpt lat="45.61695" lon="5.88362">
        <ele>244</ele>
        <time>2021-09-10T08:08:44.668Z</time>
      </trkpt>
      <trkpt lat="45.61699" lon="5.88364">
        <ele>244</ele>
        <time>2021-09-10T08:08:45.667Z</time>
      </trkpt>
      <trkpt lat="45.61702" lon="5.88365">
        <ele>244</ele>
        <time>2021-09-10T08:08:46.667Z</time>
      </trkpt>
      <trkpt lat="45.61706" lon="5.88366">
        <ele>244</ele>
        <time>2021-09-10T08:08:47.668Z</time>
      </trkpt>
      <trkpt lat="45.61709" lon="5.88367">
        <ele>243</ele>
        <time>2021-09-10T08:08:48.668Z</time>
      </trkpt>
      <trkpt lat="45.61712" lon="5.88368">
        <ele>243</ele>
        <time>2021-09-10T08:08:49.668Z</time>
      </trkpt>
      <trkpt lat="45.61714" lon="5.88369">
        <ele>242</ele>
        <time>2021-09-10T08:08:50.668Z</time>
      </trkpt>
      <trkpt lat="45.61715" lon="5.88369">
        <ele>242</ele>
        <time>2021-09-10T08:08:51.667Z</time>
      </trkpt>
      <trkpt lat="45.61716" lon="5.8837">
        <ele>241</ele>
        <time>2021-09-10T08:08:52.668Z</time>
      </trkpt>
      <trkpt lat="45.61716" lon="5.8837">
        <ele>241</ele>
        <time>2021-09-10T08:08:53.668Z</time>
      </trkpt>
      <trkpt lat="45.61716" lon="5.88369">
        <ele>241</ele>
        <time>2021-09-10T08:08:54.668Z</time>
      </trkpt>
      <trkpt lat="45.61717" lon="5.8837">
        <ele>241</ele>
        <time>2021-09-10T08:08:55.668Z</time>
      </trkpt>
      <trkpt lat="45.61718" lon="5.88371">
        <ele>242</ele>
        <time>2021-09-10T08:08:56.668Z</time>
      </trkpt>
      <trkpt lat="45.6172" lon="5.88373">
        <ele>242</ele>
        <time>2021-09-10T08:08:57.668Z</time>
      </trkpt>
      <trkpt lat="45.61722" lon="5.88376">
        <ele>242</ele>
        <time>2021-09-10T08:08:58.669Z</time>
      </trkpt>
      <trkpt lat="45.61725" lon="5.88379">
        <ele>242</ele>
        <time>2021-09-10T08:08:59.668Z</time>
      </trkpt>
      <trkpt lat="45.61728" lon="5.88383">
        <ele>242</ele>
        <time>2021-09-10T08:09:00.668Z</time>
      </trkpt>
      <trkpt lat="45.61731" lon="5.88387">
        <ele>242</ele>
        <time>2021-09-10T08:09:01.669Z</time>
      </trkpt>
      <trkpt lat="45.61734" lon="5.88391">
        <ele>242</ele>
        <time>2021-09-10T08:09:02.669Z</time>
      </trkpt>
      <trkpt lat="45.61737" lon="5.88395">
        <ele>243</ele>
        <time>2021-09-10T08:09:03.669Z</time>
      </trkpt>
      <trkpt lat="45.6174" lon="5.88399">
        <ele>243</ele>
        <time>2021-09-10T08:09:04.668Z</time>
      </trkpt>
      <trkpt lat="45.61744" lon="5.88403">
        <ele>243</ele>
        <time>2021-09-10T08:09:05.669Z</time>
      </trkpt>
      <trkpt lat="45.61747" lon="5.88406">
        <ele>243</ele>
        <time>2021-09-10T08:09:06.669Z</time>
      </trkpt>
      <trkpt lat="45.6175" lon="5.88409">
        <ele>243</ele>
        <time>2021-09-10T08:09:07.668Z</time>
      </trkpt>
      <trkpt lat="45.61754" lon="5.88412">
        <ele>243</ele>
        <time>2021-09-10T08:09:08.669Z</time>
      </trkpt>
      <trkpt lat="45.61757" lon="5.88415">
        <ele>243</ele>
        <time>2021-09-10T08:09:09.669Z</time>
      </trkpt>
      <trkpt lat="45.6176" lon="5.88418">
        <ele>243</ele>
        <time>2021-09-10T08:09:10.669Z</time>
      </trkpt>
      <trkpt lat="45.61764" lon="5.88421">
        <ele>243</ele>
        <time>2021-09-10T08:09:11.668Z</time>
      </trkpt>
      <trkpt lat="45.61767" lon="5.88424">
        <ele>242</ele>
        <time>2021-09-10T08:09:12.668Z</time>
      </trkpt>
      <trkpt lat="45.61771" lon="5.88427">
        <ele>242</ele>
        <time>2021-09-10T08:09:13.669Z</time>
      </trkpt>
      <trkpt lat="45.61774" lon="5.88431">
        <ele>241</ele>
        <time>2021-09-10T08:09:14.669Z</time>
      </trkpt>
      <trkpt lat="45.61778" lon="5.88434">
        <ele>241</ele>
        <time>2021-09-10T08:09:15.669Z</time>
      </trkpt>
      <trkpt lat="45.61782" lon="5.88438">
        <ele>241</ele>
        <time>2021-09-10T08:09:16.668Z</time>
      </trkpt>
      <trkpt lat="45.61787" lon="5.88441">
        <ele>240</ele>
        <time>2021-09-10T08:09:17.668Z</time>
      </trkpt>
      <trkpt lat="45.61791" lon="5.88444">
        <ele>239</ele>
        <time>2021-09-10T08:09:18.669Z</time>
      </trkpt>
      <trkpt lat="45.61794" lon="5.88447">
        <ele>239</ele>
        <time>2021-09-10T08:09:19.669Z</time>
      </trkpt>
      <trkpt lat="45.61799" lon="5.8845">
        <ele>239</ele>
        <time>2021-09-10T08:09:20.668Z</time>
      </trkpt>
      <trkpt lat="45.61803" lon="5.88454">
        <ele>239</ele>
        <time>2021-09-10T08:09:21.669Z</time>
      </trkpt>
      <trkpt lat="45.61807" lon="5.88458">
        <ele>239</ele>
        <time>2021-09-10T08:09:22.669Z</time>
      </trkpt>
      <trkpt lat="45.61811" lon="5.88461">
        <ele>239</ele>
        <time>2021-09-10T08:09:23.668Z</time>
      </trkpt>
      <trkpt lat="45.61814" lon="5.88465">
        <ele>239</ele>
        <time>2021-09-10T08:09:24.669Z</time>
      </trkpt>
      <trkpt lat="45.61818" lon="5.88469">
        <ele>239</ele>
        <time>2021-09-10T08:09:25.669Z</time>
      </trkpt>
      <trkpt lat="45.61822" lon="5.88473">
        <ele>239</ele>
        <time>2021-09-10T08:09:26.668Z</time>
      </trkpt>
      <trkpt lat="45.61826" lon="5.88477">
        <ele>239</ele>
        <time>2021-09-10T08:09:27.668Z</time>
      </trkpt>
      <trkpt lat="45.61831" lon="5.88481">
        <ele>239</ele>
        <time>2021-09-10T08:09:28.668Z</time>
      </trkpt>
      <trkpt lat="45.61835" lon="5.88484">
        <ele>238</ele>
        <time>2021-09-10T08:09:29.669Z</time>
      </trkpt>
      <trkpt lat="45.61838" lon="5.88486">
        <ele>238</ele>
        <time>2021-09-10T08:09:30.669Z</time>
      </trkpt>
      <trkpt lat="45.61843" lon="5.8849">
        <ele>238</ele>
        <time>2021-09-10T08:09:31.669Z</time>
      </trkpt>
      <trkpt lat="45.61847" lon="5.88493">
        <ele>238</ele>
        <time>2021-09-10T08:09:32.669Z</time>
      </trkpt>
      <trkpt lat="45.61852" lon="5.88497">
        <ele>237</ele>
        <time>2021-09-10T08:09:33.669Z</time>
      </trkpt>
      <trkpt lat="45.61856" lon="5.885">
        <ele>237</ele>
        <time>2021-09-10T08:09:34.669Z</time>
      </trkpt>
      <trkpt lat="45.6186" lon="5.88504">
        <ele>236</ele>
        <time>2021-09-10T08:09:35.669Z</time>
      </trkpt>
      <trkpt lat="45.61864" lon="5.88508">
        <ele>236</ele>
        <time>2021-09-10T08:09:36.668Z</time>
      </trkpt>
      <trkpt lat="45.61868" lon="5.88512">
        <ele>235</ele>
        <time>2021-09-10T08:09:37.668Z</time>
      </trkpt>
      <trkpt lat="45.61872" lon="5.88515">
        <ele>235</ele>
        <time>2021-09-10T08:09:38.668Z</time>
      </trkpt>
      <trkpt lat="45.61876" lon="5.88519">
        <ele>236</ele>
        <time>2021-09-10T08:09:39.668Z</time>
      </trkpt>
      <trkpt lat="45.6188" lon="5.88523">
        <ele>236</ele>
        <time>2021-09-10T08:09:40.669Z</time>
      </trkpt>
      <trkpt lat="45.61884" lon="5.88526">
        <ele>236</ele>
        <time>2021-09-10T08:09:41.669Z</time>
      </trkpt>
      <trkpt lat="45.61888" lon="5.8853">
        <ele>236</ele>
        <time>2021-09-10T08:09:42.669Z</time>
      </trkpt>
      <trkpt lat="45.61893" lon="5.88534">
        <ele>236</ele>
        <time>2021-09-10T08:09:43.669Z</time>
      </trkpt>
      <trkpt lat="45.61897" lon="5.88538">
        <ele>237</ele>
        <time>2021-09-10T08:09:44.669Z</time>
      </trkpt>
      <trkpt lat="45.61902" lon="5.88542">
        <ele>237</ele>
        <time>2021-09-10T08:09:45.668Z</time>
      </trkpt>
      <trkpt lat="45.61905" lon="5.88545">
        <ele>237</ele>
        <time>2021-09-10T08:09:46.669Z</time>
      </trkpt>
      <trkpt lat="45.6191" lon="5.88549">
        <ele>238</ele>
        <time>2021-09-10T08:09:47.669Z</time>
      </trkpt>
      <trkpt lat="45.61914" lon="5.88553">
        <ele>239</ele>
        <time>2021-09-10T08:09:48.669Z</time>
      </trkpt>
      <trkpt lat="45.61918" lon="5.88557">
        <ele>239</ele>
        <time>2021-09-10T08:09:49.668Z</time>
      </trkpt>
      <trkpt lat="45.61923" lon="5.8856">
        <ele>239</ele>
        <time>2021-09-10T08:09:50.669Z</time>
      </trkpt>
      <trkpt lat="45.61927" lon="5.88564">
        <ele>239</ele>
        <time>2021-09-10T08:09:51.669Z</time>
      </trkpt>
      <trkpt lat="45.61931" lon="5.88568">
        <ele>239</ele>
        <time>2021-09-10T08:09:52.669Z</time>
      </trkpt>
      <trkpt lat="45.61935" lon="5.88571">
        <ele>239</ele>
        <time>2021-09-10T08:09:53.669Z</time>
      </trkpt>
      <trkpt lat="45.6194" lon="5.88575">
        <ele>239</ele>
        <time>2021-09-10T08:09:54.669Z</time>
      </trkpt>
      <trkpt lat="45.61944" lon="5.88578">
        <ele>239</ele>
        <time>2021-09-10T08:09:55.669Z</time>
      </trkpt>
      <trkpt lat="45.61948" lon="5.88582">
        <ele>239</ele>
        <time>2021-09-10T08:09:56.668Z</time>
      </trkpt>
      <trkpt lat="45.61952" lon="5.88585">
        <ele>240</ele>
        <time>2021-09-10T08:09:57.669Z</time>
      </trkpt>
      <trkpt lat="45.61956" lon="5.88589">
        <ele>240</ele>
        <time>2021-09-10T08:09:58.668Z</time>
      </trkpt>
      <trkpt lat="45.61961" lon="5.88592">
        <ele>240</ele>
        <time>2021-09-10T08:09:59.669Z</time>
      </trkpt>
      <trkpt lat="45.61965" lon="5.88595">
        <ele>240</ele>
        <time>2021-09-10T08:10:00.669Z</time>
      </trkpt>
      <trkpt lat="45.6197" lon="5.88599">
        <ele>240</ele>
        <time>2021-09-10T08:10:01.669Z</time>
      </trkpt>
      <trkpt lat="45.61974" lon="5.88602">
        <ele>241</ele>
        <time>2021-09-10T08:10:02.669Z</time>
      </trkpt>
      <trkpt lat="45.61978" lon="5.88606">
        <ele>241</ele>
        <time>2021-09-10T08:10:03.669Z</time>
      </trkpt>
      <trkpt lat="45.61983" lon="5.88609">
        <ele>241</ele>
        <time>2021-09-10T08:10:04.668Z</time>
      </trkpt>
      <trkpt lat="45.61987" lon="5.88613">
        <ele>241</ele>
        <time>2021-09-10T08:10:05.669Z</time>
      </trkpt>
      <trkpt lat="45.61991" lon="5.88616">
        <ele>241</ele>
        <time>2021-09-10T08:10:06.669Z</time>
      </trkpt>
      <trkpt lat="45.61996" lon="5.8862">
        <ele>240</ele>
        <time>2021-09-10T08:10:07.669Z</time>
      </trkpt>
      <trkpt lat="45.62001" lon="5.88623">
        <ele>240</ele>
        <time>2021-09-10T08:10:08.669Z</time>
      </trkpt>
      <trkpt lat="45.62005" lon="5.88626">
        <ele>241</ele>
        <time>2021-09-10T08:10:09.669Z</time>
      </trkpt>
      <trkpt lat="45.6201" lon="5.88629">
        <ele>240</ele>
        <time>2021-09-10T08:10:10.668Z</time>
      </trkpt>
      <trkpt lat="45.62014" lon="5.88632">
        <ele>240</ele>
        <time>2021-09-10T08:10:11.669Z</time>
      </trkpt>
      <trkpt lat="45.62019" lon="5.88635">
        <ele>240</ele>
        <time>2021-09-10T08:10:12.669Z</time>
      </trkpt>
      <trkpt lat="45.62024" lon="5.88637">
        <ele>239</ele>
        <time>2021-09-10T08:10:13.669Z</time>
      </trkpt>
      <trkpt lat="45.62029" lon="5.88639">
        <ele>239</ele>
        <time>2021-09-10T08:10:14.668Z</time>
      </trkpt>
      <trkpt lat="45.62033" lon="5.88641">
        <ele>239</ele>
        <time>2021-09-10T08:10:15.669Z</time>
      </trkpt>
      <trkpt lat="45.62037" lon="5.88644">
        <ele>239</ele>
        <time>2021-09-10T08:10:16.669Z</time>
      </trkpt>
      <trkpt lat="45.62041" lon="5.88648">
        <ele>239</ele>
        <time>2021-09-10T08:10:17.668Z</time>
      </trkpt>
      <trkpt lat="45.62045" lon="5.88652">
        <ele>239</ele>
        <time>2021-09-10T08:10:18.669Z</time>
      </trkpt>
      <trkpt lat="45.62049" lon="5.88656">
        <ele>239</ele>
        <time>2021-09-10T08:10:19.669Z</time>
      </trkpt>
      <trkpt lat="45.62053" lon="5.8866">
        <ele>239</ele>
        <time>2021-09-10T08:10:20.669Z</time>
      </trkpt>
      <trkpt lat="45.62057" lon="5.88664">
        <ele>239</ele>
        <time>2021-09-10T08:10:21.668Z</time>
      </trkpt>
      <trkpt lat="45.62061" lon="5.88668">
        <ele>239</ele>
        <time>2021-09-10T08:10:22.669Z</time>
      </trkpt>
      <trkpt lat="45.62065" lon="5.88672">
        <ele>240</ele>
        <time>2021-09-10T08:10:23.668Z</time>
      </trkpt>
      <trkpt lat="45.62069" lon="5.88676">
        <ele>239</ele>
        <time>2021-09-10T08:10:24.669Z</time>
      </trkpt>
      <trkpt lat="45.62074" lon="5.8868">
        <ele>239</ele>
        <time>2021-09-10T08:10:25.668Z</time>
      </trkpt>
      <trkpt lat="45.62078" lon="5.88683">
        <ele>239</ele>
        <time>2021-09-10T08:10:26.669Z</time>
      </trkpt>
      <trkpt lat="45.62082" lon="5.88687">
        <ele>239</ele>
        <time>2021-09-10T08:10:27.669Z</time>
      </trkpt>
      <trkpt lat="45.62087" lon="5.88691">
        <ele>239</ele>
        <time>2021-09-10T08:10:28.668Z</time>
      </trkpt>
      <trkpt lat="45.62091" lon="5.88695">
        <ele>239</ele>
        <time>2021-09-10T08:10:29.668Z</time>
      </trkpt>
      <trkpt lat="45.62095" lon="5.88698">
        <ele>239</ele>
        <time>2021-09-10T08:10:30.668Z</time>
      </trkpt>
      <trkpt lat="45.621" lon="5.88702">
        <ele>239</ele>
        <time>2021-09-10T08:10:31.669Z</time>
      </trkpt>
      <trkpt lat="45.62104" lon="5.88706">
        <ele>239</ele>
        <time>2021-09-10T08:10:32.669Z</time>
      </trkpt>
      <trkpt lat="45.62108" lon="5.88709">
        <ele>238</ele>
        <time>2021-09-10T08:10:33.669Z</time>
      </trkpt>
      <trkpt lat="45.62112" lon="5.88713">
        <ele>238</ele>
        <time>2021-09-10T08:10:34.668Z</time>
      </trkpt>
      <trkpt lat="45.62117" lon="5.88717">
        <ele>238</ele>
        <time>2021-09-10T08:10:35.668Z</time>
      </trkpt>
      <trkpt lat="45.62121" lon="5.88721">
        <ele>238</ele>
        <time>2021-09-10T08:10:36.668Z</time>
      </trkpt>
      <trkpt lat="45.62125" lon="5.88724">
        <ele>238</ele>
        <time>2021-09-10T08:10:37.669Z</time>
      </trkpt>
      <trkpt lat="45.62129" lon="5.88728">
        <ele>237</ele>
        <time>2021-09-10T08:10:38.668Z</time>
      </trkpt>
      <trkpt lat="45.62134" lon="5.88731">
        <ele>238</ele>
        <time>2021-09-10T08:10:39.668Z</time>
      </trkpt>
      <trkpt lat="45.62138" lon="5.88735">
        <ele>238</ele>
        <time>2021-09-10T08:10:40.669Z</time>
      </trkpt>
      <trkpt lat="45.62142" lon="5.88738">
        <ele>238</ele>
        <time>2021-09-10T08:10:41.669Z</time>
      </trkpt>
      <trkpt lat="45.62147" lon="5.88742">
        <ele>238</ele>
        <time>2021-09-10T08:10:42.669Z</time>
      </trkpt>
      <trkpt lat="45.62151" lon="5.88745">
        <ele>238</ele>
        <time>2021-09-10T08:10:43.669Z</time>
      </trkpt>
      <trkpt lat="45.62156" lon="5.88748">
        <ele>238</ele>
        <time>2021-09-10T08:10:44.669Z</time>
      </trkpt>
      <trkpt lat="45.62161" lon="5.88751">
        <ele>238</ele>
        <time>2021-09-10T08:10:45.668Z</time>
      </trkpt>
      <trkpt lat="45.62165" lon="5.88754">
        <ele>238</ele>
        <time>2021-09-10T08:10:46.669Z</time>
      </trkpt>
      <trkpt lat="45.6217" lon="5.88756">
        <ele>238</ele>
        <time>2021-09-10T08:10:47.669Z</time>
      </trkpt>
      <trkpt lat="45.62175" lon="5.88759">
        <ele>238</ele>
        <time>2021-09-10T08:10:48.669Z</time>
      </trkpt>
      <trkpt lat="45.62179" lon="5.88762">
        <ele>238</ele>
        <time>2021-09-10T08:10:49.669Z</time>
      </trkpt>
      <trkpt lat="45.62184" lon="5.88765">
        <ele>237</ele>
        <time>2021-09-10T08:10:50.669Z</time>
      </trkpt>
      <trkpt lat="45.62188" lon="5.88767">
        <ele>237</ele>
        <time>2021-09-10T08:10:51.669Z</time>
      </trkpt>
      <trkpt lat="45.62193" lon="5.8877">
        <ele>236</ele>
        <time>2021-09-10T08:10:52.669Z</time>
      </trkpt>
      <trkpt lat="45.62198" lon="5.88773">
        <ele>235</ele>
        <time>2021-09-10T08:10:53.669Z</time>
      </trkpt>
      <trkpt lat="45.62202" lon="5.88775">
        <ele>235</ele>
        <time>2021-09-10T08:10:54.668Z</time>
      </trkpt>
      <trkpt lat="45.62206" lon="5.88778">
        <ele>234</ele>
        <time>2021-09-10T08:10:55.669Z</time>
      </trkpt>
      <trkpt lat="45.6221" lon="5.88781">
        <ele>234</ele>
        <time>2021-09-10T08:10:56.669Z</time>
      </trkpt>
      <trkpt lat="45.62214" lon="5.88784">
        <ele>234</ele>
        <time>2021-09-10T08:10:57.668Z</time>
      </trkpt>
      <trkpt lat="45.62219" lon="5.88788">
        <ele>233</ele>
        <time>2021-09-10T08:10:58.669Z</time>
      </trkpt>
      <trkpt lat="45.62223" lon="5.88791">
        <ele>233</ele>
        <time>2021-09-10T08:10:59.668Z</time>
      </trkpt>
      <trkpt lat="45.62227" lon="5.88794">
        <ele>233</ele>
        <time>2021-09-10T08:11:00.668Z</time>
      </trkpt>
      <trkpt lat="45.62231" lon="5.88798">
        <ele>233</ele>
        <time>2021-09-10T08:11:01.669Z</time>
      </trkpt>
      <trkpt lat="45.62235" lon="5.88801">
        <ele>233</ele>
        <time>2021-09-10T08:11:02.669Z</time>
      </trkpt>
      <trkpt lat="45.62239" lon="5.88805">
        <ele>233</ele>
        <time>2021-09-10T08:11:03.668Z</time>
      </trkpt>
      <trkpt lat="45.62243" lon="5.88808">
        <ele>233</ele>
        <time>2021-09-10T08:11:04.668Z</time>
      </trkpt>
      <trkpt lat="45.62248" lon="5.88812">
        <ele>233</ele>
        <time>2021-09-10T08:11:05.669Z</time>
      </trkpt>
      <trkpt lat="45.62252" lon="5.88815">
        <ele>234</ele>
        <time>2021-09-10T08:11:06.669Z</time>
      </trkpt>
      <trkpt lat="45.62256" lon="5.88818">
        <ele>234</ele>
        <time>2021-09-10T08:11:07.669Z</time>
      </trkpt>
      <trkpt lat="45.62261" lon="5.88822">
        <ele>234</ele>
        <time>2021-09-10T08:11:08.669Z</time>
      </trkpt>
      <trkpt lat="45.62265" lon="5.88826">
        <ele>234</ele>
        <time>2021-09-10T08:11:09.669Z</time>
      </trkpt>
      <trkpt lat="45.62269" lon="5.8883">
        <ele>235</ele>
        <time>2021-09-10T08:11:10.668Z</time>
      </trkpt>
      <trkpt lat="45.62274" lon="5.88833">
        <ele>235</ele>
        <time>2021-09-10T08:11:11.669Z</time>
      </trkpt>
      <trkpt lat="45.62278" lon="5.88837">
        <ele>235</ele>
        <time>2021-09-10T08:11:12.669Z</time>
      </trkpt>
      <trkpt lat="45.62283" lon="5.8884">
        <ele>235</ele>
        <time>2021-09-10T08:11:13.668Z</time>
      </trkpt>
      <trkpt lat="45.62288" lon="5.88843">
        <ele>235</ele>
        <time>2021-09-10T08:11:14.668Z</time>
      </trkpt>
      <trkpt lat="45.62292" lon="5.88846">
        <ele>235</ele>
        <time>2021-09-10T08:11:15.668Z</time>
      </trkpt>
      <trkpt lat="45.62297" lon="5.88849">
        <ele>236</ele>
        <time>2021-09-10T08:11:16.669Z</time>
      </trkpt>
      <trkpt lat="45.62302" lon="5.88851">
        <ele>236</ele>
        <time>2021-09-10T08:11:17.669Z</time>
      </trkpt>
      <trkpt lat="45.62307" lon="5.88854">
        <ele>236</ele>
        <time>2021-09-10T08:11:18.668Z</time>
      </trkpt>
      <trkpt lat="45.62311" lon="5.88856">
        <ele>236</ele>
        <time>2021-09-10T08:11:19.668Z</time>
      </trkpt>
      <trkpt lat="45.62316" lon="5.88858">
        <ele>236</ele>
        <time>2021-09-10T08:11:20.668Z</time>
      </trkpt>
      <trkpt lat="45.62321" lon="5.8886">
        <ele>236</ele>
        <time>2021-09-10T08:11:21.668Z</time>
      </trkpt>
      <trkpt lat="45.62326" lon="5.88861">
        <ele>236</ele>
        <time>2021-09-10T08:11:22.668Z</time>
      </trkpt>
      <trkpt lat="45.62331" lon="5.88863">
        <ele>236</ele>
        <time>2021-09-10T08:11:23.669Z</time>
      </trkpt>
      <trkpt lat="45.62336" lon="5.88864">
        <ele>236</ele>
        <time>2021-09-10T08:11:24.668Z</time>
      </trkpt>
      <trkpt lat="45.62341" lon="5.88865">
        <ele>236</ele>
        <time>2021-09-10T08:11:25.669Z</time>
      </trkpt>
      <trkpt lat="45.62346" lon="5.88867">
        <ele>236</ele>
        <time>2021-09-10T08:11:26.668Z</time>
      </trkpt>
      <trkpt lat="45.62351" lon="5.88868">
        <ele>237</ele>
        <time>2021-09-10T08:11:27.668Z</time>
      </trkpt>
      <trkpt lat="45.62356" lon="5.88869">
        <ele>237</ele>
        <time>2021-09-10T08:11:28.669Z</time>
      </trkpt>
      <trkpt lat="45.6236" lon="5.8887">
        <ele>237</ele>
        <time>2021-09-10T08:11:29.668Z</time>
      </trkpt>
      <trkpt lat="45.62366" lon="5.88872">
        <ele>237</ele>
        <time>2021-09-10T08:11:30.668Z</time>
      </trkpt>
      <trkpt lat="45.62372" lon="5.88874">
        <ele>237</ele>
        <time>2021-09-10T08:11:31.669Z</time>
      </trkpt>
      <trkpt lat="45.62377" lon="5.88875">
        <ele>237</ele>
        <time>2021-09-10T08:11:32.669Z</time>
      </trkpt>
      <trkpt lat="45.62382" lon="5.88876">
        <ele>236</ele>
        <time>2021-09-10T08:11:33.669Z</time>
      </trkpt>
      <trkpt lat="45.62387" lon="5.88877">
        <ele>236</ele>
        <time>2021-09-10T08:11:34.669Z</time>
      </trkpt>
      <trkpt lat="45.62391" lon="5.88878">
        <ele>236</ele>
        <time>2021-09-10T08:11:35.669Z</time>
      </trkpt>
      <trkpt lat="45.62397" lon="5.8888">
        <ele>235</ele>
        <time>2021-09-10T08:11:36.669Z</time>
      </trkpt>
      <trkpt lat="45.62402" lon="5.88881">
        <ele>235</ele>
        <time>2021-09-10T08:11:37.669Z</time>
      </trkpt>
      <trkpt lat="45.62406" lon="5.88882">
        <ele>235</ele>
        <time>2021-09-10T08:11:38.669Z</time>
      </trkpt>
      <trkpt lat="45.62411" lon="5.88883">
        <ele>236</ele>
        <time>2021-09-10T08:11:39.668Z</time>
      </trkpt>
      <trkpt lat="45.62415" lon="5.88884">
        <ele>236</ele>
        <time>2021-09-10T08:11:40.668Z</time>
      </trkpt>
      <trkpt lat="45.62419" lon="5.88885">
        <ele>236</ele>
        <time>2021-09-10T08:11:41.668Z</time>
      </trkpt>
      <trkpt lat="45.62424" lon="5.88887">
        <ele>236</ele>
        <time>2021-09-10T08:11:42.669Z</time>
      </trkpt>
      <trkpt lat="45.62429" lon="5.88888">
        <ele>236</ele>
        <time>2021-09-10T08:11:43.668Z</time>
      </trkpt>
      <trkpt lat="45.62433" lon="5.88889">
        <ele>236</ele>
        <time>2021-09-10T08:11:44.669Z</time>
      </trkpt>
      <trkpt lat="45.62438" lon="5.8889">
        <ele>236</ele>
        <time>2021-09-10T08:11:45.669Z</time>
      </trkpt>
      <trkpt lat="45.62442" lon="5.88891">
        <ele>237</ele>
        <time>2021-09-10T08:11:46.669Z</time>
      </trkpt>
      <trkpt lat="45.62447" lon="5.88893">
        <ele>237</ele>
        <time>2021-09-10T08:11:47.669Z</time>
      </trkpt>
      <trkpt lat="45.62452" lon="5.88893">
        <ele>237</ele>
        <time>2021-09-10T08:11:48.668Z</time>
      </trkpt>
      <trkpt lat="45.62456" lon="5.88894">
        <ele>237</ele>
        <time>2021-09-10T08:11:49.669Z</time>
      </trkpt>
      <trkpt lat="45.62461" lon="5.88895">
        <ele>238</ele>
        <time>2021-09-10T08:11:50.669Z</time>
      </trkpt>
      <trkpt lat="45.62465" lon="5.88897">
        <ele>238</ele>
        <time>2021-09-10T08:11:51.668Z</time>
      </trkpt>
      <trkpt lat="45.62469" lon="5.88898">
        <ele>239</ele>
        <time>2021-09-10T08:11:52.669Z</time>
      </trkpt>
      <trkpt lat="45.62473" lon="5.88899">
        <ele>239</ele>
        <time>2021-09-10T08:11:53.669Z</time>
      </trkpt>
      <trkpt lat="45.62478" lon="5.889">
        <ele>239</ele>
        <time>2021-09-10T08:11:54.669Z</time>
      </trkpt>
      <trkpt lat="45.62482" lon="5.88902">
        <ele>239</ele>
        <time>2021-09-10T08:11:55.668Z</time>
      </trkpt>
      <trkpt lat="45.62485" lon="5.88903">
        <ele>239</ele>
        <time>2021-09-10T08:11:56.669Z</time>
      </trkpt>
      <trkpt lat="45.62491" lon="5.88905">
        <ele>240</ele>
        <time>2021-09-10T08:11:57.668Z</time>
      </trkpt>
      <trkpt lat="45.62495" lon="5.88907">
        <ele>240</ele>
        <time>2021-09-10T08:11:58.668Z</time>
      </trkpt>
      <trkpt lat="45.62499" lon="5.8891">
        <ele>240</ele>
        <time>2021-09-10T08:11:59.669Z</time>
      </trkpt>
      <trkpt lat="45.62503" lon="5.88913">
        <ele>241</ele>
        <time>2021-09-10T08:12:00.669Z</time>
      </trkpt>
      <trkpt lat="45.62507" lon="5.88916">
        <ele>241</ele>
        <time>2021-09-10T08:12:01.669Z</time>
      </trkpt>
      <trkpt lat="45.6251" lon="5.88919">
        <ele>242</ele>
        <time>2021-09-10T08:12:02.669Z</time>
      </trkpt>
      <trkpt lat="45.62514" lon="5.88923">
        <ele>241</ele>
        <time>2021-09-10T08:12:03.669Z</time>
      </trkpt>
      <trkpt lat="45.62517" lon="5.88927">
        <ele>241</ele>
        <time>2021-09-10T08:12:04.669Z</time>
      </trkpt>
      <trkpt lat="45.6252" lon="5.88931">
        <ele>241</ele>
        <time>2021-09-10T08:12:05.669Z</time>
      </trkpt>
      <trkpt lat="45.62522" lon="5.88936">
        <ele>240</ele>
        <time>2021-09-10T08:12:06.669Z</time>
      </trkpt>
      <trkpt lat="45.62525" lon="5.88941">
        <ele>240</ele>
        <time>2021-09-10T08:12:07.669Z</time>
      </trkpt>
      <trkpt lat="45.62528" lon="5.88946">
        <ele>240</ele>
        <time>2021-09-10T08:12:08.669Z</time>
      </trkpt>
      <trkpt lat="45.6253" lon="5.88951">
        <ele>240</ele>
        <time>2021-09-10T08:12:09.668Z</time>
      </trkpt>
      <trkpt lat="45.62532" lon="5.88957">
        <ele>240</ele>
        <time>2021-09-10T08:12:10.669Z</time>
      </trkpt>
      <trkpt lat="45.62534" lon="5.88962">
        <ele>240</ele>
        <time>2021-09-10T08:12:11.669Z</time>
      </trkpt>
      <trkpt lat="45.62536" lon="5.88966">
        <ele>240</ele>
        <time>2021-09-10T08:12:12.668Z</time>
      </trkpt>
      <trkpt lat="45.62539" lon="5.8897">
        <ele>240</ele>
        <time>2021-09-10T08:12:13.669Z</time>
      </trkpt>
      <trkpt lat="45.62541" lon="5.88973">
        <ele>240</ele>
        <time>2021-09-10T08:12:14.669Z</time>
      </trkpt>
      <trkpt lat="45.62545" lon="5.88975">
        <ele>240</ele>
        <time>2021-09-10T08:12:15.668Z</time>
      </trkpt>
      <trkpt lat="45.62548" lon="5.88976">
        <ele>240</ele>
        <time>2021-09-10T08:12:16.668Z</time>
      </trkpt>
      <trkpt lat="45.62551" lon="5.88978">
        <ele>240</ele>
        <time>2021-09-10T08:12:17.669Z</time>
      </trkpt>
      <trkpt lat="45.62554" lon="5.88981">
        <ele>240</ele>
        <time>2021-09-10T08:12:18.669Z</time>
      </trkpt>
      <trkpt lat="45.62557" lon="5.88983">
        <ele>240</ele>
        <time>2021-09-10T08:12:19.669Z</time>
      </trkpt>
      <trkpt lat="45.6256" lon="5.88987">
        <ele>240</ele>
        <time>2021-09-10T08:12:20.669Z</time>
      </trkpt>
      <trkpt lat="45.62563" lon="5.88992">
        <ele>239</ele>
        <time>2021-09-10T08:12:21.669Z</time>
      </trkpt>
      <trkpt lat="45.62566" lon="5.88998">
        <ele>240</ele>
        <time>2021-09-10T08:12:22.669Z</time>
      </trkpt>
      <trkpt lat="45.62568" lon="5.89004">
        <ele>240</ele>
        <time>2021-09-10T08:12:23.668Z</time>
      </trkpt>
      <trkpt lat="45.62569" lon="5.8901">
        <ele>240</ele>
        <time>2021-09-10T08:12:24.669Z</time>
      </trkpt>
      <trkpt lat="45.62571" lon="5.89017">
        <ele>240</ele>
        <time>2021-09-10T08:12:25.669Z</time>
      </trkpt>
      <trkpt lat="45.62573" lon="5.89024">
        <ele>240</ele>
        <time>2021-09-10T08:12:26.669Z</time>
      </trkpt>
      <trkpt lat="45.62575" lon="5.89032">
        <ele>240</ele>
        <time>2021-09-10T08:12:27.669Z</time>
      </trkpt>
      <trkpt lat="45.62578" lon="5.89039">
        <ele>240</ele>
        <time>2021-09-10T08:12:28.669Z</time>
      </trkpt>
      <trkpt lat="45.6258" lon="5.89047">
        <ele>241</ele>
        <time>2021-09-10T08:12:29.669Z</time>
      </trkpt>
      <trkpt lat="45.62583" lon="5.89054">
        <ele>241</ele>
        <time>2021-09-10T08:12:30.669Z</time>
      </trkpt>
      <trkpt lat="45.62587" lon="5.89062">
        <ele>241</ele>
        <time>2021-09-10T08:12:31.669Z</time>
      </trkpt>
      <trkpt lat="45.62591" lon="5.89069">
        <ele>241</ele>
        <time>2021-09-10T08:12:32.669Z</time>
      </trkpt>
      <trkpt lat="45.62595" lon="5.89075">
        <ele>240</ele>
        <time>2021-09-10T08:12:33.668Z</time>
      </trkpt>
      <trkpt lat="45.626" lon="5.89081">
        <ele>240</ele>
        <time>2021-09-10T08:12:34.669Z</time>
      </trkpt>
      <trkpt lat="45.62606" lon="5.89086">
        <ele>240</ele>
        <time>2021-09-10T08:12:35.668Z</time>
      </trkpt>
      <trkpt lat="45.62611" lon="5.89091">
        <ele>239</ele>
        <time>2021-09-10T08:12:36.669Z</time>
      </trkpt>
      <trkpt lat="45.62617" lon="5.89095">
        <ele>239</ele>
        <time>2021-09-10T08:12:37.669Z</time>
      </trkpt>
      <trkpt lat="45.62623" lon="5.89098">
        <ele>239</ele>
        <time>2021-09-10T08:12:38.668Z</time>
      </trkpt>
      <trkpt lat="45.62629" lon="5.89101">
        <ele>239</ele>
        <time>2021-09-10T08:12:39.669Z</time>
      </trkpt>
      <trkpt lat="45.62635" lon="5.89104">
        <ele>238</ele>
        <time>2021-09-10T08:12:40.669Z</time>
      </trkpt>
      <trkpt lat="45.62641" lon="5.89106">
        <ele>238</ele>
        <time>2021-09-10T08:12:41.669Z</time>
      </trkpt>
      <trkpt lat="45.62647" lon="5.89108">
        <ele>238</ele>
        <time>2021-09-10T08:12:42.669Z</time>
      </trkpt>
      <trkpt lat="45.62653" lon="5.89109">
        <ele>238</ele>
        <time>2021-09-10T08:12:43.669Z</time>
      </trkpt>
      <trkpt lat="45.62658" lon="5.8911">
        <ele>237</ele>
        <time>2021-09-10T08:12:44.668Z</time>
      </trkpt>
      <trkpt lat="45.62665" lon="5.89112">
        <ele>237</ele>
        <time>2021-09-10T08:12:45.669Z</time>
      </trkpt>
      <trkpt lat="45.62671" lon="5.89114">
        <ele>237</ele>
        <time>2021-09-10T08:12:46.669Z</time>
      </trkpt>
      <trkpt lat="45.62677" lon="5.89115">
        <ele>236</ele>
        <time>2021-09-10T08:12:47.668Z</time>
      </trkpt>
      <trkpt lat="45.62683" lon="5.89117">
        <ele>236</ele>
        <time>2021-09-10T08:12:48.668Z</time>
      </trkpt>
      <trkpt lat="45.62687" lon="5.89118">
        <ele>236</ele>
        <time>2021-09-10T08:12:49.669Z</time>
      </trkpt>
      <trkpt lat="45.62693" lon="5.89119">
        <ele>236</ele>
        <time>2021-09-10T08:12:50.669Z</time>
      </trkpt>
      <trkpt lat="45.627" lon="5.89121">
        <ele>236</ele>
        <time>2021-09-10T08:12:51.669Z</time>
      </trkpt>
      <trkpt lat="45.62706" lon="5.89122">
        <ele>236</ele>
        <time>2021-09-10T08:12:52.669Z</time>
      </trkpt>
      <trkpt lat="45.62711" lon="5.89123">
        <ele>236</ele>
        <time>2021-09-10T08:12:53.669Z</time>
      </trkpt>
      <trkpt lat="45.62716" lon="5.89123">
        <ele>236</ele>
        <time>2021-09-10T08:12:54.669Z</time>
      </trkpt>
      <trkpt lat="45.62721" lon="5.89124">
        <ele>236</ele>
        <time>2021-09-10T08:12:55.668Z</time>
      </trkpt>
      <trkpt lat="45.62727" lon="5.89125">
        <ele>236</ele>
        <time>2021-09-10T08:12:56.669Z</time>
      </trkpt>
      <trkpt lat="45.62731" lon="5.89126">
        <ele>236</ele>
        <time>2021-09-10T08:12:57.668Z</time>
      </trkpt>
      <trkpt lat="45.62736" lon="5.89126">
        <ele>236</ele>
        <time>2021-09-10T08:12:58.669Z</time>
      </trkpt>
      <trkpt lat="45.6274" lon="5.89127">
        <ele>236</ele>
        <time>2021-09-10T08:12:59.669Z</time>
      </trkpt>
      <trkpt lat="45.62744" lon="5.89127">
        <ele>236</ele>
        <time>2021-09-10T08:13:00.668Z</time>
      </trkpt>
      <trkpt lat="45.62749" lon="5.89128">
        <ele>236</ele>
        <time>2021-09-10T08:13:01.669Z</time>
      </trkpt>
      <trkpt lat="45.62755" lon="5.89128">
        <ele>236</ele>
        <time>2021-09-10T08:13:02.668Z</time>
      </trkpt>
      <trkpt lat="45.6276" lon="5.89129">
        <ele>237</ele>
        <time>2021-09-10T08:13:03.669Z</time>
      </trkpt>
      <trkpt lat="45.62763" lon="5.89129">
        <ele>237</ele>
        <time>2021-09-10T08:13:04.668Z</time>
      </trkpt>
      <trkpt lat="45.62768" lon="5.89129">
        <ele>237</ele>
        <time>2021-09-10T08:13:05.669Z</time>
      </trkpt>
      <trkpt lat="45.62773" lon="5.8913">
        <ele>237</ele>
        <time>2021-09-10T08:13:06.668Z</time>
      </trkpt>
      <trkpt lat="45.62777" lon="5.8913">
        <ele>237</ele>
        <time>2021-09-10T08:13:07.669Z</time>
      </trkpt>
      <trkpt lat="45.62781" lon="5.8913">
        <ele>236</ele>
        <time>2021-09-10T08:13:08.668Z</time>
      </trkpt>
      <trkpt lat="45.62785" lon="5.89131">
        <ele>236</ele>
        <time>2021-09-10T08:13:09.669Z</time>
      </trkpt>
      <trkpt lat="45.62789" lon="5.89131">
        <ele>236</ele>
        <time>2021-09-10T08:13:10.669Z</time>
      </trkpt>
      <trkpt lat="45.62793" lon="5.89131">
        <ele>236</ele>
        <time>2021-09-10T08:13:11.669Z</time>
      </trkpt>
      <trkpt lat="45.62797" lon="5.89132">
        <ele>236</ele>
        <time>2021-09-10T08:13:12.669Z</time>
      </trkpt>
      <trkpt lat="45.628" lon="5.89132">
        <ele>236</ele>
        <time>2021-09-10T08:13:13.668Z</time>
      </trkpt>
      <trkpt lat="45.62805" lon="5.89132">
        <ele>236</ele>
        <time>2021-09-10T08:13:14.669Z</time>
      </trkpt>
      <trkpt lat="45.62808" lon="5.89132">
        <ele>236</ele>
        <time>2021-09-10T08:13:15.669Z</time>
      </trkpt>
      <trkpt lat="45.62813" lon="5.89132">
        <ele>237</ele>
        <time>2021-09-10T08:13:16.669Z</time>
      </trkpt>
      <trkpt lat="45.62816" lon="5.89132">
        <ele>237</ele>
        <time>2021-09-10T08:13:17.669Z</time>
      </trkpt>
      <trkpt lat="45.62819" lon="5.89131">
        <ele>237</ele>
        <time>2021-09-10T08:13:18.669Z</time>
      </trkpt>
      <trkpt lat="45.62821" lon="5.8913">
        <ele>237</ele>
        <time>2021-09-10T08:13:19.669Z</time>
      </trkpt>
      <trkpt lat="45.62822" lon="5.89127">
        <ele>237</ele>
        <time>2021-09-10T08:13:20.669Z</time>
      </trkpt>
      <trkpt lat="45.62824" lon="5.89125">
        <ele>237</ele>
        <time>2021-09-10T08:13:21.669Z</time>
      </trkpt>
      <trkpt lat="45.62826" lon="5.89124">
        <ele>237</ele>
        <time>2021-09-10T08:13:22.669Z</time>
      </trkpt>
      <trkpt lat="45.62827" lon="5.89124">
        <ele>237</ele>
        <time>2021-09-10T08:13:23.668Z</time>
      </trkpt>
      <trkpt lat="45.62827" lon="5.89123">
        <ele>237</ele>
        <time>2021-09-10T08:13:24.668Z</time>
      </trkpt>
      <trkpt lat="45.62828" lon="5.89124">
        <ele>237</ele>
        <time>2021-09-10T08:13:25.669Z</time>
      </trkpt>
      <trkpt lat="45.62828" lon="5.89124">
        <ele>238</ele>
        <time>2021-09-10T08:13:26.669Z</time>
      </trkpt>
      <trkpt lat="45.62827" lon="5.89124">
        <ele>238</ele>
        <time>2021-09-10T08:13:27.668Z</time>
      </trkpt>
      <trkpt lat="45.62826" lon="5.89124">
        <ele>236</ele>
        <time>2021-09-10T08:13:28.670Z</time>
      </trkpt>
      <trkpt lat="45.62826" lon="5.89124">
        <ele>236</ele>
        <time>2021-09-10T08:13:29.669Z</time>
      </trkpt>
      <trkpt lat="45.62827" lon="5.89125">
        <ele>236</ele>
        <time>2021-09-10T08:13:30.669Z</time>
      </trkpt>
      <trkpt lat="45.62827" lon="5.89124">
        <ele>236</ele>
        <time>2021-09-10T08:13:31.669Z</time>
      </trkpt>
      <trkpt lat="45.62827" lon="5.89125">
        <ele>236</ele>
        <time>2021-09-10T08:13:32.669Z</time>
      </trkpt>
      <trkpt lat="45.62828" lon="5.89128">
        <ele>235</ele>
        <time>2021-09-10T08:13:33.670Z</time>
      </trkpt>
      <trkpt lat="45.6283" lon="5.89129">
        <ele>235</ele>
        <time>2021-09-10T08:13:34.671Z</time>
      </trkpt>
      <trkpt lat="45.62833" lon="5.8913">
        <ele>235</ele>
        <time>2021-09-10T08:13:35.670Z</time>
      </trkpt>
      <trkpt lat="45.62836" lon="5.89131">
        <ele>235</ele>
        <time>2021-09-10T08:13:36.671Z</time>
      </trkpt>
      <trkpt lat="45.62839" lon="5.89132">
        <ele>234</ele>
        <time>2021-09-10T08:13:37.671Z</time>
      </trkpt>
      <trkpt lat="45.62843" lon="5.89133">
        <ele>234</ele>
        <time>2021-09-10T08:13:38.671Z</time>
      </trkpt>
      <trkpt lat="45.62846" lon="5.89134">
        <ele>234</ele>
        <time>2021-09-10T08:13:39.671Z</time>
      </trkpt>
      <trkpt lat="45.6285" lon="5.89135">
        <ele>234</ele>
        <time>2021-09-10T08:13:40.670Z</time>
      </trkpt>
      <trkpt lat="45.62852" lon="5.89135">
        <ele>234</ele>
        <time>2021-09-10T08:13:41.670Z</time>
      </trkpt>
      <trkpt lat="45.62855" lon="5.89135">
        <ele>234</ele>
        <time>2021-09-10T08:13:42.671Z</time>
      </trkpt>
      <trkpt lat="45.62859" lon="5.89135">
        <ele>234</ele>
        <time>2021-09-10T08:13:43.670Z</time>
      </trkpt>
      <trkpt lat="45.62862" lon="5.89136">
        <ele>235</ele>
        <time>2021-09-10T08:13:44.671Z</time>
      </trkpt>
      <trkpt lat="45.62865" lon="5.89136">
        <ele>235</ele>
        <time>2021-09-10T08:13:45.671Z</time>
      </trkpt>
      <trkpt lat="45.62869" lon="5.89136">
        <ele>235</ele>
        <time>2021-09-10T08:13:46.671Z</time>
      </trkpt>
      <trkpt lat="45.62873" lon="5.89136">
        <ele>235</ele>
        <time>2021-09-10T08:13:47.671Z</time>
      </trkpt>
      <trkpt lat="45.62876" lon="5.89136">
        <ele>235</ele>
        <time>2021-09-10T08:13:48.671Z</time>
      </trkpt>
      <trkpt lat="45.6288" lon="5.89136">
        <ele>235</ele>
        <time>2021-09-10T08:13:49.671Z</time>
      </trkpt>
      <trkpt lat="45.62884" lon="5.89137">
        <ele>235</ele>
        <time>2021-09-10T08:13:50.671Z</time>
      </trkpt>
      <trkpt lat="45.62887" lon="5.89137">
        <ele>235</ele>
        <time>2021-09-10T08:13:51.670Z</time>
      </trkpt>
      <trkpt lat="45.62891" lon="5.89138">
        <ele>235</ele>
        <time>2021-09-10T08:13:52.670Z</time>
      </trkpt>
      <trkpt lat="45.62895" lon="5.89138">
        <ele>235</ele>
        <time>2021-09-10T08:13:53.671Z</time>
      </trkpt>
      <trkpt lat="45.62899" lon="5.89138">
        <ele>236</ele>
        <time>2021-09-10T08:13:54.670Z</time>
      </trkpt>
      <trkpt lat="45.62903" lon="5.89139">
        <ele>236</ele>
        <time>2021-09-10T08:13:55.671Z</time>
      </trkpt>
      <trkpt lat="45.62907" lon="5.89139">
        <ele>236</ele>
        <time>2021-09-10T08:13:56.670Z</time>
      </trkpt>
      <trkpt lat="45.62911" lon="5.89138">
        <ele>237</ele>
        <time>2021-09-10T08:13:57.671Z</time>
      </trkpt>
      <trkpt lat="45.62915" lon="5.89138">
        <ele>237</ele>
        <time>2021-09-10T08:13:58.671Z</time>
      </trkpt>
      <trkpt lat="45.62918" lon="5.89138">
        <ele>238</ele>
        <time>2021-09-10T08:13:59.671Z</time>
      </trkpt>
      <trkpt lat="45.62922" lon="5.89139">
        <ele>238</ele>
        <time>2021-09-10T08:14:00.671Z</time>
      </trkpt>
      <trkpt lat="45.62925" lon="5.89139">
        <ele>238</ele>
        <time>2021-09-10T08:14:01.670Z</time>
      </trkpt>
      <trkpt lat="45.62929" lon="5.89139">
        <ele>237</ele>
        <time>2021-09-10T08:14:02.671Z</time>
      </trkpt>
      <trkpt lat="45.62933" lon="5.89139">
        <ele>237</ele>
        <time>2021-09-10T08:14:03.670Z</time>
      </trkpt>
      <trkpt lat="45.62936" lon="5.89139">
        <ele>237</ele>
        <time>2021-09-10T08:14:04.670Z</time>
      </trkpt>
      <trkpt lat="45.6294" lon="5.89139">
        <ele>236</ele>
        <time>2021-09-10T08:14:05.671Z</time>
      </trkpt>
      <trkpt lat="45.62944" lon="5.89139">
        <ele>237</ele>
        <time>2021-09-10T08:14:06.670Z</time>
      </trkpt>
      <trkpt lat="45.62948" lon="5.8914">
        <ele>237</ele>
        <time>2021-09-10T08:14:07.671Z</time>
      </trkpt>
      <trkpt lat="45.62952" lon="5.8914">
        <ele>237</ele>
        <time>2021-09-10T08:14:08.671Z</time>
      </trkpt>
      <trkpt lat="45.62956" lon="5.8914">
        <ele>238</ele>
        <time>2021-09-10T08:14:09.671Z</time>
      </trkpt>
      <trkpt lat="45.6296" lon="5.89141">
        <ele>238</ele>
        <time>2021-09-10T08:14:10.671Z</time>
      </trkpt>
      <trkpt lat="45.62964" lon="5.89141">
        <ele>238</ele>
        <time>2021-09-10T08:14:11.671Z</time>
      </trkpt>
      <trkpt lat="45.62969" lon="5.89141">
        <ele>237</ele>
        <time>2021-09-10T08:14:12.670Z</time>
      </trkpt>
      <trkpt lat="45.62973" lon="5.89141">
        <ele>237</ele>
        <time>2021-09-10T08:14:13.671Z</time>
      </trkpt>
      <trkpt lat="45.62977" lon="5.89142">
        <ele>237</ele>
        <time>2021-09-10T08:14:14.670Z</time>
      </trkpt>
      <trkpt lat="45.62982" lon="5.89142">
        <ele>236</ele>
        <time>2021-09-10T08:14:15.670Z</time>
      </trkpt>
      <trkpt lat="45.62986" lon="5.89142">
        <ele>236</ele>
        <time>2021-09-10T08:14:16.670Z</time>
      </trkpt>
      <trkpt lat="45.62991" lon="5.89142">
        <ele>235</ele>
        <time>2021-09-10T08:14:17.671Z</time>
      </trkpt>
      <trkpt lat="45.62995" lon="5.89143">
        <ele>234</ele>
        <time>2021-09-10T08:14:18.670Z</time>
      </trkpt>
      <trkpt lat="45.62999" lon="5.89143">
        <ele>234</ele>
        <time>2021-09-10T08:14:19.671Z</time>
      </trkpt>
      <trkpt lat="45.63004" lon="5.89143">
        <ele>234</ele>
        <time>2021-09-10T08:14:20.671Z</time>
      </trkpt>
      <trkpt lat="45.63008" lon="5.89144">
        <ele>234</ele>
        <time>2021-09-10T08:14:21.670Z</time>
      </trkpt>
      <trkpt lat="45.63013" lon="5.89144">
        <ele>235</ele>
        <time>2021-09-10T08:14:22.670Z</time>
      </trkpt>
      <trkpt lat="45.63017" lon="5.89144">
        <ele>235</ele>
        <time>2021-09-10T08:14:23.671Z</time>
      </trkpt>
      <trkpt lat="45.63022" lon="5.89144">
        <ele>235</ele>
        <time>2021-09-10T08:14:24.671Z</time>
      </trkpt>
      <trkpt lat="45.63027" lon="5.89145">
        <ele>235</ele>
        <time>2021-09-10T08:14:25.671Z</time>
      </trkpt>
      <trkpt lat="45.63031" lon="5.89145">
        <ele>235</ele>
        <time>2021-09-10T08:14:26.671Z</time>
      </trkpt>
      <trkpt lat="45.63036" lon="5.89145">
        <ele>235</ele>
        <time>2021-09-10T08:14:27.671Z</time>
      </trkpt>
      <trkpt lat="45.6304" lon="5.89146">
        <ele>235</ele>
        <time>2021-09-10T08:14:28.670Z</time>
      </trkpt>
      <trkpt lat="45.63045" lon="5.89146">
        <ele>235</ele>
        <time>2021-09-10T08:14:29.671Z</time>
      </trkpt>
      <trkpt lat="45.6305" lon="5.89147">
        <ele>236</ele>
        <time>2021-09-10T08:14:30.671Z</time>
      </trkpt>
      <trkpt lat="45.63054" lon="5.89147">
        <ele>236</ele>
        <time>2021-09-10T08:14:31.670Z</time>
      </trkpt>
      <trkpt lat="45.63059" lon="5.89147">
        <ele>236</ele>
        <time>2021-09-10T08:14:32.670Z</time>
      </trkpt>
      <trkpt lat="45.63063" lon="5.89147">
        <ele>235</ele>
        <time>2021-09-10T08:14:33.671Z</time>
      </trkpt>
      <trkpt lat="45.63068" lon="5.89147">
        <ele>235</ele>
        <time>2021-09-10T08:14:34.671Z</time>
      </trkpt>
      <trkpt lat="45.63072" lon="5.89148">
        <ele>235</ele>
        <time>2021-09-10T08:14:35.671Z</time>
      </trkpt>
      <trkpt lat="45.63077" lon="5.89148">
        <ele>236</ele>
        <time>2021-09-10T08:14:36.670Z</time>
      </trkpt>
      <trkpt lat="45.63081" lon="5.89149">
        <ele>236</ele>
        <time>2021-09-10T08:14:37.671Z</time>
      </trkpt>
      <trkpt lat="45.63086" lon="5.89149">
        <ele>237</ele>
        <time>2021-09-10T08:14:38.670Z</time>
      </trkpt>
      <trkpt lat="45.6309" lon="5.8915">
        <ele>237</ele>
        <time>2021-09-10T08:14:39.671Z</time>
      </trkpt>
      <trkpt lat="45.63094" lon="5.8915">
        <ele>238</ele>
        <time>2021-09-10T08:14:40.671Z</time>
      </trkpt>
      <trkpt lat="45.63099" lon="5.8915">
        <ele>238</ele>
        <time>2021-09-10T08:14:41.670Z</time>
      </trkpt>
      <trkpt lat="45.63103" lon="5.89151">
        <ele>238</ele>
        <time>2021-09-10T08:14:42.670Z</time>
      </trkpt>
      <trkpt lat="45.63108" lon="5.89151">
        <ele>238</ele>
        <time>2021-09-10T08:14:43.670Z</time>
      </trkpt>
      <trkpt lat="45.63112" lon="5.89151">
        <ele>238</ele>
        <time>2021-09-10T08:14:44.670Z</time>
      </trkpt>
      <trkpt lat="45.63117" lon="5.89151">
        <ele>238</ele>
        <time>2021-09-10T08:14:45.671Z</time>
      </trkpt>
      <trkpt lat="45.63122" lon="5.89152">
        <ele>238</ele>
        <time>2021-09-10T08:14:46.670Z</time>
      </trkpt>
      <trkpt lat="45.63126" lon="5.89152">
        <ele>238</ele>
        <time>2021-09-10T08:14:47.671Z</time>
      </trkpt>
      <trkpt lat="45.6313" lon="5.89153">
        <ele>238</ele>
        <time>2021-09-10T08:14:48.670Z</time>
      </trkpt>
      <trkpt lat="45.63135" lon="5.89154">
        <ele>238</ele>
        <time>2021-09-10T08:14:49.671Z</time>
      </trkpt>
      <trkpt lat="45.63139" lon="5.89154">
        <ele>238</ele>
        <time>2021-09-10T08:14:50.671Z</time>
      </trkpt>
      <trkpt lat="45.63144" lon="5.89154">
        <ele>238</ele>
        <time>2021-09-10T08:14:51.670Z</time>
      </trkpt>
      <trkpt lat="45.63149" lon="5.89155">
        <ele>238</ele>
        <time>2021-09-10T08:14:52.671Z</time>
      </trkpt>
      <trkpt lat="45.63153" lon="5.89155">
        <ele>238</ele>
        <time>2021-09-10T08:14:53.670Z</time>
      </trkpt>
      <trkpt lat="45.63158" lon="5.89155">
        <ele>238</ele>
        <time>2021-09-10T08:14:54.671Z</time>
      </trkpt>
      <trkpt lat="45.63163" lon="5.89155">
        <ele>238</ele>
        <time>2021-09-10T08:14:55.671Z</time>
      </trkpt>
      <trkpt lat="45.63167" lon="5.89155">
        <ele>237</ele>
        <time>2021-09-10T08:14:56.671Z</time>
      </trkpt>
      <trkpt lat="45.63172" lon="5.89155">
        <ele>237</ele>
        <time>2021-09-10T08:14:57.670Z</time>
      </trkpt>
      <trkpt lat="45.63176" lon="5.89156">
        <ele>237</ele>
        <time>2021-09-10T08:14:58.670Z</time>
      </trkpt>
      <trkpt lat="45.63181" lon="5.89156">
        <ele>237</ele>
        <time>2021-09-10T08:14:59.671Z</time>
      </trkpt>
      <trkpt lat="45.63185" lon="5.89156">
        <ele>237</ele>
        <time>2021-09-10T08:15:00.671Z</time>
      </trkpt>
      <trkpt lat="45.6319" lon="5.89156">
        <ele>237</ele>
        <time>2021-09-10T08:15:01.670Z</time>
      </trkpt>
      <trkpt lat="45.63195" lon="5.89156">
        <ele>237</ele>
        <time>2021-09-10T08:15:02.670Z</time>
      </trkpt>
      <trkpt lat="45.63199" lon="5.89157">
        <ele>237</ele>
        <time>2021-09-10T08:15:03.670Z</time>
      </trkpt>
      <trkpt lat="45.63204" lon="5.89157">
        <ele>237</ele>
        <time>2021-09-10T08:15:04.671Z</time>
      </trkpt>
      <trkpt lat="45.63209" lon="5.89158">
        <ele>238</ele>
        <time>2021-09-10T08:15:05.671Z</time>
      </trkpt>
      <trkpt lat="45.63213" lon="5.89158">
        <ele>238</ele>
        <time>2021-09-10T08:15:06.671Z</time>
      </trkpt>
      <trkpt lat="45.63218" lon="5.89158">
        <ele>238</ele>
        <time>2021-09-10T08:15:07.670Z</time>
      </trkpt>
      <trkpt lat="45.63223" lon="5.89159">
        <ele>238</ele>
        <time>2021-09-10T08:15:08.670Z</time>
      </trkpt>
      <trkpt lat="45.63227" lon="5.89159">
        <ele>238</ele>
        <time>2021-09-10T08:15:09.671Z</time>
      </trkpt>
      <trkpt lat="45.63233" lon="5.89159">
        <ele>239</ele>
        <time>2021-09-10T08:15:10.671Z</time>
      </trkpt>
      <trkpt lat="45.63237" lon="5.8916">
        <ele>238</ele>
        <time>2021-09-10T08:15:11.671Z</time>
      </trkpt>
      <trkpt lat="45.63242" lon="5.89161">
        <ele>238</ele>
        <time>2021-09-10T08:15:12.671Z</time>
      </trkpt>
      <trkpt lat="45.63247" lon="5.89162">
        <ele>238</ele>
        <time>2021-09-10T08:15:13.671Z</time>
      </trkpt>
      <trkpt lat="45.63251" lon="5.89163">
        <ele>238</ele>
        <time>2021-09-10T08:15:14.670Z</time>
      </trkpt>
      <trkpt lat="45.63256" lon="5.89164">
        <ele>238</ele>
        <time>2021-09-10T08:15:15.670Z</time>
      </trkpt>
      <trkpt lat="45.63261" lon="5.89165">
        <ele>238</ele>
        <time>2021-09-10T08:15:16.670Z</time>
      </trkpt>
      <trkpt lat="45.63265" lon="5.89165">
        <ele>238</ele>
        <time>2021-09-10T08:15:17.671Z</time>
      </trkpt>
      <trkpt lat="45.6327" lon="5.89165">
        <ele>237</ele>
        <time>2021-09-10T08:15:18.670Z</time>
      </trkpt>
      <trkpt lat="45.63274" lon="5.89165">
        <ele>237</ele>
        <time>2021-09-10T08:15:19.670Z</time>
      </trkpt>
      <trkpt lat="45.63279" lon="5.89165">
        <ele>237</ele>
        <time>2021-09-10T08:15:20.671Z</time>
      </trkpt>
      <trkpt lat="45.63283" lon="5.89165">
        <ele>237</ele>
        <time>2021-09-10T08:15:21.671Z</time>
      </trkpt>
      <trkpt lat="45.63287" lon="5.89166">
        <ele>238</ele>
        <time>2021-09-10T08:15:22.671Z</time>
      </trkpt>
      <trkpt lat="45.63292" lon="5.89166">
        <ele>238</ele>
        <time>2021-09-10T08:15:23.671Z</time>
      </trkpt>
      <trkpt lat="45.63297" lon="5.89168">
        <ele>238</ele>
        <time>2021-09-10T08:15:24.671Z</time>
      </trkpt>
      <trkpt lat="45.63301" lon="5.8917">
        <ele>238</ele>
        <time>2021-09-10T08:15:25.671Z</time>
      </trkpt>
      <trkpt lat="45.63305" lon="5.89172">
        <ele>238</ele>
        <time>2021-09-10T08:15:26.670Z</time>
      </trkpt>
      <trkpt lat="45.6331" lon="5.89175">
        <ele>238</ele>
        <time>2021-09-10T08:15:27.670Z</time>
      </trkpt>
      <trkpt lat="45.63314" lon="5.89178">
        <ele>238</ele>
        <time>2021-09-10T08:15:28.671Z</time>
      </trkpt>
      <trkpt lat="45.63319" lon="5.8918">
        <ele>238</ele>
        <time>2021-09-10T08:15:29.670Z</time>
      </trkpt>
      <trkpt lat="45.63323" lon="5.89182">
        <ele>238</ele>
        <time>2021-09-10T08:15:30.671Z</time>
      </trkpt>
      <trkpt lat="45.63328" lon="5.89183">
        <ele>239</ele>
        <time>2021-09-10T08:15:31.670Z</time>
      </trkpt>
      <trkpt lat="45.63332" lon="5.89184">
        <ele>239</ele>
        <time>2021-09-10T08:15:32.671Z</time>
      </trkpt>
      <trkpt lat="45.63337" lon="5.89185">
        <ele>239</ele>
        <time>2021-09-10T08:15:33.671Z</time>
      </trkpt>
      <trkpt lat="45.63341" lon="5.89185">
        <ele>239</ele>
        <time>2021-09-10T08:15:34.671Z</time>
      </trkpt>
      <trkpt lat="45.63346" lon="5.89185">
        <ele>239</ele>
        <time>2021-09-10T08:15:35.670Z</time>
      </trkpt>
      <trkpt lat="45.6335" lon="5.89185">
        <ele>240</ele>
        <time>2021-09-10T08:15:36.671Z</time>
      </trkpt>
      <trkpt lat="45.63355" lon="5.89186">
        <ele>240</ele>
        <time>2021-09-10T08:15:37.671Z</time>
      </trkpt>
      <trkpt lat="45.63359" lon="5.89186">
        <ele>240</ele>
        <time>2021-09-10T08:15:38.671Z</time>
      </trkpt>
      <trkpt lat="45.63364" lon="5.89186">
        <ele>239</ele>
        <time>2021-09-10T08:15:39.670Z</time>
      </trkpt>
      <trkpt lat="45.63369" lon="5.89186">
        <ele>239</ele>
        <time>2021-09-10T08:15:40.671Z</time>
      </trkpt>
      <trkpt lat="45.63373" lon="5.89186">
        <ele>238</ele>
        <time>2021-09-10T08:15:41.670Z</time>
      </trkpt>
      <trkpt lat="45.63377" lon="5.89186">
        <ele>238</ele>
        <time>2021-09-10T08:15:42.670Z</time>
      </trkpt>
      <trkpt lat="45.63381" lon="5.89187">
        <ele>237</ele>
        <time>2021-09-10T08:15:43.671Z</time>
      </trkpt>
      <trkpt lat="45.63385" lon="5.89187">
        <ele>237</ele>
        <time>2021-09-10T08:15:44.671Z</time>
      </trkpt>
      <trkpt lat="45.63389" lon="5.89187">
        <ele>238</ele>
        <time>2021-09-10T08:15:45.670Z</time>
      </trkpt>
      <trkpt lat="45.63394" lon="5.89187">
        <ele>238</ele>
        <time>2021-09-10T08:15:46.670Z</time>
      </trkpt>
      <trkpt lat="45.63398" lon="5.89188">
        <ele>238</ele>
        <time>2021-09-10T08:15:47.671Z</time>
      </trkpt>
      <trkpt lat="45.63402" lon="5.89188">
        <ele>238</ele>
        <time>2021-09-10T08:15:48.671Z</time>
      </trkpt>
      <trkpt lat="45.63406" lon="5.89189">
        <ele>237</ele>
        <time>2021-09-10T08:15:49.671Z</time>
      </trkpt>
      <trkpt lat="45.6341" lon="5.89189">
        <ele>237</ele>
        <time>2021-09-10T08:15:50.671Z</time>
      </trkpt>
      <trkpt lat="45.63414" lon="5.89189">
        <ele>237</ele>
        <time>2021-09-10T08:15:51.671Z</time>
      </trkpt>
      <trkpt lat="45.63418" lon="5.89189">
        <ele>237</ele>
        <time>2021-09-10T08:15:52.671Z</time>
      </trkpt>
      <trkpt lat="45.63423" lon="5.8919">
        <ele>237</ele>
        <time>2021-09-10T08:15:53.671Z</time>
      </trkpt>
      <trkpt lat="45.63427" lon="5.8919">
        <ele>237</ele>
        <time>2021-09-10T08:15:54.671Z</time>
      </trkpt>
      <trkpt lat="45.63431" lon="5.8919">
        <ele>238</ele>
        <time>2021-09-10T08:15:55.670Z</time>
      </trkpt>
      <trkpt lat="45.63436" lon="5.8919">
        <ele>237</ele>
        <time>2021-09-10T08:15:56.671Z</time>
      </trkpt>
      <trkpt lat="45.6344" lon="5.89191">
        <ele>237</ele>
        <time>2021-09-10T08:15:57.671Z</time>
      </trkpt>
      <trkpt lat="45.63445" lon="5.89191">
        <ele>236</ele>
        <time>2021-09-10T08:15:58.670Z</time>
      </trkpt>
      <trkpt lat="45.63449" lon="5.89191">
        <ele>236</ele>
        <time>2021-09-10T08:15:59.671Z</time>
      </trkpt>
      <trkpt lat="45.63454" lon="5.89191">
        <ele>236</ele>
        <time>2021-09-10T08:16:00.671Z</time>
      </trkpt>
      <trkpt lat="45.63458" lon="5.89192">
        <ele>235</ele>
        <time>2021-09-10T08:16:01.671Z</time>
      </trkpt>
      <trkpt lat="45.63463" lon="5.89192">
        <ele>235</ele>
        <time>2021-09-10T08:16:02.671Z</time>
      </trkpt>
      <trkpt lat="45.63467" lon="5.89193">
        <ele>235</ele>
        <time>2021-09-10T08:16:03.671Z</time>
      </trkpt>
      <trkpt lat="45.63472" lon="5.89193">
        <ele>235</ele>
        <time>2021-09-10T08:16:04.671Z</time>
      </trkpt>
      <trkpt lat="45.63477" lon="5.89193">
        <ele>235</ele>
        <time>2021-09-10T08:16:05.670Z</time>
      </trkpt>
      <trkpt lat="45.63481" lon="5.89193">
        <ele>235</ele>
        <time>2021-09-10T08:16:06.670Z</time>
      </trkpt>
      <trkpt lat="45.63486" lon="5.89193">
        <ele>234</ele>
        <time>2021-09-10T08:16:07.670Z</time>
      </trkpt>
      <trkpt lat="45.6349" lon="5.89194">
        <ele>234</ele>
        <time>2021-09-10T08:16:08.670Z</time>
      </trkpt>
      <trkpt lat="45.63494" lon="5.89194">
        <ele>234</ele>
        <time>2021-09-10T08:16:09.671Z</time>
      </trkpt>
      <trkpt lat="45.63498" lon="5.89195">
        <ele>233</ele>
        <time>2021-09-10T08:16:10.670Z</time>
      </trkpt>
      <trkpt lat="45.63503" lon="5.89195">
        <ele>233</ele>
        <time>2021-09-10T08:16:11.671Z</time>
      </trkpt>
      <trkpt lat="45.63507" lon="5.89195">
        <ele>234</ele>
        <time>2021-09-10T08:16:12.670Z</time>
      </trkpt>
      <trkpt lat="45.63511" lon="5.89195">
        <ele>234</ele>
        <time>2021-09-10T08:16:13.671Z</time>
      </trkpt>
      <trkpt lat="45.63515" lon="5.89195">
        <ele>234</ele>
        <time>2021-09-10T08:16:14.671Z</time>
      </trkpt>
      <trkpt lat="45.6352" lon="5.89196">
        <ele>234</ele>
        <time>2021-09-10T08:16:15.671Z</time>
      </trkpt>
      <trkpt lat="45.63524" lon="5.89196">
        <ele>235</ele>
        <time>2021-09-10T08:16:16.671Z</time>
      </trkpt>
      <trkpt lat="45.63529" lon="5.89196">
        <ele>235</ele>
        <time>2021-09-10T08:16:17.671Z</time>
      </trkpt>
      <trkpt lat="45.63533" lon="5.89197">
        <ele>235</ele>
        <time>2021-09-10T08:16:18.671Z</time>
      </trkpt>
      <trkpt lat="45.63537" lon="5.89197">
        <ele>235</ele>
        <time>2021-09-10T08:16:19.671Z</time>
      </trkpt>
      <trkpt lat="45.63542" lon="5.89197">
        <ele>235</ele>
        <time>2021-09-10T08:16:20.670Z</time>
      </trkpt>
      <trkpt lat="45.63546" lon="5.89197">
        <ele>235</ele>
        <time>2021-09-10T08:16:21.671Z</time>
      </trkpt>
      <trkpt lat="45.63551" lon="5.89197">
        <ele>234</ele>
        <time>2021-09-10T08:16:22.670Z</time>
      </trkpt>
      <trkpt lat="45.63556" lon="5.89198">
        <ele>234</ele>
        <time>2021-09-10T08:16:23.671Z</time>
      </trkpt>
      <trkpt lat="45.6356" lon="5.89198">
        <ele>234</ele>
        <time>2021-09-10T08:16:24.671Z</time>
      </trkpt>
      <trkpt lat="45.63565" lon="5.89199">
        <ele>233</ele>
        <time>2021-09-10T08:16:25.671Z</time>
      </trkpt>
      <trkpt lat="45.63569" lon="5.892">
        <ele>233</ele>
        <time>2021-09-10T08:16:26.670Z</time>
      </trkpt>
      <trkpt lat="45.63573" lon="5.89201">
        <ele>234</ele>
        <time>2021-09-10T08:16:27.671Z</time>
      </trkpt>
      <trkpt lat="45.63577" lon="5.89203">
        <ele>234</ele>
        <time>2021-09-10T08:16:28.671Z</time>
      </trkpt>
      <trkpt lat="45.63582" lon="5.89204">
        <ele>235</ele>
        <time>2021-09-10T08:16:29.671Z</time>
      </trkpt>
      <trkpt lat="45.63586" lon="5.89205">
        <ele>235</ele>
        <time>2021-09-10T08:16:30.671Z</time>
      </trkpt>
      <trkpt lat="45.6359" lon="5.89206">
        <ele>235</ele>
        <time>2021-09-10T08:16:31.671Z</time>
      </trkpt>
      <trkpt lat="45.63595" lon="5.89206">
        <ele>235</ele>
        <time>2021-09-10T08:16:32.671Z</time>
      </trkpt>
      <trkpt lat="45.63599" lon="5.89207">
        <ele>235</ele>
        <time>2021-09-10T08:16:33.671Z</time>
      </trkpt>
      <trkpt lat="45.63603" lon="5.89208">
        <ele>235</ele>
        <time>2021-09-10T08:16:34.671Z</time>
      </trkpt>
      <trkpt lat="45.63607" lon="5.89208">
        <ele>235</ele>
        <time>2021-09-10T08:16:35.671Z</time>
      </trkpt>
      <trkpt lat="45.63612" lon="5.89208">
        <ele>235</ele>
        <time>2021-09-10T08:16:36.670Z</time>
      </trkpt>
      <trkpt lat="45.63616" lon="5.89208">
        <ele>235</ele>
        <time>2021-09-10T08:16:37.671Z</time>
      </trkpt>
      <trkpt lat="45.63621" lon="5.89209">
        <ele>235</ele>
        <time>2021-09-10T08:16:38.671Z</time>
      </trkpt>
      <trkpt lat="45.63625" lon="5.89209">
        <ele>235</ele>
        <time>2021-09-10T08:16:39.671Z</time>
      </trkpt>
      <trkpt lat="45.6363" lon="5.89209">
        <ele>236</ele>
        <time>2021-09-10T08:16:40.671Z</time>
      </trkpt>
      <trkpt lat="45.63634" lon="5.8921">
        <ele>236</ele>
        <time>2021-09-10T08:16:41.671Z</time>
      </trkpt>
      <trkpt lat="45.63638" lon="5.8921">
        <ele>236</ele>
        <time>2021-09-10T08:16:42.671Z</time>
      </trkpt>
      <trkpt lat="45.63642" lon="5.89211">
        <ele>236</ele>
        <time>2021-09-10T08:16:43.670Z</time>
      </trkpt>
      <trkpt lat="45.63646" lon="5.89211">
        <ele>236</ele>
        <time>2021-09-10T08:16:44.671Z</time>
      </trkpt>
      <trkpt lat="45.6365" lon="5.89212">
        <ele>236</ele>
        <time>2021-09-10T08:16:45.671Z</time>
      </trkpt>
      <trkpt lat="45.63654" lon="5.89212">
        <ele>236</ele>
        <time>2021-09-10T08:16:46.670Z</time>
      </trkpt>
      <trkpt lat="45.63659" lon="5.89212">
        <ele>237</ele>
        <time>2021-09-10T08:16:47.671Z</time>
      </trkpt>
      <trkpt lat="45.63662" lon="5.89212">
        <ele>237</ele>
        <time>2021-09-10T08:16:48.671Z</time>
      </trkpt>
      <trkpt lat="45.63667" lon="5.89213">
        <ele>237</ele>
        <time>2021-09-10T08:16:49.670Z</time>
      </trkpt>
      <trkpt lat="45.6367" lon="5.89213">
        <ele>237</ele>
        <time>2021-09-10T08:16:50.670Z</time>
      </trkpt>
      <trkpt lat="45.63674" lon="5.89214">
        <ele>238</ele>
        <time>2021-09-10T08:16:51.670Z</time>
      </trkpt>
      <trkpt lat="45.63678" lon="5.89214">
        <ele>237</ele>
        <time>2021-09-10T08:16:52.671Z</time>
      </trkpt>
      <trkpt lat="45.63682" lon="5.89214">
        <ele>237</ele>
        <time>2021-09-10T08:16:53.671Z</time>
      </trkpt>
      <trkpt lat="45.63686" lon="5.89214">
        <ele>236</ele>
        <time>2021-09-10T08:16:54.671Z</time>
      </trkpt>
      <trkpt lat="45.6369" lon="5.89214">
        <ele>236</ele>
        <time>2021-09-10T08:16:55.670Z</time>
      </trkpt>
      <trkpt lat="45.63694" lon="5.89214">
        <ele>236</ele>
        <time>2021-09-10T08:16:56.671Z</time>
      </trkpt>
      <trkpt lat="45.63699" lon="5.89214">
        <ele>236</ele>
        <time>2021-09-10T08:16:57.670Z</time>
      </trkpt>
      <trkpt lat="45.63704" lon="5.89214">
        <ele>236</ele>
        <time>2021-09-10T08:16:58.671Z</time>
      </trkpt>
      <trkpt lat="45.63707" lon="5.89213">
        <ele>236</ele>
        <time>2021-09-10T08:16:59.670Z</time>
      </trkpt>
      <trkpt lat="45.63711" lon="5.89212">
        <ele>236</ele>
        <time>2021-09-10T08:17:00.671Z</time>
      </trkpt>
      <trkpt lat="45.63715" lon="5.89211">
        <ele>236</ele>
        <time>2021-09-10T08:17:01.671Z</time>
      </trkpt>
      <trkpt lat="45.6372" lon="5.89209">
        <ele>236</ele>
        <time>2021-09-10T08:17:02.671Z</time>
      </trkpt>
      <trkpt lat="45.63723" lon="5.89207">
        <ele>236</ele>
        <time>2021-09-10T08:17:03.670Z</time>
      </trkpt>
      <trkpt lat="45.63727" lon="5.89205">
        <ele>235</ele>
        <time>2021-09-10T08:17:04.671Z</time>
      </trkpt>
      <trkpt lat="45.63731" lon="5.89202">
        <ele>235</ele>
        <time>2021-09-10T08:17:05.671Z</time>
      </trkpt>
      <trkpt lat="45.63735" lon="5.89199">
        <ele>235</ele>
        <time>2021-09-10T08:17:06.671Z</time>
      </trkpt>
      <trkpt lat="45.63739" lon="5.89197">
        <ele>234</ele>
        <time>2021-09-10T08:17:07.670Z</time>
      </trkpt>
      <trkpt lat="45.63742" lon="5.89194">
        <ele>234</ele>
        <time>2021-09-10T08:17:08.670Z</time>
      </trkpt>
      <trkpt lat="45.63745" lon="5.8919">
        <ele>234</ele>
        <time>2021-09-10T08:17:09.670Z</time>
      </trkpt>
      <trkpt lat="45.63748" lon="5.89187">
        <ele>234</ele>
        <time>2021-09-10T08:17:10.670Z</time>
      </trkpt>
      <trkpt lat="45.63751" lon="5.89183">
        <ele>234</ele>
        <time>2021-09-10T08:17:11.670Z</time>
      </trkpt>
      <trkpt lat="45.63754" lon="5.8918">
        <ele>234</ele>
        <time>2021-09-10T08:17:12.670Z</time>
      </trkpt>
      <trkpt lat="45.63756" lon="5.89175">
        <ele>235</ele>
        <time>2021-09-10T08:17:13.671Z</time>
      </trkpt>
      <trkpt lat="45.63759" lon="5.89171">
        <ele>235</ele>
        <time>2021-09-10T08:17:14.670Z</time>
      </trkpt>
      <trkpt lat="45.63761" lon="5.89167">
        <ele>235</ele>
        <time>2021-09-10T08:17:15.671Z</time>
      </trkpt>
      <trkpt lat="45.63764" lon="5.89164">
        <ele>235</ele>
        <time>2021-09-10T08:17:16.671Z</time>
      </trkpt>
      <trkpt lat="45.63767" lon="5.89161">
        <ele>235</ele>
        <time>2021-09-10T08:17:17.671Z</time>
      </trkpt>
      <trkpt lat="45.6377" lon="5.89159">
        <ele>235</ele>
        <time>2021-09-10T08:17:18.670Z</time>
      </trkpt>
      <trkpt lat="45.63772" lon="5.89158">
        <ele>236</ele>
        <time>2021-09-10T08:17:19.671Z</time>
      </trkpt>
      <trkpt lat="45.63774" lon="5.89157">
        <ele>236</ele>
        <time>2021-09-10T08:17:20.670Z</time>
      </trkpt>
      <trkpt lat="45.63776" lon="5.89157">
        <ele>236</ele>
        <time>2021-09-10T08:17:21.670Z</time>
      </trkpt>
      <trkpt lat="45.63777" lon="5.89159">
        <ele>236</ele>
        <time>2021-09-10T08:17:22.671Z</time>
      </trkpt>
      <trkpt lat="45.63777" lon="5.89161">
        <ele>236</ele>
        <time>2021-09-10T08:17:23.671Z</time>
      </trkpt>
      <trkpt lat="45.63777" lon="5.89164">
        <ele>236</ele>
        <time>2021-09-10T08:17:24.670Z</time>
      </trkpt>
      <trkpt lat="45.63776" lon="5.89167">
        <ele>236</ele>
        <time>2021-09-10T08:17:25.671Z</time>
      </trkpt>
      <trkpt lat="45.63776" lon="5.8917">
        <ele>236</ele>
        <time>2021-09-10T08:17:26.670Z</time>
      </trkpt>
      <trkpt lat="45.63775" lon="5.89173">
        <ele>236</ele>
        <time>2021-09-10T08:17:27.671Z</time>
      </trkpt>
      <trkpt lat="45.63774" lon="5.89176">
        <ele>236</ele>
        <time>2021-09-10T08:17:28.671Z</time>
      </trkpt>
      <trkpt lat="45.63774" lon="5.89177">
        <ele>237</ele>
        <time>2021-09-10T08:17:29.670Z</time>
      </trkpt>
      <trkpt lat="45.63773" lon="5.89179">
        <ele>237</ele>
        <time>2021-09-10T08:17:30.671Z</time>
      </trkpt>
      <trkpt lat="45.63772" lon="5.8918">
        <ele>236</ele>
        <time>2021-09-10T08:17:31.671Z</time>
      </trkpt>
      <trkpt lat="45.63771" lon="5.89181">
        <ele>236</ele>
        <time>2021-09-10T08:17:32.671Z</time>
      </trkpt>
      <trkpt lat="45.63771" lon="5.89181">
        <ele>236</ele>
        <time>2021-09-10T08:17:33.671Z</time>
      </trkpt>
      <trkpt lat="45.6377" lon="5.89182">
        <ele>236</ele>
        <time>2021-09-10T08:17:34.670Z</time>
      </trkpt>
      <trkpt lat="45.63769" lon="5.89182">
        <ele>236</ele>
        <time>2021-09-10T08:17:35.671Z</time>
      </trkpt>
      <trkpt lat="45.63769" lon="5.89182">
        <ele>236</ele>
        <time>2021-09-10T08:17:36.671Z</time>
      </trkpt>
      <trkpt lat="45.63769" lon="5.89182">
        <ele>236</ele>
        <time>2021-09-10T08:17:37.670Z</time>
      </trkpt>
      <trkpt lat="45.63768" lon="5.89183">
        <ele>236</ele>
        <time>2021-09-10T08:17:38.670Z</time>
      </trkpt>
      <trkpt lat="45.63767" lon="5.89183">
        <ele>236</ele>
        <time>2021-09-10T08:17:39.671Z</time>
      </trkpt>
      <trkpt lat="45.63767" lon="5.89183">
        <ele>235</ele>
        <time>2021-09-10T08:17:40.671Z</time>
      </trkpt>
      <trkpt lat="45.63766" lon="5.89183">
        <ele>235</ele>
        <time>2021-09-10T08:17:41.670Z</time>
      </trkpt>
      <trkpt lat="45.63766" lon="5.89184">
        <ele>234</ele>
        <time>2021-09-10T08:17:42.671Z</time>
      </trkpt>
      <trkpt lat="45.63766" lon="5.89184">
        <ele>234</ele>
        <time>2021-09-10T08:17:43.671Z</time>
      </trkpt>
      <trkpt lat="45.63766" lon="5.89184">
        <ele>234</ele>
        <time>2021-09-10T08:17:44.671Z</time>
      </trkpt>
      <trkpt lat="45.63758" lon="5.89188">
        <ele>230</ele>
        <time>2021-09-10T08:17:45.671Z</time>
      </trkpt>
      <trkpt lat="45.63755" lon="5.89191">
        <ele>230</ele>
        <time>2021-09-10T08:17:46.672Z</time>
      </trkpt>
      <trkpt lat="45.63752" lon="5.89195">
        <ele>231</ele>
        <time>2021-09-10T08:17:47.671Z</time>
      </trkpt>
      <trkpt lat="45.63749" lon="5.892">
        <ele>231</ele>
        <time>2021-09-10T08:17:48.671Z</time>
      </trkpt>
      <trkpt lat="45.63746" lon="5.89205">
        <ele>230</ele>
        <time>2021-09-10T08:17:49.672Z</time>
      </trkpt>
      <trkpt lat="45.63744" lon="5.8921">
        <ele>230</ele>
        <time>2021-09-10T08:17:50.672Z</time>
      </trkpt>
      <trkpt lat="45.63743" lon="5.89216">
        <ele>230</ele>
        <time>2021-09-10T08:17:51.672Z</time>
      </trkpt>
      <trkpt lat="45.63743" lon="5.89223">
        <ele>231</ele>
        <time>2021-09-10T08:17:52.672Z</time>
      </trkpt>
      <trkpt lat="45.63745" lon="5.89229">
        <ele>231</ele>
        <time>2021-09-10T08:17:53.671Z</time>
      </trkpt>
      <trkpt lat="45.63747" lon="5.89235">
        <ele>232</ele>
        <time>2021-09-10T08:17:54.672Z</time>
      </trkpt>
      <trkpt lat="45.63751" lon="5.8924">
        <ele>233</ele>
        <time>2021-09-10T08:17:55.672Z</time>
      </trkpt>
      <trkpt lat="45.63755" lon="5.89245">
        <ele>234</ele>
        <time>2021-09-10T08:17:56.672Z</time>
      </trkpt>
      <trkpt lat="45.6376" lon="5.89249">
        <ele>234</ele>
        <time>2021-09-10T08:17:57.672Z</time>
      </trkpt>
      <trkpt lat="45.63765" lon="5.89251">
        <ele>235</ele>
        <time>2021-09-10T08:17:58.672Z</time>
      </trkpt>
      <trkpt lat="45.63771" lon="5.89252">
        <ele>235</ele>
        <time>2021-09-10T08:17:59.671Z</time>
      </trkpt>
      <trkpt lat="45.63777" lon="5.8925">
        <ele>235</ele>
        <time>2021-09-10T08:18:00.672Z</time>
      </trkpt>
      <trkpt lat="45.63783" lon="5.89248">
        <ele>236</ele>
        <time>2021-09-10T08:18:01.672Z</time>
      </trkpt>
      <trkpt lat="45.63789" lon="5.89246">
        <ele>236</ele>
        <time>2021-09-10T08:18:02.671Z</time>
      </trkpt>
      <trkpt lat="45.63795" lon="5.89244">
        <ele>236</ele>
        <time>2021-09-10T08:18:03.672Z</time>
      </trkpt>
      <trkpt lat="45.63801" lon="5.89244">
        <ele>237</ele>
        <time>2021-09-10T08:18:04.672Z</time>
      </trkpt>
      <trkpt lat="45.63808" lon="5.89244">
        <ele>237</ele>
        <time>2021-09-10T08:18:05.671Z</time>
      </trkpt>
      <trkpt lat="45.63814" lon="5.89244">
        <ele>237</ele>
        <time>2021-09-10T08:18:06.672Z</time>
      </trkpt>
      <trkpt lat="45.6382" lon="5.89244">
        <ele>237</ele>
        <time>2021-09-10T08:18:07.672Z</time>
      </trkpt>
      <trkpt lat="45.63826" lon="5.89245">
        <ele>237</ele>
        <time>2021-09-10T08:18:08.671Z</time>
      </trkpt>
      <trkpt lat="45.63832" lon="5.89245">
        <ele>237</ele>
        <time>2021-09-10T08:18:09.672Z</time>
      </trkpt>
      <trkpt lat="45.63838" lon="5.89245">
        <ele>236</ele>
        <time>2021-09-10T08:18:10.672Z</time>
      </trkpt>
      <trkpt lat="45.63844" lon="5.89245">
        <ele>236</ele>
        <time>2021-09-10T08:18:11.672Z</time>
      </trkpt>
      <trkpt lat="45.63849" lon="5.89245">
        <ele>236</ele>
        <time>2021-09-10T08:18:12.672Z</time>
      </trkpt>
      <trkpt lat="45.63855" lon="5.89245">
        <ele>236</ele>
        <time>2021-09-10T08:18:13.671Z</time>
      </trkpt>
      <trkpt lat="45.63861" lon="5.89245">
        <ele>235</ele>
        <time>2021-09-10T08:18:14.672Z</time>
      </trkpt>
      <trkpt lat="45.63867" lon="5.89245">
        <ele>235</ele>
        <time>2021-09-10T08:18:15.672Z</time>
      </trkpt>
      <trkpt lat="45.63872" lon="5.89245">
        <ele>235</ele>
        <time>2021-09-10T08:18:16.672Z</time>
      </trkpt>
      <trkpt lat="45.63878" lon="5.89245">
        <ele>234</ele>
        <time>2021-09-10T08:18:17.672Z</time>
      </trkpt>
      <trkpt lat="45.63884" lon="5.89245">
        <ele>234</ele>
        <time>2021-09-10T08:18:18.671Z</time>
      </trkpt>
      <trkpt lat="45.63889" lon="5.89245">
        <ele>234</ele>
        <time>2021-09-10T08:18:19.671Z</time>
      </trkpt>
      <trkpt lat="45.63895" lon="5.89245">
        <ele>235</ele>
        <time>2021-09-10T08:18:20.672Z</time>
      </trkpt>
      <trkpt lat="45.63902" lon="5.89245">
        <ele>235</ele>
        <time>2021-09-10T08:18:21.672Z</time>
      </trkpt>
      <trkpt lat="45.63906" lon="5.89245">
        <ele>235</ele>
        <time>2021-09-10T08:18:22.671Z</time>
      </trkpt>
      <trkpt lat="45.63912" lon="5.89245">
        <ele>234</ele>
        <time>2021-09-10T08:18:23.672Z</time>
      </trkpt>
      <trkpt lat="45.63918" lon="5.89246">
        <ele>234</ele>
        <time>2021-09-10T08:18:24.671Z</time>
      </trkpt>
      <trkpt lat="45.63925" lon="5.89246">
        <ele>234</ele>
        <time>2021-09-10T08:18:25.672Z</time>
      </trkpt>
      <trkpt lat="45.6393" lon="5.89246">
        <ele>234</ele>
        <time>2021-09-10T08:18:26.672Z</time>
      </trkpt>
      <trkpt lat="45.63936" lon="5.89247">
        <ele>234</ele>
        <time>2021-09-10T08:18:27.672Z</time>
      </trkpt>
      <trkpt lat="45.63942" lon="5.89247">
        <ele>234</ele>
        <time>2021-09-10T08:18:28.672Z</time>
      </trkpt>
      <trkpt lat="45.63947" lon="5.89247">
        <ele>235</ele>
        <time>2021-09-10T08:18:29.672Z</time>
      </trkpt>
      <trkpt lat="45.63953" lon="5.89248">
        <ele>235</ele>
        <time>2021-09-10T08:18:30.672Z</time>
      </trkpt>
      <trkpt lat="45.63959" lon="5.89248">
        <ele>235</ele>
        <time>2021-09-10T08:18:31.671Z</time>
      </trkpt>
      <trkpt lat="45.63965" lon="5.89248">
        <ele>236</ele>
        <time>2021-09-10T08:18:32.672Z</time>
      </trkpt>
      <trkpt lat="45.6397" lon="5.89249">
        <ele>236</ele>
        <time>2021-09-10T08:18:33.672Z</time>
      </trkpt>
      <trkpt lat="45.63976" lon="5.89249">
        <ele>237</ele>
        <time>2021-09-10T08:18:34.672Z</time>
      </trkpt>
      <trkpt lat="45.63982" lon="5.89249">
        <ele>237</ele>
        <time>2021-09-10T08:18:35.672Z</time>
      </trkpt>
      <trkpt lat="45.63988" lon="5.8925">
        <ele>238</ele>
        <time>2021-09-10T08:18:36.671Z</time>
      </trkpt>
      <trkpt lat="45.63993" lon="5.8925">
        <ele>238</ele>
        <time>2021-09-10T08:18:37.671Z</time>
      </trkpt>
      <trkpt lat="45.63999" lon="5.8925">
        <ele>238</ele>
        <time>2021-09-10T08:18:38.672Z</time>
      </trkpt>
      <trkpt lat="45.64004" lon="5.89251">
        <ele>238</ele>
        <time>2021-09-10T08:18:39.672Z</time>
      </trkpt>
      <trkpt lat="45.6401" lon="5.89251">
        <ele>237</ele>
        <time>2021-09-10T08:18:40.672Z</time>
      </trkpt>
      <trkpt lat="45.64016" lon="5.89251">
        <ele>237</ele>
        <time>2021-09-10T08:18:41.672Z</time>
      </trkpt>
      <trkpt lat="45.64021" lon="5.89252">
        <ele>237</ele>
        <time>2021-09-10T08:18:42.672Z</time>
      </trkpt>
      <trkpt lat="45.64027" lon="5.89252">
        <ele>236</ele>
        <time>2021-09-10T08:18:43.671Z</time>
      </trkpt>
      <trkpt lat="45.64032" lon="5.89252">
        <ele>236</ele>
        <time>2021-09-10T08:18:44.672Z</time>
      </trkpt>
      <trkpt lat="45.64038" lon="5.89252">
        <ele>236</ele>
        <time>2021-09-10T08:18:45.672Z</time>
      </trkpt>
      <trkpt lat="45.64043" lon="5.89253">
        <ele>236</ele>
        <time>2021-09-10T08:18:46.672Z</time>
      </trkpt>
      <trkpt lat="45.64049" lon="5.89253">
        <ele>236</ele>
        <time>2021-09-10T08:18:47.672Z</time>
      </trkpt>
      <trkpt lat="45.64055" lon="5.89253">
        <ele>236</ele>
        <time>2021-09-10T08:18:48.672Z</time>
      </trkpt>
      <trkpt lat="45.6406" lon="5.89254">
        <ele>236</ele>
        <time>2021-09-10T08:18:49.672Z</time>
      </trkpt>
      <trkpt lat="45.64065" lon="5.89255">
        <ele>236</ele>
        <time>2021-09-10T08:18:50.672Z</time>
      </trkpt>
      <trkpt lat="45.64072" lon="5.89255">
        <ele>237</ele>
        <time>2021-09-10T08:18:51.672Z</time>
      </trkpt>
      <trkpt lat="45.64078" lon="5.89256">
        <ele>237</ele>
        <time>2021-09-10T08:18:52.672Z</time>
      </trkpt>
      <trkpt lat="45.64083" lon="5.89256">
        <ele>237</ele>
        <time>2021-09-10T08:18:53.672Z</time>
      </trkpt>
      <trkpt lat="45.64088" lon="5.89257">
        <ele>238</ele>
        <time>2021-09-10T08:18:54.672Z</time>
      </trkpt>
      <trkpt lat="45.64094" lon="5.89257">
        <ele>238</ele>
        <time>2021-09-10T08:18:55.672Z</time>
      </trkpt>
      <trkpt lat="45.64099" lon="5.89257">
        <ele>238</ele>
        <time>2021-09-10T08:18:56.672Z</time>
      </trkpt>
      <trkpt lat="45.64105" lon="5.89258">
        <ele>237</ele>
        <time>2021-09-10T08:18:57.672Z</time>
      </trkpt>
      <trkpt lat="45.64111" lon="5.89258">
        <ele>237</ele>
        <time>2021-09-10T08:18:58.672Z</time>
      </trkpt>
      <trkpt lat="45.64116" lon="5.89258">
        <ele>237</ele>
        <time>2021-09-10T08:18:59.672Z</time>
      </trkpt>
      <trkpt lat="45.64122" lon="5.89259">
        <ele>236</ele>
        <time>2021-09-10T08:19:00.672Z</time>
      </trkpt>
      <trkpt lat="45.64129" lon="5.89259">
        <ele>236</ele>
        <time>2021-09-10T08:19:01.672Z</time>
      </trkpt>
      <trkpt lat="45.64134" lon="5.8926">
        <ele>236</ele>
        <time>2021-09-10T08:19:02.672Z</time>
      </trkpt>
      <trkpt lat="45.6414" lon="5.8926">
        <ele>236</ele>
        <time>2021-09-10T08:19:03.672Z</time>
      </trkpt>
      <trkpt lat="45.64146" lon="5.89261">
        <ele>236</ele>
        <time>2021-09-10T08:19:04.672Z</time>
      </trkpt>
      <trkpt lat="45.64152" lon="5.89261">
        <ele>236</ele>
        <time>2021-09-10T08:19:05.672Z</time>
      </trkpt>
      <trkpt lat="45.64158" lon="5.89262">
        <ele>236</ele>
        <time>2021-09-10T08:19:06.672Z</time>
      </trkpt>
      <trkpt lat="45.64164" lon="5.89262">
        <ele>236</ele>
        <time>2021-09-10T08:19:07.672Z</time>
      </trkpt>
      <trkpt lat="45.6417" lon="5.89262">
        <ele>236</ele>
        <time>2021-09-10T08:19:08.672Z</time>
      </trkpt>
      <trkpt lat="45.64175" lon="5.89263">
        <ele>237</ele>
        <time>2021-09-10T08:19:09.672Z</time>
      </trkpt>
      <trkpt lat="45.64181" lon="5.89263">
        <ele>237</ele>
        <time>2021-09-10T08:19:10.672Z</time>
      </trkpt>
      <trkpt lat="45.64187" lon="5.89264">
        <ele>237</ele>
        <time>2021-09-10T08:19:11.672Z</time>
      </trkpt>
      <trkpt lat="45.64193" lon="5.89264">
        <ele>237</ele>
        <time>2021-09-10T08:19:12.672Z</time>
      </trkpt>
      <trkpt lat="45.64199" lon="5.89264">
        <ele>237</ele>
        <time>2021-09-10T08:19:13.672Z</time>
      </trkpt>
      <trkpt lat="45.64205" lon="5.89265">
        <ele>237</ele>
        <time>2021-09-10T08:19:14.672Z</time>
      </trkpt>
      <trkpt lat="45.64211" lon="5.89265">
        <ele>237</ele>
        <time>2021-09-10T08:19:15.672Z</time>
      </trkpt>
      <trkpt lat="45.64216" lon="5.89266">
        <ele>237</ele>
        <time>2021-09-10T08:19:16.672Z</time>
      </trkpt>
      <trkpt lat="45.64222" lon="5.89266">
        <ele>237</ele>
        <time>2021-09-10T08:19:17.672Z</time>
      </trkpt>
      <trkpt lat="45.64228" lon="5.89266">
        <ele>237</ele>
        <time>2021-09-10T08:19:18.672Z</time>
      </trkpt>
      <trkpt lat="45.64234" lon="5.89267">
        <ele>236</ele>
        <time>2021-09-10T08:19:19.672Z</time>
      </trkpt>
      <trkpt lat="45.64239" lon="5.89267">
        <ele>236</ele>
        <time>2021-09-10T08:19:20.672Z</time>
      </trkpt>
      <trkpt lat="45.64246" lon="5.89268">
        <ele>236</ele>
        <time>2021-09-10T08:19:21.672Z</time>
      </trkpt>
      <trkpt lat="45.64252" lon="5.89268">
        <ele>235</ele>
        <time>2021-09-10T08:19:22.672Z</time>
      </trkpt>
      <trkpt lat="45.64258" lon="5.89269">
        <ele>235</ele>
        <time>2021-09-10T08:19:23.672Z</time>
      </trkpt>
      <trkpt lat="45.64262" lon="5.89269">
        <ele>235</ele>
        <time>2021-09-10T08:19:24.672Z</time>
      </trkpt>
      <trkpt lat="45.64268" lon="5.89269">
        <ele>235</ele>
        <time>2021-09-10T08:19:25.672Z</time>
      </trkpt>
      <trkpt lat="45.64275" lon="5.8927">
        <ele>234</ele>
        <time>2021-09-10T08:19:26.671Z</time>
      </trkpt>
      <trkpt lat="45.6428" lon="5.89271">
        <ele>234</ele>
        <time>2021-09-10T08:19:27.672Z</time>
      </trkpt>
      <trkpt lat="45.64286" lon="5.89271">
        <ele>234</ele>
        <time>2021-09-10T08:19:28.671Z</time>
      </trkpt>
      <trkpt lat="45.64291" lon="5.89271">
        <ele>234</ele>
        <time>2021-09-10T08:19:29.672Z</time>
      </trkpt>
      <trkpt lat="45.64296" lon="5.89272">
        <ele>234</ele>
        <time>2021-09-10T08:19:30.672Z</time>
      </trkpt>
      <trkpt lat="45.64302" lon="5.89272">
        <ele>233</ele>
        <time>2021-09-10T08:19:31.671Z</time>
      </trkpt>
      <trkpt lat="45.64309" lon="5.89273">
        <ele>233</ele>
        <time>2021-09-10T08:19:32.672Z</time>
      </trkpt>
      <trkpt lat="45.64314" lon="5.89274">
        <ele>233</ele>
        <time>2021-09-10T08:19:33.672Z</time>
      </trkpt>
      <trkpt lat="45.64319" lon="5.89274">
        <ele>233</ele>
        <time>2021-09-10T08:19:34.672Z</time>
      </trkpt>
      <trkpt lat="45.64324" lon="5.89275">
        <ele>233</ele>
        <time>2021-09-10T08:19:35.671Z</time>
      </trkpt>
      <trkpt lat="45.6433" lon="5.89275">
        <ele>233</ele>
        <time>2021-09-10T08:19:36.672Z</time>
      </trkpt>
      <trkpt lat="45.64337" lon="5.89276">
        <ele>234</ele>
        <time>2021-09-10T08:19:37.672Z</time>
      </trkpt>
      <trkpt lat="45.64341" lon="5.89276">
        <ele>234</ele>
        <time>2021-09-10T08:19:38.672Z</time>
      </trkpt>
      <trkpt lat="45.64348" lon="5.89276">
        <ele>234</ele>
        <time>2021-09-10T08:19:39.672Z</time>
      </trkpt>
      <trkpt lat="45.64352" lon="5.89276">
        <ele>234</ele>
        <time>2021-09-10T08:19:40.671Z</time>
      </trkpt>
      <trkpt lat="45.64358" lon="5.89277">
        <ele>234</ele>
        <time>2021-09-10T08:19:41.672Z</time>
      </trkpt>
      <trkpt lat="45.64365" lon="5.89277">
        <ele>234</ele>
        <time>2021-09-10T08:19:42.672Z</time>
      </trkpt>
      <trkpt lat="45.64371" lon="5.89277">
        <ele>234</ele>
        <time>2021-09-10T08:19:43.671Z</time>
      </trkpt>
      <trkpt lat="45.64376" lon="5.89278">
        <ele>234</ele>
        <time>2021-09-10T08:19:44.672Z</time>
      </trkpt>
      <trkpt lat="45.64381" lon="5.89278">
        <ele>233</ele>
        <time>2021-09-10T08:19:45.671Z</time>
      </trkpt>
      <trkpt lat="45.64386" lon="5.89278">
        <ele>233</ele>
        <time>2021-09-10T08:19:46.671Z</time>
      </trkpt>
      <trkpt lat="45.64393" lon="5.89279">
        <ele>234</ele>
        <time>2021-09-10T08:19:47.672Z</time>
      </trkpt>
      <trkpt lat="45.64399" lon="5.89279">
        <ele>234</ele>
        <time>2021-09-10T08:19:48.671Z</time>
      </trkpt>
      <trkpt lat="45.64405" lon="5.8928">
        <ele>235</ele>
        <time>2021-09-10T08:19:49.672Z</time>
      </trkpt>
      <trkpt lat="45.6441" lon="5.8928">
        <ele>235</ele>
        <time>2021-09-10T08:19:50.672Z</time>
      </trkpt>
      <trkpt lat="45.64415" lon="5.8928">
        <ele>235</ele>
        <time>2021-09-10T08:19:51.672Z</time>
      </trkpt>
      <trkpt lat="45.64422" lon="5.8928">
        <ele>235</ele>
        <time>2021-09-10T08:19:52.672Z</time>
      </trkpt>
      <trkpt lat="45.64427" lon="5.89281">
        <ele>235</ele>
        <time>2021-09-10T08:19:53.672Z</time>
      </trkpt>
      <trkpt lat="45.64433" lon="5.89281">
        <ele>235</ele>
        <time>2021-09-10T08:19:54.672Z</time>
      </trkpt>
      <trkpt lat="45.64438" lon="5.89282">
        <ele>235</ele>
        <time>2021-09-10T08:19:55.671Z</time>
      </trkpt>
      <trkpt lat="45.64444" lon="5.89282">
        <ele>234</ele>
        <time>2021-09-10T08:19:56.672Z</time>
      </trkpt>
      <trkpt lat="45.64451" lon="5.89282">
        <ele>234</ele>
        <time>2021-09-10T08:19:57.671Z</time>
      </trkpt>
      <trkpt lat="45.64456" lon="5.89282">
        <ele>234</ele>
        <time>2021-09-10T08:19:58.672Z</time>
      </trkpt>
      <trkpt lat="45.64462" lon="5.89283">
        <ele>234</ele>
        <time>2021-09-10T08:19:59.672Z</time>
      </trkpt>
      <trkpt lat="45.64467" lon="5.89283">
        <ele>234</ele>
        <time>2021-09-10T08:20:00.672Z</time>
      </trkpt>
      <trkpt lat="45.64472" lon="5.89283">
        <ele>234</ele>
        <time>2021-09-10T08:20:01.672Z</time>
      </trkpt>
      <trkpt lat="45.64478" lon="5.89284">
        <ele>234</ele>
        <time>2021-09-10T08:20:02.672Z</time>
      </trkpt>
      <trkpt lat="45.64485" lon="5.89284">
        <ele>235</ele>
        <time>2021-09-10T08:20:03.672Z</time>
      </trkpt>
      <trkpt lat="45.64491" lon="5.89284">
        <ele>235</ele>
        <time>2021-09-10T08:20:04.672Z</time>
      </trkpt>
      <trkpt lat="45.64497" lon="5.89285">
        <ele>235</ele>
        <time>2021-09-10T08:20:05.672Z</time>
      </trkpt>
      <trkpt lat="45.64503" lon="5.89285">
        <ele>236</ele>
        <time>2021-09-10T08:20:06.671Z</time>
      </trkpt>
      <trkpt lat="45.64509" lon="5.89286">
        <ele>236</ele>
        <time>2021-09-10T08:20:07.671Z</time>
      </trkpt>
      <trkpt lat="45.64514" lon="5.89286">
        <ele>237</ele>
        <time>2021-09-10T08:20:08.671Z</time>
      </trkpt>
      <trkpt lat="45.6452" lon="5.89287">
        <ele>237</ele>
        <time>2021-09-10T08:20:09.671Z</time>
      </trkpt>
      <trkpt lat="45.64525" lon="5.89288">
        <ele>237</ele>
        <time>2021-09-10T08:20:10.672Z</time>
      </trkpt>
      <trkpt lat="45.6453" lon="5.89288">
        <ele>237</ele>
        <time>2021-09-10T08:20:11.671Z</time>
      </trkpt>
      <trkpt lat="45.64537" lon="5.89288">
        <ele>237</ele>
        <time>2021-09-10T08:20:12.672Z</time>
      </trkpt>
      <trkpt lat="45.64543" lon="5.89289">
        <ele>237</ele>
        <time>2021-09-10T08:20:13.672Z</time>
      </trkpt>
      <trkpt lat="45.64549" lon="5.89289">
        <ele>236</ele>
        <time>2021-09-10T08:20:14.672Z</time>
      </trkpt>
      <trkpt lat="45.64554" lon="5.8929">
        <ele>236</ele>
        <time>2021-09-10T08:20:15.672Z</time>
      </trkpt>
      <trkpt lat="45.6456" lon="5.8929">
        <ele>235</ele>
        <time>2021-09-10T08:20:16.672Z</time>
      </trkpt>
      <trkpt lat="45.64565" lon="5.8929">
        <ele>235</ele>
        <time>2021-09-10T08:20:17.672Z</time>
      </trkpt>
      <trkpt lat="45.64571" lon="5.89291">
        <ele>235</ele>
        <time>2021-09-10T08:20:18.672Z</time>
      </trkpt>
      <trkpt lat="45.64577" lon="5.89291">
        <ele>235</ele>
        <time>2021-09-10T08:20:19.672Z</time>
      </trkpt>
      <trkpt lat="45.64583" lon="5.89291">
        <ele>235</ele>
        <time>2021-09-10T08:20:20.672Z</time>
      </trkpt>
      <trkpt lat="45.64587" lon="5.89292">
        <ele>235</ele>
        <time>2021-09-10T08:20:21.672Z</time>
      </trkpt>
      <trkpt lat="45.64594" lon="5.89292">
        <ele>235</ele>
        <time>2021-09-10T08:20:22.672Z</time>
      </trkpt>
      <trkpt lat="45.646" lon="5.89293">
        <ele>235</ele>
        <time>2021-09-10T08:20:23.671Z</time>
      </trkpt>
      <trkpt lat="45.64604" lon="5.89293">
        <ele>235</ele>
        <time>2021-09-10T08:20:24.672Z</time>
      </trkpt>
      <trkpt lat="45.6461" lon="5.89294">
        <ele>235</ele>
        <time>2021-09-10T08:20:25.672Z</time>
      </trkpt>
      <trkpt lat="45.64616" lon="5.89294">
        <ele>235</ele>
        <time>2021-09-10T08:20:26.672Z</time>
      </trkpt>
      <trkpt lat="45.64623" lon="5.89296">
        <ele>234</ele>
        <time>2021-09-10T08:20:27.672Z</time>
      </trkpt>
      <trkpt lat="45.64628" lon="5.89296">
        <ele>233</ele>
        <time>2021-09-10T08:20:28.672Z</time>
      </trkpt>
      <trkpt lat="45.64634" lon="5.89297">
        <ele>233</ele>
        <time>2021-09-10T08:20:29.672Z</time>
      </trkpt>
      <trkpt lat="45.64638" lon="5.89298">
        <ele>232</ele>
        <time>2021-09-10T08:20:30.671Z</time>
      </trkpt>
      <trkpt lat="45.64644" lon="5.89299">
        <ele>232</ele>
        <time>2021-09-10T08:20:31.672Z</time>
      </trkpt>
      <trkpt lat="45.6465" lon="5.893">
        <ele>232</ele>
        <time>2021-09-10T08:20:32.672Z</time>
      </trkpt>
      <trkpt lat="45.64656" lon="5.893">
        <ele>232</ele>
        <time>2021-09-10T08:20:33.672Z</time>
      </trkpt>
      <trkpt lat="45.64662" lon="5.89301">
        <ele>232</ele>
        <time>2021-09-10T08:20:34.672Z</time>
      </trkpt>
      <trkpt lat="45.64666" lon="5.89302">
        <ele>232</ele>
        <time>2021-09-10T08:20:35.672Z</time>
      </trkpt>
      <trkpt lat="45.64672" lon="5.89303">
        <ele>232</ele>
        <time>2021-09-10T08:20:36.672Z</time>
      </trkpt>
      <trkpt lat="45.64678" lon="5.89304">
        <ele>232</ele>
        <time>2021-09-10T08:20:37.672Z</time>
      </trkpt>
      <trkpt lat="45.64684" lon="5.89305">
        <ele>232</ele>
        <time>2021-09-10T08:20:38.672Z</time>
      </trkpt>
      <trkpt lat="45.64689" lon="5.89305">
        <ele>232</ele>
        <time>2021-09-10T08:20:39.672Z</time>
      </trkpt>
      <trkpt lat="45.64694" lon="5.89306">
        <ele>233</ele>
        <time>2021-09-10T08:20:40.672Z</time>
      </trkpt>
      <trkpt lat="45.64701" lon="5.89308">
        <ele>233</ele>
        <time>2021-09-10T08:20:41.672Z</time>
      </trkpt>
      <trkpt lat="45.64706" lon="5.89309">
        <ele>233</ele>
        <time>2021-09-10T08:20:42.671Z</time>
      </trkpt>
      <trkpt lat="45.64712" lon="5.8931">
        <ele>233</ele>
        <time>2021-09-10T08:20:43.671Z</time>
      </trkpt>
      <trkpt lat="45.64717" lon="5.8931">
        <ele>233</ele>
        <time>2021-09-10T08:20:44.672Z</time>
      </trkpt>
      <trkpt lat="45.64722" lon="5.89311">
        <ele>233</ele>
        <time>2021-09-10T08:20:45.672Z</time>
      </trkpt>
      <trkpt lat="45.64728" lon="5.89313">
        <ele>233</ele>
        <time>2021-09-10T08:20:46.672Z</time>
      </trkpt>
      <trkpt lat="45.64733" lon="5.89315">
        <ele>233</ele>
        <time>2021-09-10T08:20:47.672Z</time>
      </trkpt>
      <trkpt lat="45.64738" lon="5.89319">
        <ele>233</ele>
        <time>2021-09-10T08:20:48.672Z</time>
      </trkpt>
      <trkpt lat="45.64742" lon="5.89322">
        <ele>233</ele>
        <time>2021-09-10T08:20:49.672Z</time>
      </trkpt>
      <trkpt lat="45.64747" lon="5.89326">
        <ele>233</ele>
        <time>2021-09-10T08:20:50.671Z</time>
      </trkpt>
      <trkpt lat="45.64752" lon="5.89332">
        <ele>233</ele>
        <time>2021-09-10T08:20:51.672Z</time>
      </trkpt>
      <trkpt lat="45.64756" lon="5.89338">
        <ele>233</ele>
        <time>2021-09-10T08:20:52.672Z</time>
      </trkpt>
      <trkpt lat="45.6476" lon="5.89344">
        <ele>234</ele>
        <time>2021-09-10T08:20:53.672Z</time>
      </trkpt>
      <trkpt lat="45.64762" lon="5.89349">
        <ele>234</ele>
        <time>2021-09-10T08:20:54.672Z</time>
      </trkpt>
      <trkpt lat="45.64765" lon="5.89356">
        <ele>234</ele>
        <time>2021-09-10T08:20:55.672Z</time>
      </trkpt>
      <trkpt lat="45.64768" lon="5.89364">
        <ele>234</ele>
        <time>2021-09-10T08:20:56.672Z</time>
      </trkpt>
      <trkpt lat="45.64771" lon="5.8937">
        <ele>234</ele>
        <time>2021-09-10T08:20:57.672Z</time>
      </trkpt>
      <trkpt lat="45.64774" lon="5.89377">
        <ele>233</ele>
        <time>2021-09-10T08:20:58.672Z</time>
      </trkpt>
      <trkpt lat="45.64777" lon="5.89382">
        <ele>233</ele>
        <time>2021-09-10T08:20:59.672Z</time>
      </trkpt>
      <trkpt lat="45.64781" lon="5.8939">
        <ele>233</ele>
        <time>2021-09-10T08:21:00.672Z</time>
      </trkpt>
      <trkpt lat="45.64784" lon="5.89396">
        <ele>233</ele>
        <time>2021-09-10T08:21:01.672Z</time>
      </trkpt>
      <trkpt lat="45.64787" lon="5.89402">
        <ele>233</ele>
        <time>2021-09-10T08:21:02.672Z</time>
      </trkpt>
      <trkpt lat="45.64791" lon="5.89409">
        <ele>233</ele>
        <time>2021-09-10T08:21:03.672Z</time>
      </trkpt>
      <trkpt lat="45.64793" lon="5.89414">
        <ele>233</ele>
        <time>2021-09-10T08:21:04.672Z</time>
      </trkpt>
      <trkpt lat="45.64796" lon="5.89421">
        <ele>233</ele>
        <time>2021-09-10T08:21:05.672Z</time>
      </trkpt>
      <trkpt lat="45.64798" lon="5.8943">
        <ele>233</ele>
        <time>2021-09-10T08:21:06.672Z</time>
      </trkpt>
      <trkpt lat="45.64799" lon="5.89437">
        <ele>234</ele>
        <time>2021-09-10T08:21:07.672Z</time>
      </trkpt>
      <trkpt lat="45.648" lon="5.89443">
        <ele>234</ele>
        <time>2021-09-10T08:21:08.672Z</time>
      </trkpt>
      <trkpt lat="45.648" lon="5.8945">
        <ele>234</ele>
        <time>2021-09-10T08:21:09.672Z</time>
      </trkpt>
      <trkpt lat="45.648" lon="5.89458">
        <ele>234</ele>
        <time>2021-09-10T08:21:10.672Z</time>
      </trkpt>
      <trkpt lat="45.64799" lon="5.89465">
        <ele>234</ele>
        <time>2021-09-10T08:21:11.672Z</time>
      </trkpt>
      <trkpt lat="45.64798" lon="5.89473">
        <ele>233</ele>
        <time>2021-09-10T08:21:12.671Z</time>
      </trkpt>
      <trkpt lat="45.64796" lon="5.8948">
        <ele>234</ele>
        <time>2021-09-10T08:21:13.671Z</time>
      </trkpt>
      <trkpt lat="45.64794" lon="5.89487">
        <ele>234</ele>
        <time>2021-09-10T08:21:14.671Z</time>
      </trkpt>
      <trkpt lat="45.64792" lon="5.89494">
        <ele>234</ele>
        <time>2021-09-10T08:21:15.672Z</time>
      </trkpt>
      <trkpt lat="45.64788" lon="5.89502">
        <ele>234</ele>
        <time>2021-09-10T08:21:16.672Z</time>
      </trkpt>
      <trkpt lat="45.64785" lon="5.89508">
        <ele>233</ele>
        <time>2021-09-10T08:21:17.672Z</time>
      </trkpt>
      <trkpt lat="45.64781" lon="5.89512">
        <ele>233</ele>
        <time>2021-09-10T08:21:18.671Z</time>
      </trkpt>
      <trkpt lat="45.64777" lon="5.89517">
        <ele>233</ele>
        <time>2021-09-10T08:21:19.672Z</time>
      </trkpt>
      <trkpt lat="45.64774" lon="5.89522">
        <ele>233</ele>
        <time>2021-09-10T08:21:20.672Z</time>
      </trkpt>
      <trkpt lat="45.64769" lon="5.89527">
        <ele>233</ele>
        <time>2021-09-10T08:21:21.671Z</time>
      </trkpt>
      <trkpt lat="45.64765" lon="5.89532">
        <ele>234</ele>
        <time>2021-09-10T08:21:22.671Z</time>
      </trkpt>
      <trkpt lat="45.64762" lon="5.89536">
        <ele>234</ele>
        <time>2021-09-10T08:21:23.672Z</time>
      </trkpt>
      <trkpt lat="45.64758" lon="5.89541">
        <ele>235</ele>
        <time>2021-09-10T08:21:24.672Z</time>
      </trkpt>
      <trkpt lat="45.64753" lon="5.89547">
        <ele>235</ele>
        <time>2021-09-10T08:21:25.672Z</time>
      </trkpt>
      <trkpt lat="45.64749" lon="5.89552">
        <ele>235</ele>
        <time>2021-09-10T08:21:26.671Z</time>
      </trkpt>
      <trkpt lat="45.64745" lon="5.89557">
        <ele>235</ele>
        <time>2021-09-10T08:21:27.672Z</time>
      </trkpt>
      <trkpt lat="45.64742" lon="5.89561">
        <ele>235</ele>
        <time>2021-09-10T08:21:28.672Z</time>
      </trkpt>
      <trkpt lat="45.64738" lon="5.89566">
        <ele>235</ele>
        <time>2021-09-10T08:21:29.672Z</time>
      </trkpt>
      <trkpt lat="45.64734" lon="5.89572">
        <ele>235</ele>
        <time>2021-09-10T08:21:30.672Z</time>
      </trkpt>
      <trkpt lat="45.6473" lon="5.89577">
        <ele>235</ele>
        <time>2021-09-10T08:21:31.672Z</time>
      </trkpt>
      <trkpt lat="45.64727" lon="5.89582">
        <ele>235</ele>
        <time>2021-09-10T08:21:32.672Z</time>
      </trkpt>
      <trkpt lat="45.64724" lon="5.89587">
        <ele>236</ele>
        <time>2021-09-10T08:21:33.672Z</time>
      </trkpt>
      <trkpt lat="45.6472" lon="5.89592">
        <ele>236</ele>
        <time>2021-09-10T08:21:34.672Z</time>
      </trkpt>
      <trkpt lat="45.64716" lon="5.89599">
        <ele>236</ele>
        <time>2021-09-10T08:21:35.672Z</time>
      </trkpt>
      <trkpt lat="45.64713" lon="5.89604">
        <ele>236</ele>
        <time>2021-09-10T08:21:36.672Z</time>
      </trkpt>
      <trkpt lat="45.6471" lon="5.89609">
        <ele>236</ele>
        <time>2021-09-10T08:21:37.672Z</time>
      </trkpt>
      <trkpt lat="45.64707" lon="5.89614">
        <ele>236</ele>
        <time>2021-09-10T08:21:38.672Z</time>
      </trkpt>
      <trkpt lat="45.64704" lon="5.89619">
        <ele>236</ele>
        <time>2021-09-10T08:21:39.671Z</time>
      </trkpt>
      <trkpt lat="45.647" lon="5.89625">
        <ele>236</ele>
        <time>2021-09-10T08:21:40.671Z</time>
      </trkpt>
      <trkpt lat="45.64697" lon="5.8963">
        <ele>236</ele>
        <time>2021-09-10T08:21:41.671Z</time>
      </trkpt>
      <trkpt lat="45.64694" lon="5.89635">
        <ele>237</ele>
        <time>2021-09-10T08:21:42.672Z</time>
      </trkpt>
      <trkpt lat="45.64692" lon="5.8964">
        <ele>237</ele>
        <time>2021-09-10T08:21:43.672Z</time>
      </trkpt>
      <trkpt lat="45.64688" lon="5.89645">
        <ele>237</ele>
        <time>2021-09-10T08:21:44.671Z</time>
      </trkpt>
      <trkpt lat="45.64685" lon="5.89651">
        <ele>237</ele>
        <time>2021-09-10T08:21:45.672Z</time>
      </trkpt>
      <trkpt lat="45.64682" lon="5.89655">
        <ele>237</ele>
        <time>2021-09-10T08:21:46.672Z</time>
      </trkpt>
      <trkpt lat="45.64678" lon="5.89661">
        <ele>238</ele>
        <time>2021-09-10T08:21:47.671Z</time>
      </trkpt>
      <trkpt lat="45.64675" lon="5.89664">
        <ele>238</ele>
        <time>2021-09-10T08:21:48.672Z</time>
      </trkpt>
      <trkpt lat="45.64672" lon="5.89669">
        <ele>238</ele>
        <time>2021-09-10T08:21:49.672Z</time>
      </trkpt>
      <trkpt lat="45.64668" lon="5.89675">
        <ele>238</ele>
        <time>2021-09-10T08:21:50.671Z</time>
      </trkpt>
      <trkpt lat="45.64665" lon="5.8968">
        <ele>239</ele>
        <time>2021-09-10T08:21:51.672Z</time>
      </trkpt>
      <trkpt lat="45.64662" lon="5.89685">
        <ele>240</ele>
        <time>2021-09-10T08:21:52.671Z</time>
      </trkpt>
      <trkpt lat="45.6466" lon="5.8969">
        <ele>240</ele>
        <time>2021-09-10T08:21:53.672Z</time>
      </trkpt>
      <trkpt lat="45.64657" lon="5.89695">
        <ele>240</ele>
        <time>2021-09-10T08:21:54.672Z</time>
      </trkpt>
      <trkpt lat="45.64654" lon="5.89701">
        <ele>240</ele>
        <time>2021-09-10T08:21:55.672Z</time>
      </trkpt>
      <trkpt lat="45.64652" lon="5.89706">
        <ele>239</ele>
        <time>2021-09-10T08:21:56.671Z</time>
      </trkpt>
      <trkpt lat="45.64649" lon="5.89712">
        <ele>239</ele>
        <time>2021-09-10T08:21:57.672Z</time>
      </trkpt>
      <trkpt lat="45.64647" lon="5.89717">
        <ele>239</ele>
        <time>2021-09-10T08:21:58.671Z</time>
      </trkpt>
      <trkpt lat="45.64645" lon="5.89725">
        <ele>239</ele>
        <time>2021-09-10T08:21:59.671Z</time>
      </trkpt>
      <trkpt lat="45.64643" lon="5.89731">
        <ele>238</ele>
        <time>2021-09-10T08:22:00.672Z</time>
      </trkpt>
      <trkpt lat="45.64642" lon="5.89737">
        <ele>238</ele>
        <time>2021-09-10T08:22:01.671Z</time>
      </trkpt>
      <trkpt lat="45.64641" lon="5.89742">
        <ele>238</ele>
        <time>2021-09-10T08:22:02.672Z</time>
      </trkpt>
      <trkpt lat="45.6464" lon="5.89749">
        <ele>238</ele>
        <time>2021-09-10T08:22:03.672Z</time>
      </trkpt>
      <trkpt lat="45.64639" lon="5.89755">
        <ele>237</ele>
        <time>2021-09-10T08:22:04.672Z</time>
      </trkpt>
      <trkpt lat="45.64639" lon="5.89762">
        <ele>237</ele>
        <time>2021-09-10T08:22:05.672Z</time>
      </trkpt>
      <trkpt lat="45.64638" lon="5.89768">
        <ele>237</ele>
        <time>2021-09-10T08:22:06.672Z</time>
      </trkpt>
      <trkpt lat="45.64637" lon="5.89775">
        <ele>237</ele>
        <time>2021-09-10T08:22:07.672Z</time>
      </trkpt>
      <trkpt lat="45.64636" lon="5.89782">
        <ele>238</ele>
        <time>2021-09-10T08:22:08.672Z</time>
      </trkpt>
      <trkpt lat="45.64636" lon="5.8979">
        <ele>237</ele>
        <time>2021-09-10T08:22:09.672Z</time>
      </trkpt>
      <trkpt lat="45.64636" lon="5.89796">
        <ele>237</ele>
        <time>2021-09-10T08:22:10.672Z</time>
      </trkpt>
      <trkpt lat="45.64635" lon="5.89804">
        <ele>237</ele>
        <time>2021-09-10T08:22:11.671Z</time>
      </trkpt>
      <trkpt lat="45.64635" lon="5.89809">
        <ele>236</ele>
        <time>2021-09-10T08:22:12.672Z</time>
      </trkpt>
      <trkpt lat="45.64634" lon="5.89816">
        <ele>236</ele>
        <time>2021-09-10T08:22:13.672Z</time>
      </trkpt>
      <trkpt lat="45.64634" lon="5.89823">
        <ele>236</ele>
        <time>2021-09-10T08:22:14.672Z</time>
      </trkpt>
      <trkpt lat="45.64634" lon="5.8983">
        <ele>236</ele>
        <time>2021-09-10T08:22:15.672Z</time>
      </trkpt>
      <trkpt lat="45.64634" lon="5.89836">
        <ele>237</ele>
        <time>2021-09-10T08:22:16.671Z</time>
      </trkpt>
      <trkpt lat="45.64634" lon="5.89844">
        <ele>237</ele>
        <time>2021-09-10T08:22:17.672Z</time>
      </trkpt>
      <trkpt lat="45.64634" lon="5.8985">
        <ele>237</ele>
        <time>2021-09-10T08:22:18.672Z</time>
      </trkpt>
      <trkpt lat="45.64634" lon="5.89857">
        <ele>237</ele>
        <time>2021-09-10T08:22:19.671Z</time>
      </trkpt>
      <trkpt lat="45.64634" lon="5.89865">
        <ele>237</ele>
        <time>2021-09-10T08:22:20.672Z</time>
      </trkpt>
      <trkpt lat="45.64634" lon="5.89873">
        <ele>237</ele>
        <time>2021-09-10T08:22:21.672Z</time>
      </trkpt>
      <trkpt lat="45.64634" lon="5.89879">
        <ele>237</ele>
        <time>2021-09-10T08:22:22.672Z</time>
      </trkpt>
      <trkpt lat="45.64634" lon="5.89886">
        <ele>237</ele>
        <time>2021-09-10T08:22:23.672Z</time>
      </trkpt>
      <trkpt lat="45.64634" lon="5.89893">
        <ele>236</ele>
        <time>2021-09-10T08:22:24.671Z</time>
      </trkpt>
      <trkpt lat="45.64634" lon="5.89901">
        <ele>235</ele>
        <time>2021-09-10T08:22:25.671Z</time>
      </trkpt>
      <trkpt lat="45.64634" lon="5.89908">
        <ele>235</ele>
        <time>2021-09-10T08:22:26.671Z</time>
      </trkpt>
      <trkpt lat="45.64635" lon="5.89914">
        <ele>235</ele>
        <time>2021-09-10T08:22:27.672Z</time>
      </trkpt>
      <trkpt lat="45.64635" lon="5.8992">
        <ele>235</ele>
        <time>2021-09-10T08:22:28.671Z</time>
      </trkpt>
      <trkpt lat="45.64635" lon="5.89926">
        <ele>235</ele>
        <time>2021-09-10T08:22:29.672Z</time>
      </trkpt>
      <trkpt lat="45.64636" lon="5.89934">
        <ele>235</ele>
        <time>2021-09-10T08:22:30.671Z</time>
      </trkpt>
      <trkpt lat="45.64637" lon="5.89939">
        <ele>235</ele>
        <time>2021-09-10T08:22:31.672Z</time>
      </trkpt>
      <trkpt lat="45.64638" lon="5.89944">
        <ele>235</ele>
        <time>2021-09-10T08:22:32.672Z</time>
      </trkpt>
      <trkpt lat="45.64639" lon="5.89948">
        <ele>235</ele>
        <time>2021-09-10T08:22:33.672Z</time>
      </trkpt>
      <trkpt lat="45.6464" lon="5.89954">
        <ele>235</ele>
        <time>2021-09-10T08:22:34.671Z</time>
      </trkpt>
      <trkpt lat="45.64642" lon="5.89958">
        <ele>236</ele>
        <time>2021-09-10T08:22:35.672Z</time>
      </trkpt>
      <trkpt lat="45.64644" lon="5.89962">
        <ele>236</ele>
        <time>2021-09-10T08:22:36.671Z</time>
      </trkpt>
      <trkpt lat="45.64645" lon="5.89965">
        <ele>237</ele>
        <time>2021-09-10T08:22:37.672Z</time>
      </trkpt>
      <trkpt lat="45.64647" lon="5.89968">
        <ele>237</ele>
        <time>2021-09-10T08:22:38.672Z</time>
      </trkpt>
      <trkpt lat="45.64649" lon="5.89972">
        <ele>237</ele>
        <time>2021-09-10T08:22:39.671Z</time>
      </trkpt>
      <trkpt lat="45.64651" lon="5.89975">
        <ele>237</ele>
        <time>2021-09-10T08:22:40.671Z</time>
      </trkpt>
      <trkpt lat="45.64654" lon="5.89978">
        <ele>237</ele>
        <time>2021-09-10T08:22:41.671Z</time>
      </trkpt>
      <trkpt lat="45.64656" lon="5.8998">
        <ele>237</ele>
        <time>2021-09-10T08:22:42.672Z</time>
      </trkpt>
      <trkpt lat="45.64658" lon="5.89983">
        <ele>237</ele>
        <time>2021-09-10T08:22:43.672Z</time>
      </trkpt>
      <trkpt lat="45.6466" lon="5.89985">
        <ele>237</ele>
        <time>2021-09-10T08:22:44.671Z</time>
      </trkpt>
      <trkpt lat="45.64662" lon="5.89988">
        <ele>238</ele>
        <time>2021-09-10T08:22:45.671Z</time>
      </trkpt>
      <trkpt lat="45.64665" lon="5.89989">
        <ele>239</ele>
        <time>2021-09-10T08:22:46.672Z</time>
      </trkpt>
      <trkpt lat="45.64667" lon="5.89992">
        <ele>239</ele>
        <time>2021-09-10T08:22:47.671Z</time>
      </trkpt>
      <trkpt lat="45.6467" lon="5.89993">
        <ele>240</ele>
        <time>2021-09-10T08:22:48.672Z</time>
      </trkpt>
      <trkpt lat="45.64672" lon="5.89996">
        <ele>240</ele>
        <time>2021-09-10T08:22:49.671Z</time>
      </trkpt>
      <trkpt lat="45.64675" lon="5.89998">
        <ele>240</ele>
        <time>2021-09-10T08:22:50.671Z</time>
      </trkpt>
      <trkpt lat="45.64677" lon="5.9">
        <ele>239</ele>
        <time>2021-09-10T08:22:51.671Z</time>
      </trkpt>
      <trkpt lat="45.64679" lon="5.90002">
        <ele>239</ele>
        <time>2021-09-10T08:22:52.671Z</time>
      </trkpt>
      <trkpt lat="45.64681" lon="5.90005">
        <ele>239</ele>
        <time>2021-09-10T08:22:53.672Z</time>
      </trkpt>
      <trkpt lat="45.64683" lon="5.90007">
        <ele>239</ele>
        <time>2021-09-10T08:22:54.671Z</time>
      </trkpt>
      <trkpt lat="45.64685" lon="5.9001">
        <ele>239</ele>
        <time>2021-09-10T08:22:55.671Z</time>
      </trkpt>
      <trkpt lat="45.64687" lon="5.90012">
        <ele>240</ele>
        <time>2021-09-10T08:22:56.671Z</time>
      </trkpt>
      <trkpt lat="45.64689" lon="5.90015">
        <ele>240</ele>
        <time>2021-09-10T08:22:57.671Z</time>
      </trkpt>
      <trkpt lat="45.64691" lon="5.90019">
        <ele>240</ele>
        <time>2021-09-10T08:22:58.672Z</time>
      </trkpt>
      <trkpt lat="45.64693" lon="5.90022">
        <ele>240</ele>
        <time>2021-09-10T08:22:59.671Z</time>
      </trkpt>
      <trkpt lat="45.64694" lon="5.90025">
        <ele>240</ele>
        <time>2021-09-10T08:23:00.671Z</time>
      </trkpt>
      <trkpt lat="45.64696" lon="5.90028">
        <ele>239</ele>
        <time>2021-09-10T08:23:01.671Z</time>
      </trkpt>
      <trkpt lat="45.64697" lon="5.9003">
        <ele>239</ele>
        <time>2021-09-10T08:23:02.672Z</time>
      </trkpt>
      <trkpt lat="45.64699" lon="5.90033">
        <ele>239</ele>
        <time>2021-09-10T08:23:03.671Z</time>
      </trkpt>
      <trkpt lat="45.64701" lon="5.90036">
        <ele>239</ele>
        <time>2021-09-10T08:23:04.671Z</time>
      </trkpt>
      <trkpt lat="45.64702" lon="5.90039">
        <ele>239</ele>
        <time>2021-09-10T08:23:05.672Z</time>
      </trkpt>
      <trkpt lat="45.64704" lon="5.90042">
        <ele>239</ele>
        <time>2021-09-10T08:23:06.671Z</time>
      </trkpt>
      <trkpt lat="45.64706" lon="5.90045">
        <ele>240</ele>
        <time>2021-09-10T08:23:07.672Z</time>
      </trkpt>
      <trkpt lat="45.64708" lon="5.90047">
        <ele>240</ele>
        <time>2021-09-10T08:23:08.671Z</time>
      </trkpt>
      <trkpt lat="45.6471" lon="5.9005">
        <ele>241</ele>
        <time>2021-09-10T08:23:09.672Z</time>
      </trkpt>
      <trkpt lat="45.64712" lon="5.90052">
        <ele>241</ele>
        <time>2021-09-10T08:23:10.671Z</time>
      </trkpt>
      <trkpt lat="45.64713" lon="5.90054">
        <ele>241</ele>
        <time>2021-09-10T08:23:11.671Z</time>
      </trkpt>
      <trkpt lat="45.64715" lon="5.90057">
        <ele>241</ele>
        <time>2021-09-10T08:23:12.672Z</time>
      </trkpt>
      <trkpt lat="45.64717" lon="5.90059">
        <ele>241</ele>
        <time>2021-09-10T08:23:13.671Z</time>
      </trkpt>
      <trkpt lat="45.64719" lon="5.90062">
        <ele>241</ele>
        <time>2021-09-10T08:23:14.672Z</time>
      </trkpt>
      <trkpt lat="45.64721" lon="5.90064">
        <ele>241</ele>
        <time>2021-09-10T08:23:15.671Z</time>
      </trkpt>
      <trkpt lat="45.64723" lon="5.90066">
        <ele>242</ele>
        <time>2021-09-10T08:23:16.671Z</time>
      </trkpt>
      <trkpt lat="45.64725" lon="5.90069">
        <ele>242</ele>
        <time>2021-09-10T08:23:17.671Z</time>
      </trkpt>
      <trkpt lat="45.64727" lon="5.90071">
        <ele>243</ele>
        <time>2021-09-10T08:23:18.671Z</time>
      </trkpt>
      <trkpt lat="45.64729" lon="5.90074">
        <ele>244</ele>
        <time>2021-09-10T08:23:19.671Z</time>
      </trkpt>
      <trkpt lat="45.64731" lon="5.90076">
        <ele>244</ele>
        <time>2021-09-10T08:23:20.671Z</time>
      </trkpt>
      <trkpt lat="45.64733" lon="5.90079">
        <ele>244</ele>
        <time>2021-09-10T08:23:21.671Z</time>
      </trkpt>
      <trkpt lat="45.64735" lon="5.90081">
        <ele>245</ele>
        <time>2021-09-10T08:23:22.672Z</time>
      </trkpt>
      <trkpt lat="45.64737" lon="5.90083">
        <ele>245</ele>
        <time>2021-09-10T08:23:23.671Z</time>
      </trkpt>
      <trkpt lat="45.64739" lon="5.90086">
        <ele>246</ele>
        <time>2021-09-10T08:23:24.672Z</time>
      </trkpt>
      <trkpt lat="45.64741" lon="5.90088">
        <ele>247</ele>
        <time>2021-09-10T08:23:25.672Z</time>
      </trkpt>
      <trkpt lat="45.64743" lon="5.90089">
        <ele>248</ele>
        <time>2021-09-10T08:23:26.672Z</time>
      </trkpt>
      <trkpt lat="45.64744" lon="5.90093">
        <ele>248</ele>
        <time>2021-09-10T08:23:27.672Z</time>
      </trkpt>
      <trkpt lat="45.64746" lon="5.90095">
        <ele>249</ele>
        <time>2021-09-10T08:23:28.671Z</time>
      </trkpt>
      <trkpt lat="45.64747" lon="5.90097">
        <ele>249</ele>
        <time>2021-09-10T08:23:29.672Z</time>
      </trkpt>
      <trkpt lat="45.6475" lon="5.901">
        <ele>250</ele>
        <time>2021-09-10T08:23:30.672Z</time>
      </trkpt>
      <trkpt lat="45.64751" lon="5.90104">
        <ele>251</ele>
        <time>2021-09-10T08:23:31.672Z</time>
      </trkpt>
      <trkpt lat="45.64752" lon="5.90107">
        <ele>251</ele>
        <time>2021-09-10T08:23:32.671Z</time>
      </trkpt>
      <trkpt lat="45.64753" lon="5.90109">
        <ele>251</ele>
        <time>2021-09-10T08:23:33.672Z</time>
      </trkpt>
      <trkpt lat="45.64754" lon="5.90112">
        <ele>251</ele>
        <time>2021-09-10T08:23:34.672Z</time>
      </trkpt>
      <trkpt lat="45.64755" lon="5.90114">
        <ele>251</ele>
        <time>2021-09-10T08:23:35.672Z</time>
      </trkpt>
      <trkpt lat="45.64756" lon="5.90118">
        <ele>251</ele>
        <time>2021-09-10T08:23:36.672Z</time>
      </trkpt>
      <trkpt lat="45.64757" lon="5.90121">
        <ele>251</ele>
        <time>2021-09-10T08:23:37.672Z</time>
      </trkpt>
      <trkpt lat="45.64758" lon="5.90125">
        <ele>251</ele>
        <time>2021-09-10T08:23:38.672Z</time>
      </trkpt>
      <trkpt lat="45.64759" lon="5.90128">
        <ele>251</ele>
        <time>2021-09-10T08:23:39.671Z</time>
      </trkpt>
      <trkpt lat="45.6476" lon="5.90131">
        <ele>251</ele>
        <time>2021-09-10T08:23:40.672Z</time>
      </trkpt>
      <trkpt lat="45.64761" lon="5.90134">
        <ele>251</ele>
        <time>2021-09-10T08:23:41.671Z</time>
      </trkpt>
      <trkpt lat="45.64762" lon="5.90138">
        <ele>251</ele>
        <time>2021-09-10T08:23:42.671Z</time>
      </trkpt>
      <trkpt lat="45.64763" lon="5.90141">
        <ele>251</ele>
        <time>2021-09-10T08:23:43.671Z</time>
      </trkpt>
      <trkpt lat="45.64764" lon="5.90144">
        <ele>251</ele>
        <time>2021-09-10T08:23:44.672Z</time>
      </trkpt>
      <trkpt lat="45.64765" lon="5.90147">
        <ele>252</ele>
        <time>2021-09-10T08:23:45.671Z</time>
      </trkpt>
      <trkpt lat="45.64765" lon="5.9015">
        <ele>251</ele>
        <time>2021-09-10T08:23:46.672Z</time>
      </trkpt>
      <trkpt lat="45.64767" lon="5.90153">
        <ele>251</ele>
        <time>2021-09-10T08:23:47.671Z</time>
      </trkpt>
      <trkpt lat="45.64768" lon="5.90157">
        <ele>251</ele>
        <time>2021-09-10T08:23:48.672Z</time>
      </trkpt>
      <trkpt lat="45.64769" lon="5.9016">
        <ele>250</ele>
        <time>2021-09-10T08:23:49.671Z</time>
      </trkpt>
      <trkpt lat="45.6477" lon="5.90163">
        <ele>250</ele>
        <time>2021-09-10T08:23:50.672Z</time>
      </trkpt>
      <trkpt lat="45.64771" lon="5.90166">
        <ele>250</ele>
        <time>2021-09-10T08:23:51.671Z</time>
      </trkpt>
      <trkpt lat="45.64772" lon="5.9017">
        <ele>250</ele>
        <time>2021-09-10T08:23:52.672Z</time>
      </trkpt>
      <trkpt lat="45.64773" lon="5.90173">
        <ele>250</ele>
        <time>2021-09-10T08:23:53.672Z</time>
      </trkpt>
      <trkpt lat="45.64774" lon="5.90176">
        <ele>250</ele>
        <time>2021-09-10T08:23:54.671Z</time>
      </trkpt>
      <trkpt lat="45.64775" lon="5.90178">
        <ele>250</ele>
        <time>2021-09-10T08:23:55.672Z</time>
      </trkpt>
      <trkpt lat="45.64776" lon="5.90182">
        <ele>249</ele>
        <time>2021-09-10T08:23:56.672Z</time>
      </trkpt>
      <trkpt lat="45.64777" lon="5.90185">
        <ele>249</ele>
        <time>2021-09-10T08:23:57.672Z</time>
      </trkpt>
      <trkpt lat="45.64778" lon="5.90189">
        <ele>249</ele>
        <time>2021-09-10T08:23:58.671Z</time>
      </trkpt>
      <trkpt lat="45.64779" lon="5.90192">
        <ele>249</ele>
        <time>2021-09-10T08:23:59.672Z</time>
      </trkpt>
      <trkpt lat="45.6478" lon="5.90195">
        <ele>249</ele>
        <time>2021-09-10T08:24:00.672Z</time>
      </trkpt>
      <trkpt lat="45.64782" lon="5.90198">
        <ele>249</ele>
        <time>2021-09-10T08:24:01.672Z</time>
      </trkpt>
      <trkpt lat="45.64783" lon="5.90201">
        <ele>250</ele>
        <time>2021-09-10T08:24:02.672Z</time>
      </trkpt>
      <trkpt lat="45.64784" lon="5.90204">
        <ele>251</ele>
        <time>2021-09-10T08:24:03.672Z</time>
      </trkpt>
      <trkpt lat="45.64785" lon="5.90207">
        <ele>252</ele>
        <time>2021-09-10T08:24:04.672Z</time>
      </trkpt>
      <trkpt lat="45.64786" lon="5.9021">
        <ele>253</ele>
        <time>2021-09-10T08:24:05.671Z</time>
      </trkpt>
      <trkpt lat="45.64787" lon="5.90213">
        <ele>254</ele>
        <time>2021-09-10T08:24:06.672Z</time>
      </trkpt>
      <trkpt lat="45.64788" lon="5.90216">
        <ele>254</ele>
        <time>2021-09-10T08:24:07.672Z</time>
      </trkpt>
      <trkpt lat="45.64789" lon="5.90219">
        <ele>255</ele>
        <time>2021-09-10T08:24:08.672Z</time>
      </trkpt>
      <trkpt lat="45.6479" lon="5.90222">
        <ele>255</ele>
        <time>2021-09-10T08:24:09.672Z</time>
      </trkpt>
      <trkpt lat="45.64792" lon="5.90225">
        <ele>255</ele>
        <time>2021-09-10T08:24:10.672Z</time>
      </trkpt>
      <trkpt lat="45.64792" lon="5.90228">
        <ele>256</ele>
        <time>2021-09-10T08:24:11.671Z</time>
      </trkpt>
      <trkpt lat="45.64794" lon="5.90232">
        <ele>257</ele>
        <time>2021-09-10T08:24:12.672Z</time>
      </trkpt>
      <trkpt lat="45.64795" lon="5.90235">
        <ele>256</ele>
        <time>2021-09-10T08:24:13.671Z</time>
      </trkpt>
      <trkpt lat="45.64795" lon="5.90237">
        <ele>257</ele>
        <time>2021-09-10T08:24:14.672Z</time>
      </trkpt>
      <trkpt lat="45.64797" lon="5.9024">
        <ele>257</ele>
        <time>2021-09-10T08:24:15.671Z</time>
      </trkpt>
      <trkpt lat="45.64798" lon="5.90243">
        <ele>258</ele>
        <time>2021-09-10T08:24:16.672Z</time>
      </trkpt>
      <trkpt lat="45.64799" lon="5.90246">
        <ele>258</ele>
        <time>2021-09-10T08:24:17.672Z</time>
      </trkpt>
      <trkpt lat="45.648" lon="5.90248">
        <ele>258</ele>
        <time>2021-09-10T08:24:18.672Z</time>
      </trkpt>
      <trkpt lat="45.64802" lon="5.90251">
        <ele>258</ele>
        <time>2021-09-10T08:24:19.672Z</time>
      </trkpt>
      <trkpt lat="45.64803" lon="5.90253">
        <ele>257</ele>
        <time>2021-09-10T08:24:20.672Z</time>
      </trkpt>
      <trkpt lat="45.64805" lon="5.90256">
        <ele>257</ele>
        <time>2021-09-10T08:24:21.672Z</time>
      </trkpt>
      <trkpt lat="45.64807" lon="5.90259">
        <ele>257</ele>
        <time>2021-09-10T08:24:22.672Z</time>
      </trkpt>
      <trkpt lat="45.64808" lon="5.90261">
        <ele>257</ele>
        <time>2021-09-10T08:24:23.672Z</time>
      </trkpt>
      <trkpt lat="45.6481" lon="5.90263">
        <ele>257</ele>
        <time>2021-09-10T08:24:24.672Z</time>
      </trkpt>
      <trkpt lat="45.64811" lon="5.90266">
        <ele>257</ele>
        <time>2021-09-10T08:24:25.671Z</time>
      </trkpt>
      <trkpt lat="45.64813" lon="5.90268">
        <ele>257</ele>
        <time>2021-09-10T08:24:26.672Z</time>
      </trkpt>
      <trkpt lat="45.64814" lon="5.90271">
        <ele>257</ele>
        <time>2021-09-10T08:24:27.672Z</time>
      </trkpt>
      <trkpt lat="45.64816" lon="5.90273">
        <ele>258</ele>
        <time>2021-09-10T08:24:28.672Z</time>
      </trkpt>
      <trkpt lat="45.64817" lon="5.90275">
        <ele>258</ele>
        <time>2021-09-10T08:24:29.671Z</time>
      </trkpt>
      <trkpt lat="45.64819" lon="5.90278">
        <ele>259</ele>
        <time>2021-09-10T08:24:30.671Z</time>
      </trkpt>
      <trkpt lat="45.64821" lon="5.9028">
        <ele>259</ele>
        <time>2021-09-10T08:24:31.672Z</time>
      </trkpt>
      <trkpt lat="45.64823" lon="5.90283">
        <ele>260</ele>
        <time>2021-09-10T08:24:32.672Z</time>
      </trkpt>
      <trkpt lat="45.64825" lon="5.90285">
        <ele>260</ele>
        <time>2021-09-10T08:24:33.672Z</time>
      </trkpt>
      <trkpt lat="45.64827" lon="5.90287">
        <ele>261</ele>
        <time>2021-09-10T08:24:34.672Z</time>
      </trkpt>
      <trkpt lat="45.6483" lon="5.90289">
        <ele>261</ele>
        <time>2021-09-10T08:24:35.672Z</time>
      </trkpt>
      <trkpt lat="45.64832" lon="5.90291">
        <ele>260</ele>
        <time>2021-09-10T08:24:36.672Z</time>
      </trkpt>
      <trkpt lat="45.64835" lon="5.90293">
        <ele>260</ele>
        <time>2021-09-10T08:24:37.671Z</time>
      </trkpt>
      <trkpt lat="45.64837" lon="5.90294">
        <ele>260</ele>
        <time>2021-09-10T08:24:38.672Z</time>
      </trkpt>
      <trkpt lat="45.64839" lon="5.90296">
        <ele>260</ele>
        <time>2021-09-10T08:24:39.672Z</time>
      </trkpt>
      <trkpt lat="45.64843" lon="5.90298">
        <ele>259</ele>
        <time>2021-09-10T08:24:40.672Z</time>
      </trkpt>
      <trkpt lat="45.64845" lon="5.90299">
        <ele>259</ele>
        <time>2021-09-10T08:24:41.672Z</time>
      </trkpt>
      <trkpt lat="45.64848" lon="5.90301">
        <ele>259</ele>
        <time>2021-09-10T08:24:42.672Z</time>
      </trkpt>
      <trkpt lat="45.6485" lon="5.90302">
        <ele>259</ele>
        <time>2021-09-10T08:24:43.672Z</time>
      </trkpt>
      <trkpt lat="45.64854" lon="5.90303">
        <ele>259</ele>
        <time>2021-09-10T08:24:44.672Z</time>
      </trkpt>
      <trkpt lat="45.64857" lon="5.90304">
        <ele>259</ele>
        <time>2021-09-10T08:24:45.671Z</time>
      </trkpt>
      <trkpt lat="45.6486" lon="5.90305">
        <ele>259</ele>
        <time>2021-09-10T08:24:46.672Z</time>
      </trkpt>
      <trkpt lat="45.64863" lon="5.90306">
        <ele>260</ele>
        <time>2021-09-10T08:24:47.671Z</time>
      </trkpt>
      <trkpt lat="45.64865" lon="5.90306">
        <ele>260</ele>
        <time>2021-09-10T08:24:48.672Z</time>
      </trkpt>
      <trkpt lat="45.64868" lon="5.90306">
        <ele>260</ele>
        <time>2021-09-10T08:24:49.672Z</time>
      </trkpt>
      <trkpt lat="45.64872" lon="5.90307">
        <ele>261</ele>
        <time>2021-09-10T08:24:50.672Z</time>
      </trkpt>
      <trkpt lat="45.64875" lon="5.90307">
        <ele>261</ele>
        <time>2021-09-10T08:24:51.672Z</time>
      </trkpt>
      <trkpt lat="45.64878" lon="5.90308">
        <ele>261</ele>
        <time>2021-09-10T08:24:52.672Z</time>
      </trkpt>
      <trkpt lat="45.64882" lon="5.9031">
        <ele>261</ele>
        <time>2021-09-10T08:24:53.672Z</time>
      </trkpt>
      <trkpt lat="45.64884" lon="5.90311">
        <ele>260</ele>
        <time>2021-09-10T08:24:54.672Z</time>
      </trkpt>
      <trkpt lat="45.64887" lon="5.90315">
        <ele>260</ele>
        <time>2021-09-10T08:24:55.672Z</time>
      </trkpt>
      <trkpt lat="45.64889" lon="5.90318">
        <ele>261</ele>
        <time>2021-09-10T08:24:56.672Z</time>
      </trkpt>
      <trkpt lat="45.6489" lon="5.90323">
        <ele>261</ele>
        <time>2021-09-10T08:24:57.672Z</time>
      </trkpt>
      <trkpt lat="45.64891" lon="5.90326">
        <ele>262</ele>
        <time>2021-09-10T08:24:58.672Z</time>
      </trkpt>
      <trkpt lat="45.64891" lon="5.90332">
        <ele>262</ele>
        <time>2021-09-10T08:24:59.672Z</time>
      </trkpt>
      <trkpt lat="45.64891" lon="5.90337">
        <ele>263</ele>
        <time>2021-09-10T08:25:00.672Z</time>
      </trkpt>
      <trkpt lat="45.6489" lon="5.90341">
        <ele>263</ele>
        <time>2021-09-10T08:25:01.672Z</time>
      </trkpt>
      <trkpt lat="45.6489" lon="5.90345">
        <ele>263</ele>
        <time>2021-09-10T08:25:02.672Z</time>
      </trkpt>
      <trkpt lat="45.64889" lon="5.90349">
        <ele>263</ele>
        <time>2021-09-10T08:25:03.672Z</time>
      </trkpt>
      <trkpt lat="45.64888" lon="5.90353">
        <ele>263</ele>
        <time>2021-09-10T08:25:04.672Z</time>
      </trkpt>
      <trkpt lat="45.64887" lon="5.90358">
        <ele>264</ele>
        <time>2021-09-10T08:25:05.672Z</time>
      </trkpt>
      <trkpt lat="45.64886" lon="5.90362">
        <ele>264</ele>
        <time>2021-09-10T08:25:06.672Z</time>
      </trkpt>
      <trkpt lat="45.64885" lon="5.90366">
        <ele>264</ele>
        <time>2021-09-10T08:25:07.672Z</time>
      </trkpt>
      <trkpt lat="45.64884" lon="5.9037">
        <ele>264</ele>
        <time>2021-09-10T08:25:08.672Z</time>
      </trkpt>
      <trkpt lat="45.64882" lon="5.90373">
        <ele>264</ele>
        <time>2021-09-10T08:25:09.672Z</time>
      </trkpt>
      <trkpt lat="45.6488" lon="5.90376">
        <ele>264</ele>
        <time>2021-09-10T08:25:10.672Z</time>
      </trkpt>
      <trkpt lat="45.64878" lon="5.90378">
        <ele>265</ele>
        <time>2021-09-10T08:25:11.672Z</time>
      </trkpt>
      <trkpt lat="45.64877" lon="5.9038">
        <ele>265</ele>
        <time>2021-09-10T08:25:12.672Z</time>
      </trkpt>
      <trkpt lat="45.64874" lon="5.90383">
        <ele>265</ele>
        <time>2021-09-10T08:25:13.672Z</time>
      </trkpt>
      <trkpt lat="45.64873" lon="5.90385">
        <ele>265</ele>
        <time>2021-09-10T08:25:14.672Z</time>
      </trkpt>
      <trkpt lat="45.64871" lon="5.90388">
        <ele>266</ele>
        <time>2021-09-10T08:25:15.672Z</time>
      </trkpt>
      <trkpt lat="45.64869" lon="5.90391">
        <ele>266</ele>
        <time>2021-09-10T08:25:16.672Z</time>
      </trkpt>
      <trkpt lat="45.64868" lon="5.90394">
        <ele>267</ele>
        <time>2021-09-10T08:25:17.672Z</time>
      </trkpt>
      <trkpt lat="45.64868" lon="5.90397">
        <ele>267</ele>
        <time>2021-09-10T08:25:18.672Z</time>
      </trkpt>
      <trkpt lat="45.64867" lon="5.904">
        <ele>268</ele>
        <time>2021-09-10T08:25:19.671Z</time>
      </trkpt>
      <trkpt lat="45.64867" lon="5.90403">
        <ele>268</ele>
        <time>2021-09-10T08:25:20.672Z</time>
      </trkpt>
      <trkpt lat="45.64867" lon="5.90407">
        <ele>269</ele>
        <time>2021-09-10T08:25:21.672Z</time>
      </trkpt>
      <trkpt lat="45.64867" lon="5.9041">
        <ele>269</ele>
        <time>2021-09-10T08:25:22.671Z</time>
      </trkpt>
      <trkpt lat="45.64868" lon="5.90413">
        <ele>269</ele>
        <time>2021-09-10T08:25:23.672Z</time>
      </trkpt>
      <trkpt lat="45.6487" lon="5.90417">
        <ele>269</ele>
        <time>2021-09-10T08:25:24.672Z</time>
      </trkpt>
      <trkpt lat="45.64871" lon="5.9042">
        <ele>269</ele>
        <time>2021-09-10T08:25:25.672Z</time>
      </trkpt>
      <trkpt lat="45.64873" lon="5.90422">
        <ele>268</ele>
        <time>2021-09-10T08:25:26.671Z</time>
      </trkpt>
      <trkpt lat="45.64874" lon="5.90425">
        <ele>268</ele>
        <time>2021-09-10T08:25:27.672Z</time>
      </trkpt>
      <trkpt lat="45.64876" lon="5.90427">
        <ele>267</ele>
        <time>2021-09-10T08:25:28.672Z</time>
      </trkpt>
      <trkpt lat="45.64878" lon="5.90431">
        <ele>267</ele>
        <time>2021-09-10T08:25:29.672Z</time>
      </trkpt>
      <trkpt lat="45.6488" lon="5.90433">
        <ele>268</ele>
        <time>2021-09-10T08:25:30.672Z</time>
      </trkpt>
      <trkpt lat="45.64882" lon="5.90436">
        <ele>268</ele>
        <time>2021-09-10T08:25:31.672Z</time>
      </trkpt>
      <trkpt lat="45.64883" lon="5.90438">
        <ele>268</ele>
        <time>2021-09-10T08:25:32.672Z</time>
      </trkpt>
      <trkpt lat="45.64885" lon="5.90442">
        <ele>268</ele>
        <time>2021-09-10T08:25:33.671Z</time>
      </trkpt>
      <trkpt lat="45.64886" lon="5.90445">
        <ele>269</ele>
        <time>2021-09-10T08:25:34.672Z</time>
      </trkpt>
      <trkpt lat="45.64886" lon="5.90449">
        <ele>269</ele>
        <time>2021-09-10T08:25:35.671Z</time>
      </trkpt>
      <trkpt lat="45.64887" lon="5.90452">
        <ele>269</ele>
        <time>2021-09-10T08:25:36.672Z</time>
      </trkpt>
      <trkpt lat="45.64887" lon="5.90456">
        <ele>270</ele>
        <time>2021-09-10T08:25:37.671Z</time>
      </trkpt>
      <trkpt lat="45.64887" lon="5.90459">
        <ele>270</ele>
        <time>2021-09-10T08:25:38.672Z</time>
      </trkpt>
      <trkpt lat="45.64886" lon="5.90462">
        <ele>271</ele>
        <time>2021-09-10T08:25:39.672Z</time>
      </trkpt>
      <trkpt lat="45.64886" lon="5.90465">
        <ele>271</ele>
        <time>2021-09-10T08:25:40.672Z</time>
      </trkpt>
      <trkpt lat="45.64886" lon="5.90469">
        <ele>271</ele>
        <time>2021-09-10T08:25:41.672Z</time>
      </trkpt>
      <trkpt lat="45.64885" lon="5.90472">
        <ele>272</ele>
        <time>2021-09-10T08:25:42.672Z</time>
      </trkpt>
      <trkpt lat="45.64885" lon="5.90476">
        <ele>272</ele>
        <time>2021-09-10T08:25:43.672Z</time>
      </trkpt>
      <trkpt lat="45.64885" lon="5.90479">
        <ele>273</ele>
        <time>2021-09-10T08:25:44.672Z</time>
      </trkpt>
      <trkpt lat="45.64884" lon="5.90483">
        <ele>273</ele>
        <time>2021-09-10T08:25:45.671Z</time>
      </trkpt>
      <trkpt lat="45.64884" lon="5.90485">
        <ele>274</ele>
        <time>2021-09-10T08:25:46.672Z</time>
      </trkpt>
      <trkpt lat="45.64884" lon="5.90489">
        <ele>274</ele>
        <time>2021-09-10T08:25:47.672Z</time>
      </trkpt>
      <trkpt lat="45.64884" lon="5.90493">
        <ele>274</ele>
        <time>2021-09-10T08:25:48.671Z</time>
      </trkpt>
      <trkpt lat="45.64883" lon="5.90496">
        <ele>274</ele>
        <time>2021-09-10T08:25:49.672Z</time>
      </trkpt>
      <trkpt lat="45.64883" lon="5.90499">
        <ele>273</ele>
        <time>2021-09-10T08:25:50.672Z</time>
      </trkpt>
      <trkpt lat="45.64882" lon="5.90503">
        <ele>273</ele>
        <time>2021-09-10T08:25:51.671Z</time>
      </trkpt>
      <trkpt lat="45.64881" lon="5.90506">
        <ele>273</ele>
        <time>2021-09-10T08:25:52.672Z</time>
      </trkpt>
      <trkpt lat="45.6488" lon="5.90509">
        <ele>273</ele>
        <time>2021-09-10T08:25:53.672Z</time>
      </trkpt>
      <trkpt lat="45.64879" lon="5.90512">
        <ele>273</ele>
        <time>2021-09-10T08:25:54.672Z</time>
      </trkpt>
      <trkpt lat="45.64877" lon="5.90514">
        <ele>273</ele>
        <time>2021-09-10T08:25:55.672Z</time>
      </trkpt>
      <trkpt lat="45.64875" lon="5.90517">
        <ele>273</ele>
        <time>2021-09-10T08:25:56.672Z</time>
      </trkpt>
      <trkpt lat="45.64872" lon="5.90519">
        <ele>273</ele>
        <time>2021-09-10T08:25:57.672Z</time>
      </trkpt>
      <trkpt lat="45.6487" lon="5.9052">
        <ele>273</ele>
        <time>2021-09-10T08:25:58.671Z</time>
      </trkpt>
      <trkpt lat="45.64868" lon="5.90521">
        <ele>273</ele>
        <time>2021-09-10T08:25:59.672Z</time>
      </trkpt>
      <trkpt lat="45.64865" lon="5.90522">
        <ele>272</ele>
        <time>2021-09-10T08:26:00.672Z</time>
      </trkpt>
      <trkpt lat="45.64863" lon="5.90523">
        <ele>272</ele>
        <time>2021-09-10T08:26:01.672Z</time>
      </trkpt>
      <trkpt lat="45.6486" lon="5.90524">
        <ele>272</ele>
        <time>2021-09-10T08:26:02.672Z</time>
      </trkpt>
      <trkpt lat="45.64858" lon="5.90526">
        <ele>273</ele>
        <time>2021-09-10T08:26:03.672Z</time>
      </trkpt>
      <trkpt lat="45.64855" lon="5.90527">
        <ele>274</ele>
        <time>2021-09-10T08:26:04.672Z</time>
      </trkpt>
      <trkpt lat="45.64853" lon="5.90529">
        <ele>274</ele>
        <time>2021-09-10T08:26:05.672Z</time>
      </trkpt>
      <trkpt lat="45.6485" lon="5.90531">
        <ele>274</ele>
        <time>2021-09-10T08:26:06.672Z</time>
      </trkpt>
      <trkpt lat="45.64848" lon="5.90533">
        <ele>274</ele>
        <time>2021-09-10T08:26:07.671Z</time>
      </trkpt>
      <trkpt lat="45.64845" lon="5.90535">
        <ele>275</ele>
        <time>2021-09-10T08:26:08.672Z</time>
      </trkpt>
      <trkpt lat="45.64843" lon="5.90537">
        <ele>275</ele>
        <time>2021-09-10T08:26:09.672Z</time>
      </trkpt>
      <trkpt lat="45.64841" lon="5.9054">
        <ele>276</ele>
        <time>2021-09-10T08:26:10.671Z</time>
      </trkpt>
      <trkpt lat="45.64839" lon="5.90543">
        <ele>276</ele>
        <time>2021-09-10T08:26:11.672Z</time>
      </trkpt>
      <trkpt lat="45.64838" lon="5.90546">
        <ele>277</ele>
        <time>2021-09-10T08:26:12.672Z</time>
      </trkpt>
      <trkpt lat="45.64837" lon="5.90549">
        <ele>277</ele>
        <time>2021-09-10T08:26:13.672Z</time>
      </trkpt>
      <trkpt lat="45.64837" lon="5.90553">
        <ele>277</ele>
        <time>2021-09-10T08:26:14.672Z</time>
      </trkpt>
      <trkpt lat="45.64837" lon="5.90556">
        <ele>277</ele>
        <time>2021-09-10T08:26:15.672Z</time>
      </trkpt>
      <trkpt lat="45.64837" lon="5.9056">
        <ele>277</ele>
        <time>2021-09-10T08:26:16.672Z</time>
      </trkpt>
      <trkpt lat="45.64837" lon="5.90564">
        <ele>277</ele>
        <time>2021-09-10T08:26:17.672Z</time>
      </trkpt>
      <trkpt lat="45.64837" lon="5.90568">
        <ele>276</ele>
        <time>2021-09-10T08:26:18.671Z</time>
      </trkpt>
      <trkpt lat="45.64837" lon="5.90572">
        <ele>276</ele>
        <time>2021-09-10T08:26:19.671Z</time>
      </trkpt>
      <trkpt lat="45.64837" lon="5.90577">
        <ele>276</ele>
        <time>2021-09-10T08:26:20.672Z</time>
      </trkpt>
      <trkpt lat="45.64836" lon="5.90581">
        <ele>276</ele>
        <time>2021-09-10T08:26:21.671Z</time>
      </trkpt>
      <trkpt lat="45.64836" lon="5.90586">
        <ele>276</ele>
        <time>2021-09-10T08:26:22.672Z</time>
      </trkpt>
      <trkpt lat="45.64836" lon="5.90591">
        <ele>277</ele>
        <time>2021-09-10T08:26:23.671Z</time>
      </trkpt>
      <trkpt lat="45.64836" lon="5.90595">
        <ele>277</ele>
        <time>2021-09-10T08:26:24.672Z</time>
      </trkpt>
      <trkpt lat="45.64836" lon="5.90599">
        <ele>277</ele>
        <time>2021-09-10T08:26:25.672Z</time>
      </trkpt>
      <trkpt lat="45.64836" lon="5.90603">
        <ele>277</ele>
        <time>2021-09-10T08:26:26.672Z</time>
      </trkpt>
      <trkpt lat="45.64835" lon="5.90607">
        <ele>277</ele>
        <time>2021-09-10T08:26:27.672Z</time>
      </trkpt>
      <trkpt lat="45.64835" lon="5.9061">
        <ele>276</ele>
        <time>2021-09-10T08:26:28.671Z</time>
      </trkpt>
      <trkpt lat="45.64835" lon="5.90614">
        <ele>276</ele>
        <time>2021-09-10T08:26:29.672Z</time>
      </trkpt>
      <trkpt lat="45.64835" lon="5.90619">
        <ele>276</ele>
        <time>2021-09-10T08:26:30.672Z</time>
      </trkpt>
      <trkpt lat="45.64835" lon="5.90623">
        <ele>276</ele>
        <time>2021-09-10T08:26:31.671Z</time>
      </trkpt>
      <trkpt lat="45.64835" lon="5.90627">
        <ele>275</ele>
        <time>2021-09-10T08:26:32.672Z</time>
      </trkpt>
      <trkpt lat="45.64835" lon="5.90632">
        <ele>275</ele>
        <time>2021-09-10T08:26:33.672Z</time>
      </trkpt>
      <trkpt lat="45.64835" lon="5.90637">
        <ele>276</ele>
        <time>2021-09-10T08:26:34.672Z</time>
      </trkpt>
      <trkpt lat="45.64835" lon="5.90643">
        <ele>276</ele>
        <time>2021-09-10T08:26:35.672Z</time>
      </trkpt>
      <trkpt lat="45.64835" lon="5.90647">
        <ele>277</ele>
        <time>2021-09-10T08:26:36.672Z</time>
      </trkpt>
      <trkpt lat="45.64835" lon="5.90651">
        <ele>277</ele>
        <time>2021-09-10T08:26:37.671Z</time>
      </trkpt>
      <trkpt lat="45.64835" lon="5.90656">
        <ele>277</ele>
        <time>2021-09-10T08:26:38.672Z</time>
      </trkpt>
      <trkpt lat="45.64835" lon="5.9066">
        <ele>278</ele>
        <time>2021-09-10T08:26:39.672Z</time>
      </trkpt>
      <trkpt lat="45.64835" lon="5.90663">
        <ele>278</ele>
        <time>2021-09-10T08:26:40.672Z</time>
      </trkpt>
      <trkpt lat="45.64835" lon="5.90667">
        <ele>278</ele>
        <time>2021-09-10T08:26:41.671Z</time>
      </trkpt>
      <trkpt lat="45.64835" lon="5.90671">
        <ele>277</ele>
        <time>2021-09-10T08:26:42.672Z</time>
      </trkpt>
      <trkpt lat="45.64835" lon="5.90675">
        <ele>277</ele>
        <time>2021-09-10T08:26:43.672Z</time>
      </trkpt>
      <trkpt lat="45.64836" lon="5.90679">
        <ele>277</ele>
        <time>2021-09-10T08:26:44.672Z</time>
      </trkpt>
      <trkpt lat="45.64836" lon="5.90683">
        <ele>277</ele>
        <time>2021-09-10T08:26:45.672Z</time>
      </trkpt>
      <trkpt lat="45.64837" lon="5.90687">
        <ele>277</ele>
        <time>2021-09-10T08:26:46.672Z</time>
      </trkpt>
      <trkpt lat="45.64837" lon="5.90691">
        <ele>277</ele>
        <time>2021-09-10T08:26:47.672Z</time>
      </trkpt>
      <trkpt lat="45.64838" lon="5.90695">
        <ele>277</ele>
        <time>2021-09-10T08:26:48.672Z</time>
      </trkpt>
      <trkpt lat="45.64838" lon="5.907">
        <ele>278</ele>
        <time>2021-09-10T08:26:49.672Z</time>
      </trkpt>
      <trkpt lat="45.64839" lon="5.90704">
        <ele>278</ele>
        <time>2021-09-10T08:26:50.672Z</time>
      </trkpt>
      <trkpt lat="45.6484" lon="5.90708">
        <ele>278</ele>
        <time>2021-09-10T08:26:51.672Z</time>
      </trkpt>
      <trkpt lat="45.6484" lon="5.90712">
        <ele>279</ele>
        <time>2021-09-10T08:26:52.672Z</time>
      </trkpt>
      <trkpt lat="45.64841" lon="5.90716">
        <ele>279</ele>
        <time>2021-09-10T08:26:53.672Z</time>
      </trkpt>
      <trkpt lat="45.64842" lon="5.9072">
        <ele>280</ele>
        <time>2021-09-10T08:26:54.672Z</time>
      </trkpt>
      <trkpt lat="45.64843" lon="5.90724">
        <ele>280</ele>
        <time>2021-09-10T08:26:55.672Z</time>
      </trkpt>
      <trkpt lat="45.64843" lon="5.90729">
        <ele>280</ele>
        <time>2021-09-10T08:26:56.672Z</time>
      </trkpt>
      <trkpt lat="45.64843" lon="5.90733">
        <ele>280</ele>
        <time>2021-09-10T08:26:57.672Z</time>
      </trkpt>
      <trkpt lat="45.64844" lon="5.90737">
        <ele>280</ele>
        <time>2021-09-10T08:26:58.672Z</time>
      </trkpt>
      <trkpt lat="45.64844" lon="5.90742">
        <ele>280</ele>
        <time>2021-09-10T08:26:59.672Z</time>
      </trkpt>
      <trkpt lat="45.64845" lon="5.90746">
        <ele>279</ele>
        <time>2021-09-10T08:27:00.672Z</time>
      </trkpt>
      <trkpt lat="45.64846" lon="5.9075">
        <ele>279</ele>
        <time>2021-09-10T08:27:01.672Z</time>
      </trkpt>
      <trkpt lat="45.64846" lon="5.90755">
        <ele>279</ele>
        <time>2021-09-10T08:27:02.671Z</time>
      </trkpt>
      <trkpt lat="45.64847" lon="5.90759">
        <ele>279</ele>
        <time>2021-09-10T08:27:03.671Z</time>
      </trkpt>
      <trkpt lat="45.64847" lon="5.90764">
        <ele>279</ele>
        <time>2021-09-10T08:27:04.672Z</time>
      </trkpt>
      <trkpt lat="45.64847" lon="5.90769">
        <ele>279</ele>
        <time>2021-09-10T08:27:05.672Z</time>
      </trkpt>
      <trkpt lat="45.64847" lon="5.90773">
        <ele>279</ele>
        <time>2021-09-10T08:27:06.672Z</time>
      </trkpt>
      <trkpt lat="45.64848" lon="5.90778">
        <ele>279</ele>
        <time>2021-09-10T08:27:07.672Z</time>
      </trkpt>
      <trkpt lat="45.64848" lon="5.90782">
        <ele>279</ele>
        <time>2021-09-10T08:27:08.672Z</time>
      </trkpt>
      <trkpt lat="45.64849" lon="5.90786">
        <ele>279</ele>
        <time>2021-09-10T08:27:09.672Z</time>
      </trkpt>
      <trkpt lat="45.64849" lon="5.90791">
        <ele>278</ele>
        <time>2021-09-10T08:27:10.672Z</time>
      </trkpt>
      <trkpt lat="45.64849" lon="5.90794">
        <ele>277</ele>
        <time>2021-09-10T08:27:11.672Z</time>
      </trkpt>
      <trkpt lat="45.6485" lon="5.908">
        <ele>277</ele>
        <time>2021-09-10T08:27:12.672Z</time>
      </trkpt>
      <trkpt lat="45.6485" lon="5.90805">
        <ele>276</ele>
        <time>2021-09-10T08:27:13.671Z</time>
      </trkpt>
      <trkpt lat="45.6485" lon="5.90809">
        <ele>275</ele>
        <time>2021-09-10T08:27:14.672Z</time>
      </trkpt>
      <trkpt lat="45.6485" lon="5.90813">
        <ele>274</ele>
        <time>2021-09-10T08:27:15.672Z</time>
      </trkpt>
      <trkpt lat="45.6485" lon="5.90817">
        <ele>274</ele>
        <time>2021-09-10T08:27:16.672Z</time>
      </trkpt>
      <trkpt lat="45.6485" lon="5.90819">
        <ele>275</ele>
        <time>2021-09-10T08:27:17.672Z</time>
      </trkpt>
      <trkpt lat="45.64849" lon="5.9082">
        <ele>275</ele>
        <time>2021-09-10T08:27:18.672Z</time>
      </trkpt>
      <trkpt lat="45.64849" lon="5.90821">
        <ele>276</ele>
        <time>2021-09-10T08:27:19.671Z</time>
      </trkpt>
      <trkpt lat="45.64849" lon="5.9082">
        <ele>276</ele>
        <time>2021-09-10T08:27:20.672Z</time>
      </trkpt>
      <trkpt lat="45.64849" lon="5.9082">
        <ele>276</ele>
        <time>2021-09-10T08:27:21.671Z</time>
      </trkpt>
      <trkpt lat="45.6485" lon="5.90827">
        <ele>274</ele>
        <time>2021-09-10T08:27:22.674Z</time>
      </trkpt>
      <trkpt lat="45.64851" lon="5.90831">
        <ele>274</ele>
        <time>2021-09-10T08:27:23.674Z</time>
      </trkpt>
      <trkpt lat="45.64852" lon="5.90836">
        <ele>275</ele>
        <time>2021-09-10T08:27:24.674Z</time>
      </trkpt>
      <trkpt lat="45.64853" lon="5.90841">
        <ele>275</ele>
        <time>2021-09-10T08:27:25.674Z</time>
      </trkpt>
      <trkpt lat="45.64854" lon="5.90845">
        <ele>275</ele>
        <time>2021-09-10T08:27:26.674Z</time>
      </trkpt>
      <trkpt lat="45.64855" lon="5.90851">
        <ele>276</ele>
        <time>2021-09-10T08:27:27.674Z</time>
      </trkpt>
      <trkpt lat="45.64855" lon="5.90856">
        <ele>276</ele>
        <time>2021-09-10T08:27:28.674Z</time>
      </trkpt>
      <trkpt lat="45.64856" lon="5.90862">
        <ele>276</ele>
        <time>2021-09-10T08:27:29.674Z</time>
      </trkpt>
      <trkpt lat="45.64856" lon="5.90868">
        <ele>276</ele>
        <time>2021-09-10T08:27:30.674Z</time>
      </trkpt>
      <trkpt lat="45.64856" lon="5.90875">
        <ele>276</ele>
        <time>2021-09-10T08:27:31.674Z</time>
      </trkpt>
      <trkpt lat="45.64856" lon="5.90882">
        <ele>277</ele>
        <time>2021-09-10T08:27:32.673Z</time>
      </trkpt>
      <trkpt lat="45.64856" lon="5.90889">
        <ele>277</ele>
        <time>2021-09-10T08:27:33.674Z</time>
      </trkpt>
      <trkpt lat="45.64857" lon="5.90895">
        <ele>277</ele>
        <time>2021-09-10T08:27:34.673Z</time>
      </trkpt>
      <trkpt lat="45.64857" lon="5.90901">
        <ele>276</ele>
        <time>2021-09-10T08:27:35.674Z</time>
      </trkpt>
      <trkpt lat="45.64857" lon="5.90906">
        <ele>276</ele>
        <time>2021-09-10T08:27:36.674Z</time>
      </trkpt>
      <trkpt lat="45.64858" lon="5.9091">
        <ele>276</ele>
        <time>2021-09-10T08:27:37.674Z</time>
      </trkpt>
      <trkpt lat="45.64859" lon="5.90914">
        <ele>276</ele>
        <time>2021-09-10T08:27:38.673Z</time>
      </trkpt>
      <trkpt lat="45.64859" lon="5.90918">
        <ele>275</ele>
        <time>2021-09-10T08:27:39.674Z</time>
      </trkpt>
      <trkpt lat="45.6486" lon="5.90922">
        <ele>275</ele>
        <time>2021-09-10T08:27:40.674Z</time>
      </trkpt>
      <trkpt lat="45.6486" lon="5.90924">
        <ele>274</ele>
        <time>2021-09-10T08:27:41.674Z</time>
      </trkpt>
      <trkpt lat="45.6486" lon="5.90927">
        <ele>274</ele>
        <time>2021-09-10T08:27:42.674Z</time>
      </trkpt>
      <trkpt lat="45.64861" lon="5.90929">
        <ele>274</ele>
        <time>2021-09-10T08:27:43.674Z</time>
      </trkpt>
      <trkpt lat="45.64863" lon="5.90931">
        <ele>273</ele>
        <time>2021-09-10T08:27:44.674Z</time>
      </trkpt>
      <trkpt lat="45.64865" lon="5.90932">
        <ele>273</ele>
        <time>2021-09-10T08:27:45.673Z</time>
      </trkpt>
      <trkpt lat="45.64868" lon="5.90932">
        <ele>273</ele>
        <time>2021-09-10T08:27:46.674Z</time>
      </trkpt>
      <trkpt lat="45.64872" lon="5.90931">
        <ele>272</ele>
        <time>2021-09-10T08:27:47.674Z</time>
      </trkpt>
      <trkpt lat="45.64876" lon="5.9093">
        <ele>272</ele>
        <time>2021-09-10T08:27:48.674Z</time>
      </trkpt>
      <trkpt lat="45.6488" lon="5.90929">
        <ele>272</ele>
        <time>2021-09-10T08:27:49.674Z</time>
      </trkpt>
      <trkpt lat="45.64884" lon="5.90927">
        <ele>272</ele>
        <time>2021-09-10T08:27:50.674Z</time>
      </trkpt>
      <trkpt lat="45.64888" lon="5.90926">
        <ele>273</ele>
        <time>2021-09-10T08:27:51.674Z</time>
      </trkpt>
      <trkpt lat="45.64893" lon="5.90924">
        <ele>273</ele>
        <time>2021-09-10T08:27:52.673Z</time>
      </trkpt>
      <trkpt lat="45.64898" lon="5.90923">
        <ele>274</ele>
        <time>2021-09-10T08:27:53.674Z</time>
      </trkpt>
      <trkpt lat="45.64902" lon="5.90922">
        <ele>274</ele>
        <time>2021-09-10T08:27:54.673Z</time>
      </trkpt>
      <trkpt lat="45.64906" lon="5.90921">
        <ele>274</ele>
        <time>2021-09-10T08:27:55.673Z</time>
      </trkpt>
      <trkpt lat="45.6491" lon="5.9092">
        <ele>274</ele>
        <time>2021-09-10T08:27:56.674Z</time>
      </trkpt>
      <trkpt lat="45.64914" lon="5.90919">
        <ele>274</ele>
        <time>2021-09-10T08:27:57.674Z</time>
      </trkpt>
      <trkpt lat="45.64919" lon="5.90918">
        <ele>274</ele>
        <time>2021-09-10T08:27:58.673Z</time>
      </trkpt>
      <trkpt lat="45.64923" lon="5.90917">
        <ele>274</ele>
        <time>2021-09-10T08:27:59.674Z</time>
      </trkpt>
      <trkpt lat="45.64926" lon="5.90915">
        <ele>274</ele>
        <time>2021-09-10T08:28:00.674Z</time>
      </trkpt>
      <trkpt lat="45.6493" lon="5.90914">
        <ele>274</ele>
        <time>2021-09-10T08:28:01.674Z</time>
      </trkpt>
      <trkpt lat="45.64934" lon="5.90913">
        <ele>274</ele>
        <time>2021-09-10T08:28:02.674Z</time>
      </trkpt>
      <trkpt lat="45.64938" lon="5.90912">
        <ele>274</ele>
        <time>2021-09-10T08:28:03.674Z</time>
      </trkpt>
      <trkpt lat="45.64941" lon="5.90911">
        <ele>273</ele>
        <time>2021-09-10T08:28:04.674Z</time>
      </trkpt>
      <trkpt lat="45.64944" lon="5.90911">
        <ele>273</ele>
        <time>2021-09-10T08:28:05.673Z</time>
      </trkpt>
      <trkpt lat="45.64946" lon="5.90911">
        <ele>274</ele>
        <time>2021-09-10T08:28:06.674Z</time>
      </trkpt>
      <trkpt lat="45.64947" lon="5.9091">
        <ele>274</ele>
        <time>2021-09-10T08:28:07.673Z</time>
      </trkpt>
      <trkpt lat="45.64949" lon="5.90909">
        <ele>274</ele>
        <time>2021-09-10T08:28:08.674Z</time>
      </trkpt>
      <trkpt lat="45.64952" lon="5.90908">
        <ele>274</ele>
        <time>2021-09-10T08:28:09.674Z</time>
      </trkpt>
      <trkpt lat="45.64954" lon="5.90907">
        <ele>274</ele>
        <time>2021-09-10T08:28:10.674Z</time>
      </trkpt>
      <trkpt lat="45.64957" lon="5.90906">
        <ele>274</ele>
        <time>2021-09-10T08:28:11.674Z</time>
      </trkpt>
      <trkpt lat="45.64959" lon="5.90906">
        <ele>274</ele>
        <time>2021-09-10T08:28:12.674Z</time>
      </trkpt>
      <trkpt lat="45.6496" lon="5.90905">
        <ele>274</ele>
        <time>2021-09-10T08:28:13.674Z</time>
      </trkpt>
      <trkpt lat="45.64961" lon="5.90905">
        <ele>275</ele>
        <time>2021-09-10T08:28:14.674Z</time>
      </trkpt>
      <trkpt lat="45.64962" lon="5.90905">
        <ele>275</ele>
        <time>2021-09-10T08:28:15.674Z</time>
      </trkpt>
      <trkpt lat="45.64962" lon="5.90905">
        <ele>276</ele>
        <time>2021-09-10T08:28:16.674Z</time>
      </trkpt>
      <trkpt lat="45.64962" lon="5.90904">
        <ele>277</ele>
        <time>2021-09-10T08:28:17.674Z</time>
      </trkpt>
      <trkpt lat="45.64961" lon="5.90904">
        <ele>278</ele>
        <time>2021-09-10T08:28:18.675Z</time>
      </trkpt>
      <trkpt lat="45.64969" lon="5.90902">
        <ele>276</ele>
        <time>2021-09-10T08:28:19.675Z</time>
      </trkpt>
      <trkpt lat="45.64973" lon="5.90901">
        <ele>276</ele>
        <time>2021-09-10T08:28:20.674Z</time>
      </trkpt>
      <trkpt lat="45.64977" lon="5.909">
        <ele>276</ele>
        <time>2021-09-10T08:28:21.674Z</time>
      </trkpt>
      <trkpt lat="45.64981" lon="5.90899">
        <ele>275</ele>
        <time>2021-09-10T08:28:22.675Z</time>
      </trkpt>
      <trkpt lat="45.64984" lon="5.909">
        <ele>275</ele>
        <time>2021-09-10T08:28:23.675Z</time>
      </trkpt>
      <trkpt lat="45.64988" lon="5.90903">
        <ele>275</ele>
        <time>2021-09-10T08:28:24.675Z</time>
      </trkpt>
      <trkpt lat="45.64991" lon="5.90907">
        <ele>275</ele>
        <time>2021-09-10T08:28:25.675Z</time>
      </trkpt>
      <trkpt lat="45.64993" lon="5.90912">
        <ele>275</ele>
        <time>2021-09-10T08:28:26.675Z</time>
      </trkpt>
      <trkpt lat="45.64994" lon="5.90919">
        <ele>276</ele>
        <time>2021-09-10T08:28:27.675Z</time>
      </trkpt>
      <trkpt lat="45.64995" lon="5.90925">
        <ele>276</ele>
        <time>2021-09-10T08:28:28.675Z</time>
      </trkpt>
      <trkpt lat="45.64997" lon="5.90932">
        <ele>276</ele>
        <time>2021-09-10T08:28:29.675Z</time>
      </trkpt>
      <trkpt lat="45.64998" lon="5.90939">
        <ele>276</ele>
        <time>2021-09-10T08:28:30.675Z</time>
      </trkpt>
      <trkpt lat="45.64999" lon="5.90947">
        <ele>276</ele>
        <time>2021-09-10T08:28:31.675Z</time>
      </trkpt>
      <trkpt lat="45.65001" lon="5.90953">
        <ele>277</ele>
        <time>2021-09-10T08:28:32.675Z</time>
      </trkpt>
      <trkpt lat="45.65002" lon="5.9096">
        <ele>276</ele>
        <time>2021-09-10T08:28:33.674Z</time>
      </trkpt>
      <trkpt lat="45.65003" lon="5.90966">
        <ele>276</ele>
        <time>2021-09-10T08:28:34.675Z</time>
      </trkpt>
      <trkpt lat="45.65004" lon="5.90971">
        <ele>276</ele>
        <time>2021-09-10T08:28:35.674Z</time>
      </trkpt>
      <trkpt lat="45.65004" lon="5.90975">
        <ele>276</ele>
        <time>2021-09-10T08:28:36.675Z</time>
      </trkpt>
      <trkpt lat="45.65005" lon="5.90978">
        <ele>276</ele>
        <time>2021-09-10T08:28:37.675Z</time>
      </trkpt>
      <trkpt lat="45.65006" lon="5.90981">
        <ele>276</ele>
        <time>2021-09-10T08:28:38.674Z</time>
      </trkpt>
      <trkpt lat="45.65007" lon="5.90984">
        <ele>276</ele>
        <time>2021-09-10T08:28:39.675Z</time>
      </trkpt>
      <trkpt lat="45.65007" lon="5.90987">
        <ele>275</ele>
        <time>2021-09-10T08:28:40.675Z</time>
      </trkpt>
      <trkpt lat="45.65008" lon="5.90991">
        <ele>275</ele>
        <time>2021-09-10T08:28:41.674Z</time>
      </trkpt>
      <trkpt lat="45.65009" lon="5.90994">
        <ele>274</ele>
        <time>2021-09-10T08:28:42.675Z</time>
      </trkpt>
      <trkpt lat="45.6501" lon="5.90999">
        <ele>274</ele>
        <time>2021-09-10T08:28:43.675Z</time>
      </trkpt>
      <trkpt lat="45.65012" lon="5.91004">
        <ele>274</ele>
        <time>2021-09-10T08:28:44.675Z</time>
      </trkpt>
      <trkpt lat="45.65013" lon="5.91008">
        <ele>274</ele>
        <time>2021-09-10T08:28:45.675Z</time>
      </trkpt>
      <trkpt lat="45.65014" lon="5.91012">
        <ele>274</ele>
        <time>2021-09-10T08:28:46.675Z</time>
      </trkpt>
      <trkpt lat="45.65015" lon="5.91017">
        <ele>274</ele>
        <time>2021-09-10T08:28:47.675Z</time>
      </trkpt>
      <trkpt lat="45.65016" lon="5.91021">
        <ele>275</ele>
        <time>2021-09-10T08:28:48.675Z</time>
      </trkpt>
      <trkpt lat="45.65016" lon="5.91025">
        <ele>275</ele>
        <time>2021-09-10T08:28:49.675Z</time>
      </trkpt>
      <trkpt lat="45.65016" lon="5.91029">
        <ele>275</ele>
        <time>2021-09-10T08:28:50.675Z</time>
      </trkpt>
      <trkpt lat="45.65015" lon="5.91032">
        <ele>274</ele>
        <time>2021-09-10T08:28:51.675Z</time>
      </trkpt>
      <trkpt lat="45.65014" lon="5.91036">
        <ele>274</ele>
        <time>2021-09-10T08:28:52.675Z</time>
      </trkpt>
      <trkpt lat="45.65012" lon="5.9104">
        <ele>273</ele>
        <time>2021-09-10T08:28:53.674Z</time>
      </trkpt>
      <trkpt lat="45.65011" lon="5.91044">
        <ele>273</ele>
        <time>2021-09-10T08:28:54.675Z</time>
      </trkpt>
      <trkpt lat="45.65009" lon="5.91048">
        <ele>273</ele>
        <time>2021-09-10T08:28:55.674Z</time>
      </trkpt>
      <trkpt lat="45.65008" lon="5.91052">
        <ele>273</ele>
        <time>2021-09-10T08:28:56.675Z</time>
      </trkpt>
      <trkpt lat="45.65006" lon="5.91056">
        <ele>273</ele>
        <time>2021-09-10T08:28:57.675Z</time>
      </trkpt>
      <trkpt lat="45.65005" lon="5.91059">
        <ele>273</ele>
        <time>2021-09-10T08:28:58.674Z</time>
      </trkpt>
      <trkpt lat="45.65003" lon="5.91063">
        <ele>274</ele>
        <time>2021-09-10T08:28:59.675Z</time>
      </trkpt>
      <trkpt lat="45.65001" lon="5.91067">
        <ele>274</ele>
        <time>2021-09-10T08:29:00.675Z</time>
      </trkpt>
      <trkpt lat="45.65" lon="5.9107">
        <ele>274</ele>
        <time>2021-09-10T08:29:01.675Z</time>
      </trkpt>
      <trkpt lat="45.64998" lon="5.91074">
        <ele>275</ele>
        <time>2021-09-10T08:29:02.674Z</time>
      </trkpt>
      <trkpt lat="45.64996" lon="5.91078">
        <ele>275</ele>
        <time>2021-09-10T08:29:03.675Z</time>
      </trkpt>
      <trkpt lat="45.64994" lon="5.91082">
        <ele>275</ele>
        <time>2021-09-10T08:29:04.675Z</time>
      </trkpt>
      <trkpt lat="45.64992" lon="5.91085">
        <ele>275</ele>
        <time>2021-09-10T08:29:05.675Z</time>
      </trkpt>
      <trkpt lat="45.6499" lon="5.91089">
        <ele>275</ele>
        <time>2021-09-10T08:29:06.675Z</time>
      </trkpt>
      <trkpt lat="45.64988" lon="5.91093">
        <ele>275</ele>
        <time>2021-09-10T08:29:07.675Z</time>
      </trkpt>
      <trkpt lat="45.64986" lon="5.91097">
        <ele>275</ele>
        <time>2021-09-10T08:29:08.675Z</time>
      </trkpt>
      <trkpt lat="45.64984" lon="5.91101">
        <ele>276</ele>
        <time>2021-09-10T08:29:09.675Z</time>
      </trkpt>
      <trkpt lat="45.64982" lon="5.91105">
        <ele>276</ele>
        <time>2021-09-10T08:29:10.675Z</time>
      </trkpt>
      <trkpt lat="45.6498" lon="5.91109">
        <ele>276</ele>
        <time>2021-09-10T08:29:11.674Z</time>
      </trkpt>
      <trkpt lat="45.64978" lon="5.91113">
        <ele>276</ele>
        <time>2021-09-10T08:29:12.675Z</time>
      </trkpt>
      <trkpt lat="45.64976" lon="5.91117">
        <ele>276</ele>
        <time>2021-09-10T08:29:13.674Z</time>
      </trkpt>
      <trkpt lat="45.64974" lon="5.91121">
        <ele>276</ele>
        <time>2021-09-10T08:29:14.675Z</time>
      </trkpt>
      <trkpt lat="45.64971" lon="5.91125">
        <ele>277</ele>
        <time>2021-09-10T08:29:15.674Z</time>
      </trkpt>
      <trkpt lat="45.64969" lon="5.91129">
        <ele>277</ele>
        <time>2021-09-10T08:29:16.675Z</time>
      </trkpt>
      <trkpt lat="45.64967" lon="5.91133">
        <ele>276</ele>
        <time>2021-09-10T08:29:17.675Z</time>
      </trkpt>
      <trkpt lat="45.64965" lon="5.91137">
        <ele>276</ele>
        <time>2021-09-10T08:29:18.675Z</time>
      </trkpt>
      <trkpt lat="45.64963" lon="5.91141">
        <ele>276</ele>
        <time>2021-09-10T08:29:19.675Z</time>
      </trkpt>
      <trkpt lat="45.64961" lon="5.91145">
        <ele>276</ele>
        <time>2021-09-10T08:29:20.675Z</time>
      </trkpt>
      <trkpt lat="45.6496" lon="5.9115">
        <ele>275</ele>
        <time>2021-09-10T08:29:21.675Z</time>
      </trkpt>
      <trkpt lat="45.64959" lon="5.91154">
        <ele>275</ele>
        <time>2021-09-10T08:29:22.675Z</time>
      </trkpt>
      <trkpt lat="45.64958" lon="5.91159">
        <ele>275</ele>
        <time>2021-09-10T08:29:23.675Z</time>
      </trkpt>
      <trkpt lat="45.64957" lon="5.91164">
        <ele>275</ele>
        <time>2021-09-10T08:29:24.675Z</time>
      </trkpt>
      <trkpt lat="45.64957" lon="5.91169">
        <ele>275</ele>
        <time>2021-09-10T08:29:25.675Z</time>
      </trkpt>
      <trkpt lat="45.64956" lon="5.91174">
        <ele>275</ele>
        <time>2021-09-10T08:29:26.674Z</time>
      </trkpt>
      <trkpt lat="45.64956" lon="5.9118">
        <ele>274</ele>
        <time>2021-09-10T08:29:27.675Z</time>
      </trkpt>
      <trkpt lat="45.64956" lon="5.91187">
        <ele>275</ele>
        <time>2021-09-10T08:29:28.675Z</time>
      </trkpt>
      <trkpt lat="45.64957" lon="5.91194">
        <ele>275</ele>
        <time>2021-09-10T08:29:29.675Z</time>
      </trkpt>
      <trkpt lat="45.64957" lon="5.91201">
        <ele>276</ele>
        <time>2021-09-10T08:29:30.674Z</time>
      </trkpt>
      <trkpt lat="45.64958" lon="5.91208">
        <ele>276</ele>
        <time>2021-09-10T08:29:31.675Z</time>
      </trkpt>
      <trkpt lat="45.64959" lon="5.91216">
        <ele>276</ele>
        <time>2021-09-10T08:29:32.674Z</time>
      </trkpt>
      <trkpt lat="45.64959" lon="5.91224">
        <ele>276</ele>
        <time>2021-09-10T08:29:33.675Z</time>
      </trkpt>
      <trkpt lat="45.6496" lon="5.91231">
        <ele>276</ele>
        <time>2021-09-10T08:29:34.675Z</time>
      </trkpt>
      <trkpt lat="45.64961" lon="5.91239">
        <ele>276</ele>
        <time>2021-09-10T08:29:35.675Z</time>
      </trkpt>
      <trkpt lat="45.64961" lon="5.91246">
        <ele>276</ele>
        <time>2021-09-10T08:29:36.674Z</time>
      </trkpt>
      <trkpt lat="45.64962" lon="5.91253">
        <ele>275</ele>
        <time>2021-09-10T08:29:37.675Z</time>
      </trkpt>
      <trkpt lat="45.64962" lon="5.91261">
        <ele>275</ele>
        <time>2021-09-10T08:29:38.674Z</time>
      </trkpt>
      <trkpt lat="45.64962" lon="5.91268">
        <ele>275</ele>
        <time>2021-09-10T08:29:39.675Z</time>
      </trkpt>
      <trkpt lat="45.64962" lon="5.91276">
        <ele>275</ele>
        <time>2021-09-10T08:29:40.674Z</time>
      </trkpt>
      <trkpt lat="45.64962" lon="5.91283">
        <ele>275</ele>
        <time>2021-09-10T08:29:41.674Z</time>
      </trkpt>
      <trkpt lat="45.64962" lon="5.9129">
        <ele>274</ele>
        <time>2021-09-10T08:29:42.675Z</time>
      </trkpt>
      <trkpt lat="45.64961" lon="5.91296">
        <ele>275</ele>
        <time>2021-09-10T08:29:43.675Z</time>
      </trkpt>
      <trkpt lat="45.64961" lon="5.91302">
        <ele>274</ele>
        <time>2021-09-10T08:29:44.675Z</time>
      </trkpt>
      <trkpt lat="45.64961" lon="5.91306">
        <ele>274</ele>
        <time>2021-09-10T08:29:45.674Z</time>
      </trkpt>
      <trkpt lat="45.64961" lon="5.91309">
        <ele>274</ele>
        <time>2021-09-10T08:29:46.675Z</time>
      </trkpt>
      <trkpt lat="45.64961" lon="5.91311">
        <ele>273</ele>
        <time>2021-09-10T08:29:47.675Z</time>
      </trkpt>
      <trkpt lat="45.6496" lon="5.91312">
        <ele>273</ele>
        <time>2021-09-10T08:29:48.675Z</time>
      </trkpt>
      <trkpt lat="45.6496" lon="5.91313">
        <ele>274</ele>
        <time>2021-09-10T08:29:49.675Z</time>
      </trkpt>
      <trkpt lat="45.6496" lon="5.91313">
        <ele>275</ele>
        <time>2021-09-10T08:29:50.675Z</time>
      </trkpt>
      <trkpt lat="45.6496" lon="5.91313">
        <ele>275</ele>
        <time>2021-09-10T08:29:51.674Z</time>
      </trkpt>
      <trkpt lat="45.6496" lon="5.91314">
        <ele>275</ele>
        <time>2021-09-10T08:29:52.676Z</time>
      </trkpt>
      <trkpt lat="45.64961" lon="5.91315">
        <ele>275</ele>
        <time>2021-09-10T08:29:53.675Z</time>
      </trkpt>
      <trkpt lat="45.64961" lon="5.91315">
        <ele>275</ele>
        <time>2021-09-10T08:29:54.676Z</time>
      </trkpt>
      <trkpt lat="45.64961" lon="5.91316">
        <ele>276</ele>
        <time>2021-09-10T08:29:55.675Z</time>
      </trkpt>
      <trkpt lat="45.64961" lon="5.91316">
        <ele>276</ele>
        <time>2021-09-10T08:29:56.676Z</time>
      </trkpt>
      <trkpt lat="45.64961" lon="5.91317">
        <ele>277</ele>
        <time>2021-09-10T08:29:57.675Z</time>
      </trkpt>
      <trkpt lat="45.64956" lon="5.91322">
        <ele>276</ele>
        <time>2021-09-10T08:29:58.675Z</time>
      </trkpt>
      <trkpt lat="45.64955" lon="5.91324">
        <ele>275</ele>
        <time>2021-09-10T08:29:59.675Z</time>
      </trkpt>
      <trkpt lat="45.64955" lon="5.91326">
        <ele>275</ele>
        <time>2021-09-10T08:30:00.675Z</time>
      </trkpt>
      <trkpt lat="45.64954" lon="5.91329">
        <ele>275</ele>
        <time>2021-09-10T08:30:01.675Z</time>
      </trkpt>
      <trkpt lat="45.64955" lon="5.91331">
        <ele>274</ele>
        <time>2021-09-10T08:30:02.675Z</time>
      </trkpt>
      <trkpt lat="45.64955" lon="5.91334">
        <ele>274</ele>
        <time>2021-09-10T08:30:03.675Z</time>
      </trkpt>
      <trkpt lat="45.64956" lon="5.91336">
        <ele>274</ele>
        <time>2021-09-10T08:30:04.675Z</time>
      </trkpt>
      <trkpt lat="45.64957" lon="5.91339">
        <ele>274</ele>
        <time>2021-09-10T08:30:05.675Z</time>
      </trkpt>
      <trkpt lat="45.64958" lon="5.91342">
        <ele>274</ele>
        <time>2021-09-10T08:30:06.675Z</time>
      </trkpt>
      <trkpt lat="45.64959" lon="5.91344">
        <ele>274</ele>
        <time>2021-09-10T08:30:07.675Z</time>
      </trkpt>
      <trkpt lat="45.6496" lon="5.91346">
        <ele>274</ele>
        <time>2021-09-10T08:30:08.675Z</time>
      </trkpt>
      <trkpt lat="45.64961" lon="5.91349">
        <ele>274</ele>
        <time>2021-09-10T08:30:09.675Z</time>
      </trkpt>
      <trkpt lat="45.64962" lon="5.91351">
        <ele>274</ele>
        <time>2021-09-10T08:30:10.675Z</time>
      </trkpt>
      <trkpt lat="45.64962" lon="5.91353">
        <ele>275</ele>
        <time>2021-09-10T08:30:11.675Z</time>
      </trkpt>
      <trkpt lat="45.64963" lon="5.91355">
        <ele>275</ele>
        <time>2021-09-10T08:30:12.675Z</time>
      </trkpt>
      <trkpt lat="45.64964" lon="5.91357">
        <ele>275</ele>
        <time>2021-09-10T08:30:13.675Z</time>
      </trkpt>
      <trkpt lat="45.64965" lon="5.91359">
        <ele>275</ele>
        <time>2021-09-10T08:30:14.675Z</time>
      </trkpt>
      <trkpt lat="45.64965" lon="5.91361">
        <ele>275</ele>
        <time>2021-09-10T08:30:15.675Z</time>
      </trkpt>
      <trkpt lat="45.64966" lon="5.91363">
        <ele>275</ele>
        <time>2021-09-10T08:30:16.675Z</time>
      </trkpt>
      <trkpt lat="45.64967" lon="5.91365">
        <ele>276</ele>
        <time>2021-09-10T08:30:17.675Z</time>
      </trkpt>
      <trkpt lat="45.64968" lon="5.91367">
        <ele>277</ele>
        <time>2021-09-10T08:30:18.675Z</time>
      </trkpt>
      <trkpt lat="45.64969" lon="5.91369">
        <ele>277</ele>
        <time>2021-09-10T08:30:19.675Z</time>
      </trkpt>
      <trkpt lat="45.64969" lon="5.91371">
        <ele>277</ele>
        <time>2021-09-10T08:30:20.675Z</time>
      </trkpt>
      <trkpt lat="45.6497" lon="5.91373">
        <ele>277</ele>
        <time>2021-09-10T08:30:21.675Z</time>
      </trkpt>
      <trkpt lat="45.64971" lon="5.91375">
        <ele>277</ele>
        <time>2021-09-10T08:30:22.675Z</time>
      </trkpt>
      <trkpt lat="45.64971" lon="5.91378">
        <ele>277</ele>
        <time>2021-09-10T08:30:23.675Z</time>
      </trkpt>
      <trkpt lat="45.64972" lon="5.9138">
        <ele>277</ele>
        <time>2021-09-10T08:30:24.675Z</time>
      </trkpt>
      <trkpt lat="45.64972" lon="5.91382">
        <ele>277</ele>
        <time>2021-09-10T08:30:25.675Z</time>
      </trkpt>
      <trkpt lat="45.64973" lon="5.91384">
        <ele>277</ele>
        <time>2021-09-10T08:30:26.675Z</time>
      </trkpt>
      <trkpt lat="45.64973" lon="5.91387">
        <ele>278</ele>
        <time>2021-09-10T08:30:27.675Z</time>
      </trkpt>
      <trkpt lat="45.64974" lon="5.91389">
        <ele>278</ele>
        <time>2021-09-10T08:30:28.675Z</time>
      </trkpt>
      <trkpt lat="45.64974" lon="5.91391">
        <ele>279</ele>
        <time>2021-09-10T08:30:29.675Z</time>
      </trkpt>
      <trkpt lat="45.64975" lon="5.91394">
        <ele>280</ele>
        <time>2021-09-10T08:30:30.675Z</time>
      </trkpt>
      <trkpt lat="45.64975" lon="5.91396">
        <ele>280</ele>
        <time>2021-09-10T08:30:31.675Z</time>
      </trkpt>
      <trkpt lat="45.64975" lon="5.91399">
        <ele>280</ele>
        <time>2021-09-10T08:30:32.675Z</time>
      </trkpt>
      <trkpt lat="45.64975" lon="5.91401">
        <ele>281</ele>
        <time>2021-09-10T08:30:33.675Z</time>
      </trkpt>
      <trkpt lat="45.64975" lon="5.91403">
        <ele>281</ele>
        <time>2021-09-10T08:30:34.675Z</time>
      </trkpt>
      <trkpt lat="45.64975" lon="5.91406">
        <ele>281</ele>
        <time>2021-09-10T08:30:35.675Z</time>
      </trkpt>
      <trkpt lat="45.64975" lon="5.91408">
        <ele>281</ele>
        <time>2021-09-10T08:30:36.675Z</time>
      </trkpt>
      <trkpt lat="45.64975" lon="5.91411">
        <ele>281</ele>
        <time>2021-09-10T08:30:37.675Z</time>
      </trkpt>
      <trkpt lat="45.64976" lon="5.91413">
        <ele>281</ele>
        <time>2021-09-10T08:30:38.675Z</time>
      </trkpt>
      <trkpt lat="45.64976" lon="5.91416">
        <ele>281</ele>
        <time>2021-09-10T08:30:39.675Z</time>
      </trkpt>
      <trkpt lat="45.64976" lon="5.91419">
        <ele>281</ele>
        <time>2021-09-10T08:30:40.675Z</time>
      </trkpt>
      <trkpt lat="45.64976" lon="5.91422">
        <ele>281</ele>
        <time>2021-09-10T08:30:41.675Z</time>
      </trkpt>
      <trkpt lat="45.64976" lon="5.91425">
        <ele>282</ele>
        <time>2021-09-10T08:30:42.675Z</time>
      </trkpt>
      <trkpt lat="45.64976" lon="5.91428">
        <ele>282</ele>
        <time>2021-09-10T08:30:43.675Z</time>
      </trkpt>
      <trkpt lat="45.64976" lon="5.91431">
        <ele>281</ele>
        <time>2021-09-10T08:30:44.675Z</time>
      </trkpt>
      <trkpt lat="45.64977" lon="5.91433">
        <ele>281</ele>
        <time>2021-09-10T08:30:45.675Z</time>
      </trkpt>
      <trkpt lat="45.64977" lon="5.91437">
        <ele>281</ele>
        <time>2021-09-10T08:30:46.675Z</time>
      </trkpt>
      <trkpt lat="45.64977" lon="5.9144">
        <ele>281</ele>
        <time>2021-09-10T08:30:47.675Z</time>
      </trkpt>
      <trkpt lat="45.64977" lon="5.91443">
        <ele>281</ele>
        <time>2021-09-10T08:30:48.675Z</time>
      </trkpt>
      <trkpt lat="45.64977" lon="5.91446">
        <ele>281</ele>
        <time>2021-09-10T08:30:49.675Z</time>
      </trkpt>
      <trkpt lat="45.64977" lon="5.91449">
        <ele>281</ele>
        <time>2021-09-10T08:30:50.675Z</time>
      </trkpt>
      <trkpt lat="45.64977" lon="5.91452">
        <ele>281</ele>
        <time>2021-09-10T08:30:51.675Z</time>
      </trkpt>
      <trkpt lat="45.64978" lon="5.91455">
        <ele>281</ele>
        <time>2021-09-10T08:30:52.675Z</time>
      </trkpt>
      <trkpt lat="45.64978" lon="5.91458">
        <ele>281</ele>
        <time>2021-09-10T08:30:53.675Z</time>
      </trkpt>
      <trkpt lat="45.64977" lon="5.91461">
        <ele>281</ele>
        <time>2021-09-10T08:30:54.675Z</time>
      </trkpt>
      <trkpt lat="45.64978" lon="5.91464">
        <ele>281</ele>
        <time>2021-09-10T08:30:55.675Z</time>
      </trkpt>
      <trkpt lat="45.64978" lon="5.91467">
        <ele>281</ele>
        <time>2021-09-10T08:30:56.675Z</time>
      </trkpt>
      <trkpt lat="45.64978" lon="5.9147">
        <ele>281</ele>
        <time>2021-09-10T08:30:57.675Z</time>
      </trkpt>
      <trkpt lat="45.64978" lon="5.91473">
        <ele>281</ele>
        <time>2021-09-10T08:30:58.675Z</time>
      </trkpt>
      <trkpt lat="45.64978" lon="5.91476">
        <ele>282</ele>
        <time>2021-09-10T08:30:59.675Z</time>
      </trkpt>
      <trkpt lat="45.64978" lon="5.91478">
        <ele>282</ele>
        <time>2021-09-10T08:31:00.675Z</time>
      </trkpt>
      <trkpt lat="45.64978" lon="5.91481">
        <ele>283</ele>
        <time>2021-09-10T08:31:01.675Z</time>
      </trkpt>
      <trkpt lat="45.64978" lon="5.91484">
        <ele>283</ele>
        <time>2021-09-10T08:31:02.675Z</time>
      </trkpt>
      <trkpt lat="45.64978" lon="5.91487">
        <ele>284</ele>
        <time>2021-09-10T08:31:03.675Z</time>
      </trkpt>
      <trkpt lat="45.64978" lon="5.9149">
        <ele>284</ele>
        <time>2021-09-10T08:31:04.675Z</time>
      </trkpt>
      <trkpt lat="45.64978" lon="5.91493">
        <ele>284</ele>
        <time>2021-09-10T08:31:05.675Z</time>
      </trkpt>
      <trkpt lat="45.64978" lon="5.91495">
        <ele>284</ele>
        <time>2021-09-10T08:31:06.675Z</time>
      </trkpt>
      <trkpt lat="45.64978" lon="5.91498">
        <ele>284</ele>
        <time>2021-09-10T08:31:07.675Z</time>
      </trkpt>
      <trkpt lat="45.64978" lon="5.91501">
        <ele>284</ele>
        <time>2021-09-10T08:31:08.675Z</time>
      </trkpt>
      <trkpt lat="45.64978" lon="5.91503">
        <ele>283</ele>
        <time>2021-09-10T08:31:09.675Z</time>
      </trkpt>
      <trkpt lat="45.64977" lon="5.91506">
        <ele>283</ele>
        <time>2021-09-10T08:31:10.675Z</time>
      </trkpt>
      <trkpt lat="45.64977" lon="5.91508">
        <ele>283</ele>
        <time>2021-09-10T08:31:11.675Z</time>
      </trkpt>
      <trkpt lat="45.64977" lon="5.91511">
        <ele>283</ele>
        <time>2021-09-10T08:31:12.675Z</time>
      </trkpt>
      <trkpt lat="45.64977" lon="5.91514">
        <ele>283</ele>
        <time>2021-09-10T08:31:13.675Z</time>
      </trkpt>
      <trkpt lat="45.64977" lon="5.91516">
        <ele>283</ele>
        <time>2021-09-10T08:31:14.675Z</time>
      </trkpt>
      <trkpt lat="45.64977" lon="5.91519">
        <ele>284</ele>
        <time>2021-09-10T08:31:15.675Z</time>
      </trkpt>
      <trkpt lat="45.64976" lon="5.91522">
        <ele>284</ele>
        <time>2021-09-10T08:31:16.675Z</time>
      </trkpt>
      <trkpt lat="45.64976" lon="5.91524">
        <ele>284</ele>
        <time>2021-09-10T08:31:17.675Z</time>
      </trkpt>
      <trkpt lat="45.64976" lon="5.91526">
        <ele>284</ele>
        <time>2021-09-10T08:31:18.675Z</time>
      </trkpt>
      <trkpt lat="45.64976" lon="5.91527">
        <ele>284</ele>
        <time>2021-09-10T08:31:19.675Z</time>
      </trkpt>
      <trkpt lat="45.64976" lon="5.91527">
        <ele>284</ele>
        <time>2021-09-10T08:31:20.675Z</time>
      </trkpt>
      <trkpt lat="45.64976" lon="5.91527">
        <ele>284</ele>
        <time>2021-09-10T08:31:21.675Z</time>
      </trkpt>
      <trkpt lat="45.64976" lon="5.91525">
        <ele>284</ele>
        <time>2021-09-10T08:31:22.676Z</time>
      </trkpt>
      <trkpt lat="45.64976" lon="5.91525">
        <ele>284</ele>
        <time>2021-09-10T08:31:23.676Z</time>
      </trkpt>
      <trkpt lat="45.64976" lon="5.91525">
        <ele>284</ele>
        <time>2021-09-10T08:31:24.675Z</time>
      </trkpt>
      <trkpt lat="45.64976" lon="5.91536">
        <ele>287</ele>
        <time>2021-09-10T08:31:25.675Z</time>
      </trkpt>
      <trkpt lat="45.64975" lon="5.91539">
        <ele>288</ele>
        <time>2021-09-10T08:31:26.675Z</time>
      </trkpt>
      <trkpt lat="45.64974" lon="5.91543">
        <ele>288</ele>
        <time>2021-09-10T08:31:27.675Z</time>
      </trkpt>
      <trkpt lat="45.64974" lon="5.91547">
        <ele>288</ele>
        <time>2021-09-10T08:31:28.675Z</time>
      </trkpt>
      <trkpt lat="45.64973" lon="5.91552">
        <ele>288</ele>
        <time>2021-09-10T08:31:29.675Z</time>
      </trkpt>
      <trkpt lat="45.64972" lon="5.91556">
        <ele>288</ele>
        <time>2021-09-10T08:31:30.675Z</time>
      </trkpt>
      <trkpt lat="45.64972" lon="5.9156">
        <ele>288</ele>
        <time>2021-09-10T08:31:31.675Z</time>
      </trkpt>
      <trkpt lat="45.64972" lon="5.91563">
        <ele>288</ele>
        <time>2021-09-10T08:31:32.676Z</time>
      </trkpt>
      <trkpt lat="45.64972" lon="5.91566">
        <ele>288</ele>
        <time>2021-09-10T08:31:33.676Z</time>
      </trkpt>
      <trkpt lat="45.64972" lon="5.91568">
        <ele>288</ele>
        <time>2021-09-10T08:31:34.675Z</time>
      </trkpt>
      <trkpt lat="45.64972" lon="5.91571">
        <ele>287</ele>
        <time>2021-09-10T08:31:35.675Z</time>
      </trkpt>
      <trkpt lat="45.64972" lon="5.91572">
        <ele>287</ele>
        <time>2021-09-10T08:31:36.676Z</time>
      </trkpt>
      <trkpt lat="45.64971" lon="5.91573">
        <ele>288</ele>
        <time>2021-09-10T08:31:37.676Z</time>
      </trkpt>
      <trkpt lat="45.64971" lon="5.91574">
        <ele>288</ele>
        <time>2021-09-10T08:31:38.675Z</time>
      </trkpt>
      <trkpt lat="45.64971" lon="5.91574">
        <ele>288</ele>
        <time>2021-09-10T08:31:39.675Z</time>
      </trkpt>
      <trkpt lat="45.64971" lon="5.91574">
        <ele>288</ele>
        <time>2021-09-10T08:31:40.675Z</time>
      </trkpt>
      <trkpt lat="45.6497" lon="5.91582">
        <ele>286</ele>
        <time>2021-09-10T08:31:41.675Z</time>
      </trkpt>
      <trkpt lat="45.6497" lon="5.91586">
        <ele>286</ele>
        <time>2021-09-10T08:31:42.676Z</time>
      </trkpt>
      <trkpt lat="45.6497" lon="5.91588">
        <ele>285</ele>
        <time>2021-09-10T08:31:43.675Z</time>
      </trkpt>
      <trkpt lat="45.64969" lon="5.91592">
        <ele>285</ele>
        <time>2021-09-10T08:31:44.675Z</time>
      </trkpt>
      <trkpt lat="45.64969" lon="5.91596">
        <ele>285</ele>
        <time>2021-09-10T08:31:45.675Z</time>
      </trkpt>
      <trkpt lat="45.64968" lon="5.91599">
        <ele>284</ele>
        <time>2021-09-10T08:31:46.676Z</time>
      </trkpt>
      <trkpt lat="45.64968" lon="5.91602">
        <ele>284</ele>
        <time>2021-09-10T08:31:47.676Z</time>
      </trkpt>
      <trkpt lat="45.64968" lon="5.91605">
        <ele>283</ele>
        <time>2021-09-10T08:31:48.676Z</time>
      </trkpt>
      <trkpt lat="45.64967" lon="5.91608">
        <ele>283</ele>
        <time>2021-09-10T08:31:49.675Z</time>
      </trkpt>
      <trkpt lat="45.64967" lon="5.91611">
        <ele>283</ele>
        <time>2021-09-10T08:31:50.675Z</time>
      </trkpt>
      <trkpt lat="45.64966" lon="5.91614">
        <ele>283</ele>
        <time>2021-09-10T08:31:51.676Z</time>
      </trkpt>
      <trkpt lat="45.64966" lon="5.91617">
        <ele>283</ele>
        <time>2021-09-10T08:31:52.676Z</time>
      </trkpt>
      <trkpt lat="45.64966" lon="5.9162">
        <ele>283</ele>
        <time>2021-09-10T08:31:53.675Z</time>
      </trkpt>
      <trkpt lat="45.64965" lon="5.91623">
        <ele>283</ele>
        <time>2021-09-10T08:31:54.675Z</time>
      </trkpt>
      <trkpt lat="45.64965" lon="5.91626">
        <ele>283</ele>
        <time>2021-09-10T08:31:55.676Z</time>
      </trkpt>
      <trkpt lat="45.64964" lon="5.9163">
        <ele>283</ele>
        <time>2021-09-10T08:31:56.675Z</time>
      </trkpt>
      <trkpt lat="45.64964" lon="5.91633">
        <ele>283</ele>
        <time>2021-09-10T08:31:57.675Z</time>
      </trkpt>
      <trkpt lat="45.64964" lon="5.91637">
        <ele>283</ele>
        <time>2021-09-10T08:31:58.676Z</time>
      </trkpt>
      <trkpt lat="45.64963" lon="5.91642">
        <ele>282</ele>
        <time>2021-09-10T08:31:59.676Z</time>
      </trkpt>
      <trkpt lat="45.64963" lon="5.91647">
        <ele>282</ele>
        <time>2021-09-10T08:32:00.676Z</time>
      </trkpt>
      <trkpt lat="45.64963" lon="5.91652">
        <ele>282</ele>
        <time>2021-09-10T08:32:01.676Z</time>
      </trkpt>
      <trkpt lat="45.64963" lon="5.91658">
        <ele>282</ele>
        <time>2021-09-10T08:32:02.676Z</time>
      </trkpt>
      <trkpt lat="45.64963" lon="5.91663">
        <ele>283</ele>
        <time>2021-09-10T08:32:03.676Z</time>
      </trkpt>
      <trkpt lat="45.64962" lon="5.91669">
        <ele>283</ele>
        <time>2021-09-10T08:32:04.676Z</time>
      </trkpt>
      <trkpt lat="45.64962" lon="5.91676">
        <ele>284</ele>
        <time>2021-09-10T08:32:05.676Z</time>
      </trkpt>
      <trkpt lat="45.64962" lon="5.91683">
        <ele>284</ele>
        <time>2021-09-10T08:32:06.676Z</time>
      </trkpt>
      <trkpt lat="45.64962" lon="5.9169">
        <ele>285</ele>
        <time>2021-09-10T08:32:07.676Z</time>
      </trkpt>
      <trkpt lat="45.64961" lon="5.91696">
        <ele>285</ele>
        <time>2021-09-10T08:32:08.676Z</time>
      </trkpt>
      <trkpt lat="45.6496" lon="5.91703">
        <ele>284</ele>
        <time>2021-09-10T08:32:09.676Z</time>
      </trkpt>
      <trkpt lat="45.6496" lon="5.91709">
        <ele>284</ele>
        <time>2021-09-10T08:32:10.676Z</time>
      </trkpt>
      <trkpt lat="45.64959" lon="5.91714">
        <ele>283</ele>
        <time>2021-09-10T08:32:11.676Z</time>
      </trkpt>
      <trkpt lat="45.64958" lon="5.91719">
        <ele>283</ele>
        <time>2021-09-10T08:32:12.676Z</time>
      </trkpt>
      <trkpt lat="45.64958" lon="5.91725">
        <ele>283</ele>
        <time>2021-09-10T08:32:13.676Z</time>
      </trkpt>
      <trkpt lat="45.64957" lon="5.91729">
        <ele>282</ele>
        <time>2021-09-10T08:32:14.675Z</time>
      </trkpt>
      <trkpt lat="45.64957" lon="5.91734">
        <ele>282</ele>
        <time>2021-09-10T08:32:15.675Z</time>
      </trkpt>
      <trkpt lat="45.64957" lon="5.91738">
        <ele>281</ele>
        <time>2021-09-10T08:32:16.676Z</time>
      </trkpt>
      <trkpt lat="45.64956" lon="5.91743">
        <ele>281</ele>
        <time>2021-09-10T08:32:17.676Z</time>
      </trkpt>
      <trkpt lat="45.64955" lon="5.91747">
        <ele>281</ele>
        <time>2021-09-10T08:32:18.676Z</time>
      </trkpt>
      <trkpt lat="45.64953" lon="5.91751">
        <ele>281</ele>
        <time>2021-09-10T08:32:19.675Z</time>
      </trkpt>
      <trkpt lat="45.64952" lon="5.91755">
        <ele>281</ele>
        <time>2021-09-10T08:32:20.676Z</time>
      </trkpt>
      <trkpt lat="45.64951" lon="5.9176">
        <ele>281</ele>
        <time>2021-09-10T08:32:21.676Z</time>
      </trkpt>
      <trkpt lat="45.6495" lon="5.91763">
        <ele>281</ele>
        <time>2021-09-10T08:32:22.676Z</time>
      </trkpt>
      <trkpt lat="45.64949" lon="5.91766">
        <ele>281</ele>
        <time>2021-09-10T08:32:23.676Z</time>
      </trkpt>
      <trkpt lat="45.64948" lon="5.91768">
        <ele>281</ele>
        <time>2021-09-10T08:32:24.676Z</time>
      </trkpt>
      <trkpt lat="45.64947" lon="5.91769">
        <ele>282</ele>
        <time>2021-09-10T08:32:25.676Z</time>
      </trkpt>
      <trkpt lat="45.64945" lon="5.9177">
        <ele>282</ele>
        <time>2021-09-10T08:32:26.676Z</time>
      </trkpt>
      <trkpt lat="45.64944" lon="5.91771">
        <ele>282</ele>
        <time>2021-09-10T08:32:27.675Z</time>
      </trkpt>
      <trkpt lat="45.64942" lon="5.91772">
        <ele>283</ele>
        <time>2021-09-10T08:32:28.676Z</time>
      </trkpt>
      <trkpt lat="45.6494" lon="5.91773">
        <ele>283</ele>
        <time>2021-09-10T08:32:29.676Z</time>
      </trkpt>
      <trkpt lat="45.64939" lon="5.91773">
        <ele>284</ele>
        <time>2021-09-10T08:32:30.676Z</time>
      </trkpt>
      <trkpt lat="45.64937" lon="5.91773">
        <ele>284</ele>
        <time>2021-09-10T08:32:31.676Z</time>
      </trkpt>
      <trkpt lat="45.64935" lon="5.91772">
        <ele>284</ele>
        <time>2021-09-10T08:32:32.676Z</time>
      </trkpt>
      <trkpt lat="45.64933" lon="5.91772">
        <ele>283</ele>
        <time>2021-09-10T08:32:33.676Z</time>
      </trkpt>
      <trkpt lat="45.64931" lon="5.91771">
        <ele>283</ele>
        <time>2021-09-10T08:32:34.676Z</time>
      </trkpt>
      <trkpt lat="45.64929" lon="5.91771">
        <ele>283</ele>
        <time>2021-09-10T08:32:35.676Z</time>
      </trkpt>
      <trkpt lat="45.64928" lon="5.91771">
        <ele>283</ele>
        <time>2021-09-10T08:32:36.676Z</time>
      </trkpt>
      <trkpt lat="45.64927" lon="5.9177">
        <ele>284</ele>
        <time>2021-09-10T08:32:37.676Z</time>
      </trkpt>
      <trkpt lat="45.64927" lon="5.9177">
        <ele>284</ele>
        <time>2021-09-10T08:32:38.676Z</time>
      </trkpt>
      <trkpt lat="45.64927" lon="5.9177">
        <ele>283</ele>
        <time>2021-09-10T08:32:39.675Z</time>
      </trkpt>
      <trkpt lat="45.64922" lon="5.91768">
        <ele>280</ele>
        <time>2021-09-10T08:32:40.676Z</time>
      </trkpt>
      <trkpt lat="45.64921" lon="5.91768">
        <ele>281</ele>
        <time>2021-09-10T08:32:41.676Z</time>
      </trkpt>
      <trkpt lat="45.64919" lon="5.91768">
        <ele>282</ele>
        <time>2021-09-10T08:32:42.675Z</time>
      </trkpt>
      <trkpt lat="45.64917" lon="5.91768">
        <ele>282</ele>
        <time>2021-09-10T08:32:43.676Z</time>
      </trkpt>
      <trkpt lat="45.64914" lon="5.91768">
        <ele>283</ele>
        <time>2021-09-10T08:32:44.676Z</time>
      </trkpt>
      <trkpt lat="45.64912" lon="5.91768">
        <ele>283</ele>
        <time>2021-09-10T08:32:45.675Z</time>
      </trkpt>
      <trkpt lat="45.64909" lon="5.91768">
        <ele>284</ele>
        <time>2021-09-10T08:32:46.676Z</time>
      </trkpt>
      <trkpt lat="45.64906" lon="5.91769">
        <ele>284</ele>
        <time>2021-09-10T08:32:47.676Z</time>
      </trkpt>
      <trkpt lat="45.64903" lon="5.91769">
        <ele>284</ele>
        <time>2021-09-10T08:32:48.676Z</time>
      </trkpt>
      <trkpt lat="45.64901" lon="5.91769">
        <ele>284</ele>
        <time>2021-09-10T08:32:49.675Z</time>
      </trkpt>
      <trkpt lat="45.64898" lon="5.91769">
        <ele>284</ele>
        <time>2021-09-10T08:32:50.676Z</time>
      </trkpt>
      <trkpt lat="45.64895" lon="5.91769">
        <ele>284</ele>
        <time>2021-09-10T08:32:51.676Z</time>
      </trkpt>
      <trkpt lat="45.64892" lon="5.91769">
        <ele>284</ele>
        <time>2021-09-10T08:32:52.676Z</time>
      </trkpt>
      <trkpt lat="45.64888" lon="5.91769">
        <ele>284</ele>
        <time>2021-09-10T08:32:53.676Z</time>
      </trkpt>
      <trkpt lat="45.64885" lon="5.91769">
        <ele>284</ele>
        <time>2021-09-10T08:32:54.676Z</time>
      </trkpt>
      <trkpt lat="45.64881" lon="5.91768">
        <ele>284</ele>
        <time>2021-09-10T08:32:55.675Z</time>
      </trkpt>
      <trkpt lat="45.64878" lon="5.91767">
        <ele>284</ele>
        <time>2021-09-10T08:32:56.676Z</time>
      </trkpt>
      <trkpt lat="45.64875" lon="5.91767">
        <ele>284</ele>
        <time>2021-09-10T08:32:57.676Z</time>
      </trkpt>
      <trkpt lat="45.64871" lon="5.91767">
        <ele>283</ele>
        <time>2021-09-10T08:32:58.676Z</time>
      </trkpt>
      <trkpt lat="45.64868" lon="5.91766">
        <ele>283</ele>
        <time>2021-09-10T08:32:59.676Z</time>
      </trkpt>
      <trkpt lat="45.64864" lon="5.91766">
        <ele>283</ele>
        <time>2021-09-10T08:33:00.675Z</time>
      </trkpt>
      <trkpt lat="45.6486" lon="5.91765">
        <ele>283</ele>
        <time>2021-09-10T08:33:01.676Z</time>
      </trkpt>
      <trkpt lat="45.64856" lon="5.91763">
        <ele>282</ele>
        <time>2021-09-10T08:33:02.676Z</time>
      </trkpt>
      <trkpt lat="45.64852" lon="5.91762">
        <ele>282</ele>
        <time>2021-09-10T08:33:03.676Z</time>
      </trkpt>
      <trkpt lat="45.64848" lon="5.9176">
        <ele>281</ele>
        <time>2021-09-10T08:33:04.676Z</time>
      </trkpt>
      <trkpt lat="45.64844" lon="5.91759">
        <ele>281</ele>
        <time>2021-09-10T08:33:05.675Z</time>
      </trkpt>
      <trkpt lat="45.6484" lon="5.91757">
        <ele>281</ele>
        <time>2021-09-10T08:33:06.676Z</time>
      </trkpt>
      <trkpt lat="45.64836" lon="5.91756">
        <ele>281</ele>
        <time>2021-09-10T08:33:07.676Z</time>
      </trkpt>
      <trkpt lat="45.64832" lon="5.91755">
        <ele>281</ele>
        <time>2021-09-10T08:33:08.676Z</time>
      </trkpt>
      <trkpt lat="45.64828" lon="5.91753">
        <ele>280</ele>
        <time>2021-09-10T08:33:09.676Z</time>
      </trkpt>
      <trkpt lat="45.64825" lon="5.91752">
        <ele>280</ele>
        <time>2021-09-10T08:33:10.676Z</time>
      </trkpt>
      <trkpt lat="45.64821" lon="5.91751">
        <ele>280</ele>
        <time>2021-09-10T08:33:11.676Z</time>
      </trkpt>
      <trkpt lat="45.64816" lon="5.9175">
        <ele>280</ele>
        <time>2021-09-10T08:33:12.675Z</time>
      </trkpt>
      <trkpt lat="45.64812" lon="5.91748">
        <ele>280</ele>
        <time>2021-09-10T08:33:13.676Z</time>
      </trkpt>
      <trkpt lat="45.64808" lon="5.91747">
        <ele>281</ele>
        <time>2021-09-10T08:33:14.676Z</time>
      </trkpt>
      <trkpt lat="45.64804" lon="5.91745">
        <ele>281</ele>
        <time>2021-09-10T08:33:15.676Z</time>
      </trkpt>
      <trkpt lat="45.648" lon="5.91744">
        <ele>281</ele>
        <time>2021-09-10T08:33:16.676Z</time>
      </trkpt>
      <trkpt lat="45.64796" lon="5.91742">
        <ele>282</ele>
        <time>2021-09-10T08:33:17.675Z</time>
      </trkpt>
      <trkpt lat="45.64792" lon="5.9174">
        <ele>282</ele>
        <time>2021-09-10T08:33:18.676Z</time>
      </trkpt>
      <trkpt lat="45.64788" lon="5.91738">
        <ele>282</ele>
        <time>2021-09-10T08:33:19.675Z</time>
      </trkpt>
      <trkpt lat="45.64784" lon="5.91736">
        <ele>282</ele>
        <time>2021-09-10T08:33:20.676Z</time>
      </trkpt>
      <trkpt lat="45.64781" lon="5.91734">
        <ele>282</ele>
        <time>2021-09-10T08:33:21.675Z</time>
      </trkpt>
      <trkpt lat="45.64777" lon="5.91732">
        <ele>282</ele>
        <time>2021-09-10T08:33:22.675Z</time>
      </trkpt>
      <trkpt lat="45.64774" lon="5.9173">
        <ele>281</ele>
        <time>2021-09-10T08:33:23.676Z</time>
      </trkpt>
      <trkpt lat="45.6477" lon="5.91727">
        <ele>281</ele>
        <time>2021-09-10T08:33:24.676Z</time>
      </trkpt>
      <trkpt lat="45.64767" lon="5.91724">
        <ele>280</ele>
        <time>2021-09-10T08:33:25.675Z</time>
      </trkpt>
      <trkpt lat="45.64763" lon="5.91722">
        <ele>280</ele>
        <time>2021-09-10T08:33:26.676Z</time>
      </trkpt>
      <trkpt lat="45.6476" lon="5.91719">
        <ele>280</ele>
        <time>2021-09-10T08:33:27.676Z</time>
      </trkpt>
      <trkpt lat="45.64756" lon="5.91716">
        <ele>279</ele>
        <time>2021-09-10T08:33:28.676Z</time>
      </trkpt>
      <trkpt lat="45.64752" lon="5.91713">
        <ele>279</ele>
        <time>2021-09-10T08:33:29.676Z</time>
      </trkpt>
      <trkpt lat="45.64748" lon="5.9171">
        <ele>279</ele>
        <time>2021-09-10T08:33:30.676Z</time>
      </trkpt>
      <trkpt lat="45.64744" lon="5.91706">
        <ele>279</ele>
        <time>2021-09-10T08:33:31.675Z</time>
      </trkpt>
      <trkpt lat="45.6474" lon="5.91703">
        <ele>278</ele>
        <time>2021-09-10T08:33:32.676Z</time>
      </trkpt>
      <trkpt lat="45.64736" lon="5.91699">
        <ele>278</ele>
        <time>2021-09-10T08:33:33.676Z</time>
      </trkpt>
      <trkpt lat="45.64732" lon="5.91697">
        <ele>278</ele>
        <time>2021-09-10T08:33:34.676Z</time>
      </trkpt>
      <trkpt lat="45.64729" lon="5.91694">
        <ele>277</ele>
        <time>2021-09-10T08:33:35.676Z</time>
      </trkpt>
      <trkpt lat="45.64725" lon="5.91691">
        <ele>277</ele>
        <time>2021-09-10T08:33:36.675Z</time>
      </trkpt>
      <trkpt lat="45.64721" lon="5.91687">
        <ele>277</ele>
        <time>2021-09-10T08:33:37.676Z</time>
      </trkpt>
      <trkpt lat="45.64718" lon="5.91683">
        <ele>276</ele>
        <time>2021-09-10T08:33:38.676Z</time>
      </trkpt>
      <trkpt lat="45.64714" lon="5.9168">
        <ele>275</ele>
        <time>2021-09-10T08:33:39.676Z</time>
      </trkpt>
      <trkpt lat="45.64711" lon="5.91676">
        <ele>275</ele>
        <time>2021-09-10T08:33:40.676Z</time>
      </trkpt>
      <trkpt lat="45.64707" lon="5.91672">
        <ele>274</ele>
        <time>2021-09-10T08:33:41.675Z</time>
      </trkpt>
      <trkpt lat="45.64703" lon="5.91669">
        <ele>274</ele>
        <time>2021-09-10T08:33:42.676Z</time>
      </trkpt>
      <trkpt lat="45.64699" lon="5.91665">
        <ele>274</ele>
        <time>2021-09-10T08:33:43.676Z</time>
      </trkpt>
      <trkpt lat="45.64696" lon="5.91661">
        <ele>273</ele>
        <time>2021-09-10T08:33:44.676Z</time>
      </trkpt>
      <trkpt lat="45.64692" lon="5.91658">
        <ele>273</ele>
        <time>2021-09-10T08:33:45.676Z</time>
      </trkpt>
      <trkpt lat="45.64689" lon="5.91654">
        <ele>274</ele>
        <time>2021-09-10T08:33:46.676Z</time>
      </trkpt>
      <trkpt lat="45.64686" lon="5.91651">
        <ele>274</ele>
        <time>2021-09-10T08:33:47.676Z</time>
      </trkpt>
      <trkpt lat="45.64683" lon="5.91649">
        <ele>274</ele>
        <time>2021-09-10T08:33:48.676Z</time>
      </trkpt>
      <trkpt lat="45.64681" lon="5.91646">
        <ele>274</ele>
        <time>2021-09-10T08:33:49.676Z</time>
      </trkpt>
      <trkpt lat="45.64679" lon="5.91644">
        <ele>274</ele>
        <time>2021-09-10T08:33:50.676Z</time>
      </trkpt>
      <trkpt lat="45.64676" lon="5.91642">
        <ele>274</ele>
        <time>2021-09-10T08:33:51.676Z</time>
      </trkpt>
      <trkpt lat="45.64674" lon="5.91639">
        <ele>274</ele>
        <time>2021-09-10T08:33:52.676Z</time>
      </trkpt>
      <trkpt lat="45.64671" lon="5.91637">
        <ele>274</ele>
        <time>2021-09-10T08:33:53.676Z</time>
      </trkpt>
      <trkpt lat="45.64669" lon="5.91634">
        <ele>274</ele>
        <time>2021-09-10T08:33:54.676Z</time>
      </trkpt>
      <trkpt lat="45.64666" lon="5.91632">
        <ele>274</ele>
        <time>2021-09-10T08:33:55.676Z</time>
      </trkpt>
      <trkpt lat="45.64663" lon="5.91628">
        <ele>274</ele>
        <time>2021-09-10T08:33:56.676Z</time>
      </trkpt>
      <trkpt lat="45.6466" lon="5.91625">
        <ele>273</ele>
        <time>2021-09-10T08:33:57.675Z</time>
      </trkpt>
      <trkpt lat="45.64657" lon="5.91622">
        <ele>273</ele>
        <time>2021-09-10T08:33:58.676Z</time>
      </trkpt>
      <trkpt lat="45.64654" lon="5.91619">
        <ele>273</ele>
        <time>2021-09-10T08:33:59.676Z</time>
      </trkpt>
      <trkpt lat="45.64651" lon="5.91616">
        <ele>273</ele>
        <time>2021-09-10T08:34:00.676Z</time>
      </trkpt>
      <trkpt lat="45.64648" lon="5.91614">
        <ele>273</ele>
        <time>2021-09-10T08:34:01.676Z</time>
      </trkpt>
      <trkpt lat="45.64645" lon="5.91611">
        <ele>273</ele>
        <time>2021-09-10T08:34:02.676Z</time>
      </trkpt>
      <trkpt lat="45.64642" lon="5.91608">
        <ele>273</ele>
        <time>2021-09-10T08:34:03.676Z</time>
      </trkpt>
      <trkpt lat="45.64639" lon="5.91605">
        <ele>273</ele>
        <time>2021-09-10T08:34:04.676Z</time>
      </trkpt>
      <trkpt lat="45.64636" lon="5.91603">
        <ele>274</ele>
        <time>2021-09-10T08:34:05.676Z</time>
      </trkpt>
      <trkpt lat="45.64633" lon="5.916">
        <ele>274</ele>
        <time>2021-09-10T08:34:06.676Z</time>
      </trkpt>
      <trkpt lat="45.64631" lon="5.91599">
        <ele>274</ele>
        <time>2021-09-10T08:34:07.675Z</time>
      </trkpt>
      <trkpt lat="45.64628" lon="5.91597">
        <ele>274</ele>
        <time>2021-09-10T08:34:08.676Z</time>
      </trkpt>
      <trkpt lat="45.64625" lon="5.91594">
        <ele>275</ele>
        <time>2021-09-10T08:34:09.676Z</time>
      </trkpt>
      <trkpt lat="45.64622" lon="5.91592">
        <ele>275</ele>
        <time>2021-09-10T08:34:10.675Z</time>
      </trkpt>
      <trkpt lat="45.64619" lon="5.91588">
        <ele>275</ele>
        <time>2021-09-10T08:34:11.675Z</time>
      </trkpt>
      <trkpt lat="45.64616" lon="5.91585">
        <ele>275</ele>
        <time>2021-09-10T08:34:12.676Z</time>
      </trkpt>
      <trkpt lat="45.64613" lon="5.91582">
        <ele>274</ele>
        <time>2021-09-10T08:34:13.675Z</time>
      </trkpt>
      <trkpt lat="45.64611" lon="5.91579">
        <ele>275</ele>
        <time>2021-09-10T08:34:14.676Z</time>
      </trkpt>
      <trkpt lat="45.64608" lon="5.91576">
        <ele>276</ele>
        <time>2021-09-10T08:34:15.676Z</time>
      </trkpt>
      <trkpt lat="45.64605" lon="5.91573">
        <ele>276</ele>
        <time>2021-09-10T08:34:16.676Z</time>
      </trkpt>
      <trkpt lat="45.64602" lon="5.9157">
        <ele>276</ele>
        <time>2021-09-10T08:34:17.675Z</time>
      </trkpt>
      <trkpt lat="45.64598" lon="5.91566">
        <ele>277</ele>
        <time>2021-09-10T08:34:18.676Z</time>
      </trkpt>
      <trkpt lat="45.64595" lon="5.91563">
        <ele>277</ele>
        <time>2021-09-10T08:34:19.676Z</time>
      </trkpt>
      <trkpt lat="45.64592" lon="5.9156">
        <ele>277</ele>
        <time>2021-09-10T08:34:20.676Z</time>
      </trkpt>
      <trkpt lat="45.64589" lon="5.91557">
        <ele>277</ele>
        <time>2021-09-10T08:34:21.676Z</time>
      </trkpt>
      <trkpt lat="45.64586" lon="5.91554">
        <ele>277</ele>
        <time>2021-09-10T08:34:22.676Z</time>
      </trkpt>
      <trkpt lat="45.64583" lon="5.91551">
        <ele>277</ele>
        <time>2021-09-10T08:34:23.676Z</time>
      </trkpt>
      <trkpt lat="45.6458" lon="5.91547">
        <ele>276</ele>
        <time>2021-09-10T08:34:24.675Z</time>
      </trkpt>
      <trkpt lat="45.64577" lon="5.91544">
        <ele>276</ele>
        <time>2021-09-10T08:34:25.676Z</time>
      </trkpt>
      <trkpt lat="45.64573" lon="5.91541">
        <ele>276</ele>
        <time>2021-09-10T08:34:26.675Z</time>
      </trkpt>
      <trkpt lat="45.6457" lon="5.91538">
        <ele>276</ele>
        <time>2021-09-10T08:34:27.676Z</time>
      </trkpt>
      <trkpt lat="45.64567" lon="5.91536">
        <ele>277</ele>
        <time>2021-09-10T08:34:28.676Z</time>
      </trkpt>
      <trkpt lat="45.64564" lon="5.91533">
        <ele>277</ele>
        <time>2021-09-10T08:34:29.676Z</time>
      </trkpt>
      <trkpt lat="45.64561" lon="5.91531">
        <ele>277</ele>
        <time>2021-09-10T08:34:30.676Z</time>
      </trkpt>
      <trkpt lat="45.64559" lon="5.9153">
        <ele>277</ele>
        <time>2021-09-10T08:34:31.676Z</time>
      </trkpt>
      <trkpt lat="45.64556" lon="5.91528">
        <ele>277</ele>
        <time>2021-09-10T08:34:32.676Z</time>
      </trkpt>
      <trkpt lat="45.64553" lon="5.91524">
        <ele>278</ele>
        <time>2021-09-10T08:34:33.676Z</time>
      </trkpt>
      <trkpt lat="45.6455" lon="5.91521">
        <ele>278</ele>
        <time>2021-09-10T08:34:34.676Z</time>
      </trkpt>
      <trkpt lat="45.64548" lon="5.91516">
        <ele>278</ele>
        <time>2021-09-10T08:34:35.676Z</time>
      </trkpt>
      <trkpt lat="45.64546" lon="5.91512">
        <ele>277</ele>
        <time>2021-09-10T08:34:36.676Z</time>
      </trkpt>
      <trkpt lat="45.64544" lon="5.91507">
        <ele>277</ele>
        <time>2021-09-10T08:34:37.676Z</time>
      </trkpt>
      <trkpt lat="45.64541" lon="5.915">
        <ele>277</ele>
        <time>2021-09-10T08:34:38.676Z</time>
      </trkpt>
      <trkpt lat="45.64538" lon="5.91495">
        <ele>278</ele>
        <time>2021-09-10T08:34:39.676Z</time>
      </trkpt>
      <trkpt lat="45.64536" lon="5.91491">
        <ele>278</ele>
        <time>2021-09-10T08:34:40.676Z</time>
      </trkpt>
      <trkpt lat="45.64535" lon="5.91486">
        <ele>277</ele>
        <time>2021-09-10T08:34:41.676Z</time>
      </trkpt>
      <trkpt lat="45.64533" lon="5.9148">
        <ele>277</ele>
        <time>2021-09-10T08:34:42.676Z</time>
      </trkpt>
      <trkpt lat="45.64532" lon="5.91476">
        <ele>277</ele>
        <time>2021-09-10T08:34:43.675Z</time>
      </trkpt>
      <trkpt lat="45.64532" lon="5.91472">
        <ele>277</ele>
        <time>2021-09-10T08:34:44.676Z</time>
      </trkpt>
      <trkpt lat="45.64531" lon="5.9147">
        <ele>277</ele>
        <time>2021-09-10T08:34:45.676Z</time>
      </trkpt>
      <trkpt lat="45.64529" lon="5.91468">
        <ele>276</ele>
        <time>2021-09-10T08:34:46.675Z</time>
      </trkpt>
      <trkpt lat="45.64527" lon="5.91467">
        <ele>276</ele>
        <time>2021-09-10T08:34:47.675Z</time>
      </trkpt>
      <trkpt lat="45.64525" lon="5.91467">
        <ele>276</ele>
        <time>2021-09-10T08:34:48.676Z</time>
      </trkpt>
      <trkpt lat="45.64523" lon="5.91468">
        <ele>275</ele>
        <time>2021-09-10T08:34:49.676Z</time>
      </trkpt>
      <trkpt lat="45.64521" lon="5.9147">
        <ele>275</ele>
        <time>2021-09-10T08:34:50.676Z</time>
      </trkpt>
      <trkpt lat="45.6452" lon="5.91473">
        <ele>275</ele>
        <time>2021-09-10T08:34:51.676Z</time>
      </trkpt>
      <trkpt lat="45.64519" lon="5.91476">
        <ele>274</ele>
        <time>2021-09-10T08:34:52.676Z</time>
      </trkpt>
      <trkpt lat="45.64518" lon="5.91478">
        <ele>274</ele>
        <time>2021-09-10T08:34:53.676Z</time>
      </trkpt>
      <trkpt lat="45.64516" lon="5.91481">
        <ele>274</ele>
        <time>2021-09-10T08:34:54.676Z</time>
      </trkpt>
      <trkpt lat="45.64515" lon="5.91483">
        <ele>274</ele>
        <time>2021-09-10T08:34:55.676Z</time>
      </trkpt>
      <trkpt lat="45.64513" lon="5.91485">
        <ele>273</ele>
        <time>2021-09-10T08:34:56.675Z</time>
      </trkpt>
      <trkpt lat="45.64512" lon="5.91487">
        <ele>273</ele>
        <time>2021-09-10T08:34:57.676Z</time>
      </trkpt>
      <trkpt lat="45.6451" lon="5.91488">
        <ele>272</ele>
        <time>2021-09-10T08:34:58.676Z</time>
      </trkpt>
      <trkpt lat="45.64508" lon="5.9149">
        <ele>271</ele>
        <time>2021-09-10T08:34:59.676Z</time>
      </trkpt>
      <trkpt lat="45.64506" lon="5.91491">
        <ele>271</ele>
        <time>2021-09-10T08:35:00.676Z</time>
      </trkpt>
      <trkpt lat="45.64504" lon="5.91493">
        <ele>271</ele>
        <time>2021-09-10T08:35:01.676Z</time>
      </trkpt>
      <trkpt lat="45.64502" lon="5.91494">
        <ele>270</ele>
        <time>2021-09-10T08:35:02.676Z</time>
      </trkpt>
      <trkpt lat="45.64501" lon="5.91496">
        <ele>270</ele>
        <time>2021-09-10T08:35:03.675Z</time>
      </trkpt>
      <trkpt lat="45.645" lon="5.91498">
        <ele>271</ele>
        <time>2021-09-10T08:35:04.676Z</time>
      </trkpt>
      <trkpt lat="45.64499" lon="5.915">
        <ele>271</ele>
        <time>2021-09-10T08:35:05.676Z</time>
      </trkpt>
      <trkpt lat="45.64498" lon="5.91502">
        <ele>271</ele>
        <time>2021-09-10T08:35:06.676Z</time>
      </trkpt>
      <trkpt lat="45.64497" lon="5.91505">
        <ele>271</ele>
        <time>2021-09-10T08:35:07.676Z</time>
      </trkpt>
      <trkpt lat="45.64496" lon="5.91507">
        <ele>271</ele>
        <time>2021-09-10T08:35:08.676Z</time>
      </trkpt>
      <trkpt lat="45.64495" lon="5.91508">
        <ele>271</ele>
        <time>2021-09-10T08:35:09.676Z</time>
      </trkpt>
      <trkpt lat="45.64493" lon="5.9151">
        <ele>271</ele>
        <time>2021-09-10T08:35:10.676Z</time>
      </trkpt>
      <trkpt lat="45.64493" lon="5.91513">
        <ele>271</ele>
        <time>2021-09-10T08:35:11.676Z</time>
      </trkpt>
      <trkpt lat="45.64492" lon="5.91515">
        <ele>272</ele>
        <time>2021-09-10T08:35:12.676Z</time>
      </trkpt>
      <trkpt lat="45.64492" lon="5.91519">
        <ele>272</ele>
        <time>2021-09-10T08:35:13.676Z</time>
      </trkpt>
      <trkpt lat="45.64492" lon="5.91523">
        <ele>272</ele>
        <time>2021-09-10T08:35:14.676Z</time>
      </trkpt>
      <trkpt lat="45.64493" lon="5.91526">
        <ele>273</ele>
        <time>2021-09-10T08:35:15.676Z</time>
      </trkpt>
      <trkpt lat="45.64494" lon="5.91529">
        <ele>273</ele>
        <time>2021-09-10T08:35:16.676Z</time>
      </trkpt>
      <trkpt lat="45.64496" lon="5.91531">
        <ele>273</ele>
        <time>2021-09-10T08:35:17.676Z</time>
      </trkpt>
      <trkpt lat="45.64498" lon="5.91533">
        <ele>273</ele>
        <time>2021-09-10T08:35:18.676Z</time>
      </trkpt>
      <trkpt lat="45.645" lon="5.91535">
        <ele>273</ele>
        <time>2021-09-10T08:35:19.676Z</time>
      </trkpt>
      <trkpt lat="45.64502" lon="5.91538">
        <ele>273</ele>
        <time>2021-09-10T08:35:20.676Z</time>
      </trkpt>
      <trkpt lat="45.64503" lon="5.9154">
        <ele>273</ele>
        <time>2021-09-10T08:35:21.675Z</time>
      </trkpt>
      <trkpt lat="45.64504" lon="5.91543">
        <ele>274</ele>
        <time>2021-09-10T08:35:22.676Z</time>
      </trkpt>
      <trkpt lat="45.64505" lon="5.91546">
        <ele>274</ele>
        <time>2021-09-10T08:35:23.676Z</time>
      </trkpt>
      <trkpt lat="45.64505" lon="5.91548">
        <ele>274</ele>
        <time>2021-09-10T08:35:24.676Z</time>
      </trkpt>
      <trkpt lat="45.64505" lon="5.91551">
        <ele>273</ele>
        <time>2021-09-10T08:35:25.676Z</time>
      </trkpt>
      <trkpt lat="45.64504" lon="5.91555">
        <ele>273</ele>
        <time>2021-09-10T08:35:26.676Z</time>
      </trkpt>
      <trkpt lat="45.64504" lon="5.91558">
        <ele>273</ele>
        <time>2021-09-10T08:35:27.676Z</time>
      </trkpt>
      <trkpt lat="45.64503" lon="5.91562">
        <ele>274</ele>
        <time>2021-09-10T08:35:28.675Z</time>
      </trkpt>
      <trkpt lat="45.64502" lon="5.91566">
        <ele>274</ele>
        <time>2021-09-10T08:35:29.676Z</time>
      </trkpt>
      <trkpt lat="45.645" lon="5.91569">
        <ele>274</ele>
        <time>2021-09-10T08:35:30.676Z</time>
      </trkpt>
      <trkpt lat="45.64499" lon="5.91572">
        <ele>273</ele>
        <time>2021-09-10T08:35:31.676Z</time>
      </trkpt>
      <trkpt lat="45.64498" lon="5.91576">
        <ele>273</ele>
        <time>2021-09-10T08:35:32.675Z</time>
      </trkpt>
      <trkpt lat="45.64496" lon="5.9158">
        <ele>273</ele>
        <time>2021-09-10T08:35:33.676Z</time>
      </trkpt>
      <trkpt lat="45.64496" lon="5.91584">
        <ele>273</ele>
        <time>2021-09-10T08:35:34.676Z</time>
      </trkpt>
      <trkpt lat="45.64495" lon="5.91588">
        <ele>273</ele>
        <time>2021-09-10T08:35:35.676Z</time>
      </trkpt>
      <trkpt lat="45.64494" lon="5.91592">
        <ele>273</ele>
        <time>2021-09-10T08:35:36.676Z</time>
      </trkpt>
      <trkpt lat="45.64493" lon="5.91595">
        <ele>273</ele>
        <time>2021-09-10T08:35:37.676Z</time>
      </trkpt>
      <trkpt lat="45.64492" lon="5.91599">
        <ele>274</ele>
        <time>2021-09-10T08:35:38.676Z</time>
      </trkpt>
      <trkpt lat="45.64491" lon="5.91602">
        <ele>274</ele>
        <time>2021-09-10T08:35:39.676Z</time>
      </trkpt>
      <trkpt lat="45.6449" lon="5.91605">
        <ele>274</ele>
        <time>2021-09-10T08:35:40.676Z</time>
      </trkpt>
      <trkpt lat="45.64489" lon="5.91609">
        <ele>274</ele>
        <time>2021-09-10T08:35:41.676Z</time>
      </trkpt>
      <trkpt lat="45.64488" lon="5.91612">
        <ele>274</ele>
        <time>2021-09-10T08:35:42.676Z</time>
      </trkpt>
      <trkpt lat="45.64486" lon="5.91616">
        <ele>274</ele>
        <time>2021-09-10T08:35:43.676Z</time>
      </trkpt>
      <trkpt lat="45.64485" lon="5.9162">
        <ele>274</ele>
        <time>2021-09-10T08:35:44.676Z</time>
      </trkpt>
      <trkpt lat="45.64484" lon="5.91624">
        <ele>274</ele>
        <time>2021-09-10T08:35:45.676Z</time>
      </trkpt>
      <trkpt lat="45.64483" lon="5.91629">
        <ele>274</ele>
        <time>2021-09-10T08:35:46.676Z</time>
      </trkpt>
      <trkpt lat="45.64482" lon="5.91633">
        <ele>274</ele>
        <time>2021-09-10T08:35:47.676Z</time>
      </trkpt>
      <trkpt lat="45.6448" lon="5.91637">
        <ele>274</ele>
        <time>2021-09-10T08:35:48.676Z</time>
      </trkpt>
      <trkpt lat="45.64479" lon="5.91641">
        <ele>273</ele>
        <time>2021-09-10T08:35:49.676Z</time>
      </trkpt>
      <trkpt lat="45.64478" lon="5.91644">
        <ele>273</ele>
        <time>2021-09-10T08:35:50.676Z</time>
      </trkpt>
      <trkpt lat="45.64477" lon="5.91648">
        <ele>273</ele>
        <time>2021-09-10T08:35:51.676Z</time>
      </trkpt>
      <trkpt lat="45.64475" lon="5.91652">
        <ele>273</ele>
        <time>2021-09-10T08:35:52.676Z</time>
      </trkpt>
      <trkpt lat="45.64474" lon="5.91656">
        <ele>273</ele>
        <time>2021-09-10T08:35:53.676Z</time>
      </trkpt>
      <trkpt lat="45.64472" lon="5.91661">
        <ele>273</ele>
        <time>2021-09-10T08:35:54.675Z</time>
      </trkpt>
      <trkpt lat="45.6447" lon="5.91667">
        <ele>273</ele>
        <time>2021-09-10T08:35:55.676Z</time>
      </trkpt>
      <trkpt lat="45.64468" lon="5.91672">
        <ele>273</ele>
        <time>2021-09-10T08:35:56.676Z</time>
      </trkpt>
      <trkpt lat="45.64466" lon="5.91677">
        <ele>273</ele>
        <time>2021-09-10T08:35:57.676Z</time>
      </trkpt>
      <trkpt lat="45.64464" lon="5.91682">
        <ele>273</ele>
        <time>2021-09-10T08:35:58.676Z</time>
      </trkpt>
      <trkpt lat="45.64462" lon="5.91687">
        <ele>274</ele>
        <time>2021-09-10T08:35:59.676Z</time>
      </trkpt>
      <trkpt lat="45.64461" lon="5.91692">
        <ele>274</ele>
        <time>2021-09-10T08:36:00.675Z</time>
      </trkpt>
      <trkpt lat="45.64459" lon="5.91697">
        <ele>274</ele>
        <time>2021-09-10T08:36:01.676Z</time>
      </trkpt>
      <trkpt lat="45.64458" lon="5.91702">
        <ele>275</ele>
        <time>2021-09-10T08:36:02.676Z</time>
      </trkpt>
      <trkpt lat="45.64456" lon="5.91707">
        <ele>275</ele>
        <time>2021-09-10T08:36:03.676Z</time>
      </trkpt>
      <trkpt lat="45.64454" lon="5.91712">
        <ele>275</ele>
        <time>2021-09-10T08:36:04.676Z</time>
      </trkpt>
      <trkpt lat="45.64452" lon="5.91717">
        <ele>275</ele>
        <time>2021-09-10T08:36:05.676Z</time>
      </trkpt>
      <trkpt lat="45.64451" lon="5.91722">
        <ele>274</ele>
        <time>2021-09-10T08:36:06.676Z</time>
      </trkpt>
      <trkpt lat="45.64449" lon="5.91727">
        <ele>274</ele>
        <time>2021-09-10T08:36:07.676Z</time>
      </trkpt>
      <trkpt lat="45.64448" lon="5.91732">
        <ele>275</ele>
        <time>2021-09-10T08:36:08.676Z</time>
      </trkpt>
      <trkpt lat="45.64446" lon="5.91737">
        <ele>276</ele>
        <time>2021-09-10T08:36:09.676Z</time>
      </trkpt>
      <trkpt lat="45.64446" lon="5.9174">
        <ele>276</ele>
        <time>2021-09-10T08:36:10.676Z</time>
      </trkpt>
      <trkpt lat="45.64445" lon="5.91743">
        <ele>276</ele>
        <time>2021-09-10T08:36:11.676Z</time>
      </trkpt>
      <trkpt lat="45.64444" lon="5.91746">
        <ele>277</ele>
        <time>2021-09-10T08:36:12.676Z</time>
      </trkpt>
      <trkpt lat="45.64444" lon="5.91749">
        <ele>277</ele>
        <time>2021-09-10T08:36:13.676Z</time>
      </trkpt>
      <trkpt lat="45.64443" lon="5.91753">
        <ele>277</ele>
        <time>2021-09-10T08:36:14.675Z</time>
      </trkpt>
      <trkpt lat="45.64442" lon="5.91756">
        <ele>277</ele>
        <time>2021-09-10T08:36:15.676Z</time>
      </trkpt>
      <trkpt lat="45.64441" lon="5.9176">
        <ele>278</ele>
        <time>2021-09-10T08:36:16.676Z</time>
      </trkpt>
      <trkpt lat="45.6444" lon="5.91764">
        <ele>279</ele>
        <time>2021-09-10T08:36:17.676Z</time>
      </trkpt>
      <trkpt lat="45.64439" lon="5.91767">
        <ele>279</ele>
        <time>2021-09-10T08:36:18.676Z</time>
      </trkpt>
      <trkpt lat="45.64438" lon="5.9177">
        <ele>280</ele>
        <time>2021-09-10T08:36:19.675Z</time>
      </trkpt>
      <trkpt lat="45.64437" lon="5.91774">
        <ele>280</ele>
        <time>2021-09-10T08:36:20.675Z</time>
      </trkpt>
      <trkpt lat="45.64436" lon="5.91777">
        <ele>280</ele>
        <time>2021-09-10T08:36:21.675Z</time>
      </trkpt>
      <trkpt lat="45.64435" lon="5.91781">
        <ele>280</ele>
        <time>2021-09-10T08:36:22.676Z</time>
      </trkpt>
      <trkpt lat="45.64434" lon="5.91785">
        <ele>280</ele>
        <time>2021-09-10T08:36:23.676Z</time>
      </trkpt>
      <trkpt lat="45.64432" lon="5.91789">
        <ele>280</ele>
        <time>2021-09-10T08:36:24.676Z</time>
      </trkpt>
      <trkpt lat="45.64431" lon="5.91794">
        <ele>281</ele>
        <time>2021-09-10T08:36:25.676Z</time>
      </trkpt>
      <trkpt lat="45.64428" lon="5.91798">
        <ele>281</ele>
        <time>2021-09-10T08:36:26.676Z</time>
      </trkpt>
      <trkpt lat="45.64426" lon="5.91801">
        <ele>280</ele>
        <time>2021-09-10T08:36:27.676Z</time>
      </trkpt>
      <trkpt lat="45.64423" lon="5.91804">
        <ele>280</ele>
        <time>2021-09-10T08:36:28.675Z</time>
      </trkpt>
      <trkpt lat="45.64421" lon="5.91807">
        <ele>279</ele>
        <time>2021-09-10T08:36:29.676Z</time>
      </trkpt>
      <trkpt lat="45.64418" lon="5.9181">
        <ele>278</ele>
        <time>2021-09-10T08:36:30.676Z</time>
      </trkpt>
      <trkpt lat="45.64415" lon="5.91812">
        <ele>277</ele>
        <time>2021-09-10T08:36:31.675Z</time>
      </trkpt>
      <trkpt lat="45.64412" lon="5.91814">
        <ele>277</ele>
        <time>2021-09-10T08:36:32.676Z</time>
      </trkpt>
      <trkpt lat="45.64409" lon="5.91815">
        <ele>276</ele>
        <time>2021-09-10T08:36:33.676Z</time>
      </trkpt>
      <trkpt lat="45.64406" lon="5.91816">
        <ele>276</ele>
        <time>2021-09-10T08:36:34.676Z</time>
      </trkpt>
      <trkpt lat="45.64403" lon="5.91817">
        <ele>275</ele>
        <time>2021-09-10T08:36:35.676Z</time>
      </trkpt>
      <trkpt lat="45.644" lon="5.91817">
        <ele>275</ele>
        <time>2021-09-10T08:36:36.675Z</time>
      </trkpt>
      <trkpt lat="45.64396" lon="5.91818">
        <ele>275</ele>
        <time>2021-09-10T08:36:37.676Z</time>
      </trkpt>
      <trkpt lat="45.64393" lon="5.91818">
        <ele>275</ele>
        <time>2021-09-10T08:36:38.676Z</time>
      </trkpt>
      <trkpt lat="45.64389" lon="5.91818">
        <ele>275</ele>
        <time>2021-09-10T08:36:39.675Z</time>
      </trkpt>
      <trkpt lat="45.64386" lon="5.91818">
        <ele>274</ele>
        <time>2021-09-10T08:36:40.676Z</time>
      </trkpt>
      <trkpt lat="45.64382" lon="5.91818">
        <ele>274</ele>
        <time>2021-09-10T08:36:41.676Z</time>
      </trkpt>
      <trkpt lat="45.64379" lon="5.91818">
        <ele>275</ele>
        <time>2021-09-10T08:36:42.676Z</time>
      </trkpt>
      <trkpt lat="45.64376" lon="5.91819">
        <ele>275</ele>
        <time>2021-09-10T08:36:43.676Z</time>
      </trkpt>
      <trkpt lat="45.64374" lon="5.91819">
        <ele>275</ele>
        <time>2021-09-10T08:36:44.676Z</time>
      </trkpt>
      <trkpt lat="45.64371" lon="5.91818">
        <ele>275</ele>
        <time>2021-09-10T08:36:45.676Z</time>
      </trkpt>
      <trkpt lat="45.64368" lon="5.91818">
        <ele>275</ele>
        <time>2021-09-10T08:36:46.676Z</time>
      </trkpt>
      <trkpt lat="45.64365" lon="5.91819">
        <ele>275</ele>
        <time>2021-09-10T08:36:47.676Z</time>
      </trkpt>
      <trkpt lat="45.64361" lon="5.91818">
        <ele>275</ele>
        <time>2021-09-10T08:36:48.676Z</time>
      </trkpt>
      <trkpt lat="45.64358" lon="5.91818">
        <ele>275</ele>
        <time>2021-09-10T08:36:49.675Z</time>
      </trkpt>
      <trkpt lat="45.64355" lon="5.91818">
        <ele>276</ele>
        <time>2021-09-10T08:36:50.676Z</time>
      </trkpt>
      <trkpt lat="45.64351" lon="5.91817">
        <ele>276</ele>
        <time>2021-09-10T08:36:51.676Z</time>
      </trkpt>
      <trkpt lat="45.64348" lon="5.91817">
        <ele>277</ele>
        <time>2021-09-10T08:36:52.675Z</time>
      </trkpt>
      <trkpt lat="45.64345" lon="5.91817">
        <ele>277</ele>
        <time>2021-09-10T08:36:53.676Z</time>
      </trkpt>
      <trkpt lat="45.64342" lon="5.91817">
        <ele>277</ele>
        <time>2021-09-10T08:36:54.676Z</time>
      </trkpt>
      <trkpt lat="45.64338" lon="5.91817">
        <ele>277</ele>
        <time>2021-09-10T08:36:55.676Z</time>
      </trkpt>
      <trkpt lat="45.64335" lon="5.91817">
        <ele>277</ele>
        <time>2021-09-10T08:36:56.676Z</time>
      </trkpt>
      <trkpt lat="45.64331" lon="5.91817">
        <ele>277</ele>
        <time>2021-09-10T08:36:57.676Z</time>
      </trkpt>
      <trkpt lat="45.64327" lon="5.91817">
        <ele>277</ele>
        <time>2021-09-10T08:36:58.676Z</time>
      </trkpt>
      <trkpt lat="45.64324" lon="5.91816">
        <ele>278</ele>
        <time>2021-09-10T08:36:59.675Z</time>
      </trkpt>
      <trkpt lat="45.6432" lon="5.91816">
        <ele>277</ele>
        <time>2021-09-10T08:37:00.675Z</time>
      </trkpt>
      <trkpt lat="45.64317" lon="5.91816">
        <ele>277</ele>
        <time>2021-09-10T08:37:01.676Z</time>
      </trkpt>
      <trkpt lat="45.64313" lon="5.91816">
        <ele>277</ele>
        <time>2021-09-10T08:37:02.675Z</time>
      </trkpt>
      <trkpt lat="45.6431" lon="5.91816">
        <ele>277</ele>
        <time>2021-09-10T08:37:03.676Z</time>
      </trkpt>
      <trkpt lat="45.64307" lon="5.91816">
        <ele>277</ele>
        <time>2021-09-10T08:37:04.676Z</time>
      </trkpt>
      <trkpt lat="45.64303" lon="5.91816">
        <ele>277</ele>
        <time>2021-09-10T08:37:05.676Z</time>
      </trkpt>
      <trkpt lat="45.643" lon="5.91816">
        <ele>277</ele>
        <time>2021-09-10T08:37:06.675Z</time>
      </trkpt>
      <trkpt lat="45.64297" lon="5.91816">
        <ele>277</ele>
        <time>2021-09-10T08:37:07.676Z</time>
      </trkpt>
      <trkpt lat="45.64294" lon="5.91815">
        <ele>277</ele>
        <time>2021-09-10T08:37:08.675Z</time>
      </trkpt>
      <trkpt lat="45.64291" lon="5.91815">
        <ele>277</ele>
        <time>2021-09-10T08:37:09.676Z</time>
      </trkpt>
      <trkpt lat="45.64289" lon="5.91815">
        <ele>277</ele>
        <time>2021-09-10T08:37:10.676Z</time>
      </trkpt>
      <trkpt lat="45.64288" lon="5.91815">
        <ele>277</ele>
        <time>2021-09-10T08:37:11.676Z</time>
      </trkpt>
      <trkpt lat="45.64287" lon="5.91815">
        <ele>277</ele>
        <time>2021-09-10T08:37:12.676Z</time>
      </trkpt>
      <trkpt lat="45.64286" lon="5.91815">
        <ele>277</ele>
        <time>2021-09-10T08:37:13.676Z</time>
      </trkpt>
      <trkpt lat="45.64286" lon="5.91815">
        <ele>278</ele>
        <time>2021-09-10T08:37:14.676Z</time>
      </trkpt>
      <trkpt lat="45.64285" lon="5.91815">
        <ele>280</ele>
        <time>2021-09-10T08:37:15.676Z</time>
      </trkpt>
      <trkpt lat="45.64284" lon="5.91816">
        <ele>281</ele>
        <time>2021-09-10T08:37:16.676Z</time>
      </trkpt>
      <trkpt lat="45.64283" lon="5.91817">
        <ele>281</ele>
        <time>2021-09-10T08:37:17.675Z</time>
      </trkpt>
      <trkpt lat="45.64281" lon="5.91819">
        <ele>281</ele>
        <time>2021-09-10T08:37:18.675Z</time>
      </trkpt>
      <trkpt lat="45.6428" lon="5.91821">
        <ele>281</ele>
        <time>2021-09-10T08:37:19.676Z</time>
      </trkpt>
      <trkpt lat="45.64278" lon="5.91825">
        <ele>280</ele>
        <time>2021-09-10T08:37:20.675Z</time>
      </trkpt>
      <trkpt lat="45.64277" lon="5.9183">
        <ele>280</ele>
        <time>2021-09-10T08:37:21.676Z</time>
      </trkpt>
      <trkpt lat="45.64276" lon="5.91834">
        <ele>279</ele>
        <time>2021-09-10T08:37:22.676Z</time>
      </trkpt>
      <trkpt lat="45.64276" lon="5.91839">
        <ele>279</ele>
        <time>2021-09-10T08:37:23.676Z</time>
      </trkpt>
      <trkpt lat="45.64276" lon="5.91844">
        <ele>278</ele>
        <time>2021-09-10T08:37:24.676Z</time>
      </trkpt>
      <trkpt lat="45.64276" lon="5.91849">
        <ele>278</ele>
        <time>2021-09-10T08:37:25.676Z</time>
      </trkpt>
      <trkpt lat="45.64276" lon="5.91854">
        <ele>278</ele>
        <time>2021-09-10T08:37:26.676Z</time>
      </trkpt>
      <trkpt lat="45.64276" lon="5.91859">
        <ele>278</ele>
        <time>2021-09-10T08:37:27.676Z</time>
      </trkpt>
      <trkpt lat="45.64276" lon="5.91864">
        <ele>277</ele>
        <time>2021-09-10T08:37:28.675Z</time>
      </trkpt>
      <trkpt lat="45.64276" lon="5.91869">
        <ele>277</ele>
        <time>2021-09-10T08:37:29.676Z</time>
      </trkpt>
      <trkpt lat="45.64276" lon="5.91874">
        <ele>277</ele>
        <time>2021-09-10T08:37:30.675Z</time>
      </trkpt>
      <trkpt lat="45.64276" lon="5.9188">
        <ele>277</ele>
        <time>2021-09-10T08:37:31.676Z</time>
      </trkpt>
      <trkpt lat="45.64276" lon="5.91885">
        <ele>276</ele>
        <time>2021-09-10T08:37:32.676Z</time>
      </trkpt>
      <trkpt lat="45.64276" lon="5.9189">
        <ele>276</ele>
        <time>2021-09-10T08:37:33.675Z</time>
      </trkpt>
      <trkpt lat="45.64277" lon="5.91896">
        <ele>276</ele>
        <time>2021-09-10T08:37:34.676Z</time>
      </trkpt>
      <trkpt lat="45.64277" lon="5.91901">
        <ele>277</ele>
        <time>2021-09-10T08:37:35.676Z</time>
      </trkpt>
      <trkpt lat="45.64277" lon="5.91907">
        <ele>277</ele>
        <time>2021-09-10T08:37:36.676Z</time>
      </trkpt>
      <trkpt lat="45.64277" lon="5.91912">
        <ele>277</ele>
        <time>2021-09-10T08:37:37.676Z</time>
      </trkpt>
      <trkpt lat="45.64277" lon="5.91917">
        <ele>277</ele>
        <time>2021-09-10T08:37:38.675Z</time>
      </trkpt>
      <trkpt lat="45.64276" lon="5.91923">
        <ele>277</ele>
        <time>2021-09-10T08:37:39.676Z</time>
      </trkpt>
      <trkpt lat="45.64276" lon="5.91928">
        <ele>277</ele>
        <time>2021-09-10T08:37:40.675Z</time>
      </trkpt>
      <trkpt lat="45.64277" lon="5.91934">
        <ele>277</ele>
        <time>2021-09-10T08:37:41.676Z</time>
      </trkpt>
      <trkpt lat="45.64277" lon="5.9194">
        <ele>277</ele>
        <time>2021-09-10T08:37:42.676Z</time>
      </trkpt>
      <trkpt lat="45.64277" lon="5.91946">
        <ele>277</ele>
        <time>2021-09-10T08:37:43.676Z</time>
      </trkpt>
      <trkpt lat="45.64277" lon="5.91951">
        <ele>277</ele>
        <time>2021-09-10T08:37:44.676Z</time>
      </trkpt>
      <trkpt lat="45.64277" lon="5.91957">
        <ele>277</ele>
        <time>2021-09-10T08:37:45.676Z</time>
      </trkpt>
      <trkpt lat="45.64278" lon="5.91962">
        <ele>277</ele>
        <time>2021-09-10T08:37:46.675Z</time>
      </trkpt>
      <trkpt lat="45.64278" lon="5.91968">
        <ele>277</ele>
        <time>2021-09-10T08:37:47.676Z</time>
      </trkpt>
      <trkpt lat="45.64278" lon="5.91974">
        <ele>277</ele>
        <time>2021-09-10T08:37:48.676Z</time>
      </trkpt>
      <trkpt lat="45.64278" lon="5.91979">
        <ele>277</ele>
        <time>2021-09-10T08:37:49.676Z</time>
      </trkpt>
      <trkpt lat="45.64279" lon="5.91985">
        <ele>277</ele>
        <time>2021-09-10T08:37:50.676Z</time>
      </trkpt>
      <trkpt lat="45.64279" lon="5.9199">
        <ele>278</ele>
        <time>2021-09-10T08:37:51.676Z</time>
      </trkpt>
      <trkpt lat="45.64279" lon="5.91996">
        <ele>278</ele>
        <time>2021-09-10T08:37:52.676Z</time>
      </trkpt>
      <trkpt lat="45.64279" lon="5.92001">
        <ele>278</ele>
        <time>2021-09-10T08:37:53.675Z</time>
      </trkpt>
      <trkpt lat="45.64279" lon="5.92005">
        <ele>278</ele>
        <time>2021-09-10T08:37:54.676Z</time>
      </trkpt>
      <trkpt lat="45.64279" lon="5.9201">
        <ele>278</ele>
        <time>2021-09-10T08:37:55.676Z</time>
      </trkpt>
      <trkpt lat="45.64279" lon="5.92014">
        <ele>278</ele>
        <time>2021-09-10T08:37:56.676Z</time>
      </trkpt>
      <trkpt lat="45.64279" lon="5.92017">
        <ele>278</ele>
        <time>2021-09-10T08:37:57.676Z</time>
      </trkpt>
      <trkpt lat="45.64279" lon="5.92021">
        <ele>279</ele>
        <time>2021-09-10T08:37:58.676Z</time>
      </trkpt>
      <trkpt lat="45.64279" lon="5.92025">
        <ele>279</ele>
        <time>2021-09-10T08:37:59.676Z</time>
      </trkpt>
      <trkpt lat="45.64285" lon="5.92076">
        <ele>279</ele>
        <time>2021-09-10T08:38:06.675Z</time>
      </trkpt>
      <trkpt lat="45.64284" lon="5.92087">
        <ele>279</ele>
        <time>2021-09-10T08:38:07.676Z</time>
      </trkpt>
      <trkpt lat="45.64282" lon="5.92087">
        <ele>279</ele>
        <time>2021-09-10T08:38:08.676Z</time>
      </trkpt>
      <trkpt lat="45.64281" lon="5.92091">
        <ele>279</ele>
        <time>2021-09-10T08:38:09.676Z</time>
      </trkpt>
      <trkpt lat="45.64283" lon="5.92095">
        <ele>279</ele>
        <time>2021-09-10T08:38:10.676Z</time>
      </trkpt>
      <trkpt lat="45.64282" lon="5.921">
        <ele>279</ele>
        <time>2021-09-10T08:38:11.675Z</time>
      </trkpt>
      <trkpt lat="45.64282" lon="5.92105">
        <ele>279</ele>
        <time>2021-09-10T08:38:12.676Z</time>
      </trkpt>
      <trkpt lat="45.64281" lon="5.92108">
        <ele>279</ele>
        <time>2021-09-10T08:38:13.675Z</time>
      </trkpt>
      <trkpt lat="45.64281" lon="5.92111">
        <ele>279</ele>
        <time>2021-09-10T08:38:14.676Z</time>
      </trkpt>
      <trkpt lat="45.6428" lon="5.92116">
        <ele>279</ele>
        <time>2021-09-10T08:38:15.676Z</time>
      </trkpt>
      <trkpt lat="45.6428" lon="5.9212">
        <ele>279</ele>
        <time>2021-09-10T08:38:16.676Z</time>
      </trkpt>
      <trkpt lat="45.6428" lon="5.92124">
        <ele>279</ele>
        <time>2021-09-10T08:38:17.676Z</time>
      </trkpt>
      <trkpt lat="45.6428" lon="5.92127">
        <ele>279</ele>
        <time>2021-09-10T08:38:18.676Z</time>
      </trkpt>
      <trkpt lat="45.6428" lon="5.9213">
        <ele>279</ele>
        <time>2021-09-10T08:38:19.675Z</time>
      </trkpt>
      <trkpt lat="45.6428" lon="5.92134">
        <ele>280</ele>
        <time>2021-09-10T08:38:20.676Z</time>
      </trkpt>
      <trkpt lat="45.6428" lon="5.92138">
        <ele>280</ele>
        <time>2021-09-10T08:38:21.676Z</time>
      </trkpt>
      <trkpt lat="45.6428" lon="5.92141">
        <ele>280</ele>
        <time>2021-09-10T08:38:22.675Z</time>
      </trkpt>
      <trkpt lat="45.64279" lon="5.92145">
        <ele>280</ele>
        <time>2021-09-10T08:38:23.676Z</time>
      </trkpt>
      <trkpt lat="45.64279" lon="5.92148">
        <ele>280</ele>
        <time>2021-09-10T08:38:24.676Z</time>
      </trkpt>
      <trkpt lat="45.64279" lon="5.92152">
        <ele>281</ele>
        <time>2021-09-10T08:38:25.676Z</time>
      </trkpt>
      <trkpt lat="45.64279" lon="5.92155">
        <ele>281</ele>
        <time>2021-09-10T08:38:26.676Z</time>
      </trkpt>
      <trkpt lat="45.64279" lon="5.92159">
        <ele>281</ele>
        <time>2021-09-10T08:38:27.676Z</time>
      </trkpt>
      <trkpt lat="45.64279" lon="5.92162">
        <ele>281</ele>
        <time>2021-09-10T08:38:28.676Z</time>
      </trkpt>
      <trkpt lat="45.64279" lon="5.92165">
        <ele>282</ele>
        <time>2021-09-10T08:38:29.676Z</time>
      </trkpt>
      <trkpt lat="45.64278" lon="5.92168">
        <ele>281</ele>
        <time>2021-09-10T08:38:30.676Z</time>
      </trkpt>
      <trkpt lat="45.64278" lon="5.92172">
        <ele>281</ele>
        <time>2021-09-10T08:38:31.676Z</time>
      </trkpt>
      <trkpt lat="45.64278" lon="5.92175">
        <ele>281</ele>
        <time>2021-09-10T08:38:32.676Z</time>
      </trkpt>
      <trkpt lat="45.64278" lon="5.92178">
        <ele>281</ele>
        <time>2021-09-10T08:38:33.676Z</time>
      </trkpt>
      <trkpt lat="45.64278" lon="5.92182">
        <ele>281</ele>
        <time>2021-09-10T08:38:34.675Z</time>
      </trkpt>
      <trkpt lat="45.64277" lon="5.92185">
        <ele>281</ele>
        <time>2021-09-10T08:38:35.675Z</time>
      </trkpt>
      <trkpt lat="45.64277" lon="5.92189">
        <ele>281</ele>
        <time>2021-09-10T08:38:36.676Z</time>
      </trkpt>
      <trkpt lat="45.64278" lon="5.92192">
        <ele>282</ele>
        <time>2021-09-10T08:38:37.676Z</time>
      </trkpt>
      <trkpt lat="45.64278" lon="5.92195">
        <ele>282</ele>
        <time>2021-09-10T08:38:38.676Z</time>
      </trkpt>
      <trkpt lat="45.64278" lon="5.92199">
        <ele>283</ele>
        <time>2021-09-10T08:38:39.676Z</time>
      </trkpt>
      <trkpt lat="45.64278" lon="5.92202">
        <ele>284</ele>
        <time>2021-09-10T08:38:40.676Z</time>
      </trkpt>
      <trkpt lat="45.64278" lon="5.92205">
        <ele>284</ele>
        <time>2021-09-10T08:38:41.675Z</time>
      </trkpt>
      <trkpt lat="45.64278" lon="5.92209">
        <ele>285</ele>
        <time>2021-09-10T08:38:42.675Z</time>
      </trkpt>
      <trkpt lat="45.64278" lon="5.92212">
        <ele>285</ele>
        <time>2021-09-10T08:38:43.676Z</time>
      </trkpt>
      <trkpt lat="45.64278" lon="5.92216">
        <ele>285</ele>
        <time>2021-09-10T08:38:44.676Z</time>
      </trkpt>
      <trkpt lat="45.64278" lon="5.92219">
        <ele>286</ele>
        <time>2021-09-10T08:38:45.676Z</time>
      </trkpt>
      <trkpt lat="45.64278" lon="5.92223">
        <ele>286</ele>
        <time>2021-09-10T08:38:46.676Z</time>
      </trkpt>
      <trkpt lat="45.64278" lon="5.92226">
        <ele>287</ele>
        <time>2021-09-10T08:38:47.676Z</time>
      </trkpt>
      <trkpt lat="45.64278" lon="5.92229">
        <ele>287</ele>
        <time>2021-09-10T08:38:48.676Z</time>
      </trkpt>
      <trkpt lat="45.64278" lon="5.92233">
        <ele>287</ele>
        <time>2021-09-10T08:38:49.676Z</time>
      </trkpt>
      <trkpt lat="45.64278" lon="5.92236">
        <ele>287</ele>
        <time>2021-09-10T08:38:50.676Z</time>
      </trkpt>
      <trkpt lat="45.64278" lon="5.9224">
        <ele>287</ele>
        <time>2021-09-10T08:38:51.676Z</time>
      </trkpt>
      <trkpt lat="45.64278" lon="5.92243">
        <ele>288</ele>
        <time>2021-09-10T08:38:52.675Z</time>
      </trkpt>
      <trkpt lat="45.64278" lon="5.92247">
        <ele>288</ele>
        <time>2021-09-10T08:38:53.676Z</time>
      </trkpt>
      <trkpt lat="45.64278" lon="5.9225">
        <ele>288</ele>
        <time>2021-09-10T08:38:54.675Z</time>
      </trkpt>
      <trkpt lat="45.64278" lon="5.92253">
        <ele>288</ele>
        <time>2021-09-10T08:38:55.676Z</time>
      </trkpt>
      <trkpt lat="45.64278" lon="5.92256">
        <ele>288</ele>
        <time>2021-09-10T08:38:56.676Z</time>
      </trkpt>
      <trkpt lat="45.64278" lon="5.9226">
        <ele>287</ele>
        <time>2021-09-10T08:38:57.676Z</time>
      </trkpt>
      <trkpt lat="45.64278" lon="5.92263">
        <ele>287</ele>
        <time>2021-09-10T08:38:58.676Z</time>
      </trkpt>
      <trkpt lat="45.64278" lon="5.92266">
        <ele>287</ele>
        <time>2021-09-10T08:38:59.676Z</time>
      </trkpt>
      <trkpt lat="45.64278" lon="5.92269">
        <ele>287</ele>
        <time>2021-09-10T08:39:00.676Z</time>
      </trkpt>
      <trkpt lat="45.64277" lon="5.92273">
        <ele>286</ele>
        <time>2021-09-10T08:39:01.675Z</time>
      </trkpt>
      <trkpt lat="45.64277" lon="5.92276">
        <ele>287</ele>
        <time>2021-09-10T08:39:02.675Z</time>
      </trkpt>
      <trkpt lat="45.64277" lon="5.92279">
        <ele>287</ele>
        <time>2021-09-10T08:39:03.676Z</time>
      </trkpt>
      <trkpt lat="45.64277" lon="5.92282">
        <ele>287</ele>
        <time>2021-09-10T08:39:04.676Z</time>
      </trkpt>
      <trkpt lat="45.64277" lon="5.92285">
        <ele>287</ele>
        <time>2021-09-10T08:39:05.676Z</time>
      </trkpt>
      <trkpt lat="45.64277" lon="5.92288">
        <ele>287</ele>
        <time>2021-09-10T08:39:06.676Z</time>
      </trkpt>
      <trkpt lat="45.64277" lon="5.92291">
        <ele>287</ele>
        <time>2021-09-10T08:39:07.676Z</time>
      </trkpt>
      <trkpt lat="45.64276" lon="5.92294">
        <ele>286</ele>
        <time>2021-09-10T08:39:08.676Z</time>
      </trkpt>
      <trkpt lat="45.64276" lon="5.92298">
        <ele>286</ele>
        <time>2021-09-10T08:39:09.676Z</time>
      </trkpt>
      <trkpt lat="45.64276" lon="5.92301">
        <ele>286</ele>
        <time>2021-09-10T08:39:10.675Z</time>
      </trkpt>
      <trkpt lat="45.64275" lon="5.92305">
        <ele>286</ele>
        <time>2021-09-10T08:39:11.676Z</time>
      </trkpt>
      <trkpt lat="45.64275" lon="5.92308">
        <ele>286</ele>
        <time>2021-09-10T08:39:12.676Z</time>
      </trkpt>
      <trkpt lat="45.64275" lon="5.92311">
        <ele>286</ele>
        <time>2021-09-10T08:39:13.676Z</time>
      </trkpt>
      <trkpt lat="45.64274" lon="5.92314">
        <ele>286</ele>
        <time>2021-09-10T08:39:14.676Z</time>
      </trkpt>
      <trkpt lat="45.64274" lon="5.92317">
        <ele>286</ele>
        <time>2021-09-10T08:39:15.675Z</time>
      </trkpt>
      <trkpt lat="45.64274" lon="5.92321">
        <ele>286</ele>
        <time>2021-09-10T08:39:16.676Z</time>
      </trkpt>
      <trkpt lat="45.64273" lon="5.92324">
        <ele>287</ele>
        <time>2021-09-10T08:39:17.675Z</time>
      </trkpt>
      <trkpt lat="45.64273" lon="5.92327">
        <ele>287</ele>
        <time>2021-09-10T08:39:18.676Z</time>
      </trkpt>
      <trkpt lat="45.64272" lon="5.9233">
        <ele>287</ele>
        <time>2021-09-10T08:39:19.676Z</time>
      </trkpt>
      <trkpt lat="45.64272" lon="5.92333">
        <ele>288</ele>
        <time>2021-09-10T08:39:20.676Z</time>
      </trkpt>
      <trkpt lat="45.64272" lon="5.92337">
        <ele>288</ele>
        <time>2021-09-10T08:39:21.675Z</time>
      </trkpt>
      <trkpt lat="45.64271" lon="5.9234">
        <ele>288</ele>
        <time>2021-09-10T08:39:22.676Z</time>
      </trkpt>
      <trkpt lat="45.64271" lon="5.92343">
        <ele>288</ele>
        <time>2021-09-10T08:39:23.675Z</time>
      </trkpt>
      <trkpt lat="45.6427" lon="5.92346">
        <ele>288</ele>
        <time>2021-09-10T08:39:24.676Z</time>
      </trkpt>
      <trkpt lat="45.6427" lon="5.92349">
        <ele>288</ele>
        <time>2021-09-10T08:39:25.675Z</time>
      </trkpt>
      <trkpt lat="45.64269" lon="5.92352">
        <ele>289</ele>
        <time>2021-09-10T08:39:26.676Z</time>
      </trkpt>
      <trkpt lat="45.64268" lon="5.92355">
        <ele>289</ele>
        <time>2021-09-10T08:39:27.676Z</time>
      </trkpt>
      <trkpt lat="45.64267" lon="5.92359">
        <ele>288</ele>
        <time>2021-09-10T08:39:28.676Z</time>
      </trkpt>
      <trkpt lat="45.64266" lon="5.92362">
        <ele>289</ele>
        <time>2021-09-10T08:39:29.675Z</time>
      </trkpt>
      <trkpt lat="45.64266" lon="5.92366">
        <ele>289</ele>
        <time>2021-09-10T08:39:30.675Z</time>
      </trkpt>
      <trkpt lat="45.64265" lon="5.92369">
        <ele>290</ele>
        <time>2021-09-10T08:39:31.676Z</time>
      </trkpt>
      <trkpt lat="45.64264" lon="5.92373">
        <ele>290</ele>
        <time>2021-09-10T08:39:32.675Z</time>
      </trkpt>
      <trkpt lat="45.64264" lon="5.92376">
        <ele>290</ele>
        <time>2021-09-10T08:39:33.676Z</time>
      </trkpt>
      <trkpt lat="45.64263" lon="5.92379">
        <ele>290</ele>
        <time>2021-09-10T08:39:34.676Z</time>
      </trkpt>
      <trkpt lat="45.64262" lon="5.92382">
        <ele>290</ele>
        <time>2021-09-10T08:39:35.676Z</time>
      </trkpt>
      <trkpt lat="45.64261" lon="5.92385">
        <ele>290</ele>
        <time>2021-09-10T08:39:36.676Z</time>
      </trkpt>
      <trkpt lat="45.6426" lon="5.92388">
        <ele>290</ele>
        <time>2021-09-10T08:39:37.675Z</time>
      </trkpt>
      <trkpt lat="45.64259" lon="5.92391">
        <ele>290</ele>
        <time>2021-09-10T08:39:38.675Z</time>
      </trkpt>
      <trkpt lat="45.64257" lon="5.92394">
        <ele>290</ele>
        <time>2021-09-10T08:39:39.676Z</time>
      </trkpt>
      <trkpt lat="45.64256" lon="5.92397">
        <ele>290</ele>
        <time>2021-09-10T08:39:40.676Z</time>
      </trkpt>
      <trkpt lat="45.64254" lon="5.92399">
        <ele>290</ele>
        <time>2021-09-10T08:39:41.676Z</time>
      </trkpt>
      <trkpt lat="45.64252" lon="5.92401">
        <ele>290</ele>
        <time>2021-09-10T08:39:42.676Z</time>
      </trkpt>
      <trkpt lat="45.6425" lon="5.92404">
        <ele>291</ele>
        <time>2021-09-10T08:39:43.675Z</time>
      </trkpt>
      <trkpt lat="45.64249" lon="5.92406">
        <ele>291</ele>
        <time>2021-09-10T08:39:44.676Z</time>
      </trkpt>
      <trkpt lat="45.64247" lon="5.92409">
        <ele>292</ele>
        <time>2021-09-10T08:39:45.676Z</time>
      </trkpt>
      <trkpt lat="45.64246" lon="5.92412">
        <ele>292</ele>
        <time>2021-09-10T08:39:46.676Z</time>
      </trkpt>
      <trkpt lat="45.64245" lon="5.92416">
        <ele>292</ele>
        <time>2021-09-10T08:39:47.676Z</time>
      </trkpt>
      <trkpt lat="45.64245" lon="5.92419">
        <ele>293</ele>
        <time>2021-09-10T08:39:48.676Z</time>
      </trkpt>
      <trkpt lat="45.64245" lon="5.92422">
        <ele>293</ele>
        <time>2021-09-10T08:39:49.676Z</time>
      </trkpt>
      <trkpt lat="45.64246" lon="5.92426">
        <ele>293</ele>
        <time>2021-09-10T08:39:50.676Z</time>
      </trkpt>
      <trkpt lat="45.64247" lon="5.92429">
        <ele>294</ele>
        <time>2021-09-10T08:39:51.676Z</time>
      </trkpt>
      <trkpt lat="45.64248" lon="5.92432">
        <ele>294</ele>
        <time>2021-09-10T08:39:52.676Z</time>
      </trkpt>
      <trkpt lat="45.6425" lon="5.92435">
        <ele>295</ele>
        <time>2021-09-10T08:39:53.675Z</time>
      </trkpt>
      <trkpt lat="45.64252" lon="5.92438">
        <ele>295</ele>
        <time>2021-09-10T08:39:54.676Z</time>
      </trkpt>
      <trkpt lat="45.64253" lon="5.92441">
        <ele>295</ele>
        <time>2021-09-10T08:39:55.676Z</time>
      </trkpt>
      <trkpt lat="45.64255" lon="5.92444">
        <ele>295</ele>
        <time>2021-09-10T08:39:56.676Z</time>
      </trkpt>
      <trkpt lat="45.64256" lon="5.92447">
        <ele>296</ele>
        <time>2021-09-10T08:39:57.676Z</time>
      </trkpt>
      <trkpt lat="45.64257" lon="5.92451">
        <ele>296</ele>
        <time>2021-09-10T08:39:58.676Z</time>
      </trkpt>
      <trkpt lat="45.64259" lon="5.92454">
        <ele>296</ele>
        <time>2021-09-10T08:39:59.676Z</time>
      </trkpt>
      <trkpt lat="45.6426" lon="5.92458">
        <ele>297</ele>
        <time>2021-09-10T08:40:00.676Z</time>
      </trkpt>
      <trkpt lat="45.64261" lon="5.92461">
        <ele>297</ele>
        <time>2021-09-10T08:40:01.676Z</time>
      </trkpt>
      <trkpt lat="45.64261" lon="5.92465">
        <ele>297</ele>
        <time>2021-09-10T08:40:02.676Z</time>
      </trkpt>
      <trkpt lat="45.64262" lon="5.92468">
        <ele>298</ele>
        <time>2021-09-10T08:40:03.676Z</time>
      </trkpt>
      <trkpt lat="45.64262" lon="5.92472">
        <ele>298</ele>
        <time>2021-09-10T08:40:04.676Z</time>
      </trkpt>
      <trkpt lat="45.64263" lon="5.92475">
        <ele>298</ele>
        <time>2021-09-10T08:40:05.676Z</time>
      </trkpt>
      <trkpt lat="45.64264" lon="5.92478">
        <ele>298</ele>
        <time>2021-09-10T08:40:06.675Z</time>
      </trkpt>
      <trkpt lat="45.64264" lon="5.92482">
        <ele>298</ele>
        <time>2021-09-10T08:40:07.676Z</time>
      </trkpt>
      <trkpt lat="45.64264" lon="5.92485">
        <ele>299</ele>
        <time>2021-09-10T08:40:08.676Z</time>
      </trkpt>
      <trkpt lat="45.64265" lon="5.92489">
        <ele>299</ele>
        <time>2021-09-10T08:40:09.675Z</time>
      </trkpt>
      <trkpt lat="45.64265" lon="5.92492">
        <ele>299</ele>
        <time>2021-09-10T08:40:10.676Z</time>
      </trkpt>
      <trkpt lat="45.64266" lon="5.92496">
        <ele>300</ele>
        <time>2021-09-10T08:40:11.676Z</time>
      </trkpt>
      <trkpt lat="45.64266" lon="5.925">
        <ele>300</ele>
        <time>2021-09-10T08:40:12.676Z</time>
      </trkpt>
      <trkpt lat="45.64267" lon="5.92503">
        <ele>300</ele>
        <time>2021-09-10T08:40:13.676Z</time>
      </trkpt>
      <trkpt lat="45.64267" lon="5.92506">
        <ele>300</ele>
        <time>2021-09-10T08:40:14.676Z</time>
      </trkpt>
      <trkpt lat="45.64268" lon="5.9251">
        <ele>300</ele>
        <time>2021-09-10T08:40:15.675Z</time>
      </trkpt>
      <trkpt lat="45.64268" lon="5.92513">
        <ele>300</ele>
        <time>2021-09-10T08:40:16.676Z</time>
      </trkpt>
      <trkpt lat="45.64269" lon="5.92517">
        <ele>300</ele>
        <time>2021-09-10T08:40:17.676Z</time>
      </trkpt>
      <trkpt lat="45.64269" lon="5.9252">
        <ele>300</ele>
        <time>2021-09-10T08:40:18.676Z</time>
      </trkpt>
      <trkpt lat="45.6427" lon="5.92523">
        <ele>300</ele>
        <time>2021-09-10T08:40:19.675Z</time>
      </trkpt>
      <trkpt lat="45.6427" lon="5.92527">
        <ele>300</ele>
        <time>2021-09-10T08:40:20.676Z</time>
      </trkpt>
      <trkpt lat="45.6427" lon="5.9253">
        <ele>300</ele>
        <time>2021-09-10T08:40:21.676Z</time>
      </trkpt>
      <trkpt lat="45.64271" lon="5.92534">
        <ele>300</ele>
        <time>2021-09-10T08:40:22.675Z</time>
      </trkpt>
      <trkpt lat="45.64271" lon="5.92537">
        <ele>300</ele>
        <time>2021-09-10T08:40:23.676Z</time>
      </trkpt>
      <trkpt lat="45.64272" lon="5.92541">
        <ele>301</ele>
        <time>2021-09-10T08:40:24.676Z</time>
      </trkpt>
      <trkpt lat="45.64272" lon="5.92544">
        <ele>301</ele>
        <time>2021-09-10T08:40:25.675Z</time>
      </trkpt>
      <trkpt lat="45.64272" lon="5.92547">
        <ele>300</ele>
        <time>2021-09-10T08:40:26.675Z</time>
      </trkpt>
      <trkpt lat="45.64273" lon="5.92551">
        <ele>300</ele>
        <time>2021-09-10T08:40:27.676Z</time>
      </trkpt>
      <trkpt lat="45.64273" lon="5.92554">
        <ele>300</ele>
        <time>2021-09-10T08:40:28.676Z</time>
      </trkpt>
      <trkpt lat="45.64273" lon="5.92558">
        <ele>300</ele>
        <time>2021-09-10T08:40:29.676Z</time>
      </trkpt>
      <trkpt lat="45.64273" lon="5.92561">
        <ele>300</ele>
        <time>2021-09-10T08:40:30.676Z</time>
      </trkpt>
      <trkpt lat="45.64273" lon="5.92565">
        <ele>300</ele>
        <time>2021-09-10T08:40:31.675Z</time>
      </trkpt>
      <trkpt lat="45.64274" lon="5.92568">
        <ele>300</ele>
        <time>2021-09-10T08:40:32.676Z</time>
      </trkpt>
      <trkpt lat="45.64274" lon="5.92571">
        <ele>300</ele>
        <time>2021-09-10T08:40:33.676Z</time>
      </trkpt>
      <trkpt lat="45.64274" lon="5.92575">
        <ele>300</ele>
        <time>2021-09-10T08:40:34.675Z</time>
      </trkpt>
      <trkpt lat="45.64274" lon="5.92579">
        <ele>300</ele>
        <time>2021-09-10T08:40:35.676Z</time>
      </trkpt>
      <trkpt lat="45.64275" lon="5.92582">
        <ele>300</ele>
        <time>2021-09-10T08:40:36.676Z</time>
      </trkpt>
      <trkpt lat="45.64275" lon="5.92586">
        <ele>300</ele>
        <time>2021-09-10T08:40:37.676Z</time>
      </trkpt>
      <trkpt lat="45.64275" lon="5.92589">
        <ele>300</ele>
        <time>2021-09-10T08:40:38.676Z</time>
      </trkpt>
      <trkpt lat="45.64275" lon="5.92593">
        <ele>300</ele>
        <time>2021-09-10T08:40:39.676Z</time>
      </trkpt>
      <trkpt lat="45.64275" lon="5.92596">
        <ele>300</ele>
        <time>2021-09-10T08:40:40.675Z</time>
      </trkpt>
      <trkpt lat="45.64275" lon="5.926">
        <ele>300</ele>
        <time>2021-09-10T08:40:41.676Z</time>
      </trkpt>
      <trkpt lat="45.64275" lon="5.92603">
        <ele>300</ele>
        <time>2021-09-10T08:40:42.676Z</time>
      </trkpt>
      <trkpt lat="45.64275" lon="5.92607">
        <ele>301</ele>
        <time>2021-09-10T08:40:43.676Z</time>
      </trkpt>
      <trkpt lat="45.64275" lon="5.9261">
        <ele>301</ele>
        <time>2021-09-10T08:40:44.676Z</time>
      </trkpt>
      <trkpt lat="45.64274" lon="5.92614">
        <ele>301</ele>
        <time>2021-09-10T08:40:45.676Z</time>
      </trkpt>
      <trkpt lat="45.64274" lon="5.92617">
        <ele>301</ele>
        <time>2021-09-10T08:40:46.676Z</time>
      </trkpt>
      <trkpt lat="45.64274" lon="5.92621">
        <ele>302</ele>
        <time>2021-09-10T08:40:47.676Z</time>
      </trkpt>
      <trkpt lat="45.64274" lon="5.92625">
        <ele>302</ele>
        <time>2021-09-10T08:40:48.676Z</time>
      </trkpt>
      <trkpt lat="45.64274" lon="5.92628">
        <ele>302</ele>
        <time>2021-09-10T08:40:49.676Z</time>
      </trkpt>
      <trkpt lat="45.64274" lon="5.92632">
        <ele>302</ele>
        <time>2021-09-10T08:40:50.675Z</time>
      </trkpt>
      <trkpt lat="45.64274" lon="5.92635">
        <ele>302</ele>
        <time>2021-09-10T08:40:51.675Z</time>
      </trkpt>
      <trkpt lat="45.64274" lon="5.92639">
        <ele>302</ele>
        <time>2021-09-10T08:40:52.676Z</time>
      </trkpt>
      <trkpt lat="45.64274" lon="5.92642">
        <ele>302</ele>
        <time>2021-09-10T08:40:53.675Z</time>
      </trkpt>
      <trkpt lat="45.64274" lon="5.92646">
        <ele>303</ele>
        <time>2021-09-10T08:40:54.676Z</time>
      </trkpt>
      <trkpt lat="45.64273" lon="5.9265">
        <ele>304</ele>
        <time>2021-09-10T08:40:55.675Z</time>
      </trkpt>
      <trkpt lat="45.64273" lon="5.92653">
        <ele>303</ele>
        <time>2021-09-10T08:40:56.676Z</time>
      </trkpt>
      <trkpt lat="45.64273" lon="5.92656">
        <ele>303</ele>
        <time>2021-09-10T08:40:57.676Z</time>
      </trkpt>
      <trkpt lat="45.64273" lon="5.9266">
        <ele>303</ele>
        <time>2021-09-10T08:40:58.675Z</time>
      </trkpt>
      <trkpt lat="45.64273" lon="5.92664">
        <ele>304</ele>
        <time>2021-09-10T08:40:59.676Z</time>
      </trkpt>
      <trkpt lat="45.64273" lon="5.92667">
        <ele>304</ele>
        <time>2021-09-10T08:41:00.676Z</time>
      </trkpt>
      <trkpt lat="45.64273" lon="5.92671">
        <ele>304</ele>
        <time>2021-09-10T08:41:01.675Z</time>
      </trkpt>
      <trkpt lat="45.64273" lon="5.92674">
        <ele>305</ele>
        <time>2021-09-10T08:41:02.676Z</time>
      </trkpt>
      <trkpt lat="45.64273" lon="5.92678">
        <ele>305</ele>
        <time>2021-09-10T08:41:03.676Z</time>
      </trkpt>
      <trkpt lat="45.64273" lon="5.92681">
        <ele>306</ele>
        <time>2021-09-10T08:41:04.676Z</time>
      </trkpt>
      <trkpt lat="45.64272" lon="5.92684">
        <ele>306</ele>
        <time>2021-09-10T08:41:05.676Z</time>
      </trkpt>
      <trkpt lat="45.64272" lon="5.92688">
        <ele>307</ele>
        <time>2021-09-10T08:41:06.676Z</time>
      </trkpt>
      <trkpt lat="45.64272" lon="5.92692">
        <ele>307</ele>
        <time>2021-09-10T08:41:07.676Z</time>
      </trkpt>
      <trkpt lat="45.64272" lon="5.92695">
        <ele>307</ele>
        <time>2021-09-10T08:41:08.676Z</time>
      </trkpt>
      <trkpt lat="45.64271" lon="5.92698">
        <ele>308</ele>
        <time>2021-09-10T08:41:09.675Z</time>
      </trkpt>
      <trkpt lat="45.64271" lon="5.92702">
        <ele>307</ele>
        <time>2021-09-10T08:41:10.676Z</time>
      </trkpt>
      <trkpt lat="45.64271" lon="5.92705">
        <ele>307</ele>
        <time>2021-09-10T08:41:11.676Z</time>
      </trkpt>
      <trkpt lat="45.64271" lon="5.92708">
        <ele>306</ele>
        <time>2021-09-10T08:41:12.676Z</time>
      </trkpt>
      <trkpt lat="45.64271" lon="5.92712">
        <ele>306</ele>
        <time>2021-09-10T08:41:13.676Z</time>
      </trkpt>
      <trkpt lat="45.64271" lon="5.92715">
        <ele>306</ele>
        <time>2021-09-10T08:41:14.676Z</time>
      </trkpt>
      <trkpt lat="45.6427" lon="5.92718">
        <ele>306</ele>
        <time>2021-09-10T08:41:15.676Z</time>
      </trkpt>
      <trkpt lat="45.6427" lon="5.92722">
        <ele>306</ele>
        <time>2021-09-10T08:41:16.676Z</time>
      </trkpt>
      <trkpt lat="45.6427" lon="5.92725">
        <ele>306</ele>
        <time>2021-09-10T08:41:17.675Z</time>
      </trkpt>
      <trkpt lat="45.6427" lon="5.92729">
        <ele>306</ele>
        <time>2021-09-10T08:41:18.676Z</time>
      </trkpt>
      <trkpt lat="45.64269" lon="5.92732">
        <ele>306</ele>
        <time>2021-09-10T08:41:19.675Z</time>
      </trkpt>
      <trkpt lat="45.64269" lon="5.92735">
        <ele>307</ele>
        <time>2021-09-10T08:41:20.675Z</time>
      </trkpt>
      <trkpt lat="45.64269" lon="5.92739">
        <ele>307</ele>
        <time>2021-09-10T08:41:21.676Z</time>
      </trkpt>
      <trkpt lat="45.64269" lon="5.92742">
        <ele>307</ele>
        <time>2021-09-10T08:41:22.675Z</time>
      </trkpt>
      <trkpt lat="45.64268" lon="5.92745">
        <ele>307</ele>
        <time>2021-09-10T08:41:23.675Z</time>
      </trkpt>
      <trkpt lat="45.64268" lon="5.92748">
        <ele>307</ele>
        <time>2021-09-10T08:41:24.675Z</time>
      </trkpt>
      <trkpt lat="45.64268" lon="5.92752">
        <ele>307</ele>
        <time>2021-09-10T08:41:25.676Z</time>
      </trkpt>
      <trkpt lat="45.64267" lon="5.92755">
        <ele>308</ele>
        <time>2021-09-10T08:41:26.675Z</time>
      </trkpt>
      <trkpt lat="45.64267" lon="5.92758">
        <ele>309</ele>
        <time>2021-09-10T08:41:27.676Z</time>
      </trkpt>
      <trkpt lat="45.64267" lon="5.92762">
        <ele>309</ele>
        <time>2021-09-10T08:41:28.675Z</time>
      </trkpt>
      <trkpt lat="45.64267" lon="5.92766">
        <ele>310</ele>
        <time>2021-09-10T08:41:29.676Z</time>
      </trkpt>
      <trkpt lat="45.64267" lon="5.92769">
        <ele>310</ele>
        <time>2021-09-10T08:41:30.675Z</time>
      </trkpt>
      <trkpt lat="45.64266" lon="5.92772">
        <ele>310</ele>
        <time>2021-09-10T08:41:31.676Z</time>
      </trkpt>
      <trkpt lat="45.64266" lon="5.92775">
        <ele>310</ele>
        <time>2021-09-10T08:41:32.676Z</time>
      </trkpt>
      <trkpt lat="45.64266" lon="5.92779">
        <ele>311</ele>
        <time>2021-09-10T08:41:33.676Z</time>
      </trkpt>
      <trkpt lat="45.64265" lon="5.92782">
        <ele>311</ele>
        <time>2021-09-10T08:41:34.676Z</time>
      </trkpt>
      <trkpt lat="45.64265" lon="5.92785">
        <ele>311</ele>
        <time>2021-09-10T08:41:35.676Z</time>
      </trkpt>
      <trkpt lat="45.64265" lon="5.92789">
        <ele>311</ele>
        <time>2021-09-10T08:41:36.676Z</time>
      </trkpt>
      <trkpt lat="45.64265" lon="5.92792">
        <ele>311</ele>
        <time>2021-09-10T08:41:37.676Z</time>
      </trkpt>
      <trkpt lat="45.64265" lon="5.92795">
        <ele>312</ele>
        <time>2021-09-10T08:41:38.676Z</time>
      </trkpt>
      <trkpt lat="45.64264" lon="5.92798">
        <ele>313</ele>
        <time>2021-09-10T08:41:39.676Z</time>
      </trkpt>
      <trkpt lat="45.64264" lon="5.92802">
        <ele>313</ele>
        <time>2021-09-10T08:41:40.676Z</time>
      </trkpt>
      <trkpt lat="45.64264" lon="5.92805">
        <ele>313</ele>
        <time>2021-09-10T08:41:41.676Z</time>
      </trkpt>
      <trkpt lat="45.64264" lon="5.92808">
        <ele>313</ele>
        <time>2021-09-10T08:41:42.676Z</time>
      </trkpt>
      <trkpt lat="45.64263" lon="5.92811">
        <ele>313</ele>
        <time>2021-09-10T08:41:43.676Z</time>
      </trkpt>
      <trkpt lat="45.64263" lon="5.92814">
        <ele>312</ele>
        <time>2021-09-10T08:41:44.676Z</time>
      </trkpt>
      <trkpt lat="45.64262" lon="5.92817">
        <ele>312</ele>
        <time>2021-09-10T08:41:45.676Z</time>
      </trkpt>
      <trkpt lat="45.64262" lon="5.92821">
        <ele>311</ele>
        <time>2021-09-10T08:41:46.676Z</time>
      </trkpt>
      <trkpt lat="45.64262" lon="5.92824">
        <ele>311</ele>
        <time>2021-09-10T08:41:47.676Z</time>
      </trkpt>
      <trkpt lat="45.64261" lon="5.92827">
        <ele>311</ele>
        <time>2021-09-10T08:41:48.676Z</time>
      </trkpt>
      <trkpt lat="45.64261" lon="5.92831">
        <ele>311</ele>
        <time>2021-09-10T08:41:49.676Z</time>
      </trkpt>
      <trkpt lat="45.64261" lon="5.92834">
        <ele>311</ele>
        <time>2021-09-10T08:41:50.676Z</time>
      </trkpt>
      <trkpt lat="45.6426" lon="5.92838">
        <ele>311</ele>
        <time>2021-09-10T08:41:51.676Z</time>
      </trkpt>
      <trkpt lat="45.6426" lon="5.92841">
        <ele>310</ele>
        <time>2021-09-10T08:41:52.676Z</time>
      </trkpt>
      <trkpt lat="45.6426" lon="5.92845">
        <ele>310</ele>
        <time>2021-09-10T08:41:53.676Z</time>
      </trkpt>
      <trkpt lat="45.6426" lon="5.92849">
        <ele>310</ele>
        <time>2021-09-10T08:41:54.676Z</time>
      </trkpt>
      <trkpt lat="45.6426" lon="5.92852">
        <ele>310</ele>
        <time>2021-09-10T08:41:55.676Z</time>
      </trkpt>
      <trkpt lat="45.6426" lon="5.92856">
        <ele>310</ele>
        <time>2021-09-10T08:41:56.676Z</time>
      </trkpt>
      <trkpt lat="45.64259" lon="5.9286">
        <ele>310</ele>
        <time>2021-09-10T08:41:57.675Z</time>
      </trkpt>
      <trkpt lat="45.64259" lon="5.92863">
        <ele>311</ele>
        <time>2021-09-10T08:41:58.676Z</time>
      </trkpt>
      <trkpt lat="45.64259" lon="5.92867">
        <ele>311</ele>
        <time>2021-09-10T08:41:59.676Z</time>
      </trkpt>
      <trkpt lat="45.64259" lon="5.9287">
        <ele>311</ele>
        <time>2021-09-10T08:42:00.676Z</time>
      </trkpt>
      <trkpt lat="45.64259" lon="5.92874">
        <ele>311</ele>
        <time>2021-09-10T08:42:01.676Z</time>
      </trkpt>
      <trkpt lat="45.64259" lon="5.92878">
        <ele>311</ele>
        <time>2021-09-10T08:42:02.676Z</time>
      </trkpt>
      <trkpt lat="45.64259" lon="5.92881">
        <ele>311</ele>
        <time>2021-09-10T08:42:03.676Z</time>
      </trkpt>
      <trkpt lat="45.64259" lon="5.92885">
        <ele>311</ele>
        <time>2021-09-10T08:42:04.676Z</time>
      </trkpt>
      <trkpt lat="45.64259" lon="5.92888">
        <ele>311</ele>
        <time>2021-09-10T08:42:05.676Z</time>
      </trkpt>
      <trkpt lat="45.6426" lon="5.92892">
        <ele>312</ele>
        <time>2021-09-10T08:42:06.675Z</time>
      </trkpt>
      <trkpt lat="45.6426" lon="5.92896">
        <ele>312</ele>
        <time>2021-09-10T08:42:07.676Z</time>
      </trkpt>
      <trkpt lat="45.6426" lon="5.929">
        <ele>312</ele>
        <time>2021-09-10T08:42:08.675Z</time>
      </trkpt>
      <trkpt lat="45.6426" lon="5.92903">
        <ele>313</ele>
        <time>2021-09-10T08:42:09.675Z</time>
      </trkpt>
      <trkpt lat="45.6426" lon="5.92907">
        <ele>314</ele>
        <time>2021-09-10T08:42:10.676Z</time>
      </trkpt>
      <trkpt lat="45.6426" lon="5.9291">
        <ele>315</ele>
        <time>2021-09-10T08:42:11.676Z</time>
      </trkpt>
      <trkpt lat="45.6426" lon="5.92913">
        <ele>315</ele>
        <time>2021-09-10T08:42:12.675Z</time>
      </trkpt>
      <trkpt lat="45.6426" lon="5.92917">
        <ele>315</ele>
        <time>2021-09-10T08:42:13.675Z</time>
      </trkpt>
      <trkpt lat="45.6426" lon="5.9292">
        <ele>315</ele>
        <time>2021-09-10T08:42:14.676Z</time>
      </trkpt>
      <trkpt lat="45.6426" lon="5.92923">
        <ele>315</ele>
        <time>2021-09-10T08:42:15.676Z</time>
      </trkpt>
      <trkpt lat="45.6426" lon="5.92926">
        <ele>315</ele>
        <time>2021-09-10T08:42:16.676Z</time>
      </trkpt>
      <trkpt lat="45.6426" lon="5.9293">
        <ele>315</ele>
        <time>2021-09-10T08:42:17.676Z</time>
      </trkpt>
      <trkpt lat="45.6426" lon="5.92933">
        <ele>315</ele>
        <time>2021-09-10T08:42:18.676Z</time>
      </trkpt>
      <trkpt lat="45.6426" lon="5.92936">
        <ele>316</ele>
        <time>2021-09-10T08:42:19.675Z</time>
      </trkpt>
      <trkpt lat="45.6426" lon="5.9294">
        <ele>316</ele>
        <time>2021-09-10T08:42:20.676Z</time>
      </trkpt>
      <trkpt lat="45.6426" lon="5.92943">
        <ele>316</ele>
        <time>2021-09-10T08:42:21.676Z</time>
      </trkpt>
      <trkpt lat="45.64261" lon="5.92946">
        <ele>316</ele>
        <time>2021-09-10T08:42:22.676Z</time>
      </trkpt>
      <trkpt lat="45.64261" lon="5.92949">
        <ele>316</ele>
        <time>2021-09-10T08:42:23.675Z</time>
      </trkpt>
      <trkpt lat="45.64261" lon="5.92952">
        <ele>315</ele>
        <time>2021-09-10T08:42:24.676Z</time>
      </trkpt>
      <trkpt lat="45.64261" lon="5.92955">
        <ele>315</ele>
        <time>2021-09-10T08:42:25.676Z</time>
      </trkpt>
      <trkpt lat="45.64261" lon="5.92958">
        <ele>315</ele>
        <time>2021-09-10T08:42:26.676Z</time>
      </trkpt>
      <trkpt lat="45.64261" lon="5.92961">
        <ele>315</ele>
        <time>2021-09-10T08:42:27.675Z</time>
      </trkpt>
      <trkpt lat="45.64261" lon="5.92964">
        <ele>314</ele>
        <time>2021-09-10T08:42:28.676Z</time>
      </trkpt>
      <trkpt lat="45.64262" lon="5.92967">
        <ele>314</ele>
        <time>2021-09-10T08:42:29.676Z</time>
      </trkpt>
      <trkpt lat="45.64262" lon="5.9297">
        <ele>314</ele>
        <time>2021-09-10T08:42:30.675Z</time>
      </trkpt>
      <trkpt lat="45.64262" lon="5.92973">
        <ele>314</ele>
        <time>2021-09-10T08:42:31.676Z</time>
      </trkpt>
      <trkpt lat="45.64263" lon="5.92976">
        <ele>314</ele>
        <time>2021-09-10T08:42:32.676Z</time>
      </trkpt>
      <trkpt lat="45.64263" lon="5.92979">
        <ele>315</ele>
        <time>2021-09-10T08:42:33.676Z</time>
      </trkpt>
      <trkpt lat="45.64264" lon="5.92982">
        <ele>315</ele>
        <time>2021-09-10T08:42:34.676Z</time>
      </trkpt>
      <trkpt lat="45.64264" lon="5.92985">
        <ele>316</ele>
        <time>2021-09-10T08:42:35.676Z</time>
      </trkpt>
      <trkpt lat="45.64264" lon="5.92989">
        <ele>317</ele>
        <time>2021-09-10T08:42:36.676Z</time>
      </trkpt>
      <trkpt lat="45.64265" lon="5.92991">
        <ele>317</ele>
        <time>2021-09-10T08:42:37.676Z</time>
      </trkpt>
      <trkpt lat="45.64265" lon="5.92994">
        <ele>317</ele>
        <time>2021-09-10T08:42:38.676Z</time>
      </trkpt>
      <trkpt lat="45.64265" lon="5.92997">
        <ele>317</ele>
        <time>2021-09-10T08:42:39.676Z</time>
      </trkpt>
      <trkpt lat="45.64266" lon="5.93">
        <ele>317</ele>
        <time>2021-09-10T08:42:40.676Z</time>
      </trkpt>
      <trkpt lat="45.64266" lon="5.93003">
        <ele>317</ele>
        <time>2021-09-10T08:42:41.676Z</time>
      </trkpt>
      <trkpt lat="45.64266" lon="5.93007">
        <ele>317</ele>
        <time>2021-09-10T08:42:42.676Z</time>
      </trkpt>
      <trkpt lat="45.64266" lon="5.93009">
        <ele>317</ele>
        <time>2021-09-10T08:42:43.676Z</time>
      </trkpt>
      <trkpt lat="45.64266" lon="5.93013">
        <ele>317</ele>
        <time>2021-09-10T08:42:44.676Z</time>
      </trkpt>
      <trkpt lat="45.64266" lon="5.93016">
        <ele>317</ele>
        <time>2021-09-10T08:42:45.676Z</time>
      </trkpt>
      <trkpt lat="45.64267" lon="5.93018">
        <ele>317</ele>
        <time>2021-09-10T08:42:46.676Z</time>
      </trkpt>
      <trkpt lat="45.64267" lon="5.93021">
        <ele>317</ele>
        <time>2021-09-10T08:42:47.676Z</time>
      </trkpt>
      <trkpt lat="45.64267" lon="5.93024">
        <ele>317</ele>
        <time>2021-09-10T08:42:48.675Z</time>
      </trkpt>
      <trkpt lat="45.64267" lon="5.93028">
        <ele>317</ele>
        <time>2021-09-10T08:42:49.676Z</time>
      </trkpt>
      <trkpt lat="45.64267" lon="5.93031">
        <ele>317</ele>
        <time>2021-09-10T08:42:50.675Z</time>
      </trkpt>
      <trkpt lat="45.64267" lon="5.93034">
        <ele>318</ele>
        <time>2021-09-10T08:42:51.675Z</time>
      </trkpt>
      <trkpt lat="45.64267" lon="5.93037">
        <ele>318</ele>
        <time>2021-09-10T08:42:52.676Z</time>
      </trkpt>
      <trkpt lat="45.64268" lon="5.9304">
        <ele>319</ele>
        <time>2021-09-10T08:42:53.676Z</time>
      </trkpt>
      <trkpt lat="45.64267" lon="5.93044">
        <ele>319</ele>
        <time>2021-09-10T08:42:54.675Z</time>
      </trkpt>
      <trkpt lat="45.64268" lon="5.93047">
        <ele>320</ele>
        <time>2021-09-10T08:42:55.675Z</time>
      </trkpt>
      <trkpt lat="45.64268" lon="5.9305">
        <ele>320</ele>
        <time>2021-09-10T08:42:56.675Z</time>
      </trkpt>
      <trkpt lat="45.64268" lon="5.93053">
        <ele>321</ele>
        <time>2021-09-10T08:42:57.676Z</time>
      </trkpt>
      <trkpt lat="45.64268" lon="5.93056">
        <ele>321</ele>
        <time>2021-09-10T08:42:58.676Z</time>
      </trkpt>
      <trkpt lat="45.64268" lon="5.93059">
        <ele>322</ele>
        <time>2021-09-10T08:42:59.676Z</time>
      </trkpt>
      <trkpt lat="45.64268" lon="5.93062">
        <ele>323</ele>
        <time>2021-09-10T08:43:00.676Z</time>
      </trkpt>
      <trkpt lat="45.64268" lon="5.93065">
        <ele>323</ele>
        <time>2021-09-10T08:43:01.676Z</time>
      </trkpt>
      <trkpt lat="45.64268" lon="5.93068">
        <ele>323</ele>
        <time>2021-09-10T08:43:02.676Z</time>
      </trkpt>
      <trkpt lat="45.64268" lon="5.93071">
        <ele>323</ele>
        <time>2021-09-10T08:43:03.675Z</time>
      </trkpt>
      <trkpt lat="45.64268" lon="5.93074">
        <ele>324</ele>
        <time>2021-09-10T08:43:04.675Z</time>
      </trkpt>
      <trkpt lat="45.64269" lon="5.93077">
        <ele>324</ele>
        <time>2021-09-10T08:43:05.676Z</time>
      </trkpt>
      <trkpt lat="45.6427" lon="5.9308">
        <ele>325</ele>
        <time>2021-09-10T08:43:06.675Z</time>
      </trkpt>
      <trkpt lat="45.6427" lon="5.93083">
        <ele>325</ele>
        <time>2021-09-10T08:43:07.676Z</time>
      </trkpt>
      <trkpt lat="45.64271" lon="5.93086">
        <ele>325</ele>
        <time>2021-09-10T08:43:08.675Z</time>
      </trkpt>
      <trkpt lat="45.64271" lon="5.93089">
        <ele>325</ele>
        <time>2021-09-10T08:43:09.676Z</time>
      </trkpt>
      <trkpt lat="45.64272" lon="5.93092">
        <ele>325</ele>
        <time>2021-09-10T08:43:10.676Z</time>
      </trkpt>
      <trkpt lat="45.64272" lon="5.93095">
        <ele>325</ele>
        <time>2021-09-10T08:43:11.676Z</time>
      </trkpt>
      <trkpt lat="45.64272" lon="5.93098">
        <ele>325</ele>
        <time>2021-09-10T08:43:12.676Z</time>
      </trkpt>
      <trkpt lat="45.64272" lon="5.93101">
        <ele>325</ele>
        <time>2021-09-10T08:43:13.676Z</time>
      </trkpt>
      <trkpt lat="45.64272" lon="5.93105">
        <ele>324</ele>
        <time>2021-09-10T08:43:14.676Z</time>
      </trkpt>
      <trkpt lat="45.64272" lon="5.93107">
        <ele>323</ele>
        <time>2021-09-10T08:43:15.676Z</time>
      </trkpt>
      <trkpt lat="45.64272" lon="5.9311">
        <ele>323</ele>
        <time>2021-09-10T08:43:16.675Z</time>
      </trkpt>
      <trkpt lat="45.64272" lon="5.93114">
        <ele>322</ele>
        <time>2021-09-10T08:43:17.676Z</time>
      </trkpt>
      <trkpt lat="45.64272" lon="5.93117">
        <ele>322</ele>
        <time>2021-09-10T08:43:18.676Z</time>
      </trkpt>
      <trkpt lat="45.64272" lon="5.9312">
        <ele>322</ele>
        <time>2021-09-10T08:43:19.676Z</time>
      </trkpt>
      <trkpt lat="45.64273" lon="5.93123">
        <ele>323</ele>
        <time>2021-09-10T08:43:20.676Z</time>
      </trkpt>
      <trkpt lat="45.64273" lon="5.93126">
        <ele>323</ele>
        <time>2021-09-10T08:43:21.676Z</time>
      </trkpt>
      <trkpt lat="45.64273" lon="5.9313">
        <ele>324</ele>
        <time>2021-09-10T08:43:22.676Z</time>
      </trkpt>
      <trkpt lat="45.64273" lon="5.93133">
        <ele>324</ele>
        <time>2021-09-10T08:43:23.675Z</time>
      </trkpt>
      <trkpt lat="45.64273" lon="5.93136">
        <ele>325</ele>
        <time>2021-09-10T08:43:24.676Z</time>
      </trkpt>
      <trkpt lat="45.64274" lon="5.93139">
        <ele>325</ele>
        <time>2021-09-10T08:43:25.676Z</time>
      </trkpt>
      <trkpt lat="45.64274" lon="5.93142">
        <ele>325</ele>
        <time>2021-09-10T08:43:26.676Z</time>
      </trkpt>
      <trkpt lat="45.64274" lon="5.93146">
        <ele>325</ele>
        <time>2021-09-10T08:43:27.676Z</time>
      </trkpt>
      <trkpt lat="45.64274" lon="5.93149">
        <ele>325</ele>
        <time>2021-09-10T08:43:28.675Z</time>
      </trkpt>
      <trkpt lat="45.64274" lon="5.93152">
        <ele>326</ele>
        <time>2021-09-10T08:43:29.676Z</time>
      </trkpt>
      <trkpt lat="45.64274" lon="5.93155">
        <ele>326</ele>
        <time>2021-09-10T08:43:30.676Z</time>
      </trkpt>
      <trkpt lat="45.64274" lon="5.93158">
        <ele>326</ele>
        <time>2021-09-10T08:43:31.676Z</time>
      </trkpt>
      <trkpt lat="45.64274" lon="5.93161">
        <ele>326</ele>
        <time>2021-09-10T08:43:32.676Z</time>
      </trkpt>
      <trkpt lat="45.64274" lon="5.93164">
        <ele>326</ele>
        <time>2021-09-10T08:43:33.675Z</time>
      </trkpt>
      <trkpt lat="45.64274" lon="5.93168">
        <ele>327</ele>
        <time>2021-09-10T08:43:34.676Z</time>
      </trkpt>
      <trkpt lat="45.64274" lon="5.93171">
        <ele>327</ele>
        <time>2021-09-10T08:43:35.676Z</time>
      </trkpt>
      <trkpt lat="45.64274" lon="5.93174">
        <ele>327</ele>
        <time>2021-09-10T08:43:36.675Z</time>
      </trkpt>
      <trkpt lat="45.64274" lon="5.93177">
        <ele>328</ele>
        <time>2021-09-10T08:43:37.675Z</time>
      </trkpt>
      <trkpt lat="45.64275" lon="5.9318">
        <ele>328</ele>
        <time>2021-09-10T08:43:38.675Z</time>
      </trkpt>
      <trkpt lat="45.64275" lon="5.93183">
        <ele>328</ele>
        <time>2021-09-10T08:43:39.675Z</time>
      </trkpt>
      <trkpt lat="45.64275" lon="5.93187">
        <ele>327</ele>
        <time>2021-09-10T08:43:40.676Z</time>
      </trkpt>
      <trkpt lat="45.64275" lon="5.9319">
        <ele>327</ele>
        <time>2021-09-10T08:43:41.675Z</time>
      </trkpt>
      <trkpt lat="45.64275" lon="5.93193">
        <ele>328</ele>
        <time>2021-09-10T08:43:42.675Z</time>
      </trkpt>
      <trkpt lat="45.64276" lon="5.93196">
        <ele>328</ele>
        <time>2021-09-10T08:43:43.675Z</time>
      </trkpt>
      <trkpt lat="45.64276" lon="5.93199">
        <ele>329</ele>
        <time>2021-09-10T08:43:44.675Z</time>
      </trkpt>
      <trkpt lat="45.64276" lon="5.93203">
        <ele>330</ele>
        <time>2021-09-10T08:43:45.675Z</time>
      </trkpt>
      <trkpt lat="45.64277" lon="5.93205">
        <ele>330</ele>
        <time>2021-09-10T08:43:46.675Z</time>
      </trkpt>
      <trkpt lat="45.64277" lon="5.93209">
        <ele>330</ele>
        <time>2021-09-10T08:43:47.675Z</time>
      </trkpt>
      <trkpt lat="45.64278" lon="5.93211">
        <ele>330</ele>
        <time>2021-09-10T08:43:48.675Z</time>
      </trkpt>
      <trkpt lat="45.64278" lon="5.93214">
        <ele>330</ele>
        <time>2021-09-10T08:43:49.675Z</time>
      </trkpt>
      <trkpt lat="45.64279" lon="5.93217">
        <ele>330</ele>
        <time>2021-09-10T08:43:50.675Z</time>
      </trkpt>
      <trkpt lat="45.64279" lon="5.9322">
        <ele>330</ele>
        <time>2021-09-10T08:43:51.676Z</time>
      </trkpt>
      <trkpt lat="45.64279" lon="5.93223">
        <ele>330</ele>
        <time>2021-09-10T08:43:52.676Z</time>
      </trkpt>
      <trkpt lat="45.6428" lon="5.93226">
        <ele>329</ele>
        <time>2021-09-10T08:43:53.675Z</time>
      </trkpt>
      <trkpt lat="45.6428" lon="5.93229">
        <ele>329</ele>
        <time>2021-09-10T08:43:54.675Z</time>
      </trkpt>
      <trkpt lat="45.64281" lon="5.93232">
        <ele>329</ele>
        <time>2021-09-10T08:43:55.675Z</time>
      </trkpt>
      <trkpt lat="45.64281" lon="5.93235">
        <ele>329</ele>
        <time>2021-09-10T08:43:56.675Z</time>
      </trkpt>
      <trkpt lat="45.64281" lon="5.93239">
        <ele>330</ele>
        <time>2021-09-10T08:43:57.676Z</time>
      </trkpt>
      <trkpt lat="45.64282" lon="5.93242">
        <ele>330</ele>
        <time>2021-09-10T08:43:58.676Z</time>
      </trkpt>
      <trkpt lat="45.64282" lon="5.93245">
        <ele>331</ele>
        <time>2021-09-10T08:43:59.675Z</time>
      </trkpt>
      <trkpt lat="45.64282" lon="5.93248">
        <ele>332</ele>
        <time>2021-09-10T08:44:00.676Z</time>
      </trkpt>
      <trkpt lat="45.64283" lon="5.93252">
        <ele>333</ele>
        <time>2021-09-10T08:44:01.676Z</time>
      </trkpt>
      <trkpt lat="45.64282" lon="5.93255">
        <ele>333</ele>
        <time>2021-09-10T08:44:02.676Z</time>
      </trkpt>
      <trkpt lat="45.64282" lon="5.93258">
        <ele>333</ele>
        <time>2021-09-10T08:44:03.676Z</time>
      </trkpt>
      <trkpt lat="45.64282" lon="5.93261">
        <ele>333</ele>
        <time>2021-09-10T08:44:04.675Z</time>
      </trkpt>
      <trkpt lat="45.64282" lon="5.93264">
        <ele>333</ele>
        <time>2021-09-10T08:44:05.676Z</time>
      </trkpt>
      <trkpt lat="45.64283" lon="5.93268">
        <ele>333</ele>
        <time>2021-09-10T08:44:06.676Z</time>
      </trkpt>
      <trkpt lat="45.64283" lon="5.93271">
        <ele>333</ele>
        <time>2021-09-10T08:44:07.676Z</time>
      </trkpt>
      <trkpt lat="45.64283" lon="5.93274">
        <ele>333</ele>
        <time>2021-09-10T08:44:08.676Z</time>
      </trkpt>
      <trkpt lat="45.64283" lon="5.93278">
        <ele>333</ele>
        <time>2021-09-10T08:44:09.676Z</time>
      </trkpt>
      <trkpt lat="45.64283" lon="5.93282">
        <ele>333</ele>
        <time>2021-09-10T08:44:10.676Z</time>
      </trkpt>
      <trkpt lat="45.64283" lon="5.93286">
        <ele>333</ele>
        <time>2021-09-10T08:44:11.676Z</time>
      </trkpt>
      <trkpt lat="45.64283" lon="5.93289">
        <ele>333</ele>
        <time>2021-09-10T08:44:12.675Z</time>
      </trkpt>
      <trkpt lat="45.64284" lon="5.93292">
        <ele>333</ele>
        <time>2021-09-10T08:44:13.676Z</time>
      </trkpt>
      <trkpt lat="45.64284" lon="5.93295">
        <ele>333</ele>
        <time>2021-09-10T08:44:14.676Z</time>
      </trkpt>
      <trkpt lat="45.64284" lon="5.93297">
        <ele>333</ele>
        <time>2021-09-10T08:44:15.676Z</time>
      </trkpt>
      <trkpt lat="45.64285" lon="5.933">
        <ele>334</ele>
        <time>2021-09-10T08:44:16.676Z</time>
      </trkpt>
      <trkpt lat="45.64285" lon="5.93304">
        <ele>334</ele>
        <time>2021-09-10T08:44:17.675Z</time>
      </trkpt>
      <trkpt lat="45.64285" lon="5.93307">
        <ele>334</ele>
        <time>2021-09-10T08:44:18.676Z</time>
      </trkpt>
      <trkpt lat="45.64286" lon="5.9331">
        <ele>334</ele>
        <time>2021-09-10T08:44:19.676Z</time>
      </trkpt>
      <trkpt lat="45.64286" lon="5.93313">
        <ele>335</ele>
        <time>2021-09-10T08:44:20.676Z</time>
      </trkpt>
      <trkpt lat="45.64286" lon="5.93316">
        <ele>335</ele>
        <time>2021-09-10T08:44:21.676Z</time>
      </trkpt>
      <trkpt lat="45.64286" lon="5.93319">
        <ele>336</ele>
        <time>2021-09-10T08:44:22.676Z</time>
      </trkpt>
      <trkpt lat="45.64287" lon="5.93322">
        <ele>336</ele>
        <time>2021-09-10T08:44:23.676Z</time>
      </trkpt>
      <trkpt lat="45.64287" lon="5.93325">
        <ele>336</ele>
        <time>2021-09-10T08:44:24.675Z</time>
      </trkpt>
      <trkpt lat="45.64287" lon="5.93328">
        <ele>336</ele>
        <time>2021-09-10T08:44:25.676Z</time>
      </trkpt>
      <trkpt lat="45.64287" lon="5.93332">
        <ele>337</ele>
        <time>2021-09-10T08:44:26.676Z</time>
      </trkpt>
      <trkpt lat="45.64288" lon="5.93335">
        <ele>337</ele>
        <time>2021-09-10T08:44:27.675Z</time>
      </trkpt>
      <trkpt lat="45.64288" lon="5.93338">
        <ele>337</ele>
        <time>2021-09-10T08:44:28.676Z</time>
      </trkpt>
      <trkpt lat="45.64288" lon="5.93341">
        <ele>337</ele>
        <time>2021-09-10T08:44:29.676Z</time>
      </trkpt>
      <trkpt lat="45.64289" lon="5.93344">
        <ele>338</ele>
        <time>2021-09-10T08:44:30.675Z</time>
      </trkpt>
      <trkpt lat="45.64289" lon="5.93347">
        <ele>338</ele>
        <time>2021-09-10T08:44:31.676Z</time>
      </trkpt>
      <trkpt lat="45.6429" lon="5.9335">
        <ele>338</ele>
        <time>2021-09-10T08:44:32.676Z</time>
      </trkpt>
      <trkpt lat="45.6429" lon="5.93353">
        <ele>338</ele>
        <time>2021-09-10T08:44:33.676Z</time>
      </trkpt>
      <trkpt lat="45.64291" lon="5.93357">
        <ele>338</ele>
        <time>2021-09-10T08:44:34.676Z</time>
      </trkpt>
      <trkpt lat="45.64291" lon="5.9336">
        <ele>338</ele>
        <time>2021-09-10T08:44:35.675Z</time>
      </trkpt>
      <trkpt lat="45.64292" lon="5.93362">
        <ele>338</ele>
        <time>2021-09-10T08:44:36.676Z</time>
      </trkpt>
      <trkpt lat="45.64292" lon="5.93365">
        <ele>338</ele>
        <time>2021-09-10T08:44:37.675Z</time>
      </trkpt>
      <trkpt lat="45.64292" lon="5.93368">
        <ele>338</ele>
        <time>2021-09-10T08:44:38.676Z</time>
      </trkpt>
      <trkpt lat="45.64293" lon="5.93371">
        <ele>338</ele>
        <time>2021-09-10T08:44:39.676Z</time>
      </trkpt>
      <trkpt lat="45.64293" lon="5.93374">
        <ele>339</ele>
        <time>2021-09-10T08:44:40.676Z</time>
      </trkpt>
      <trkpt lat="45.64294" lon="5.93376">
        <ele>338</ele>
        <time>2021-09-10T08:44:41.676Z</time>
      </trkpt>
      <trkpt lat="45.64294" lon="5.93379">
        <ele>338</ele>
        <time>2021-09-10T08:44:42.676Z</time>
      </trkpt>
      <trkpt lat="45.64295" lon="5.93381">
        <ele>338</ele>
        <time>2021-09-10T08:44:43.675Z</time>
      </trkpt>
      <trkpt lat="45.64296" lon="5.93383">
        <ele>338</ele>
        <time>2021-09-10T08:44:44.676Z</time>
      </trkpt>
      <trkpt lat="45.64298" lon="5.93385">
        <ele>339</ele>
        <time>2021-09-10T08:44:45.676Z</time>
      </trkpt>
      <trkpt lat="45.64299" lon="5.93387">
        <ele>339</ele>
        <time>2021-09-10T08:44:46.676Z</time>
      </trkpt>
      <trkpt lat="45.64301" lon="5.93388">
        <ele>339</ele>
        <time>2021-09-10T08:44:47.675Z</time>
      </trkpt>
      <trkpt lat="45.64303" lon="5.93389">
        <ele>339</ele>
        <time>2021-09-10T08:44:48.676Z</time>
      </trkpt>
      <trkpt lat="45.64305" lon="5.9339">
        <ele>339</ele>
        <time>2021-09-10T08:44:49.676Z</time>
      </trkpt>
      <trkpt lat="45.64307" lon="5.93391">
        <ele>339</ele>
        <time>2021-09-10T08:44:50.676Z</time>
      </trkpt>
      <trkpt lat="45.6431" lon="5.93391">
        <ele>339</ele>
        <time>2021-09-10T08:44:51.676Z</time>
      </trkpt>
      <trkpt lat="45.64312" lon="5.93392">
        <ele>339</ele>
        <time>2021-09-10T08:44:52.675Z</time>
      </trkpt>
      <trkpt lat="45.64314" lon="5.93392">
        <ele>339</ele>
        <time>2021-09-10T08:44:53.676Z</time>
      </trkpt>
      <trkpt lat="45.64316" lon="5.93393">
        <ele>339</ele>
        <time>2021-09-10T08:44:54.675Z</time>
      </trkpt>
      <trkpt lat="45.64319" lon="5.93393">
        <ele>339</ele>
        <time>2021-09-10T08:44:55.676Z</time>
      </trkpt>
      <trkpt lat="45.64321" lon="5.93394">
        <ele>339</ele>
        <time>2021-09-10T08:44:56.676Z</time>
      </trkpt>
      <trkpt lat="45.64323" lon="5.93395">
        <ele>339</ele>
        <time>2021-09-10T08:44:57.676Z</time>
      </trkpt>
      <trkpt lat="45.64326" lon="5.93396">
        <ele>338</ele>
        <time>2021-09-10T08:44:58.676Z</time>
      </trkpt>
      <trkpt lat="45.64328" lon="5.93396">
        <ele>338</ele>
        <time>2021-09-10T08:44:59.676Z</time>
      </trkpt>
      <trkpt lat="45.6433" lon="5.93397">
        <ele>338</ele>
        <time>2021-09-10T08:45:00.676Z</time>
      </trkpt>
      <trkpt lat="45.64333" lon="5.93398">
        <ele>339</ele>
        <time>2021-09-10T08:45:01.676Z</time>
      </trkpt>
      <trkpt lat="45.64335" lon="5.93398">
        <ele>339</ele>
        <time>2021-09-10T08:45:02.676Z</time>
      </trkpt>
      <trkpt lat="45.64337" lon="5.93398">
        <ele>339</ele>
        <time>2021-09-10T08:45:03.676Z</time>
      </trkpt>
      <trkpt lat="45.6434" lon="5.93399">
        <ele>339</ele>
        <time>2021-09-10T08:45:04.676Z</time>
      </trkpt>
      <trkpt lat="45.64342" lon="5.93399">
        <ele>339</ele>
        <time>2021-09-10T08:45:05.675Z</time>
      </trkpt>
      <trkpt lat="45.64344" lon="5.934">
        <ele>340</ele>
        <time>2021-09-10T08:45:06.676Z</time>
      </trkpt>
      <trkpt lat="45.64346" lon="5.934">
        <ele>340</ele>
        <time>2021-09-10T08:45:07.675Z</time>
      </trkpt>
      <trkpt lat="45.64348" lon="5.93401">
        <ele>340</ele>
        <time>2021-09-10T08:45:08.676Z</time>
      </trkpt>
      <trkpt lat="45.64351" lon="5.93401">
        <ele>339</ele>
        <time>2021-09-10T08:45:09.676Z</time>
      </trkpt>
      <trkpt lat="45.64353" lon="5.93402">
        <ele>339</ele>
        <time>2021-09-10T08:45:10.676Z</time>
      </trkpt>
      <trkpt lat="45.64356" lon="5.93403">
        <ele>340</ele>
        <time>2021-09-10T08:45:11.676Z</time>
      </trkpt>
      <trkpt lat="45.64359" lon="5.93404">
        <ele>340</ele>
        <time>2021-09-10T08:45:12.676Z</time>
      </trkpt>
      <trkpt lat="45.64361" lon="5.93405">
        <ele>341</ele>
        <time>2021-09-10T08:45:13.676Z</time>
      </trkpt>
      <trkpt lat="45.64364" lon="5.93405">
        <ele>341</ele>
        <time>2021-09-10T08:45:14.676Z</time>
      </trkpt>
      <trkpt lat="45.64367" lon="5.93406">
        <ele>341</ele>
        <time>2021-09-10T08:45:15.676Z</time>
      </trkpt>
      <trkpt lat="45.64369" lon="5.93407">
        <ele>342</ele>
        <time>2021-09-10T08:45:16.675Z</time>
      </trkpt>
      <trkpt lat="45.64372" lon="5.93407">
        <ele>342</ele>
        <time>2021-09-10T08:45:17.676Z</time>
      </trkpt>
      <trkpt lat="45.64374" lon="5.93408">
        <ele>342</ele>
        <time>2021-09-10T08:45:18.676Z</time>
      </trkpt>
      <trkpt lat="45.64377" lon="5.93408">
        <ele>342</ele>
        <time>2021-09-10T08:45:19.675Z</time>
      </trkpt>
      <trkpt lat="45.64379" lon="5.93409">
        <ele>342</ele>
        <time>2021-09-10T08:45:20.676Z</time>
      </trkpt>
      <trkpt lat="45.64382" lon="5.93409">
        <ele>341</ele>
        <time>2021-09-10T08:45:21.676Z</time>
      </trkpt>
      <trkpt lat="45.64384" lon="5.93409">
        <ele>341</ele>
        <time>2021-09-10T08:45:22.675Z</time>
      </trkpt>
      <trkpt lat="45.64386" lon="5.93409">
        <ele>341</ele>
        <time>2021-09-10T08:45:23.676Z</time>
      </trkpt>
      <trkpt lat="45.64389" lon="5.93408">
        <ele>340</ele>
        <time>2021-09-10T08:45:24.675Z</time>
      </trkpt>
      <trkpt lat="45.64392" lon="5.93408">
        <ele>340</ele>
        <time>2021-09-10T08:45:25.676Z</time>
      </trkpt>
      <trkpt lat="45.64395" lon="5.93407">
        <ele>340</ele>
        <time>2021-09-10T08:45:26.676Z</time>
      </trkpt>
      <trkpt lat="45.64398" lon="5.93407">
        <ele>340</ele>
        <time>2021-09-10T08:45:27.676Z</time>
      </trkpt>
      <trkpt lat="45.64401" lon="5.93407">
        <ele>340</ele>
        <time>2021-09-10T08:45:28.676Z</time>
      </trkpt>
      <trkpt lat="45.64403" lon="5.93407">
        <ele>341</ele>
        <time>2021-09-10T08:45:29.676Z</time>
      </trkpt>
      <trkpt lat="45.64406" lon="5.93407">
        <ele>341</ele>
        <time>2021-09-10T08:45:30.675Z</time>
      </trkpt>
      <trkpt lat="45.64408" lon="5.93407">
        <ele>342</ele>
        <time>2021-09-10T08:45:31.676Z</time>
      </trkpt>
      <trkpt lat="45.64411" lon="5.93407">
        <ele>342</ele>
        <time>2021-09-10T08:45:32.676Z</time>
      </trkpt>
      <trkpt lat="45.64413" lon="5.93407">
        <ele>342</ele>
        <time>2021-09-10T08:45:33.676Z</time>
      </trkpt>
      <trkpt lat="45.64416" lon="5.93406">
        <ele>342</ele>
        <time>2021-09-10T08:45:34.676Z</time>
      </trkpt>
      <trkpt lat="45.64419" lon="5.93407">
        <ele>343</ele>
        <time>2021-09-10T08:45:35.676Z</time>
      </trkpt>
      <trkpt lat="45.64422" lon="5.93407">
        <ele>343</ele>
        <time>2021-09-10T08:45:36.675Z</time>
      </trkpt>
      <trkpt lat="45.64425" lon="5.93407">
        <ele>343</ele>
        <time>2021-09-10T08:45:37.675Z</time>
      </trkpt>
      <trkpt lat="45.64427" lon="5.93407">
        <ele>343</ele>
        <time>2021-09-10T08:45:38.676Z</time>
      </trkpt>
      <trkpt lat="45.6443" lon="5.93408">
        <ele>344</ele>
        <time>2021-09-10T08:45:39.676Z</time>
      </trkpt>
      <trkpt lat="45.64433" lon="5.93408">
        <ele>344</ele>
        <time>2021-09-10T08:45:40.675Z</time>
      </trkpt>
      <trkpt lat="45.64436" lon="5.93408">
        <ele>344</ele>
        <time>2021-09-10T08:45:41.676Z</time>
      </trkpt>
      <trkpt lat="45.64439" lon="5.93407">
        <ele>344</ele>
        <time>2021-09-10T08:45:42.676Z</time>
      </trkpt>
      <trkpt lat="45.64442" lon="5.93407">
        <ele>344</ele>
        <time>2021-09-10T08:45:43.676Z</time>
      </trkpt>
      <trkpt lat="45.64445" lon="5.93407">
        <ele>344</ele>
        <time>2021-09-10T08:45:44.676Z</time>
      </trkpt>
      <trkpt lat="45.64448" lon="5.93407">
        <ele>344</ele>
        <time>2021-09-10T08:45:45.676Z</time>
      </trkpt>
      <trkpt lat="45.64451" lon="5.93407">
        <ele>344</ele>
        <time>2021-09-10T08:45:46.676Z</time>
      </trkpt>
      <trkpt lat="45.64454" lon="5.93407">
        <ele>344</ele>
        <time>2021-09-10T08:45:47.676Z</time>
      </trkpt>
      <trkpt lat="45.64456" lon="5.93408">
        <ele>343</ele>
        <time>2021-09-10T08:45:48.675Z</time>
      </trkpt>
      <trkpt lat="45.64459" lon="5.93407">
        <ele>343</ele>
        <time>2021-09-10T08:45:49.676Z</time>
      </trkpt>
      <trkpt lat="45.64462" lon="5.93407">
        <ele>344</ele>
        <time>2021-09-10T08:45:50.676Z</time>
      </trkpt>
      <trkpt lat="45.64465" lon="5.93407">
        <ele>343</ele>
        <time>2021-09-10T08:45:51.676Z</time>
      </trkpt>
      <trkpt lat="45.64468" lon="5.93407">
        <ele>343</ele>
        <time>2021-09-10T08:45:52.676Z</time>
      </trkpt>
      <trkpt lat="45.64471" lon="5.93407">
        <ele>344</ele>
        <time>2021-09-10T08:45:53.676Z</time>
      </trkpt>
      <trkpt lat="45.64474" lon="5.93407">
        <ele>344</ele>
        <time>2021-09-10T08:45:54.676Z</time>
      </trkpt>
      <trkpt lat="45.64477" lon="5.93407">
        <ele>344</ele>
        <time>2021-09-10T08:45:55.675Z</time>
      </trkpt>
      <trkpt lat="45.6448" lon="5.93408">
        <ele>344</ele>
        <time>2021-09-10T08:45:56.676Z</time>
      </trkpt>
      <trkpt lat="45.64482" lon="5.93408">
        <ele>344</ele>
        <time>2021-09-10T08:45:57.676Z</time>
      </trkpt>
      <trkpt lat="45.64485" lon="5.93408">
        <ele>344</ele>
        <time>2021-09-10T08:45:58.676Z</time>
      </trkpt>
      <trkpt lat="45.64488" lon="5.93408">
        <ele>344</ele>
        <time>2021-09-10T08:45:59.675Z</time>
      </trkpt>
      <trkpt lat="45.6449" lon="5.93409">
        <ele>344</ele>
        <time>2021-09-10T08:46:00.676Z</time>
      </trkpt>
      <trkpt lat="45.64493" lon="5.93409">
        <ele>344</ele>
        <time>2021-09-10T08:46:01.676Z</time>
      </trkpt>
      <trkpt lat="45.64496" lon="5.93409">
        <ele>344</ele>
        <time>2021-09-10T08:46:02.676Z</time>
      </trkpt>
      <trkpt lat="45.64499" lon="5.93409">
        <ele>344</ele>
        <time>2021-09-10T08:46:03.675Z</time>
      </trkpt>
      <trkpt lat="45.64502" lon="5.93409">
        <ele>343</ele>
        <time>2021-09-10T08:46:04.675Z</time>
      </trkpt>
      <trkpt lat="45.64505" lon="5.9341">
        <ele>343</ele>
        <time>2021-09-10T08:46:05.676Z</time>
      </trkpt>
      <trkpt lat="45.64507" lon="5.9341">
        <ele>342</ele>
        <time>2021-09-10T08:46:06.676Z</time>
      </trkpt>
      <trkpt lat="45.6451" lon="5.9341">
        <ele>342</ele>
        <time>2021-09-10T08:46:07.676Z</time>
      </trkpt>
      <trkpt lat="45.64513" lon="5.93411">
        <ele>342</ele>
        <time>2021-09-10T08:46:08.676Z</time>
      </trkpt>
      <trkpt lat="45.64516" lon="5.93411">
        <ele>342</ele>
        <time>2021-09-10T08:46:09.676Z</time>
      </trkpt>
      <trkpt lat="45.64519" lon="5.93412">
        <ele>342</ele>
        <time>2021-09-10T08:46:10.676Z</time>
      </trkpt>
      <trkpt lat="45.64522" lon="5.93412">
        <ele>342</ele>
        <time>2021-09-10T08:46:11.676Z</time>
      </trkpt>
      <trkpt lat="45.64525" lon="5.93412">
        <ele>342</ele>
        <time>2021-09-10T08:46:12.675Z</time>
      </trkpt>
      <trkpt lat="45.64527" lon="5.93413">
        <ele>342</ele>
        <time>2021-09-10T08:46:13.676Z</time>
      </trkpt>
      <trkpt lat="45.64531" lon="5.93413">
        <ele>342</ele>
        <time>2021-09-10T08:46:14.676Z</time>
      </trkpt>
      <trkpt lat="45.64534" lon="5.93413">
        <ele>342</ele>
        <time>2021-09-10T08:46:15.675Z</time>
      </trkpt>
      <trkpt lat="45.64536" lon="5.93414">
        <ele>343</ele>
        <time>2021-09-10T08:46:16.676Z</time>
      </trkpt>
      <trkpt lat="45.64539" lon="5.93414">
        <ele>343</ele>
        <time>2021-09-10T08:46:17.675Z</time>
      </trkpt>
      <trkpt lat="45.64542" lon="5.93414">
        <ele>342</ele>
        <time>2021-09-10T08:46:18.676Z</time>
      </trkpt>
      <trkpt lat="45.64545" lon="5.93415">
        <ele>342</ele>
        <time>2021-09-10T08:46:19.676Z</time>
      </trkpt>
      <trkpt lat="45.64548" lon="5.93415">
        <ele>343</ele>
        <time>2021-09-10T08:46:20.676Z</time>
      </trkpt>
      <trkpt lat="45.64551" lon="5.93415">
        <ele>343</ele>
        <time>2021-09-10T08:46:21.675Z</time>
      </trkpt>
      <trkpt lat="45.64553" lon="5.93415">
        <ele>343</ele>
        <time>2021-09-10T08:46:22.675Z</time>
      </trkpt>
      <trkpt lat="45.64556" lon="5.93416">
        <ele>344</ele>
        <time>2021-09-10T08:46:23.676Z</time>
      </trkpt>
      <trkpt lat="45.64559" lon="5.93416">
        <ele>344</ele>
        <time>2021-09-10T08:46:24.676Z</time>
      </trkpt>
      <trkpt lat="45.64562" lon="5.93416">
        <ele>345</ele>
        <time>2021-09-10T08:46:25.676Z</time>
      </trkpt>
      <trkpt lat="45.64565" lon="5.93416">
        <ele>345</ele>
        <time>2021-09-10T08:46:26.676Z</time>
      </trkpt>
      <trkpt lat="45.64567" lon="5.93417">
        <ele>345</ele>
        <time>2021-09-10T08:46:27.676Z</time>
      </trkpt>
      <trkpt lat="45.6457" lon="5.93417">
        <ele>345</ele>
        <time>2021-09-10T08:46:28.675Z</time>
      </trkpt>
      <trkpt lat="45.64573" lon="5.93417">
        <ele>345</ele>
        <time>2021-09-10T08:46:29.676Z</time>
      </trkpt>
      <trkpt lat="45.64575" lon="5.93418">
        <ele>345</ele>
        <time>2021-09-10T08:46:30.675Z</time>
      </trkpt>
      <trkpt lat="45.64578" lon="5.93418">
        <ele>345</ele>
        <time>2021-09-10T08:46:31.676Z</time>
      </trkpt>
      <trkpt lat="45.6458" lon="5.93418">
        <ele>346</ele>
        <time>2021-09-10T08:46:32.675Z</time>
      </trkpt>
      <trkpt lat="45.64583" lon="5.93419">
        <ele>346</ele>
        <time>2021-09-10T08:46:33.675Z</time>
      </trkpt>
      <trkpt lat="45.64586" lon="5.93419">
        <ele>346</ele>
        <time>2021-09-10T08:46:34.676Z</time>
      </trkpt>
      <trkpt lat="45.64589" lon="5.9342">
        <ele>346</ele>
        <time>2021-09-10T08:46:35.676Z</time>
      </trkpt>
      <trkpt lat="45.64591" lon="5.9342">
        <ele>346</ele>
        <time>2021-09-10T08:46:36.676Z</time>
      </trkpt>
      <trkpt lat="45.64594" lon="5.9342">
        <ele>346</ele>
        <time>2021-09-10T08:46:37.676Z</time>
      </trkpt>
      <trkpt lat="45.64597" lon="5.9342">
        <ele>346</ele>
        <time>2021-09-10T08:46:38.676Z</time>
      </trkpt>
      <trkpt lat="45.64599" lon="5.93421">
        <ele>346</ele>
        <time>2021-09-10T08:46:39.676Z</time>
      </trkpt>
      <trkpt lat="45.64602" lon="5.93422">
        <ele>346</ele>
        <time>2021-09-10T08:46:40.676Z</time>
      </trkpt>
      <trkpt lat="45.64605" lon="5.93423">
        <ele>346</ele>
        <time>2021-09-10T08:46:41.676Z</time>
      </trkpt>
      <trkpt lat="45.64607" lon="5.93424">
        <ele>346</ele>
        <time>2021-09-10T08:46:42.676Z</time>
      </trkpt>
      <trkpt lat="45.6461" lon="5.93424">
        <ele>346</ele>
        <time>2021-09-10T08:46:43.676Z</time>
      </trkpt>
      <trkpt lat="45.64613" lon="5.93425">
        <ele>346</ele>
        <time>2021-09-10T08:46:44.675Z</time>
      </trkpt>
      <trkpt lat="45.64615" lon="5.93425">
        <ele>346</ele>
        <time>2021-09-10T08:46:45.676Z</time>
      </trkpt>
      <trkpt lat="45.64617" lon="5.93426">
        <ele>346</ele>
        <time>2021-09-10T08:46:46.676Z</time>
      </trkpt>
      <trkpt lat="45.6462" lon="5.93426">
        <ele>347</ele>
        <time>2021-09-10T08:46:47.676Z</time>
      </trkpt>
      <trkpt lat="45.64622" lon="5.93427">
        <ele>346</ele>
        <time>2021-09-10T08:46:48.676Z</time>
      </trkpt>
      <trkpt lat="45.64625" lon="5.93428">
        <ele>346</ele>
        <time>2021-09-10T08:46:49.676Z</time>
      </trkpt>
      <trkpt lat="45.64627" lon="5.93429">
        <ele>346</ele>
        <time>2021-09-10T08:46:50.675Z</time>
      </trkpt>
      <trkpt lat="45.6463" lon="5.9343">
        <ele>347</ele>
        <time>2021-09-10T08:46:51.675Z</time>
      </trkpt>
      <trkpt lat="45.64632" lon="5.93431">
        <ele>348</ele>
        <time>2021-09-10T08:46:52.676Z</time>
      </trkpt>
      <trkpt lat="45.64634" lon="5.93432">
        <ele>348</ele>
        <time>2021-09-10T08:46:53.676Z</time>
      </trkpt>
      <trkpt lat="45.64637" lon="5.93433">
        <ele>349</ele>
        <time>2021-09-10T08:46:54.676Z</time>
      </trkpt>
      <trkpt lat="45.64639" lon="5.93434">
        <ele>350</ele>
        <time>2021-09-10T08:46:55.676Z</time>
      </trkpt>
      <trkpt lat="45.64642" lon="5.93435">
        <ele>351</ele>
        <time>2021-09-10T08:46:56.675Z</time>
      </trkpt>
      <trkpt lat="45.64644" lon="5.93436">
        <ele>352</ele>
        <time>2021-09-10T08:46:57.676Z</time>
      </trkpt>
      <trkpt lat="45.64647" lon="5.93437">
        <ele>352</ele>
        <time>2021-09-10T08:46:58.676Z</time>
      </trkpt>
      <trkpt lat="45.64649" lon="5.93438">
        <ele>352</ele>
        <time>2021-09-10T08:46:59.676Z</time>
      </trkpt>
      <trkpt lat="45.64651" lon="5.93439">
        <ele>352</ele>
        <time>2021-09-10T08:47:00.676Z</time>
      </trkpt>
      <trkpt lat="45.64654" lon="5.9344">
        <ele>352</ele>
        <time>2021-09-10T08:47:01.676Z</time>
      </trkpt>
      <trkpt lat="45.64656" lon="5.93441">
        <ele>352</ele>
        <time>2021-09-10T08:47:02.676Z</time>
      </trkpt>
      <trkpt lat="45.64658" lon="5.93442">
        <ele>353</ele>
        <time>2021-09-10T08:47:03.676Z</time>
      </trkpt>
      <trkpt lat="45.64661" lon="5.93443">
        <ele>353</ele>
        <time>2021-09-10T08:47:04.676Z</time>
      </trkpt>
      <trkpt lat="45.64663" lon="5.93444">
        <ele>353</ele>
        <time>2021-09-10T08:47:05.676Z</time>
      </trkpt>
      <trkpt lat="45.64666" lon="5.93445">
        <ele>352</ele>
        <time>2021-09-10T08:47:06.676Z</time>
      </trkpt>
      <trkpt lat="45.64668" lon="5.93446">
        <ele>352</ele>
        <time>2021-09-10T08:47:07.675Z</time>
      </trkpt>
      <trkpt lat="45.6467" lon="5.93447">
        <ele>352</ele>
        <time>2021-09-10T08:47:08.676Z</time>
      </trkpt>
      <trkpt lat="45.64673" lon="5.93449">
        <ele>353</ele>
        <time>2021-09-10T08:47:09.676Z</time>
      </trkpt>
      <trkpt lat="45.64675" lon="5.9345">
        <ele>353</ele>
        <time>2021-09-10T08:47:10.676Z</time>
      </trkpt>
      <trkpt lat="45.64677" lon="5.93451">
        <ele>353</ele>
        <time>2021-09-10T08:47:11.676Z</time>
      </trkpt>
      <trkpt lat="45.6468" lon="5.93452">
        <ele>354</ele>
        <time>2021-09-10T08:47:12.675Z</time>
      </trkpt>
      <trkpt lat="45.64682" lon="5.93454">
        <ele>354</ele>
        <time>2021-09-10T08:47:13.676Z</time>
      </trkpt>
      <trkpt lat="45.64685" lon="5.93456">
        <ele>354</ele>
        <time>2021-09-10T08:47:14.676Z</time>
      </trkpt>
      <trkpt lat="45.64687" lon="5.93457">
        <ele>354</ele>
        <time>2021-09-10T08:47:15.676Z</time>
      </trkpt>
      <trkpt lat="45.64689" lon="5.93459">
        <ele>354</ele>
        <time>2021-09-10T08:47:16.676Z</time>
      </trkpt>
      <trkpt lat="45.64692" lon="5.9346">
        <ele>354</ele>
        <time>2021-09-10T08:47:17.676Z</time>
      </trkpt>
      <trkpt lat="45.64694" lon="5.93462">
        <ele>353</ele>
        <time>2021-09-10T08:47:18.676Z</time>
      </trkpt>
      <trkpt lat="45.64696" lon="5.93463">
        <ele>353</ele>
        <time>2021-09-10T08:47:19.675Z</time>
      </trkpt>
      <trkpt lat="45.64698" lon="5.93465">
        <ele>353</ele>
        <time>2021-09-10T08:47:20.676Z</time>
      </trkpt>
      <trkpt lat="45.64701" lon="5.93466">
        <ele>354</ele>
        <time>2021-09-10T08:47:21.676Z</time>
      </trkpt>
      <trkpt lat="45.64703" lon="5.93468">
        <ele>354</ele>
        <time>2021-09-10T08:47:22.676Z</time>
      </trkpt>
      <trkpt lat="45.64705" lon="5.93469">
        <ele>354</ele>
        <time>2021-09-10T08:47:23.675Z</time>
      </trkpt>
      <trkpt lat="45.64707" lon="5.93471">
        <ele>354</ele>
        <time>2021-09-10T08:47:24.676Z</time>
      </trkpt>
      <trkpt lat="45.64709" lon="5.93473">
        <ele>353</ele>
        <time>2021-09-10T08:47:25.676Z</time>
      </trkpt>
      <trkpt lat="45.64712" lon="5.93474">
        <ele>352</ele>
        <time>2021-09-10T08:47:26.676Z</time>
      </trkpt>
      <trkpt lat="45.64714" lon="5.93476">
        <ele>352</ele>
        <time>2021-09-10T08:47:27.676Z</time>
      </trkpt>
      <trkpt lat="45.64716" lon="5.93477">
        <ele>352</ele>
        <time>2021-09-10T08:47:28.676Z</time>
      </trkpt>
      <trkpt lat="45.64718" lon="5.93479">
        <ele>352</ele>
        <time>2021-09-10T08:47:29.676Z</time>
      </trkpt>
      <trkpt lat="45.6472" lon="5.93481">
        <ele>352</ele>
        <time>2021-09-10T08:47:30.676Z</time>
      </trkpt>
      <trkpt lat="45.64722" lon="5.93482">
        <ele>352</ele>
        <time>2021-09-10T08:47:31.676Z</time>
      </trkpt>
      <trkpt lat="45.64725" lon="5.93484">
        <ele>352</ele>
        <time>2021-09-10T08:47:32.676Z</time>
      </trkpt>
      <trkpt lat="45.64727" lon="5.93485">
        <ele>352</ele>
        <time>2021-09-10T08:47:33.675Z</time>
      </trkpt>
      <trkpt lat="45.64729" lon="5.93487">
        <ele>352</ele>
        <time>2021-09-10T08:47:34.676Z</time>
      </trkpt>
      <trkpt lat="45.64732" lon="5.93488">
        <ele>353</ele>
        <time>2021-09-10T08:47:35.676Z</time>
      </trkpt>
      <trkpt lat="45.64734" lon="5.9349">
        <ele>353</ele>
        <time>2021-09-10T08:47:36.676Z</time>
      </trkpt>
      <trkpt lat="45.64736" lon="5.93491">
        <ele>353</ele>
        <time>2021-09-10T08:47:37.676Z</time>
      </trkpt>
      <trkpt lat="45.64738" lon="5.93492">
        <ele>353</ele>
        <time>2021-09-10T08:47:38.676Z</time>
      </trkpt>
      <trkpt lat="45.64741" lon="5.93494">
        <ele>352</ele>
        <time>2021-09-10T08:47:39.676Z</time>
      </trkpt>
      <trkpt lat="45.64743" lon="5.93495">
        <ele>353</ele>
        <time>2021-09-10T08:47:40.676Z</time>
      </trkpt>
      <trkpt lat="45.64745" lon="5.93497">
        <ele>354</ele>
        <time>2021-09-10T08:47:41.676Z</time>
      </trkpt>
      <trkpt lat="45.64748" lon="5.93498">
        <ele>354</ele>
        <time>2021-09-10T08:47:42.676Z</time>
      </trkpt>
      <trkpt lat="45.6475" lon="5.935">
        <ele>355</ele>
        <time>2021-09-10T08:47:43.676Z</time>
      </trkpt>
      <trkpt lat="45.64752" lon="5.93501">
        <ele>355</ele>
        <time>2021-09-10T08:47:44.676Z</time>
      </trkpt>
      <trkpt lat="45.64754" lon="5.93502">
        <ele>355</ele>
        <time>2021-09-10T08:47:45.676Z</time>
      </trkpt>
      <trkpt lat="45.64757" lon="5.93504">
        <ele>355</ele>
        <time>2021-09-10T08:47:46.676Z</time>
      </trkpt>
      <trkpt lat="45.64759" lon="5.93505">
        <ele>355</ele>
        <time>2021-09-10T08:47:47.676Z</time>
      </trkpt>
      <trkpt lat="45.64761" lon="5.93507">
        <ele>355</ele>
        <time>2021-09-10T08:47:48.676Z</time>
      </trkpt>
      <trkpt lat="45.64763" lon="5.93508">
        <ele>355</ele>
        <time>2021-09-10T08:47:49.676Z</time>
      </trkpt>
      <trkpt lat="45.64766" lon="5.9351">
        <ele>356</ele>
        <time>2021-09-10T08:47:50.676Z</time>
      </trkpt>
      <trkpt lat="45.64768" lon="5.93511">
        <ele>356</ele>
        <time>2021-09-10T08:47:51.676Z</time>
      </trkpt>
      <trkpt lat="45.6477" lon="5.93513">
        <ele>356</ele>
        <time>2021-09-10T08:47:52.675Z</time>
      </trkpt>
      <trkpt lat="45.64772" lon="5.93514">
        <ele>355</ele>
        <time>2021-09-10T08:47:53.676Z</time>
      </trkpt>
      <trkpt lat="45.64774" lon="5.93515">
        <ele>355</ele>
        <time>2021-09-10T08:47:54.676Z</time>
      </trkpt>
      <trkpt lat="45.64776" lon="5.93517">
        <ele>355</ele>
        <time>2021-09-10T08:47:55.676Z</time>
      </trkpt>
      <trkpt lat="45.64778" lon="5.93518">
        <ele>355</ele>
        <time>2021-09-10T08:47:56.676Z</time>
      </trkpt>
      <trkpt lat="45.64781" lon="5.93519">
        <ele>355</ele>
        <time>2021-09-10T08:47:57.676Z</time>
      </trkpt>
      <trkpt lat="45.64783" lon="5.9352">
        <ele>355</ele>
        <time>2021-09-10T08:47:58.676Z</time>
      </trkpt>
      <trkpt lat="45.64785" lon="5.93522">
        <ele>355</ele>
        <time>2021-09-10T08:47:59.676Z</time>
      </trkpt>
      <trkpt lat="45.64787" lon="5.93523">
        <ele>354</ele>
        <time>2021-09-10T08:48:00.676Z</time>
      </trkpt>
      <trkpt lat="45.64789" lon="5.93525">
        <ele>354</ele>
        <time>2021-09-10T08:48:01.676Z</time>
      </trkpt>
      <trkpt lat="45.64791" lon="5.93526">
        <ele>354</ele>
        <time>2021-09-10T08:48:02.676Z</time>
      </trkpt>
      <trkpt lat="45.64794" lon="5.93527">
        <ele>354</ele>
        <time>2021-09-10T08:48:03.676Z</time>
      </trkpt>
      <trkpt lat="45.64796" lon="5.93528">
        <ele>354</ele>
        <time>2021-09-10T08:48:04.676Z</time>
      </trkpt>
      <trkpt lat="45.64798" lon="5.9353">
        <ele>354</ele>
        <time>2021-09-10T08:48:05.676Z</time>
      </trkpt>
      <trkpt lat="45.648" lon="5.93531">
        <ele>354</ele>
        <time>2021-09-10T08:48:06.676Z</time>
      </trkpt>
      <trkpt lat="45.64802" lon="5.93532">
        <ele>354</ele>
        <time>2021-09-10T08:48:07.676Z</time>
      </trkpt>
      <trkpt lat="45.64804" lon="5.93534">
        <ele>354</ele>
        <time>2021-09-10T08:48:08.676Z</time>
      </trkpt>
      <trkpt lat="45.64806" lon="5.93535">
        <ele>354</ele>
        <time>2021-09-10T08:48:09.676Z</time>
      </trkpt>
      <trkpt lat="45.64809" lon="5.93537">
        <ele>354</ele>
        <time>2021-09-10T08:48:10.676Z</time>
      </trkpt>
      <trkpt lat="45.64811" lon="5.93538">
        <ele>354</ele>
        <time>2021-09-10T08:48:11.675Z</time>
      </trkpt>
      <trkpt lat="45.64813" lon="5.9354">
        <ele>354</ele>
        <time>2021-09-10T08:48:12.676Z</time>
      </trkpt>
      <trkpt lat="45.64815" lon="5.93541">
        <ele>355</ele>
        <time>2021-09-10T08:48:13.676Z</time>
      </trkpt>
      <trkpt lat="45.64818" lon="5.93543">
        <ele>355</ele>
        <time>2021-09-10T08:48:14.676Z</time>
      </trkpt>
      <trkpt lat="45.6482" lon="5.93544">
        <ele>356</ele>
        <time>2021-09-10T08:48:15.676Z</time>
      </trkpt>
      <trkpt lat="45.64822" lon="5.93546">
        <ele>356</ele>
        <time>2021-09-10T08:48:16.676Z</time>
      </trkpt>
      <trkpt lat="45.64824" lon="5.93547">
        <ele>357</ele>
        <time>2021-09-10T08:48:17.676Z</time>
      </trkpt>
      <trkpt lat="45.64827" lon="5.93549">
        <ele>358</ele>
        <time>2021-09-10T08:48:18.675Z</time>
      </trkpt>
      <trkpt lat="45.64829" lon="5.9355">
        <ele>358</ele>
        <time>2021-09-10T08:48:19.676Z</time>
      </trkpt>
      <trkpt lat="45.64831" lon="5.93552">
        <ele>358</ele>
        <time>2021-09-10T08:48:20.676Z</time>
      </trkpt>
      <trkpt lat="45.64833" lon="5.93554">
        <ele>358</ele>
        <time>2021-09-10T08:48:21.676Z</time>
      </trkpt>
      <trkpt lat="45.64835" lon="5.93555">
        <ele>358</ele>
        <time>2021-09-10T08:48:22.675Z</time>
      </trkpt>
      <trkpt lat="45.64837" lon="5.93557">
        <ele>358</ele>
        <time>2021-09-10T08:48:23.676Z</time>
      </trkpt>
      <trkpt lat="45.6484" lon="5.93558">
        <ele>359</ele>
        <time>2021-09-10T08:48:24.676Z</time>
      </trkpt>
      <trkpt lat="45.64842" lon="5.93559">
        <ele>359</ele>
        <time>2021-09-10T08:48:25.675Z</time>
      </trkpt>
      <trkpt lat="45.64844" lon="5.93561">
        <ele>359</ele>
        <time>2021-09-10T08:48:26.676Z</time>
      </trkpt>
      <trkpt lat="45.64846" lon="5.93563">
        <ele>360</ele>
        <time>2021-09-10T08:48:27.676Z</time>
      </trkpt>
      <trkpt lat="45.64849" lon="5.93565">
        <ele>360</ele>
        <time>2021-09-10T08:48:28.676Z</time>
      </trkpt>
      <trkpt lat="45.64851" lon="5.93567">
        <ele>361</ele>
        <time>2021-09-10T08:48:29.675Z</time>
      </trkpt>
      <trkpt lat="45.64853" lon="5.93568">
        <ele>362</ele>
        <time>2021-09-10T08:48:30.675Z</time>
      </trkpt>
      <trkpt lat="45.64856" lon="5.93569">
        <ele>362</ele>
        <time>2021-09-10T08:48:31.676Z</time>
      </trkpt>
      <trkpt lat="45.64858" lon="5.93571">
        <ele>362</ele>
        <time>2021-09-10T08:48:32.676Z</time>
      </trkpt>
      <trkpt lat="45.6486" lon="5.93572">
        <ele>361</ele>
        <time>2021-09-10T08:48:33.676Z</time>
      </trkpt>
      <trkpt lat="45.64861" lon="5.93573">
        <ele>361</ele>
        <time>2021-09-10T08:48:34.675Z</time>
      </trkpt>
      <trkpt lat="45.64863" lon="5.93576">
        <ele>360</ele>
        <time>2021-09-10T08:48:35.676Z</time>
      </trkpt>
      <trkpt lat="45.64863" lon="5.93578">
        <ele>360</ele>
        <time>2021-09-10T08:48:36.676Z</time>
      </trkpt>
      <trkpt lat="45.64863" lon="5.93581">
        <ele>361</ele>
        <time>2021-09-10T08:48:37.676Z</time>
      </trkpt>
      <trkpt lat="45.64862" lon="5.93585">
        <ele>361</ele>
        <time>2021-09-10T08:48:38.676Z</time>
      </trkpt>
      <trkpt lat="45.64862" lon="5.93587">
        <ele>361</ele>
        <time>2021-09-10T08:48:39.676Z</time>
      </trkpt>
      <trkpt lat="45.64861" lon="5.93589">
        <ele>361</ele>
        <time>2021-09-10T08:48:40.675Z</time>
      </trkpt>
      <trkpt lat="45.64861" lon="5.93591">
        <ele>362</ele>
        <time>2021-09-10T08:48:41.676Z</time>
      </trkpt>
      <trkpt lat="45.64861" lon="5.93591">
        <ele>362</ele>
        <time>2021-09-10T08:48:42.676Z</time>
      </trkpt>
      <trkpt lat="45.6486" lon="5.93591">
        <ele>362</ele>
        <time>2021-09-10T08:48:43.675Z</time>
      </trkpt>
      <trkpt lat="45.64858" lon="5.93593">
        <ele>360</ele>
        <time>2021-09-10T08:48:44.675Z</time>
      </trkpt>
      <trkpt lat="45.64857" lon="5.93593">
        <ele>360</ele>
        <time>2021-09-10T08:48:45.675Z</time>
      </trkpt>
      <trkpt lat="45.64857" lon="5.93594">
        <ele>360</ele>
        <time>2021-09-10T08:48:46.675Z</time>
      </trkpt>
      <trkpt lat="45.64856" lon="5.93594">
        <ele>361</ele>
        <time>2021-09-10T08:48:47.676Z</time>
      </trkpt>
      <trkpt lat="45.64856" lon="5.93595">
        <ele>361</ele>
        <time>2021-09-10T08:48:48.676Z</time>
      </trkpt>
      <trkpt lat="45.64859" lon="5.93581">
        <ele>363</ele>
        <time>2021-09-10T08:48:49.678Z</time>
      </trkpt>
      <trkpt lat="45.6486" lon="5.9358">
        <ele>363</ele>
        <time>2021-09-10T08:48:50.678Z</time>
      </trkpt>
      <trkpt lat="45.6486" lon="5.93578">
        <ele>363</ele>
        <time>2021-09-10T08:48:51.677Z</time>
      </trkpt>
      <trkpt lat="45.64861" lon="5.93577">
        <ele>362</ele>
        <time>2021-09-10T08:48:52.678Z</time>
      </trkpt>
      <trkpt lat="45.64861" lon="5.93577">
        <ele>362</ele>
        <time>2021-09-10T08:48:53.678Z</time>
      </trkpt>
      <trkpt lat="45.64862" lon="5.93575">
        <ele>361</ele>
        <time>2021-09-10T08:48:54.678Z</time>
      </trkpt>
      <trkpt lat="45.64862" lon="5.93574">
        <ele>361</ele>
        <time>2021-09-10T08:48:55.678Z</time>
      </trkpt>
      <trkpt lat="45.64868" lon="5.93576">
        <ele>360</ele>
        <time>2021-09-10T08:48:56.679Z</time>
      </trkpt>
      <trkpt lat="45.6487" lon="5.93577">
        <ele>360</ele>
        <time>2021-09-10T08:48:57.679Z</time>
      </trkpt>
      <trkpt lat="45.64873" lon="5.93578">
        <ele>359</ele>
        <time>2021-09-10T08:48:58.679Z</time>
      </trkpt>
      <trkpt lat="45.64877" lon="5.93579">
        <ele>359</ele>
        <time>2021-09-10T08:48:59.679Z</time>
      </trkpt>
      <trkpt lat="45.6488" lon="5.9358">
        <ele>358</ele>
        <time>2021-09-10T08:49:00.678Z</time>
      </trkpt>
      <trkpt lat="45.64884" lon="5.93582">
        <ele>357</ele>
        <time>2021-09-10T08:49:01.679Z</time>
      </trkpt>
      <trkpt lat="45.64887" lon="5.93583">
        <ele>357</ele>
        <time>2021-09-10T08:49:02.678Z</time>
      </trkpt>
      <trkpt lat="45.64891" lon="5.93585">
        <ele>358</ele>
        <time>2021-09-10T08:49:03.679Z</time>
      </trkpt>
      <trkpt lat="45.64894" lon="5.93587">
        <ele>358</ele>
        <time>2021-09-10T08:49:04.679Z</time>
      </trkpt>
      <trkpt lat="45.64898" lon="5.93589">
        <ele>358</ele>
        <time>2021-09-10T08:49:05.679Z</time>
      </trkpt>
      <trkpt lat="45.64901" lon="5.93591">
        <ele>358</ele>
        <time>2021-09-10T08:49:06.679Z</time>
      </trkpt>
      <trkpt lat="45.64904" lon="5.93593">
        <ele>358</ele>
        <time>2021-09-10T08:49:07.679Z</time>
      </trkpt>
      <trkpt lat="45.64908" lon="5.93594">
        <ele>359</ele>
        <time>2021-09-10T08:49:08.679Z</time>
      </trkpt>
      <trkpt lat="45.64911" lon="5.93595">
        <ele>359</ele>
        <time>2021-09-10T08:49:09.678Z</time>
      </trkpt>
      <trkpt lat="45.64915" lon="5.93597">
        <ele>359</ele>
        <time>2021-09-10T08:49:10.679Z</time>
      </trkpt>
      <trkpt lat="45.64918" lon="5.93599">
        <ele>359</ele>
        <time>2021-09-10T08:49:11.679Z</time>
      </trkpt>
      <trkpt lat="45.64921" lon="5.936">
        <ele>359</ele>
        <time>2021-09-10T08:49:12.679Z</time>
      </trkpt>
      <trkpt lat="45.64925" lon="5.93602">
        <ele>359</ele>
        <time>2021-09-10T08:49:13.679Z</time>
      </trkpt>
      <trkpt lat="45.64928" lon="5.93603">
        <ele>358</ele>
        <time>2021-09-10T08:49:14.678Z</time>
      </trkpt>
      <trkpt lat="45.64931" lon="5.93605">
        <ele>358</ele>
        <time>2021-09-10T08:49:15.679Z</time>
      </trkpt>
      <trkpt lat="45.64934" lon="5.93606">
        <ele>357</ele>
        <time>2021-09-10T08:49:16.678Z</time>
      </trkpt>
      <trkpt lat="45.64937" lon="5.93608">
        <ele>357</ele>
        <time>2021-09-10T08:49:17.679Z</time>
      </trkpt>
      <trkpt lat="45.64941" lon="5.93609">
        <ele>357</ele>
        <time>2021-09-10T08:49:18.678Z</time>
      </trkpt>
      <trkpt lat="45.64944" lon="5.9361">
        <ele>357</ele>
        <time>2021-09-10T08:49:19.679Z</time>
      </trkpt>
      <trkpt lat="45.64947" lon="5.93611">
        <ele>357</ele>
        <time>2021-09-10T08:49:20.679Z</time>
      </trkpt>
      <trkpt lat="45.6495" lon="5.93612">
        <ele>358</ele>
        <time>2021-09-10T08:49:21.679Z</time>
      </trkpt>
      <trkpt lat="45.64953" lon="5.93613">
        <ele>359</ele>
        <time>2021-09-10T08:49:22.679Z</time>
      </trkpt>
      <trkpt lat="45.64956" lon="5.93615">
        <ele>359</ele>
        <time>2021-09-10T08:49:23.679Z</time>
      </trkpt>
      <trkpt lat="45.6496" lon="5.93616">
        <ele>360</ele>
        <time>2021-09-10T08:49:24.679Z</time>
      </trkpt>
      <trkpt lat="45.64963" lon="5.93617">
        <ele>361</ele>
        <time>2021-09-10T08:49:25.679Z</time>
      </trkpt>
      <trkpt lat="45.64966" lon="5.93619">
        <ele>361</ele>
        <time>2021-09-10T08:49:26.679Z</time>
      </trkpt>
      <trkpt lat="45.64969" lon="5.9362">
        <ele>362</ele>
        <time>2021-09-10T08:49:27.679Z</time>
      </trkpt>
      <trkpt lat="45.64972" lon="5.93622">
        <ele>362</ele>
        <time>2021-09-10T08:49:28.679Z</time>
      </trkpt>
      <trkpt lat="45.64975" lon="5.93624">
        <ele>362</ele>
        <time>2021-09-10T08:49:29.679Z</time>
      </trkpt>
      <trkpt lat="45.64978" lon="5.93625">
        <ele>362</ele>
        <time>2021-09-10T08:49:30.679Z</time>
      </trkpt>
      <trkpt lat="45.64981" lon="5.93627">
        <ele>362</ele>
        <time>2021-09-10T08:49:31.679Z</time>
      </trkpt>
      <trkpt lat="45.64984" lon="5.93628">
        <ele>363</ele>
        <time>2021-09-10T08:49:32.678Z</time>
      </trkpt>
      <trkpt lat="45.64988" lon="5.93629">
        <ele>363</ele>
        <time>2021-09-10T08:49:33.679Z</time>
      </trkpt>
      <trkpt lat="45.64991" lon="5.93631">
        <ele>363</ele>
        <time>2021-09-10T08:49:34.679Z</time>
      </trkpt>
      <trkpt lat="45.64994" lon="5.93632">
        <ele>363</ele>
        <time>2021-09-10T08:49:35.679Z</time>
      </trkpt>
      <trkpt lat="45.64997" lon="5.93633">
        <ele>363</ele>
        <time>2021-09-10T08:49:36.679Z</time>
      </trkpt>
      <trkpt lat="45.65" lon="5.93635">
        <ele>363</ele>
        <time>2021-09-10T08:49:37.679Z</time>
      </trkpt>
      <trkpt lat="45.65003" lon="5.93637">
        <ele>363</ele>
        <time>2021-09-10T08:49:38.679Z</time>
      </trkpt>
      <trkpt lat="45.65006" lon="5.93639">
        <ele>363</ele>
        <time>2021-09-10T08:49:39.678Z</time>
      </trkpt>
      <trkpt lat="45.65009" lon="5.93641">
        <ele>363</ele>
        <time>2021-09-10T08:49:40.678Z</time>
      </trkpt>
      <trkpt lat="45.65011" lon="5.93642">
        <ele>363</ele>
        <time>2021-09-10T08:49:41.679Z</time>
      </trkpt>
      <trkpt lat="45.65014" lon="5.93645">
        <ele>363</ele>
        <time>2021-09-10T08:49:42.679Z</time>
      </trkpt>
      <trkpt lat="45.65017" lon="5.93647">
        <ele>363</ele>
        <time>2021-09-10T08:49:43.679Z</time>
      </trkpt>
      <trkpt lat="45.6502" lon="5.93649">
        <ele>363</ele>
        <time>2021-09-10T08:49:44.678Z</time>
      </trkpt>
      <trkpt lat="45.65023" lon="5.93651">
        <ele>364</ele>
        <time>2021-09-10T08:49:45.679Z</time>
      </trkpt>
      <trkpt lat="45.65026" lon="5.93653">
        <ele>364</ele>
        <time>2021-09-10T08:49:46.679Z</time>
      </trkpt>
      <trkpt lat="45.65029" lon="5.93655">
        <ele>364</ele>
        <time>2021-09-10T08:49:47.679Z</time>
      </trkpt>
      <trkpt lat="45.65032" lon="5.93657">
        <ele>364</ele>
        <time>2021-09-10T08:49:48.679Z</time>
      </trkpt>
      <trkpt lat="45.65035" lon="5.93659">
        <ele>364</ele>
        <time>2021-09-10T08:49:49.679Z</time>
      </trkpt>
      <trkpt lat="45.65037" lon="5.93662">
        <ele>364</ele>
        <time>2021-09-10T08:49:50.679Z</time>
      </trkpt>
      <trkpt lat="45.6504" lon="5.93664">
        <ele>364</ele>
        <time>2021-09-10T08:49:51.679Z</time>
      </trkpt>
      <trkpt lat="45.65043" lon="5.93666">
        <ele>364</ele>
        <time>2021-09-10T08:49:52.679Z</time>
      </trkpt>
      <trkpt lat="45.65046" lon="5.93668">
        <ele>364</ele>
        <time>2021-09-10T08:49:53.679Z</time>
      </trkpt>
      <trkpt lat="45.65049" lon="5.9367">
        <ele>364</ele>
        <time>2021-09-10T08:49:54.679Z</time>
      </trkpt>
      <trkpt lat="45.65052" lon="5.93672">
        <ele>364</ele>
        <time>2021-09-10T08:49:55.678Z</time>
      </trkpt>
      <trkpt lat="45.65054" lon="5.93674">
        <ele>364</ele>
        <time>2021-09-10T08:49:56.679Z</time>
      </trkpt>
      <trkpt lat="45.65057" lon="5.93676">
        <ele>364</ele>
        <time>2021-09-10T08:49:57.679Z</time>
      </trkpt>
      <trkpt lat="45.6506" lon="5.93678">
        <ele>364</ele>
        <time>2021-09-10T08:49:58.679Z</time>
      </trkpt>
      <trkpt lat="45.65063" lon="5.9368">
        <ele>364</ele>
        <time>2021-09-10T08:49:59.678Z</time>
      </trkpt>
      <trkpt lat="45.65065" lon="5.93683">
        <ele>364</ele>
        <time>2021-09-10T08:50:00.679Z</time>
      </trkpt>
      <trkpt lat="45.65068" lon="5.93685">
        <ele>364</ele>
        <time>2021-09-10T08:50:01.679Z</time>
      </trkpt>
      <trkpt lat="45.65071" lon="5.93687">
        <ele>363</ele>
        <time>2021-09-10T08:50:02.678Z</time>
      </trkpt>
      <trkpt lat="45.65074" lon="5.93689">
        <ele>363</ele>
        <time>2021-09-10T08:50:03.678Z</time>
      </trkpt>
      <trkpt lat="45.65077" lon="5.93691">
        <ele>363</ele>
        <time>2021-09-10T08:50:04.678Z</time>
      </trkpt>
      <trkpt lat="45.6508" lon="5.93693">
        <ele>363</ele>
        <time>2021-09-10T08:50:05.678Z</time>
      </trkpt>
      <trkpt lat="45.65083" lon="5.93695">
        <ele>363</ele>
        <time>2021-09-10T08:50:06.678Z</time>
      </trkpt>
      <trkpt lat="45.65086" lon="5.93697">
        <ele>363</ele>
        <time>2021-09-10T08:50:07.679Z</time>
      </trkpt>
      <trkpt lat="45.65089" lon="5.937">
        <ele>364</ele>
        <time>2021-09-10T08:50:08.678Z</time>
      </trkpt>
      <trkpt lat="45.65091" lon="5.93702">
        <ele>364</ele>
        <time>2021-09-10T08:50:09.678Z</time>
      </trkpt>
      <trkpt lat="45.65094" lon="5.93704">
        <ele>365</ele>
        <time>2021-09-10T08:50:10.679Z</time>
      </trkpt>
      <trkpt lat="45.65097" lon="5.93706">
        <ele>364</ele>
        <time>2021-09-10T08:50:11.678Z</time>
      </trkpt>
      <trkpt lat="45.651" lon="5.93708">
        <ele>364</ele>
        <time>2021-09-10T08:50:12.679Z</time>
      </trkpt>
      <trkpt lat="45.65103" lon="5.9371">
        <ele>365</ele>
        <time>2021-09-10T08:50:13.678Z</time>
      </trkpt>
      <trkpt lat="45.65106" lon="5.93712">
        <ele>366</ele>
        <time>2021-09-10T08:50:14.679Z</time>
      </trkpt>
      <trkpt lat="45.65109" lon="5.93714">
        <ele>367</ele>
        <time>2021-09-10T08:50:15.678Z</time>
      </trkpt>
      <trkpt lat="45.65111" lon="5.93716">
        <ele>367</ele>
        <time>2021-09-10T08:50:16.679Z</time>
      </trkpt>
      <trkpt lat="45.65114" lon="5.93718">
        <ele>368</ele>
        <time>2021-09-10T08:50:17.679Z</time>
      </trkpt>
      <trkpt lat="45.65117" lon="5.9372">
        <ele>369</ele>
        <time>2021-09-10T08:50:18.679Z</time>
      </trkpt>
      <trkpt lat="45.65119" lon="5.93722">
        <ele>369</ele>
        <time>2021-09-10T08:50:19.678Z</time>
      </trkpt>
      <trkpt lat="45.65122" lon="5.93723">
        <ele>369</ele>
        <time>2021-09-10T08:50:20.679Z</time>
      </trkpt>
      <trkpt lat="45.65125" lon="5.93725">
        <ele>369</ele>
        <time>2021-09-10T08:50:21.679Z</time>
      </trkpt>
      <trkpt lat="45.65127" lon="5.93727">
        <ele>369</ele>
        <time>2021-09-10T08:50:22.678Z</time>
      </trkpt>
      <trkpt lat="45.6513" lon="5.93729">
        <ele>369</ele>
        <time>2021-09-10T08:50:23.678Z</time>
      </trkpt>
      <trkpt lat="45.65133" lon="5.93731">
        <ele>369</ele>
        <time>2021-09-10T08:50:24.679Z</time>
      </trkpt>
      <trkpt lat="45.65136" lon="5.93733">
        <ele>369</ele>
        <time>2021-09-10T08:50:25.678Z</time>
      </trkpt>
      <trkpt lat="45.65138" lon="5.93735">
        <ele>369</ele>
        <time>2021-09-10T08:50:26.679Z</time>
      </trkpt>
      <trkpt lat="45.65141" lon="5.93738">
        <ele>370</ele>
        <time>2021-09-10T08:50:27.679Z</time>
      </trkpt>
      <trkpt lat="45.65143" lon="5.93739">
        <ele>370</ele>
        <time>2021-09-10T08:50:28.678Z</time>
      </trkpt>
      <trkpt lat="45.65146" lon="5.93741">
        <ele>370</ele>
        <time>2021-09-10T08:50:29.679Z</time>
      </trkpt>
      <trkpt lat="45.65148" lon="5.93743">
        <ele>371</ele>
        <time>2021-09-10T08:50:30.678Z</time>
      </trkpt>
      <trkpt lat="45.65151" lon="5.93745">
        <ele>372</ele>
        <time>2021-09-10T08:50:31.679Z</time>
      </trkpt>
      <trkpt lat="45.65154" lon="5.93747">
        <ele>373</ele>
        <time>2021-09-10T08:50:32.679Z</time>
      </trkpt>
      <trkpt lat="45.65156" lon="5.93749">
        <ele>373</ele>
        <time>2021-09-10T08:50:33.678Z</time>
      </trkpt>
      <trkpt lat="45.65159" lon="5.93751">
        <ele>373</ele>
        <time>2021-09-10T08:50:34.679Z</time>
      </trkpt>
      <trkpt lat="45.65162" lon="5.93753">
        <ele>374</ele>
        <time>2021-09-10T08:50:35.679Z</time>
      </trkpt>
      <trkpt lat="45.65165" lon="5.93755">
        <ele>374</ele>
        <time>2021-09-10T08:50:36.679Z</time>
      </trkpt>
      <trkpt lat="45.65168" lon="5.93757">
        <ele>374</ele>
        <time>2021-09-10T08:50:37.679Z</time>
      </trkpt>
      <trkpt lat="45.6517" lon="5.93759">
        <ele>374</ele>
        <time>2021-09-10T08:50:38.678Z</time>
      </trkpt>
      <trkpt lat="45.65173" lon="5.93761">
        <ele>375</ele>
        <time>2021-09-10T08:50:39.678Z</time>
      </trkpt>
      <trkpt lat="45.65176" lon="5.93763">
        <ele>375</ele>
        <time>2021-09-10T08:50:40.679Z</time>
      </trkpt>
      <trkpt lat="45.65179" lon="5.93765">
        <ele>375</ele>
        <time>2021-09-10T08:50:41.678Z</time>
      </trkpt>
      <trkpt lat="45.65182" lon="5.93767">
        <ele>374</ele>
        <time>2021-09-10T08:50:42.679Z</time>
      </trkpt>
      <trkpt lat="45.65185" lon="5.93769">
        <ele>374</ele>
        <time>2021-09-10T08:50:43.679Z</time>
      </trkpt>
      <trkpt lat="45.65187" lon="5.93771">
        <ele>374</ele>
        <time>2021-09-10T08:50:44.679Z</time>
      </trkpt>
      <trkpt lat="45.6519" lon="5.93773">
        <ele>375</ele>
        <time>2021-09-10T08:50:45.679Z</time>
      </trkpt>
      <trkpt lat="45.65193" lon="5.93775">
        <ele>375</ele>
        <time>2021-09-10T08:50:46.679Z</time>
      </trkpt>
      <trkpt lat="45.65196" lon="5.93777">
        <ele>375</ele>
        <time>2021-09-10T08:50:47.679Z</time>
      </trkpt>
      <trkpt lat="45.65199" lon="5.93779">
        <ele>375</ele>
        <time>2021-09-10T08:50:48.678Z</time>
      </trkpt>
      <trkpt lat="45.65201" lon="5.93781">
        <ele>376</ele>
        <time>2021-09-10T08:50:49.679Z</time>
      </trkpt>
      <trkpt lat="45.65204" lon="5.93783">
        <ele>376</ele>
        <time>2021-09-10T08:50:50.679Z</time>
      </trkpt>
      <trkpt lat="45.65207" lon="5.93784">
        <ele>375</ele>
        <time>2021-09-10T08:50:51.679Z</time>
      </trkpt>
      <trkpt lat="45.6521" lon="5.93786">
        <ele>375</ele>
        <time>2021-09-10T08:50:52.679Z</time>
      </trkpt>
      <trkpt lat="45.65213" lon="5.93788">
        <ele>376</ele>
        <time>2021-09-10T08:50:53.678Z</time>
      </trkpt>
      <trkpt lat="45.65216" lon="5.93789">
        <ele>376</ele>
        <time>2021-09-10T08:50:54.679Z</time>
      </trkpt>
      <trkpt lat="45.65218" lon="5.9379">
        <ele>376</ele>
        <time>2021-09-10T08:50:55.679Z</time>
      </trkpt>
      <trkpt lat="45.65221" lon="5.93791">
        <ele>376</ele>
        <time>2021-09-10T08:50:56.678Z</time>
      </trkpt>
      <trkpt lat="45.65224" lon="5.93791">
        <ele>377</ele>
        <time>2021-09-10T08:50:57.679Z</time>
      </trkpt>
      <trkpt lat="45.65227" lon="5.93792">
        <ele>378</ele>
        <time>2021-09-10T08:50:58.679Z</time>
      </trkpt>
      <trkpt lat="45.6523" lon="5.93792">
        <ele>378</ele>
        <time>2021-09-10T08:50:59.679Z</time>
      </trkpt>
      <trkpt lat="45.65234" lon="5.93792">
        <ele>378</ele>
        <time>2021-09-10T08:51:00.679Z</time>
      </trkpt>
      <trkpt lat="45.65237" lon="5.93792">
        <ele>378</ele>
        <time>2021-09-10T08:51:01.679Z</time>
      </trkpt>
      <trkpt lat="45.65241" lon="5.93793">
        <ele>378</ele>
        <time>2021-09-10T08:51:02.679Z</time>
      </trkpt>
      <trkpt lat="45.65244" lon="5.93794">
        <ele>378</ele>
        <time>2021-09-10T08:51:03.679Z</time>
      </trkpt>
      <trkpt lat="45.65248" lon="5.93795">
        <ele>378</ele>
        <time>2021-09-10T08:51:04.678Z</time>
      </trkpt>
      <trkpt lat="45.65253" lon="5.93795">
        <ele>377</ele>
        <time>2021-09-10T08:51:05.678Z</time>
      </trkpt>
      <trkpt lat="45.65257" lon="5.93796">
        <ele>377</ele>
        <time>2021-09-10T08:51:06.679Z</time>
      </trkpt>
      <trkpt lat="45.65262" lon="5.93797">
        <ele>377</ele>
        <time>2021-09-10T08:51:07.679Z</time>
      </trkpt>
      <trkpt lat="45.65267" lon="5.93797">
        <ele>376</ele>
        <time>2021-09-10T08:51:08.679Z</time>
      </trkpt>
      <trkpt lat="45.65271" lon="5.93797">
        <ele>375</ele>
        <time>2021-09-10T08:51:09.679Z</time>
      </trkpt>
      <trkpt lat="45.65276" lon="5.93798">
        <ele>375</ele>
        <time>2021-09-10T08:51:10.678Z</time>
      </trkpt>
      <trkpt lat="45.6528" lon="5.93798">
        <ele>375</ele>
        <time>2021-09-10T08:51:11.679Z</time>
      </trkpt>
      <trkpt lat="45.65285" lon="5.93799">
        <ele>375</ele>
        <time>2021-09-10T08:51:12.679Z</time>
      </trkpt>
      <trkpt lat="45.6529" lon="5.938">
        <ele>374</ele>
        <time>2021-09-10T08:51:13.678Z</time>
      </trkpt>
      <trkpt lat="45.65294" lon="5.938">
        <ele>375</ele>
        <time>2021-09-10T08:51:14.678Z</time>
      </trkpt>
      <trkpt lat="45.65299" lon="5.938">
        <ele>374</ele>
        <time>2021-09-10T08:51:15.678Z</time>
      </trkpt>
      <trkpt lat="45.65304" lon="5.93801">
        <ele>374</ele>
        <time>2021-09-10T08:51:16.679Z</time>
      </trkpt>
      <trkpt lat="45.65309" lon="5.93801">
        <ele>374</ele>
        <time>2021-09-10T08:51:17.679Z</time>
      </trkpt>
      <trkpt lat="45.65314" lon="5.93802">
        <ele>374</ele>
        <time>2021-09-10T08:51:18.679Z</time>
      </trkpt>
      <trkpt lat="45.65318" lon="5.93802">
        <ele>374</ele>
        <time>2021-09-10T08:51:19.679Z</time>
      </trkpt>
      <trkpt lat="45.65323" lon="5.93803">
        <ele>373</ele>
        <time>2021-09-10T08:51:20.679Z</time>
      </trkpt>
      <trkpt lat="45.65328" lon="5.93803">
        <ele>373</ele>
        <time>2021-09-10T08:51:21.679Z</time>
      </trkpt>
      <trkpt lat="45.65333" lon="5.93804">
        <ele>373</ele>
        <time>2021-09-10T08:51:22.679Z</time>
      </trkpt>
      <trkpt lat="45.65337" lon="5.93804">
        <ele>373</ele>
        <time>2021-09-10T08:51:23.678Z</time>
      </trkpt>
      <trkpt lat="45.65342" lon="5.93805">
        <ele>373</ele>
        <time>2021-09-10T08:51:24.679Z</time>
      </trkpt>
      <trkpt lat="45.65347" lon="5.93805">
        <ele>373</ele>
        <time>2021-09-10T08:51:25.678Z</time>
      </trkpt>
      <trkpt lat="45.65351" lon="5.93806">
        <ele>373</ele>
        <time>2021-09-10T08:51:26.679Z</time>
      </trkpt>
      <trkpt lat="45.65356" lon="5.93806">
        <ele>373</ele>
        <time>2021-09-10T08:51:27.679Z</time>
      </trkpt>
      <trkpt lat="45.65359" lon="5.93807">
        <ele>373</ele>
        <time>2021-09-10T08:51:28.679Z</time>
      </trkpt>
      <trkpt lat="45.65363" lon="5.93807">
        <ele>373</ele>
        <time>2021-09-10T08:51:29.678Z</time>
      </trkpt>
      <trkpt lat="45.65367" lon="5.93807">
        <ele>373</ele>
        <time>2021-09-10T08:51:30.679Z</time>
      </trkpt>
      <trkpt lat="45.65371" lon="5.93808">
        <ele>372</ele>
        <time>2021-09-10T08:51:31.678Z</time>
      </trkpt>
      <trkpt lat="45.65375" lon="5.93808">
        <ele>372</ele>
        <time>2021-09-10T08:51:32.679Z</time>
      </trkpt>
      <trkpt lat="45.65378" lon="5.93808">
        <ele>372</ele>
        <time>2021-09-10T08:51:33.679Z</time>
      </trkpt>
      <trkpt lat="45.65382" lon="5.93809">
        <ele>372</ele>
        <time>2021-09-10T08:51:34.678Z</time>
      </trkpt>
      <trkpt lat="45.65385" lon="5.93809">
        <ele>372</ele>
        <time>2021-09-10T08:51:35.679Z</time>
      </trkpt>
      <trkpt lat="45.65388" lon="5.93809">
        <ele>372</ele>
        <time>2021-09-10T08:51:36.678Z</time>
      </trkpt>
      <trkpt lat="45.65391" lon="5.9381">
        <ele>372</ele>
        <time>2021-09-10T08:51:37.679Z</time>
      </trkpt>
      <trkpt lat="45.65395" lon="5.9381">
        <ele>373</ele>
        <time>2021-09-10T08:51:38.679Z</time>
      </trkpt>
      <trkpt lat="45.65398" lon="5.9381">
        <ele>373</ele>
        <time>2021-09-10T08:51:39.679Z</time>
      </trkpt>
      <trkpt lat="45.65401" lon="5.93811">
        <ele>373</ele>
        <time>2021-09-10T08:51:40.679Z</time>
      </trkpt>
      <trkpt lat="45.65405" lon="5.93811">
        <ele>373</ele>
        <time>2021-09-10T08:51:41.679Z</time>
      </trkpt>
      <trkpt lat="45.65408" lon="5.93811">
        <ele>373</ele>
        <time>2021-09-10T08:51:42.679Z</time>
      </trkpt>
      <trkpt lat="45.65411" lon="5.93811">
        <ele>373</ele>
        <time>2021-09-10T08:51:43.679Z</time>
      </trkpt>
      <trkpt lat="45.65414" lon="5.93812">
        <ele>374</ele>
        <time>2021-09-10T08:51:44.678Z</time>
      </trkpt>
      <trkpt lat="45.65417" lon="5.93812">
        <ele>374</ele>
        <time>2021-09-10T08:51:45.678Z</time>
      </trkpt>
      <trkpt lat="45.6542" lon="5.93813">
        <ele>375</ele>
        <time>2021-09-10T08:51:46.678Z</time>
      </trkpt>
      <trkpt lat="45.65423" lon="5.93813">
        <ele>377</ele>
        <time>2021-09-10T08:51:47.678Z</time>
      </trkpt>
      <trkpt lat="45.65426" lon="5.93814">
        <ele>377</ele>
        <time>2021-09-10T08:51:48.678Z</time>
      </trkpt>
      <trkpt lat="45.65429" lon="5.93814">
        <ele>377</ele>
        <time>2021-09-10T08:51:49.678Z</time>
      </trkpt>
      <trkpt lat="45.65432" lon="5.93814">
        <ele>377</ele>
        <time>2021-09-10T08:51:50.678Z</time>
      </trkpt>
      <trkpt lat="45.65435" lon="5.93814">
        <ele>377</ele>
        <time>2021-09-10T08:51:51.679Z</time>
      </trkpt>
      <trkpt lat="45.65438" lon="5.93815">
        <ele>377</ele>
        <time>2021-09-10T08:51:52.678Z</time>
      </trkpt>
      <trkpt lat="45.65441" lon="5.93815">
        <ele>377</ele>
        <time>2021-09-10T08:51:53.678Z</time>
      </trkpt>
      <trkpt lat="45.65444" lon="5.93815">
        <ele>377</ele>
        <time>2021-09-10T08:51:54.679Z</time>
      </trkpt>
      <trkpt lat="45.65447" lon="5.93815">
        <ele>378</ele>
        <time>2021-09-10T08:51:55.678Z</time>
      </trkpt>
      <trkpt lat="45.6545" lon="5.93815">
        <ele>378</ele>
        <time>2021-09-10T08:51:56.679Z</time>
      </trkpt>
      <trkpt lat="45.65453" lon="5.93816">
        <ele>379</ele>
        <time>2021-09-10T08:51:57.678Z</time>
      </trkpt>
      <trkpt lat="45.65455" lon="5.93817">
        <ele>380</ele>
        <time>2021-09-10T08:51:58.678Z</time>
      </trkpt>
      <trkpt lat="45.65458" lon="5.93817">
        <ele>380</ele>
        <time>2021-09-10T08:51:59.679Z</time>
      </trkpt>
      <trkpt lat="45.65461" lon="5.93818">
        <ele>381</ele>
        <time>2021-09-10T08:52:00.679Z</time>
      </trkpt>
      <trkpt lat="45.65464" lon="5.93818">
        <ele>382</ele>
        <time>2021-09-10T08:52:01.679Z</time>
      </trkpt>
      <trkpt lat="45.65467" lon="5.93819">
        <ele>382</ele>
        <time>2021-09-10T08:52:02.679Z</time>
      </trkpt>
      <trkpt lat="45.6547" lon="5.9382">
        <ele>383</ele>
        <time>2021-09-10T08:52:03.679Z</time>
      </trkpt>
      <trkpt lat="45.65472" lon="5.93821">
        <ele>383</ele>
        <time>2021-09-10T08:52:04.679Z</time>
      </trkpt>
      <trkpt lat="45.65475" lon="5.93822">
        <ele>382</ele>
        <time>2021-09-10T08:52:05.678Z</time>
      </trkpt>
      <trkpt lat="45.65478" lon="5.93823">
        <ele>382</ele>
        <time>2021-09-10T08:52:06.678Z</time>
      </trkpt>
      <trkpt lat="45.6548" lon="5.93824">
        <ele>382</ele>
        <time>2021-09-10T08:52:07.679Z</time>
      </trkpt>
      <trkpt lat="45.65483" lon="5.93825">
        <ele>382</ele>
        <time>2021-09-10T08:52:08.678Z</time>
      </trkpt>
      <trkpt lat="45.65486" lon="5.93826">
        <ele>382</ele>
        <time>2021-09-10T08:52:09.678Z</time>
      </trkpt>
      <trkpt lat="45.65488" lon="5.93828">
        <ele>383</ele>
        <time>2021-09-10T08:52:10.678Z</time>
      </trkpt>
      <trkpt lat="45.65491" lon="5.93829">
        <ele>382</ele>
        <time>2021-09-10T08:52:11.678Z</time>
      </trkpt>
      <trkpt lat="45.65493" lon="5.93831">
        <ele>382</ele>
        <time>2021-09-10T08:52:12.679Z</time>
      </trkpt>
      <trkpt lat="45.65496" lon="5.93832">
        <ele>382</ele>
        <time>2021-09-10T08:52:13.678Z</time>
      </trkpt>
      <trkpt lat="45.65498" lon="5.93834">
        <ele>382</ele>
        <time>2021-09-10T08:52:14.679Z</time>
      </trkpt>
      <trkpt lat="45.65501" lon="5.93835">
        <ele>382</ele>
        <time>2021-09-10T08:52:15.678Z</time>
      </trkpt>
      <trkpt lat="45.65503" lon="5.93837">
        <ele>381</ele>
        <time>2021-09-10T08:52:16.679Z</time>
      </trkpt>
      <trkpt lat="45.65505" lon="5.93838">
        <ele>381</ele>
        <time>2021-09-10T08:52:17.679Z</time>
      </trkpt>
      <trkpt lat="45.65508" lon="5.9384">
        <ele>382</ele>
        <time>2021-09-10T08:52:18.679Z</time>
      </trkpt>
      <trkpt lat="45.6551" lon="5.93842">
        <ele>382</ele>
        <time>2021-09-10T08:52:19.679Z</time>
      </trkpt>
      <trkpt lat="45.65512" lon="5.93844">
        <ele>382</ele>
        <time>2021-09-10T08:52:20.678Z</time>
      </trkpt>
      <trkpt lat="45.65515" lon="5.93845">
        <ele>383</ele>
        <time>2021-09-10T08:52:21.678Z</time>
      </trkpt>
      <trkpt lat="45.65517" lon="5.93846">
        <ele>383</ele>
        <time>2021-09-10T08:52:22.679Z</time>
      </trkpt>
      <trkpt lat="45.65519" lon="5.93848">
        <ele>384</ele>
        <time>2021-09-10T08:52:23.679Z</time>
      </trkpt>
      <trkpt lat="45.65522" lon="5.93849">
        <ele>384</ele>
        <time>2021-09-10T08:52:24.679Z</time>
      </trkpt>
      <trkpt lat="45.65524" lon="5.93851">
        <ele>385</ele>
        <time>2021-09-10T08:52:25.678Z</time>
      </trkpt>
      <trkpt lat="45.65526" lon="5.93852">
        <ele>385</ele>
        <time>2021-09-10T08:52:26.678Z</time>
      </trkpt>
      <trkpt lat="45.65528" lon="5.93853">
        <ele>386</ele>
        <time>2021-09-10T08:52:27.679Z</time>
      </trkpt>
      <trkpt lat="45.6553" lon="5.93855">
        <ele>387</ele>
        <time>2021-09-10T08:52:28.678Z</time>
      </trkpt>
      <trkpt lat="45.65532" lon="5.93856">
        <ele>386</ele>
        <time>2021-09-10T08:52:29.679Z</time>
      </trkpt>
      <trkpt lat="45.65535" lon="5.93857">
        <ele>386</ele>
        <time>2021-09-10T08:52:30.679Z</time>
      </trkpt>
      <trkpt lat="45.65537" lon="5.93858">
        <ele>385</ele>
        <time>2021-09-10T08:52:31.679Z</time>
      </trkpt>
      <trkpt lat="45.6554" lon="5.93858">
        <ele>385</ele>
        <time>2021-09-10T08:52:32.679Z</time>
      </trkpt>
      <trkpt lat="45.65541" lon="5.93857">
        <ele>385</ele>
        <time>2021-09-10T08:52:33.678Z</time>
      </trkpt>
      <trkpt lat="45.65544" lon="5.93857">
        <ele>385</ele>
        <time>2021-09-10T08:52:34.679Z</time>
      </trkpt>
      <trkpt lat="45.65547" lon="5.93857">
        <ele>385</ele>
        <time>2021-09-10T08:52:35.678Z</time>
      </trkpt>
      <trkpt lat="45.6555" lon="5.93856">
        <ele>386</ele>
        <time>2021-09-10T08:52:36.679Z</time>
      </trkpt>
      <trkpt lat="45.65553" lon="5.93855">
        <ele>387</ele>
        <time>2021-09-10T08:52:37.679Z</time>
      </trkpt>
      <trkpt lat="45.65555" lon="5.93855">
        <ele>387</ele>
        <time>2021-09-10T08:52:38.678Z</time>
      </trkpt>
      <trkpt lat="45.65558" lon="5.93855">
        <ele>387</ele>
        <time>2021-09-10T08:52:39.679Z</time>
      </trkpt>
      <trkpt lat="45.6556" lon="5.93854">
        <ele>387</ele>
        <time>2021-09-10T08:52:40.679Z</time>
      </trkpt>
      <trkpt lat="45.65563" lon="5.93854">
        <ele>386</ele>
        <time>2021-09-10T08:52:41.679Z</time>
      </trkpt>
      <trkpt lat="45.65566" lon="5.93853">
        <ele>386</ele>
        <time>2021-09-10T08:52:42.678Z</time>
      </trkpt>
      <trkpt lat="45.65568" lon="5.93853">
        <ele>385</ele>
        <time>2021-09-10T08:52:43.678Z</time>
      </trkpt>
      <trkpt lat="45.65571" lon="5.93852">
        <ele>385</ele>
        <time>2021-09-10T08:52:44.679Z</time>
      </trkpt>
      <trkpt lat="45.65574" lon="5.93852">
        <ele>385</ele>
        <time>2021-09-10T08:52:45.679Z</time>
      </trkpt>
      <trkpt lat="45.65577" lon="5.93852">
        <ele>385</ele>
        <time>2021-09-10T08:52:46.679Z</time>
      </trkpt>
      <trkpt lat="45.65579" lon="5.93852">
        <ele>385</ele>
        <time>2021-09-10T08:52:47.678Z</time>
      </trkpt>
      <trkpt lat="45.65582" lon="5.93852">
        <ele>385</ele>
        <time>2021-09-10T08:52:48.679Z</time>
      </trkpt>
      <trkpt lat="45.65585" lon="5.93851">
        <ele>385</ele>
        <time>2021-09-10T08:52:49.679Z</time>
      </trkpt>
      <trkpt lat="45.65587" lon="5.93851">
        <ele>386</ele>
        <time>2021-09-10T08:52:50.678Z</time>
      </trkpt>
      <trkpt lat="45.65591" lon="5.9385">
        <ele>386</ele>
        <time>2021-09-10T08:52:51.678Z</time>
      </trkpt>
      <trkpt lat="45.65593" lon="5.9385">
        <ele>386</ele>
        <time>2021-09-10T08:52:52.679Z</time>
      </trkpt>
      <trkpt lat="45.65596" lon="5.93849">
        <ele>387</ele>
        <time>2021-09-10T08:52:53.679Z</time>
      </trkpt>
      <trkpt lat="45.65599" lon="5.93849">
        <ele>387</ele>
        <time>2021-09-10T08:52:54.678Z</time>
      </trkpt>
      <trkpt lat="45.65602" lon="5.93848">
        <ele>386</ele>
        <time>2021-09-10T08:52:55.679Z</time>
      </trkpt>
      <trkpt lat="45.65605" lon="5.93848">
        <ele>386</ele>
        <time>2021-09-10T08:52:56.679Z</time>
      </trkpt>
      <trkpt lat="45.65608" lon="5.93848">
        <ele>386</ele>
        <time>2021-09-10T08:52:57.678Z</time>
      </trkpt>
      <trkpt lat="45.6561" lon="5.93847">
        <ele>387</ele>
        <time>2021-09-10T08:52:58.679Z</time>
      </trkpt>
      <trkpt lat="45.65613" lon="5.93847">
        <ele>387</ele>
        <time>2021-09-10T08:52:59.678Z</time>
      </trkpt>
      <trkpt lat="45.65616" lon="5.93846">
        <ele>387</ele>
        <time>2021-09-10T08:53:00.679Z</time>
      </trkpt>
      <trkpt lat="45.65619" lon="5.93845">
        <ele>387</ele>
        <time>2021-09-10T08:53:01.679Z</time>
      </trkpt>
      <trkpt lat="45.65622" lon="5.93845">
        <ele>387</ele>
        <time>2021-09-10T08:53:02.679Z</time>
      </trkpt>
      <trkpt lat="45.65624" lon="5.93844">
        <ele>387</ele>
        <time>2021-09-10T08:53:03.678Z</time>
      </trkpt>
      <trkpt lat="45.65627" lon="5.93844">
        <ele>387</ele>
        <time>2021-09-10T08:53:04.679Z</time>
      </trkpt>
      <trkpt lat="45.6563" lon="5.93843">
        <ele>387</ele>
        <time>2021-09-10T08:53:05.679Z</time>
      </trkpt>
      <trkpt lat="45.65633" lon="5.93842">
        <ele>386</ele>
        <time>2021-09-10T08:53:06.679Z</time>
      </trkpt>
      <trkpt lat="45.65636" lon="5.93842">
        <ele>385</ele>
        <time>2021-09-10T08:53:07.679Z</time>
      </trkpt>
      <trkpt lat="45.65639" lon="5.93841">
        <ele>385</ele>
        <time>2021-09-10T08:53:08.678Z</time>
      </trkpt>
      <trkpt lat="45.65642" lon="5.93841">
        <ele>385</ele>
        <time>2021-09-10T08:53:09.679Z</time>
      </trkpt>
      <trkpt lat="45.65644" lon="5.9384">
        <ele>385</ele>
        <time>2021-09-10T08:53:10.678Z</time>
      </trkpt>
      <trkpt lat="45.65647" lon="5.9384">
        <ele>385</ele>
        <time>2021-09-10T08:53:11.679Z</time>
      </trkpt>
      <trkpt lat="45.6565" lon="5.93839">
        <ele>385</ele>
        <time>2021-09-10T08:53:12.679Z</time>
      </trkpt>
      <trkpt lat="45.65653" lon="5.93839">
        <ele>386</ele>
        <time>2021-09-10T08:53:13.679Z</time>
      </trkpt>
      <trkpt lat="45.65655" lon="5.93838">
        <ele>386</ele>
        <time>2021-09-10T08:53:14.679Z</time>
      </trkpt>
      <trkpt lat="45.65658" lon="5.93838">
        <ele>387</ele>
        <time>2021-09-10T08:53:15.678Z</time>
      </trkpt>
      <trkpt lat="45.65661" lon="5.93837">
        <ele>388</ele>
        <time>2021-09-10T08:53:16.678Z</time>
      </trkpt>
      <trkpt lat="45.65663" lon="5.93837">
        <ele>388</ele>
        <time>2021-09-10T08:53:17.678Z</time>
      </trkpt>
      <trkpt lat="45.65666" lon="5.93836">
        <ele>388</ele>
        <time>2021-09-10T08:53:18.678Z</time>
      </trkpt>
      <trkpt lat="45.65668" lon="5.93836">
        <ele>388</ele>
        <time>2021-09-10T08:53:19.679Z</time>
      </trkpt>
      <trkpt lat="45.65671" lon="5.93835">
        <ele>388</ele>
        <time>2021-09-10T08:53:20.678Z</time>
      </trkpt>
      <trkpt lat="45.65673" lon="5.93835">
        <ele>388</ele>
        <time>2021-09-10T08:53:21.678Z</time>
      </trkpt>
      <trkpt lat="45.65676" lon="5.93834">
        <ele>388</ele>
        <time>2021-09-10T08:53:22.679Z</time>
      </trkpt>
      <trkpt lat="45.65678" lon="5.93834">
        <ele>388</ele>
        <time>2021-09-10T08:53:23.679Z</time>
      </trkpt>
      <trkpt lat="45.65681" lon="5.93833">
        <ele>389</ele>
        <time>2021-09-10T08:53:24.679Z</time>
      </trkpt>
      <trkpt lat="45.65684" lon="5.93832">
        <ele>390</ele>
        <time>2021-09-10T08:53:25.679Z</time>
      </trkpt>
      <trkpt lat="45.65686" lon="5.93832">
        <ele>390</ele>
        <time>2021-09-10T08:53:26.678Z</time>
      </trkpt>
      <trkpt lat="45.65689" lon="5.93831">
        <ele>391</ele>
        <time>2021-09-10T08:53:27.679Z</time>
      </trkpt>
      <trkpt lat="45.65692" lon="5.93831">
        <ele>392</ele>
        <time>2021-09-10T08:53:28.679Z</time>
      </trkpt>
      <trkpt lat="45.65694" lon="5.9383">
        <ele>391</ele>
        <time>2021-09-10T08:53:29.679Z</time>
      </trkpt>
      <trkpt lat="45.65697" lon="5.9383">
        <ele>392</ele>
        <time>2021-09-10T08:53:30.679Z</time>
      </trkpt>
      <trkpt lat="45.657" lon="5.93829">
        <ele>392</ele>
        <time>2021-09-10T08:53:31.679Z</time>
      </trkpt>
      <trkpt lat="45.65702" lon="5.93829">
        <ele>392</ele>
        <time>2021-09-10T08:53:32.679Z</time>
      </trkpt>
      <trkpt lat="45.65705" lon="5.93828">
        <ele>393</ele>
        <time>2021-09-10T08:53:33.679Z</time>
      </trkpt>
      <trkpt lat="45.65708" lon="5.93828">
        <ele>393</ele>
        <time>2021-09-10T08:53:34.678Z</time>
      </trkpt>
      <trkpt lat="45.6571" lon="5.93827">
        <ele>393</ele>
        <time>2021-09-10T08:53:35.678Z</time>
      </trkpt>
      <trkpt lat="45.65713" lon="5.93827">
        <ele>393</ele>
        <time>2021-09-10T08:53:36.679Z</time>
      </trkpt>
      <trkpt lat="45.65716" lon="5.93827">
        <ele>393</ele>
        <time>2021-09-10T08:53:37.679Z</time>
      </trkpt>
      <trkpt lat="45.65719" lon="5.93826">
        <ele>393</ele>
        <time>2021-09-10T08:53:38.679Z</time>
      </trkpt>
      <trkpt lat="45.65721" lon="5.93826">
        <ele>394</ele>
        <time>2021-09-10T08:53:39.679Z</time>
      </trkpt>
      <trkpt lat="45.65724" lon="5.93825">
        <ele>394</ele>
        <time>2021-09-10T08:53:40.678Z</time>
      </trkpt>
      <trkpt lat="45.65727" lon="5.93824">
        <ele>395</ele>
        <time>2021-09-10T08:53:41.679Z</time>
      </trkpt>
      <trkpt lat="45.65729" lon="5.93824">
        <ele>395</ele>
        <time>2021-09-10T08:53:42.678Z</time>
      </trkpt>
      <trkpt lat="45.65732" lon="5.93824">
        <ele>395</ele>
        <time>2021-09-10T08:53:43.678Z</time>
      </trkpt>
      <trkpt lat="45.65734" lon="5.93824">
        <ele>395</ele>
        <time>2021-09-10T08:53:44.679Z</time>
      </trkpt>
      <trkpt lat="45.65737" lon="5.93823">
        <ele>395</ele>
        <time>2021-09-10T08:53:45.679Z</time>
      </trkpt>
      <trkpt lat="45.6574" lon="5.93823">
        <ele>396</ele>
        <time>2021-09-10T08:53:46.679Z</time>
      </trkpt>
      <trkpt lat="45.65743" lon="5.93823">
        <ele>396</ele>
        <time>2021-09-10T08:53:47.679Z</time>
      </trkpt>
      <trkpt lat="45.65745" lon="5.93823">
        <ele>397</ele>
        <time>2021-09-10T08:53:48.679Z</time>
      </trkpt>
      <trkpt lat="45.65748" lon="5.93823">
        <ele>397</ele>
        <time>2021-09-10T08:53:49.679Z</time>
      </trkpt>
      <trkpt lat="45.65751" lon="5.93823">
        <ele>398</ele>
        <time>2021-09-10T08:53:50.679Z</time>
      </trkpt>
      <trkpt lat="45.65753" lon="5.93823">
        <ele>398</ele>
        <time>2021-09-10T08:53:51.679Z</time>
      </trkpt>
      <trkpt lat="45.65756" lon="5.93824">
        <ele>398</ele>
        <time>2021-09-10T08:53:52.678Z</time>
      </trkpt>
      <trkpt lat="45.65759" lon="5.93824">
        <ele>398</ele>
        <time>2021-09-10T08:53:53.679Z</time>
      </trkpt>
      <trkpt lat="45.65762" lon="5.93825">
        <ele>398</ele>
        <time>2021-09-10T08:53:54.679Z</time>
      </trkpt>
      <trkpt lat="45.65764" lon="5.93826">
        <ele>398</ele>
        <time>2021-09-10T08:53:55.679Z</time>
      </trkpt>
      <trkpt lat="45.65767" lon="5.93826">
        <ele>398</ele>
        <time>2021-09-10T08:53:56.679Z</time>
      </trkpt>
      <trkpt lat="45.65769" lon="5.93828">
        <ele>398</ele>
        <time>2021-09-10T08:53:57.678Z</time>
      </trkpt>
      <trkpt lat="45.65772" lon="5.93828">
        <ele>398</ele>
        <time>2021-09-10T08:53:58.678Z</time>
      </trkpt>
      <trkpt lat="45.65775" lon="5.93829">
        <ele>397</ele>
        <time>2021-09-10T08:53:59.679Z</time>
      </trkpt>
      <trkpt lat="45.65777" lon="5.9383">
        <ele>397</ele>
        <time>2021-09-10T08:54:00.679Z</time>
      </trkpt>
      <trkpt lat="45.6578" lon="5.93831">
        <ele>397</ele>
        <time>2021-09-10T08:54:01.679Z</time>
      </trkpt>
      <trkpt lat="45.65783" lon="5.93832">
        <ele>397</ele>
        <time>2021-09-10T08:54:02.679Z</time>
      </trkpt>
      <trkpt lat="45.65786" lon="5.93833">
        <ele>397</ele>
        <time>2021-09-10T08:54:03.679Z</time>
      </trkpt>
      <trkpt lat="45.65789" lon="5.93834">
        <ele>397</ele>
        <time>2021-09-10T08:54:04.679Z</time>
      </trkpt>
      <trkpt lat="45.65791" lon="5.93835">
        <ele>396</ele>
        <time>2021-09-10T08:54:05.679Z</time>
      </trkpt>
      <trkpt lat="45.65794" lon="5.93836">
        <ele>395</ele>
        <time>2021-09-10T08:54:06.679Z</time>
      </trkpt>
      <trkpt lat="45.65797" lon="5.93838">
        <ele>395</ele>
        <time>2021-09-10T08:54:07.679Z</time>
      </trkpt>
      <trkpt lat="45.65799" lon="5.93839">
        <ele>395</ele>
        <time>2021-09-10T08:54:08.679Z</time>
      </trkpt>
      <trkpt lat="45.65801" lon="5.9384">
        <ele>395</ele>
        <time>2021-09-10T08:54:09.679Z</time>
      </trkpt>
      <trkpt lat="45.65804" lon="5.93841">
        <ele>394</ele>
        <time>2021-09-10T08:54:10.679Z</time>
      </trkpt>
      <trkpt lat="45.65806" lon="5.93842">
        <ele>394</ele>
        <time>2021-09-10T08:54:11.678Z</time>
      </trkpt>
      <trkpt lat="45.65809" lon="5.93844">
        <ele>394</ele>
        <time>2021-09-10T08:54:12.679Z</time>
      </trkpt>
      <trkpt lat="45.65811" lon="5.93845">
        <ele>395</ele>
        <time>2021-09-10T08:54:13.679Z</time>
      </trkpt>
      <trkpt lat="45.65813" lon="5.93846">
        <ele>395</ele>
        <time>2021-09-10T08:54:14.679Z</time>
      </trkpt>
      <trkpt lat="45.65816" lon="5.93847">
        <ele>396</ele>
        <time>2021-09-10T08:54:15.679Z</time>
      </trkpt>
      <trkpt lat="45.65819" lon="5.93848">
        <ele>396</ele>
        <time>2021-09-10T08:54:16.679Z</time>
      </trkpt>
      <trkpt lat="45.65821" lon="5.93848">
        <ele>396</ele>
        <time>2021-09-10T08:54:17.679Z</time>
      </trkpt>
      <trkpt lat="45.65824" lon="5.93849">
        <ele>396</ele>
        <time>2021-09-10T08:54:18.679Z</time>
      </trkpt>
      <trkpt lat="45.65826" lon="5.9385">
        <ele>396</ele>
        <time>2021-09-10T08:54:19.679Z</time>
      </trkpt>
      <trkpt lat="45.65829" lon="5.93851">
        <ele>396</ele>
        <time>2021-09-10T08:54:20.679Z</time>
      </trkpt>
      <trkpt lat="45.65832" lon="5.93851">
        <ele>396</ele>
        <time>2021-09-10T08:54:21.679Z</time>
      </trkpt>
      <trkpt lat="45.65834" lon="5.93853">
        <ele>396</ele>
        <time>2021-09-10T08:54:22.679Z</time>
      </trkpt>
      <trkpt lat="45.65837" lon="5.93854">
        <ele>397</ele>
        <time>2021-09-10T08:54:23.679Z</time>
      </trkpt>
      <trkpt lat="45.6584" lon="5.93856">
        <ele>397</ele>
        <time>2021-09-10T08:54:24.679Z</time>
      </trkpt>
      <trkpt lat="45.65842" lon="5.93858">
        <ele>397</ele>
        <time>2021-09-10T08:54:25.679Z</time>
      </trkpt>
      <trkpt lat="45.65845" lon="5.9386">
        <ele>398</ele>
        <time>2021-09-10T08:54:26.678Z</time>
      </trkpt>
      <trkpt lat="45.65847" lon="5.93862">
        <ele>398</ele>
        <time>2021-09-10T08:54:27.679Z</time>
      </trkpt>
      <trkpt lat="45.6585" lon="5.93864">
        <ele>398</ele>
        <time>2021-09-10T08:54:28.678Z</time>
      </trkpt>
      <trkpt lat="45.65852" lon="5.93865">
        <ele>398</ele>
        <time>2021-09-10T08:54:29.679Z</time>
      </trkpt>
      <trkpt lat="45.65855" lon="5.93866">
        <ele>398</ele>
        <time>2021-09-10T08:54:30.678Z</time>
      </trkpt>
      <trkpt lat="45.65858" lon="5.93867">
        <ele>398</ele>
        <time>2021-09-10T08:54:31.679Z</time>
      </trkpt>
      <trkpt lat="45.6586" lon="5.93868">
        <ele>399</ele>
        <time>2021-09-10T08:54:32.679Z</time>
      </trkpt>
      <trkpt lat="45.65863" lon="5.93869">
        <ele>399</ele>
        <time>2021-09-10T08:54:33.679Z</time>
      </trkpt>
      <trkpt lat="45.65866" lon="5.93869">
        <ele>399</ele>
        <time>2021-09-10T08:54:34.679Z</time>
      </trkpt>
      <trkpt lat="45.65868" lon="5.93869">
        <ele>399</ele>
        <time>2021-09-10T08:54:35.679Z</time>
      </trkpt>
      <trkpt lat="45.65871" lon="5.93869">
        <ele>399</ele>
        <time>2021-09-10T08:54:36.679Z</time>
      </trkpt>
      <trkpt lat="45.65874" lon="5.93868">
        <ele>398</ele>
        <time>2021-09-10T08:54:37.678Z</time>
      </trkpt>
      <trkpt lat="45.65877" lon="5.93867">
        <ele>398</ele>
        <time>2021-09-10T08:54:38.679Z</time>
      </trkpt>
      <trkpt lat="45.65881" lon="5.93867">
        <ele>398</ele>
        <time>2021-09-10T08:54:39.679Z</time>
      </trkpt>
      <trkpt lat="45.65884" lon="5.93867">
        <ele>398</ele>
        <time>2021-09-10T08:54:40.678Z</time>
      </trkpt>
      <trkpt lat="45.65887" lon="5.93868">
        <ele>398</ele>
        <time>2021-09-10T08:54:41.679Z</time>
      </trkpt>
      <trkpt lat="45.6589" lon="5.93868">
        <ele>398</ele>
        <time>2021-09-10T08:54:42.679Z</time>
      </trkpt>
      <trkpt lat="45.65894" lon="5.93869">
        <ele>399</ele>
        <time>2021-09-10T08:54:43.679Z</time>
      </trkpt>
      <trkpt lat="45.65897" lon="5.9387">
        <ele>398</ele>
        <time>2021-09-10T08:54:44.678Z</time>
      </trkpt>
      <trkpt lat="45.659" lon="5.93871">
        <ele>398</ele>
        <time>2021-09-10T08:54:45.678Z</time>
      </trkpt>
      <trkpt lat="45.65904" lon="5.93871">
        <ele>397</ele>
        <time>2021-09-10T08:54:46.678Z</time>
      </trkpt>
      <trkpt lat="45.65907" lon="5.93872">
        <ele>397</ele>
        <time>2021-09-10T08:54:47.679Z</time>
      </trkpt>
      <trkpt lat="45.65911" lon="5.93872">
        <ele>397</ele>
        <time>2021-09-10T08:54:48.678Z</time>
      </trkpt>
      <trkpt lat="45.65914" lon="5.93873">
        <ele>397</ele>
        <time>2021-09-10T08:54:49.679Z</time>
      </trkpt>
      <trkpt lat="45.65918" lon="5.93873">
        <ele>398</ele>
        <time>2021-09-10T08:54:50.679Z</time>
      </trkpt>
      <trkpt lat="45.65921" lon="5.93873">
        <ele>398</ele>
        <time>2021-09-10T08:54:51.679Z</time>
      </trkpt>
      <trkpt lat="45.65925" lon="5.93873">
        <ele>399</ele>
        <time>2021-09-10T08:54:52.679Z</time>
      </trkpt>
      <trkpt lat="45.65929" lon="5.93874">
        <ele>399</ele>
        <time>2021-09-10T08:54:53.678Z</time>
      </trkpt>
      <trkpt lat="45.65933" lon="5.93874">
        <ele>399</ele>
        <time>2021-09-10T08:54:54.679Z</time>
      </trkpt>
      <trkpt lat="45.65937" lon="5.93874">
        <ele>400</ele>
        <time>2021-09-10T08:54:55.679Z</time>
      </trkpt>
      <trkpt lat="45.65941" lon="5.93874">
        <ele>400</ele>
        <time>2021-09-10T08:54:56.679Z</time>
      </trkpt>
      <trkpt lat="45.65946" lon="5.93875">
        <ele>400</ele>
        <time>2021-09-10T08:54:57.678Z</time>
      </trkpt>
      <trkpt lat="45.6595" lon="5.93874">
        <ele>399</ele>
        <time>2021-09-10T08:54:58.679Z</time>
      </trkpt>
      <trkpt lat="45.65954" lon="5.93875">
        <ele>399</ele>
        <time>2021-09-10T08:54:59.679Z</time>
      </trkpt>
      <trkpt lat="45.65958" lon="5.93875">
        <ele>399</ele>
        <time>2021-09-10T08:55:00.679Z</time>
      </trkpt>
      <trkpt lat="45.65963" lon="5.93875">
        <ele>400</ele>
        <time>2021-09-10T08:55:01.678Z</time>
      </trkpt>
      <trkpt lat="45.65967" lon="5.93875">
        <ele>400</ele>
        <time>2021-09-10T08:55:02.679Z</time>
      </trkpt>
      <trkpt lat="45.65971" lon="5.93875">
        <ele>400</ele>
        <time>2021-09-10T08:55:03.678Z</time>
      </trkpt>
      <trkpt lat="45.65976" lon="5.93875">
        <ele>400</ele>
        <time>2021-09-10T08:55:04.679Z</time>
      </trkpt>
      <trkpt lat="45.6598" lon="5.93875">
        <ele>400</ele>
        <time>2021-09-10T08:55:05.679Z</time>
      </trkpt>
      <trkpt lat="45.65984" lon="5.93876">
        <ele>400</ele>
        <time>2021-09-10T08:55:06.679Z</time>
      </trkpt>
      <trkpt lat="45.65989" lon="5.93876">
        <ele>400</ele>
        <time>2021-09-10T08:55:07.679Z</time>
      </trkpt>
      <trkpt lat="45.65993" lon="5.93877">
        <ele>400</ele>
        <time>2021-09-10T08:55:08.678Z</time>
      </trkpt>
      <trkpt lat="45.65997" lon="5.93877">
        <ele>400</ele>
        <time>2021-09-10T08:55:09.678Z</time>
      </trkpt>
      <trkpt lat="45.66002" lon="5.93879">
        <ele>400</ele>
        <time>2021-09-10T08:55:10.679Z</time>
      </trkpt>
      <trkpt lat="45.66006" lon="5.9388">
        <ele>399</ele>
        <time>2021-09-10T08:55:11.679Z</time>
      </trkpt>
      <trkpt lat="45.6601" lon="5.93881">
        <ele>399</ele>
        <time>2021-09-10T08:55:12.679Z</time>
      </trkpt>
      <trkpt lat="45.66015" lon="5.93882">
        <ele>399</ele>
        <time>2021-09-10T08:55:13.679Z</time>
      </trkpt>
      <trkpt lat="45.66019" lon="5.93884">
        <ele>399</ele>
        <time>2021-09-10T08:55:14.679Z</time>
      </trkpt>
      <trkpt lat="45.66023" lon="5.93885">
        <ele>399</ele>
        <time>2021-09-10T08:55:15.678Z</time>
      </trkpt>
      <trkpt lat="45.66027" lon="5.93887">
        <ele>399</ele>
        <time>2021-09-10T08:55:16.679Z</time>
      </trkpt>
      <trkpt lat="45.66031" lon="5.93889">
        <ele>400</ele>
        <time>2021-09-10T08:55:17.678Z</time>
      </trkpt>
      <trkpt lat="45.66035" lon="5.93891">
        <ele>400</ele>
        <time>2021-09-10T08:55:18.678Z</time>
      </trkpt>
      <trkpt lat="45.66039" lon="5.93894">
        <ele>400</ele>
        <time>2021-09-10T08:55:19.679Z</time>
      </trkpt>
      <trkpt lat="45.66043" lon="5.93896">
        <ele>401</ele>
        <time>2021-09-10T08:55:20.678Z</time>
      </trkpt>
      <trkpt lat="45.66047" lon="5.93898">
        <ele>401</ele>
        <time>2021-09-10T08:55:21.678Z</time>
      </trkpt>
      <trkpt lat="45.66052" lon="5.93901">
        <ele>401</ele>
        <time>2021-09-10T08:55:22.679Z</time>
      </trkpt>
      <trkpt lat="45.66055" lon="5.93903">
        <ele>401</ele>
        <time>2021-09-10T08:55:23.678Z</time>
      </trkpt>
      <trkpt lat="45.66059" lon="5.93906">
        <ele>401</ele>
        <time>2021-09-10T08:55:24.679Z</time>
      </trkpt>
      <trkpt lat="45.66063" lon="5.93909">
        <ele>401</ele>
        <time>2021-09-10T08:55:25.679Z</time>
      </trkpt>
      <trkpt lat="45.66067" lon="5.93912">
        <ele>401</ele>
        <time>2021-09-10T08:55:26.679Z</time>
      </trkpt>
      <trkpt lat="45.66071" lon="5.93914">
        <ele>401</ele>
        <time>2021-09-10T08:55:27.679Z</time>
      </trkpt>
      <trkpt lat="45.66075" lon="5.93917">
        <ele>401</ele>
        <time>2021-09-10T08:55:28.679Z</time>
      </trkpt>
      <trkpt lat="45.66079" lon="5.93919">
        <ele>401</ele>
        <time>2021-09-10T08:55:29.679Z</time>
      </trkpt>
      <trkpt lat="45.66082" lon="5.93922">
        <ele>401</ele>
        <time>2021-09-10T08:55:30.679Z</time>
      </trkpt>
      <trkpt lat="45.66086" lon="5.93925">
        <ele>401</ele>
        <time>2021-09-10T08:55:31.679Z</time>
      </trkpt>
      <trkpt lat="45.6609" lon="5.93927">
        <ele>401</ele>
        <time>2021-09-10T08:55:32.679Z</time>
      </trkpt>
      <trkpt lat="45.66094" lon="5.9393">
        <ele>401</ele>
        <time>2021-09-10T08:55:33.679Z</time>
      </trkpt>
      <trkpt lat="45.66097" lon="5.93933">
        <ele>401</ele>
        <time>2021-09-10T08:55:34.679Z</time>
      </trkpt>
      <trkpt lat="45.66101" lon="5.93935">
        <ele>402</ele>
        <time>2021-09-10T08:55:35.678Z</time>
      </trkpt>
      <trkpt lat="45.66104" lon="5.93938">
        <ele>402</ele>
        <time>2021-09-10T08:55:36.679Z</time>
      </trkpt>
      <trkpt lat="45.66108" lon="5.9394">
        <ele>402</ele>
        <time>2021-09-10T08:55:37.678Z</time>
      </trkpt>
      <trkpt lat="45.66112" lon="5.93942">
        <ele>402</ele>
        <time>2021-09-10T08:55:38.678Z</time>
      </trkpt>
      <trkpt lat="45.66115" lon="5.93945">
        <ele>402</ele>
        <time>2021-09-10T08:55:39.679Z</time>
      </trkpt>
      <trkpt lat="45.66119" lon="5.93947">
        <ele>402</ele>
        <time>2021-09-10T08:55:40.679Z</time>
      </trkpt>
      <trkpt lat="45.66122" lon="5.93949">
        <ele>402</ele>
        <time>2021-09-10T08:55:41.679Z</time>
      </trkpt>
      <trkpt lat="45.66125" lon="5.93952">
        <ele>402</ele>
        <time>2021-09-10T08:55:42.679Z</time>
      </trkpt>
      <trkpt lat="45.66129" lon="5.93954">
        <ele>402</ele>
        <time>2021-09-10T08:55:43.678Z</time>
      </trkpt>
      <trkpt lat="45.66132" lon="5.93956">
        <ele>402</ele>
        <time>2021-09-10T08:55:44.679Z</time>
      </trkpt>
      <trkpt lat="45.66136" lon="5.93959">
        <ele>402</ele>
        <time>2021-09-10T08:55:45.678Z</time>
      </trkpt>
      <trkpt lat="45.6614" lon="5.93961">
        <ele>402</ele>
        <time>2021-09-10T08:55:46.678Z</time>
      </trkpt>
      <trkpt lat="45.66144" lon="5.93963">
        <ele>403</ele>
        <time>2021-09-10T08:55:47.679Z</time>
      </trkpt>
      <trkpt lat="45.66148" lon="5.93964">
        <ele>403</ele>
        <time>2021-09-10T08:55:48.679Z</time>
      </trkpt>
      <trkpt lat="45.66151" lon="5.93966">
        <ele>403</ele>
        <time>2021-09-10T08:55:49.679Z</time>
      </trkpt>
      <trkpt lat="45.66155" lon="5.93968">
        <ele>404</ele>
        <time>2021-09-10T08:55:50.678Z</time>
      </trkpt>
      <trkpt lat="45.6616" lon="5.93969">
        <ele>403</ele>
        <time>2021-09-10T08:55:51.679Z</time>
      </trkpt>
      <trkpt lat="45.66164" lon="5.93971">
        <ele>403</ele>
        <time>2021-09-10T08:55:52.679Z</time>
      </trkpt>
      <trkpt lat="45.66169" lon="5.93972">
        <ele>402</ele>
        <time>2021-09-10T08:55:53.679Z</time>
      </trkpt>
      <trkpt lat="45.66174" lon="5.93973">
        <ele>402</ele>
        <time>2021-09-10T08:55:54.679Z</time>
      </trkpt>
      <trkpt lat="45.66179" lon="5.93974">
        <ele>402</ele>
        <time>2021-09-10T08:55:55.679Z</time>
      </trkpt>
      <trkpt lat="45.66184" lon="5.93975">
        <ele>402</ele>
        <time>2021-09-10T08:55:56.678Z</time>
      </trkpt>
      <trkpt lat="45.66189" lon="5.93976">
        <ele>402</ele>
        <time>2021-09-10T08:55:57.678Z</time>
      </trkpt>
      <trkpt lat="45.66194" lon="5.93976">
        <ele>401</ele>
        <time>2021-09-10T08:55:58.678Z</time>
      </trkpt>
      <trkpt lat="45.662" lon="5.93976">
        <ele>401</ele>
        <time>2021-09-10T08:55:59.679Z</time>
      </trkpt>
      <trkpt lat="45.66205" lon="5.93976">
        <ele>401</ele>
        <time>2021-09-10T08:56:00.679Z</time>
      </trkpt>
      <trkpt lat="45.66211" lon="5.93976">
        <ele>401</ele>
        <time>2021-09-10T08:56:01.679Z</time>
      </trkpt>
      <trkpt lat="45.66216" lon="5.93976">
        <ele>401</ele>
        <time>2021-09-10T08:56:02.679Z</time>
      </trkpt>
      <trkpt lat="45.66222" lon="5.93975">
        <ele>400</ele>
        <time>2021-09-10T08:56:03.679Z</time>
      </trkpt>
      <trkpt lat="45.66227" lon="5.93974">
        <ele>400</ele>
        <time>2021-09-10T08:56:04.679Z</time>
      </trkpt>
      <trkpt lat="45.66233" lon="5.93973">
        <ele>399</ele>
        <time>2021-09-10T08:56:05.679Z</time>
      </trkpt>
      <trkpt lat="45.66239" lon="5.93972">
        <ele>399</ele>
        <time>2021-09-10T08:56:06.679Z</time>
      </trkpt>
      <trkpt lat="45.66245" lon="5.93971">
        <ele>399</ele>
        <time>2021-09-10T08:56:07.679Z</time>
      </trkpt>
      <trkpt lat="45.66251" lon="5.9397">
        <ele>399</ele>
        <time>2021-09-10T08:56:08.679Z</time>
      </trkpt>
      <trkpt lat="45.66257" lon="5.93969">
        <ele>398</ele>
        <time>2021-09-10T08:56:09.679Z</time>
      </trkpt>
      <trkpt lat="45.66264" lon="5.93968">
        <ele>398</ele>
        <time>2021-09-10T08:56:10.679Z</time>
      </trkpt>
      <trkpt lat="45.6627" lon="5.93967">
        <ele>398</ele>
        <time>2021-09-10T08:56:11.678Z</time>
      </trkpt>
      <trkpt lat="45.66276" lon="5.93966">
        <ele>398</ele>
        <time>2021-09-10T08:56:12.678Z</time>
      </trkpt>
      <trkpt lat="45.66282" lon="5.93965">
        <ele>398</ele>
        <time>2021-09-10T08:56:13.679Z</time>
      </trkpt>
      <trkpt lat="45.66288" lon="5.93964">
        <ele>398</ele>
        <time>2021-09-10T08:56:14.679Z</time>
      </trkpt>
      <trkpt lat="45.66293" lon="5.93963">
        <ele>399</ele>
        <time>2021-09-10T08:56:15.678Z</time>
      </trkpt>
      <trkpt lat="45.66299" lon="5.93962">
        <ele>399</ele>
        <time>2021-09-10T08:56:16.679Z</time>
      </trkpt>
      <trkpt lat="45.66305" lon="5.93961">
        <ele>400</ele>
        <time>2021-09-10T08:56:17.679Z</time>
      </trkpt>
      <trkpt lat="45.66311" lon="5.93959">
        <ele>401</ele>
        <time>2021-09-10T08:56:18.679Z</time>
      </trkpt>
      <trkpt lat="45.66317" lon="5.93958">
        <ele>401</ele>
        <time>2021-09-10T08:56:19.679Z</time>
      </trkpt>
      <trkpt lat="45.66322" lon="5.93957">
        <ele>401</ele>
        <time>2021-09-10T08:56:20.679Z</time>
      </trkpt>
      <trkpt lat="45.66328" lon="5.93956">
        <ele>400</ele>
        <time>2021-09-10T08:56:21.679Z</time>
      </trkpt>
      <trkpt lat="45.66333" lon="5.93955">
        <ele>400</ele>
        <time>2021-09-10T08:56:22.679Z</time>
      </trkpt>
      <trkpt lat="45.66339" lon="5.93954">
        <ele>399</ele>
        <time>2021-09-10T08:56:23.679Z</time>
      </trkpt>
      <trkpt lat="45.66344" lon="5.93953">
        <ele>399</ele>
        <time>2021-09-10T08:56:24.679Z</time>
      </trkpt>
      <trkpt lat="45.66349" lon="5.93952">
        <ele>399</ele>
        <time>2021-09-10T08:56:25.679Z</time>
      </trkpt>
      <trkpt lat="45.66354" lon="5.93952">
        <ele>400</ele>
        <time>2021-09-10T08:56:26.679Z</time>
      </trkpt>
      <trkpt lat="45.66359" lon="5.93951">
        <ele>400</ele>
        <time>2021-09-10T08:56:27.678Z</time>
      </trkpt>
      <trkpt lat="45.66364" lon="5.9395">
        <ele>400</ele>
        <time>2021-09-10T08:56:28.679Z</time>
      </trkpt>
      <trkpt lat="45.66368" lon="5.93949">
        <ele>400</ele>
        <time>2021-09-10T08:56:29.679Z</time>
      </trkpt>
      <trkpt lat="45.66372" lon="5.93949">
        <ele>400</ele>
        <time>2021-09-10T08:56:30.679Z</time>
      </trkpt>
      <trkpt lat="45.66376" lon="5.93948">
        <ele>401</ele>
        <time>2021-09-10T08:56:31.678Z</time>
      </trkpt>
      <trkpt lat="45.6638" lon="5.93948">
        <ele>401</ele>
        <time>2021-09-10T08:56:32.679Z</time>
      </trkpt>
      <trkpt lat="45.66383" lon="5.93947">
        <ele>401</ele>
        <time>2021-09-10T08:56:33.679Z</time>
      </trkpt>
      <trkpt lat="45.66387" lon="5.93946">
        <ele>401</ele>
        <time>2021-09-10T08:56:34.679Z</time>
      </trkpt>
      <trkpt lat="45.6639" lon="5.93946">
        <ele>402</ele>
        <time>2021-09-10T08:56:35.678Z</time>
      </trkpt>
      <trkpt lat="45.66394" lon="5.93945">
        <ele>402</ele>
        <time>2021-09-10T08:56:36.679Z</time>
      </trkpt>
      <trkpt lat="45.66397" lon="5.93944">
        <ele>403</ele>
        <time>2021-09-10T08:56:37.679Z</time>
      </trkpt>
      <trkpt lat="45.664" lon="5.93943">
        <ele>403</ele>
        <time>2021-09-10T08:56:38.679Z</time>
      </trkpt>
      <trkpt lat="45.66403" lon="5.93943">
        <ele>403</ele>
        <time>2021-09-10T08:56:39.679Z</time>
      </trkpt>
      <trkpt lat="45.66406" lon="5.93942">
        <ele>403</ele>
        <time>2021-09-10T08:56:40.679Z</time>
      </trkpt>
      <trkpt lat="45.66409" lon="5.93941">
        <ele>402</ele>
        <time>2021-09-10T08:56:41.678Z</time>
      </trkpt>
      <trkpt lat="45.66412" lon="5.9394">
        <ele>402</ele>
        <time>2021-09-10T08:56:42.679Z</time>
      </trkpt>
      <trkpt lat="45.66415" lon="5.93939">
        <ele>402</ele>
        <time>2021-09-10T08:56:43.679Z</time>
      </trkpt>
      <trkpt lat="45.66418" lon="5.93938">
        <ele>403</ele>
        <time>2021-09-10T08:56:44.678Z</time>
      </trkpt>
      <trkpt lat="45.66421" lon="5.93937">
        <ele>404</ele>
        <time>2021-09-10T08:56:45.678Z</time>
      </trkpt>
      <trkpt lat="45.66423" lon="5.93936">
        <ele>404</ele>
        <time>2021-09-10T08:56:46.679Z</time>
      </trkpt>
      <trkpt lat="45.66426" lon="5.93935">
        <ele>405</ele>
        <time>2021-09-10T08:56:47.679Z</time>
      </trkpt>
      <trkpt lat="45.66429" lon="5.93933">
        <ele>406</ele>
        <time>2021-09-10T08:56:48.679Z</time>
      </trkpt>
      <trkpt lat="45.66432" lon="5.93933">
        <ele>406</ele>
        <time>2021-09-10T08:56:49.679Z</time>
      </trkpt>
      <trkpt lat="45.66435" lon="5.93931">
        <ele>407</ele>
        <time>2021-09-10T08:56:50.678Z</time>
      </trkpt>
      <trkpt lat="45.66438" lon="5.9393">
        <ele>408</ele>
        <time>2021-09-10T08:56:51.678Z</time>
      </trkpt>
      <trkpt lat="45.6644" lon="5.93929">
        <ele>409</ele>
        <time>2021-09-10T08:56:52.678Z</time>
      </trkpt>
      <trkpt lat="45.66443" lon="5.93928">
        <ele>409</ele>
        <time>2021-09-10T08:56:53.678Z</time>
      </trkpt>
      <trkpt lat="45.66446" lon="5.93926">
        <ele>409</ele>
        <time>2021-09-10T08:56:54.678Z</time>
      </trkpt>
      <trkpt lat="45.66449" lon="5.93925">
        <ele>409</ele>
        <time>2021-09-10T08:56:55.678Z</time>
      </trkpt>
      <trkpt lat="45.66451" lon="5.93925">
        <ele>409</ele>
        <time>2021-09-10T08:56:56.679Z</time>
      </trkpt>
      <trkpt lat="45.66454" lon="5.93923">
        <ele>409</ele>
        <time>2021-09-10T08:56:57.678Z</time>
      </trkpt>
      <trkpt lat="45.66457" lon="5.93922">
        <ele>409</ele>
        <time>2021-09-10T08:56:58.679Z</time>
      </trkpt>
      <trkpt lat="45.66459" lon="5.93921">
        <ele>410</ele>
        <time>2021-09-10T08:56:59.679Z</time>
      </trkpt>
      <trkpt lat="45.66461" lon="5.9392">
        <ele>410</ele>
        <time>2021-09-10T08:57:00.679Z</time>
      </trkpt>
      <trkpt lat="45.66464" lon="5.9392">
        <ele>411</ele>
        <time>2021-09-10T08:57:01.678Z</time>
      </trkpt>
      <trkpt lat="45.66466" lon="5.93919">
        <ele>412</ele>
        <time>2021-09-10T08:57:02.679Z</time>
      </trkpt>
      <trkpt lat="45.66469" lon="5.93919">
        <ele>412</ele>
        <time>2021-09-10T08:57:03.679Z</time>
      </trkpt>
      <trkpt lat="45.66472" lon="5.93917">
        <ele>413</ele>
        <time>2021-09-10T08:57:04.679Z</time>
      </trkpt>
      <trkpt lat="45.66474" lon="5.93916">
        <ele>413</ele>
        <time>2021-09-10T08:57:05.679Z</time>
      </trkpt>
      <trkpt lat="45.66476" lon="5.93915">
        <ele>413</ele>
        <time>2021-09-10T08:57:06.679Z</time>
      </trkpt>
      <trkpt lat="45.66479" lon="5.93914">
        <ele>413</ele>
        <time>2021-09-10T08:57:07.679Z</time>
      </trkpt>
      <trkpt lat="45.66482" lon="5.93913">
        <ele>413</ele>
        <time>2021-09-10T08:57:08.679Z</time>
      </trkpt>
      <trkpt lat="45.66485" lon="5.93912">
        <ele>413</ele>
        <time>2021-09-10T08:57:09.679Z</time>
      </trkpt>
      <trkpt lat="45.66487" lon="5.93911">
        <ele>413</ele>
        <time>2021-09-10T08:57:10.679Z</time>
      </trkpt>
      <trkpt lat="45.6649" lon="5.9391">
        <ele>414</ele>
        <time>2021-09-10T08:57:11.678Z</time>
      </trkpt>
      <trkpt lat="45.66493" lon="5.93909">
        <ele>414</ele>
        <time>2021-09-10T08:57:12.679Z</time>
      </trkpt>
      <trkpt lat="45.66496" lon="5.93908">
        <ele>414</ele>
        <time>2021-09-10T08:57:13.679Z</time>
      </trkpt>
      <trkpt lat="45.66498" lon="5.93907">
        <ele>414</ele>
        <time>2021-09-10T08:57:14.679Z</time>
      </trkpt>
      <trkpt lat="45.66501" lon="5.93906">
        <ele>414</ele>
        <time>2021-09-10T08:57:15.679Z</time>
      </trkpt>
      <trkpt lat="45.66504" lon="5.93905">
        <ele>414</ele>
        <time>2021-09-10T08:57:16.679Z</time>
      </trkpt>
      <trkpt lat="45.66507" lon="5.93904">
        <ele>414</ele>
        <time>2021-09-10T08:57:17.678Z</time>
      </trkpt>
      <trkpt lat="45.66509" lon="5.93903">
        <ele>413</ele>
        <time>2021-09-10T08:57:18.679Z</time>
      </trkpt>
      <trkpt lat="45.66512" lon="5.93902">
        <ele>413</ele>
        <time>2021-09-10T08:57:19.679Z</time>
      </trkpt>
      <trkpt lat="45.66515" lon="5.93901">
        <ele>413</ele>
        <time>2021-09-10T08:57:20.679Z</time>
      </trkpt>
      <trkpt lat="45.66518" lon="5.939">
        <ele>413</ele>
        <time>2021-09-10T08:57:21.678Z</time>
      </trkpt>
      <trkpt lat="45.66521" lon="5.93899">
        <ele>413</ele>
        <time>2021-09-10T08:57:22.679Z</time>
      </trkpt>
      <trkpt lat="45.66524" lon="5.93898">
        <ele>414</ele>
        <time>2021-09-10T08:57:23.679Z</time>
      </trkpt>
      <trkpt lat="45.66527" lon="5.93897">
        <ele>414</ele>
        <time>2021-09-10T08:57:24.679Z</time>
      </trkpt>
      <trkpt lat="45.6653" lon="5.93896">
        <ele>415</ele>
        <time>2021-09-10T08:57:25.679Z</time>
      </trkpt>
      <trkpt lat="45.66533" lon="5.93895">
        <ele>415</ele>
        <time>2021-09-10T08:57:26.678Z</time>
      </trkpt>
      <trkpt lat="45.66536" lon="5.93894">
        <ele>415</ele>
        <time>2021-09-10T08:57:27.678Z</time>
      </trkpt>
      <trkpt lat="45.66539" lon="5.93894">
        <ele>415</ele>
        <time>2021-09-10T08:57:28.679Z</time>
      </trkpt>
      <trkpt lat="45.66541" lon="5.93894">
        <ele>414</ele>
        <time>2021-09-10T08:57:29.679Z</time>
      </trkpt>
      <trkpt lat="45.66545" lon="5.93893">
        <ele>414</ele>
        <time>2021-09-10T08:57:30.679Z</time>
      </trkpt>
      <trkpt lat="45.66548" lon="5.93893">
        <ele>414</ele>
        <time>2021-09-10T08:57:31.678Z</time>
      </trkpt>
      <trkpt lat="45.66551" lon="5.93893">
        <ele>414</ele>
        <time>2021-09-10T08:57:32.679Z</time>
      </trkpt>
      <trkpt lat="45.66554" lon="5.93892">
        <ele>414</ele>
        <time>2021-09-10T08:57:33.679Z</time>
      </trkpt>
      <trkpt lat="45.66557" lon="5.93892">
        <ele>414</ele>
        <time>2021-09-10T08:57:34.678Z</time>
      </trkpt>
      <trkpt lat="45.6656" lon="5.93892">
        <ele>414</ele>
        <time>2021-09-10T08:57:35.678Z</time>
      </trkpt>
      <trkpt lat="45.66563" lon="5.93892">
        <ele>414</ele>
        <time>2021-09-10T08:57:36.679Z</time>
      </trkpt>
      <trkpt lat="45.66566" lon="5.93891">
        <ele>414</ele>
        <time>2021-09-10T08:57:37.679Z</time>
      </trkpt>
      <trkpt lat="45.66569" lon="5.93891">
        <ele>414</ele>
        <time>2021-09-10T08:57:38.679Z</time>
      </trkpt>
      <trkpt lat="45.66572" lon="5.93891">
        <ele>414</ele>
        <time>2021-09-10T08:57:39.679Z</time>
      </trkpt>
      <trkpt lat="45.66575" lon="5.93892">
        <ele>414</ele>
        <time>2021-09-10T08:57:40.679Z</time>
      </trkpt>
      <trkpt lat="45.66578" lon="5.93891">
        <ele>414</ele>
        <time>2021-09-10T08:57:41.679Z</time>
      </trkpt>
      <trkpt lat="45.66581" lon="5.93891">
        <ele>413</ele>
        <time>2021-09-10T08:57:42.678Z</time>
      </trkpt>
      <trkpt lat="45.66584" lon="5.93891">
        <ele>413</ele>
        <time>2021-09-10T08:57:43.678Z</time>
      </trkpt>
      <trkpt lat="45.66586" lon="5.93891">
        <ele>413</ele>
        <time>2021-09-10T08:57:44.679Z</time>
      </trkpt>
      <trkpt lat="45.6659" lon="5.93891">
        <ele>413</ele>
        <time>2021-09-10T08:57:45.678Z</time>
      </trkpt>
      <trkpt lat="45.66593" lon="5.93892">
        <ele>413</ele>
        <time>2021-09-10T08:57:46.678Z</time>
      </trkpt>
      <trkpt lat="45.66596" lon="5.93892">
        <ele>413</ele>
        <time>2021-09-10T08:57:47.679Z</time>
      </trkpt>
      <trkpt lat="45.66598" lon="5.93892">
        <ele>414</ele>
        <time>2021-09-10T08:57:48.679Z</time>
      </trkpt>
      <trkpt lat="45.66601" lon="5.93892">
        <ele>414</ele>
        <time>2021-09-10T08:57:49.679Z</time>
      </trkpt>
      <trkpt lat="45.66604" lon="5.93892">
        <ele>414</ele>
        <time>2021-09-10T08:57:50.679Z</time>
      </trkpt>
      <trkpt lat="45.66607" lon="5.93892">
        <ele>414</ele>
        <time>2021-09-10T08:57:51.679Z</time>
      </trkpt>
      <trkpt lat="45.6661" lon="5.93892">
        <ele>414</ele>
        <time>2021-09-10T08:57:52.678Z</time>
      </trkpt>
      <trkpt lat="45.66613" lon="5.93892">
        <ele>414</ele>
        <time>2021-09-10T08:57:53.679Z</time>
      </trkpt>
      <trkpt lat="45.66616" lon="5.93892">
        <ele>415</ele>
        <time>2021-09-10T08:57:54.679Z</time>
      </trkpt>
      <trkpt lat="45.66619" lon="5.93892">
        <ele>414</ele>
        <time>2021-09-10T08:57:55.679Z</time>
      </trkpt>
      <trkpt lat="45.66622" lon="5.93891">
        <ele>414</ele>
        <time>2021-09-10T08:57:56.679Z</time>
      </trkpt>
      <trkpt lat="45.66625" lon="5.93891">
        <ele>414</ele>
        <time>2021-09-10T08:57:57.678Z</time>
      </trkpt>
      <trkpt lat="45.66628" lon="5.93889">
        <ele>414</ele>
        <time>2021-09-10T08:57:58.679Z</time>
      </trkpt>
      <trkpt lat="45.66631" lon="5.93888">
        <ele>414</ele>
        <time>2021-09-10T08:57:59.679Z</time>
      </trkpt>
      <trkpt lat="45.66634" lon="5.93887">
        <ele>414</ele>
        <time>2021-09-10T08:58:00.679Z</time>
      </trkpt>
      <trkpt lat="45.66637" lon="5.93885">
        <ele>414</ele>
        <time>2021-09-10T08:58:01.679Z</time>
      </trkpt>
      <trkpt lat="45.6664" lon="5.93884">
        <ele>415</ele>
        <time>2021-09-10T08:58:02.679Z</time>
      </trkpt>
      <trkpt lat="45.66643" lon="5.93883">
        <ele>415</ele>
        <time>2021-09-10T08:58:03.679Z</time>
      </trkpt>
      <trkpt lat="45.66646" lon="5.93882">
        <ele>415</ele>
        <time>2021-09-10T08:58:04.679Z</time>
      </trkpt>
      <trkpt lat="45.6665" lon="5.93881">
        <ele>415</ele>
        <time>2021-09-10T08:58:05.679Z</time>
      </trkpt>
      <trkpt lat="45.66653" lon="5.93881">
        <ele>415</ele>
        <time>2021-09-10T08:58:06.678Z</time>
      </trkpt>
      <trkpt lat="45.66656" lon="5.93881">
        <ele>416</ele>
        <time>2021-09-10T08:58:07.679Z</time>
      </trkpt>
      <trkpt lat="45.6666" lon="5.93881">
        <ele>416</ele>
        <time>2021-09-10T08:58:08.679Z</time>
      </trkpt>
      <trkpt lat="45.66663" lon="5.9388">
        <ele>416</ele>
        <time>2021-09-10T08:58:09.679Z</time>
      </trkpt>
      <trkpt lat="45.66667" lon="5.9388">
        <ele>416</ele>
        <time>2021-09-10T08:58:10.679Z</time>
      </trkpt>
      <trkpt lat="45.6667" lon="5.9388">
        <ele>417</ele>
        <time>2021-09-10T08:58:11.679Z</time>
      </trkpt>
      <trkpt lat="45.66674" lon="5.9388">
        <ele>417</ele>
        <time>2021-09-10T08:58:12.679Z</time>
      </trkpt>
      <trkpt lat="45.66678" lon="5.93879">
        <ele>417</ele>
        <time>2021-09-10T08:58:13.679Z</time>
      </trkpt>
      <trkpt lat="45.66682" lon="5.93879">
        <ele>417</ele>
        <time>2021-09-10T08:58:14.678Z</time>
      </trkpt>
      <trkpt lat="45.66686" lon="5.93879">
        <ele>417</ele>
        <time>2021-09-10T08:58:15.678Z</time>
      </trkpt>
      <trkpt lat="45.6669" lon="5.93878">
        <ele>417</ele>
        <time>2021-09-10T08:58:16.678Z</time>
      </trkpt>
      <trkpt lat="45.66694" lon="5.93877">
        <ele>417</ele>
        <time>2021-09-10T08:58:17.679Z</time>
      </trkpt>
      <trkpt lat="45.66698" lon="5.93876">
        <ele>418</ele>
        <time>2021-09-10T08:58:18.678Z</time>
      </trkpt>
      <trkpt lat="45.66703" lon="5.93876">
        <ele>418</ele>
        <time>2021-09-10T08:58:19.679Z</time>
      </trkpt>
      <trkpt lat="45.66707" lon="5.93875">
        <ele>418</ele>
        <time>2021-09-10T08:58:20.679Z</time>
      </trkpt>
      <trkpt lat="45.66712" lon="5.93874">
        <ele>418</ele>
        <time>2021-09-10T08:58:21.678Z</time>
      </trkpt>
      <trkpt lat="45.66717" lon="5.93874">
        <ele>418</ele>
        <time>2021-09-10T08:58:22.679Z</time>
      </trkpt>
      <trkpt lat="45.66721" lon="5.93873">
        <ele>418</ele>
        <time>2021-09-10T08:58:23.679Z</time>
      </trkpt>
      <trkpt lat="45.66726" lon="5.93873">
        <ele>418</ele>
        <time>2021-09-10T08:58:24.678Z</time>
      </trkpt>
      <trkpt lat="45.66731" lon="5.93872">
        <ele>418</ele>
        <time>2021-09-10T08:58:25.679Z</time>
      </trkpt>
      <trkpt lat="45.66736" lon="5.93872">
        <ele>417</ele>
        <time>2021-09-10T08:58:26.678Z</time>
      </trkpt>
      <trkpt lat="45.66742" lon="5.93871">
        <ele>416</ele>
        <time>2021-09-10T08:58:27.679Z</time>
      </trkpt>
      <trkpt lat="45.66747" lon="5.93871">
        <ele>416</ele>
        <time>2021-09-10T08:58:28.678Z</time>
      </trkpt>
      <trkpt lat="45.66752" lon="5.9387">
        <ele>416</ele>
        <time>2021-09-10T08:58:29.679Z</time>
      </trkpt>
      <trkpt lat="45.66757" lon="5.9387">
        <ele>415</ele>
        <time>2021-09-10T08:58:30.679Z</time>
      </trkpt>
      <trkpt lat="45.66763" lon="5.93869">
        <ele>415</ele>
        <time>2021-09-10T08:58:31.679Z</time>
      </trkpt>
      <trkpt lat="45.66768" lon="5.93869">
        <ele>415</ele>
        <time>2021-09-10T08:58:32.679Z</time>
      </trkpt>
      <trkpt lat="45.66774" lon="5.93869">
        <ele>416</ele>
        <time>2021-09-10T08:58:33.679Z</time>
      </trkpt>
      <trkpt lat="45.6678" lon="5.93869">
        <ele>416</ele>
        <time>2021-09-10T08:58:34.679Z</time>
      </trkpt>
      <trkpt lat="45.66785" lon="5.93869">
        <ele>416</ele>
        <time>2021-09-10T08:58:35.679Z</time>
      </trkpt>
      <trkpt lat="45.66791" lon="5.9387">
        <ele>416</ele>
        <time>2021-09-10T08:58:36.679Z</time>
      </trkpt>
      <trkpt lat="45.66796" lon="5.9387">
        <ele>415</ele>
        <time>2021-09-10T08:58:37.679Z</time>
      </trkpt>
      <trkpt lat="45.66802" lon="5.93871">
        <ele>416</ele>
        <time>2021-09-10T08:58:38.679Z</time>
      </trkpt>
      <trkpt lat="45.66808" lon="5.93872">
        <ele>416</ele>
        <time>2021-09-10T08:58:39.679Z</time>
      </trkpt>
      <trkpt lat="45.66814" lon="5.93872">
        <ele>416</ele>
        <time>2021-09-10T08:58:40.679Z</time>
      </trkpt>
      <trkpt lat="45.66819" lon="5.93873">
        <ele>417</ele>
        <time>2021-09-10T08:58:41.679Z</time>
      </trkpt>
      <trkpt lat="45.66825" lon="5.93875">
        <ele>417</ele>
        <time>2021-09-10T08:58:42.679Z</time>
      </trkpt>
      <trkpt lat="45.66831" lon="5.93876">
        <ele>417</ele>
        <time>2021-09-10T08:58:43.679Z</time>
      </trkpt>
      <trkpt lat="45.66836" lon="5.93877">
        <ele>416</ele>
        <time>2021-09-10T08:58:44.679Z</time>
      </trkpt>
      <trkpt lat="45.66842" lon="5.93879">
        <ele>416</ele>
        <time>2021-09-10T08:58:45.679Z</time>
      </trkpt>
      <trkpt lat="45.66848" lon="5.9388">
        <ele>416</ele>
        <time>2021-09-10T08:58:46.678Z</time>
      </trkpt>
      <trkpt lat="45.66854" lon="5.93881">
        <ele>416</ele>
        <time>2021-09-10T08:58:47.679Z</time>
      </trkpt>
      <trkpt lat="45.6686" lon="5.93882">
        <ele>416</ele>
        <time>2021-09-10T08:58:48.679Z</time>
      </trkpt>
      <trkpt lat="45.66866" lon="5.93884">
        <ele>417</ele>
        <time>2021-09-10T08:58:49.679Z</time>
      </trkpt>
      <trkpt lat="45.66872" lon="5.93885">
        <ele>417</ele>
        <time>2021-09-10T08:58:50.679Z</time>
      </trkpt>
      <trkpt lat="45.66877" lon="5.93886">
        <ele>417</ele>
        <time>2021-09-10T08:58:51.678Z</time>
      </trkpt>
      <trkpt lat="45.66883" lon="5.93887">
        <ele>417</ele>
        <time>2021-09-10T08:58:52.679Z</time>
      </trkpt>
      <trkpt lat="45.66889" lon="5.93889">
        <ele>416</ele>
        <time>2021-09-10T08:58:53.679Z</time>
      </trkpt>
      <trkpt lat="45.66895" lon="5.9389">
        <ele>416</ele>
        <time>2021-09-10T08:58:54.679Z</time>
      </trkpt>
      <trkpt lat="45.66901" lon="5.93892">
        <ele>416</ele>
        <time>2021-09-10T08:58:55.678Z</time>
      </trkpt>
      <trkpt lat="45.66907" lon="5.93894">
        <ele>416</ele>
        <time>2021-09-10T08:58:56.679Z</time>
      </trkpt>
      <trkpt lat="45.66912" lon="5.93895">
        <ele>416</ele>
        <time>2021-09-10T08:58:57.678Z</time>
      </trkpt>
      <trkpt lat="45.66918" lon="5.93897">
        <ele>415</ele>
        <time>2021-09-10T08:58:58.678Z</time>
      </trkpt>
      <trkpt lat="45.66923" lon="5.93898">
        <ele>415</ele>
        <time>2021-09-10T08:58:59.679Z</time>
      </trkpt>
      <trkpt lat="45.66929" lon="5.93899">
        <ele>415</ele>
        <time>2021-09-10T08:59:00.679Z</time>
      </trkpt>
      <trkpt lat="45.66934" lon="5.939">
        <ele>415</ele>
        <time>2021-09-10T08:59:01.679Z</time>
      </trkpt>
      <trkpt lat="45.66939" lon="5.93902">
        <ele>415</ele>
        <time>2021-09-10T08:59:02.678Z</time>
      </trkpt>
      <trkpt lat="45.66944" lon="5.93904">
        <ele>415</ele>
        <time>2021-09-10T08:59:03.679Z</time>
      </trkpt>
      <trkpt lat="45.66949" lon="5.93905">
        <ele>416</ele>
        <time>2021-09-10T08:59:04.679Z</time>
      </trkpt>
      <trkpt lat="45.66954" lon="5.93908">
        <ele>416</ele>
        <time>2021-09-10T08:59:05.678Z</time>
      </trkpt>
      <trkpt lat="45.66958" lon="5.93912">
        <ele>416</ele>
        <time>2021-09-10T08:59:06.679Z</time>
      </trkpt>
      <trkpt lat="45.66962" lon="5.93915">
        <ele>416</ele>
        <time>2021-09-10T08:59:07.679Z</time>
      </trkpt>
      <trkpt lat="45.66966" lon="5.93918">
        <ele>416</ele>
        <time>2021-09-10T08:59:08.679Z</time>
      </trkpt>
      <trkpt lat="45.66969" lon="5.9392">
        <ele>415</ele>
        <time>2021-09-10T08:59:09.679Z</time>
      </trkpt>
      <trkpt lat="45.66973" lon="5.93921">
        <ele>415</ele>
        <time>2021-09-10T08:59:10.679Z</time>
      </trkpt>
      <trkpt lat="45.66977" lon="5.9392">
        <ele>415</ele>
        <time>2021-09-10T08:59:11.679Z</time>
      </trkpt>
      <trkpt lat="45.66981" lon="5.93919">
        <ele>414</ele>
        <time>2021-09-10T08:59:12.679Z</time>
      </trkpt>
      <trkpt lat="45.66985" lon="5.93917">
        <ele>414</ele>
        <time>2021-09-10T08:59:13.679Z</time>
      </trkpt>
      <trkpt lat="45.66989" lon="5.93916">
        <ele>413</ele>
        <time>2021-09-10T08:59:14.679Z</time>
      </trkpt>
      <trkpt lat="45.66994" lon="5.93915">
        <ele>413</ele>
        <time>2021-09-10T08:59:15.679Z</time>
      </trkpt>
      <trkpt lat="45.66999" lon="5.93915">
        <ele>413</ele>
        <time>2021-09-10T08:59:16.679Z</time>
      </trkpt>
      <trkpt lat="45.67003" lon="5.93915">
        <ele>413</ele>
        <time>2021-09-10T08:59:17.678Z</time>
      </trkpt>
      <trkpt lat="45.67008" lon="5.93914">
        <ele>413</ele>
        <time>2021-09-10T08:59:18.679Z</time>
      </trkpt>
      <trkpt lat="45.67012" lon="5.93915">
        <ele>413</ele>
        <time>2021-09-10T08:59:19.678Z</time>
      </trkpt>
      <trkpt lat="45.67016" lon="5.93915">
        <ele>413</ele>
        <time>2021-09-10T08:59:20.679Z</time>
      </trkpt>
      <trkpt lat="45.6702" lon="5.93915">
        <ele>413</ele>
        <time>2021-09-10T08:59:21.679Z</time>
      </trkpt>
      <trkpt lat="45.67024" lon="5.93915">
        <ele>414</ele>
        <time>2021-09-10T08:59:22.679Z</time>
      </trkpt>
      <trkpt lat="45.67028" lon="5.93915">
        <ele>414</ele>
        <time>2021-09-10T08:59:23.679Z</time>
      </trkpt>
      <trkpt lat="45.67032" lon="5.93915">
        <ele>414</ele>
        <time>2021-09-10T08:59:24.679Z</time>
      </trkpt>
      <trkpt lat="45.67036" lon="5.93916">
        <ele>414</ele>
        <time>2021-09-10T08:59:25.679Z</time>
      </trkpt>
      <trkpt lat="45.6704" lon="5.93916">
        <ele>414</ele>
        <time>2021-09-10T08:59:26.679Z</time>
      </trkpt>
      <trkpt lat="45.67044" lon="5.93916">
        <ele>414</ele>
        <time>2021-09-10T08:59:27.679Z</time>
      </trkpt>
      <trkpt lat="45.67048" lon="5.93916">
        <ele>414</ele>
        <time>2021-09-10T08:59:28.678Z</time>
      </trkpt>
      <trkpt lat="45.67053" lon="5.93915">
        <ele>414</ele>
        <time>2021-09-10T08:59:29.679Z</time>
      </trkpt>
      <trkpt lat="45.67057" lon="5.93915">
        <ele>414</ele>
        <time>2021-09-10T08:59:30.679Z</time>
      </trkpt>
      <trkpt lat="45.67062" lon="5.93915">
        <ele>414</ele>
        <time>2021-09-10T08:59:31.679Z</time>
      </trkpt>
      <trkpt lat="45.67066" lon="5.93915">
        <ele>414</ele>
        <time>2021-09-10T08:59:32.679Z</time>
      </trkpt>
      <trkpt lat="45.6707" lon="5.93915">
        <ele>415</ele>
        <time>2021-09-10T08:59:33.679Z</time>
      </trkpt>
      <trkpt lat="45.67074" lon="5.93915">
        <ele>414</ele>
        <time>2021-09-10T08:59:34.679Z</time>
      </trkpt>
      <trkpt lat="45.67078" lon="5.93915">
        <ele>414</ele>
        <time>2021-09-10T08:59:35.679Z</time>
      </trkpt>
      <trkpt lat="45.67083" lon="5.93915">
        <ele>415</ele>
        <time>2021-09-10T08:59:36.679Z</time>
      </trkpt>
      <trkpt lat="45.67087" lon="5.93915">
        <ele>415</ele>
        <time>2021-09-10T08:59:37.679Z</time>
      </trkpt>
      <trkpt lat="45.67091" lon="5.93915">
        <ele>415</ele>
        <time>2021-09-10T08:59:38.679Z</time>
      </trkpt>
      <trkpt lat="45.67095" lon="5.93914">
        <ele>415</ele>
        <time>2021-09-10T08:59:39.679Z</time>
      </trkpt>
      <trkpt lat="45.671" lon="5.93914">
        <ele>415</ele>
        <time>2021-09-10T08:59:40.679Z</time>
      </trkpt>
      <trkpt lat="45.67104" lon="5.93914">
        <ele>415</ele>
        <time>2021-09-10T08:59:41.679Z</time>
      </trkpt>
      <trkpt lat="45.67108" lon="5.93915">
        <ele>414</ele>
        <time>2021-09-10T08:59:42.678Z</time>
      </trkpt>
      <trkpt lat="45.67112" lon="5.93915">
        <ele>414</ele>
        <time>2021-09-10T08:59:43.679Z</time>
      </trkpt>
      <trkpt lat="45.67116" lon="5.93915">
        <ele>415</ele>
        <time>2021-09-10T08:59:44.679Z</time>
      </trkpt>
      <trkpt lat="45.6712" lon="5.93916">
        <ele>415</ele>
        <time>2021-09-10T08:59:45.679Z</time>
      </trkpt>
      <trkpt lat="45.67124" lon="5.93916">
        <ele>415</ele>
        <time>2021-09-10T08:59:46.678Z</time>
      </trkpt>
      <trkpt lat="45.67128" lon="5.93916">
        <ele>415</ele>
        <time>2021-09-10T08:59:47.679Z</time>
      </trkpt>
      <trkpt lat="45.67133" lon="5.93917">
        <ele>415</ele>
        <time>2021-09-10T08:59:48.679Z</time>
      </trkpt>
      <trkpt lat="45.67137" lon="5.93918">
        <ele>415</ele>
        <time>2021-09-10T08:59:49.678Z</time>
      </trkpt>
      <trkpt lat="45.67141" lon="5.93918">
        <ele>415</ele>
        <time>2021-09-10T08:59:50.678Z</time>
      </trkpt>
      <trkpt lat="45.67145" lon="5.93919">
        <ele>415</ele>
        <time>2021-09-10T08:59:51.679Z</time>
      </trkpt>
      <trkpt lat="45.67148" lon="5.93919">
        <ele>416</ele>
        <time>2021-09-10T08:59:52.679Z</time>
      </trkpt>
      <trkpt lat="45.67153" lon="5.9392">
        <ele>416</ele>
        <time>2021-09-10T08:59:53.679Z</time>
      </trkpt>
      <trkpt lat="45.67157" lon="5.9392">
        <ele>416</ele>
        <time>2021-09-10T08:59:54.679Z</time>
      </trkpt>
      <trkpt lat="45.67161" lon="5.93921">
        <ele>416</ele>
        <time>2021-09-10T08:59:55.679Z</time>
      </trkpt>
      <trkpt lat="45.67165" lon="5.93922">
        <ele>417</ele>
        <time>2021-09-10T08:59:56.679Z</time>
      </trkpt>
      <trkpt lat="45.67168" lon="5.93923">
        <ele>417</ele>
        <time>2021-09-10T08:59:57.678Z</time>
      </trkpt>
      <trkpt lat="45.67172" lon="5.93923">
        <ele>418</ele>
        <time>2021-09-10T08:59:58.679Z</time>
      </trkpt>
      <trkpt lat="45.67176" lon="5.93924">
        <ele>418</ele>
        <time>2021-09-10T08:59:59.679Z</time>
      </trkpt>
      <trkpt lat="45.67179" lon="5.93925">
        <ele>418</ele>
        <time>2021-09-10T09:00:00.678Z</time>
      </trkpt>
      <trkpt lat="45.67183" lon="5.93926">
        <ele>418</ele>
        <time>2021-09-10T09:00:01.679Z</time>
      </trkpt>
      <trkpt lat="45.67186" lon="5.93927">
        <ele>418</ele>
        <time>2021-09-10T09:00:02.678Z</time>
      </trkpt>
      <trkpt lat="45.6719" lon="5.93927">
        <ele>419</ele>
        <time>2021-09-10T09:00:03.679Z</time>
      </trkpt>
      <trkpt lat="45.67194" lon="5.93928">
        <ele>419</ele>
        <time>2021-09-10T09:00:04.679Z</time>
      </trkpt>
      <trkpt lat="45.67196" lon="5.93929">
        <ele>419</ele>
        <time>2021-09-10T09:00:05.679Z</time>
      </trkpt>
      <trkpt lat="45.672" lon="5.9393">
        <ele>420</ele>
        <time>2021-09-10T09:00:06.678Z</time>
      </trkpt>
      <trkpt lat="45.67204" lon="5.93931">
        <ele>420</ele>
        <time>2021-09-10T09:00:07.678Z</time>
      </trkpt>
      <trkpt lat="45.67208" lon="5.93932">
        <ele>420</ele>
        <time>2021-09-10T09:00:08.678Z</time>
      </trkpt>
      <trkpt lat="45.67211" lon="5.93933">
        <ele>421</ele>
        <time>2021-09-10T09:00:09.679Z</time>
      </trkpt>
      <trkpt lat="45.67214" lon="5.93933">
        <ele>421</ele>
        <time>2021-09-10T09:00:10.679Z</time>
      </trkpt>
      <trkpt lat="45.67217" lon="5.93934">
        <ele>421</ele>
        <time>2021-09-10T09:00:11.678Z</time>
      </trkpt>
      <trkpt lat="45.67222" lon="5.93935">
        <ele>422</ele>
        <time>2021-09-10T09:00:12.679Z</time>
      </trkpt>
      <trkpt lat="45.67225" lon="5.93936">
        <ele>422</ele>
        <time>2021-09-10T09:00:13.679Z</time>
      </trkpt>
      <trkpt lat="45.67228" lon="5.93937">
        <ele>422</ele>
        <time>2021-09-10T09:00:14.679Z</time>
      </trkpt>
      <trkpt lat="45.67231" lon="5.93938">
        <ele>422</ele>
        <time>2021-09-10T09:00:15.678Z</time>
      </trkpt>
      <trkpt lat="45.67235" lon="5.93939">
        <ele>422</ele>
        <time>2021-09-10T09:00:16.679Z</time>
      </trkpt>
      <trkpt lat="45.67238" lon="5.9394">
        <ele>422</ele>
        <time>2021-09-10T09:00:17.678Z</time>
      </trkpt>
      <trkpt lat="45.67241" lon="5.93941">
        <ele>422</ele>
        <time>2021-09-10T09:00:18.678Z</time>
      </trkpt>
      <trkpt lat="45.67245" lon="5.93942">
        <ele>422</ele>
        <time>2021-09-10T09:00:19.679Z</time>
      </trkpt>
      <trkpt lat="45.67248" lon="5.93943">
        <ele>422</ele>
        <time>2021-09-10T09:00:20.679Z</time>
      </trkpt>
      <trkpt lat="45.67251" lon="5.93944">
        <ele>422</ele>
        <time>2021-09-10T09:00:21.678Z</time>
      </trkpt>
      <trkpt lat="45.67254" lon="5.93945">
        <ele>422</ele>
        <time>2021-09-10T09:00:22.679Z</time>
      </trkpt>
      <trkpt lat="45.67258" lon="5.93946">
        <ele>422</ele>
        <time>2021-09-10T09:00:23.679Z</time>
      </trkpt>
      <trkpt lat="45.6726" lon="5.93947">
        <ele>422</ele>
        <time>2021-09-10T09:00:24.679Z</time>
      </trkpt>
      <trkpt lat="45.67264" lon="5.93948">
        <ele>422</ele>
        <time>2021-09-10T09:00:25.679Z</time>
      </trkpt>
      <trkpt lat="45.67268" lon="5.93948">
        <ele>422</ele>
        <time>2021-09-10T09:00:26.679Z</time>
      </trkpt>
      <trkpt lat="45.67271" lon="5.93948">
        <ele>422</ele>
        <time>2021-09-10T09:00:27.679Z</time>
      </trkpt>
      <trkpt lat="45.67275" lon="5.93948">
        <ele>422</ele>
        <time>2021-09-10T09:00:28.678Z</time>
      </trkpt>
      <trkpt lat="45.67278" lon="5.93948">
        <ele>423</ele>
        <time>2021-09-10T09:00:29.679Z</time>
      </trkpt>
      <trkpt lat="45.67281" lon="5.93949">
        <ele>423</ele>
        <time>2021-09-10T09:00:30.679Z</time>
      </trkpt>
      <trkpt lat="45.67285" lon="5.93949">
        <ele>423</ele>
        <time>2021-09-10T09:00:31.678Z</time>
      </trkpt>
      <trkpt lat="45.67288" lon="5.93948">
        <ele>423</ele>
        <time>2021-09-10T09:00:32.679Z</time>
      </trkpt>
      <trkpt lat="45.67291" lon="5.93948">
        <ele>423</ele>
        <time>2021-09-10T09:00:33.679Z</time>
      </trkpt>
      <trkpt lat="45.67295" lon="5.93948">
        <ele>423</ele>
        <time>2021-09-10T09:00:34.679Z</time>
      </trkpt>
      <trkpt lat="45.67298" lon="5.93947">
        <ele>423</ele>
        <time>2021-09-10T09:00:35.678Z</time>
      </trkpt>
      <trkpt lat="45.67302" lon="5.93946">
        <ele>423</ele>
        <time>2021-09-10T09:00:36.679Z</time>
      </trkpt>
      <trkpt lat="45.67306" lon="5.93945">
        <ele>423</ele>
        <time>2021-09-10T09:00:37.679Z</time>
      </trkpt>
      <trkpt lat="45.67309" lon="5.93944">
        <ele>423</ele>
        <time>2021-09-10T09:00:38.679Z</time>
      </trkpt>
      <trkpt lat="45.67313" lon="5.93943">
        <ele>423</ele>
        <time>2021-09-10T09:00:39.679Z</time>
      </trkpt>
      <trkpt lat="45.67317" lon="5.93942">
        <ele>423</ele>
        <time>2021-09-10T09:00:40.678Z</time>
      </trkpt>
      <trkpt lat="45.67321" lon="5.9394">
        <ele>423</ele>
        <time>2021-09-10T09:00:41.679Z</time>
      </trkpt>
      <trkpt lat="45.67324" lon="5.93939">
        <ele>422</ele>
        <time>2021-09-10T09:00:42.679Z</time>
      </trkpt>
      <trkpt lat="45.67328" lon="5.93938">
        <ele>422</ele>
        <time>2021-09-10T09:00:43.679Z</time>
      </trkpt>
      <trkpt lat="45.67332" lon="5.93937">
        <ele>423</ele>
        <time>2021-09-10T09:00:44.678Z</time>
      </trkpt>
      <trkpt lat="45.67335" lon="5.93935">
        <ele>423</ele>
        <time>2021-09-10T09:00:45.679Z</time>
      </trkpt>
      <trkpt lat="45.67339" lon="5.93934">
        <ele>423</ele>
        <time>2021-09-10T09:00:46.678Z</time>
      </trkpt>
      <trkpt lat="45.67343" lon="5.93933">
        <ele>424</ele>
        <time>2021-09-10T09:00:47.678Z</time>
      </trkpt>
      <trkpt lat="45.67346" lon="5.93931">
        <ele>423</ele>
        <time>2021-09-10T09:00:48.678Z</time>
      </trkpt>
      <trkpt lat="45.6735" lon="5.9393">
        <ele>423</ele>
        <time>2021-09-10T09:00:49.679Z</time>
      </trkpt>
      <trkpt lat="45.67353" lon="5.93929">
        <ele>423</ele>
        <time>2021-09-10T09:00:50.679Z</time>
      </trkpt>
      <trkpt lat="45.67357" lon="5.93928">
        <ele>424</ele>
        <time>2021-09-10T09:00:51.679Z</time>
      </trkpt>
      <trkpt lat="45.67361" lon="5.93926">
        <ele>424</ele>
        <time>2021-09-10T09:00:52.679Z</time>
      </trkpt>
      <trkpt lat="45.67364" lon="5.93925">
        <ele>425</ele>
        <time>2021-09-10T09:00:53.679Z</time>
      </trkpt>
      <trkpt lat="45.67368" lon="5.93923">
        <ele>425</ele>
        <time>2021-09-10T09:00:54.679Z</time>
      </trkpt>
      <trkpt lat="45.67371" lon="5.93922">
        <ele>425</ele>
        <time>2021-09-10T09:00:55.679Z</time>
      </trkpt>
      <trkpt lat="45.67375" lon="5.93921">
        <ele>425</ele>
        <time>2021-09-10T09:00:56.678Z</time>
      </trkpt>
      <trkpt lat="45.67379" lon="5.93919">
        <ele>426</ele>
        <time>2021-09-10T09:00:57.678Z</time>
      </trkpt>
      <trkpt lat="45.67382" lon="5.93918">
        <ele>426</ele>
        <time>2021-09-10T09:00:58.679Z</time>
      </trkpt>
      <trkpt lat="45.67386" lon="5.93917">
        <ele>425</ele>
        <time>2021-09-10T09:00:59.678Z</time>
      </trkpt>
      <trkpt lat="45.6739" lon="5.93916">
        <ele>425</ele>
        <time>2021-09-10T09:01:00.679Z</time>
      </trkpt>
      <trkpt lat="45.67393" lon="5.93914">
        <ele>425</ele>
        <time>2021-09-10T09:01:01.679Z</time>
      </trkpt>
      <trkpt lat="45.67397" lon="5.93913">
        <ele>425</ele>
        <time>2021-09-10T09:01:02.679Z</time>
      </trkpt>
      <trkpt lat="45.674" lon="5.93911">
        <ele>425</ele>
        <time>2021-09-10T09:01:03.679Z</time>
      </trkpt>
      <trkpt lat="45.67404" lon="5.9391">
        <ele>425</ele>
        <time>2021-09-10T09:01:04.678Z</time>
      </trkpt>
      <trkpt lat="45.67407" lon="5.93909">
        <ele>425</ele>
        <time>2021-09-10T09:01:05.679Z</time>
      </trkpt>
      <trkpt lat="45.67411" lon="5.93907">
        <ele>426</ele>
        <time>2021-09-10T09:01:06.679Z</time>
      </trkpt>
      <trkpt lat="45.67415" lon="5.93906">
        <ele>426</ele>
        <time>2021-09-10T09:01:07.679Z</time>
      </trkpt>
      <trkpt lat="45.67419" lon="5.93905">
        <ele>426</ele>
        <time>2021-09-10T09:01:08.679Z</time>
      </trkpt>
      <trkpt lat="45.67423" lon="5.93903">
        <ele>425</ele>
        <time>2021-09-10T09:01:09.679Z</time>
      </trkpt>
      <trkpt lat="45.67426" lon="5.93902">
        <ele>425</ele>
        <time>2021-09-10T09:01:10.679Z</time>
      </trkpt>
      <trkpt lat="45.6743" lon="5.939">
        <ele>425</ele>
        <time>2021-09-10T09:01:11.678Z</time>
      </trkpt>
      <trkpt lat="45.67434" lon="5.93899">
        <ele>425</ele>
        <time>2021-09-10T09:01:12.679Z</time>
      </trkpt>
      <trkpt lat="45.67438" lon="5.93897">
        <ele>426</ele>
        <time>2021-09-10T09:01:13.678Z</time>
      </trkpt>
      <trkpt lat="45.67441" lon="5.93896">
        <ele>426</ele>
        <time>2021-09-10T09:01:14.678Z</time>
      </trkpt>
      <trkpt lat="45.67445" lon="5.93894">
        <ele>426</ele>
        <time>2021-09-10T09:01:15.679Z</time>
      </trkpt>
      <trkpt lat="45.67449" lon="5.93893">
        <ele>426</ele>
        <time>2021-09-10T09:01:16.678Z</time>
      </trkpt>
      <trkpt lat="45.67453" lon="5.93892">
        <ele>426</ele>
        <time>2021-09-10T09:01:17.678Z</time>
      </trkpt>
      <trkpt lat="45.67457" lon="5.9389">
        <ele>426</ele>
        <time>2021-09-10T09:01:18.679Z</time>
      </trkpt>
      <trkpt lat="45.6746" lon="5.93889">
        <ele>426</ele>
        <time>2021-09-10T09:01:19.678Z</time>
      </trkpt>
      <trkpt lat="45.67464" lon="5.93887">
        <ele>427</ele>
        <time>2021-09-10T09:01:20.679Z</time>
      </trkpt>
      <trkpt lat="45.67468" lon="5.93886">
        <ele>427</ele>
        <time>2021-09-10T09:01:21.678Z</time>
      </trkpt>
      <trkpt lat="45.67472" lon="5.93885">
        <ele>427</ele>
        <time>2021-09-10T09:01:22.679Z</time>
      </trkpt>
      <trkpt lat="45.67475" lon="5.93884">
        <ele>427</ele>
        <time>2021-09-10T09:01:23.679Z</time>
      </trkpt>
      <trkpt lat="45.67479" lon="5.93883">
        <ele>427</ele>
        <time>2021-09-10T09:01:24.678Z</time>
      </trkpt>
      <trkpt lat="45.67483" lon="5.93882">
        <ele>427</ele>
        <time>2021-09-10T09:01:25.678Z</time>
      </trkpt>
      <trkpt lat="45.67485" lon="5.93881">
        <ele>427</ele>
        <time>2021-09-10T09:01:26.679Z</time>
      </trkpt>
      <trkpt lat="45.6749" lon="5.93879">
        <ele>427</ele>
        <time>2021-09-10T09:01:27.679Z</time>
      </trkpt>
      <trkpt lat="45.67493" lon="5.93878">
        <ele>428</ele>
        <time>2021-09-10T09:01:28.679Z</time>
      </trkpt>
      <trkpt lat="45.67497" lon="5.93876">
        <ele>428</ele>
        <time>2021-09-10T09:01:29.678Z</time>
      </trkpt>
      <trkpt lat="45.67501" lon="5.93875">
        <ele>428</ele>
        <time>2021-09-10T09:01:30.678Z</time>
      </trkpt>
      <trkpt lat="45.67504" lon="5.93874">
        <ele>428</ele>
        <time>2021-09-10T09:01:31.679Z</time>
      </trkpt>
      <trkpt lat="45.67508" lon="5.93873">
        <ele>428</ele>
        <time>2021-09-10T09:01:32.679Z</time>
      </trkpt>
      <trkpt lat="45.67512" lon="5.93871">
        <ele>428</ele>
        <time>2021-09-10T09:01:33.679Z</time>
      </trkpt>
      <trkpt lat="45.67516" lon="5.9387">
        <ele>428</ele>
        <time>2021-09-10T09:01:34.679Z</time>
      </trkpt>
      <trkpt lat="45.6752" lon="5.93868">
        <ele>428</ele>
        <time>2021-09-10T09:01:35.679Z</time>
      </trkpt>
      <trkpt lat="45.67524" lon="5.93867">
        <ele>428</ele>
        <time>2021-09-10T09:01:36.679Z</time>
      </trkpt>
      <trkpt lat="45.67528" lon="5.93865">
        <ele>428</ele>
        <time>2021-09-10T09:01:37.678Z</time>
      </trkpt>
      <trkpt lat="45.67532" lon="5.93864">
        <ele>428</ele>
        <time>2021-09-10T09:01:38.678Z</time>
      </trkpt>
      <trkpt lat="45.67536" lon="5.93862">
        <ele>428</ele>
        <time>2021-09-10T09:01:39.679Z</time>
      </trkpt>
      <trkpt lat="45.6754" lon="5.93861">
        <ele>427</ele>
        <time>2021-09-10T09:01:40.679Z</time>
      </trkpt>
      <trkpt lat="45.67544" lon="5.93859">
        <ele>428</ele>
        <time>2021-09-10T09:01:41.678Z</time>
      </trkpt>
      <trkpt lat="45.67548" lon="5.93857">
        <ele>428</ele>
        <time>2021-09-10T09:01:42.679Z</time>
      </trkpt>
      <trkpt lat="45.67552" lon="5.93855">
        <ele>428</ele>
        <time>2021-09-10T09:01:43.678Z</time>
      </trkpt>
      <trkpt lat="45.67556" lon="5.93853">
        <ele>428</ele>
        <time>2021-09-10T09:01:44.679Z</time>
      </trkpt>
      <trkpt lat="45.67561" lon="5.93851">
        <ele>428</ele>
        <time>2021-09-10T09:01:45.678Z</time>
      </trkpt>
      <trkpt lat="45.67565" lon="5.93849">
        <ele>427</ele>
        <time>2021-09-10T09:01:46.678Z</time>
      </trkpt>
      <trkpt lat="45.67569" lon="5.93847">
        <ele>427</ele>
        <time>2021-09-10T09:01:47.679Z</time>
      </trkpt>
      <trkpt lat="45.67574" lon="5.93845">
        <ele>427</ele>
        <time>2021-09-10T09:01:48.679Z</time>
      </trkpt>
      <trkpt lat="45.67578" lon="5.93842">
        <ele>427</ele>
        <time>2021-09-10T09:01:49.679Z</time>
      </trkpt>
      <trkpt lat="45.67582" lon="5.9384">
        <ele>427</ele>
        <time>2021-09-10T09:01:50.679Z</time>
      </trkpt>
      <trkpt lat="45.67587" lon="5.93838">
        <ele>427</ele>
        <time>2021-09-10T09:01:51.678Z</time>
      </trkpt>
      <trkpt lat="45.67592" lon="5.93836">
        <ele>428</ele>
        <time>2021-09-10T09:01:52.679Z</time>
      </trkpt>
      <trkpt lat="45.67596" lon="5.93834">
        <ele>428</ele>
        <time>2021-09-10T09:01:53.679Z</time>
      </trkpt>
      <trkpt lat="45.67601" lon="5.93831">
        <ele>428</ele>
        <time>2021-09-10T09:01:54.679Z</time>
      </trkpt>
      <trkpt lat="45.67605" lon="5.93829">
        <ele>428</ele>
        <time>2021-09-10T09:01:55.679Z</time>
      </trkpt>
      <trkpt lat="45.67609" lon="5.93827">
        <ele>429</ele>
        <time>2021-09-10T09:01:56.679Z</time>
      </trkpt>
      <trkpt lat="45.67613" lon="5.93825">
        <ele>429</ele>
        <time>2021-09-10T09:01:57.678Z</time>
      </trkpt>
      <trkpt lat="45.67617" lon="5.93822">
        <ele>429</ele>
        <time>2021-09-10T09:01:58.678Z</time>
      </trkpt>
      <trkpt lat="45.67622" lon="5.9382">
        <ele>429</ele>
        <time>2021-09-10T09:01:59.679Z</time>
      </trkpt>
      <trkpt lat="45.67626" lon="5.93818">
        <ele>429</ele>
        <time>2021-09-10T09:02:00.679Z</time>
      </trkpt>
      <trkpt lat="45.67631" lon="5.93815">
        <ele>428</ele>
        <time>2021-09-10T09:02:01.678Z</time>
      </trkpt>
      <trkpt lat="45.67636" lon="5.93812">
        <ele>428</ele>
        <time>2021-09-10T09:02:02.679Z</time>
      </trkpt>
      <trkpt lat="45.6764" lon="5.93809">
        <ele>428</ele>
        <time>2021-09-10T09:02:03.679Z</time>
      </trkpt>
      <trkpt lat="45.67645" lon="5.93806">
        <ele>428</ele>
        <time>2021-09-10T09:02:04.679Z</time>
      </trkpt>
      <trkpt lat="45.67649" lon="5.93803">
        <ele>428</ele>
        <time>2021-09-10T09:02:05.679Z</time>
      </trkpt>
      <trkpt lat="45.67654" lon="5.938">
        <ele>428</ele>
        <time>2021-09-10T09:02:06.678Z</time>
      </trkpt>
      <trkpt lat="45.67658" lon="5.93797">
        <ele>428</ele>
        <time>2021-09-10T09:02:07.678Z</time>
      </trkpt>
      <trkpt lat="45.67663" lon="5.93794">
        <ele>429</ele>
        <time>2021-09-10T09:02:08.679Z</time>
      </trkpt>
      <trkpt lat="45.67667" lon="5.93791">
        <ele>429</ele>
        <time>2021-09-10T09:02:09.678Z</time>
      </trkpt>
      <trkpt lat="45.67672" lon="5.93789">
        <ele>429</ele>
        <time>2021-09-10T09:02:10.679Z</time>
      </trkpt>
      <trkpt lat="45.67676" lon="5.93786">
        <ele>430</ele>
        <time>2021-09-10T09:02:11.679Z</time>
      </trkpt>
      <trkpt lat="45.6768" lon="5.93783">
        <ele>429</ele>
        <time>2021-09-10T09:02:12.679Z</time>
      </trkpt>
      <trkpt lat="45.67684" lon="5.93781">
        <ele>429</ele>
        <time>2021-09-10T09:02:13.679Z</time>
      </trkpt>
      <trkpt lat="45.67688" lon="5.93779">
        <ele>429</ele>
        <time>2021-09-10T09:02:14.679Z</time>
      </trkpt>
      <trkpt lat="45.67693" lon="5.93777">
        <ele>429</ele>
        <time>2021-09-10T09:02:15.679Z</time>
      </trkpt>
      <trkpt lat="45.67697" lon="5.93775">
        <ele>429</ele>
        <time>2021-09-10T09:02:16.679Z</time>
      </trkpt>
      <trkpt lat="45.67701" lon="5.93774">
        <ele>429</ele>
        <time>2021-09-10T09:02:17.679Z</time>
      </trkpt>
      <trkpt lat="45.67705" lon="5.93772">
        <ele>429</ele>
        <time>2021-09-10T09:02:18.679Z</time>
      </trkpt>
      <trkpt lat="45.67709" lon="5.9377">
        <ele>430</ele>
        <time>2021-09-10T09:02:19.678Z</time>
      </trkpt>
      <trkpt lat="45.67714" lon="5.93769">
        <ele>430</ele>
        <time>2021-09-10T09:02:20.679Z</time>
      </trkpt>
      <trkpt lat="45.67718" lon="5.93768">
        <ele>430</ele>
        <time>2021-09-10T09:02:21.679Z</time>
      </trkpt>
      <trkpt lat="45.67722" lon="5.93766">
        <ele>430</ele>
        <time>2021-09-10T09:02:22.679Z</time>
      </trkpt>
      <trkpt lat="45.67727" lon="5.93763">
        <ele>430</ele>
        <time>2021-09-10T09:02:23.679Z</time>
      </trkpt>
      <trkpt lat="45.67731" lon="5.93761">
        <ele>430</ele>
        <time>2021-09-10T09:02:24.678Z</time>
      </trkpt>
      <trkpt lat="45.67735" lon="5.93759">
        <ele>430</ele>
        <time>2021-09-10T09:02:25.679Z</time>
      </trkpt>
      <trkpt lat="45.6774" lon="5.93757">
        <ele>429</ele>
        <time>2021-09-10T09:02:26.679Z</time>
      </trkpt>
      <trkpt lat="45.67744" lon="5.93755">
        <ele>429</ele>
        <time>2021-09-10T09:02:27.679Z</time>
      </trkpt>
      <trkpt lat="45.67749" lon="5.93753">
        <ele>429</ele>
        <time>2021-09-10T09:02:28.679Z</time>
      </trkpt>
      <trkpt lat="45.67753" lon="5.93751">
        <ele>429</ele>
        <time>2021-09-10T09:02:29.679Z</time>
      </trkpt>
      <trkpt lat="45.67758" lon="5.93748">
        <ele>429</ele>
        <time>2021-09-10T09:02:30.679Z</time>
      </trkpt>
      <trkpt lat="45.67763" lon="5.93747">
        <ele>429</ele>
        <time>2021-09-10T09:02:31.678Z</time>
      </trkpt>
      <trkpt lat="45.67767" lon="5.93745">
        <ele>429</ele>
        <time>2021-09-10T09:02:32.679Z</time>
      </trkpt>
      <trkpt lat="45.67772" lon="5.93744">
        <ele>429</ele>
        <time>2021-09-10T09:02:33.679Z</time>
      </trkpt>
      <trkpt lat="45.67776" lon="5.93742">
        <ele>430</ele>
        <time>2021-09-10T09:02:34.679Z</time>
      </trkpt>
      <trkpt lat="45.67781" lon="5.93741">
        <ele>430</ele>
        <time>2021-09-10T09:02:35.678Z</time>
      </trkpt>
      <trkpt lat="45.67785" lon="5.9374">
        <ele>430</ele>
        <time>2021-09-10T09:02:36.679Z</time>
      </trkpt>
      <trkpt lat="45.6779" lon="5.93739">
        <ele>431</ele>
        <time>2021-09-10T09:02:37.678Z</time>
      </trkpt>
      <trkpt lat="45.67794" lon="5.93739">
        <ele>431</ele>
        <time>2021-09-10T09:02:38.678Z</time>
      </trkpt>
      <trkpt lat="45.67799" lon="5.93738">
        <ele>431</ele>
        <time>2021-09-10T09:02:39.678Z</time>
      </trkpt>
      <trkpt lat="45.67803" lon="5.93737">
        <ele>431</ele>
        <time>2021-09-10T09:02:40.679Z</time>
      </trkpt>
      <trkpt lat="45.67808" lon="5.93737">
        <ele>431</ele>
        <time>2021-09-10T09:02:41.678Z</time>
      </trkpt>
      <trkpt lat="45.67812" lon="5.93736">
        <ele>432</ele>
        <time>2021-09-10T09:02:42.679Z</time>
      </trkpt>
      <trkpt lat="45.67816" lon="5.93735">
        <ele>432</ele>
        <time>2021-09-10T09:02:43.679Z</time>
      </trkpt>
      <trkpt lat="45.67821" lon="5.93735">
        <ele>432</ele>
        <time>2021-09-10T09:02:44.679Z</time>
      </trkpt>
      <trkpt lat="45.67825" lon="5.93734">
        <ele>432</ele>
        <time>2021-09-10T09:02:45.679Z</time>
      </trkpt>
      <trkpt lat="45.67829" lon="5.93734">
        <ele>432</ele>
        <time>2021-09-10T09:02:46.679Z</time>
      </trkpt>
      <trkpt lat="45.67834" lon="5.93734">
        <ele>432</ele>
        <time>2021-09-10T09:02:47.679Z</time>
      </trkpt>
      <trkpt lat="45.67838" lon="5.93733">
        <ele>432</ele>
        <time>2021-09-10T09:02:48.679Z</time>
      </trkpt>
      <trkpt lat="45.67842" lon="5.93732">
        <ele>432</ele>
        <time>2021-09-10T09:02:49.679Z</time>
      </trkpt>
      <trkpt lat="45.67846" lon="5.93732">
        <ele>431</ele>
        <time>2021-09-10T09:02:50.679Z</time>
      </trkpt>
      <trkpt lat="45.67851" lon="5.93731">
        <ele>431</ele>
        <time>2021-09-10T09:02:51.679Z</time>
      </trkpt>
      <trkpt lat="45.67855" lon="5.9373">
        <ele>431</ele>
        <time>2021-09-10T09:02:52.678Z</time>
      </trkpt>
      <trkpt lat="45.6786" lon="5.9373">
        <ele>431</ele>
        <time>2021-09-10T09:02:53.678Z</time>
      </trkpt>
      <trkpt lat="45.67864" lon="5.93729">
        <ele>431</ele>
        <time>2021-09-10T09:02:54.678Z</time>
      </trkpt>
      <trkpt lat="45.67868" lon="5.93729">
        <ele>430</ele>
        <time>2021-09-10T09:02:55.678Z</time>
      </trkpt>
      <trkpt lat="45.67873" lon="5.9373">
        <ele>430</ele>
        <time>2021-09-10T09:02:56.678Z</time>
      </trkpt>
      <trkpt lat="45.67877" lon="5.9373">
        <ele>430</ele>
        <time>2021-09-10T09:02:57.679Z</time>
      </trkpt>
      <trkpt lat="45.67881" lon="5.93731">
        <ele>430</ele>
        <time>2021-09-10T09:02:58.679Z</time>
      </trkpt>
      <trkpt lat="45.67885" lon="5.93731">
        <ele>430</ele>
        <time>2021-09-10T09:02:59.679Z</time>
      </trkpt>
      <trkpt lat="45.67889" lon="5.93732">
        <ele>429</ele>
        <time>2021-09-10T09:03:00.679Z</time>
      </trkpt>
      <trkpt lat="45.67892" lon="5.93733">
        <ele>429</ele>
        <time>2021-09-10T09:03:01.678Z</time>
      </trkpt>
      <trkpt lat="45.67895" lon="5.93733">
        <ele>428</ele>
        <time>2021-09-10T09:03:02.678Z</time>
      </trkpt>
      <trkpt lat="45.67898" lon="5.93733">
        <ele>428</ele>
        <time>2021-09-10T09:03:03.679Z</time>
      </trkpt>
      <trkpt lat="45.67901" lon="5.93732">
        <ele>428</ele>
        <time>2021-09-10T09:03:04.678Z</time>
      </trkpt>
      <trkpt lat="45.67904" lon="5.93733">
        <ele>428</ele>
        <time>2021-09-10T09:03:05.679Z</time>
      </trkpt>
      <trkpt lat="45.67908" lon="5.93733">
        <ele>427</ele>
        <time>2021-09-10T09:03:06.679Z</time>
      </trkpt>
      <trkpt lat="45.67912" lon="5.93734">
        <ele>428</ele>
        <time>2021-09-10T09:03:07.679Z</time>
      </trkpt>
      <trkpt lat="45.67915" lon="5.93734">
        <ele>428</ele>
        <time>2021-09-10T09:03:08.679Z</time>
      </trkpt>
      <trkpt lat="45.67919" lon="5.93735">
        <ele>429</ele>
        <time>2021-09-10T09:03:09.679Z</time>
      </trkpt>
      <trkpt lat="45.67924" lon="5.93735">
        <ele>430</ele>
        <time>2021-09-10T09:03:10.679Z</time>
      </trkpt>
      <trkpt lat="45.67929" lon="5.93735">
        <ele>431</ele>
        <time>2021-09-10T09:03:11.679Z</time>
      </trkpt>
      <trkpt lat="45.67933" lon="5.93736">
        <ele>430</ele>
        <time>2021-09-10T09:03:12.679Z</time>
      </trkpt>
      <trkpt lat="45.67938" lon="5.93736">
        <ele>430</ele>
        <time>2021-09-10T09:03:13.679Z</time>
      </trkpt>
      <trkpt lat="45.67943" lon="5.93736">
        <ele>430</ele>
        <time>2021-09-10T09:03:14.679Z</time>
      </trkpt>
      <trkpt lat="45.67947" lon="5.93737">
        <ele>430</ele>
        <time>2021-09-10T09:03:15.679Z</time>
      </trkpt>
      <trkpt lat="45.67953" lon="5.93738">
        <ele>430</ele>
        <time>2021-09-10T09:03:16.679Z</time>
      </trkpt>
      <trkpt lat="45.67958" lon="5.93738">
        <ele>430</ele>
        <time>2021-09-10T09:03:17.678Z</time>
      </trkpt>
      <trkpt lat="45.67963" lon="5.9374">
        <ele>430</ele>
        <time>2021-09-10T09:03:18.679Z</time>
      </trkpt>
      <trkpt lat="45.67968" lon="5.93741">
        <ele>430</ele>
        <time>2021-09-10T09:03:19.679Z</time>
      </trkpt>
      <trkpt lat="45.67973" lon="5.93742">
        <ele>431</ele>
        <time>2021-09-10T09:03:20.679Z</time>
      </trkpt>
      <trkpt lat="45.67978" lon="5.93742">
        <ele>431</ele>
        <time>2021-09-10T09:03:21.678Z</time>
      </trkpt>
      <trkpt lat="45.67984" lon="5.93743">
        <ele>431</ele>
        <time>2021-09-10T09:03:22.679Z</time>
      </trkpt>
      <trkpt lat="45.67989" lon="5.93743">
        <ele>431</ele>
        <time>2021-09-10T09:03:23.678Z</time>
      </trkpt>
      <trkpt lat="45.67994" lon="5.93744">
        <ele>431</ele>
        <time>2021-09-10T09:03:24.679Z</time>
      </trkpt>
      <trkpt lat="45.68" lon="5.93745">
        <ele>430</ele>
        <time>2021-09-10T09:03:25.679Z</time>
      </trkpt>
      <trkpt lat="45.68006" lon="5.93747">
        <ele>430</ele>
        <time>2021-09-10T09:03:26.679Z</time>
      </trkpt>
      <trkpt lat="45.68012" lon="5.93748">
        <ele>429</ele>
        <time>2021-09-10T09:03:27.679Z</time>
      </trkpt>
      <trkpt lat="45.68017" lon="5.93749">
        <ele>429</ele>
        <time>2021-09-10T09:03:28.679Z</time>
      </trkpt>
      <trkpt lat="45.68022" lon="5.93749">
        <ele>429</ele>
        <time>2021-09-10T09:03:29.678Z</time>
      </trkpt>
      <trkpt lat="45.68026" lon="5.93749">
        <ele>429</ele>
        <time>2021-09-10T09:03:30.678Z</time>
      </trkpt>
      <trkpt lat="45.6803" lon="5.9375">
        <ele>429</ele>
        <time>2021-09-10T09:03:31.678Z</time>
      </trkpt>
      <trkpt lat="45.68033" lon="5.9375">
        <ele>429</ele>
        <time>2021-09-10T09:03:32.679Z</time>
      </trkpt>
      <trkpt lat="45.68037" lon="5.9375">
        <ele>429</ele>
        <time>2021-09-10T09:03:33.679Z</time>
      </trkpt>
      <trkpt lat="45.6804" lon="5.9375">
        <ele>429</ele>
        <time>2021-09-10T09:03:34.678Z</time>
      </trkpt>
      <trkpt lat="45.68043" lon="5.93751">
        <ele>429</ele>
        <time>2021-09-10T09:03:35.679Z</time>
      </trkpt>
      <trkpt lat="45.68047" lon="5.93751">
        <ele>429</ele>
        <time>2021-09-10T09:03:36.679Z</time>
      </trkpt>
      <trkpt lat="45.68051" lon="5.93751">
        <ele>429</ele>
        <time>2021-09-10T09:03:37.678Z</time>
      </trkpt>
      <trkpt lat="45.68055" lon="5.93751">
        <ele>429</ele>
        <time>2021-09-10T09:03:38.679Z</time>
      </trkpt>
      <trkpt lat="45.6806" lon="5.93751">
        <ele>428</ele>
        <time>2021-09-10T09:03:39.679Z</time>
      </trkpt>
      <trkpt lat="45.68065" lon="5.93752">
        <ele>428</ele>
        <time>2021-09-10T09:03:40.679Z</time>
      </trkpt>
      <trkpt lat="45.68071" lon="5.93753">
        <ele>428</ele>
        <time>2021-09-10T09:03:41.679Z</time>
      </trkpt>
      <trkpt lat="45.68076" lon="5.93754">
        <ele>428</ele>
        <time>2021-09-10T09:03:42.679Z</time>
      </trkpt>
      <trkpt lat="45.68082" lon="5.93755">
        <ele>428</ele>
        <time>2021-09-10T09:03:43.679Z</time>
      </trkpt>
      <trkpt lat="45.68088" lon="5.93756">
        <ele>428</ele>
        <time>2021-09-10T09:03:44.679Z</time>
      </trkpt>
      <trkpt lat="45.68094" lon="5.93757">
        <ele>427</ele>
        <time>2021-09-10T09:03:45.679Z</time>
      </trkpt>
      <trkpt lat="45.68101" lon="5.93758">
        <ele>427</ele>
        <time>2021-09-10T09:03:46.678Z</time>
      </trkpt>
      <trkpt lat="45.68107" lon="5.9376">
        <ele>427</ele>
        <time>2021-09-10T09:03:47.679Z</time>
      </trkpt>
      <trkpt lat="45.68114" lon="5.93761">
        <ele>427</ele>
        <time>2021-09-10T09:03:48.679Z</time>
      </trkpt>
      <trkpt lat="45.6812" lon="5.93763">
        <ele>427</ele>
        <time>2021-09-10T09:03:49.678Z</time>
      </trkpt>
      <trkpt lat="45.68127" lon="5.93764">
        <ele>426</ele>
        <time>2021-09-10T09:03:50.678Z</time>
      </trkpt>
      <trkpt lat="45.68134" lon="5.93765">
        <ele>426</ele>
        <time>2021-09-10T09:03:51.679Z</time>
      </trkpt>
      <trkpt lat="45.6814" lon="5.93767">
        <ele>425</ele>
        <time>2021-09-10T09:03:52.679Z</time>
      </trkpt>
      <trkpt lat="45.68148" lon="5.93768">
        <ele>425</ele>
        <time>2021-09-10T09:03:53.679Z</time>
      </trkpt>
      <trkpt lat="45.68155" lon="5.93769">
        <ele>425</ele>
        <time>2021-09-10T09:03:54.679Z</time>
      </trkpt>
      <trkpt lat="45.68162" lon="5.93771">
        <ele>424</ele>
        <time>2021-09-10T09:03:55.678Z</time>
      </trkpt>
      <trkpt lat="45.68169" lon="5.93772">
        <ele>424</ele>
        <time>2021-09-10T09:03:56.679Z</time>
      </trkpt>
      <trkpt lat="45.68176" lon="5.93773">
        <ele>423</ele>
        <time>2021-09-10T09:03:57.678Z</time>
      </trkpt>
      <trkpt lat="45.68183" lon="5.93775">
        <ele>422</ele>
        <time>2021-09-10T09:03:58.679Z</time>
      </trkpt>
      <trkpt lat="45.68189" lon="5.93775">
        <ele>422</ele>
        <time>2021-09-10T09:03:59.679Z</time>
      </trkpt>
      <trkpt lat="45.68194" lon="5.93775">
        <ele>422</ele>
        <time>2021-09-10T09:04:00.679Z</time>
      </trkpt>
      <trkpt lat="45.68199" lon="5.93776">
        <ele>423</ele>
        <time>2021-09-10T09:04:01.679Z</time>
      </trkpt>
      <trkpt lat="45.68203" lon="5.93776">
        <ele>422</ele>
        <time>2021-09-10T09:04:02.678Z</time>
      </trkpt>
      <trkpt lat="45.68208" lon="5.93776">
        <ele>422</ele>
        <time>2021-09-10T09:04:03.679Z</time>
      </trkpt>
      <trkpt lat="45.68212" lon="5.93777">
        <ele>422</ele>
        <time>2021-09-10T09:04:04.679Z</time>
      </trkpt>
      <trkpt lat="45.68218" lon="5.93779">
        <ele>422</ele>
        <time>2021-09-10T09:04:05.679Z</time>
      </trkpt>
      <trkpt lat="45.68222" lon="5.9378">
        <ele>422</ele>
        <time>2021-09-10T09:04:06.678Z</time>
      </trkpt>
      <trkpt lat="45.68228" lon="5.93783">
        <ele>422</ele>
        <time>2021-09-10T09:04:07.679Z</time>
      </trkpt>
      <trkpt lat="45.68234" lon="5.93785">
        <ele>421</ele>
        <time>2021-09-10T09:04:08.679Z</time>
      </trkpt>
      <trkpt lat="45.6824" lon="5.93787">
        <ele>421</ele>
        <time>2021-09-10T09:04:09.679Z</time>
      </trkpt>
      <trkpt lat="45.68246" lon="5.93788">
        <ele>421</ele>
        <time>2021-09-10T09:04:10.678Z</time>
      </trkpt>
      <trkpt lat="45.68253" lon="5.9379">
        <ele>421</ele>
        <time>2021-09-10T09:04:11.678Z</time>
      </trkpt>
      <trkpt lat="45.6826" lon="5.93792">
        <ele>421</ele>
        <time>2021-09-10T09:04:12.679Z</time>
      </trkpt>
      <trkpt lat="45.68268" lon="5.93794">
        <ele>421</ele>
        <time>2021-09-10T09:04:13.679Z</time>
      </trkpt>
      <trkpt lat="45.68275" lon="5.93797">
        <ele>421</ele>
        <time>2021-09-10T09:04:14.678Z</time>
      </trkpt>
      <trkpt lat="45.68283" lon="5.93799">
        <ele>421</ele>
        <time>2021-09-10T09:04:15.678Z</time>
      </trkpt>
      <trkpt lat="45.68291" lon="5.93802">
        <ele>422</ele>
        <time>2021-09-10T09:04:16.679Z</time>
      </trkpt>
      <trkpt lat="45.68299" lon="5.93805">
        <ele>421</ele>
        <time>2021-09-10T09:04:17.679Z</time>
      </trkpt>
      <trkpt lat="45.68307" lon="5.93808">
        <ele>421</ele>
        <time>2021-09-10T09:04:18.679Z</time>
      </trkpt>
      <trkpt lat="45.68315" lon="5.9381">
        <ele>420</ele>
        <time>2021-09-10T09:04:19.678Z</time>
      </trkpt>
      <trkpt lat="45.68322" lon="5.93812">
        <ele>420</ele>
        <time>2021-09-10T09:04:20.679Z</time>
      </trkpt>
      <trkpt lat="45.68329" lon="5.93814">
        <ele>419</ele>
        <time>2021-09-10T09:04:21.678Z</time>
      </trkpt>
      <trkpt lat="45.68336" lon="5.93816">
        <ele>419</ele>
        <time>2021-09-10T09:04:22.679Z</time>
      </trkpt>
      <trkpt lat="45.68343" lon="5.93818">
        <ele>418</ele>
        <time>2021-09-10T09:04:23.679Z</time>
      </trkpt>
      <trkpt lat="45.6835" lon="5.93819">
        <ele>417</ele>
        <time>2021-09-10T09:04:24.678Z</time>
      </trkpt>
      <trkpt lat="45.68356" lon="5.9382">
        <ele>417</ele>
        <time>2021-09-10T09:04:25.679Z</time>
      </trkpt>
      <trkpt lat="45.68363" lon="5.93821">
        <ele>417</ele>
        <time>2021-09-10T09:04:26.679Z</time>
      </trkpt>
      <trkpt lat="45.68369" lon="5.93822">
        <ele>417</ele>
        <time>2021-09-10T09:04:27.679Z</time>
      </trkpt>
      <trkpt lat="45.68375" lon="5.93823">
        <ele>418</ele>
        <time>2021-09-10T09:04:28.679Z</time>
      </trkpt>
      <trkpt lat="45.6838" lon="5.93824">
        <ele>417</ele>
        <time>2021-09-10T09:04:29.679Z</time>
      </trkpt>
      <trkpt lat="45.68386" lon="5.93825">
        <ele>417</ele>
        <time>2021-09-10T09:04:30.679Z</time>
      </trkpt>
      <trkpt lat="45.68392" lon="5.93826">
        <ele>417</ele>
        <time>2021-09-10T09:04:31.679Z</time>
      </trkpt>
      <trkpt lat="45.68397" lon="5.93827">
        <ele>417</ele>
        <time>2021-09-10T09:04:32.679Z</time>
      </trkpt>
      <trkpt lat="45.68402" lon="5.93828">
        <ele>417</ele>
        <time>2021-09-10T09:04:33.679Z</time>
      </trkpt>
      <trkpt lat="45.68408" lon="5.93829">
        <ele>417</ele>
        <time>2021-09-10T09:04:34.679Z</time>
      </trkpt>
      <trkpt lat="45.68413" lon="5.9383">
        <ele>417</ele>
        <time>2021-09-10T09:04:35.678Z</time>
      </trkpt>
      <trkpt lat="45.68418" lon="5.93831">
        <ele>418</ele>
        <time>2021-09-10T09:04:36.679Z</time>
      </trkpt>
      <trkpt lat="45.68423" lon="5.93832">
        <ele>418</ele>
        <time>2021-09-10T09:04:37.678Z</time>
      </trkpt>
      <trkpt lat="45.68429" lon="5.93833">
        <ele>418</ele>
        <time>2021-09-10T09:04:38.679Z</time>
      </trkpt>
      <trkpt lat="45.68434" lon="5.93834">
        <ele>418</ele>
        <time>2021-09-10T09:04:39.679Z</time>
      </trkpt>
      <trkpt lat="45.68439" lon="5.93834">
        <ele>418</ele>
        <time>2021-09-10T09:04:40.678Z</time>
      </trkpt>
      <trkpt lat="45.68444" lon="5.93835">
        <ele>418</ele>
        <time>2021-09-10T09:04:41.679Z</time>
      </trkpt>
      <trkpt lat="45.68449" lon="5.93836">
        <ele>418</ele>
        <time>2021-09-10T09:04:42.679Z</time>
      </trkpt>
      <trkpt lat="45.68454" lon="5.93838">
        <ele>419</ele>
        <time>2021-09-10T09:04:43.679Z</time>
      </trkpt>
      <trkpt lat="45.68458" lon="5.93839">
        <ele>419</ele>
        <time>2021-09-10T09:04:44.679Z</time>
      </trkpt>
      <trkpt lat="45.68464" lon="5.93841">
        <ele>419</ele>
        <time>2021-09-10T09:04:45.678Z</time>
      </trkpt>
      <trkpt lat="45.68469" lon="5.93842">
        <ele>419</ele>
        <time>2021-09-10T09:04:46.678Z</time>
      </trkpt>
      <trkpt lat="45.68474" lon="5.93844">
        <ele>419</ele>
        <time>2021-09-10T09:04:47.679Z</time>
      </trkpt>
      <trkpt lat="45.68479" lon="5.93845">
        <ele>419</ele>
        <time>2021-09-10T09:04:48.678Z</time>
      </trkpt>
      <trkpt lat="45.68484" lon="5.93846">
        <ele>419</ele>
        <time>2021-09-10T09:04:49.679Z</time>
      </trkpt>
      <trkpt lat="45.68488" lon="5.93847">
        <ele>419</ele>
        <time>2021-09-10T09:04:50.679Z</time>
      </trkpt>
      <trkpt lat="45.68492" lon="5.93848">
        <ele>419</ele>
        <time>2021-09-10T09:04:51.678Z</time>
      </trkpt>
      <trkpt lat="45.68497" lon="5.93848">
        <ele>419</ele>
        <time>2021-09-10T09:04:52.678Z</time>
      </trkpt>
      <trkpt lat="45.68501" lon="5.93849">
        <ele>419</ele>
        <time>2021-09-10T09:04:53.678Z</time>
      </trkpt>
      <trkpt lat="45.68505" lon="5.9385">
        <ele>419</ele>
        <time>2021-09-10T09:04:54.679Z</time>
      </trkpt>
      <trkpt lat="45.6851" lon="5.9385">
        <ele>419</ele>
        <time>2021-09-10T09:04:55.679Z</time>
      </trkpt>
      <trkpt lat="45.68514" lon="5.93851">
        <ele>420</ele>
        <time>2021-09-10T09:04:56.678Z</time>
      </trkpt>
      <trkpt lat="45.68518" lon="5.93852">
        <ele>420</ele>
        <time>2021-09-10T09:04:57.678Z</time>
      </trkpt>
      <trkpt lat="45.68522" lon="5.93853">
        <ele>420</ele>
        <time>2021-09-10T09:04:58.679Z</time>
      </trkpt>
      <trkpt lat="45.68526" lon="5.93854">
        <ele>419</ele>
        <time>2021-09-10T09:04:59.679Z</time>
      </trkpt>
      <trkpt lat="45.68531" lon="5.93854">
        <ele>420</ele>
        <time>2021-09-10T09:05:00.679Z</time>
      </trkpt>
      <trkpt lat="45.68535" lon="5.93854">
        <ele>420</ele>
        <time>2021-09-10T09:05:01.679Z</time>
      </trkpt>
      <trkpt lat="45.68539" lon="5.93855">
        <ele>420</ele>
        <time>2021-09-10T09:05:02.678Z</time>
      </trkpt>
      <trkpt lat="45.68543" lon="5.93856">
        <ele>421</ele>
        <time>2021-09-10T09:05:03.679Z</time>
      </trkpt>
      <trkpt lat="45.68547" lon="5.93856">
        <ele>421</ele>
        <time>2021-09-10T09:05:04.678Z</time>
      </trkpt>
      <trkpt lat="45.68551" lon="5.93857">
        <ele>421</ele>
        <time>2021-09-10T09:05:05.678Z</time>
      </trkpt>
      <trkpt lat="45.68554" lon="5.93858">
        <ele>421</ele>
        <time>2021-09-10T09:05:06.679Z</time>
      </trkpt>
      <trkpt lat="45.68558" lon="5.93859">
        <ele>421</ele>
        <time>2021-09-10T09:05:07.679Z</time>
      </trkpt>
      <trkpt lat="45.68562" lon="5.93859">
        <ele>421</ele>
        <time>2021-09-10T09:05:08.679Z</time>
      </trkpt>
      <trkpt lat="45.68566" lon="5.9386">
        <ele>421</ele>
        <time>2021-09-10T09:05:09.678Z</time>
      </trkpt>
      <trkpt lat="45.68569" lon="5.93861">
        <ele>421</ele>
        <time>2021-09-10T09:05:10.678Z</time>
      </trkpt>
      <trkpt lat="45.68573" lon="5.93861">
        <ele>421</ele>
        <time>2021-09-10T09:05:11.678Z</time>
      </trkpt>
      <trkpt lat="45.68576" lon="5.93862">
        <ele>421</ele>
        <time>2021-09-10T09:05:12.678Z</time>
      </trkpt>
      <trkpt lat="45.68579" lon="5.93862">
        <ele>422</ele>
        <time>2021-09-10T09:05:13.678Z</time>
      </trkpt>
      <trkpt lat="45.68583" lon="5.93863">
        <ele>422</ele>
        <time>2021-09-10T09:05:14.679Z</time>
      </trkpt>
      <trkpt lat="45.68586" lon="5.93864">
        <ele>422</ele>
        <time>2021-09-10T09:05:15.679Z</time>
      </trkpt>
      <trkpt lat="45.68589" lon="5.93864">
        <ele>422</ele>
        <time>2021-09-10T09:05:16.679Z</time>
      </trkpt>
      <trkpt lat="45.68593" lon="5.93865">
        <ele>422</ele>
        <time>2021-09-10T09:05:17.679Z</time>
      </trkpt>
      <trkpt lat="45.68596" lon="5.93866">
        <ele>422</ele>
        <time>2021-09-10T09:05:18.679Z</time>
      </trkpt>
      <trkpt lat="45.68599" lon="5.93866">
        <ele>423</ele>
        <time>2021-09-10T09:05:19.678Z</time>
      </trkpt>
      <trkpt lat="45.68602" lon="5.93867">
        <ele>423</ele>
        <time>2021-09-10T09:05:20.679Z</time>
      </trkpt>
      <trkpt lat="45.68605" lon="5.93868">
        <ele>423</ele>
        <time>2021-09-10T09:05:21.678Z</time>
      </trkpt>
      <trkpt lat="45.68609" lon="5.93868">
        <ele>423</ele>
        <time>2021-09-10T09:05:22.679Z</time>
      </trkpt>
      <trkpt lat="45.68612" lon="5.93869">
        <ele>423</ele>
        <time>2021-09-10T09:05:23.678Z</time>
      </trkpt>
      <trkpt lat="45.68615" lon="5.93869">
        <ele>423</ele>
        <time>2021-09-10T09:05:24.678Z</time>
      </trkpt>
      <trkpt lat="45.68618" lon="5.9387">
        <ele>424</ele>
        <time>2021-09-10T09:05:25.678Z</time>
      </trkpt>
      <trkpt lat="45.68621" lon="5.9387">
        <ele>424</ele>
        <time>2021-09-10T09:05:26.679Z</time>
      </trkpt>
      <trkpt lat="45.68624" lon="5.93871">
        <ele>424</ele>
        <time>2021-09-10T09:05:27.679Z</time>
      </trkpt>
      <trkpt lat="45.68627" lon="5.93872">
        <ele>424</ele>
        <time>2021-09-10T09:05:28.678Z</time>
      </trkpt>
      <trkpt lat="45.68631" lon="5.93872">
        <ele>424</ele>
        <time>2021-09-10T09:05:29.679Z</time>
      </trkpt>
      <trkpt lat="45.68634" lon="5.93873">
        <ele>424</ele>
        <time>2021-09-10T09:05:30.679Z</time>
      </trkpt>
      <trkpt lat="45.68638" lon="5.93874">
        <ele>424</ele>
        <time>2021-09-10T09:05:31.679Z</time>
      </trkpt>
      <trkpt lat="45.68641" lon="5.93875">
        <ele>424</ele>
        <time>2021-09-10T09:05:32.679Z</time>
      </trkpt>
      <trkpt lat="45.68644" lon="5.93875">
        <ele>425</ele>
        <time>2021-09-10T09:05:33.679Z</time>
      </trkpt>
      <trkpt lat="45.68647" lon="5.93876">
        <ele>425</ele>
        <time>2021-09-10T09:05:34.679Z</time>
      </trkpt>
      <trkpt lat="45.6865" lon="5.93877">
        <ele>426</ele>
        <time>2021-09-10T09:05:35.678Z</time>
      </trkpt>
      <trkpt lat="45.68654" lon="5.93878">
        <ele>426</ele>
        <time>2021-09-10T09:05:36.679Z</time>
      </trkpt>
      <trkpt lat="45.68657" lon="5.93879">
        <ele>426</ele>
        <time>2021-09-10T09:05:37.679Z</time>
      </trkpt>
      <trkpt lat="45.6866" lon="5.93879">
        <ele>427</ele>
        <time>2021-09-10T09:05:38.678Z</time>
      </trkpt>
      <trkpt lat="45.68663" lon="5.9388">
        <ele>427</ele>
        <time>2021-09-10T09:05:39.679Z</time>
      </trkpt>
      <trkpt lat="45.68667" lon="5.9388">
        <ele>427</ele>
        <time>2021-09-10T09:05:40.678Z</time>
      </trkpt>
      <trkpt lat="45.6867" lon="5.93881">
        <ele>428</ele>
        <time>2021-09-10T09:05:41.678Z</time>
      </trkpt>
      <trkpt lat="45.68673" lon="5.93882">
        <ele>428</ele>
        <time>2021-09-10T09:05:42.679Z</time>
      </trkpt>
      <trkpt lat="45.68676" lon="5.93883">
        <ele>428</ele>
        <time>2021-09-10T09:05:43.679Z</time>
      </trkpt>
      <trkpt lat="45.6868" lon="5.93883">
        <ele>428</ele>
        <time>2021-09-10T09:05:44.678Z</time>
      </trkpt>
      <trkpt lat="45.68683" lon="5.93884">
        <ele>428</ele>
        <time>2021-09-10T09:05:45.679Z</time>
      </trkpt>
      <trkpt lat="45.68686" lon="5.93884">
        <ele>428</ele>
        <time>2021-09-10T09:05:46.678Z</time>
      </trkpt>
      <trkpt lat="45.68689" lon="5.93885">
        <ele>428</ele>
        <time>2021-09-10T09:05:47.679Z</time>
      </trkpt>
      <trkpt lat="45.68693" lon="5.93885">
        <ele>428</ele>
        <time>2021-09-10T09:05:48.679Z</time>
      </trkpt>
      <trkpt lat="45.68696" lon="5.93886">
        <ele>428</ele>
        <time>2021-09-10T09:05:49.679Z</time>
      </trkpt>
      <trkpt lat="45.687" lon="5.93886">
        <ele>428</ele>
        <time>2021-09-10T09:05:50.678Z</time>
      </trkpt>
      <trkpt lat="45.68703" lon="5.93887">
        <ele>429</ele>
        <time>2021-09-10T09:05:51.678Z</time>
      </trkpt>
      <trkpt lat="45.68706" lon="5.93888">
        <ele>429</ele>
        <time>2021-09-10T09:05:52.679Z</time>
      </trkpt>
      <trkpt lat="45.68709" lon="5.93888">
        <ele>429</ele>
        <time>2021-09-10T09:05:53.679Z</time>
      </trkpt>
      <trkpt lat="45.68713" lon="5.93889">
        <ele>429</ele>
        <time>2021-09-10T09:05:54.678Z</time>
      </trkpt>
      <trkpt lat="45.68716" lon="5.9389">
        <ele>429</ele>
        <time>2021-09-10T09:05:55.679Z</time>
      </trkpt>
      <trkpt lat="45.68719" lon="5.9389">
        <ele>430</ele>
        <time>2021-09-10T09:05:56.679Z</time>
      </trkpt>
      <trkpt lat="45.68722" lon="5.93891">
        <ele>430</ele>
        <time>2021-09-10T09:05:57.678Z</time>
      </trkpt>
      <trkpt lat="45.68725" lon="5.93891">
        <ele>430</ele>
        <time>2021-09-10T09:05:58.679Z</time>
      </trkpt>
      <trkpt lat="45.68729" lon="5.93892">
        <ele>430</ele>
        <time>2021-09-10T09:05:59.678Z</time>
      </trkpt>
      <trkpt lat="45.68732" lon="5.93893">
        <ele>429</ele>
        <time>2021-09-10T09:06:00.679Z</time>
      </trkpt>
      <trkpt lat="45.68735" lon="5.93893">
        <ele>429</ele>
        <time>2021-09-10T09:06:01.679Z</time>
      </trkpt>
      <trkpt lat="45.68739" lon="5.93894">
        <ele>429</ele>
        <time>2021-09-10T09:06:02.678Z</time>
      </trkpt>
      <trkpt lat="45.68742" lon="5.93895">
        <ele>430</ele>
        <time>2021-09-10T09:06:03.678Z</time>
      </trkpt>
      <trkpt lat="45.68745" lon="5.93895">
        <ele>430</ele>
        <time>2021-09-10T09:06:04.679Z</time>
      </trkpt>
      <trkpt lat="45.68748" lon="5.93895">
        <ele>430</ele>
        <time>2021-09-10T09:06:05.678Z</time>
      </trkpt>
      <trkpt lat="45.68752" lon="5.93896">
        <ele>430</ele>
        <time>2021-09-10T09:06:06.678Z</time>
      </trkpt>
      <trkpt lat="45.68755" lon="5.93897">
        <ele>430</ele>
        <time>2021-09-10T09:06:07.679Z</time>
      </trkpt>
      <trkpt lat="45.68758" lon="5.93897">
        <ele>430</ele>
        <time>2021-09-10T09:06:08.679Z</time>
      </trkpt>
      <trkpt lat="45.68762" lon="5.93898">
        <ele>430</ele>
        <time>2021-09-10T09:06:09.679Z</time>
      </trkpt>
      <trkpt lat="45.68765" lon="5.93898">
        <ele>430</ele>
        <time>2021-09-10T09:06:10.679Z</time>
      </trkpt>
      <trkpt lat="45.68768" lon="5.93899">
        <ele>430</ele>
        <time>2021-09-10T09:06:11.678Z</time>
      </trkpt>
      <trkpt lat="45.68771" lon="5.93899">
        <ele>430</ele>
        <time>2021-09-10T09:06:12.679Z</time>
      </trkpt>
      <trkpt lat="45.68775" lon="5.939">
        <ele>430</ele>
        <time>2021-09-10T09:06:13.679Z</time>
      </trkpt>
      <trkpt lat="45.68778" lon="5.939">
        <ele>430</ele>
        <time>2021-09-10T09:06:14.678Z</time>
      </trkpt>
      <trkpt lat="45.68782" lon="5.93901">
        <ele>431</ele>
        <time>2021-09-10T09:06:15.679Z</time>
      </trkpt>
      <trkpt lat="45.68785" lon="5.93902">
        <ele>431</ele>
        <time>2021-09-10T09:06:16.679Z</time>
      </trkpt>
      <trkpt lat="45.68788" lon="5.93902">
        <ele>431</ele>
        <time>2021-09-10T09:06:17.679Z</time>
      </trkpt>
      <trkpt lat="45.68792" lon="5.93903">
        <ele>431</ele>
        <time>2021-09-10T09:06:18.679Z</time>
      </trkpt>
      <trkpt lat="45.68796" lon="5.93904">
        <ele>432</ele>
        <time>2021-09-10T09:06:19.678Z</time>
      </trkpt>
      <trkpt lat="45.68799" lon="5.93905">
        <ele>432</ele>
        <time>2021-09-10T09:06:20.678Z</time>
      </trkpt>
      <trkpt lat="45.68803" lon="5.93905">
        <ele>433</ele>
        <time>2021-09-10T09:06:21.678Z</time>
      </trkpt>
      <trkpt lat="45.68806" lon="5.93906">
        <ele>433</ele>
        <time>2021-09-10T09:06:22.679Z</time>
      </trkpt>
      <trkpt lat="45.68809" lon="5.93907">
        <ele>433</ele>
        <time>2021-09-10T09:06:23.678Z</time>
      </trkpt>
      <trkpt lat="45.68812" lon="5.93907">
        <ele>433</ele>
        <time>2021-09-10T09:06:24.679Z</time>
      </trkpt>
      <trkpt lat="45.68816" lon="5.93907">
        <ele>432</ele>
        <time>2021-09-10T09:06:25.678Z</time>
      </trkpt>
      <trkpt lat="45.68819" lon="5.93908">
        <ele>432</ele>
        <time>2021-09-10T09:06:26.679Z</time>
      </trkpt>
      <trkpt lat="45.68823" lon="5.93909">
        <ele>432</ele>
        <time>2021-09-10T09:06:27.678Z</time>
      </trkpt>
      <trkpt lat="45.68826" lon="5.93909">
        <ele>432</ele>
        <time>2021-09-10T09:06:28.678Z</time>
      </trkpt>
      <trkpt lat="45.6883" lon="5.9391">
        <ele>432</ele>
        <time>2021-09-10T09:06:29.678Z</time>
      </trkpt>
      <trkpt lat="45.68833" lon="5.93911">
        <ele>432</ele>
        <time>2021-09-10T09:06:30.678Z</time>
      </trkpt>
      <trkpt lat="45.68836" lon="5.93912">
        <ele>432</ele>
        <time>2021-09-10T09:06:31.678Z</time>
      </trkpt>
      <trkpt lat="45.6884" lon="5.93913">
        <ele>432</ele>
        <time>2021-09-10T09:06:32.679Z</time>
      </trkpt>
      <trkpt lat="45.68843" lon="5.93914">
        <ele>432</ele>
        <time>2021-09-10T09:06:33.679Z</time>
      </trkpt>
      <trkpt lat="45.68847" lon="5.93915">
        <ele>432</ele>
        <time>2021-09-10T09:06:34.678Z</time>
      </trkpt>
      <trkpt lat="45.68851" lon="5.93916">
        <ele>431</ele>
        <time>2021-09-10T09:06:35.678Z</time>
      </trkpt>
      <trkpt lat="45.68854" lon="5.93916">
        <ele>431</ele>
        <time>2021-09-10T09:06:36.678Z</time>
      </trkpt>
      <trkpt lat="45.68857" lon="5.93916">
        <ele>431</ele>
        <time>2021-09-10T09:06:37.679Z</time>
      </trkpt>
      <trkpt lat="45.68861" lon="5.93917">
        <ele>431</ele>
        <time>2021-09-10T09:06:38.678Z</time>
      </trkpt>
      <trkpt lat="45.68864" lon="5.93917">
        <ele>432</ele>
        <time>2021-09-10T09:06:39.679Z</time>
      </trkpt>
      <trkpt lat="45.68867" lon="5.93918">
        <ele>433</ele>
        <time>2021-09-10T09:06:40.678Z</time>
      </trkpt>
      <trkpt lat="45.68871" lon="5.93918">
        <ele>434</ele>
        <time>2021-09-10T09:06:41.678Z</time>
      </trkpt>
      <trkpt lat="45.68874" lon="5.93919">
        <ele>434</ele>
        <time>2021-09-10T09:06:42.679Z</time>
      </trkpt>
      <trkpt lat="45.68877" lon="5.93919">
        <ele>435</ele>
        <time>2021-09-10T09:06:43.678Z</time>
      </trkpt>
      <trkpt lat="45.68881" lon="5.9392">
        <ele>436</ele>
        <time>2021-09-10T09:06:44.678Z</time>
      </trkpt>
      <trkpt lat="45.68884" lon="5.9392">
        <ele>436</ele>
        <time>2021-09-10T09:06:45.678Z</time>
      </trkpt>
      <trkpt lat="45.68887" lon="5.93921">
        <ele>437</ele>
        <time>2021-09-10T09:06:46.679Z</time>
      </trkpt>
      <trkpt lat="45.6889" lon="5.93922">
        <ele>437</ele>
        <time>2021-09-10T09:06:47.679Z</time>
      </trkpt>
      <trkpt lat="45.68894" lon="5.93923">
        <ele>437</ele>
        <time>2021-09-10T09:06:48.678Z</time>
      </trkpt>
      <trkpt lat="45.68898" lon="5.93924">
        <ele>437</ele>
        <time>2021-09-10T09:06:49.678Z</time>
      </trkpt>
      <trkpt lat="45.68901" lon="5.93924">
        <ele>437</ele>
        <time>2021-09-10T09:06:50.678Z</time>
      </trkpt>
      <trkpt lat="45.68904" lon="5.93924">
        <ele>437</ele>
        <time>2021-09-10T09:06:51.679Z</time>
      </trkpt>
      <trkpt lat="45.68907" lon="5.93925">
        <ele>437</ele>
        <time>2021-09-10T09:06:52.678Z</time>
      </trkpt>
      <trkpt lat="45.68911" lon="5.93926">
        <ele>437</ele>
        <time>2021-09-10T09:06:53.678Z</time>
      </trkpt>
      <trkpt lat="45.68915" lon="5.93927">
        <ele>437</ele>
        <time>2021-09-10T09:06:54.678Z</time>
      </trkpt>
      <trkpt lat="45.68919" lon="5.93928">
        <ele>437</ele>
        <time>2021-09-10T09:06:55.678Z</time>
      </trkpt>
      <trkpt lat="45.68922" lon="5.93928">
        <ele>437</ele>
        <time>2021-09-10T09:06:56.678Z</time>
      </trkpt>
      <trkpt lat="45.68925" lon="5.93929">
        <ele>437</ele>
        <time>2021-09-10T09:06:57.678Z</time>
      </trkpt>
      <trkpt lat="45.68928" lon="5.93929">
        <ele>437</ele>
        <time>2021-09-10T09:06:58.678Z</time>
      </trkpt>
      <trkpt lat="45.68931" lon="5.93929">
        <ele>437</ele>
        <time>2021-09-10T09:06:59.678Z</time>
      </trkpt>
      <trkpt lat="45.68935" lon="5.93929">
        <ele>437</ele>
        <time>2021-09-10T09:07:00.678Z</time>
      </trkpt>
      <trkpt lat="45.68938" lon="5.93929">
        <ele>437</ele>
        <time>2021-09-10T09:07:01.679Z</time>
      </trkpt>
      <trkpt lat="45.68941" lon="5.9393">
        <ele>437</ele>
        <time>2021-09-10T09:07:02.678Z</time>
      </trkpt>
      <trkpt lat="45.68945" lon="5.93931">
        <ele>437</ele>
        <time>2021-09-10T09:07:03.678Z</time>
      </trkpt>
      <trkpt lat="45.68948" lon="5.93932">
        <ele>437</ele>
        <time>2021-09-10T09:07:04.678Z</time>
      </trkpt>
      <trkpt lat="45.68951" lon="5.93933">
        <ele>436</ele>
        <time>2021-09-10T09:07:05.678Z</time>
      </trkpt>
      <trkpt lat="45.68955" lon="5.93934">
        <ele>436</ele>
        <time>2021-09-10T09:07:06.678Z</time>
      </trkpt>
      <trkpt lat="45.68958" lon="5.93935">
        <ele>437</ele>
        <time>2021-09-10T09:07:07.679Z</time>
      </trkpt>
      <trkpt lat="45.68962" lon="5.93935">
        <ele>437</ele>
        <time>2021-09-10T09:07:08.679Z</time>
      </trkpt>
      <trkpt lat="45.68965" lon="5.93936">
        <ele>437</ele>
        <time>2021-09-10T09:07:09.678Z</time>
      </trkpt>
      <trkpt lat="45.68969" lon="5.93937">
        <ele>437</ele>
        <time>2021-09-10T09:07:10.678Z</time>
      </trkpt>
      <trkpt lat="45.68972" lon="5.93938">
        <ele>437</ele>
        <time>2021-09-10T09:07:11.678Z</time>
      </trkpt>
      <trkpt lat="45.68975" lon="5.93939">
        <ele>437</ele>
        <time>2021-09-10T09:07:12.679Z</time>
      </trkpt>
      <trkpt lat="45.68979" lon="5.9394">
        <ele>437</ele>
        <time>2021-09-10T09:07:13.678Z</time>
      </trkpt>
      <trkpt lat="45.68982" lon="5.9394">
        <ele>438</ele>
        <time>2021-09-10T09:07:14.678Z</time>
      </trkpt>
      <trkpt lat="45.68986" lon="5.93941">
        <ele>438</ele>
        <time>2021-09-10T09:07:15.678Z</time>
      </trkpt>
      <trkpt lat="45.68989" lon="5.93941">
        <ele>438</ele>
        <time>2021-09-10T09:07:16.679Z</time>
      </trkpt>
      <trkpt lat="45.68993" lon="5.93942">
        <ele>438</ele>
        <time>2021-09-10T09:07:17.678Z</time>
      </trkpt>
      <trkpt lat="45.68996" lon="5.93943">
        <ele>438</ele>
        <time>2021-09-10T09:07:18.678Z</time>
      </trkpt>
      <trkpt lat="45.69" lon="5.93944">
        <ele>437</ele>
        <time>2021-09-10T09:07:19.678Z</time>
      </trkpt>
      <trkpt lat="45.69004" lon="5.93944">
        <ele>438</ele>
        <time>2021-09-10T09:07:20.678Z</time>
      </trkpt>
      <trkpt lat="45.69007" lon="5.93945">
        <ele>438</ele>
        <time>2021-09-10T09:07:21.678Z</time>
      </trkpt>
      <trkpt lat="45.6901" lon="5.93946">
        <ele>438</ele>
        <time>2021-09-10T09:07:22.678Z</time>
      </trkpt>
      <trkpt lat="45.69014" lon="5.93947">
        <ele>438</ele>
        <time>2021-09-10T09:07:23.679Z</time>
      </trkpt>
      <trkpt lat="45.69017" lon="5.93947">
        <ele>438</ele>
        <time>2021-09-10T09:07:24.678Z</time>
      </trkpt>
      <trkpt lat="45.69021" lon="5.93948">
        <ele>438</ele>
        <time>2021-09-10T09:07:25.678Z</time>
      </trkpt>
      <trkpt lat="45.69024" lon="5.93949">
        <ele>438</ele>
        <time>2021-09-10T09:07:26.678Z</time>
      </trkpt>
      <trkpt lat="45.69027" lon="5.9395">
        <ele>438</ele>
        <time>2021-09-10T09:07:27.678Z</time>
      </trkpt>
      <trkpt lat="45.69031" lon="5.93951">
        <ele>438</ele>
        <time>2021-09-10T09:07:28.678Z</time>
      </trkpt>
      <trkpt lat="45.69034" lon="5.93952">
        <ele>438</ele>
        <time>2021-09-10T09:07:29.678Z</time>
      </trkpt>
      <trkpt lat="45.69037" lon="5.93952">
        <ele>438</ele>
        <time>2021-09-10T09:07:30.678Z</time>
      </trkpt>
      <trkpt lat="45.6904" lon="5.93953">
        <ele>438</ele>
        <time>2021-09-10T09:07:31.679Z</time>
      </trkpt>
      <trkpt lat="45.69043" lon="5.93954">
        <ele>438</ele>
        <time>2021-09-10T09:07:32.679Z</time>
      </trkpt>
      <trkpt lat="45.69047" lon="5.93954">
        <ele>439</ele>
        <time>2021-09-10T09:07:33.679Z</time>
      </trkpt>
      <trkpt lat="45.6905" lon="5.93955">
        <ele>439</ele>
        <time>2021-09-10T09:07:34.678Z</time>
      </trkpt>
      <trkpt lat="45.69053" lon="5.93956">
        <ele>440</ele>
        <time>2021-09-10T09:07:35.678Z</time>
      </trkpt>
      <trkpt lat="45.69056" lon="5.93957">
        <ele>440</ele>
        <time>2021-09-10T09:07:36.679Z</time>
      </trkpt>
      <trkpt lat="45.69059" lon="5.93957">
        <ele>440</ele>
        <time>2021-09-10T09:07:37.679Z</time>
      </trkpt>
      <trkpt lat="45.69063" lon="5.93958">
        <ele>440</ele>
        <time>2021-09-10T09:07:38.678Z</time>
      </trkpt>
      <trkpt lat="45.69066" lon="5.93959">
        <ele>440</ele>
        <time>2021-09-10T09:07:39.678Z</time>
      </trkpt>
      <trkpt lat="45.69069" lon="5.9396">
        <ele>440</ele>
        <time>2021-09-10T09:07:40.678Z</time>
      </trkpt>
      <trkpt lat="45.69073" lon="5.9396">
        <ele>440</ele>
        <time>2021-09-10T09:07:41.678Z</time>
      </trkpt>
      <trkpt lat="45.69076" lon="5.93961">
        <ele>440</ele>
        <time>2021-09-10T09:07:42.679Z</time>
      </trkpt>
      <trkpt lat="45.6908" lon="5.93962">
        <ele>440</ele>
        <time>2021-09-10T09:07:43.678Z</time>
      </trkpt>
      <trkpt lat="45.69083" lon="5.93962">
        <ele>439</ele>
        <time>2021-09-10T09:07:44.679Z</time>
      </trkpt>
      <trkpt lat="45.69086" lon="5.93963">
        <ele>439</ele>
        <time>2021-09-10T09:07:45.679Z</time>
      </trkpt>
      <trkpt lat="45.6909" lon="5.93963">
        <ele>438</ele>
        <time>2021-09-10T09:07:46.679Z</time>
      </trkpt>
      <trkpt lat="45.69093" lon="5.93964">
        <ele>438</ele>
        <time>2021-09-10T09:07:47.678Z</time>
      </trkpt>
      <trkpt lat="45.69097" lon="5.93965">
        <ele>438</ele>
        <time>2021-09-10T09:07:48.679Z</time>
      </trkpt>
      <trkpt lat="45.691" lon="5.93965">
        <ele>438</ele>
        <time>2021-09-10T09:07:49.679Z</time>
      </trkpt>
      <trkpt lat="45.69103" lon="5.93966">
        <ele>438</ele>
        <time>2021-09-10T09:07:50.679Z</time>
      </trkpt>
      <trkpt lat="45.69107" lon="5.93967">
        <ele>438</ele>
        <time>2021-09-10T09:07:51.679Z</time>
      </trkpt>
      <trkpt lat="45.6911" lon="5.93967">
        <ele>438</ele>
        <time>2021-09-10T09:07:52.679Z</time>
      </trkpt>
      <trkpt lat="45.69113" lon="5.93968">
        <ele>438</ele>
        <time>2021-09-10T09:07:53.679Z</time>
      </trkpt>
      <trkpt lat="45.69117" lon="5.93969">
        <ele>438</ele>
        <time>2021-09-10T09:07:54.679Z</time>
      </trkpt>
      <trkpt lat="45.6912" lon="5.93969">
        <ele>438</ele>
        <time>2021-09-10T09:07:55.679Z</time>
      </trkpt>
      <trkpt lat="45.69123" lon="5.9397">
        <ele>439</ele>
        <time>2021-09-10T09:07:56.678Z</time>
      </trkpt>
      <trkpt lat="45.69127" lon="5.9397">
        <ele>439</ele>
        <time>2021-09-10T09:07:57.679Z</time>
      </trkpt>
      <trkpt lat="45.6913" lon="5.93971">
        <ele>439</ele>
        <time>2021-09-10T09:07:58.679Z</time>
      </trkpt>
      <trkpt lat="45.69133" lon="5.93972">
        <ele>439</ele>
        <time>2021-09-10T09:07:59.678Z</time>
      </trkpt>
      <trkpt lat="45.69137" lon="5.93972">
        <ele>439</ele>
        <time>2021-09-10T09:08:00.678Z</time>
      </trkpt>
      <trkpt lat="45.69141" lon="5.93973">
        <ele>439</ele>
        <time>2021-09-10T09:08:01.679Z</time>
      </trkpt>
      <trkpt lat="45.69144" lon="5.93973">
        <ele>439</ele>
        <time>2021-09-10T09:08:02.679Z</time>
      </trkpt>
      <trkpt lat="45.69147" lon="5.93974">
        <ele>439</ele>
        <time>2021-09-10T09:08:03.679Z</time>
      </trkpt>
      <trkpt lat="45.69151" lon="5.93975">
        <ele>440</ele>
        <time>2021-09-10T09:08:04.679Z</time>
      </trkpt>
      <trkpt lat="45.69154" lon="5.93976">
        <ele>440</ele>
        <time>2021-09-10T09:08:05.679Z</time>
      </trkpt>
      <trkpt lat="45.69158" lon="5.93976">
        <ele>440</ele>
        <time>2021-09-10T09:08:06.679Z</time>
      </trkpt>
      <trkpt lat="45.69161" lon="5.93977">
        <ele>440</ele>
        <time>2021-09-10T09:08:07.678Z</time>
      </trkpt>
      <trkpt lat="45.69164" lon="5.93978">
        <ele>440</ele>
        <time>2021-09-10T09:08:08.678Z</time>
      </trkpt>
      <trkpt lat="45.69167" lon="5.93979">
        <ele>440</ele>
        <time>2021-09-10T09:08:09.679Z</time>
      </trkpt>
      <trkpt lat="45.69171" lon="5.93979">
        <ele>440</ele>
        <time>2021-09-10T09:08:10.679Z</time>
      </trkpt>
      <trkpt lat="45.69174" lon="5.9398">
        <ele>440</ele>
        <time>2021-09-10T09:08:11.678Z</time>
      </trkpt>
      <trkpt lat="45.69177" lon="5.93981">
        <ele>441</ele>
        <time>2021-09-10T09:08:12.679Z</time>
      </trkpt>
      <trkpt lat="45.6918" lon="5.93982">
        <ele>442</ele>
        <time>2021-09-10T09:08:13.679Z</time>
      </trkpt>
      <trkpt lat="45.69184" lon="5.93983">
        <ele>442</ele>
        <time>2021-09-10T09:08:14.678Z</time>
      </trkpt>
      <trkpt lat="45.69187" lon="5.93984">
        <ele>443</ele>
        <time>2021-09-10T09:08:15.679Z</time>
      </trkpt>
      <trkpt lat="45.6919" lon="5.93984">
        <ele>443</ele>
        <time>2021-09-10T09:08:16.679Z</time>
      </trkpt>
      <trkpt lat="45.69193" lon="5.93984">
        <ele>443</ele>
        <time>2021-09-10T09:08:17.678Z</time>
      </trkpt>
      <trkpt lat="45.69197" lon="5.93985">
        <ele>443</ele>
        <time>2021-09-10T09:08:18.679Z</time>
      </trkpt>
      <trkpt lat="45.692" lon="5.93986">
        <ele>443</ele>
        <time>2021-09-10T09:08:19.678Z</time>
      </trkpt>
      <trkpt lat="45.69203" lon="5.93987">
        <ele>444</ele>
        <time>2021-09-10T09:08:20.678Z</time>
      </trkpt>
      <trkpt lat="45.69206" lon="5.93987">
        <ele>444</ele>
        <time>2021-09-10T09:08:21.679Z</time>
      </trkpt>
      <trkpt lat="45.69209" lon="5.93988">
        <ele>445</ele>
        <time>2021-09-10T09:08:22.678Z</time>
      </trkpt>
      <trkpt lat="45.69212" lon="5.93988">
        <ele>445</ele>
        <time>2021-09-10T09:08:23.678Z</time>
      </trkpt>
      <trkpt lat="45.69215" lon="5.93989">
        <ele>445</ele>
        <time>2021-09-10T09:08:24.679Z</time>
      </trkpt>
      <trkpt lat="45.69219" lon="5.9399">
        <ele>445</ele>
        <time>2021-09-10T09:08:25.678Z</time>
      </trkpt>
      <trkpt lat="45.69222" lon="5.9399">
        <ele>445</ele>
        <time>2021-09-10T09:08:26.679Z</time>
      </trkpt>
      <trkpt lat="45.69225" lon="5.93991">
        <ele>445</ele>
        <time>2021-09-10T09:08:27.678Z</time>
      </trkpt>
      <trkpt lat="45.69228" lon="5.93992">
        <ele>444</ele>
        <time>2021-09-10T09:08:28.678Z</time>
      </trkpt>
      <trkpt lat="45.69231" lon="5.93992">
        <ele>445</ele>
        <time>2021-09-10T09:08:29.679Z</time>
      </trkpt>
      <trkpt lat="45.69234" lon="5.93993">
        <ele>445</ele>
        <time>2021-09-10T09:08:30.679Z</time>
      </trkpt>
      <trkpt lat="45.69238" lon="5.93994">
        <ele>445</ele>
        <time>2021-09-10T09:08:31.679Z</time>
      </trkpt>
      <trkpt lat="45.69241" lon="5.93994">
        <ele>446</ele>
        <time>2021-09-10T09:08:32.679Z</time>
      </trkpt>
      <trkpt lat="45.69244" lon="5.93995">
        <ele>446</ele>
        <time>2021-09-10T09:08:33.679Z</time>
      </trkpt>
      <trkpt lat="45.69247" lon="5.93996">
        <ele>447</ele>
        <time>2021-09-10T09:08:34.679Z</time>
      </trkpt>
      <trkpt lat="45.6925" lon="5.93997">
        <ele>448</ele>
        <time>2021-09-10T09:08:35.679Z</time>
      </trkpt>
      <trkpt lat="45.69253" lon="5.93998">
        <ele>448</ele>
        <time>2021-09-10T09:08:36.679Z</time>
      </trkpt>
      <trkpt lat="45.69256" lon="5.93999">
        <ele>448</ele>
        <time>2021-09-10T09:08:37.679Z</time>
      </trkpt>
      <trkpt lat="45.69259" lon="5.94">
        <ele>449</ele>
        <time>2021-09-10T09:08:38.679Z</time>
      </trkpt>
      <trkpt lat="45.69262" lon="5.94001">
        <ele>448</ele>
        <time>2021-09-10T09:08:39.679Z</time>
      </trkpt>
      <trkpt lat="45.69266" lon="5.94002">
        <ele>448</ele>
        <time>2021-09-10T09:08:40.679Z</time>
      </trkpt>
      <trkpt lat="45.69269" lon="5.94003">
        <ele>448</ele>
        <time>2021-09-10T09:08:41.679Z</time>
      </trkpt>
      <trkpt lat="45.69272" lon="5.94004">
        <ele>448</ele>
        <time>2021-09-10T09:08:42.678Z</time>
      </trkpt>
      <trkpt lat="45.69275" lon="5.94006">
        <ele>448</ele>
        <time>2021-09-10T09:08:43.679Z</time>
      </trkpt>
      <trkpt lat="45.69278" lon="5.94007">
        <ele>448</ele>
        <time>2021-09-10T09:08:44.679Z</time>
      </trkpt>
      <trkpt lat="45.69281" lon="5.94008">
        <ele>448</ele>
        <time>2021-09-10T09:08:45.679Z</time>
      </trkpt>
      <trkpt lat="45.69284" lon="5.94009">
        <ele>448</ele>
        <time>2021-09-10T09:08:46.679Z</time>
      </trkpt>
      <trkpt lat="45.69287" lon="5.94009">
        <ele>448</ele>
        <time>2021-09-10T09:08:47.679Z</time>
      </trkpt>
      <trkpt lat="45.69289" lon="5.9401">
        <ele>449</ele>
        <time>2021-09-10T09:08:48.679Z</time>
      </trkpt>
      <trkpt lat="45.69292" lon="5.94011">
        <ele>449</ele>
        <time>2021-09-10T09:08:49.678Z</time>
      </trkpt>
      <trkpt lat="45.69295" lon="5.94012">
        <ele>449</ele>
        <time>2021-09-10T09:08:50.679Z</time>
      </trkpt>
      <trkpt lat="45.69298" lon="5.94013">
        <ele>449</ele>
        <time>2021-09-10T09:08:51.679Z</time>
      </trkpt>
      <trkpt lat="45.69302" lon="5.94014">
        <ele>450</ele>
        <time>2021-09-10T09:08:52.678Z</time>
      </trkpt>
      <trkpt lat="45.69305" lon="5.94015">
        <ele>450</ele>
        <time>2021-09-10T09:08:53.679Z</time>
      </trkpt>
      <trkpt lat="45.69308" lon="5.94016">
        <ele>451</ele>
        <time>2021-09-10T09:08:54.679Z</time>
      </trkpt>
      <trkpt lat="45.69311" lon="5.94017">
        <ele>452</ele>
        <time>2021-09-10T09:08:55.679Z</time>
      </trkpt>
      <trkpt lat="45.69314" lon="5.94018">
        <ele>452</ele>
        <time>2021-09-10T09:08:56.678Z</time>
      </trkpt>
      <trkpt lat="45.69318" lon="5.94019">
        <ele>453</ele>
        <time>2021-09-10T09:08:57.679Z</time>
      </trkpt>
      <trkpt lat="45.69321" lon="5.9402">
        <ele>453</ele>
        <time>2021-09-10T09:08:58.679Z</time>
      </trkpt>
      <trkpt lat="45.69324" lon="5.94021">
        <ele>454</ele>
        <time>2021-09-10T09:08:59.679Z</time>
      </trkpt>
      <trkpt lat="45.69327" lon="5.94022">
        <ele>455</ele>
        <time>2021-09-10T09:09:00.679Z</time>
      </trkpt>
      <trkpt lat="45.6933" lon="5.94023">
        <ele>456</ele>
        <time>2021-09-10T09:09:01.679Z</time>
      </trkpt>
      <trkpt lat="45.69333" lon="5.94024">
        <ele>457</ele>
        <time>2021-09-10T09:09:02.679Z</time>
      </trkpt>
      <trkpt lat="45.69336" lon="5.94025">
        <ele>457</ele>
        <time>2021-09-10T09:09:03.679Z</time>
      </trkpt>
      <trkpt lat="45.69338" lon="5.94027">
        <ele>457</ele>
        <time>2021-09-10T09:09:04.678Z</time>
      </trkpt>
      <trkpt lat="45.69341" lon="5.94028">
        <ele>457</ele>
        <time>2021-09-10T09:09:05.679Z</time>
      </trkpt>
      <trkpt lat="45.69344" lon="5.9403">
        <ele>457</ele>
        <time>2021-09-10T09:09:06.679Z</time>
      </trkpt>
      <trkpt lat="45.69347" lon="5.94031">
        <ele>456</ele>
        <time>2021-09-10T09:09:07.679Z</time>
      </trkpt>
      <trkpt lat="45.6935" lon="5.94033">
        <ele>456</ele>
        <time>2021-09-10T09:09:08.679Z</time>
      </trkpt>
      <trkpt lat="45.69352" lon="5.94034">
        <ele>456</ele>
        <time>2021-09-10T09:09:09.678Z</time>
      </trkpt>
      <trkpt lat="45.69355" lon="5.94035">
        <ele>456</ele>
        <time>2021-09-10T09:09:10.679Z</time>
      </trkpt>
      <trkpt lat="45.69358" lon="5.94037">
        <ele>456</ele>
        <time>2021-09-10T09:09:11.678Z</time>
      </trkpt>
      <trkpt lat="45.69361" lon="5.94038">
        <ele>455</ele>
        <time>2021-09-10T09:09:12.678Z</time>
      </trkpt>
      <trkpt lat="45.69364" lon="5.94039">
        <ele>455</ele>
        <time>2021-09-10T09:09:13.679Z</time>
      </trkpt>
      <trkpt lat="45.69367" lon="5.9404">
        <ele>455</ele>
        <time>2021-09-10T09:09:14.679Z</time>
      </trkpt>
      <trkpt lat="45.6937" lon="5.94039">
        <ele>454</ele>
        <time>2021-09-10T09:09:15.679Z</time>
      </trkpt>
      <trkpt lat="45.69373" lon="5.94039">
        <ele>453</ele>
        <time>2021-09-10T09:09:16.679Z</time>
      </trkpt>
      <trkpt lat="45.69376" lon="5.94039">
        <ele>453</ele>
        <time>2021-09-10T09:09:17.679Z</time>
      </trkpt>
      <trkpt lat="45.69379" lon="5.94038">
        <ele>453</ele>
        <time>2021-09-10T09:09:18.679Z</time>
      </trkpt>
      <trkpt lat="45.69381" lon="5.94038">
        <ele>453</ele>
        <time>2021-09-10T09:09:19.678Z</time>
      </trkpt>
      <trkpt lat="45.69384" lon="5.94037">
        <ele>453</ele>
        <time>2021-09-10T09:09:20.678Z</time>
      </trkpt>
      <trkpt lat="45.69387" lon="5.94036">
        <ele>453</ele>
        <time>2021-09-10T09:09:21.678Z</time>
      </trkpt>
      <trkpt lat="45.6939" lon="5.94036">
        <ele>453</ele>
        <time>2021-09-10T09:09:22.679Z</time>
      </trkpt>
      <trkpt lat="45.69393" lon="5.94035">
        <ele>453</ele>
        <time>2021-09-10T09:09:23.679Z</time>
      </trkpt>
      <trkpt lat="45.69396" lon="5.94035">
        <ele>454</ele>
        <time>2021-09-10T09:09:24.679Z</time>
      </trkpt>
      <trkpt lat="45.69399" lon="5.94034">
        <ele>454</ele>
        <time>2021-09-10T09:09:25.679Z</time>
      </trkpt>
      <trkpt lat="45.69402" lon="5.94034">
        <ele>455</ele>
        <time>2021-09-10T09:09:26.679Z</time>
      </trkpt>
      <trkpt lat="45.69404" lon="5.94033">
        <ele>455</ele>
        <time>2021-09-10T09:09:27.679Z</time>
      </trkpt>
      <trkpt lat="45.69407" lon="5.94033">
        <ele>455</ele>
        <time>2021-09-10T09:09:28.679Z</time>
      </trkpt>
      <trkpt lat="45.6941" lon="5.94033">
        <ele>456</ele>
        <time>2021-09-10T09:09:29.679Z</time>
      </trkpt>
      <trkpt lat="45.69412" lon="5.94032">
        <ele>456</ele>
        <time>2021-09-10T09:09:30.679Z</time>
      </trkpt>
      <trkpt lat="45.69415" lon="5.94032">
        <ele>456</ele>
        <time>2021-09-10T09:09:31.679Z</time>
      </trkpt>
      <trkpt lat="45.69418" lon="5.94032">
        <ele>456</ele>
        <time>2021-09-10T09:09:32.679Z</time>
      </trkpt>
      <trkpt lat="45.69421" lon="5.94032">
        <ele>456</ele>
        <time>2021-09-10T09:09:33.678Z</time>
      </trkpt>
      <trkpt lat="45.69423" lon="5.94031">
        <ele>456</ele>
        <time>2021-09-10T09:09:34.679Z</time>
      </trkpt>
      <trkpt lat="45.69426" lon="5.94031">
        <ele>457</ele>
        <time>2021-09-10T09:09:35.679Z</time>
      </trkpt>
      <trkpt lat="45.69429" lon="5.94031">
        <ele>457</ele>
        <time>2021-09-10T09:09:36.679Z</time>
      </trkpt>
      <trkpt lat="45.69432" lon="5.94031">
        <ele>457</ele>
        <time>2021-09-10T09:09:37.679Z</time>
      </trkpt>
      <trkpt lat="45.69434" lon="5.9403">
        <ele>458</ele>
        <time>2021-09-10T09:09:38.679Z</time>
      </trkpt>
      <trkpt lat="45.69437" lon="5.9403">
        <ele>458</ele>
        <time>2021-09-10T09:09:39.679Z</time>
      </trkpt>
      <trkpt lat="45.6944" lon="5.9403">
        <ele>458</ele>
        <time>2021-09-10T09:09:40.679Z</time>
      </trkpt>
      <trkpt lat="45.69443" lon="5.94029">
        <ele>458</ele>
        <time>2021-09-10T09:09:41.678Z</time>
      </trkpt>
      <trkpt lat="45.69445" lon="5.94029">
        <ele>459</ele>
        <time>2021-09-10T09:09:42.679Z</time>
      </trkpt>
      <trkpt lat="45.69448" lon="5.94028">
        <ele>459</ele>
        <time>2021-09-10T09:09:43.679Z</time>
      </trkpt>
      <trkpt lat="45.69451" lon="5.94028">
        <ele>460</ele>
        <time>2021-09-10T09:09:44.679Z</time>
      </trkpt>
      <trkpt lat="45.69453" lon="5.94028">
        <ele>460</ele>
        <time>2021-09-10T09:09:45.678Z</time>
      </trkpt>
      <trkpt lat="45.69456" lon="5.94027">
        <ele>460</ele>
        <time>2021-09-10T09:09:46.678Z</time>
      </trkpt>
      <trkpt lat="45.69459" lon="5.94027">
        <ele>460</ele>
        <time>2021-09-10T09:09:47.679Z</time>
      </trkpt>
      <trkpt lat="45.69461" lon="5.94028">
        <ele>459</ele>
        <time>2021-09-10T09:09:48.679Z</time>
      </trkpt>
      <trkpt lat="45.69464" lon="5.94028">
        <ele>459</ele>
        <time>2021-09-10T09:09:49.679Z</time>
      </trkpt>
      <trkpt lat="45.69467" lon="5.94028">
        <ele>458</ele>
        <time>2021-09-10T09:09:50.678Z</time>
      </trkpt>
      <trkpt lat="45.6947" lon="5.94029">
        <ele>459</ele>
        <time>2021-09-10T09:09:51.679Z</time>
      </trkpt>
      <trkpt lat="45.69473" lon="5.94029">
        <ele>459</ele>
        <time>2021-09-10T09:09:52.679Z</time>
      </trkpt>
      <trkpt lat="45.69475" lon="5.94029">
        <ele>459</ele>
        <time>2021-09-10T09:09:53.679Z</time>
      </trkpt>
      <trkpt lat="45.69478" lon="5.9403">
        <ele>459</ele>
        <time>2021-09-10T09:09:54.678Z</time>
      </trkpt>
      <trkpt lat="45.6948" lon="5.9403">
        <ele>459</ele>
        <time>2021-09-10T09:09:55.679Z</time>
      </trkpt>
      <trkpt lat="45.69483" lon="5.94031">
        <ele>460</ele>
        <time>2021-09-10T09:09:56.679Z</time>
      </trkpt>
      <trkpt lat="45.69486" lon="5.94031">
        <ele>460</ele>
        <time>2021-09-10T09:09:57.679Z</time>
      </trkpt>
      <trkpt lat="45.69488" lon="5.94032">
        <ele>460</ele>
        <time>2021-09-10T09:09:58.679Z</time>
      </trkpt>
      <trkpt lat="45.69491" lon="5.94033">
        <ele>460</ele>
        <time>2021-09-10T09:09:59.679Z</time>
      </trkpt>
      <trkpt lat="45.69494" lon="5.94033">
        <ele>461</ele>
        <time>2021-09-10T09:10:00.679Z</time>
      </trkpt>
      <trkpt lat="45.69496" lon="5.94034">
        <ele>461</ele>
        <time>2021-09-10T09:10:01.679Z</time>
      </trkpt>
      <trkpt lat="45.69499" lon="5.94034">
        <ele>461</ele>
        <time>2021-09-10T09:10:02.679Z</time>
      </trkpt>
      <trkpt lat="45.69502" lon="5.94035">
        <ele>461</ele>
        <time>2021-09-10T09:10:03.679Z</time>
      </trkpt>
      <trkpt lat="45.69504" lon="5.94036">
        <ele>461</ele>
        <time>2021-09-10T09:10:04.679Z</time>
      </trkpt>
      <trkpt lat="45.69507" lon="5.94036">
        <ele>462</ele>
        <time>2021-09-10T09:10:05.679Z</time>
      </trkpt>
      <trkpt lat="45.69509" lon="5.94037">
        <ele>462</ele>
        <time>2021-09-10T09:10:06.678Z</time>
      </trkpt>
      <trkpt lat="45.69512" lon="5.94037">
        <ele>463</ele>
        <time>2021-09-10T09:10:07.679Z</time>
      </trkpt>
      <trkpt lat="45.69514" lon="5.94038">
        <ele>463</ele>
        <time>2021-09-10T09:10:08.679Z</time>
      </trkpt>
      <trkpt lat="45.69516" lon="5.94039">
        <ele>463</ele>
        <time>2021-09-10T09:10:09.678Z</time>
      </trkpt>
      <trkpt lat="45.69519" lon="5.9404">
        <ele>463</ele>
        <time>2021-09-10T09:10:10.679Z</time>
      </trkpt>
      <trkpt lat="45.69522" lon="5.94041">
        <ele>463</ele>
        <time>2021-09-10T09:10:11.679Z</time>
      </trkpt>
      <trkpt lat="45.69524" lon="5.94042">
        <ele>462</ele>
        <time>2021-09-10T09:10:12.679Z</time>
      </trkpt>
      <trkpt lat="45.69527" lon="5.94043">
        <ele>462</ele>
        <time>2021-09-10T09:10:13.678Z</time>
      </trkpt>
      <trkpt lat="45.69529" lon="5.94044">
        <ele>461</ele>
        <time>2021-09-10T09:10:14.678Z</time>
      </trkpt>
      <trkpt lat="45.69532" lon="5.94046">
        <ele>461</ele>
        <time>2021-09-10T09:10:15.678Z</time>
      </trkpt>
      <trkpt lat="45.69534" lon="5.94047">
        <ele>462</ele>
        <time>2021-09-10T09:10:16.678Z</time>
      </trkpt>
      <trkpt lat="45.69536" lon="5.94049">
        <ele>462</ele>
        <time>2021-09-10T09:10:17.679Z</time>
      </trkpt>
      <trkpt lat="45.69539" lon="5.94051">
        <ele>462</ele>
        <time>2021-09-10T09:10:18.679Z</time>
      </trkpt>
      <trkpt lat="45.69541" lon="5.94053">
        <ele>462</ele>
        <time>2021-09-10T09:10:19.679Z</time>
      </trkpt>
      <trkpt lat="45.69544" lon="5.94055">
        <ele>462</ele>
        <time>2021-09-10T09:10:20.679Z</time>
      </trkpt>
      <trkpt lat="45.69546" lon="5.94056">
        <ele>462</ele>
        <time>2021-09-10T09:10:21.679Z</time>
      </trkpt>
      <trkpt lat="45.69548" lon="5.94058">
        <ele>462</ele>
        <time>2021-09-10T09:10:22.679Z</time>
      </trkpt>
      <trkpt lat="45.69551" lon="5.94059">
        <ele>462</ele>
        <time>2021-09-10T09:10:23.678Z</time>
      </trkpt>
      <trkpt lat="45.69553" lon="5.9406">
        <ele>462</ele>
        <time>2021-09-10T09:10:24.679Z</time>
      </trkpt>
      <trkpt lat="45.69555" lon="5.94062">
        <ele>462</ele>
        <time>2021-09-10T09:10:25.679Z</time>
      </trkpt>
      <trkpt lat="45.69558" lon="5.94063">
        <ele>463</ele>
        <time>2021-09-10T09:10:26.679Z</time>
      </trkpt>
      <trkpt lat="45.6956" lon="5.94065">
        <ele>463</ele>
        <time>2021-09-10T09:10:27.678Z</time>
      </trkpt>
      <trkpt lat="45.69562" lon="5.94066">
        <ele>463</ele>
        <time>2021-09-10T09:10:28.678Z</time>
      </trkpt>
      <trkpt lat="45.69565" lon="5.94068">
        <ele>463</ele>
        <time>2021-09-10T09:10:29.679Z</time>
      </trkpt>
      <trkpt lat="45.69567" lon="5.94069">
        <ele>463</ele>
        <time>2021-09-10T09:10:30.679Z</time>
      </trkpt>
      <trkpt lat="45.69569" lon="5.9407">
        <ele>463</ele>
        <time>2021-09-10T09:10:31.678Z</time>
      </trkpt>
      <trkpt lat="45.69572" lon="5.94071">
        <ele>463</ele>
        <time>2021-09-10T09:10:32.679Z</time>
      </trkpt>
      <trkpt lat="45.69574" lon="5.94072">
        <ele>463</ele>
        <time>2021-09-10T09:10:33.678Z</time>
      </trkpt>
      <trkpt lat="45.69576" lon="5.94074">
        <ele>464</ele>
        <time>2021-09-10T09:10:34.679Z</time>
      </trkpt>
      <trkpt lat="45.69578" lon="5.94075">
        <ele>464</ele>
        <time>2021-09-10T09:10:35.678Z</time>
      </trkpt>
      <trkpt lat="45.69581" lon="5.94076">
        <ele>464</ele>
        <time>2021-09-10T09:10:36.679Z</time>
      </trkpt>
      <trkpt lat="45.69583" lon="5.94077">
        <ele>465</ele>
        <time>2021-09-10T09:10:37.679Z</time>
      </trkpt>
      <trkpt lat="45.69585" lon="5.94078">
        <ele>465</ele>
        <time>2021-09-10T09:10:38.678Z</time>
      </trkpt>
      <trkpt lat="45.69588" lon="5.94079">
        <ele>466</ele>
        <time>2021-09-10T09:10:39.679Z</time>
      </trkpt>
      <trkpt lat="45.6959" lon="5.9408">
        <ele>466</ele>
        <time>2021-09-10T09:10:40.679Z</time>
      </trkpt>
      <trkpt lat="45.69593" lon="5.94081">
        <ele>466</ele>
        <time>2021-09-10T09:10:41.679Z</time>
      </trkpt>
      <trkpt lat="45.69595" lon="5.94083">
        <ele>466</ele>
        <time>2021-09-10T09:10:42.679Z</time>
      </trkpt>
      <trkpt lat="45.69598" lon="5.94084">
        <ele>466</ele>
        <time>2021-09-10T09:10:43.679Z</time>
      </trkpt>
      <trkpt lat="45.696" lon="5.94086">
        <ele>467</ele>
        <time>2021-09-10T09:10:44.678Z</time>
      </trkpt>
      <trkpt lat="45.69603" lon="5.94087">
        <ele>467</ele>
        <time>2021-09-10T09:10:45.679Z</time>
      </trkpt>
      <trkpt lat="45.69605" lon="5.94089">
        <ele>468</ele>
        <time>2021-09-10T09:10:46.679Z</time>
      </trkpt>
      <trkpt lat="45.69607" lon="5.9409">
        <ele>468</ele>
        <time>2021-09-10T09:10:47.679Z</time>
      </trkpt>
      <trkpt lat="45.6961" lon="5.94091">
        <ele>468</ele>
        <time>2021-09-10T09:10:48.679Z</time>
      </trkpt>
      <trkpt lat="45.69612" lon="5.94092">
        <ele>468</ele>
        <time>2021-09-10T09:10:49.678Z</time>
      </trkpt>
      <trkpt lat="45.69615" lon="5.94093">
        <ele>468</ele>
        <time>2021-09-10T09:10:50.679Z</time>
      </trkpt>
      <trkpt lat="45.69617" lon="5.94094">
        <ele>468</ele>
        <time>2021-09-10T09:10:51.678Z</time>
      </trkpt>
      <trkpt lat="45.6962" lon="5.94094">
        <ele>468</ele>
        <time>2021-09-10T09:10:52.678Z</time>
      </trkpt>
      <trkpt lat="45.69622" lon="5.94095">
        <ele>468</ele>
        <time>2021-09-10T09:10:53.678Z</time>
      </trkpt>
      <trkpt lat="45.69625" lon="5.94096">
        <ele>468</ele>
        <time>2021-09-10T09:10:54.678Z</time>
      </trkpt>
      <trkpt lat="45.69627" lon="5.94096">
        <ele>468</ele>
        <time>2021-09-10T09:10:55.679Z</time>
      </trkpt>
      <trkpt lat="45.6963" lon="5.94097">
        <ele>468</ele>
        <time>2021-09-10T09:10:56.678Z</time>
      </trkpt>
      <trkpt lat="45.69633" lon="5.94097">
        <ele>468</ele>
        <time>2021-09-10T09:10:57.679Z</time>
      </trkpt>
      <trkpt lat="45.69635" lon="5.94098">
        <ele>468</ele>
        <time>2021-09-10T09:10:58.679Z</time>
      </trkpt>
      <trkpt lat="45.69638" lon="5.94099">
        <ele>468</ele>
        <time>2021-09-10T09:10:59.679Z</time>
      </trkpt>
      <trkpt lat="45.6964" lon="5.94101">
        <ele>468</ele>
        <time>2021-09-10T09:11:00.679Z</time>
      </trkpt>
      <trkpt lat="45.69642" lon="5.94102">
        <ele>468</ele>
        <time>2021-09-10T09:11:01.679Z</time>
      </trkpt>
      <trkpt lat="45.69645" lon="5.94103">
        <ele>469</ele>
        <time>2021-09-10T09:11:02.679Z</time>
      </trkpt>
      <trkpt lat="45.69647" lon="5.94104">
        <ele>469</ele>
        <time>2021-09-10T09:11:03.679Z</time>
      </trkpt>
      <trkpt lat="45.69649" lon="5.94105">
        <ele>469</ele>
        <time>2021-09-10T09:11:04.679Z</time>
      </trkpt>
      <trkpt lat="45.69652" lon="5.94107">
        <ele>469</ele>
        <time>2021-09-10T09:11:05.678Z</time>
      </trkpt>
      <trkpt lat="45.69654" lon="5.94108">
        <ele>470</ele>
        <time>2021-09-10T09:11:06.679Z</time>
      </trkpt>
      <trkpt lat="45.69656" lon="5.94109">
        <ele>470</ele>
        <time>2021-09-10T09:11:07.679Z</time>
      </trkpt>
      <trkpt lat="45.69658" lon="5.94111">
        <ele>470</ele>
        <time>2021-09-10T09:11:08.679Z</time>
      </trkpt>
      <trkpt lat="45.69661" lon="5.94112">
        <ele>471</ele>
        <time>2021-09-10T09:11:09.679Z</time>
      </trkpt>
      <trkpt lat="45.69663" lon="5.94114">
        <ele>471</ele>
        <time>2021-09-10T09:11:10.679Z</time>
      </trkpt>
      <trkpt lat="45.69665" lon="5.94116">
        <ele>471</ele>
        <time>2021-09-10T09:11:11.679Z</time>
      </trkpt>
      <trkpt lat="45.69667" lon="5.94117">
        <ele>471</ele>
        <time>2021-09-10T09:11:12.678Z</time>
      </trkpt>
      <trkpt lat="45.69669" lon="5.94118">
        <ele>471</ele>
        <time>2021-09-10T09:11:13.679Z</time>
      </trkpt>
      <trkpt lat="45.69672" lon="5.9412">
        <ele>471</ele>
        <time>2021-09-10T09:11:14.679Z</time>
      </trkpt>
      <trkpt lat="45.69674" lon="5.94121">
        <ele>471</ele>
        <time>2021-09-10T09:11:15.679Z</time>
      </trkpt>
      <trkpt lat="45.69676" lon="5.94123">
        <ele>471</ele>
        <time>2021-09-10T09:11:16.679Z</time>
      </trkpt>
      <trkpt lat="45.69678" lon="5.94125">
        <ele>471</ele>
        <time>2021-09-10T09:11:17.679Z</time>
      </trkpt>
      <trkpt lat="45.6968" lon="5.94127">
        <ele>471</ele>
        <time>2021-09-10T09:11:18.679Z</time>
      </trkpt>
      <trkpt lat="45.69682" lon="5.94129">
        <ele>471</ele>
        <time>2021-09-10T09:11:19.679Z</time>
      </trkpt>
      <trkpt lat="45.69684" lon="5.94131">
        <ele>471</ele>
        <time>2021-09-10T09:11:20.679Z</time>
      </trkpt>
      <trkpt lat="45.69686" lon="5.94133">
        <ele>472</ele>
        <time>2021-09-10T09:11:21.679Z</time>
      </trkpt>
      <trkpt lat="45.69688" lon="5.94135">
        <ele>472</ele>
        <time>2021-09-10T09:11:22.679Z</time>
      </trkpt>
      <trkpt lat="45.6969" lon="5.94137">
        <ele>472</ele>
        <time>2021-09-10T09:11:23.679Z</time>
      </trkpt>
      <trkpt lat="45.69692" lon="5.94139">
        <ele>472</ele>
        <time>2021-09-10T09:11:24.678Z</time>
      </trkpt>
      <trkpt lat="45.69694" lon="5.94141">
        <ele>472</ele>
        <time>2021-09-10T09:11:25.679Z</time>
      </trkpt>
      <trkpt lat="45.69696" lon="5.94143">
        <ele>472</ele>
        <time>2021-09-10T09:11:26.679Z</time>
      </trkpt>
      <trkpt lat="45.69698" lon="5.94145">
        <ele>473</ele>
        <time>2021-09-10T09:11:27.679Z</time>
      </trkpt>
      <trkpt lat="45.697" lon="5.94147">
        <ele>473</ele>
        <time>2021-09-10T09:11:28.678Z</time>
      </trkpt>
      <trkpt lat="45.69701" lon="5.94149">
        <ele>474</ele>
        <time>2021-09-10T09:11:29.679Z</time>
      </trkpt>
      <trkpt lat="45.69703" lon="5.94152">
        <ele>474</ele>
        <time>2021-09-10T09:11:30.679Z</time>
      </trkpt>
      <trkpt lat="45.69705" lon="5.94154">
        <ele>474</ele>
        <time>2021-09-10T09:11:31.679Z</time>
      </trkpt>
      <trkpt lat="45.69707" lon="5.94157">
        <ele>474</ele>
        <time>2021-09-10T09:11:32.678Z</time>
      </trkpt>
      <trkpt lat="45.69708" lon="5.94159">
        <ele>474</ele>
        <time>2021-09-10T09:11:33.678Z</time>
      </trkpt>
      <trkpt lat="45.6971" lon="5.94162">
        <ele>474</ele>
        <time>2021-09-10T09:11:34.678Z</time>
      </trkpt>
      <trkpt lat="45.69712" lon="5.94165">
        <ele>474</ele>
        <time>2021-09-10T09:11:35.679Z</time>
      </trkpt>
      <trkpt lat="45.69713" lon="5.94167">
        <ele>475</ele>
        <time>2021-09-10T09:11:36.678Z</time>
      </trkpt>
      <trkpt lat="45.69715" lon="5.9417">
        <ele>475</ele>
        <time>2021-09-10T09:11:37.678Z</time>
      </trkpt>
      <trkpt lat="45.69716" lon="5.94172">
        <ele>475</ele>
        <time>2021-09-10T09:11:38.678Z</time>
      </trkpt>
      <trkpt lat="45.69718" lon="5.94175">
        <ele>475</ele>
        <time>2021-09-10T09:11:39.678Z</time>
      </trkpt>
      <trkpt lat="45.69719" lon="5.94178">
        <ele>476</ele>
        <time>2021-09-10T09:11:40.678Z</time>
      </trkpt>
      <trkpt lat="45.69721" lon="5.9418">
        <ele>476</ele>
        <time>2021-09-10T09:11:41.678Z</time>
      </trkpt>
      <trkpt lat="45.69722" lon="5.94183">
        <ele>476</ele>
        <time>2021-09-10T09:11:42.678Z</time>
      </trkpt>
      <trkpt lat="45.69723" lon="5.94186">
        <ele>477</ele>
        <time>2021-09-10T09:11:43.679Z</time>
      </trkpt>
      <trkpt lat="45.69725" lon="5.94189">
        <ele>477</ele>
        <time>2021-09-10T09:11:44.679Z</time>
      </trkpt>
      <trkpt lat="45.69726" lon="5.94192">
        <ele>478</ele>
        <time>2021-09-10T09:11:45.678Z</time>
      </trkpt>
      <trkpt lat="45.69727" lon="5.94195">
        <ele>478</ele>
        <time>2021-09-10T09:11:46.679Z</time>
      </trkpt>
      <trkpt lat="45.69729" lon="5.94198">
        <ele>478</ele>
        <time>2021-09-10T09:11:47.679Z</time>
      </trkpt>
      <trkpt lat="45.6973" lon="5.942">
        <ele>478</ele>
        <time>2021-09-10T09:11:48.679Z</time>
      </trkpt>
      <trkpt lat="45.69731" lon="5.94203">
        <ele>479</ele>
        <time>2021-09-10T09:11:49.679Z</time>
      </trkpt>
      <trkpt lat="45.69733" lon="5.94206">
        <ele>479</ele>
        <time>2021-09-10T09:11:50.679Z</time>
      </trkpt>
      <trkpt lat="45.69734" lon="5.94208">
        <ele>479</ele>
        <time>2021-09-10T09:11:51.679Z</time>
      </trkpt>
      <trkpt lat="45.69736" lon="5.94211">
        <ele>478</ele>
        <time>2021-09-10T09:11:52.679Z</time>
      </trkpt>
      <trkpt lat="45.69737" lon="5.94214">
        <ele>478</ele>
        <time>2021-09-10T09:11:53.679Z</time>
      </trkpt>
      <trkpt lat="45.69738" lon="5.94216">
        <ele>479</ele>
        <time>2021-09-10T09:11:54.679Z</time>
      </trkpt>
      <trkpt lat="45.6974" lon="5.94219">
        <ele>479</ele>
        <time>2021-09-10T09:11:55.679Z</time>
      </trkpt>
      <trkpt lat="45.69741" lon="5.94222">
        <ele>479</ele>
        <time>2021-09-10T09:11:56.679Z</time>
      </trkpt>
      <trkpt lat="45.69742" lon="5.94224">
        <ele>479</ele>
        <time>2021-09-10T09:11:57.679Z</time>
      </trkpt>
      <trkpt lat="45.69744" lon="5.94227">
        <ele>479</ele>
        <time>2021-09-10T09:11:58.678Z</time>
      </trkpt>
      <trkpt lat="45.69745" lon="5.9423">
        <ele>479</ele>
        <time>2021-09-10T09:11:59.678Z</time>
      </trkpt>
      <trkpt lat="45.69746" lon="5.94232">
        <ele>479</ele>
        <time>2021-09-10T09:12:00.678Z</time>
      </trkpt>
      <trkpt lat="45.69747" lon="5.94235">
        <ele>479</ele>
        <time>2021-09-10T09:12:01.679Z</time>
      </trkpt>
      <trkpt lat="45.69749" lon="5.94238">
        <ele>479</ele>
        <time>2021-09-10T09:12:02.678Z</time>
      </trkpt>
      <trkpt lat="45.6975" lon="5.94241">
        <ele>479</ele>
        <time>2021-09-10T09:12:03.678Z</time>
      </trkpt>
      <trkpt lat="45.69751" lon="5.94243">
        <ele>479</ele>
        <time>2021-09-10T09:12:04.679Z</time>
      </trkpt>
      <trkpt lat="45.69752" lon="5.94247">
        <ele>479</ele>
        <time>2021-09-10T09:12:05.679Z</time>
      </trkpt>
      <trkpt lat="45.69753" lon="5.94249">
        <ele>479</ele>
        <time>2021-09-10T09:12:06.679Z</time>
      </trkpt>
      <trkpt lat="45.69754" lon="5.94252">
        <ele>479</ele>
        <time>2021-09-10T09:12:07.678Z</time>
      </trkpt>
      <trkpt lat="45.69755" lon="5.94255">
        <ele>479</ele>
        <time>2021-09-10T09:12:08.678Z</time>
      </trkpt>
      <trkpt lat="45.69756" lon="5.94258">
        <ele>479</ele>
        <time>2021-09-10T09:12:09.679Z</time>
      </trkpt>
      <trkpt lat="45.69757" lon="5.94261">
        <ele>479</ele>
        <time>2021-09-10T09:12:10.678Z</time>
      </trkpt>
      <trkpt lat="45.69758" lon="5.94264">
        <ele>480</ele>
        <time>2021-09-10T09:12:11.679Z</time>
      </trkpt>
      <trkpt lat="45.69759" lon="5.94267">
        <ele>480</ele>
        <time>2021-09-10T09:12:12.678Z</time>
      </trkpt>
      <trkpt lat="45.6976" lon="5.94269">
        <ele>480</ele>
        <time>2021-09-10T09:12:13.678Z</time>
      </trkpt>
      <trkpt lat="45.69762" lon="5.94272">
        <ele>480</ele>
        <time>2021-09-10T09:12:14.678Z</time>
      </trkpt>
      <trkpt lat="45.69763" lon="5.94274">
        <ele>480</ele>
        <time>2021-09-10T09:12:15.678Z</time>
      </trkpt>
      <trkpt lat="45.69765" lon="5.94277">
        <ele>481</ele>
        <time>2021-09-10T09:12:16.679Z</time>
      </trkpt>
      <trkpt lat="45.69767" lon="5.94279">
        <ele>481</ele>
        <time>2021-09-10T09:12:17.679Z</time>
      </trkpt>
      <trkpt lat="45.69768" lon="5.94281">
        <ele>481</ele>
        <time>2021-09-10T09:12:18.678Z</time>
      </trkpt>
      <trkpt lat="45.6977" lon="5.94283">
        <ele>482</ele>
        <time>2021-09-10T09:12:19.678Z</time>
      </trkpt>
      <trkpt lat="45.69772" lon="5.94285">
        <ele>482</ele>
        <time>2021-09-10T09:12:20.679Z</time>
      </trkpt>
      <trkpt lat="45.69773" lon="5.94287">
        <ele>482</ele>
        <time>2021-09-10T09:12:21.679Z</time>
      </trkpt>
      <trkpt lat="45.69775" lon="5.94289">
        <ele>482</ele>
        <time>2021-09-10T09:12:22.679Z</time>
      </trkpt>
      <trkpt lat="45.69777" lon="5.94291">
        <ele>482</ele>
        <time>2021-09-10T09:12:23.679Z</time>
      </trkpt>
      <trkpt lat="45.69779" lon="5.94293">
        <ele>482</ele>
        <time>2021-09-10T09:12:24.678Z</time>
      </trkpt>
      <trkpt lat="45.69781" lon="5.94296">
        <ele>482</ele>
        <time>2021-09-10T09:12:25.679Z</time>
      </trkpt>
      <trkpt lat="45.69782" lon="5.94298">
        <ele>482</ele>
        <time>2021-09-10T09:12:26.678Z</time>
      </trkpt>
      <trkpt lat="45.69784" lon="5.943">
        <ele>482</ele>
        <time>2021-09-10T09:12:27.678Z</time>
      </trkpt>
      <trkpt lat="45.69786" lon="5.94302">
        <ele>483</ele>
        <time>2021-09-10T09:12:28.678Z</time>
      </trkpt>
      <trkpt lat="45.69787" lon="5.94304">
        <ele>483</ele>
        <time>2021-09-10T09:12:29.678Z</time>
      </trkpt>
      <trkpt lat="45.69789" lon="5.94306">
        <ele>483</ele>
        <time>2021-09-10T09:12:30.678Z</time>
      </trkpt>
      <trkpt lat="45.69791" lon="5.94308">
        <ele>483</ele>
        <time>2021-09-10T09:12:31.679Z</time>
      </trkpt>
      <trkpt lat="45.69793" lon="5.9431">
        <ele>483</ele>
        <time>2021-09-10T09:12:32.679Z</time>
      </trkpt>
      <trkpt lat="45.69795" lon="5.94311">
        <ele>483</ele>
        <time>2021-09-10T09:12:33.679Z</time>
      </trkpt>
      <trkpt lat="45.69796" lon="5.94313">
        <ele>483</ele>
        <time>2021-09-10T09:12:34.678Z</time>
      </trkpt>
      <trkpt lat="45.69798" lon="5.94315">
        <ele>483</ele>
        <time>2021-09-10T09:12:35.678Z</time>
      </trkpt>
      <trkpt lat="45.698" lon="5.94316">
        <ele>484</ele>
        <time>2021-09-10T09:12:36.679Z</time>
      </trkpt>
      <trkpt lat="45.69802" lon="5.94318">
        <ele>484</ele>
        <time>2021-09-10T09:12:37.678Z</time>
      </trkpt>
      <trkpt lat="45.69804" lon="5.9432">
        <ele>484</ele>
        <time>2021-09-10T09:12:38.679Z</time>
      </trkpt>
      <trkpt lat="45.69806" lon="5.94321">
        <ele>484</ele>
        <time>2021-09-10T09:12:39.679Z</time>
      </trkpt>
      <trkpt lat="45.69808" lon="5.94323">
        <ele>484</ele>
        <time>2021-09-10T09:12:40.678Z</time>
      </trkpt>
      <trkpt lat="45.6981" lon="5.94325">
        <ele>485</ele>
        <time>2021-09-10T09:12:41.679Z</time>
      </trkpt>
      <trkpt lat="45.69812" lon="5.94327">
        <ele>486</ele>
        <time>2021-09-10T09:12:42.679Z</time>
      </trkpt>
      <trkpt lat="45.69813" lon="5.94328">
        <ele>486</ele>
        <time>2021-09-10T09:12:43.679Z</time>
      </trkpt>
      <trkpt lat="45.69815" lon="5.9433">
        <ele>486</ele>
        <time>2021-09-10T09:12:44.679Z</time>
      </trkpt>
      <trkpt lat="45.69817" lon="5.94331">
        <ele>487</ele>
        <time>2021-09-10T09:12:45.679Z</time>
      </trkpt>
      <trkpt lat="45.69819" lon="5.94333">
        <ele>487</ele>
        <time>2021-09-10T09:12:46.679Z</time>
      </trkpt>
      <trkpt lat="45.69821" lon="5.94334">
        <ele>488</ele>
        <time>2021-09-10T09:12:47.679Z</time>
      </trkpt>
      <trkpt lat="45.69823" lon="5.94336">
        <ele>488</ele>
        <time>2021-09-10T09:12:48.679Z</time>
      </trkpt>
      <trkpt lat="45.69824" lon="5.94337">
        <ele>488</ele>
        <time>2021-09-10T09:12:49.679Z</time>
      </trkpt>
      <trkpt lat="45.69826" lon="5.94339">
        <ele>488</ele>
        <time>2021-09-10T09:12:50.679Z</time>
      </trkpt>
      <trkpt lat="45.69828" lon="5.94341">
        <ele>488</ele>
        <time>2021-09-10T09:12:51.679Z</time>
      </trkpt>
      <trkpt lat="45.69829" lon="5.94343">
        <ele>489</ele>
        <time>2021-09-10T09:12:52.678Z</time>
      </trkpt>
      <trkpt lat="45.69831" lon="5.94344">
        <ele>489</ele>
        <time>2021-09-10T09:12:53.679Z</time>
      </trkpt>
      <trkpt lat="45.69833" lon="5.94345">
        <ele>490</ele>
        <time>2021-09-10T09:12:54.679Z</time>
      </trkpt>
      <trkpt lat="45.69835" lon="5.94347">
        <ele>491</ele>
        <time>2021-09-10T09:12:55.678Z</time>
      </trkpt>
      <trkpt lat="45.69836" lon="5.94348">
        <ele>491</ele>
        <time>2021-09-10T09:12:56.678Z</time>
      </trkpt>
      <trkpt lat="45.69838" lon="5.9435">
        <ele>491</ele>
        <time>2021-09-10T09:12:57.679Z</time>
      </trkpt>
      <trkpt lat="45.6984" lon="5.94351">
        <ele>491</ele>
        <time>2021-09-10T09:12:58.679Z</time>
      </trkpt>
      <trkpt lat="45.69842" lon="5.94353">
        <ele>491</ele>
        <time>2021-09-10T09:12:59.679Z</time>
      </trkpt>
      <trkpt lat="45.69844" lon="5.94355">
        <ele>491</ele>
        <time>2021-09-10T09:13:00.679Z</time>
      </trkpt>
      <trkpt lat="45.69845" lon="5.94357">
        <ele>491</ele>
        <time>2021-09-10T09:13:01.679Z</time>
      </trkpt>
      <trkpt lat="45.69847" lon="5.94358">
        <ele>490</ele>
        <time>2021-09-10T09:13:02.679Z</time>
      </trkpt>
      <trkpt lat="45.69849" lon="5.9436">
        <ele>490</ele>
        <time>2021-09-10T09:13:03.678Z</time>
      </trkpt>
      <trkpt lat="45.69851" lon="5.94362">
        <ele>490</ele>
        <time>2021-09-10T09:13:04.679Z</time>
      </trkpt>
      <trkpt lat="45.69853" lon="5.94363">
        <ele>490</ele>
        <time>2021-09-10T09:13:05.679Z</time>
      </trkpt>
      <trkpt lat="45.69855" lon="5.94365">
        <ele>491</ele>
        <time>2021-09-10T09:13:06.679Z</time>
      </trkpt>
      <trkpt lat="45.69857" lon="5.94367">
        <ele>491</ele>
        <time>2021-09-10T09:13:07.679Z</time>
      </trkpt>
      <trkpt lat="45.69859" lon="5.94369">
        <ele>492</ele>
        <time>2021-09-10T09:13:08.679Z</time>
      </trkpt>
      <trkpt lat="45.6986" lon="5.9437">
        <ele>492</ele>
        <time>2021-09-10T09:13:09.678Z</time>
      </trkpt>
      <trkpt lat="45.69862" lon="5.94371">
        <ele>492</ele>
        <time>2021-09-10T09:13:10.679Z</time>
      </trkpt>
      <trkpt lat="45.69864" lon="5.94373">
        <ele>493</ele>
        <time>2021-09-10T09:13:11.679Z</time>
      </trkpt>
      <trkpt lat="45.69866" lon="5.94375">
        <ele>493</ele>
        <time>2021-09-10T09:13:12.679Z</time>
      </trkpt>
      <trkpt lat="45.69868" lon="5.94377">
        <ele>493</ele>
        <time>2021-09-10T09:13:13.678Z</time>
      </trkpt>
      <trkpt lat="45.6987" lon="5.94379">
        <ele>493</ele>
        <time>2021-09-10T09:13:14.679Z</time>
      </trkpt>
      <trkpt lat="45.69872" lon="5.94381">
        <ele>493</ele>
        <time>2021-09-10T09:13:15.679Z</time>
      </trkpt>
      <trkpt lat="45.69874" lon="5.94383">
        <ele>493</ele>
        <time>2021-09-10T09:13:16.679Z</time>
      </trkpt>
      <trkpt lat="45.69875" lon="5.94384">
        <ele>493</ele>
        <time>2021-09-10T09:13:17.678Z</time>
      </trkpt>
      <trkpt lat="45.69877" lon="5.94386">
        <ele>494</ele>
        <time>2021-09-10T09:13:18.679Z</time>
      </trkpt>
      <trkpt lat="45.69879" lon="5.94388">
        <ele>494</ele>
        <time>2021-09-10T09:13:19.678Z</time>
      </trkpt>
      <trkpt lat="45.6988" lon="5.94389">
        <ele>495</ele>
        <time>2021-09-10T09:13:20.679Z</time>
      </trkpt>
      <trkpt lat="45.69882" lon="5.9439">
        <ele>496</ele>
        <time>2021-09-10T09:13:21.678Z</time>
      </trkpt>
      <trkpt lat="45.69884" lon="5.94392">
        <ele>497</ele>
        <time>2021-09-10T09:13:22.678Z</time>
      </trkpt>
      <trkpt lat="45.69886" lon="5.94393">
        <ele>497</ele>
        <time>2021-09-10T09:13:23.678Z</time>
      </trkpt>
      <trkpt lat="45.69888" lon="5.94395">
        <ele>497</ele>
        <time>2021-09-10T09:13:24.679Z</time>
      </trkpt>
      <trkpt lat="45.6989" lon="5.94396">
        <ele>497</ele>
        <time>2021-09-10T09:13:25.679Z</time>
      </trkpt>
      <trkpt lat="45.69892" lon="5.94399">
        <ele>497</ele>
        <time>2021-09-10T09:13:26.678Z</time>
      </trkpt>
      <trkpt lat="45.69894" lon="5.944">
        <ele>497</ele>
        <time>2021-09-10T09:13:27.679Z</time>
      </trkpt>
      <trkpt lat="45.69895" lon="5.94402">
        <ele>497</ele>
        <time>2021-09-10T09:13:28.678Z</time>
      </trkpt>
      <trkpt lat="45.69897" lon="5.94403">
        <ele>498</ele>
        <time>2021-09-10T09:13:29.679Z</time>
      </trkpt>
      <trkpt lat="45.69899" lon="5.94405">
        <ele>498</ele>
        <time>2021-09-10T09:13:30.678Z</time>
      </trkpt>
      <trkpt lat="45.69901" lon="5.94407">
        <ele>497</ele>
        <time>2021-09-10T09:13:31.679Z</time>
      </trkpt>
      <trkpt lat="45.69903" lon="5.94409">
        <ele>497</ele>
        <time>2021-09-10T09:13:32.678Z</time>
      </trkpt>
      <trkpt lat="45.69905" lon="5.9441">
        <ele>498</ele>
        <time>2021-09-10T09:13:33.679Z</time>
      </trkpt>
      <trkpt lat="45.69907" lon="5.94412">
        <ele>498</ele>
        <time>2021-09-10T09:13:34.679Z</time>
      </trkpt>
      <trkpt lat="45.69909" lon="5.94414">
        <ele>498</ele>
        <time>2021-09-10T09:13:35.678Z</time>
      </trkpt>
      <trkpt lat="45.69911" lon="5.94416">
        <ele>499</ele>
        <time>2021-09-10T09:13:36.679Z</time>
      </trkpt>
      <trkpt lat="45.69912" lon="5.94417">
        <ele>499</ele>
        <time>2021-09-10T09:13:37.679Z</time>
      </trkpt>
      <trkpt lat="45.69914" lon="5.94419">
        <ele>498</ele>
        <time>2021-09-10T09:13:38.678Z</time>
      </trkpt>
      <trkpt lat="45.69916" lon="5.94421">
        <ele>498</ele>
        <time>2021-09-10T09:13:39.679Z</time>
      </trkpt>
      <trkpt lat="45.69918" lon="5.94422">
        <ele>498</ele>
        <time>2021-09-10T09:13:40.679Z</time>
      </trkpt>
      <trkpt lat="45.6992" lon="5.94424">
        <ele>498</ele>
        <time>2021-09-10T09:13:41.679Z</time>
      </trkpt>
      <trkpt lat="45.69922" lon="5.94426">
        <ele>498</ele>
        <time>2021-09-10T09:13:42.679Z</time>
      </trkpt>
      <trkpt lat="45.69924" lon="5.94428">
        <ele>498</ele>
        <time>2021-09-10T09:13:43.679Z</time>
      </trkpt>
      <trkpt lat="45.69926" lon="5.94429">
        <ele>497</ele>
        <time>2021-09-10T09:13:44.678Z</time>
      </trkpt>
      <trkpt lat="45.69929" lon="5.9443">
        <ele>497</ele>
        <time>2021-09-10T09:13:45.679Z</time>
      </trkpt>
      <trkpt lat="45.69931" lon="5.94432">
        <ele>497</ele>
        <time>2021-09-10T09:13:46.679Z</time>
      </trkpt>
      <trkpt lat="45.69933" lon="5.94433">
        <ele>497</ele>
        <time>2021-09-10T09:13:47.679Z</time>
      </trkpt>
      <trkpt lat="45.69935" lon="5.94434">
        <ele>497</ele>
        <time>2021-09-10T09:13:48.679Z</time>
      </trkpt>
      <trkpt lat="45.69937" lon="5.94435">
        <ele>497</ele>
        <time>2021-09-10T09:13:49.679Z</time>
      </trkpt>
      <trkpt lat="45.69939" lon="5.94437">
        <ele>498</ele>
        <time>2021-09-10T09:13:50.679Z</time>
      </trkpt>
      <trkpt lat="45.69942" lon="5.94438">
        <ele>498</ele>
        <time>2021-09-10T09:13:51.679Z</time>
      </trkpt>
      <trkpt lat="45.69944" lon="5.94439">
        <ele>498</ele>
        <time>2021-09-10T09:13:52.679Z</time>
      </trkpt>
      <trkpt lat="45.69946" lon="5.9444">
        <ele>499</ele>
        <time>2021-09-10T09:13:53.678Z</time>
      </trkpt>
      <trkpt lat="45.69948" lon="5.94441">
        <ele>499</ele>
        <time>2021-09-10T09:13:54.678Z</time>
      </trkpt>
      <trkpt lat="45.6995" lon="5.94442">
        <ele>499</ele>
        <time>2021-09-10T09:13:55.678Z</time>
      </trkpt>
      <trkpt lat="45.69952" lon="5.94442">
        <ele>500</ele>
        <time>2021-09-10T09:13:56.679Z</time>
      </trkpt>
      <trkpt lat="45.69954" lon="5.94442">
        <ele>500</ele>
        <time>2021-09-10T09:13:57.679Z</time>
      </trkpt>
      <trkpt lat="45.69957" lon="5.94443">
        <ele>501</ele>
        <time>2021-09-10T09:13:58.678Z</time>
      </trkpt>
      <trkpt lat="45.69959" lon="5.94443">
        <ele>501</ele>
        <time>2021-09-10T09:13:59.678Z</time>
      </trkpt>
      <trkpt lat="45.69961" lon="5.94443">
        <ele>502</ele>
        <time>2021-09-10T09:14:00.679Z</time>
      </trkpt>
      <trkpt lat="45.69963" lon="5.94443">
        <ele>502</ele>
        <time>2021-09-10T09:14:01.679Z</time>
      </trkpt>
      <trkpt lat="45.69965" lon="5.94443">
        <ele>502</ele>
        <time>2021-09-10T09:14:02.679Z</time>
      </trkpt>
      <trkpt lat="45.69967" lon="5.94444">
        <ele>502</ele>
        <time>2021-09-10T09:14:03.678Z</time>
      </trkpt>
      <trkpt lat="45.69969" lon="5.94444">
        <ele>502</ele>
        <time>2021-09-10T09:14:04.678Z</time>
      </trkpt>
      <trkpt lat="45.69971" lon="5.94444">
        <ele>502</ele>
        <time>2021-09-10T09:14:05.679Z</time>
      </trkpt>
      <trkpt lat="45.69973" lon="5.94444">
        <ele>502</ele>
        <time>2021-09-10T09:14:06.679Z</time>
      </trkpt>
      <trkpt lat="45.69976" lon="5.94445">
        <ele>502</ele>
        <time>2021-09-10T09:14:07.679Z</time>
      </trkpt>
      <trkpt lat="45.69978" lon="5.94445">
        <ele>502</ele>
        <time>2021-09-10T09:14:08.678Z</time>
      </trkpt>
      <trkpt lat="45.6998" lon="5.94445">
        <ele>502</ele>
        <time>2021-09-10T09:14:09.678Z</time>
      </trkpt>
      <trkpt lat="45.69982" lon="5.94445">
        <ele>502</ele>
        <time>2021-09-10T09:14:10.678Z</time>
      </trkpt>
      <trkpt lat="45.69985" lon="5.94446">
        <ele>502</ele>
        <time>2021-09-10T09:14:11.679Z</time>
      </trkpt>
      <trkpt lat="45.69987" lon="5.94446">
        <ele>502</ele>
        <time>2021-09-10T09:14:12.679Z</time>
      </trkpt>
      <trkpt lat="45.69989" lon="5.94447">
        <ele>502</ele>
        <time>2021-09-10T09:14:13.678Z</time>
      </trkpt>
      <trkpt lat="45.69991" lon="5.94447">
        <ele>503</ele>
        <time>2021-09-10T09:14:14.678Z</time>
      </trkpt>
      <trkpt lat="45.69993" lon="5.94448">
        <ele>503</ele>
        <time>2021-09-10T09:14:15.679Z</time>
      </trkpt>
      <trkpt lat="45.69995" lon="5.94448">
        <ele>503</ele>
        <time>2021-09-10T09:14:16.679Z</time>
      </trkpt>
      <trkpt lat="45.69998" lon="5.94449">
        <ele>504</ele>
        <time>2021-09-10T09:14:17.679Z</time>
      </trkpt>
      <trkpt lat="45.7" lon="5.9445">
        <ele>504</ele>
        <time>2021-09-10T09:14:18.679Z</time>
      </trkpt>
      <trkpt lat="45.70002" lon="5.94451">
        <ele>504</ele>
        <time>2021-09-10T09:14:19.678Z</time>
      </trkpt>
      <trkpt lat="45.70004" lon="5.94451">
        <ele>504</ele>
        <time>2021-09-10T09:14:20.678Z</time>
      </trkpt>
      <trkpt lat="45.70006" lon="5.94452">
        <ele>505</ele>
        <time>2021-09-10T09:14:21.679Z</time>
      </trkpt>
      <trkpt lat="45.70009" lon="5.94453">
        <ele>505</ele>
        <time>2021-09-10T09:14:22.679Z</time>
      </trkpt>
      <trkpt lat="45.70011" lon="5.94455">
        <ele>505</ele>
        <time>2021-09-10T09:14:23.679Z</time>
      </trkpt>
      <trkpt lat="45.70013" lon="5.94456">
        <ele>505</ele>
        <time>2021-09-10T09:14:24.678Z</time>
      </trkpt>
      <trkpt lat="45.70015" lon="5.94457">
        <ele>505</ele>
        <time>2021-09-10T09:14:25.679Z</time>
      </trkpt>
      <trkpt lat="45.70017" lon="5.94459">
        <ele>506</ele>
        <time>2021-09-10T09:14:26.679Z</time>
      </trkpt>
      <trkpt lat="45.70019" lon="5.9446">
        <ele>506</ele>
        <time>2021-09-10T09:14:27.678Z</time>
      </trkpt>
      <trkpt lat="45.70021" lon="5.94462">
        <ele>506</ele>
        <time>2021-09-10T09:14:28.679Z</time>
      </trkpt>
      <trkpt lat="45.70023" lon="5.94465">
        <ele>506</ele>
        <time>2021-09-10T09:14:29.678Z</time>
      </trkpt>
      <trkpt lat="45.70024" lon="5.94467">
        <ele>507</ele>
        <time>2021-09-10T09:14:30.678Z</time>
      </trkpt>
      <trkpt lat="45.70026" lon="5.94469">
        <ele>507</ele>
        <time>2021-09-10T09:14:31.678Z</time>
      </trkpt>
      <trkpt lat="45.70028" lon="5.94471">
        <ele>507</ele>
        <time>2021-09-10T09:14:32.678Z</time>
      </trkpt>
      <trkpt lat="45.70029" lon="5.94474">
        <ele>508</ele>
        <time>2021-09-10T09:14:33.679Z</time>
      </trkpt>
      <trkpt lat="45.70031" lon="5.94476">
        <ele>508</ele>
        <time>2021-09-10T09:14:34.679Z</time>
      </trkpt>
      <trkpt lat="45.70032" lon="5.94478">
        <ele>508</ele>
        <time>2021-09-10T09:14:35.678Z</time>
      </trkpt>
      <trkpt lat="45.70034" lon="5.9448">
        <ele>507</ele>
        <time>2021-09-10T09:14:36.678Z</time>
      </trkpt>
      <trkpt lat="45.70036" lon="5.94483">
        <ele>507</ele>
        <time>2021-09-10T09:14:37.679Z</time>
      </trkpt>
      <trkpt lat="45.70037" lon="5.94485">
        <ele>507</ele>
        <time>2021-09-10T09:14:38.679Z</time>
      </trkpt>
      <trkpt lat="45.70039" lon="5.94487">
        <ele>507</ele>
        <time>2021-09-10T09:14:39.679Z</time>
      </trkpt>
      <trkpt lat="45.70041" lon="5.94489">
        <ele>508</ele>
        <time>2021-09-10T09:14:40.678Z</time>
      </trkpt>
      <trkpt lat="45.70042" lon="5.94491">
        <ele>508</ele>
        <time>2021-09-10T09:14:41.679Z</time>
      </trkpt>
      <trkpt lat="45.70044" lon="5.94493">
        <ele>508</ele>
        <time>2021-09-10T09:14:42.679Z</time>
      </trkpt>
      <trkpt lat="45.70045" lon="5.94495">
        <ele>508</ele>
        <time>2021-09-10T09:14:43.678Z</time>
      </trkpt>
      <trkpt lat="45.70047" lon="5.94497">
        <ele>508</ele>
        <time>2021-09-10T09:14:44.678Z</time>
      </trkpt>
      <trkpt lat="45.70049" lon="5.94499">
        <ele>508</ele>
        <time>2021-09-10T09:14:45.678Z</time>
      </trkpt>
      <trkpt lat="45.7005" lon="5.94501">
        <ele>508</ele>
        <time>2021-09-10T09:14:46.679Z</time>
      </trkpt>
      <trkpt lat="45.70052" lon="5.94504">
        <ele>508</ele>
        <time>2021-09-10T09:14:47.679Z</time>
      </trkpt>
      <trkpt lat="45.70053" lon="5.94505">
        <ele>508</ele>
        <time>2021-09-10T09:14:48.679Z</time>
      </trkpt>
      <trkpt lat="45.70055" lon="5.94507">
        <ele>508</ele>
        <time>2021-09-10T09:14:49.679Z</time>
      </trkpt>
      <trkpt lat="45.70057" lon="5.94509">
        <ele>508</ele>
        <time>2021-09-10T09:14:50.679Z</time>
      </trkpt>
      <trkpt lat="45.70058" lon="5.94511">
        <ele>509</ele>
        <time>2021-09-10T09:14:51.679Z</time>
      </trkpt>
      <trkpt lat="45.7006" lon="5.94513">
        <ele>509</ele>
        <time>2021-09-10T09:14:52.679Z</time>
      </trkpt>
      <trkpt lat="45.70062" lon="5.94515">
        <ele>510</ele>
        <time>2021-09-10T09:14:53.679Z</time>
      </trkpt>
      <trkpt lat="45.70063" lon="5.94517">
        <ele>510</ele>
        <time>2021-09-10T09:14:54.679Z</time>
      </trkpt>
      <trkpt lat="45.70065" lon="5.94519">
        <ele>510</ele>
        <time>2021-09-10T09:14:55.679Z</time>
      </trkpt>
      <trkpt lat="45.70066" lon="5.94521">
        <ele>510</ele>
        <time>2021-09-10T09:14:56.678Z</time>
      </trkpt>
      <trkpt lat="45.70068" lon="5.94523">
        <ele>510</ele>
        <time>2021-09-10T09:14:57.679Z</time>
      </trkpt>
      <trkpt lat="45.70069" lon="5.94524">
        <ele>510</ele>
        <time>2021-09-10T09:14:58.679Z</time>
      </trkpt>
      <trkpt lat="45.70071" lon="5.94526">
        <ele>510</ele>
        <time>2021-09-10T09:14:59.679Z</time>
      </trkpt>
      <trkpt lat="45.70072" lon="5.94528">
        <ele>510</ele>
        <time>2021-09-10T09:15:00.678Z</time>
      </trkpt>
      <trkpt lat="45.70074" lon="5.94531">
        <ele>510</ele>
        <time>2021-09-10T09:15:01.679Z</time>
      </trkpt>
      <trkpt lat="45.70075" lon="5.94533">
        <ele>510</ele>
        <time>2021-09-10T09:15:02.678Z</time>
      </trkpt>
      <trkpt lat="45.70076" lon="5.94535">
        <ele>510</ele>
        <time>2021-09-10T09:15:03.679Z</time>
      </trkpt>
      <trkpt lat="45.70078" lon="5.94537">
        <ele>510</ele>
        <time>2021-09-10T09:15:04.679Z</time>
      </trkpt>
      <trkpt lat="45.70079" lon="5.9454">
        <ele>511</ele>
        <time>2021-09-10T09:15:05.678Z</time>
      </trkpt>
      <trkpt lat="45.70081" lon="5.94542">
        <ele>511</ele>
        <time>2021-09-10T09:15:06.679Z</time>
      </trkpt>
      <trkpt lat="45.70082" lon="5.94544">
        <ele>512</ele>
        <time>2021-09-10T09:15:07.679Z</time>
      </trkpt>
      <trkpt lat="45.70083" lon="5.94547">
        <ele>512</ele>
        <time>2021-09-10T09:15:08.678Z</time>
      </trkpt>
      <trkpt lat="45.70084" lon="5.94549">
        <ele>513</ele>
        <time>2021-09-10T09:15:09.679Z</time>
      </trkpt>
      <trkpt lat="45.70085" lon="5.94552">
        <ele>513</ele>
        <time>2021-09-10T09:15:10.678Z</time>
      </trkpt>
      <trkpt lat="45.70087" lon="5.94554">
        <ele>513</ele>
        <time>2021-09-10T09:15:11.679Z</time>
      </trkpt>
      <trkpt lat="45.70088" lon="5.94557">
        <ele>514</ele>
        <time>2021-09-10T09:15:12.678Z</time>
      </trkpt>
      <trkpt lat="45.70089" lon="5.9456">
        <ele>514</ele>
        <time>2021-09-10T09:15:13.679Z</time>
      </trkpt>
      <trkpt lat="45.7009" lon="5.94563">
        <ele>514</ele>
        <time>2021-09-10T09:15:14.679Z</time>
      </trkpt>
      <trkpt lat="45.70091" lon="5.94565">
        <ele>515</ele>
        <time>2021-09-10T09:15:15.679Z</time>
      </trkpt>
      <trkpt lat="45.70092" lon="5.94568">
        <ele>515</ele>
        <time>2021-09-10T09:15:16.678Z</time>
      </trkpt>
      <trkpt lat="45.70093" lon="5.94571">
        <ele>515</ele>
        <time>2021-09-10T09:15:17.679Z</time>
      </trkpt>
      <trkpt lat="45.70094" lon="5.94574">
        <ele>515</ele>
        <time>2021-09-10T09:15:18.679Z</time>
      </trkpt>
      <trkpt lat="45.70095" lon="5.94577">
        <ele>515</ele>
        <time>2021-09-10T09:15:19.679Z</time>
      </trkpt>
      <trkpt lat="45.70096" lon="5.94579">
        <ele>516</ele>
        <time>2021-09-10T09:15:20.679Z</time>
      </trkpt>
      <trkpt lat="45.70097" lon="5.94582">
        <ele>516</ele>
        <time>2021-09-10T09:15:21.679Z</time>
      </trkpt>
      <trkpt lat="45.70098" lon="5.94585">
        <ele>516</ele>
        <time>2021-09-10T09:15:22.679Z</time>
      </trkpt>
      <trkpt lat="45.70098" lon="5.94588">
        <ele>516</ele>
        <time>2021-09-10T09:15:23.679Z</time>
      </trkpt>
      <trkpt lat="45.70099" lon="5.9459">
        <ele>516</ele>
        <time>2021-09-10T09:15:24.678Z</time>
      </trkpt>
      <trkpt lat="45.70099" lon="5.94593">
        <ele>516</ele>
        <time>2021-09-10T09:15:25.678Z</time>
      </trkpt>
      <trkpt lat="45.701" lon="5.94596">
        <ele>516</ele>
        <time>2021-09-10T09:15:26.678Z</time>
      </trkpt>
      <trkpt lat="45.70101" lon="5.94599">
        <ele>517</ele>
        <time>2021-09-10T09:15:27.679Z</time>
      </trkpt>
      <trkpt lat="45.70102" lon="5.94602">
        <ele>518</ele>
        <time>2021-09-10T09:15:28.679Z</time>
      </trkpt>
      <trkpt lat="45.70103" lon="5.94605">
        <ele>519</ele>
        <time>2021-09-10T09:15:29.679Z</time>
      </trkpt>
      <trkpt lat="45.70104" lon="5.94608">
        <ele>519</ele>
        <time>2021-09-10T09:15:30.679Z</time>
      </trkpt>
      <trkpt lat="45.70104" lon="5.94611">
        <ele>520</ele>
        <time>2021-09-10T09:15:31.679Z</time>
      </trkpt>
      <trkpt lat="45.70104" lon="5.94614">
        <ele>521</ele>
        <time>2021-09-10T09:15:32.679Z</time>
      </trkpt>
      <trkpt lat="45.70104" lon="5.94617">
        <ele>521</ele>
        <time>2021-09-10T09:15:33.679Z</time>
      </trkpt>
      <trkpt lat="45.70105" lon="5.9462">
        <ele>521</ele>
        <time>2021-09-10T09:15:34.679Z</time>
      </trkpt>
      <trkpt lat="45.70106" lon="5.94622">
        <ele>521</ele>
        <time>2021-09-10T09:15:35.678Z</time>
      </trkpt>
      <trkpt lat="45.70107" lon="5.94625">
        <ele>521</ele>
        <time>2021-09-10T09:15:36.679Z</time>
      </trkpt>
      <trkpt lat="45.70108" lon="5.94629">
        <ele>521</ele>
        <time>2021-09-10T09:15:37.678Z</time>
      </trkpt>
      <trkpt lat="45.70108" lon="5.94632">
        <ele>521</ele>
        <time>2021-09-10T09:15:38.679Z</time>
      </trkpt>
      <trkpt lat="45.70108" lon="5.94635">
        <ele>522</ele>
        <time>2021-09-10T09:15:39.679Z</time>
      </trkpt>
      <trkpt lat="45.70109" lon="5.94639">
        <ele>522</ele>
        <time>2021-09-10T09:15:40.679Z</time>
      </trkpt>
      <trkpt lat="45.70109" lon="5.94641">
        <ele>522</ele>
        <time>2021-09-10T09:15:41.679Z</time>
      </trkpt>
      <trkpt lat="45.7011" lon="5.94644">
        <ele>522</ele>
        <time>2021-09-10T09:15:42.678Z</time>
      </trkpt>
      <trkpt lat="45.70111" lon="5.94647">
        <ele>522</ele>
        <time>2021-09-10T09:15:43.679Z</time>
      </trkpt>
      <trkpt lat="45.70112" lon="5.9465">
        <ele>522</ele>
        <time>2021-09-10T09:15:44.678Z</time>
      </trkpt>
      <trkpt lat="45.70112" lon="5.94652">
        <ele>522</ele>
        <time>2021-09-10T09:15:45.679Z</time>
      </trkpt>
      <trkpt lat="45.70113" lon="5.94655">
        <ele>522</ele>
        <time>2021-09-10T09:15:46.679Z</time>
      </trkpt>
      <trkpt lat="45.70114" lon="5.94657">
        <ele>522</ele>
        <time>2021-09-10T09:15:47.679Z</time>
      </trkpt>
      <trkpt lat="45.70114" lon="5.9466">
        <ele>521</ele>
        <time>2021-09-10T09:15:48.678Z</time>
      </trkpt>
      <trkpt lat="45.70115" lon="5.94662">
        <ele>521</ele>
        <time>2021-09-10T09:15:49.678Z</time>
      </trkpt>
      <trkpt lat="45.70116" lon="5.94665">
        <ele>521</ele>
        <time>2021-09-10T09:15:50.678Z</time>
      </trkpt>
      <trkpt lat="45.70117" lon="5.94668">
        <ele>521</ele>
        <time>2021-09-10T09:15:51.679Z</time>
      </trkpt>
      <trkpt lat="45.70117" lon="5.9467">
        <ele>521</ele>
        <time>2021-09-10T09:15:52.679Z</time>
      </trkpt>
      <trkpt lat="45.70118" lon="5.94673">
        <ele>521</ele>
        <time>2021-09-10T09:15:53.679Z</time>
      </trkpt>
      <trkpt lat="45.70119" lon="5.94675">
        <ele>521</ele>
        <time>2021-09-10T09:15:54.679Z</time>
      </trkpt>
      <trkpt lat="45.7012" lon="5.94678">
        <ele>521</ele>
        <time>2021-09-10T09:15:55.679Z</time>
      </trkpt>
      <trkpt lat="45.7012" lon="5.9468">
        <ele>521</ele>
        <time>2021-09-10T09:15:56.679Z</time>
      </trkpt>
      <trkpt lat="45.70121" lon="5.94683">
        <ele>521</ele>
        <time>2021-09-10T09:15:57.679Z</time>
      </trkpt>
      <trkpt lat="45.70121" lon="5.94686">
        <ele>521</ele>
        <time>2021-09-10T09:15:58.679Z</time>
      </trkpt>
      <trkpt lat="45.70122" lon="5.94688">
        <ele>521</ele>
        <time>2021-09-10T09:15:59.678Z</time>
      </trkpt>
      <trkpt lat="45.70123" lon="5.94691">
        <ele>521</ele>
        <time>2021-09-10T09:16:00.679Z</time>
      </trkpt>
      <trkpt lat="45.70124" lon="5.94693">
        <ele>521</ele>
        <time>2021-09-10T09:16:01.679Z</time>
      </trkpt>
      <trkpt lat="45.70124" lon="5.94696">
        <ele>521</ele>
        <time>2021-09-10T09:16:02.678Z</time>
      </trkpt>
      <trkpt lat="45.70125" lon="5.94698">
        <ele>521</ele>
        <time>2021-09-10T09:16:03.679Z</time>
      </trkpt>
      <trkpt lat="45.70125" lon="5.94701">
        <ele>521</ele>
        <time>2021-09-10T09:16:04.678Z</time>
      </trkpt>
      <trkpt lat="45.70126" lon="5.94704">
        <ele>521</ele>
        <time>2021-09-10T09:16:05.679Z</time>
      </trkpt>
      <trkpt lat="45.70126" lon="5.94707">
        <ele>522</ele>
        <time>2021-09-10T09:16:06.679Z</time>
      </trkpt>
      <trkpt lat="45.70127" lon="5.9471">
        <ele>522</ele>
        <time>2021-09-10T09:16:07.679Z</time>
      </trkpt>
      <trkpt lat="45.70127" lon="5.94713">
        <ele>522</ele>
        <time>2021-09-10T09:16:08.678Z</time>
      </trkpt>
      <trkpt lat="45.70127" lon="5.94716">
        <ele>522</ele>
        <time>2021-09-10T09:16:09.679Z</time>
      </trkpt>
      <trkpt lat="45.70127" lon="5.94719">
        <ele>523</ele>
        <time>2021-09-10T09:16:10.678Z</time>
      </trkpt>
      <trkpt lat="45.70127" lon="5.94721">
        <ele>523</ele>
        <time>2021-09-10T09:16:11.679Z</time>
      </trkpt>
      <trkpt lat="45.70127" lon="5.94724">
        <ele>523</ele>
        <time>2021-09-10T09:16:12.678Z</time>
      </trkpt>
      <trkpt lat="45.70128" lon="5.94727">
        <ele>523</ele>
        <time>2021-09-10T09:16:13.679Z</time>
      </trkpt>
      <trkpt lat="45.70127" lon="5.9473">
        <ele>523</ele>
        <time>2021-09-10T09:16:14.679Z</time>
      </trkpt>
      <trkpt lat="45.70127" lon="5.94734">
        <ele>524</ele>
        <time>2021-09-10T09:16:15.679Z</time>
      </trkpt>
      <trkpt lat="45.70127" lon="5.94737">
        <ele>524</ele>
        <time>2021-09-10T09:16:16.679Z</time>
      </trkpt>
      <trkpt lat="45.70127" lon="5.9474">
        <ele>525</ele>
        <time>2021-09-10T09:16:17.679Z</time>
      </trkpt>
      <trkpt lat="45.70127" lon="5.94743">
        <ele>525</ele>
        <time>2021-09-10T09:16:18.679Z</time>
      </trkpt>
      <trkpt lat="45.70126" lon="5.94746">
        <ele>526</ele>
        <time>2021-09-10T09:16:19.679Z</time>
      </trkpt>
      <trkpt lat="45.70126" lon="5.94748">
        <ele>526</ele>
        <time>2021-09-10T09:16:20.679Z</time>
      </trkpt>
      <trkpt lat="45.70127" lon="5.94751">
        <ele>526</ele>
        <time>2021-09-10T09:16:21.679Z</time>
      </trkpt>
      <trkpt lat="45.70127" lon="5.94754">
        <ele>526</ele>
        <time>2021-09-10T09:16:22.678Z</time>
      </trkpt>
      <trkpt lat="45.70127" lon="5.94757">
        <ele>526</ele>
        <time>2021-09-10T09:16:23.679Z</time>
      </trkpt>
      <trkpt lat="45.70126" lon="5.94759">
        <ele>527</ele>
        <time>2021-09-10T09:16:24.678Z</time>
      </trkpt>
      <trkpt lat="45.70126" lon="5.94762">
        <ele>528</ele>
        <time>2021-09-10T09:16:25.679Z</time>
      </trkpt>
      <trkpt lat="45.70125" lon="5.94765">
        <ele>528</ele>
        <time>2021-09-10T09:16:26.679Z</time>
      </trkpt>
      <trkpt lat="45.70126" lon="5.94769">
        <ele>529</ele>
        <time>2021-09-10T09:16:27.678Z</time>
      </trkpt>
      <trkpt lat="45.70127" lon="5.94772">
        <ele>530</ele>
        <time>2021-09-10T09:16:28.679Z</time>
      </trkpt>
      <trkpt lat="45.70127" lon="5.94775">
        <ele>530</ele>
        <time>2021-09-10T09:16:29.679Z</time>
      </trkpt>
      <trkpt lat="45.70128" lon="5.94777">
        <ele>530</ele>
        <time>2021-09-10T09:16:30.679Z</time>
      </trkpt>
      <trkpt lat="45.70128" lon="5.9478">
        <ele>530</ele>
        <time>2021-09-10T09:16:31.679Z</time>
      </trkpt>
      <trkpt lat="45.70128" lon="5.94782">
        <ele>530</ele>
        <time>2021-09-10T09:16:32.679Z</time>
      </trkpt>
      <trkpt lat="45.70128" lon="5.94785">
        <ele>530</ele>
        <time>2021-09-10T09:16:33.679Z</time>
      </trkpt>
      <trkpt lat="45.70127" lon="5.94787">
        <ele>531</ele>
        <time>2021-09-10T09:16:34.679Z</time>
      </trkpt>
      <trkpt lat="45.70127" lon="5.9479">
        <ele>532</ele>
        <time>2021-09-10T09:16:35.679Z</time>
      </trkpt>
      <trkpt lat="45.70126" lon="5.94793">
        <ele>532</ele>
        <time>2021-09-10T09:16:36.679Z</time>
      </trkpt>
      <trkpt lat="45.70126" lon="5.94795">
        <ele>532</ele>
        <time>2021-09-10T09:16:37.678Z</time>
      </trkpt>
      <trkpt lat="45.70126" lon="5.94798">
        <ele>532</ele>
        <time>2021-09-10T09:16:38.679Z</time>
      </trkpt>
      <trkpt lat="45.70126" lon="5.94801">
        <ele>532</ele>
        <time>2021-09-10T09:16:39.679Z</time>
      </trkpt>
      <trkpt lat="45.70125" lon="5.94804">
        <ele>533</ele>
        <time>2021-09-10T09:16:40.679Z</time>
      </trkpt>
      <trkpt lat="45.70125" lon="5.94807">
        <ele>533</ele>
        <time>2021-09-10T09:16:41.679Z</time>
      </trkpt>
      <trkpt lat="45.70125" lon="5.94811">
        <ele>533</ele>
        <time>2021-09-10T09:16:42.678Z</time>
      </trkpt>
      <trkpt lat="45.70124" lon="5.94813">
        <ele>534</ele>
        <time>2021-09-10T09:16:43.678Z</time>
      </trkpt>
      <trkpt lat="45.70124" lon="5.94816">
        <ele>534</ele>
        <time>2021-09-10T09:16:44.679Z</time>
      </trkpt>
      <trkpt lat="45.70124" lon="5.94819">
        <ele>534</ele>
        <time>2021-09-10T09:16:45.679Z</time>
      </trkpt>
      <trkpt lat="45.70124" lon="5.94822">
        <ele>534</ele>
        <time>2021-09-10T09:16:46.679Z</time>
      </trkpt>
      <trkpt lat="45.70124" lon="5.94824">
        <ele>534</ele>
        <time>2021-09-10T09:16:47.679Z</time>
      </trkpt>
      <trkpt lat="45.70123" lon="5.94827">
        <ele>534</ele>
        <time>2021-09-10T09:16:48.679Z</time>
      </trkpt>
      <trkpt lat="45.70123" lon="5.9483">
        <ele>534</ele>
        <time>2021-09-10T09:16:49.679Z</time>
      </trkpt>
      <trkpt lat="45.70122" lon="5.94833">
        <ele>534</ele>
        <time>2021-09-10T09:16:50.679Z</time>
      </trkpt>
      <trkpt lat="45.70122" lon="5.94836">
        <ele>534</ele>
        <time>2021-09-10T09:16:51.679Z</time>
      </trkpt>
      <trkpt lat="45.70122" lon="5.94839">
        <ele>534</ele>
        <time>2021-09-10T09:16:52.679Z</time>
      </trkpt>
      <trkpt lat="45.70122" lon="5.94842">
        <ele>534</ele>
        <time>2021-09-10T09:16:53.679Z</time>
      </trkpt>
      <trkpt lat="45.70121" lon="5.94845">
        <ele>534</ele>
        <time>2021-09-10T09:16:54.679Z</time>
      </trkpt>
      <trkpt lat="45.70121" lon="5.94847">
        <ele>534</ele>
        <time>2021-09-10T09:16:55.678Z</time>
      </trkpt>
      <trkpt lat="45.70121" lon="5.9485">
        <ele>534</ele>
        <time>2021-09-10T09:16:56.678Z</time>
      </trkpt>
      <trkpt lat="45.7012" lon="5.94853">
        <ele>534</ele>
        <time>2021-09-10T09:16:57.679Z</time>
      </trkpt>
      <trkpt lat="45.70119" lon="5.94856">
        <ele>534</ele>
        <time>2021-09-10T09:16:58.678Z</time>
      </trkpt>
      <trkpt lat="45.70119" lon="5.94859">
        <ele>535</ele>
        <time>2021-09-10T09:16:59.679Z</time>
      </trkpt>
      <trkpt lat="45.70118" lon="5.94862">
        <ele>535</ele>
        <time>2021-09-10T09:17:00.679Z</time>
      </trkpt>
      <trkpt lat="45.70118" lon="5.94864">
        <ele>535</ele>
        <time>2021-09-10T09:17:01.679Z</time>
      </trkpt>
      <trkpt lat="45.70117" lon="5.94868">
        <ele>536</ele>
        <time>2021-09-10T09:17:02.678Z</time>
      </trkpt>
      <trkpt lat="45.70117" lon="5.94871">
        <ele>536</ele>
        <time>2021-09-10T09:17:03.679Z</time>
      </trkpt>
      <trkpt lat="45.70116" lon="5.94874">
        <ele>536</ele>
        <time>2021-09-10T09:17:04.679Z</time>
      </trkpt>
      <trkpt lat="45.70116" lon="5.94877">
        <ele>537</ele>
        <time>2021-09-10T09:17:05.679Z</time>
      </trkpt>
      <trkpt lat="45.70115" lon="5.9488">
        <ele>536</ele>
        <time>2021-09-10T09:17:06.679Z</time>
      </trkpt>
      <trkpt lat="45.70114" lon="5.94883">
        <ele>536</ele>
        <time>2021-09-10T09:17:07.679Z</time>
      </trkpt>
      <trkpt lat="45.70113" lon="5.94886">
        <ele>536</ele>
        <time>2021-09-10T09:17:08.679Z</time>
      </trkpt>
      <trkpt lat="45.70112" lon="5.94889">
        <ele>536</ele>
        <time>2021-09-10T09:17:09.679Z</time>
      </trkpt>
      <trkpt lat="45.70112" lon="5.94893">
        <ele>536</ele>
        <time>2021-09-10T09:17:10.679Z</time>
      </trkpt>
      <trkpt lat="45.70111" lon="5.94896">
        <ele>536</ele>
        <time>2021-09-10T09:17:11.679Z</time>
      </trkpt>
      <trkpt lat="45.70111" lon="5.94899">
        <ele>537</ele>
        <time>2021-09-10T09:17:12.679Z</time>
      </trkpt>
      <trkpt lat="45.70111" lon="5.94902">
        <ele>537</ele>
        <time>2021-09-10T09:17:13.679Z</time>
      </trkpt>
      <trkpt lat="45.70111" lon="5.94906">
        <ele>538</ele>
        <time>2021-09-10T09:17:14.679Z</time>
      </trkpt>
      <trkpt lat="45.70111" lon="5.94909">
        <ele>538</ele>
        <time>2021-09-10T09:17:15.679Z</time>
      </trkpt>
      <trkpt lat="45.70112" lon="5.94912">
        <ele>538</ele>
        <time>2021-09-10T09:17:16.678Z</time>
      </trkpt>
      <trkpt lat="45.70112" lon="5.94916">
        <ele>538</ele>
        <time>2021-09-10T09:17:17.678Z</time>
      </trkpt>
      <trkpt lat="45.70112" lon="5.94919">
        <ele>537</ele>
        <time>2021-09-10T09:17:18.679Z</time>
      </trkpt>
      <trkpt lat="45.70112" lon="5.94922">
        <ele>537</ele>
        <time>2021-09-10T09:17:19.678Z</time>
      </trkpt>
      <trkpt lat="45.70113" lon="5.94925">
        <ele>537</ele>
        <time>2021-09-10T09:17:20.679Z</time>
      </trkpt>
      <trkpt lat="45.70113" lon="5.94928">
        <ele>537</ele>
        <time>2021-09-10T09:17:21.679Z</time>
      </trkpt>
      <trkpt lat="45.70114" lon="5.94931">
        <ele>537</ele>
        <time>2021-09-10T09:17:22.679Z</time>
      </trkpt>
      <trkpt lat="45.70115" lon="5.94934">
        <ele>538</ele>
        <time>2021-09-10T09:17:23.678Z</time>
      </trkpt>
      <trkpt lat="45.70117" lon="5.94936">
        <ele>538</ele>
        <time>2021-09-10T09:17:24.679Z</time>
      </trkpt>
      <trkpt lat="45.70118" lon="5.94939">
        <ele>539</ele>
        <time>2021-09-10T09:17:25.679Z</time>
      </trkpt>
      <trkpt lat="45.70119" lon="5.94941">
        <ele>539</ele>
        <time>2021-09-10T09:17:26.679Z</time>
      </trkpt>
      <trkpt lat="45.7012" lon="5.94944">
        <ele>539</ele>
        <time>2021-09-10T09:17:27.679Z</time>
      </trkpt>
      <trkpt lat="45.70121" lon="5.94947">
        <ele>540</ele>
        <time>2021-09-10T09:17:28.679Z</time>
      </trkpt>
      <trkpt lat="45.70122" lon="5.9495">
        <ele>540</ele>
        <time>2021-09-10T09:17:29.678Z</time>
      </trkpt>
      <trkpt lat="45.70123" lon="5.94953">
        <ele>541</ele>
        <time>2021-09-10T09:17:30.679Z</time>
      </trkpt>
      <trkpt lat="45.70124" lon="5.94956">
        <ele>541</ele>
        <time>2021-09-10T09:17:31.679Z</time>
      </trkpt>
      <trkpt lat="45.70125" lon="5.94959">
        <ele>541</ele>
        <time>2021-09-10T09:17:32.679Z</time>
      </trkpt>
      <trkpt lat="45.70126" lon="5.94962">
        <ele>541</ele>
        <time>2021-09-10T09:17:33.679Z</time>
      </trkpt>
      <trkpt lat="45.70127" lon="5.94965">
        <ele>542</ele>
        <time>2021-09-10T09:17:34.678Z</time>
      </trkpt>
      <trkpt lat="45.70127" lon="5.94968">
        <ele>542</ele>
        <time>2021-09-10T09:17:35.679Z</time>
      </trkpt>
      <trkpt lat="45.70128" lon="5.9497">
        <ele>541</ele>
        <time>2021-09-10T09:17:36.679Z</time>
      </trkpt>
      <trkpt lat="45.70128" lon="5.94973">
        <ele>541</ele>
        <time>2021-09-10T09:17:37.678Z</time>
      </trkpt>
      <trkpt lat="45.70129" lon="5.94976">
        <ele>541</ele>
        <time>2021-09-10T09:17:38.679Z</time>
      </trkpt>
      <trkpt lat="45.7013" lon="5.94977">
        <ele>541</ele>
        <time>2021-09-10T09:17:39.679Z</time>
      </trkpt>
      <trkpt lat="45.70131" lon="5.9498">
        <ele>541</ele>
        <time>2021-09-10T09:17:40.679Z</time>
      </trkpt>
      <trkpt lat="45.70131" lon="5.94983">
        <ele>540</ele>
        <time>2021-09-10T09:17:41.679Z</time>
      </trkpt>
      <trkpt lat="45.70132" lon="5.94986">
        <ele>540</ele>
        <time>2021-09-10T09:17:42.679Z</time>
      </trkpt>
      <trkpt lat="45.70133" lon="5.94988">
        <ele>540</ele>
        <time>2021-09-10T09:17:43.679Z</time>
      </trkpt>
      <trkpt lat="45.70134" lon="5.9499">
        <ele>540</ele>
        <time>2021-09-10T09:17:44.679Z</time>
      </trkpt>
      <trkpt lat="45.70135" lon="5.94992">
        <ele>541</ele>
        <time>2021-09-10T09:17:45.679Z</time>
      </trkpt>
      <trkpt lat="45.70136" lon="5.94994">
        <ele>541</ele>
        <time>2021-09-10T09:17:46.679Z</time>
      </trkpt>
      <trkpt lat="45.70138" lon="5.94996">
        <ele>542</ele>
        <time>2021-09-10T09:17:47.679Z</time>
      </trkpt>
      <trkpt lat="45.7014" lon="5.94997">
        <ele>543</ele>
        <time>2021-09-10T09:17:48.678Z</time>
      </trkpt>
      <trkpt lat="45.70142" lon="5.94998">
        <ele>544</ele>
        <time>2021-09-10T09:17:49.679Z</time>
      </trkpt>
      <trkpt lat="45.70145" lon="5.94999">
        <ele>545</ele>
        <time>2021-09-10T09:17:50.678Z</time>
      </trkpt>
      <trkpt lat="45.70147" lon="5.94999">
        <ele>546</ele>
        <time>2021-09-10T09:17:51.679Z</time>
      </trkpt>
      <trkpt lat="45.70149" lon="5.94999">
        <ele>547</ele>
        <time>2021-09-10T09:17:52.679Z</time>
      </trkpt>
      <trkpt lat="45.70152" lon="5.94998">
        <ele>549</ele>
        <time>2021-09-10T09:17:53.679Z</time>
      </trkpt>
      <trkpt lat="45.70154" lon="5.94997">
        <ele>549</ele>
        <time>2021-09-10T09:17:54.679Z</time>
      </trkpt>
      <trkpt lat="45.70157" lon="5.94996">
        <ele>550</ele>
        <time>2021-09-10T09:17:55.678Z</time>
      </trkpt>
      <trkpt lat="45.7016" lon="5.94995">
        <ele>551</ele>
        <time>2021-09-10T09:17:56.678Z</time>
      </trkpt>
      <trkpt lat="45.70162" lon="5.94994">
        <ele>551</ele>
        <time>2021-09-10T09:17:57.679Z</time>
      </trkpt>
      <trkpt lat="45.70164" lon="5.94992">
        <ele>551</ele>
        <time>2021-09-10T09:17:58.679Z</time>
      </trkpt>
      <trkpt lat="45.70166" lon="5.9499">
        <ele>551</ele>
        <time>2021-09-10T09:17:59.679Z</time>
      </trkpt>
      <trkpt lat="45.70168" lon="5.94989">
        <ele>552</ele>
        <time>2021-09-10T09:18:00.678Z</time>
      </trkpt>
      <trkpt lat="45.7017" lon="5.94987">
        <ele>552</ele>
        <time>2021-09-10T09:18:01.678Z</time>
      </trkpt>
      <trkpt lat="45.70171" lon="5.94985">
        <ele>552</ele>
        <time>2021-09-10T09:18:02.679Z</time>
      </trkpt>
      <trkpt lat="45.70173" lon="5.94983">
        <ele>553</ele>
        <time>2021-09-10T09:18:03.679Z</time>
      </trkpt>
      <trkpt lat="45.70175" lon="5.94981">
        <ele>552</ele>
        <time>2021-09-10T09:18:04.679Z</time>
      </trkpt>
      <trkpt lat="45.70176" lon="5.94979">
        <ele>552</ele>
        <time>2021-09-10T09:18:05.679Z</time>
      </trkpt>
      <trkpt lat="45.70178" lon="5.94977">
        <ele>551</ele>
        <time>2021-09-10T09:18:06.679Z</time>
      </trkpt>
      <trkpt lat="45.7018" lon="5.94975">
        <ele>551</ele>
        <time>2021-09-10T09:18:07.679Z</time>
      </trkpt>
      <trkpt lat="45.70182" lon="5.94973">
        <ele>551</ele>
        <time>2021-09-10T09:18:08.679Z</time>
      </trkpt>
      <trkpt lat="45.70183" lon="5.94971">
        <ele>551</ele>
        <time>2021-09-10T09:18:09.679Z</time>
      </trkpt>
      <trkpt lat="45.70185" lon="5.94968">
        <ele>550</ele>
        <time>2021-09-10T09:18:10.679Z</time>
      </trkpt>
      <trkpt lat="45.70186" lon="5.94966">
        <ele>550</ele>
        <time>2021-09-10T09:18:11.679Z</time>
      </trkpt>
      <trkpt lat="45.70188" lon="5.94964">
        <ele>549</ele>
        <time>2021-09-10T09:18:12.679Z</time>
      </trkpt>
      <trkpt lat="45.7019" lon="5.94962">
        <ele>548</ele>
        <time>2021-09-10T09:18:13.679Z</time>
      </trkpt>
      <trkpt lat="45.70191" lon="5.94961">
        <ele>548</ele>
        <time>2021-09-10T09:18:14.679Z</time>
      </trkpt>
      <trkpt lat="45.70193" lon="5.94959">
        <ele>547</ele>
        <time>2021-09-10T09:18:15.679Z</time>
      </trkpt>
      <trkpt lat="45.70195" lon="5.94957">
        <ele>547</ele>
        <time>2021-09-10T09:18:16.679Z</time>
      </trkpt>
      <trkpt lat="45.70197" lon="5.94955">
        <ele>546</ele>
        <time>2021-09-10T09:18:17.679Z</time>
      </trkpt>
      <trkpt lat="45.70198" lon="5.94953">
        <ele>546</ele>
        <time>2021-09-10T09:18:18.679Z</time>
      </trkpt>
      <trkpt lat="45.702" lon="5.94951">
        <ele>546</ele>
        <time>2021-09-10T09:18:19.679Z</time>
      </trkpt>
      <trkpt lat="45.70201" lon="5.94949">
        <ele>546</ele>
        <time>2021-09-10T09:18:20.679Z</time>
      </trkpt>
      <trkpt lat="45.70203" lon="5.94947">
        <ele>546</ele>
        <time>2021-09-10T09:18:21.678Z</time>
      </trkpt>
      <trkpt lat="45.70204" lon="5.94945">
        <ele>546</ele>
        <time>2021-09-10T09:18:22.679Z</time>
      </trkpt>
      <trkpt lat="45.70206" lon="5.94943">
        <ele>546</ele>
        <time>2021-09-10T09:18:23.678Z</time>
      </trkpt>
      <trkpt lat="45.70208" lon="5.9494">
        <ele>546</ele>
        <time>2021-09-10T09:18:24.678Z</time>
      </trkpt>
      <trkpt lat="45.70209" lon="5.94938">
        <ele>546</ele>
        <time>2021-09-10T09:18:25.678Z</time>
      </trkpt>
      <trkpt lat="45.70211" lon="5.94936">
        <ele>547</ele>
        <time>2021-09-10T09:18:26.679Z</time>
      </trkpt>
      <trkpt lat="45.70213" lon="5.94934">
        <ele>547</ele>
        <time>2021-09-10T09:18:27.679Z</time>
      </trkpt>
      <trkpt lat="45.70214" lon="5.94932">
        <ele>547</ele>
        <time>2021-09-10T09:18:28.678Z</time>
      </trkpt>
      <trkpt lat="45.70216" lon="5.94931">
        <ele>548</ele>
        <time>2021-09-10T09:18:29.679Z</time>
      </trkpt>
      <trkpt lat="45.70218" lon="5.94929">
        <ele>548</ele>
        <time>2021-09-10T09:18:30.679Z</time>
      </trkpt>
      <trkpt lat="45.7022" lon="5.94928">
        <ele>549</ele>
        <time>2021-09-10T09:18:31.678Z</time>
      </trkpt>
      <trkpt lat="45.70222" lon="5.94927">
        <ele>549</ele>
        <time>2021-09-10T09:18:32.679Z</time>
      </trkpt>
      <trkpt lat="45.70224" lon="5.94925">
        <ele>549</ele>
        <time>2021-09-10T09:18:33.679Z</time>
      </trkpt>
      <trkpt lat="45.70225" lon="5.94924">
        <ele>549</ele>
        <time>2021-09-10T09:18:34.678Z</time>
      </trkpt>
      <trkpt lat="45.70227" lon="5.94922">
        <ele>550</ele>
        <time>2021-09-10T09:18:35.678Z</time>
      </trkpt>
      <trkpt lat="45.70229" lon="5.94922">
        <ele>549</ele>
        <time>2021-09-10T09:18:36.679Z</time>
      </trkpt>
      <trkpt lat="45.70231" lon="5.9492">
        <ele>550</ele>
        <time>2021-09-10T09:18:37.679Z</time>
      </trkpt>
      <trkpt lat="45.70232" lon="5.94919">
        <ele>550</ele>
        <time>2021-09-10T09:18:38.679Z</time>
      </trkpt>
      <trkpt lat="45.70234" lon="5.94918">
        <ele>551</ele>
        <time>2021-09-10T09:18:39.679Z</time>
      </trkpt>
      <trkpt lat="45.70236" lon="5.94918">
        <ele>551</ele>
        <time>2021-09-10T09:18:40.679Z</time>
      </trkpt>
      <trkpt lat="45.70239" lon="5.94918">
        <ele>551</ele>
        <time>2021-09-10T09:18:41.679Z</time>
      </trkpt>
      <trkpt lat="45.70241" lon="5.94917">
        <ele>551</ele>
        <time>2021-09-10T09:18:42.678Z</time>
      </trkpt>
      <trkpt lat="45.70243" lon="5.94917">
        <ele>551</ele>
        <time>2021-09-10T09:18:43.679Z</time>
      </trkpt>
      <trkpt lat="45.70245" lon="5.94917">
        <ele>551</ele>
        <time>2021-09-10T09:18:44.679Z</time>
      </trkpt>
      <trkpt lat="45.70247" lon="5.94916">
        <ele>551</ele>
        <time>2021-09-10T09:18:45.678Z</time>
      </trkpt>
      <trkpt lat="45.70248" lon="5.94916">
        <ele>550</ele>
        <time>2021-09-10T09:18:46.679Z</time>
      </trkpt>
      <trkpt lat="45.7025" lon="5.94916">
        <ele>550</ele>
        <time>2021-09-10T09:18:47.679Z</time>
      </trkpt>
      <trkpt lat="45.70252" lon="5.94915">
        <ele>550</ele>
        <time>2021-09-10T09:18:48.679Z</time>
      </trkpt>
      <trkpt lat="45.70254" lon="5.94916">
        <ele>550</ele>
        <time>2021-09-10T09:18:49.679Z</time>
      </trkpt>
      <trkpt lat="45.70256" lon="5.94916">
        <ele>550</ele>
        <time>2021-09-10T09:18:50.679Z</time>
      </trkpt>
      <trkpt lat="45.70257" lon="5.94917">
        <ele>550</ele>
        <time>2021-09-10T09:18:51.679Z</time>
      </trkpt>
      <trkpt lat="45.70259" lon="5.94917">
        <ele>550</ele>
        <time>2021-09-10T09:18:52.679Z</time>
      </trkpt>
      <trkpt lat="45.70261" lon="5.94917">
        <ele>550</ele>
        <time>2021-09-10T09:18:53.678Z</time>
      </trkpt>
      <trkpt lat="45.70263" lon="5.94918">
        <ele>550</ele>
        <time>2021-09-10T09:18:54.679Z</time>
      </trkpt>
      <trkpt lat="45.70265" lon="5.94918">
        <ele>550</ele>
        <time>2021-09-10T09:18:55.679Z</time>
      </trkpt>
      <trkpt lat="45.70267" lon="5.94918">
        <ele>550</ele>
        <time>2021-09-10T09:18:56.678Z</time>
      </trkpt>
      <trkpt lat="45.70269" lon="5.94918">
        <ele>550</ele>
        <time>2021-09-10T09:18:57.679Z</time>
      </trkpt>
      <trkpt lat="45.70271" lon="5.94919">
        <ele>550</ele>
        <time>2021-09-10T09:18:58.679Z</time>
      </trkpt>
      <trkpt lat="45.70273" lon="5.94919">
        <ele>550</ele>
        <time>2021-09-10T09:18:59.679Z</time>
      </trkpt>
      <trkpt lat="45.70275" lon="5.9492">
        <ele>550</ele>
        <time>2021-09-10T09:19:00.678Z</time>
      </trkpt>
      <trkpt lat="45.70277" lon="5.9492">
        <ele>549</ele>
        <time>2021-09-10T09:19:01.679Z</time>
      </trkpt>
      <trkpt lat="45.70279" lon="5.9492">
        <ele>549</ele>
        <time>2021-09-10T09:19:02.679Z</time>
      </trkpt>
      <trkpt lat="45.70281" lon="5.94919">
        <ele>549</ele>
        <time>2021-09-10T09:19:03.679Z</time>
      </trkpt>
      <trkpt lat="45.70283" lon="5.94919">
        <ele>549</ele>
        <time>2021-09-10T09:19:04.679Z</time>
      </trkpt>
      <trkpt lat="45.70285" lon="5.9492">
        <ele>549</ele>
        <time>2021-09-10T09:19:05.679Z</time>
      </trkpt>
      <trkpt lat="45.70287" lon="5.9492">
        <ele>550</ele>
        <time>2021-09-10T09:19:06.679Z</time>
      </trkpt>
      <trkpt lat="45.70289" lon="5.94921">
        <ele>550</ele>
        <time>2021-09-10T09:19:07.678Z</time>
      </trkpt>
      <trkpt lat="45.70291" lon="5.94921">
        <ele>550</ele>
        <time>2021-09-10T09:19:08.679Z</time>
      </trkpt>
      <trkpt lat="45.70292" lon="5.94922">
        <ele>551</ele>
        <time>2021-09-10T09:19:09.679Z</time>
      </trkpt>
      <trkpt lat="45.70294" lon="5.94922">
        <ele>551</ele>
        <time>2021-09-10T09:19:10.679Z</time>
      </trkpt>
      <trkpt lat="45.70296" lon="5.94922">
        <ele>551</ele>
        <time>2021-09-10T09:19:11.679Z</time>
      </trkpt>
      <trkpt lat="45.70298" lon="5.94922">
        <ele>551</ele>
        <time>2021-09-10T09:19:12.679Z</time>
      </trkpt>
      <trkpt lat="45.70301" lon="5.94923">
        <ele>552</ele>
        <time>2021-09-10T09:19:13.679Z</time>
      </trkpt>
      <trkpt lat="45.70302" lon="5.94923">
        <ele>552</ele>
        <time>2021-09-10T09:19:14.678Z</time>
      </trkpt>
      <trkpt lat="45.70304" lon="5.94923">
        <ele>552</ele>
        <time>2021-09-10T09:19:15.679Z</time>
      </trkpt>
      <trkpt lat="45.70306" lon="5.94923">
        <ele>552</ele>
        <time>2021-09-10T09:19:16.679Z</time>
      </trkpt>
      <trkpt lat="45.70308" lon="5.94923">
        <ele>553</ele>
        <time>2021-09-10T09:19:17.679Z</time>
      </trkpt>
      <trkpt lat="45.7031" lon="5.94923">
        <ele>553</ele>
        <time>2021-09-10T09:19:18.678Z</time>
      </trkpt>
      <trkpt lat="45.70312" lon="5.94923">
        <ele>553</ele>
        <time>2021-09-10T09:19:19.679Z</time>
      </trkpt>
      <trkpt lat="45.70315" lon="5.94923">
        <ele>553</ele>
        <time>2021-09-10T09:19:20.679Z</time>
      </trkpt>
      <trkpt lat="45.70317" lon="5.94923">
        <ele>553</ele>
        <time>2021-09-10T09:19:21.679Z</time>
      </trkpt>
      <trkpt lat="45.70319" lon="5.94924">
        <ele>553</ele>
        <time>2021-09-10T09:19:22.679Z</time>
      </trkpt>
      <trkpt lat="45.70321" lon="5.94924">
        <ele>553</ele>
        <time>2021-09-10T09:19:23.678Z</time>
      </trkpt>
      <trkpt lat="45.70322" lon="5.94924">
        <ele>553</ele>
        <time>2021-09-10T09:19:24.679Z</time>
      </trkpt>
      <trkpt lat="45.70325" lon="5.94925">
        <ele>554</ele>
        <time>2021-09-10T09:19:25.678Z</time>
      </trkpt>
      <trkpt lat="45.70327" lon="5.94925">
        <ele>554</ele>
        <time>2021-09-10T09:19:26.679Z</time>
      </trkpt>
      <trkpt lat="45.70329" lon="5.94926">
        <ele>554</ele>
        <time>2021-09-10T09:19:27.679Z</time>
      </trkpt>
      <trkpt lat="45.7033" lon="5.94926">
        <ele>554</ele>
        <time>2021-09-10T09:19:28.678Z</time>
      </trkpt>
      <trkpt lat="45.70332" lon="5.94926">
        <ele>554</ele>
        <time>2021-09-10T09:19:29.679Z</time>
      </trkpt>
      <trkpt lat="45.70334" lon="5.94926">
        <ele>555</ele>
        <time>2021-09-10T09:19:30.679Z</time>
      </trkpt>
      <trkpt lat="45.70336" lon="5.94926">
        <ele>555</ele>
        <time>2021-09-10T09:19:31.679Z</time>
      </trkpt>
      <trkpt lat="45.70338" lon="5.94926">
        <ele>555</ele>
        <time>2021-09-10T09:19:32.679Z</time>
      </trkpt>
      <trkpt lat="45.7034" lon="5.94926">
        <ele>555</ele>
        <time>2021-09-10T09:19:33.679Z</time>
      </trkpt>
      <trkpt lat="45.70342" lon="5.94926">
        <ele>555</ele>
        <time>2021-09-10T09:19:34.679Z</time>
      </trkpt>
      <trkpt lat="45.70344" lon="5.94926">
        <ele>555</ele>
        <time>2021-09-10T09:19:35.679Z</time>
      </trkpt>
      <trkpt lat="45.70346" lon="5.94926">
        <ele>555</ele>
        <time>2021-09-10T09:19:36.679Z</time>
      </trkpt>
      <trkpt lat="45.70348" lon="5.94926">
        <ele>555</ele>
        <time>2021-09-10T09:19:37.678Z</time>
      </trkpt>
      <trkpt lat="45.7035" lon="5.94926">
        <ele>555</ele>
        <time>2021-09-10T09:19:38.679Z</time>
      </trkpt>
      <trkpt lat="45.70352" lon="5.94926">
        <ele>555</ele>
        <time>2021-09-10T09:19:39.679Z</time>
      </trkpt>
      <trkpt lat="45.70354" lon="5.94927">
        <ele>555</ele>
        <time>2021-09-10T09:19:40.679Z</time>
      </trkpt>
      <trkpt lat="45.70356" lon="5.94927">
        <ele>555</ele>
        <time>2021-09-10T09:19:41.678Z</time>
      </trkpt>
      <trkpt lat="45.70358" lon="5.94927">
        <ele>555</ele>
        <time>2021-09-10T09:19:42.679Z</time>
      </trkpt>
      <trkpt lat="45.7036" lon="5.94928">
        <ele>555</ele>
        <time>2021-09-10T09:19:43.679Z</time>
      </trkpt>
      <trkpt lat="45.70362" lon="5.94928">
        <ele>555</ele>
        <time>2021-09-10T09:19:44.679Z</time>
      </trkpt>
      <trkpt lat="45.70365" lon="5.94928">
        <ele>555</ele>
        <time>2021-09-10T09:19:45.679Z</time>
      </trkpt>
      <trkpt lat="45.70367" lon="5.94928">
        <ele>556</ele>
        <time>2021-09-10T09:19:46.678Z</time>
      </trkpt>
      <trkpt lat="45.70369" lon="5.94928">
        <ele>556</ele>
        <time>2021-09-10T09:19:47.679Z</time>
      </trkpt>
      <trkpt lat="45.70371" lon="5.94928">
        <ele>557</ele>
        <time>2021-09-10T09:19:48.679Z</time>
      </trkpt>
      <trkpt lat="45.70373" lon="5.94928">
        <ele>557</ele>
        <time>2021-09-10T09:19:49.679Z</time>
      </trkpt>
      <trkpt lat="45.70375" lon="5.94928">
        <ele>557</ele>
        <time>2021-09-10T09:19:50.678Z</time>
      </trkpt>
      <trkpt lat="45.70377" lon="5.94928">
        <ele>557</ele>
        <time>2021-09-10T09:19:51.678Z</time>
      </trkpt>
      <trkpt lat="45.70379" lon="5.94929">
        <ele>557</ele>
        <time>2021-09-10T09:19:52.678Z</time>
      </trkpt>
      <trkpt lat="45.70381" lon="5.94929">
        <ele>557</ele>
        <time>2021-09-10T09:19:53.679Z</time>
      </trkpt>
      <trkpt lat="45.70384" lon="5.94929">
        <ele>558</ele>
        <time>2021-09-10T09:19:54.679Z</time>
      </trkpt>
      <trkpt lat="45.70386" lon="5.9493">
        <ele>558</ele>
        <time>2021-09-10T09:19:55.679Z</time>
      </trkpt>
      <trkpt lat="45.70388" lon="5.9493">
        <ele>558</ele>
        <time>2021-09-10T09:19:56.679Z</time>
      </trkpt>
      <trkpt lat="45.7039" lon="5.9493">
        <ele>558</ele>
        <time>2021-09-10T09:19:57.678Z</time>
      </trkpt>
      <trkpt lat="45.70392" lon="5.9493">
        <ele>558</ele>
        <time>2021-09-10T09:19:58.679Z</time>
      </trkpt>
      <trkpt lat="45.70394" lon="5.9493">
        <ele>558</ele>
        <time>2021-09-10T09:19:59.678Z</time>
      </trkpt>
      <trkpt lat="45.70396" lon="5.9493">
        <ele>559</ele>
        <time>2021-09-10T09:20:00.678Z</time>
      </trkpt>
      <trkpt lat="45.70398" lon="5.9493">
        <ele>559</ele>
        <time>2021-09-10T09:20:01.678Z</time>
      </trkpt>
      <trkpt lat="45.704" lon="5.9493">
        <ele>559</ele>
        <time>2021-09-10T09:20:02.678Z</time>
      </trkpt>
      <trkpt lat="45.70402" lon="5.9493">
        <ele>559</ele>
        <time>2021-09-10T09:20:03.678Z</time>
      </trkpt>
      <trkpt lat="45.70404" lon="5.9493">
        <ele>559</ele>
        <time>2021-09-10T09:20:04.679Z</time>
      </trkpt>
      <trkpt lat="45.70406" lon="5.9493">
        <ele>559</ele>
        <time>2021-09-10T09:20:05.679Z</time>
      </trkpt>
      <trkpt lat="45.70408" lon="5.9493">
        <ele>559</ele>
        <time>2021-09-10T09:20:06.679Z</time>
      </trkpt>
      <trkpt lat="45.70411" lon="5.9493">
        <ele>560</ele>
        <time>2021-09-10T09:20:07.678Z</time>
      </trkpt>
      <trkpt lat="45.70413" lon="5.94931">
        <ele>560</ele>
        <time>2021-09-10T09:20:08.679Z</time>
      </trkpt>
      <trkpt lat="45.70415" lon="5.94931">
        <ele>560</ele>
        <time>2021-09-10T09:20:09.679Z</time>
      </trkpt>
      <trkpt lat="45.70417" lon="5.94932">
        <ele>560</ele>
        <time>2021-09-10T09:20:10.679Z</time>
      </trkpt>
      <trkpt lat="45.7042" lon="5.94932">
        <ele>561</ele>
        <time>2021-09-10T09:20:11.678Z</time>
      </trkpt>
      <trkpt lat="45.70422" lon="5.94932">
        <ele>561</ele>
        <time>2021-09-10T09:20:12.678Z</time>
      </trkpt>
      <trkpt lat="45.70424" lon="5.94932">
        <ele>562</ele>
        <time>2021-09-10T09:20:13.679Z</time>
      </trkpt>
      <trkpt lat="45.70426" lon="5.94933">
        <ele>562</ele>
        <time>2021-09-10T09:20:14.679Z</time>
      </trkpt>
      <trkpt lat="45.70428" lon="5.94934">
        <ele>562</ele>
        <time>2021-09-10T09:20:15.679Z</time>
      </trkpt>
      <trkpt lat="45.7043" lon="5.94935">
        <ele>562</ele>
        <time>2021-09-10T09:20:16.678Z</time>
      </trkpt>
      <trkpt lat="45.70432" lon="5.94936">
        <ele>562</ele>
        <time>2021-09-10T09:20:17.678Z</time>
      </trkpt>
      <trkpt lat="45.70434" lon="5.94937">
        <ele>562</ele>
        <time>2021-09-10T09:20:18.679Z</time>
      </trkpt>
      <trkpt lat="45.70435" lon="5.94939">
        <ele>562</ele>
        <time>2021-09-10T09:20:19.679Z</time>
      </trkpt>
      <trkpt lat="45.70436" lon="5.94941">
        <ele>562</ele>
        <time>2021-09-10T09:20:20.678Z</time>
      </trkpt>
      <trkpt lat="45.70437" lon="5.94944">
        <ele>562</ele>
        <time>2021-09-10T09:20:21.679Z</time>
      </trkpt>
      <trkpt lat="45.70438" lon="5.94947">
        <ele>562</ele>
        <time>2021-09-10T09:20:22.678Z</time>
      </trkpt>
      <trkpt lat="45.70438" lon="5.9495">
        <ele>562</ele>
        <time>2021-09-10T09:20:23.679Z</time>
      </trkpt>
      <trkpt lat="45.70438" lon="5.94953">
        <ele>562</ele>
        <time>2021-09-10T09:20:24.679Z</time>
      </trkpt>
      <trkpt lat="45.70437" lon="5.94955">
        <ele>563</ele>
        <time>2021-09-10T09:20:25.679Z</time>
      </trkpt>
      <trkpt lat="45.70435" lon="5.94958">
        <ele>563</ele>
        <time>2021-09-10T09:20:26.679Z</time>
      </trkpt>
      <trkpt lat="45.70434" lon="5.9496">
        <ele>563</ele>
        <time>2021-09-10T09:20:27.678Z</time>
      </trkpt>
      <trkpt lat="45.70432" lon="5.94962">
        <ele>563</ele>
        <time>2021-09-10T09:20:28.679Z</time>
      </trkpt>
      <trkpt lat="45.7043" lon="5.94964">
        <ele>563</ele>
        <time>2021-09-10T09:20:29.679Z</time>
      </trkpt>
      <trkpt lat="45.70428" lon="5.94965">
        <ele>563</ele>
        <time>2021-09-10T09:20:30.679Z</time>
      </trkpt>
      <trkpt lat="45.70426" lon="5.94966">
        <ele>563</ele>
        <time>2021-09-10T09:20:31.678Z</time>
      </trkpt>
      <trkpt lat="45.70424" lon="5.94967">
        <ele>564</ele>
        <time>2021-09-10T09:20:32.679Z</time>
      </trkpt>
      <trkpt lat="45.70422" lon="5.94968">
        <ele>564</ele>
        <time>2021-09-10T09:20:33.679Z</time>
      </trkpt>
      <trkpt lat="45.70419" lon="5.94969">
        <ele>564</ele>
        <time>2021-09-10T09:20:34.679Z</time>
      </trkpt>
      <trkpt lat="45.70417" lon="5.94969">
        <ele>564</ele>
        <time>2021-09-10T09:20:35.679Z</time>
      </trkpt>
      <trkpt lat="45.70415" lon="5.94969">
        <ele>565</ele>
        <time>2021-09-10T09:20:36.679Z</time>
      </trkpt>
      <trkpt lat="45.70413" lon="5.9497">
        <ele>565</ele>
        <time>2021-09-10T09:20:37.679Z</time>
      </trkpt>
      <trkpt lat="45.7041" lon="5.94971">
        <ele>566</ele>
        <time>2021-09-10T09:20:38.679Z</time>
      </trkpt>
      <trkpt lat="45.70408" lon="5.94971">
        <ele>566</ele>
        <time>2021-09-10T09:20:39.679Z</time>
      </trkpt>
      <trkpt lat="45.70406" lon="5.94972">
        <ele>567</ele>
        <time>2021-09-10T09:20:40.678Z</time>
      </trkpt>
      <trkpt lat="45.70404" lon="5.94973">
        <ele>567</ele>
        <time>2021-09-10T09:20:41.678Z</time>
      </trkpt>
      <trkpt lat="45.70401" lon="5.94973">
        <ele>567</ele>
        <time>2021-09-10T09:20:42.679Z</time>
      </trkpt>
      <trkpt lat="45.70399" lon="5.94974">
        <ele>567</ele>
        <time>2021-09-10T09:20:43.678Z</time>
      </trkpt>
      <trkpt lat="45.70397" lon="5.94975">
        <ele>567</ele>
        <time>2021-09-10T09:20:44.678Z</time>
      </trkpt>
      <trkpt lat="45.70395" lon="5.94977">
        <ele>568</ele>
        <time>2021-09-10T09:20:45.679Z</time>
      </trkpt>
      <trkpt lat="45.70393" lon="5.94978">
        <ele>568</ele>
        <time>2021-09-10T09:20:46.679Z</time>
      </trkpt>
      <trkpt lat="45.70391" lon="5.94979">
        <ele>568</ele>
        <time>2021-09-10T09:20:47.678Z</time>
      </trkpt>
      <trkpt lat="45.70388" lon="5.9498">
        <ele>569</ele>
        <time>2021-09-10T09:20:48.678Z</time>
      </trkpt>
      <trkpt lat="45.70386" lon="5.94982">
        <ele>568</ele>
        <time>2021-09-10T09:20:49.678Z</time>
      </trkpt>
      <trkpt lat="45.70385" lon="5.94983">
        <ele>568</ele>
        <time>2021-09-10T09:20:50.679Z</time>
      </trkpt>
      <trkpt lat="45.70382" lon="5.94985">
        <ele>569</ele>
        <time>2021-09-10T09:20:51.679Z</time>
      </trkpt>
      <trkpt lat="45.7038" lon="5.94987">
        <ele>569</ele>
        <time>2021-09-10T09:20:52.678Z</time>
      </trkpt>
      <trkpt lat="45.70378" lon="5.94989">
        <ele>570</ele>
        <time>2021-09-10T09:20:53.679Z</time>
      </trkpt>
      <trkpt lat="45.70376" lon="5.94991">
        <ele>570</ele>
        <time>2021-09-10T09:20:54.678Z</time>
      </trkpt>
      <trkpt lat="45.70374" lon="5.94993">
        <ele>570</ele>
        <time>2021-09-10T09:20:55.679Z</time>
      </trkpt>
      <trkpt lat="45.70372" lon="5.94995">
        <ele>570</ele>
        <time>2021-09-10T09:20:56.678Z</time>
      </trkpt>
      <trkpt lat="45.7037" lon="5.94998">
        <ele>571</ele>
        <time>2021-09-10T09:20:57.678Z</time>
      </trkpt>
      <trkpt lat="45.70369" lon="5.95">
        <ele>570</ele>
        <time>2021-09-10T09:20:58.678Z</time>
      </trkpt>
      <trkpt lat="45.70367" lon="5.95002">
        <ele>570</ele>
        <time>2021-09-10T09:20:59.679Z</time>
      </trkpt>
      <trkpt lat="45.70366" lon="5.95005">
        <ele>569</ele>
        <time>2021-09-10T09:21:00.679Z</time>
      </trkpt>
      <trkpt lat="45.70365" lon="5.95007">
        <ele>569</ele>
        <time>2021-09-10T09:21:01.679Z</time>
      </trkpt>
      <trkpt lat="45.70363" lon="5.9501">
        <ele>569</ele>
        <time>2021-09-10T09:21:02.679Z</time>
      </trkpt>
      <trkpt lat="45.70362" lon="5.95013">
        <ele>569</ele>
        <time>2021-09-10T09:21:03.678Z</time>
      </trkpt>
      <trkpt lat="45.70361" lon="5.95015">
        <ele>569</ele>
        <time>2021-09-10T09:21:04.678Z</time>
      </trkpt>
      <trkpt lat="45.7036" lon="5.95018">
        <ele>569</ele>
        <time>2021-09-10T09:21:05.679Z</time>
      </trkpt>
      <trkpt lat="45.70359" lon="5.95021">
        <ele>569</ele>
        <time>2021-09-10T09:21:06.679Z</time>
      </trkpt>
      <trkpt lat="45.70358" lon="5.95024">
        <ele>568</ele>
        <time>2021-09-10T09:21:07.679Z</time>
      </trkpt>
      <trkpt lat="45.70357" lon="5.95027">
        <ele>569</ele>
        <time>2021-09-10T09:21:08.678Z</time>
      </trkpt>
      <trkpt lat="45.70356" lon="5.9503">
        <ele>568</ele>
        <time>2021-09-10T09:21:09.679Z</time>
      </trkpt>
      <trkpt lat="45.70355" lon="5.95032">
        <ele>568</ele>
        <time>2021-09-10T09:21:10.679Z</time>
      </trkpt>
      <trkpt lat="45.70354" lon="5.95036">
        <ele>568</ele>
        <time>2021-09-10T09:21:11.679Z</time>
      </trkpt>
      <trkpt lat="45.70354" lon="5.95039">
        <ele>568</ele>
        <time>2021-09-10T09:21:12.678Z</time>
      </trkpt>
      <trkpt lat="45.70353" lon="5.95042">
        <ele>568</ele>
        <time>2021-09-10T09:21:13.679Z</time>
      </trkpt>
      <trkpt lat="45.70353" lon="5.95046">
        <ele>568</ele>
        <time>2021-09-10T09:21:14.678Z</time>
      </trkpt>
      <trkpt lat="45.70352" lon="5.95048">
        <ele>568</ele>
        <time>2021-09-10T09:21:15.679Z</time>
      </trkpt>
      <trkpt lat="45.70352" lon="5.95052">
        <ele>568</ele>
        <time>2021-09-10T09:21:16.678Z</time>
      </trkpt>
      <trkpt lat="45.70352" lon="5.95055">
        <ele>568</ele>
        <time>2021-09-10T09:21:17.679Z</time>
      </trkpt>
      <trkpt lat="45.70352" lon="5.95058">
        <ele>568</ele>
        <time>2021-09-10T09:21:18.678Z</time>
      </trkpt>
      <trkpt lat="45.70353" lon="5.95061">
        <ele>569</ele>
        <time>2021-09-10T09:21:19.678Z</time>
      </trkpt>
      <trkpt lat="45.70353" lon="5.95064">
        <ele>569</ele>
        <time>2021-09-10T09:21:20.679Z</time>
      </trkpt>
      <trkpt lat="45.70354" lon="5.95067">
        <ele>569</ele>
        <time>2021-09-10T09:21:21.679Z</time>
      </trkpt>
      <trkpt lat="45.70355" lon="5.9507">
        <ele>570</ele>
        <time>2021-09-10T09:21:22.679Z</time>
      </trkpt>
      <trkpt lat="45.70356" lon="5.95072">
        <ele>570</ele>
        <time>2021-09-10T09:21:23.678Z</time>
      </trkpt>
      <trkpt lat="45.70357" lon="5.95075">
        <ele>570</ele>
        <time>2021-09-10T09:21:24.679Z</time>
      </trkpt>
      <trkpt lat="45.70359" lon="5.95077">
        <ele>570</ele>
        <time>2021-09-10T09:21:25.679Z</time>
      </trkpt>
      <trkpt lat="45.7036" lon="5.95079">
        <ele>570</ele>
        <time>2021-09-10T09:21:26.679Z</time>
      </trkpt>
      <trkpt lat="45.70362" lon="5.9508">
        <ele>570</ele>
        <time>2021-09-10T09:21:27.679Z</time>
      </trkpt>
      <trkpt lat="45.70363" lon="5.95081">
        <ele>570</ele>
        <time>2021-09-10T09:21:28.679Z</time>
      </trkpt>
      <trkpt lat="45.70365" lon="5.95083">
        <ele>571</ele>
        <time>2021-09-10T09:21:29.678Z</time>
      </trkpt>
      <trkpt lat="45.70366" lon="5.95085">
        <ele>571</ele>
        <time>2021-09-10T09:21:30.679Z</time>
      </trkpt>
      <trkpt lat="45.70367" lon="5.95087">
        <ele>571</ele>
        <time>2021-09-10T09:21:31.679Z</time>
      </trkpt>
      <trkpt lat="45.70369" lon="5.95089">
        <ele>571</ele>
        <time>2021-09-10T09:21:32.679Z</time>
      </trkpt>
      <trkpt lat="45.7037" lon="5.95091">
        <ele>572</ele>
        <time>2021-09-10T09:21:33.678Z</time>
      </trkpt>
      <trkpt lat="45.70372" lon="5.95092">
        <ele>572</ele>
        <time>2021-09-10T09:21:34.679Z</time>
      </trkpt>
      <trkpt lat="45.70374" lon="5.95092">
        <ele>573</ele>
        <time>2021-09-10T09:21:35.679Z</time>
      </trkpt>
      <trkpt lat="45.70375" lon="5.95091">
        <ele>573</ele>
        <time>2021-09-10T09:21:36.678Z</time>
      </trkpt>
      <trkpt lat="45.70376" lon="5.95091">
        <ele>573</ele>
        <time>2021-09-10T09:21:37.679Z</time>
      </trkpt>
      <trkpt lat="45.70376" lon="5.95091">
        <ele>573</ele>
        <time>2021-09-10T09:21:38.679Z</time>
      </trkpt>
      <trkpt lat="45.70376" lon="5.95091">
        <ele>574</ele>
        <time>2021-09-10T09:21:39.679Z</time>
      </trkpt>
      <trkpt lat="45.70376" lon="5.95091">
        <ele>574</ele>
        <time>2021-09-10T09:21:40.679Z</time>
      </trkpt>
      <trkpt lat="45.70378" lon="5.95084">
        <ele>578</ele>
        <time>2021-09-10T09:21:41.681Z</time>
      </trkpt>
      <trkpt lat="45.70381" lon="5.95083">
        <ele>578</ele>
        <time>2021-09-10T09:21:42.680Z</time>
      </trkpt>
      <trkpt lat="45.70384" lon="5.95081">
        <ele>578</ele>
        <time>2021-09-10T09:21:43.680Z</time>
      </trkpt>
      <trkpt lat="45.70387" lon="5.9508">
        <ele>578</ele>
        <time>2021-09-10T09:21:44.681Z</time>
      </trkpt>
      <trkpt lat="45.7039" lon="5.95078">
        <ele>578</ele>
        <time>2021-09-10T09:21:45.681Z</time>
      </trkpt>
      <trkpt lat="45.70393" lon="5.95076">
        <ele>578</ele>
        <time>2021-09-10T09:21:46.680Z</time>
      </trkpt>
      <trkpt lat="45.70397" lon="5.95074">
        <ele>578</ele>
        <time>2021-09-10T09:21:47.681Z</time>
      </trkpt>
      <trkpt lat="45.704" lon="5.95072">
        <ele>578</ele>
        <time>2021-09-10T09:21:48.681Z</time>
      </trkpt>
      <trkpt lat="45.70402" lon="5.95071">
        <ele>578</ele>
        <time>2021-09-10T09:21:49.680Z</time>
      </trkpt>
      <trkpt lat="45.70404" lon="5.95069">
        <ele>579</ele>
        <time>2021-09-10T09:21:50.681Z</time>
      </trkpt>
      <trkpt lat="45.70407" lon="5.95068">
        <ele>579</ele>
        <time>2021-09-10T09:21:51.681Z</time>
      </trkpt>
      <trkpt lat="45.7041" lon="5.95066">
        <ele>579</ele>
        <time>2021-09-10T09:21:52.681Z</time>
      </trkpt>
      <trkpt lat="45.70412" lon="5.95065">
        <ele>579</ele>
        <time>2021-09-10T09:21:53.681Z</time>
      </trkpt>
      <trkpt lat="45.70414" lon="5.95064">
        <ele>579</ele>
        <time>2021-09-10T09:21:54.681Z</time>
      </trkpt>
      <trkpt lat="45.70417" lon="5.95063">
        <ele>579</ele>
        <time>2021-09-10T09:21:55.680Z</time>
      </trkpt>
      <trkpt lat="45.70419" lon="5.95062">
        <ele>579</ele>
        <time>2021-09-10T09:21:56.681Z</time>
      </trkpt>
      <trkpt lat="45.70421" lon="5.95061">
        <ele>579</ele>
        <time>2021-09-10T09:21:57.680Z</time>
      </trkpt>
      <trkpt lat="45.70424" lon="5.95061">
        <ele>579</ele>
        <time>2021-09-10T09:21:58.681Z</time>
      </trkpt>
      <trkpt lat="45.70426" lon="5.95061">
        <ele>579</ele>
        <time>2021-09-10T09:21:59.681Z</time>
      </trkpt>
      <trkpt lat="45.70428" lon="5.95061">
        <ele>579</ele>
        <time>2021-09-10T09:22:00.681Z</time>
      </trkpt>
      <trkpt lat="45.70431" lon="5.95061">
        <ele>579</ele>
        <time>2021-09-10T09:22:01.681Z</time>
      </trkpt>
      <trkpt lat="45.70433" lon="5.95061">
        <ele>579</ele>
        <time>2021-09-10T09:22:02.681Z</time>
      </trkpt>
      <trkpt lat="45.70436" lon="5.95061">
        <ele>580</ele>
        <time>2021-09-10T09:22:03.681Z</time>
      </trkpt>
      <trkpt lat="45.70438" lon="5.95062">
        <ele>580</ele>
        <time>2021-09-10T09:22:04.681Z</time>
      </trkpt>
      <trkpt lat="45.70441" lon="5.95062">
        <ele>580</ele>
        <time>2021-09-10T09:22:05.681Z</time>
      </trkpt>
      <trkpt lat="45.70443" lon="5.95062">
        <ele>580</ele>
        <time>2021-09-10T09:22:06.681Z</time>
      </trkpt>
      <trkpt lat="45.70445" lon="5.95062">
        <ele>580</ele>
        <time>2021-09-10T09:22:07.680Z</time>
      </trkpt>
      <trkpt lat="45.70448" lon="5.95062">
        <ele>580</ele>
        <time>2021-09-10T09:22:08.681Z</time>
      </trkpt>
      <trkpt lat="45.7045" lon="5.95062">
        <ele>580</ele>
        <time>2021-09-10T09:22:09.681Z</time>
      </trkpt>
      <trkpt lat="45.70452" lon="5.95062">
        <ele>581</ele>
        <time>2021-09-10T09:22:10.681Z</time>
      </trkpt>
      <trkpt lat="45.70455" lon="5.95062">
        <ele>581</ele>
        <time>2021-09-10T09:22:11.681Z</time>
      </trkpt>
      <trkpt lat="45.70457" lon="5.95062">
        <ele>581</ele>
        <time>2021-09-10T09:22:12.680Z</time>
      </trkpt>
      <trkpt lat="45.70459" lon="5.95063">
        <ele>581</ele>
        <time>2021-09-10T09:22:13.681Z</time>
      </trkpt>
      <trkpt lat="45.70462" lon="5.95063">
        <ele>581</ele>
        <time>2021-09-10T09:22:14.681Z</time>
      </trkpt>
      <trkpt lat="45.70464" lon="5.95063">
        <ele>582</ele>
        <time>2021-09-10T09:22:15.680Z</time>
      </trkpt>
      <trkpt lat="45.70466" lon="5.95063">
        <ele>582</ele>
        <time>2021-09-10T09:22:16.681Z</time>
      </trkpt>
      <trkpt lat="45.70468" lon="5.95063">
        <ele>582</ele>
        <time>2021-09-10T09:22:17.681Z</time>
      </trkpt>
      <trkpt lat="45.70471" lon="5.95063">
        <ele>582</ele>
        <time>2021-09-10T09:22:18.681Z</time>
      </trkpt>
      <trkpt lat="45.70473" lon="5.95063">
        <ele>583</ele>
        <time>2021-09-10T09:22:19.681Z</time>
      </trkpt>
      <trkpt lat="45.70475" lon="5.95063">
        <ele>583</ele>
        <time>2021-09-10T09:22:20.680Z</time>
      </trkpt>
      <trkpt lat="45.70478" lon="5.95063">
        <ele>584</ele>
        <time>2021-09-10T09:22:21.681Z</time>
      </trkpt>
      <trkpt lat="45.7048" lon="5.95064">
        <ele>584</ele>
        <time>2021-09-10T09:22:22.681Z</time>
      </trkpt>
      <trkpt lat="45.70482" lon="5.95064">
        <ele>584</ele>
        <time>2021-09-10T09:22:23.681Z</time>
      </trkpt>
      <trkpt lat="45.70484" lon="5.95064">
        <ele>584</ele>
        <time>2021-09-10T09:22:24.681Z</time>
      </trkpt>
      <trkpt lat="45.70487" lon="5.95065">
        <ele>583</ele>
        <time>2021-09-10T09:22:25.681Z</time>
      </trkpt>
      <trkpt lat="45.70489" lon="5.95065">
        <ele>583</ele>
        <time>2021-09-10T09:22:26.681Z</time>
      </trkpt>
      <trkpt lat="45.70491" lon="5.95066">
        <ele>583</ele>
        <time>2021-09-10T09:22:27.681Z</time>
      </trkpt>
      <trkpt lat="45.70493" lon="5.95066">
        <ele>584</ele>
        <time>2021-09-10T09:22:28.681Z</time>
      </trkpt>
      <trkpt lat="45.70496" lon="5.95067">
        <ele>584</ele>
        <time>2021-09-10T09:22:29.680Z</time>
      </trkpt>
      <trkpt lat="45.70498" lon="5.95067">
        <ele>584</ele>
        <time>2021-09-10T09:22:30.681Z</time>
      </trkpt>
      <trkpt lat="45.705" lon="5.95067">
        <ele>584</ele>
        <time>2021-09-10T09:22:31.681Z</time>
      </trkpt>
      <trkpt lat="45.70503" lon="5.95068">
        <ele>585</ele>
        <time>2021-09-10T09:22:32.681Z</time>
      </trkpt>
      <trkpt lat="45.70505" lon="5.95068">
        <ele>586</ele>
        <time>2021-09-10T09:22:33.681Z</time>
      </trkpt>
      <trkpt lat="45.70507" lon="5.95068">
        <ele>586</ele>
        <time>2021-09-10T09:22:34.681Z</time>
      </trkpt>
      <trkpt lat="45.70509" lon="5.95069">
        <ele>587</ele>
        <time>2021-09-10T09:22:35.681Z</time>
      </trkpt>
      <trkpt lat="45.70511" lon="5.9507">
        <ele>587</ele>
        <time>2021-09-10T09:22:36.681Z</time>
      </trkpt>
      <trkpt lat="45.70513" lon="5.95071">
        <ele>587</ele>
        <time>2021-09-10T09:22:37.681Z</time>
      </trkpt>
      <trkpt lat="45.70516" lon="5.95071">
        <ele>586</ele>
        <time>2021-09-10T09:22:38.681Z</time>
      </trkpt>
      <trkpt lat="45.70518" lon="5.95072">
        <ele>587</ele>
        <time>2021-09-10T09:22:39.680Z</time>
      </trkpt>
      <trkpt lat="45.7052" lon="5.95073">
        <ele>587</ele>
        <time>2021-09-10T09:22:40.681Z</time>
      </trkpt>
      <trkpt lat="45.70522" lon="5.95073">
        <ele>587</ele>
        <time>2021-09-10T09:22:41.681Z</time>
      </trkpt>
      <trkpt lat="45.70524" lon="5.95074">
        <ele>588</ele>
        <time>2021-09-10T09:22:42.680Z</time>
      </trkpt>
      <trkpt lat="45.70526" lon="5.95075">
        <ele>588</ele>
        <time>2021-09-10T09:22:43.681Z</time>
      </trkpt>
      <trkpt lat="45.70528" lon="5.95075">
        <ele>588</ele>
        <time>2021-09-10T09:22:44.681Z</time>
      </trkpt>
      <trkpt lat="45.7053" lon="5.95076">
        <ele>588</ele>
        <time>2021-09-10T09:22:45.681Z</time>
      </trkpt>
      <trkpt lat="45.70532" lon="5.95077">
        <ele>588</ele>
        <time>2021-09-10T09:22:46.681Z</time>
      </trkpt>
      <trkpt lat="45.70534" lon="5.95078">
        <ele>588</ele>
        <time>2021-09-10T09:22:47.681Z</time>
      </trkpt>
      <trkpt lat="45.70536" lon="5.95079">
        <ele>588</ele>
        <time>2021-09-10T09:22:48.681Z</time>
      </trkpt>
      <trkpt lat="45.70538" lon="5.9508">
        <ele>589</ele>
        <time>2021-09-10T09:22:49.681Z</time>
      </trkpt>
      <trkpt lat="45.7054" lon="5.95082">
        <ele>589</ele>
        <time>2021-09-10T09:22:50.681Z</time>
      </trkpt>
      <trkpt lat="45.70542" lon="5.95083">
        <ele>589</ele>
        <time>2021-09-10T09:22:51.681Z</time>
      </trkpt>
      <trkpt lat="45.70544" lon="5.95084">
        <ele>589</ele>
        <time>2021-09-10T09:22:52.680Z</time>
      </trkpt>
      <trkpt lat="45.70545" lon="5.95085">
        <ele>589</ele>
        <time>2021-09-10T09:22:53.681Z</time>
      </trkpt>
      <trkpt lat="45.70547" lon="5.95087">
        <ele>590</ele>
        <time>2021-09-10T09:22:54.681Z</time>
      </trkpt>
      <trkpt lat="45.70549" lon="5.95088">
        <ele>590</ele>
        <time>2021-09-10T09:22:55.681Z</time>
      </trkpt>
      <trkpt lat="45.70551" lon="5.9509">
        <ele>591</ele>
        <time>2021-09-10T09:22:56.681Z</time>
      </trkpt>
      <trkpt lat="45.70553" lon="5.95091">
        <ele>591</ele>
        <time>2021-09-10T09:22:57.681Z</time>
      </trkpt>
      <trkpt lat="45.70554" lon="5.95092">
        <ele>591</ele>
        <time>2021-09-10T09:22:58.681Z</time>
      </trkpt>
      <trkpt lat="45.70556" lon="5.95094">
        <ele>592</ele>
        <time>2021-09-10T09:22:59.680Z</time>
      </trkpt>
      <trkpt lat="45.70558" lon="5.95095">
        <ele>592</ele>
        <time>2021-09-10T09:23:00.680Z</time>
      </trkpt>
      <trkpt lat="45.7056" lon="5.95096">
        <ele>592</ele>
        <time>2021-09-10T09:23:01.681Z</time>
      </trkpt>
      <trkpt lat="45.70561" lon="5.95098">
        <ele>592</ele>
        <time>2021-09-10T09:23:02.681Z</time>
      </trkpt>
      <trkpt lat="45.70563" lon="5.95099">
        <ele>592</ele>
        <time>2021-09-10T09:23:03.680Z</time>
      </trkpt>
      <trkpt lat="45.70565" lon="5.951">
        <ele>592</ele>
        <time>2021-09-10T09:23:04.681Z</time>
      </trkpt>
      <trkpt lat="45.70566" lon="5.95102">
        <ele>592</ele>
        <time>2021-09-10T09:23:05.680Z</time>
      </trkpt>
      <trkpt lat="45.70567" lon="5.95104">
        <ele>592</ele>
        <time>2021-09-10T09:23:06.681Z</time>
      </trkpt>
      <trkpt lat="45.70569" lon="5.95105">
        <ele>592</ele>
        <time>2021-09-10T09:23:07.681Z</time>
      </trkpt>
      <trkpt lat="45.70571" lon="5.95107">
        <ele>592</ele>
        <time>2021-09-10T09:23:08.681Z</time>
      </trkpt>
      <trkpt lat="45.70572" lon="5.95109">
        <ele>593</ele>
        <time>2021-09-10T09:23:09.681Z</time>
      </trkpt>
      <trkpt lat="45.70574" lon="5.9511">
        <ele>593</ele>
        <time>2021-09-10T09:23:10.681Z</time>
      </trkpt>
      <trkpt lat="45.70576" lon="5.95111">
        <ele>594</ele>
        <time>2021-09-10T09:23:11.680Z</time>
      </trkpt>
      <trkpt lat="45.70578" lon="5.95113">
        <ele>594</ele>
        <time>2021-09-10T09:23:12.681Z</time>
      </trkpt>
      <trkpt lat="45.70579" lon="5.95114">
        <ele>595</ele>
        <time>2021-09-10T09:23:13.681Z</time>
      </trkpt>
      <trkpt lat="45.70581" lon="5.95115">
        <ele>596</ele>
        <time>2021-09-10T09:23:14.681Z</time>
      </trkpt>
      <trkpt lat="45.70582" lon="5.95116">
        <ele>596</ele>
        <time>2021-09-10T09:23:15.681Z</time>
      </trkpt>
      <trkpt lat="45.70584" lon="5.95118">
        <ele>597</ele>
        <time>2021-09-10T09:23:16.681Z</time>
      </trkpt>
      <trkpt lat="45.70586" lon="5.95119">
        <ele>597</ele>
        <time>2021-09-10T09:23:17.681Z</time>
      </trkpt>
      <trkpt lat="45.70587" lon="5.9512">
        <ele>598</ele>
        <time>2021-09-10T09:23:18.681Z</time>
      </trkpt>
      <trkpt lat="45.70589" lon="5.95122">
        <ele>598</ele>
        <time>2021-09-10T09:23:19.681Z</time>
      </trkpt>
      <trkpt lat="45.70591" lon="5.95123">
        <ele>598</ele>
        <time>2021-09-10T09:23:20.681Z</time>
      </trkpt>
      <trkpt lat="45.70592" lon="5.95125">
        <ele>598</ele>
        <time>2021-09-10T09:23:21.681Z</time>
      </trkpt>
      <trkpt lat="45.70594" lon="5.95126">
        <ele>598</ele>
        <time>2021-09-10T09:23:22.681Z</time>
      </trkpt>
      <trkpt lat="45.70596" lon="5.95128">
        <ele>598</ele>
        <time>2021-09-10T09:23:23.681Z</time>
      </trkpt>
      <trkpt lat="45.70597" lon="5.95129">
        <ele>599</ele>
        <time>2021-09-10T09:23:24.681Z</time>
      </trkpt>
      <trkpt lat="45.70599" lon="5.95131">
        <ele>599</ele>
        <time>2021-09-10T09:23:25.681Z</time>
      </trkpt>
      <trkpt lat="45.70601" lon="5.95132">
        <ele>600</ele>
        <time>2021-09-10T09:23:26.681Z</time>
      </trkpt>
      <trkpt lat="45.70602" lon="5.95134">
        <ele>600</ele>
        <time>2021-09-10T09:23:27.681Z</time>
      </trkpt>
      <trkpt lat="45.70604" lon="5.95135">
        <ele>600</ele>
        <time>2021-09-10T09:23:28.681Z</time>
      </trkpt>
      <trkpt lat="45.70606" lon="5.95137">
        <ele>600</ele>
        <time>2021-09-10T09:23:29.680Z</time>
      </trkpt>
      <trkpt lat="45.70607" lon="5.95139">
        <ele>600</ele>
        <time>2021-09-10T09:23:30.681Z</time>
      </trkpt>
      <trkpt lat="45.70609" lon="5.95141">
        <ele>600</ele>
        <time>2021-09-10T09:23:31.681Z</time>
      </trkpt>
      <trkpt lat="45.70611" lon="5.95143">
        <ele>600</ele>
        <time>2021-09-10T09:23:32.680Z</time>
      </trkpt>
      <trkpt lat="45.70612" lon="5.95144">
        <ele>600</ele>
        <time>2021-09-10T09:23:33.681Z</time>
      </trkpt>
      <trkpt lat="45.70613" lon="5.95146">
        <ele>600</ele>
        <time>2021-09-10T09:23:34.680Z</time>
      </trkpt>
      <trkpt lat="45.70615" lon="5.95148">
        <ele>600</ele>
        <time>2021-09-10T09:23:35.680Z</time>
      </trkpt>
      <trkpt lat="45.70617" lon="5.95149">
        <ele>600</ele>
        <time>2021-09-10T09:23:36.680Z</time>
      </trkpt>
      <trkpt lat="45.70618" lon="5.9515">
        <ele>600</ele>
        <time>2021-09-10T09:23:37.681Z</time>
      </trkpt>
      <trkpt lat="45.7062" lon="5.95152">
        <ele>600</ele>
        <time>2021-09-10T09:23:38.681Z</time>
      </trkpt>
      <trkpt lat="45.70622" lon="5.95153">
        <ele>600</ele>
        <time>2021-09-10T09:23:39.681Z</time>
      </trkpt>
      <trkpt lat="45.70623" lon="5.95154">
        <ele>600</ele>
        <time>2021-09-10T09:23:40.681Z</time>
      </trkpt>
      <trkpt lat="45.70625" lon="5.95155">
        <ele>601</ele>
        <time>2021-09-10T09:23:41.681Z</time>
      </trkpt>
      <trkpt lat="45.70627" lon="5.95156">
        <ele>601</ele>
        <time>2021-09-10T09:23:42.681Z</time>
      </trkpt>
      <trkpt lat="45.70629" lon="5.95157">
        <ele>601</ele>
        <time>2021-09-10T09:23:43.681Z</time>
      </trkpt>
      <trkpt lat="45.70631" lon="5.95158">
        <ele>601</ele>
        <time>2021-09-10T09:23:44.681Z</time>
      </trkpt>
      <trkpt lat="45.70633" lon="5.95159">
        <ele>600</ele>
        <time>2021-09-10T09:23:45.681Z</time>
      </trkpt>
      <trkpt lat="45.70635" lon="5.9516">
        <ele>600</ele>
        <time>2021-09-10T09:23:46.681Z</time>
      </trkpt>
      <trkpt lat="45.70637" lon="5.95161">
        <ele>600</ele>
        <time>2021-09-10T09:23:47.681Z</time>
      </trkpt>
      <trkpt lat="45.70639" lon="5.95162">
        <ele>600</ele>
        <time>2021-09-10T09:23:48.680Z</time>
      </trkpt>
      <trkpt lat="45.70641" lon="5.95163">
        <ele>600</ele>
        <time>2021-09-10T09:23:49.681Z</time>
      </trkpt>
      <trkpt lat="45.70643" lon="5.95163">
        <ele>599</ele>
        <time>2021-09-10T09:23:50.681Z</time>
      </trkpt>
      <trkpt lat="45.70645" lon="5.95164">
        <ele>599</ele>
        <time>2021-09-10T09:23:51.681Z</time>
      </trkpt>
      <trkpt lat="45.70647" lon="5.95165">
        <ele>599</ele>
        <time>2021-09-10T09:23:52.681Z</time>
      </trkpt>
      <trkpt lat="45.70649" lon="5.95166">
        <ele>599</ele>
        <time>2021-09-10T09:23:53.680Z</time>
      </trkpt>
      <trkpt lat="45.70651" lon="5.95166">
        <ele>599</ele>
        <time>2021-09-10T09:23:54.681Z</time>
      </trkpt>
      <trkpt lat="45.70653" lon="5.95167">
        <ele>599</ele>
        <time>2021-09-10T09:23:55.681Z</time>
      </trkpt>
      <trkpt lat="45.70655" lon="5.95167">
        <ele>599</ele>
        <time>2021-09-10T09:23:56.681Z</time>
      </trkpt>
      <trkpt lat="45.70657" lon="5.95168">
        <ele>599</ele>
        <time>2021-09-10T09:23:57.681Z</time>
      </trkpt>
      <trkpt lat="45.7066" lon="5.95168">
        <ele>599</ele>
        <time>2021-09-10T09:23:58.681Z</time>
      </trkpt>
      <trkpt lat="45.70662" lon="5.95169">
        <ele>599</ele>
        <time>2021-09-10T09:23:59.681Z</time>
      </trkpt>
      <trkpt lat="45.70664" lon="5.95169">
        <ele>599</ele>
        <time>2021-09-10T09:24:00.681Z</time>
      </trkpt>
      <trkpt lat="45.70666" lon="5.9517">
        <ele>599</ele>
        <time>2021-09-10T09:24:01.681Z</time>
      </trkpt>
      <trkpt lat="45.70668" lon="5.95171">
        <ele>599</ele>
        <time>2021-09-10T09:24:02.681Z</time>
      </trkpt>
      <trkpt lat="45.7067" lon="5.95172">
        <ele>599</ele>
        <time>2021-09-10T09:24:03.681Z</time>
      </trkpt>
      <trkpt lat="45.70672" lon="5.95173">
        <ele>600</ele>
        <time>2021-09-10T09:24:04.681Z</time>
      </trkpt>
      <trkpt lat="45.70675" lon="5.95174">
        <ele>600</ele>
        <time>2021-09-10T09:24:05.681Z</time>
      </trkpt>
      <trkpt lat="45.70677" lon="5.95175">
        <ele>600</ele>
        <time>2021-09-10T09:24:06.681Z</time>
      </trkpt>
      <trkpt lat="45.70679" lon="5.95177">
        <ele>600</ele>
        <time>2021-09-10T09:24:07.681Z</time>
      </trkpt>
      <trkpt lat="45.70681" lon="5.95179">
        <ele>600</ele>
        <time>2021-09-10T09:24:08.680Z</time>
      </trkpt>
      <trkpt lat="45.70683" lon="5.9518">
        <ele>600</ele>
        <time>2021-09-10T09:24:09.681Z</time>
      </trkpt>
      <trkpt lat="45.70685" lon="5.95182">
        <ele>600</ele>
        <time>2021-09-10T09:24:10.681Z</time>
      </trkpt>
      <trkpt lat="45.70687" lon="5.95183">
        <ele>600</ele>
        <time>2021-09-10T09:24:11.681Z</time>
      </trkpt>
      <trkpt lat="45.70689" lon="5.95184">
        <ele>600</ele>
        <time>2021-09-10T09:24:12.681Z</time>
      </trkpt>
      <trkpt lat="45.70691" lon="5.95185">
        <ele>600</ele>
        <time>2021-09-10T09:24:13.681Z</time>
      </trkpt>
      <trkpt lat="45.70694" lon="5.95186">
        <ele>600</ele>
        <time>2021-09-10T09:24:14.681Z</time>
      </trkpt>
      <trkpt lat="45.70696" lon="5.95187">
        <ele>600</ele>
        <time>2021-09-10T09:24:15.680Z</time>
      </trkpt>
      <trkpt lat="45.70698" lon="5.95188">
        <ele>600</ele>
        <time>2021-09-10T09:24:16.681Z</time>
      </trkpt>
      <trkpt lat="45.707" lon="5.95189">
        <ele>600</ele>
        <time>2021-09-10T09:24:17.681Z</time>
      </trkpt>
      <trkpt lat="45.70702" lon="5.9519">
        <ele>600</ele>
        <time>2021-09-10T09:24:18.681Z</time>
      </trkpt>
      <trkpt lat="45.70705" lon="5.95191">
        <ele>600</ele>
        <time>2021-09-10T09:24:19.681Z</time>
      </trkpt>
      <trkpt lat="45.70707" lon="5.95193">
        <ele>600</ele>
        <time>2021-09-10T09:24:20.680Z</time>
      </trkpt>
      <trkpt lat="45.70709" lon="5.95194">
        <ele>601</ele>
        <time>2021-09-10T09:24:21.681Z</time>
      </trkpt>
      <trkpt lat="45.70711" lon="5.95196">
        <ele>601</ele>
        <time>2021-09-10T09:24:22.681Z</time>
      </trkpt>
      <trkpt lat="45.70714" lon="5.95197">
        <ele>601</ele>
        <time>2021-09-10T09:24:23.680Z</time>
      </trkpt>
      <trkpt lat="45.70716" lon="5.95199">
        <ele>602</ele>
        <time>2021-09-10T09:24:24.680Z</time>
      </trkpt>
      <trkpt lat="45.70718" lon="5.95201">
        <ele>602</ele>
        <time>2021-09-10T09:24:25.681Z</time>
      </trkpt>
      <trkpt lat="45.70719" lon="5.95203">
        <ele>602</ele>
        <time>2021-09-10T09:24:26.680Z</time>
      </trkpt>
      <trkpt lat="45.70721" lon="5.95205">
        <ele>603</ele>
        <time>2021-09-10T09:24:27.681Z</time>
      </trkpt>
      <trkpt lat="45.70723" lon="5.95207">
        <ele>603</ele>
        <time>2021-09-10T09:24:28.681Z</time>
      </trkpt>
      <trkpt lat="45.70725" lon="5.95208">
        <ele>603</ele>
        <time>2021-09-10T09:24:29.681Z</time>
      </trkpt>
      <trkpt lat="45.70727" lon="5.9521">
        <ele>603</ele>
        <time>2021-09-10T09:24:30.681Z</time>
      </trkpt>
      <trkpt lat="45.70729" lon="5.95213">
        <ele>604</ele>
        <time>2021-09-10T09:24:31.680Z</time>
      </trkpt>
      <trkpt lat="45.7073" lon="5.95215">
        <ele>604</ele>
        <time>2021-09-10T09:24:32.681Z</time>
      </trkpt>
      <trkpt lat="45.70732" lon="5.95217">
        <ele>604</ele>
        <time>2021-09-10T09:24:33.681Z</time>
      </trkpt>
      <trkpt lat="45.70734" lon="5.9522">
        <ele>604</ele>
        <time>2021-09-10T09:24:34.680Z</time>
      </trkpt>
      <trkpt lat="45.70735" lon="5.95222">
        <ele>604</ele>
        <time>2021-09-10T09:24:35.680Z</time>
      </trkpt>
      <trkpt lat="45.70736" lon="5.95224">
        <ele>604</ele>
        <time>2021-09-10T09:24:36.681Z</time>
      </trkpt>
      <trkpt lat="45.70739" lon="5.95226">
        <ele>604</ele>
        <time>2021-09-10T09:24:37.681Z</time>
      </trkpt>
      <trkpt lat="45.7074" lon="5.95228">
        <ele>604</ele>
        <time>2021-09-10T09:24:38.681Z</time>
      </trkpt>
      <trkpt lat="45.70742" lon="5.95231">
        <ele>604</ele>
        <time>2021-09-10T09:24:39.681Z</time>
      </trkpt>
      <trkpt lat="45.70744" lon="5.95233">
        <ele>604</ele>
        <time>2021-09-10T09:24:40.681Z</time>
      </trkpt>
      <trkpt lat="45.70745" lon="5.95235">
        <ele>604</ele>
        <time>2021-09-10T09:24:41.681Z</time>
      </trkpt>
      <trkpt lat="45.70747" lon="5.95237">
        <ele>603</ele>
        <time>2021-09-10T09:24:42.681Z</time>
      </trkpt>
      <trkpt lat="45.70748" lon="5.9524">
        <ele>603</ele>
        <time>2021-09-10T09:24:43.680Z</time>
      </trkpt>
      <trkpt lat="45.7075" lon="5.95243">
        <ele>604</ele>
        <time>2021-09-10T09:24:44.680Z</time>
      </trkpt>
      <trkpt lat="45.70751" lon="5.95245">
        <ele>604</ele>
        <time>2021-09-10T09:24:45.681Z</time>
      </trkpt>
      <trkpt lat="45.70752" lon="5.95248">
        <ele>604</ele>
        <time>2021-09-10T09:24:46.680Z</time>
      </trkpt>
      <trkpt lat="45.70754" lon="5.95251">
        <ele>604</ele>
        <time>2021-09-10T09:24:47.681Z</time>
      </trkpt>
      <trkpt lat="45.70755" lon="5.95253">
        <ele>604</ele>
        <time>2021-09-10T09:24:48.681Z</time>
      </trkpt>
      <trkpt lat="45.70756" lon="5.95256">
        <ele>605</ele>
        <time>2021-09-10T09:24:49.680Z</time>
      </trkpt>
      <trkpt lat="45.70758" lon="5.95259">
        <ele>605</ele>
        <time>2021-09-10T09:24:50.681Z</time>
      </trkpt>
      <trkpt lat="45.70759" lon="5.95261">
        <ele>605</ele>
        <time>2021-09-10T09:24:51.681Z</time>
      </trkpt>
      <trkpt lat="45.70761" lon="5.95264">
        <ele>605</ele>
        <time>2021-09-10T09:24:52.681Z</time>
      </trkpt>
      <trkpt lat="45.70763" lon="5.95266">
        <ele>605</ele>
        <time>2021-09-10T09:24:53.681Z</time>
      </trkpt>
      <trkpt lat="45.70764" lon="5.95269">
        <ele>605</ele>
        <time>2021-09-10T09:24:54.681Z</time>
      </trkpt>
      <trkpt lat="45.70766" lon="5.95271">
        <ele>605</ele>
        <time>2021-09-10T09:24:55.680Z</time>
      </trkpt>
      <trkpt lat="45.70768" lon="5.95273">
        <ele>605</ele>
        <time>2021-09-10T09:24:56.681Z</time>
      </trkpt>
      <trkpt lat="45.7077" lon="5.95276">
        <ele>605</ele>
        <time>2021-09-10T09:24:57.680Z</time>
      </trkpt>
      <trkpt lat="45.70771" lon="5.95278">
        <ele>605</ele>
        <time>2021-09-10T09:24:58.681Z</time>
      </trkpt>
      <trkpt lat="45.70773" lon="5.9528">
        <ele>605</ele>
        <time>2021-09-10T09:24:59.680Z</time>
      </trkpt>
      <trkpt lat="45.70775" lon="5.95282">
        <ele>605</ele>
        <time>2021-09-10T09:25:00.681Z</time>
      </trkpt>
      <trkpt lat="45.70777" lon="5.95284">
        <ele>606</ele>
        <time>2021-09-10T09:25:01.681Z</time>
      </trkpt>
      <trkpt lat="45.70779" lon="5.95287">
        <ele>606</ele>
        <time>2021-09-10T09:25:02.681Z</time>
      </trkpt>
      <trkpt lat="45.7078" lon="5.95289">
        <ele>606</ele>
        <time>2021-09-10T09:25:03.681Z</time>
      </trkpt>
      <trkpt lat="45.70782" lon="5.95291">
        <ele>606</ele>
        <time>2021-09-10T09:25:04.681Z</time>
      </trkpt>
      <trkpt lat="45.70784" lon="5.95293">
        <ele>607</ele>
        <time>2021-09-10T09:25:05.681Z</time>
      </trkpt>
      <trkpt lat="45.70785" lon="5.95295">
        <ele>607</ele>
        <time>2021-09-10T09:25:06.681Z</time>
      </trkpt>
      <trkpt lat="45.70787" lon="5.95297">
        <ele>607</ele>
        <time>2021-09-10T09:25:07.681Z</time>
      </trkpt>
      <trkpt lat="45.70789" lon="5.95299">
        <ele>608</ele>
        <time>2021-09-10T09:25:08.681Z</time>
      </trkpt>
      <trkpt lat="45.70791" lon="5.95301">
        <ele>608</ele>
        <time>2021-09-10T09:25:09.681Z</time>
      </trkpt>
      <trkpt lat="45.70793" lon="5.95303">
        <ele>608</ele>
        <time>2021-09-10T09:25:10.680Z</time>
      </trkpt>
      <trkpt lat="45.70795" lon="5.95305">
        <ele>609</ele>
        <time>2021-09-10T09:25:11.680Z</time>
      </trkpt>
      <trkpt lat="45.70797" lon="5.95307">
        <ele>609</ele>
        <time>2021-09-10T09:25:12.681Z</time>
      </trkpt>
      <trkpt lat="45.70799" lon="5.95308">
        <ele>609</ele>
        <time>2021-09-10T09:25:13.680Z</time>
      </trkpt>
      <trkpt lat="45.708" lon="5.9531">
        <ele>609</ele>
        <time>2021-09-10T09:25:14.681Z</time>
      </trkpt>
      <trkpt lat="45.70802" lon="5.95312">
        <ele>609</ele>
        <time>2021-09-10T09:25:15.681Z</time>
      </trkpt>
      <trkpt lat="45.70804" lon="5.95314">
        <ele>609</ele>
        <time>2021-09-10T09:25:16.681Z</time>
      </trkpt>
      <trkpt lat="45.70806" lon="5.95316">
        <ele>610</ele>
        <time>2021-09-10T09:25:17.681Z</time>
      </trkpt>
      <trkpt lat="45.70808" lon="5.95317">
        <ele>610</ele>
        <time>2021-09-10T09:25:18.681Z</time>
      </trkpt>
      <trkpt lat="45.7081" lon="5.95319">
        <ele>610</ele>
        <time>2021-09-10T09:25:19.681Z</time>
      </trkpt>
      <trkpt lat="45.70812" lon="5.95321">
        <ele>611</ele>
        <time>2021-09-10T09:25:20.681Z</time>
      </trkpt>
      <trkpt lat="45.70814" lon="5.95323">
        <ele>611</ele>
        <time>2021-09-10T09:25:21.681Z</time>
      </trkpt>
      <trkpt lat="45.70816" lon="5.95325">
        <ele>612</ele>
        <time>2021-09-10T09:25:22.681Z</time>
      </trkpt>
      <trkpt lat="45.70817" lon="5.95327">
        <ele>612</ele>
        <time>2021-09-10T09:25:23.681Z</time>
      </trkpt>
      <trkpt lat="45.70819" lon="5.95329">
        <ele>612</ele>
        <time>2021-09-10T09:25:24.681Z</time>
      </trkpt>
      <trkpt lat="45.7082" lon="5.95332">
        <ele>613</ele>
        <time>2021-09-10T09:25:25.681Z</time>
      </trkpt>
      <trkpt lat="45.70822" lon="5.95334">
        <ele>613</ele>
        <time>2021-09-10T09:25:26.681Z</time>
      </trkpt>
      <trkpt lat="45.70824" lon="5.95336">
        <ele>613</ele>
        <time>2021-09-10T09:25:27.681Z</time>
      </trkpt>
      <trkpt lat="45.70826" lon="5.95338">
        <ele>613</ele>
        <time>2021-09-10T09:25:28.681Z</time>
      </trkpt>
      <trkpt lat="45.70828" lon="5.9534">
        <ele>613</ele>
        <time>2021-09-10T09:25:29.680Z</time>
      </trkpt>
      <trkpt lat="45.70829" lon="5.95343">
        <ele>613</ele>
        <time>2021-09-10T09:25:30.681Z</time>
      </trkpt>
      <trkpt lat="45.70831" lon="5.95345">
        <ele>613</ele>
        <time>2021-09-10T09:25:31.681Z</time>
      </trkpt>
      <trkpt lat="45.70833" lon="5.95347">
        <ele>614</ele>
        <time>2021-09-10T09:25:32.681Z</time>
      </trkpt>
      <trkpt lat="45.70835" lon="5.9535">
        <ele>614</ele>
        <time>2021-09-10T09:25:33.681Z</time>
      </trkpt>
      <trkpt lat="45.70836" lon="5.95352">
        <ele>614</ele>
        <time>2021-09-10T09:25:34.681Z</time>
      </trkpt>
      <trkpt lat="45.70838" lon="5.95355">
        <ele>613</ele>
        <time>2021-09-10T09:25:35.680Z</time>
      </trkpt>
      <trkpt lat="45.7084" lon="5.95357">
        <ele>613</ele>
        <time>2021-09-10T09:25:36.681Z</time>
      </trkpt>
      <trkpt lat="45.70842" lon="5.9536">
        <ele>613</ele>
        <time>2021-09-10T09:25:37.681Z</time>
      </trkpt>
      <trkpt lat="45.70844" lon="5.95363">
        <ele>613</ele>
        <time>2021-09-10T09:25:38.681Z</time>
      </trkpt>
      <trkpt lat="45.70845" lon="5.95365">
        <ele>613</ele>
        <time>2021-09-10T09:25:39.681Z</time>
      </trkpt>
      <trkpt lat="45.70847" lon="5.95368">
        <ele>613</ele>
        <time>2021-09-10T09:25:40.680Z</time>
      </trkpt>
      <trkpt lat="45.70848" lon="5.9537">
        <ele>614</ele>
        <time>2021-09-10T09:25:41.681Z</time>
      </trkpt>
      <trkpt lat="45.7085" lon="5.95373">
        <ele>614</ele>
        <time>2021-09-10T09:25:42.681Z</time>
      </trkpt>
      <trkpt lat="45.70852" lon="5.95376">
        <ele>614</ele>
        <time>2021-09-10T09:25:43.681Z</time>
      </trkpt>
      <trkpt lat="45.70853" lon="5.95378">
        <ele>615</ele>
        <time>2021-09-10T09:25:44.681Z</time>
      </trkpt>
      <trkpt lat="45.70855" lon="5.95381">
        <ele>614</ele>
        <time>2021-09-10T09:25:45.681Z</time>
      </trkpt>
      <trkpt lat="45.70857" lon="5.95383">
        <ele>614</ele>
        <time>2021-09-10T09:25:46.681Z</time>
      </trkpt>
      <trkpt lat="45.70859" lon="5.95386">
        <ele>614</ele>
        <time>2021-09-10T09:25:47.681Z</time>
      </trkpt>
      <trkpt lat="45.7086" lon="5.95389">
        <ele>614</ele>
        <time>2021-09-10T09:25:48.681Z</time>
      </trkpt>
      <trkpt lat="45.70862" lon="5.95392">
        <ele>613</ele>
        <time>2021-09-10T09:25:49.681Z</time>
      </trkpt>
      <trkpt lat="45.70864" lon="5.95395">
        <ele>613</ele>
        <time>2021-09-10T09:25:50.681Z</time>
      </trkpt>
      <trkpt lat="45.70866" lon="5.95397">
        <ele>613</ele>
        <time>2021-09-10T09:25:51.681Z</time>
      </trkpt>
      <trkpt lat="45.70867" lon="5.954">
        <ele>613</ele>
        <time>2021-09-10T09:25:52.681Z</time>
      </trkpt>
      <trkpt lat="45.70869" lon="5.95403">
        <ele>613</ele>
        <time>2021-09-10T09:25:53.681Z</time>
      </trkpt>
      <trkpt lat="45.7087" lon="5.95406">
        <ele>613</ele>
        <time>2021-09-10T09:25:54.680Z</time>
      </trkpt>
      <trkpt lat="45.70872" lon="5.95408">
        <ele>613</ele>
        <time>2021-09-10T09:25:55.681Z</time>
      </trkpt>
      <trkpt lat="45.70874" lon="5.95411">
        <ele>613</ele>
        <time>2021-09-10T09:25:56.680Z</time>
      </trkpt>
      <trkpt lat="45.70875" lon="5.95414">
        <ele>613</ele>
        <time>2021-09-10T09:25:57.681Z</time>
      </trkpt>
      <trkpt lat="45.70877" lon="5.95417">
        <ele>613</ele>
        <time>2021-09-10T09:25:58.681Z</time>
      </trkpt>
      <trkpt lat="45.70879" lon="5.9542">
        <ele>613</ele>
        <time>2021-09-10T09:25:59.680Z</time>
      </trkpt>
      <trkpt lat="45.7088" lon="5.95422">
        <ele>613</ele>
        <time>2021-09-10T09:26:00.681Z</time>
      </trkpt>
      <trkpt lat="45.70882" lon="5.95425">
        <ele>613</ele>
        <time>2021-09-10T09:26:01.681Z</time>
      </trkpt>
      <trkpt lat="45.70883" lon="5.95428">
        <ele>613</ele>
        <time>2021-09-10T09:26:02.681Z</time>
      </trkpt>
      <trkpt lat="45.70885" lon="5.95431">
        <ele>613</ele>
        <time>2021-09-10T09:26:03.681Z</time>
      </trkpt>
      <trkpt lat="45.70886" lon="5.95434">
        <ele>613</ele>
        <time>2021-09-10T09:26:04.680Z</time>
      </trkpt>
      <trkpt lat="45.70888" lon="5.95437">
        <ele>613</ele>
        <time>2021-09-10T09:26:05.681Z</time>
      </trkpt>
      <trkpt lat="45.70889" lon="5.9544">
        <ele>613</ele>
        <time>2021-09-10T09:26:06.680Z</time>
      </trkpt>
      <trkpt lat="45.7089" lon="5.95443">
        <ele>613</ele>
        <time>2021-09-10T09:26:07.681Z</time>
      </trkpt>
      <trkpt lat="45.70891" lon="5.95446">
        <ele>614</ele>
        <time>2021-09-10T09:26:08.680Z</time>
      </trkpt>
      <trkpt lat="45.70893" lon="5.95449">
        <ele>614</ele>
        <time>2021-09-10T09:26:09.680Z</time>
      </trkpt>
      <trkpt lat="45.70894" lon="5.95452">
        <ele>614</ele>
        <time>2021-09-10T09:26:10.681Z</time>
      </trkpt>
      <trkpt lat="45.70895" lon="5.95456">
        <ele>615</ele>
        <time>2021-09-10T09:26:11.681Z</time>
      </trkpt>
      <trkpt lat="45.70896" lon="5.9546">
        <ele>615</ele>
        <time>2021-09-10T09:26:12.681Z</time>
      </trkpt>
      <trkpt lat="45.70897" lon="5.95462">
        <ele>616</ele>
        <time>2021-09-10T09:26:13.681Z</time>
      </trkpt>
      <trkpt lat="45.70899" lon="5.95465">
        <ele>617</ele>
        <time>2021-09-10T09:26:14.680Z</time>
      </trkpt>
      <trkpt lat="45.709" lon="5.95468">
        <ele>617</ele>
        <time>2021-09-10T09:26:15.681Z</time>
      </trkpt>
      <trkpt lat="45.70901" lon="5.95471">
        <ele>618</ele>
        <time>2021-09-10T09:26:16.681Z</time>
      </trkpt>
      <trkpt lat="45.70902" lon="5.95474">
        <ele>618</ele>
        <time>2021-09-10T09:26:17.680Z</time>
      </trkpt>
      <trkpt lat="45.70903" lon="5.95478">
        <ele>618</ele>
        <time>2021-09-10T09:26:18.681Z</time>
      </trkpt>
      <trkpt lat="45.70904" lon="5.95481">
        <ele>617</ele>
        <time>2021-09-10T09:26:19.681Z</time>
      </trkpt>
      <trkpt lat="45.70904" lon="5.95484">
        <ele>617</ele>
        <time>2021-09-10T09:26:20.681Z</time>
      </trkpt>
      <trkpt lat="45.70905" lon="5.95487">
        <ele>617</ele>
        <time>2021-09-10T09:26:21.681Z</time>
      </trkpt>
      <trkpt lat="45.70906" lon="5.95491">
        <ele>617</ele>
        <time>2021-09-10T09:26:22.681Z</time>
      </trkpt>
      <trkpt lat="45.70906" lon="5.95494">
        <ele>616</ele>
        <time>2021-09-10T09:26:23.681Z</time>
      </trkpt>
      <trkpt lat="45.70907" lon="5.95497">
        <ele>616</ele>
        <time>2021-09-10T09:26:24.681Z</time>
      </trkpt>
      <trkpt lat="45.70907" lon="5.95501">
        <ele>616</ele>
        <time>2021-09-10T09:26:25.681Z</time>
      </trkpt>
      <trkpt lat="45.70908" lon="5.95504">
        <ele>617</ele>
        <time>2021-09-10T09:26:26.681Z</time>
      </trkpt>
      <trkpt lat="45.70908" lon="5.95507">
        <ele>617</ele>
        <time>2021-09-10T09:26:27.681Z</time>
      </trkpt>
      <trkpt lat="45.70909" lon="5.9551">
        <ele>617</ele>
        <time>2021-09-10T09:26:28.680Z</time>
      </trkpt>
      <trkpt lat="45.7091" lon="5.95514">
        <ele>618</ele>
        <time>2021-09-10T09:26:29.681Z</time>
      </trkpt>
      <trkpt lat="45.7091" lon="5.95517">
        <ele>618</ele>
        <time>2021-09-10T09:26:30.681Z</time>
      </trkpt>
      <trkpt lat="45.70911" lon="5.9552">
        <ele>619</ele>
        <time>2021-09-10T09:26:31.681Z</time>
      </trkpt>
      <trkpt lat="45.70912" lon="5.95524">
        <ele>619</ele>
        <time>2021-09-10T09:26:32.681Z</time>
      </trkpt>
      <trkpt lat="45.70912" lon="5.95527">
        <ele>619</ele>
        <time>2021-09-10T09:26:33.681Z</time>
      </trkpt>
      <trkpt lat="45.70912" lon="5.95531">
        <ele>619</ele>
        <time>2021-09-10T09:26:34.681Z</time>
      </trkpt>
      <trkpt lat="45.70912" lon="5.95534">
        <ele>619</ele>
        <time>2021-09-10T09:26:35.680Z</time>
      </trkpt>
      <trkpt lat="45.70912" lon="5.95537">
        <ele>619</ele>
        <time>2021-09-10T09:26:36.680Z</time>
      </trkpt>
      <trkpt lat="45.70912" lon="5.9554">
        <ele>619</ele>
        <time>2021-09-10T09:26:37.680Z</time>
      </trkpt>
      <trkpt lat="45.70912" lon="5.95543">
        <ele>619</ele>
        <time>2021-09-10T09:26:38.681Z</time>
      </trkpt>
      <trkpt lat="45.70912" lon="5.95547">
        <ele>619</ele>
        <time>2021-09-10T09:26:39.681Z</time>
      </trkpt>
      <trkpt lat="45.70912" lon="5.9555">
        <ele>619</ele>
        <time>2021-09-10T09:26:40.681Z</time>
      </trkpt>
      <trkpt lat="45.70911" lon="5.95553">
        <ele>619</ele>
        <time>2021-09-10T09:26:41.681Z</time>
      </trkpt>
      <trkpt lat="45.70911" lon="5.95556">
        <ele>620</ele>
        <time>2021-09-10T09:26:42.681Z</time>
      </trkpt>
      <trkpt lat="45.7091" lon="5.95559">
        <ele>620</ele>
        <time>2021-09-10T09:26:43.681Z</time>
      </trkpt>
      <trkpt lat="45.70908" lon="5.95562">
        <ele>620</ele>
        <time>2021-09-10T09:26:44.681Z</time>
      </trkpt>
      <trkpt lat="45.70907" lon="5.95565">
        <ele>620</ele>
        <time>2021-09-10T09:26:45.680Z</time>
      </trkpt>
      <trkpt lat="45.70905" lon="5.95568">
        <ele>621</ele>
        <time>2021-09-10T09:26:46.680Z</time>
      </trkpt>
      <trkpt lat="45.70904" lon="5.9557">
        <ele>621</ele>
        <time>2021-09-10T09:26:47.681Z</time>
      </trkpt>
      <trkpt lat="45.70902" lon="5.95573">
        <ele>622</ele>
        <time>2021-09-10T09:26:48.681Z</time>
      </trkpt>
      <trkpt lat="45.709" lon="5.95575">
        <ele>622</ele>
        <time>2021-09-10T09:26:49.681Z</time>
      </trkpt>
      <trkpt lat="45.70898" lon="5.95577">
        <ele>623</ele>
        <time>2021-09-10T09:26:50.681Z</time>
      </trkpt>
      <trkpt lat="45.70896" lon="5.95578">
        <ele>623</ele>
        <time>2021-09-10T09:26:51.680Z</time>
      </trkpt>
      <trkpt lat="45.70894" lon="5.9558">
        <ele>623</ele>
        <time>2021-09-10T09:26:52.681Z</time>
      </trkpt>
      <trkpt lat="45.70892" lon="5.95581">
        <ele>623</ele>
        <time>2021-09-10T09:26:53.681Z</time>
      </trkpt>
      <trkpt lat="45.7089" lon="5.95581">
        <ele>623</ele>
        <time>2021-09-10T09:26:54.681Z</time>
      </trkpt>
      <trkpt lat="45.70888" lon="5.95582">
        <ele>622</ele>
        <time>2021-09-10T09:26:55.681Z</time>
      </trkpt>
      <trkpt lat="45.70885" lon="5.95582">
        <ele>622</ele>
        <time>2021-09-10T09:26:56.681Z</time>
      </trkpt>
      <trkpt lat="45.70883" lon="5.95583">
        <ele>621</ele>
        <time>2021-09-10T09:26:57.681Z</time>
      </trkpt>
      <trkpt lat="45.70881" lon="5.95583">
        <ele>621</ele>
        <time>2021-09-10T09:26:58.681Z</time>
      </trkpt>
      <trkpt lat="45.70879" lon="5.95584">
        <ele>621</ele>
        <time>2021-09-10T09:26:59.681Z</time>
      </trkpt>
      <trkpt lat="45.70877" lon="5.95585">
        <ele>621</ele>
        <time>2021-09-10T09:27:00.681Z</time>
      </trkpt>
      <trkpt lat="45.70875" lon="5.95586">
        <ele>622</ele>
        <time>2021-09-10T09:27:01.681Z</time>
      </trkpt>
      <trkpt lat="45.70873" lon="5.95586">
        <ele>622</ele>
        <time>2021-09-10T09:27:02.681Z</time>
      </trkpt>
      <trkpt lat="45.70871" lon="5.95587">
        <ele>623</ele>
        <time>2021-09-10T09:27:03.680Z</time>
      </trkpt>
      <trkpt lat="45.70869" lon="5.95587">
        <ele>624</ele>
        <time>2021-09-10T09:27:04.681Z</time>
      </trkpt>
      <trkpt lat="45.70868" lon="5.95588">
        <ele>625</ele>
        <time>2021-09-10T09:27:05.681Z</time>
      </trkpt>
      <trkpt lat="45.70866" lon="5.95589">
        <ele>626</ele>
        <time>2021-09-10T09:27:06.680Z</time>
      </trkpt>
      <trkpt lat="45.70863" lon="5.95589">
        <ele>626</ele>
        <time>2021-09-10T09:27:07.680Z</time>
      </trkpt>
      <trkpt lat="45.70862" lon="5.9559">
        <ele>626</ele>
        <time>2021-09-10T09:27:08.681Z</time>
      </trkpt>
      <trkpt lat="45.7086" lon="5.95591">
        <ele>626</ele>
        <time>2021-09-10T09:27:09.681Z</time>
      </trkpt>
      <trkpt lat="45.70858" lon="5.95591">
        <ele>626</ele>
        <time>2021-09-10T09:27:10.681Z</time>
      </trkpt>
      <trkpt lat="45.70856" lon="5.95592">
        <ele>626</ele>
        <time>2021-09-10T09:27:11.681Z</time>
      </trkpt>
      <trkpt lat="45.70854" lon="5.95592">
        <ele>626</ele>
        <time>2021-09-10T09:27:12.680Z</time>
      </trkpt>
      <trkpt lat="45.70853" lon="5.95593">
        <ele>626</ele>
        <time>2021-09-10T09:27:13.681Z</time>
      </trkpt>
      <trkpt lat="45.70851" lon="5.95594">
        <ele>626</ele>
        <time>2021-09-10T09:27:14.680Z</time>
      </trkpt>
      <trkpt lat="45.7085" lon="5.95595">
        <ele>626</ele>
        <time>2021-09-10T09:27:15.681Z</time>
      </trkpt>
      <trkpt lat="45.70848" lon="5.95595">
        <ele>626</ele>
        <time>2021-09-10T09:27:16.681Z</time>
      </trkpt>
      <trkpt lat="45.70847" lon="5.95595">
        <ele>625</ele>
        <time>2021-09-10T09:27:17.681Z</time>
      </trkpt>
      <trkpt lat="45.70846" lon="5.95595">
        <ele>625</ele>
        <time>2021-09-10T09:27:18.680Z</time>
      </trkpt>
      <trkpt lat="45.70845" lon="5.95594">
        <ele>625</ele>
        <time>2021-09-10T09:27:19.681Z</time>
      </trkpt>
      <trkpt lat="45.70844" lon="5.95593">
        <ele>625</ele>
        <time>2021-09-10T09:27:20.680Z</time>
      </trkpt>
      <trkpt lat="45.70844" lon="5.95592">
        <ele>624</ele>
        <time>2021-09-10T09:27:21.680Z</time>
      </trkpt>
      <trkpt lat="45.70843" lon="5.95592">
        <ele>625</ele>
        <time>2021-09-10T09:27:22.680Z</time>
      </trkpt>
      <trkpt lat="45.70843" lon="5.95591">
        <ele>625</ele>
        <time>2021-09-10T09:27:23.681Z</time>
      </trkpt>
      <trkpt lat="45.70843" lon="5.95591">
        <ele>626</ele>
        <time>2021-09-10T09:27:24.681Z</time>
      </trkpt>
      <trkpt lat="45.70846" lon="5.95589">
        <ele>630</ele>
        <time>2021-09-10T09:27:25.681Z</time>
      </trkpt>
      <trkpt lat="45.70846" lon="5.95591">
        <ele>630</ele>
        <time>2021-09-10T09:27:26.681Z</time>
      </trkpt>
      <trkpt lat="45.70845" lon="5.95595">
        <ele>630</ele>
        <time>2021-09-10T09:27:27.682Z</time>
      </trkpt>
      <trkpt lat="45.70845" lon="5.95596">
        <ele>630</ele>
        <time>2021-09-10T09:27:28.682Z</time>
      </trkpt>
      <trkpt lat="45.70845" lon="5.95597">
        <ele>630</ele>
        <time>2021-09-10T09:27:29.682Z</time>
      </trkpt>
      <trkpt lat="45.70845" lon="5.95598">
        <ele>629</ele>
        <time>2021-09-10T09:27:30.682Z</time>
      </trkpt>
      <trkpt lat="45.70845" lon="5.95598">
        <ele>629</ele>
        <time>2021-09-10T09:27:31.682Z</time>
      </trkpt>
      <trkpt lat="45.70845" lon="5.95599">
        <ele>629</ele>
        <time>2021-09-10T09:27:32.682Z</time>
      </trkpt>
      <trkpt lat="45.70845" lon="5.95599">
        <ele>629</ele>
        <time>2021-09-10T09:27:33.682Z</time>
      </trkpt>
      <trkpt lat="45.70844" lon="5.956">
        <ele>628</ele>
        <time>2021-09-10T09:27:34.682Z</time>
      </trkpt>
      <trkpt lat="45.70844" lon="5.95601">
        <ele>628</ele>
        <time>2021-09-10T09:27:35.682Z</time>
      </trkpt>
      <trkpt lat="45.70844" lon="5.95603">
        <ele>627</ele>
        <time>2021-09-10T09:27:36.682Z</time>
      </trkpt>
      <trkpt lat="45.70843" lon="5.95604">
        <ele>627</ele>
        <time>2021-09-10T09:27:37.682Z</time>
      </trkpt>
      <trkpt lat="45.70843" lon="5.95606">
        <ele>626</ele>
        <time>2021-09-10T09:27:38.682Z</time>
      </trkpt>
      <trkpt lat="45.70843" lon="5.95608">
        <ele>626</ele>
        <time>2021-09-10T09:27:39.682Z</time>
      </trkpt>
      <trkpt lat="45.70843" lon="5.95609">
        <ele>626</ele>
        <time>2021-09-10T09:27:40.683Z</time>
      </trkpt>
      <trkpt lat="45.70843" lon="5.95611">
        <ele>625</ele>
        <time>2021-09-10T09:27:41.682Z</time>
      </trkpt>
      <trkpt lat="45.70844" lon="5.9561">
        <ele>625</ele>
        <time>2021-09-10T09:27:42.682Z</time>
      </trkpt>
      <trkpt lat="45.70843" lon="5.95608">
        <ele>625</ele>
        <time>2021-09-10T09:27:43.682Z</time>
      </trkpt>
      <trkpt lat="45.70843" lon="5.95606">
        <ele>625</ele>
        <time>2021-09-10T09:27:44.683Z</time>
      </trkpt>
      <trkpt lat="45.70844" lon="5.95605">
        <ele>624</ele>
        <time>2021-09-10T09:27:45.683Z</time>
      </trkpt>
      <trkpt lat="45.70845" lon="5.95608">
        <ele>624</ele>
        <time>2021-09-10T09:27:46.683Z</time>
      </trkpt>
      <trkpt lat="45.70845" lon="5.95608">
        <ele>624</ele>
        <time>2021-09-10T09:27:47.683Z</time>
      </trkpt>
      <trkpt lat="45.70844" lon="5.95609">
        <ele>624</ele>
        <time>2021-09-10T09:27:48.682Z</time>
      </trkpt>
      <trkpt lat="45.70843" lon="5.9561">
        <ele>624</ele>
        <time>2021-09-10T09:27:49.683Z</time>
      </trkpt>
      <trkpt lat="45.70843" lon="5.95609">
        <ele>624</ele>
        <time>2021-09-10T09:27:50.683Z</time>
      </trkpt>
      <trkpt lat="45.70843" lon="5.95609">
        <ele>624</ele>
        <time>2021-09-10T09:27:51.683Z</time>
      </trkpt>
      <trkpt lat="45.70844" lon="5.95609">
        <ele>623</ele>
        <time>2021-09-10T09:27:52.683Z</time>
      </trkpt>
      <trkpt lat="45.70845" lon="5.9561">
        <ele>623</ele>
        <time>2021-09-10T09:27:54.683Z</time>
      </trkpt>
      <trkpt lat="45.70845" lon="5.95611">
        <ele>623</ele>
        <time>2021-09-10T09:27:55.683Z</time>
      </trkpt>
      <trkpt lat="45.70845" lon="5.95613">
        <ele>623</ele>
        <time>2021-09-10T09:27:56.682Z</time>
      </trkpt>
      <trkpt lat="45.70845" lon="5.95614">
        <ele>623</ele>
        <time>2021-09-10T09:27:57.683Z</time>
      </trkpt>
      <trkpt lat="45.70845" lon="5.95615">
        <ele>623</ele>
        <time>2021-09-10T09:27:58.683Z</time>
      </trkpt>
      <trkpt lat="45.70845" lon="5.95616">
        <ele>623</ele>
        <time>2021-09-10T09:27:59.683Z</time>
      </trkpt>
      <trkpt lat="45.70846" lon="5.95614">
        <ele>623</ele>
        <time>2021-09-10T09:28:00.682Z</time>
      </trkpt>
      <trkpt lat="45.70847" lon="5.95615">
        <ele>623</ele>
        <time>2021-09-10T09:28:01.683Z</time>
      </trkpt>
      <trkpt lat="45.70846" lon="5.95609">
        <ele>623</ele>
        <time>2021-09-10T09:28:02.682Z</time>
      </trkpt>
      <trkpt lat="45.70845" lon="5.9561">
        <ele>623</ele>
        <time>2021-09-10T09:28:03.683Z</time>
      </trkpt>
      <trkpt lat="45.70846" lon="5.95608">
        <ele>623</ele>
        <time>2021-09-10T09:28:04.683Z</time>
      </trkpt>
      <trkpt lat="45.70846" lon="5.95607">
        <ele>623</ele>
        <time>2021-09-10T09:28:05.682Z</time>
      </trkpt>
      <trkpt lat="45.70847" lon="5.95605">
        <ele>623</ele>
        <time>2021-09-10T09:28:06.682Z</time>
      </trkpt>
      <trkpt lat="45.70847" lon="5.95605">
        <ele>623</ele>
        <time>2021-09-10T09:28:07.683Z</time>
      </trkpt>
      <trkpt lat="45.70847" lon="5.95604">
        <ele>623</ele>
        <time>2021-09-10T09:28:08.683Z</time>
      </trkpt>
      <trkpt lat="45.70847" lon="5.95605">
        <ele>623</ele>
        <time>2021-09-10T09:28:09.683Z</time>
      </trkpt>
      <trkpt lat="45.70848" lon="5.95603">
        <ele>623</ele>
        <time>2021-09-10T09:28:10.683Z</time>
      </trkpt>
      <trkpt lat="45.70848" lon="5.95601">
        <ele>623</ele>
        <time>2021-09-10T09:28:11.683Z</time>
      </trkpt>
      <trkpt lat="45.70848" lon="5.95599">
        <ele>623</ele>
        <time>2021-09-10T09:28:12.683Z</time>
      </trkpt>
      <trkpt lat="45.70849" lon="5.95597">
        <ele>623</ele>
        <time>2021-09-10T09:28:13.683Z</time>
      </trkpt>
      <trkpt lat="45.7085" lon="5.95595">
        <ele>623</ele>
        <time>2021-09-10T09:28:14.683Z</time>
      </trkpt>
      <trkpt lat="45.7085" lon="5.95594">
        <ele>623</ele>
        <time>2021-09-10T09:28:15.682Z</time>
      </trkpt>
      <trkpt lat="45.7087" lon="5.95518">
        <ele>623</ele>
        <time>2021-09-10T09:30:18.683Z</time>
      </trkpt>
      <trkpt lat="45.70871" lon="5.95527">
        <ele>623</ele>
        <time>2021-09-10T09:30:20.683Z</time>
      </trkpt>
      <trkpt lat="45.70859" lon="5.95612">
        <ele>623</ele>
        <time>2021-09-10T09:30:21.683Z</time>
      </trkpt>
      <trkpt lat="45.70827" lon="5.95677">
        <ele>623</ele>
        <time>2021-09-10T09:30:27.683Z</time>
      </trkpt>
      <trkpt lat="45.70829" lon="5.95669">
        <ele>623</ele>
        <time>2021-09-10T09:30:28.682Z</time>
      </trkpt>
      <trkpt lat="45.70829" lon="5.95668">
        <ele>623</ele>
        <time>2021-09-10T09:30:29.683Z</time>
      </trkpt>
      <trkpt lat="45.70828" lon="5.95665">
        <ele>622</ele>
        <time>2021-09-10T09:30:31.683Z</time>
      </trkpt>
      <trkpt lat="45.70828" lon="5.95661">
        <ele>623</ele>
        <time>2021-09-10T09:30:32.683Z</time>
      </trkpt>
      <trkpt lat="45.70824" lon="5.95668">
        <ele>623</ele>
        <time>2021-09-10T09:30:34.682Z</time>
      </trkpt>
      <trkpt lat="45.70824" lon="5.95651">
        <ele>624</ele>
        <time>2021-09-10T09:30:35.683Z</time>
      </trkpt>
      <trkpt lat="45.70824" lon="5.95644">
        <ele>625</ele>
        <time>2021-09-10T09:30:36.683Z</time>
      </trkpt>
      <trkpt lat="45.70825" lon="5.95642">
        <ele>626</ele>
        <time>2021-09-10T09:30:37.683Z</time>
      </trkpt>
      <trkpt lat="45.70826" lon="5.95641">
        <ele>626</ele>
        <time>2021-09-10T09:30:38.683Z</time>
      </trkpt>
      <trkpt lat="45.70827" lon="5.9564">
        <ele>627</ele>
        <time>2021-09-10T09:30:39.683Z</time>
      </trkpt>
      <trkpt lat="45.70827" lon="5.95638">
        <ele>627</ele>
        <time>2021-09-10T09:30:40.683Z</time>
      </trkpt>
      <trkpt lat="45.70827" lon="5.95635">
        <ele>628</ele>
        <time>2021-09-10T09:30:41.683Z</time>
      </trkpt>
      <trkpt lat="45.70827" lon="5.95633">
        <ele>628</ele>
        <time>2021-09-10T09:30:42.683Z</time>
      </trkpt>
      <trkpt lat="45.70827" lon="5.9563">
        <ele>629</ele>
        <time>2021-09-10T09:30:43.683Z</time>
      </trkpt>
      <trkpt lat="45.70827" lon="5.95628">
        <ele>629</ele>
        <time>2021-09-10T09:30:44.682Z</time>
      </trkpt>
      <trkpt lat="45.70828" lon="5.95623">
        <ele>630</ele>
        <time>2021-09-10T09:30:46.683Z</time>
      </trkpt>
      <trkpt lat="45.70828" lon="5.95621">
        <ele>630</ele>
        <time>2021-09-10T09:30:47.683Z</time>
      </trkpt>
      <trkpt lat="45.70829" lon="5.95616">
        <ele>630</ele>
        <time>2021-09-10T09:30:49.682Z</time>
      </trkpt>
      <trkpt lat="45.70829" lon="5.95614">
        <ele>630</ele>
        <time>2021-09-10T09:30:50.683Z</time>
      </trkpt>
      <trkpt lat="45.7083" lon="5.95612">
        <ele>631</ele>
        <time>2021-09-10T09:30:51.683Z</time>
      </trkpt>
      <trkpt lat="45.7083" lon="5.95612">
        <ele>631</ele>
        <time>2021-09-10T09:30:52.683Z</time>
      </trkpt>
      <trkpt lat="45.7083" lon="5.95613">
        <ele>631</ele>
        <time>2021-09-10T09:30:53.683Z</time>
      </trkpt>
      <trkpt lat="45.7083" lon="5.95612">
        <ele>631</ele>
        <time>2021-09-10T09:30:54.683Z</time>
      </trkpt>
      <trkpt lat="45.70839" lon="5.95576">
        <ele>630</ele>
        <time>2021-09-10T09:30:57.684Z</time>
      </trkpt>
      <trkpt lat="45.70844" lon="5.95563">
        <ele>628</ele>
        <time>2021-09-10T09:30:58.684Z</time>
      </trkpt>
      <trkpt lat="45.70842" lon="5.95574">
        <ele>626</ele>
        <time>2021-09-10T09:30:59.683Z</time>
      </trkpt>
      <trkpt lat="45.70838" lon="5.95573">
        <ele>619</ele>
        <time>2021-09-10T09:31:06.683Z</time>
      </trkpt>
      <trkpt lat="45.70838" lon="5.95569">
        <ele>616</ele>
        <time>2021-09-10T09:31:11.684Z</time>
      </trkpt>
      <trkpt lat="45.70839" lon="5.95567">
        <ele>615</ele>
        <time>2021-09-10T09:31:12.684Z</time>
      </trkpt>
      <trkpt lat="45.7084" lon="5.95569">
        <ele>615</ele>
        <time>2021-09-10T09:31:13.683Z</time>
      </trkpt>
      <trkpt lat="45.7084" lon="5.95574">
        <ele>614</ele>
        <time>2021-09-10T09:31:14.684Z</time>
      </trkpt>
      <trkpt lat="45.7084" lon="5.95578">
        <ele>614</ele>
        <time>2021-09-10T09:31:15.684Z</time>
      </trkpt>
      <trkpt lat="45.70839" lon="5.95581">
        <ele>613</ele>
        <time>2021-09-10T09:31:16.684Z</time>
      </trkpt>
      <trkpt lat="45.70842" lon="5.95603">
        <ele>611</ele>
        <time>2021-09-10T09:32:00.684Z</time>
      </trkpt>
      <trkpt lat="45.70845" lon="5.95591">
        <ele>610</ele>
        <time>2021-09-10T09:32:01.684Z</time>
      </trkpt>
      <trkpt lat="45.70851" lon="5.95573">
        <ele>610</ele>
        <time>2021-09-10T09:32:02.684Z</time>
      </trkpt>
      <trkpt lat="45.70856" lon="5.9556">
        <ele>610</ele>
        <time>2021-09-10T09:32:03.683Z</time>
      </trkpt>
      <trkpt lat="45.7086" lon="5.9555">
        <ele>609</ele>
        <time>2021-09-10T09:32:05.683Z</time>
      </trkpt>
      <trkpt lat="45.70881" lon="5.955">
        <ele>607</ele>
        <time>2021-09-10T09:32:51.684Z</time>
      </trkpt>
      <trkpt lat="45.70882" lon="5.95502">
        <ele>606</ele>
        <time>2021-09-10T09:32:52.684Z</time>
      </trkpt>
      <trkpt lat="45.70884" lon="5.95505">
        <ele>605</ele>
        <time>2021-09-10T09:32:53.683Z</time>
      </trkpt>
      <trkpt lat="45.70885" lon="5.95507">
        <ele>605</ele>
        <time>2021-09-10T09:32:54.684Z</time>
      </trkpt>
      <trkpt lat="45.70887" lon="5.95509">
        <ele>604</ele>
        <time>2021-09-10T09:32:55.684Z</time>
      </trkpt>
      <trkpt lat="45.70888" lon="5.95511">
        <ele>603</ele>
        <time>2021-09-10T09:32:56.684Z</time>
      </trkpt>
      <trkpt lat="45.70889" lon="5.95513">
        <ele>603</ele>
        <time>2021-09-10T09:32:57.684Z</time>
      </trkpt>
      <trkpt lat="45.70888" lon="5.95514">
        <ele>602</ele>
        <time>2021-09-10T09:32:58.683Z</time>
      </trkpt>
      <trkpt lat="45.70891" lon="5.95515">
        <ele>601</ele>
        <time>2021-09-10T09:33:06.684Z</time>
      </trkpt>
      <trkpt lat="45.70885" lon="5.95533">
        <ele>600</ele>
        <time>2021-09-10T09:33:10.683Z</time>
      </trkpt>
      <trkpt lat="45.70899" lon="5.95516">
        <ele>600</ele>
        <time>2021-09-10T09:33:12.684Z</time>
      </trkpt>
      <trkpt lat="45.70902" lon="5.95512">
        <ele>600</ele>
        <time>2021-09-10T09:33:13.684Z</time>
      </trkpt>
      <trkpt lat="45.70905" lon="5.95508">
        <ele>599</ele>
        <time>2021-09-10T09:33:14.683Z</time>
      </trkpt>
      <trkpt lat="45.70909" lon="5.95501">
        <ele>599</ele>
        <time>2021-09-10T09:33:16.684Z</time>
      </trkpt>
      <trkpt lat="45.70909" lon="5.95499">
        <ele>599</ele>
        <time>2021-09-10T09:33:17.684Z</time>
      </trkpt>
      <trkpt lat="45.70909" lon="5.95498">
        <ele>598</ele>
        <time>2021-09-10T09:33:18.684Z</time>
      </trkpt>
      <trkpt lat="45.70909" lon="5.95493">
        <ele>598</ele>
        <time>2021-09-10T09:33:20.684Z</time>
      </trkpt>
      <trkpt lat="45.70906" lon="5.95495">
        <ele>598</ele>
        <time>2021-09-10T09:33:21.684Z</time>
      </trkpt>
      <trkpt lat="45.70901" lon="5.95499">
        <ele>598</ele>
        <time>2021-09-10T09:33:22.684Z</time>
      </trkpt>
      <trkpt lat="45.70898" lon="5.95503">
        <ele>598</ele>
        <time>2021-09-10T09:33:23.684Z</time>
      </trkpt>
      <trkpt lat="45.70897" lon="5.95508">
        <ele>598</ele>
        <time>2021-09-10T09:33:24.684Z</time>
      </trkpt>
      <trkpt lat="45.70895" lon="5.95512">
        <ele>598</ele>
        <time>2021-09-10T09:33:25.684Z</time>
      </trkpt>
      <trkpt lat="45.70895" lon="5.95516">
        <ele>598</ele>
        <time>2021-09-10T09:33:26.684Z</time>
      </trkpt>
      <trkpt lat="45.70895" lon="5.95518">
        <ele>597</ele>
        <time>2021-09-10T09:33:27.683Z</time>
      </trkpt>
      <trkpt lat="45.70894" lon="5.95522">
        <ele>597</ele>
        <time>2021-09-10T09:33:32.684Z</time>
      </trkpt>
      <trkpt lat="45.70891" lon="5.95528">
        <ele>597</ele>
        <time>2021-09-10T09:33:34.684Z</time>
      </trkpt>
      <trkpt lat="45.70888" lon="5.95532">
        <ele>597</ele>
        <time>2021-09-10T09:33:36.684Z</time>
      </trkpt>
      <trkpt lat="45.70886" lon="5.95535">
        <ele>598</ele>
        <time>2021-09-10T09:33:37.684Z</time>
      </trkpt>
      <trkpt lat="45.70885" lon="5.95537">
        <ele>598</ele>
        <time>2021-09-10T09:33:38.683Z</time>
      </trkpt>
      <trkpt lat="45.70884" lon="5.95536">
        <ele>598</ele>
        <time>2021-09-10T09:33:39.684Z</time>
      </trkpt>
      <trkpt lat="45.70884" lon="5.95535">
        <ele>598</ele>
        <time>2021-09-10T09:33:40.683Z</time>
      </trkpt>
      <trkpt lat="45.70882" lon="5.95537">
        <ele>598</ele>
        <time>2021-09-10T09:33:41.684Z</time>
      </trkpt>
      <trkpt lat="45.70881" lon="5.95539">
        <ele>599</ele>
        <time>2021-09-10T09:33:42.684Z</time>
      </trkpt>
      <trkpt lat="45.70878" lon="5.95541">
        <ele>599</ele>
        <time>2021-09-10T09:33:44.684Z</time>
      </trkpt>
      <trkpt lat="45.70877" lon="5.95544">
        <ele>599</ele>
        <time>2021-09-10T09:33:45.684Z</time>
      </trkpt>
      <trkpt lat="45.70874" lon="5.95549">
        <ele>599</ele>
        <time>2021-09-10T09:33:46.684Z</time>
      </trkpt>
      <trkpt lat="45.70873" lon="5.95549">
        <ele>599</ele>
        <time>2021-09-10T09:33:47.684Z</time>
      </trkpt>
      <trkpt lat="45.70871" lon="5.95549">
        <ele>600</ele>
        <time>2021-09-10T09:33:49.683Z</time>
      </trkpt>
      <trkpt lat="45.7087" lon="5.95549">
        <ele>600</ele>
        <time>2021-09-10T09:33:50.684Z</time>
      </trkpt>
      <trkpt lat="45.70869" lon="5.9555">
        <ele>601</ele>
        <time>2021-09-10T09:33:51.683Z</time>
      </trkpt>
      <trkpt lat="45.70869" lon="5.9555">
        <ele>601</ele>
        <time>2021-09-10T09:33:52.684Z</time>
      </trkpt>
      <trkpt lat="45.70868" lon="5.95551">
        <ele>602</ele>
        <time>2021-09-10T09:33:53.683Z</time>
      </trkpt>
      <trkpt lat="45.70855" lon="5.95569">
        <ele>606</ele>
        <time>2021-09-10T09:33:54.684Z</time>
      </trkpt>
      <trkpt lat="45.70853" lon="5.95572">
        <ele>607</ele>
        <time>2021-09-10T09:33:55.684Z</time>
      </trkpt>
      <trkpt lat="45.70852" lon="5.95574">
        <ele>609</ele>
        <time>2021-09-10T09:33:56.683Z</time>
      </trkpt>
      <trkpt lat="45.70851" lon="5.95575">
        <ele>611</ele>
        <time>2021-09-10T09:33:57.684Z</time>
      </trkpt>
      <trkpt lat="45.70851" lon="5.95576">
        <ele>612</ele>
        <time>2021-09-10T09:33:58.684Z</time>
      </trkpt>
      <trkpt lat="45.70851" lon="5.95579">
        <ele>616</ele>
        <time>2021-09-10T09:33:59.684Z</time>
      </trkpt>
      <trkpt lat="45.70851" lon="5.9558">
        <ele>617</ele>
        <time>2021-09-10T09:34:00.684Z</time>
      </trkpt>
      <trkpt lat="45.70851" lon="5.9558">
        <ele>618</ele>
        <time>2021-09-10T09:34:01.683Z</time>
      </trkpt>
      <trkpt lat="45.70845" lon="5.95581">
        <ele>636</ele>
        <time>2021-09-10T09:34:02.685Z</time>
      </trkpt>
      <trkpt lat="45.70845" lon="5.95581">
        <ele>636</ele>
        <time>2021-09-10T09:34:03.685Z</time>
      </trkpt>
      <trkpt lat="45.70845" lon="5.95582">
        <ele>636</ele>
        <time>2021-09-10T09:34:04.685Z</time>
      </trkpt>
      <trkpt lat="45.70845" lon="5.95582">
        <ele>636</ele>
        <time>2021-09-10T09:34:05.684Z</time>
      </trkpt>
      <trkpt lat="45.70845" lon="5.95582">
        <ele>636</ele>
        <time>2021-09-10T09:34:06.685Z</time>
      </trkpt>
      <trkpt lat="45.70845" lon="5.95582">
        <ele>636</ele>
        <time>2021-09-10T09:34:07.685Z</time>
      </trkpt>
      <trkpt lat="45.70845" lon="5.95582">
        <ele>636</ele>
        <time>2021-09-10T09:34:08.685Z</time>
      </trkpt>
      <trkpt lat="45.70845" lon="5.95582">
        <ele>636</ele>
        <time>2021-09-10T09:34:09.685Z</time>
      </trkpt>
      <trkpt lat="45.70845" lon="5.95582">
        <ele>636</ele>
        <time>2021-09-10T09:34:10.684Z</time>
      </trkpt>
      <trkpt lat="45.70844" lon="5.95582">
        <ele>636</ele>
        <time>2021-09-10T09:34:11.684Z</time>
      </trkpt>
      <trkpt lat="45.70844" lon="5.95582">
        <ele>636</ele>
        <time>2021-09-10T09:34:12.684Z</time>
      </trkpt>
      <trkpt lat="45.70844" lon="5.95583">
        <ele>636</ele>
        <time>2021-09-10T09:34:13.685Z</time>
      </trkpt>
      <trkpt lat="45.70844" lon="5.95583">
        <ele>636</ele>
        <time>2021-09-10T09:34:14.684Z</time>
      </trkpt>
      <trkpt lat="45.70844" lon="5.95583">
        <ele>636</ele>
        <time>2021-09-10T09:34:15.684Z</time>
      </trkpt>
      <trkpt lat="45.70844" lon="5.95583">
        <ele>636</ele>
        <time>2021-09-10T09:34:16.684Z</time>
      </trkpt>
      <trkpt lat="45.70844" lon="5.95583">
        <ele>636</ele>
        <time>2021-09-10T09:34:17.685Z</time>
      </trkpt>
      <trkpt lat="45.70844" lon="5.95584">
        <ele>636</ele>
        <time>2021-09-10T09:34:18.684Z</time>
      </trkpt>
      <trkpt lat="45.70844" lon="5.95585">
        <ele>636</ele>
        <time>2021-09-10T09:34:19.685Z</time>
      </trkpt>
      <trkpt lat="45.70845" lon="5.95585">
        <ele>636</ele>
        <time>2021-09-10T09:34:20.685Z</time>
      </trkpt>
      <trkpt lat="45.70845" lon="5.95586">
        <ele>636</ele>
        <time>2021-09-10T09:34:21.685Z</time>
      </trkpt>
      <trkpt lat="45.70845" lon="5.95587">
        <ele>636</ele>
        <time>2021-09-10T09:34:22.684Z</time>
      </trkpt>
      <trkpt lat="45.70845" lon="5.95587">
        <ele>636</ele>
        <time>2021-09-10T09:34:23.685Z</time>
      </trkpt>
      <trkpt lat="45.70845" lon="5.95587">
        <ele>635</ele>
        <time>2021-09-10T09:34:24.685Z</time>
      </trkpt>
      <trkpt lat="45.70845" lon="5.95587">
        <ele>635</ele>
        <time>2021-09-10T09:34:25.684Z</time>
      </trkpt>
      <trkpt lat="45.70845" lon="5.95587">
        <ele>635</ele>
        <time>2021-09-10T09:34:26.685Z</time>
      </trkpt>
      <trkpt lat="45.70845" lon="5.95587">
        <ele>635</ele>
        <time>2021-09-10T09:34:27.684Z</time>
      </trkpt>
      <trkpt lat="45.70845" lon="5.95587">
        <ele>635</ele>
        <time>2021-09-10T09:34:28.685Z</time>
      </trkpt>
      <trkpt lat="45.70845" lon="5.95588">
        <ele>635</ele>
        <time>2021-09-10T09:34:29.685Z</time>
      </trkpt>
      <trkpt lat="45.70844" lon="5.95591">
        <ele>635</ele>
        <time>2021-09-10T09:34:30.684Z</time>
      </trkpt>
      <trkpt lat="45.70843" lon="5.95594">
        <ele>635</ele>
        <time>2021-09-10T09:34:31.685Z</time>
      </trkpt>
      <trkpt lat="45.70841" lon="5.95597">
        <ele>635</ele>
        <time>2021-09-10T09:34:32.684Z</time>
      </trkpt>
      <trkpt lat="45.7084" lon="5.95599">
        <ele>635</ele>
        <time>2021-09-10T09:34:33.685Z</time>
      </trkpt>
      <trkpt lat="45.70838" lon="5.95603">
        <ele>635</ele>
        <time>2021-09-10T09:34:34.684Z</time>
      </trkpt>
      <trkpt lat="45.70836" lon="5.95606">
        <ele>634</ele>
        <time>2021-09-10T09:34:35.685Z</time>
      </trkpt>
      <trkpt lat="45.70834" lon="5.95609">
        <ele>634</ele>
        <time>2021-09-10T09:34:36.685Z</time>
      </trkpt>
      <trkpt lat="45.70832" lon="5.95613">
        <ele>634</ele>
        <time>2021-09-10T09:34:37.685Z</time>
      </trkpt>
      <trkpt lat="45.70831" lon="5.95617">
        <ele>634</ele>
        <time>2021-09-10T09:34:38.684Z</time>
      </trkpt>
      <trkpt lat="45.70829" lon="5.95621">
        <ele>635</ele>
        <time>2021-09-10T09:34:39.684Z</time>
      </trkpt>
      <trkpt lat="45.70827" lon="5.95625">
        <ele>635</ele>
        <time>2021-09-10T09:34:40.685Z</time>
      </trkpt>
      <trkpt lat="45.70825" lon="5.95628">
        <ele>635</ele>
        <time>2021-09-10T09:34:41.685Z</time>
      </trkpt>
      <trkpt lat="45.70824" lon="5.95631">
        <ele>635</ele>
        <time>2021-09-10T09:34:42.685Z</time>
      </trkpt>
      <trkpt lat="45.70822" lon="5.95633">
        <ele>635</ele>
        <time>2021-09-10T09:34:43.684Z</time>
      </trkpt>
      <trkpt lat="45.7082" lon="5.95636">
        <ele>635</ele>
        <time>2021-09-10T09:34:44.685Z</time>
      </trkpt>
      <trkpt lat="45.70818" lon="5.95639">
        <ele>635</ele>
        <time>2021-09-10T09:34:45.685Z</time>
      </trkpt>
      <trkpt lat="45.70817" lon="5.95642">
        <ele>635</ele>
        <time>2021-09-10T09:34:46.685Z</time>
      </trkpt>
      <trkpt lat="45.70816" lon="5.95645">
        <ele>635</ele>
        <time>2021-09-10T09:34:47.684Z</time>
      </trkpt>
      <trkpt lat="45.70814" lon="5.95647">
        <ele>635</ele>
        <time>2021-09-10T09:34:48.685Z</time>
      </trkpt>
      <trkpt lat="45.70813" lon="5.95649">
        <ele>635</ele>
        <time>2021-09-10T09:34:49.685Z</time>
      </trkpt>
      <trkpt lat="45.70812" lon="5.95652">
        <ele>634</ele>
        <time>2021-09-10T09:34:50.684Z</time>
      </trkpt>
      <trkpt lat="45.70811" lon="5.95654">
        <ele>634</ele>
        <time>2021-09-10T09:34:51.684Z</time>
      </trkpt>
      <trkpt lat="45.7081" lon="5.95656">
        <ele>634</ele>
        <time>2021-09-10T09:34:52.685Z</time>
      </trkpt>
      <trkpt lat="45.70808" lon="5.95658">
        <ele>634</ele>
        <time>2021-09-10T09:34:53.685Z</time>
      </trkpt>
      <trkpt lat="45.70806" lon="5.95661">
        <ele>634</ele>
        <time>2021-09-10T09:34:54.684Z</time>
      </trkpt>
      <trkpt lat="45.70804" lon="5.95664">
        <ele>634</ele>
        <time>2021-09-10T09:34:55.684Z</time>
      </trkpt>
      <trkpt lat="45.70802" lon="5.95666">
        <ele>634</ele>
        <time>2021-09-10T09:34:56.684Z</time>
      </trkpt>
      <trkpt lat="45.708" lon="5.95669">
        <ele>633</ele>
        <time>2021-09-10T09:34:57.685Z</time>
      </trkpt>
      <trkpt lat="45.70798" lon="5.95672">
        <ele>633</ele>
        <time>2021-09-10T09:34:58.684Z</time>
      </trkpt>
      <trkpt lat="45.70795" lon="5.95675">
        <ele>632</ele>
        <time>2021-09-10T09:34:59.685Z</time>
      </trkpt>
      <trkpt lat="45.70792" lon="5.95679">
        <ele>632</ele>
        <time>2021-09-10T09:35:00.685Z</time>
      </trkpt>
      <trkpt lat="45.70789" lon="5.95682">
        <ele>632</ele>
        <time>2021-09-10T09:35:01.684Z</time>
      </trkpt>
      <trkpt lat="45.70787" lon="5.95686">
        <ele>631</ele>
        <time>2021-09-10T09:35:02.684Z</time>
      </trkpt>
      <trkpt lat="45.70784" lon="5.95689">
        <ele>631</ele>
        <time>2021-09-10T09:35:03.684Z</time>
      </trkpt>
      <trkpt lat="45.70781" lon="5.95693">
        <ele>630</ele>
        <time>2021-09-10T09:35:04.685Z</time>
      </trkpt>
      <trkpt lat="45.70778" lon="5.95697">
        <ele>630</ele>
        <time>2021-09-10T09:35:05.685Z</time>
      </trkpt>
      <trkpt lat="45.70775" lon="5.95702">
        <ele>630</ele>
        <time>2021-09-10T09:35:06.684Z</time>
      </trkpt>
      <trkpt lat="45.70772" lon="5.95708">
        <ele>630</ele>
        <time>2021-09-10T09:35:07.684Z</time>
      </trkpt>
      <trkpt lat="45.70769" lon="5.95714">
        <ele>630</ele>
        <time>2021-09-10T09:35:08.684Z</time>
      </trkpt>
      <trkpt lat="45.70765" lon="5.95719">
        <ele>630</ele>
        <time>2021-09-10T09:35:09.685Z</time>
      </trkpt>
      <trkpt lat="45.70761" lon="5.95725">
        <ele>630</ele>
        <time>2021-09-10T09:35:10.684Z</time>
      </trkpt>
      <trkpt lat="45.70757" lon="5.95731">
        <ele>630</ele>
        <time>2021-09-10T09:35:11.684Z</time>
      </trkpt>
      <trkpt lat="45.70752" lon="5.95737">
        <ele>630</ele>
        <time>2021-09-10T09:35:12.684Z</time>
      </trkpt>
      <trkpt lat="45.70747" lon="5.95742">
        <ele>630</ele>
        <time>2021-09-10T09:35:13.685Z</time>
      </trkpt>
      <trkpt lat="45.70742" lon="5.95748">
        <ele>629</ele>
        <time>2021-09-10T09:35:14.685Z</time>
      </trkpt>
      <trkpt lat="45.70735" lon="5.95754">
        <ele>629</ele>
        <time>2021-09-10T09:35:15.684Z</time>
      </trkpt>
      <trkpt lat="45.70731" lon="5.95759">
        <ele>628</ele>
        <time>2021-09-10T09:35:16.684Z</time>
      </trkpt>
      <trkpt lat="45.70725" lon="5.95765">
        <ele>628</ele>
        <time>2021-09-10T09:35:17.685Z</time>
      </trkpt>
      <trkpt lat="45.70719" lon="5.95771">
        <ele>628</ele>
        <time>2021-09-10T09:35:18.684Z</time>
      </trkpt>
      <trkpt lat="45.70712" lon="5.95777">
        <ele>628</ele>
        <time>2021-09-10T09:35:19.685Z</time>
      </trkpt>
      <trkpt lat="45.70706" lon="5.95782">
        <ele>628</ele>
        <time>2021-09-10T09:35:20.684Z</time>
      </trkpt>
      <trkpt lat="45.70699" lon="5.95788">
        <ele>628</ele>
        <time>2021-09-10T09:35:21.684Z</time>
      </trkpt>
      <trkpt lat="45.70692" lon="5.95794">
        <ele>628</ele>
        <time>2021-09-10T09:35:22.685Z</time>
      </trkpt>
      <trkpt lat="45.70685" lon="5.95799">
        <ele>628</ele>
        <time>2021-09-10T09:35:23.685Z</time>
      </trkpt>
      <trkpt lat="45.70678" lon="5.95804">
        <ele>628</ele>
        <time>2021-09-10T09:35:24.685Z</time>
      </trkpt>
      <trkpt lat="45.70671" lon="5.9581">
        <ele>629</ele>
        <time>2021-09-10T09:35:25.685Z</time>
      </trkpt>
      <trkpt lat="45.70664" lon="5.95816">
        <ele>629</ele>
        <time>2021-09-10T09:35:26.685Z</time>
      </trkpt>
      <trkpt lat="45.70658" lon="5.95823">
        <ele>629</ele>
        <time>2021-09-10T09:35:27.684Z</time>
      </trkpt>
      <trkpt lat="45.70653" lon="5.95831">
        <ele>629</ele>
        <time>2021-09-10T09:35:28.684Z</time>
      </trkpt>
      <trkpt lat="45.70648" lon="5.95839">
        <ele>629</ele>
        <time>2021-09-10T09:35:29.684Z</time>
      </trkpt>
      <trkpt lat="45.70643" lon="5.95847">
        <ele>629</ele>
        <time>2021-09-10T09:35:30.685Z</time>
      </trkpt>
      <trkpt lat="45.70639" lon="5.95856">
        <ele>628</ele>
        <time>2021-09-10T09:35:31.684Z</time>
      </trkpt>
      <trkpt lat="45.70635" lon="5.95865">
        <ele>628</ele>
        <time>2021-09-10T09:35:32.685Z</time>
      </trkpt>
      <trkpt lat="45.70632" lon="5.95874">
        <ele>627</ele>
        <time>2021-09-10T09:35:33.685Z</time>
      </trkpt>
      <trkpt lat="45.7063" lon="5.95883">
        <ele>627</ele>
        <time>2021-09-10T09:35:34.685Z</time>
      </trkpt>
      <trkpt lat="45.70628" lon="5.95892">
        <ele>627</ele>
        <time>2021-09-10T09:35:35.685Z</time>
      </trkpt>
      <trkpt lat="45.70625" lon="5.959">
        <ele>626</ele>
        <time>2021-09-10T09:35:36.684Z</time>
      </trkpt>
      <trkpt lat="45.70624" lon="5.95908">
        <ele>627</ele>
        <time>2021-09-10T09:35:37.684Z</time>
      </trkpt>
      <trkpt lat="45.70622" lon="5.95916">
        <ele>627</ele>
        <time>2021-09-10T09:35:38.684Z</time>
      </trkpt>
      <trkpt lat="45.7062" lon="5.95924">
        <ele>627</ele>
        <time>2021-09-10T09:35:39.685Z</time>
      </trkpt>
      <trkpt lat="45.70618" lon="5.95932">
        <ele>627</ele>
        <time>2021-09-10T09:35:40.685Z</time>
      </trkpt>
      <trkpt lat="45.70617" lon="5.95937">
        <ele>628</ele>
        <time>2021-09-10T09:35:41.684Z</time>
      </trkpt>
      <trkpt lat="45.70616" lon="5.95944">
        <ele>628</ele>
        <time>2021-09-10T09:35:42.684Z</time>
      </trkpt>
      <trkpt lat="45.70614" lon="5.95949">
        <ele>628</ele>
        <time>2021-09-10T09:35:43.685Z</time>
      </trkpt>
      <trkpt lat="45.70612" lon="5.95954">
        <ele>629</ele>
        <time>2021-09-10T09:35:44.685Z</time>
      </trkpt>
      <trkpt lat="45.70611" lon="5.95959">
        <ele>629</ele>
        <time>2021-09-10T09:35:45.684Z</time>
      </trkpt>
      <trkpt lat="45.70609" lon="5.95963">
        <ele>629</ele>
        <time>2021-09-10T09:35:46.684Z</time>
      </trkpt>
      <trkpt lat="45.70607" lon="5.95966">
        <ele>629</ele>
        <time>2021-09-10T09:35:47.684Z</time>
      </trkpt>
      <trkpt lat="45.70606" lon="5.9597">
        <ele>630</ele>
        <time>2021-09-10T09:35:48.684Z</time>
      </trkpt>
      <trkpt lat="45.70603" lon="5.95973">
        <ele>630</ele>
        <time>2021-09-10T09:35:49.685Z</time>
      </trkpt>
      <trkpt lat="45.70601" lon="5.95976">
        <ele>629</ele>
        <time>2021-09-10T09:35:50.685Z</time>
      </trkpt>
      <trkpt lat="45.70599" lon="5.95979">
        <ele>629</ele>
        <time>2021-09-10T09:35:51.685Z</time>
      </trkpt>
      <trkpt lat="45.70597" lon="5.95982">
        <ele>628</ele>
        <time>2021-09-10T09:35:52.684Z</time>
      </trkpt>
      <trkpt lat="45.70594" lon="5.95984">
        <ele>627</ele>
        <time>2021-09-10T09:35:53.684Z</time>
      </trkpt>
      <trkpt lat="45.70592" lon="5.95986">
        <ele>626</ele>
        <time>2021-09-10T09:35:54.684Z</time>
      </trkpt>
      <trkpt lat="45.7059" lon="5.95989">
        <ele>626</ele>
        <time>2021-09-10T09:35:55.684Z</time>
      </trkpt>
      <trkpt lat="45.70587" lon="5.95991">
        <ele>626</ele>
        <time>2021-09-10T09:35:56.684Z</time>
      </trkpt>
      <trkpt lat="45.70585" lon="5.95993">
        <ele>626</ele>
        <time>2021-09-10T09:35:57.684Z</time>
      </trkpt>
      <trkpt lat="45.70584" lon="5.95996">
        <ele>626</ele>
        <time>2021-09-10T09:35:58.685Z</time>
      </trkpt>
      <trkpt lat="45.70582" lon="5.95998">
        <ele>627</ele>
        <time>2021-09-10T09:35:59.684Z</time>
      </trkpt>
      <trkpt lat="45.70581" lon="5.96001">
        <ele>627</ele>
        <time>2021-09-10T09:36:00.685Z</time>
      </trkpt>
      <trkpt lat="45.70579" lon="5.96003">
        <ele>627</ele>
        <time>2021-09-10T09:36:01.685Z</time>
      </trkpt>
      <trkpt lat="45.70576" lon="5.96005">
        <ele>628</ele>
        <time>2021-09-10T09:36:02.685Z</time>
      </trkpt>
      <trkpt lat="45.70575" lon="5.96007">
        <ele>628</ele>
        <time>2021-09-10T09:36:03.685Z</time>
      </trkpt>
      <trkpt lat="45.70573" lon="5.96009">
        <ele>629</ele>
        <time>2021-09-10T09:36:04.684Z</time>
      </trkpt>
      <trkpt lat="45.70571" lon="5.96012">
        <ele>629</ele>
        <time>2021-09-10T09:36:05.685Z</time>
      </trkpt>
      <trkpt lat="45.70569" lon="5.96015">
        <ele>630</ele>
        <time>2021-09-10T09:36:06.685Z</time>
      </trkpt>
      <trkpt lat="45.70568" lon="5.96017">
        <ele>631</ele>
        <time>2021-09-10T09:36:07.685Z</time>
      </trkpt>
      <trkpt lat="45.70566" lon="5.96019">
        <ele>631</ele>
        <time>2021-09-10T09:36:08.684Z</time>
      </trkpt>
      <trkpt lat="45.70564" lon="5.96021">
        <ele>632</ele>
        <time>2021-09-10T09:36:09.684Z</time>
      </trkpt>
      <trkpt lat="45.70562" lon="5.96023">
        <ele>632</ele>
        <time>2021-09-10T09:36:10.685Z</time>
      </trkpt>
      <trkpt lat="45.7056" lon="5.96025">
        <ele>633</ele>
        <time>2021-09-10T09:36:11.684Z</time>
      </trkpt>
      <trkpt lat="45.70558" lon="5.96027">
        <ele>633</ele>
        <time>2021-09-10T09:36:12.685Z</time>
      </trkpt>
      <trkpt lat="45.70556" lon="5.96029">
        <ele>633</ele>
        <time>2021-09-10T09:36:13.685Z</time>
      </trkpt>
      <trkpt lat="45.70554" lon="5.96031">
        <ele>633</ele>
        <time>2021-09-10T09:36:14.684Z</time>
      </trkpt>
      <trkpt lat="45.70553" lon="5.96034">
        <ele>633</ele>
        <time>2021-09-10T09:36:15.685Z</time>
      </trkpt>
      <trkpt lat="45.70551" lon="5.96036">
        <ele>632</ele>
        <time>2021-09-10T09:36:16.685Z</time>
      </trkpt>
      <trkpt lat="45.7055" lon="5.96039">
        <ele>632</ele>
        <time>2021-09-10T09:36:17.685Z</time>
      </trkpt>
      <trkpt lat="45.70549" lon="5.96041">
        <ele>632</ele>
        <time>2021-09-10T09:36:18.685Z</time>
      </trkpt>
      <trkpt lat="45.70548" lon="5.96044">
        <ele>632</ele>
        <time>2021-09-10T09:36:19.685Z</time>
      </trkpt>
      <trkpt lat="45.70547" lon="5.96047">
        <ele>632</ele>
        <time>2021-09-10T09:36:20.685Z</time>
      </trkpt>
      <trkpt lat="45.70546" lon="5.9605">
        <ele>632</ele>
        <time>2021-09-10T09:36:21.684Z</time>
      </trkpt>
      <trkpt lat="45.70545" lon="5.96053">
        <ele>632</ele>
        <time>2021-09-10T09:36:22.685Z</time>
      </trkpt>
      <trkpt lat="45.70545" lon="5.96056">
        <ele>632</ele>
        <time>2021-09-10T09:36:23.685Z</time>
      </trkpt>
      <trkpt lat="45.70544" lon="5.96059">
        <ele>631</ele>
        <time>2021-09-10T09:36:24.685Z</time>
      </trkpt>
      <trkpt lat="45.70544" lon="5.96062">
        <ele>631</ele>
        <time>2021-09-10T09:36:25.685Z</time>
      </trkpt>
      <trkpt lat="45.70545" lon="5.96065">
        <ele>631</ele>
        <time>2021-09-10T09:36:26.685Z</time>
      </trkpt>
      <trkpt lat="45.70546" lon="5.96068">
        <ele>631</ele>
        <time>2021-09-10T09:36:27.685Z</time>
      </trkpt>
      <trkpt lat="45.70547" lon="5.9607">
        <ele>632</ele>
        <time>2021-09-10T09:36:28.685Z</time>
      </trkpt>
      <trkpt lat="45.70548" lon="5.96073">
        <ele>632</ele>
        <time>2021-09-10T09:36:29.684Z</time>
      </trkpt>
      <trkpt lat="45.70549" lon="5.96076">
        <ele>632</ele>
        <time>2021-09-10T09:36:30.684Z</time>
      </trkpt>
      <trkpt lat="45.7055" lon="5.96079">
        <ele>632</ele>
        <time>2021-09-10T09:36:31.685Z</time>
      </trkpt>
      <trkpt lat="45.70551" lon="5.96081">
        <ele>632</ele>
        <time>2021-09-10T09:36:32.685Z</time>
      </trkpt>
      <trkpt lat="45.70552" lon="5.96084">
        <ele>631</ele>
        <time>2021-09-10T09:36:33.685Z</time>
      </trkpt>
      <trkpt lat="45.70553" lon="5.96087">
        <ele>631</ele>
        <time>2021-09-10T09:36:34.684Z</time>
      </trkpt>
      <trkpt lat="45.70555" lon="5.96089">
        <ele>631</ele>
        <time>2021-09-10T09:36:35.685Z</time>
      </trkpt>
      <trkpt lat="45.70556" lon="5.96092">
        <ele>632</ele>
        <time>2021-09-10T09:36:36.685Z</time>
      </trkpt>
      <trkpt lat="45.70558" lon="5.96094">
        <ele>632</ele>
        <time>2021-09-10T09:36:37.685Z</time>
      </trkpt>
      <trkpt lat="45.70559" lon="5.96096">
        <ele>632</ele>
        <time>2021-09-10T09:36:38.685Z</time>
      </trkpt>
      <trkpt lat="45.70561" lon="5.96099">
        <ele>632</ele>
        <time>2021-09-10T09:36:39.685Z</time>
      </trkpt>
      <trkpt lat="45.70563" lon="5.96101">
        <ele>633</ele>
        <time>2021-09-10T09:36:40.684Z</time>
      </trkpt>
      <trkpt lat="45.70565" lon="5.96103">
        <ele>633</ele>
        <time>2021-09-10T09:36:41.685Z</time>
      </trkpt>
      <trkpt lat="45.70566" lon="5.96106">
        <ele>633</ele>
        <time>2021-09-10T09:36:42.684Z</time>
      </trkpt>
      <trkpt lat="45.70568" lon="5.96109">
        <ele>633</ele>
        <time>2021-09-10T09:36:43.685Z</time>
      </trkpt>
      <trkpt lat="45.7057" lon="5.96111">
        <ele>633</ele>
        <time>2021-09-10T09:36:48.710Z</time>
      </trkpt>
      <trkpt lat="45.70571" lon="5.96113">
        <ele>633</ele>
        <time>2021-09-10T09:36:49.709Z</time>
      </trkpt>
      <trkpt lat="45.70573" lon="5.96116">
        <ele>633</ele>
        <time>2021-09-10T09:36:50.710Z</time>
      </trkpt>
      <trkpt lat="45.70574" lon="5.96119">
        <ele>633</ele>
        <time>2021-09-10T09:37:27.730Z</time>
      </trkpt>
      <trkpt lat="45.70576" lon="5.96121">
        <ele>633</ele>
        <time>2021-09-10T09:37:28.731Z</time>
      </trkpt>
      <trkpt lat="45.70577" lon="5.96124">
        <ele>633</ele>
        <time>2021-09-10T09:37:29.731Z</time>
      </trkpt>
      <trkpt lat="45.70579" lon="5.96126">
        <ele>634</ele>
        <time>2021-09-10T09:37:30.730Z</time>
      </trkpt>
      <trkpt lat="45.7058" lon="5.96129">
        <ele>634</ele>
        <time>2021-09-10T09:37:31.731Z</time>
      </trkpt>
      <trkpt lat="45.70582" lon="5.96131">
        <ele>634</ele>
        <time>2021-09-10T09:37:32.731Z</time>
      </trkpt>
      <trkpt lat="45.70583" lon="5.96134">
        <ele>634</ele>
        <time>2021-09-10T09:37:33.731Z</time>
      </trkpt>
      <trkpt lat="45.70585" lon="5.96136">
        <ele>634</ele>
        <time>2021-09-10T09:37:34.730Z</time>
      </trkpt>
      <trkpt lat="45.70586" lon="5.96139">
        <ele>635</ele>
        <time>2021-09-10T09:37:35.730Z</time>
      </trkpt>
      <trkpt lat="45.70587" lon="5.96142">
        <ele>635</ele>
        <time>2021-09-10T09:37:36.731Z</time>
      </trkpt>
      <trkpt lat="45.70589" lon="5.96145">
        <ele>635</ele>
        <time>2021-09-10T09:37:37.731Z</time>
      </trkpt>
      <trkpt lat="45.7059" lon="5.96148">
        <ele>635</ele>
        <time>2021-09-10T09:37:38.731Z</time>
      </trkpt>
      <trkpt lat="45.70592" lon="5.9615">
        <ele>635</ele>
        <time>2021-09-10T09:37:39.731Z</time>
      </trkpt>
      <trkpt lat="45.70593" lon="5.96153">
        <ele>635</ele>
        <time>2021-09-10T09:37:40.731Z</time>
      </trkpt>
      <trkpt lat="45.70595" lon="5.96156">
        <ele>635</ele>
        <time>2021-09-10T09:37:41.731Z</time>
      </trkpt>
      <trkpt lat="45.70596" lon="5.96159">
        <ele>636</ele>
        <time>2021-09-10T09:37:42.731Z</time>
      </trkpt>
      <trkpt lat="45.70597" lon="5.96162">
        <ele>636</ele>
        <time>2021-09-10T09:37:43.731Z</time>
      </trkpt>
      <trkpt lat="45.70599" lon="5.96165">
        <ele>636</ele>
        <time>2021-09-10T09:37:44.731Z</time>
      </trkpt>
      <trkpt lat="45.706" lon="5.96168">
        <ele>636</ele>
        <time>2021-09-10T09:37:45.730Z</time>
      </trkpt>
      <trkpt lat="45.70601" lon="5.96171">
        <ele>636</ele>
        <time>2021-09-10T09:37:46.730Z</time>
      </trkpt>
      <trkpt lat="45.70602" lon="5.96174">
        <ele>636</ele>
        <time>2021-09-10T09:37:47.730Z</time>
      </trkpt>
      <trkpt lat="45.70604" lon="5.96177">
        <ele>636</ele>
        <time>2021-09-10T09:37:48.731Z</time>
      </trkpt>
      <trkpt lat="45.70605" lon="5.9618">
        <ele>636</ele>
        <time>2021-09-10T09:37:49.731Z</time>
      </trkpt>
      <trkpt lat="45.70606" lon="5.96183">
        <ele>636</ele>
        <time>2021-09-10T09:37:50.730Z</time>
      </trkpt>
      <trkpt lat="45.70607" lon="5.96187">
        <ele>636</ele>
        <time>2021-09-10T09:37:51.730Z</time>
      </trkpt>
      <trkpt lat="45.70608" lon="5.9619">
        <ele>636</ele>
        <time>2021-09-10T09:37:52.731Z</time>
      </trkpt>
      <trkpt lat="45.70609" lon="5.96193">
        <ele>636</ele>
        <time>2021-09-10T09:37:53.730Z</time>
      </trkpt>
      <trkpt lat="45.7061" lon="5.96196">
        <ele>637</ele>
        <time>2021-09-10T09:37:54.730Z</time>
      </trkpt>
      <trkpt lat="45.70611" lon="5.96199">
        <ele>637</ele>
        <time>2021-09-10T09:37:55.730Z</time>
      </trkpt>
      <trkpt lat="45.70612" lon="5.96202">
        <ele>638</ele>
        <time>2021-09-10T09:37:56.731Z</time>
      </trkpt>
      <trkpt lat="45.70612" lon="5.96205">
        <ele>638</ele>
        <time>2021-09-10T09:37:57.731Z</time>
      </trkpt>
      <trkpt lat="45.70613" lon="5.96209">
        <ele>638</ele>
        <time>2021-09-10T09:37:58.731Z</time>
      </trkpt>
      <trkpt lat="45.70613" lon="5.96212">
        <ele>638</ele>
        <time>2021-09-10T09:37:59.731Z</time>
      </trkpt>
      <trkpt lat="45.70614" lon="5.96214">
        <ele>639</ele>
        <time>2021-09-10T09:38:00.730Z</time>
      </trkpt>
      <trkpt lat="45.70615" lon="5.96217">
        <ele>640</ele>
        <time>2021-09-10T09:38:01.731Z</time>
      </trkpt>
      <trkpt lat="45.70616" lon="5.96221">
        <ele>640</ele>
        <time>2021-09-10T09:38:02.731Z</time>
      </trkpt>
      <trkpt lat="45.70616" lon="5.96224">
        <ele>641</ele>
        <time>2021-09-10T09:38:03.731Z</time>
      </trkpt>
      <trkpt lat="45.70617" lon="5.96227">
        <ele>642</ele>
        <time>2021-09-10T09:38:04.731Z</time>
      </trkpt>
      <trkpt lat="45.70617" lon="5.9623">
        <ele>642</ele>
        <time>2021-09-10T09:38:05.731Z</time>
      </trkpt>
      <trkpt lat="45.70618" lon="5.96233">
        <ele>643</ele>
        <time>2021-09-10T09:38:06.731Z</time>
      </trkpt>
      <trkpt lat="45.70619" lon="5.96236">
        <ele>643</ele>
        <time>2021-09-10T09:38:07.731Z</time>
      </trkpt>
      <trkpt lat="45.7062" lon="5.96239">
        <ele>643</ele>
        <time>2021-09-10T09:38:08.731Z</time>
      </trkpt>
      <trkpt lat="45.70621" lon="5.96242">
        <ele>643</ele>
        <time>2021-09-10T09:38:09.731Z</time>
      </trkpt>
      <trkpt lat="45.70622" lon="5.96245">
        <ele>644</ele>
        <time>2021-09-10T09:38:10.731Z</time>
      </trkpt>
      <trkpt lat="45.70623" lon="5.96248">
        <ele>643</ele>
        <time>2021-09-10T09:38:11.731Z</time>
      </trkpt>
      <trkpt lat="45.70625" lon="5.96251">
        <ele>643</ele>
        <time>2021-09-10T09:38:12.731Z</time>
      </trkpt>
      <trkpt lat="45.70626" lon="5.96253">
        <ele>643</ele>
        <time>2021-09-10T09:38:13.731Z</time>
      </trkpt>
      <trkpt lat="45.70627" lon="5.96256">
        <ele>643</ele>
        <time>2021-09-10T09:38:14.731Z</time>
      </trkpt>
      <trkpt lat="45.70628" lon="5.96259">
        <ele>643</ele>
        <time>2021-09-10T09:38:15.730Z</time>
      </trkpt>
      <trkpt lat="45.70629" lon="5.96262">
        <ele>643</ele>
        <time>2021-09-10T09:38:16.731Z</time>
      </trkpt>
      <trkpt lat="45.7063" lon="5.96265">
        <ele>643</ele>
        <time>2021-09-10T09:38:17.731Z</time>
      </trkpt>
      <trkpt lat="45.70631" lon="5.96267">
        <ele>643</ele>
        <time>2021-09-10T09:38:18.731Z</time>
      </trkpt>
      <trkpt lat="45.70632" lon="5.96268">
        <ele>643</ele>
        <time>2021-09-10T09:38:19.730Z</time>
      </trkpt>
      <trkpt lat="45.70633" lon="5.96268">
        <ele>643</ele>
        <time>2021-09-10T09:38:20.730Z</time>
      </trkpt>
      <trkpt lat="45.70634" lon="5.96269">
        <ele>643</ele>
        <time>2021-09-10T09:38:21.731Z</time>
      </trkpt>
      <trkpt lat="45.70636" lon="5.9627">
        <ele>643</ele>
        <time>2021-09-10T09:38:22.731Z</time>
      </trkpt>
      <trkpt lat="45.70637" lon="5.96271">
        <ele>643</ele>
        <time>2021-09-10T09:38:23.731Z</time>
      </trkpt>
      <trkpt lat="45.70638" lon="5.96273">
        <ele>643</ele>
        <time>2021-09-10T09:38:24.730Z</time>
      </trkpt>
      <trkpt lat="45.70639" lon="5.96275">
        <ele>643</ele>
        <time>2021-09-10T09:38:25.730Z</time>
      </trkpt>
      <trkpt lat="45.7064" lon="5.96276">
        <ele>643</ele>
        <time>2021-09-10T09:38:26.731Z</time>
      </trkpt>
      <trkpt lat="45.70641" lon="5.96278">
        <ele>643</ele>
        <time>2021-09-10T09:38:27.731Z</time>
      </trkpt>
      <trkpt lat="45.70642" lon="5.9628">
        <ele>642</ele>
        <time>2021-09-10T09:38:28.731Z</time>
      </trkpt>
      <trkpt lat="45.70643" lon="5.96282">
        <ele>642</ele>
        <time>2021-09-10T09:38:29.731Z</time>
      </trkpt>
      <trkpt lat="45.70644" lon="5.96284">
        <ele>642</ele>
        <time>2021-09-10T09:38:30.731Z</time>
      </trkpt>
      <trkpt lat="45.70645" lon="5.96287">
        <ele>641</ele>
        <time>2021-09-10T09:38:31.731Z</time>
      </trkpt>
      <trkpt lat="45.70646" lon="5.96289">
        <ele>641</ele>
        <time>2021-09-10T09:38:32.731Z</time>
      </trkpt>
      <trkpt lat="45.70648" lon="5.96292">
        <ele>641</ele>
        <time>2021-09-10T09:38:33.731Z</time>
      </trkpt>
      <trkpt lat="45.70649" lon="5.96295">
        <ele>641</ele>
        <time>2021-09-10T09:38:34.731Z</time>
      </trkpt>
      <trkpt lat="45.7065" lon="5.96297">
        <ele>642</ele>
        <time>2021-09-10T09:38:35.731Z</time>
      </trkpt>
      <trkpt lat="45.70651" lon="5.963">
        <ele>642</ele>
        <time>2021-09-10T09:38:36.731Z</time>
      </trkpt>
      <trkpt lat="45.70653" lon="5.96302">
        <ele>642</ele>
        <time>2021-09-10T09:38:37.731Z</time>
      </trkpt>
      <trkpt lat="45.70655" lon="5.96305">
        <ele>642</ele>
        <time>2021-09-10T09:38:38.731Z</time>
      </trkpt>
      <trkpt lat="45.70656" lon="5.96307">
        <ele>642</ele>
        <time>2021-09-10T09:38:39.731Z</time>
      </trkpt>
      <trkpt lat="45.70657" lon="5.9631">
        <ele>642</ele>
        <time>2021-09-10T09:38:47.858Z</time>
      </trkpt>
      <trkpt lat="45.70659" lon="5.96313">
        <ele>642</ele>
        <time>2021-09-10T09:38:49.710Z</time>
      </trkpt>
      <trkpt lat="45.7066" lon="5.96316">
        <ele>642</ele>
        <time>2021-09-10T09:38:50.711Z</time>
      </trkpt>
      <trkpt lat="45.70662" lon="5.96319">
        <ele>642</ele>
        <time>2021-09-10T09:38:51.711Z</time>
      </trkpt>
      <trkpt lat="45.70663" lon="5.96322">
        <ele>642</ele>
        <time>2021-09-10T09:39:27.869Z</time>
      </trkpt>
      <trkpt lat="45.70665" lon="5.96325">
        <ele>642</ele>
        <time>2021-09-10T09:39:28.870Z</time>
      </trkpt>
      <trkpt lat="45.70666" lon="5.96328">
        <ele>642</ele>
        <time>2021-09-10T09:39:29.869Z</time>
      </trkpt>
      <trkpt lat="45.70668" lon="5.96331">
        <ele>642</ele>
        <time>2021-09-10T09:39:30.870Z</time>
      </trkpt>
      <trkpt lat="45.7067" lon="5.96334">
        <ele>642</ele>
        <time>2021-09-10T09:39:31.870Z</time>
      </trkpt>
      <trkpt lat="45.70671" lon="5.96336">
        <ele>642</ele>
        <time>2021-09-10T09:39:32.870Z</time>
      </trkpt>
      <trkpt lat="45.70673" lon="5.9634">
        <ele>642</ele>
        <time>2021-09-10T09:39:33.869Z</time>
      </trkpt>
      <trkpt lat="45.70674" lon="5.96343">
        <ele>642</ele>
        <time>2021-09-10T09:39:34.870Z</time>
      </trkpt>
      <trkpt lat="45.70676" lon="5.96346">
        <ele>643</ele>
        <time>2021-09-10T09:39:35.870Z</time>
      </trkpt>
      <trkpt lat="45.70677" lon="5.96349">
        <ele>642</ele>
        <time>2021-09-10T09:39:36.870Z</time>
      </trkpt>
      <trkpt lat="45.70678" lon="5.96352">
        <ele>642</ele>
        <time>2021-09-10T09:39:37.870Z</time>
      </trkpt>
      <trkpt lat="45.7068" lon="5.96355">
        <ele>642</ele>
        <time>2021-09-10T09:39:38.870Z</time>
      </trkpt>
      <trkpt lat="45.70682" lon="5.96358">
        <ele>642</ele>
        <time>2021-09-10T09:39:39.870Z</time>
      </trkpt>
      <trkpt lat="45.70683" lon="5.96361">
        <ele>642</ele>
        <time>2021-09-10T09:39:40.870Z</time>
      </trkpt>
      <trkpt lat="45.70685" lon="5.96363">
        <ele>643</ele>
        <time>2021-09-10T09:39:41.870Z</time>
      </trkpt>
      <trkpt lat="45.70686" lon="5.96367">
        <ele>643</ele>
        <time>2021-09-10T09:39:42.870Z</time>
      </trkpt>
      <trkpt lat="45.70688" lon="5.9637">
        <ele>643</ele>
        <time>2021-09-10T09:39:43.870Z</time>
      </trkpt>
      <trkpt lat="45.70689" lon="5.96374">
        <ele>643</ele>
        <time>2021-09-10T09:39:44.870Z</time>
      </trkpt>
      <trkpt lat="45.70691" lon="5.96377">
        <ele>643</ele>
        <time>2021-09-10T09:39:45.870Z</time>
      </trkpt>
      <trkpt lat="45.70692" lon="5.9638">
        <ele>643</ele>
        <time>2021-09-10T09:39:46.870Z</time>
      </trkpt>
      <trkpt lat="45.70694" lon="5.96383">
        <ele>643</ele>
        <time>2021-09-10T09:39:47.870Z</time>
      </trkpt>
      <trkpt lat="45.70695" lon="5.96386">
        <ele>643</ele>
        <time>2021-09-10T09:39:48.870Z</time>
      </trkpt>
      <trkpt lat="45.70697" lon="5.9639">
        <ele>643</ele>
        <time>2021-09-10T09:39:49.870Z</time>
      </trkpt>
      <trkpt lat="45.70698" lon="5.96393">
        <ele>643</ele>
        <time>2021-09-10T09:39:50.870Z</time>
      </trkpt>
      <trkpt lat="45.70699" lon="5.96396">
        <ele>643</ele>
        <time>2021-09-10T09:39:51.869Z</time>
      </trkpt>
      <trkpt lat="45.70701" lon="5.964">
        <ele>643</ele>
        <time>2021-09-10T09:39:52.869Z</time>
      </trkpt>
      <trkpt lat="45.70702" lon="5.96403">
        <ele>643</ele>
        <time>2021-09-10T09:39:53.870Z</time>
      </trkpt>
      <trkpt lat="45.70703" lon="5.96405">
        <ele>643</ele>
        <time>2021-09-10T09:39:54.869Z</time>
      </trkpt>
      <trkpt lat="45.70704" lon="5.96408">
        <ele>643</ele>
        <time>2021-09-10T09:39:55.870Z</time>
      </trkpt>
      <trkpt lat="45.70706" lon="5.96412">
        <ele>643</ele>
        <time>2021-09-10T09:39:56.870Z</time>
      </trkpt>
      <trkpt lat="45.70707" lon="5.96415">
        <ele>643</ele>
        <time>2021-09-10T09:39:57.870Z</time>
      </trkpt>
      <trkpt lat="45.70709" lon="5.96419">
        <ele>642</ele>
        <time>2021-09-10T09:39:58.869Z</time>
      </trkpt>
      <trkpt lat="45.7071" lon="5.96423">
        <ele>642</ele>
        <time>2021-09-10T09:39:59.870Z</time>
      </trkpt>
      <trkpt lat="45.70712" lon="5.96427">
        <ele>642</ele>
        <time>2021-09-10T09:40:00.869Z</time>
      </trkpt>
      <trkpt lat="45.70714" lon="5.9643">
        <ele>642</ele>
        <time>2021-09-10T09:40:01.870Z</time>
      </trkpt>
      <trkpt lat="45.70716" lon="5.96435">
        <ele>642</ele>
        <time>2021-09-10T09:40:02.870Z</time>
      </trkpt>
      <trkpt lat="45.70717" lon="5.96438">
        <ele>642</ele>
        <time>2021-09-10T09:40:03.869Z</time>
      </trkpt>
      <trkpt lat="45.70719" lon="5.96442">
        <ele>642</ele>
        <time>2021-09-10T09:40:04.870Z</time>
      </trkpt>
      <trkpt lat="45.70721" lon="5.96446">
        <ele>642</ele>
        <time>2021-09-10T09:40:05.869Z</time>
      </trkpt>
      <trkpt lat="45.70723" lon="5.9645">
        <ele>642</ele>
        <time>2021-09-10T09:40:06.870Z</time>
      </trkpt>
      <trkpt lat="45.70725" lon="5.96454">
        <ele>643</ele>
        <time>2021-09-10T09:40:07.870Z</time>
      </trkpt>
      <trkpt lat="45.70726" lon="5.96457">
        <ele>643</ele>
        <time>2021-09-10T09:40:08.870Z</time>
      </trkpt>
      <trkpt lat="45.70728" lon="5.9646">
        <ele>643</ele>
        <time>2021-09-10T09:40:09.869Z</time>
      </trkpt>
      <trkpt lat="45.7073" lon="5.96465">
        <ele>642</ele>
        <time>2021-09-10T09:40:10.870Z</time>
      </trkpt>
      <trkpt lat="45.70732" lon="5.96469">
        <ele>642</ele>
        <time>2021-09-10T09:40:11.870Z</time>
      </trkpt>
      <trkpt lat="45.70734" lon="5.96474">
        <ele>642</ele>
        <time>2021-09-10T09:40:12.869Z</time>
      </trkpt>
      <trkpt lat="45.70736" lon="5.96478">
        <ele>642</ele>
        <time>2021-09-10T09:40:13.870Z</time>
      </trkpt>
      <trkpt lat="45.70739" lon="5.96482">
        <ele>642</ele>
        <time>2021-09-10T09:40:14.870Z</time>
      </trkpt>
      <trkpt lat="45.70741" lon="5.96486">
        <ele>642</ele>
        <time>2021-09-10T09:40:15.870Z</time>
      </trkpt>
      <trkpt lat="45.70743" lon="5.96491">
        <ele>642</ele>
        <time>2021-09-10T09:40:16.870Z</time>
      </trkpt>
      <trkpt lat="45.70745" lon="5.96495">
        <ele>642</ele>
        <time>2021-09-10T09:40:17.870Z</time>
      </trkpt>
      <trkpt lat="45.70747" lon="5.96499">
        <ele>642</ele>
        <time>2021-09-10T09:40:18.870Z</time>
      </trkpt>
      <trkpt lat="45.70749" lon="5.96504">
        <ele>642</ele>
        <time>2021-09-10T09:40:19.870Z</time>
      </trkpt>
      <trkpt lat="45.70751" lon="5.96509">
        <ele>642</ele>
        <time>2021-09-10T09:40:20.870Z</time>
      </trkpt>
      <trkpt lat="45.70753" lon="5.96514">
        <ele>642</ele>
        <time>2021-09-10T09:40:21.869Z</time>
      </trkpt>
      <trkpt lat="45.70756" lon="5.96519">
        <ele>642</ele>
        <time>2021-09-10T09:40:22.870Z</time>
      </trkpt>
      <trkpt lat="45.70757" lon="5.96524">
        <ele>642</ele>
        <time>2021-09-10T09:40:23.870Z</time>
      </trkpt>
      <trkpt lat="45.7076" lon="5.9653">
        <ele>642</ele>
        <time>2021-09-10T09:40:24.870Z</time>
      </trkpt>
      <trkpt lat="45.70762" lon="5.96535">
        <ele>642</ele>
        <time>2021-09-10T09:40:47.991Z</time>
      </trkpt>
      <trkpt lat="45.70765" lon="5.9654">
        <ele>642</ele>
        <time>2021-09-10T09:40:48.990Z</time>
      </trkpt>
      <trkpt lat="45.70767" lon="5.96545">
        <ele>642</ele>
        <time>2021-09-10T09:40:49.991Z</time>
      </trkpt>
      <trkpt lat="45.7077" lon="5.96551">
        <ele>642</ele>
        <time>2021-09-10T09:40:50.990Z</time>
      </trkpt>
      <trkpt lat="45.70773" lon="5.96557">
        <ele>642</ele>
        <time>2021-09-10T09:40:51.990Z</time>
      </trkpt>
      <trkpt lat="45.70776" lon="5.96562">
        <ele>643</ele>
        <time>2021-09-10T09:40:52.990Z</time>
      </trkpt>
      <trkpt lat="45.70778" lon="5.96567">
        <ele>643</ele>
        <time>2021-09-10T09:40:53.991Z</time>
      </trkpt>
      <trkpt lat="45.7078" lon="5.96572">
        <ele>643</ele>
        <time>2021-09-10T09:40:54.991Z</time>
      </trkpt>
      <trkpt lat="45.70783" lon="5.96579">
        <ele>643</ele>
        <time>2021-09-10T09:40:55.991Z</time>
      </trkpt>
      <trkpt lat="45.70786" lon="5.96585">
        <ele>643</ele>
        <time>2021-09-10T09:40:56.991Z</time>
      </trkpt>
      <trkpt lat="45.70789" lon="5.96591">
        <ele>644</ele>
        <time>2021-09-10T09:40:57.991Z</time>
      </trkpt>
      <trkpt lat="45.70792" lon="5.96596">
        <ele>644</ele>
        <time>2021-09-10T09:40:58.991Z</time>
      </trkpt>
      <trkpt lat="45.70794" lon="5.966">
        <ele>644</ele>
        <time>2021-09-10T09:40:59.990Z</time>
      </trkpt>
      <trkpt lat="45.70798" lon="5.96606">
        <ele>644</ele>
        <time>2021-09-10T09:41:00.990Z</time>
      </trkpt>
      <trkpt lat="45.70801" lon="5.96611">
        <ele>644</ele>
        <time>2021-09-10T09:41:01.991Z</time>
      </trkpt>
      <trkpt lat="45.70804" lon="5.96616">
        <ele>645</ele>
        <time>2021-09-10T09:41:02.990Z</time>
      </trkpt>
      <trkpt lat="45.70806" lon="5.9662">
        <ele>644</ele>
        <time>2021-09-10T09:41:03.990Z</time>
      </trkpt>
      <trkpt lat="45.70809" lon="5.96625">
        <ele>644</ele>
        <time>2021-09-10T09:41:04.990Z</time>
      </trkpt>
      <trkpt lat="45.70812" lon="5.96629">
        <ele>644</ele>
        <time>2021-09-10T09:41:05.990Z</time>
      </trkpt>
      <trkpt lat="45.70814" lon="5.96633">
        <ele>644</ele>
        <time>2021-09-10T09:41:06.991Z</time>
      </trkpt>
      <trkpt lat="45.70818" lon="5.96638">
        <ele>644</ele>
        <time>2021-09-10T09:41:07.990Z</time>
      </trkpt>
      <trkpt lat="45.70821" lon="5.96643">
        <ele>644</ele>
        <time>2021-09-10T09:41:08.991Z</time>
      </trkpt>
      <trkpt lat="45.70825" lon="5.96647">
        <ele>644</ele>
        <time>2021-09-10T09:41:09.991Z</time>
      </trkpt>
      <trkpt lat="45.70828" lon="5.96652">
        <ele>644</ele>
        <time>2021-09-10T09:41:10.991Z</time>
      </trkpt>
      <trkpt lat="45.70831" lon="5.96656">
        <ele>644</ele>
        <time>2021-09-10T09:41:11.990Z</time>
      </trkpt>
      <trkpt lat="45.70834" lon="5.96661">
        <ele>644</ele>
        <time>2021-09-10T09:41:12.991Z</time>
      </trkpt>
      <trkpt lat="45.70838" lon="5.96665">
        <ele>644</ele>
        <time>2021-09-10T09:41:13.990Z</time>
      </trkpt>
      <trkpt lat="45.70842" lon="5.96671">
        <ele>644</ele>
        <time>2021-09-10T09:41:14.990Z</time>
      </trkpt>
      <trkpt lat="45.70845" lon="5.96676">
        <ele>644</ele>
        <time>2021-09-10T09:41:15.990Z</time>
      </trkpt>
      <trkpt lat="45.70848" lon="5.9668">
        <ele>644</ele>
        <time>2021-09-10T09:41:16.991Z</time>
      </trkpt>
      <trkpt lat="45.70851" lon="5.96685">
        <ele>644</ele>
        <time>2021-09-10T09:41:17.991Z</time>
      </trkpt>
      <trkpt lat="45.70855" lon="5.9669">
        <ele>644</ele>
        <time>2021-09-10T09:41:18.991Z</time>
      </trkpt>
      <trkpt lat="45.70858" lon="5.96695">
        <ele>644</ele>
        <time>2021-09-10T09:41:19.991Z</time>
      </trkpt>
      <trkpt lat="45.70861" lon="5.967">
        <ele>644</ele>
        <time>2021-09-10T09:41:20.991Z</time>
      </trkpt>
      <trkpt lat="45.70864" lon="5.96705">
        <ele>644</ele>
        <time>2021-09-10T09:41:21.991Z</time>
      </trkpt>
      <trkpt lat="45.70867" lon="5.9671">
        <ele>644</ele>
        <time>2021-09-10T09:41:22.990Z</time>
      </trkpt>
      <trkpt lat="45.7087" lon="5.96716">
        <ele>644</ele>
        <time>2021-09-10T09:41:23.991Z</time>
      </trkpt>
      <trkpt lat="45.70873" lon="5.96722">
        <ele>644</ele>
        <time>2021-09-10T09:41:24.991Z</time>
      </trkpt>
      <trkpt lat="45.70876" lon="5.96727">
        <ele>644</ele>
        <time>2021-09-10T09:41:25.991Z</time>
      </trkpt>
      <trkpt lat="45.70879" lon="5.96733">
        <ele>644</ele>
        <time>2021-09-10T09:41:26.991Z</time>
      </trkpt>
      <trkpt lat="45.70882" lon="5.96738">
        <ele>645</ele>
        <time>2021-09-10T09:41:27.991Z</time>
      </trkpt>
      <trkpt lat="45.70885" lon="5.96744">
        <ele>645</ele>
        <time>2021-09-10T09:41:28.991Z</time>
      </trkpt>
      <trkpt lat="45.70888" lon="5.96749">
        <ele>645</ele>
        <time>2021-09-10T09:41:29.990Z</time>
      </trkpt>
      <trkpt lat="45.70891" lon="5.96755">
        <ele>645</ele>
        <time>2021-09-10T09:41:30.990Z</time>
      </trkpt>
      <trkpt lat="45.70893" lon="5.9676">
        <ele>645</ele>
        <time>2021-09-10T09:41:31.991Z</time>
      </trkpt>
      <trkpt lat="45.70896" lon="5.96766">
        <ele>644</ele>
        <time>2021-09-10T09:41:32.991Z</time>
      </trkpt>
      <trkpt lat="45.70899" lon="5.96771">
        <ele>644</ele>
        <time>2021-09-10T09:41:33.991Z</time>
      </trkpt>
      <trkpt lat="45.70901" lon="5.96777">
        <ele>644</ele>
        <time>2021-09-10T09:41:34.991Z</time>
      </trkpt>
      <trkpt lat="45.70904" lon="5.96783">
        <ele>643</ele>
        <time>2021-09-10T09:41:35.991Z</time>
      </trkpt>
      <trkpt lat="45.70907" lon="5.96789">
        <ele>643</ele>
        <time>2021-09-10T09:41:36.991Z</time>
      </trkpt>
      <trkpt lat="45.7091" lon="5.96795">
        <ele>643</ele>
        <time>2021-09-10T09:41:37.991Z</time>
      </trkpt>
      <trkpt lat="45.70912" lon="5.96801">
        <ele>642</ele>
        <time>2021-09-10T09:41:38.991Z</time>
      </trkpt>
      <trkpt lat="45.70915" lon="5.96807">
        <ele>642</ele>
        <time>2021-09-10T09:41:39.991Z</time>
      </trkpt>
      <trkpt lat="45.70919" lon="5.96814">
        <ele>643</ele>
        <time>2021-09-10T09:41:40.991Z</time>
      </trkpt>
      <trkpt lat="45.70922" lon="5.96821">
        <ele>643</ele>
        <time>2021-09-10T09:41:41.991Z</time>
      </trkpt>
      <trkpt lat="45.70924" lon="5.96827">
        <ele>643</ele>
        <time>2021-09-10T09:41:42.990Z</time>
      </trkpt>
      <trkpt lat="45.70927" lon="5.96834">
        <ele>643</ele>
        <time>2021-09-10T09:41:43.991Z</time>
      </trkpt>
      <trkpt lat="45.7093" lon="5.96842">
        <ele>643</ele>
        <time>2021-09-10T09:41:44.991Z</time>
      </trkpt>
      <trkpt lat="45.70932" lon="5.96849">
        <ele>643</ele>
        <time>2021-09-10T09:41:45.990Z</time>
      </trkpt>
      <trkpt lat="45.70935" lon="5.96857">
        <ele>643</ele>
        <time>2021-09-10T09:41:46.991Z</time>
      </trkpt>
      <trkpt lat="45.70938" lon="5.96864">
        <ele>643</ele>
        <time>2021-09-10T09:41:47.991Z</time>
      </trkpt>
      <trkpt lat="45.70941" lon="5.96872">
        <ele>643</ele>
        <time>2021-09-10T09:41:48.990Z</time>
      </trkpt>
      <trkpt lat="45.70943" lon="5.9688">
        <ele>642</ele>
        <time>2021-09-10T09:41:49.990Z</time>
      </trkpt>
      <trkpt lat="45.70946" lon="5.96889">
        <ele>642</ele>
        <time>2021-09-10T09:41:50.991Z</time>
      </trkpt>
      <trkpt lat="45.70949" lon="5.96898">
        <ele>641</ele>
        <time>2021-09-10T09:41:51.991Z</time>
      </trkpt>
      <trkpt lat="45.70951" lon="5.96906">
        <ele>641</ele>
        <time>2021-09-10T09:41:52.991Z</time>
      </trkpt>
      <trkpt lat="45.70953" lon="5.96915">
        <ele>640</ele>
        <time>2021-09-10T09:41:53.991Z</time>
      </trkpt>
      <trkpt lat="45.70955" lon="5.96924">
        <ele>640</ele>
        <time>2021-09-10T09:41:54.991Z</time>
      </trkpt>
      <trkpt lat="45.70957" lon="5.96934">
        <ele>640</ele>
        <time>2021-09-10T09:41:55.990Z</time>
      </trkpt>
      <trkpt lat="45.70959" lon="5.96943">
        <ele>640</ele>
        <time>2021-09-10T09:41:56.990Z</time>
      </trkpt>
      <trkpt lat="45.70961" lon="5.96952">
        <ele>640</ele>
        <time>2021-09-10T09:41:57.991Z</time>
      </trkpt>
      <trkpt lat="45.70963" lon="5.9696">
        <ele>640</ele>
        <time>2021-09-10T09:41:58.991Z</time>
      </trkpt>
      <trkpt lat="45.70965" lon="5.96968">
        <ele>641</ele>
        <time>2021-09-10T09:41:59.990Z</time>
      </trkpt>
      <trkpt lat="45.70967" lon="5.96979">
        <ele>641</ele>
        <time>2021-09-10T09:42:00.991Z</time>
      </trkpt>
      <trkpt lat="45.70969" lon="5.96988">
        <ele>641</ele>
        <time>2021-09-10T09:42:01.990Z</time>
      </trkpt>
      <trkpt lat="45.7097" lon="5.96996">
        <ele>641</ele>
        <time>2021-09-10T09:42:02.990Z</time>
      </trkpt>
      <trkpt lat="45.70972" lon="5.97004">
        <ele>641</ele>
        <time>2021-09-10T09:42:03.990Z</time>
      </trkpt>
      <trkpt lat="45.70973" lon="5.97012">
        <ele>640</ele>
        <time>2021-09-10T09:42:04.991Z</time>
      </trkpt>
      <trkpt lat="45.70974" lon="5.9702">
        <ele>640</ele>
        <time>2021-09-10T09:42:05.990Z</time>
      </trkpt>
      <trkpt lat="45.70975" lon="5.97029">
        <ele>639</ele>
        <time>2021-09-10T09:42:06.991Z</time>
      </trkpt>
      <trkpt lat="45.70977" lon="5.97037">
        <ele>639</ele>
        <time>2021-09-10T09:42:07.991Z</time>
      </trkpt>
      <trkpt lat="45.70978" lon="5.97045">
        <ele>639</ele>
        <time>2021-09-10T09:42:08.991Z</time>
      </trkpt>
      <trkpt lat="45.7098" lon="5.97054">
        <ele>638</ele>
        <time>2021-09-10T09:42:09.991Z</time>
      </trkpt>
      <trkpt lat="45.70982" lon="5.97061">
        <ele>638</ele>
        <time>2021-09-10T09:42:10.990Z</time>
      </trkpt>
      <trkpt lat="45.70984" lon="5.97069">
        <ele>638</ele>
        <time>2021-09-10T09:42:11.991Z</time>
      </trkpt>
      <trkpt lat="45.70986" lon="5.97076">
        <ele>638</ele>
        <time>2021-09-10T09:42:12.990Z</time>
      </trkpt>
      <trkpt lat="45.70988" lon="5.97083">
        <ele>638</ele>
        <time>2021-09-10T09:42:13.991Z</time>
      </trkpt>
      <trkpt lat="45.70992" lon="5.97093">
        <ele>637</ele>
        <time>2021-09-10T09:42:14.991Z</time>
      </trkpt>
      <trkpt lat="45.70995" lon="5.971">
        <ele>637</ele>
        <time>2021-09-10T09:42:15.990Z</time>
      </trkpt>
      <trkpt lat="45.70998" lon="5.97107">
        <ele>637</ele>
        <time>2021-09-10T09:42:16.991Z</time>
      </trkpt>
      <trkpt lat="45.71002" lon="5.97114">
        <ele>637</ele>
        <time>2021-09-10T09:42:17.990Z</time>
      </trkpt>
      <trkpt lat="45.71005" lon="5.9712">
        <ele>636</ele>
        <time>2021-09-10T09:42:18.990Z</time>
      </trkpt>
      <trkpt lat="45.71009" lon="5.97128">
        <ele>636</ele>
        <time>2021-09-10T09:42:19.991Z</time>
      </trkpt>
      <trkpt lat="45.71013" lon="5.97135">
        <ele>636</ele>
        <time>2021-09-10T09:42:20.991Z</time>
      </trkpt>
      <trkpt lat="45.71017" lon="5.97143">
        <ele>636</ele>
        <time>2021-09-10T09:42:21.991Z</time>
      </trkpt>
      <trkpt lat="45.7102" lon="5.9715">
        <ele>636</ele>
        <time>2021-09-10T09:42:22.991Z</time>
      </trkpt>
      <trkpt lat="45.71024" lon="5.97158">
        <ele>636</ele>
        <time>2021-09-10T09:42:23.991Z</time>
      </trkpt>
      <trkpt lat="45.71028" lon="5.97165">
        <ele>636</ele>
        <time>2021-09-10T09:42:24.990Z</time>
      </trkpt>
      <trkpt lat="45.71032" lon="5.97173">
        <ele>636</ele>
        <time>2021-09-10T09:42:25.991Z</time>
      </trkpt>
      <trkpt lat="45.71035" lon="5.9718">
        <ele>635</ele>
        <time>2021-09-10T09:42:26.991Z</time>
      </trkpt>
      <trkpt lat="45.7104" lon="5.97188">
        <ele>635</ele>
        <time>2021-09-10T09:42:27.991Z</time>
      </trkpt>
      <trkpt lat="45.71044" lon="5.97196">
        <ele>635</ele>
        <time>2021-09-10T09:42:28.991Z</time>
      </trkpt>
      <trkpt lat="45.71048" lon="5.97203">
        <ele>635</ele>
        <time>2021-09-10T09:42:29.991Z</time>
      </trkpt>
      <trkpt lat="45.71052" lon="5.97211">
        <ele>634</ele>
        <time>2021-09-10T09:42:30.991Z</time>
      </trkpt>
      <trkpt lat="45.71056" lon="5.97218">
        <ele>634</ele>
        <time>2021-09-10T09:42:31.991Z</time>
      </trkpt>
      <trkpt lat="45.71059" lon="5.97226">
        <ele>634</ele>
        <time>2021-09-10T09:42:32.991Z</time>
      </trkpt>
      <trkpt lat="45.71063" lon="5.97235">
        <ele>633</ele>
        <time>2021-09-10T09:42:33.991Z</time>
      </trkpt>
      <trkpt lat="45.71068" lon="5.97243">
        <ele>633</ele>
        <time>2021-09-10T09:42:34.991Z</time>
      </trkpt>
      <trkpt lat="45.71071" lon="5.9725">
        <ele>633</ele>
        <time>2021-09-10T09:42:35.991Z</time>
      </trkpt>
      <trkpt lat="45.71076" lon="5.9726">
        <ele>633</ele>
        <time>2021-09-10T09:42:36.991Z</time>
      </trkpt>
      <trkpt lat="45.71081" lon="5.97268">
        <ele>633</ele>
        <time>2021-09-10T09:42:37.991Z</time>
      </trkpt>
      <trkpt lat="45.71085" lon="5.97276">
        <ele>633</ele>
        <time>2021-09-10T09:42:38.991Z</time>
      </trkpt>
      <trkpt lat="45.7109" lon="5.97285">
        <ele>633</ele>
        <time>2021-09-10T09:42:39.990Z</time>
      </trkpt>
      <trkpt lat="45.71094" lon="5.97291">
        <ele>634</ele>
        <time>2021-09-10T09:42:40.990Z</time>
      </trkpt>
      <trkpt lat="45.71098" lon="5.97299">
        <ele>634</ele>
        <time>2021-09-10T09:42:41.990Z</time>
      </trkpt>
      <trkpt lat="45.71104" lon="5.97308">
        <ele>634</ele>
        <time>2021-09-10T09:42:42.991Z</time>
      </trkpt>
      <trkpt lat="45.71109" lon="5.97316">
        <ele>634</ele>
        <time>2021-09-10T09:42:43.991Z</time>
      </trkpt>
      <trkpt lat="45.71113" lon="5.97323">
        <ele>634</ele>
        <time>2021-09-10T09:42:44.991Z</time>
      </trkpt>
      <trkpt lat="45.71117" lon="5.9733">
        <ele>634</ele>
        <time>2021-09-10T09:42:45.991Z</time>
      </trkpt>
      <trkpt lat="45.71121" lon="5.97336">
        <ele>634</ele>
        <time>2021-09-10T09:42:46.990Z</time>
      </trkpt>
      <trkpt lat="45.71126" lon="5.97344">
        <ele>634</ele>
        <time>2021-09-10T09:42:47.991Z</time>
      </trkpt>
      <trkpt lat="45.7113" lon="5.97351">
        <ele>633</ele>
        <time>2021-09-10T09:42:48.990Z</time>
      </trkpt>
      <trkpt lat="45.71134" lon="5.97358">
        <ele>633</ele>
        <time>2021-09-10T09:42:49.990Z</time>
      </trkpt>
      <trkpt lat="45.71137" lon="5.97363">
        <ele>633</ele>
        <time>2021-09-10T09:42:50.991Z</time>
      </trkpt>
      <trkpt lat="45.71141" lon="5.9737">
        <ele>633</ele>
        <time>2021-09-10T09:42:51.991Z</time>
      </trkpt>
      <trkpt lat="45.71145" lon="5.97377">
        <ele>633</ele>
        <time>2021-09-10T09:42:52.990Z</time>
      </trkpt>
      <trkpt lat="45.7115" lon="5.97385">
        <ele>633</ele>
        <time>2021-09-10T09:42:53.990Z</time>
      </trkpt>
      <trkpt lat="45.71153" lon="5.9739">
        <ele>632</ele>
        <time>2021-09-10T09:42:54.991Z</time>
      </trkpt>
      <trkpt lat="45.71157" lon="5.97396">
        <ele>632</ele>
        <time>2021-09-10T09:42:55.990Z</time>
      </trkpt>
      <trkpt lat="45.71161" lon="5.97404">
        <ele>632</ele>
        <time>2021-09-10T09:42:56.991Z</time>
      </trkpt>
      <trkpt lat="45.71165" lon="5.9741">
        <ele>631</ele>
        <time>2021-09-10T09:42:57.990Z</time>
      </trkpt>
      <trkpt lat="45.71169" lon="5.97417">
        <ele>631</ele>
        <time>2021-09-10T09:42:58.991Z</time>
      </trkpt>
      <trkpt lat="45.71172" lon="5.97422">
        <ele>631</ele>
        <time>2021-09-10T09:42:59.991Z</time>
      </trkpt>
      <trkpt lat="45.71177" lon="5.9743">
        <ele>631</ele>
        <time>2021-09-10T09:43:00.991Z</time>
      </trkpt>
      <trkpt lat="45.71181" lon="5.97437">
        <ele>631</ele>
        <time>2021-09-10T09:43:01.991Z</time>
      </trkpt>
      <trkpt lat="45.71185" lon="5.97443">
        <ele>630</ele>
        <time>2021-09-10T09:43:02.991Z</time>
      </trkpt>
      <trkpt lat="45.71188" lon="5.9745">
        <ele>630</ele>
        <time>2021-09-10T09:43:03.991Z</time>
      </trkpt>
      <trkpt lat="45.71191" lon="5.97456">
        <ele>630</ele>
        <time>2021-09-10T09:43:04.991Z</time>
      </trkpt>
      <trkpt lat="45.71195" lon="5.97463">
        <ele>630</ele>
        <time>2021-09-10T09:43:05.990Z</time>
      </trkpt>
      <trkpt lat="45.71198" lon="5.97472">
        <ele>630</ele>
        <time>2021-09-10T09:43:06.991Z</time>
      </trkpt>
      <trkpt lat="45.71201" lon="5.9748">
        <ele>629</ele>
        <time>2021-09-10T09:43:07.991Z</time>
      </trkpt>
      <trkpt lat="45.71203" lon="5.97488">
        <ele>630</ele>
        <time>2021-09-10T09:43:42.117Z</time>
      </trkpt>
      <trkpt lat="45.71204" lon="5.97495">
        <ele>630</ele>
        <time>2021-09-10T09:43:43.116Z</time>
      </trkpt>
      <trkpt lat="45.71205" lon="5.97506">
        <ele>630</ele>
        <time>2021-09-10T09:43:44.117Z</time>
      </trkpt>
      <trkpt lat="45.71205" lon="5.97515">
        <ele>630</ele>
        <time>2021-09-10T09:43:45.117Z</time>
      </trkpt>
      <trkpt lat="45.71204" lon="5.97525">
        <ele>630</ele>
        <time>2021-09-10T09:43:46.117Z</time>
      </trkpt>
      <trkpt lat="45.71203" lon="5.97533">
        <ele>630</ele>
        <time>2021-09-10T09:43:47.117Z</time>
      </trkpt>
      <trkpt lat="45.71202" lon="5.9754">
        <ele>631</ele>
        <time>2021-09-10T09:43:48.117Z</time>
      </trkpt>
      <trkpt lat="45.712" lon="5.97548">
        <ele>631</ele>
        <time>2021-09-10T09:43:49.117Z</time>
      </trkpt>
      <trkpt lat="45.71197" lon="5.97557">
        <ele>631</ele>
        <time>2021-09-10T09:43:50.116Z</time>
      </trkpt>
      <trkpt lat="45.71195" lon="5.97563">
        <ele>631</ele>
        <time>2021-09-10T09:43:51.117Z</time>
      </trkpt>
      <trkpt lat="45.71193" lon="5.9757">
        <ele>631</ele>
        <time>2021-09-10T09:43:52.117Z</time>
      </trkpt>
      <trkpt lat="45.71189" lon="5.97578">
        <ele>631</ele>
        <time>2021-09-10T09:43:53.116Z</time>
      </trkpt>
      <trkpt lat="45.71186" lon="5.97584">
        <ele>631</ele>
        <time>2021-09-10T09:43:54.117Z</time>
      </trkpt>
      <trkpt lat="45.71183" lon="5.9759">
        <ele>630</ele>
        <time>2021-09-10T09:43:55.117Z</time>
      </trkpt>
      <trkpt lat="45.7118" lon="5.97594">
        <ele>630</ele>
        <time>2021-09-10T09:43:56.117Z</time>
      </trkpt>
      <trkpt lat="45.71176" lon="5.976">
        <ele>629</ele>
        <time>2021-09-10T09:43:57.117Z</time>
      </trkpt>
      <trkpt lat="45.71171" lon="5.97607">
        <ele>629</ele>
        <time>2021-09-10T09:43:58.117Z</time>
      </trkpt>
      <trkpt lat="45.71167" lon="5.97611">
        <ele>628</ele>
        <time>2021-09-10T09:43:59.117Z</time>
      </trkpt>
      <trkpt lat="45.71163" lon="5.97616">
        <ele>628</ele>
        <time>2021-09-10T09:44:00.117Z</time>
      </trkpt>
      <trkpt lat="45.71159" lon="5.97621">
        <ele>628</ele>
        <time>2021-09-10T09:44:01.117Z</time>
      </trkpt>
      <trkpt lat="45.71155" lon="5.97626">
        <ele>628</ele>
        <time>2021-09-10T09:44:02.117Z</time>
      </trkpt>
      <trkpt lat="45.7115" lon="5.97631">
        <ele>628</ele>
        <time>2021-09-10T09:44:03.117Z</time>
      </trkpt>
      <trkpt lat="45.71145" lon="5.97635">
        <ele>628</ele>
        <time>2021-09-10T09:44:04.117Z</time>
      </trkpt>
      <trkpt lat="45.7114" lon="5.97639">
        <ele>629</ele>
        <time>2021-09-10T09:44:05.117Z</time>
      </trkpt>
      <trkpt lat="45.71134" lon="5.97644">
        <ele>629</ele>
        <time>2021-09-10T09:44:06.117Z</time>
      </trkpt>
      <trkpt lat="45.71129" lon="5.97649">
        <ele>629</ele>
        <time>2021-09-10T09:44:07.117Z</time>
      </trkpt>
      <trkpt lat="45.71124" lon="5.97654">
        <ele>629</ele>
        <time>2021-09-10T09:44:08.116Z</time>
      </trkpt>
      <trkpt lat="45.71117" lon="5.97659">
        <ele>629</ele>
        <time>2021-09-10T09:44:09.116Z</time>
      </trkpt>
      <trkpt lat="45.71112" lon="5.97664">
        <ele>629</ele>
        <time>2021-09-10T09:44:10.117Z</time>
      </trkpt>
      <trkpt lat="45.71108" lon="5.97668">
        <ele>629</ele>
        <time>2021-09-10T09:44:11.117Z</time>
      </trkpt>
      <trkpt lat="45.71103" lon="5.97673">
        <ele>629</ele>
        <time>2021-09-10T09:44:12.117Z</time>
      </trkpt>
      <trkpt lat="45.71098" lon="5.97678">
        <ele>628</ele>
        <time>2021-09-10T09:44:13.116Z</time>
      </trkpt>
      <trkpt lat="45.71093" lon="5.97684">
        <ele>628</ele>
        <time>2021-09-10T09:44:14.117Z</time>
      </trkpt>
      <trkpt lat="45.71089" lon="5.97689">
        <ele>628</ele>
        <time>2021-09-10T09:44:15.117Z</time>
      </trkpt>
      <trkpt lat="45.71087" lon="5.97695">
        <ele>628</ele>
        <time>2021-09-10T09:44:16.117Z</time>
      </trkpt>
      <trkpt lat="45.71085" lon="5.97701">
        <ele>628</ele>
        <time>2021-09-10T09:44:17.117Z</time>
      </trkpt>
      <trkpt lat="45.71085" lon="5.97707">
        <ele>628</ele>
        <time>2021-09-10T09:44:18.117Z</time>
      </trkpt>
      <trkpt lat="45.71086" lon="5.97712">
        <ele>628</ele>
        <time>2021-09-10T09:44:19.117Z</time>
      </trkpt>
      <trkpt lat="45.71089" lon="5.97716">
        <ele>628</ele>
        <time>2021-09-10T09:44:20.117Z</time>
      </trkpt>
      <trkpt lat="45.71092" lon="5.9772">
        <ele>628</ele>
        <time>2021-09-10T09:44:21.116Z</time>
      </trkpt>
      <trkpt lat="45.71097" lon="5.97721">
        <ele>628</ele>
        <time>2021-09-10T09:44:22.117Z</time>
      </trkpt>
      <trkpt lat="45.71101" lon="5.97721">
        <ele>628</ele>
        <time>2021-09-10T09:44:23.117Z</time>
      </trkpt>
      <trkpt lat="45.71104" lon="5.97721">
        <ele>629</ele>
        <time>2021-09-10T09:44:24.116Z</time>
      </trkpt>
      <trkpt lat="45.71109" lon="5.97721">
        <ele>629</ele>
        <time>2021-09-10T09:44:25.117Z</time>
      </trkpt>
      <trkpt lat="45.71113" lon="5.97721">
        <ele>629</ele>
        <time>2021-09-10T09:44:26.117Z</time>
      </trkpt>
      <trkpt lat="45.71117" lon="5.97721">
        <ele>629</ele>
        <time>2021-09-10T09:44:27.116Z</time>
      </trkpt>
      <trkpt lat="45.71122" lon="5.97721">
        <ele>629</ele>
        <time>2021-09-10T09:44:28.117Z</time>
      </trkpt>
      <trkpt lat="45.71126" lon="5.97721">
        <ele>630</ele>
        <time>2021-09-10T09:44:29.116Z</time>
      </trkpt>
      <trkpt lat="45.7113" lon="5.9772">
        <ele>630</ele>
        <time>2021-09-10T09:44:30.116Z</time>
      </trkpt>
      <trkpt lat="45.71134" lon="5.9772">
        <ele>631</ele>
        <time>2021-09-10T09:44:31.116Z</time>
      </trkpt>
      <trkpt lat="45.71137" lon="5.9772">
        <ele>631</ele>
        <time>2021-09-10T09:44:32.116Z</time>
      </trkpt>
      <trkpt lat="45.71141" lon="5.9772">
        <ele>631</ele>
        <time>2021-09-10T09:44:33.117Z</time>
      </trkpt>
      <trkpt lat="45.71145" lon="5.9772">
        <ele>631</ele>
        <time>2021-09-10T09:44:34.117Z</time>
      </trkpt>
      <trkpt lat="45.71149" lon="5.97718">
        <ele>631</ele>
        <time>2021-09-10T09:44:35.117Z</time>
      </trkpt>
      <trkpt lat="45.71153" lon="5.97719">
        <ele>632</ele>
        <time>2021-09-10T09:44:36.117Z</time>
      </trkpt>
      <trkpt lat="45.71157" lon="5.97719">
        <ele>632</ele>
        <time>2021-09-10T09:44:37.117Z</time>
      </trkpt>
      <trkpt lat="45.7116" lon="5.97721">
        <ele>632</ele>
        <time>2021-09-10T09:44:38.117Z</time>
      </trkpt>
      <trkpt lat="45.71163" lon="5.97721">
        <ele>633</ele>
        <time>2021-09-10T09:44:39.116Z</time>
      </trkpt>
      <trkpt lat="45.71167" lon="5.97721">
        <ele>633</ele>
        <time>2021-09-10T09:44:40.117Z</time>
      </trkpt>
      <trkpt lat="45.7117" lon="5.97721">
        <ele>633</ele>
        <time>2021-09-10T09:44:41.117Z</time>
      </trkpt>
      <trkpt lat="45.71173" lon="5.97721">
        <ele>633</ele>
        <time>2021-09-10T09:44:42.117Z</time>
      </trkpt>
      <trkpt lat="45.71176" lon="5.97722">
        <ele>633</ele>
        <time>2021-09-10T09:44:43.116Z</time>
      </trkpt>
      <trkpt lat="45.71178" lon="5.97722">
        <ele>633</ele>
        <time>2021-09-10T09:44:44.117Z</time>
      </trkpt>
      <trkpt lat="45.7118" lon="5.97723">
        <ele>633</ele>
        <time>2021-09-10T09:44:45.117Z</time>
      </trkpt>
      <trkpt lat="45.71183" lon="5.97724">
        <ele>633</ele>
        <time>2021-09-10T09:44:46.116Z</time>
      </trkpt>
      <trkpt lat="45.71185" lon="5.97724">
        <ele>633</ele>
        <time>2021-09-10T09:44:47.117Z</time>
      </trkpt>
      <trkpt lat="45.71188" lon="5.97725">
        <ele>632</ele>
        <time>2021-09-10T09:44:48.117Z</time>
      </trkpt>
      <trkpt lat="45.7119" lon="5.97725">
        <ele>632</ele>
        <time>2021-09-10T09:44:49.116Z</time>
      </trkpt>
      <trkpt lat="45.71193" lon="5.97725">
        <ele>632</ele>
        <time>2021-09-10T09:44:50.117Z</time>
      </trkpt>
      <trkpt lat="45.71196" lon="5.97725">
        <ele>632</ele>
        <time>2021-09-10T09:44:51.117Z</time>
      </trkpt>
      <trkpt lat="45.71199" lon="5.97725">
        <ele>632</ele>
        <time>2021-09-10T09:44:52.117Z</time>
      </trkpt>
      <trkpt lat="45.71201" lon="5.97726">
        <ele>632</ele>
        <time>2021-09-10T09:44:53.116Z</time>
      </trkpt>
      <trkpt lat="45.71204" lon="5.97726">
        <ele>632</ele>
        <time>2021-09-10T09:44:54.116Z</time>
      </trkpt>
      <trkpt lat="45.71206" lon="5.97727">
        <ele>632</ele>
        <time>2021-09-10T09:44:55.117Z</time>
      </trkpt>
      <trkpt lat="45.71209" lon="5.97727">
        <ele>633</ele>
        <time>2021-09-10T09:44:56.117Z</time>
      </trkpt>
      <trkpt lat="45.71212" lon="5.97728">
        <ele>633</ele>
        <time>2021-09-10T09:44:57.117Z</time>
      </trkpt>
      <trkpt lat="45.71214" lon="5.97728">
        <ele>633</ele>
        <time>2021-09-10T09:44:58.117Z</time>
      </trkpt>
      <trkpt lat="45.71217" lon="5.97729">
        <ele>633</ele>
        <time>2021-09-10T09:44:59.117Z</time>
      </trkpt>
      <trkpt lat="45.71219" lon="5.97731">
        <ele>633</ele>
        <time>2021-09-10T09:45:00.117Z</time>
      </trkpt>
      <trkpt lat="45.71221" lon="5.97732">
        <ele>633</ele>
        <time>2021-09-10T09:45:01.117Z</time>
      </trkpt>
      <trkpt lat="45.71224" lon="5.97733">
        <ele>632</ele>
        <time>2021-09-10T09:45:02.117Z</time>
      </trkpt>
      <trkpt lat="45.71226" lon="5.97735">
        <ele>632</ele>
        <time>2021-09-10T09:45:03.117Z</time>
      </trkpt>
      <trkpt lat="45.71229" lon="5.97737">
        <ele>633</ele>
        <time>2021-09-10T09:45:04.116Z</time>
      </trkpt>
      <trkpt lat="45.71231" lon="5.97739">
        <ele>633</ele>
        <time>2021-09-10T09:45:05.117Z</time>
      </trkpt>
      <trkpt lat="45.71233" lon="5.97741">
        <ele>633</ele>
        <time>2021-09-10T09:45:06.117Z</time>
      </trkpt>
      <trkpt lat="45.71235" lon="5.97743">
        <ele>633</ele>
        <time>2021-09-10T09:45:07.117Z</time>
      </trkpt>
      <trkpt lat="45.71237" lon="5.97746">
        <ele>633</ele>
        <time>2021-09-10T09:45:08.116Z</time>
      </trkpt>
      <trkpt lat="45.71239" lon="5.97748">
        <ele>633</ele>
        <time>2021-09-10T09:45:09.116Z</time>
      </trkpt>
      <trkpt lat="45.71241" lon="5.97751">
        <ele>632</ele>
        <time>2021-09-10T09:45:10.117Z</time>
      </trkpt>
      <trkpt lat="45.71243" lon="5.97754">
        <ele>632</ele>
        <time>2021-09-10T09:45:11.117Z</time>
      </trkpt>
      <trkpt lat="45.71246" lon="5.97757">
        <ele>632</ele>
        <time>2021-09-10T09:45:12.117Z</time>
      </trkpt>
      <trkpt lat="45.71248" lon="5.97759">
        <ele>632</ele>
        <time>2021-09-10T09:45:13.117Z</time>
      </trkpt>
      <trkpt lat="45.7125" lon="5.97761">
        <ele>633</ele>
        <time>2021-09-10T09:45:14.117Z</time>
      </trkpt>
      <trkpt lat="45.71252" lon="5.97764">
        <ele>633</ele>
        <time>2021-09-10T09:45:15.117Z</time>
      </trkpt>
      <trkpt lat="45.71254" lon="5.97766">
        <ele>633</ele>
        <time>2021-09-10T09:45:16.117Z</time>
      </trkpt>
      <trkpt lat="45.71256" lon="5.97768">
        <ele>633</ele>
        <time>2021-09-10T09:45:17.116Z</time>
      </trkpt>
      <trkpt lat="45.71258" lon="5.97771">
        <ele>633</ele>
        <time>2021-09-10T09:45:18.116Z</time>
      </trkpt>
      <trkpt lat="45.7126" lon="5.97773">
        <ele>633</ele>
        <time>2021-09-10T09:45:19.117Z</time>
      </trkpt>
      <trkpt lat="45.71262" lon="5.97776">
        <ele>633</ele>
        <time>2021-09-10T09:45:20.116Z</time>
      </trkpt>
      <trkpt lat="45.71264" lon="5.97778">
        <ele>632</ele>
        <time>2021-09-10T09:45:21.117Z</time>
      </trkpt>
      <trkpt lat="45.71266" lon="5.97781">
        <ele>632</ele>
        <time>2021-09-10T09:45:22.117Z</time>
      </trkpt>
      <trkpt lat="45.71268" lon="5.97783">
        <ele>632</ele>
        <time>2021-09-10T09:45:23.117Z</time>
      </trkpt>
      <trkpt lat="45.7127" lon="5.97786">
        <ele>632</ele>
        <time>2021-09-10T09:45:24.117Z</time>
      </trkpt>
      <trkpt lat="45.71272" lon="5.97788">
        <ele>632</ele>
        <time>2021-09-10T09:45:25.116Z</time>
      </trkpt>
      <trkpt lat="45.71274" lon="5.9779">
        <ele>632</ele>
        <time>2021-09-10T09:45:26.117Z</time>
      </trkpt>
      <trkpt lat="45.71276" lon="5.97793">
        <ele>632</ele>
        <time>2021-09-10T09:45:27.116Z</time>
      </trkpt>
      <trkpt lat="45.71279" lon="5.97795">
        <ele>632</ele>
        <time>2021-09-10T09:45:28.117Z</time>
      </trkpt>
      <trkpt lat="45.71281" lon="5.97798">
        <ele>632</ele>
        <time>2021-09-10T09:45:29.116Z</time>
      </trkpt>
      <trkpt lat="45.71283" lon="5.978">
        <ele>632</ele>
        <time>2021-09-10T09:45:30.117Z</time>
      </trkpt>
      <trkpt lat="45.71285" lon="5.97802">
        <ele>633</ele>
        <time>2021-09-10T09:45:31.116Z</time>
      </trkpt>
      <trkpt lat="45.71287" lon="5.97804">
        <ele>633</ele>
        <time>2021-09-10T09:45:32.117Z</time>
      </trkpt>
      <trkpt lat="45.71288" lon="5.97806">
        <ele>633</ele>
        <time>2021-09-10T09:45:33.117Z</time>
      </trkpt>
      <trkpt lat="45.7129" lon="5.97808">
        <ele>633</ele>
        <time>2021-09-10T09:45:34.116Z</time>
      </trkpt>
      <trkpt lat="45.71291" lon="5.9781">
        <ele>633</ele>
        <time>2021-09-10T09:45:35.117Z</time>
      </trkpt>
      <trkpt lat="45.71293" lon="5.97812">
        <ele>633</ele>
        <time>2021-09-10T09:45:36.117Z</time>
      </trkpt>
      <trkpt lat="45.71294" lon="5.97815">
        <ele>634</ele>
        <time>2021-09-10T09:45:37.117Z</time>
      </trkpt>
      <trkpt lat="45.71296" lon="5.97817">
        <ele>634</ele>
        <time>2021-09-10T09:45:38.116Z</time>
      </trkpt>
      <trkpt lat="45.71298" lon="5.9782">
        <ele>634</ele>
        <time>2021-09-10T09:45:39.116Z</time>
      </trkpt>
      <trkpt lat="45.713" lon="5.97822">
        <ele>634</ele>
        <time>2021-09-10T09:45:40.117Z</time>
      </trkpt>
      <trkpt lat="45.71302" lon="5.97824">
        <ele>633</ele>
        <time>2021-09-10T09:45:41.117Z</time>
      </trkpt>
      <trkpt lat="45.71304" lon="5.97826">
        <ele>633</ele>
        <time>2021-09-10T09:45:42.117Z</time>
      </trkpt>
      <trkpt lat="45.71306" lon="5.97828">
        <ele>633</ele>
        <time>2021-09-10T09:45:43.117Z</time>
      </trkpt>
      <trkpt lat="45.71308" lon="5.9783">
        <ele>633</ele>
        <time>2021-09-10T09:45:44.117Z</time>
      </trkpt>
      <trkpt lat="45.7131" lon="5.97833">
        <ele>633</ele>
        <time>2021-09-10T09:45:45.117Z</time>
      </trkpt>
      <trkpt lat="45.71312" lon="5.97835">
        <ele>633</ele>
        <time>2021-09-10T09:45:46.116Z</time>
      </trkpt>
      <trkpt lat="45.71314" lon="5.97838">
        <ele>633</ele>
        <time>2021-09-10T09:45:47.117Z</time>
      </trkpt>
      <trkpt lat="45.71316" lon="5.9784">
        <ele>633</ele>
        <time>2021-09-10T09:45:48.117Z</time>
      </trkpt>
      <trkpt lat="45.71318" lon="5.97844">
        <ele>633</ele>
        <time>2021-09-10T09:45:49.117Z</time>
      </trkpt>
      <trkpt lat="45.7132" lon="5.97847">
        <ele>633</ele>
        <time>2021-09-10T09:45:50.117Z</time>
      </trkpt>
      <trkpt lat="45.71322" lon="5.9785">
        <ele>633</ele>
        <time>2021-09-10T09:45:51.117Z</time>
      </trkpt>
      <trkpt lat="45.71324" lon="5.97855">
        <ele>633</ele>
        <time>2021-09-10T09:45:52.116Z</time>
      </trkpt>
      <trkpt lat="45.71325" lon="5.97858">
        <ele>634</ele>
        <time>2021-09-10T09:45:53.117Z</time>
      </trkpt>
      <trkpt lat="45.71327" lon="5.97864">
        <ele>634</ele>
        <time>2021-09-10T09:45:54.116Z</time>
      </trkpt>
      <trkpt lat="45.71328" lon="5.97868">
        <ele>635</ele>
        <time>2021-09-10T09:45:55.116Z</time>
      </trkpt>
      <trkpt lat="45.7133" lon="5.97873">
        <ele>635</ele>
        <time>2021-09-10T09:45:56.116Z</time>
      </trkpt>
      <trkpt lat="45.71331" lon="5.97878">
        <ele>635</ele>
        <time>2021-09-10T09:45:57.116Z</time>
      </trkpt>
      <trkpt lat="45.71332" lon="5.97884">
        <ele>635</ele>
        <time>2021-09-10T09:45:58.116Z</time>
      </trkpt>
      <trkpt lat="45.71333" lon="5.97889">
        <ele>635</ele>
        <time>2021-09-10T09:45:59.117Z</time>
      </trkpt>
      <trkpt lat="45.71335" lon="5.97894">
        <ele>635</ele>
        <time>2021-09-10T09:46:00.117Z</time>
      </trkpt>
      <trkpt lat="45.71336" lon="5.979">
        <ele>635</ele>
        <time>2021-09-10T09:46:01.117Z</time>
      </trkpt>
      <trkpt lat="45.71337" lon="5.97907">
        <ele>635</ele>
        <time>2021-09-10T09:46:02.117Z</time>
      </trkpt>
      <trkpt lat="45.71339" lon="5.97915">
        <ele>635</ele>
        <time>2021-09-10T09:46:03.117Z</time>
      </trkpt>
      <trkpt lat="45.7134" lon="5.9792">
        <ele>634</ele>
        <time>2021-09-10T09:46:04.116Z</time>
      </trkpt>
      <trkpt lat="45.71342" lon="5.97927">
        <ele>634</ele>
        <time>2021-09-10T09:46:05.117Z</time>
      </trkpt>
      <trkpt lat="45.71343" lon="5.97935">
        <ele>634</ele>
        <time>2021-09-10T09:46:06.117Z</time>
      </trkpt>
      <trkpt lat="45.71345" lon="5.97943">
        <ele>634</ele>
        <time>2021-09-10T09:46:07.117Z</time>
      </trkpt>
      <trkpt lat="45.71346" lon="5.97951">
        <ele>634</ele>
        <time>2021-09-10T09:46:08.117Z</time>
      </trkpt>
      <trkpt lat="45.71347" lon="5.9796">
        <ele>634</ele>
        <time>2021-09-10T09:46:09.117Z</time>
      </trkpt>
      <trkpt lat="45.71348" lon="5.97969">
        <ele>634</ele>
        <time>2021-09-10T09:46:10.117Z</time>
      </trkpt>
      <trkpt lat="45.71348" lon="5.97979">
        <ele>635</ele>
        <time>2021-09-10T09:46:11.117Z</time>
      </trkpt>
      <trkpt lat="45.71348" lon="5.97986">
        <ele>635</ele>
        <time>2021-09-10T09:46:12.117Z</time>
      </trkpt>
      <trkpt lat="45.71348" lon="5.97994">
        <ele>636</ele>
        <time>2021-09-10T09:46:13.117Z</time>
      </trkpt>
      <trkpt lat="45.71348" lon="5.98003">
        <ele>636</ele>
        <time>2021-09-10T09:46:14.116Z</time>
      </trkpt>
      <trkpt lat="45.71349" lon="5.98011">
        <ele>637</ele>
        <time>2021-09-10T09:46:15.117Z</time>
      </trkpt>
      <trkpt lat="45.71349" lon="5.98019">
        <ele>637</ele>
        <time>2021-09-10T09:46:16.116Z</time>
      </trkpt>
      <trkpt lat="45.7135" lon="5.98026">
        <ele>637</ele>
        <time>2021-09-10T09:46:17.116Z</time>
      </trkpt>
      <trkpt lat="45.71353" lon="5.98032">
        <ele>636</ele>
        <time>2021-09-10T09:46:18.117Z</time>
      </trkpt>
      <trkpt lat="45.71357" lon="5.98037">
        <ele>637</ele>
        <time>2021-09-10T09:46:19.117Z</time>
      </trkpt>
      <trkpt lat="45.71361" lon="5.98041">
        <ele>637</ele>
        <time>2021-09-10T09:46:20.117Z</time>
      </trkpt>
      <trkpt lat="45.71365" lon="5.98044">
        <ele>637</ele>
        <time>2021-09-10T09:46:21.117Z</time>
      </trkpt>
      <trkpt lat="45.71369" lon="5.98043">
        <ele>637</ele>
        <time>2021-09-10T09:46:22.117Z</time>
      </trkpt>
      <trkpt lat="45.71374" lon="5.98043">
        <ele>637</ele>
        <time>2021-09-10T09:46:23.116Z</time>
      </trkpt>
      <trkpt lat="45.71378" lon="5.9804">
        <ele>637</ele>
        <time>2021-09-10T09:46:24.117Z</time>
      </trkpt>
      <trkpt lat="45.71382" lon="5.98035">
        <ele>638</ele>
        <time>2021-09-10T09:46:25.117Z</time>
      </trkpt>
      <trkpt lat="45.71386" lon="5.98029">
        <ele>638</ele>
        <time>2021-09-10T09:46:26.116Z</time>
      </trkpt>
      <trkpt lat="45.71389" lon="5.98023">
        <ele>638</ele>
        <time>2021-09-10T09:46:27.116Z</time>
      </trkpt>
      <trkpt lat="45.71392" lon="5.98016">
        <ele>638</ele>
        <time>2021-09-10T09:46:28.117Z</time>
      </trkpt>
      <trkpt lat="45.71395" lon="5.98009">
        <ele>637</ele>
        <time>2021-09-10T09:46:29.117Z</time>
      </trkpt>
      <trkpt lat="45.71398" lon="5.98002">
        <ele>636</ele>
        <time>2021-09-10T09:46:30.117Z</time>
      </trkpt>
      <trkpt lat="45.71401" lon="5.97996">
        <ele>636</ele>
        <time>2021-09-10T09:46:31.117Z</time>
      </trkpt>
      <trkpt lat="45.71405" lon="5.97989">
        <ele>636</ele>
        <time>2021-09-10T09:46:32.117Z</time>
      </trkpt>
      <trkpt lat="45.71406" lon="5.97982">
        <ele>636</ele>
        <time>2021-09-10T09:46:33.117Z</time>
      </trkpt>
      <trkpt lat="45.71409" lon="5.97975">
        <ele>636</ele>
        <time>2021-09-10T09:46:34.117Z</time>
      </trkpt>
      <trkpt lat="45.71411" lon="5.97968">
        <ele>636</ele>
        <time>2021-09-10T09:46:35.116Z</time>
      </trkpt>
      <trkpt lat="45.71411" lon="5.97962">
        <ele>636</ele>
        <time>2021-09-10T09:46:36.117Z</time>
      </trkpt>
      <trkpt lat="45.71413" lon="5.97955">
        <ele>635</ele>
        <time>2021-09-10T09:46:37.117Z</time>
      </trkpt>
      <trkpt lat="45.71416" lon="5.97948">
        <ele>635</ele>
        <time>2021-09-10T09:46:38.117Z</time>
      </trkpt>
      <trkpt lat="45.71418" lon="5.97943">
        <ele>634</ele>
        <time>2021-09-10T09:46:39.117Z</time>
      </trkpt>
      <trkpt lat="45.71421" lon="5.97937">
        <ele>633</ele>
        <time>2021-09-10T09:46:40.117Z</time>
      </trkpt>
      <trkpt lat="45.71423" lon="5.97931">
        <ele>633</ele>
        <time>2021-09-10T09:46:41.116Z</time>
      </trkpt>
      <trkpt lat="45.71426" lon="5.97926">
        <ele>632</ele>
        <time>2021-09-10T09:46:42.117Z</time>
      </trkpt>
      <trkpt lat="45.71428" lon="5.97921">
        <ele>631</ele>
        <time>2021-09-10T09:46:43.116Z</time>
      </trkpt>
      <trkpt lat="45.71432" lon="5.97916">
        <ele>631</ele>
        <time>2021-09-10T09:46:44.117Z</time>
      </trkpt>
      <trkpt lat="45.71435" lon="5.97912">
        <ele>631</ele>
        <time>2021-09-10T09:46:45.116Z</time>
      </trkpt>
      <trkpt lat="45.71439" lon="5.97908">
        <ele>631</ele>
        <time>2021-09-10T09:46:46.117Z</time>
      </trkpt>
      <trkpt lat="45.71443" lon="5.97904">
        <ele>631</ele>
        <time>2021-09-10T09:46:47.117Z</time>
      </trkpt>
      <trkpt lat="45.71447" lon="5.97901">
        <ele>631</ele>
        <time>2021-09-10T09:46:48.117Z</time>
      </trkpt>
      <trkpt lat="45.71451" lon="5.97899">
        <ele>631</ele>
        <time>2021-09-10T09:46:49.117Z</time>
      </trkpt>
      <trkpt lat="45.71455" lon="5.97896">
        <ele>631</ele>
        <time>2021-09-10T09:46:50.117Z</time>
      </trkpt>
      <trkpt lat="45.71458" lon="5.97893">
        <ele>630</ele>
        <time>2021-09-10T09:46:51.117Z</time>
      </trkpt>
      <trkpt lat="45.71461" lon="5.97891">
        <ele>630</ele>
        <time>2021-09-10T09:46:52.117Z</time>
      </trkpt>
      <trkpt lat="45.71465" lon="5.9789">
        <ele>630</ele>
        <time>2021-09-10T09:46:53.117Z</time>
      </trkpt>
      <trkpt lat="45.71469" lon="5.97888">
        <ele>629</ele>
        <time>2021-09-10T09:46:54.117Z</time>
      </trkpt>
      <trkpt lat="45.71472" lon="5.97886">
        <ele>629</ele>
        <time>2021-09-10T09:46:55.117Z</time>
      </trkpt>
      <trkpt lat="45.71476" lon="5.97885">
        <ele>630</ele>
        <time>2021-09-10T09:46:56.116Z</time>
      </trkpt>
      <trkpt lat="45.7148" lon="5.97885">
        <ele>630</ele>
        <time>2021-09-10T09:46:57.117Z</time>
      </trkpt>
      <trkpt lat="45.71484" lon="5.97885">
        <ele>630</ele>
        <time>2021-09-10T09:46:58.117Z</time>
      </trkpt>
      <trkpt lat="45.71488" lon="5.97886">
        <ele>630</ele>
        <time>2021-09-10T09:46:59.117Z</time>
      </trkpt>
      <trkpt lat="45.71492" lon="5.97887">
        <ele>630</ele>
        <time>2021-09-10T09:47:00.117Z</time>
      </trkpt>
      <trkpt lat="45.71496" lon="5.97889">
        <ele>630</ele>
        <time>2021-09-10T09:47:01.116Z</time>
      </trkpt>
      <trkpt lat="45.71501" lon="5.9789">
        <ele>630</ele>
        <time>2021-09-10T09:47:02.116Z</time>
      </trkpt>
      <trkpt lat="45.71505" lon="5.97892">
        <ele>631</ele>
        <time>2021-09-10T09:47:03.117Z</time>
      </trkpt>
      <trkpt lat="45.7151" lon="5.97894">
        <ele>631</ele>
        <time>2021-09-10T09:47:04.117Z</time>
      </trkpt>
      <trkpt lat="45.71515" lon="5.97896">
        <ele>631</ele>
        <time>2021-09-10T09:47:05.117Z</time>
      </trkpt>
      <trkpt lat="45.7152" lon="5.97898">
        <ele>631</ele>
        <time>2021-09-10T09:47:26.249Z</time>
      </trkpt>
      <trkpt lat="45.71525" lon="5.979">
        <ele>631</ele>
        <time>2021-09-10T09:47:27.250Z</time>
      </trkpt>
      <trkpt lat="45.7153" lon="5.97902">
        <ele>631</ele>
        <time>2021-09-10T09:47:28.250Z</time>
      </trkpt>
      <trkpt lat="45.71535" lon="5.97904">
        <ele>631</ele>
        <time>2021-09-10T09:47:29.250Z</time>
      </trkpt>
      <trkpt lat="45.7154" lon="5.97907">
        <ele>631</ele>
        <time>2021-09-10T09:47:30.250Z</time>
      </trkpt>
      <trkpt lat="45.71546" lon="5.97909">
        <ele>631</ele>
        <time>2021-09-10T09:47:31.249Z</time>
      </trkpt>
      <trkpt lat="45.71551" lon="5.97911">
        <ele>630</ele>
        <time>2021-09-10T09:47:32.250Z</time>
      </trkpt>
      <trkpt lat="45.71557" lon="5.97914">
        <ele>630</ele>
        <time>2021-09-10T09:47:33.250Z</time>
      </trkpt>
      <trkpt lat="45.71562" lon="5.97917">
        <ele>630</ele>
        <time>2021-09-10T09:47:34.250Z</time>
      </trkpt>
      <trkpt lat="45.71568" lon="5.97921">
        <ele>631</ele>
        <time>2021-09-10T09:47:35.250Z</time>
      </trkpt>
      <trkpt lat="45.71573" lon="5.97925">
        <ele>631</ele>
        <time>2021-09-10T09:47:36.250Z</time>
      </trkpt>
      <trkpt lat="45.71578" lon="5.9793">
        <ele>630</ele>
        <time>2021-09-10T09:47:37.250Z</time>
      </trkpt>
      <trkpt lat="45.71583" lon="5.97934">
        <ele>630</ele>
        <time>2021-09-10T09:47:38.250Z</time>
      </trkpt>
      <trkpt lat="45.71588" lon="5.97939">
        <ele>630</ele>
        <time>2021-09-10T09:47:39.249Z</time>
      </trkpt>
      <trkpt lat="45.71592" lon="5.97944">
        <ele>629</ele>
        <time>2021-09-10T09:47:40.250Z</time>
      </trkpt>
      <trkpt lat="45.71597" lon="5.97948">
        <ele>629</ele>
        <time>2021-09-10T09:47:41.250Z</time>
      </trkpt>
      <trkpt lat="45.71601" lon="5.97953">
        <ele>628</ele>
        <time>2021-09-10T09:47:42.250Z</time>
      </trkpt>
      <trkpt lat="45.71605" lon="5.97957">
        <ele>628</ele>
        <time>2021-09-10T09:47:43.250Z</time>
      </trkpt>
      <trkpt lat="45.7161" lon="5.97962">
        <ele>628</ele>
        <time>2021-09-10T09:47:44.250Z</time>
      </trkpt>
      <trkpt lat="45.71615" lon="5.97966">
        <ele>628</ele>
        <time>2021-09-10T09:47:45.250Z</time>
      </trkpt>
      <trkpt lat="45.7162" lon="5.97971">
        <ele>628</ele>
        <time>2021-09-10T09:47:46.250Z</time>
      </trkpt>
      <trkpt lat="45.71624" lon="5.97975">
        <ele>627</ele>
        <time>2021-09-10T09:47:47.250Z</time>
      </trkpt>
      <trkpt lat="45.71629" lon="5.97979">
        <ele>627</ele>
        <time>2021-09-10T09:47:48.250Z</time>
      </trkpt>
      <trkpt lat="45.71633" lon="5.97983">
        <ele>628</ele>
        <time>2021-09-10T09:47:49.250Z</time>
      </trkpt>
      <trkpt lat="45.71637" lon="5.97987">
        <ele>627</ele>
        <time>2021-09-10T09:47:50.250Z</time>
      </trkpt>
      <trkpt lat="45.71642" lon="5.97991">
        <ele>627</ele>
        <time>2021-09-10T09:47:51.250Z</time>
      </trkpt>
      <trkpt lat="45.71646" lon="5.97995">
        <ele>627</ele>
        <time>2021-09-10T09:47:52.250Z</time>
      </trkpt>
      <trkpt lat="45.7165" lon="5.97998">
        <ele>627</ele>
        <time>2021-09-10T09:47:53.250Z</time>
      </trkpt>
      <trkpt lat="45.71655" lon="5.98002">
        <ele>627</ele>
        <time>2021-09-10T09:47:54.250Z</time>
      </trkpt>
      <trkpt lat="45.71659" lon="5.98006">
        <ele>627</ele>
        <time>2021-09-10T09:47:55.250Z</time>
      </trkpt>
      <trkpt lat="45.71663" lon="5.9801">
        <ele>626</ele>
        <time>2021-09-10T09:47:56.250Z</time>
      </trkpt>
      <trkpt lat="45.71667" lon="5.98014">
        <ele>626</ele>
        <time>2021-09-10T09:47:57.249Z</time>
      </trkpt>
      <trkpt lat="45.71671" lon="5.98018">
        <ele>626</ele>
        <time>2021-09-10T09:47:58.250Z</time>
      </trkpt>
      <trkpt lat="45.71675" lon="5.98022">
        <ele>626</ele>
        <time>2021-09-10T09:47:59.250Z</time>
      </trkpt>
      <trkpt lat="45.71679" lon="5.98025">
        <ele>627</ele>
        <time>2021-09-10T09:48:00.250Z</time>
      </trkpt>
      <trkpt lat="45.71684" lon="5.98029">
        <ele>627</ele>
        <time>2021-09-10T09:48:01.250Z</time>
      </trkpt>
      <trkpt lat="45.71688" lon="5.98031">
        <ele>627</ele>
        <time>2021-09-10T09:48:02.250Z</time>
      </trkpt>
      <trkpt lat="45.71692" lon="5.98033">
        <ele>627</ele>
        <time>2021-09-10T09:48:03.250Z</time>
      </trkpt>
      <trkpt lat="45.71697" lon="5.98034">
        <ele>628</ele>
        <time>2021-09-10T09:48:04.249Z</time>
      </trkpt>
      <trkpt lat="45.71701" lon="5.98036">
        <ele>629</ele>
        <time>2021-09-10T09:48:05.250Z</time>
      </trkpt>
      <trkpt lat="45.71706" lon="5.98037">
        <ele>629</ele>
        <time>2021-09-10T09:48:06.250Z</time>
      </trkpt>
      <trkpt lat="45.7171" lon="5.98038">
        <ele>629</ele>
        <time>2021-09-10T09:48:07.250Z</time>
      </trkpt>
      <trkpt lat="45.71715" lon="5.9804">
        <ele>630</ele>
        <time>2021-09-10T09:48:08.250Z</time>
      </trkpt>
      <trkpt lat="45.7172" lon="5.98042">
        <ele>630</ele>
        <time>2021-09-10T09:48:09.250Z</time>
      </trkpt>
      <trkpt lat="45.71726" lon="5.98043">
        <ele>630</ele>
        <time>2021-09-10T09:48:10.250Z</time>
      </trkpt>
      <trkpt lat="45.71732" lon="5.98045">
        <ele>631</ele>
        <time>2021-09-10T09:48:11.250Z</time>
      </trkpt>
      <trkpt lat="45.71737" lon="5.98047">
        <ele>631</ele>
        <time>2021-09-10T09:48:12.249Z</time>
      </trkpt>
      <trkpt lat="45.71743" lon="5.98049">
        <ele>630</ele>
        <time>2021-09-10T09:48:13.250Z</time>
      </trkpt>
      <trkpt lat="45.7175" lon="5.9805">
        <ele>629</ele>
        <time>2021-09-10T09:48:14.249Z</time>
      </trkpt>
      <trkpt lat="45.71756" lon="5.98052">
        <ele>629</ele>
        <time>2021-09-10T09:48:15.250Z</time>
      </trkpt>
      <trkpt lat="45.71762" lon="5.98053">
        <ele>628</ele>
        <time>2021-09-10T09:48:16.250Z</time>
      </trkpt>
      <trkpt lat="45.71769" lon="5.98054">
        <ele>628</ele>
        <time>2021-09-10T09:48:17.250Z</time>
      </trkpt>
      <trkpt lat="45.71775" lon="5.98056">
        <ele>627</ele>
        <time>2021-09-10T09:48:18.250Z</time>
      </trkpt>
      <trkpt lat="45.71781" lon="5.98056">
        <ele>627</ele>
        <time>2021-09-10T09:48:19.250Z</time>
      </trkpt>
      <trkpt lat="45.71788" lon="5.98057">
        <ele>627</ele>
        <time>2021-09-10T09:48:20.249Z</time>
      </trkpt>
      <trkpt lat="45.71794" lon="5.98058">
        <ele>627</ele>
        <time>2021-09-10T09:48:21.250Z</time>
      </trkpt>
      <trkpt lat="45.718" lon="5.98059">
        <ele>628</ele>
        <time>2021-09-10T09:48:22.250Z</time>
      </trkpt>
      <trkpt lat="45.71805" lon="5.9806">
        <ele>628</ele>
        <time>2021-09-10T09:48:23.250Z</time>
      </trkpt>
      <trkpt lat="45.71811" lon="5.98061">
        <ele>627</ele>
        <time>2021-09-10T09:48:24.250Z</time>
      </trkpt>
      <trkpt lat="45.71816" lon="5.98062">
        <ele>627</ele>
        <time>2021-09-10T09:48:25.250Z</time>
      </trkpt>
      <trkpt lat="45.71823" lon="5.98063">
        <ele>627</ele>
        <time>2021-09-10T09:48:26.250Z</time>
      </trkpt>
      <trkpt lat="45.71828" lon="5.98064">
        <ele>626</ele>
        <time>2021-09-10T09:48:27.250Z</time>
      </trkpt>
      <trkpt lat="45.71834" lon="5.98066">
        <ele>626</ele>
        <time>2021-09-10T09:48:28.249Z</time>
      </trkpt>
      <trkpt lat="45.7184" lon="5.98068">
        <ele>626</ele>
        <time>2021-09-10T09:48:29.249Z</time>
      </trkpt>
      <trkpt lat="45.71845" lon="5.98072">
        <ele>626</ele>
        <time>2021-09-10T09:48:30.249Z</time>
      </trkpt>
      <trkpt lat="45.71851" lon="5.98076">
        <ele>625</ele>
        <time>2021-09-10T09:48:31.250Z</time>
      </trkpt>
      <trkpt lat="45.71856" lon="5.98078">
        <ele>625</ele>
        <time>2021-09-10T09:48:32.249Z</time>
      </trkpt>
      <trkpt lat="45.71863" lon="5.98082">
        <ele>625</ele>
        <time>2021-09-10T09:48:33.250Z</time>
      </trkpt>
      <trkpt lat="45.71869" lon="5.98085">
        <ele>624</ele>
        <time>2021-09-10T09:48:34.249Z</time>
      </trkpt>
      <trkpt lat="45.71875" lon="5.98087">
        <ele>624</ele>
        <time>2021-09-10T09:48:35.250Z</time>
      </trkpt>
      <trkpt lat="45.71881" lon="5.98089">
        <ele>624</ele>
        <time>2021-09-10T09:48:36.249Z</time>
      </trkpt>
      <trkpt lat="45.71887" lon="5.98092">
        <ele>624</ele>
        <time>2021-09-10T09:48:37.250Z</time>
      </trkpt>
      <trkpt lat="45.71893" lon="5.98094">
        <ele>624</ele>
        <time>2021-09-10T09:48:38.250Z</time>
      </trkpt>
      <trkpt lat="45.71899" lon="5.98096">
        <ele>624</ele>
        <time>2021-09-10T09:48:39.250Z</time>
      </trkpt>
      <trkpt lat="45.71906" lon="5.98098">
        <ele>624</ele>
        <time>2021-09-10T09:48:40.249Z</time>
      </trkpt>
      <trkpt lat="45.71912" lon="5.98101">
        <ele>623</ele>
        <time>2021-09-10T09:48:41.249Z</time>
      </trkpt>
      <trkpt lat="45.71918" lon="5.98103">
        <ele>622</ele>
        <time>2021-09-10T09:48:42.250Z</time>
      </trkpt>
      <trkpt lat="45.71925" lon="5.98106">
        <ele>622</ele>
        <time>2021-09-10T09:48:43.249Z</time>
      </trkpt>
      <trkpt lat="45.71932" lon="5.98107">
        <ele>621</ele>
        <time>2021-09-10T09:48:44.249Z</time>
      </trkpt>
      <trkpt lat="45.71938" lon="5.98109">
        <ele>620</ele>
        <time>2021-09-10T09:48:45.249Z</time>
      </trkpt>
      <trkpt lat="45.71946" lon="5.98111">
        <ele>620</ele>
        <time>2021-09-10T09:48:46.250Z</time>
      </trkpt>
      <trkpt lat="45.71953" lon="5.98113">
        <ele>620</ele>
        <time>2021-09-10T09:48:47.250Z</time>
      </trkpt>
      <trkpt lat="45.7196" lon="5.98116">
        <ele>619</ele>
        <time>2021-09-10T09:48:48.250Z</time>
      </trkpt>
      <trkpt lat="45.71968" lon="5.98119">
        <ele>618</ele>
        <time>2021-09-10T09:48:49.249Z</time>
      </trkpt>
      <trkpt lat="45.71975" lon="5.98122">
        <ele>618</ele>
        <time>2021-09-10T09:48:50.250Z</time>
      </trkpt>
      <trkpt lat="45.71982" lon="5.98126">
        <ele>617</ele>
        <time>2021-09-10T09:48:51.250Z</time>
      </trkpt>
      <trkpt lat="45.7199" lon="5.98131">
        <ele>616</ele>
        <time>2021-09-10T09:48:52.250Z</time>
      </trkpt>
      <trkpt lat="45.71998" lon="5.98135">
        <ele>615</ele>
        <time>2021-09-10T09:48:53.250Z</time>
      </trkpt>
      <trkpt lat="45.72005" lon="5.9814">
        <ele>614</ele>
        <time>2021-09-10T09:48:54.250Z</time>
      </trkpt>
      <trkpt lat="45.72013" lon="5.98144">
        <ele>613</ele>
        <time>2021-09-10T09:48:55.250Z</time>
      </trkpt>
      <trkpt lat="45.72021" lon="5.98148">
        <ele>613</ele>
        <time>2021-09-10T09:48:56.249Z</time>
      </trkpt>
      <trkpt lat="45.72029" lon="5.98152">
        <ele>613</ele>
        <time>2021-09-10T09:48:57.250Z</time>
      </trkpt>
      <trkpt lat="45.72038" lon="5.98155">
        <ele>612</ele>
        <time>2021-09-10T09:48:58.250Z</time>
      </trkpt>
      <trkpt lat="45.72046" lon="5.98158">
        <ele>612</ele>
        <time>2021-09-10T09:48:59.249Z</time>
      </trkpt>
      <trkpt lat="45.72055" lon="5.98161">
        <ele>612</ele>
        <time>2021-09-10T09:49:00.250Z</time>
      </trkpt>
      <trkpt lat="45.72063" lon="5.98163">
        <ele>612</ele>
        <time>2021-09-10T09:49:01.250Z</time>
      </trkpt>
      <trkpt lat="45.72072" lon="5.98165">
        <ele>612</ele>
        <time>2021-09-10T09:49:02.250Z</time>
      </trkpt>
      <trkpt lat="45.7208" lon="5.98167">
        <ele>612</ele>
        <time>2021-09-10T09:49:03.250Z</time>
      </trkpt>
      <trkpt lat="45.72089" lon="5.98169">
        <ele>612</ele>
        <time>2021-09-10T09:49:04.250Z</time>
      </trkpt>
      <trkpt lat="45.72097" lon="5.98171">
        <ele>612</ele>
        <time>2021-09-10T09:49:05.250Z</time>
      </trkpt>
      <trkpt lat="45.72105" lon="5.98172">
        <ele>612</ele>
        <time>2021-09-10T09:49:06.250Z</time>
      </trkpt>
      <trkpt lat="45.72113" lon="5.98174">
        <ele>612</ele>
        <time>2021-09-10T09:49:07.250Z</time>
      </trkpt>
      <trkpt lat="45.72121" lon="5.98175">
        <ele>612</ele>
        <time>2021-09-10T09:49:08.250Z</time>
      </trkpt>
      <trkpt lat="45.72129" lon="5.98177">
        <ele>612</ele>
        <time>2021-09-10T09:49:09.249Z</time>
      </trkpt>
      <trkpt lat="45.72137" lon="5.98178">
        <ele>612</ele>
        <time>2021-09-10T09:49:10.250Z</time>
      </trkpt>
      <trkpt lat="45.72145" lon="5.98179">
        <ele>612</ele>
        <time>2021-09-10T09:49:11.250Z</time>
      </trkpt>
      <trkpt lat="45.72152" lon="5.9818">
        <ele>612</ele>
        <time>2021-09-10T09:49:12.250Z</time>
      </trkpt>
      <trkpt lat="45.72159" lon="5.98181">
        <ele>613</ele>
        <time>2021-09-10T09:49:13.250Z</time>
      </trkpt>
      <trkpt lat="45.72166" lon="5.98181">
        <ele>613</ele>
        <time>2021-09-10T09:49:14.250Z</time>
      </trkpt>
      <trkpt lat="45.72171" lon="5.98182">
        <ele>614</ele>
        <time>2021-09-10T09:49:15.249Z</time>
      </trkpt>
      <trkpt lat="45.72178" lon="5.98183">
        <ele>614</ele>
        <time>2021-09-10T09:49:16.249Z</time>
      </trkpt>
      <trkpt lat="45.72185" lon="5.98184">
        <ele>614</ele>
        <time>2021-09-10T09:49:17.249Z</time>
      </trkpt>
      <trkpt lat="45.72192" lon="5.98185">
        <ele>614</ele>
        <time>2021-09-10T09:49:18.250Z</time>
      </trkpt>
      <trkpt lat="45.72198" lon="5.98187">
        <ele>613</ele>
        <time>2021-09-10T09:49:19.250Z</time>
      </trkpt>
      <trkpt lat="45.72204" lon="5.98188">
        <ele>613</ele>
        <time>2021-09-10T09:49:20.250Z</time>
      </trkpt>
      <trkpt lat="45.72209" lon="5.98191">
        <ele>612</ele>
        <time>2021-09-10T09:49:21.250Z</time>
      </trkpt>
      <trkpt lat="45.72215" lon="5.98194">
        <ele>611</ele>
        <time>2021-09-10T09:49:22.250Z</time>
      </trkpt>
      <trkpt lat="45.72221" lon="5.98197">
        <ele>611</ele>
        <time>2021-09-10T09:49:23.249Z</time>
      </trkpt>
      <trkpt lat="45.72227" lon="5.98201">
        <ele>611</ele>
        <time>2021-09-10T09:49:24.249Z</time>
      </trkpt>
      <trkpt lat="45.72232" lon="5.98206">
        <ele>611</ele>
        <time>2021-09-10T09:49:25.249Z</time>
      </trkpt>
      <trkpt lat="45.72237" lon="5.9821">
        <ele>611</ele>
        <time>2021-09-10T09:49:26.250Z</time>
      </trkpt>
      <trkpt lat="45.72243" lon="5.98215">
        <ele>610</ele>
        <time>2021-09-10T09:49:27.250Z</time>
      </trkpt>
      <trkpt lat="45.72248" lon="5.98219">
        <ele>610</ele>
        <time>2021-09-10T09:49:28.250Z</time>
      </trkpt>
      <trkpt lat="45.72252" lon="5.98223">
        <ele>610</ele>
        <time>2021-09-10T09:49:29.250Z</time>
      </trkpt>
      <trkpt lat="45.72257" lon="5.98228">
        <ele>609</ele>
        <time>2021-09-10T09:49:30.250Z</time>
      </trkpt>
      <trkpt lat="45.7226" lon="5.98234">
        <ele>608</ele>
        <time>2021-09-10T09:49:31.250Z</time>
      </trkpt>
      <trkpt lat="45.72263" lon="5.98239">
        <ele>608</ele>
        <time>2021-09-10T09:49:32.250Z</time>
      </trkpt>
      <trkpt lat="45.72265" lon="5.98246">
        <ele>607</ele>
        <time>2021-09-10T09:49:33.250Z</time>
      </trkpt>
      <trkpt lat="45.72266" lon="5.98252">
        <ele>607</ele>
        <time>2021-09-10T09:49:34.250Z</time>
      </trkpt>
      <trkpt lat="45.72267" lon="5.98258">
        <ele>607</ele>
        <time>2021-09-10T09:49:35.250Z</time>
      </trkpt>
      <trkpt lat="45.72266" lon="5.98264">
        <ele>607</ele>
        <time>2021-09-10T09:49:36.250Z</time>
      </trkpt>
      <trkpt lat="45.72265" lon="5.98269">
        <ele>607</ele>
        <time>2021-09-10T09:49:37.250Z</time>
      </trkpt>
      <trkpt lat="45.72263" lon="5.98273">
        <ele>607</ele>
        <time>2021-09-10T09:49:38.249Z</time>
      </trkpt>
      <trkpt lat="45.72261" lon="5.98276">
        <ele>607</ele>
        <time>2021-09-10T09:49:39.250Z</time>
      </trkpt>
      <trkpt lat="45.72259" lon="5.98278">
        <ele>607</ele>
        <time>2021-09-10T09:49:40.249Z</time>
      </trkpt>
      <trkpt lat="45.72257" lon="5.98281">
        <ele>607</ele>
        <time>2021-09-10T09:49:41.250Z</time>
      </trkpt>
      <trkpt lat="45.72254" lon="5.98284">
        <ele>606</ele>
        <time>2021-09-10T09:49:42.250Z</time>
      </trkpt>
      <trkpt lat="45.72252" lon="5.98286">
        <ele>606</ele>
        <time>2021-09-10T09:49:43.249Z</time>
      </trkpt>
      <trkpt lat="45.7225" lon="5.98288">
        <ele>606</ele>
        <time>2021-09-10T09:49:44.250Z</time>
      </trkpt>
      <trkpt lat="45.72248" lon="5.9829">
        <ele>606</ele>
        <time>2021-09-10T09:49:45.250Z</time>
      </trkpt>
      <trkpt lat="45.72246" lon="5.98292">
        <ele>606</ele>
        <time>2021-09-10T09:49:46.249Z</time>
      </trkpt>
      <trkpt lat="45.72244" lon="5.98294">
        <ele>606</ele>
        <time>2021-09-10T09:49:47.249Z</time>
      </trkpt>
      <trkpt lat="45.72242" lon="5.98296">
        <ele>607</ele>
        <time>2021-09-10T09:49:48.250Z</time>
      </trkpt>
      <trkpt lat="45.72239" lon="5.98298">
        <ele>607</ele>
        <time>2021-09-10T09:49:49.250Z</time>
      </trkpt>
      <trkpt lat="45.72237" lon="5.98301">
        <ele>608</ele>
        <time>2021-09-10T09:49:50.250Z</time>
      </trkpt>
      <trkpt lat="45.72235" lon="5.98303">
        <ele>608</ele>
        <time>2021-09-10T09:49:51.249Z</time>
      </trkpt>
      <trkpt lat="45.72233" lon="5.98305">
        <ele>608</ele>
        <time>2021-09-10T09:49:52.249Z</time>
      </trkpt>
      <trkpt lat="45.7223" lon="5.98307">
        <ele>609</ele>
        <time>2021-09-10T09:49:53.249Z</time>
      </trkpt>
      <trkpt lat="45.72228" lon="5.9831">
        <ele>609</ele>
        <time>2021-09-10T09:49:54.250Z</time>
      </trkpt>
      <trkpt lat="45.72226" lon="5.98312">
        <ele>609</ele>
        <time>2021-09-10T09:49:55.250Z</time>
      </trkpt>
      <trkpt lat="45.72224" lon="5.98314">
        <ele>609</ele>
        <time>2021-09-10T09:49:56.250Z</time>
      </trkpt>
      <trkpt lat="45.72222" lon="5.98317">
        <ele>609</ele>
        <time>2021-09-10T09:49:57.250Z</time>
      </trkpt>
      <trkpt lat="45.7222" lon="5.98319">
        <ele>609</ele>
        <time>2021-09-10T09:49:58.250Z</time>
      </trkpt>
      <trkpt lat="45.72219" lon="5.98321">
        <ele>609</ele>
        <time>2021-09-10T09:49:59.249Z</time>
      </trkpt>
      <trkpt lat="45.72216" lon="5.98324">
        <ele>609</ele>
        <time>2021-09-10T09:50:00.250Z</time>
      </trkpt>
      <trkpt lat="45.72214" lon="5.98327">
        <ele>610</ele>
        <time>2021-09-10T09:50:01.249Z</time>
      </trkpt>
      <trkpt lat="45.72213" lon="5.98329">
        <ele>610</ele>
        <time>2021-09-10T09:50:02.250Z</time>
      </trkpt>
      <trkpt lat="45.72211" lon="5.98331">
        <ele>610</ele>
        <time>2021-09-10T09:50:03.249Z</time>
      </trkpt>
      <trkpt lat="45.72209" lon="5.98333">
        <ele>610</ele>
        <time>2021-09-10T09:50:04.250Z</time>
      </trkpt>
      <trkpt lat="45.72208" lon="5.98335">
        <ele>610</ele>
        <time>2021-09-10T09:50:05.250Z</time>
      </trkpt>
      <trkpt lat="45.72206" lon="5.98337">
        <ele>610</ele>
        <time>2021-09-10T09:50:06.249Z</time>
      </trkpt>
      <trkpt lat="45.72204" lon="5.9834">
        <ele>610</ele>
        <time>2021-09-10T09:50:07.250Z</time>
      </trkpt>
      <trkpt lat="45.72202" lon="5.98342">
        <ele>610</ele>
        <time>2021-09-10T09:50:08.249Z</time>
      </trkpt>
      <trkpt lat="45.722" lon="5.98344">
        <ele>610</ele>
        <time>2021-09-10T09:50:09.250Z</time>
      </trkpt>
      <trkpt lat="45.72198" lon="5.98346">
        <ele>610</ele>
        <time>2021-09-10T09:50:10.250Z</time>
      </trkpt>
      <trkpt lat="45.72196" lon="5.98348">
        <ele>610</ele>
        <time>2021-09-10T09:50:11.250Z</time>
      </trkpt>
      <trkpt lat="45.72194" lon="5.9835">
        <ele>610</ele>
        <time>2021-09-10T09:50:12.249Z</time>
      </trkpt>
      <trkpt lat="45.72192" lon="5.98353">
        <ele>610</ele>
        <time>2021-09-10T09:50:13.249Z</time>
      </trkpt>
      <trkpt lat="45.72191" lon="5.98355">
        <ele>610</ele>
        <time>2021-09-10T09:50:14.250Z</time>
      </trkpt>
      <trkpt lat="45.72189" lon="5.98357">
        <ele>610</ele>
        <time>2021-09-10T09:50:15.249Z</time>
      </trkpt>
      <trkpt lat="45.72188" lon="5.98358">
        <ele>610</ele>
        <time>2021-09-10T09:50:16.250Z</time>
      </trkpt>
      <trkpt lat="45.72186" lon="5.9836">
        <ele>610</ele>
        <time>2021-09-10T09:50:17.250Z</time>
      </trkpt>
      <trkpt lat="45.72184" lon="5.98362">
        <ele>610</ele>
        <time>2021-09-10T09:50:18.250Z</time>
      </trkpt>
      <trkpt lat="45.72182" lon="5.98364">
        <ele>610</ele>
        <time>2021-09-10T09:50:19.249Z</time>
      </trkpt>
      <trkpt lat="45.7218" lon="5.98366">
        <ele>610</ele>
        <time>2021-09-10T09:50:20.250Z</time>
      </trkpt>
      <trkpt lat="45.72179" lon="5.98368">
        <ele>610</ele>
        <time>2021-09-10T09:50:21.250Z</time>
      </trkpt>
      <trkpt lat="45.72177" lon="5.9837">
        <ele>610</ele>
        <time>2021-09-10T09:50:22.250Z</time>
      </trkpt>
      <trkpt lat="45.72176" lon="5.98372">
        <ele>610</ele>
        <time>2021-09-10T09:50:23.249Z</time>
      </trkpt>
      <trkpt lat="45.72175" lon="5.98374">
        <ele>610</ele>
        <time>2021-09-10T09:50:24.250Z</time>
      </trkpt>
      <trkpt lat="45.72174" lon="5.98377">
        <ele>611</ele>
        <time>2021-09-10T09:50:25.250Z</time>
      </trkpt>
      <trkpt lat="45.72172" lon="5.98379">
        <ele>611</ele>
        <time>2021-09-10T09:50:26.250Z</time>
      </trkpt>
      <trkpt lat="45.72171" lon="5.98381">
        <ele>611</ele>
        <time>2021-09-10T09:50:27.250Z</time>
      </trkpt>
      <trkpt lat="45.72169" lon="5.98383">
        <ele>611</ele>
        <time>2021-09-10T09:50:28.249Z</time>
      </trkpt>
      <trkpt lat="45.72168" lon="5.98385">
        <ele>611</ele>
        <time>2021-09-10T09:50:29.249Z</time>
      </trkpt>
      <trkpt lat="45.72167" lon="5.98388">
        <ele>611</ele>
        <time>2021-09-10T09:50:30.249Z</time>
      </trkpt>
      <trkpt lat="45.72166" lon="5.9839">
        <ele>612</ele>
        <time>2021-09-10T09:50:31.250Z</time>
      </trkpt>
      <trkpt lat="45.72165" lon="5.98392">
        <ele>612</ele>
        <time>2021-09-10T09:50:32.249Z</time>
      </trkpt>
      <trkpt lat="45.72164" lon="5.98395">
        <ele>612</ele>
        <time>2021-09-10T09:50:33.250Z</time>
      </trkpt>
      <trkpt lat="45.72163" lon="5.98398">
        <ele>613</ele>
        <time>2021-09-10T09:50:34.250Z</time>
      </trkpt>
      <trkpt lat="45.72163" lon="5.984">
        <ele>613</ele>
        <time>2021-09-10T09:50:35.250Z</time>
      </trkpt>
      <trkpt lat="45.72162" lon="5.98403">
        <ele>614</ele>
        <time>2021-09-10T09:50:36.249Z</time>
      </trkpt>
      <trkpt lat="45.72161" lon="5.98406">
        <ele>614</ele>
        <time>2021-09-10T09:50:37.250Z</time>
      </trkpt>
      <trkpt lat="45.72161" lon="5.98409">
        <ele>615</ele>
        <time>2021-09-10T09:50:38.250Z</time>
      </trkpt>
      <trkpt lat="45.72161" lon="5.98411">
        <ele>615</ele>
        <time>2021-09-10T09:50:39.250Z</time>
      </trkpt>
      <trkpt lat="45.7216" lon="5.98414">
        <ele>616</ele>
        <time>2021-09-10T09:50:40.250Z</time>
      </trkpt>
      <trkpt lat="45.72159" lon="5.98417">
        <ele>616</ele>
        <time>2021-09-10T09:50:41.250Z</time>
      </trkpt>
      <trkpt lat="45.72158" lon="5.98419">
        <ele>616</ele>
        <time>2021-09-10T09:50:42.249Z</time>
      </trkpt>
      <trkpt lat="45.72158" lon="5.98421">
        <ele>616</ele>
        <time>2021-09-10T09:50:43.250Z</time>
      </trkpt>
      <trkpt lat="45.72157" lon="5.98424">
        <ele>616</ele>
        <time>2021-09-10T09:50:44.249Z</time>
      </trkpt>
      <trkpt lat="45.72156" lon="5.98427">
        <ele>617</ele>
        <time>2021-09-10T09:50:45.250Z</time>
      </trkpt>
      <trkpt lat="45.72156" lon="5.9843">
        <ele>617</ele>
        <time>2021-09-10T09:50:46.250Z</time>
      </trkpt>
      <trkpt lat="45.72155" lon="5.98432">
        <ele>617</ele>
        <time>2021-09-10T09:50:47.249Z</time>
      </trkpt>
      <trkpt lat="45.72155" lon="5.98435">
        <ele>617</ele>
        <time>2021-09-10T09:50:48.250Z</time>
      </trkpt>
      <trkpt lat="45.72154" lon="5.98438">
        <ele>617</ele>
        <time>2021-09-10T09:50:49.250Z</time>
      </trkpt>
      <trkpt lat="45.72154" lon="5.98441">
        <ele>617</ele>
        <time>2021-09-10T09:50:50.249Z</time>
      </trkpt>
      <trkpt lat="45.72153" lon="5.98444">
        <ele>617</ele>
        <time>2021-09-10T09:50:51.250Z</time>
      </trkpt>
      <trkpt lat="45.72153" lon="5.98446">
        <ele>617</ele>
        <time>2021-09-10T09:50:52.250Z</time>
      </trkpt>
      <trkpt lat="45.72153" lon="5.98449">
        <ele>617</ele>
        <time>2021-09-10T09:50:53.250Z</time>
      </trkpt>
      <trkpt lat="45.72153" lon="5.98452">
        <ele>618</ele>
        <time>2021-09-10T09:50:54.250Z</time>
      </trkpt>
      <trkpt lat="45.72152" lon="5.98455">
        <ele>618</ele>
        <time>2021-09-10T09:50:55.250Z</time>
      </trkpt>
      <trkpt lat="45.72152" lon="5.98458">
        <ele>618</ele>
        <time>2021-09-10T09:50:56.249Z</time>
      </trkpt>
      <trkpt lat="45.72152" lon="5.9846">
        <ele>618</ele>
        <time>2021-09-10T09:50:57.250Z</time>
      </trkpt>
      <trkpt lat="45.72151" lon="5.98462">
        <ele>618</ele>
        <time>2021-09-10T09:50:58.250Z</time>
      </trkpt>
      <trkpt lat="45.7215" lon="5.98464">
        <ele>619</ele>
        <time>2021-09-10T09:50:59.250Z</time>
      </trkpt>
      <trkpt lat="45.72149" lon="5.98467">
        <ele>620</ele>
        <time>2021-09-10T09:51:00.250Z</time>
      </trkpt>
      <trkpt lat="45.72148" lon="5.98469">
        <ele>620</ele>
        <time>2021-09-10T09:51:01.250Z</time>
      </trkpt>
      <trkpt lat="45.72148" lon="5.98472">
        <ele>621</ele>
        <time>2021-09-10T09:51:02.250Z</time>
      </trkpt>
      <trkpt lat="45.72147" lon="5.98474">
        <ele>621</ele>
        <time>2021-09-10T09:51:03.250Z</time>
      </trkpt>
      <trkpt lat="45.72147" lon="5.98477">
        <ele>621</ele>
        <time>2021-09-10T09:51:04.250Z</time>
      </trkpt>
      <trkpt lat="45.72146" lon="5.9848">
        <ele>621</ele>
        <time>2021-09-10T09:51:05.250Z</time>
      </trkpt>
      <trkpt lat="45.72146" lon="5.98483">
        <ele>621</ele>
        <time>2021-09-10T09:51:06.250Z</time>
      </trkpt>
      <trkpt lat="45.72145" lon="5.98485">
        <ele>621</ele>
        <time>2021-09-10T09:51:07.250Z</time>
      </trkpt>
      <trkpt lat="45.72145" lon="5.98488">
        <ele>621</ele>
        <time>2021-09-10T09:51:08.250Z</time>
      </trkpt>
      <trkpt lat="45.72145" lon="5.9849">
        <ele>621</ele>
        <time>2021-09-10T09:51:09.249Z</time>
      </trkpt>
      <trkpt lat="45.72145" lon="5.98492">
        <ele>622</ele>
        <time>2021-09-10T09:51:10.249Z</time>
      </trkpt>
      <trkpt lat="45.72146" lon="5.98495">
        <ele>622</ele>
        <time>2021-09-10T09:51:11.250Z</time>
      </trkpt>
      <trkpt lat="45.72147" lon="5.98498">
        <ele>622</ele>
        <time>2021-09-10T09:51:12.250Z</time>
      </trkpt>
      <trkpt lat="45.72147" lon="5.98501">
        <ele>622</ele>
        <time>2021-09-10T09:51:13.249Z</time>
      </trkpt>
      <trkpt lat="45.72148" lon="5.98502">
        <ele>622</ele>
        <time>2021-09-10T09:51:14.250Z</time>
      </trkpt>
      <trkpt lat="45.7215" lon="5.98504">
        <ele>622</ele>
        <time>2021-09-10T09:51:15.249Z</time>
      </trkpt>
      <trkpt lat="45.72151" lon="5.98506">
        <ele>622</ele>
        <time>2021-09-10T09:51:16.250Z</time>
      </trkpt>
      <trkpt lat="45.72153" lon="5.98508">
        <ele>622</ele>
        <time>2021-09-10T09:51:17.250Z</time>
      </trkpt>
      <trkpt lat="45.72154" lon="5.9851">
        <ele>623</ele>
        <time>2021-09-10T09:51:18.250Z</time>
      </trkpt>
      <trkpt lat="45.72156" lon="5.98512">
        <ele>623</ele>
        <time>2021-09-10T09:51:19.250Z</time>
      </trkpt>
      <trkpt lat="45.72157" lon="5.98514">
        <ele>623</ele>
        <time>2021-09-10T09:51:20.250Z</time>
      </trkpt>
      <trkpt lat="45.72159" lon="5.98516">
        <ele>623</ele>
        <time>2021-09-10T09:51:21.250Z</time>
      </trkpt>
      <trkpt lat="45.7216" lon="5.98517">
        <ele>623</ele>
        <time>2021-09-10T09:51:22.250Z</time>
      </trkpt>
      <trkpt lat="45.72162" lon="5.98519">
        <ele>623</ele>
        <time>2021-09-10T09:51:23.250Z</time>
      </trkpt>
      <trkpt lat="45.72164" lon="5.98521">
        <ele>623</ele>
        <time>2021-09-10T09:51:24.249Z</time>
      </trkpt>
      <trkpt lat="45.72165" lon="5.98523">
        <ele>623</ele>
        <time>2021-09-10T09:51:25.250Z</time>
      </trkpt>
      <trkpt lat="45.72167" lon="5.98524">
        <ele>623</ele>
        <time>2021-09-10T09:51:26.250Z</time>
      </trkpt>
      <trkpt lat="45.72168" lon="5.98526">
        <ele>623</ele>
        <time>2021-09-10T09:51:27.250Z</time>
      </trkpt>
      <trkpt lat="45.7217" lon="5.98527">
        <ele>623</ele>
        <time>2021-09-10T09:51:28.249Z</time>
      </trkpt>
      <trkpt lat="45.72172" lon="5.98529">
        <ele>623</ele>
        <time>2021-09-10T09:51:29.250Z</time>
      </trkpt>
      <trkpt lat="45.72174" lon="5.98531">
        <ele>623</ele>
        <time>2021-09-10T09:51:30.250Z</time>
      </trkpt>
      <trkpt lat="45.72175" lon="5.98533">
        <ele>623</ele>
        <time>2021-09-10T09:51:31.250Z</time>
      </trkpt>
      <trkpt lat="45.72177" lon="5.98535">
        <ele>623</ele>
        <time>2021-09-10T09:51:32.250Z</time>
      </trkpt>
      <trkpt lat="45.72179" lon="5.98537">
        <ele>624</ele>
        <time>2021-09-10T09:51:33.249Z</time>
      </trkpt>
      <trkpt lat="45.7218" lon="5.98539">
        <ele>624</ele>
        <time>2021-09-10T09:51:34.249Z</time>
      </trkpt>
      <trkpt lat="45.72182" lon="5.98541">
        <ele>624</ele>
        <time>2021-09-10T09:51:35.250Z</time>
      </trkpt>
      <trkpt lat="45.72183" lon="5.98543">
        <ele>624</ele>
        <time>2021-09-10T09:51:36.250Z</time>
      </trkpt>
      <trkpt lat="45.72185" lon="5.98545">
        <ele>624</ele>
        <time>2021-09-10T09:51:37.249Z</time>
      </trkpt>
      <trkpt lat="45.72186" lon="5.98547">
        <ele>624</ele>
        <time>2021-09-10T09:51:38.249Z</time>
      </trkpt>
      <trkpt lat="45.72188" lon="5.98549">
        <ele>625</ele>
        <time>2021-09-10T09:51:39.250Z</time>
      </trkpt>
      <trkpt lat="45.7219" lon="5.98551">
        <ele>625</ele>
        <time>2021-09-10T09:51:40.250Z</time>
      </trkpt>
      <trkpt lat="45.72192" lon="5.98554">
        <ele>625</ele>
        <time>2021-09-10T09:51:41.250Z</time>
      </trkpt>
      <trkpt lat="45.72194" lon="5.98557">
        <ele>626</ele>
        <time>2021-09-10T09:51:42.249Z</time>
      </trkpt>
      <trkpt lat="45.72196" lon="5.98559">
        <ele>626</ele>
        <time>2021-09-10T09:51:43.250Z</time>
      </trkpt>
      <trkpt lat="45.72199" lon="5.98561">
        <ele>627</ele>
        <time>2021-09-10T09:51:44.250Z</time>
      </trkpt>
      <trkpt lat="45.72201" lon="5.98563">
        <ele>627</ele>
        <time>2021-09-10T09:51:45.250Z</time>
      </trkpt>
      <trkpt lat="45.72202" lon="5.98565">
        <ele>628</ele>
        <time>2021-09-10T09:51:46.250Z</time>
      </trkpt>
      <trkpt lat="45.72204" lon="5.98567">
        <ele>628</ele>
        <time>2021-09-10T09:51:47.250Z</time>
      </trkpt>
      <trkpt lat="45.72205" lon="5.98568">
        <ele>628</ele>
        <time>2021-09-10T09:51:48.250Z</time>
      </trkpt>
      <trkpt lat="45.72208" lon="5.98571">
        <ele>628</ele>
        <time>2021-09-10T09:51:58.400Z</time>
      </trkpt>
      <trkpt lat="45.7221" lon="5.98573">
        <ele>629</ele>
        <time>2021-09-10T09:51:59.401Z</time>
      </trkpt>
      <trkpt lat="45.72211" lon="5.98576">
        <ele>628</ele>
        <time>2021-09-10T09:52:00.401Z</time>
      </trkpt>
      <trkpt lat="45.72212" lon="5.98579">
        <ele>628</ele>
        <time>2021-09-10T09:52:01.401Z</time>
      </trkpt>
      <trkpt lat="45.72214" lon="5.98582">
        <ele>628</ele>
        <time>2021-09-10T09:52:02.400Z</time>
      </trkpt>
      <trkpt lat="45.72216" lon="5.98584">
        <ele>627</ele>
        <time>2021-09-10T09:52:03.401Z</time>
      </trkpt>
      <trkpt lat="45.72218" lon="5.98587">
        <ele>627</ele>
        <time>2021-09-10T09:52:04.401Z</time>
      </trkpt>
      <trkpt lat="45.7222" lon="5.98589">
        <ele>627</ele>
        <time>2021-09-10T09:52:05.400Z</time>
      </trkpt>
      <trkpt lat="45.72222" lon="5.98591">
        <ele>627</ele>
        <time>2021-09-10T09:52:06.401Z</time>
      </trkpt>
      <trkpt lat="45.72223" lon="5.98594">
        <ele>627</ele>
        <time>2021-09-10T09:52:07.400Z</time>
      </trkpt>
      <trkpt lat="45.72225" lon="5.98596">
        <ele>626</ele>
        <time>2021-09-10T09:52:08.400Z</time>
      </trkpt>
      <trkpt lat="45.72227" lon="5.98598">
        <ele>626</ele>
        <time>2021-09-10T09:52:09.400Z</time>
      </trkpt>
      <trkpt lat="45.72229" lon="5.986">
        <ele>625</ele>
        <time>2021-09-10T09:52:10.401Z</time>
      </trkpt>
      <trkpt lat="45.7223" lon="5.98603">
        <ele>625</ele>
        <time>2021-09-10T09:52:11.401Z</time>
      </trkpt>
      <trkpt lat="45.72232" lon="5.98605">
        <ele>624</ele>
        <time>2021-09-10T09:52:12.400Z</time>
      </trkpt>
      <trkpt lat="45.72233" lon="5.98607">
        <ele>624</ele>
        <time>2021-09-10T09:52:13.401Z</time>
      </trkpt>
      <trkpt lat="45.72235" lon="5.9861">
        <ele>624</ele>
        <time>2021-09-10T09:52:14.401Z</time>
      </trkpt>
      <trkpt lat="45.72237" lon="5.98612">
        <ele>623</ele>
        <time>2021-09-10T09:52:15.400Z</time>
      </trkpt>
      <trkpt lat="45.72239" lon="5.98614">
        <ele>623</ele>
        <time>2021-09-10T09:52:16.401Z</time>
      </trkpt>
      <trkpt lat="45.72241" lon="5.98616">
        <ele>623</ele>
        <time>2021-09-10T09:52:17.401Z</time>
      </trkpt>
      <trkpt lat="45.72243" lon="5.98618">
        <ele>624</ele>
        <time>2021-09-10T09:52:18.401Z</time>
      </trkpt>
      <trkpt lat="45.72245" lon="5.98621">
        <ele>624</ele>
        <time>2021-09-10T09:52:19.401Z</time>
      </trkpt>
      <trkpt lat="45.72247" lon="5.98623">
        <ele>624</ele>
        <time>2021-09-10T09:52:20.401Z</time>
      </trkpt>
      <trkpt lat="45.72249" lon="5.98626">
        <ele>624</ele>
        <time>2021-09-10T09:52:21.401Z</time>
      </trkpt>
      <trkpt lat="45.72251" lon="5.98628">
        <ele>624</ele>
        <time>2021-09-10T09:52:22.401Z</time>
      </trkpt>
      <trkpt lat="45.72253" lon="5.9863">
        <ele>624</ele>
        <time>2021-09-10T09:52:23.400Z</time>
      </trkpt>
      <trkpt lat="45.72255" lon="5.98633">
        <ele>624</ele>
        <time>2021-09-10T09:52:24.401Z</time>
      </trkpt>
      <trkpt lat="45.72257" lon="5.98635">
        <ele>624</ele>
        <time>2021-09-10T09:52:25.401Z</time>
      </trkpt>
      <trkpt lat="45.72259" lon="5.98637">
        <ele>624</ele>
        <time>2021-09-10T09:52:26.401Z</time>
      </trkpt>
      <trkpt lat="45.72261" lon="5.9864">
        <ele>624</ele>
        <time>2021-09-10T09:52:27.400Z</time>
      </trkpt>
      <trkpt lat="45.72263" lon="5.98642">
        <ele>625</ele>
        <time>2021-09-10T09:52:28.400Z</time>
      </trkpt>
      <trkpt lat="45.72266" lon="5.98645">
        <ele>625</ele>
        <time>2021-09-10T09:52:29.401Z</time>
      </trkpt>
      <trkpt lat="45.72268" lon="5.98647">
        <ele>625</ele>
        <time>2021-09-10T09:52:30.401Z</time>
      </trkpt>
      <trkpt lat="45.7227" lon="5.9865">
        <ele>625</ele>
        <time>2021-09-10T09:52:31.401Z</time>
      </trkpt>
      <trkpt lat="45.72271" lon="5.98653">
        <ele>626</ele>
        <time>2021-09-10T09:52:32.400Z</time>
      </trkpt>
      <trkpt lat="45.72273" lon="5.98655">
        <ele>626</ele>
        <time>2021-09-10T09:52:33.401Z</time>
      </trkpt>
      <trkpt lat="45.72275" lon="5.98657">
        <ele>626</ele>
        <time>2021-09-10T09:52:34.401Z</time>
      </trkpt>
      <trkpt lat="45.72277" lon="5.9866">
        <ele>626</ele>
        <time>2021-09-10T09:52:35.401Z</time>
      </trkpt>
      <trkpt lat="45.72279" lon="5.98662">
        <ele>626</ele>
        <time>2021-09-10T09:52:36.401Z</time>
      </trkpt>
      <trkpt lat="45.72281" lon="5.98664">
        <ele>626</ele>
        <time>2021-09-10T09:52:37.400Z</time>
      </trkpt>
      <trkpt lat="45.72283" lon="5.98667">
        <ele>626</ele>
        <time>2021-09-10T09:52:38.401Z</time>
      </trkpt>
      <trkpt lat="45.72285" lon="5.98669">
        <ele>626</ele>
        <time>2021-09-10T09:52:39.401Z</time>
      </trkpt>
      <trkpt lat="45.72287" lon="5.98671">
        <ele>626</ele>
        <time>2021-09-10T09:52:40.400Z</time>
      </trkpt>
      <trkpt lat="45.72289" lon="5.98674">
        <ele>626</ele>
        <time>2021-09-10T09:52:41.401Z</time>
      </trkpt>
      <trkpt lat="45.72291" lon="5.98676">
        <ele>627</ele>
        <time>2021-09-10T09:52:42.401Z</time>
      </trkpt>
      <trkpt lat="45.72293" lon="5.98678">
        <ele>627</ele>
        <time>2021-09-10T09:52:43.400Z</time>
      </trkpt>
      <trkpt lat="45.72294" lon="5.9868">
        <ele>627</ele>
        <time>2021-09-10T09:52:44.400Z</time>
      </trkpt>
      <trkpt lat="45.72296" lon="5.98683">
        <ele>628</ele>
        <time>2021-09-10T09:52:45.401Z</time>
      </trkpt>
      <trkpt lat="45.72298" lon="5.98685">
        <ele>628</ele>
        <time>2021-09-10T09:52:46.401Z</time>
      </trkpt>
      <trkpt lat="45.723" lon="5.98687">
        <ele>628</ele>
        <time>2021-09-10T09:52:47.400Z</time>
      </trkpt>
      <trkpt lat="45.72302" lon="5.98689">
        <ele>628</ele>
        <time>2021-09-10T09:52:48.401Z</time>
      </trkpt>
      <trkpt lat="45.72304" lon="5.98691">
        <ele>628</ele>
        <time>2021-09-10T09:52:49.401Z</time>
      </trkpt>
      <trkpt lat="45.72305" lon="5.98693">
        <ele>628</ele>
        <time>2021-09-10T09:52:50.401Z</time>
      </trkpt>
      <trkpt lat="45.72308" lon="5.98696">
        <ele>628</ele>
        <time>2021-09-10T09:52:51.401Z</time>
      </trkpt>
      <trkpt lat="45.72309" lon="5.98698">
        <ele>628</ele>
        <time>2021-09-10T09:52:52.400Z</time>
      </trkpt>
      <trkpt lat="45.72311" lon="5.98701">
        <ele>629</ele>
        <time>2021-09-10T09:52:53.401Z</time>
      </trkpt>
      <trkpt lat="45.72313" lon="5.98702">
        <ele>629</ele>
        <time>2021-09-10T09:52:54.401Z</time>
      </trkpt>
      <trkpt lat="45.72315" lon="5.98705">
        <ele>630</ele>
        <time>2021-09-10T09:52:55.401Z</time>
      </trkpt>
      <trkpt lat="45.72317" lon="5.98708">
        <ele>630</ele>
        <time>2021-09-10T09:52:56.401Z</time>
      </trkpt>
      <trkpt lat="45.72319" lon="5.9871">
        <ele>630</ele>
        <time>2021-09-10T09:52:57.401Z</time>
      </trkpt>
      <trkpt lat="45.7232" lon="5.98712">
        <ele>630</ele>
        <time>2021-09-10T09:52:58.400Z</time>
      </trkpt>
      <trkpt lat="45.72322" lon="5.98714">
        <ele>631</ele>
        <time>2021-09-10T09:52:59.401Z</time>
      </trkpt>
      <trkpt lat="45.72324" lon="5.98717">
        <ele>631</ele>
        <time>2021-09-10T09:53:00.400Z</time>
      </trkpt>
      <trkpt lat="45.72326" lon="5.98719">
        <ele>631</ele>
        <time>2021-09-10T09:53:01.401Z</time>
      </trkpt>
      <trkpt lat="45.72327" lon="5.98722">
        <ele>631</ele>
        <time>2021-09-10T09:53:02.401Z</time>
      </trkpt>
      <trkpt lat="45.72329" lon="5.98724">
        <ele>631</ele>
        <time>2021-09-10T09:53:03.400Z</time>
      </trkpt>
      <trkpt lat="45.72331" lon="5.98726">
        <ele>632</ele>
        <time>2021-09-10T09:53:04.401Z</time>
      </trkpt>
      <trkpt lat="45.72333" lon="5.98728">
        <ele>632</ele>
        <time>2021-09-10T09:53:05.401Z</time>
      </trkpt>
      <trkpt lat="45.72335" lon="5.98731">
        <ele>632</ele>
        <time>2021-09-10T09:53:06.401Z</time>
      </trkpt>
      <trkpt lat="45.72336" lon="5.98733">
        <ele>632</ele>
        <time>2021-09-10T09:53:07.400Z</time>
      </trkpt>
      <trkpt lat="45.72338" lon="5.98735">
        <ele>633</ele>
        <time>2021-09-10T09:53:08.401Z</time>
      </trkpt>
      <trkpt lat="45.72339" lon="5.98738">
        <ele>633</ele>
        <time>2021-09-10T09:53:09.401Z</time>
      </trkpt>
      <trkpt lat="45.72341" lon="5.98742">
        <ele>633</ele>
        <time>2021-09-10T09:53:10.401Z</time>
      </trkpt>
      <trkpt lat="45.72343" lon="5.98745">
        <ele>633</ele>
        <time>2021-09-10T09:53:11.401Z</time>
      </trkpt>
      <trkpt lat="45.72344" lon="5.98748">
        <ele>633</ele>
        <time>2021-09-10T09:53:12.401Z</time>
      </trkpt>
      <trkpt lat="45.72346" lon="5.98751">
        <ele>633</ele>
        <time>2021-09-10T09:53:13.401Z</time>
      </trkpt>
      <trkpt lat="45.72347" lon="5.98754">
        <ele>633</ele>
        <time>2021-09-10T09:53:14.400Z</time>
      </trkpt>
      <trkpt lat="45.72349" lon="5.98757">
        <ele>633</ele>
        <time>2021-09-10T09:53:15.401Z</time>
      </trkpt>
      <trkpt lat="45.7235" lon="5.9876">
        <ele>634</ele>
        <time>2021-09-10T09:53:16.401Z</time>
      </trkpt>
      <trkpt lat="45.72351" lon="5.98763">
        <ele>634</ele>
        <time>2021-09-10T09:53:17.400Z</time>
      </trkpt>
      <trkpt lat="45.72352" lon="5.98766">
        <ele>634</ele>
        <time>2021-09-10T09:53:18.401Z</time>
      </trkpt>
      <trkpt lat="45.72353" lon="5.9877">
        <ele>634</ele>
        <time>2021-09-10T09:53:19.401Z</time>
      </trkpt>
      <trkpt lat="45.72353" lon="5.98773">
        <ele>635</ele>
        <time>2021-09-10T09:53:20.401Z</time>
      </trkpt>
      <trkpt lat="45.72354" lon="5.98776">
        <ele>635</ele>
        <time>2021-09-10T09:53:21.401Z</time>
      </trkpt>
      <trkpt lat="45.72354" lon="5.9878">
        <ele>635</ele>
        <time>2021-09-10T09:53:22.401Z</time>
      </trkpt>
      <trkpt lat="45.72355" lon="5.98783">
        <ele>635</ele>
        <time>2021-09-10T09:53:23.401Z</time>
      </trkpt>
      <trkpt lat="45.72356" lon="5.98787">
        <ele>636</ele>
        <time>2021-09-10T09:53:24.400Z</time>
      </trkpt>
      <trkpt lat="45.72356" lon="5.98791">
        <ele>636</ele>
        <time>2021-09-10T09:53:25.400Z</time>
      </trkpt>
      <trkpt lat="45.72356" lon="5.98794">
        <ele>636</ele>
        <time>2021-09-10T09:53:26.401Z</time>
      </trkpt>
      <trkpt lat="45.72356" lon="5.98797">
        <ele>636</ele>
        <time>2021-09-10T09:53:27.400Z</time>
      </trkpt>
      <trkpt lat="45.72357" lon="5.98801">
        <ele>637</ele>
        <time>2021-09-10T09:53:28.401Z</time>
      </trkpt>
      <trkpt lat="45.72358" lon="5.98805">
        <ele>637</ele>
        <time>2021-09-10T09:53:29.400Z</time>
      </trkpt>
      <trkpt lat="45.72358" lon="5.98808">
        <ele>637</ele>
        <time>2021-09-10T09:53:30.401Z</time>
      </trkpt>
      <trkpt lat="45.72359" lon="5.98812">
        <ele>637</ele>
        <time>2021-09-10T09:53:31.401Z</time>
      </trkpt>
      <trkpt lat="45.72359" lon="5.98815">
        <ele>637</ele>
        <time>2021-09-10T09:53:32.401Z</time>
      </trkpt>
      <trkpt lat="45.7236" lon="5.98819">
        <ele>638</ele>
        <time>2021-09-10T09:53:33.401Z</time>
      </trkpt>
      <trkpt lat="45.7236" lon="5.98823">
        <ele>638</ele>
        <time>2021-09-10T09:53:34.400Z</time>
      </trkpt>
      <trkpt lat="45.72361" lon="5.98826">
        <ele>638</ele>
        <time>2021-09-10T09:53:35.400Z</time>
      </trkpt>
      <trkpt lat="45.72361" lon="5.98829">
        <ele>639</ele>
        <time>2021-09-10T09:53:36.401Z</time>
      </trkpt>
      <trkpt lat="45.72361" lon="5.98833">
        <ele>639</ele>
        <time>2021-09-10T09:53:37.401Z</time>
      </trkpt>
      <trkpt lat="45.72362" lon="5.98837">
        <ele>640</ele>
        <time>2021-09-10T09:53:38.401Z</time>
      </trkpt>
      <trkpt lat="45.72362" lon="5.98841">
        <ele>640</ele>
        <time>2021-09-10T09:53:39.401Z</time>
      </trkpt>
      <trkpt lat="45.72362" lon="5.98844">
        <ele>640</ele>
        <time>2021-09-10T09:53:40.401Z</time>
      </trkpt>
      <trkpt lat="45.72361" lon="5.98848">
        <ele>640</ele>
        <time>2021-09-10T09:53:41.400Z</time>
      </trkpt>
      <trkpt lat="45.72361" lon="5.98853">
        <ele>640</ele>
        <time>2021-09-10T09:53:42.401Z</time>
      </trkpt>
      <trkpt lat="45.72362" lon="5.98858">
        <ele>640</ele>
        <time>2021-09-10T09:53:43.400Z</time>
      </trkpt>
      <trkpt lat="45.72362" lon="5.98863">
        <ele>640</ele>
        <time>2021-09-10T09:53:44.400Z</time>
      </trkpt>
      <trkpt lat="45.72362" lon="5.98868">
        <ele>640</ele>
        <time>2021-09-10T09:53:45.401Z</time>
      </trkpt>
      <trkpt lat="45.72361" lon="5.98873">
        <ele>640</ele>
        <time>2021-09-10T09:53:46.401Z</time>
      </trkpt>
      <trkpt lat="45.72361" lon="5.98878">
        <ele>639</ele>
        <time>2021-09-10T09:53:47.400Z</time>
      </trkpt>
      <trkpt lat="45.72361" lon="5.98878">
        <ele>639</ele>
        <time>2021-09-10T09:53:48.401Z</time>
      </trkpt>
      <trkpt lat="45.72359" lon="5.9889">
        <ele>639</ele>
        <time>2021-09-10T09:53:49.401Z</time>
      </trkpt>
      <trkpt lat="45.72359" lon="5.98895">
        <ele>639</ele>
        <time>2021-09-10T09:53:50.401Z</time>
      </trkpt>
      <trkpt lat="45.72358" lon="5.989">
        <ele>639</ele>
        <time>2021-09-10T09:53:51.401Z</time>
      </trkpt>
      <trkpt lat="45.72357" lon="5.98906">
        <ele>639</ele>
        <time>2021-09-10T09:53:52.401Z</time>
      </trkpt>
      <trkpt lat="45.72356" lon="5.98911">
        <ele>639</ele>
        <time>2021-09-10T09:53:53.401Z</time>
      </trkpt>
      <trkpt lat="45.72355" lon="5.98915">
        <ele>639</ele>
        <time>2021-09-10T09:53:54.400Z</time>
      </trkpt>
      <trkpt lat="45.72354" lon="5.9892">
        <ele>639</ele>
        <time>2021-09-10T09:53:55.401Z</time>
      </trkpt>
      <trkpt lat="45.72353" lon="5.98926">
        <ele>639</ele>
        <time>2021-09-10T09:53:56.401Z</time>
      </trkpt>
      <trkpt lat="45.72352" lon="5.98932">
        <ele>639</ele>
        <time>2021-09-10T09:53:57.401Z</time>
      </trkpt>
      <trkpt lat="45.72351" lon="5.98937">
        <ele>639</ele>
        <time>2021-09-10T09:53:58.401Z</time>
      </trkpt>
      <trkpt lat="45.72351" lon="5.98943">
        <ele>638</ele>
        <time>2021-09-10T09:53:59.401Z</time>
      </trkpt>
      <trkpt lat="45.7235" lon="5.98949">
        <ele>638</ele>
        <time>2021-09-10T09:54:00.401Z</time>
      </trkpt>
      <trkpt lat="45.72349" lon="5.98955">
        <ele>638</ele>
        <time>2021-09-10T09:54:01.401Z</time>
      </trkpt>
      <trkpt lat="45.72348" lon="5.98961">
        <ele>637</ele>
        <time>2021-09-10T09:54:02.400Z</time>
      </trkpt>
      <trkpt lat="45.72347" lon="5.98966">
        <ele>637</ele>
        <time>2021-09-10T09:54:03.401Z</time>
      </trkpt>
      <trkpt lat="45.72346" lon="5.98972">
        <ele>637</ele>
        <time>2021-09-10T09:54:04.401Z</time>
      </trkpt>
      <trkpt lat="45.72345" lon="5.98978">
        <ele>636</ele>
        <time>2021-09-10T09:54:05.401Z</time>
      </trkpt>
      <trkpt lat="45.72345" lon="5.98985">
        <ele>636</ele>
        <time>2021-09-10T09:54:06.401Z</time>
      </trkpt>
      <trkpt lat="45.72344" lon="5.98991">
        <ele>636</ele>
        <time>2021-09-10T09:54:07.401Z</time>
      </trkpt>
      <trkpt lat="45.72343" lon="5.98996">
        <ele>636</ele>
        <time>2021-09-10T09:54:08.401Z</time>
      </trkpt>
      <trkpt lat="45.72341" lon="5.99002">
        <ele>635</ele>
        <time>2021-09-10T09:54:09.401Z</time>
      </trkpt>
      <trkpt lat="45.72342" lon="5.99007">
        <ele>635</ele>
        <time>2021-09-10T09:54:10.401Z</time>
      </trkpt>
      <trkpt lat="45.72341" lon="5.99013">
        <ele>634</ele>
        <time>2021-09-10T09:54:11.400Z</time>
      </trkpt>
      <trkpt lat="45.72341" lon="5.99019">
        <ele>634</ele>
        <time>2021-09-10T09:54:12.401Z</time>
      </trkpt>
      <trkpt lat="45.7234" lon="5.99024">
        <ele>634</ele>
        <time>2021-09-10T09:54:13.400Z</time>
      </trkpt>
      <trkpt lat="45.72341" lon="5.99031">
        <ele>634</ele>
        <time>2021-09-10T09:54:14.401Z</time>
      </trkpt>
      <trkpt lat="45.72341" lon="5.99036">
        <ele>634</ele>
        <time>2021-09-10T09:54:15.400Z</time>
      </trkpt>
      <trkpt lat="45.72341" lon="5.99042">
        <ele>634</ele>
        <time>2021-09-10T09:54:16.401Z</time>
      </trkpt>
      <trkpt lat="45.72342" lon="5.99048">
        <ele>634</ele>
        <time>2021-09-10T09:54:17.401Z</time>
      </trkpt>
      <trkpt lat="45.72343" lon="5.99054">
        <ele>634</ele>
        <time>2021-09-10T09:54:18.401Z</time>
      </trkpt>
      <trkpt lat="45.72344" lon="5.99059">
        <ele>634</ele>
        <time>2021-09-10T09:54:19.400Z</time>
      </trkpt>
      <trkpt lat="45.72346" lon="5.99064">
        <ele>634</ele>
        <time>2021-09-10T09:54:20.401Z</time>
      </trkpt>
      <trkpt lat="45.72347" lon="5.9907">
        <ele>634</ele>
        <time>2021-09-10T09:54:21.401Z</time>
      </trkpt>
      <trkpt lat="45.72348" lon="5.99075">
        <ele>634</ele>
        <time>2021-09-10T09:54:22.401Z</time>
      </trkpt>
      <trkpt lat="45.72349" lon="5.99081">
        <ele>634</ele>
        <time>2021-09-10T09:54:23.401Z</time>
      </trkpt>
      <trkpt lat="45.7235" lon="5.99085">
        <ele>634</ele>
        <time>2021-09-10T09:54:24.401Z</time>
      </trkpt>
      <trkpt lat="45.72351" lon="5.9909">
        <ele>634</ele>
        <time>2021-09-10T09:54:25.401Z</time>
      </trkpt>
      <trkpt lat="45.72352" lon="5.99095">
        <ele>634</ele>
        <time>2021-09-10T09:54:26.401Z</time>
      </trkpt>
      <trkpt lat="45.72353" lon="5.99101">
        <ele>634</ele>
        <time>2021-09-10T09:54:27.401Z</time>
      </trkpt>
      <trkpt lat="45.72354" lon="5.99106">
        <ele>634</ele>
        <time>2021-09-10T09:54:28.400Z</time>
      </trkpt>
      <trkpt lat="45.72354" lon="5.99111">
        <ele>635</ele>
        <time>2021-09-10T09:54:29.401Z</time>
      </trkpt>
      <trkpt lat="45.72355" lon="5.99116">
        <ele>635</ele>
        <time>2021-09-10T09:54:30.401Z</time>
      </trkpt>
      <trkpt lat="45.72355" lon="5.99121">
        <ele>635</ele>
        <time>2021-09-10T09:54:31.401Z</time>
      </trkpt>
      <trkpt lat="45.72356" lon="5.99126">
        <ele>635</ele>
        <time>2021-09-10T09:54:32.401Z</time>
      </trkpt>
      <trkpt lat="45.72357" lon="5.99132">
        <ele>635</ele>
        <time>2021-09-10T09:54:33.401Z</time>
      </trkpt>
      <trkpt lat="45.72358" lon="5.99138">
        <ele>635</ele>
        <time>2021-09-10T09:54:34.401Z</time>
      </trkpt>
      <trkpt lat="45.72358" lon="5.99143">
        <ele>635</ele>
        <time>2021-09-10T09:54:35.400Z</time>
      </trkpt>
      <trkpt lat="45.72359" lon="5.99149">
        <ele>635</ele>
        <time>2021-09-10T09:54:36.401Z</time>
      </trkpt>
      <trkpt lat="45.7236" lon="5.99154">
        <ele>634</ele>
        <time>2021-09-10T09:54:37.400Z</time>
      </trkpt>
      <trkpt lat="45.72361" lon="5.9916">
        <ele>634</ele>
        <time>2021-09-10T09:54:38.401Z</time>
      </trkpt>
      <trkpt lat="45.72362" lon="5.99166">
        <ele>634</ele>
        <time>2021-09-10T09:54:39.401Z</time>
      </trkpt>
      <trkpt lat="45.72363" lon="5.99171">
        <ele>634</ele>
        <time>2021-09-10T09:54:40.400Z</time>
      </trkpt>
      <trkpt lat="45.72364" lon="5.99177">
        <ele>634</ele>
        <time>2021-09-10T09:54:41.401Z</time>
      </trkpt>
      <trkpt lat="45.72365" lon="5.99183">
        <ele>634</ele>
        <time>2021-09-10T09:54:42.401Z</time>
      </trkpt>
      <trkpt lat="45.72366" lon="5.99189">
        <ele>634</ele>
        <time>2021-09-10T09:54:43.401Z</time>
      </trkpt>
      <trkpt lat="45.72367" lon="5.99194">
        <ele>633</ele>
        <time>2021-09-10T09:54:44.401Z</time>
      </trkpt>
      <trkpt lat="45.72368" lon="5.992">
        <ele>633</ele>
        <time>2021-09-10T09:54:45.401Z</time>
      </trkpt>
      <trkpt lat="45.72369" lon="5.99206">
        <ele>633</ele>
        <time>2021-09-10T09:54:46.401Z</time>
      </trkpt>
      <trkpt lat="45.7237" lon="5.99211">
        <ele>633</ele>
        <time>2021-09-10T09:54:47.401Z</time>
      </trkpt>
      <trkpt lat="45.72371" lon="5.99217">
        <ele>632</ele>
        <time>2021-09-10T09:54:48.401Z</time>
      </trkpt>
      <trkpt lat="45.72372" lon="5.99222">
        <ele>632</ele>
        <time>2021-09-10T09:54:49.401Z</time>
      </trkpt>
      <trkpt lat="45.72372" lon="5.99228">
        <ele>632</ele>
        <time>2021-09-10T09:54:50.401Z</time>
      </trkpt>
      <trkpt lat="45.72373" lon="5.99233">
        <ele>631</ele>
        <time>2021-09-10T09:54:51.401Z</time>
      </trkpt>
      <trkpt lat="45.72374" lon="5.99239">
        <ele>631</ele>
        <time>2021-09-10T09:54:52.401Z</time>
      </trkpt>
      <trkpt lat="45.72375" lon="5.99244">
        <ele>631</ele>
        <time>2021-09-10T09:54:53.401Z</time>
      </trkpt>
      <trkpt lat="45.72375" lon="5.99249">
        <ele>630</ele>
        <time>2021-09-10T09:54:54.401Z</time>
      </trkpt>
      <trkpt lat="45.72376" lon="5.99255">
        <ele>630</ele>
        <time>2021-09-10T09:54:55.401Z</time>
      </trkpt>
      <trkpt lat="45.72377" lon="5.9926">
        <ele>629</ele>
        <time>2021-09-10T09:54:56.400Z</time>
      </trkpt>
      <trkpt lat="45.72378" lon="5.99265">
        <ele>629</ele>
        <time>2021-09-10T09:54:57.400Z</time>
      </trkpt>
      <trkpt lat="45.72378" lon="5.99271">
        <ele>629</ele>
        <time>2021-09-10T09:54:58.401Z</time>
      </trkpt>
      <trkpt lat="45.72378" lon="5.99277">
        <ele>629</ele>
        <time>2021-09-10T09:54:59.401Z</time>
      </trkpt>
      <trkpt lat="45.72378" lon="5.99283">
        <ele>629</ele>
        <time>2021-09-10T09:55:00.401Z</time>
      </trkpt>
      <trkpt lat="45.72378" lon="5.99288">
        <ele>629</ele>
        <time>2021-09-10T09:55:01.401Z</time>
      </trkpt>
      <trkpt lat="45.72377" lon="5.99294">
        <ele>629</ele>
        <time>2021-09-10T09:55:02.400Z</time>
      </trkpt>
      <trkpt lat="45.72377" lon="5.99299">
        <ele>629</ele>
        <time>2021-09-10T09:55:03.401Z</time>
      </trkpt>
      <trkpt lat="45.72376" lon="5.99304">
        <ele>629</ele>
        <time>2021-09-10T09:55:04.401Z</time>
      </trkpt>
      <trkpt lat="45.72375" lon="5.99309">
        <ele>629</ele>
        <time>2021-09-10T09:55:05.400Z</time>
      </trkpt>
      <trkpt lat="45.72374" lon="5.99313">
        <ele>630</ele>
        <time>2021-09-10T09:55:06.401Z</time>
      </trkpt>
      <trkpt lat="45.72373" lon="5.99317">
        <ele>630</ele>
        <time>2021-09-10T09:55:07.401Z</time>
      </trkpt>
      <trkpt lat="45.72372" lon="5.99321">
        <ele>631</ele>
        <time>2021-09-10T09:55:08.401Z</time>
      </trkpt>
      <trkpt lat="45.72371" lon="5.99326">
        <ele>631</ele>
        <time>2021-09-10T09:55:09.401Z</time>
      </trkpt>
      <trkpt lat="45.7237" lon="5.99331">
        <ele>631</ele>
        <time>2021-09-10T09:55:10.401Z</time>
      </trkpt>
      <trkpt lat="45.72369" lon="5.99335">
        <ele>631</ele>
        <time>2021-09-10T09:55:11.401Z</time>
      </trkpt>
      <trkpt lat="45.72367" lon="5.9934">
        <ele>631</ele>
        <time>2021-09-10T09:55:12.401Z</time>
      </trkpt>
      <trkpt lat="45.72366" lon="5.99345">
        <ele>631</ele>
        <time>2021-09-10T09:55:13.401Z</time>
      </trkpt>
      <trkpt lat="45.72364" lon="5.9935">
        <ele>631</ele>
        <time>2021-09-10T09:55:14.401Z</time>
      </trkpt>
      <trkpt lat="45.72361" lon="5.99354">
        <ele>631</ele>
        <time>2021-09-10T09:55:15.401Z</time>
      </trkpt>
      <trkpt lat="45.72359" lon="5.99359">
        <ele>631</ele>
        <time>2021-09-10T09:55:16.401Z</time>
      </trkpt>
      <trkpt lat="45.72358" lon="5.99364">
        <ele>631</ele>
        <time>2021-09-10T09:55:17.401Z</time>
      </trkpt>
      <trkpt lat="45.72356" lon="5.99369">
        <ele>632</ele>
        <time>2021-09-10T09:55:18.401Z</time>
      </trkpt>
      <trkpt lat="45.72355" lon="5.99374">
        <ele>632</ele>
        <time>2021-09-10T09:55:19.401Z</time>
      </trkpt>
      <trkpt lat="45.72353" lon="5.9938">
        <ele>632</ele>
        <time>2021-09-10T09:55:20.401Z</time>
      </trkpt>
      <trkpt lat="45.72351" lon="5.99385">
        <ele>632</ele>
        <time>2021-09-10T09:55:21.401Z</time>
      </trkpt>
      <trkpt lat="45.7235" lon="5.9939">
        <ele>632</ele>
        <time>2021-09-10T09:55:22.401Z</time>
      </trkpt>
      <trkpt lat="45.72348" lon="5.99397">
        <ele>631</ele>
        <time>2021-09-10T09:55:23.401Z</time>
      </trkpt>
      <trkpt lat="45.72347" lon="5.99403">
        <ele>631</ele>
        <time>2021-09-10T09:55:24.400Z</time>
      </trkpt>
      <trkpt lat="45.72345" lon="5.99409">
        <ele>630</ele>
        <time>2021-09-10T09:55:25.401Z</time>
      </trkpt>
      <trkpt lat="45.72343" lon="5.99415">
        <ele>630</ele>
        <time>2021-09-10T09:55:26.400Z</time>
      </trkpt>
      <trkpt lat="45.72341" lon="5.99421">
        <ele>630</ele>
        <time>2021-09-10T09:55:27.400Z</time>
      </trkpt>
      <trkpt lat="45.72339" lon="5.99428">
        <ele>630</ele>
        <time>2021-09-10T09:55:28.401Z</time>
      </trkpt>
      <trkpt lat="45.72338" lon="5.99434">
        <ele>630</ele>
        <time>2021-09-10T09:55:29.401Z</time>
      </trkpt>
      <trkpt lat="45.72336" lon="5.9944">
        <ele>630</ele>
        <time>2021-09-10T09:55:30.401Z</time>
      </trkpt>
      <trkpt lat="45.72334" lon="5.99447">
        <ele>630</ele>
        <time>2021-09-10T09:55:31.401Z</time>
      </trkpt>
      <trkpt lat="45.72332" lon="5.99454">
        <ele>630</ele>
        <time>2021-09-10T09:55:32.401Z</time>
      </trkpt>
      <trkpt lat="45.7233" lon="5.99461">
        <ele>630</ele>
        <time>2021-09-10T09:55:33.401Z</time>
      </trkpt>
      <trkpt lat="45.72328" lon="5.99468">
        <ele>630</ele>
        <time>2021-09-10T09:55:34.400Z</time>
      </trkpt>
      <trkpt lat="45.72325" lon="5.99475">
        <ele>630</ele>
        <time>2021-09-10T09:55:35.401Z</time>
      </trkpt>
      <trkpt lat="45.72323" lon="5.99483">
        <ele>630</ele>
        <time>2021-09-10T09:55:36.401Z</time>
      </trkpt>
      <trkpt lat="45.72321" lon="5.9949">
        <ele>630</ele>
        <time>2021-09-10T09:55:37.400Z</time>
      </trkpt>
      <trkpt lat="45.72319" lon="5.99497">
        <ele>630</ele>
        <time>2021-09-10T09:55:38.401Z</time>
      </trkpt>
      <trkpt lat="45.72318" lon="5.99503">
        <ele>631</ele>
        <time>2021-09-10T09:55:39.400Z</time>
      </trkpt>
      <trkpt lat="45.72316" lon="5.9951">
        <ele>631</ele>
        <time>2021-09-10T09:55:40.401Z</time>
      </trkpt>
      <trkpt lat="45.72314" lon="5.99517">
        <ele>632</ele>
        <time>2021-09-10T09:55:41.401Z</time>
      </trkpt>
      <trkpt lat="45.72313" lon="5.99523">
        <ele>632</ele>
        <time>2021-09-10T09:55:42.401Z</time>
      </trkpt>
      <trkpt lat="45.72311" lon="5.9953">
        <ele>632</ele>
        <time>2021-09-10T09:55:43.400Z</time>
      </trkpt>
      <trkpt lat="45.72309" lon="5.99536">
        <ele>632</ele>
        <time>2021-09-10T09:55:44.401Z</time>
      </trkpt>
      <trkpt lat="45.72307" lon="5.99542">
        <ele>633</ele>
        <time>2021-09-10T09:55:45.401Z</time>
      </trkpt>
      <trkpt lat="45.72305" lon="5.99549">
        <ele>633</ele>
        <time>2021-09-10T09:55:46.401Z</time>
      </trkpt>
      <trkpt lat="45.72303" lon="5.99555">
        <ele>633</ele>
        <time>2021-09-10T09:55:47.400Z</time>
      </trkpt>
      <trkpt lat="45.72301" lon="5.99561">
        <ele>633</ele>
        <time>2021-09-10T09:55:48.401Z</time>
      </trkpt>
      <trkpt lat="45.72299" lon="5.99568">
        <ele>633</ele>
        <time>2021-09-10T09:55:49.401Z</time>
      </trkpt>
      <trkpt lat="45.72297" lon="5.99574">
        <ele>633</ele>
        <time>2021-09-10T09:55:50.401Z</time>
      </trkpt>
      <trkpt lat="45.72295" lon="5.9958">
        <ele>632</ele>
        <time>2021-09-10T09:55:51.401Z</time>
      </trkpt>
      <trkpt lat="45.72292" lon="5.99585">
        <ele>632</ele>
        <time>2021-09-10T09:55:52.401Z</time>
      </trkpt>
      <trkpt lat="45.72289" lon="5.99589">
        <ele>632</ele>
        <time>2021-09-10T09:55:53.401Z</time>
      </trkpt>
      <trkpt lat="45.72286" lon="5.99593">
        <ele>632</ele>
        <time>2021-09-10T09:55:54.401Z</time>
      </trkpt>
      <trkpt lat="45.72283" lon="5.99597">
        <ele>632</ele>
        <time>2021-09-10T09:55:55.401Z</time>
      </trkpt>
      <trkpt lat="45.7228" lon="5.99602">
        <ele>632</ele>
        <time>2021-09-10T09:55:56.401Z</time>
      </trkpt>
      <trkpt lat="45.72277" lon="5.99607">
        <ele>632</ele>
        <time>2021-09-10T09:55:57.401Z</time>
      </trkpt>
      <trkpt lat="45.72275" lon="5.99612">
        <ele>632</ele>
        <time>2021-09-10T09:55:58.401Z</time>
      </trkpt>
      <trkpt lat="45.72273" lon="5.99618">
        <ele>632</ele>
        <time>2021-09-10T09:55:59.400Z</time>
      </trkpt>
      <trkpt lat="45.72273" lon="5.99624">
        <ele>631</ele>
        <time>2021-09-10T09:56:00.401Z</time>
      </trkpt>
      <trkpt lat="45.72273" lon="5.9963">
        <ele>631</ele>
        <time>2021-09-10T09:56:01.401Z</time>
      </trkpt>
      <trkpt lat="45.72274" lon="5.99637">
        <ele>631</ele>
        <time>2021-09-10T09:56:02.401Z</time>
      </trkpt>
      <trkpt lat="45.72276" lon="5.99643">
        <ele>631</ele>
        <time>2021-09-10T09:56:03.401Z</time>
      </trkpt>
      <trkpt lat="45.72278" lon="5.99649">
        <ele>630</ele>
        <time>2021-09-10T09:56:04.401Z</time>
      </trkpt>
      <trkpt lat="45.7228" lon="5.99655">
        <ele>630</ele>
        <time>2021-09-10T09:56:05.401Z</time>
      </trkpt>
      <trkpt lat="45.72283" lon="5.99662">
        <ele>630</ele>
        <time>2021-09-10T09:56:06.400Z</time>
      </trkpt>
      <trkpt lat="45.72286" lon="5.99668">
        <ele>630</ele>
        <time>2021-09-10T09:56:07.400Z</time>
      </trkpt>
      <trkpt lat="45.72289" lon="5.99675">
        <ele>631</ele>
        <time>2021-09-10T09:56:08.400Z</time>
      </trkpt>
      <trkpt lat="45.72292" lon="5.99682">
        <ele>631</ele>
        <time>2021-09-10T09:56:09.401Z</time>
      </trkpt>
      <trkpt lat="45.72296" lon="5.99688">
        <ele>631</ele>
        <time>2021-09-10T09:56:10.401Z</time>
      </trkpt>
      <trkpt lat="45.723" lon="5.99696">
        <ele>631</ele>
        <time>2021-09-10T09:56:11.401Z</time>
      </trkpt>
      <trkpt lat="45.72304" lon="5.99704">
        <ele>631</ele>
        <time>2021-09-10T09:56:12.401Z</time>
      </trkpt>
      <trkpt lat="45.72306" lon="5.99711">
        <ele>631</ele>
        <time>2021-09-10T09:56:13.400Z</time>
      </trkpt>
      <trkpt lat="45.72308" lon="5.9972">
        <ele>630</ele>
        <time>2021-09-10T09:56:14.401Z</time>
      </trkpt>
      <trkpt lat="45.72308" lon="5.99728">
        <ele>630</ele>
        <time>2021-09-10T09:56:15.401Z</time>
      </trkpt>
      <trkpt lat="45.72308" lon="5.99734">
        <ele>629</ele>
        <time>2021-09-10T09:56:16.400Z</time>
      </trkpt>
      <trkpt lat="45.72305" lon="5.99744">
        <ele>628</ele>
        <time>2021-09-10T09:56:17.401Z</time>
      </trkpt>
      <trkpt lat="45.72301" lon="5.9975">
        <ele>628</ele>
        <time>2021-09-10T09:56:18.401Z</time>
      </trkpt>
      <trkpt lat="45.72296" lon="5.99755">
        <ele>627</ele>
        <time>2021-09-10T09:56:19.400Z</time>
      </trkpt>
      <trkpt lat="45.72291" lon="5.99757">
        <ele>626</ele>
        <time>2021-09-10T09:56:20.401Z</time>
      </trkpt>
      <trkpt lat="45.72285" lon="5.99758">
        <ele>625</ele>
        <time>2021-09-10T09:56:21.401Z</time>
      </trkpt>
      <trkpt lat="45.72278" lon="5.99759">
        <ele>624</ele>
        <time>2021-09-10T09:56:22.401Z</time>
      </trkpt>
      <trkpt lat="45.7227" lon="5.99759">
        <ele>623</ele>
        <time>2021-09-10T09:56:23.400Z</time>
      </trkpt>
      <trkpt lat="45.72263" lon="5.99758">
        <ele>623</ele>
        <time>2021-09-10T09:56:24.400Z</time>
      </trkpt>
      <trkpt lat="45.72256" lon="5.99759">
        <ele>622</ele>
        <time>2021-09-10T09:56:25.401Z</time>
      </trkpt>
      <trkpt lat="45.7225" lon="5.9976">
        <ele>621</ele>
        <time>2021-09-10T09:56:26.401Z</time>
      </trkpt>
      <trkpt lat="45.72242" lon="5.9976">
        <ele>621</ele>
        <time>2021-09-10T09:56:27.401Z</time>
      </trkpt>
      <trkpt lat="45.72235" lon="5.99761">
        <ele>620</ele>
        <time>2021-09-10T09:56:28.400Z</time>
      </trkpt>
      <trkpt lat="45.72228" lon="5.99761">
        <ele>620</ele>
        <time>2021-09-10T09:56:29.400Z</time>
      </trkpt>
      <trkpt lat="45.7222" lon="5.9976">
        <ele>620</ele>
        <time>2021-09-10T09:56:30.401Z</time>
      </trkpt>
      <trkpt lat="45.72213" lon="5.99761">
        <ele>619</ele>
        <time>2021-09-10T09:56:31.401Z</time>
      </trkpt>
      <trkpt lat="45.72206" lon="5.99762">
        <ele>619</ele>
        <time>2021-09-10T09:56:32.401Z</time>
      </trkpt>
      <trkpt lat="45.722" lon="5.99765">
        <ele>619</ele>
        <time>2021-09-10T09:56:33.401Z</time>
      </trkpt>
      <trkpt lat="45.72194" lon="5.9977">
        <ele>619</ele>
        <time>2021-09-10T09:56:34.401Z</time>
      </trkpt>
      <trkpt lat="45.7219" lon="5.99776">
        <ele>619</ele>
        <time>2021-09-10T09:56:35.401Z</time>
      </trkpt>
      <trkpt lat="45.72186" lon="5.99783">
        <ele>618</ele>
        <time>2021-09-10T09:56:36.401Z</time>
      </trkpt>
      <trkpt lat="45.72181" lon="5.99793">
        <ele>618</ele>
        <time>2021-09-10T09:56:37.401Z</time>
      </trkpt>
      <trkpt lat="45.72176" lon="5.998">
        <ele>618</ele>
        <time>2021-09-10T09:56:38.401Z</time>
      </trkpt>
      <trkpt lat="45.72172" lon="5.99806">
        <ele>618</ele>
        <time>2021-09-10T09:56:39.401Z</time>
      </trkpt>
      <trkpt lat="45.72166" lon="5.99814">
        <ele>618</ele>
        <time>2021-09-10T09:56:40.400Z</time>
      </trkpt>
      <trkpt lat="45.72158" lon="5.99822">
        <ele>618</ele>
        <time>2021-09-10T09:56:41.401Z</time>
      </trkpt>
      <trkpt lat="45.7215" lon="5.99828">
        <ele>618</ele>
        <time>2021-09-10T09:56:42.401Z</time>
      </trkpt>
      <trkpt lat="45.72142" lon="5.99833">
        <ele>619</ele>
        <time>2021-09-10T09:56:43.401Z</time>
      </trkpt>
      <trkpt lat="45.72137" lon="5.99838">
        <ele>619</ele>
        <time>2021-09-10T09:56:44.401Z</time>
      </trkpt>
      <trkpt lat="45.72128" lon="5.99843">
        <ele>619</ele>
        <time>2021-09-10T09:56:45.401Z</time>
      </trkpt>
      <trkpt lat="45.72119" lon="5.99847">
        <ele>619</ele>
        <time>2021-09-10T09:56:46.400Z</time>
      </trkpt>
      <trkpt lat="45.72111" lon="5.99849">
        <ele>619</ele>
        <time>2021-09-10T09:56:47.401Z</time>
      </trkpt>
      <trkpt lat="45.72103" lon="5.99851">
        <ele>619</ele>
        <time>2021-09-10T09:56:48.400Z</time>
      </trkpt>
      <trkpt lat="45.72096" lon="5.99853">
        <ele>619</ele>
        <time>2021-09-10T09:56:49.400Z</time>
      </trkpt>
      <trkpt lat="45.7209" lon="5.99855">
        <ele>619</ele>
        <time>2021-09-10T09:56:50.401Z</time>
      </trkpt>
      <trkpt lat="45.72083" lon="5.9986">
        <ele>619</ele>
        <time>2021-09-10T09:56:51.401Z</time>
      </trkpt>
      <trkpt lat="45.72079" lon="5.99867">
        <ele>619</ele>
        <time>2021-09-10T09:56:52.401Z</time>
      </trkpt>
      <trkpt lat="45.72075" lon="5.99874">
        <ele>619</ele>
        <time>2021-09-10T09:56:53.401Z</time>
      </trkpt>
      <trkpt lat="45.72071" lon="5.99882">
        <ele>619</ele>
        <time>2021-09-10T09:56:54.401Z</time>
      </trkpt>
      <trkpt lat="45.72067" lon="5.99891">
        <ele>618</ele>
        <time>2021-09-10T09:56:55.401Z</time>
      </trkpt>
      <trkpt lat="45.72062" lon="5.99899">
        <ele>618</ele>
        <time>2021-09-10T09:56:56.401Z</time>
      </trkpt>
      <trkpt lat="45.72057" lon="5.99905">
        <ele>617</ele>
        <time>2021-09-10T09:56:57.400Z</time>
      </trkpt>
      <trkpt lat="45.72051" lon="5.9991">
        <ele>617</ele>
        <time>2021-09-10T09:56:58.401Z</time>
      </trkpt>
      <trkpt lat="45.72046" lon="5.99914">
        <ele>616</ele>
        <time>2021-09-10T09:56:59.401Z</time>
      </trkpt>
      <trkpt lat="45.7204" lon="5.99919">
        <ele>616</ele>
        <time>2021-09-10T09:57:00.401Z</time>
      </trkpt>
      <trkpt lat="45.72035" lon="5.99925">
        <ele>615</ele>
        <time>2021-09-10T09:57:01.400Z</time>
      </trkpt>
      <trkpt lat="45.72033" lon="5.9993">
        <ele>615</ele>
        <time>2021-09-10T09:57:02.401Z</time>
      </trkpt>
      <trkpt lat="45.7203" lon="5.99939">
        <ele>615</ele>
        <time>2021-09-10T09:57:03.400Z</time>
      </trkpt>
      <trkpt lat="45.72031" lon="5.99946">
        <ele>614</ele>
        <time>2021-09-10T09:57:04.401Z</time>
      </trkpt>
      <trkpt lat="45.72031" lon="5.99955">
        <ele>614</ele>
        <time>2021-09-10T09:57:05.401Z</time>
      </trkpt>
      <trkpt lat="45.72033" lon="5.99962">
        <ele>613</ele>
        <time>2021-09-10T09:57:06.400Z</time>
      </trkpt>
      <trkpt lat="45.72034" lon="5.9997">
        <ele>613</ele>
        <time>2021-09-10T09:57:07.401Z</time>
      </trkpt>
      <trkpt lat="45.72035" lon="5.99978">
        <ele>612</ele>
        <time>2021-09-10T09:57:08.401Z</time>
      </trkpt>
      <trkpt lat="45.72037" lon="5.99985">
        <ele>612</ele>
        <time>2021-09-10T09:57:09.401Z</time>
      </trkpt>
      <trkpt lat="45.7204" lon="5.99993">
        <ele>611</ele>
        <time>2021-09-10T09:57:10.401Z</time>
      </trkpt>
      <trkpt lat="45.72042" lon="6">
        <ele>610</ele>
        <time>2021-09-10T09:57:11.401Z</time>
      </trkpt>
      <trkpt lat="45.72043" lon="6.00006">
        <ele>609</ele>
        <time>2021-09-10T09:57:12.401Z</time>
      </trkpt>
      <trkpt lat="45.72044" lon="6.00011">
        <ele>609</ele>
        <time>2021-09-10T09:57:13.401Z</time>
      </trkpt>
      <trkpt lat="45.72045" lon="6.00016">
        <ele>608</ele>
        <time>2021-09-10T09:57:14.401Z</time>
      </trkpt>
      <trkpt lat="45.72046" lon="6.0002">
        <ele>608</ele>
        <time>2021-09-10T09:57:15.401Z</time>
      </trkpt>
      <trkpt lat="45.72047" lon="6.00024">
        <ele>608</ele>
        <time>2021-09-10T09:57:16.401Z</time>
      </trkpt>
      <trkpt lat="45.72047" lon="6.00027">
        <ele>607</ele>
        <time>2021-09-10T09:57:17.401Z</time>
      </trkpt>
      <trkpt lat="45.72048" lon="6.00029">
        <ele>607</ele>
        <time>2021-09-10T09:57:18.400Z</time>
      </trkpt>
      <trkpt lat="45.72048" lon="6.00032">
        <ele>607</ele>
        <time>2021-09-10T09:57:19.401Z</time>
      </trkpt>
      <trkpt lat="45.72049" lon="6.00035">
        <ele>607</ele>
        <time>2021-09-10T09:57:20.401Z</time>
      </trkpt>
      <trkpt lat="45.7205" lon="6.00038">
        <ele>607</ele>
        <time>2021-09-10T09:57:21.400Z</time>
      </trkpt>
      <trkpt lat="45.72051" lon="6.0004">
        <ele>608</ele>
        <time>2021-09-10T09:57:22.401Z</time>
      </trkpt>
      <trkpt lat="45.72052" lon="6.00042">
        <ele>607</ele>
        <time>2021-09-10T09:57:23.401Z</time>
      </trkpt>
      <trkpt lat="45.72052" lon="6.00045">
        <ele>607</ele>
        <time>2021-09-10T09:57:24.401Z</time>
      </trkpt>
      <trkpt lat="45.72052" lon="6.00047">
        <ele>607</ele>
        <time>2021-09-10T09:57:25.401Z</time>
      </trkpt>
      <trkpt lat="45.72052" lon="6.0005">
        <ele>607</ele>
        <time>2021-09-10T09:57:26.401Z</time>
      </trkpt>
      <trkpt lat="45.72052" lon="6.00053">
        <ele>607</ele>
        <time>2021-09-10T09:57:27.401Z</time>
      </trkpt>
      <trkpt lat="45.72053" lon="6.00056">
        <ele>607</ele>
        <time>2021-09-10T09:57:28.401Z</time>
      </trkpt>
      <trkpt lat="45.72054" lon="6.00058">
        <ele>607</ele>
        <time>2021-09-10T09:57:29.401Z</time>
      </trkpt>
      <trkpt lat="45.72054" lon="6.00061">
        <ele>607</ele>
        <time>2021-09-10T09:57:30.401Z</time>
      </trkpt>
      <trkpt lat="45.72054" lon="6.00064">
        <ele>607</ele>
        <time>2021-09-10T09:57:31.401Z</time>
      </trkpt>
      <trkpt lat="45.72054" lon="6.00067">
        <ele>607</ele>
        <time>2021-09-10T09:57:32.401Z</time>
      </trkpt>
      <trkpt lat="45.72055" lon="6.00069">
        <ele>607</ele>
        <time>2021-09-10T09:57:33.400Z</time>
      </trkpt>
      <trkpt lat="45.72055" lon="6.00073">
        <ele>607</ele>
        <time>2021-09-10T09:57:34.401Z</time>
      </trkpt>
      <trkpt lat="45.72056" lon="6.00076">
        <ele>607</ele>
        <time>2021-09-10T09:57:35.401Z</time>
      </trkpt>
      <trkpt lat="45.72056" lon="6.00079">
        <ele>607</ele>
        <time>2021-09-10T09:57:36.401Z</time>
      </trkpt>
      <trkpt lat="45.72056" lon="6.00081">
        <ele>607</ele>
        <time>2021-09-10T09:57:37.401Z</time>
      </trkpt>
      <trkpt lat="45.72057" lon="6.00085">
        <ele>607</ele>
        <time>2021-09-10T09:57:38.400Z</time>
      </trkpt>
      <trkpt lat="45.72058" lon="6.00087">
        <ele>607</ele>
        <time>2021-09-10T09:57:39.400Z</time>
      </trkpt>
      <trkpt lat="45.72059" lon="6.0009">
        <ele>607</ele>
        <time>2021-09-10T09:57:40.400Z</time>
      </trkpt>
      <trkpt lat="45.72059" lon="6.00093">
        <ele>607</ele>
        <time>2021-09-10T09:57:41.400Z</time>
      </trkpt>
      <trkpt lat="45.7206" lon="6.00095">
        <ele>607</ele>
        <time>2021-09-10T09:57:42.400Z</time>
      </trkpt>
      <trkpt lat="45.7206" lon="6.00098">
        <ele>607</ele>
        <time>2021-09-10T09:57:43.400Z</time>
      </trkpt>
      <trkpt lat="45.7206" lon="6.001">
        <ele>607</ele>
        <time>2021-09-10T09:57:44.401Z</time>
      </trkpt>
      <trkpt lat="45.72062" lon="6.00102">
        <ele>607</ele>
        <time>2021-09-10T09:57:45.400Z</time>
      </trkpt>
      <trkpt lat="45.72062" lon="6.00104">
        <ele>607</ele>
        <time>2021-09-10T09:57:46.401Z</time>
      </trkpt>
      <trkpt lat="45.72063" lon="6.00107">
        <ele>607</ele>
        <time>2021-09-10T09:57:47.400Z</time>
      </trkpt>
      <trkpt lat="45.72063" lon="6.0011">
        <ele>607</ele>
        <time>2021-09-10T09:57:48.400Z</time>
      </trkpt>
      <trkpt lat="45.72063" lon="6.00113">
        <ele>607</ele>
        <time>2021-09-10T09:57:49.401Z</time>
      </trkpt>
      <trkpt lat="45.72064" lon="6.00116">
        <ele>607</ele>
        <time>2021-09-10T09:57:50.400Z</time>
      </trkpt>
      <trkpt lat="45.72064" lon="6.00119">
        <ele>607</ele>
        <time>2021-09-10T09:57:51.400Z</time>
      </trkpt>
      <trkpt lat="45.72064" lon="6.00121">
        <ele>607</ele>
        <time>2021-09-10T09:57:52.401Z</time>
      </trkpt>
      <trkpt lat="45.72064" lon="6.00124">
        <ele>607</ele>
        <time>2021-09-10T09:57:53.400Z</time>
      </trkpt>
      <trkpt lat="45.72065" lon="6.00126">
        <ele>607</ele>
        <time>2021-09-10T09:57:54.400Z</time>
      </trkpt>
      <trkpt lat="45.72065" lon="6.00129">
        <ele>607</ele>
        <time>2021-09-10T09:57:55.400Z</time>
      </trkpt>
      <trkpt lat="45.72066" lon="6.00131">
        <ele>607</ele>
        <time>2021-09-10T09:57:56.401Z</time>
      </trkpt>
      <trkpt lat="45.72066" lon="6.00134">
        <ele>607</ele>
        <time>2021-09-10T09:57:57.401Z</time>
      </trkpt>
      <trkpt lat="45.72067" lon="6.00137">
        <ele>607</ele>
        <time>2021-09-10T09:57:58.401Z</time>
      </trkpt>
      <trkpt lat="45.72068" lon="6.00139">
        <ele>607</ele>
        <time>2021-09-10T09:57:59.401Z</time>
      </trkpt>
      <trkpt lat="45.72068" lon="6.00142">
        <ele>607</ele>
        <time>2021-09-10T09:58:00.400Z</time>
      </trkpt>
      <trkpt lat="45.72069" lon="6.00145">
        <ele>607</ele>
        <time>2021-09-10T09:58:01.401Z</time>
      </trkpt>
      <trkpt lat="45.7207" lon="6.00147">
        <ele>607</ele>
        <time>2021-09-10T09:58:02.401Z</time>
      </trkpt>
      <trkpt lat="45.72071" lon="6.0015">
        <ele>607</ele>
        <time>2021-09-10T09:58:03.401Z</time>
      </trkpt>
      <trkpt lat="45.72072" lon="6.00152">
        <ele>607</ele>
        <time>2021-09-10T09:58:04.401Z</time>
      </trkpt>
      <trkpt lat="45.72073" lon="6.00154">
        <ele>607</ele>
        <time>2021-09-10T09:58:05.401Z</time>
      </trkpt>
      <trkpt lat="45.72074" lon="6.00157">
        <ele>607</ele>
        <time>2021-09-10T09:58:06.401Z</time>
      </trkpt>
      <trkpt lat="45.72075" lon="6.00159">
        <ele>607</ele>
        <time>2021-09-10T09:58:07.400Z</time>
      </trkpt>
      <trkpt lat="45.72077" lon="6.00162">
        <ele>607</ele>
        <time>2021-09-10T09:58:08.401Z</time>
      </trkpt>
      <trkpt lat="45.72078" lon="6.00164">
        <ele>607</ele>
        <time>2021-09-10T09:58:09.401Z</time>
      </trkpt>
      <trkpt lat="45.7208" lon="6.00166">
        <ele>607</ele>
        <time>2021-09-10T09:58:10.400Z</time>
      </trkpt>
      <trkpt lat="45.72081" lon="6.00168">
        <ele>607</ele>
        <time>2021-09-10T09:58:11.401Z</time>
      </trkpt>
      <trkpt lat="45.72082" lon="6.0017">
        <ele>607</ele>
        <time>2021-09-10T09:58:12.400Z</time>
      </trkpt>
      <trkpt lat="45.72084" lon="6.00172">
        <ele>607</ele>
        <time>2021-09-10T09:58:13.401Z</time>
      </trkpt>
      <trkpt lat="45.72085" lon="6.00173">
        <ele>607</ele>
        <time>2021-09-10T09:58:14.401Z</time>
      </trkpt>
      <trkpt lat="45.72086" lon="6.00175">
        <ele>607</ele>
        <time>2021-09-10T09:58:15.401Z</time>
      </trkpt>
      <trkpt lat="45.72088" lon="6.00176">
        <ele>608</ele>
        <time>2021-09-10T09:58:16.400Z</time>
      </trkpt>
      <trkpt lat="45.72089" lon="6.00178">
        <ele>608</ele>
        <time>2021-09-10T09:58:17.401Z</time>
      </trkpt>
      <trkpt lat="45.72091" lon="6.00179">
        <ele>608</ele>
        <time>2021-09-10T09:58:18.401Z</time>
      </trkpt>
      <trkpt lat="45.72092" lon="6.0018">
        <ele>609</ele>
        <time>2021-09-10T09:58:19.401Z</time>
      </trkpt>
      <trkpt lat="45.72094" lon="6.00182">
        <ele>609</ele>
        <time>2021-09-10T09:58:20.401Z</time>
      </trkpt>
      <trkpt lat="45.72096" lon="6.00184">
        <ele>609</ele>
        <time>2021-09-10T09:58:21.401Z</time>
      </trkpt>
      <trkpt lat="45.72097" lon="6.00185">
        <ele>609</ele>
        <time>2021-09-10T09:58:22.400Z</time>
      </trkpt>
      <trkpt lat="45.72098" lon="6.00187">
        <ele>609</ele>
        <time>2021-09-10T09:58:23.401Z</time>
      </trkpt>
      <trkpt lat="45.721" lon="6.00188">
        <ele>610</ele>
        <time>2021-09-10T09:58:24.400Z</time>
      </trkpt>
      <trkpt lat="45.72102" lon="6.0019">
        <ele>610</ele>
        <time>2021-09-10T09:58:25.401Z</time>
      </trkpt>
      <trkpt lat="45.72103" lon="6.00191">
        <ele>610</ele>
        <time>2021-09-10T09:58:26.401Z</time>
      </trkpt>
      <trkpt lat="45.72104" lon="6.00193">
        <ele>610</ele>
        <time>2021-09-10T09:58:27.400Z</time>
      </trkpt>
      <trkpt lat="45.72106" lon="6.00194">
        <ele>610</ele>
        <time>2021-09-10T09:58:28.400Z</time>
      </trkpt>
      <trkpt lat="45.72107" lon="6.00196">
        <ele>610</ele>
        <time>2021-09-10T09:58:29.401Z</time>
      </trkpt>
      <trkpt lat="45.72109" lon="6.00198">
        <ele>610</ele>
        <time>2021-09-10T09:58:30.401Z</time>
      </trkpt>
      <trkpt lat="45.72111" lon="6.00199">
        <ele>610</ele>
        <time>2021-09-10T09:58:31.400Z</time>
      </trkpt>
      <trkpt lat="45.72113" lon="6.00201">
        <ele>610</ele>
        <time>2021-09-10T09:58:32.401Z</time>
      </trkpt>
      <trkpt lat="45.72114" lon="6.00202">
        <ele>611</ele>
        <time>2021-09-10T09:58:33.401Z</time>
      </trkpt>
      <trkpt lat="45.72115" lon="6.00203">
        <ele>611</ele>
        <time>2021-09-10T09:58:34.401Z</time>
      </trkpt>
      <trkpt lat="45.72117" lon="6.00205">
        <ele>611</ele>
        <time>2021-09-10T09:58:35.401Z</time>
      </trkpt>
      <trkpt lat="45.72118" lon="6.00207">
        <ele>611</ele>
        <time>2021-09-10T09:58:36.401Z</time>
      </trkpt>
      <trkpt lat="45.7212" lon="6.00209">
        <ele>612</ele>
        <time>2021-09-10T09:58:37.401Z</time>
      </trkpt>
      <trkpt lat="45.72121" lon="6.0021">
        <ele>613</ele>
        <time>2021-09-10T09:58:38.401Z</time>
      </trkpt>
      <trkpt lat="45.72123" lon="6.00212">
        <ele>613</ele>
        <time>2021-09-10T09:58:39.401Z</time>
      </trkpt>
      <trkpt lat="45.72124" lon="6.00214">
        <ele>614</ele>
        <time>2021-09-10T09:58:40.401Z</time>
      </trkpt>
      <trkpt lat="45.72126" lon="6.00216">
        <ele>615</ele>
        <time>2021-09-10T09:58:41.401Z</time>
      </trkpt>
      <trkpt lat="45.72128" lon="6.00218">
        <ele>615</ele>
        <time>2021-09-10T09:58:42.401Z</time>
      </trkpt>
      <trkpt lat="45.72129" lon="6.00219">
        <ele>615</ele>
        <time>2021-09-10T09:58:43.400Z</time>
      </trkpt>
      <trkpt lat="45.72131" lon="6.00221">
        <ele>615</ele>
        <time>2021-09-10T09:58:44.401Z</time>
      </trkpt>
      <trkpt lat="45.72132" lon="6.00223">
        <ele>616</ele>
        <time>2021-09-10T09:58:45.401Z</time>
      </trkpt>
      <trkpt lat="45.72133" lon="6.00224">
        <ele>616</ele>
        <time>2021-09-10T09:58:46.400Z</time>
      </trkpt>
      <trkpt lat="45.72135" lon="6.00225">
        <ele>617</ele>
        <time>2021-09-10T09:58:47.401Z</time>
      </trkpt>
      <trkpt lat="45.72137" lon="6.00227">
        <ele>617</ele>
        <time>2021-09-10T09:58:48.401Z</time>
      </trkpt>
      <trkpt lat="45.72138" lon="6.00228">
        <ele>618</ele>
        <time>2021-09-10T09:58:49.401Z</time>
      </trkpt>
      <trkpt lat="45.72139" lon="6.00229">
        <ele>618</ele>
        <time>2021-09-10T09:58:50.401Z</time>
      </trkpt>
      <trkpt lat="45.7214" lon="6.0023">
        <ele>618</ele>
        <time>2021-09-10T09:58:51.401Z</time>
      </trkpt>
      <trkpt lat="45.72141" lon="6.00231">
        <ele>619</ele>
        <time>2021-09-10T09:58:52.401Z</time>
      </trkpt>
      <trkpt lat="45.72142" lon="6.00232">
        <ele>618</ele>
        <time>2021-09-10T09:58:53.401Z</time>
      </trkpt>
      <trkpt lat="45.72145" lon="6.00234">
        <ele>618</ele>
        <time>2021-09-10T09:58:54.400Z</time>
      </trkpt>
      <trkpt lat="45.72147" lon="6.00235">
        <ele>618</ele>
        <time>2021-09-10T09:58:55.401Z</time>
      </trkpt>
      <trkpt lat="45.72148" lon="6.00237">
        <ele>618</ele>
        <time>2021-09-10T09:58:56.401Z</time>
      </trkpt>
      <trkpt lat="45.72149" lon="6.00237">
        <ele>618</ele>
        <time>2021-09-10T09:58:57.401Z</time>
      </trkpt>
      <trkpt lat="45.72151" lon="6.00238">
        <ele>619</ele>
        <time>2021-09-10T09:58:58.400Z</time>
      </trkpt>
      <trkpt lat="45.72154" lon="6.00239">
        <ele>619</ele>
        <time>2021-09-10T09:58:59.401Z</time>
      </trkpt>
      <trkpt lat="45.72155" lon="6.00241">
        <ele>619</ele>
        <time>2021-09-10T09:59:00.401Z</time>
      </trkpt>
      <trkpt lat="45.72157" lon="6.00242">
        <ele>620</ele>
        <time>2021-09-10T09:59:01.401Z</time>
      </trkpt>
      <trkpt lat="45.72159" lon="6.00243">
        <ele>620</ele>
        <time>2021-09-10T09:59:02.401Z</time>
      </trkpt>
      <trkpt lat="45.7216" lon="6.00245">
        <ele>620</ele>
        <time>2021-09-10T09:59:03.401Z</time>
      </trkpt>
      <trkpt lat="45.72162" lon="6.00246">
        <ele>619</ele>
        <time>2021-09-10T09:59:04.401Z</time>
      </trkpt>
      <trkpt lat="45.72163" lon="6.00247">
        <ele>619</ele>
        <time>2021-09-10T09:59:05.401Z</time>
      </trkpt>
      <trkpt lat="45.72165" lon="6.00249">
        <ele>619</ele>
        <time>2021-09-10T09:59:06.400Z</time>
      </trkpt>
      <trkpt lat="45.72167" lon="6.0025">
        <ele>619</ele>
        <time>2021-09-10T09:59:07.401Z</time>
      </trkpt>
      <trkpt lat="45.72169" lon="6.00252">
        <ele>619</ele>
        <time>2021-09-10T09:59:08.400Z</time>
      </trkpt>
      <trkpt lat="45.72171" lon="6.00253">
        <ele>619</ele>
        <time>2021-09-10T09:59:09.401Z</time>
      </trkpt>
      <trkpt lat="45.72172" lon="6.00255">
        <ele>619</ele>
        <time>2021-09-10T09:59:10.400Z</time>
      </trkpt>
      <trkpt lat="45.72174" lon="6.00256">
        <ele>618</ele>
        <time>2021-09-10T09:59:11.401Z</time>
      </trkpt>
      <trkpt lat="45.72175" lon="6.00257">
        <ele>618</ele>
        <time>2021-09-10T09:59:12.400Z</time>
      </trkpt>
      <trkpt lat="45.72177" lon="6.00258">
        <ele>618</ele>
        <time>2021-09-10T09:59:13.400Z</time>
      </trkpt>
      <trkpt lat="45.72178" lon="6.00259">
        <ele>619</ele>
        <time>2021-09-10T09:59:14.400Z</time>
      </trkpt>
      <trkpt lat="45.7218" lon="6.0026">
        <ele>619</ele>
        <time>2021-09-10T09:59:15.401Z</time>
      </trkpt>
      <trkpt lat="45.72182" lon="6.00261">
        <ele>619</ele>
        <time>2021-09-10T09:59:16.401Z</time>
      </trkpt>
      <trkpt lat="45.72183" lon="6.00262">
        <ele>619</ele>
        <time>2021-09-10T09:59:17.401Z</time>
      </trkpt>
      <trkpt lat="45.72185" lon="6.00263">
        <ele>619</ele>
        <time>2021-09-10T09:59:18.400Z</time>
      </trkpt>
      <trkpt lat="45.72187" lon="6.00264">
        <ele>619</ele>
        <time>2021-09-10T09:59:19.401Z</time>
      </trkpt>
      <trkpt lat="45.72189" lon="6.00266">
        <ele>619</ele>
        <time>2021-09-10T09:59:20.401Z</time>
      </trkpt>
      <trkpt lat="45.72191" lon="6.00267">
        <ele>620</ele>
        <time>2021-09-10T09:59:21.401Z</time>
      </trkpt>
      <trkpt lat="45.72192" lon="6.00268">
        <ele>620</ele>
        <time>2021-09-10T09:59:22.401Z</time>
      </trkpt>
      <trkpt lat="45.72194" lon="6.00269">
        <ele>621</ele>
        <time>2021-09-10T09:59:23.401Z</time>
      </trkpt>
      <trkpt lat="45.72196" lon="6.0027">
        <ele>621</ele>
        <time>2021-09-10T09:59:24.401Z</time>
      </trkpt>
      <trkpt lat="45.72197" lon="6.00271">
        <ele>621</ele>
        <time>2021-09-10T09:59:25.401Z</time>
      </trkpt>
      <trkpt lat="45.72199" lon="6.00272">
        <ele>622</ele>
        <time>2021-09-10T09:59:26.401Z</time>
      </trkpt>
      <trkpt lat="45.722" lon="6.00273">
        <ele>622</ele>
        <time>2021-09-10T09:59:27.401Z</time>
      </trkpt>
      <trkpt lat="45.72202" lon="6.00274">
        <ele>622</ele>
        <time>2021-09-10T09:59:28.401Z</time>
      </trkpt>
      <trkpt lat="45.72203" lon="6.00276">
        <ele>622</ele>
        <time>2021-09-10T09:59:29.401Z</time>
      </trkpt>
      <trkpt lat="45.72205" lon="6.00277">
        <ele>622</ele>
        <time>2021-09-10T09:59:30.401Z</time>
      </trkpt>
      <trkpt lat="45.72206" lon="6.00278">
        <ele>622</ele>
        <time>2021-09-10T09:59:31.401Z</time>
      </trkpt>
      <trkpt lat="45.72208" lon="6.00278">
        <ele>622</ele>
        <time>2021-09-10T09:59:32.401Z</time>
      </trkpt>
      <trkpt lat="45.72209" lon="6.0028">
        <ele>622</ele>
        <time>2021-09-10T09:59:33.400Z</time>
      </trkpt>
      <trkpt lat="45.72211" lon="6.00281">
        <ele>622</ele>
        <time>2021-09-10T09:59:34.400Z</time>
      </trkpt>
      <trkpt lat="45.72212" lon="6.00282">
        <ele>622</ele>
        <time>2021-09-10T09:59:35.401Z</time>
      </trkpt>
      <trkpt lat="45.72214" lon="6.00282">
        <ele>622</ele>
        <time>2021-09-10T09:59:36.400Z</time>
      </trkpt>
      <trkpt lat="45.72215" lon="6.00283">
        <ele>622</ele>
        <time>2021-09-10T09:59:37.400Z</time>
      </trkpt>
      <trkpt lat="45.72217" lon="6.00285">
        <ele>622</ele>
        <time>2021-09-10T09:59:38.401Z</time>
      </trkpt>
      <trkpt lat="45.72219" lon="6.00287">
        <ele>622</ele>
        <time>2021-09-10T09:59:39.400Z</time>
      </trkpt>
      <trkpt lat="45.7222" lon="6.00288">
        <ele>622</ele>
        <time>2021-09-10T09:59:40.401Z</time>
      </trkpt>
      <trkpt lat="45.72222" lon="6.0029">
        <ele>622</ele>
        <time>2021-09-10T09:59:41.400Z</time>
      </trkpt>
      <trkpt lat="45.72223" lon="6.00291">
        <ele>622</ele>
        <time>2021-09-10T09:59:42.401Z</time>
      </trkpt>
      <trkpt lat="45.72225" lon="6.00292">
        <ele>622</ele>
        <time>2021-09-10T09:59:43.401Z</time>
      </trkpt>
      <trkpt lat="45.72227" lon="6.00293">
        <ele>622</ele>
        <time>2021-09-10T09:59:44.401Z</time>
      </trkpt>
      <trkpt lat="45.72228" lon="6.00294">
        <ele>623</ele>
        <time>2021-09-10T09:59:45.401Z</time>
      </trkpt>
      <trkpt lat="45.7223" lon="6.00295">
        <ele>623</ele>
        <time>2021-09-10T09:59:46.401Z</time>
      </trkpt>
      <trkpt lat="45.72231" lon="6.00296">
        <ele>623</ele>
        <time>2021-09-10T09:59:47.400Z</time>
      </trkpt>
      <trkpt lat="45.72233" lon="6.00297">
        <ele>624</ele>
        <time>2021-09-10T09:59:48.401Z</time>
      </trkpt>
      <trkpt lat="45.72233" lon="6.00298">
        <ele>624</ele>
        <time>2021-09-10T09:59:49.401Z</time>
      </trkpt>
      <trkpt lat="45.72235" lon="6.00299">
        <ele>624</ele>
        <time>2021-09-10T09:59:50.400Z</time>
      </trkpt>
      <trkpt lat="45.72236" lon="6.00301">
        <ele>623</ele>
        <time>2021-09-10T09:59:51.401Z</time>
      </trkpt>
      <trkpt lat="45.72238" lon="6.00302">
        <ele>623</ele>
        <time>2021-09-10T09:59:52.401Z</time>
      </trkpt>
      <trkpt lat="45.7224" lon="6.00304">
        <ele>623</ele>
        <time>2021-09-10T09:59:53.401Z</time>
      </trkpt>
      <trkpt lat="45.72242" lon="6.00305">
        <ele>624</ele>
        <time>2021-09-10T09:59:54.401Z</time>
      </trkpt>
      <trkpt lat="45.72243" lon="6.00306">
        <ele>624</ele>
        <time>2021-09-10T09:59:55.401Z</time>
      </trkpt>
      <trkpt lat="45.72245" lon="6.00307">
        <ele>624</ele>
        <time>2021-09-10T09:59:56.400Z</time>
      </trkpt>
      <trkpt lat="45.72247" lon="6.00309">
        <ele>624</ele>
        <time>2021-09-10T09:59:57.401Z</time>
      </trkpt>
      <trkpt lat="45.72248" lon="6.00311">
        <ele>624</ele>
        <time>2021-09-10T09:59:58.401Z</time>
      </trkpt>
      <trkpt lat="45.7225" lon="6.00312">
        <ele>624</ele>
        <time>2021-09-10T09:59:59.401Z</time>
      </trkpt>
      <trkpt lat="45.72251" lon="6.00313">
        <ele>623</ele>
        <time>2021-09-10T10:00:00.400Z</time>
      </trkpt>
      <trkpt lat="45.72253" lon="6.00315">
        <ele>623</ele>
        <time>2021-09-10T10:00:01.401Z</time>
      </trkpt>
      <trkpt lat="45.72255" lon="6.00316">
        <ele>623</ele>
        <time>2021-09-10T10:00:02.401Z</time>
      </trkpt>
      <trkpt lat="45.72257" lon="6.00318">
        <ele>623</ele>
        <time>2021-09-10T10:00:03.401Z</time>
      </trkpt>
      <trkpt lat="45.72259" lon="6.00319">
        <ele>623</ele>
        <time>2021-09-10T10:00:04.400Z</time>
      </trkpt>
      <trkpt lat="45.7226" lon="6.0032">
        <ele>623</ele>
        <time>2021-09-10T10:00:05.400Z</time>
      </trkpt>
      <trkpt lat="45.72262" lon="6.00321">
        <ele>624</ele>
        <time>2021-09-10T10:00:06.401Z</time>
      </trkpt>
      <trkpt lat="45.72264" lon="6.00323">
        <ele>624</ele>
        <time>2021-09-10T10:00:07.401Z</time>
      </trkpt>
      <trkpt lat="45.72265" lon="6.00324">
        <ele>624</ele>
        <time>2021-09-10T10:00:08.401Z</time>
      </trkpt>
      <trkpt lat="45.72267" lon="6.00326">
        <ele>624</ele>
        <time>2021-09-10T10:00:09.401Z</time>
      </trkpt>
      <trkpt lat="45.72269" lon="6.00327">
        <ele>624</ele>
        <time>2021-09-10T10:00:10.401Z</time>
      </trkpt>
      <trkpt lat="45.7227" lon="6.00328">
        <ele>624</ele>
        <time>2021-09-10T10:00:11.401Z</time>
      </trkpt>
      <trkpt lat="45.72272" lon="6.0033">
        <ele>624</ele>
        <time>2021-09-10T10:00:12.400Z</time>
      </trkpt>
      <trkpt lat="45.72274" lon="6.00331">
        <ele>625</ele>
        <time>2021-09-10T10:00:13.401Z</time>
      </trkpt>
      <trkpt lat="45.72276" lon="6.00332">
        <ele>625</ele>
        <time>2021-09-10T10:00:14.400Z</time>
      </trkpt>
      <trkpt lat="45.72277" lon="6.00332">
        <ele>625</ele>
        <time>2021-09-10T10:00:15.401Z</time>
      </trkpt>
      <trkpt lat="45.72278" lon="6.00334">
        <ele>625</ele>
        <time>2021-09-10T10:00:16.401Z</time>
      </trkpt>
      <trkpt lat="45.7228" lon="6.00335">
        <ele>626</ele>
        <time>2021-09-10T10:00:17.401Z</time>
      </trkpt>
      <trkpt lat="45.72282" lon="6.00336">
        <ele>626</ele>
        <time>2021-09-10T10:00:18.400Z</time>
      </trkpt>
      <trkpt lat="45.72284" lon="6.00337">
        <ele>627</ele>
        <time>2021-09-10T10:00:19.400Z</time>
      </trkpt>
      <trkpt lat="45.72285" lon="6.00339">
        <ele>627</ele>
        <time>2021-09-10T10:00:20.401Z</time>
      </trkpt>
      <trkpt lat="45.72287" lon="6.0034">
        <ele>627</ele>
        <time>2021-09-10T10:00:21.401Z</time>
      </trkpt>
      <trkpt lat="45.7229" lon="6.00342">
        <ele>628</ele>
        <time>2021-09-10T10:00:22.400Z</time>
      </trkpt>
      <trkpt lat="45.72291" lon="6.00343">
        <ele>628</ele>
        <time>2021-09-10T10:00:23.400Z</time>
      </trkpt>
      <trkpt lat="45.72293" lon="6.00344">
        <ele>628</ele>
        <time>2021-09-10T10:00:24.400Z</time>
      </trkpt>
      <trkpt lat="45.72294" lon="6.00345">
        <ele>628</ele>
        <time>2021-09-10T10:00:25.401Z</time>
      </trkpt>
      <trkpt lat="45.72296" lon="6.00347">
        <ele>628</ele>
        <time>2021-09-10T10:00:26.401Z</time>
      </trkpt>
      <trkpt lat="45.72298" lon="6.00349">
        <ele>628</ele>
        <time>2021-09-10T10:00:27.400Z</time>
      </trkpt>
      <trkpt lat="45.72299" lon="6.0035">
        <ele>628</ele>
        <time>2021-09-10T10:00:28.401Z</time>
      </trkpt>
      <trkpt lat="45.72301" lon="6.00352">
        <ele>628</ele>
        <time>2021-09-10T10:00:29.401Z</time>
      </trkpt>
      <trkpt lat="45.72302" lon="6.00353">
        <ele>627</ele>
        <time>2021-09-10T10:00:30.401Z</time>
      </trkpt>
      <trkpt lat="45.72304" lon="6.00355">
        <ele>628</ele>
        <time>2021-09-10T10:00:31.400Z</time>
      </trkpt>
      <trkpt lat="45.72306" lon="6.00356">
        <ele>628</ele>
        <time>2021-09-10T10:00:32.400Z</time>
      </trkpt>
      <trkpt lat="45.72307" lon="6.00357">
        <ele>628</ele>
        <time>2021-09-10T10:00:33.401Z</time>
      </trkpt>
      <trkpt lat="45.72307" lon="6.00358">
        <ele>628</ele>
        <time>2021-09-10T10:00:34.401Z</time>
      </trkpt>
      <trkpt lat="45.72309" lon="6.0036">
        <ele>629</ele>
        <time>2021-09-10T10:00:35.401Z</time>
      </trkpt>
      <trkpt lat="45.72311" lon="6.00362">
        <ele>629</ele>
        <time>2021-09-10T10:00:36.400Z</time>
      </trkpt>
      <trkpt lat="45.72312" lon="6.00364">
        <ele>629</ele>
        <time>2021-09-10T10:00:37.401Z</time>
      </trkpt>
      <trkpt lat="45.72313" lon="6.00366">
        <ele>629</ele>
        <time>2021-09-10T10:00:38.401Z</time>
      </trkpt>
      <trkpt lat="45.72314" lon="6.00367">
        <ele>630</ele>
        <time>2021-09-10T10:00:39.400Z</time>
      </trkpt>
      <trkpt lat="45.72316" lon="6.0037">
        <ele>630</ele>
        <time>2021-09-10T10:00:40.401Z</time>
      </trkpt>
      <trkpt lat="45.72317" lon="6.00372">
        <ele>631</ele>
        <time>2021-09-10T10:00:41.400Z</time>
      </trkpt>
      <trkpt lat="45.72317" lon="6.00374">
        <ele>631</ele>
        <time>2021-09-10T10:00:42.401Z</time>
      </trkpt>
      <trkpt lat="45.72318" lon="6.00376">
        <ele>632</ele>
        <time>2021-09-10T10:00:43.400Z</time>
      </trkpt>
      <trkpt lat="45.72319" lon="6.00378">
        <ele>632</ele>
        <time>2021-09-10T10:00:44.400Z</time>
      </trkpt>
      <trkpt lat="45.7232" lon="6.00381">
        <ele>633</ele>
        <time>2021-09-10T10:00:45.401Z</time>
      </trkpt>
      <trkpt lat="45.72321" lon="6.00383">
        <ele>633</ele>
        <time>2021-09-10T10:00:46.400Z</time>
      </trkpt>
      <trkpt lat="45.72322" lon="6.00386">
        <ele>634</ele>
        <time>2021-09-10T10:00:47.400Z</time>
      </trkpt>
      <trkpt lat="45.72323" lon="6.00389">
        <ele>634</ele>
        <time>2021-09-10T10:00:48.400Z</time>
      </trkpt>
      <trkpt lat="45.72324" lon="6.00391">
        <ele>634</ele>
        <time>2021-09-10T10:00:49.400Z</time>
      </trkpt>
      <trkpt lat="45.72325" lon="6.00393">
        <ele>634</ele>
        <time>2021-09-10T10:00:50.401Z</time>
      </trkpt>
      <trkpt lat="45.72326" lon="6.00396">
        <ele>634</ele>
        <time>2021-09-10T10:00:51.401Z</time>
      </trkpt>
      <trkpt lat="45.72328" lon="6.00399">
        <ele>634</ele>
        <time>2021-09-10T10:00:52.400Z</time>
      </trkpt>
      <trkpt lat="45.72329" lon="6.00401">
        <ele>634</ele>
        <time>2021-09-10T10:00:53.400Z</time>
      </trkpt>
      <trkpt lat="45.7233" lon="6.00403">
        <ele>635</ele>
        <time>2021-09-10T10:00:54.401Z</time>
      </trkpt>
      <trkpt lat="45.72331" lon="6.00405">
        <ele>636</ele>
        <time>2021-09-10T10:00:55.401Z</time>
      </trkpt>
      <trkpt lat="45.72332" lon="6.00408">
        <ele>636</ele>
        <time>2021-09-10T10:00:56.400Z</time>
      </trkpt>
      <trkpt lat="45.72333" lon="6.00411">
        <ele>636</ele>
        <time>2021-09-10T10:00:57.400Z</time>
      </trkpt>
      <trkpt lat="45.72334" lon="6.00413">
        <ele>637</ele>
        <time>2021-09-10T10:00:58.401Z</time>
      </trkpt>
      <trkpt lat="45.72334" lon="6.00415">
        <ele>637</ele>
        <time>2021-09-10T10:00:59.401Z</time>
      </trkpt>
      <trkpt lat="45.72334" lon="6.00418">
        <ele>638</ele>
        <time>2021-09-10T10:01:00.401Z</time>
      </trkpt>
      <trkpt lat="45.72335" lon="6.00421">
        <ele>639</ele>
        <time>2021-09-10T10:01:01.401Z</time>
      </trkpt>
      <trkpt lat="45.72334" lon="6.00424">
        <ele>640</ele>
        <time>2021-09-10T10:01:02.401Z</time>
      </trkpt>
      <trkpt lat="45.72333" lon="6.00426">
        <ele>640</ele>
        <time>2021-09-10T10:01:03.401Z</time>
      </trkpt>
      <trkpt lat="45.72332" lon="6.00429">
        <ele>640</ele>
        <time>2021-09-10T10:01:04.400Z</time>
      </trkpt>
      <trkpt lat="45.72332" lon="6.00431">
        <ele>641</ele>
        <time>2021-09-10T10:01:05.401Z</time>
      </trkpt>
      <trkpt lat="45.72332" lon="6.00434">
        <ele>642</ele>
        <time>2021-09-10T10:01:06.401Z</time>
      </trkpt>
      <trkpt lat="45.72331" lon="6.00437">
        <ele>642</ele>
        <time>2021-09-10T10:01:07.401Z</time>
      </trkpt>
      <trkpt lat="45.7233" lon="6.0044">
        <ele>641</ele>
        <time>2021-09-10T10:01:08.401Z</time>
      </trkpt>
      <trkpt lat="45.72329" lon="6.00443">
        <ele>642</ele>
        <time>2021-09-10T10:01:09.400Z</time>
      </trkpt>
      <trkpt lat="45.72328" lon="6.00445">
        <ele>642</ele>
        <time>2021-09-10T10:01:10.401Z</time>
      </trkpt>
      <trkpt lat="45.72327" lon="6.00448">
        <ele>642</ele>
        <time>2021-09-10T10:01:11.400Z</time>
      </trkpt>
      <trkpt lat="45.72326" lon="6.0045">
        <ele>642</ele>
        <time>2021-09-10T10:01:12.400Z</time>
      </trkpt>
      <trkpt lat="45.72325" lon="6.00453">
        <ele>641</ele>
        <time>2021-09-10T10:01:13.400Z</time>
      </trkpt>
      <trkpt lat="45.72324" lon="6.00456">
        <ele>641</ele>
        <time>2021-09-10T10:01:14.400Z</time>
      </trkpt>
      <trkpt lat="45.72323" lon="6.00459">
        <ele>640</ele>
        <time>2021-09-10T10:01:15.401Z</time>
      </trkpt>
      <trkpt lat="45.72322" lon="6.00461">
        <ele>640</ele>
        <time>2021-09-10T10:01:16.401Z</time>
      </trkpt>
      <trkpt lat="45.72322" lon="6.00464">
        <ele>639</ele>
        <time>2021-09-10T10:01:17.400Z</time>
      </trkpt>
      <trkpt lat="45.72321" lon="6.00466">
        <ele>639</ele>
        <time>2021-09-10T10:01:18.401Z</time>
      </trkpt>
      <trkpt lat="45.72321" lon="6.00469">
        <ele>639</ele>
        <time>2021-09-10T10:01:19.401Z</time>
      </trkpt>
      <trkpt lat="45.72321" lon="6.00472">
        <ele>638</ele>
        <time>2021-09-10T10:01:20.401Z</time>
      </trkpt>
      <trkpt lat="45.72321" lon="6.00475">
        <ele>638</ele>
        <time>2021-09-10T10:01:21.401Z</time>
      </trkpt>
      <trkpt lat="45.72321" lon="6.00477">
        <ele>637</ele>
        <time>2021-09-10T10:01:22.400Z</time>
      </trkpt>
      <trkpt lat="45.72321" lon="6.0048">
        <ele>637</ele>
        <time>2021-09-10T10:01:23.401Z</time>
      </trkpt>
      <trkpt lat="45.72322" lon="6.00483">
        <ele>636</ele>
        <time>2021-09-10T10:01:24.401Z</time>
      </trkpt>
      <trkpt lat="45.72323" lon="6.00485">
        <ele>636</ele>
        <time>2021-09-10T10:01:25.401Z</time>
      </trkpt>
      <trkpt lat="45.72324" lon="6.00488">
        <ele>635</ele>
        <time>2021-09-10T10:01:26.401Z</time>
      </trkpt>
      <trkpt lat="45.72325" lon="6.0049">
        <ele>635</ele>
        <time>2021-09-10T10:01:27.401Z</time>
      </trkpt>
      <trkpt lat="45.72326" lon="6.00492">
        <ele>635</ele>
        <time>2021-09-10T10:01:28.401Z</time>
      </trkpt>
      <trkpt lat="45.72327" lon="6.00493">
        <ele>635</ele>
        <time>2021-09-10T10:01:29.400Z</time>
      </trkpt>
      <trkpt lat="45.72329" lon="6.00496">
        <ele>635</ele>
        <time>2021-09-10T10:01:30.401Z</time>
      </trkpt>
      <trkpt lat="45.7233" lon="6.00498">
        <ele>635</ele>
        <time>2021-09-10T10:01:31.401Z</time>
      </trkpt>
      <trkpt lat="45.72332" lon="6.00499">
        <ele>636</ele>
        <time>2021-09-10T10:01:32.400Z</time>
      </trkpt>
      <trkpt lat="45.72334" lon="6.005">
        <ele>636</ele>
        <time>2021-09-10T10:01:33.400Z</time>
      </trkpt>
      <trkpt lat="45.72336" lon="6.00501">
        <ele>636</ele>
        <time>2021-09-10T10:01:34.400Z</time>
      </trkpt>
      <trkpt lat="45.72337" lon="6.00502">
        <ele>637</ele>
        <time>2021-09-10T10:01:35.400Z</time>
      </trkpt>
      <trkpt lat="45.72339" lon="6.00503">
        <ele>637</ele>
        <time>2021-09-10T10:01:36.401Z</time>
      </trkpt>
      <trkpt lat="45.72341" lon="6.00503">
        <ele>637</ele>
        <time>2021-09-10T10:01:37.400Z</time>
      </trkpt>
      <trkpt lat="45.72343" lon="6.00504">
        <ele>638</ele>
        <time>2021-09-10T10:01:38.401Z</time>
      </trkpt>
      <trkpt lat="45.72345" lon="6.00504">
        <ele>638</ele>
        <time>2021-09-10T10:01:39.401Z</time>
      </trkpt>
      <trkpt lat="45.72347" lon="6.00503">
        <ele>638</ele>
        <time>2021-09-10T10:01:40.401Z</time>
      </trkpt>
      <trkpt lat="45.72349" lon="6.00503">
        <ele>638</ele>
        <time>2021-09-10T10:01:41.401Z</time>
      </trkpt>
      <trkpt lat="45.72351" lon="6.00503">
        <ele>638</ele>
        <time>2021-09-10T10:01:42.400Z</time>
      </trkpt>
      <trkpt lat="45.72353" lon="6.00502">
        <ele>638</ele>
        <time>2021-09-10T10:01:43.400Z</time>
      </trkpt>
      <trkpt lat="45.72355" lon="6.00501">
        <ele>639</ele>
        <time>2021-09-10T10:01:44.400Z</time>
      </trkpt>
      <trkpt lat="45.72357" lon="6.005">
        <ele>639</ele>
        <time>2021-09-10T10:01:45.401Z</time>
      </trkpt>
      <trkpt lat="45.72359" lon="6.00499">
        <ele>639</ele>
        <time>2021-09-10T10:01:46.401Z</time>
      </trkpt>
      <trkpt lat="45.7236" lon="6.00499">
        <ele>639</ele>
        <time>2021-09-10T10:01:47.400Z</time>
      </trkpt>
      <trkpt lat="45.72362" lon="6.00498">
        <ele>639</ele>
        <time>2021-09-10T10:01:48.400Z</time>
      </trkpt>
      <trkpt lat="45.72364" lon="6.00497">
        <ele>640</ele>
        <time>2021-09-10T10:01:49.400Z</time>
      </trkpt>
      <trkpt lat="45.72366" lon="6.00497">
        <ele>640</ele>
        <time>2021-09-10T10:01:50.401Z</time>
      </trkpt>
      <trkpt lat="45.72367" lon="6.00495">
        <ele>640</ele>
        <time>2021-09-10T10:01:51.401Z</time>
      </trkpt>
      <trkpt lat="45.72369" lon="6.00495">
        <ele>641</ele>
        <time>2021-09-10T10:01:52.401Z</time>
      </trkpt>
      <trkpt lat="45.72371" lon="6.00494">
        <ele>641</ele>
        <time>2021-09-10T10:01:53.401Z</time>
      </trkpt>
      <trkpt lat="45.72373" lon="6.00493">
        <ele>641</ele>
        <time>2021-09-10T10:01:54.401Z</time>
      </trkpt>
      <trkpt lat="45.72374" lon="6.00492">
        <ele>641</ele>
        <time>2021-09-10T10:01:55.401Z</time>
      </trkpt>
      <trkpt lat="45.72376" lon="6.00491">
        <ele>642</ele>
        <time>2021-09-10T10:01:56.400Z</time>
      </trkpt>
      <trkpt lat="45.72378" lon="6.0049">
        <ele>642</ele>
        <time>2021-09-10T10:01:57.401Z</time>
      </trkpt>
      <trkpt lat="45.7238" lon="6.0049">
        <ele>643</ele>
        <time>2021-09-10T10:01:58.401Z</time>
      </trkpt>
      <trkpt lat="45.72382" lon="6.00489">
        <ele>643</ele>
        <time>2021-09-10T10:01:59.401Z</time>
      </trkpt>
      <trkpt lat="45.72383" lon="6.00488">
        <ele>643</ele>
        <time>2021-09-10T10:02:00.401Z</time>
      </trkpt>
      <trkpt lat="45.72385" lon="6.00488">
        <ele>643</ele>
        <time>2021-09-10T10:02:01.400Z</time>
      </trkpt>
      <trkpt lat="45.72387" lon="6.00487">
        <ele>643</ele>
        <time>2021-09-10T10:02:02.401Z</time>
      </trkpt>
      <trkpt lat="45.72389" lon="6.00486">
        <ele>643</ele>
        <time>2021-09-10T10:02:03.401Z</time>
      </trkpt>
      <trkpt lat="45.7239" lon="6.00485">
        <ele>643</ele>
        <time>2021-09-10T10:02:04.400Z</time>
      </trkpt>
      <trkpt lat="45.72392" lon="6.00485">
        <ele>643</ele>
        <time>2021-09-10T10:02:05.401Z</time>
      </trkpt>
      <trkpt lat="45.72394" lon="6.00484">
        <ele>643</ele>
        <time>2021-09-10T10:02:06.401Z</time>
      </trkpt>
      <trkpt lat="45.72396" lon="6.00482">
        <ele>643</ele>
        <time>2021-09-10T10:02:07.401Z</time>
      </trkpt>
      <trkpt lat="45.72397" lon="6.00481">
        <ele>643</ele>
        <time>2021-09-10T10:02:08.401Z</time>
      </trkpt>
      <trkpt lat="45.72399" lon="6.0048">
        <ele>642</ele>
        <time>2021-09-10T10:02:09.401Z</time>
      </trkpt>
      <trkpt lat="45.72401" lon="6.00479">
        <ele>642</ele>
        <time>2021-09-10T10:02:10.401Z</time>
      </trkpt>
      <trkpt lat="45.72403" lon="6.00478">
        <ele>642</ele>
        <time>2021-09-10T10:02:11.401Z</time>
      </trkpt>
      <trkpt lat="45.72405" lon="6.00477">
        <ele>642</ele>
        <time>2021-09-10T10:02:12.400Z</time>
      </trkpt>
      <trkpt lat="45.72406" lon="6.00475">
        <ele>642</ele>
        <time>2021-09-10T10:02:13.401Z</time>
      </trkpt>
      <trkpt lat="45.72407" lon="6.00473">
        <ele>642</ele>
        <time>2021-09-10T10:02:14.401Z</time>
      </trkpt>
      <trkpt lat="45.72409" lon="6.00472">
        <ele>642</ele>
        <time>2021-09-10T10:02:15.400Z</time>
      </trkpt>
      <trkpt lat="45.72411" lon="6.0047">
        <ele>642</ele>
        <time>2021-09-10T10:02:16.401Z</time>
      </trkpt>
      <trkpt lat="45.72412" lon="6.00469">
        <ele>642</ele>
        <time>2021-09-10T10:02:17.400Z</time>
      </trkpt>
      <trkpt lat="45.72414" lon="6.00467">
        <ele>643</ele>
        <time>2021-09-10T10:02:18.400Z</time>
      </trkpt>
      <trkpt lat="45.72415" lon="6.00465">
        <ele>643</ele>
        <time>2021-09-10T10:02:19.401Z</time>
      </trkpt>
      <trkpt lat="45.72417" lon="6.00464">
        <ele>643</ele>
        <time>2021-09-10T10:02:20.401Z</time>
      </trkpt>
      <trkpt lat="45.72418" lon="6.00462">
        <ele>643</ele>
        <time>2021-09-10T10:02:21.401Z</time>
      </trkpt>
      <trkpt lat="45.7242" lon="6.00461">
        <ele>643</ele>
        <time>2021-09-10T10:02:22.401Z</time>
      </trkpt>
      <trkpt lat="45.72421" lon="6.00459">
        <ele>643</ele>
        <time>2021-09-10T10:02:23.401Z</time>
      </trkpt>
      <trkpt lat="45.72422" lon="6.00458">
        <ele>643</ele>
        <time>2021-09-10T10:02:24.400Z</time>
      </trkpt>
      <trkpt lat="45.72424" lon="6.00456">
        <ele>642</ele>
        <time>2021-09-10T10:02:25.400Z</time>
      </trkpt>
      <trkpt lat="45.72426" lon="6.00454">
        <ele>642</ele>
        <time>2021-09-10T10:02:26.401Z</time>
      </trkpt>
      <trkpt lat="45.72427" lon="6.00453">
        <ele>642</ele>
        <time>2021-09-10T10:02:27.401Z</time>
      </trkpt>
      <trkpt lat="45.72428" lon="6.00451">
        <ele>642</ele>
        <time>2021-09-10T10:02:28.401Z</time>
      </trkpt>
      <trkpt lat="45.7243" lon="6.00449">
        <ele>643</ele>
        <time>2021-09-10T10:02:29.401Z</time>
      </trkpt>
      <trkpt lat="45.72431" lon="6.00447">
        <ele>643</ele>
        <time>2021-09-10T10:02:30.400Z</time>
      </trkpt>
      <trkpt lat="45.72433" lon="6.00446">
        <ele>643</ele>
        <time>2021-09-10T10:02:31.401Z</time>
      </trkpt>
      <trkpt lat="45.72435" lon="6.00444">
        <ele>644</ele>
        <time>2021-09-10T10:02:32.400Z</time>
      </trkpt>
      <trkpt lat="45.72437" lon="6.00442">
        <ele>644</ele>
        <time>2021-09-10T10:02:33.400Z</time>
      </trkpt>
      <trkpt lat="45.72438" lon="6.0044">
        <ele>644</ele>
        <time>2021-09-10T10:02:34.401Z</time>
      </trkpt>
      <trkpt lat="45.7244" lon="6.00439">
        <ele>644</ele>
        <time>2021-09-10T10:02:35.401Z</time>
      </trkpt>
      <trkpt lat="45.72441" lon="6.00437">
        <ele>644</ele>
        <time>2021-09-10T10:02:36.401Z</time>
      </trkpt>
      <trkpt lat="45.72443" lon="6.00435">
        <ele>644</ele>
        <time>2021-09-10T10:02:37.400Z</time>
      </trkpt>
      <trkpt lat="45.72445" lon="6.00434">
        <ele>644</ele>
        <time>2021-09-10T10:02:38.401Z</time>
      </trkpt>
      <trkpt lat="45.72447" lon="6.00434">
        <ele>644</ele>
        <time>2021-09-10T10:02:39.400Z</time>
      </trkpt>
      <trkpt lat="45.72449" lon="6.00433">
        <ele>643</ele>
        <time>2021-09-10T10:02:40.400Z</time>
      </trkpt>
      <trkpt lat="45.72451" lon="6.00432">
        <ele>643</ele>
        <time>2021-09-10T10:02:41.400Z</time>
      </trkpt>
      <trkpt lat="45.72453" lon="6.00431">
        <ele>643</ele>
        <time>2021-09-10T10:02:42.401Z</time>
      </trkpt>
      <trkpt lat="45.72455" lon="6.00431">
        <ele>643</ele>
        <time>2021-09-10T10:02:43.401Z</time>
      </trkpt>
      <trkpt lat="45.72457" lon="6.00431">
        <ele>643</ele>
        <time>2021-09-10T10:02:44.401Z</time>
      </trkpt>
      <trkpt lat="45.72459" lon="6.00431">
        <ele>643</ele>
        <time>2021-09-10T10:02:45.400Z</time>
      </trkpt>
      <trkpt lat="45.72461" lon="6.00431">
        <ele>644</ele>
        <time>2021-09-10T10:02:46.400Z</time>
      </trkpt>
      <trkpt lat="45.72463" lon="6.00432">
        <ele>644</ele>
        <time>2021-09-10T10:02:47.401Z</time>
      </trkpt>
      <trkpt lat="45.72464" lon="6.00432">
        <ele>644</ele>
        <time>2021-09-10T10:02:48.401Z</time>
      </trkpt>
      <trkpt lat="45.72466" lon="6.00433">
        <ele>644</ele>
        <time>2021-09-10T10:02:49.401Z</time>
      </trkpt>
      <trkpt lat="45.72468" lon="6.00434">
        <ele>644</ele>
        <time>2021-09-10T10:02:50.401Z</time>
      </trkpt>
      <trkpt lat="45.7247" lon="6.00435">
        <ele>644</ele>
        <time>2021-09-10T10:02:51.401Z</time>
      </trkpt>
      <trkpt lat="45.72472" lon="6.00437">
        <ele>644</ele>
        <time>2021-09-10T10:02:52.400Z</time>
      </trkpt>
      <trkpt lat="45.72474" lon="6.00439">
        <ele>644</ele>
        <time>2021-09-10T10:02:53.401Z</time>
      </trkpt>
      <trkpt lat="45.72476" lon="6.00441">
        <ele>644</ele>
        <time>2021-09-10T10:02:54.401Z</time>
      </trkpt>
      <trkpt lat="45.72477" lon="6.00443">
        <ele>644</ele>
        <time>2021-09-10T10:02:55.400Z</time>
      </trkpt>
      <trkpt lat="45.72479" lon="6.00445">
        <ele>645</ele>
        <time>2021-09-10T10:02:56.401Z</time>
      </trkpt>
      <trkpt lat="45.72481" lon="6.00448">
        <ele>645</ele>
        <time>2021-09-10T10:02:57.401Z</time>
      </trkpt>
      <trkpt lat="45.72482" lon="6.0045">
        <ele>645</ele>
        <time>2021-09-10T10:02:58.401Z</time>
      </trkpt>
      <trkpt lat="45.72484" lon="6.00452">
        <ele>645</ele>
        <time>2021-09-10T10:02:59.401Z</time>
      </trkpt>
      <trkpt lat="45.72486" lon="6.00454">
        <ele>645</ele>
        <time>2021-09-10T10:03:00.401Z</time>
      </trkpt>
      <trkpt lat="45.72487" lon="6.00456">
        <ele>646</ele>
        <time>2021-09-10T10:03:01.401Z</time>
      </trkpt>
      <trkpt lat="45.72489" lon="6.00459">
        <ele>646</ele>
        <time>2021-09-10T10:03:02.401Z</time>
      </trkpt>
      <trkpt lat="45.7249" lon="6.00461">
        <ele>646</ele>
        <time>2021-09-10T10:03:03.401Z</time>
      </trkpt>
      <trkpt lat="45.72492" lon="6.00464">
        <ele>646</ele>
        <time>2021-09-10T10:03:04.401Z</time>
      </trkpt>
      <trkpt lat="45.72494" lon="6.00466">
        <ele>646</ele>
        <time>2021-09-10T10:03:05.401Z</time>
      </trkpt>
      <trkpt lat="45.72495" lon="6.00468">
        <ele>646</ele>
        <time>2021-09-10T10:03:06.401Z</time>
      </trkpt>
      <trkpt lat="45.72497" lon="6.00471">
        <ele>646</ele>
        <time>2021-09-10T10:03:07.401Z</time>
      </trkpt>
      <trkpt lat="45.72498" lon="6.00473">
        <ele>645</ele>
        <time>2021-09-10T10:03:08.401Z</time>
      </trkpt>
      <trkpt lat="45.725" lon="6.00475">
        <ele>645</ele>
        <time>2021-09-10T10:03:09.401Z</time>
      </trkpt>
      <trkpt lat="45.72501" lon="6.00478">
        <ele>645</ele>
        <time>2021-09-10T10:03:10.401Z</time>
      </trkpt>
      <trkpt lat="45.72503" lon="6.0048">
        <ele>646</ele>
        <time>2021-09-10T10:03:11.401Z</time>
      </trkpt>
      <trkpt lat="45.72505" lon="6.00482">
        <ele>646</ele>
        <time>2021-09-10T10:03:12.401Z</time>
      </trkpt>
      <trkpt lat="45.72506" lon="6.00485">
        <ele>646</ele>
        <time>2021-09-10T10:03:13.401Z</time>
      </trkpt>
      <trkpt lat="45.72508" lon="6.00487">
        <ele>646</ele>
        <time>2021-09-10T10:03:14.401Z</time>
      </trkpt>
      <trkpt lat="45.72509" lon="6.00489">
        <ele>646</ele>
        <time>2021-09-10T10:03:15.401Z</time>
      </trkpt>
      <trkpt lat="45.72511" lon="6.00491">
        <ele>646</ele>
        <time>2021-09-10T10:03:16.401Z</time>
      </trkpt>
      <trkpt lat="45.72513" lon="6.00493">
        <ele>646</ele>
        <time>2021-09-10T10:03:17.401Z</time>
      </trkpt>
      <trkpt lat="45.72515" lon="6.00496">
        <ele>646</ele>
        <time>2021-09-10T10:03:18.401Z</time>
      </trkpt>
      <trkpt lat="45.72517" lon="6.00498">
        <ele>646</ele>
        <time>2021-09-10T10:03:19.401Z</time>
      </trkpt>
      <trkpt lat="45.72518" lon="6.005">
        <ele>646</ele>
        <time>2021-09-10T10:03:20.400Z</time>
      </trkpt>
      <trkpt lat="45.72519" lon="6.00502">
        <ele>646</ele>
        <time>2021-09-10T10:03:21.401Z</time>
      </trkpt>
      <trkpt lat="45.72521" lon="6.00505">
        <ele>646</ele>
        <time>2021-09-10T10:03:22.401Z</time>
      </trkpt>
      <trkpt lat="45.72523" lon="6.00507">
        <ele>646</ele>
        <time>2021-09-10T10:03:23.401Z</time>
      </trkpt>
      <trkpt lat="45.72524" lon="6.0051">
        <ele>646</ele>
        <time>2021-09-10T10:03:24.401Z</time>
      </trkpt>
      <trkpt lat="45.72526" lon="6.00511">
        <ele>646</ele>
        <time>2021-09-10T10:03:25.401Z</time>
      </trkpt>
      <trkpt lat="45.72528" lon="6.00513">
        <ele>646</ele>
        <time>2021-09-10T10:03:26.401Z</time>
      </trkpt>
      <trkpt lat="45.72529" lon="6.00515">
        <ele>647</ele>
        <time>2021-09-10T10:03:27.400Z</time>
      </trkpt>
      <trkpt lat="45.72531" lon="6.00517">
        <ele>647</ele>
        <time>2021-09-10T10:03:28.400Z</time>
      </trkpt>
      <trkpt lat="45.72533" lon="6.0052">
        <ele>647</ele>
        <time>2021-09-10T10:03:29.401Z</time>
      </trkpt>
      <trkpt lat="45.72534" lon="6.00521">
        <ele>647</ele>
        <time>2021-09-10T10:03:30.401Z</time>
      </trkpt>
      <trkpt lat="45.72536" lon="6.00523">
        <ele>647</ele>
        <time>2021-09-10T10:03:31.401Z</time>
      </trkpt>
      <trkpt lat="45.72538" lon="6.00525">
        <ele>647</ele>
        <time>2021-09-10T10:03:32.401Z</time>
      </trkpt>
      <trkpt lat="45.72539" lon="6.00527">
        <ele>647</ele>
        <time>2021-09-10T10:03:33.400Z</time>
      </trkpt>
      <trkpt lat="45.72541" lon="6.00529">
        <ele>647</ele>
        <time>2021-09-10T10:03:34.400Z</time>
      </trkpt>
      <trkpt lat="45.72543" lon="6.0053">
        <ele>647</ele>
        <time>2021-09-10T10:03:35.401Z</time>
      </trkpt>
      <trkpt lat="45.72545" lon="6.00531">
        <ele>647</ele>
        <time>2021-09-10T10:03:36.401Z</time>
      </trkpt>
      <trkpt lat="45.72547" lon="6.00533">
        <ele>647</ele>
        <time>2021-09-10T10:03:37.401Z</time>
      </trkpt>
      <trkpt lat="45.72549" lon="6.00534">
        <ele>647</ele>
        <time>2021-09-10T10:03:38.401Z</time>
      </trkpt>
      <trkpt lat="45.72551" lon="6.00536">
        <ele>647</ele>
        <time>2021-09-10T10:03:39.401Z</time>
      </trkpt>
      <trkpt lat="45.72553" lon="6.00537">
        <ele>647</ele>
        <time>2021-09-10T10:03:40.401Z</time>
      </trkpt>
      <trkpt lat="45.72555" lon="6.00538">
        <ele>647</ele>
        <time>2021-09-10T10:03:41.401Z</time>
      </trkpt>
      <trkpt lat="45.72557" lon="6.00539">
        <ele>646</ele>
        <time>2021-09-10T10:03:42.401Z</time>
      </trkpt>
      <trkpt lat="45.72559" lon="6.0054">
        <ele>646</ele>
        <time>2021-09-10T10:03:43.400Z</time>
      </trkpt>
      <trkpt lat="45.72561" lon="6.0054">
        <ele>646</ele>
        <time>2021-09-10T10:03:44.401Z</time>
      </trkpt>
      <trkpt lat="45.72563" lon="6.00541">
        <ele>646</ele>
        <time>2021-09-10T10:03:45.401Z</time>
      </trkpt>
      <trkpt lat="45.72565" lon="6.00542">
        <ele>646</ele>
        <time>2021-09-10T10:03:46.400Z</time>
      </trkpt>
      <trkpt lat="45.72567" lon="6.00542">
        <ele>646</ele>
        <time>2021-09-10T10:03:47.401Z</time>
      </trkpt>
      <trkpt lat="45.72569" lon="6.00543">
        <ele>646</ele>
        <time>2021-09-10T10:03:48.401Z</time>
      </trkpt>
      <trkpt lat="45.72571" lon="6.00543">
        <ele>646</ele>
        <time>2021-09-10T10:03:49.401Z</time>
      </trkpt>
      <trkpt lat="45.72573" lon="6.00544">
        <ele>646</ele>
        <time>2021-09-10T10:03:50.401Z</time>
      </trkpt>
      <trkpt lat="45.72575" lon="6.00545">
        <ele>646</ele>
        <time>2021-09-10T10:03:51.401Z</time>
      </trkpt>
      <trkpt lat="45.72577" lon="6.00546">
        <ele>645</ele>
        <time>2021-09-10T10:03:52.401Z</time>
      </trkpt>
      <trkpt lat="45.72578" lon="6.00546">
        <ele>645</ele>
        <time>2021-09-10T10:03:53.401Z</time>
      </trkpt>
      <trkpt lat="45.7258" lon="6.00547">
        <ele>644</ele>
        <time>2021-09-10T10:03:54.401Z</time>
      </trkpt>
      <trkpt lat="45.72582" lon="6.00548">
        <ele>644</ele>
        <time>2021-09-10T10:03:55.401Z</time>
      </trkpt>
      <trkpt lat="45.72584" lon="6.00548">
        <ele>644</ele>
        <time>2021-09-10T10:03:56.401Z</time>
      </trkpt>
      <trkpt lat="45.72586" lon="6.00549">
        <ele>644</ele>
        <time>2021-09-10T10:03:57.400Z</time>
      </trkpt>
      <trkpt lat="45.72588" lon="6.0055">
        <ele>644</ele>
        <time>2021-09-10T10:03:58.401Z</time>
      </trkpt>
      <trkpt lat="45.7259" lon="6.00551">
        <ele>644</ele>
        <time>2021-09-10T10:03:59.401Z</time>
      </trkpt>
      <trkpt lat="45.72592" lon="6.00552">
        <ele>644</ele>
        <time>2021-09-10T10:04:00.401Z</time>
      </trkpt>
      <trkpt lat="45.72594" lon="6.00552">
        <ele>644</ele>
        <time>2021-09-10T10:04:01.400Z</time>
      </trkpt>
      <trkpt lat="45.72596" lon="6.00553">
        <ele>644</ele>
        <time>2021-09-10T10:04:02.401Z</time>
      </trkpt>
      <trkpt lat="45.72598" lon="6.00553">
        <ele>644</ele>
        <time>2021-09-10T10:04:03.401Z</time>
      </trkpt>
      <trkpt lat="45.726" lon="6.00554">
        <ele>644</ele>
        <time>2021-09-10T10:04:04.401Z</time>
      </trkpt>
      <trkpt lat="45.72602" lon="6.00555">
        <ele>644</ele>
        <time>2021-09-10T10:04:05.401Z</time>
      </trkpt>
      <trkpt lat="45.72604" lon="6.00556">
        <ele>644</ele>
        <time>2021-09-10T10:04:06.401Z</time>
      </trkpt>
      <trkpt lat="45.72606" lon="6.00556">
        <ele>643</ele>
        <time>2021-09-10T10:04:07.400Z</time>
      </trkpt>
      <trkpt lat="45.72609" lon="6.00558">
        <ele>643</ele>
        <time>2021-09-10T10:04:08.401Z</time>
      </trkpt>
      <trkpt lat="45.72612" lon="6.00559">
        <ele>642</ele>
        <time>2021-09-10T10:04:09.401Z</time>
      </trkpt>
      <trkpt lat="45.72614" lon="6.0056">
        <ele>642</ele>
        <time>2021-09-10T10:04:10.401Z</time>
      </trkpt>
      <trkpt lat="45.72616" lon="6.0056">
        <ele>642</ele>
        <time>2021-09-10T10:04:11.401Z</time>
      </trkpt>
      <trkpt lat="45.72618" lon="6.00561">
        <ele>642</ele>
        <time>2021-09-10T10:04:12.400Z</time>
      </trkpt>
      <trkpt lat="45.7262" lon="6.00562">
        <ele>642</ele>
        <time>2021-09-10T10:04:13.400Z</time>
      </trkpt>
      <trkpt lat="45.72622" lon="6.00563">
        <ele>643</ele>
        <time>2021-09-10T10:04:14.400Z</time>
      </trkpt>
      <trkpt lat="45.72624" lon="6.00564">
        <ele>643</ele>
        <time>2021-09-10T10:04:15.401Z</time>
      </trkpt>
      <trkpt lat="45.72627" lon="6.00564">
        <ele>643</ele>
        <time>2021-09-10T10:04:16.401Z</time>
      </trkpt>
      <trkpt lat="45.72628" lon="6.00565">
        <ele>644</ele>
        <time>2021-09-10T10:04:17.400Z</time>
      </trkpt>
      <trkpt lat="45.72631" lon="6.00567">
        <ele>644</ele>
        <time>2021-09-10T10:04:18.400Z</time>
      </trkpt>
      <trkpt lat="45.72633" lon="6.00567">
        <ele>644</ele>
        <time>2021-09-10T10:04:19.401Z</time>
      </trkpt>
      <trkpt lat="45.72636" lon="6.00568">
        <ele>645</ele>
        <time>2021-09-10T10:04:20.401Z</time>
      </trkpt>
      <trkpt lat="45.72638" lon="6.00569">
        <ele>645</ele>
        <time>2021-09-10T10:04:21.401Z</time>
      </trkpt>
      <trkpt lat="45.72641" lon="6.0057">
        <ele>645</ele>
        <time>2021-09-10T10:04:22.400Z</time>
      </trkpt>
      <trkpt lat="45.72643" lon="6.00571">
        <ele>645</ele>
        <time>2021-09-10T10:04:23.401Z</time>
      </trkpt>
      <trkpt lat="45.72646" lon="6.00571">
        <ele>645</ele>
        <time>2021-09-10T10:04:24.400Z</time>
      </trkpt>
      <trkpt lat="45.72649" lon="6.00572">
        <ele>646</ele>
        <time>2021-09-10T10:04:25.401Z</time>
      </trkpt>
      <trkpt lat="45.72652" lon="6.00573">
        <ele>646</ele>
        <time>2021-09-10T10:04:26.401Z</time>
      </trkpt>
      <trkpt lat="45.72655" lon="6.00573">
        <ele>646</ele>
        <time>2021-09-10T10:04:27.401Z</time>
      </trkpt>
      <trkpt lat="45.72658" lon="6.00574">
        <ele>646</ele>
        <time>2021-09-10T10:04:28.401Z</time>
      </trkpt>
      <trkpt lat="45.72662" lon="6.00575">
        <ele>646</ele>
        <time>2021-09-10T10:04:29.401Z</time>
      </trkpt>
      <trkpt lat="45.72664" lon="6.00576">
        <ele>646</ele>
        <time>2021-09-10T10:04:30.401Z</time>
      </trkpt>
      <trkpt lat="45.72667" lon="6.00577">
        <ele>646</ele>
        <time>2021-09-10T10:04:31.401Z</time>
      </trkpt>
      <trkpt lat="45.7267" lon="6.00578">
        <ele>646</ele>
        <time>2021-09-10T10:04:32.400Z</time>
      </trkpt>
      <trkpt lat="45.72674" lon="6.00579">
        <ele>646</ele>
        <time>2021-09-10T10:04:33.401Z</time>
      </trkpt>
      <trkpt lat="45.72677" lon="6.0058">
        <ele>646</ele>
        <time>2021-09-10T10:04:34.401Z</time>
      </trkpt>
      <trkpt lat="45.72681" lon="6.00582">
        <ele>646</ele>
        <time>2021-09-10T10:04:35.401Z</time>
      </trkpt>
      <trkpt lat="45.72684" lon="6.00583">
        <ele>646</ele>
        <time>2021-09-10T10:04:36.400Z</time>
      </trkpt>
      <trkpt lat="45.72688" lon="6.00584">
        <ele>646</ele>
        <time>2021-09-10T10:04:37.401Z</time>
      </trkpt>
      <trkpt lat="45.72692" lon="6.00585">
        <ele>646</ele>
        <time>2021-09-10T10:04:38.401Z</time>
      </trkpt>
      <trkpt lat="45.72695" lon="6.00587">
        <ele>646</ele>
        <time>2021-09-10T10:04:39.401Z</time>
      </trkpt>
      <trkpt lat="45.72699" lon="6.00587">
        <ele>647</ele>
        <time>2021-09-10T10:04:40.401Z</time>
      </trkpt>
      <trkpt lat="45.72702" lon="6.00589">
        <ele>647</ele>
        <time>2021-09-10T10:04:41.401Z</time>
      </trkpt>
      <trkpt lat="45.72706" lon="6.00591">
        <ele>647</ele>
        <time>2021-09-10T10:04:42.401Z</time>
      </trkpt>
      <trkpt lat="45.7271" lon="6.00592">
        <ele>646</ele>
        <time>2021-09-10T10:04:43.401Z</time>
      </trkpt>
      <trkpt lat="45.72713" lon="6.00593">
        <ele>646</ele>
        <time>2021-09-10T10:04:44.401Z</time>
      </trkpt>
      <trkpt lat="45.72717" lon="6.00595">
        <ele>646</ele>
        <time>2021-09-10T10:04:45.400Z</time>
      </trkpt>
      <trkpt lat="45.72721" lon="6.00596">
        <ele>646</ele>
        <time>2021-09-10T10:04:46.400Z</time>
      </trkpt>
      <trkpt lat="45.72725" lon="6.00597">
        <ele>645</ele>
        <time>2021-09-10T10:04:47.401Z</time>
      </trkpt>
      <trkpt lat="45.72728" lon="6.00598">
        <ele>645</ele>
        <time>2021-09-10T10:04:48.400Z</time>
      </trkpt>
      <trkpt lat="45.72732" lon="6.00599">
        <ele>645</ele>
        <time>2021-09-10T10:04:49.400Z</time>
      </trkpt>
      <trkpt lat="45.72736" lon="6.00601">
        <ele>645</ele>
        <time>2021-09-10T10:04:50.401Z</time>
      </trkpt>
      <trkpt lat="45.7274" lon="6.00602">
        <ele>646</ele>
        <time>2021-09-10T10:04:51.400Z</time>
      </trkpt>
      <trkpt lat="45.72744" lon="6.00604">
        <ele>645</ele>
        <time>2021-09-10T10:04:52.401Z</time>
      </trkpt>
      <trkpt lat="45.72748" lon="6.00605">
        <ele>645</ele>
        <time>2021-09-10T10:04:53.401Z</time>
      </trkpt>
      <trkpt lat="45.72752" lon="6.00607">
        <ele>645</ele>
        <time>2021-09-10T10:04:54.400Z</time>
      </trkpt>
      <trkpt lat="45.72756" lon="6.00608">
        <ele>644</ele>
        <time>2021-09-10T10:04:55.401Z</time>
      </trkpt>
      <trkpt lat="45.7276" lon="6.00609">
        <ele>644</ele>
        <time>2021-09-10T10:04:56.401Z</time>
      </trkpt>
      <trkpt lat="45.72763" lon="6.0061">
        <ele>644</ele>
        <time>2021-09-10T10:04:57.400Z</time>
      </trkpt>
      <trkpt lat="45.72767" lon="6.00611">
        <ele>643</ele>
        <time>2021-09-10T10:04:58.401Z</time>
      </trkpt>
      <trkpt lat="45.72771" lon="6.00612">
        <ele>643</ele>
        <time>2021-09-10T10:04:59.400Z</time>
      </trkpt>
      <trkpt lat="45.72774" lon="6.00612">
        <ele>642</ele>
        <time>2021-09-10T10:05:00.401Z</time>
      </trkpt>
      <trkpt lat="45.72778" lon="6.00613">
        <ele>642</ele>
        <time>2021-09-10T10:05:01.401Z</time>
      </trkpt>
      <trkpt lat="45.72782" lon="6.00613">
        <ele>641</ele>
        <time>2021-09-10T10:05:02.401Z</time>
      </trkpt>
      <trkpt lat="45.72786" lon="6.00614">
        <ele>641</ele>
        <time>2021-09-10T10:05:03.400Z</time>
      </trkpt>
      <trkpt lat="45.72789" lon="6.00614">
        <ele>641</ele>
        <time>2021-09-10T10:05:04.401Z</time>
      </trkpt>
      <trkpt lat="45.72793" lon="6.00615">
        <ele>641</ele>
        <time>2021-09-10T10:05:05.401Z</time>
      </trkpt>
      <trkpt lat="45.72797" lon="6.00615">
        <ele>641</ele>
        <time>2021-09-10T10:05:06.401Z</time>
      </trkpt>
      <trkpt lat="45.72801" lon="6.00616">
        <ele>641</ele>
        <time>2021-09-10T10:05:07.401Z</time>
      </trkpt>
      <trkpt lat="45.72805" lon="6.00616">
        <ele>641</ele>
        <time>2021-09-10T10:05:08.400Z</time>
      </trkpt>
      <trkpt lat="45.7281" lon="6.00617">
        <ele>640</ele>
        <time>2021-09-10T10:05:09.401Z</time>
      </trkpt>
      <trkpt lat="45.72814" lon="6.00617">
        <ele>640</ele>
        <time>2021-09-10T10:05:10.401Z</time>
      </trkpt>
      <trkpt lat="45.72818" lon="6.00618">
        <ele>640</ele>
        <time>2021-09-10T10:05:11.400Z</time>
      </trkpt>
      <trkpt lat="45.72822" lon="6.00618">
        <ele>640</ele>
        <time>2021-09-10T10:05:12.401Z</time>
      </trkpt>
      <trkpt lat="45.72826" lon="6.00619">
        <ele>640</ele>
        <time>2021-09-10T10:05:13.400Z</time>
      </trkpt>
      <trkpt lat="45.72831" lon="6.0062">
        <ele>639</ele>
        <time>2021-09-10T10:05:14.400Z</time>
      </trkpt>
      <trkpt lat="45.72835" lon="6.0062">
        <ele>639</ele>
        <time>2021-09-10T10:05:15.400Z</time>
      </trkpt>
      <trkpt lat="45.72839" lon="6.00621">
        <ele>639</ele>
        <time>2021-09-10T10:05:16.401Z</time>
      </trkpt>
      <trkpt lat="45.72843" lon="6.00621">
        <ele>639</ele>
        <time>2021-09-10T10:05:17.401Z</time>
      </trkpt>
      <trkpt lat="45.72847" lon="6.00622">
        <ele>639</ele>
        <time>2021-09-10T10:05:18.401Z</time>
      </trkpt>
      <trkpt lat="45.72852" lon="6.00623">
        <ele>640</ele>
        <time>2021-09-10T10:05:19.400Z</time>
      </trkpt>
      <trkpt lat="45.72856" lon="6.00623">
        <ele>640</ele>
        <time>2021-09-10T10:05:20.401Z</time>
      </trkpt>
      <trkpt lat="45.72859" lon="6.00622">
        <ele>640</ele>
        <time>2021-09-10T10:05:21.401Z</time>
      </trkpt>
      <trkpt lat="45.72863" lon="6.00622">
        <ele>640</ele>
        <time>2021-09-10T10:05:22.401Z</time>
      </trkpt>
      <trkpt lat="45.72868" lon="6.00623">
        <ele>640</ele>
        <time>2021-09-10T10:05:23.400Z</time>
      </trkpt>
      <trkpt lat="45.72871" lon="6.00624">
        <ele>640</ele>
        <time>2021-09-10T10:05:24.401Z</time>
      </trkpt>
      <trkpt lat="45.72875" lon="6.00625">
        <ele>641</ele>
        <time>2021-09-10T10:05:25.401Z</time>
      </trkpt>
      <trkpt lat="45.72878" lon="6.00625">
        <ele>640</ele>
        <time>2021-09-10T10:05:26.400Z</time>
      </trkpt>
      <trkpt lat="45.72882" lon="6.00626">
        <ele>640</ele>
        <time>2021-09-10T10:05:27.400Z</time>
      </trkpt>
      <trkpt lat="45.72885" lon="6.00626">
        <ele>640</ele>
        <time>2021-09-10T10:05:28.401Z</time>
      </trkpt>
      <trkpt lat="45.72889" lon="6.00627">
        <ele>640</ele>
        <time>2021-09-10T10:05:29.401Z</time>
      </trkpt>
      <trkpt lat="45.72893" lon="6.00627">
        <ele>640</ele>
        <time>2021-09-10T10:05:30.401Z</time>
      </trkpt>
      <trkpt lat="45.72897" lon="6.00628">
        <ele>640</ele>
        <time>2021-09-10T10:05:31.401Z</time>
      </trkpt>
      <trkpt lat="45.729" lon="6.00628">
        <ele>640</ele>
        <time>2021-09-10T10:05:32.400Z</time>
      </trkpt>
      <trkpt lat="45.72904" lon="6.00628">
        <ele>640</ele>
        <time>2021-09-10T10:05:33.401Z</time>
      </trkpt>
      <trkpt lat="45.72908" lon="6.00629">
        <ele>641</ele>
        <time>2021-09-10T10:05:34.400Z</time>
      </trkpt>
      <trkpt lat="45.72912" lon="6.00629">
        <ele>641</ele>
        <time>2021-09-10T10:05:35.401Z</time>
      </trkpt>
      <trkpt lat="45.72916" lon="6.0063">
        <ele>641</ele>
        <time>2021-09-10T10:05:36.401Z</time>
      </trkpt>
      <trkpt lat="45.7292" lon="6.0063">
        <ele>641</ele>
        <time>2021-09-10T10:05:37.401Z</time>
      </trkpt>
      <trkpt lat="45.72924" lon="6.00631">
        <ele>641</ele>
        <time>2021-09-10T10:05:38.401Z</time>
      </trkpt>
      <trkpt lat="45.72928" lon="6.00632">
        <ele>641</ele>
        <time>2021-09-10T10:05:39.401Z</time>
      </trkpt>
      <trkpt lat="45.72932" lon="6.00633">
        <ele>641</ele>
        <time>2021-09-10T10:05:40.400Z</time>
      </trkpt>
      <trkpt lat="45.72936" lon="6.00633">
        <ele>642</ele>
        <time>2021-09-10T10:05:41.401Z</time>
      </trkpt>
      <trkpt lat="45.72939" lon="6.00633">
        <ele>642</ele>
        <time>2021-09-10T10:05:42.401Z</time>
      </trkpt>
      <trkpt lat="45.72944" lon="6.00634">
        <ele>642</ele>
        <time>2021-09-10T10:05:43.401Z</time>
      </trkpt>
      <trkpt lat="45.72948" lon="6.00634">
        <ele>643</ele>
        <time>2021-09-10T10:05:44.401Z</time>
      </trkpt>
      <trkpt lat="45.72953" lon="6.00634">
        <ele>643</ele>
        <time>2021-09-10T10:05:45.400Z</time>
      </trkpt>
      <trkpt lat="45.72958" lon="6.00634">
        <ele>643</ele>
        <time>2021-09-10T10:05:46.401Z</time>
      </trkpt>
      <trkpt lat="45.72962" lon="6.00633">
        <ele>643</ele>
        <time>2021-09-10T10:05:47.401Z</time>
      </trkpt>
      <trkpt lat="45.72969" lon="6.00632">
        <ele>643</ele>
        <time>2021-09-10T10:05:48.401Z</time>
      </trkpt>
      <trkpt lat="45.72975" lon="6.0063">
        <ele>643</ele>
        <time>2021-09-10T10:05:49.401Z</time>
      </trkpt>
      <trkpt lat="45.72981" lon="6.00627">
        <ele>643</ele>
        <time>2021-09-10T10:05:50.401Z</time>
      </trkpt>
      <trkpt lat="45.72987" lon="6.00624">
        <ele>642</ele>
        <time>2021-09-10T10:05:51.401Z</time>
      </trkpt>
      <trkpt lat="45.72993" lon="6.00621">
        <ele>642</ele>
        <time>2021-09-10T10:05:52.401Z</time>
      </trkpt>
      <trkpt lat="45.72999" lon="6.00618">
        <ele>641</ele>
        <time>2021-09-10T10:05:53.401Z</time>
      </trkpt>
      <trkpt lat="45.73005" lon="6.00614">
        <ele>641</ele>
        <time>2021-09-10T10:05:54.401Z</time>
      </trkpt>
      <trkpt lat="45.73011" lon="6.00609">
        <ele>641</ele>
        <time>2021-09-10T10:05:55.401Z</time>
      </trkpt>
      <trkpt lat="45.73015" lon="6.00605">
        <ele>641</ele>
        <time>2021-09-10T10:05:56.400Z</time>
      </trkpt>
      <trkpt lat="45.73021" lon="6.00601">
        <ele>640</ele>
        <time>2021-09-10T10:05:57.401Z</time>
      </trkpt>
      <trkpt lat="45.73027" lon="6.00596">
        <ele>640</ele>
        <time>2021-09-10T10:05:58.401Z</time>
      </trkpt>
      <trkpt lat="45.73031" lon="6.0059">
        <ele>639</ele>
        <time>2021-09-10T10:06:15.519Z</time>
      </trkpt>
      <trkpt lat="45.73035" lon="6.00585">
        <ele>638</ele>
        <time>2021-09-10T10:06:16.520Z</time>
      </trkpt>
      <trkpt lat="45.7304" lon="6.00578">
        <ele>638</ele>
        <time>2021-09-10T10:06:17.520Z</time>
      </trkpt>
      <trkpt lat="45.73043" lon="6.00573">
        <ele>637</ele>
        <time>2021-09-10T10:06:18.520Z</time>
      </trkpt>
      <trkpt lat="45.73047" lon="6.00568">
        <ele>637</ele>
        <time>2021-09-10T10:06:19.519Z</time>
      </trkpt>
      <trkpt lat="45.73051" lon="6.00564">
        <ele>636</ele>
        <time>2021-09-10T10:06:20.520Z</time>
      </trkpt>
      <trkpt lat="45.73056" lon="6.0056">
        <ele>635</ele>
        <time>2021-09-10T10:06:21.520Z</time>
      </trkpt>
      <trkpt lat="45.73059" lon="6.00557">
        <ele>635</ele>
        <time>2021-09-10T10:06:22.519Z</time>
      </trkpt>
      <trkpt lat="45.73065" lon="6.0055">
        <ele>634</ele>
        <time>2021-09-10T10:06:23.519Z</time>
      </trkpt>
      <trkpt lat="45.73068" lon="6.00542">
        <ele>634</ele>
        <time>2021-09-10T10:06:24.519Z</time>
      </trkpt>
      <trkpt lat="45.73072" lon="6.00537">
        <ele>634</ele>
        <time>2021-09-10T10:06:25.520Z</time>
      </trkpt>
      <trkpt lat="45.73076" lon="6.0053">
        <ele>633</ele>
        <time>2021-09-10T10:06:26.519Z</time>
      </trkpt>
      <trkpt lat="45.7308" lon="6.00524">
        <ele>633</ele>
        <time>2021-09-10T10:06:27.520Z</time>
      </trkpt>
      <trkpt lat="45.73086" lon="6.00517">
        <ele>633</ele>
        <time>2021-09-10T10:06:28.520Z</time>
      </trkpt>
      <trkpt lat="45.7309" lon="6.00512">
        <ele>633</ele>
        <time>2021-09-10T10:06:29.520Z</time>
      </trkpt>
      <trkpt lat="45.73093" lon="6.00506">
        <ele>633</ele>
        <time>2021-09-10T10:06:30.520Z</time>
      </trkpt>
      <trkpt lat="45.73097" lon="6.00503">
        <ele>633</ele>
        <time>2021-09-10T10:06:31.520Z</time>
      </trkpt>
      <trkpt lat="45.731" lon="6.00498">
        <ele>633</ele>
        <time>2021-09-10T10:06:32.519Z</time>
      </trkpt>
      <trkpt lat="45.73105" lon="6.00494">
        <ele>633</ele>
        <time>2021-09-10T10:06:33.519Z</time>
      </trkpt>
      <trkpt lat="45.73108" lon="6.00489">
        <ele>633</ele>
        <time>2021-09-10T10:06:34.519Z</time>
      </trkpt>
      <trkpt lat="45.73112" lon="6.00485">
        <ele>633</ele>
        <time>2021-09-10T10:06:35.520Z</time>
      </trkpt>
      <trkpt lat="45.73116" lon="6.00482">
        <ele>633</ele>
        <time>2021-09-10T10:06:36.519Z</time>
      </trkpt>
      <trkpt lat="45.7312" lon="6.00478">
        <ele>633</ele>
        <time>2021-09-10T10:06:37.520Z</time>
      </trkpt>
      <trkpt lat="45.73124" lon="6.00474">
        <ele>633</ele>
        <time>2021-09-10T10:06:38.520Z</time>
      </trkpt>
      <trkpt lat="45.73128" lon="6.00471">
        <ele>633</ele>
        <time>2021-09-10T10:06:39.520Z</time>
      </trkpt>
      <trkpt lat="45.73133" lon="6.00468">
        <ele>632</ele>
        <time>2021-09-10T10:06:40.520Z</time>
      </trkpt>
      <trkpt lat="45.73138" lon="6.00465">
        <ele>632</ele>
        <time>2021-09-10T10:06:41.519Z</time>
      </trkpt>
      <trkpt lat="45.73144" lon="6.00462">
        <ele>631</ele>
        <time>2021-09-10T10:06:42.520Z</time>
      </trkpt>
      <trkpt lat="45.7315" lon="6.00459">
        <ele>631</ele>
        <time>2021-09-10T10:06:43.519Z</time>
      </trkpt>
      <trkpt lat="45.73156" lon="6.00457">
        <ele>630</ele>
        <time>2021-09-10T10:06:44.519Z</time>
      </trkpt>
      <trkpt lat="45.73162" lon="6.00454">
        <ele>630</ele>
        <time>2021-09-10T10:06:45.520Z</time>
      </trkpt>
      <trkpt lat="45.73169" lon="6.00452">
        <ele>630</ele>
        <time>2021-09-10T10:06:46.520Z</time>
      </trkpt>
      <trkpt lat="45.73176" lon="6.00451">
        <ele>629</ele>
        <time>2021-09-10T10:06:47.520Z</time>
      </trkpt>
      <trkpt lat="45.73183" lon="6.00451">
        <ele>629</ele>
        <time>2021-09-10T10:06:48.520Z</time>
      </trkpt>
      <trkpt lat="45.7319" lon="6.00451">
        <ele>629</ele>
        <time>2021-09-10T10:06:49.519Z</time>
      </trkpt>
      <trkpt lat="45.73197" lon="6.0045">
        <ele>629</ele>
        <time>2021-09-10T10:06:50.519Z</time>
      </trkpt>
      <trkpt lat="45.73204" lon="6.0045">
        <ele>628</ele>
        <time>2021-09-10T10:06:51.520Z</time>
      </trkpt>
      <trkpt lat="45.73212" lon="6.0045">
        <ele>628</ele>
        <time>2021-09-10T10:06:52.520Z</time>
      </trkpt>
      <trkpt lat="45.73219" lon="6.0045">
        <ele>628</ele>
        <time>2021-09-10T10:06:53.520Z</time>
      </trkpt>
      <trkpt lat="45.73225" lon="6.00449">
        <ele>627</ele>
        <time>2021-09-10T10:06:54.520Z</time>
      </trkpt>
      <trkpt lat="45.73234" lon="6.00448">
        <ele>627</ele>
        <time>2021-09-10T10:06:55.519Z</time>
      </trkpt>
      <trkpt lat="45.73241" lon="6.00446">
        <ele>626</ele>
        <time>2021-09-10T10:06:56.520Z</time>
      </trkpt>
      <trkpt lat="45.73249" lon="6.00443">
        <ele>626</ele>
        <time>2021-09-10T10:06:57.519Z</time>
      </trkpt>
      <trkpt lat="45.73256" lon="6.00439">
        <ele>626</ele>
        <time>2021-09-10T10:06:58.519Z</time>
      </trkpt>
      <trkpt lat="45.73263" lon="6.00435">
        <ele>625</ele>
        <time>2021-09-10T10:06:59.520Z</time>
      </trkpt>
      <trkpt lat="45.73269" lon="6.0043">
        <ele>624</ele>
        <time>2021-09-10T10:07:00.520Z</time>
      </trkpt>
      <trkpt lat="45.73277" lon="6.00424">
        <ele>624</ele>
        <time>2021-09-10T10:07:01.519Z</time>
      </trkpt>
      <trkpt lat="45.73285" lon="6.00418">
        <ele>623</ele>
        <time>2021-09-10T10:07:02.520Z</time>
      </trkpt>
      <trkpt lat="45.73292" lon="6.00413">
        <ele>622</ele>
        <time>2021-09-10T10:07:03.519Z</time>
      </trkpt>
      <trkpt lat="45.733" lon="6.00407">
        <ele>622</ele>
        <time>2021-09-10T10:07:04.520Z</time>
      </trkpt>
      <trkpt lat="45.73307" lon="6.00402">
        <ele>621</ele>
        <time>2021-09-10T10:07:05.520Z</time>
      </trkpt>
      <trkpt lat="45.73315" lon="6.00397">
        <ele>620</ele>
        <time>2021-09-10T10:07:06.520Z</time>
      </trkpt>
      <trkpt lat="45.73322" lon="6.00393">
        <ele>620</ele>
        <time>2021-09-10T10:07:07.520Z</time>
      </trkpt>
      <trkpt lat="45.73329" lon="6.0039">
        <ele>620</ele>
        <time>2021-09-10T10:07:08.520Z</time>
      </trkpt>
      <trkpt lat="45.73336" lon="6.00387">
        <ele>619</ele>
        <time>2021-09-10T10:07:09.519Z</time>
      </trkpt>
      <trkpt lat="45.73343" lon="6.00385">
        <ele>618</ele>
        <time>2021-09-10T10:07:10.519Z</time>
      </trkpt>
      <trkpt lat="45.73351" lon="6.00384">
        <ele>617</ele>
        <time>2021-09-10T10:07:11.520Z</time>
      </trkpt>
      <trkpt lat="45.73358" lon="6.00383">
        <ele>617</ele>
        <time>2021-09-10T10:07:12.519Z</time>
      </trkpt>
      <trkpt lat="45.73363" lon="6.00383">
        <ele>616</ele>
        <time>2021-09-10T10:07:13.519Z</time>
      </trkpt>
      <trkpt lat="45.73372" lon="6.00384">
        <ele>616</ele>
        <time>2021-09-10T10:07:14.520Z</time>
      </trkpt>
      <trkpt lat="45.7338" lon="6.00383">
        <ele>616</ele>
        <time>2021-09-10T10:07:15.519Z</time>
      </trkpt>
      <trkpt lat="45.73386" lon="6.00381">
        <ele>616</ele>
        <time>2021-09-10T10:07:16.519Z</time>
      </trkpt>
      <trkpt lat="45.73392" lon="6.00379">
        <ele>616</ele>
        <time>2021-09-10T10:07:17.519Z</time>
      </trkpt>
      <trkpt lat="45.73399" lon="6.00373">
        <ele>615</ele>
        <time>2021-09-10T10:07:18.520Z</time>
      </trkpt>
      <trkpt lat="45.73403" lon="6.00367">
        <ele>615</ele>
        <time>2021-09-10T10:07:19.519Z</time>
      </trkpt>
      <trkpt lat="45.73408" lon="6.00361">
        <ele>614</ele>
        <time>2021-09-10T10:07:20.519Z</time>
      </trkpt>
      <trkpt lat="45.73411" lon="6.00353">
        <ele>614</ele>
        <time>2021-09-10T10:07:21.519Z</time>
      </trkpt>
      <trkpt lat="45.73415" lon="6.00346">
        <ele>613</ele>
        <time>2021-09-10T10:07:22.520Z</time>
      </trkpt>
      <trkpt lat="45.7342" lon="6.0034">
        <ele>612</ele>
        <time>2021-09-10T10:07:23.520Z</time>
      </trkpt>
      <trkpt lat="45.73425" lon="6.00334">
        <ele>611</ele>
        <time>2021-09-10T10:07:24.519Z</time>
      </trkpt>
      <trkpt lat="45.7343" lon="6.00328">
        <ele>610</ele>
        <time>2021-09-10T10:07:25.519Z</time>
      </trkpt>
      <trkpt lat="45.73435" lon="6.00324">
        <ele>610</ele>
        <time>2021-09-10T10:07:26.520Z</time>
      </trkpt>
      <trkpt lat="45.73441" lon="6.0032">
        <ele>609</ele>
        <time>2021-09-10T10:07:27.520Z</time>
      </trkpt>
      <trkpt lat="45.73447" lon="6.00316">
        <ele>609</ele>
        <time>2021-09-10T10:07:28.519Z</time>
      </trkpt>
      <trkpt lat="45.73452" lon="6.00311">
        <ele>608</ele>
        <time>2021-09-10T10:07:29.520Z</time>
      </trkpt>
      <trkpt lat="45.73457" lon="6.00306">
        <ele>608</ele>
        <time>2021-09-10T10:07:30.519Z</time>
      </trkpt>
      <trkpt lat="45.73462" lon="6.00302">
        <ele>607</ele>
        <time>2021-09-10T10:07:31.520Z</time>
      </trkpt>
      <trkpt lat="45.73467" lon="6.00297">
        <ele>606</ele>
        <time>2021-09-10T10:07:32.519Z</time>
      </trkpt>
      <trkpt lat="45.73471" lon="6.00292">
        <ele>606</ele>
        <time>2021-09-10T10:07:33.520Z</time>
      </trkpt>
      <trkpt lat="45.73476" lon="6.00287">
        <ele>605</ele>
        <time>2021-09-10T10:07:34.520Z</time>
      </trkpt>
      <trkpt lat="45.73481" lon="6.00283">
        <ele>605</ele>
        <time>2021-09-10T10:07:35.520Z</time>
      </trkpt>
      <trkpt lat="45.73485" lon="6.0028">
        <ele>604</ele>
        <time>2021-09-10T10:07:36.519Z</time>
      </trkpt>
      <trkpt lat="45.73491" lon="6.00278">
        <ele>604</ele>
        <time>2021-09-10T10:07:37.519Z</time>
      </trkpt>
      <trkpt lat="45.73497" lon="6.00278">
        <ele>604</ele>
        <time>2021-09-10T10:07:38.519Z</time>
      </trkpt>
      <trkpt lat="45.73504" lon="6.00279">
        <ele>604</ele>
        <time>2021-09-10T10:07:39.519Z</time>
      </trkpt>
      <trkpt lat="45.7351" lon="6.00281">
        <ele>604</ele>
        <time>2021-09-10T10:07:40.519Z</time>
      </trkpt>
      <trkpt lat="45.73517" lon="6.00282">
        <ele>603</ele>
        <time>2021-09-10T10:07:41.519Z</time>
      </trkpt>
      <trkpt lat="45.73523" lon="6.00285">
        <ele>603</ele>
        <time>2021-09-10T10:07:42.519Z</time>
      </trkpt>
      <trkpt lat="45.73529" lon="6.00288">
        <ele>603</ele>
        <time>2021-09-10T10:07:43.519Z</time>
      </trkpt>
      <trkpt lat="45.73535" lon="6.00291">
        <ele>602</ele>
        <time>2021-09-10T10:07:44.519Z</time>
      </trkpt>
      <trkpt lat="45.73541" lon="6.00294">
        <ele>602</ele>
        <time>2021-09-10T10:07:45.520Z</time>
      </trkpt>
      <trkpt lat="45.73546" lon="6.00297">
        <ele>602</ele>
        <time>2021-09-10T10:07:46.519Z</time>
      </trkpt>
      <trkpt lat="45.73551" lon="6.00299">
        <ele>602</ele>
        <time>2021-09-10T10:07:47.519Z</time>
      </trkpt>
      <trkpt lat="45.73556" lon="6.00302">
        <ele>601</ele>
        <time>2021-09-10T10:07:48.520Z</time>
      </trkpt>
      <trkpt lat="45.7356" lon="6.00305">
        <ele>601</ele>
        <time>2021-09-10T10:07:49.519Z</time>
      </trkpt>
      <trkpt lat="45.73565" lon="6.00307">
        <ele>601</ele>
        <time>2021-09-10T10:07:50.519Z</time>
      </trkpt>
      <trkpt lat="45.73569" lon="6.0031">
        <ele>601</ele>
        <time>2021-09-10T10:07:51.520Z</time>
      </trkpt>
      <trkpt lat="45.73573" lon="6.00312">
        <ele>600</ele>
        <time>2021-09-10T10:07:52.520Z</time>
      </trkpt>
      <trkpt lat="45.73576" lon="6.00314">
        <ele>600</ele>
        <time>2021-09-10T10:07:53.519Z</time>
      </trkpt>
      <trkpt lat="45.7358" lon="6.00317">
        <ele>600</ele>
        <time>2021-09-10T10:07:54.520Z</time>
      </trkpt>
      <trkpt lat="45.73584" lon="6.00319">
        <ele>600</ele>
        <time>2021-09-10T10:07:55.520Z</time>
      </trkpt>
      <trkpt lat="45.73588" lon="6.00321">
        <ele>599</ele>
        <time>2021-09-10T10:07:56.520Z</time>
      </trkpt>
      <trkpt lat="45.73592" lon="6.00324">
        <ele>599</ele>
        <time>2021-09-10T10:07:57.519Z</time>
      </trkpt>
      <trkpt lat="45.73597" lon="6.00326">
        <ele>599</ele>
        <time>2021-09-10T10:07:58.520Z</time>
      </trkpt>
      <trkpt lat="45.736" lon="6.00328">
        <ele>599</ele>
        <time>2021-09-10T10:07:59.520Z</time>
      </trkpt>
      <trkpt lat="45.73605" lon="6.0033">
        <ele>599</ele>
        <time>2021-09-10T10:08:00.520Z</time>
      </trkpt>
      <trkpt lat="45.7361" lon="6.00333">
        <ele>598</ele>
        <time>2021-09-10T10:08:01.519Z</time>
      </trkpt>
      <trkpt lat="45.73614" lon="6.00335">
        <ele>599</ele>
        <time>2021-09-10T10:08:02.520Z</time>
      </trkpt>
      <trkpt lat="45.73618" lon="6.00338">
        <ele>599</ele>
        <time>2021-09-10T10:08:03.520Z</time>
      </trkpt>
      <trkpt lat="45.73622" lon="6.0034">
        <ele>599</ele>
        <time>2021-09-10T10:08:04.519Z</time>
      </trkpt>
      <trkpt lat="45.73627" lon="6.00343">
        <ele>599</ele>
        <time>2021-09-10T10:08:05.519Z</time>
      </trkpt>
      <trkpt lat="45.73632" lon="6.00346">
        <ele>600</ele>
        <time>2021-09-10T10:08:06.519Z</time>
      </trkpt>
      <trkpt lat="45.73636" lon="6.00349">
        <ele>600</ele>
        <time>2021-09-10T10:08:07.519Z</time>
      </trkpt>
      <trkpt lat="45.7364" lon="6.00353">
        <ele>600</ele>
        <time>2021-09-10T10:08:08.519Z</time>
      </trkpt>
      <trkpt lat="45.73645" lon="6.00357">
        <ele>600</ele>
        <time>2021-09-10T10:08:09.519Z</time>
      </trkpt>
      <trkpt lat="45.73649" lon="6.00361">
        <ele>600</ele>
        <time>2021-09-10T10:08:10.520Z</time>
      </trkpt>
      <trkpt lat="45.73654" lon="6.00366">
        <ele>600</ele>
        <time>2021-09-10T10:08:11.519Z</time>
      </trkpt>
      <trkpt lat="45.73658" lon="6.00372">
        <ele>600</ele>
        <time>2021-09-10T10:08:12.520Z</time>
      </trkpt>
      <trkpt lat="45.73663" lon="6.00378">
        <ele>600</ele>
        <time>2021-09-10T10:08:13.520Z</time>
      </trkpt>
      <trkpt lat="45.73666" lon="6.00383">
        <ele>600</ele>
        <time>2021-09-10T10:08:14.520Z</time>
      </trkpt>
      <trkpt lat="45.7367" lon="6.00389">
        <ele>600</ele>
        <time>2021-09-10T10:08:15.520Z</time>
      </trkpt>
      <trkpt lat="45.73674" lon="6.00394">
        <ele>600</ele>
        <time>2021-09-10T10:08:16.519Z</time>
      </trkpt>
      <trkpt lat="45.73677" lon="6.00398">
        <ele>599</ele>
        <time>2021-09-10T10:08:17.520Z</time>
      </trkpt>
      <trkpt lat="45.7368" lon="6.00404">
        <ele>599</ele>
        <time>2021-09-10T10:08:18.519Z</time>
      </trkpt>
      <trkpt lat="45.73684" lon="6.0041">
        <ele>599</ele>
        <time>2021-09-10T10:08:19.519Z</time>
      </trkpt>
      <trkpt lat="45.73687" lon="6.00416">
        <ele>599</ele>
        <time>2021-09-10T10:08:20.519Z</time>
      </trkpt>
      <trkpt lat="45.73691" lon="6.00421">
        <ele>599</ele>
        <time>2021-09-10T10:08:21.519Z</time>
      </trkpt>
      <trkpt lat="45.73694" lon="6.00426">
        <ele>599</ele>
        <time>2021-09-10T10:08:22.519Z</time>
      </trkpt>
      <trkpt lat="45.73696" lon="6.0043">
        <ele>599</ele>
        <time>2021-09-10T10:08:23.520Z</time>
      </trkpt>
      <trkpt lat="45.73699" lon="6.00436">
        <ele>599</ele>
        <time>2021-09-10T10:08:24.519Z</time>
      </trkpt>
      <trkpt lat="45.73702" lon="6.00441">
        <ele>599</ele>
        <time>2021-09-10T10:08:25.520Z</time>
      </trkpt>
      <trkpt lat="45.73705" lon="6.00446">
        <ele>599</ele>
        <time>2021-09-10T10:08:26.520Z</time>
      </trkpt>
      <trkpt lat="45.73708" lon="6.00451">
        <ele>599</ele>
        <time>2021-09-10T10:08:27.520Z</time>
      </trkpt>
      <trkpt lat="45.7371" lon="6.00456">
        <ele>598</ele>
        <time>2021-09-10T10:08:28.520Z</time>
      </trkpt>
      <trkpt lat="45.73714" lon="6.00461">
        <ele>598</ele>
        <time>2021-09-10T10:08:29.520Z</time>
      </trkpt>
      <trkpt lat="45.73717" lon="6.00465">
        <ele>598</ele>
        <time>2021-09-10T10:08:30.520Z</time>
      </trkpt>
      <trkpt lat="45.7372" lon="6.00471">
        <ele>598</ele>
        <time>2021-09-10T10:08:31.520Z</time>
      </trkpt>
      <trkpt lat="45.73723" lon="6.00476">
        <ele>598</ele>
        <time>2021-09-10T10:08:32.520Z</time>
      </trkpt>
      <trkpt lat="45.73725" lon="6.00481">
        <ele>598</ele>
        <time>2021-09-10T10:08:33.519Z</time>
      </trkpt>
      <trkpt lat="45.73728" lon="6.00486">
        <ele>599</ele>
        <time>2021-09-10T10:08:34.519Z</time>
      </trkpt>
      <trkpt lat="45.7373" lon="6.0049">
        <ele>599</ele>
        <time>2021-09-10T10:08:35.519Z</time>
      </trkpt>
      <trkpt lat="45.73734" lon="6.00496">
        <ele>599</ele>
        <time>2021-09-10T10:08:36.520Z</time>
      </trkpt>
      <trkpt lat="45.73736" lon="6.005">
        <ele>599</ele>
        <time>2021-09-10T10:08:37.519Z</time>
      </trkpt>
      <trkpt lat="45.73739" lon="6.00505">
        <ele>599</ele>
        <time>2021-09-10T10:08:38.520Z</time>
      </trkpt>
      <trkpt lat="45.73742" lon="6.0051">
        <ele>600</ele>
        <time>2021-09-10T10:08:39.519Z</time>
      </trkpt>
      <trkpt lat="45.73745" lon="6.00515">
        <ele>600</ele>
        <time>2021-09-10T10:08:40.519Z</time>
      </trkpt>
      <trkpt lat="45.73747" lon="6.00519">
        <ele>600</ele>
        <time>2021-09-10T10:08:41.520Z</time>
      </trkpt>
      <trkpt lat="45.73751" lon="6.00525">
        <ele>601</ele>
        <time>2021-09-10T10:08:42.520Z</time>
      </trkpt>
      <trkpt lat="45.73754" lon="6.0053">
        <ele>601</ele>
        <time>2021-09-10T10:08:43.520Z</time>
      </trkpt>
      <trkpt lat="45.73758" lon="6.00534">
        <ele>601</ele>
        <time>2021-09-10T10:08:44.519Z</time>
      </trkpt>
      <trkpt lat="45.73762" lon="6.00539">
        <ele>601</ele>
        <time>2021-09-10T10:08:45.520Z</time>
      </trkpt>
      <trkpt lat="45.73765" lon="6.00541">
        <ele>601</ele>
        <time>2021-09-10T10:08:46.520Z</time>
      </trkpt>
      <trkpt lat="45.73769" lon="6.00544">
        <ele>601</ele>
        <time>2021-09-10T10:08:47.519Z</time>
      </trkpt>
      <trkpt lat="45.73773" lon="6.00548">
        <ele>600</ele>
        <time>2021-09-10T10:08:48.520Z</time>
      </trkpt>
      <trkpt lat="45.73778" lon="6.0055">
        <ele>600</ele>
        <time>2021-09-10T10:08:49.520Z</time>
      </trkpt>
      <trkpt lat="45.73782" lon="6.00553">
        <ele>599</ele>
        <time>2021-09-10T10:08:50.520Z</time>
      </trkpt>
      <trkpt lat="45.73786" lon="6.00556">
        <ele>599</ele>
        <time>2021-09-10T10:08:51.520Z</time>
      </trkpt>
      <trkpt lat="45.7379" lon="6.00558">
        <ele>598</ele>
        <time>2021-09-10T10:08:52.520Z</time>
      </trkpt>
      <trkpt lat="45.73794" lon="6.00561">
        <ele>598</ele>
        <time>2021-09-10T10:08:53.520Z</time>
      </trkpt>
      <trkpt lat="45.73798" lon="6.00563">
        <ele>598</ele>
        <time>2021-09-10T10:08:54.520Z</time>
      </trkpt>
      <trkpt lat="45.73802" lon="6.00565">
        <ele>598</ele>
        <time>2021-09-10T10:08:55.520Z</time>
      </trkpt>
      <trkpt lat="45.73806" lon="6.00567">
        <ele>598</ele>
        <time>2021-09-10T10:08:56.519Z</time>
      </trkpt>
      <trkpt lat="45.73811" lon="6.00569">
        <ele>598</ele>
        <time>2021-09-10T10:08:57.520Z</time>
      </trkpt>
      <trkpt lat="45.73816" lon="6.00571">
        <ele>598</ele>
        <time>2021-09-10T10:08:58.520Z</time>
      </trkpt>
      <trkpt lat="45.7382" lon="6.00573">
        <ele>598</ele>
        <time>2021-09-10T10:08:59.519Z</time>
      </trkpt>
      <trkpt lat="45.73825" lon="6.00574">
        <ele>598</ele>
        <time>2021-09-10T10:09:00.519Z</time>
      </trkpt>
      <trkpt lat="45.7383" lon="6.00576">
        <ele>598</ele>
        <time>2021-09-10T10:09:01.520Z</time>
      </trkpt>
      <trkpt lat="45.73835" lon="6.00577">
        <ele>599</ele>
        <time>2021-09-10T10:09:02.520Z</time>
      </trkpt>
      <trkpt lat="45.7384" lon="6.00579">
        <ele>599</ele>
        <time>2021-09-10T10:09:03.520Z</time>
      </trkpt>
      <trkpt lat="45.73845" lon="6.00581">
        <ele>599</ele>
        <time>2021-09-10T10:09:04.519Z</time>
      </trkpt>
      <trkpt lat="45.7385" lon="6.00583">
        <ele>599</ele>
        <time>2021-09-10T10:09:05.519Z</time>
      </trkpt>
      <trkpt lat="45.73855" lon="6.00585">
        <ele>599</ele>
        <time>2021-09-10T10:09:06.520Z</time>
      </trkpt>
      <trkpt lat="45.7386" lon="6.00587">
        <ele>598</ele>
        <time>2021-09-10T10:09:07.520Z</time>
      </trkpt>
      <trkpt lat="45.73865" lon="6.00589">
        <ele>598</ele>
        <time>2021-09-10T10:09:08.519Z</time>
      </trkpt>
      <trkpt lat="45.7387" lon="6.00591">
        <ele>598</ele>
        <time>2021-09-10T10:09:09.519Z</time>
      </trkpt>
      <trkpt lat="45.73875" lon="6.00592">
        <ele>598</ele>
        <time>2021-09-10T10:09:10.520Z</time>
      </trkpt>
      <trkpt lat="45.7388" lon="6.00594">
        <ele>597</ele>
        <time>2021-09-10T10:09:11.519Z</time>
      </trkpt>
      <trkpt lat="45.73885" lon="6.00595">
        <ele>597</ele>
        <time>2021-09-10T10:09:12.519Z</time>
      </trkpt>
      <trkpt lat="45.7389" lon="6.00597">
        <ele>597</ele>
        <time>2021-09-10T10:09:13.520Z</time>
      </trkpt>
      <trkpt lat="45.73894" lon="6.00598">
        <ele>596</ele>
        <time>2021-09-10T10:09:14.520Z</time>
      </trkpt>
      <trkpt lat="45.73899" lon="6.006">
        <ele>596</ele>
        <time>2021-09-10T10:09:15.520Z</time>
      </trkpt>
      <trkpt lat="45.73903" lon="6.00602">
        <ele>596</ele>
        <time>2021-09-10T10:09:16.520Z</time>
      </trkpt>
      <trkpt lat="45.73908" lon="6.00603">
        <ele>596</ele>
        <time>2021-09-10T10:09:17.520Z</time>
      </trkpt>
      <trkpt lat="45.73912" lon="6.00605">
        <ele>595</ele>
        <time>2021-09-10T10:09:18.520Z</time>
      </trkpt>
      <trkpt lat="45.73917" lon="6.00607">
        <ele>595</ele>
        <time>2021-09-10T10:09:19.520Z</time>
      </trkpt>
      <trkpt lat="45.73921" lon="6.00609">
        <ele>596</ele>
        <time>2021-09-10T10:09:20.519Z</time>
      </trkpt>
      <trkpt lat="45.73926" lon="6.00611">
        <ele>596</ele>
        <time>2021-09-10T10:09:21.519Z</time>
      </trkpt>
      <trkpt lat="45.7393" lon="6.00613">
        <ele>596</ele>
        <time>2021-09-10T10:09:22.520Z</time>
      </trkpt>
      <trkpt lat="45.73933" lon="6.00614">
        <ele>597</ele>
        <time>2021-09-10T10:09:23.519Z</time>
      </trkpt>
      <trkpt lat="45.73938" lon="6.00617">
        <ele>597</ele>
        <time>2021-09-10T10:09:24.519Z</time>
      </trkpt>
      <trkpt lat="45.73942" lon="6.0062">
        <ele>597</ele>
        <time>2021-09-10T10:09:25.519Z</time>
      </trkpt>
      <trkpt lat="45.73946" lon="6.00621">
        <ele>597</ele>
        <time>2021-09-10T10:09:26.519Z</time>
      </trkpt>
      <trkpt lat="45.7395" lon="6.00624">
        <ele>597</ele>
        <time>2021-09-10T10:09:27.519Z</time>
      </trkpt>
      <trkpt lat="45.73953" lon="6.00627">
        <ele>597</ele>
        <time>2021-09-10T10:09:28.519Z</time>
      </trkpt>
      <trkpt lat="45.73957" lon="6.0063">
        <ele>597</ele>
        <time>2021-09-10T10:09:29.519Z</time>
      </trkpt>
      <trkpt lat="45.73961" lon="6.00633">
        <ele>597</ele>
        <time>2021-09-10T10:09:30.519Z</time>
      </trkpt>
      <trkpt lat="45.73965" lon="6.00636">
        <ele>597</ele>
        <time>2021-09-10T10:09:31.519Z</time>
      </trkpt>
      <trkpt lat="45.73968" lon="6.00641">
        <ele>598</ele>
        <time>2021-09-10T10:09:32.519Z</time>
      </trkpt>
      <trkpt lat="45.73972" lon="6.00645">
        <ele>597</ele>
        <time>2021-09-10T10:09:33.520Z</time>
      </trkpt>
      <trkpt lat="45.73976" lon="6.00649">
        <ele>597</ele>
        <time>2021-09-10T10:09:34.519Z</time>
      </trkpt>
      <trkpt lat="45.73981" lon="6.00654">
        <ele>597</ele>
        <time>2021-09-10T10:09:35.519Z</time>
      </trkpt>
      <trkpt lat="45.73984" lon="6.00659">
        <ele>597</ele>
        <time>2021-09-10T10:09:36.520Z</time>
      </trkpt>
      <trkpt lat="45.73988" lon="6.00664">
        <ele>597</ele>
        <time>2021-09-10T10:09:37.520Z</time>
      </trkpt>
      <trkpt lat="45.73992" lon="6.00668">
        <ele>597</ele>
        <time>2021-09-10T10:09:38.520Z</time>
      </trkpt>
      <trkpt lat="45.73996" lon="6.00673">
        <ele>596</ele>
        <time>2021-09-10T10:09:39.520Z</time>
      </trkpt>
      <trkpt lat="45.74" lon="6.00678">
        <ele>596</ele>
        <time>2021-09-10T10:09:40.519Z</time>
      </trkpt>
      <trkpt lat="45.74004" lon="6.00682">
        <ele>596</ele>
        <time>2021-09-10T10:09:41.519Z</time>
      </trkpt>
      <trkpt lat="45.74007" lon="6.00687">
        <ele>596</ele>
        <time>2021-09-10T10:09:42.520Z</time>
      </trkpt>
      <trkpt lat="45.74011" lon="6.00691">
        <ele>596</ele>
        <time>2021-09-10T10:09:43.520Z</time>
      </trkpt>
      <trkpt lat="45.74016" lon="6.00696">
        <ele>596</ele>
        <time>2021-09-10T10:09:44.519Z</time>
      </trkpt>
      <trkpt lat="45.7402" lon="6.00701">
        <ele>596</ele>
        <time>2021-09-10T10:09:45.519Z</time>
      </trkpt>
      <trkpt lat="45.74023" lon="6.00704">
        <ele>596</ele>
        <time>2021-09-10T10:09:46.520Z</time>
      </trkpt>
      <trkpt lat="45.74029" lon="6.00709">
        <ele>597</ele>
        <time>2021-09-10T10:09:47.520Z</time>
      </trkpt>
      <trkpt lat="45.74033" lon="6.00713">
        <ele>597</ele>
        <time>2021-09-10T10:09:48.520Z</time>
      </trkpt>
      <trkpt lat="45.74038" lon="6.00717">
        <ele>597</ele>
        <time>2021-09-10T10:09:49.520Z</time>
      </trkpt>
      <trkpt lat="45.74043" lon="6.00721">
        <ele>597</ele>
        <time>2021-09-10T10:09:50.519Z</time>
      </trkpt>
      <trkpt lat="45.74047" lon="6.00724">
        <ele>597</ele>
        <time>2021-09-10T10:09:51.520Z</time>
      </trkpt>
      <trkpt lat="45.74052" lon="6.00728">
        <ele>597</ele>
        <time>2021-09-10T10:09:52.520Z</time>
      </trkpt>
      <trkpt lat="45.74056" lon="6.00731">
        <ele>597</ele>
        <time>2021-09-10T10:09:53.520Z</time>
      </trkpt>
      <trkpt lat="45.74061" lon="6.00734">
        <ele>597</ele>
        <time>2021-09-10T10:09:54.519Z</time>
      </trkpt>
      <trkpt lat="45.74066" lon="6.00738">
        <ele>598</ele>
        <time>2021-09-10T10:09:55.520Z</time>
      </trkpt>
      <trkpt lat="45.74072" lon="6.00741">
        <ele>598</ele>
        <time>2021-09-10T10:09:56.520Z</time>
      </trkpt>
      <trkpt lat="45.74076" lon="6.00744">
        <ele>598</ele>
        <time>2021-09-10T10:09:57.520Z</time>
      </trkpt>
      <trkpt lat="45.7408" lon="6.00747">
        <ele>597</ele>
        <time>2021-09-10T10:09:58.520Z</time>
      </trkpt>
      <trkpt lat="45.74083" lon="6.00749">
        <ele>597</ele>
        <time>2021-09-10T10:09:59.520Z</time>
      </trkpt>
      <trkpt lat="45.74088" lon="6.00752">
        <ele>597</ele>
        <time>2021-09-10T10:10:00.520Z</time>
      </trkpt>
      <trkpt lat="45.74091" lon="6.00755">
        <ele>596</ele>
        <time>2021-09-10T10:10:01.520Z</time>
      </trkpt>
      <trkpt lat="45.74095" lon="6.00758">
        <ele>596</ele>
        <time>2021-09-10T10:10:02.520Z</time>
      </trkpt>
      <trkpt lat="45.74099" lon="6.00761">
        <ele>596</ele>
        <time>2021-09-10T10:10:03.519Z</time>
      </trkpt>
      <trkpt lat="45.74103" lon="6.00765">
        <ele>596</ele>
        <time>2021-09-10T10:10:04.519Z</time>
      </trkpt>
      <trkpt lat="45.74107" lon="6.00767">
        <ele>596</ele>
        <time>2021-09-10T10:10:05.519Z</time>
      </trkpt>
      <trkpt lat="45.74112" lon="6.00771">
        <ele>596</ele>
        <time>2021-09-10T10:10:06.520Z</time>
      </trkpt>
      <trkpt lat="45.74115" lon="6.00774">
        <ele>595</ele>
        <time>2021-09-10T10:10:07.520Z</time>
      </trkpt>
      <trkpt lat="45.74118" lon="6.00778">
        <ele>595</ele>
        <time>2021-09-10T10:10:08.519Z</time>
      </trkpt>
      <trkpt lat="45.74122" lon="6.00781">
        <ele>595</ele>
        <time>2021-09-10T10:10:09.519Z</time>
      </trkpt>
      <trkpt lat="45.74125" lon="6.00784">
        <ele>595</ele>
        <time>2021-09-10T10:10:10.519Z</time>
      </trkpt>
      <trkpt lat="45.74129" lon="6.00788">
        <ele>595</ele>
        <time>2021-09-10T10:10:11.519Z</time>
      </trkpt>
      <trkpt lat="45.74132" lon="6.00791">
        <ele>595</ele>
        <time>2021-09-10T10:10:12.519Z</time>
      </trkpt>
      <trkpt lat="45.74136" lon="6.00794">
        <ele>595</ele>
        <time>2021-09-10T10:10:13.520Z</time>
      </trkpt>
      <trkpt lat="45.74139" lon="6.00796">
        <ele>595</ele>
        <time>2021-09-10T10:10:14.519Z</time>
      </trkpt>
      <trkpt lat="45.74144" lon="6.00799">
        <ele>595</ele>
        <time>2021-09-10T10:10:15.519Z</time>
      </trkpt>
      <trkpt lat="45.74148" lon="6.00802">
        <ele>595</ele>
        <time>2021-09-10T10:10:16.520Z</time>
      </trkpt>
      <trkpt lat="45.74153" lon="6.00806">
        <ele>595</ele>
        <time>2021-09-10T10:10:17.520Z</time>
      </trkpt>
      <trkpt lat="45.74157" lon="6.00809">
        <ele>594</ele>
        <time>2021-09-10T10:10:18.520Z</time>
      </trkpt>
      <trkpt lat="45.74161" lon="6.00812">
        <ele>594</ele>
        <time>2021-09-10T10:10:19.519Z</time>
      </trkpt>
      <trkpt lat="45.74165" lon="6.00816">
        <ele>594</ele>
        <time>2021-09-10T10:10:20.519Z</time>
      </trkpt>
      <trkpt lat="45.74169" lon="6.00819">
        <ele>594</ele>
        <time>2021-09-10T10:10:21.520Z</time>
      </trkpt>
      <trkpt lat="45.74173" lon="6.00822">
        <ele>594</ele>
        <time>2021-09-10T10:10:22.520Z</time>
      </trkpt>
      <trkpt lat="45.74177" lon="6.00826">
        <ele>594</ele>
        <time>2021-09-10T10:10:23.520Z</time>
      </trkpt>
      <trkpt lat="45.74181" lon="6.0083">
        <ele>594</ele>
        <time>2021-09-10T10:10:24.520Z</time>
      </trkpt>
      <trkpt lat="45.74185" lon="6.00833">
        <ele>594</ele>
        <time>2021-09-10T10:10:25.520Z</time>
      </trkpt>
      <trkpt lat="45.74188" lon="6.00837">
        <ele>594</ele>
        <time>2021-09-10T10:10:26.520Z</time>
      </trkpt>
      <trkpt lat="45.74192" lon="6.0084">
        <ele>594</ele>
        <time>2021-09-10T10:10:27.520Z</time>
      </trkpt>
      <trkpt lat="45.74195" lon="6.00844">
        <ele>594</ele>
        <time>2021-09-10T10:10:28.520Z</time>
      </trkpt>
      <trkpt lat="45.74199" lon="6.00847">
        <ele>594</ele>
        <time>2021-09-10T10:10:29.520Z</time>
      </trkpt>
      <trkpt lat="45.74203" lon="6.00851">
        <ele>594</ele>
        <time>2021-09-10T10:10:30.520Z</time>
      </trkpt>
      <trkpt lat="45.74206" lon="6.00855">
        <ele>594</ele>
        <time>2021-09-10T10:10:31.520Z</time>
      </trkpt>
      <trkpt lat="45.74209" lon="6.00859">
        <ele>594</ele>
        <time>2021-09-10T10:10:32.519Z</time>
      </trkpt>
      <trkpt lat="45.74213" lon="6.00863">
        <ele>594</ele>
        <time>2021-09-10T10:10:33.520Z</time>
      </trkpt>
      <trkpt lat="45.74216" lon="6.00867">
        <ele>594</ele>
        <time>2021-09-10T10:10:34.519Z</time>
      </trkpt>
      <trkpt lat="45.7422" lon="6.00872">
        <ele>594</ele>
        <time>2021-09-10T10:10:35.519Z</time>
      </trkpt>
      <trkpt lat="45.74223" lon="6.00876">
        <ele>594</ele>
        <time>2021-09-10T10:10:36.519Z</time>
      </trkpt>
      <trkpt lat="45.74227" lon="6.0088">
        <ele>594</ele>
        <time>2021-09-10T10:10:37.519Z</time>
      </trkpt>
      <trkpt lat="45.7423" lon="6.00885">
        <ele>594</ele>
        <time>2021-09-10T10:10:38.519Z</time>
      </trkpt>
      <trkpt lat="45.74233" lon="6.00889">
        <ele>594</ele>
        <time>2021-09-10T10:10:39.519Z</time>
      </trkpt>
      <trkpt lat="45.74236" lon="6.00893">
        <ele>595</ele>
        <time>2021-09-10T10:10:40.520Z</time>
      </trkpt>
      <trkpt lat="45.74239" lon="6.00897">
        <ele>595</ele>
        <time>2021-09-10T10:10:41.519Z</time>
      </trkpt>
      <trkpt lat="45.74242" lon="6.00902">
        <ele>594</ele>
        <time>2021-09-10T10:10:42.520Z</time>
      </trkpt>
      <trkpt lat="45.74245" lon="6.00906">
        <ele>594</ele>
        <time>2021-09-10T10:10:43.520Z</time>
      </trkpt>
      <trkpt lat="45.74248" lon="6.00911">
        <ele>594</ele>
        <time>2021-09-10T10:10:44.520Z</time>
      </trkpt>
      <trkpt lat="45.74252" lon="6.00915">
        <ele>594</ele>
        <time>2021-09-10T10:10:45.520Z</time>
      </trkpt>
      <trkpt lat="45.74255" lon="6.0092">
        <ele>595</ele>
        <time>2021-09-10T10:10:46.520Z</time>
      </trkpt>
      <trkpt lat="45.74259" lon="6.00925">
        <ele>594</ele>
        <time>2021-09-10T10:10:47.520Z</time>
      </trkpt>
      <trkpt lat="45.74262" lon="6.0093">
        <ele>594</ele>
        <time>2021-09-10T10:10:48.520Z</time>
      </trkpt>
      <trkpt lat="45.74265" lon="6.00934">
        <ele>595</ele>
        <time>2021-09-10T10:10:49.519Z</time>
      </trkpt>
      <trkpt lat="45.74268" lon="6.00938">
        <ele>595</ele>
        <time>2021-09-10T10:10:50.519Z</time>
      </trkpt>
      <trkpt lat="45.74271" lon="6.00943">
        <ele>595</ele>
        <time>2021-09-10T10:10:51.520Z</time>
      </trkpt>
      <trkpt lat="45.74274" lon="6.00947">
        <ele>595</ele>
        <time>2021-09-10T10:10:52.520Z</time>
      </trkpt>
      <trkpt lat="45.74277" lon="6.00951">
        <ele>594</ele>
        <time>2021-09-10T10:10:53.520Z</time>
      </trkpt>
      <trkpt lat="45.7428" lon="6.00955">
        <ele>594</ele>
        <time>2021-09-10T10:10:54.520Z</time>
      </trkpt>
      <trkpt lat="45.74283" lon="6.00959">
        <ele>594</ele>
        <time>2021-09-10T10:10:55.520Z</time>
      </trkpt>
      <trkpt lat="45.74286" lon="6.00962">
        <ele>594</ele>
        <time>2021-09-10T10:10:56.520Z</time>
      </trkpt>
      <trkpt lat="45.74288" lon="6.00966">
        <ele>594</ele>
        <time>2021-09-10T10:10:57.520Z</time>
      </trkpt>
      <trkpt lat="45.74291" lon="6.0097">
        <ele>594</ele>
        <time>2021-09-10T10:10:58.520Z</time>
      </trkpt>
      <trkpt lat="45.74294" lon="6.00973">
        <ele>594</ele>
        <time>2021-09-10T10:10:59.520Z</time>
      </trkpt>
      <trkpt lat="45.74297" lon="6.00976">
        <ele>594</ele>
        <time>2021-09-10T10:11:00.519Z</time>
      </trkpt>
      <trkpt lat="45.743" lon="6.00979">
        <ele>593</ele>
        <time>2021-09-10T10:11:01.520Z</time>
      </trkpt>
      <trkpt lat="45.74302" lon="6.00981">
        <ele>593</ele>
        <time>2021-09-10T10:11:02.520Z</time>
      </trkpt>
      <trkpt lat="45.74305" lon="6.00984">
        <ele>593</ele>
        <time>2021-09-10T10:11:03.520Z</time>
      </trkpt>
      <trkpt lat="45.74308" lon="6.00987">
        <ele>593</ele>
        <time>2021-09-10T10:11:04.519Z</time>
      </trkpt>
      <trkpt lat="45.7431" lon="6.00989">
        <ele>593</ele>
        <time>2021-09-10T10:11:05.520Z</time>
      </trkpt>
      <trkpt lat="45.74313" lon="6.00991">
        <ele>593</ele>
        <time>2021-09-10T10:11:06.520Z</time>
      </trkpt>
      <trkpt lat="45.74316" lon="6.00994">
        <ele>593</ele>
        <time>2021-09-10T10:11:07.520Z</time>
      </trkpt>
      <trkpt lat="45.74318" lon="6.00995">
        <ele>593</ele>
        <time>2021-09-10T10:11:08.520Z</time>
      </trkpt>
      <trkpt lat="45.74321" lon="6.00998">
        <ele>593</ele>
        <time>2021-09-10T10:11:09.520Z</time>
      </trkpt>
      <trkpt lat="45.74324" lon="6.01">
        <ele>594</ele>
        <time>2021-09-10T10:11:10.519Z</time>
      </trkpt>
      <trkpt lat="45.74326" lon="6.01002">
        <ele>594</ele>
        <time>2021-09-10T10:11:11.520Z</time>
      </trkpt>
      <trkpt lat="45.7433" lon="6.01004">
        <ele>595</ele>
        <time>2021-09-10T10:11:12.520Z</time>
      </trkpt>
      <trkpt lat="45.74333" lon="6.01007">
        <ele>595</ele>
        <time>2021-09-10T10:11:13.520Z</time>
      </trkpt>
      <trkpt lat="45.74335" lon="6.01009">
        <ele>596</ele>
        <time>2021-09-10T10:11:14.520Z</time>
      </trkpt>
      <trkpt lat="45.74338" lon="6.01011">
        <ele>596</ele>
        <time>2021-09-10T10:11:15.520Z</time>
      </trkpt>
      <trkpt lat="45.74341" lon="6.01013">
        <ele>597</ele>
        <time>2021-09-10T10:11:16.520Z</time>
      </trkpt>
      <trkpt lat="45.74343" lon="6.01015">
        <ele>597</ele>
        <time>2021-09-10T10:11:17.519Z</time>
      </trkpt>
      <trkpt lat="45.74346" lon="6.01017">
        <ele>597</ele>
        <time>2021-09-10T10:11:18.520Z</time>
      </trkpt>
      <trkpt lat="45.74349" lon="6.01019">
        <ele>597</ele>
        <time>2021-09-10T10:11:19.520Z</time>
      </trkpt>
      <trkpt lat="45.74352" lon="6.01021">
        <ele>598</ele>
        <time>2021-09-10T10:11:20.520Z</time>
      </trkpt>
      <trkpt lat="45.74354" lon="6.01023">
        <ele>598</ele>
        <time>2021-09-10T10:11:21.520Z</time>
      </trkpt>
      <trkpt lat="45.74357" lon="6.01026">
        <ele>598</ele>
        <time>2021-09-10T10:11:22.520Z</time>
      </trkpt>
      <trkpt lat="45.7436" lon="6.01028">
        <ele>598</ele>
        <time>2021-09-10T10:11:23.520Z</time>
      </trkpt>
      <trkpt lat="45.74363" lon="6.01031">
        <ele>598</ele>
        <time>2021-09-10T10:11:24.519Z</time>
      </trkpt>
      <trkpt lat="45.74366" lon="6.01033">
        <ele>598</ele>
        <time>2021-09-10T10:11:25.520Z</time>
      </trkpt>
      <trkpt lat="45.74369" lon="6.01035">
        <ele>599</ele>
        <time>2021-09-10T10:11:26.520Z</time>
      </trkpt>
      <trkpt lat="45.74371" lon="6.01037">
        <ele>598</ele>
        <time>2021-09-10T10:11:27.520Z</time>
      </trkpt>
      <trkpt lat="45.74374" lon="6.01039">
        <ele>599</ele>
        <time>2021-09-10T10:11:28.520Z</time>
      </trkpt>
      <trkpt lat="45.74377" lon="6.01041">
        <ele>599</ele>
        <time>2021-09-10T10:11:29.520Z</time>
      </trkpt>
      <trkpt lat="45.7438" lon="6.01042">
        <ele>600</ele>
        <time>2021-09-10T10:11:30.519Z</time>
      </trkpt>
      <trkpt lat="45.74384" lon="6.01044">
        <ele>601</ele>
        <time>2021-09-10T10:11:31.520Z</time>
      </trkpt>
      <trkpt lat="45.74387" lon="6.01046">
        <ele>601</ele>
        <time>2021-09-10T10:11:32.520Z</time>
      </trkpt>
      <trkpt lat="45.7439" lon="6.01047">
        <ele>601</ele>
        <time>2021-09-10T10:11:33.519Z</time>
      </trkpt>
      <trkpt lat="45.74394" lon="6.01049">
        <ele>601</ele>
        <time>2021-09-10T10:11:34.519Z</time>
      </trkpt>
      <trkpt lat="45.74397" lon="6.0105">
        <ele>601</ele>
        <time>2021-09-10T10:11:35.519Z</time>
      </trkpt>
      <trkpt lat="45.744" lon="6.01051">
        <ele>601</ele>
        <time>2021-09-10T10:11:36.520Z</time>
      </trkpt>
      <trkpt lat="45.74404" lon="6.01053">
        <ele>601</ele>
        <time>2021-09-10T10:11:37.520Z</time>
      </trkpt>
      <trkpt lat="45.74407" lon="6.01054">
        <ele>601</ele>
        <time>2021-09-10T10:11:38.520Z</time>
      </trkpt>
      <trkpt lat="45.7441" lon="6.01055">
        <ele>601</ele>
        <time>2021-09-10T10:11:39.520Z</time>
      </trkpt>
      <trkpt lat="45.74414" lon="6.01056">
        <ele>601</ele>
        <time>2021-09-10T10:11:40.520Z</time>
      </trkpt>
      <trkpt lat="45.74418" lon="6.01057">
        <ele>601</ele>
        <time>2021-09-10T10:11:41.520Z</time>
      </trkpt>
      <trkpt lat="45.74421" lon="6.01058">
        <ele>602</ele>
        <time>2021-09-10T10:11:42.520Z</time>
      </trkpt>
      <trkpt lat="45.74425" lon="6.01059">
        <ele>602</ele>
        <time>2021-09-10T10:11:43.520Z</time>
      </trkpt>
      <trkpt lat="45.74428" lon="6.0106">
        <ele>602</ele>
        <time>2021-09-10T10:11:44.520Z</time>
      </trkpt>
      <trkpt lat="45.74432" lon="6.01061">
        <ele>602</ele>
        <time>2021-09-10T10:11:45.520Z</time>
      </trkpt>
      <trkpt lat="45.74435" lon="6.01062">
        <ele>602</ele>
        <time>2021-09-10T10:11:46.520Z</time>
      </trkpt>
      <trkpt lat="45.74439" lon="6.01063">
        <ele>603</ele>
        <time>2021-09-10T10:11:47.519Z</time>
      </trkpt>
      <trkpt lat="45.74443" lon="6.01064">
        <ele>603</ele>
        <time>2021-09-10T10:11:48.520Z</time>
      </trkpt>
      <trkpt lat="45.74446" lon="6.01065">
        <ele>603</ele>
        <time>2021-09-10T10:11:49.519Z</time>
      </trkpt>
      <trkpt lat="45.7445" lon="6.01067">
        <ele>603</ele>
        <time>2021-09-10T10:11:50.519Z</time>
      </trkpt>
      <trkpt lat="45.74453" lon="6.01068">
        <ele>603</ele>
        <time>2021-09-10T10:11:51.520Z</time>
      </trkpt>
      <trkpt lat="45.74457" lon="6.01069">
        <ele>602</ele>
        <time>2021-09-10T10:11:52.519Z</time>
      </trkpt>
      <trkpt lat="45.7446" lon="6.0107">
        <ele>602</ele>
        <time>2021-09-10T10:11:53.520Z</time>
      </trkpt>
      <trkpt lat="45.74464" lon="6.01071">
        <ele>602</ele>
        <time>2021-09-10T10:11:54.520Z</time>
      </trkpt>
      <trkpt lat="45.74468" lon="6.01072">
        <ele>602</ele>
        <time>2021-09-10T10:11:55.519Z</time>
      </trkpt>
      <trkpt lat="45.74471" lon="6.01073">
        <ele>602</ele>
        <time>2021-09-10T10:11:56.519Z</time>
      </trkpt>
      <trkpt lat="45.74476" lon="6.01074">
        <ele>602</ele>
        <time>2021-09-10T10:11:57.519Z</time>
      </trkpt>
      <trkpt lat="45.7448" lon="6.01075">
        <ele>603</ele>
        <time>2021-09-10T10:11:58.520Z</time>
      </trkpt>
      <trkpt lat="45.74483" lon="6.01076">
        <ele>603</ele>
        <time>2021-09-10T10:12:00.634Z</time>
      </trkpt>
      <trkpt lat="45.74487" lon="6.01077">
        <ele>603</ele>
        <time>2021-09-10T10:12:01.634Z</time>
      </trkpt>
      <trkpt lat="45.74491" lon="6.01078">
        <ele>603</ele>
        <time>2021-09-10T10:12:02.634Z</time>
      </trkpt>
      <trkpt lat="45.74495" lon="6.01079">
        <ele>603</ele>
        <time>2021-09-10T10:12:03.634Z</time>
      </trkpt>
      <trkpt lat="45.74498" lon="6.01081">
        <ele>603</ele>
        <time>2021-09-10T10:12:04.634Z</time>
      </trkpt>
      <trkpt lat="45.74502" lon="6.01082">
        <ele>603</ele>
        <time>2021-09-10T10:12:05.634Z</time>
      </trkpt>
      <trkpt lat="45.74506" lon="6.01084">
        <ele>603</ele>
        <time>2021-09-10T10:12:06.634Z</time>
      </trkpt>
      <trkpt lat="45.7451" lon="6.01086">
        <ele>603</ele>
        <time>2021-09-10T10:12:07.633Z</time>
      </trkpt>
      <trkpt lat="45.74514" lon="6.01088">
        <ele>603</ele>
        <time>2021-09-10T10:12:08.633Z</time>
      </trkpt>
      <trkpt lat="45.74518" lon="6.0109">
        <ele>603</ele>
        <time>2021-09-10T10:12:09.634Z</time>
      </trkpt>
      <trkpt lat="45.74522" lon="6.01092">
        <ele>603</ele>
        <time>2021-09-10T10:12:10.633Z</time>
      </trkpt>
      <trkpt lat="45.74525" lon="6.01094">
        <ele>603</ele>
        <time>2021-09-10T10:12:11.634Z</time>
      </trkpt>
      <trkpt lat="45.74529" lon="6.01097">
        <ele>603</ele>
        <time>2021-09-10T10:12:12.634Z</time>
      </trkpt>
      <trkpt lat="45.74533" lon="6.011">
        <ele>603</ele>
        <time>2021-09-10T10:12:13.633Z</time>
      </trkpt>
      <trkpt lat="45.74536" lon="6.01103">
        <ele>603</ele>
        <time>2021-09-10T10:12:14.634Z</time>
      </trkpt>
      <trkpt lat="45.74539" lon="6.01107">
        <ele>603</ele>
        <time>2021-09-10T10:12:15.634Z</time>
      </trkpt>
      <trkpt lat="45.74542" lon="6.01111">
        <ele>602</ele>
        <time>2021-09-10T10:12:16.634Z</time>
      </trkpt>
      <trkpt lat="45.74545" lon="6.01115">
        <ele>601</ele>
        <time>2021-09-10T10:12:17.634Z</time>
      </trkpt>
      <trkpt lat="45.74548" lon="6.01119">
        <ele>601</ele>
        <time>2021-09-10T10:12:18.634Z</time>
      </trkpt>
      <trkpt lat="45.74551" lon="6.01123">
        <ele>601</ele>
        <time>2021-09-10T10:12:19.634Z</time>
      </trkpt>
      <trkpt lat="45.74555" lon="6.01128">
        <ele>601</ele>
        <time>2021-09-10T10:12:20.634Z</time>
      </trkpt>
      <trkpt lat="45.74558" lon="6.01132">
        <ele>602</ele>
        <time>2021-09-10T10:12:21.633Z</time>
      </trkpt>
      <trkpt lat="45.74561" lon="6.01136">
        <ele>602</ele>
        <time>2021-09-10T10:12:22.633Z</time>
      </trkpt>
      <trkpt lat="45.74565" lon="6.0114">
        <ele>602</ele>
        <time>2021-09-10T10:12:23.633Z</time>
      </trkpt>
      <trkpt lat="45.74568" lon="6.01144">
        <ele>602</ele>
        <time>2021-09-10T10:12:24.633Z</time>
      </trkpt>
      <trkpt lat="45.7457" lon="6.01148">
        <ele>602</ele>
        <time>2021-09-10T10:12:25.634Z</time>
      </trkpt>
      <trkpt lat="45.74574" lon="6.01152">
        <ele>602</ele>
        <time>2021-09-10T10:12:26.634Z</time>
      </trkpt>
      <trkpt lat="45.74577" lon="6.01155">
        <ele>602</ele>
        <time>2021-09-10T10:12:27.634Z</time>
      </trkpt>
      <trkpt lat="45.74579" lon="6.01158">
        <ele>602</ele>
        <time>2021-09-10T10:12:28.634Z</time>
      </trkpt>
      <trkpt lat="45.74582" lon="6.01161">
        <ele>602</ele>
        <time>2021-09-10T10:12:29.634Z</time>
      </trkpt>
      <trkpt lat="45.74585" lon="6.01166">
        <ele>602</ele>
        <time>2021-09-10T10:12:30.634Z</time>
      </trkpt>
      <trkpt lat="45.74588" lon="6.01168">
        <ele>601</ele>
        <time>2021-09-10T10:12:31.634Z</time>
      </trkpt>
      <trkpt lat="45.74591" lon="6.01172">
        <ele>601</ele>
        <time>2021-09-10T10:12:32.634Z</time>
      </trkpt>
      <trkpt lat="45.74593" lon="6.01175">
        <ele>601</ele>
        <time>2021-09-10T10:12:33.633Z</time>
      </trkpt>
      <trkpt lat="45.74597" lon="6.01178">
        <ele>601</ele>
        <time>2021-09-10T10:12:34.633Z</time>
      </trkpt>
      <trkpt lat="45.746" lon="6.0118">
        <ele>601</ele>
        <time>2021-09-10T10:12:35.633Z</time>
      </trkpt>
      <trkpt lat="45.74603" lon="6.01183">
        <ele>601</ele>
        <time>2021-09-10T10:12:36.634Z</time>
      </trkpt>
      <trkpt lat="45.74606" lon="6.01186">
        <ele>601</ele>
        <time>2021-09-10T10:12:37.634Z</time>
      </trkpt>
      <trkpt lat="45.74609" lon="6.0119">
        <ele>601</ele>
        <time>2021-09-10T10:12:38.634Z</time>
      </trkpt>
      <trkpt lat="45.74612" lon="6.01192">
        <ele>600</ele>
        <time>2021-09-10T10:12:39.634Z</time>
      </trkpt>
      <trkpt lat="45.74615" lon="6.01194">
        <ele>600</ele>
        <time>2021-09-10T10:12:40.634Z</time>
      </trkpt>
      <trkpt lat="45.74617" lon="6.01196">
        <ele>600</ele>
        <time>2021-09-10T10:12:41.633Z</time>
      </trkpt>
      <trkpt lat="45.7462" lon="6.01199">
        <ele>600</ele>
        <time>2021-09-10T10:12:42.634Z</time>
      </trkpt>
      <trkpt lat="45.74623" lon="6.01202">
        <ele>601</ele>
        <time>2021-09-10T10:12:43.634Z</time>
      </trkpt>
      <trkpt lat="45.74626" lon="6.01204">
        <ele>601</ele>
        <time>2021-09-10T10:12:44.634Z</time>
      </trkpt>
      <trkpt lat="45.7463" lon="6.01206">
        <ele>601</ele>
        <time>2021-09-10T10:12:45.633Z</time>
      </trkpt>
      <trkpt lat="45.74633" lon="6.01208">
        <ele>602</ele>
        <time>2021-09-10T10:12:46.634Z</time>
      </trkpt>
      <trkpt lat="45.74636" lon="6.0121">
        <ele>602</ele>
        <time>2021-09-10T10:12:47.634Z</time>
      </trkpt>
      <trkpt lat="45.74639" lon="6.01212">
        <ele>602</ele>
        <time>2021-09-10T10:12:48.634Z</time>
      </trkpt>
      <trkpt lat="45.74642" lon="6.01214">
        <ele>602</ele>
        <time>2021-09-10T10:12:49.634Z</time>
      </trkpt>
      <trkpt lat="45.74645" lon="6.01216">
        <ele>602</ele>
        <time>2021-09-10T10:12:50.633Z</time>
      </trkpt>
      <trkpt lat="45.74648" lon="6.01218">
        <ele>602</ele>
        <time>2021-09-10T10:12:51.634Z</time>
      </trkpt>
      <trkpt lat="45.74652" lon="6.0122">
        <ele>602</ele>
        <time>2021-09-10T10:12:52.634Z</time>
      </trkpt>
      <trkpt lat="45.74655" lon="6.01222">
        <ele>602</ele>
        <time>2021-09-10T10:12:53.633Z</time>
      </trkpt>
      <trkpt lat="45.74659" lon="6.01224">
        <ele>602</ele>
        <time>2021-09-10T10:12:54.634Z</time>
      </trkpt>
      <trkpt lat="45.74662" lon="6.01225">
        <ele>602</ele>
        <time>2021-09-10T10:12:55.634Z</time>
      </trkpt>
      <trkpt lat="45.74666" lon="6.01227">
        <ele>602</ele>
        <time>2021-09-10T10:12:56.633Z</time>
      </trkpt>
      <trkpt lat="45.74669" lon="6.01229">
        <ele>602</ele>
        <time>2021-09-10T10:12:57.634Z</time>
      </trkpt>
      <trkpt lat="45.74673" lon="6.0123">
        <ele>602</ele>
        <time>2021-09-10T10:12:58.634Z</time>
      </trkpt>
      <trkpt lat="45.74676" lon="6.01232">
        <ele>603</ele>
        <time>2021-09-10T10:12:59.634Z</time>
      </trkpt>
      <trkpt lat="45.74679" lon="6.01233">
        <ele>603</ele>
        <time>2021-09-10T10:13:00.633Z</time>
      </trkpt>
      <trkpt lat="45.74683" lon="6.01235">
        <ele>603</ele>
        <time>2021-09-10T10:13:01.633Z</time>
      </trkpt>
      <trkpt lat="45.74686" lon="6.01236">
        <ele>604</ele>
        <time>2021-09-10T10:13:02.634Z</time>
      </trkpt>
      <trkpt lat="45.74689" lon="6.01237">
        <ele>604</ele>
        <time>2021-09-10T10:13:03.633Z</time>
      </trkpt>
      <trkpt lat="45.74693" lon="6.01239">
        <ele>604</ele>
        <time>2021-09-10T10:13:04.633Z</time>
      </trkpt>
      <trkpt lat="45.74697" lon="6.0124">
        <ele>603</ele>
        <time>2021-09-10T10:13:05.634Z</time>
      </trkpt>
      <trkpt lat="45.74701" lon="6.01241">
        <ele>603</ele>
        <time>2021-09-10T10:13:06.633Z</time>
      </trkpt>
      <trkpt lat="45.74705" lon="6.01243">
        <ele>603</ele>
        <time>2021-09-10T10:13:07.634Z</time>
      </trkpt>
      <trkpt lat="45.74709" lon="6.01245">
        <ele>603</ele>
        <time>2021-09-10T10:13:08.634Z</time>
      </trkpt>
      <trkpt lat="45.74714" lon="6.01246">
        <ele>603</ele>
        <time>2021-09-10T10:13:09.634Z</time>
      </trkpt>
      <trkpt lat="45.74718" lon="6.01248">
        <ele>603</ele>
        <time>2021-09-10T10:13:10.633Z</time>
      </trkpt>
      <trkpt lat="45.74722" lon="6.0125">
        <ele>602</ele>
        <time>2021-09-10T10:13:11.634Z</time>
      </trkpt>
      <trkpt lat="45.74726" lon="6.01251">
        <ele>602</ele>
        <time>2021-09-10T10:13:12.633Z</time>
      </trkpt>
      <trkpt lat="45.7473" lon="6.01253">
        <ele>602</ele>
        <time>2021-09-10T10:13:13.633Z</time>
      </trkpt>
      <trkpt lat="45.74735" lon="6.01254">
        <ele>601</ele>
        <time>2021-09-10T10:13:14.634Z</time>
      </trkpt>
      <trkpt lat="45.74739" lon="6.01255">
        <ele>601</ele>
        <time>2021-09-10T10:13:15.634Z</time>
      </trkpt>
      <trkpt lat="45.74743" lon="6.01257">
        <ele>601</ele>
        <time>2021-09-10T10:13:16.634Z</time>
      </trkpt>
      <trkpt lat="45.74748" lon="6.01258">
        <ele>601</ele>
        <time>2021-09-10T10:13:17.634Z</time>
      </trkpt>
      <trkpt lat="45.74753" lon="6.01258">
        <ele>601</ele>
        <time>2021-09-10T10:13:18.634Z</time>
      </trkpt>
      <trkpt lat="45.74758" lon="6.01259">
        <ele>601</ele>
        <time>2021-09-10T10:13:19.634Z</time>
      </trkpt>
      <trkpt lat="45.74763" lon="6.0126">
        <ele>601</ele>
        <time>2021-09-10T10:13:20.633Z</time>
      </trkpt>
      <trkpt lat="45.74768" lon="6.01259">
        <ele>601</ele>
        <time>2021-09-10T10:13:21.634Z</time>
      </trkpt>
      <trkpt lat="45.74773" lon="6.01258">
        <ele>601</ele>
        <time>2021-09-10T10:13:22.634Z</time>
      </trkpt>
      <trkpt lat="45.74778" lon="6.01257">
        <ele>601</ele>
        <time>2021-09-10T10:13:23.634Z</time>
      </trkpt>
      <trkpt lat="45.74783" lon="6.01254">
        <ele>601</ele>
        <time>2021-09-10T10:13:24.634Z</time>
      </trkpt>
      <trkpt lat="45.74788" lon="6.01252">
        <ele>601</ele>
        <time>2021-09-10T10:13:25.634Z</time>
      </trkpt>
      <trkpt lat="45.74793" lon="6.0125">
        <ele>601</ele>
        <time>2021-09-10T10:13:26.634Z</time>
      </trkpt>
      <trkpt lat="45.74798" lon="6.01248">
        <ele>600</ele>
        <time>2021-09-10T10:13:27.633Z</time>
      </trkpt>
      <trkpt lat="45.74804" lon="6.01246">
        <ele>600</ele>
        <time>2021-09-10T10:13:28.634Z</time>
      </trkpt>
      <trkpt lat="45.74809" lon="6.01243">
        <ele>600</ele>
        <time>2021-09-10T10:13:29.634Z</time>
      </trkpt>
      <trkpt lat="45.74814" lon="6.0124">
        <ele>600</ele>
        <time>2021-09-10T10:13:30.634Z</time>
      </trkpt>
      <trkpt lat="45.7482" lon="6.01237">
        <ele>600</ele>
        <time>2021-09-10T10:13:31.634Z</time>
      </trkpt>
      <trkpt lat="45.74826" lon="6.01235">
        <ele>600</ele>
        <time>2021-09-10T10:13:32.634Z</time>
      </trkpt>
      <trkpt lat="45.74832" lon="6.01233">
        <ele>600</ele>
        <time>2021-09-10T10:13:33.634Z</time>
      </trkpt>
      <trkpt lat="45.74838" lon="6.01231">
        <ele>600</ele>
        <time>2021-09-10T10:13:34.634Z</time>
      </trkpt>
      <trkpt lat="45.74844" lon="6.0123">
        <ele>600</ele>
        <time>2021-09-10T10:13:35.634Z</time>
      </trkpt>
      <trkpt lat="45.7485" lon="6.01229">
        <ele>600</ele>
        <time>2021-09-10T10:13:36.634Z</time>
      </trkpt>
      <trkpt lat="45.74857" lon="6.01228">
        <ele>599</ele>
        <time>2021-09-10T10:13:37.634Z</time>
      </trkpt>
      <trkpt lat="45.74863" lon="6.01228">
        <ele>599</ele>
        <time>2021-09-10T10:13:38.634Z</time>
      </trkpt>
      <trkpt lat="45.7487" lon="6.01229">
        <ele>599</ele>
        <time>2021-09-10T10:13:39.634Z</time>
      </trkpt>
      <trkpt lat="45.74877" lon="6.01228">
        <ele>599</ele>
        <time>2021-09-10T10:13:40.634Z</time>
      </trkpt>
      <trkpt lat="45.74883" lon="6.01229">
        <ele>598</ele>
        <time>2021-09-10T10:13:41.634Z</time>
      </trkpt>
      <trkpt lat="45.7489" lon="6.01228">
        <ele>598</ele>
        <time>2021-09-10T10:13:42.634Z</time>
      </trkpt>
      <trkpt lat="45.74897" lon="6.01228">
        <ele>598</ele>
        <time>2021-09-10T10:13:43.634Z</time>
      </trkpt>
      <trkpt lat="45.74903" lon="6.01227">
        <ele>598</ele>
        <time>2021-09-10T10:13:44.634Z</time>
      </trkpt>
      <trkpt lat="45.7491" lon="6.01227">
        <ele>598</ele>
        <time>2021-09-10T10:13:45.634Z</time>
      </trkpt>
      <trkpt lat="45.74916" lon="6.01228">
        <ele>598</ele>
        <time>2021-09-10T10:13:46.634Z</time>
      </trkpt>
      <trkpt lat="45.74923" lon="6.01229">
        <ele>598</ele>
        <time>2021-09-10T10:13:47.634Z</time>
      </trkpt>
      <trkpt lat="45.74929" lon="6.01231">
        <ele>598</ele>
        <time>2021-09-10T10:13:48.633Z</time>
      </trkpt>
      <trkpt lat="45.74936" lon="6.01236">
        <ele>598</ele>
        <time>2021-09-10T10:13:49.634Z</time>
      </trkpt>
      <trkpt lat="45.74941" lon="6.0124">
        <ele>597</ele>
        <time>2021-09-10T10:13:50.634Z</time>
      </trkpt>
      <trkpt lat="45.74946" lon="6.01245">
        <ele>597</ele>
        <time>2021-09-10T10:13:51.634Z</time>
      </trkpt>
      <trkpt lat="45.74951" lon="6.01252">
        <ele>597</ele>
        <time>2021-09-10T10:13:52.634Z</time>
      </trkpt>
      <trkpt lat="45.74956" lon="6.01259">
        <ele>597</ele>
        <time>2021-09-10T10:13:53.634Z</time>
      </trkpt>
      <trkpt lat="45.74962" lon="6.01266">
        <ele>596</ele>
        <time>2021-09-10T10:13:54.634Z</time>
      </trkpt>
      <trkpt lat="45.74967" lon="6.01274">
        <ele>596</ele>
        <time>2021-09-10T10:13:55.634Z</time>
      </trkpt>
      <trkpt lat="45.74972" lon="6.01282">
        <ele>595</ele>
        <time>2021-09-10T10:13:56.634Z</time>
      </trkpt>
      <trkpt lat="45.74978" lon="6.0129">
        <ele>595</ele>
        <time>2021-09-10T10:13:57.633Z</time>
      </trkpt>
      <trkpt lat="45.74983" lon="6.01298">
        <ele>595</ele>
        <time>2021-09-10T10:13:58.633Z</time>
      </trkpt>
      <trkpt lat="45.74988" lon="6.01306">
        <ele>595</ele>
        <time>2021-09-10T10:13:59.633Z</time>
      </trkpt>
      <trkpt lat="45.74994" lon="6.01314">
        <ele>595</ele>
        <time>2021-09-10T10:14:00.633Z</time>
      </trkpt>
      <trkpt lat="45.75" lon="6.01323">
        <ele>594</ele>
        <time>2021-09-10T10:14:01.634Z</time>
      </trkpt>
      <trkpt lat="45.75005" lon="6.01331">
        <ele>594</ele>
        <time>2021-09-10T10:14:02.634Z</time>
      </trkpt>
      <trkpt lat="45.75011" lon="6.01339">
        <ele>594</ele>
        <time>2021-09-10T10:14:03.634Z</time>
      </trkpt>
      <trkpt lat="45.75016" lon="6.01347">
        <ele>593</ele>
        <time>2021-09-10T10:14:04.634Z</time>
      </trkpt>
      <trkpt lat="45.75022" lon="6.01355">
        <ele>593</ele>
        <time>2021-09-10T10:14:05.634Z</time>
      </trkpt>
      <trkpt lat="45.75027" lon="6.01363">
        <ele>592</ele>
        <time>2021-09-10T10:14:06.634Z</time>
      </trkpt>
      <trkpt lat="45.75033" lon="6.01371">
        <ele>592</ele>
        <time>2021-09-10T10:14:07.633Z</time>
      </trkpt>
      <trkpt lat="45.75038" lon="6.01379">
        <ele>592</ele>
        <time>2021-09-10T10:14:08.633Z</time>
      </trkpt>
      <trkpt lat="45.75043" lon="6.01387">
        <ele>591</ele>
        <time>2021-09-10T10:14:09.634Z</time>
      </trkpt>
      <trkpt lat="45.75048" lon="6.01394">
        <ele>591</ele>
        <time>2021-09-10T10:14:10.634Z</time>
      </trkpt>
      <trkpt lat="45.75053" lon="6.01402">
        <ele>590</ele>
        <time>2021-09-10T10:14:11.634Z</time>
      </trkpt>
      <trkpt lat="45.75056" lon="6.01409">
        <ele>590</ele>
        <time>2021-09-10T10:14:12.634Z</time>
      </trkpt>
      <trkpt lat="45.75058" lon="6.01417">
        <ele>589</ele>
        <time>2021-09-10T10:14:13.634Z</time>
      </trkpt>
      <trkpt lat="45.75059" lon="6.01425">
        <ele>589</ele>
        <time>2021-09-10T10:14:14.634Z</time>
      </trkpt>
      <trkpt lat="45.75059" lon="6.01432">
        <ele>588</ele>
        <time>2021-09-10T10:14:15.634Z</time>
      </trkpt>
      <trkpt lat="45.75058" lon="6.0144">
        <ele>588</ele>
        <time>2021-09-10T10:14:16.634Z</time>
      </trkpt>
      <trkpt lat="45.75056" lon="6.01448">
        <ele>587</ele>
        <time>2021-09-10T10:14:17.634Z</time>
      </trkpt>
      <trkpt lat="45.75053" lon="6.01456">
        <ele>587</ele>
        <time>2021-09-10T10:14:18.634Z</time>
      </trkpt>
      <trkpt lat="45.75051" lon="6.01464">
        <ele>586</ele>
        <time>2021-09-10T10:14:19.634Z</time>
      </trkpt>
      <trkpt lat="45.7505" lon="6.01473">
        <ele>586</ele>
        <time>2021-09-10T10:14:20.634Z</time>
      </trkpt>
      <trkpt lat="45.7505" lon="6.01481">
        <ele>586</ele>
        <time>2021-09-10T10:14:21.634Z</time>
      </trkpt>
      <trkpt lat="45.75052" lon="6.01489">
        <ele>585</ele>
        <time>2021-09-10T10:14:22.633Z</time>
      </trkpt>
      <trkpt lat="45.75055" lon="6.01496">
        <ele>585</ele>
        <time>2021-09-10T10:14:23.634Z</time>
      </trkpt>
      <trkpt lat="45.75059" lon="6.01501">
        <ele>585</ele>
        <time>2021-09-10T10:14:24.634Z</time>
      </trkpt>
      <trkpt lat="45.75063" lon="6.01507">
        <ele>585</ele>
        <time>2021-09-10T10:14:25.634Z</time>
      </trkpt>
      <trkpt lat="45.75069" lon="6.01513">
        <ele>584</ele>
        <time>2021-09-10T10:14:26.633Z</time>
      </trkpt>
      <trkpt lat="45.75075" lon="6.0152">
        <ele>584</ele>
        <time>2021-09-10T10:14:27.634Z</time>
      </trkpt>
      <trkpt lat="45.7508" lon="6.01526">
        <ele>583</ele>
        <time>2021-09-10T10:14:28.634Z</time>
      </trkpt>
      <trkpt lat="45.75086" lon="6.01533">
        <ele>582</ele>
        <time>2021-09-10T10:14:29.634Z</time>
      </trkpt>
      <trkpt lat="45.75092" lon="6.0154">
        <ele>582</ele>
        <time>2021-09-10T10:14:30.634Z</time>
      </trkpt>
      <trkpt lat="45.75098" lon="6.01547">
        <ele>582</ele>
        <time>2021-09-10T10:14:31.634Z</time>
      </trkpt>
      <trkpt lat="45.75104" lon="6.01553">
        <ele>581</ele>
        <time>2021-09-10T10:14:32.634Z</time>
      </trkpt>
      <trkpt lat="45.75111" lon="6.01559">
        <ele>581</ele>
        <time>2021-09-10T10:14:33.634Z</time>
      </trkpt>
      <trkpt lat="45.75117" lon="6.01566">
        <ele>581</ele>
        <time>2021-09-10T10:14:34.634Z</time>
      </trkpt>
      <trkpt lat="45.75124" lon="6.01572">
        <ele>580</ele>
        <time>2021-09-10T10:14:35.634Z</time>
      </trkpt>
      <trkpt lat="45.75131" lon="6.01579">
        <ele>580</ele>
        <time>2021-09-10T10:14:36.633Z</time>
      </trkpt>
      <trkpt lat="45.75138" lon="6.01586">
        <ele>580</ele>
        <time>2021-09-10T10:14:37.634Z</time>
      </trkpt>
      <trkpt lat="45.75144" lon="6.01592">
        <ele>580</ele>
        <time>2021-09-10T10:14:38.634Z</time>
      </trkpt>
      <trkpt lat="45.7515" lon="6.016">
        <ele>580</ele>
        <time>2021-09-10T10:14:39.634Z</time>
      </trkpt>
      <trkpt lat="45.75157" lon="6.01607">
        <ele>580</ele>
        <time>2021-09-10T10:14:40.634Z</time>
      </trkpt>
      <trkpt lat="45.75163" lon="6.01614">
        <ele>580</ele>
        <time>2021-09-10T10:14:41.633Z</time>
      </trkpt>
      <trkpt lat="45.7517" lon="6.0162">
        <ele>580</ele>
        <time>2021-09-10T10:14:42.634Z</time>
      </trkpt>
      <trkpt lat="45.75178" lon="6.01626">
        <ele>579</ele>
        <time>2021-09-10T10:14:43.633Z</time>
      </trkpt>
      <trkpt lat="45.75185" lon="6.01632">
        <ele>579</ele>
        <time>2021-09-10T10:14:44.634Z</time>
      </trkpt>
      <trkpt lat="45.75193" lon="6.01637">
        <ele>579</ele>
        <time>2021-09-10T10:14:45.633Z</time>
      </trkpt>
      <trkpt lat="45.752" lon="6.01642">
        <ele>578</ele>
        <time>2021-09-10T10:14:46.634Z</time>
      </trkpt>
      <trkpt lat="45.75208" lon="6.01647">
        <ele>578</ele>
        <time>2021-09-10T10:14:47.634Z</time>
      </trkpt>
      <trkpt lat="45.75215" lon="6.01652">
        <ele>577</ele>
        <time>2021-09-10T10:14:48.633Z</time>
      </trkpt>
      <trkpt lat="45.75222" lon="6.01657">
        <ele>577</ele>
        <time>2021-09-10T10:14:49.634Z</time>
      </trkpt>
      <trkpt lat="45.75229" lon="6.01661">
        <ele>576</ele>
        <time>2021-09-10T10:14:50.634Z</time>
      </trkpt>
      <trkpt lat="45.75237" lon="6.01665">
        <ele>575</ele>
        <time>2021-09-10T10:14:51.634Z</time>
      </trkpt>
      <trkpt lat="45.75245" lon="6.01668">
        <ele>574</ele>
        <time>2021-09-10T10:14:52.634Z</time>
      </trkpt>
      <trkpt lat="45.75254" lon="6.0167">
        <ele>574</ele>
        <time>2021-09-10T10:14:53.634Z</time>
      </trkpt>
      <trkpt lat="45.75263" lon="6.01671">
        <ele>573</ele>
        <time>2021-09-10T10:14:54.634Z</time>
      </trkpt>
      <trkpt lat="45.75272" lon="6.01671">
        <ele>573</ele>
        <time>2021-09-10T10:14:55.634Z</time>
      </trkpt>
      <trkpt lat="45.75282" lon="6.01671">
        <ele>572</ele>
        <time>2021-09-10T10:14:56.634Z</time>
      </trkpt>
      <trkpt lat="45.75291" lon="6.0167">
        <ele>571</ele>
        <time>2021-09-10T10:14:57.634Z</time>
      </trkpt>
      <trkpt lat="45.75301" lon="6.0167">
        <ele>570</ele>
        <time>2021-09-10T10:14:58.634Z</time>
      </trkpt>
      <trkpt lat="45.7531" lon="6.0167">
        <ele>569</ele>
        <time>2021-09-10T10:14:59.634Z</time>
      </trkpt>
      <trkpt lat="45.75319" lon="6.0167">
        <ele>568</ele>
        <time>2021-09-10T10:15:00.634Z</time>
      </trkpt>
      <trkpt lat="45.75327" lon="6.01672">
        <ele>567</ele>
        <time>2021-09-10T10:15:01.634Z</time>
      </trkpt>
      <trkpt lat="45.75335" lon="6.01675">
        <ele>567</ele>
        <time>2021-09-10T10:15:02.633Z</time>
      </trkpt>
      <trkpt lat="45.75343" lon="6.01679">
        <ele>566</ele>
        <time>2021-09-10T10:15:03.634Z</time>
      </trkpt>
      <trkpt lat="45.7535" lon="6.01684">
        <ele>566</ele>
        <time>2021-09-10T10:15:04.633Z</time>
      </trkpt>
      <trkpt lat="45.75357" lon="6.0169">
        <ele>565</ele>
        <time>2021-09-10T10:15:05.634Z</time>
      </trkpt>
      <trkpt lat="45.75363" lon="6.01697">
        <ele>565</ele>
        <time>2021-09-10T10:15:06.634Z</time>
      </trkpt>
      <trkpt lat="45.75369" lon="6.01704">
        <ele>565</ele>
        <time>2021-09-10T10:15:07.634Z</time>
      </trkpt>
      <trkpt lat="45.75376" lon="6.01712">
        <ele>564</ele>
        <time>2021-09-10T10:15:08.634Z</time>
      </trkpt>
      <trkpt lat="45.75382" lon="6.01718">
        <ele>564</ele>
        <time>2021-09-10T10:15:09.633Z</time>
      </trkpt>
      <trkpt lat="45.75389" lon="6.01724">
        <ele>563</ele>
        <time>2021-09-10T10:15:10.634Z</time>
      </trkpt>
      <trkpt lat="45.75396" lon="6.01729">
        <ele>563</ele>
        <time>2021-09-10T10:15:11.633Z</time>
      </trkpt>
      <trkpt lat="45.75403" lon="6.01734">
        <ele>563</ele>
        <time>2021-09-10T10:15:12.634Z</time>
      </trkpt>
      <trkpt lat="45.75411" lon="6.01737">
        <ele>563</ele>
        <time>2021-09-10T10:15:13.634Z</time>
      </trkpt>
      <trkpt lat="45.75418" lon="6.0174">
        <ele>563</ele>
        <time>2021-09-10T10:15:14.634Z</time>
      </trkpt>
      <trkpt lat="45.75426" lon="6.01742">
        <ele>562</ele>
        <time>2021-09-10T10:15:15.634Z</time>
      </trkpt>
      <trkpt lat="45.75433" lon="6.01744">
        <ele>562</ele>
        <time>2021-09-10T10:15:16.634Z</time>
      </trkpt>
      <trkpt lat="45.75441" lon="6.01746">
        <ele>563</ele>
        <time>2021-09-10T10:15:17.634Z</time>
      </trkpt>
      <trkpt lat="45.75448" lon="6.01747">
        <ele>563</ele>
        <time>2021-09-10T10:15:18.634Z</time>
      </trkpt>
      <trkpt lat="45.75456" lon="6.01748">
        <ele>563</ele>
        <time>2021-09-10T10:15:19.634Z</time>
      </trkpt>
      <trkpt lat="45.75463" lon="6.01749">
        <ele>562</ele>
        <time>2021-09-10T10:15:20.634Z</time>
      </trkpt>
      <trkpt lat="45.7547" lon="6.0175">
        <ele>562</ele>
        <time>2021-09-10T10:15:21.633Z</time>
      </trkpt>
      <trkpt lat="45.75477" lon="6.01751">
        <ele>562</ele>
        <time>2021-09-10T10:15:22.634Z</time>
      </trkpt>
      <trkpt lat="45.75485" lon="6.01752">
        <ele>561</ele>
        <time>2021-09-10T10:15:23.634Z</time>
      </trkpt>
      <trkpt lat="45.75492" lon="6.01753">
        <ele>560</ele>
        <time>2021-09-10T10:15:24.634Z</time>
      </trkpt>
      <trkpt lat="45.75499" lon="6.01755">
        <ele>560</ele>
        <time>2021-09-10T10:15:25.633Z</time>
      </trkpt>
      <trkpt lat="45.75506" lon="6.01757">
        <ele>560</ele>
        <time>2021-09-10T10:15:26.634Z</time>
      </trkpt>
      <trkpt lat="45.75513" lon="6.0176">
        <ele>559</ele>
        <time>2021-09-10T10:15:27.634Z</time>
      </trkpt>
      <trkpt lat="45.7552" lon="6.01763">
        <ele>559</ele>
        <time>2021-09-10T10:15:28.634Z</time>
      </trkpt>
      <trkpt lat="45.75526" lon="6.01767">
        <ele>559</ele>
        <time>2021-09-10T10:15:29.634Z</time>
      </trkpt>
      <trkpt lat="45.75532" lon="6.01771">
        <ele>559</ele>
        <time>2021-09-10T10:15:30.633Z</time>
      </trkpt>
      <trkpt lat="45.75538" lon="6.01776">
        <ele>559</ele>
        <time>2021-09-10T10:15:31.634Z</time>
      </trkpt>
      <trkpt lat="45.75543" lon="6.01781">
        <ele>559</ele>
        <time>2021-09-10T10:15:32.634Z</time>
      </trkpt>
      <trkpt lat="45.75549" lon="6.01786">
        <ele>559</ele>
        <time>2021-09-10T10:15:33.634Z</time>
      </trkpt>
      <trkpt lat="45.75554" lon="6.01792">
        <ele>559</ele>
        <time>2021-09-10T10:15:34.634Z</time>
      </trkpt>
      <trkpt lat="45.75559" lon="6.01797">
        <ele>558</ele>
        <time>2021-09-10T10:15:35.634Z</time>
      </trkpt>
      <trkpt lat="45.75564" lon="6.01802">
        <ele>558</ele>
        <time>2021-09-10T10:15:36.634Z</time>
      </trkpt>
      <trkpt lat="45.7557" lon="6.01807">
        <ele>558</ele>
        <time>2021-09-10T10:15:37.633Z</time>
      </trkpt>
      <trkpt lat="45.75575" lon="6.01812">
        <ele>558</ele>
        <time>2021-09-10T10:15:38.634Z</time>
      </trkpt>
      <trkpt lat="45.75581" lon="6.01817">
        <ele>558</ele>
        <time>2021-09-10T10:15:39.634Z</time>
      </trkpt>
      <trkpt lat="45.75587" lon="6.01822">
        <ele>558</ele>
        <time>2021-09-10T10:15:40.634Z</time>
      </trkpt>
      <trkpt lat="45.75593" lon="6.01826">
        <ele>558</ele>
        <time>2021-09-10T10:15:41.634Z</time>
      </trkpt>
      <trkpt lat="45.75599" lon="6.01831">
        <ele>558</ele>
        <time>2021-09-10T10:15:42.634Z</time>
      </trkpt>
      <trkpt lat="45.75605" lon="6.01835">
        <ele>557</ele>
        <time>2021-09-10T10:15:43.633Z</time>
      </trkpt>
      <trkpt lat="45.75611" lon="6.01839">
        <ele>557</ele>
        <time>2021-09-10T10:15:44.634Z</time>
      </trkpt>
      <trkpt lat="45.75618" lon="6.01843">
        <ele>557</ele>
        <time>2021-09-10T10:15:45.634Z</time>
      </trkpt>
      <trkpt lat="45.75624" lon="6.01848">
        <ele>557</ele>
        <time>2021-09-10T10:15:46.633Z</time>
      </trkpt>
      <trkpt lat="45.75631" lon="6.01852">
        <ele>557</ele>
        <time>2021-09-10T10:15:47.634Z</time>
      </trkpt>
      <trkpt lat="45.75637" lon="6.01856">
        <ele>557</ele>
        <time>2021-09-10T10:15:48.634Z</time>
      </trkpt>
      <trkpt lat="45.75644" lon="6.0186">
        <ele>556</ele>
        <time>2021-09-10T10:15:49.634Z</time>
      </trkpt>
      <trkpt lat="45.75651" lon="6.01865">
        <ele>556</ele>
        <time>2021-09-10T10:15:50.634Z</time>
      </trkpt>
      <trkpt lat="45.75657" lon="6.01869">
        <ele>556</ele>
        <time>2021-09-10T10:15:51.633Z</time>
      </trkpt>
      <trkpt lat="45.75664" lon="6.01873">
        <ele>557</ele>
        <time>2021-09-10T10:15:52.634Z</time>
      </trkpt>
      <trkpt lat="45.75671" lon="6.01878">
        <ele>557</ele>
        <time>2021-09-10T10:15:53.634Z</time>
      </trkpt>
      <trkpt lat="45.75677" lon="6.01882">
        <ele>557</ele>
        <time>2021-09-10T10:15:54.634Z</time>
      </trkpt>
      <trkpt lat="45.75684" lon="6.01886">
        <ele>557</ele>
        <time>2021-09-10T10:15:55.633Z</time>
      </trkpt>
      <trkpt lat="45.7569" lon="6.0189">
        <ele>558</ele>
        <time>2021-09-10T10:15:56.634Z</time>
      </trkpt>
      <trkpt lat="45.75695" lon="6.01893">
        <ele>558</ele>
        <time>2021-09-10T10:15:57.634Z</time>
      </trkpt>
      <trkpt lat="45.75701" lon="6.01897">
        <ele>558</ele>
        <time>2021-09-10T10:15:58.634Z</time>
      </trkpt>
      <trkpt lat="45.75706" lon="6.01901">
        <ele>558</ele>
        <time>2021-09-10T10:15:59.634Z</time>
      </trkpt>
      <trkpt lat="45.75711" lon="6.01904">
        <ele>559</ele>
        <time>2021-09-10T10:16:00.634Z</time>
      </trkpt>
      <trkpt lat="45.75716" lon="6.01907">
        <ele>559</ele>
        <time>2021-09-10T10:16:01.634Z</time>
      </trkpt>
      <trkpt lat="45.75721" lon="6.01911">
        <ele>559</ele>
        <time>2021-09-10T10:16:02.634Z</time>
      </trkpt>
      <trkpt lat="45.75725" lon="6.01914">
        <ele>559</ele>
        <time>2021-09-10T10:16:03.634Z</time>
      </trkpt>
      <trkpt lat="45.7573" lon="6.01916">
        <ele>559</ele>
        <time>2021-09-10T10:16:04.634Z</time>
      </trkpt>
      <trkpt lat="45.75734" lon="6.01918">
        <ele>559</ele>
        <time>2021-09-10T10:16:05.633Z</time>
      </trkpt>
      <trkpt lat="45.75739" lon="6.01921">
        <ele>559</ele>
        <time>2021-09-10T10:16:06.633Z</time>
      </trkpt>
      <trkpt lat="45.75744" lon="6.01923">
        <ele>559</ele>
        <time>2021-09-10T10:16:07.634Z</time>
      </trkpt>
      <trkpt lat="45.75748" lon="6.01927">
        <ele>559</ele>
        <time>2021-09-10T10:16:08.633Z</time>
      </trkpt>
      <trkpt lat="45.75754" lon="6.0193">
        <ele>560</ele>
        <time>2021-09-10T10:16:09.633Z</time>
      </trkpt>
      <trkpt lat="45.75759" lon="6.01933">
        <ele>560</ele>
        <time>2021-09-10T10:16:10.633Z</time>
      </trkpt>
      <trkpt lat="45.75763" lon="6.01935">
        <ele>560</ele>
        <time>2021-09-10T10:16:11.634Z</time>
      </trkpt>
      <trkpt lat="45.75768" lon="6.01937">
        <ele>560</ele>
        <time>2021-09-10T10:16:12.634Z</time>
      </trkpt>
      <trkpt lat="45.75772" lon="6.01939">
        <ele>560</ele>
        <time>2021-09-10T10:16:13.633Z</time>
      </trkpt>
      <trkpt lat="45.75776" lon="6.0194">
        <ele>561</ele>
        <time>2021-09-10T10:16:14.634Z</time>
      </trkpt>
      <trkpt lat="45.75781" lon="6.01942">
        <ele>561</ele>
        <time>2021-09-10T10:16:15.633Z</time>
      </trkpt>
      <trkpt lat="45.75785" lon="6.01943">
        <ele>561</ele>
        <time>2021-09-10T10:16:16.633Z</time>
      </trkpt>
      <trkpt lat="45.75789" lon="6.01945">
        <ele>561</ele>
        <time>2021-09-10T10:16:17.634Z</time>
      </trkpt>
      <trkpt lat="45.75794" lon="6.01946">
        <ele>561</ele>
        <time>2021-09-10T10:16:18.634Z</time>
      </trkpt>
      <trkpt lat="45.75797" lon="6.01947">
        <ele>561</ele>
        <time>2021-09-10T10:16:19.634Z</time>
      </trkpt>
      <trkpt lat="45.75801" lon="6.01948">
        <ele>561</ele>
        <time>2021-09-10T10:16:20.634Z</time>
      </trkpt>
      <trkpt lat="45.75805" lon="6.01949">
        <ele>561</ele>
        <time>2021-09-10T10:16:21.634Z</time>
      </trkpt>
      <trkpt lat="45.75809" lon="6.0195">
        <ele>561</ele>
        <time>2021-09-10T10:16:22.634Z</time>
      </trkpt>
      <trkpt lat="45.75812" lon="6.01951">
        <ele>561</ele>
        <time>2021-09-10T10:16:23.634Z</time>
      </trkpt>
      <trkpt lat="45.75817" lon="6.01953">
        <ele>561</ele>
        <time>2021-09-10T10:16:24.634Z</time>
      </trkpt>
      <trkpt lat="45.75821" lon="6.01954">
        <ele>561</ele>
        <time>2021-09-10T10:16:25.634Z</time>
      </trkpt>
      <trkpt lat="45.75825" lon="6.01956">
        <ele>560</ele>
        <time>2021-09-10T10:16:26.633Z</time>
      </trkpt>
      <trkpt lat="45.75829" lon="6.01957">
        <ele>560</ele>
        <time>2021-09-10T10:16:27.633Z</time>
      </trkpt>
      <trkpt lat="45.75834" lon="6.01959">
        <ele>560</ele>
        <time>2021-09-10T10:16:28.634Z</time>
      </trkpt>
      <trkpt lat="45.75837" lon="6.01961">
        <ele>560</ele>
        <time>2021-09-10T10:16:29.633Z</time>
      </trkpt>
      <trkpt lat="45.75841" lon="6.01962">
        <ele>560</ele>
        <time>2021-09-10T10:16:30.633Z</time>
      </trkpt>
      <trkpt lat="45.75846" lon="6.01964">
        <ele>561</ele>
        <time>2021-09-10T10:16:31.633Z</time>
      </trkpt>
      <trkpt lat="45.7585" lon="6.01966">
        <ele>561</ele>
        <time>2021-09-10T10:16:32.634Z</time>
      </trkpt>
      <trkpt lat="45.75854" lon="6.01969">
        <ele>560</ele>
        <time>2021-09-10T10:16:42.786Z</time>
      </trkpt>
      <trkpt lat="45.75859" lon="6.01971">
        <ele>560</ele>
        <time>2021-09-10T10:16:44.627Z</time>
      </trkpt>
      <trkpt lat="45.75863" lon="6.01974">
        <ele>560</ele>
        <time>2021-09-10T10:16:45.627Z</time>
      </trkpt>
      <trkpt lat="45.75867" lon="6.01976">
        <ele>560</ele>
        <time>2021-09-10T10:16:46.626Z</time>
      </trkpt>
      <trkpt lat="45.75871" lon="6.01979">
        <ele>560</ele>
        <time>2021-09-10T10:16:47.627Z</time>
      </trkpt>
      <trkpt lat="45.75875" lon="6.01981">
        <ele>561</ele>
        <time>2021-09-10T10:26:26.673Z</time>
      </trkpt>
      <trkpt lat="45.75879" lon="6.01984">
        <ele>561</ele>
        <time>2021-09-10T10:26:27.673Z</time>
      </trkpt>
      <trkpt lat="45.75883" lon="6.01987">
        <ele>561</ele>
        <time>2021-09-10T10:26:28.673Z</time>
      </trkpt>
      <trkpt lat="45.75886" lon="6.0199">
        <ele>561</ele>
        <time>2021-09-10T10:26:29.672Z</time>
      </trkpt>
      <trkpt lat="45.7589" lon="6.01993">
        <ele>561</ele>
        <time>2021-09-10T10:26:30.673Z</time>
      </trkpt>
      <trkpt lat="45.75894" lon="6.01997">
        <ele>561</ele>
        <time>2021-09-10T10:26:31.673Z</time>
      </trkpt>
      <trkpt lat="45.75896" lon="6.02">
        <ele>561</ele>
        <time>2021-09-10T10:26:32.673Z</time>
      </trkpt>
      <trkpt lat="45.75899" lon="6.02003">
        <ele>561</ele>
        <time>2021-09-10T10:26:33.673Z</time>
      </trkpt>
      <trkpt lat="45.75902" lon="6.02007">
        <ele>560</ele>
        <time>2021-09-10T10:26:34.673Z</time>
      </trkpt>
      <trkpt lat="45.75905" lon="6.0201">
        <ele>561</ele>
        <time>2021-09-10T10:26:35.673Z</time>
      </trkpt>
      <trkpt lat="45.75908" lon="6.02014">
        <ele>561</ele>
        <time>2021-09-10T10:26:36.672Z</time>
      </trkpt>
      <trkpt lat="45.75911" lon="6.02018">
        <ele>561</ele>
        <time>2021-09-10T10:26:37.673Z</time>
      </trkpt>
      <trkpt lat="45.75914" lon="6.02021">
        <ele>561</ele>
        <time>2021-09-10T10:26:38.673Z</time>
      </trkpt>
      <trkpt lat="45.75916" lon="6.02025">
        <ele>561</ele>
        <time>2021-09-10T10:26:39.673Z</time>
      </trkpt>
      <trkpt lat="45.75919" lon="6.02028">
        <ele>562</ele>
        <time>2021-09-10T10:26:40.673Z</time>
      </trkpt>
      <trkpt lat="45.75922" lon="6.02032">
        <ele>562</ele>
        <time>2021-09-10T10:26:41.673Z</time>
      </trkpt>
      <trkpt lat="45.75925" lon="6.02036">
        <ele>563</ele>
        <time>2021-09-10T10:26:42.673Z</time>
      </trkpt>
      <trkpt lat="45.75927" lon="6.0204">
        <ele>563</ele>
        <time>2021-09-10T10:26:43.673Z</time>
      </trkpt>
      <trkpt lat="45.7593" lon="6.02043">
        <ele>563</ele>
        <time>2021-09-10T10:26:44.673Z</time>
      </trkpt>
      <trkpt lat="45.75932" lon="6.02048">
        <ele>564</ele>
        <time>2021-09-10T10:26:45.673Z</time>
      </trkpt>
      <trkpt lat="45.75934" lon="6.02052">
        <ele>564</ele>
        <time>2021-09-10T10:26:46.672Z</time>
      </trkpt>
      <trkpt lat="45.75937" lon="6.02056">
        <ele>565</ele>
        <time>2021-09-10T10:26:47.673Z</time>
      </trkpt>
      <trkpt lat="45.7594" lon="6.02061">
        <ele>565</ele>
        <time>2021-09-10T10:26:48.673Z</time>
      </trkpt>
      <trkpt lat="45.75942" lon="6.02065">
        <ele>565</ele>
        <time>2021-09-10T10:26:49.673Z</time>
      </trkpt>
      <trkpt lat="45.75944" lon="6.02069">
        <ele>565</ele>
        <time>2021-09-10T10:26:50.672Z</time>
      </trkpt>
      <trkpt lat="45.75947" lon="6.02073">
        <ele>565</ele>
        <time>2021-09-10T10:26:51.673Z</time>
      </trkpt>
      <trkpt lat="45.75949" lon="6.02077">
        <ele>566</ele>
        <time>2021-09-10T10:26:52.673Z</time>
      </trkpt>
      <trkpt lat="45.75952" lon="6.0208">
        <ele>566</ele>
        <time>2021-09-10T10:26:53.673Z</time>
      </trkpt>
      <trkpt lat="45.75955" lon="6.02083">
        <ele>565</ele>
        <time>2021-09-10T10:26:54.673Z</time>
      </trkpt>
      <trkpt lat="45.75958" lon="6.02087">
        <ele>565</ele>
        <time>2021-09-10T10:26:55.673Z</time>
      </trkpt>
      <trkpt lat="45.75961" lon="6.0209">
        <ele>565</ele>
        <time>2021-09-10T10:26:56.673Z</time>
      </trkpt>
      <trkpt lat="45.75964" lon="6.02093">
        <ele>565</ele>
        <time>2021-09-10T10:26:57.672Z</time>
      </trkpt>
      <trkpt lat="45.75967" lon="6.02096">
        <ele>565</ele>
        <time>2021-09-10T10:26:58.673Z</time>
      </trkpt>
      <trkpt lat="45.7597" lon="6.02099">
        <ele>565</ele>
        <time>2021-09-10T10:26:59.673Z</time>
      </trkpt>
      <trkpt lat="45.75973" lon="6.02102">
        <ele>565</ele>
        <time>2021-09-10T10:27:00.673Z</time>
      </trkpt>
      <trkpt lat="45.75977" lon="6.02105">
        <ele>566</ele>
        <time>2021-09-10T10:27:01.673Z</time>
      </trkpt>
      <trkpt lat="45.7598" lon="6.02108">
        <ele>566</ele>
        <time>2021-09-10T10:27:02.673Z</time>
      </trkpt>
      <trkpt lat="45.75983" lon="6.02112">
        <ele>566</ele>
        <time>2021-09-10T10:27:03.673Z</time>
      </trkpt>
      <trkpt lat="45.75986" lon="6.02115">
        <ele>566</ele>
        <time>2021-09-10T10:27:04.673Z</time>
      </trkpt>
      <trkpt lat="45.75989" lon="6.02119">
        <ele>566</ele>
        <time>2021-09-10T10:27:05.673Z</time>
      </trkpt>
      <trkpt lat="45.75993" lon="6.02123">
        <ele>567</ele>
        <time>2021-09-10T10:27:06.673Z</time>
      </trkpt>
      <trkpt lat="45.75996" lon="6.02127">
        <ele>567</ele>
        <time>2021-09-10T10:27:07.673Z</time>
      </trkpt>
      <trkpt lat="45.76" lon="6.02131">
        <ele>567</ele>
        <time>2021-09-10T10:27:08.672Z</time>
      </trkpt>
      <trkpt lat="45.76003" lon="6.02134">
        <ele>567</ele>
        <time>2021-09-10T10:27:09.673Z</time>
      </trkpt>
      <trkpt lat="45.76007" lon="6.02138">
        <ele>567</ele>
        <time>2021-09-10T10:27:10.673Z</time>
      </trkpt>
      <trkpt lat="45.7601" lon="6.02143">
        <ele>567</ele>
        <time>2021-09-10T10:27:11.673Z</time>
      </trkpt>
      <trkpt lat="45.76014" lon="6.02147">
        <ele>566</ele>
        <time>2021-09-10T10:27:12.673Z</time>
      </trkpt>
      <trkpt lat="45.76017" lon="6.02152">
        <ele>566</ele>
        <time>2021-09-10T10:27:13.673Z</time>
      </trkpt>
      <trkpt lat="45.7602" lon="6.02156">
        <ele>566</ele>
        <time>2021-09-10T10:27:14.673Z</time>
      </trkpt>
      <trkpt lat="45.76024" lon="6.0216">
        <ele>566</ele>
        <time>2021-09-10T10:27:15.673Z</time>
      </trkpt>
      <trkpt lat="45.76027" lon="6.02164">
        <ele>566</ele>
        <time>2021-09-10T10:27:16.673Z</time>
      </trkpt>
      <trkpt lat="45.7603" lon="6.02168">
        <ele>567</ele>
        <time>2021-09-10T10:27:17.672Z</time>
      </trkpt>
      <trkpt lat="45.76033" lon="6.02172">
        <ele>567</ele>
        <time>2021-09-10T10:27:18.673Z</time>
      </trkpt>
      <trkpt lat="45.76036" lon="6.02177">
        <ele>568</ele>
        <time>2021-09-10T10:27:19.673Z</time>
      </trkpt>
      <trkpt lat="45.76039" lon="6.02181">
        <ele>568</ele>
        <time>2021-09-10T10:27:20.673Z</time>
      </trkpt>
      <trkpt lat="45.76042" lon="6.02186">
        <ele>569</ele>
        <time>2021-09-10T10:27:21.673Z</time>
      </trkpt>
      <trkpt lat="45.76045" lon="6.0219">
        <ele>569</ele>
        <time>2021-09-10T10:27:22.673Z</time>
      </trkpt>
      <trkpt lat="45.76048" lon="6.02195">
        <ele>569</ele>
        <time>2021-09-10T10:27:23.672Z</time>
      </trkpt>
      <trkpt lat="45.76051" lon="6.022">
        <ele>569</ele>
        <time>2021-09-10T10:27:24.673Z</time>
      </trkpt>
      <trkpt lat="45.76054" lon="6.02204">
        <ele>569</ele>
        <time>2021-09-10T10:27:25.673Z</time>
      </trkpt>
      <trkpt lat="45.76057" lon="6.02209">
        <ele>569</ele>
        <time>2021-09-10T10:27:26.672Z</time>
      </trkpt>
      <trkpt lat="45.7606" lon="6.02214">
        <ele>569</ele>
        <time>2021-09-10T10:27:27.673Z</time>
      </trkpt>
      <trkpt lat="45.76063" lon="6.02219">
        <ele>569</ele>
        <time>2021-09-10T10:27:28.673Z</time>
      </trkpt>
      <trkpt lat="45.76066" lon="6.02224">
        <ele>569</ele>
        <time>2021-09-10T10:27:29.673Z</time>
      </trkpt>
      <trkpt lat="45.76069" lon="6.02229">
        <ele>569</ele>
        <time>2021-09-10T10:27:30.673Z</time>
      </trkpt>
      <trkpt lat="45.76071" lon="6.02233">
        <ele>569</ele>
        <time>2021-09-10T10:27:31.673Z</time>
      </trkpt>
      <trkpt lat="45.76074" lon="6.02238">
        <ele>569</ele>
        <time>2021-09-10T10:27:32.673Z</time>
      </trkpt>
      <trkpt lat="45.76077" lon="6.02242">
        <ele>569</ele>
        <time>2021-09-10T10:27:33.673Z</time>
      </trkpt>
      <trkpt lat="45.7608" lon="6.02246">
        <ele>569</ele>
        <time>2021-09-10T10:27:34.673Z</time>
      </trkpt>
      <trkpt lat="45.76084" lon="6.0225">
        <ele>569</ele>
        <time>2021-09-10T10:27:35.673Z</time>
      </trkpt>
      <trkpt lat="45.76088" lon="6.02254">
        <ele>569</ele>
        <time>2021-09-10T10:27:36.672Z</time>
      </trkpt>
      <trkpt lat="45.76092" lon="6.02258">
        <ele>569</ele>
        <time>2021-09-10T10:27:37.672Z</time>
      </trkpt>
      <trkpt lat="45.76095" lon="6.02263">
        <ele>568</ele>
        <time>2021-09-10T10:27:38.673Z</time>
      </trkpt>
      <trkpt lat="45.76098" lon="6.02269">
        <ele>568</ele>
        <time>2021-09-10T10:27:39.673Z</time>
      </trkpt>
      <trkpt lat="45.76099" lon="6.02276">
        <ele>567</ele>
        <time>2021-09-10T10:27:40.673Z</time>
      </trkpt>
      <trkpt lat="45.76099" lon="6.02285">
        <ele>566</ele>
        <time>2021-09-10T10:27:41.673Z</time>
      </trkpt>
      <trkpt lat="45.76099" lon="6.02294">
        <ele>566</ele>
        <time>2021-09-10T10:27:42.673Z</time>
      </trkpt>
      <trkpt lat="45.76098" lon="6.02304">
        <ele>565</ele>
        <time>2021-09-10T10:27:43.673Z</time>
      </trkpt>
      <trkpt lat="45.76096" lon="6.02313">
        <ele>565</ele>
        <time>2021-09-10T10:27:44.673Z</time>
      </trkpt>
      <trkpt lat="45.76094" lon="6.02322">
        <ele>564</ele>
        <time>2021-09-10T10:27:45.672Z</time>
      </trkpt>
      <trkpt lat="45.76092" lon="6.02332">
        <ele>563</ele>
        <time>2021-09-10T10:27:46.673Z</time>
      </trkpt>
      <trkpt lat="45.7609" lon="6.02342">
        <ele>563</ele>
        <time>2021-09-10T10:27:47.673Z</time>
      </trkpt>
      <trkpt lat="45.76088" lon="6.02352">
        <ele>563</ele>
        <time>2021-09-10T10:27:48.673Z</time>
      </trkpt>
      <trkpt lat="45.76088" lon="6.02362">
        <ele>562</ele>
        <time>2021-09-10T10:27:49.673Z</time>
      </trkpt>
      <trkpt lat="45.76089" lon="6.02371">
        <ele>562</ele>
        <time>2021-09-10T10:27:50.672Z</time>
      </trkpt>
      <trkpt lat="45.7609" lon="6.02381">
        <ele>561</ele>
        <time>2021-09-10T10:27:51.673Z</time>
      </trkpt>
      <trkpt lat="45.76093" lon="6.0239">
        <ele>561</ele>
        <time>2021-09-10T10:27:52.673Z</time>
      </trkpt>
      <trkpt lat="45.76096" lon="6.02398">
        <ele>560</ele>
        <time>2021-09-10T10:27:53.673Z</time>
      </trkpt>
      <trkpt lat="45.761" lon="6.02407">
        <ele>560</ele>
        <time>2021-09-10T10:27:54.673Z</time>
      </trkpt>
      <trkpt lat="45.76105" lon="6.02414">
        <ele>559</ele>
        <time>2021-09-10T10:27:55.673Z</time>
      </trkpt>
      <trkpt lat="45.7611" lon="6.0242">
        <ele>559</ele>
        <time>2021-09-10T10:27:56.673Z</time>
      </trkpt>
      <trkpt lat="45.76116" lon="6.02426">
        <ele>559</ele>
        <time>2021-09-10T10:27:57.672Z</time>
      </trkpt>
      <trkpt lat="45.76123" lon="6.02431">
        <ele>559</ele>
        <time>2021-09-10T10:27:58.673Z</time>
      </trkpt>
      <trkpt lat="45.7613" lon="6.02435">
        <ele>559</ele>
        <time>2021-09-10T10:27:59.672Z</time>
      </trkpt>
      <trkpt lat="45.76137" lon="6.02439">
        <ele>559</ele>
        <time>2021-09-10T10:28:00.673Z</time>
      </trkpt>
      <trkpt lat="45.76145" lon="6.02443">
        <ele>559</ele>
        <time>2021-09-10T10:28:01.673Z</time>
      </trkpt>
      <trkpt lat="45.76153" lon="6.02446">
        <ele>559</ele>
        <time>2021-09-10T10:28:02.673Z</time>
      </trkpt>
      <trkpt lat="45.76159" lon="6.0245">
        <ele>559</ele>
        <time>2021-09-10T10:28:03.672Z</time>
      </trkpt>
      <trkpt lat="45.76165" lon="6.02453">
        <ele>558</ele>
        <time>2021-09-10T10:28:04.673Z</time>
      </trkpt>
      <trkpt lat="45.76172" lon="6.02456">
        <ele>558</ele>
        <time>2021-09-10T10:28:05.673Z</time>
      </trkpt>
      <trkpt lat="45.76177" lon="6.02459">
        <ele>557</ele>
        <time>2021-09-10T10:28:06.673Z</time>
      </trkpt>
      <trkpt lat="45.76182" lon="6.02461">
        <ele>557</ele>
        <time>2021-09-10T10:28:07.673Z</time>
      </trkpt>
      <trkpt lat="45.76186" lon="6.02463">
        <ele>557</ele>
        <time>2021-09-10T10:28:08.673Z</time>
      </trkpt>
      <trkpt lat="45.7619" lon="6.02465">
        <ele>556</ele>
        <time>2021-09-10T10:28:09.673Z</time>
      </trkpt>
      <trkpt lat="45.76193" lon="6.02467">
        <ele>556</ele>
        <time>2021-09-10T10:28:10.673Z</time>
      </trkpt>
      <trkpt lat="45.76195" lon="6.02469">
        <ele>556</ele>
        <time>2021-09-10T10:28:11.672Z</time>
      </trkpt>
      <trkpt lat="45.76197" lon="6.0247">
        <ele>556</ele>
        <time>2021-09-10T10:28:12.673Z</time>
      </trkpt>
      <trkpt lat="45.76197" lon="6.0247">
        <ele>555</ele>
        <time>2021-09-10T10:28:13.673Z</time>
      </trkpt>
      <trkpt lat="45.76197" lon="6.0247">
        <ele>555</ele>
        <time>2021-09-10T10:28:14.673Z</time>
      </trkpt>
      <trkpt lat="45.76197" lon="6.0247">
        <ele>554</ele>
        <time>2021-09-10T10:28:15.673Z</time>
      </trkpt>
      <trkpt lat="45.76199" lon="6.02472">
        <ele>556</ele>
        <time>2021-09-10T10:28:16.674Z</time>
      </trkpt>
      <trkpt lat="45.76199" lon="6.02475">
        <ele>556</ele>
        <time>2021-09-10T10:28:17.674Z</time>
      </trkpt>
      <trkpt lat="45.76199" lon="6.02479">
        <ele>556</ele>
        <time>2021-09-10T10:28:18.673Z</time>
      </trkpt>
      <trkpt lat="45.762" lon="6.02481">
        <ele>556</ele>
        <time>2021-09-10T10:28:19.674Z</time>
      </trkpt>
      <trkpt lat="45.762" lon="6.02484">
        <ele>556</ele>
        <time>2021-09-10T10:28:20.674Z</time>
      </trkpt>
      <trkpt lat="45.76201" lon="6.02486">
        <ele>556</ele>
        <time>2021-09-10T10:28:21.674Z</time>
      </trkpt>
      <trkpt lat="45.76202" lon="6.02488">
        <ele>557</ele>
        <time>2021-09-10T10:28:22.673Z</time>
      </trkpt>
      <trkpt lat="45.76202" lon="6.0249">
        <ele>557</ele>
        <time>2021-09-10T10:28:23.674Z</time>
      </trkpt>
      <trkpt lat="45.76203" lon="6.02492">
        <ele>557</ele>
        <time>2021-09-10T10:28:24.674Z</time>
      </trkpt>
      <trkpt lat="45.76203" lon="6.02495">
        <ele>557</ele>
        <time>2021-09-10T10:28:25.673Z</time>
      </trkpt>
      <trkpt lat="45.76204" lon="6.02498">
        <ele>557</ele>
        <time>2021-09-10T10:28:26.674Z</time>
      </trkpt>
      <trkpt lat="45.76204" lon="6.02502">
        <ele>556</ele>
        <time>2021-09-10T10:28:27.673Z</time>
      </trkpt>
      <trkpt lat="45.76205" lon="6.02506">
        <ele>555</ele>
        <time>2021-09-10T10:28:28.673Z</time>
      </trkpt>
      <trkpt lat="45.76205" lon="6.02509">
        <ele>554</ele>
        <time>2021-09-10T10:28:29.674Z</time>
      </trkpt>
      <trkpt lat="45.76206" lon="6.02513">
        <ele>553</ele>
        <time>2021-09-10T10:28:30.674Z</time>
      </trkpt>
      <trkpt lat="45.76207" lon="6.02518">
        <ele>553</ele>
        <time>2021-09-10T10:28:31.674Z</time>
      </trkpt>
      <trkpt lat="45.76207" lon="6.02522">
        <ele>553</ele>
        <time>2021-09-10T10:28:32.673Z</time>
      </trkpt>
      <trkpt lat="45.76208" lon="6.02526">
        <ele>553</ele>
        <time>2021-09-10T10:28:33.674Z</time>
      </trkpt>
      <trkpt lat="45.76209" lon="6.0253">
        <ele>554</ele>
        <time>2021-09-10T10:28:34.674Z</time>
      </trkpt>
      <trkpt lat="45.7621" lon="6.02534">
        <ele>554</ele>
        <time>2021-09-10T10:28:35.674Z</time>
      </trkpt>
      <trkpt lat="45.76211" lon="6.02538">
        <ele>554</ele>
        <time>2021-09-10T10:28:36.674Z</time>
      </trkpt>
      <trkpt lat="45.76213" lon="6.02542">
        <ele>554</ele>
        <time>2021-09-10T10:28:37.674Z</time>
      </trkpt>
      <trkpt lat="45.76214" lon="6.02547">
        <ele>554</ele>
        <time>2021-09-10T10:28:38.673Z</time>
      </trkpt>
      <trkpt lat="45.76215" lon="6.02551">
        <ele>555</ele>
        <time>2021-09-10T10:28:39.674Z</time>
      </trkpt>
      <trkpt lat="45.76217" lon="6.02555">
        <ele>555</ele>
        <time>2021-09-10T10:28:40.674Z</time>
      </trkpt>
      <trkpt lat="45.76218" lon="6.0256">
        <ele>555</ele>
        <time>2021-09-10T10:28:41.674Z</time>
      </trkpt>
      <trkpt lat="45.7622" lon="6.02564">
        <ele>555</ele>
        <time>2021-09-10T10:28:42.674Z</time>
      </trkpt>
      <trkpt lat="45.76221" lon="6.02568">
        <ele>556</ele>
        <time>2021-09-10T10:28:43.674Z</time>
      </trkpt>
      <trkpt lat="45.76223" lon="6.02573">
        <ele>555</ele>
        <time>2021-09-10T10:28:44.673Z</time>
      </trkpt>
      <trkpt lat="45.76225" lon="6.02578">
        <ele>555</ele>
        <time>2021-09-10T10:28:45.674Z</time>
      </trkpt>
      <trkpt lat="45.76227" lon="6.02583">
        <ele>555</ele>
        <time>2021-09-10T10:28:46.674Z</time>
      </trkpt>
      <trkpt lat="45.76229" lon="6.02587">
        <ele>555</ele>
        <time>2021-09-10T10:28:47.674Z</time>
      </trkpt>
      <trkpt lat="45.76231" lon="6.02592">
        <ele>555</ele>
        <time>2021-09-10T10:28:48.674Z</time>
      </trkpt>
      <trkpt lat="45.76233" lon="6.02597">
        <ele>555</ele>
        <time>2021-09-10T10:28:49.673Z</time>
      </trkpt>
      <trkpt lat="45.76235" lon="6.02602">
        <ele>555</ele>
        <time>2021-09-10T10:28:50.673Z</time>
      </trkpt>
      <trkpt lat="45.76238" lon="6.02607">
        <ele>555</ele>
        <time>2021-09-10T10:28:51.673Z</time>
      </trkpt>
      <trkpt lat="45.7624" lon="6.02612">
        <ele>555</ele>
        <time>2021-09-10T10:28:52.673Z</time>
      </trkpt>
      <trkpt lat="45.76242" lon="6.02618">
        <ele>554</ele>
        <time>2021-09-10T10:28:53.674Z</time>
      </trkpt>
      <trkpt lat="45.76245" lon="6.02623">
        <ele>554</ele>
        <time>2021-09-10T10:28:54.674Z</time>
      </trkpt>
      <trkpt lat="45.76248" lon="6.02628">
        <ele>553</ele>
        <time>2021-09-10T10:28:55.674Z</time>
      </trkpt>
      <trkpt lat="45.7625" lon="6.02633">
        <ele>553</ele>
        <time>2021-09-10T10:28:56.674Z</time>
      </trkpt>
      <trkpt lat="45.76253" lon="6.02639">
        <ele>553</ele>
        <time>2021-09-10T10:28:57.674Z</time>
      </trkpt>
      <trkpt lat="45.76256" lon="6.02644">
        <ele>553</ele>
        <time>2021-09-10T10:28:58.673Z</time>
      </trkpt>
      <trkpt lat="45.76258" lon="6.0265">
        <ele>553</ele>
        <time>2021-09-10T10:28:59.673Z</time>
      </trkpt>
      <trkpt lat="45.76261" lon="6.02655">
        <ele>554</ele>
        <time>2021-09-10T10:29:00.674Z</time>
      </trkpt>
      <trkpt lat="45.76264" lon="6.0266">
        <ele>554</ele>
        <time>2021-09-10T10:29:01.674Z</time>
      </trkpt>
      <trkpt lat="45.76266" lon="6.02665">
        <ele>554</ele>
        <time>2021-09-10T10:29:02.673Z</time>
      </trkpt>
      <trkpt lat="45.76269" lon="6.02671">
        <ele>554</ele>
        <time>2021-09-10T10:29:03.674Z</time>
      </trkpt>
      <trkpt lat="45.76271" lon="6.02677">
        <ele>554</ele>
        <time>2021-09-10T10:29:04.674Z</time>
      </trkpt>
      <trkpt lat="45.76274" lon="6.02682">
        <ele>553</ele>
        <time>2021-09-10T10:29:05.674Z</time>
      </trkpt>
      <trkpt lat="45.76276" lon="6.02688">
        <ele>552</ele>
        <time>2021-09-10T10:29:06.673Z</time>
      </trkpt>
      <trkpt lat="45.76278" lon="6.02693">
        <ele>552</ele>
        <time>2021-09-10T10:29:07.674Z</time>
      </trkpt>
      <trkpt lat="45.76282" lon="6.02698">
        <ele>552</ele>
        <time>2021-09-10T10:29:08.673Z</time>
      </trkpt>
      <trkpt lat="45.76285" lon="6.02703">
        <ele>552</ele>
        <time>2021-09-10T10:29:09.674Z</time>
      </trkpt>
      <trkpt lat="45.76288" lon="6.02709">
        <ele>552</ele>
        <time>2021-09-10T10:29:10.673Z</time>
      </trkpt>
      <trkpt lat="45.76291" lon="6.02715">
        <ele>552</ele>
        <time>2021-09-10T10:29:11.674Z</time>
      </trkpt>
      <trkpt lat="45.76295" lon="6.02721">
        <ele>552</ele>
        <time>2021-09-10T10:29:12.674Z</time>
      </trkpt>
      <trkpt lat="45.76298" lon="6.02727">
        <ele>552</ele>
        <time>2021-09-10T10:29:13.674Z</time>
      </trkpt>
      <trkpt lat="45.76302" lon="6.02733">
        <ele>551</ele>
        <time>2021-09-10T10:29:14.673Z</time>
      </trkpt>
      <trkpt lat="45.76305" lon="6.02739">
        <ele>551</ele>
        <time>2021-09-10T10:29:15.674Z</time>
      </trkpt>
      <trkpt lat="45.76309" lon="6.02745">
        <ele>551</ele>
        <time>2021-09-10T10:29:16.674Z</time>
      </trkpt>
      <trkpt lat="45.76312" lon="6.02751">
        <ele>550</ele>
        <time>2021-09-10T10:29:17.674Z</time>
      </trkpt>
      <trkpt lat="45.76315" lon="6.02757">
        <ele>550</ele>
        <time>2021-09-10T10:29:18.674Z</time>
      </trkpt>
      <trkpt lat="45.76318" lon="6.02763">
        <ele>550</ele>
        <time>2021-09-10T10:29:19.674Z</time>
      </trkpt>
      <trkpt lat="45.76321" lon="6.02768">
        <ele>550</ele>
        <time>2021-09-10T10:29:20.674Z</time>
      </trkpt>
      <trkpt lat="45.76325" lon="6.02774">
        <ele>550</ele>
        <time>2021-09-10T10:29:21.674Z</time>
      </trkpt>
      <trkpt lat="45.76328" lon="6.02779">
        <ele>550</ele>
        <time>2021-09-10T10:29:22.674Z</time>
      </trkpt>
      <trkpt lat="45.76332" lon="6.02785">
        <ele>550</ele>
        <time>2021-09-10T10:29:23.674Z</time>
      </trkpt>
      <trkpt lat="45.76336" lon="6.0279">
        <ele>551</ele>
        <time>2021-09-10T10:29:24.674Z</time>
      </trkpt>
      <trkpt lat="45.7634" lon="6.02795">
        <ele>551</ele>
        <time>2021-09-10T10:29:25.674Z</time>
      </trkpt>
      <trkpt lat="45.76344" lon="6.02801">
        <ele>551</ele>
        <time>2021-09-10T10:29:26.674Z</time>
      </trkpt>
      <trkpt lat="45.76347" lon="6.02806">
        <ele>551</ele>
        <time>2021-09-10T10:29:27.674Z</time>
      </trkpt>
      <trkpt lat="45.76352" lon="6.02811">
        <ele>551</ele>
        <time>2021-09-10T10:29:28.674Z</time>
      </trkpt>
      <trkpt lat="45.76356" lon="6.02817">
        <ele>551</ele>
        <time>2021-09-10T10:29:29.674Z</time>
      </trkpt>
      <trkpt lat="45.7636" lon="6.02822">
        <ele>552</ele>
        <time>2021-09-10T10:29:30.674Z</time>
      </trkpt>
      <trkpt lat="45.76364" lon="6.02827">
        <ele>552</ele>
        <time>2021-09-10T10:29:31.673Z</time>
      </trkpt>
      <trkpt lat="45.76368" lon="6.02833">
        <ele>552</ele>
        <time>2021-09-10T10:29:32.673Z</time>
      </trkpt>
      <trkpt lat="45.76372" lon="6.02838">
        <ele>552</ele>
        <time>2021-09-10T10:29:33.674Z</time>
      </trkpt>
      <trkpt lat="45.76376" lon="6.02843">
        <ele>552</ele>
        <time>2021-09-10T10:29:34.674Z</time>
      </trkpt>
      <trkpt lat="45.76381" lon="6.02849">
        <ele>552</ele>
        <time>2021-09-10T10:29:35.673Z</time>
      </trkpt>
      <trkpt lat="45.76385" lon="6.02854">
        <ele>551</ele>
        <time>2021-09-10T10:29:36.673Z</time>
      </trkpt>
      <trkpt lat="45.76389" lon="6.02859">
        <ele>551</ele>
        <time>2021-09-10T10:29:37.673Z</time>
      </trkpt>
      <trkpt lat="45.76394" lon="6.02865">
        <ele>551</ele>
        <time>2021-09-10T10:29:38.674Z</time>
      </trkpt>
      <trkpt lat="45.76398" lon="6.0287">
        <ele>551</ele>
        <time>2021-09-10T10:29:39.673Z</time>
      </trkpt>
      <trkpt lat="45.76402" lon="6.02876">
        <ele>551</ele>
        <time>2021-09-10T10:29:40.674Z</time>
      </trkpt>
      <trkpt lat="45.76406" lon="6.02881">
        <ele>551</ele>
        <time>2021-09-10T10:29:41.674Z</time>
      </trkpt>
      <trkpt lat="45.7641" lon="6.02886">
        <ele>551</ele>
        <time>2021-09-10T10:29:42.674Z</time>
      </trkpt>
      <trkpt lat="45.76415" lon="6.02891">
        <ele>551</ele>
        <time>2021-09-10T10:29:43.673Z</time>
      </trkpt>
      <trkpt lat="45.76419" lon="6.02896">
        <ele>551</ele>
        <time>2021-09-10T10:29:44.674Z</time>
      </trkpt>
      <trkpt lat="45.76423" lon="6.02901">
        <ele>551</ele>
        <time>2021-09-10T10:29:45.674Z</time>
      </trkpt>
      <trkpt lat="45.76427" lon="6.02906">
        <ele>551</ele>
        <time>2021-09-10T10:29:46.674Z</time>
      </trkpt>
      <trkpt lat="45.76431" lon="6.02912">
        <ele>551</ele>
        <time>2021-09-10T10:29:47.674Z</time>
      </trkpt>
      <trkpt lat="45.76435" lon="6.02917">
        <ele>551</ele>
        <time>2021-09-10T10:29:48.674Z</time>
      </trkpt>
      <trkpt lat="45.76439" lon="6.02923">
        <ele>551</ele>
        <time>2021-09-10T10:29:49.674Z</time>
      </trkpt>
      <trkpt lat="45.76443" lon="6.02928">
        <ele>551</ele>
        <time>2021-09-10T10:29:50.674Z</time>
      </trkpt>
      <trkpt lat="45.76447" lon="6.02934">
        <ele>550</ele>
        <time>2021-09-10T10:29:51.674Z</time>
      </trkpt>
      <trkpt lat="45.76451" lon="6.02939">
        <ele>550</ele>
        <time>2021-09-10T10:29:52.673Z</time>
      </trkpt>
      <trkpt lat="45.76455" lon="6.02944">
        <ele>550</ele>
        <time>2021-09-10T10:29:53.674Z</time>
      </trkpt>
      <trkpt lat="45.76459" lon="6.02948">
        <ele>550</ele>
        <time>2021-09-10T10:29:54.674Z</time>
      </trkpt>
      <trkpt lat="45.76463" lon="6.02953">
        <ele>550</ele>
        <time>2021-09-10T10:29:55.673Z</time>
      </trkpt>
      <trkpt lat="45.76466" lon="6.02958">
        <ele>551</ele>
        <time>2021-09-10T10:29:56.674Z</time>
      </trkpt>
      <trkpt lat="45.7647" lon="6.02963">
        <ele>551</ele>
        <time>2021-09-10T10:29:57.673Z</time>
      </trkpt>
      <trkpt lat="45.76474" lon="6.02968">
        <ele>551</ele>
        <time>2021-09-10T10:29:58.674Z</time>
      </trkpt>
      <trkpt lat="45.76477" lon="6.02973">
        <ele>551</ele>
        <time>2021-09-10T10:29:59.674Z</time>
      </trkpt>
      <trkpt lat="45.76481" lon="6.02977">
        <ele>551</ele>
        <time>2021-09-10T10:30:00.674Z</time>
      </trkpt>
      <trkpt lat="45.76484" lon="6.02982">
        <ele>552</ele>
        <time>2021-09-10T10:30:01.674Z</time>
      </trkpt>
      <trkpt lat="45.76488" lon="6.02987">
        <ele>552</ele>
        <time>2021-09-10T10:30:02.674Z</time>
      </trkpt>
      <trkpt lat="45.76491" lon="6.02992">
        <ele>552</ele>
        <time>2021-09-10T10:30:03.673Z</time>
      </trkpt>
      <trkpt lat="45.76494" lon="6.02997">
        <ele>552</ele>
        <time>2021-09-10T10:30:04.674Z</time>
      </trkpt>
      <trkpt lat="45.76497" lon="6.03002">
        <ele>552</ele>
        <time>2021-09-10T10:30:05.674Z</time>
      </trkpt>
      <trkpt lat="45.765" lon="6.03008">
        <ele>552</ele>
        <time>2021-09-10T10:30:06.674Z</time>
      </trkpt>
      <trkpt lat="45.76502" lon="6.03014">
        <ele>551</ele>
        <time>2021-09-10T10:30:07.674Z</time>
      </trkpt>
      <trkpt lat="45.76503" lon="6.0302">
        <ele>552</ele>
        <time>2021-09-10T10:30:08.673Z</time>
      </trkpt>
      <trkpt lat="45.76504" lon="6.03027">
        <ele>551</ele>
        <time>2021-09-10T10:30:09.674Z</time>
      </trkpt>
      <trkpt lat="45.76505" lon="6.03034">
        <ele>551</ele>
        <time>2021-09-10T10:30:10.674Z</time>
      </trkpt>
      <trkpt lat="45.76505" lon="6.0304">
        <ele>551</ele>
        <time>2021-09-10T10:30:11.674Z</time>
      </trkpt>
      <trkpt lat="45.76504" lon="6.03047">
        <ele>550</ele>
        <time>2021-09-10T10:30:12.673Z</time>
      </trkpt>
      <trkpt lat="45.76503" lon="6.03053">
        <ele>550</ele>
        <time>2021-09-10T10:30:13.674Z</time>
      </trkpt>
      <trkpt lat="45.76501" lon="6.03059">
        <ele>550</ele>
        <time>2021-09-10T10:30:14.674Z</time>
      </trkpt>
      <trkpt lat="45.76499" lon="6.03064">
        <ele>549</ele>
        <time>2021-09-10T10:30:15.674Z</time>
      </trkpt>
      <trkpt lat="45.76496" lon="6.03069">
        <ele>550</ele>
        <time>2021-09-10T10:30:16.673Z</time>
      </trkpt>
      <trkpt lat="45.76494" lon="6.03074">
        <ele>550</ele>
        <time>2021-09-10T10:30:17.674Z</time>
      </trkpt>
      <trkpt lat="45.76492" lon="6.03079">
        <ele>551</ele>
        <time>2021-09-10T10:30:18.673Z</time>
      </trkpt>
      <trkpt lat="45.7649" lon="6.03084">
        <ele>551</ele>
        <time>2021-09-10T10:30:19.673Z</time>
      </trkpt>
      <trkpt lat="45.76489" lon="6.03089">
        <ele>552</ele>
        <time>2021-09-10T10:30:20.673Z</time>
      </trkpt>
      <trkpt lat="45.76488" lon="6.03094">
        <ele>552</ele>
        <time>2021-09-10T10:30:21.673Z</time>
      </trkpt>
      <trkpt lat="45.76487" lon="6.03099">
        <ele>552</ele>
        <time>2021-09-10T10:30:22.674Z</time>
      </trkpt>
      <trkpt lat="45.76486" lon="6.03104">
        <ele>552</ele>
        <time>2021-09-10T10:30:23.674Z</time>
      </trkpt>
      <trkpt lat="45.76485" lon="6.03109">
        <ele>552</ele>
        <time>2021-09-10T10:30:24.674Z</time>
      </trkpt>
      <trkpt lat="45.76485" lon="6.03113">
        <ele>552</ele>
        <time>2021-09-10T10:30:25.674Z</time>
      </trkpt>
      <trkpt lat="45.76484" lon="6.03118">
        <ele>552</ele>
        <time>2021-09-10T10:30:26.673Z</time>
      </trkpt>
      <trkpt lat="45.76484" lon="6.03124">
        <ele>552</ele>
        <time>2021-09-10T10:30:27.674Z</time>
      </trkpt>
      <trkpt lat="45.76484" lon="6.03128">
        <ele>552</ele>
        <time>2021-09-10T10:30:28.673Z</time>
      </trkpt>
      <trkpt lat="45.76483" lon="6.03134">
        <ele>552</ele>
        <time>2021-09-10T10:30:29.673Z</time>
      </trkpt>
      <trkpt lat="45.76483" lon="6.03138">
        <ele>552</ele>
        <time>2021-09-10T10:30:30.674Z</time>
      </trkpt>
      <trkpt lat="45.76482" lon="6.03143">
        <ele>552</ele>
        <time>2021-09-10T10:30:31.673Z</time>
      </trkpt>
      <trkpt lat="45.76481" lon="6.03148">
        <ele>552</ele>
        <time>2021-09-10T10:30:32.674Z</time>
      </trkpt>
      <trkpt lat="45.76481" lon="6.03153">
        <ele>552</ele>
        <time>2021-09-10T10:30:33.673Z</time>
      </trkpt>
      <trkpt lat="45.76481" lon="6.03157">
        <ele>552</ele>
        <time>2021-09-10T10:30:34.674Z</time>
      </trkpt>
      <trkpt lat="45.76482" lon="6.03162">
        <ele>552</ele>
        <time>2021-09-10T10:30:35.674Z</time>
      </trkpt>
      <trkpt lat="45.76483" lon="6.03167">
        <ele>552</ele>
        <time>2021-09-10T10:30:36.674Z</time>
      </trkpt>
      <trkpt lat="45.76483" lon="6.03171">
        <ele>552</ele>
        <time>2021-09-10T10:30:37.673Z</time>
      </trkpt>
      <trkpt lat="45.76484" lon="6.03176">
        <ele>552</ele>
        <time>2021-09-10T10:31:03.816Z</time>
      </trkpt>
      <trkpt lat="45.76484" lon="6.03182">
        <ele>552</ele>
        <time>2021-09-10T10:31:04.817Z</time>
      </trkpt>
      <trkpt lat="45.76485" lon="6.03187">
        <ele>552</ele>
        <time>2021-09-10T10:31:05.817Z</time>
      </trkpt>
      <trkpt lat="45.76485" lon="6.03191">
        <ele>552</ele>
        <time>2021-09-10T10:31:06.816Z</time>
      </trkpt>
      <trkpt lat="45.76485" lon="6.03196">
        <ele>553</ele>
        <time>2021-09-10T10:31:07.817Z</time>
      </trkpt>
      <trkpt lat="45.76486" lon="6.03201">
        <ele>554</ele>
        <time>2021-09-10T10:31:08.817Z</time>
      </trkpt>
      <trkpt lat="45.76486" lon="6.03205">
        <ele>554</ele>
        <time>2021-09-10T10:31:09.816Z</time>
      </trkpt>
      <trkpt lat="45.76486" lon="6.0321">
        <ele>554</ele>
        <time>2021-09-10T10:31:10.817Z</time>
      </trkpt>
      <trkpt lat="45.76485" lon="6.03214">
        <ele>554</ele>
        <time>2021-09-10T10:31:11.816Z</time>
      </trkpt>
      <trkpt lat="45.76485" lon="6.03218">
        <ele>554</ele>
        <time>2021-09-10T10:31:12.817Z</time>
      </trkpt>
      <trkpt lat="45.76485" lon="6.03222">
        <ele>554</ele>
        <time>2021-09-10T10:31:13.817Z</time>
      </trkpt>
      <trkpt lat="45.76484" lon="6.03226">
        <ele>553</ele>
        <time>2021-09-10T10:31:14.817Z</time>
      </trkpt>
      <trkpt lat="45.76485" lon="6.0323">
        <ele>553</ele>
        <time>2021-09-10T10:31:15.817Z</time>
      </trkpt>
      <trkpt lat="45.76484" lon="6.03233">
        <ele>553</ele>
        <time>2021-09-10T10:31:16.816Z</time>
      </trkpt>
      <trkpt lat="45.76484" lon="6.03237">
        <ele>554</ele>
        <time>2021-09-10T10:31:17.817Z</time>
      </trkpt>
      <trkpt lat="45.76485" lon="6.03241">
        <ele>554</ele>
        <time>2021-09-10T10:31:18.817Z</time>
      </trkpt>
      <trkpt lat="45.76485" lon="6.03244">
        <ele>555</ele>
        <time>2021-09-10T10:31:19.816Z</time>
      </trkpt>
      <trkpt lat="45.76485" lon="6.03248">
        <ele>555</ele>
        <time>2021-09-10T10:31:20.816Z</time>
      </trkpt>
      <trkpt lat="45.76485" lon="6.03252">
        <ele>555</ele>
        <time>2021-09-10T10:31:21.817Z</time>
      </trkpt>
      <trkpt lat="45.76485" lon="6.03255">
        <ele>555</ele>
        <time>2021-09-10T10:31:22.817Z</time>
      </trkpt>
      <trkpt lat="45.76485" lon="6.03259">
        <ele>555</ele>
        <time>2021-09-10T10:31:23.816Z</time>
      </trkpt>
      <trkpt lat="45.76485" lon="6.03262">
        <ele>555</ele>
        <time>2021-09-10T10:31:24.816Z</time>
      </trkpt>
      <trkpt lat="45.76485" lon="6.03266">
        <ele>555</ele>
        <time>2021-09-10T10:31:25.817Z</time>
      </trkpt>
      <trkpt lat="45.76485" lon="6.03269">
        <ele>555</ele>
        <time>2021-09-10T10:31:26.816Z</time>
      </trkpt>
      <trkpt lat="45.76485" lon="6.03272">
        <ele>556</ele>
        <time>2021-09-10T10:31:27.817Z</time>
      </trkpt>
      <trkpt lat="45.76485" lon="6.03275">
        <ele>556</ele>
        <time>2021-09-10T10:31:28.816Z</time>
      </trkpt>
      <trkpt lat="45.76486" lon="6.03279">
        <ele>556</ele>
        <time>2021-09-10T10:31:29.816Z</time>
      </trkpt>
      <trkpt lat="45.76486" lon="6.03283">
        <ele>556</ele>
        <time>2021-09-10T10:31:30.817Z</time>
      </trkpt>
      <trkpt lat="45.76486" lon="6.03286">
        <ele>556</ele>
        <time>2021-09-10T10:31:31.817Z</time>
      </trkpt>
      <trkpt lat="45.76486" lon="6.03289">
        <ele>556</ele>
        <time>2021-09-10T10:31:32.817Z</time>
      </trkpt>
      <trkpt lat="45.76486" lon="6.03292">
        <ele>556</ele>
        <time>2021-09-10T10:31:33.816Z</time>
      </trkpt>
      <trkpt lat="45.76486" lon="6.03296">
        <ele>556</ele>
        <time>2021-09-10T10:31:34.816Z</time>
      </trkpt>
      <trkpt lat="45.76486" lon="6.03299">
        <ele>557</ele>
        <time>2021-09-10T10:31:35.817Z</time>
      </trkpt>
      <trkpt lat="45.76486" lon="6.03303">
        <ele>557</ele>
        <time>2021-09-10T10:31:36.817Z</time>
      </trkpt>
      <trkpt lat="45.76486" lon="6.03306">
        <ele>557</ele>
        <time>2021-09-10T10:31:37.817Z</time>
      </trkpt>
      <trkpt lat="45.76486" lon="6.03309">
        <ele>557</ele>
        <time>2021-09-10T10:31:38.816Z</time>
      </trkpt>
      <trkpt lat="45.76486" lon="6.03312">
        <ele>557</ele>
        <time>2021-09-10T10:31:39.816Z</time>
      </trkpt>
      <trkpt lat="45.76486" lon="6.03315">
        <ele>557</ele>
        <time>2021-09-10T10:31:40.817Z</time>
      </trkpt>
      <trkpt lat="45.76487" lon="6.03319">
        <ele>557</ele>
        <time>2021-09-10T10:31:41.816Z</time>
      </trkpt>
      <trkpt lat="45.76487" lon="6.03322">
        <ele>557</ele>
        <time>2021-09-10T10:31:42.816Z</time>
      </trkpt>
      <trkpt lat="45.76487" lon="6.03325">
        <ele>557</ele>
        <time>2021-09-10T10:31:43.817Z</time>
      </trkpt>
      <trkpt lat="45.76487" lon="6.03328">
        <ele>557</ele>
        <time>2021-09-10T10:31:44.817Z</time>
      </trkpt>
      <trkpt lat="45.76487" lon="6.03331">
        <ele>557</ele>
        <time>2021-09-10T10:31:45.817Z</time>
      </trkpt>
      <trkpt lat="45.76487" lon="6.03335">
        <ele>558</ele>
        <time>2021-09-10T10:31:46.817Z</time>
      </trkpt>
      <trkpt lat="45.76487" lon="6.03338">
        <ele>558</ele>
        <time>2021-09-10T10:31:47.817Z</time>
      </trkpt>
      <trkpt lat="45.76487" lon="6.03341">
        <ele>559</ele>
        <time>2021-09-10T10:31:48.817Z</time>
      </trkpt>
      <trkpt lat="45.76488" lon="6.03345">
        <ele>559</ele>
        <time>2021-09-10T10:31:49.816Z</time>
      </trkpt>
      <trkpt lat="45.76488" lon="6.03348">
        <ele>559</ele>
        <time>2021-09-10T10:31:50.817Z</time>
      </trkpt>
      <trkpt lat="45.76488" lon="6.03351">
        <ele>559</ele>
        <time>2021-09-10T10:31:51.817Z</time>
      </trkpt>
      <trkpt lat="45.76488" lon="6.03354">
        <ele>559</ele>
        <time>2021-09-10T10:31:52.817Z</time>
      </trkpt>
      <trkpt lat="45.76488" lon="6.03357">
        <ele>559</ele>
        <time>2021-09-10T10:31:53.817Z</time>
      </trkpt>
      <trkpt lat="45.76488" lon="6.0336">
        <ele>560</ele>
        <time>2021-09-10T10:31:54.817Z</time>
      </trkpt>
      <trkpt lat="45.76489" lon="6.03364">
        <ele>560</ele>
        <time>2021-09-10T10:31:55.816Z</time>
      </trkpt>
      <trkpt lat="45.76489" lon="6.03367">
        <ele>560</ele>
        <time>2021-09-10T10:31:56.817Z</time>
      </trkpt>
      <trkpt lat="45.76489" lon="6.0337">
        <ele>560</ele>
        <time>2021-09-10T10:31:57.816Z</time>
      </trkpt>
      <trkpt lat="45.76489" lon="6.03374">
        <ele>560</ele>
        <time>2021-09-10T10:31:58.817Z</time>
      </trkpt>
      <trkpt lat="45.76489" lon="6.03377">
        <ele>559</ele>
        <time>2021-09-10T10:31:59.816Z</time>
      </trkpt>
      <trkpt lat="45.76489" lon="6.0338">
        <ele>559</ele>
        <time>2021-09-10T10:32:00.817Z</time>
      </trkpt>
      <trkpt lat="45.76489" lon="6.03384">
        <ele>559</ele>
        <time>2021-09-10T10:32:01.817Z</time>
      </trkpt>
      <trkpt lat="45.76489" lon="6.03387">
        <ele>559</ele>
        <time>2021-09-10T10:32:02.817Z</time>
      </trkpt>
      <trkpt lat="45.76489" lon="6.0339">
        <ele>559</ele>
        <time>2021-09-10T10:32:03.817Z</time>
      </trkpt>
      <trkpt lat="45.76489" lon="6.03393">
        <ele>559</ele>
        <time>2021-09-10T10:32:04.816Z</time>
      </trkpt>
      <trkpt lat="45.76489" lon="6.03397">
        <ele>559</ele>
        <time>2021-09-10T10:32:05.817Z</time>
      </trkpt>
      <trkpt lat="45.76489" lon="6.034">
        <ele>559</ele>
        <time>2021-09-10T10:32:06.817Z</time>
      </trkpt>
      <trkpt lat="45.76489" lon="6.03403">
        <ele>559</ele>
        <time>2021-09-10T10:32:07.817Z</time>
      </trkpt>
      <trkpt lat="45.76489" lon="6.03406">
        <ele>560</ele>
        <time>2021-09-10T10:32:08.816Z</time>
      </trkpt>
      <trkpt lat="45.7649" lon="6.0341">
        <ele>560</ele>
        <time>2021-09-10T10:32:09.816Z</time>
      </trkpt>
      <trkpt lat="45.7649" lon="6.03413">
        <ele>560</ele>
        <time>2021-09-10T10:32:10.816Z</time>
      </trkpt>
      <trkpt lat="45.7649" lon="6.03416">
        <ele>561</ele>
        <time>2021-09-10T10:32:11.817Z</time>
      </trkpt>
      <trkpt lat="45.7649" lon="6.0342">
        <ele>561</ele>
        <time>2021-09-10T10:32:12.817Z</time>
      </trkpt>
      <trkpt lat="45.7649" lon="6.03423">
        <ele>561</ele>
        <time>2021-09-10T10:32:13.816Z</time>
      </trkpt>
      <trkpt lat="45.7649" lon="6.03426">
        <ele>561</ele>
        <time>2021-09-10T10:32:14.817Z</time>
      </trkpt>
      <trkpt lat="45.76491" lon="6.03429">
        <ele>561</ele>
        <time>2021-09-10T10:32:15.816Z</time>
      </trkpt>
      <trkpt lat="45.76491" lon="6.03433">
        <ele>562</ele>
        <time>2021-09-10T10:32:16.817Z</time>
      </trkpt>
      <trkpt lat="45.76491" lon="6.03436">
        <ele>562</ele>
        <time>2021-09-10T10:32:17.817Z</time>
      </trkpt>
      <trkpt lat="45.76491" lon="6.03439">
        <ele>562</ele>
        <time>2021-09-10T10:32:18.817Z</time>
      </trkpt>
      <trkpt lat="45.76491" lon="6.03442">
        <ele>562</ele>
        <time>2021-09-10T10:32:19.816Z</time>
      </trkpt>
      <trkpt lat="45.76491" lon="6.03446">
        <ele>562</ele>
        <time>2021-09-10T10:32:20.817Z</time>
      </trkpt>
      <trkpt lat="45.76491" lon="6.03449">
        <ele>562</ele>
        <time>2021-09-10T10:32:21.817Z</time>
      </trkpt>
      <trkpt lat="45.76492" lon="6.03452">
        <ele>561</ele>
        <time>2021-09-10T10:32:22.817Z</time>
      </trkpt>
      <trkpt lat="45.76492" lon="6.03455">
        <ele>562</ele>
        <time>2021-09-10T10:32:23.817Z</time>
      </trkpt>
      <trkpt lat="45.76492" lon="6.03458">
        <ele>562</ele>
        <time>2021-09-10T10:32:24.816Z</time>
      </trkpt>
      <trkpt lat="45.76492" lon="6.03461">
        <ele>563</ele>
        <time>2021-09-10T10:32:25.817Z</time>
      </trkpt>
      <trkpt lat="45.76492" lon="6.03464">
        <ele>563</ele>
        <time>2021-09-10T10:32:26.817Z</time>
      </trkpt>
      <trkpt lat="45.76492" lon="6.03467">
        <ele>563</ele>
        <time>2021-09-10T10:32:27.817Z</time>
      </trkpt>
      <trkpt lat="45.76492" lon="6.03471">
        <ele>564</ele>
        <time>2021-09-10T10:32:28.817Z</time>
      </trkpt>
      <trkpt lat="45.76492" lon="6.03474">
        <ele>564</ele>
        <time>2021-09-10T10:32:29.817Z</time>
      </trkpt>
      <trkpt lat="45.76493" lon="6.03477">
        <ele>564</ele>
        <time>2021-09-10T10:32:30.817Z</time>
      </trkpt>
      <trkpt lat="45.76493" lon="6.03481">
        <ele>564</ele>
        <time>2021-09-10T10:32:31.816Z</time>
      </trkpt>
      <trkpt lat="45.76493" lon="6.03484">
        <ele>564</ele>
        <time>2021-09-10T10:32:32.816Z</time>
      </trkpt>
      <trkpt lat="45.76493" lon="6.03487">
        <ele>564</ele>
        <time>2021-09-10T10:32:33.816Z</time>
      </trkpt>
      <trkpt lat="45.76493" lon="6.0349">
        <ele>565</ele>
        <time>2021-09-10T10:32:34.817Z</time>
      </trkpt>
      <trkpt lat="45.76493" lon="6.03493">
        <ele>565</ele>
        <time>2021-09-10T10:32:35.816Z</time>
      </trkpt>
      <trkpt lat="45.76493" lon="6.03497">
        <ele>565</ele>
        <time>2021-09-10T10:32:36.817Z</time>
      </trkpt>
      <trkpt lat="45.76493" lon="6.035">
        <ele>565</ele>
        <time>2021-09-10T10:32:37.816Z</time>
      </trkpt>
      <trkpt lat="45.76493" lon="6.03504">
        <ele>565</ele>
        <time>2021-09-10T10:32:38.817Z</time>
      </trkpt>
      <trkpt lat="45.76493" lon="6.03507">
        <ele>565</ele>
        <time>2021-09-10T10:32:39.817Z</time>
      </trkpt>
      <trkpt lat="45.76493" lon="6.0351">
        <ele>565</ele>
        <time>2021-09-10T10:32:40.817Z</time>
      </trkpt>
      <trkpt lat="45.76494" lon="6.03513">
        <ele>565</ele>
        <time>2021-09-10T10:32:41.816Z</time>
      </trkpt>
      <trkpt lat="45.76494" lon="6.03517">
        <ele>565</ele>
        <time>2021-09-10T10:32:42.817Z</time>
      </trkpt>
      <trkpt lat="45.76494" lon="6.0352">
        <ele>565</ele>
        <time>2021-09-10T10:32:43.817Z</time>
      </trkpt>
      <trkpt lat="45.76494" lon="6.03523">
        <ele>565</ele>
        <time>2021-09-10T10:32:44.816Z</time>
      </trkpt>
      <trkpt lat="45.76494" lon="6.03526">
        <ele>566</ele>
        <time>2021-09-10T10:32:45.817Z</time>
      </trkpt>
      <trkpt lat="45.76494" lon="6.03529">
        <ele>566</ele>
        <time>2021-09-10T10:32:46.816Z</time>
      </trkpt>
      <trkpt lat="45.76495" lon="6.03533">
        <ele>566</ele>
        <time>2021-09-10T10:32:47.817Z</time>
      </trkpt>
      <trkpt lat="45.76496" lon="6.03536">
        <ele>566</ele>
        <time>2021-09-10T10:32:48.817Z</time>
      </trkpt>
      <trkpt lat="45.76496" lon="6.03539">
        <ele>566</ele>
        <time>2021-09-10T10:32:49.817Z</time>
      </trkpt>
      <trkpt lat="45.76497" lon="6.03543">
        <ele>567</ele>
        <time>2021-09-10T10:32:50.816Z</time>
      </trkpt>
      <trkpt lat="45.76498" lon="6.03546">
        <ele>567</ele>
        <time>2021-09-10T10:32:51.817Z</time>
      </trkpt>
      <trkpt lat="45.76498" lon="6.0355">
        <ele>567</ele>
        <time>2021-09-10T10:32:52.816Z</time>
      </trkpt>
      <trkpt lat="45.76499" lon="6.03554">
        <ele>567</ele>
        <time>2021-09-10T10:32:53.817Z</time>
      </trkpt>
      <trkpt lat="45.76499" lon="6.03557">
        <ele>567</ele>
        <time>2021-09-10T10:32:54.817Z</time>
      </trkpt>
      <trkpt lat="45.76499" lon="6.03561">
        <ele>567</ele>
        <time>2021-09-10T10:32:55.817Z</time>
      </trkpt>
      <trkpt lat="45.765" lon="6.03564">
        <ele>567</ele>
        <time>2021-09-10T10:32:56.816Z</time>
      </trkpt>
      <trkpt lat="45.765" lon="6.03568">
        <ele>567</ele>
        <time>2021-09-10T10:32:57.816Z</time>
      </trkpt>
      <trkpt lat="45.76501" lon="6.03572">
        <ele>567</ele>
        <time>2021-09-10T10:32:58.817Z</time>
      </trkpt>
      <trkpt lat="45.76501" lon="6.03576">
        <ele>567</ele>
        <time>2021-09-10T10:32:59.817Z</time>
      </trkpt>
      <trkpt lat="45.76502" lon="6.03579">
        <ele>567</ele>
        <time>2021-09-10T10:33:00.817Z</time>
      </trkpt>
      <trkpt lat="45.76503" lon="6.03583">
        <ele>567</ele>
        <time>2021-09-10T10:33:01.817Z</time>
      </trkpt>
      <trkpt lat="45.76503" lon="6.03587">
        <ele>566</ele>
        <time>2021-09-10T10:33:02.817Z</time>
      </trkpt>
      <trkpt lat="45.76504" lon="6.03591">
        <ele>566</ele>
        <time>2021-09-10T10:33:03.817Z</time>
      </trkpt>
      <trkpt lat="45.76505" lon="6.03595">
        <ele>566</ele>
        <time>2021-09-10T10:33:04.817Z</time>
      </trkpt>
      <trkpt lat="45.76506" lon="6.036">
        <ele>565</ele>
        <time>2021-09-10T10:33:05.817Z</time>
      </trkpt>
      <trkpt lat="45.76507" lon="6.03604">
        <ele>566</ele>
        <time>2021-09-10T10:33:06.817Z</time>
      </trkpt>
      <trkpt lat="45.76507" lon="6.03608">
        <ele>566</ele>
        <time>2021-09-10T10:33:07.817Z</time>
      </trkpt>
      <trkpt lat="45.76508" lon="6.03612">
        <ele>566</ele>
        <time>2021-09-10T10:33:08.816Z</time>
      </trkpt>
      <trkpt lat="45.76509" lon="6.03617">
        <ele>566</ele>
        <time>2021-09-10T10:33:09.817Z</time>
      </trkpt>
      <trkpt lat="45.76509" lon="6.03621">
        <ele>567</ele>
        <time>2021-09-10T10:33:10.816Z</time>
      </trkpt>
      <trkpt lat="45.7651" lon="6.03625">
        <ele>567</ele>
        <time>2021-09-10T10:33:11.817Z</time>
      </trkpt>
      <trkpt lat="45.7651" lon="6.0363">
        <ele>567</ele>
        <time>2021-09-10T10:33:12.817Z</time>
      </trkpt>
      <trkpt lat="45.76511" lon="6.03635">
        <ele>567</ele>
        <time>2021-09-10T10:33:13.817Z</time>
      </trkpt>
      <trkpt lat="45.76511" lon="6.03639">
        <ele>568</ele>
        <time>2021-09-10T10:33:14.816Z</time>
      </trkpt>
      <trkpt lat="45.76512" lon="6.03644">
        <ele>568</ele>
        <time>2021-09-10T10:33:15.817Z</time>
      </trkpt>
      <trkpt lat="45.76512" lon="6.03648">
        <ele>568</ele>
        <time>2021-09-10T10:33:16.816Z</time>
      </trkpt>
      <trkpt lat="45.76513" lon="6.03652">
        <ele>569</ele>
        <time>2021-09-10T10:33:17.817Z</time>
      </trkpt>
      <trkpt lat="45.76513" lon="6.03657">
        <ele>569</ele>
        <time>2021-09-10T10:33:18.816Z</time>
      </trkpt>
      <trkpt lat="45.76513" lon="6.03661">
        <ele>570</ele>
        <time>2021-09-10T10:33:19.816Z</time>
      </trkpt>
      <trkpt lat="45.76514" lon="6.03666">
        <ele>570</ele>
        <time>2021-09-10T10:33:20.816Z</time>
      </trkpt>
      <trkpt lat="45.76514" lon="6.0367">
        <ele>570</ele>
        <time>2021-09-10T10:33:21.817Z</time>
      </trkpt>
      <trkpt lat="45.76514" lon="6.03675">
        <ele>571</ele>
        <time>2021-09-10T10:33:22.817Z</time>
      </trkpt>
      <trkpt lat="45.76514" lon="6.03679">
        <ele>570</ele>
        <time>2021-09-10T10:33:23.816Z</time>
      </trkpt>
      <trkpt lat="45.76515" lon="6.03684">
        <ele>570</ele>
        <time>2021-09-10T10:33:24.816Z</time>
      </trkpt>
      <trkpt lat="45.76515" lon="6.03689">
        <ele>570</ele>
        <time>2021-09-10T10:33:25.817Z</time>
      </trkpt>
      <trkpt lat="45.76515" lon="6.03693">
        <ele>570</ele>
        <time>2021-09-10T10:33:26.817Z</time>
      </trkpt>
      <trkpt lat="45.76515" lon="6.03698">
        <ele>570</ele>
        <time>2021-09-10T10:33:27.817Z</time>
      </trkpt>
      <trkpt lat="45.76515" lon="6.03702">
        <ele>571</ele>
        <time>2021-09-10T10:33:28.817Z</time>
      </trkpt>
      <trkpt lat="45.76516" lon="6.03707">
        <ele>571</ele>
        <time>2021-09-10T10:33:29.817Z</time>
      </trkpt>
      <trkpt lat="45.76516" lon="6.03712">
        <ele>571</ele>
        <time>2021-09-10T10:33:30.817Z</time>
      </trkpt>
      <trkpt lat="45.76516" lon="6.03716">
        <ele>571</ele>
        <time>2021-09-10T10:33:31.817Z</time>
      </trkpt>
      <trkpt lat="45.76516" lon="6.03721">
        <ele>571</ele>
        <time>2021-09-10T10:33:32.817Z</time>
      </trkpt>
      <trkpt lat="45.76516" lon="6.03725">
        <ele>571</ele>
        <time>2021-09-10T10:33:33.816Z</time>
      </trkpt>
      <trkpt lat="45.76516" lon="6.0373">
        <ele>571</ele>
        <time>2021-09-10T10:33:34.817Z</time>
      </trkpt>
      <trkpt lat="45.76516" lon="6.03734">
        <ele>571</ele>
        <time>2021-09-10T10:33:35.816Z</time>
      </trkpt>
      <trkpt lat="45.76516" lon="6.03739">
        <ele>571</ele>
        <time>2021-09-10T10:33:36.816Z</time>
      </trkpt>
      <trkpt lat="45.76516" lon="6.03743">
        <ele>572</ele>
        <time>2021-09-10T10:33:37.817Z</time>
      </trkpt>
      <trkpt lat="45.76517" lon="6.03748">
        <ele>571</ele>
        <time>2021-09-10T10:33:38.817Z</time>
      </trkpt>
      <trkpt lat="45.76517" lon="6.03752">
        <ele>572</ele>
        <time>2021-09-10T10:33:39.816Z</time>
      </trkpt>
      <trkpt lat="45.76517" lon="6.03757">
        <ele>571</ele>
        <time>2021-09-10T10:33:40.817Z</time>
      </trkpt>
      <trkpt lat="45.76517" lon="6.03761">
        <ele>571</ele>
        <time>2021-09-10T10:33:41.817Z</time>
      </trkpt>
      <trkpt lat="45.76517" lon="6.03766">
        <ele>570</ele>
        <time>2021-09-10T10:33:42.816Z</time>
      </trkpt>
      <trkpt lat="45.76517" lon="6.0377">
        <ele>570</ele>
        <time>2021-09-10T10:33:43.816Z</time>
      </trkpt>
      <trkpt lat="45.76517" lon="6.03774">
        <ele>570</ele>
        <time>2021-09-10T10:33:44.817Z</time>
      </trkpt>
      <trkpt lat="45.76517" lon="6.03779">
        <ele>570</ele>
        <time>2021-09-10T10:33:45.817Z</time>
      </trkpt>
      <trkpt lat="45.76517" lon="6.03783">
        <ele>570</ele>
        <time>2021-09-10T10:33:46.817Z</time>
      </trkpt>
      <trkpt lat="45.76518" lon="6.03787">
        <ele>570</ele>
        <time>2021-09-10T10:33:47.817Z</time>
      </trkpt>
      <trkpt lat="45.76518" lon="6.03791">
        <ele>570</ele>
        <time>2021-09-10T10:33:48.817Z</time>
      </trkpt>
      <trkpt lat="45.76518" lon="6.03795">
        <ele>570</ele>
        <time>2021-09-10T10:33:49.817Z</time>
      </trkpt>
      <trkpt lat="45.76518" lon="6.03799">
        <ele>571</ele>
        <time>2021-09-10T10:33:50.817Z</time>
      </trkpt>
      <trkpt lat="45.76518" lon="6.03803">
        <ele>571</ele>
        <time>2021-09-10T10:33:51.817Z</time>
      </trkpt>
      <trkpt lat="45.76519" lon="6.03807">
        <ele>572</ele>
        <time>2021-09-10T10:33:52.817Z</time>
      </trkpt>
      <trkpt lat="45.76519" lon="6.0381">
        <ele>572</ele>
        <time>2021-09-10T10:33:53.817Z</time>
      </trkpt>
      <trkpt lat="45.76519" lon="6.03814">
        <ele>572</ele>
        <time>2021-09-10T10:33:54.817Z</time>
      </trkpt>
      <trkpt lat="45.76519" lon="6.03818">
        <ele>572</ele>
        <time>2021-09-10T10:33:55.817Z</time>
      </trkpt>
      <trkpt lat="45.76519" lon="6.03821">
        <ele>573</ele>
        <time>2021-09-10T10:33:56.817Z</time>
      </trkpt>
      <trkpt lat="45.76519" lon="6.03825">
        <ele>573</ele>
        <time>2021-09-10T10:33:57.817Z</time>
      </trkpt>
      <trkpt lat="45.76519" lon="6.03829">
        <ele>573</ele>
        <time>2021-09-10T10:33:58.817Z</time>
      </trkpt>
      <trkpt lat="45.7652" lon="6.03833">
        <ele>572</ele>
        <time>2021-09-10T10:33:59.817Z</time>
      </trkpt>
      <trkpt lat="45.7652" lon="6.03837">
        <ele>573</ele>
        <time>2021-09-10T10:34:00.817Z</time>
      </trkpt>
      <trkpt lat="45.7652" lon="6.03841">
        <ele>573</ele>
        <time>2021-09-10T10:34:01.816Z</time>
      </trkpt>
      <trkpt lat="45.76521" lon="6.03844">
        <ele>573</ele>
        <time>2021-09-10T10:34:02.817Z</time>
      </trkpt>
      <trkpt lat="45.76521" lon="6.03848">
        <ele>573</ele>
        <time>2021-09-10T10:34:03.817Z</time>
      </trkpt>
      <trkpt lat="45.76522" lon="6.03851">
        <ele>574</ele>
        <time>2021-09-10T10:34:04.816Z</time>
      </trkpt>
      <trkpt lat="45.76522" lon="6.03854">
        <ele>575</ele>
        <time>2021-09-10T10:34:05.817Z</time>
      </trkpt>
      <trkpt lat="45.76523" lon="6.03857">
        <ele>575</ele>
        <time>2021-09-10T10:34:06.817Z</time>
      </trkpt>
      <trkpt lat="45.76523" lon="6.03861">
        <ele>575</ele>
        <time>2021-09-10T10:34:07.816Z</time>
      </trkpt>
      <trkpt lat="45.76524" lon="6.03864">
        <ele>575</ele>
        <time>2021-09-10T10:34:08.816Z</time>
      </trkpt>
      <trkpt lat="45.76524" lon="6.03868">
        <ele>575</ele>
        <time>2021-09-10T10:34:09.817Z</time>
      </trkpt>
      <trkpt lat="45.76525" lon="6.03871">
        <ele>575</ele>
        <time>2021-09-10T10:34:10.816Z</time>
      </trkpt>
      <trkpt lat="45.76525" lon="6.03875">
        <ele>575</ele>
        <time>2021-09-10T10:34:11.817Z</time>
      </trkpt>
      <trkpt lat="45.76525" lon="6.03878">
        <ele>575</ele>
        <time>2021-09-10T10:34:12.817Z</time>
      </trkpt>
      <trkpt lat="45.76526" lon="6.03882">
        <ele>576</ele>
        <time>2021-09-10T10:34:13.816Z</time>
      </trkpt>
      <trkpt lat="45.76526" lon="6.03886">
        <ele>576</ele>
        <time>2021-09-10T10:34:14.817Z</time>
      </trkpt>
      <trkpt lat="45.76527" lon="6.03889">
        <ele>577</ele>
        <time>2021-09-10T10:34:15.817Z</time>
      </trkpt>
      <trkpt lat="45.76527" lon="6.03893">
        <ele>577</ele>
        <time>2021-09-10T10:34:16.817Z</time>
      </trkpt>
      <trkpt lat="45.76527" lon="6.03896">
        <ele>577</ele>
        <time>2021-09-10T10:34:17.817Z</time>
      </trkpt>
      <trkpt lat="45.76528" lon="6.039">
        <ele>578</ele>
        <time>2021-09-10T10:34:18.817Z</time>
      </trkpt>
      <trkpt lat="45.76528" lon="6.03903">
        <ele>578</ele>
        <time>2021-09-10T10:34:19.817Z</time>
      </trkpt>
      <trkpt lat="45.76528" lon="6.03906">
        <ele>578</ele>
        <time>2021-09-10T10:34:20.817Z</time>
      </trkpt>
      <trkpt lat="45.76529" lon="6.0391">
        <ele>578</ele>
        <time>2021-09-10T10:34:21.817Z</time>
      </trkpt>
      <trkpt lat="45.76529" lon="6.03913">
        <ele>578</ele>
        <time>2021-09-10T10:34:22.817Z</time>
      </trkpt>
      <trkpt lat="45.76529" lon="6.03916">
        <ele>578</ele>
        <time>2021-09-10T10:34:23.817Z</time>
      </trkpt>
      <trkpt lat="45.7653" lon="6.0392">
        <ele>578</ele>
        <time>2021-09-10T10:34:24.816Z</time>
      </trkpt>
      <trkpt lat="45.7653" lon="6.03923">
        <ele>578</ele>
        <time>2021-09-10T10:34:25.817Z</time>
      </trkpt>
      <trkpt lat="45.7653" lon="6.03926">
        <ele>578</ele>
        <time>2021-09-10T10:34:26.817Z</time>
      </trkpt>
      <trkpt lat="45.7653" lon="6.0393">
        <ele>579</ele>
        <time>2021-09-10T10:34:27.817Z</time>
      </trkpt>
      <trkpt lat="45.76531" lon="6.03933">
        <ele>579</ele>
        <time>2021-09-10T10:34:28.817Z</time>
      </trkpt>
      <trkpt lat="45.76531" lon="6.03937">
        <ele>579</ele>
        <time>2021-09-10T10:34:29.817Z</time>
      </trkpt>
      <trkpt lat="45.76531" lon="6.0394">
        <ele>580</ele>
        <time>2021-09-10T10:34:30.817Z</time>
      </trkpt>
      <trkpt lat="45.76531" lon="6.03944">
        <ele>580</ele>
        <time>2021-09-10T10:34:31.817Z</time>
      </trkpt>
      <trkpt lat="45.76531" lon="6.03947">
        <ele>580</ele>
        <time>2021-09-10T10:34:32.817Z</time>
      </trkpt>
      <trkpt lat="45.7653" lon="6.03951">
        <ele>580</ele>
        <time>2021-09-10T10:34:33.816Z</time>
      </trkpt>
      <trkpt lat="45.7653" lon="6.03954">
        <ele>580</ele>
        <time>2021-09-10T10:34:34.817Z</time>
      </trkpt>
      <trkpt lat="45.7653" lon="6.03958">
        <ele>580</ele>
        <time>2021-09-10T10:34:35.817Z</time>
      </trkpt>
      <trkpt lat="45.7653" lon="6.03961">
        <ele>580</ele>
        <time>2021-09-10T10:34:36.817Z</time>
      </trkpt>
      <trkpt lat="45.76529" lon="6.03965">
        <ele>580</ele>
        <time>2021-09-10T10:34:37.817Z</time>
      </trkpt>
      <trkpt lat="45.76529" lon="6.03968">
        <ele>580</ele>
        <time>2021-09-10T10:34:38.817Z</time>
      </trkpt>
      <trkpt lat="45.76529" lon="6.03972">
        <ele>580</ele>
        <time>2021-09-10T10:34:39.817Z</time>
      </trkpt>
      <trkpt lat="45.76528" lon="6.03975">
        <ele>580</ele>
        <time>2021-09-10T10:34:40.817Z</time>
      </trkpt>
      <trkpt lat="45.76527" lon="6.03978">
        <ele>580</ele>
        <time>2021-09-10T10:34:41.816Z</time>
      </trkpt>
      <trkpt lat="45.76526" lon="6.03981">
        <ele>579</ele>
        <time>2021-09-10T10:34:42.817Z</time>
      </trkpt>
      <trkpt lat="45.76526" lon="6.03984">
        <ele>579</ele>
        <time>2021-09-10T10:34:43.817Z</time>
      </trkpt>
      <trkpt lat="45.76525" lon="6.03987">
        <ele>579</ele>
        <time>2021-09-10T10:34:44.817Z</time>
      </trkpt>
      <trkpt lat="45.76525" lon="6.03991">
        <ele>579</ele>
        <time>2021-09-10T10:34:45.817Z</time>
      </trkpt>
      <trkpt lat="45.76524" lon="6.03994">
        <ele>579</ele>
        <time>2021-09-10T10:34:46.817Z</time>
      </trkpt>
      <trkpt lat="45.76523" lon="6.03998">
        <ele>579</ele>
        <time>2021-09-10T10:34:47.817Z</time>
      </trkpt>
      <trkpt lat="45.76523" lon="6.04001">
        <ele>580</ele>
        <time>2021-09-10T10:34:48.817Z</time>
      </trkpt>
      <trkpt lat="45.76523" lon="6.04004">
        <ele>580</ele>
        <time>2021-09-10T10:34:49.816Z</time>
      </trkpt>
      <trkpt lat="45.76522" lon="6.04007">
        <ele>580</ele>
        <time>2021-09-10T10:34:50.817Z</time>
      </trkpt>
      <trkpt lat="45.76521" lon="6.04011">
        <ele>581</ele>
        <time>2021-09-10T10:34:51.817Z</time>
      </trkpt>
      <trkpt lat="45.7652" lon="6.04014">
        <ele>581</ele>
        <time>2021-09-10T10:34:52.816Z</time>
      </trkpt>
      <trkpt lat="45.76519" lon="6.04017">
        <ele>582</ele>
        <time>2021-09-10T10:34:53.816Z</time>
      </trkpt>
      <trkpt lat="45.76519" lon="6.0402">
        <ele>582</ele>
        <time>2021-09-10T10:34:54.817Z</time>
      </trkpt>
      <trkpt lat="45.76518" lon="6.04023">
        <ele>582</ele>
        <time>2021-09-10T10:34:55.816Z</time>
      </trkpt>
      <trkpt lat="45.76518" lon="6.04027">
        <ele>581</ele>
        <time>2021-09-10T10:34:56.816Z</time>
      </trkpt>
      <trkpt lat="45.76517" lon="6.0403">
        <ele>581</ele>
        <time>2021-09-10T10:34:57.816Z</time>
      </trkpt>
      <trkpt lat="45.76517" lon="6.04034">
        <ele>581</ele>
        <time>2021-09-10T10:34:58.816Z</time>
      </trkpt>
      <trkpt lat="45.76516" lon="6.04037">
        <ele>581</ele>
        <time>2021-09-10T10:34:59.817Z</time>
      </trkpt>
      <trkpt lat="45.76515" lon="6.04041">
        <ele>581</ele>
        <time>2021-09-10T10:35:00.816Z</time>
      </trkpt>
      <trkpt lat="45.76514" lon="6.04044">
        <ele>581</ele>
        <time>2021-09-10T10:35:01.816Z</time>
      </trkpt>
      <trkpt lat="45.76514" lon="6.04047">
        <ele>582</ele>
        <time>2021-09-10T10:35:02.817Z</time>
      </trkpt>
      <trkpt lat="45.76513" lon="6.0405">
        <ele>582</ele>
        <time>2021-09-10T10:35:03.817Z</time>
      </trkpt>
      <trkpt lat="45.76512" lon="6.04053">
        <ele>582</ele>
        <time>2021-09-10T10:35:04.817Z</time>
      </trkpt>
      <trkpt lat="45.76512" lon="6.04056">
        <ele>582</ele>
        <time>2021-09-10T10:35:05.817Z</time>
      </trkpt>
      <trkpt lat="45.76511" lon="6.04059">
        <ele>582</ele>
        <time>2021-09-10T10:35:06.817Z</time>
      </trkpt>
      <trkpt lat="45.7651" lon="6.04063">
        <ele>582</ele>
        <time>2021-09-10T10:35:07.817Z</time>
      </trkpt>
      <trkpt lat="45.7651" lon="6.04066">
        <ele>582</ele>
        <time>2021-09-10T10:35:08.817Z</time>
      </trkpt>
      <trkpt lat="45.76509" lon="6.04069">
        <ele>582</ele>
        <time>2021-09-10T10:35:09.817Z</time>
      </trkpt>
      <trkpt lat="45.76508" lon="6.04072">
        <ele>582</ele>
        <time>2021-09-10T10:35:10.816Z</time>
      </trkpt>
      <trkpt lat="45.76508" lon="6.04076">
        <ele>583</ele>
        <time>2021-09-10T10:35:11.817Z</time>
      </trkpt>
      <trkpt lat="45.76507" lon="6.04079">
        <ele>583</ele>
        <time>2021-09-10T10:35:12.817Z</time>
      </trkpt>
      <trkpt lat="45.76506" lon="6.04082">
        <ele>583</ele>
        <time>2021-09-10T10:35:13.817Z</time>
      </trkpt>
      <trkpt lat="45.76506" lon="6.04085">
        <ele>584</ele>
        <time>2021-09-10T10:35:14.816Z</time>
      </trkpt>
      <trkpt lat="45.76505" lon="6.04089">
        <ele>584</ele>
        <time>2021-09-10T10:35:15.817Z</time>
      </trkpt>
      <trkpt lat="45.76504" lon="6.04092">
        <ele>584</ele>
        <time>2021-09-10T10:35:16.817Z</time>
      </trkpt>
      <trkpt lat="45.76503" lon="6.04095">
        <ele>584</ele>
        <time>2021-09-10T10:35:17.817Z</time>
      </trkpt>
      <trkpt lat="45.76503" lon="6.04098">
        <ele>584</ele>
        <time>2021-09-10T10:35:18.816Z</time>
      </trkpt>
      <trkpt lat="45.76502" lon="6.04102">
        <ele>584</ele>
        <time>2021-09-10T10:35:19.817Z</time>
      </trkpt>
      <trkpt lat="45.76502" lon="6.04105">
        <ele>584</ele>
        <time>2021-09-10T10:35:20.817Z</time>
      </trkpt>
      <trkpt lat="45.76501" lon="6.04108">
        <ele>585</ele>
        <time>2021-09-10T10:35:21.816Z</time>
      </trkpt>
      <trkpt lat="45.765" lon="6.04112">
        <ele>585</ele>
        <time>2021-09-10T10:35:22.817Z</time>
      </trkpt>
      <trkpt lat="45.765" lon="6.04115">
        <ele>585</ele>
        <time>2021-09-10T10:35:23.816Z</time>
      </trkpt>
      <trkpt lat="45.76499" lon="6.04119">
        <ele>585</ele>
        <time>2021-09-10T10:35:24.816Z</time>
      </trkpt>
      <trkpt lat="45.76498" lon="6.04122">
        <ele>585</ele>
        <time>2021-09-10T10:35:25.817Z</time>
      </trkpt>
      <trkpt lat="45.76497" lon="6.04125">
        <ele>585</ele>
        <time>2021-09-10T10:35:26.816Z</time>
      </trkpt>
      <trkpt lat="45.76496" lon="6.04128">
        <ele>585</ele>
        <time>2021-09-10T10:35:27.817Z</time>
      </trkpt>
      <trkpt lat="45.76496" lon="6.04132">
        <ele>585</ele>
        <time>2021-09-10T10:35:28.817Z</time>
      </trkpt>
      <trkpt lat="45.76495" lon="6.04136">
        <ele>585</ele>
        <time>2021-09-10T10:35:29.816Z</time>
      </trkpt>
      <trkpt lat="45.76494" lon="6.0414">
        <ele>585</ele>
        <time>2021-09-10T10:35:30.817Z</time>
      </trkpt>
      <trkpt lat="45.76493" lon="6.04143">
        <ele>585</ele>
        <time>2021-09-10T10:35:31.817Z</time>
      </trkpt>
      <trkpt lat="45.76492" lon="6.04147">
        <ele>585</ele>
        <time>2021-09-10T10:35:32.817Z</time>
      </trkpt>
      <trkpt lat="45.76491" lon="6.04151">
        <ele>585</ele>
        <time>2021-09-10T10:35:33.817Z</time>
      </trkpt>
      <trkpt lat="45.76491" lon="6.04155">
        <ele>585</ele>
        <time>2021-09-10T10:35:34.816Z</time>
      </trkpt>
      <trkpt lat="45.7649" lon="6.0416">
        <ele>585</ele>
        <time>2021-09-10T10:35:35.816Z</time>
      </trkpt>
      <trkpt lat="45.76489" lon="6.04164">
        <ele>585</ele>
        <time>2021-09-10T10:35:36.817Z</time>
      </trkpt>
      <trkpt lat="45.76489" lon="6.04168">
        <ele>585</ele>
        <time>2021-09-10T10:35:37.816Z</time>
      </trkpt>
      <trkpt lat="45.76488" lon="6.04173">
        <ele>585</ele>
        <time>2021-09-10T10:35:38.816Z</time>
      </trkpt>
      <trkpt lat="45.76487" lon="6.04177">
        <ele>585</ele>
        <time>2021-09-10T10:35:39.816Z</time>
      </trkpt>
      <trkpt lat="45.76486" lon="6.04181">
        <ele>586</ele>
        <time>2021-09-10T10:35:40.817Z</time>
      </trkpt>
      <trkpt lat="45.76485" lon="6.04186">
        <ele>586</ele>
        <time>2021-09-10T10:35:41.816Z</time>
      </trkpt>
      <trkpt lat="45.76484" lon="6.0419">
        <ele>586</ele>
        <time>2021-09-10T10:35:42.817Z</time>
      </trkpt>
      <trkpt lat="45.76483" lon="6.04194">
        <ele>586</ele>
        <time>2021-09-10T10:35:43.817Z</time>
      </trkpt>
      <trkpt lat="45.76482" lon="6.04198">
        <ele>586</ele>
        <time>2021-09-10T10:35:44.816Z</time>
      </trkpt>
      <trkpt lat="45.76481" lon="6.04202">
        <ele>586</ele>
        <time>2021-09-10T10:35:45.817Z</time>
      </trkpt>
      <trkpt lat="45.7648" lon="6.04207">
        <ele>586</ele>
        <time>2021-09-10T10:35:46.817Z</time>
      </trkpt>
      <trkpt lat="45.76479" lon="6.04211">
        <ele>586</ele>
        <time>2021-09-10T10:35:47.816Z</time>
      </trkpt>
      <trkpt lat="45.76477" lon="6.04215">
        <ele>586</ele>
        <time>2021-09-10T10:35:48.817Z</time>
      </trkpt>
      <trkpt lat="45.76476" lon="6.04219">
        <ele>586</ele>
        <time>2021-09-10T10:35:49.816Z</time>
      </trkpt>
      <trkpt lat="45.76474" lon="6.04223">
        <ele>586</ele>
        <time>2021-09-10T10:35:50.816Z</time>
      </trkpt>
      <trkpt lat="45.76473" lon="6.04227">
        <ele>586</ele>
        <time>2021-09-10T10:35:51.817Z</time>
      </trkpt>
      <trkpt lat="45.76472" lon="6.04231">
        <ele>586</ele>
        <time>2021-09-10T10:35:52.817Z</time>
      </trkpt>
      <trkpt lat="45.7647" lon="6.04236">
        <ele>586</ele>
        <time>2021-09-10T10:35:53.816Z</time>
      </trkpt>
      <trkpt lat="45.76469" lon="6.0424">
        <ele>586</ele>
        <time>2021-09-10T10:35:54.817Z</time>
      </trkpt>
      <trkpt lat="45.76468" lon="6.04244">
        <ele>586</ele>
        <time>2021-09-10T10:35:55.816Z</time>
      </trkpt>
      <trkpt lat="45.76466" lon="6.04248">
        <ele>586</ele>
        <time>2021-09-10T10:35:56.817Z</time>
      </trkpt>
      <trkpt lat="45.76465" lon="6.04252">
        <ele>586</ele>
        <time>2021-09-10T10:35:57.816Z</time>
      </trkpt>
      <trkpt lat="45.76464" lon="6.04256">
        <ele>586</ele>
        <time>2021-09-10T10:35:58.816Z</time>
      </trkpt>
      <trkpt lat="45.76462" lon="6.04261">
        <ele>586</ele>
        <time>2021-09-10T10:35:59.817Z</time>
      </trkpt>
      <trkpt lat="45.76461" lon="6.04265">
        <ele>586</ele>
        <time>2021-09-10T10:36:00.817Z</time>
      </trkpt>
      <trkpt lat="45.7646" lon="6.04269">
        <ele>586</ele>
        <time>2021-09-10T10:36:01.816Z</time>
      </trkpt>
      <trkpt lat="45.76458" lon="6.04273">
        <ele>586</ele>
        <time>2021-09-10T10:36:02.817Z</time>
      </trkpt>
      <trkpt lat="45.76457" lon="6.04278">
        <ele>586</ele>
        <time>2021-09-10T10:36:03.817Z</time>
      </trkpt>
      <trkpt lat="45.76455" lon="6.04282">
        <ele>585</ele>
        <time>2021-09-10T10:36:04.816Z</time>
      </trkpt>
      <trkpt lat="45.76454" lon="6.04287">
        <ele>585</ele>
        <time>2021-09-10T10:36:05.817Z</time>
      </trkpt>
      <trkpt lat="45.76452" lon="6.04291">
        <ele>585</ele>
        <time>2021-09-10T10:36:06.817Z</time>
      </trkpt>
      <trkpt lat="45.76451" lon="6.04296">
        <ele>585</ele>
        <time>2021-09-10T10:36:07.817Z</time>
      </trkpt>
      <trkpt lat="45.7645" lon="6.043">
        <ele>585</ele>
        <time>2021-09-10T10:36:08.817Z</time>
      </trkpt>
      <trkpt lat="45.76448" lon="6.04304">
        <ele>586</ele>
        <time>2021-09-10T10:36:09.817Z</time>
      </trkpt>
      <trkpt lat="45.76447" lon="6.04308">
        <ele>586</ele>
        <time>2021-09-10T10:36:10.817Z</time>
      </trkpt>
      <trkpt lat="45.76446" lon="6.04313">
        <ele>587</ele>
        <time>2021-09-10T10:36:11.817Z</time>
      </trkpt>
      <trkpt lat="45.76444" lon="6.04317">
        <ele>587</ele>
        <time>2021-09-10T10:36:12.817Z</time>
      </trkpt>
      <trkpt lat="45.76443" lon="6.04321">
        <ele>587</ele>
        <time>2021-09-10T10:36:13.817Z</time>
      </trkpt>
      <trkpt lat="45.76442" lon="6.04325">
        <ele>586</ele>
        <time>2021-09-10T10:36:14.817Z</time>
      </trkpt>
      <trkpt lat="45.76441" lon="6.0433">
        <ele>586</ele>
        <time>2021-09-10T10:36:15.817Z</time>
      </trkpt>
      <trkpt lat="45.76439" lon="6.04334">
        <ele>586</ele>
        <time>2021-09-10T10:36:16.817Z</time>
      </trkpt>
      <trkpt lat="45.76438" lon="6.04338">
        <ele>586</ele>
        <time>2021-09-10T10:36:17.817Z</time>
      </trkpt>
      <trkpt lat="45.76437" lon="6.04342">
        <ele>586</ele>
        <time>2021-09-10T10:36:18.817Z</time>
      </trkpt>
      <trkpt lat="45.76435" lon="6.04346">
        <ele>586</ele>
        <time>2021-09-10T10:36:19.817Z</time>
      </trkpt>
      <trkpt lat="45.76434" lon="6.0435">
        <ele>586</ele>
        <time>2021-09-10T10:36:20.816Z</time>
      </trkpt>
      <trkpt lat="45.76433" lon="6.04354">
        <ele>586</ele>
        <time>2021-09-10T10:36:21.817Z</time>
      </trkpt>
      <trkpt lat="45.76432" lon="6.04358">
        <ele>587</ele>
        <time>2021-09-10T10:36:22.817Z</time>
      </trkpt>
      <trkpt lat="45.76431" lon="6.04363">
        <ele>587</ele>
        <time>2021-09-10T10:36:23.816Z</time>
      </trkpt>
      <trkpt lat="45.7643" lon="6.04367">
        <ele>587</ele>
        <time>2021-09-10T10:36:24.816Z</time>
      </trkpt>
      <trkpt lat="45.76428" lon="6.04371">
        <ele>587</ele>
        <time>2021-09-10T10:36:25.817Z</time>
      </trkpt>
      <trkpt lat="45.76427" lon="6.04375">
        <ele>587</ele>
        <time>2021-09-10T10:36:26.816Z</time>
      </trkpt>
      <trkpt lat="45.76426" lon="6.04379">
        <ele>587</ele>
        <time>2021-09-10T10:36:27.816Z</time>
      </trkpt>
      <trkpt lat="45.76425" lon="6.04383">
        <ele>587</ele>
        <time>2021-09-10T10:36:28.817Z</time>
      </trkpt>
      <trkpt lat="45.76424" lon="6.04388">
        <ele>587</ele>
        <time>2021-09-10T10:36:29.817Z</time>
      </trkpt>
      <trkpt lat="45.76423" lon="6.04392">
        <ele>587</ele>
        <time>2021-09-10T10:36:30.817Z</time>
      </trkpt>
      <trkpt lat="45.76422" lon="6.04397">
        <ele>587</ele>
        <time>2021-09-10T10:36:31.817Z</time>
      </trkpt>
      <trkpt lat="45.76421" lon="6.04402">
        <ele>586</ele>
        <time>2021-09-10T10:36:32.817Z</time>
      </trkpt>
      <trkpt lat="45.76419" lon="6.04406">
        <ele>586</ele>
        <time>2021-09-10T10:36:33.816Z</time>
      </trkpt>
      <trkpt lat="45.76418" lon="6.04411">
        <ele>586</ele>
        <time>2021-09-10T10:36:34.817Z</time>
      </trkpt>
      <trkpt lat="45.76417" lon="6.04416">
        <ele>587</ele>
        <time>2021-09-10T10:36:35.817Z</time>
      </trkpt>
      <trkpt lat="45.76416" lon="6.0442">
        <ele>587</ele>
        <time>2021-09-10T10:36:36.817Z</time>
      </trkpt>
      <trkpt lat="45.76415" lon="6.04425">
        <ele>588</ele>
        <time>2021-09-10T10:36:37.816Z</time>
      </trkpt>
      <trkpt lat="45.76414" lon="6.0443">
        <ele>588</ele>
        <time>2021-09-10T10:36:38.816Z</time>
      </trkpt>
      <trkpt lat="45.76413" lon="6.04434">
        <ele>588</ele>
        <time>2021-09-10T10:36:39.816Z</time>
      </trkpt>
      <trkpt lat="45.76412" lon="6.04439">
        <ele>588</ele>
        <time>2021-09-10T10:36:40.817Z</time>
      </trkpt>
      <trkpt lat="45.76411" lon="6.04444">
        <ele>588</ele>
        <time>2021-09-10T10:36:41.817Z</time>
      </trkpt>
      <trkpt lat="45.7641" lon="6.04448">
        <ele>589</ele>
        <time>2021-09-10T10:36:42.817Z</time>
      </trkpt>
      <trkpt lat="45.76409" lon="6.04453">
        <ele>589</ele>
        <time>2021-09-10T10:36:43.816Z</time>
      </trkpt>
      <trkpt lat="45.76408" lon="6.04457">
        <ele>589</ele>
        <time>2021-09-10T10:36:44.817Z</time>
      </trkpt>
      <trkpt lat="45.76407" lon="6.04462">
        <ele>589</ele>
        <time>2021-09-10T10:36:45.817Z</time>
      </trkpt>
      <trkpt lat="45.76406" lon="6.04467">
        <ele>590</ele>
        <time>2021-09-10T10:36:46.817Z</time>
      </trkpt>
      <trkpt lat="45.76405" lon="6.04471">
        <ele>589</ele>
        <time>2021-09-10T10:36:47.817Z</time>
      </trkpt>
      <trkpt lat="45.76404" lon="6.04476">
        <ele>590</ele>
        <time>2021-09-10T10:36:48.817Z</time>
      </trkpt>
      <trkpt lat="45.76404" lon="6.04481">
        <ele>590</ele>
        <time>2021-09-10T10:36:49.817Z</time>
      </trkpt>
      <trkpt lat="45.76403" lon="6.04485">
        <ele>590</ele>
        <time>2021-09-10T10:36:50.817Z</time>
      </trkpt>
      <trkpt lat="45.76402" lon="6.04489">
        <ele>589</ele>
        <time>2021-09-10T10:36:51.817Z</time>
      </trkpt>
      <trkpt lat="45.76401" lon="6.04493">
        <ele>589</ele>
        <time>2021-09-10T10:36:52.817Z</time>
      </trkpt>
      <trkpt lat="45.76401" lon="6.04498">
        <ele>589</ele>
        <time>2021-09-10T10:36:53.816Z</time>
      </trkpt>
      <trkpt lat="45.764" lon="6.04502">
        <ele>589</ele>
        <time>2021-09-10T10:36:54.817Z</time>
      </trkpt>
      <trkpt lat="45.764" lon="6.04507">
        <ele>589</ele>
        <time>2021-09-10T10:36:55.817Z</time>
      </trkpt>
      <trkpt lat="45.76399" lon="6.04512">
        <ele>590</ele>
        <time>2021-09-10T10:36:56.816Z</time>
      </trkpt>
      <trkpt lat="45.76398" lon="6.04517">
        <ele>590</ele>
        <time>2021-09-10T10:36:57.817Z</time>
      </trkpt>
      <trkpt lat="45.76398" lon="6.04521">
        <ele>590</ele>
        <time>2021-09-10T10:36:58.816Z</time>
      </trkpt>
      <trkpt lat="45.76399" lon="6.04526">
        <ele>591</ele>
        <time>2021-09-10T10:36:59.816Z</time>
      </trkpt>
      <trkpt lat="45.76399" lon="6.0453">
        <ele>591</ele>
        <time>2021-09-10T10:37:00.817Z</time>
      </trkpt>
      <trkpt lat="45.76401" lon="6.04534">
        <ele>592</ele>
        <time>2021-09-10T10:37:01.817Z</time>
      </trkpt>
      <trkpt lat="45.76403" lon="6.04538">
        <ele>592</ele>
        <time>2021-09-10T10:37:02.816Z</time>
      </trkpt>
      <trkpt lat="45.76405" lon="6.04542">
        <ele>592</ele>
        <time>2021-09-10T10:37:03.817Z</time>
      </trkpt>
      <trkpt lat="45.76407" lon="6.04546">
        <ele>592</ele>
        <time>2021-09-10T10:37:04.817Z</time>
      </trkpt>
      <trkpt lat="45.76409" lon="6.04551">
        <ele>592</ele>
        <time>2021-09-10T10:37:05.817Z</time>
      </trkpt>
      <trkpt lat="45.76411" lon="6.04557">
        <ele>591</ele>
        <time>2021-09-10T10:37:06.817Z</time>
      </trkpt>
      <trkpt lat="45.76412" lon="6.04563">
        <ele>591</ele>
        <time>2021-09-10T10:37:07.817Z</time>
      </trkpt>
      <trkpt lat="45.76412" lon="6.04569">
        <ele>591</ele>
        <time>2021-09-10T10:37:08.817Z</time>
      </trkpt>
      <trkpt lat="45.76412" lon="6.04576">
        <ele>590</ele>
        <time>2021-09-10T10:37:09.817Z</time>
      </trkpt>
      <trkpt lat="45.76412" lon="6.04583">
        <ele>590</ele>
        <time>2021-09-10T10:37:10.816Z</time>
      </trkpt>
      <trkpt lat="45.76413" lon="6.04589">
        <ele>590</ele>
        <time>2021-09-10T10:37:11.817Z</time>
      </trkpt>
      <trkpt lat="45.76413" lon="6.04596">
        <ele>590</ele>
        <time>2021-09-10T10:37:12.817Z</time>
      </trkpt>
      <trkpt lat="45.76414" lon="6.04603">
        <ele>591</ele>
        <time>2021-09-10T10:37:13.816Z</time>
      </trkpt>
      <trkpt lat="45.76415" lon="6.0461">
        <ele>591</ele>
        <time>2021-09-10T10:37:14.817Z</time>
      </trkpt>
      <trkpt lat="45.76416" lon="6.04618">
        <ele>592</ele>
        <time>2021-09-10T10:37:15.816Z</time>
      </trkpt>
      <trkpt lat="45.76417" lon="6.04625">
        <ele>592</ele>
        <time>2021-09-10T10:37:16.817Z</time>
      </trkpt>
      <trkpt lat="45.76418" lon="6.04633">
        <ele>592</ele>
        <time>2021-09-10T10:37:17.816Z</time>
      </trkpt>
      <trkpt lat="45.76419" lon="6.04641">
        <ele>591</ele>
        <time>2021-09-10T10:37:18.816Z</time>
      </trkpt>
      <trkpt lat="45.7642" lon="6.04648">
        <ele>591</ele>
        <time>2021-09-10T10:37:19.817Z</time>
      </trkpt>
      <trkpt lat="45.76421" lon="6.04656">
        <ele>591</ele>
        <time>2021-09-10T10:37:20.817Z</time>
      </trkpt>
      <trkpt lat="45.76422" lon="6.04665">
        <ele>592</ele>
        <time>2021-09-10T10:37:21.817Z</time>
      </trkpt>
      <trkpt lat="45.76424" lon="6.04673">
        <ele>592</ele>
        <time>2021-09-10T10:37:22.817Z</time>
      </trkpt>
      <trkpt lat="45.76425" lon="6.04681">
        <ele>592</ele>
        <time>2021-09-10T10:37:23.816Z</time>
      </trkpt>
      <trkpt lat="45.76426" lon="6.0469">
        <ele>591</ele>
        <time>2021-09-10T10:37:24.816Z</time>
      </trkpt>
      <trkpt lat="45.76428" lon="6.04698">
        <ele>591</ele>
        <time>2021-09-10T10:37:25.817Z</time>
      </trkpt>
      <trkpt lat="45.76429" lon="6.04707">
        <ele>591</ele>
        <time>2021-09-10T10:37:26.817Z</time>
      </trkpt>
      <trkpt lat="45.7643" lon="6.04716">
        <ele>591</ele>
        <time>2021-09-10T10:37:27.817Z</time>
      </trkpt>
      <trkpt lat="45.76432" lon="6.04724">
        <ele>591</ele>
        <time>2021-09-10T10:37:28.816Z</time>
      </trkpt>
      <trkpt lat="45.76433" lon="6.04733">
        <ele>591</ele>
        <time>2021-09-10T10:37:29.817Z</time>
      </trkpt>
      <trkpt lat="45.76434" lon="6.04743">
        <ele>590</ele>
        <time>2021-09-10T10:37:30.816Z</time>
      </trkpt>
      <trkpt lat="45.76435" lon="6.04752">
        <ele>590</ele>
        <time>2021-09-10T10:37:31.817Z</time>
      </trkpt>
      <trkpt lat="45.76436" lon="6.04762">
        <ele>590</ele>
        <time>2021-09-10T10:37:32.817Z</time>
      </trkpt>
      <trkpt lat="45.76436" lon="6.04772">
        <ele>590</ele>
        <time>2021-09-10T10:37:33.817Z</time>
      </trkpt>
      <trkpt lat="45.76435" lon="6.04781">
        <ele>589</ele>
        <time>2021-09-10T10:37:34.817Z</time>
      </trkpt>
      <trkpt lat="45.76434" lon="6.04791">
        <ele>589</ele>
        <time>2021-09-10T10:37:35.816Z</time>
      </trkpt>
      <trkpt lat="45.76432" lon="6.048">
        <ele>588</ele>
        <time>2021-09-10T10:37:36.817Z</time>
      </trkpt>
      <trkpt lat="45.7643" lon="6.0481">
        <ele>588</ele>
        <time>2021-09-10T10:37:37.817Z</time>
      </trkpt>
      <trkpt lat="45.76428" lon="6.04819">
        <ele>588</ele>
        <time>2021-09-10T10:37:38.817Z</time>
      </trkpt>
      <trkpt lat="45.76426" lon="6.04829">
        <ele>587</ele>
        <time>2021-09-10T10:37:39.816Z</time>
      </trkpt>
      <trkpt lat="45.76423" lon="6.04838">
        <ele>587</ele>
        <time>2021-09-10T10:37:40.817Z</time>
      </trkpt>
      <trkpt lat="45.76422" lon="6.04848">
        <ele>587</ele>
        <time>2021-09-10T10:37:41.817Z</time>
      </trkpt>
      <trkpt lat="45.76421" lon="6.04857">
        <ele>587</ele>
        <time>2021-09-10T10:37:42.817Z</time>
      </trkpt>
      <trkpt lat="45.7642" lon="6.04866">
        <ele>587</ele>
        <time>2021-09-10T10:37:43.816Z</time>
      </trkpt>
      <trkpt lat="45.76421" lon="6.04876">
        <ele>587</ele>
        <time>2021-09-10T10:37:44.817Z</time>
      </trkpt>
      <trkpt lat="45.76422" lon="6.04885">
        <ele>586</ele>
        <time>2021-09-10T10:37:45.817Z</time>
      </trkpt>
      <trkpt lat="45.76424" lon="6.04895">
        <ele>586</ele>
        <time>2021-09-10T10:37:46.817Z</time>
      </trkpt>
      <trkpt lat="45.76427" lon="6.04904">
        <ele>586</ele>
        <time>2021-09-10T10:37:47.817Z</time>
      </trkpt>
      <trkpt lat="45.7643" lon="6.04914">
        <ele>585</ele>
        <time>2021-09-10T10:37:48.817Z</time>
      </trkpt>
      <trkpt lat="45.76433" lon="6.04925">
        <ele>585</ele>
        <time>2021-09-10T10:37:49.817Z</time>
      </trkpt>
      <trkpt lat="45.76436" lon="6.04936">
        <ele>585</ele>
        <time>2021-09-10T10:37:50.817Z</time>
      </trkpt>
      <trkpt lat="45.76439" lon="6.04947">
        <ele>585</ele>
        <time>2021-09-10T10:37:51.817Z</time>
      </trkpt>
      <trkpt lat="45.76443" lon="6.04958">
        <ele>584</ele>
        <time>2021-09-10T10:37:52.817Z</time>
      </trkpt>
      <trkpt lat="45.76446" lon="6.0497">
        <ele>584</ele>
        <time>2021-09-10T10:37:53.816Z</time>
      </trkpt>
      <trkpt lat="45.7645" lon="6.04981">
        <ele>584</ele>
        <time>2021-09-10T10:37:54.816Z</time>
      </trkpt>
      <trkpt lat="45.76452" lon="6.04992">
        <ele>584</ele>
        <time>2021-09-10T10:37:55.817Z</time>
      </trkpt>
      <trkpt lat="45.76454" lon="6.05002">
        <ele>583</ele>
        <time>2021-09-10T10:37:56.816Z</time>
      </trkpt>
      <trkpt lat="45.76454" lon="6.05013">
        <ele>583</ele>
        <time>2021-09-10T10:37:57.817Z</time>
      </trkpt>
      <trkpt lat="45.76453" lon="6.05022">
        <ele>582</ele>
        <time>2021-09-10T10:37:58.817Z</time>
      </trkpt>
      <trkpt lat="45.7645" lon="6.05031">
        <ele>581</ele>
        <time>2021-09-10T10:37:59.817Z</time>
      </trkpt>
      <trkpt lat="45.76445" lon="6.05037">
        <ele>581</ele>
        <time>2021-09-10T10:38:00.816Z</time>
      </trkpt>
      <trkpt lat="45.76439" lon="6.05042">
        <ele>581</ele>
        <time>2021-09-10T10:38:01.816Z</time>
      </trkpt>
      <trkpt lat="45.76432" lon="6.05047">
        <ele>580</ele>
        <time>2021-09-10T10:38:02.816Z</time>
      </trkpt>
      <trkpt lat="45.76425" lon="6.05051">
        <ele>579</ele>
        <time>2021-09-10T10:38:03.816Z</time>
      </trkpt>
      <trkpt lat="45.76419" lon="6.05055">
        <ele>579</ele>
        <time>2021-09-10T10:38:04.817Z</time>
      </trkpt>
      <trkpt lat="45.76412" lon="6.0506">
        <ele>579</ele>
        <time>2021-09-10T10:38:05.817Z</time>
      </trkpt>
      <trkpt lat="45.76408" lon="6.05066">
        <ele>578</ele>
        <time>2021-09-10T10:38:06.816Z</time>
      </trkpt>
      <trkpt lat="45.76404" lon="6.05073">
        <ele>578</ele>
        <time>2021-09-10T10:38:07.817Z</time>
      </trkpt>
      <trkpt lat="45.764" lon="6.05082">
        <ele>578</ele>
        <time>2021-09-10T10:38:08.816Z</time>
      </trkpt>
      <trkpt lat="45.76396" lon="6.0509">
        <ele>579</ele>
        <time>2021-09-10T10:38:09.817Z</time>
      </trkpt>
      <trkpt lat="45.76392" lon="6.051">
        <ele>579</ele>
        <time>2021-09-10T10:38:10.817Z</time>
      </trkpt>
      <trkpt lat="45.76388" lon="6.05109">
        <ele>579</ele>
        <time>2021-09-10T10:38:11.817Z</time>
      </trkpt>
      <trkpt lat="45.76385" lon="6.05118">
        <ele>579</ele>
        <time>2021-09-10T10:38:12.816Z</time>
      </trkpt>
      <trkpt lat="45.76383" lon="6.05128">
        <ele>579</ele>
        <time>2021-09-10T10:38:13.817Z</time>
      </trkpt>
      <trkpt lat="45.76382" lon="6.05138">
        <ele>579</ele>
        <time>2021-09-10T10:38:14.817Z</time>
      </trkpt>
      <trkpt lat="45.76383" lon="6.05148">
        <ele>579</ele>
        <time>2021-09-10T10:38:15.816Z</time>
      </trkpt>
      <trkpt lat="45.76384" lon="6.05158">
        <ele>579</ele>
        <time>2021-09-10T10:38:16.817Z</time>
      </trkpt>
      <trkpt lat="45.76387" lon="6.05166">
        <ele>578</ele>
        <time>2021-09-10T10:38:17.817Z</time>
      </trkpt>
      <trkpt lat="45.7639" lon="6.05174">
        <ele>578</ele>
        <time>2021-09-10T10:38:18.817Z</time>
      </trkpt>
      <trkpt lat="45.76393" lon="6.05181">
        <ele>578</ele>
        <time>2021-09-10T10:38:19.817Z</time>
      </trkpt>
      <trkpt lat="45.76395" lon="6.05189">
        <ele>577</ele>
        <time>2021-09-10T10:38:20.817Z</time>
      </trkpt>
      <trkpt lat="45.76398" lon="6.05198">
        <ele>577</ele>
        <time>2021-09-10T10:38:21.817Z</time>
      </trkpt>
      <trkpt lat="45.76399" lon="6.05206">
        <ele>576</ele>
        <time>2021-09-10T10:38:22.816Z</time>
      </trkpt>
      <trkpt lat="45.76399" lon="6.05215">
        <ele>576</ele>
        <time>2021-09-10T10:38:23.817Z</time>
      </trkpt>
      <trkpt lat="45.76399" lon="6.05223">
        <ele>575</ele>
        <time>2021-09-10T10:38:24.816Z</time>
      </trkpt>
      <trkpt lat="45.76396" lon="6.0523">
        <ele>574</ele>
        <time>2021-09-10T10:38:25.817Z</time>
      </trkpt>
      <trkpt lat="45.76392" lon="6.05237">
        <ele>574</ele>
        <time>2021-09-10T10:38:26.817Z</time>
      </trkpt>
      <trkpt lat="45.76388" lon="6.05241">
        <ele>573</ele>
        <time>2021-09-10T10:38:27.816Z</time>
      </trkpt>
      <trkpt lat="45.76382" lon="6.05245">
        <ele>573</ele>
        <time>2021-09-10T10:38:28.817Z</time>
      </trkpt>
      <trkpt lat="45.76376" lon="6.05247">
        <ele>573</ele>
        <time>2021-09-10T10:38:29.817Z</time>
      </trkpt>
      <trkpt lat="45.76369" lon="6.05249">
        <ele>572</ele>
        <time>2021-09-10T10:38:30.817Z</time>
      </trkpt>
      <trkpt lat="45.76363" lon="6.05251">
        <ele>572</ele>
        <time>2021-09-10T10:38:31.817Z</time>
      </trkpt>
      <trkpt lat="45.76357" lon="6.05255">
        <ele>572</ele>
        <time>2021-09-10T10:38:32.816Z</time>
      </trkpt>
      <trkpt lat="45.76351" lon="6.0526">
        <ele>573</ele>
        <time>2021-09-10T10:38:33.816Z</time>
      </trkpt>
      <trkpt lat="45.76346" lon="6.05267">
        <ele>573</ele>
        <time>2021-09-10T10:38:34.817Z</time>
      </trkpt>
      <trkpt lat="45.76344" lon="6.05276">
        <ele>573</ele>
        <time>2021-09-10T10:38:35.817Z</time>
      </trkpt>
      <trkpt lat="45.76342" lon="6.05284">
        <ele>573</ele>
        <time>2021-09-10T10:38:36.817Z</time>
      </trkpt>
      <trkpt lat="45.76342" lon="6.05291">
        <ele>573</ele>
        <time>2021-09-10T10:38:37.817Z</time>
      </trkpt>
      <trkpt lat="45.76343" lon="6.05301">
        <ele>573</ele>
        <time>2021-09-10T10:38:38.817Z</time>
      </trkpt>
      <trkpt lat="45.76344" lon="6.05309">
        <ele>573</ele>
        <time>2021-09-10T10:38:39.816Z</time>
      </trkpt>
      <trkpt lat="45.76345" lon="6.05318">
        <ele>573</ele>
        <time>2021-09-10T10:38:40.817Z</time>
      </trkpt>
      <trkpt lat="45.76345" lon="6.05327">
        <ele>573</ele>
        <time>2021-09-10T10:38:41.817Z</time>
      </trkpt>
      <trkpt lat="45.76346" lon="6.05335">
        <ele>573</ele>
        <time>2021-09-10T10:38:42.816Z</time>
      </trkpt>
      <trkpt lat="45.76345" lon="6.05343">
        <ele>572</ele>
        <time>2021-09-10T10:38:43.817Z</time>
      </trkpt>
      <trkpt lat="45.76343" lon="6.05353">
        <ele>572</ele>
        <time>2021-09-10T10:38:44.817Z</time>
      </trkpt>
      <trkpt lat="45.7634" lon="6.05363">
        <ele>571</ele>
        <time>2021-09-10T10:38:45.817Z</time>
      </trkpt>
      <trkpt lat="45.76338" lon="6.05372">
        <ele>571</ele>
        <time>2021-09-10T10:38:46.816Z</time>
      </trkpt>
      <trkpt lat="45.76336" lon="6.05382">
        <ele>570</ele>
        <time>2021-09-10T10:38:47.816Z</time>
      </trkpt>
      <trkpt lat="45.76333" lon="6.05393">
        <ele>569</ele>
        <time>2021-09-10T10:38:48.817Z</time>
      </trkpt>
      <trkpt lat="45.76332" lon="6.05403">
        <ele>568</ele>
        <time>2021-09-10T10:38:49.816Z</time>
      </trkpt>
      <trkpt lat="45.76333" lon="6.05414">
        <ele>568</ele>
        <time>2021-09-10T10:38:50.817Z</time>
      </trkpt>
      <trkpt lat="45.76334" lon="6.05424">
        <ele>567</ele>
        <time>2021-09-10T10:38:51.817Z</time>
      </trkpt>
      <trkpt lat="45.76335" lon="6.05434">
        <ele>566</ele>
        <time>2021-09-10T10:38:52.817Z</time>
      </trkpt>
      <trkpt lat="45.76338" lon="6.05444">
        <ele>565</ele>
        <time>2021-09-10T10:38:53.816Z</time>
      </trkpt>
      <trkpt lat="45.7634" lon="6.05453">
        <ele>564</ele>
        <time>2021-09-10T10:38:54.817Z</time>
      </trkpt>
      <trkpt lat="45.76343" lon="6.05462">
        <ele>563</ele>
        <time>2021-09-10T10:38:55.817Z</time>
      </trkpt>
      <trkpt lat="45.76347" lon="6.0547">
        <ele>562</ele>
        <time>2021-09-10T10:38:56.816Z</time>
      </trkpt>
      <trkpt lat="45.76352" lon="6.05479">
        <ele>561</ele>
        <time>2021-09-10T10:38:57.816Z</time>
      </trkpt>
      <trkpt lat="45.76357" lon="6.05487">
        <ele>561</ele>
        <time>2021-09-10T10:38:58.816Z</time>
      </trkpt>
      <trkpt lat="45.76361" lon="6.05496">
        <ele>560</ele>
        <time>2021-09-10T10:38:59.816Z</time>
      </trkpt>
      <trkpt lat="45.76366" lon="6.05505">
        <ele>559</ele>
        <time>2021-09-10T10:39:00.817Z</time>
      </trkpt>
      <trkpt lat="45.76371" lon="6.05514">
        <ele>559</ele>
        <time>2021-09-10T10:39:01.816Z</time>
      </trkpt>
      <trkpt lat="45.76375" lon="6.05522">
        <ele>558</ele>
        <time>2021-09-10T10:39:02.817Z</time>
      </trkpt>
      <trkpt lat="45.76379" lon="6.0553">
        <ele>557</ele>
        <time>2021-09-10T10:39:03.817Z</time>
      </trkpt>
      <trkpt lat="45.76382" lon="6.05538">
        <ele>557</ele>
        <time>2021-09-10T10:39:04.817Z</time>
      </trkpt>
      <trkpt lat="45.76386" lon="6.05546">
        <ele>556</ele>
        <time>2021-09-10T10:39:05.817Z</time>
      </trkpt>
      <trkpt lat="45.76389" lon="6.05552">
        <ele>556</ele>
        <time>2021-09-10T10:39:06.817Z</time>
      </trkpt>
      <trkpt lat="45.76392" lon="6.05558">
        <ele>555</ele>
        <time>2021-09-10T10:39:07.816Z</time>
      </trkpt>
      <trkpt lat="45.76394" lon="6.05563">
        <ele>555</ele>
        <time>2021-09-10T10:39:08.817Z</time>
      </trkpt>
      <trkpt lat="45.76396" lon="6.05568">
        <ele>554</ele>
        <time>2021-09-10T10:39:09.817Z</time>
      </trkpt>
      <trkpt lat="45.76399" lon="6.05573">
        <ele>554</ele>
        <time>2021-09-10T10:39:10.816Z</time>
      </trkpt>
      <trkpt lat="45.76402" lon="6.05578">
        <ele>554</ele>
        <time>2021-09-10T10:39:11.817Z</time>
      </trkpt>
      <trkpt lat="45.76405" lon="6.05583">
        <ele>553</ele>
        <time>2021-09-10T10:39:12.817Z</time>
      </trkpt>
      <trkpt lat="45.76407" lon="6.05588">
        <ele>553</ele>
        <time>2021-09-10T10:39:13.817Z</time>
      </trkpt>
      <trkpt lat="45.76409" lon="6.05593">
        <ele>553</ele>
        <time>2021-09-10T10:39:14.816Z</time>
      </trkpt>
      <trkpt lat="45.76411" lon="6.05598">
        <ele>553</ele>
        <time>2021-09-10T10:39:15.817Z</time>
      </trkpt>
      <trkpt lat="45.76413" lon="6.05604">
        <ele>552</ele>
        <time>2021-09-10T10:39:16.817Z</time>
      </trkpt>
      <trkpt lat="45.76416" lon="6.0561">
        <ele>552</ele>
        <time>2021-09-10T10:39:17.817Z</time>
      </trkpt>
      <trkpt lat="45.76417" lon="6.05615">
        <ele>551</ele>
        <time>2021-09-10T10:39:18.816Z</time>
      </trkpt>
      <trkpt lat="45.76419" lon="6.0562">
        <ele>551</ele>
        <time>2021-09-10T10:39:19.817Z</time>
      </trkpt>
      <trkpt lat="45.76421" lon="6.05624">
        <ele>550</ele>
        <time>2021-09-10T10:39:20.817Z</time>
      </trkpt>
      <trkpt lat="45.76423" lon="6.05628">
        <ele>550</ele>
        <time>2021-09-10T10:39:21.817Z</time>
      </trkpt>
      <trkpt lat="45.76425" lon="6.05632">
        <ele>549</ele>
        <time>2021-09-10T10:39:22.817Z</time>
      </trkpt>
      <trkpt lat="45.76427" lon="6.05636">
        <ele>548</ele>
        <time>2021-09-10T10:39:23.817Z</time>
      </trkpt>
      <trkpt lat="45.76429" lon="6.05639">
        <ele>548</ele>
        <time>2021-09-10T10:39:24.817Z</time>
      </trkpt>
      <trkpt lat="45.76431" lon="6.05643">
        <ele>547</ele>
        <time>2021-09-10T10:39:25.817Z</time>
      </trkpt>
      <trkpt lat="45.76432" lon="6.05646">
        <ele>547</ele>
        <time>2021-09-10T10:39:26.817Z</time>
      </trkpt>
      <trkpt lat="45.76434" lon="6.05649">
        <ele>547</ele>
        <time>2021-09-10T10:39:27.817Z</time>
      </trkpt>
      <trkpt lat="45.76435" lon="6.05652">
        <ele>547</ele>
        <time>2021-09-10T10:39:28.817Z</time>
      </trkpt>
      <trkpt lat="45.76437" lon="6.05655">
        <ele>547</ele>
        <time>2021-09-10T10:39:29.817Z</time>
      </trkpt>
      <trkpt lat="45.76438" lon="6.05658">
        <ele>547</ele>
        <time>2021-09-10T10:39:30.816Z</time>
      </trkpt>
      <trkpt lat="45.7644" lon="6.05661">
        <ele>548</ele>
        <time>2021-09-10T10:39:31.817Z</time>
      </trkpt>
      <trkpt lat="45.76442" lon="6.05664">
        <ele>548</ele>
        <time>2021-09-10T10:39:32.816Z</time>
      </trkpt>
      <trkpt lat="45.76443" lon="6.05667">
        <ele>548</ele>
        <time>2021-09-10T10:39:33.816Z</time>
      </trkpt>
      <trkpt lat="45.76444" lon="6.05669">
        <ele>548</ele>
        <time>2021-09-10T10:39:34.817Z</time>
      </trkpt>
      <trkpt lat="45.76445" lon="6.05672">
        <ele>548</ele>
        <time>2021-09-10T10:39:35.817Z</time>
      </trkpt>
      <trkpt lat="45.76446" lon="6.05675">
        <ele>548</ele>
        <time>2021-09-10T10:39:36.817Z</time>
      </trkpt>
      <trkpt lat="45.76447" lon="6.05677">
        <ele>548</ele>
        <time>2021-09-10T10:39:37.816Z</time>
      </trkpt>
      <trkpt lat="45.76448" lon="6.0568">
        <ele>548</ele>
        <time>2021-09-10T10:39:38.817Z</time>
      </trkpt>
      <trkpt lat="45.76449" lon="6.05684">
        <ele>548</ele>
        <time>2021-09-10T10:39:39.816Z</time>
      </trkpt>
      <trkpt lat="45.7645" lon="6.05686">
        <ele>547</ele>
        <time>2021-09-10T10:39:40.817Z</time>
      </trkpt>
      <trkpt lat="45.76452" lon="6.05689">
        <ele>547</ele>
        <time>2021-09-10T10:39:41.817Z</time>
      </trkpt>
      <trkpt lat="45.76453" lon="6.05692">
        <ele>547</ele>
        <time>2021-09-10T10:39:42.817Z</time>
      </trkpt>
      <trkpt lat="45.76454" lon="6.05695">
        <ele>548</ele>
        <time>2021-09-10T10:39:43.816Z</time>
      </trkpt>
      <trkpt lat="45.76456" lon="6.05698">
        <ele>548</ele>
        <time>2021-09-10T10:39:44.817Z</time>
      </trkpt>
      <trkpt lat="45.76457" lon="6.05701">
        <ele>548</ele>
        <time>2021-09-10T10:39:45.817Z</time>
      </trkpt>
      <trkpt lat="45.76459" lon="6.05704">
        <ele>548</ele>
        <time>2021-09-10T10:39:46.817Z</time>
      </trkpt>
      <trkpt lat="45.7646" lon="6.05707">
        <ele>548</ele>
        <time>2021-09-10T10:39:47.817Z</time>
      </trkpt>
      <trkpt lat="45.76461" lon="6.0571">
        <ele>549</ele>
        <time>2021-09-10T10:39:48.817Z</time>
      </trkpt>
      <trkpt lat="45.76462" lon="6.05714">
        <ele>549</ele>
        <time>2021-09-10T10:39:49.816Z</time>
      </trkpt>
      <trkpt lat="45.76463" lon="6.05717">
        <ele>549</ele>
        <time>2021-09-10T10:39:50.817Z</time>
      </trkpt>
      <trkpt lat="45.76465" lon="6.05721">
        <ele>549</ele>
        <time>2021-09-10T10:39:51.816Z</time>
      </trkpt>
      <trkpt lat="45.76465" lon="6.05723">
        <ele>549</ele>
        <time>2021-09-10T10:39:52.816Z</time>
      </trkpt>
      <trkpt lat="45.76466" lon="6.05725">
        <ele>549</ele>
        <time>2021-09-10T10:39:53.817Z</time>
      </trkpt>
      <trkpt lat="45.76466" lon="6.05727">
        <ele>550</ele>
        <time>2021-09-10T10:39:54.817Z</time>
      </trkpt>
      <trkpt lat="45.76467" lon="6.05729">
        <ele>550</ele>
        <time>2021-09-10T10:39:55.816Z</time>
      </trkpt>
      <trkpt lat="45.76466" lon="6.05729">
        <ele>551</ele>
        <time>2021-09-10T10:39:56.817Z</time>
      </trkpt>
      <trkpt lat="45.76466" lon="6.0573">
        <ele>551</ele>
        <time>2021-09-10T10:39:57.817Z</time>
      </trkpt>
      <trkpt lat="45.76467" lon="6.05731">
        <ele>552</ele>
        <time>2021-09-10T10:39:58.817Z</time>
      </trkpt>
      <trkpt lat="45.76469" lon="6.05732">
        <ele>552</ele>
        <time>2021-09-10T10:39:59.816Z</time>
      </trkpt>
      <trkpt lat="45.76469" lon="6.05731">
        <ele>552</ele>
        <time>2021-09-10T10:40:00.816Z</time>
      </trkpt>
      <trkpt lat="45.76469" lon="6.05731">
        <ele>552</ele>
        <time>2021-09-10T10:40:01.817Z</time>
      </trkpt>
      <trkpt lat="45.7647" lon="6.05733">
        <ele>550</ele>
        <time>2021-09-10T10:40:02.818Z</time>
      </trkpt>
      <trkpt lat="45.7647" lon="6.05733">
        <ele>550</ele>
        <time>2021-09-10T10:40:03.818Z</time>
      </trkpt>
      <trkpt lat="45.7647" lon="6.05734">
        <ele>551</ele>
        <time>2021-09-10T10:40:04.817Z</time>
      </trkpt>
      <trkpt lat="45.7647" lon="6.05735">
        <ele>551</ele>
        <time>2021-09-10T10:40:05.818Z</time>
      </trkpt>
      <trkpt lat="45.7647" lon="6.05736">
        <ele>551</ele>
        <time>2021-09-10T10:40:06.817Z</time>
      </trkpt>
      <trkpt lat="45.7647" lon="6.05737">
        <ele>552</ele>
        <time>2021-09-10T10:40:07.817Z</time>
      </trkpt>
      <trkpt lat="45.7647" lon="6.05738">
        <ele>552</ele>
        <time>2021-09-10T10:40:08.818Z</time>
      </trkpt>
      <trkpt lat="45.76469" lon="6.05738">
        <ele>552</ele>
        <time>2021-09-10T10:40:09.818Z</time>
      </trkpt>
      <trkpt lat="45.76468" lon="6.05737">
        <ele>552</ele>
        <time>2021-09-10T10:40:10.818Z</time>
      </trkpt>
      <trkpt lat="45.76471" lon="6.05732">
        <ele>550</ele>
        <time>2021-09-10T10:40:11.819Z</time>
      </trkpt>
      <trkpt lat="45.76472" lon="6.05731">
        <ele>550</ele>
        <time>2021-09-10T10:40:12.818Z</time>
      </trkpt>
      <trkpt lat="45.76474" lon="6.05729">
        <ele>550</ele>
        <time>2021-09-10T10:40:13.818Z</time>
      </trkpt>
      <trkpt lat="45.76477" lon="6.05728">
        <ele>550</ele>
        <time>2021-09-10T10:40:14.819Z</time>
      </trkpt>
      <trkpt lat="45.76479" lon="6.05728">
        <ele>550</ele>
        <time>2021-09-10T10:40:15.819Z</time>
      </trkpt>
      <trkpt lat="45.76481" lon="6.05727">
        <ele>550</ele>
        <time>2021-09-10T10:40:16.819Z</time>
      </trkpt>
      <trkpt lat="45.76482" lon="6.05726">
        <ele>549</ele>
        <time>2021-09-10T10:40:17.818Z</time>
      </trkpt>
      <trkpt lat="45.76484" lon="6.05725">
        <ele>549</ele>
        <time>2021-09-10T10:40:18.818Z</time>
      </trkpt>
      <trkpt lat="45.76486" lon="6.05724">
        <ele>549</ele>
        <time>2021-09-10T10:40:19.818Z</time>
      </trkpt>
      <trkpt lat="45.76487" lon="6.05724">
        <ele>549</ele>
        <time>2021-09-10T10:40:20.818Z</time>
      </trkpt>
      <trkpt lat="45.76489" lon="6.05722">
        <ele>548</ele>
        <time>2021-09-10T10:40:21.819Z</time>
      </trkpt>
      <trkpt lat="45.76491" lon="6.05721">
        <ele>548</ele>
        <time>2021-09-10T10:40:22.818Z</time>
      </trkpt>
      <trkpt lat="45.76493" lon="6.05719">
        <ele>549</ele>
        <time>2021-09-10T10:40:23.818Z</time>
      </trkpt>
      <trkpt lat="45.76494" lon="6.05717">
        <ele>549</ele>
        <time>2021-09-10T10:40:24.819Z</time>
      </trkpt>
      <trkpt lat="45.76496" lon="6.05716">
        <ele>549</ele>
        <time>2021-09-10T10:40:25.819Z</time>
      </trkpt>
      <trkpt lat="45.76498" lon="6.05715">
        <ele>549</ele>
        <time>2021-09-10T10:40:26.819Z</time>
      </trkpt>
      <trkpt lat="45.76501" lon="6.05713">
        <ele>549</ele>
        <time>2021-09-10T10:40:27.818Z</time>
      </trkpt>
      <trkpt lat="45.76503" lon="6.05711">
        <ele>549</ele>
        <time>2021-09-10T10:40:28.818Z</time>
      </trkpt>
      <trkpt lat="45.76506" lon="6.05709">
        <ele>549</ele>
        <time>2021-09-10T10:40:29.819Z</time>
      </trkpt>
      <trkpt lat="45.76508" lon="6.05708">
        <ele>549</ele>
        <time>2021-09-10T10:40:30.818Z</time>
      </trkpt>
      <trkpt lat="45.76509" lon="6.05706">
        <ele>549</ele>
        <time>2021-09-10T10:40:31.819Z</time>
      </trkpt>
      <trkpt lat="45.76511" lon="6.05705">
        <ele>549</ele>
        <time>2021-09-10T10:40:32.819Z</time>
      </trkpt>
      <trkpt lat="45.76513" lon="6.05703">
        <ele>549</ele>
        <time>2021-09-10T10:40:33.819Z</time>
      </trkpt>
      <trkpt lat="45.76515" lon="6.05702">
        <ele>549</ele>
        <time>2021-09-10T10:40:34.819Z</time>
      </trkpt>
      <trkpt lat="45.76517" lon="6.05701">
        <ele>549</ele>
        <time>2021-09-10T10:40:35.818Z</time>
      </trkpt>
      <trkpt lat="45.76519" lon="6.057">
        <ele>549</ele>
        <time>2021-09-10T10:40:36.819Z</time>
      </trkpt>
      <trkpt lat="45.76521" lon="6.057">
        <ele>550</ele>
        <time>2021-09-10T10:40:37.819Z</time>
      </trkpt>
      <trkpt lat="45.76524" lon="6.057">
        <ele>550</ele>
        <time>2021-09-10T10:40:38.819Z</time>
      </trkpt>
      <trkpt lat="45.76526" lon="6.057">
        <ele>550</ele>
        <time>2021-09-10T10:40:39.819Z</time>
      </trkpt>
      <trkpt lat="45.76528" lon="6.05699">
        <ele>551</ele>
        <time>2021-09-10T10:40:58.925Z</time>
      </trkpt>
      <trkpt lat="45.76531" lon="6.057">
        <ele>551</ele>
        <time>2021-09-10T10:40:59.925Z</time>
      </trkpt>
      <trkpt lat="45.76533" lon="6.057">
        <ele>551</ele>
        <time>2021-09-10T10:41:00.925Z</time>
      </trkpt>
      <trkpt lat="45.76536" lon="6.057">
        <ele>551</ele>
        <time>2021-09-10T10:41:01.925Z</time>
      </trkpt>
      <trkpt lat="45.76537" lon="6.05701">
        <ele>551</ele>
        <time>2021-09-10T10:41:02.925Z</time>
      </trkpt>
      <trkpt lat="45.76539" lon="6.05702">
        <ele>551</ele>
        <time>2021-09-10T10:41:03.925Z</time>
      </trkpt>
      <trkpt lat="45.76542" lon="6.05702">
        <ele>551</ele>
        <time>2021-09-10T10:41:04.925Z</time>
      </trkpt>
      <trkpt lat="45.76544" lon="6.05703">
        <ele>551</ele>
        <time>2021-09-10T10:41:05.925Z</time>
      </trkpt>
      <trkpt lat="45.76546" lon="6.05704">
        <ele>550</ele>
        <time>2021-09-10T10:41:06.925Z</time>
      </trkpt>
      <trkpt lat="45.76548" lon="6.05704">
        <ele>550</ele>
        <time>2021-09-10T10:41:07.925Z</time>
      </trkpt>
      <trkpt lat="45.76551" lon="6.05705">
        <ele>550</ele>
        <time>2021-09-10T10:41:08.924Z</time>
      </trkpt>
      <trkpt lat="45.76553" lon="6.05705">
        <ele>550</ele>
        <time>2021-09-10T10:41:09.925Z</time>
      </trkpt>
      <trkpt lat="45.76555" lon="6.05705">
        <ele>550</ele>
        <time>2021-09-10T10:41:10.925Z</time>
      </trkpt>
      <trkpt lat="45.76557" lon="6.05705">
        <ele>550</ele>
        <time>2021-09-10T10:41:11.925Z</time>
      </trkpt>
      <trkpt lat="45.76559" lon="6.05706">
        <ele>550</ele>
        <time>2021-09-10T10:41:12.925Z</time>
      </trkpt>
      <trkpt lat="45.76561" lon="6.05705">
        <ele>550</ele>
        <time>2021-09-10T10:41:13.925Z</time>
      </trkpt>
      <trkpt lat="45.76564" lon="6.05706">
        <ele>550</ele>
        <time>2021-09-10T10:41:14.924Z</time>
      </trkpt>
      <trkpt lat="45.76566" lon="6.05706">
        <ele>550</ele>
        <time>2021-09-10T10:41:15.924Z</time>
      </trkpt>
      <trkpt lat="45.76569" lon="6.05706">
        <ele>550</ele>
        <time>2021-09-10T10:41:16.924Z</time>
      </trkpt>
      <trkpt lat="45.76571" lon="6.05706">
        <ele>550</ele>
        <time>2021-09-10T10:41:17.924Z</time>
      </trkpt>
      <trkpt lat="45.76573" lon="6.05706">
        <ele>550</ele>
        <time>2021-09-10T10:41:18.924Z</time>
      </trkpt>
      <trkpt lat="45.76575" lon="6.05707">
        <ele>550</ele>
        <time>2021-09-10T10:41:19.924Z</time>
      </trkpt>
      <trkpt lat="45.76577" lon="6.05708">
        <ele>550</ele>
        <time>2021-09-10T10:41:20.924Z</time>
      </trkpt>
      <trkpt lat="45.76579" lon="6.05709">
        <ele>550</ele>
        <time>2021-09-10T10:41:21.924Z</time>
      </trkpt>
      <trkpt lat="45.76581" lon="6.0571">
        <ele>550</ele>
        <time>2021-09-10T10:41:22.924Z</time>
      </trkpt>
      <trkpt lat="45.76583" lon="6.05711">
        <ele>550</ele>
        <time>2021-09-10T10:41:23.925Z</time>
      </trkpt>
      <trkpt lat="45.76585" lon="6.05712">
        <ele>550</ele>
        <time>2021-09-10T10:41:24.925Z</time>
      </trkpt>
      <trkpt lat="45.76587" lon="6.05714">
        <ele>549</ele>
        <time>2021-09-10T10:41:25.924Z</time>
      </trkpt>
      <trkpt lat="45.76589" lon="6.05715">
        <ele>549</ele>
        <time>2021-09-10T10:41:26.925Z</time>
      </trkpt>
      <trkpt lat="45.76592" lon="6.05716">
        <ele>550</ele>
        <time>2021-09-10T10:41:27.925Z</time>
      </trkpt>
      <trkpt lat="45.76594" lon="6.05716">
        <ele>551</ele>
        <time>2021-09-10T10:41:28.925Z</time>
      </trkpt>
      <trkpt lat="45.76596" lon="6.05717">
        <ele>551</ele>
        <time>2021-09-10T10:41:29.925Z</time>
      </trkpt>
      <trkpt lat="45.76598" lon="6.05717">
        <ele>552</ele>
        <time>2021-09-10T10:41:30.925Z</time>
      </trkpt>
      <trkpt lat="45.76601" lon="6.05717">
        <ele>553</ele>
        <time>2021-09-10T10:41:31.924Z</time>
      </trkpt>
      <trkpt lat="45.76603" lon="6.05718">
        <ele>553</ele>
        <time>2021-09-10T10:41:32.925Z</time>
      </trkpt>
      <trkpt lat="45.76605" lon="6.05719">
        <ele>553</ele>
        <time>2021-09-10T10:41:33.924Z</time>
      </trkpt>
      <trkpt lat="45.76608" lon="6.05719">
        <ele>553</ele>
        <time>2021-09-10T10:41:34.925Z</time>
      </trkpt>
      <trkpt lat="45.7661" lon="6.0572">
        <ele>554</ele>
        <time>2021-09-10T10:41:35.925Z</time>
      </trkpt>
      <trkpt lat="45.76612" lon="6.0572">
        <ele>554</ele>
        <time>2021-09-10T10:41:36.924Z</time>
      </trkpt>
      <trkpt lat="45.76615" lon="6.0572">
        <ele>554</ele>
        <time>2021-09-10T10:41:37.925Z</time>
      </trkpt>
      <trkpt lat="45.76617" lon="6.0572">
        <ele>555</ele>
        <time>2021-09-10T10:41:38.925Z</time>
      </trkpt>
      <trkpt lat="45.76619" lon="6.05719">
        <ele>555</ele>
        <time>2021-09-10T10:41:39.925Z</time>
      </trkpt>
      <trkpt lat="45.76622" lon="6.05719">
        <ele>555</ele>
        <time>2021-09-10T10:41:40.924Z</time>
      </trkpt>
      <trkpt lat="45.76624" lon="6.05718">
        <ele>555</ele>
        <time>2021-09-10T10:41:41.925Z</time>
      </trkpt>
      <trkpt lat="45.76627" lon="6.05718">
        <ele>555</ele>
        <time>2021-09-10T10:41:42.925Z</time>
      </trkpt>
      <trkpt lat="45.76629" lon="6.05718">
        <ele>555</ele>
        <time>2021-09-10T10:41:43.925Z</time>
      </trkpt>
      <trkpt lat="45.76632" lon="6.05718">
        <ele>556</ele>
        <time>2021-09-10T10:41:44.925Z</time>
      </trkpt>
      <trkpt lat="45.76634" lon="6.05719">
        <ele>556</ele>
        <time>2021-09-10T10:41:45.925Z</time>
      </trkpt>
      <trkpt lat="45.76636" lon="6.05719">
        <ele>555</ele>
        <time>2021-09-10T10:41:46.925Z</time>
      </trkpt>
      <trkpt lat="45.76638" lon="6.05719">
        <ele>555</ele>
        <time>2021-09-10T10:41:47.925Z</time>
      </trkpt>
      <trkpt lat="45.7664" lon="6.05719">
        <ele>556</ele>
        <time>2021-09-10T10:41:48.925Z</time>
      </trkpt>
      <trkpt lat="45.76642" lon="6.0572">
        <ele>556</ele>
        <time>2021-09-10T10:41:49.925Z</time>
      </trkpt>
      <trkpt lat="45.76645" lon="6.05721">
        <ele>556</ele>
        <time>2021-09-10T10:41:50.925Z</time>
      </trkpt>
      <trkpt lat="45.76647" lon="6.05722">
        <ele>556</ele>
        <time>2021-09-10T10:41:51.925Z</time>
      </trkpt>
      <trkpt lat="45.76649" lon="6.05723">
        <ele>556</ele>
        <time>2021-09-10T10:41:52.925Z</time>
      </trkpt>
      <trkpt lat="45.76651" lon="6.05724">
        <ele>556</ele>
        <time>2021-09-10T10:41:53.925Z</time>
      </trkpt>
      <trkpt lat="45.76654" lon="6.05725">
        <ele>556</ele>
        <time>2021-09-10T10:42:00.071Z</time>
      </trkpt>
      <trkpt lat="45.76657" lon="6.05726">
        <ele>556</ele>
        <time>2021-09-10T10:42:32.948Z</time>
      </trkpt>
      <trkpt lat="45.76659" lon="6.05727">
        <ele>557</ele>
        <time>2021-09-10T10:42:33.949Z</time>
      </trkpt>
      <trkpt lat="45.76661" lon="6.05728">
        <ele>557</ele>
        <time>2021-09-10T10:42:34.949Z</time>
      </trkpt>
      <trkpt lat="45.76663" lon="6.0573">
        <ele>558</ele>
        <time>2021-09-10T10:42:35.949Z</time>
      </trkpt>
      <trkpt lat="45.76666" lon="6.05731">
        <ele>559</ele>
        <time>2021-09-10T10:42:36.949Z</time>
      </trkpt>
      <trkpt lat="45.76668" lon="6.05732">
        <ele>559</ele>
        <time>2021-09-10T10:42:37.949Z</time>
      </trkpt>
      <trkpt lat="45.76671" lon="6.05733">
        <ele>560</ele>
        <time>2021-09-10T10:42:38.949Z</time>
      </trkpt>
      <trkpt lat="45.76673" lon="6.05735">
        <ele>560</ele>
        <time>2021-09-10T10:42:39.948Z</time>
      </trkpt>
      <trkpt lat="45.76675" lon="6.05737">
        <ele>561</ele>
        <time>2021-09-10T10:42:40.949Z</time>
      </trkpt>
      <trkpt lat="45.76677" lon="6.05738">
        <ele>561</ele>
        <time>2021-09-10T10:42:41.949Z</time>
      </trkpt>
      <trkpt lat="45.7668" lon="6.05739">
        <ele>562</ele>
        <time>2021-09-10T10:42:42.948Z</time>
      </trkpt>
      <trkpt lat="45.76682" lon="6.05741">
        <ele>562</ele>
        <time>2021-09-10T10:42:43.949Z</time>
      </trkpt>
      <trkpt lat="45.76684" lon="6.05742">
        <ele>562</ele>
        <time>2021-09-10T10:42:44.949Z</time>
      </trkpt>
      <trkpt lat="45.76686" lon="6.05744">
        <ele>562</ele>
        <time>2021-09-10T10:42:45.949Z</time>
      </trkpt>
      <trkpt lat="45.76689" lon="6.05745">
        <ele>562</ele>
        <time>2021-09-10T10:42:46.948Z</time>
      </trkpt>
      <trkpt lat="45.76691" lon="6.05746">
        <ele>562</ele>
        <time>2021-09-10T10:42:47.948Z</time>
      </trkpt>
      <trkpt lat="45.76693" lon="6.05747">
        <ele>562</ele>
        <time>2021-09-10T10:42:48.949Z</time>
      </trkpt>
      <trkpt lat="45.76695" lon="6.05748">
        <ele>561</ele>
        <time>2021-09-10T10:42:49.948Z</time>
      </trkpt>
      <trkpt lat="45.76697" lon="6.05748">
        <ele>561</ele>
        <time>2021-09-10T10:42:50.948Z</time>
      </trkpt>
      <trkpt lat="45.76699" lon="6.05748">
        <ele>560</ele>
        <time>2021-09-10T10:42:51.949Z</time>
      </trkpt>
      <trkpt lat="45.76702" lon="6.05748">
        <ele>560</ele>
        <time>2021-09-10T10:42:52.948Z</time>
      </trkpt>
      <trkpt lat="45.76704" lon="6.05747">
        <ele>560</ele>
        <time>2021-09-10T10:42:53.949Z</time>
      </trkpt>
      <trkpt lat="45.76706" lon="6.05746">
        <ele>560</ele>
        <time>2021-09-10T10:42:54.948Z</time>
      </trkpt>
      <trkpt lat="45.76709" lon="6.05746">
        <ele>560</ele>
        <time>2021-09-10T10:42:55.949Z</time>
      </trkpt>
      <trkpt lat="45.76711" lon="6.05746">
        <ele>560</ele>
        <time>2021-09-10T10:42:56.949Z</time>
      </trkpt>
      <trkpt lat="45.76714" lon="6.05745">
        <ele>560</ele>
        <time>2021-09-10T10:42:57.949Z</time>
      </trkpt>
      <trkpt lat="45.76716" lon="6.05745">
        <ele>559</ele>
        <time>2021-09-10T10:42:58.949Z</time>
      </trkpt>
      <trkpt lat="45.76718" lon="6.05744">
        <ele>559</ele>
        <time>2021-09-10T10:42:59.949Z</time>
      </trkpt>
      <trkpt lat="45.76721" lon="6.05743">
        <ele>559</ele>
        <time>2021-09-10T10:43:00.949Z</time>
      </trkpt>
      <trkpt lat="45.76724" lon="6.05743">
        <ele>559</ele>
        <time>2021-09-10T10:43:01.949Z</time>
      </trkpt>
      <trkpt lat="45.76727" lon="6.05742">
        <ele>559</ele>
        <time>2021-09-10T10:43:02.949Z</time>
      </trkpt>
      <trkpt lat="45.76729" lon="6.05741">
        <ele>559</ele>
        <time>2021-09-10T10:43:03.949Z</time>
      </trkpt>
      <trkpt lat="45.76732" lon="6.05739">
        <ele>559</ele>
        <time>2021-09-10T10:43:04.949Z</time>
      </trkpt>
      <trkpt lat="45.76734" lon="6.05738">
        <ele>559</ele>
        <time>2021-09-10T10:43:05.949Z</time>
      </trkpt>
      <trkpt lat="45.76736" lon="6.05737">
        <ele>559</ele>
        <time>2021-09-10T10:43:06.949Z</time>
      </trkpt>
      <trkpt lat="45.76739" lon="6.05736">
        <ele>559</ele>
        <time>2021-09-10T10:43:07.949Z</time>
      </trkpt>
      <trkpt lat="45.76741" lon="6.05735">
        <ele>559</ele>
        <time>2021-09-10T10:43:08.949Z</time>
      </trkpt>
      <trkpt lat="45.76744" lon="6.05735">
        <ele>559</ele>
        <time>2021-09-10T10:43:09.949Z</time>
      </trkpt>
      <trkpt lat="45.76747" lon="6.05734">
        <ele>559</ele>
        <time>2021-09-10T10:43:10.949Z</time>
      </trkpt>
      <trkpt lat="45.76749" lon="6.05734">
        <ele>559</ele>
        <time>2021-09-10T10:43:11.948Z</time>
      </trkpt>
      <trkpt lat="45.76752" lon="6.05733">
        <ele>558</ele>
        <time>2021-09-10T10:43:12.948Z</time>
      </trkpt>
      <trkpt lat="45.76755" lon="6.05733">
        <ele>558</ele>
        <time>2021-09-10T10:43:13.949Z</time>
      </trkpt>
      <trkpt lat="45.76757" lon="6.05732">
        <ele>558</ele>
        <time>2021-09-10T10:43:14.949Z</time>
      </trkpt>
      <trkpt lat="45.7676" lon="6.05731">
        <ele>558</ele>
        <time>2021-09-10T10:43:15.948Z</time>
      </trkpt>
      <trkpt lat="45.76762" lon="6.0573">
        <ele>558</ele>
        <time>2021-09-10T10:43:16.948Z</time>
      </trkpt>
      <trkpt lat="45.76765" lon="6.0573">
        <ele>558</ele>
        <time>2021-09-10T10:43:17.949Z</time>
      </trkpt>
      <trkpt lat="45.76768" lon="6.05729">
        <ele>558</ele>
        <time>2021-09-10T10:43:18.949Z</time>
      </trkpt>
      <trkpt lat="45.7677" lon="6.05728">
        <ele>558</ele>
        <time>2021-09-10T10:43:19.949Z</time>
      </trkpt>
      <trkpt lat="45.76773" lon="6.05727">
        <ele>558</ele>
        <time>2021-09-10T10:43:20.949Z</time>
      </trkpt>
      <trkpt lat="45.76776" lon="6.05727">
        <ele>558</ele>
        <time>2021-09-10T10:43:21.949Z</time>
      </trkpt>
      <trkpt lat="45.76778" lon="6.05726">
        <ele>558</ele>
        <time>2021-09-10T10:43:22.948Z</time>
      </trkpt>
      <trkpt lat="45.76781" lon="6.05726">
        <ele>557</ele>
        <time>2021-09-10T10:43:23.949Z</time>
      </trkpt>
      <trkpt lat="45.76784" lon="6.05726">
        <ele>557</ele>
        <time>2021-09-10T10:43:24.949Z</time>
      </trkpt>
      <trkpt lat="45.76787" lon="6.05726">
        <ele>557</ele>
        <time>2021-09-10T10:43:25.949Z</time>
      </trkpt>
      <trkpt lat="45.76789" lon="6.05726">
        <ele>557</ele>
        <time>2021-09-10T10:43:26.949Z</time>
      </trkpt>
      <trkpt lat="45.76792" lon="6.05727">
        <ele>557</ele>
        <time>2021-09-10T10:43:27.949Z</time>
      </trkpt>
      <trkpt lat="45.76794" lon="6.05727">
        <ele>557</ele>
        <time>2021-09-10T10:43:28.949Z</time>
      </trkpt>
      <trkpt lat="45.76797" lon="6.05728">
        <ele>558</ele>
        <time>2021-09-10T10:43:29.949Z</time>
      </trkpt>
      <trkpt lat="45.76799" lon="6.05729">
        <ele>558</ele>
        <time>2021-09-10T10:43:30.949Z</time>
      </trkpt>
      <trkpt lat="45.76801" lon="6.05729">
        <ele>558</ele>
        <time>2021-09-10T10:43:31.949Z</time>
      </trkpt>
      <trkpt lat="45.76803" lon="6.05729">
        <ele>559</ele>
        <time>2021-09-10T10:43:32.949Z</time>
      </trkpt>
      <trkpt lat="45.76806" lon="6.05729">
        <ele>559</ele>
        <time>2021-09-10T10:43:33.949Z</time>
      </trkpt>
      <trkpt lat="45.76808" lon="6.05729">
        <ele>560</ele>
        <time>2021-09-10T10:43:34.949Z</time>
      </trkpt>
      <trkpt lat="45.76811" lon="6.05729">
        <ele>560</ele>
        <time>2021-09-10T10:43:35.949Z</time>
      </trkpt>
      <trkpt lat="45.76813" lon="6.05728">
        <ele>561</ele>
        <time>2021-09-10T10:43:36.949Z</time>
      </trkpt>
      <trkpt lat="45.76815" lon="6.05728">
        <ele>562</ele>
        <time>2021-09-10T10:43:37.948Z</time>
      </trkpt>
      <trkpt lat="45.76817" lon="6.05727">
        <ele>562</ele>
        <time>2021-09-10T10:43:38.948Z</time>
      </trkpt>
      <trkpt lat="45.76819" lon="6.05725">
        <ele>562</ele>
        <time>2021-09-10T10:43:39.949Z</time>
      </trkpt>
      <trkpt lat="45.76821" lon="6.05723">
        <ele>563</ele>
        <time>2021-09-10T10:43:40.949Z</time>
      </trkpt>
      <trkpt lat="45.76823" lon="6.05721">
        <ele>564</ele>
        <time>2021-09-10T10:43:41.948Z</time>
      </trkpt>
      <trkpt lat="45.76825" lon="6.05719">
        <ele>565</ele>
        <time>2021-09-10T10:43:42.949Z</time>
      </trkpt>
      <trkpt lat="45.76827" lon="6.05716">
        <ele>566</ele>
        <time>2021-09-10T10:43:43.949Z</time>
      </trkpt>
      <trkpt lat="45.76829" lon="6.05714">
        <ele>567</ele>
        <time>2021-09-10T10:43:44.949Z</time>
      </trkpt>
      <trkpt lat="45.7683" lon="6.05711">
        <ele>568</ele>
        <time>2021-09-10T10:43:45.948Z</time>
      </trkpt>
      <trkpt lat="45.76832" lon="6.05708">
        <ele>568</ele>
        <time>2021-09-10T10:43:46.949Z</time>
      </trkpt>
      <trkpt lat="45.76833" lon="6.05704">
        <ele>569</ele>
        <time>2021-09-10T10:43:47.949Z</time>
      </trkpt>
      <trkpt lat="45.76834" lon="6.057">
        <ele>569</ele>
        <time>2021-09-10T10:43:48.948Z</time>
      </trkpt>
      <trkpt lat="45.76835" lon="6.05697">
        <ele>569</ele>
        <time>2021-09-10T10:43:49.948Z</time>
      </trkpt>
      <trkpt lat="45.76835" lon="6.05694">
        <ele>570</ele>
        <time>2021-09-10T10:43:50.949Z</time>
      </trkpt>
      <trkpt lat="45.76836" lon="6.05691">
        <ele>570</ele>
        <time>2021-09-10T10:43:51.948Z</time>
      </trkpt>
      <trkpt lat="45.76837" lon="6.05687">
        <ele>570</ele>
        <time>2021-09-10T10:43:52.949Z</time>
      </trkpt>
      <trkpt lat="45.76838" lon="6.05685">
        <ele>570</ele>
        <time>2021-09-10T10:43:53.948Z</time>
      </trkpt>
      <trkpt lat="45.76839" lon="6.05682">
        <ele>570</ele>
        <time>2021-09-10T10:43:54.949Z</time>
      </trkpt>
      <trkpt lat="45.7684" lon="6.05679">
        <ele>571</ele>
        <time>2021-09-10T10:43:55.949Z</time>
      </trkpt>
      <trkpt lat="45.76841" lon="6.05677">
        <ele>571</ele>
        <time>2021-09-10T10:43:56.949Z</time>
      </trkpt>
      <trkpt lat="45.76843" lon="6.05674">
        <ele>571</ele>
        <time>2021-09-10T10:43:57.949Z</time>
      </trkpt>
      <trkpt lat="45.76844" lon="6.05671">
        <ele>571</ele>
        <time>2021-09-10T10:43:58.949Z</time>
      </trkpt>
      <trkpt lat="45.76844" lon="6.05668">
        <ele>570</ele>
        <time>2021-09-10T10:43:59.949Z</time>
      </trkpt>
      <trkpt lat="45.76846" lon="6.05666">
        <ele>570</ele>
        <time>2021-09-10T10:44:00.949Z</time>
      </trkpt>
      <trkpt lat="45.76847" lon="6.05663">
        <ele>570</ele>
        <time>2021-09-10T10:44:01.949Z</time>
      </trkpt>
      <trkpt lat="45.76848" lon="6.0566">
        <ele>569</ele>
        <time>2021-09-10T10:44:02.949Z</time>
      </trkpt>
      <trkpt lat="45.76849" lon="6.05658">
        <ele>569</ele>
        <time>2021-09-10T10:44:03.949Z</time>
      </trkpt>
      <trkpt lat="45.7685" lon="6.05655">
        <ele>569</ele>
        <time>2021-09-10T10:44:04.949Z</time>
      </trkpt>
      <trkpt lat="45.76851" lon="6.05653">
        <ele>569</ele>
        <time>2021-09-10T10:44:11.069Z</time>
      </trkpt>
      <trkpt lat="45.76852" lon="6.0565">
        <ele>569</ele>
        <time>2021-09-10T10:44:12.069Z</time>
      </trkpt>
      <trkpt lat="45.76853" lon="6.05647">
        <ele>570</ele>
        <time>2021-09-10T10:44:13.069Z</time>
      </trkpt>
      <trkpt lat="45.76855" lon="6.05644">
        <ele>570</ele>
        <time>2021-09-10T10:44:14.069Z</time>
      </trkpt>
      <trkpt lat="45.76856" lon="6.05642">
        <ele>570</ele>
        <time>2021-09-10T10:44:15.069Z</time>
      </trkpt>
      <trkpt lat="45.76857" lon="6.05639">
        <ele>571</ele>
        <time>2021-09-10T10:45:27.200Z</time>
      </trkpt>
      <trkpt lat="45.76859" lon="6.05637">
        <ele>571</ele>
        <time>2021-09-10T10:45:28.199Z</time>
      </trkpt>
      <trkpt lat="45.7686" lon="6.05634">
        <ele>571</ele>
        <time>2021-09-10T10:45:29.199Z</time>
      </trkpt>
      <trkpt lat="45.76862" lon="6.05632">
        <ele>571</ele>
        <time>2021-09-10T10:45:30.200Z</time>
      </trkpt>
      <trkpt lat="45.76863" lon="6.05629">
        <ele>571</ele>
        <time>2021-09-10T10:45:31.200Z</time>
      </trkpt>
      <trkpt lat="45.76865" lon="6.05627">
        <ele>570</ele>
        <time>2021-09-10T10:45:32.199Z</time>
      </trkpt>
      <trkpt lat="45.76866" lon="6.05624">
        <ele>570</ele>
        <time>2021-09-10T10:45:33.199Z</time>
      </trkpt>
      <trkpt lat="45.76868" lon="6.05622">
        <ele>570</ele>
        <time>2021-09-10T10:45:34.200Z</time>
      </trkpt>
      <trkpt lat="45.7687" lon="6.0562">
        <ele>570</ele>
        <time>2021-09-10T10:45:35.199Z</time>
      </trkpt>
      <trkpt lat="45.76871" lon="6.05618">
        <ele>569</ele>
        <time>2021-09-10T10:45:36.199Z</time>
      </trkpt>
      <trkpt lat="45.76873" lon="6.05616">
        <ele>569</ele>
        <time>2021-09-10T10:45:37.200Z</time>
      </trkpt>
      <trkpt lat="45.76875" lon="6.05614">
        <ele>569</ele>
        <time>2021-09-10T10:45:38.199Z</time>
      </trkpt>
      <trkpt lat="45.76877" lon="6.05612">
        <ele>569</ele>
        <time>2021-09-10T10:45:39.200Z</time>
      </trkpt>
      <trkpt lat="45.76878" lon="6.05609">
        <ele>570</ele>
        <time>2021-09-10T10:45:40.200Z</time>
      </trkpt>
      <trkpt lat="45.7688" lon="6.05607">
        <ele>570</ele>
        <time>2021-09-10T10:45:41.200Z</time>
      </trkpt>
      <trkpt lat="45.76882" lon="6.05605">
        <ele>570</ele>
        <time>2021-09-10T10:45:42.200Z</time>
      </trkpt>
      <trkpt lat="45.76884" lon="6.05603">
        <ele>570</ele>
        <time>2021-09-10T10:45:43.200Z</time>
      </trkpt>
      <trkpt lat="45.76886" lon="6.05601">
        <ele>570</ele>
        <time>2021-09-10T10:45:44.199Z</time>
      </trkpt>
      <trkpt lat="45.76888" lon="6.05599">
        <ele>570</ele>
        <time>2021-09-10T10:45:45.200Z</time>
      </trkpt>
      <trkpt lat="45.7689" lon="6.05598">
        <ele>570</ele>
        <time>2021-09-10T10:45:46.200Z</time>
      </trkpt>
      <trkpt lat="45.76892" lon="6.05596">
        <ele>570</ele>
        <time>2021-09-10T10:45:47.200Z</time>
      </trkpt>
      <trkpt lat="45.76893" lon="6.05594">
        <ele>570</ele>
        <time>2021-09-10T10:45:48.199Z</time>
      </trkpt>
      <trkpt lat="45.76895" lon="6.05592">
        <ele>570</ele>
        <time>2021-09-10T10:45:49.200Z</time>
      </trkpt>
      <trkpt lat="45.76897" lon="6.0559">
        <ele>570</ele>
        <time>2021-09-10T10:45:50.200Z</time>
      </trkpt>
      <trkpt lat="45.76899" lon="6.05588">
        <ele>570</ele>
        <time>2021-09-10T10:45:51.200Z</time>
      </trkpt>
      <trkpt lat="45.76901" lon="6.05586">
        <ele>571</ele>
        <time>2021-09-10T10:45:52.200Z</time>
      </trkpt>
      <trkpt lat="45.76903" lon="6.05585">
        <ele>571</ele>
        <time>2021-09-10T10:45:53.200Z</time>
      </trkpt>
      <trkpt lat="45.76905" lon="6.05583">
        <ele>571</ele>
        <time>2021-09-10T10:45:54.199Z</time>
      </trkpt>
      <trkpt lat="45.76907" lon="6.05581">
        <ele>571</ele>
        <time>2021-09-10T10:45:55.199Z</time>
      </trkpt>
      <trkpt lat="45.76909" lon="6.0558">
        <ele>571</ele>
        <time>2021-09-10T10:45:56.199Z</time>
      </trkpt>
      <trkpt lat="45.76911" lon="6.05578">
        <ele>571</ele>
        <time>2021-09-10T10:45:57.200Z</time>
      </trkpt>
      <trkpt lat="45.76913" lon="6.05577">
        <ele>571</ele>
        <time>2021-09-10T10:45:58.200Z</time>
      </trkpt>
      <trkpt lat="45.76914" lon="6.05575">
        <ele>572</ele>
        <time>2021-09-10T10:45:59.200Z</time>
      </trkpt>
      <trkpt lat="45.76916" lon="6.05573">
        <ele>573</ele>
        <time>2021-09-10T10:46:00.200Z</time>
      </trkpt>
      <trkpt lat="45.76918" lon="6.05572">
        <ele>573</ele>
        <time>2021-09-10T10:46:01.200Z</time>
      </trkpt>
      <trkpt lat="45.76921" lon="6.05571">
        <ele>573</ele>
        <time>2021-09-10T10:46:02.200Z</time>
      </trkpt>
      <trkpt lat="45.76923" lon="6.0557">
        <ele>574</ele>
        <time>2021-09-10T10:46:03.200Z</time>
      </trkpt>
      <trkpt lat="45.76925" lon="6.05569">
        <ele>574</ele>
        <time>2021-09-10T10:46:04.200Z</time>
      </trkpt>
      <trkpt lat="45.76927" lon="6.05568">
        <ele>574</ele>
        <time>2021-09-10T10:46:05.200Z</time>
      </trkpt>
      <trkpt lat="45.76929" lon="6.05567">
        <ele>575</ele>
        <time>2021-09-10T10:46:06.200Z</time>
      </trkpt>
      <trkpt lat="45.76931" lon="6.05566">
        <ele>575</ele>
        <time>2021-09-10T10:46:07.199Z</time>
      </trkpt>
      <trkpt lat="45.76933" lon="6.05565">
        <ele>575</ele>
        <time>2021-09-10T10:46:08.199Z</time>
      </trkpt>
      <trkpt lat="45.76935" lon="6.05565">
        <ele>576</ele>
        <time>2021-09-10T10:46:09.200Z</time>
      </trkpt>
      <trkpt lat="45.76937" lon="6.05564">
        <ele>576</ele>
        <time>2021-09-10T10:46:10.200Z</time>
      </trkpt>
      <trkpt lat="45.7694" lon="6.05564">
        <ele>576</ele>
        <time>2021-09-10T10:46:11.200Z</time>
      </trkpt>
      <trkpt lat="45.76942" lon="6.05563">
        <ele>576</ele>
        <time>2021-09-10T10:46:12.200Z</time>
      </trkpt>
      <trkpt lat="45.76944" lon="6.05562">
        <ele>577</ele>
        <time>2021-09-10T10:46:13.200Z</time>
      </trkpt>
      <trkpt lat="45.76946" lon="6.05562">
        <ele>577</ele>
        <time>2021-09-10T10:46:14.199Z</time>
      </trkpt>
      <trkpt lat="45.76949" lon="6.05562">
        <ele>577</ele>
        <time>2021-09-10T10:46:15.200Z</time>
      </trkpt>
      <trkpt lat="45.76951" lon="6.05561">
        <ele>577</ele>
        <time>2021-09-10T10:46:16.200Z</time>
      </trkpt>
      <trkpt lat="45.76953" lon="6.05561">
        <ele>577</ele>
        <time>2021-09-10T10:46:17.199Z</time>
      </trkpt>
      <trkpt lat="45.76955" lon="6.05561">
        <ele>577</ele>
        <time>2021-09-10T10:46:18.199Z</time>
      </trkpt>
      <trkpt lat="45.76958" lon="6.05561">
        <ele>577</ele>
        <time>2021-09-10T10:46:19.200Z</time>
      </trkpt>
      <trkpt lat="45.7696" lon="6.05562">
        <ele>577</ele>
        <time>2021-09-10T10:46:20.200Z</time>
      </trkpt>
      <trkpt lat="45.76962" lon="6.05562">
        <ele>577</ele>
        <time>2021-09-10T10:46:21.200Z</time>
      </trkpt>
      <trkpt lat="45.76964" lon="6.05562">
        <ele>577</ele>
        <time>2021-09-10T10:46:22.200Z</time>
      </trkpt>
      <trkpt lat="45.76966" lon="6.05562">
        <ele>577</ele>
        <time>2021-09-10T10:46:23.199Z</time>
      </trkpt>
      <trkpt lat="45.76968" lon="6.05562">
        <ele>577</ele>
        <time>2021-09-10T10:46:24.200Z</time>
      </trkpt>
      <trkpt lat="45.7697" lon="6.05562">
        <ele>577</ele>
        <time>2021-09-10T10:46:25.200Z</time>
      </trkpt>
      <trkpt lat="45.76972" lon="6.05562">
        <ele>577</ele>
        <time>2021-09-10T10:46:26.200Z</time>
      </trkpt>
      <trkpt lat="45.76974" lon="6.05563">
        <ele>577</ele>
        <time>2021-09-10T10:46:27.200Z</time>
      </trkpt>
      <trkpt lat="45.76976" lon="6.05563">
        <ele>578</ele>
        <time>2021-09-10T10:46:28.200Z</time>
      </trkpt>
      <trkpt lat="45.76978" lon="6.05564">
        <ele>578</ele>
        <time>2021-09-10T10:46:29.199Z</time>
      </trkpt>
      <trkpt lat="45.76981" lon="6.05565">
        <ele>578</ele>
        <time>2021-09-10T10:46:30.200Z</time>
      </trkpt>
      <trkpt lat="45.76982" lon="6.05566">
        <ele>578</ele>
        <time>2021-09-10T10:46:31.200Z</time>
      </trkpt>
      <trkpt lat="45.76984" lon="6.05566">
        <ele>578</ele>
        <time>2021-09-10T10:46:32.200Z</time>
      </trkpt>
      <trkpt lat="45.76986" lon="6.05566">
        <ele>578</ele>
        <time>2021-09-10T10:46:33.199Z</time>
      </trkpt>
      <trkpt lat="45.76988" lon="6.05567">
        <ele>578</ele>
        <time>2021-09-10T10:46:34.200Z</time>
      </trkpt>
      <trkpt lat="45.7699" lon="6.05568">
        <ele>578</ele>
        <time>2021-09-10T10:46:35.200Z</time>
      </trkpt>
      <trkpt lat="45.76992" lon="6.05569">
        <ele>577</ele>
        <time>2021-09-10T10:46:36.199Z</time>
      </trkpt>
      <trkpt lat="45.76994" lon="6.0557">
        <ele>578</ele>
        <time>2021-09-10T10:46:37.200Z</time>
      </trkpt>
      <trkpt lat="45.76997" lon="6.05571">
        <ele>578</ele>
        <time>2021-09-10T10:46:38.199Z</time>
      </trkpt>
      <trkpt lat="45.76999" lon="6.05571">
        <ele>578</ele>
        <time>2021-09-10T10:46:39.200Z</time>
      </trkpt>
      <trkpt lat="45.77001" lon="6.05572">
        <ele>579</ele>
        <time>2021-09-10T10:46:40.200Z</time>
      </trkpt>
      <trkpt lat="45.77003" lon="6.05572">
        <ele>579</ele>
        <time>2021-09-10T10:46:41.200Z</time>
      </trkpt>
      <trkpt lat="45.77005" lon="6.05572">
        <ele>579</ele>
        <time>2021-09-10T10:46:42.200Z</time>
      </trkpt>
      <trkpt lat="45.77008" lon="6.05573">
        <ele>579</ele>
        <time>2021-09-10T10:46:43.199Z</time>
      </trkpt>
      <trkpt lat="45.7701" lon="6.05573">
        <ele>579</ele>
        <time>2021-09-10T10:46:44.200Z</time>
      </trkpt>
      <trkpt lat="45.77012" lon="6.05574">
        <ele>579</ele>
        <time>2021-09-10T10:46:45.200Z</time>
      </trkpt>
      <trkpt lat="45.77014" lon="6.05574">
        <ele>580</ele>
        <time>2021-09-10T10:46:46.200Z</time>
      </trkpt>
      <trkpt lat="45.77016" lon="6.05574">
        <ele>579</ele>
        <time>2021-09-10T10:46:47.200Z</time>
      </trkpt>
      <trkpt lat="45.77018" lon="6.05574">
        <ele>579</ele>
        <time>2021-09-10T10:46:48.199Z</time>
      </trkpt>
      <trkpt lat="45.7702" lon="6.05575">
        <ele>579</ele>
        <time>2021-09-10T10:46:49.200Z</time>
      </trkpt>
      <trkpt lat="45.77023" lon="6.05575">
        <ele>579</ele>
        <time>2021-09-10T10:46:50.200Z</time>
      </trkpt>
      <trkpt lat="45.77025" lon="6.05575">
        <ele>579</ele>
        <time>2021-09-10T10:46:51.200Z</time>
      </trkpt>
      <trkpt lat="45.77026" lon="6.05576">
        <ele>579</ele>
        <time>2021-09-10T10:47:01.333Z</time>
      </trkpt>
      <trkpt lat="45.77028" lon="6.05576">
        <ele>580</ele>
        <time>2021-09-10T10:47:02.332Z</time>
      </trkpt>
      <trkpt lat="45.7703" lon="6.05577">
        <ele>580</ele>
        <time>2021-09-10T10:48:18.226Z</time>
      </trkpt>
      <trkpt lat="45.77032" lon="6.05578">
        <ele>580</ele>
        <time>2021-09-10T10:48:19.225Z</time>
      </trkpt>
      <trkpt lat="45.77034" lon="6.0558">
        <ele>580</ele>
        <time>2021-09-10T10:48:20.226Z</time>
      </trkpt>
      <trkpt lat="45.77035" lon="6.05582">
        <ele>581</ele>
        <time>2021-09-10T10:48:21.225Z</time>
      </trkpt>
      <trkpt lat="45.77035" lon="6.05584">
        <ele>581</ele>
        <time>2021-09-10T10:48:22.226Z</time>
      </trkpt>
      <trkpt lat="45.77034" lon="6.05586">
        <ele>582</ele>
        <time>2021-09-10T10:48:23.225Z</time>
      </trkpt>
      <trkpt lat="45.77033" lon="6.05588">
        <ele>582</ele>
        <time>2021-09-10T10:48:24.225Z</time>
      </trkpt>
      <trkpt lat="45.77032" lon="6.0559">
        <ele>582</ele>
        <time>2021-09-10T10:48:25.226Z</time>
      </trkpt>
      <trkpt lat="45.7703" lon="6.05592">
        <ele>583</ele>
        <time>2021-09-10T10:48:26.225Z</time>
      </trkpt>
      <trkpt lat="45.77029" lon="6.05593">
        <ele>583</ele>
        <time>2021-09-10T10:48:27.226Z</time>
      </trkpt>
      <trkpt lat="45.77027" lon="6.05595">
        <ele>583</ele>
        <time>2021-09-10T10:48:28.225Z</time>
      </trkpt>
      <trkpt lat="45.77025" lon="6.05596">
        <ele>583</ele>
        <time>2021-09-10T10:48:29.226Z</time>
      </trkpt>
      <trkpt lat="45.77024" lon="6.05598">
        <ele>583</ele>
        <time>2021-09-10T10:48:30.226Z</time>
      </trkpt>
      <trkpt lat="45.77022" lon="6.05599">
        <ele>583</ele>
        <time>2021-09-10T10:48:31.225Z</time>
      </trkpt>
      <trkpt lat="45.77021" lon="6.05601">
        <ele>583</ele>
        <time>2021-09-10T10:48:32.226Z</time>
      </trkpt>
      <trkpt lat="45.77019" lon="6.05602">
        <ele>584</ele>
        <time>2021-09-10T10:48:33.226Z</time>
      </trkpt>
      <trkpt lat="45.77017" lon="6.05604">
        <ele>584</ele>
        <time>2021-09-10T10:48:34.225Z</time>
      </trkpt>
      <trkpt lat="45.77016" lon="6.05605">
        <ele>584</ele>
        <time>2021-09-10T10:50:25.310Z</time>
      </trkpt>
      <trkpt lat="45.77014" lon="6.05606">
        <ele>584</ele>
        <time>2021-09-10T10:50:26.311Z</time>
      </trkpt>
      <trkpt lat="45.77012" lon="6.05607">
        <ele>585</ele>
        <time>2021-09-10T10:50:27.311Z</time>
      </trkpt>
      <trkpt lat="45.7701" lon="6.05608">
        <ele>585</ele>
        <time>2021-09-10T10:50:28.311Z</time>
      </trkpt>
      <trkpt lat="45.77009" lon="6.0561">
        <ele>586</ele>
        <time>2021-09-10T10:50:29.310Z</time>
      </trkpt>
      <trkpt lat="45.77007" lon="6.05611">
        <ele>586</ele>
        <time>2021-09-10T10:50:30.310Z</time>
      </trkpt>
      <trkpt lat="45.77006" lon="6.05612">
        <ele>586</ele>
        <time>2021-09-10T10:50:31.311Z</time>
      </trkpt>
      <trkpt lat="45.77004" lon="6.05614">
        <ele>586</ele>
        <time>2021-09-10T10:50:32.311Z</time>
      </trkpt>
      <trkpt lat="45.77003" lon="6.05616">
        <ele>586</ele>
        <time>2021-09-10T10:50:33.311Z</time>
      </trkpt>
      <trkpt lat="45.77001" lon="6.05617">
        <ele>586</ele>
        <time>2021-09-10T10:50:34.311Z</time>
      </trkpt>
      <trkpt lat="45.77" lon="6.05618">
        <ele>586</ele>
        <time>2021-09-10T10:50:35.311Z</time>
      </trkpt>
      <trkpt lat="45.76998" lon="6.0562">
        <ele>586</ele>
        <time>2021-09-10T10:50:36.311Z</time>
      </trkpt>
      <trkpt lat="45.76997" lon="6.05621">
        <ele>586</ele>
        <time>2021-09-10T10:50:37.310Z</time>
      </trkpt>
      <trkpt lat="45.76995" lon="6.05622">
        <ele>586</ele>
        <time>2021-09-10T10:50:38.311Z</time>
      </trkpt>
      <trkpt lat="45.76994" lon="6.05623">
        <ele>586</ele>
        <time>2021-09-10T10:50:39.310Z</time>
      </trkpt>
      <trkpt lat="45.76992" lon="6.05625">
        <ele>586</ele>
        <time>2021-09-10T10:50:40.311Z</time>
      </trkpt>
      <trkpt lat="45.76991" lon="6.05626">
        <ele>587</ele>
        <time>2021-09-10T10:50:41.310Z</time>
      </trkpt>
      <trkpt lat="45.7699" lon="6.05627">
        <ele>586</ele>
        <time>2021-09-10T10:50:42.311Z</time>
      </trkpt>
      <trkpt lat="45.76988" lon="6.05629">
        <ele>586</ele>
        <time>2021-09-10T10:50:43.311Z</time>
      </trkpt>
      <trkpt lat="45.76987" lon="6.0563">
        <ele>586</ele>
        <time>2021-09-10T10:50:44.310Z</time>
      </trkpt>
      <trkpt lat="45.76986" lon="6.05632">
        <ele>586</ele>
        <time>2021-09-10T10:50:45.311Z</time>
      </trkpt>
      <trkpt lat="45.76984" lon="6.05633">
        <ele>586</ele>
        <time>2021-09-10T10:50:46.311Z</time>
      </trkpt>
      <trkpt lat="45.76982" lon="6.05634">
        <ele>587</ele>
        <time>2021-09-10T10:50:47.311Z</time>
      </trkpt>
      <trkpt lat="45.76981" lon="6.05635">
        <ele>587</ele>
        <time>2021-09-10T10:50:48.311Z</time>
      </trkpt>
      <trkpt lat="45.76979" lon="6.05637">
        <ele>587</ele>
        <time>2021-09-10T10:50:49.310Z</time>
      </trkpt>
      <trkpt lat="45.76978" lon="6.05638">
        <ele>587</ele>
        <time>2021-09-10T10:50:50.310Z</time>
      </trkpt>
      <trkpt lat="45.76976" lon="6.05639">
        <ele>588</ele>
        <time>2021-09-10T10:50:51.311Z</time>
      </trkpt>
      <trkpt lat="45.76974" lon="6.0564">
        <ele>589</ele>
        <time>2021-09-10T10:50:52.310Z</time>
      </trkpt>
      <trkpt lat="45.76973" lon="6.05642">
        <ele>589</ele>
        <time>2021-09-10T10:50:53.311Z</time>
      </trkpt>
      <trkpt lat="45.76972" lon="6.05643">
        <ele>590</ele>
        <time>2021-09-10T10:50:54.310Z</time>
      </trkpt>
      <trkpt lat="45.7697" lon="6.05645">
        <ele>591</ele>
        <time>2021-09-10T10:50:55.311Z</time>
      </trkpt>
      <trkpt lat="45.76969" lon="6.05646">
        <ele>592</ele>
        <time>2021-09-10T10:50:56.310Z</time>
      </trkpt>
      <trkpt lat="45.76968" lon="6.05648">
        <ele>593</ele>
        <time>2021-09-10T10:50:57.311Z</time>
      </trkpt>
      <trkpt lat="45.76967" lon="6.05649">
        <ele>594</ele>
        <time>2021-09-10T10:50:58.311Z</time>
      </trkpt>
      <trkpt lat="45.76965" lon="6.05651">
        <ele>594</ele>
        <time>2021-09-10T10:50:59.310Z</time>
      </trkpt>
      <trkpt lat="45.76965" lon="6.05652">
        <ele>595</ele>
        <time>2021-09-10T10:51:00.310Z</time>
      </trkpt>
      <trkpt lat="45.76963" lon="6.05654">
        <ele>595</ele>
        <time>2021-09-10T10:51:01.310Z</time>
      </trkpt>
      <trkpt lat="45.76962" lon="6.05655">
        <ele>595</ele>
        <time>2021-09-10T10:51:02.311Z</time>
      </trkpt>
      <trkpt lat="45.76961" lon="6.05657">
        <ele>595</ele>
        <time>2021-09-10T10:51:03.311Z</time>
      </trkpt>
      <trkpt lat="45.7696" lon="6.05659">
        <ele>595</ele>
        <time>2021-09-10T10:51:04.310Z</time>
      </trkpt>
      <trkpt lat="45.76959" lon="6.05661">
        <ele>595</ele>
        <time>2021-09-10T10:51:05.311Z</time>
      </trkpt>
      <trkpt lat="45.76957" lon="6.05662">
        <ele>595</ele>
        <time>2021-09-10T10:51:06.311Z</time>
      </trkpt>
      <trkpt lat="45.76956" lon="6.05664">
        <ele>595</ele>
        <time>2021-09-10T10:51:07.311Z</time>
      </trkpt>
      <trkpt lat="45.76955" lon="6.05666">
        <ele>595</ele>
        <time>2021-09-10T10:51:08.310Z</time>
      </trkpt>
      <trkpt lat="45.76953" lon="6.05668">
        <ele>595</ele>
        <time>2021-09-10T10:51:09.311Z</time>
      </trkpt>
      <trkpt lat="45.76952" lon="6.0567">
        <ele>595</ele>
        <time>2021-09-10T10:51:10.311Z</time>
      </trkpt>
      <trkpt lat="45.76951" lon="6.05672">
        <ele>595</ele>
        <time>2021-09-10T10:51:11.311Z</time>
      </trkpt>
      <trkpt lat="45.76949" lon="6.05674">
        <ele>595</ele>
        <time>2021-09-10T10:51:12.311Z</time>
      </trkpt>
      <trkpt lat="45.76948" lon="6.05676">
        <ele>595</ele>
        <time>2021-09-10T10:51:13.311Z</time>
      </trkpt>
      <trkpt lat="45.76947" lon="6.05678">
        <ele>595</ele>
        <time>2021-09-10T10:51:14.311Z</time>
      </trkpt>
      <trkpt lat="45.76946" lon="6.0568">
        <ele>595</ele>
        <time>2021-09-10T10:51:15.311Z</time>
      </trkpt>
      <trkpt lat="45.76945" lon="6.05681">
        <ele>596</ele>
        <time>2021-09-10T10:51:16.310Z</time>
      </trkpt>
      <trkpt lat="45.76943" lon="6.05683">
        <ele>596</ele>
        <time>2021-09-10T10:51:17.311Z</time>
      </trkpt>
      <trkpt lat="45.76942" lon="6.05684">
        <ele>596</ele>
        <time>2021-09-10T10:51:18.311Z</time>
      </trkpt>
      <trkpt lat="45.7694" lon="6.05686">
        <ele>596</ele>
        <time>2021-09-10T10:51:19.311Z</time>
      </trkpt>
      <trkpt lat="45.76939" lon="6.05688">
        <ele>596</ele>
        <time>2021-09-10T10:51:20.311Z</time>
      </trkpt>
      <trkpt lat="45.76938" lon="6.05689">
        <ele>596</ele>
        <time>2021-09-10T10:51:21.310Z</time>
      </trkpt>
      <trkpt lat="45.76936" lon="6.05691">
        <ele>596</ele>
        <time>2021-09-10T10:51:22.311Z</time>
      </trkpt>
      <trkpt lat="45.76935" lon="6.05692">
        <ele>596</ele>
        <time>2021-09-10T10:51:23.311Z</time>
      </trkpt>
      <trkpt lat="45.76934" lon="6.05694">
        <ele>596</ele>
        <time>2021-09-10T10:51:45.333Z</time>
      </trkpt>
      <trkpt lat="45.76932" lon="6.05696">
        <ele>596</ele>
        <time>2021-09-10T10:51:46.333Z</time>
      </trkpt>
      <trkpt lat="45.76931" lon="6.05698">
        <ele>595</ele>
        <time>2021-09-10T10:51:47.333Z</time>
      </trkpt>
      <trkpt lat="45.7693" lon="6.057">
        <ele>595</ele>
        <time>2021-09-10T10:51:48.334Z</time>
      </trkpt>
      <trkpt lat="45.76929" lon="6.05703">
        <ele>595</ele>
        <time>2021-09-10T10:51:49.334Z</time>
      </trkpt>
      <trkpt lat="45.76928" lon="6.05705">
        <ele>595</ele>
        <time>2021-09-10T10:51:50.333Z</time>
      </trkpt>
      <trkpt lat="45.76927" lon="6.05707">
        <ele>595</ele>
        <time>2021-09-10T10:51:51.333Z</time>
      </trkpt>
      <trkpt lat="45.76926" lon="6.05709">
        <ele>595</ele>
        <time>2021-09-10T10:51:52.333Z</time>
      </trkpt>
      <trkpt lat="45.76925" lon="6.05711">
        <ele>595</ele>
        <time>2021-09-10T10:51:53.334Z</time>
      </trkpt>
      <trkpt lat="45.76924" lon="6.05714">
        <ele>595</ele>
        <time>2021-09-10T10:51:54.334Z</time>
      </trkpt>
      <trkpt lat="45.76922" lon="6.05715">
        <ele>595</ele>
        <time>2021-09-10T10:51:55.333Z</time>
      </trkpt>
      <trkpt lat="45.76921" lon="6.05717">
        <ele>595</ele>
        <time>2021-09-10T10:51:56.333Z</time>
      </trkpt>
      <trkpt lat="45.7692" lon="6.05719">
        <ele>595</ele>
        <time>2021-09-10T10:51:57.333Z</time>
      </trkpt>
      <trkpt lat="45.76919" lon="6.05721">
        <ele>596</ele>
        <time>2021-09-10T10:51:58.334Z</time>
      </trkpt>
      <trkpt lat="45.76918" lon="6.05724">
        <ele>596</ele>
        <time>2021-09-10T10:51:59.334Z</time>
      </trkpt>
      <trkpt lat="45.76916" lon="6.05726">
        <ele>597</ele>
        <time>2021-09-10T10:52:00.334Z</time>
      </trkpt>
      <trkpt lat="45.76915" lon="6.05728">
        <ele>597</ele>
        <time>2021-09-10T10:52:01.333Z</time>
      </trkpt>
      <trkpt lat="45.76914" lon="6.0573">
        <ele>597</ele>
        <time>2021-09-10T10:52:02.333Z</time>
      </trkpt>
      <trkpt lat="45.76913" lon="6.05732">
        <ele>597</ele>
        <time>2021-09-10T10:52:03.334Z</time>
      </trkpt>
      <trkpt lat="45.76911" lon="6.05734">
        <ele>598</ele>
        <time>2021-09-10T10:52:04.334Z</time>
      </trkpt>
      <trkpt lat="45.76909" lon="6.05736">
        <ele>598</ele>
        <time>2021-09-10T10:52:05.333Z</time>
      </trkpt>
      <trkpt lat="45.76907" lon="6.05737">
        <ele>599</ele>
        <time>2021-09-10T10:52:06.333Z</time>
      </trkpt>
      <trkpt lat="45.76906" lon="6.05738">
        <ele>599</ele>
        <time>2021-09-10T10:52:07.334Z</time>
      </trkpt>
      <trkpt lat="45.76904" lon="6.05739">
        <ele>599</ele>
        <time>2021-09-10T10:52:08.334Z</time>
      </trkpt>
      <trkpt lat="45.76901" lon="6.0574">
        <ele>600</ele>
        <time>2021-09-10T10:52:09.334Z</time>
      </trkpt>
      <trkpt lat="45.76899" lon="6.05741">
        <ele>600</ele>
        <time>2021-09-10T10:52:10.334Z</time>
      </trkpt>
      <trkpt lat="45.76897" lon="6.05742">
        <ele>601</ele>
        <time>2021-09-10T10:52:11.334Z</time>
      </trkpt>
      <trkpt lat="45.76894" lon="6.05742">
        <ele>601</ele>
        <time>2021-09-10T10:52:12.333Z</time>
      </trkpt>
      <trkpt lat="45.76892" lon="6.05743">
        <ele>602</ele>
        <time>2021-09-10T10:52:13.333Z</time>
      </trkpt>
      <trkpt lat="45.76889" lon="6.05744">
        <ele>602</ele>
        <time>2021-09-10T10:52:14.333Z</time>
      </trkpt>
      <trkpt lat="45.76887" lon="6.05745">
        <ele>602</ele>
        <time>2021-09-10T10:52:15.334Z</time>
      </trkpt>
      <trkpt lat="45.76885" lon="6.05745">
        <ele>603</ele>
        <time>2021-09-10T10:52:16.333Z</time>
      </trkpt>
      <trkpt lat="45.76883" lon="6.05746">
        <ele>603</ele>
        <time>2021-09-10T10:52:17.333Z</time>
      </trkpt>
      <trkpt lat="45.76881" lon="6.05748">
        <ele>603</ele>
        <time>2021-09-10T10:52:18.334Z</time>
      </trkpt>
      <trkpt lat="45.76879" lon="6.05749">
        <ele>604</ele>
        <time>2021-09-10T10:52:19.333Z</time>
      </trkpt>
      <trkpt lat="45.76877" lon="6.0575">
        <ele>604</ele>
        <time>2021-09-10T10:52:20.334Z</time>
      </trkpt>
      <trkpt lat="45.76875" lon="6.05751">
        <ele>605</ele>
        <time>2021-09-10T10:52:21.333Z</time>
      </trkpt>
      <trkpt lat="45.76872" lon="6.05753">
        <ele>606</ele>
        <time>2021-09-10T10:52:22.333Z</time>
      </trkpt>
      <trkpt lat="45.7687" lon="6.05755">
        <ele>606</ele>
        <time>2021-09-10T10:52:23.333Z</time>
      </trkpt>
      <trkpt lat="45.76868" lon="6.05757">
        <ele>606</ele>
        <time>2021-09-10T10:52:24.334Z</time>
      </trkpt>
      <trkpt lat="45.76866" lon="6.05758">
        <ele>606</ele>
        <time>2021-09-10T10:52:25.333Z</time>
      </trkpt>
      <trkpt lat="45.76864" lon="6.05761">
        <ele>606</ele>
        <time>2021-09-10T10:52:26.333Z</time>
      </trkpt>
      <trkpt lat="45.76862" lon="6.05763">
        <ele>606</ele>
        <time>2021-09-10T10:52:27.333Z</time>
      </trkpt>
      <trkpt lat="45.76859" lon="6.05765">
        <ele>606</ele>
        <time>2021-09-10T10:52:28.333Z</time>
      </trkpt>
      <trkpt lat="45.76857" lon="6.05767">
        <ele>606</ele>
        <time>2021-09-10T10:52:29.334Z</time>
      </trkpt>
      <trkpt lat="45.76855" lon="6.05769">
        <ele>607</ele>
        <time>2021-09-10T10:52:30.333Z</time>
      </trkpt>
      <trkpt lat="45.76853" lon="6.05772">
        <ele>607</ele>
        <time>2021-09-10T10:52:31.334Z</time>
      </trkpt>
      <trkpt lat="45.76851" lon="6.05774">
        <ele>607</ele>
        <time>2021-09-10T10:52:32.334Z</time>
      </trkpt>
      <trkpt lat="45.76849" lon="6.05777">
        <ele>608</ele>
        <time>2021-09-10T10:52:33.334Z</time>
      </trkpt>
      <trkpt lat="45.76847" lon="6.0578">
        <ele>608</ele>
        <time>2021-09-10T10:52:34.333Z</time>
      </trkpt>
      <trkpt lat="45.76845" lon="6.05783">
        <ele>608</ele>
        <time>2021-09-10T10:52:35.334Z</time>
      </trkpt>
      <trkpt lat="45.76842" lon="6.05786">
        <ele>608</ele>
        <time>2021-09-10T10:52:36.334Z</time>
      </trkpt>
      <trkpt lat="45.7684" lon="6.05789">
        <ele>608</ele>
        <time>2021-09-10T10:52:37.334Z</time>
      </trkpt>
      <trkpt lat="45.76838" lon="6.05793">
        <ele>608</ele>
        <time>2021-09-10T10:52:38.334Z</time>
      </trkpt>
      <trkpt lat="45.76835" lon="6.05795">
        <ele>608</ele>
        <time>2021-09-10T10:52:39.333Z</time>
      </trkpt>
      <trkpt lat="45.76833" lon="6.05798">
        <ele>608</ele>
        <time>2021-09-10T10:52:40.334Z</time>
      </trkpt>
      <trkpt lat="45.7683" lon="6.058">
        <ele>608</ele>
        <time>2021-09-10T10:52:41.334Z</time>
      </trkpt>
      <trkpt lat="45.76827" lon="6.05802">
        <ele>608</ele>
        <time>2021-09-10T10:52:42.334Z</time>
      </trkpt>
      <trkpt lat="45.76824" lon="6.05803">
        <ele>609</ele>
        <time>2021-09-10T10:52:43.334Z</time>
      </trkpt>
      <trkpt lat="45.76821" lon="6.05805">
        <ele>609</ele>
        <time>2021-09-10T10:52:44.334Z</time>
      </trkpt>
      <trkpt lat="45.76818" lon="6.05807">
        <ele>610</ele>
        <time>2021-09-10T10:52:45.334Z</time>
      </trkpt>
      <trkpt lat="45.76816" lon="6.05809">
        <ele>610</ele>
        <time>2021-09-10T10:52:46.334Z</time>
      </trkpt>
      <trkpt lat="45.76814" lon="6.0581">
        <ele>611</ele>
        <time>2021-09-10T10:52:47.334Z</time>
      </trkpt>
      <trkpt lat="45.76811" lon="6.05812">
        <ele>611</ele>
        <time>2021-09-10T10:52:48.334Z</time>
      </trkpt>
      <trkpt lat="45.76808" lon="6.05812">
        <ele>611</ele>
        <time>2021-09-10T10:52:49.334Z</time>
      </trkpt>
      <trkpt lat="45.76806" lon="6.05813">
        <ele>611</ele>
        <time>2021-09-10T10:52:50.334Z</time>
      </trkpt>
      <trkpt lat="45.76803" lon="6.05814">
        <ele>611</ele>
        <time>2021-09-10T10:52:51.334Z</time>
      </trkpt>
      <trkpt lat="45.76801" lon="6.05814">
        <ele>610</ele>
        <time>2021-09-10T10:52:52.334Z</time>
      </trkpt>
      <trkpt lat="45.76798" lon="6.05815">
        <ele>610</ele>
        <time>2021-09-10T10:52:53.334Z</time>
      </trkpt>
      <trkpt lat="45.76795" lon="6.05816">
        <ele>610</ele>
        <time>2021-09-10T10:52:54.334Z</time>
      </trkpt>
      <trkpt lat="45.76792" lon="6.05817">
        <ele>610</ele>
        <time>2021-09-10T10:52:55.333Z</time>
      </trkpt>
      <trkpt lat="45.76789" lon="6.05818">
        <ele>610</ele>
        <time>2021-09-10T10:52:56.334Z</time>
      </trkpt>
      <trkpt lat="45.76786" lon="6.05819">
        <ele>610</ele>
        <time>2021-09-10T10:52:57.334Z</time>
      </trkpt>
      <trkpt lat="45.76783" lon="6.0582">
        <ele>610</ele>
        <time>2021-09-10T10:52:58.333Z</time>
      </trkpt>
      <trkpt lat="45.7678" lon="6.05821">
        <ele>610</ele>
        <time>2021-09-10T10:52:59.333Z</time>
      </trkpt>
      <trkpt lat="45.76777" lon="6.05823">
        <ele>611</ele>
        <time>2021-09-10T10:53:00.334Z</time>
      </trkpt>
      <trkpt lat="45.76774" lon="6.05824">
        <ele>611</ele>
        <time>2021-09-10T10:53:01.334Z</time>
      </trkpt>
      <trkpt lat="45.76771" lon="6.05825">
        <ele>611</ele>
        <time>2021-09-10T10:53:02.334Z</time>
      </trkpt>
      <trkpt lat="45.76768" lon="6.05826">
        <ele>612</ele>
        <time>2021-09-10T10:53:03.334Z</time>
      </trkpt>
      <trkpt lat="45.76765" lon="6.05828">
        <ele>612</ele>
        <time>2021-09-10T10:53:04.334Z</time>
      </trkpt>
      <trkpt lat="45.76762" lon="6.05829">
        <ele>612</ele>
        <time>2021-09-10T10:53:05.334Z</time>
      </trkpt>
      <trkpt lat="45.7676" lon="6.0583">
        <ele>612</ele>
        <time>2021-09-10T10:53:06.334Z</time>
      </trkpt>
      <trkpt lat="45.76757" lon="6.05832">
        <ele>612</ele>
        <time>2021-09-10T10:53:07.334Z</time>
      </trkpt>
      <trkpt lat="45.76754" lon="6.05833">
        <ele>612</ele>
        <time>2021-09-10T10:53:08.333Z</time>
      </trkpt>
      <trkpt lat="45.76752" lon="6.05835">
        <ele>612</ele>
        <time>2021-09-10T10:53:09.334Z</time>
      </trkpt>
      <trkpt lat="45.7675" lon="6.05836">
        <ele>611</ele>
        <time>2021-09-10T10:53:10.334Z</time>
      </trkpt>
      <trkpt lat="45.76747" lon="6.05838">
        <ele>611</ele>
        <time>2021-09-10T10:53:11.334Z</time>
      </trkpt>
      <trkpt lat="45.76745" lon="6.0584">
        <ele>610</ele>
        <time>2021-09-10T10:53:12.334Z</time>
      </trkpt>
      <trkpt lat="45.76743" lon="6.05842">
        <ele>609</ele>
        <time>2021-09-10T10:53:13.334Z</time>
      </trkpt>
      <trkpt lat="45.7674" lon="6.05844">
        <ele>609</ele>
        <time>2021-09-10T10:53:14.334Z</time>
      </trkpt>
      <trkpt lat="45.76738" lon="6.05846">
        <ele>608</ele>
        <time>2021-09-10T10:53:15.333Z</time>
      </trkpt>
      <trkpt lat="45.76735" lon="6.05849">
        <ele>608</ele>
        <time>2021-09-10T10:53:16.334Z</time>
      </trkpt>
      <trkpt lat="45.76733" lon="6.05851">
        <ele>608</ele>
        <time>2021-09-10T10:53:17.334Z</time>
      </trkpt>
      <trkpt lat="45.7673" lon="6.05853">
        <ele>608</ele>
        <time>2021-09-10T10:53:18.334Z</time>
      </trkpt>
      <trkpt lat="45.76728" lon="6.05856">
        <ele>607</ele>
        <time>2021-09-10T10:53:19.333Z</time>
      </trkpt>
      <trkpt lat="45.76725" lon="6.05858">
        <ele>607</ele>
        <time>2021-09-10T10:53:20.334Z</time>
      </trkpt>
      <trkpt lat="45.76722" lon="6.0586">
        <ele>607</ele>
        <time>2021-09-10T10:53:21.334Z</time>
      </trkpt>
      <trkpt lat="45.7672" lon="6.05862">
        <ele>608</ele>
        <time>2021-09-10T10:53:22.334Z</time>
      </trkpt>
      <trkpt lat="45.76717" lon="6.05863">
        <ele>607</ele>
        <time>2021-09-10T10:53:23.334Z</time>
      </trkpt>
      <trkpt lat="45.76714" lon="6.05865">
        <ele>608</ele>
        <time>2021-09-10T10:53:24.334Z</time>
      </trkpt>
      <trkpt lat="45.76711" lon="6.05866">
        <ele>608</ele>
        <time>2021-09-10T10:53:25.334Z</time>
      </trkpt>
      <trkpt lat="45.76708" lon="6.05867">
        <ele>608</ele>
        <time>2021-09-10T10:53:26.334Z</time>
      </trkpt>
      <trkpt lat="45.76705" lon="6.05868">
        <ele>608</ele>
        <time>2021-09-10T10:53:27.334Z</time>
      </trkpt>
      <trkpt lat="45.76702" lon="6.05869">
        <ele>608</ele>
        <time>2021-09-10T10:53:28.334Z</time>
      </trkpt>
      <trkpt lat="45.76699" lon="6.05869">
        <ele>608</ele>
        <time>2021-09-10T10:53:29.334Z</time>
      </trkpt>
      <trkpt lat="45.76696" lon="6.05869">
        <ele>609</ele>
        <time>2021-09-10T10:53:30.334Z</time>
      </trkpt>
      <trkpt lat="45.76693" lon="6.05868">
        <ele>609</ele>
        <time>2021-09-10T10:53:31.334Z</time>
      </trkpt>
      <trkpt lat="45.7669" lon="6.05867">
        <ele>609</ele>
        <time>2021-09-10T10:53:32.333Z</time>
      </trkpt>
      <trkpt lat="45.76687" lon="6.05867">
        <ele>610</ele>
        <time>2021-09-10T10:53:33.333Z</time>
      </trkpt>
      <trkpt lat="45.76684" lon="6.05866">
        <ele>610</ele>
        <time>2021-09-10T10:53:34.334Z</time>
      </trkpt>
      <trkpt lat="45.76681" lon="6.05864">
        <ele>610</ele>
        <time>2021-09-10T10:53:35.334Z</time>
      </trkpt>
      <trkpt lat="45.76678" lon="6.05863">
        <ele>611</ele>
        <time>2021-09-10T10:53:36.334Z</time>
      </trkpt>
      <trkpt lat="45.76676" lon="6.05862">
        <ele>611</ele>
        <time>2021-09-10T10:53:37.334Z</time>
      </trkpt>
      <trkpt lat="45.76673" lon="6.05861">
        <ele>611</ele>
        <time>2021-09-10T10:53:38.333Z</time>
      </trkpt>
      <trkpt lat="45.76671" lon="6.0586">
        <ele>611</ele>
        <time>2021-09-10T10:53:39.333Z</time>
      </trkpt>
      <trkpt lat="45.76668" lon="6.05859">
        <ele>611</ele>
        <time>2021-09-10T10:53:40.333Z</time>
      </trkpt>
      <trkpt lat="45.76666" lon="6.05858">
        <ele>610</ele>
        <time>2021-09-10T10:53:41.334Z</time>
      </trkpt>
      <trkpt lat="45.76663" lon="6.05857">
        <ele>610</ele>
        <time>2021-09-10T10:53:42.334Z</time>
      </trkpt>
      <trkpt lat="45.7666" lon="6.05856">
        <ele>611</ele>
        <time>2021-09-10T10:53:43.334Z</time>
      </trkpt>
      <trkpt lat="45.76657" lon="6.05855">
        <ele>610</ele>
        <time>2021-09-10T10:53:44.334Z</time>
      </trkpt>
      <trkpt lat="45.76654" lon="6.05854">
        <ele>610</ele>
        <time>2021-09-10T10:53:45.334Z</time>
      </trkpt>
      <trkpt lat="45.76651" lon="6.05854">
        <ele>610</ele>
        <time>2021-09-10T10:53:46.334Z</time>
      </trkpt>
      <trkpt lat="45.76648" lon="6.05853">
        <ele>609</ele>
        <time>2021-09-10T10:53:47.334Z</time>
      </trkpt>
      <trkpt lat="45.76645" lon="6.05853">
        <ele>609</ele>
        <time>2021-09-10T10:53:48.334Z</time>
      </trkpt>
      <trkpt lat="45.76642" lon="6.05853">
        <ele>608</ele>
        <time>2021-09-10T10:53:49.334Z</time>
      </trkpt>
      <trkpt lat="45.76639" lon="6.05853">
        <ele>608</ele>
        <time>2021-09-10T10:53:50.334Z</time>
      </trkpt>
      <trkpt lat="45.76636" lon="6.05853">
        <ele>607</ele>
        <time>2021-09-10T10:53:51.334Z</time>
      </trkpt>
      <trkpt lat="45.76633" lon="6.05853">
        <ele>607</ele>
        <time>2021-09-10T10:53:52.334Z</time>
      </trkpt>
      <trkpt lat="45.7663" lon="6.05853">
        <ele>607</ele>
        <time>2021-09-10T10:53:53.334Z</time>
      </trkpt>
      <trkpt lat="45.76627" lon="6.05853">
        <ele>608</ele>
        <time>2021-09-10T10:53:54.334Z</time>
      </trkpt>
      <trkpt lat="45.76624" lon="6.05854">
        <ele>608</ele>
        <time>2021-09-10T10:53:55.334Z</time>
      </trkpt>
      <trkpt lat="45.76621" lon="6.05855">
        <ele>608</ele>
        <time>2021-09-10T10:53:56.334Z</time>
      </trkpt>
      <trkpt lat="45.76618" lon="6.05856">
        <ele>609</ele>
        <time>2021-09-10T10:53:57.334Z</time>
      </trkpt>
      <trkpt lat="45.76615" lon="6.05857">
        <ele>609</ele>
        <time>2021-09-10T10:53:58.334Z</time>
      </trkpt>
      <trkpt lat="45.76613" lon="6.05858">
        <ele>610</ele>
        <time>2021-09-10T10:53:59.334Z</time>
      </trkpt>
      <trkpt lat="45.7661" lon="6.05859">
        <ele>610</ele>
        <time>2021-09-10T10:54:00.334Z</time>
      </trkpt>
      <trkpt lat="45.76606" lon="6.05861">
        <ele>610</ele>
        <time>2021-09-10T10:54:01.334Z</time>
      </trkpt>
      <trkpt lat="45.76604" lon="6.05862">
        <ele>610</ele>
        <time>2021-09-10T10:54:02.334Z</time>
      </trkpt>
      <trkpt lat="45.76602" lon="6.05864">
        <ele>610</ele>
        <time>2021-09-10T10:54:03.333Z</time>
      </trkpt>
      <trkpt lat="45.76599" lon="6.05866">
        <ele>610</ele>
        <time>2021-09-10T10:54:04.334Z</time>
      </trkpt>
      <trkpt lat="45.76597" lon="6.05868">
        <ele>610</ele>
        <time>2021-09-10T10:54:05.334Z</time>
      </trkpt>
      <trkpt lat="45.76594" lon="6.0587">
        <ele>609</ele>
        <time>2021-09-10T10:54:06.334Z</time>
      </trkpt>
      <trkpt lat="45.76592" lon="6.05873">
        <ele>610</ele>
        <time>2021-09-10T10:54:07.334Z</time>
      </trkpt>
      <trkpt lat="45.7659" lon="6.05876">
        <ele>610</ele>
        <time>2021-09-10T10:54:08.334Z</time>
      </trkpt>
      <trkpt lat="45.76588" lon="6.05879">
        <ele>609</ele>
        <time>2021-09-10T10:54:09.334Z</time>
      </trkpt>
      <trkpt lat="45.76585" lon="6.05882">
        <ele>609</ele>
        <time>2021-09-10T10:54:10.334Z</time>
      </trkpt>
      <trkpt lat="45.76583" lon="6.05885">
        <ele>609</ele>
        <time>2021-09-10T10:54:11.334Z</time>
      </trkpt>
      <trkpt lat="45.76581" lon="6.05887">
        <ele>610</ele>
        <time>2021-09-10T10:54:12.334Z</time>
      </trkpt>
      <trkpt lat="45.76579" lon="6.05891">
        <ele>610</ele>
        <time>2021-09-10T10:54:13.333Z</time>
      </trkpt>
      <trkpt lat="45.76576" lon="6.05894">
        <ele>611</ele>
        <time>2021-09-10T10:54:14.333Z</time>
      </trkpt>
      <trkpt lat="45.76575" lon="6.05897">
        <ele>612</ele>
        <time>2021-09-10T10:54:15.334Z</time>
      </trkpt>
      <trkpt lat="45.76573" lon="6.05901">
        <ele>612</ele>
        <time>2021-09-10T10:54:16.334Z</time>
      </trkpt>
      <trkpt lat="45.76571" lon="6.05904">
        <ele>611</ele>
        <time>2021-09-10T10:54:17.334Z</time>
      </trkpt>
      <trkpt lat="45.76569" lon="6.05908">
        <ele>611</ele>
        <time>2021-09-10T10:54:18.334Z</time>
      </trkpt>
      <trkpt lat="45.76567" lon="6.05911">
        <ele>611</ele>
        <time>2021-09-10T10:54:19.334Z</time>
      </trkpt>
      <trkpt lat="45.76565" lon="6.05914">
        <ele>610</ele>
        <time>2021-09-10T10:54:20.334Z</time>
      </trkpt>
      <trkpt lat="45.76563" lon="6.05918">
        <ele>610</ele>
        <time>2021-09-10T10:54:21.334Z</time>
      </trkpt>
      <trkpt lat="45.76562" lon="6.05921">
        <ele>610</ele>
        <time>2021-09-10T10:54:22.334Z</time>
      </trkpt>
      <trkpt lat="45.7656" lon="6.05925">
        <ele>610</ele>
        <time>2021-09-10T10:54:23.334Z</time>
      </trkpt>
      <trkpt lat="45.76558" lon="6.05928">
        <ele>611</ele>
        <time>2021-09-10T10:54:24.334Z</time>
      </trkpt>
      <trkpt lat="45.76556" lon="6.05932">
        <ele>611</ele>
        <time>2021-09-10T10:54:25.334Z</time>
      </trkpt>
      <trkpt lat="45.76555" lon="6.05935">
        <ele>611</ele>
        <time>2021-09-10T10:54:26.334Z</time>
      </trkpt>
      <trkpt lat="45.76553" lon="6.05939">
        <ele>611</ele>
        <time>2021-09-10T10:54:27.334Z</time>
      </trkpt>
      <trkpt lat="45.76551" lon="6.05942">
        <ele>611</ele>
        <time>2021-09-10T10:54:28.334Z</time>
      </trkpt>
      <trkpt lat="45.76549" lon="6.05945">
        <ele>611</ele>
        <time>2021-09-10T10:54:29.334Z</time>
      </trkpt>
      <trkpt lat="45.76547" lon="6.05948">
        <ele>611</ele>
        <time>2021-09-10T10:54:30.334Z</time>
      </trkpt>
      <trkpt lat="45.76545" lon="6.0595">
        <ele>611</ele>
        <time>2021-09-10T10:54:31.334Z</time>
      </trkpt>
      <trkpt lat="45.76542" lon="6.05952">
        <ele>611</ele>
        <time>2021-09-10T10:54:32.333Z</time>
      </trkpt>
      <trkpt lat="45.7654" lon="6.05953">
        <ele>612</ele>
        <time>2021-09-10T10:54:33.334Z</time>
      </trkpt>
      <trkpt lat="45.76537" lon="6.05955">
        <ele>612</ele>
        <time>2021-09-10T10:54:34.334Z</time>
      </trkpt>
      <trkpt lat="45.76535" lon="6.05957">
        <ele>612</ele>
        <time>2021-09-10T10:54:35.334Z</time>
      </trkpt>
      <trkpt lat="45.76533" lon="6.05959">
        <ele>612</ele>
        <time>2021-09-10T10:54:36.334Z</time>
      </trkpt>
      <trkpt lat="45.7653" lon="6.05961">
        <ele>613</ele>
        <time>2021-09-10T10:54:37.333Z</time>
      </trkpt>
      <trkpt lat="45.76528" lon="6.05962">
        <ele>614</ele>
        <time>2021-09-10T10:54:38.334Z</time>
      </trkpt>
      <trkpt lat="45.76526" lon="6.05964">
        <ele>614</ele>
        <time>2021-09-10T10:54:39.333Z</time>
      </trkpt>
      <trkpt lat="45.76523" lon="6.05965">
        <ele>614</ele>
        <time>2021-09-10T10:54:40.333Z</time>
      </trkpt>
      <trkpt lat="45.76521" lon="6.05967">
        <ele>615</ele>
        <time>2021-09-10T10:54:41.333Z</time>
      </trkpt>
      <trkpt lat="45.76518" lon="6.05968">
        <ele>615</ele>
        <time>2021-09-10T10:54:42.333Z</time>
      </trkpt>
      <trkpt lat="45.76516" lon="6.0597">
        <ele>616</ele>
        <time>2021-09-10T10:54:43.334Z</time>
      </trkpt>
      <trkpt lat="45.76513" lon="6.05971">
        <ele>615</ele>
        <time>2021-09-10T10:54:44.333Z</time>
      </trkpt>
      <trkpt lat="45.76511" lon="6.05973">
        <ele>615</ele>
        <time>2021-09-10T10:54:45.334Z</time>
      </trkpt>
      <trkpt lat="45.76508" lon="6.05974">
        <ele>615</ele>
        <time>2021-09-10T10:54:46.333Z</time>
      </trkpt>
      <trkpt lat="45.76506" lon="6.05976">
        <ele>616</ele>
        <time>2021-09-10T10:54:47.334Z</time>
      </trkpt>
      <trkpt lat="45.76503" lon="6.05977">
        <ele>616</ele>
        <time>2021-09-10T10:54:48.333Z</time>
      </trkpt>
      <trkpt lat="45.765" lon="6.05979">
        <ele>616</ele>
        <time>2021-09-10T10:54:49.334Z</time>
      </trkpt>
      <trkpt lat="45.76498" lon="6.0598">
        <ele>616</ele>
        <time>2021-09-10T10:54:50.334Z</time>
      </trkpt>
      <trkpt lat="45.76495" lon="6.05981">
        <ele>616</ele>
        <time>2021-09-10T10:54:51.333Z</time>
      </trkpt>
      <trkpt lat="45.76492" lon="6.05982">
        <ele>615</ele>
        <time>2021-09-10T10:54:52.334Z</time>
      </trkpt>
      <trkpt lat="45.7649" lon="6.05984">
        <ele>615</ele>
        <time>2021-09-10T10:54:53.334Z</time>
      </trkpt>
      <trkpt lat="45.76487" lon="6.05985">
        <ele>615</ele>
        <time>2021-09-10T10:54:54.334Z</time>
      </trkpt>
      <trkpt lat="45.76484" lon="6.05987">
        <ele>615</ele>
        <time>2021-09-10T10:54:55.334Z</time>
      </trkpt>
      <trkpt lat="45.76481" lon="6.05988">
        <ele>615</ele>
        <time>2021-09-10T10:54:56.333Z</time>
      </trkpt>
      <trkpt lat="45.76478" lon="6.0599">
        <ele>614</ele>
        <time>2021-09-10T10:54:57.334Z</time>
      </trkpt>
      <trkpt lat="45.76475" lon="6.05991">
        <ele>614</ele>
        <time>2021-09-10T10:54:58.333Z</time>
      </trkpt>
      <trkpt lat="45.76472" lon="6.05993">
        <ele>613</ele>
        <time>2021-09-10T10:54:59.334Z</time>
      </trkpt>
      <trkpt lat="45.76469" lon="6.05994">
        <ele>613</ele>
        <time>2021-09-10T10:55:00.333Z</time>
      </trkpt>
      <trkpt lat="45.76466" lon="6.05996">
        <ele>613</ele>
        <time>2021-09-10T10:55:01.333Z</time>
      </trkpt>
      <trkpt lat="45.76463" lon="6.05997">
        <ele>613</ele>
        <time>2021-09-10T10:55:02.334Z</time>
      </trkpt>
      <trkpt lat="45.76461" lon="6.05999">
        <ele>613</ele>
        <time>2021-09-10T10:55:03.334Z</time>
      </trkpt>
      <trkpt lat="45.76458" lon="6.06001">
        <ele>613</ele>
        <time>2021-09-10T10:55:04.334Z</time>
      </trkpt>
      <trkpt lat="45.76455" lon="6.06003">
        <ele>612</ele>
        <time>2021-09-10T10:55:05.334Z</time>
      </trkpt>
      <trkpt lat="45.76452" lon="6.06005">
        <ele>612</ele>
        <time>2021-09-10T10:55:06.334Z</time>
      </trkpt>
      <trkpt lat="45.7645" lon="6.06008">
        <ele>612</ele>
        <time>2021-09-10T10:55:07.334Z</time>
      </trkpt>
      <trkpt lat="45.76447" lon="6.0601">
        <ele>613</ele>
        <time>2021-09-10T10:55:08.334Z</time>
      </trkpt>
      <trkpt lat="45.76444" lon="6.06012">
        <ele>613</ele>
        <time>2021-09-10T10:55:09.334Z</time>
      </trkpt>
      <trkpt lat="45.76442" lon="6.06015">
        <ele>614</ele>
        <time>2021-09-10T10:55:10.333Z</time>
      </trkpt>
      <trkpt lat="45.76439" lon="6.06018">
        <ele>614</ele>
        <time>2021-09-10T10:55:11.334Z</time>
      </trkpt>
      <trkpt lat="45.76437" lon="6.06021">
        <ele>614</ele>
        <time>2021-09-10T10:55:12.334Z</time>
      </trkpt>
      <trkpt lat="45.76434" lon="6.06025">
        <ele>614</ele>
        <time>2021-09-10T10:55:13.334Z</time>
      </trkpt>
      <trkpt lat="45.76432" lon="6.06028">
        <ele>614</ele>
        <time>2021-09-10T10:55:14.334Z</time>
      </trkpt>
      <trkpt lat="45.76429" lon="6.06032">
        <ele>614</ele>
        <time>2021-09-10T10:55:15.333Z</time>
      </trkpt>
      <trkpt lat="45.76428" lon="6.06035">
        <ele>614</ele>
        <time>2021-09-10T10:55:16.334Z</time>
      </trkpt>
      <trkpt lat="45.76425" lon="6.06038">
        <ele>615</ele>
        <time>2021-09-10T10:55:17.334Z</time>
      </trkpt>
      <trkpt lat="45.76423" lon="6.06042">
        <ele>616</ele>
        <time>2021-09-10T10:55:18.334Z</time>
      </trkpt>
      <trkpt lat="45.76421" lon="6.06046">
        <ele>616</ele>
        <time>2021-09-10T10:55:19.334Z</time>
      </trkpt>
      <trkpt lat="45.76419" lon="6.0605">
        <ele>617</ele>
        <time>2021-09-10T10:55:20.333Z</time>
      </trkpt>
      <trkpt lat="45.76417" lon="6.06053">
        <ele>618</ele>
        <time>2021-09-10T10:55:21.334Z</time>
      </trkpt>
      <trkpt lat="45.76415" lon="6.06057">
        <ele>618</ele>
        <time>2021-09-10T10:55:22.334Z</time>
      </trkpt>
      <trkpt lat="45.76413" lon="6.06061">
        <ele>619</ele>
        <time>2021-09-10T10:55:23.333Z</time>
      </trkpt>
      <trkpt lat="45.76412" lon="6.06065">
        <ele>619</ele>
        <time>2021-09-10T10:55:24.333Z</time>
      </trkpt>
      <trkpt lat="45.7641" lon="6.06069">
        <ele>619</ele>
        <time>2021-09-10T10:55:25.334Z</time>
      </trkpt>
      <trkpt lat="45.76408" lon="6.06073">
        <ele>620</ele>
        <time>2021-09-10T10:55:26.334Z</time>
      </trkpt>
      <trkpt lat="45.76407" lon="6.06077">
        <ele>620</ele>
        <time>2021-09-10T10:55:27.334Z</time>
      </trkpt>
      <trkpt lat="45.76405" lon="6.06081">
        <ele>620</ele>
        <time>2021-09-10T10:55:28.333Z</time>
      </trkpt>
      <trkpt lat="45.76404" lon="6.06085">
        <ele>621</ele>
        <time>2021-09-10T10:55:29.334Z</time>
      </trkpt>
      <trkpt lat="45.76403" lon="6.06089">
        <ele>621</ele>
        <time>2021-09-10T10:55:30.333Z</time>
      </trkpt>
      <trkpt lat="45.76402" lon="6.06093">
        <ele>621</ele>
        <time>2021-09-10T10:55:31.334Z</time>
      </trkpt>
      <trkpt lat="45.76401" lon="6.06097">
        <ele>622</ele>
        <time>2021-09-10T10:55:32.334Z</time>
      </trkpt>
      <trkpt lat="45.764" lon="6.06101">
        <ele>622</ele>
        <time>2021-09-10T10:55:33.333Z</time>
      </trkpt>
      <trkpt lat="45.76399" lon="6.06105">
        <ele>622</ele>
        <time>2021-09-10T10:55:34.333Z</time>
      </trkpt>
      <trkpt lat="45.76398" lon="6.06109">
        <ele>623</ele>
        <time>2021-09-10T10:55:35.333Z</time>
      </trkpt>
      <trkpt lat="45.76398" lon="6.06114">
        <ele>623</ele>
        <time>2021-09-10T10:55:36.333Z</time>
      </trkpt>
      <trkpt lat="45.76397" lon="6.06119">
        <ele>623</ele>
        <time>2021-09-10T10:55:37.334Z</time>
      </trkpt>
      <trkpt lat="45.76396" lon="6.06124">
        <ele>623</ele>
        <time>2021-09-10T10:55:38.333Z</time>
      </trkpt>
      <trkpt lat="45.76395" lon="6.06128">
        <ele>622</ele>
        <time>2021-09-10T10:55:39.334Z</time>
      </trkpt>
      <trkpt lat="45.76394" lon="6.06133">
        <ele>622</ele>
        <time>2021-09-10T10:55:40.334Z</time>
      </trkpt>
      <trkpt lat="45.76393" lon="6.06138">
        <ele>621</ele>
        <time>2021-09-10T10:55:41.334Z</time>
      </trkpt>
      <trkpt lat="45.76391" lon="6.06143">
        <ele>621</ele>
        <time>2021-09-10T10:55:42.333Z</time>
      </trkpt>
      <trkpt lat="45.76389" lon="6.06147">
        <ele>621</ele>
        <time>2021-09-10T10:55:43.334Z</time>
      </trkpt>
      <trkpt lat="45.76388" lon="6.06152">
        <ele>621</ele>
        <time>2021-09-10T10:55:44.334Z</time>
      </trkpt>
      <trkpt lat="45.76386" lon="6.06155">
        <ele>621</ele>
        <time>2021-09-10T10:55:45.334Z</time>
      </trkpt>
      <trkpt lat="45.76384" lon="6.06159">
        <ele>621</ele>
        <time>2021-09-10T10:55:46.333Z</time>
      </trkpt>
      <trkpt lat="45.76382" lon="6.06162">
        <ele>621</ele>
        <time>2021-09-10T10:55:47.334Z</time>
      </trkpt>
      <trkpt lat="45.7638" lon="6.06165">
        <ele>621</ele>
        <time>2021-09-10T10:55:48.334Z</time>
      </trkpt>
      <trkpt lat="45.76378" lon="6.06168">
        <ele>622</ele>
        <time>2021-09-10T10:55:49.334Z</time>
      </trkpt>
      <trkpt lat="45.76375" lon="6.06171">
        <ele>622</ele>
        <time>2021-09-10T10:55:50.334Z</time>
      </trkpt>
      <trkpt lat="45.76373" lon="6.06173">
        <ele>622</ele>
        <time>2021-09-10T10:55:51.334Z</time>
      </trkpt>
      <trkpt lat="45.7637" lon="6.06175">
        <ele>623</ele>
        <time>2021-09-10T10:55:52.334Z</time>
      </trkpt>
      <trkpt lat="45.76367" lon="6.06178">
        <ele>623</ele>
        <time>2021-09-10T10:55:53.334Z</time>
      </trkpt>
      <trkpt lat="45.76364" lon="6.0618">
        <ele>623</ele>
        <time>2021-09-10T10:55:54.334Z</time>
      </trkpt>
      <trkpt lat="45.76361" lon="6.06182">
        <ele>623</ele>
        <time>2021-09-10T10:55:55.333Z</time>
      </trkpt>
      <trkpt lat="45.76359" lon="6.06184">
        <ele>623</ele>
        <time>2021-09-10T10:55:56.334Z</time>
      </trkpt>
      <trkpt lat="45.76356" lon="6.06186">
        <ele>623</ele>
        <time>2021-09-10T10:55:57.334Z</time>
      </trkpt>
      <trkpt lat="45.76353" lon="6.06189">
        <ele>623</ele>
        <time>2021-09-10T10:55:58.334Z</time>
      </trkpt>
      <trkpt lat="45.76351" lon="6.0619">
        <ele>623</ele>
        <time>2021-09-10T10:55:59.334Z</time>
      </trkpt>
      <trkpt lat="45.76348" lon="6.06192">
        <ele>623</ele>
        <time>2021-09-10T10:56:00.334Z</time>
      </trkpt>
      <trkpt lat="45.76346" lon="6.06195">
        <ele>623</ele>
        <time>2021-09-10T10:56:01.334Z</time>
      </trkpt>
      <trkpt lat="45.76344" lon="6.06197">
        <ele>623</ele>
        <time>2021-09-10T10:56:02.334Z</time>
      </trkpt>
      <trkpt lat="45.76341" lon="6.062">
        <ele>623</ele>
        <time>2021-09-10T10:56:03.334Z</time>
      </trkpt>
      <trkpt lat="45.76338" lon="6.06202">
        <ele>623</ele>
        <time>2021-09-10T10:56:04.333Z</time>
      </trkpt>
      <trkpt lat="45.76336" lon="6.06204">
        <ele>624</ele>
        <time>2021-09-10T10:56:05.334Z</time>
      </trkpt>
      <trkpt lat="45.76334" lon="6.06206">
        <ele>624</ele>
        <time>2021-09-10T10:56:06.334Z</time>
      </trkpt>
      <trkpt lat="45.76331" lon="6.06208">
        <ele>624</ele>
        <time>2021-09-10T10:56:07.333Z</time>
      </trkpt>
      <trkpt lat="45.76328" lon="6.0621">
        <ele>624</ele>
        <time>2021-09-10T10:56:08.334Z</time>
      </trkpt>
      <trkpt lat="45.76326" lon="6.06212">
        <ele>624</ele>
        <time>2021-09-10T10:56:09.334Z</time>
      </trkpt>
      <trkpt lat="45.76323" lon="6.06215">
        <ele>623</ele>
        <time>2021-09-10T10:56:10.334Z</time>
      </trkpt>
      <trkpt lat="45.7632" lon="6.06217">
        <ele>623</ele>
        <time>2021-09-10T10:56:11.334Z</time>
      </trkpt>
      <trkpt lat="45.76317" lon="6.06218">
        <ele>624</ele>
        <time>2021-09-10T10:56:12.334Z</time>
      </trkpt>
      <trkpt lat="45.76314" lon="6.0622">
        <ele>624</ele>
        <time>2021-09-10T10:56:13.334Z</time>
      </trkpt>
      <trkpt lat="45.7631" lon="6.06221">
        <ele>625</ele>
        <time>2021-09-10T10:56:14.334Z</time>
      </trkpt>
      <trkpt lat="45.76307" lon="6.06222">
        <ele>625</ele>
        <time>2021-09-10T10:56:15.334Z</time>
      </trkpt>
      <trkpt lat="45.76303" lon="6.06223">
        <ele>626</ele>
        <time>2021-09-10T10:56:16.333Z</time>
      </trkpt>
      <trkpt lat="45.763" lon="6.06223">
        <ele>627</ele>
        <time>2021-09-10T10:56:17.333Z</time>
      </trkpt>
      <trkpt lat="45.76296" lon="6.06224">
        <ele>628</ele>
        <time>2021-09-10T10:56:18.334Z</time>
      </trkpt>
      <trkpt lat="45.76293" lon="6.06225">
        <ele>628</ele>
        <time>2021-09-10T10:56:19.333Z</time>
      </trkpt>
      <trkpt lat="45.7629" lon="6.06226">
        <ele>629</ele>
        <time>2021-09-10T10:56:23.462Z</time>
      </trkpt>
      <trkpt lat="45.76287" lon="6.06227">
        <ele>629</ele>
        <time>2021-09-10T10:56:24.463Z</time>
      </trkpt>
      <trkpt lat="45.76283" lon="6.06227">
        <ele>629</ele>
        <time>2021-09-10T10:56:25.463Z</time>
      </trkpt>
      <trkpt lat="45.7628" lon="6.06228">
        <ele>629</ele>
        <time>2021-09-10T10:56:26.463Z</time>
      </trkpt>
      <trkpt lat="45.76276" lon="6.06228">
        <ele>629</ele>
        <time>2021-09-10T10:56:27.463Z</time>
      </trkpt>
      <trkpt lat="45.76272" lon="6.06228">
        <ele>629</ele>
        <time>2021-09-10T10:56:28.463Z</time>
      </trkpt>
      <trkpt lat="45.76269" lon="6.06229">
        <ele>630</ele>
        <time>2021-09-10T10:56:29.463Z</time>
      </trkpt>
      <trkpt lat="45.76265" lon="6.0623">
        <ele>630</ele>
        <time>2021-09-10T10:56:30.463Z</time>
      </trkpt>
      <trkpt lat="45.76261" lon="6.06232">
        <ele>630</ele>
        <time>2021-09-10T10:56:31.463Z</time>
      </trkpt>
      <trkpt lat="45.76258" lon="6.06233">
        <ele>630</ele>
        <time>2021-09-10T10:56:32.463Z</time>
      </trkpt>
      <trkpt lat="45.76254" lon="6.06234">
        <ele>630</ele>
        <time>2021-09-10T10:56:33.463Z</time>
      </trkpt>
      <trkpt lat="45.76251" lon="6.06235">
        <ele>629</ele>
        <time>2021-09-10T10:56:34.463Z</time>
      </trkpt>
      <trkpt lat="45.76247" lon="6.06237">
        <ele>629</ele>
        <time>2021-09-10T10:56:35.463Z</time>
      </trkpt>
      <trkpt lat="45.76244" lon="6.06238">
        <ele>629</ele>
        <time>2021-09-10T10:56:36.463Z</time>
      </trkpt>
      <trkpt lat="45.7624" lon="6.0624">
        <ele>629</ele>
        <time>2021-09-10T10:56:37.463Z</time>
      </trkpt>
      <trkpt lat="45.76238" lon="6.06241">
        <ele>629</ele>
        <time>2021-09-10T10:56:38.463Z</time>
      </trkpt>
      <trkpt lat="45.76235" lon="6.06243">
        <ele>628</ele>
        <time>2021-09-10T10:56:39.462Z</time>
      </trkpt>
      <trkpt lat="45.76232" lon="6.06244">
        <ele>628</ele>
        <time>2021-09-10T10:56:40.462Z</time>
      </trkpt>
      <trkpt lat="45.76228" lon="6.06246">
        <ele>628</ele>
        <time>2021-09-10T10:56:41.463Z</time>
      </trkpt>
      <trkpt lat="45.76225" lon="6.06248">
        <ele>627</ele>
        <time>2021-09-10T10:56:42.462Z</time>
      </trkpt>
      <trkpt lat="45.76223" lon="6.06249">
        <ele>627</ele>
        <time>2021-09-10T10:56:43.462Z</time>
      </trkpt>
      <trkpt lat="45.7622" lon="6.06251">
        <ele>626</ele>
        <time>2021-09-10T10:56:44.463Z</time>
      </trkpt>
      <trkpt lat="45.76217" lon="6.06254">
        <ele>626</ele>
        <time>2021-09-10T10:56:45.463Z</time>
      </trkpt>
      <trkpt lat="45.76214" lon="6.06257">
        <ele>626</ele>
        <time>2021-09-10T10:56:46.463Z</time>
      </trkpt>
      <trkpt lat="45.76212" lon="6.06259">
        <ele>625</ele>
        <time>2021-09-10T10:56:47.463Z</time>
      </trkpt>
      <trkpt lat="45.7621" lon="6.06261">
        <ele>625</ele>
        <time>2021-09-10T10:56:48.463Z</time>
      </trkpt>
      <trkpt lat="45.76207" lon="6.06264">
        <ele>625</ele>
        <time>2021-09-10T10:56:49.462Z</time>
      </trkpt>
      <trkpt lat="45.76205" lon="6.06268">
        <ele>625</ele>
        <time>2021-09-10T10:56:50.463Z</time>
      </trkpt>
      <trkpt lat="45.76202" lon="6.06271">
        <ele>626</ele>
        <time>2021-09-10T10:56:51.462Z</time>
      </trkpt>
      <trkpt lat="45.762" lon="6.06274">
        <ele>626</ele>
        <time>2021-09-10T10:56:52.463Z</time>
      </trkpt>
      <trkpt lat="45.76198" lon="6.06277">
        <ele>626</ele>
        <time>2021-09-10T10:56:53.462Z</time>
      </trkpt>
      <trkpt lat="45.76196" lon="6.06281">
        <ele>626</ele>
        <time>2021-09-10T10:56:54.463Z</time>
      </trkpt>
      <trkpt lat="45.76194" lon="6.06284">
        <ele>626</ele>
        <time>2021-09-10T10:56:55.463Z</time>
      </trkpt>
      <trkpt lat="45.76193" lon="6.06288">
        <ele>626</ele>
        <time>2021-09-10T10:56:56.463Z</time>
      </trkpt>
      <trkpt lat="45.76191" lon="6.06291">
        <ele>625</ele>
        <time>2021-09-10T10:56:57.463Z</time>
      </trkpt>
      <trkpt lat="45.76189" lon="6.06295">
        <ele>624</ele>
        <time>2021-09-10T10:56:58.463Z</time>
      </trkpt>
      <trkpt lat="45.76187" lon="6.06298">
        <ele>624</ele>
        <time>2021-09-10T10:56:59.462Z</time>
      </trkpt>
      <trkpt lat="45.76185" lon="6.06302">
        <ele>624</ele>
        <time>2021-09-10T10:57:00.462Z</time>
      </trkpt>
      <trkpt lat="45.76183" lon="6.06306">
        <ele>624</ele>
        <time>2021-09-10T10:57:01.462Z</time>
      </trkpt>
      <trkpt lat="45.76182" lon="6.0631">
        <ele>623</ele>
        <time>2021-09-10T10:57:02.463Z</time>
      </trkpt>
      <trkpt lat="45.7618" lon="6.06314">
        <ele>623</ele>
        <time>2021-09-10T10:57:03.463Z</time>
      </trkpt>
      <trkpt lat="45.76178" lon="6.06318">
        <ele>623</ele>
        <time>2021-09-10T10:57:04.462Z</time>
      </trkpt>
      <trkpt lat="45.76176" lon="6.06321">
        <ele>623</ele>
        <time>2021-09-10T10:57:05.462Z</time>
      </trkpt>
      <trkpt lat="45.76174" lon="6.06325">
        <ele>623</ele>
        <time>2021-09-10T10:57:06.463Z</time>
      </trkpt>
      <trkpt lat="45.76172" lon="6.06328">
        <ele>623</ele>
        <time>2021-09-10T10:57:07.463Z</time>
      </trkpt>
      <trkpt lat="45.76171" lon="6.06332">
        <ele>622</ele>
        <time>2021-09-10T10:57:08.463Z</time>
      </trkpt>
      <trkpt lat="45.76169" lon="6.06336">
        <ele>622</ele>
        <time>2021-09-10T10:57:09.463Z</time>
      </trkpt>
      <trkpt lat="45.76168" lon="6.0634">
        <ele>623</ele>
        <time>2021-09-10T10:57:10.463Z</time>
      </trkpt>
      <trkpt lat="45.76166" lon="6.06344">
        <ele>623</ele>
        <time>2021-09-10T10:57:11.463Z</time>
      </trkpt>
      <trkpt lat="45.76165" lon="6.06348">
        <ele>623</ele>
        <time>2021-09-10T10:57:12.463Z</time>
      </trkpt>
      <trkpt lat="45.76164" lon="6.06352">
        <ele>623</ele>
        <time>2021-09-10T10:57:13.463Z</time>
      </trkpt>
      <trkpt lat="45.76163" lon="6.06357">
        <ele>624</ele>
        <time>2021-09-10T10:57:14.463Z</time>
      </trkpt>
      <trkpt lat="45.76162" lon="6.06361">
        <ele>624</ele>
        <time>2021-09-10T10:57:15.463Z</time>
      </trkpt>
      <trkpt lat="45.76161" lon="6.06366">
        <ele>624</ele>
        <time>2021-09-10T10:57:16.463Z</time>
      </trkpt>
      <trkpt lat="45.7616" lon="6.06371">
        <ele>625</ele>
        <time>2021-09-10T10:57:17.462Z</time>
      </trkpt>
      <trkpt lat="45.7616" lon="6.06375">
        <ele>625</ele>
        <time>2021-09-10T10:57:18.463Z</time>
      </trkpt>
      <trkpt lat="45.76159" lon="6.0638">
        <ele>626</ele>
        <time>2021-09-10T10:57:19.463Z</time>
      </trkpt>
      <trkpt lat="45.76159" lon="6.06384">
        <ele>626</ele>
        <time>2021-09-10T10:57:20.463Z</time>
      </trkpt>
      <trkpt lat="45.76158" lon="6.06389">
        <ele>626</ele>
        <time>2021-09-10T10:57:21.463Z</time>
      </trkpt>
      <trkpt lat="45.76158" lon="6.06394">
        <ele>626</ele>
        <time>2021-09-10T10:57:22.463Z</time>
      </trkpt>
      <trkpt lat="45.76158" lon="6.06399">
        <ele>626</ele>
        <time>2021-09-10T10:57:23.463Z</time>
      </trkpt>
      <trkpt lat="45.76158" lon="6.06404">
        <ele>626</ele>
        <time>2021-09-10T10:57:24.463Z</time>
      </trkpt>
      <trkpt lat="45.76157" lon="6.06409">
        <ele>626</ele>
        <time>2021-09-10T10:57:25.462Z</time>
      </trkpt>
      <trkpt lat="45.76157" lon="6.06414">
        <ele>625</ele>
        <time>2021-09-10T10:57:26.463Z</time>
      </trkpt>
      <trkpt lat="45.76157" lon="6.0642">
        <ele>625</ele>
        <time>2021-09-10T10:57:27.463Z</time>
      </trkpt>
      <trkpt lat="45.76157" lon="6.06424">
        <ele>624</ele>
        <time>2021-09-10T10:57:28.463Z</time>
      </trkpt>
      <trkpt lat="45.76156" lon="6.06429">
        <ele>624</ele>
        <time>2021-09-10T10:57:29.462Z</time>
      </trkpt>
      <trkpt lat="45.76156" lon="6.06434">
        <ele>623</ele>
        <time>2021-09-10T10:57:30.463Z</time>
      </trkpt>
      <trkpt lat="45.76156" lon="6.06438">
        <ele>623</ele>
        <time>2021-09-10T10:57:31.463Z</time>
      </trkpt>
      <trkpt lat="45.76156" lon="6.06443">
        <ele>623</ele>
        <time>2021-09-10T10:57:32.463Z</time>
      </trkpt>
      <trkpt lat="45.76156" lon="6.06447">
        <ele>623</ele>
        <time>2021-09-10T10:57:33.463Z</time>
      </trkpt>
      <trkpt lat="45.76156" lon="6.06451">
        <ele>623</ele>
        <time>2021-09-10T10:57:34.462Z</time>
      </trkpt>
      <trkpt lat="45.76156" lon="6.06455">
        <ele>622</ele>
        <time>2021-09-10T10:57:35.463Z</time>
      </trkpt>
      <trkpt lat="45.76155" lon="6.06459">
        <ele>622</ele>
        <time>2021-09-10T10:57:36.463Z</time>
      </trkpt>
      <trkpt lat="45.76155" lon="6.06463">
        <ele>622</ele>
        <time>2021-09-10T10:57:37.462Z</time>
      </trkpt>
      <trkpt lat="45.76154" lon="6.06466">
        <ele>622</ele>
        <time>2021-09-10T10:57:38.462Z</time>
      </trkpt>
      <trkpt lat="45.76153" lon="6.0647">
        <ele>622</ele>
        <time>2021-09-10T10:57:39.463Z</time>
      </trkpt>
      <trkpt lat="45.76152" lon="6.06474">
        <ele>622</ele>
        <time>2021-09-10T10:57:40.462Z</time>
      </trkpt>
      <trkpt lat="45.76151" lon="6.06478">
        <ele>622</ele>
        <time>2021-09-10T10:57:41.463Z</time>
      </trkpt>
      <trkpt lat="45.7615" lon="6.06483">
        <ele>622</ele>
        <time>2021-09-10T10:57:42.462Z</time>
      </trkpt>
      <trkpt lat="45.76149" lon="6.06487">
        <ele>622</ele>
        <time>2021-09-10T10:57:43.463Z</time>
      </trkpt>
      <trkpt lat="45.76147" lon="6.06491">
        <ele>622</ele>
        <time>2021-09-10T10:57:44.463Z</time>
      </trkpt>
      <trkpt lat="45.76146" lon="6.06495">
        <ele>622</ele>
        <time>2021-09-10T10:57:45.463Z</time>
      </trkpt>
      <trkpt lat="45.76144" lon="6.06499">
        <ele>622</ele>
        <time>2021-09-10T10:57:46.463Z</time>
      </trkpt>
      <trkpt lat="45.76143" lon="6.06502">
        <ele>622</ele>
        <time>2021-09-10T10:57:47.463Z</time>
      </trkpt>
      <trkpt lat="45.76141" lon="6.06506">
        <ele>622</ele>
        <time>2021-09-10T10:57:48.462Z</time>
      </trkpt>
      <trkpt lat="45.76138" lon="6.06509">
        <ele>623</ele>
        <time>2021-09-10T10:57:49.463Z</time>
      </trkpt>
      <trkpt lat="45.76136" lon="6.06512">
        <ele>623</ele>
        <time>2021-09-10T10:57:50.462Z</time>
      </trkpt>
      <trkpt lat="45.76133" lon="6.06515">
        <ele>623</ele>
        <time>2021-09-10T10:57:51.463Z</time>
      </trkpt>
      <trkpt lat="45.7613" lon="6.06517">
        <ele>624</ele>
        <time>2021-09-10T10:57:52.463Z</time>
      </trkpt>
      <trkpt lat="45.76127" lon="6.0652">
        <ele>624</ele>
        <time>2021-09-10T10:57:53.463Z</time>
      </trkpt>
      <trkpt lat="45.76124" lon="6.06522">
        <ele>625</ele>
        <time>2021-09-10T10:57:54.463Z</time>
      </trkpt>
      <trkpt lat="45.76121" lon="6.06525">
        <ele>625</ele>
        <time>2021-09-10T10:57:55.463Z</time>
      </trkpt>
      <trkpt lat="45.76118" lon="6.06527">
        <ele>625</ele>
        <time>2021-09-10T10:57:56.462Z</time>
      </trkpt>
      <trkpt lat="45.76116" lon="6.0653">
        <ele>625</ele>
        <time>2021-09-10T10:57:57.462Z</time>
      </trkpt>
      <trkpt lat="45.76113" lon="6.06532">
        <ele>625</ele>
        <time>2021-09-10T10:57:58.463Z</time>
      </trkpt>
      <trkpt lat="45.7611" lon="6.06534">
        <ele>625</ele>
        <time>2021-09-10T10:57:59.463Z</time>
      </trkpt>
      <trkpt lat="45.76107" lon="6.06536">
        <ele>625</ele>
        <time>2021-09-10T10:58:00.463Z</time>
      </trkpt>
      <trkpt lat="45.76104" lon="6.06538">
        <ele>626</ele>
        <time>2021-09-10T10:58:01.463Z</time>
      </trkpt>
      <trkpt lat="45.76101" lon="6.0654">
        <ele>627</ele>
        <time>2021-09-10T10:58:02.463Z</time>
      </trkpt>
      <trkpt lat="45.76098" lon="6.06543">
        <ele>627</ele>
        <time>2021-09-10T10:58:03.463Z</time>
      </trkpt>
      <trkpt lat="45.76096" lon="6.06545">
        <ele>627</ele>
        <time>2021-09-10T10:58:04.463Z</time>
      </trkpt>
      <trkpt lat="45.76093" lon="6.06547">
        <ele>627</ele>
        <time>2021-09-10T10:58:05.462Z</time>
      </trkpt>
      <trkpt lat="45.7609" lon="6.0655">
        <ele>627</ele>
        <time>2021-09-10T10:58:06.462Z</time>
      </trkpt>
      <trkpt lat="45.76087" lon="6.06552">
        <ele>627</ele>
        <time>2021-09-10T10:58:07.463Z</time>
      </trkpt>
      <trkpt lat="45.76084" lon="6.06554">
        <ele>628</ele>
        <time>2021-09-10T10:58:08.462Z</time>
      </trkpt>
      <trkpt lat="45.7608" lon="6.06556">
        <ele>628</ele>
        <time>2021-09-10T10:58:09.462Z</time>
      </trkpt>
      <trkpt lat="45.76077" lon="6.06558">
        <ele>628</ele>
        <time>2021-09-10T10:58:10.463Z</time>
      </trkpt>
      <trkpt lat="45.76074" lon="6.0656">
        <ele>628</ele>
        <time>2021-09-10T10:58:11.463Z</time>
      </trkpt>
      <trkpt lat="45.76071" lon="6.06562">
        <ele>628</ele>
        <time>2021-09-10T10:58:12.463Z</time>
      </trkpt>
      <trkpt lat="45.76068" lon="6.06564">
        <ele>628</ele>
        <time>2021-09-10T10:58:13.463Z</time>
      </trkpt>
      <trkpt lat="45.76065" lon="6.06566">
        <ele>627</ele>
        <time>2021-09-10T10:58:14.462Z</time>
      </trkpt>
      <trkpt lat="45.76062" lon="6.06568">
        <ele>627</ele>
        <time>2021-09-10T10:58:15.463Z</time>
      </trkpt>
      <trkpt lat="45.76059" lon="6.0657">
        <ele>627</ele>
        <time>2021-09-10T10:58:16.463Z</time>
      </trkpt>
      <trkpt lat="45.76056" lon="6.06572">
        <ele>627</ele>
        <time>2021-09-10T10:58:17.463Z</time>
      </trkpt>
      <trkpt lat="45.76053" lon="6.06574">
        <ele>628</ele>
        <time>2021-09-10T10:58:18.462Z</time>
      </trkpt>
      <trkpt lat="45.7605" lon="6.06576">
        <ele>628</ele>
        <time>2021-09-10T10:58:19.463Z</time>
      </trkpt>
      <trkpt lat="45.76047" lon="6.06578">
        <ele>629</ele>
        <time>2021-09-10T10:58:20.462Z</time>
      </trkpt>
      <trkpt lat="45.76045" lon="6.06581">
        <ele>629</ele>
        <time>2021-09-10T10:58:21.463Z</time>
      </trkpt>
      <trkpt lat="45.76042" lon="6.06583">
        <ele>629</ele>
        <time>2021-09-10T10:58:22.463Z</time>
      </trkpt>
      <trkpt lat="45.76039" lon="6.06585">
        <ele>628</ele>
        <time>2021-09-10T10:58:23.463Z</time>
      </trkpt>
      <trkpt lat="45.76036" lon="6.06587">
        <ele>628</ele>
        <time>2021-09-10T10:58:24.463Z</time>
      </trkpt>
      <trkpt lat="45.76033" lon="6.06589">
        <ele>628</ele>
        <time>2021-09-10T10:58:25.463Z</time>
      </trkpt>
      <trkpt lat="45.7603" lon="6.06591">
        <ele>628</ele>
        <time>2021-09-10T10:58:26.463Z</time>
      </trkpt>
      <trkpt lat="45.76026" lon="6.06592">
        <ele>628</ele>
        <time>2021-09-10T10:58:27.463Z</time>
      </trkpt>
      <trkpt lat="45.76023" lon="6.06593">
        <ele>629</ele>
        <time>2021-09-10T10:58:28.463Z</time>
      </trkpt>
      <trkpt lat="45.76019" lon="6.06595">
        <ele>629</ele>
        <time>2021-09-10T10:58:29.463Z</time>
      </trkpt>
      <trkpt lat="45.76016" lon="6.06595">
        <ele>629</ele>
        <time>2021-09-10T10:58:30.463Z</time>
      </trkpt>
      <trkpt lat="45.76012" lon="6.06596">
        <ele>629</ele>
        <time>2021-09-10T10:58:31.463Z</time>
      </trkpt>
      <trkpt lat="45.76009" lon="6.06597">
        <ele>629</ele>
        <time>2021-09-10T10:58:32.463Z</time>
      </trkpt>
      <trkpt lat="45.76005" lon="6.06597">
        <ele>629</ele>
        <time>2021-09-10T10:58:33.463Z</time>
      </trkpt>
      <trkpt lat="45.76001" lon="6.06597">
        <ele>629</ele>
        <time>2021-09-10T10:58:34.463Z</time>
      </trkpt>
      <trkpt lat="45.75997" lon="6.06597">
        <ele>629</ele>
        <time>2021-09-10T10:58:35.463Z</time>
      </trkpt>
      <trkpt lat="45.75993" lon="6.06597">
        <ele>630</ele>
        <time>2021-09-10T10:58:36.462Z</time>
      </trkpt>
      <trkpt lat="45.75989" lon="6.06597">
        <ele>630</ele>
        <time>2021-09-10T10:58:37.463Z</time>
      </trkpt>
      <trkpt lat="45.75985" lon="6.06597">
        <ele>630</ele>
        <time>2021-09-10T10:58:38.463Z</time>
      </trkpt>
      <trkpt lat="45.75982" lon="6.06598">
        <ele>629</ele>
        <time>2021-09-10T10:58:39.462Z</time>
      </trkpt>
      <trkpt lat="45.75978" lon="6.06599">
        <ele>629</ele>
        <time>2021-09-10T10:58:40.463Z</time>
      </trkpt>
      <trkpt lat="45.75975" lon="6.066">
        <ele>629</ele>
        <time>2021-09-10T10:58:41.463Z</time>
      </trkpt>
      <trkpt lat="45.75971" lon="6.06602">
        <ele>628</ele>
        <time>2021-09-10T10:58:42.463Z</time>
      </trkpt>
      <trkpt lat="45.75968" lon="6.06603">
        <ele>628</ele>
        <time>2021-09-10T10:58:43.463Z</time>
      </trkpt>
      <trkpt lat="45.75965" lon="6.06604">
        <ele>628</ele>
        <time>2021-09-10T10:58:44.463Z</time>
      </trkpt>
      <trkpt lat="45.75962" lon="6.06606">
        <ele>628</ele>
        <time>2021-09-10T10:58:45.463Z</time>
      </trkpt>
      <trkpt lat="45.75958" lon="6.06608">
        <ele>628</ele>
        <time>2021-09-10T10:58:46.463Z</time>
      </trkpt>
      <trkpt lat="45.75955" lon="6.06611">
        <ele>628</ele>
        <time>2021-09-10T10:58:47.463Z</time>
      </trkpt>
      <trkpt lat="45.75951" lon="6.06614">
        <ele>628</ele>
        <time>2021-09-10T10:58:48.463Z</time>
      </trkpt>
      <trkpt lat="45.75949" lon="6.06616">
        <ele>628</ele>
        <time>2021-09-10T10:58:49.462Z</time>
      </trkpt>
      <trkpt lat="45.75945" lon="6.06618">
        <ele>629</ele>
        <time>2021-09-10T10:58:50.463Z</time>
      </trkpt>
      <trkpt lat="45.75942" lon="6.0662">
        <ele>630</ele>
        <time>2021-09-10T10:58:51.462Z</time>
      </trkpt>
      <trkpt lat="45.75938" lon="6.06623">
        <ele>631</ele>
        <time>2021-09-10T10:58:52.463Z</time>
      </trkpt>
      <trkpt lat="45.75935" lon="6.06625">
        <ele>632</ele>
        <time>2021-09-10T10:58:53.463Z</time>
      </trkpt>
      <trkpt lat="45.75931" lon="6.06628">
        <ele>632</ele>
        <time>2021-09-10T10:58:54.463Z</time>
      </trkpt>
      <trkpt lat="45.75928" lon="6.0663">
        <ele>633</ele>
        <time>2021-09-10T10:58:55.462Z</time>
      </trkpt>
      <trkpt lat="45.75924" lon="6.06632">
        <ele>633</ele>
        <time>2021-09-10T10:58:56.463Z</time>
      </trkpt>
      <trkpt lat="45.75921" lon="6.06634">
        <ele>633</ele>
        <time>2021-09-10T10:58:57.462Z</time>
      </trkpt>
      <trkpt lat="45.75917" lon="6.06636">
        <ele>633</ele>
        <time>2021-09-10T10:58:58.463Z</time>
      </trkpt>
      <trkpt lat="45.75914" lon="6.06639">
        <ele>632</ele>
        <time>2021-09-10T10:58:59.463Z</time>
      </trkpt>
      <trkpt lat="45.75911" lon="6.06641">
        <ele>632</ele>
        <time>2021-09-10T10:59:00.463Z</time>
      </trkpt>
      <trkpt lat="45.75907" lon="6.06643">
        <ele>632</ele>
        <time>2021-09-10T10:59:01.462Z</time>
      </trkpt>
      <trkpt lat="45.75904" lon="6.06646">
        <ele>632</ele>
        <time>2021-09-10T10:59:02.462Z</time>
      </trkpt>
      <trkpt lat="45.75901" lon="6.06648">
        <ele>632</ele>
        <time>2021-09-10T10:59:03.462Z</time>
      </trkpt>
      <trkpt lat="45.75897" lon="6.0665">
        <ele>632</ele>
        <time>2021-09-10T10:59:04.463Z</time>
      </trkpt>
      <trkpt lat="45.75894" lon="6.06652">
        <ele>631</ele>
        <time>2021-09-10T10:59:05.463Z</time>
      </trkpt>
      <trkpt lat="45.7589" lon="6.06655">
        <ele>632</ele>
        <time>2021-09-10T10:59:06.463Z</time>
      </trkpt>
      <trkpt lat="45.75887" lon="6.06657">
        <ele>632</ele>
        <time>2021-09-10T10:59:07.463Z</time>
      </trkpt>
      <trkpt lat="45.75884" lon="6.0666">
        <ele>632</ele>
        <time>2021-09-10T10:59:08.462Z</time>
      </trkpt>
      <trkpt lat="45.75881" lon="6.06662">
        <ele>631</ele>
        <time>2021-09-10T10:59:09.463Z</time>
      </trkpt>
      <trkpt lat="45.75878" lon="6.06665">
        <ele>631</ele>
        <time>2021-09-10T10:59:10.463Z</time>
      </trkpt>
      <trkpt lat="45.75875" lon="6.06668">
        <ele>632</ele>
        <time>2021-09-10T10:59:11.462Z</time>
      </trkpt>
      <trkpt lat="45.75872" lon="6.0667">
        <ele>632</ele>
        <time>2021-09-10T10:59:12.462Z</time>
      </trkpt>
      <trkpt lat="45.7587" lon="6.06673">
        <ele>632</ele>
        <time>2021-09-10T10:59:13.463Z</time>
      </trkpt>
      <trkpt lat="45.75867" lon="6.06676">
        <ele>632</ele>
        <time>2021-09-10T10:59:14.463Z</time>
      </trkpt>
      <trkpt lat="45.75864" lon="6.06679">
        <ele>632</ele>
        <time>2021-09-10T10:59:15.463Z</time>
      </trkpt>
      <trkpt lat="45.75861" lon="6.06682">
        <ele>632</ele>
        <time>2021-09-10T10:59:16.463Z</time>
      </trkpt>
      <trkpt lat="45.75859" lon="6.06685">
        <ele>631</ele>
        <time>2021-09-10T10:59:17.462Z</time>
      </trkpt>
      <trkpt lat="45.75856" lon="6.06688">
        <ele>631</ele>
        <time>2021-09-10T10:59:18.463Z</time>
      </trkpt>
      <trkpt lat="45.75853" lon="6.0669">
        <ele>631</ele>
        <time>2021-09-10T10:59:19.463Z</time>
      </trkpt>
      <trkpt lat="45.75851" lon="6.06693">
        <ele>631</ele>
        <time>2021-09-10T10:59:20.463Z</time>
      </trkpt>
      <trkpt lat="45.75848" lon="6.06696">
        <ele>631</ele>
        <time>2021-09-10T10:59:21.463Z</time>
      </trkpt>
      <trkpt lat="45.75845" lon="6.06698">
        <ele>631</ele>
        <time>2021-09-10T10:59:22.463Z</time>
      </trkpt>
      <trkpt lat="45.75842" lon="6.06701">
        <ele>631</ele>
        <time>2021-09-10T10:59:23.463Z</time>
      </trkpt>
      <trkpt lat="45.75839" lon="6.06703">
        <ele>631</ele>
        <time>2021-09-10T10:59:24.463Z</time>
      </trkpt>
      <trkpt lat="45.75837" lon="6.06706">
        <ele>631</ele>
        <time>2021-09-10T10:59:25.463Z</time>
      </trkpt>
      <trkpt lat="45.75834" lon="6.06709">
        <ele>631</ele>
        <time>2021-09-10T10:59:26.463Z</time>
      </trkpt>
      <trkpt lat="45.75831" lon="6.06712">
        <ele>631</ele>
        <time>2021-09-10T10:59:27.463Z</time>
      </trkpt>
      <trkpt lat="45.75828" lon="6.06715">
        <ele>631</ele>
        <time>2021-09-10T10:59:28.462Z</time>
      </trkpt>
      <trkpt lat="45.75825" lon="6.06718">
        <ele>631</ele>
        <time>2021-09-10T10:59:29.463Z</time>
      </trkpt>
      <trkpt lat="45.75822" lon="6.06721">
        <ele>631</ele>
        <time>2021-09-10T10:59:30.463Z</time>
      </trkpt>
      <trkpt lat="45.75819" lon="6.06724">
        <ele>631</ele>
        <time>2021-09-10T10:59:31.462Z</time>
      </trkpt>
      <trkpt lat="45.75816" lon="6.06727">
        <ele>631</ele>
        <time>2021-09-10T10:59:32.463Z</time>
      </trkpt>
      <trkpt lat="45.75813" lon="6.06729">
        <ele>631</ele>
        <time>2021-09-10T10:59:33.463Z</time>
      </trkpt>
      <trkpt lat="45.7581" lon="6.06732">
        <ele>631</ele>
        <time>2021-09-10T10:59:34.462Z</time>
      </trkpt>
      <trkpt lat="45.75807" lon="6.06735">
        <ele>631</ele>
        <time>2021-09-10T10:59:35.463Z</time>
      </trkpt>
      <trkpt lat="45.75804" lon="6.06738">
        <ele>631</ele>
        <time>2021-09-10T10:59:36.462Z</time>
      </trkpt>
      <trkpt lat="45.75801" lon="6.06741">
        <ele>631</ele>
        <time>2021-09-10T10:59:37.463Z</time>
      </trkpt>
      <trkpt lat="45.75798" lon="6.06744">
        <ele>631</ele>
        <time>2021-09-10T10:59:38.463Z</time>
      </trkpt>
      <trkpt lat="45.75795" lon="6.06747">
        <ele>631</ele>
        <time>2021-09-10T10:59:39.463Z</time>
      </trkpt>
      <trkpt lat="45.75792" lon="6.0675">
        <ele>631</ele>
        <time>2021-09-10T10:59:40.463Z</time>
      </trkpt>
      <trkpt lat="45.75789" lon="6.06753">
        <ele>631</ele>
        <time>2021-09-10T10:59:41.463Z</time>
      </trkpt>
      <trkpt lat="45.75786" lon="6.06756">
        <ele>631</ele>
        <time>2021-09-10T10:59:42.463Z</time>
      </trkpt>
      <trkpt lat="45.75782" lon="6.06759">
        <ele>631</ele>
        <time>2021-09-10T10:59:43.463Z</time>
      </trkpt>
      <trkpt lat="45.75779" lon="6.06762">
        <ele>632</ele>
        <time>2021-09-10T10:59:44.463Z</time>
      </trkpt>
      <trkpt lat="45.75776" lon="6.06765">
        <ele>632</ele>
        <time>2021-09-10T10:59:45.463Z</time>
      </trkpt>
      <trkpt lat="45.75773" lon="6.06768">
        <ele>632</ele>
        <time>2021-09-10T10:59:46.463Z</time>
      </trkpt>
      <trkpt lat="45.7577" lon="6.06772">
        <ele>632</ele>
        <time>2021-09-10T10:59:47.463Z</time>
      </trkpt>
      <trkpt lat="45.75767" lon="6.06775">
        <ele>632</ele>
        <time>2021-09-10T10:59:48.463Z</time>
      </trkpt>
      <trkpt lat="45.75764" lon="6.06778">
        <ele>632</ele>
        <time>2021-09-10T10:59:49.463Z</time>
      </trkpt>
      <trkpt lat="45.75761" lon="6.06781">
        <ele>632</ele>
        <time>2021-09-10T10:59:50.463Z</time>
      </trkpt>
      <trkpt lat="45.75758" lon="6.06785">
        <ele>633</ele>
        <time>2021-09-10T10:59:51.462Z</time>
      </trkpt>
      <trkpt lat="45.75755" lon="6.06788">
        <ele>633</ele>
        <time>2021-09-10T10:59:52.463Z</time>
      </trkpt>
      <trkpt lat="45.75752" lon="6.06792">
        <ele>633</ele>
        <time>2021-09-10T10:59:53.463Z</time>
      </trkpt>
      <trkpt lat="45.7575" lon="6.06795">
        <ele>633</ele>
        <time>2021-09-10T10:59:54.463Z</time>
      </trkpt>
      <trkpt lat="45.75747" lon="6.06798">
        <ele>633</ele>
        <time>2021-09-10T10:59:55.463Z</time>
      </trkpt>
      <trkpt lat="45.75744" lon="6.06802">
        <ele>633</ele>
        <time>2021-09-10T10:59:56.463Z</time>
      </trkpt>
      <trkpt lat="45.75741" lon="6.06805">
        <ele>634</ele>
        <time>2021-09-10T10:59:57.462Z</time>
      </trkpt>
      <trkpt lat="45.75738" lon="6.06808">
        <ele>634</ele>
        <time>2021-09-10T10:59:58.463Z</time>
      </trkpt>
      <trkpt lat="45.75735" lon="6.0681">
        <ele>635</ele>
        <time>2021-09-10T10:59:59.463Z</time>
      </trkpt>
      <trkpt lat="45.75732" lon="6.06813">
        <ele>635</ele>
        <time>2021-09-10T11:00:00.462Z</time>
      </trkpt>
      <trkpt lat="45.75729" lon="6.06816">
        <ele>635</ele>
        <time>2021-09-10T11:00:01.463Z</time>
      </trkpt>
      <trkpt lat="45.75726" lon="6.06819">
        <ele>636</ele>
        <time>2021-09-10T11:00:02.462Z</time>
      </trkpt>
      <trkpt lat="45.75723" lon="6.06823">
        <ele>636</ele>
        <time>2021-09-10T11:00:03.463Z</time>
      </trkpt>
      <trkpt lat="45.7572" lon="6.06826">
        <ele>636</ele>
        <time>2021-09-10T11:00:04.462Z</time>
      </trkpt>
      <trkpt lat="45.75717" lon="6.06829">
        <ele>636</ele>
        <time>2021-09-10T11:00:05.463Z</time>
      </trkpt>
      <trkpt lat="45.75714" lon="6.06832">
        <ele>636</ele>
        <time>2021-09-10T11:00:06.463Z</time>
      </trkpt>
      <trkpt lat="45.75712" lon="6.06836">
        <ele>636</ele>
        <time>2021-09-10T11:00:07.463Z</time>
      </trkpt>
      <trkpt lat="45.75709" lon="6.06839">
        <ele>636</ele>
        <time>2021-09-10T11:00:08.463Z</time>
      </trkpt>
      <trkpt lat="45.75706" lon="6.06843">
        <ele>636</ele>
        <time>2021-09-10T11:00:09.463Z</time>
      </trkpt>
      <trkpt lat="45.75703" lon="6.06846">
        <ele>636</ele>
        <time>2021-09-10T11:00:10.463Z</time>
      </trkpt>
      <trkpt lat="45.757" lon="6.0685">
        <ele>636</ele>
        <time>2021-09-10T11:00:11.463Z</time>
      </trkpt>
      <trkpt lat="45.75697" lon="6.06853">
        <ele>636</ele>
        <time>2021-09-10T11:00:12.462Z</time>
      </trkpt>
      <trkpt lat="45.75694" lon="6.06857">
        <ele>636</ele>
        <time>2021-09-10T11:00:13.463Z</time>
      </trkpt>
      <trkpt lat="45.75691" lon="6.0686">
        <ele>635</ele>
        <time>2021-09-10T11:00:14.463Z</time>
      </trkpt>
      <trkpt lat="45.75689" lon="6.06864">
        <ele>635</ele>
        <time>2021-09-10T11:00:15.462Z</time>
      </trkpt>
      <trkpt lat="45.75686" lon="6.06867">
        <ele>635</ele>
        <time>2021-09-10T11:00:16.463Z</time>
      </trkpt>
      <trkpt lat="45.75683" lon="6.06871">
        <ele>635</ele>
        <time>2021-09-10T11:00:17.463Z</time>
      </trkpt>
      <trkpt lat="45.7568" lon="6.06874">
        <ele>635</ele>
        <time>2021-09-10T11:00:18.463Z</time>
      </trkpt>
      <trkpt lat="45.75677" lon="6.06877">
        <ele>635</ele>
        <time>2021-09-10T11:00:19.463Z</time>
      </trkpt>
      <trkpt lat="45.75674" lon="6.0688">
        <ele>635</ele>
        <time>2021-09-10T11:00:20.463Z</time>
      </trkpt>
      <trkpt lat="45.75671" lon="6.06883">
        <ele>635</ele>
        <time>2021-09-10T11:00:21.463Z</time>
      </trkpt>
      <trkpt lat="45.75668" lon="6.06886">
        <ele>635</ele>
        <time>2021-09-10T11:00:22.463Z</time>
      </trkpt>
      <trkpt lat="45.75666" lon="6.0689">
        <ele>636</ele>
        <time>2021-09-10T11:00:23.463Z</time>
      </trkpt>
      <trkpt lat="45.75663" lon="6.06893">
        <ele>636</ele>
        <time>2021-09-10T11:00:24.463Z</time>
      </trkpt>
      <trkpt lat="45.7566" lon="6.06896">
        <ele>636</ele>
        <time>2021-09-10T11:00:25.463Z</time>
      </trkpt>
      <trkpt lat="45.75657" lon="6.06899">
        <ele>637</ele>
        <time>2021-09-10T11:00:26.463Z</time>
      </trkpt>
      <trkpt lat="45.75654" lon="6.06903">
        <ele>638</ele>
        <time>2021-09-10T11:00:27.463Z</time>
      </trkpt>
      <trkpt lat="45.75651" lon="6.06906">
        <ele>638</ele>
        <time>2021-09-10T11:00:28.463Z</time>
      </trkpt>
      <trkpt lat="45.75649" lon="6.06909">
        <ele>638</ele>
        <time>2021-09-10T11:00:29.463Z</time>
      </trkpt>
      <trkpt lat="45.75646" lon="6.06912">
        <ele>637</ele>
        <time>2021-09-10T11:00:30.463Z</time>
      </trkpt>
      <trkpt lat="45.75643" lon="6.06915">
        <ele>637</ele>
        <time>2021-09-10T11:00:31.462Z</time>
      </trkpt>
      <trkpt lat="45.75639" lon="6.06919">
        <ele>637</ele>
        <time>2021-09-10T11:00:32.463Z</time>
      </trkpt>
      <trkpt lat="45.75636" lon="6.06922">
        <ele>637</ele>
        <time>2021-09-10T11:00:33.463Z</time>
      </trkpt>
      <trkpt lat="45.75634" lon="6.06926">
        <ele>637</ele>
        <time>2021-09-10T11:00:34.463Z</time>
      </trkpt>
      <trkpt lat="45.75631" lon="6.0693">
        <ele>637</ele>
        <time>2021-09-10T11:00:35.463Z</time>
      </trkpt>
      <trkpt lat="45.75629" lon="6.06934">
        <ele>636</ele>
        <time>2021-09-10T11:00:36.463Z</time>
      </trkpt>
      <trkpt lat="45.75626" lon="6.06937">
        <ele>636</ele>
        <time>2021-09-10T11:00:37.463Z</time>
      </trkpt>
      <trkpt lat="45.75624" lon="6.0694">
        <ele>636</ele>
        <time>2021-09-10T11:00:38.462Z</time>
      </trkpt>
      <trkpt lat="45.75622" lon="6.06944">
        <ele>636</ele>
        <time>2021-09-10T11:00:39.463Z</time>
      </trkpt>
      <trkpt lat="45.75619" lon="6.06947">
        <ele>635</ele>
        <time>2021-09-10T11:00:40.462Z</time>
      </trkpt>
      <trkpt lat="45.75617" lon="6.06951">
        <ele>635</ele>
        <time>2021-09-10T11:00:41.462Z</time>
      </trkpt>
      <trkpt lat="45.75614" lon="6.06954">
        <ele>635</ele>
        <time>2021-09-10T11:00:42.463Z</time>
      </trkpt>
      <trkpt lat="45.75611" lon="6.06956">
        <ele>635</ele>
        <time>2021-09-10T11:00:43.463Z</time>
      </trkpt>
      <trkpt lat="45.75609" lon="6.06959">
        <ele>635</ele>
        <time>2021-09-10T11:00:44.462Z</time>
      </trkpt>
      <trkpt lat="45.75606" lon="6.06962">
        <ele>635</ele>
        <time>2021-09-10T11:00:45.463Z</time>
      </trkpt>
      <trkpt lat="45.75604" lon="6.06966">
        <ele>635</ele>
        <time>2021-09-10T11:00:46.463Z</time>
      </trkpt>
      <trkpt lat="45.75601" lon="6.0697">
        <ele>635</ele>
        <time>2021-09-10T11:00:47.463Z</time>
      </trkpt>
      <trkpt lat="45.75599" lon="6.06974">
        <ele>635</ele>
        <time>2021-09-10T11:00:48.463Z</time>
      </trkpt>
      <trkpt lat="45.75596" lon="6.06977">
        <ele>636</ele>
        <time>2021-09-10T11:00:49.463Z</time>
      </trkpt>
      <trkpt lat="45.75593" lon="6.06981">
        <ele>636</ele>
        <time>2021-09-10T11:00:50.463Z</time>
      </trkpt>
      <trkpt lat="45.7559" lon="6.06985">
        <ele>636</ele>
        <time>2021-09-10T11:00:51.463Z</time>
      </trkpt>
      <trkpt lat="45.75586" lon="6.06988">
        <ele>636</ele>
        <time>2021-09-10T11:00:52.463Z</time>
      </trkpt>
      <trkpt lat="45.75583" lon="6.06992">
        <ele>636</ele>
        <time>2021-09-10T11:00:53.463Z</time>
      </trkpt>
      <trkpt lat="45.7558" lon="6.06995">
        <ele>637</ele>
        <time>2021-09-10T11:00:54.463Z</time>
      </trkpt>
      <trkpt lat="45.75577" lon="6.06998">
        <ele>637</ele>
        <time>2021-09-10T11:00:55.463Z</time>
      </trkpt>
      <trkpt lat="45.75573" lon="6.07001">
        <ele>637</ele>
        <time>2021-09-10T11:00:56.463Z</time>
      </trkpt>
      <trkpt lat="45.7557" lon="6.07004">
        <ele>638</ele>
        <time>2021-09-10T11:00:57.463Z</time>
      </trkpt>
      <trkpt lat="45.75567" lon="6.07007">
        <ele>637</ele>
        <time>2021-09-10T11:00:58.463Z</time>
      </trkpt>
      <trkpt lat="45.75564" lon="6.0701">
        <ele>637</ele>
        <time>2021-09-10T11:00:59.463Z</time>
      </trkpt>
      <trkpt lat="45.75562" lon="6.07013">
        <ele>637</ele>
        <time>2021-09-10T11:01:00.463Z</time>
      </trkpt>
      <trkpt lat="45.75559" lon="6.07016">
        <ele>637</ele>
        <time>2021-09-10T11:01:01.463Z</time>
      </trkpt>
      <trkpt lat="45.75556" lon="6.07019">
        <ele>636</ele>
        <time>2021-09-10T11:01:02.463Z</time>
      </trkpt>
      <trkpt lat="45.75554" lon="6.07022">
        <ele>636</ele>
        <time>2021-09-10T11:01:03.463Z</time>
      </trkpt>
      <trkpt lat="45.75551" lon="6.07025">
        <ele>636</ele>
        <time>2021-09-10T11:01:04.463Z</time>
      </trkpt>
      <trkpt lat="45.75548" lon="6.07028">
        <ele>636</ele>
        <time>2021-09-10T11:01:05.462Z</time>
      </trkpt>
      <trkpt lat="45.75545" lon="6.07031">
        <ele>636</ele>
        <time>2021-09-10T11:01:06.463Z</time>
      </trkpt>
      <trkpt lat="45.75542" lon="6.07033">
        <ele>636</ele>
        <time>2021-09-10T11:01:07.463Z</time>
      </trkpt>
      <trkpt lat="45.75539" lon="6.07036">
        <ele>636</ele>
        <time>2021-09-10T11:01:08.463Z</time>
      </trkpt>
      <trkpt lat="45.75537" lon="6.07039">
        <ele>636</ele>
        <time>2021-09-10T11:01:09.463Z</time>
      </trkpt>
      <trkpt lat="45.75534" lon="6.07043">
        <ele>636</ele>
        <time>2021-09-10T11:01:10.463Z</time>
      </trkpt>
      <trkpt lat="45.75531" lon="6.07046">
        <ele>636</ele>
        <time>2021-09-10T11:01:11.463Z</time>
      </trkpt>
      <trkpt lat="45.75528" lon="6.0705">
        <ele>636</ele>
        <time>2021-09-10T11:01:12.462Z</time>
      </trkpt>
      <trkpt lat="45.75525" lon="6.07053">
        <ele>636</ele>
        <time>2021-09-10T11:01:13.463Z</time>
      </trkpt>
      <trkpt lat="45.75523" lon="6.07057">
        <ele>635</ele>
        <time>2021-09-10T11:01:14.463Z</time>
      </trkpt>
      <trkpt lat="45.7552" lon="6.07061">
        <ele>635</ele>
        <time>2021-09-10T11:01:15.463Z</time>
      </trkpt>
      <trkpt lat="45.75518" lon="6.07065">
        <ele>635</ele>
        <time>2021-09-10T11:01:16.463Z</time>
      </trkpt>
      <trkpt lat="45.75516" lon="6.07069">
        <ele>635</ele>
        <time>2021-09-10T11:01:17.463Z</time>
      </trkpt>
      <trkpt lat="45.75514" lon="6.07074">
        <ele>635</ele>
        <time>2021-09-10T11:01:18.463Z</time>
      </trkpt>
      <trkpt lat="45.75512" lon="6.07078">
        <ele>636</ele>
        <time>2021-09-10T11:01:19.463Z</time>
      </trkpt>
      <trkpt lat="45.75511" lon="6.07083">
        <ele>636</ele>
        <time>2021-09-10T11:01:20.462Z</time>
      </trkpt>
      <trkpt lat="45.75509" lon="6.07088">
        <ele>636</ele>
        <time>2021-09-10T11:01:21.463Z</time>
      </trkpt>
      <trkpt lat="45.75508" lon="6.07093">
        <ele>637</ele>
        <time>2021-09-10T11:01:22.463Z</time>
      </trkpt>
      <trkpt lat="45.75507" lon="6.07098">
        <ele>637</ele>
        <time>2021-09-10T11:01:23.462Z</time>
      </trkpt>
      <trkpt lat="45.75506" lon="6.07103">
        <ele>637</ele>
        <time>2021-09-10T11:01:24.463Z</time>
      </trkpt>
      <trkpt lat="45.75506" lon="6.07108">
        <ele>637</ele>
        <time>2021-09-10T11:01:25.463Z</time>
      </trkpt>
      <trkpt lat="45.75505" lon="6.07113">
        <ele>637</ele>
        <time>2021-09-10T11:01:26.463Z</time>
      </trkpt>
      <trkpt lat="45.75504" lon="6.07118">
        <ele>637</ele>
        <time>2021-09-10T11:01:27.462Z</time>
      </trkpt>
      <trkpt lat="45.75503" lon="6.07123">
        <ele>637</ele>
        <time>2021-09-10T11:01:28.463Z</time>
      </trkpt>
      <trkpt lat="45.75502" lon="6.07128">
        <ele>637</ele>
        <time>2021-09-10T11:01:29.462Z</time>
      </trkpt>
      <trkpt lat="45.75502" lon="6.07134">
        <ele>637</ele>
        <time>2021-09-10T11:01:30.463Z</time>
      </trkpt>
      <trkpt lat="45.75501" lon="6.07139">
        <ele>637</ele>
        <time>2021-09-10T11:01:31.462Z</time>
      </trkpt>
      <trkpt lat="45.755" lon="6.07144">
        <ele>637</ele>
        <time>2021-09-10T11:01:32.463Z</time>
      </trkpt>
      <trkpt lat="45.755" lon="6.07149">
        <ele>637</ele>
        <time>2021-09-10T11:01:33.463Z</time>
      </trkpt>
      <trkpt lat="45.75499" lon="6.07154">
        <ele>637</ele>
        <time>2021-09-10T11:01:34.463Z</time>
      </trkpt>
      <trkpt lat="45.75499" lon="6.07159">
        <ele>637</ele>
        <time>2021-09-10T11:01:35.463Z</time>
      </trkpt>
      <trkpt lat="45.75498" lon="6.07165">
        <ele>637</ele>
        <time>2021-09-10T11:01:36.463Z</time>
      </trkpt>
      <trkpt lat="45.75497" lon="6.0717">
        <ele>638</ele>
        <time>2021-09-10T11:01:37.463Z</time>
      </trkpt>
      <trkpt lat="45.75496" lon="6.07175">
        <ele>638</ele>
        <time>2021-09-10T11:01:38.463Z</time>
      </trkpt>
      <trkpt lat="45.75495" lon="6.0718">
        <ele>638</ele>
        <time>2021-09-10T11:01:39.462Z</time>
      </trkpt>
      <trkpt lat="45.75495" lon="6.07185">
        <ele>638</ele>
        <time>2021-09-10T11:01:40.463Z</time>
      </trkpt>
      <trkpt lat="45.75494" lon="6.07191">
        <ele>638</ele>
        <time>2021-09-10T11:01:41.462Z</time>
      </trkpt>
      <trkpt lat="45.75493" lon="6.07196">
        <ele>638</ele>
        <time>2021-09-10T11:01:42.463Z</time>
      </trkpt>
      <trkpt lat="45.75492" lon="6.07201">
        <ele>638</ele>
        <time>2021-09-10T11:01:43.463Z</time>
      </trkpt>
      <trkpt lat="45.75491" lon="6.07207">
        <ele>638</ele>
        <time>2021-09-10T11:01:44.462Z</time>
      </trkpt>
      <trkpt lat="45.7549" lon="6.07212">
        <ele>638</ele>
        <time>2021-09-10T11:01:45.463Z</time>
      </trkpt>
      <trkpt lat="45.75489" lon="6.07218">
        <ele>638</ele>
        <time>2021-09-10T11:01:46.463Z</time>
      </trkpt>
      <trkpt lat="45.75487" lon="6.07223">
        <ele>638</ele>
        <time>2021-09-10T11:01:47.463Z</time>
      </trkpt>
      <trkpt lat="45.75486" lon="6.07229">
        <ele>638</ele>
        <time>2021-09-10T11:01:48.463Z</time>
      </trkpt>
      <trkpt lat="45.75485" lon="6.07234">
        <ele>638</ele>
        <time>2021-09-10T11:01:49.462Z</time>
      </trkpt>
      <trkpt lat="45.75483" lon="6.07239">
        <ele>638</ele>
        <time>2021-09-10T11:01:50.462Z</time>
      </trkpt>
      <trkpt lat="45.75482" lon="6.07244">
        <ele>638</ele>
        <time>2021-09-10T11:01:51.462Z</time>
      </trkpt>
      <trkpt lat="45.7548" lon="6.07249">
        <ele>638</ele>
        <time>2021-09-10T11:01:52.463Z</time>
      </trkpt>
      <trkpt lat="45.75478" lon="6.07254">
        <ele>639</ele>
        <time>2021-09-10T11:01:53.463Z</time>
      </trkpt>
      <trkpt lat="45.75476" lon="6.07259">
        <ele>639</ele>
        <time>2021-09-10T11:01:54.462Z</time>
      </trkpt>
      <trkpt lat="45.75474" lon="6.07264">
        <ele>639</ele>
        <time>2021-09-10T11:01:55.463Z</time>
      </trkpt>
      <trkpt lat="45.75472" lon="6.07268">
        <ele>639</ele>
        <time>2021-09-10T11:01:56.462Z</time>
      </trkpt>
      <trkpt lat="45.7547" lon="6.07273">
        <ele>639</ele>
        <time>2021-09-10T11:01:57.462Z</time>
      </trkpt>
      <trkpt lat="45.75469" lon="6.07278">
        <ele>639</ele>
        <time>2021-09-10T11:01:58.463Z</time>
      </trkpt>
      <trkpt lat="45.75466" lon="6.07283">
        <ele>639</ele>
        <time>2021-09-10T11:01:59.462Z</time>
      </trkpt>
      <trkpt lat="45.75464" lon="6.07288">
        <ele>639</ele>
        <time>2021-09-10T11:02:00.463Z</time>
      </trkpt>
      <trkpt lat="45.75462" lon="6.07292">
        <ele>639</ele>
        <time>2021-09-10T11:02:01.463Z</time>
      </trkpt>
      <trkpt lat="45.7546" lon="6.07297">
        <ele>639</ele>
        <time>2021-09-10T11:02:02.463Z</time>
      </trkpt>
      <trkpt lat="45.75458" lon="6.07303">
        <ele>639</ele>
        <time>2021-09-10T11:02:03.463Z</time>
      </trkpt>
      <trkpt lat="45.75456" lon="6.07307">
        <ele>638</ele>
        <time>2021-09-10T11:02:04.463Z</time>
      </trkpt>
      <trkpt lat="45.75454" lon="6.07312">
        <ele>638</ele>
        <time>2021-09-10T11:02:05.463Z</time>
      </trkpt>
      <trkpt lat="45.75451" lon="6.07317">
        <ele>637</ele>
        <time>2021-09-10T11:02:06.463Z</time>
      </trkpt>
      <trkpt lat="45.75449" lon="6.07322">
        <ele>637</ele>
        <time>2021-09-10T11:02:07.463Z</time>
      </trkpt>
      <trkpt lat="45.75447" lon="6.07328">
        <ele>637</ele>
        <time>2021-09-10T11:02:08.463Z</time>
      </trkpt>
      <trkpt lat="45.75445" lon="6.07333">
        <ele>637</ele>
        <time>2021-09-10T11:02:09.463Z</time>
      </trkpt>
      <trkpt lat="45.75443" lon="6.07338">
        <ele>637</ele>
        <time>2021-09-10T11:02:10.463Z</time>
      </trkpt>
      <trkpt lat="45.75441" lon="6.07343">
        <ele>637</ele>
        <time>2021-09-10T11:02:11.463Z</time>
      </trkpt>
      <trkpt lat="45.75439" lon="6.07348">
        <ele>637</ele>
        <time>2021-09-10T11:02:12.463Z</time>
      </trkpt>
      <trkpt lat="45.75437" lon="6.07354">
        <ele>638</ele>
        <time>2021-09-10T11:02:13.463Z</time>
      </trkpt>
      <trkpt lat="45.75435" lon="6.07359">
        <ele>638</ele>
        <time>2021-09-10T11:02:14.463Z</time>
      </trkpt>
      <trkpt lat="45.75433" lon="6.07364">
        <ele>638</ele>
        <time>2021-09-10T11:02:15.463Z</time>
      </trkpt>
      <trkpt lat="45.7543" lon="6.07368">
        <ele>638</ele>
        <time>2021-09-10T11:02:16.463Z</time>
      </trkpt>
      <trkpt lat="45.75428" lon="6.07373">
        <ele>638</ele>
        <time>2021-09-10T11:02:17.463Z</time>
      </trkpt>
      <trkpt lat="45.75425" lon="6.07378">
        <ele>638</ele>
        <time>2021-09-10T11:02:18.463Z</time>
      </trkpt>
      <trkpt lat="45.75423" lon="6.07383">
        <ele>638</ele>
        <time>2021-09-10T11:02:19.463Z</time>
      </trkpt>
      <trkpt lat="45.7542" lon="6.07388">
        <ele>638</ele>
        <time>2021-09-10T11:02:20.463Z</time>
      </trkpt>
      <trkpt lat="45.75417" lon="6.07392">
        <ele>638</ele>
        <time>2021-09-10T11:02:21.462Z</time>
      </trkpt>
      <trkpt lat="45.75414" lon="6.07397">
        <ele>638</ele>
        <time>2021-09-10T11:02:22.463Z</time>
      </trkpt>
      <trkpt lat="45.75411" lon="6.07401">
        <ele>638</ele>
        <time>2021-09-10T11:02:23.463Z</time>
      </trkpt>
      <trkpt lat="45.75408" lon="6.07405">
        <ele>638</ele>
        <time>2021-09-10T11:02:24.463Z</time>
      </trkpt>
      <trkpt lat="45.75404" lon="6.07409">
        <ele>638</ele>
        <time>2021-09-10T11:02:25.463Z</time>
      </trkpt>
      <trkpt lat="45.754" lon="6.07412">
        <ele>638</ele>
        <time>2021-09-10T11:02:26.463Z</time>
      </trkpt>
      <trkpt lat="45.75397" lon="6.07416">
        <ele>638</ele>
        <time>2021-09-10T11:02:27.462Z</time>
      </trkpt>
      <trkpt lat="45.75393" lon="6.07419">
        <ele>639</ele>
        <time>2021-09-10T11:02:28.463Z</time>
      </trkpt>
      <trkpt lat="45.75389" lon="6.07422">
        <ele>639</ele>
        <time>2021-09-10T11:02:29.463Z</time>
      </trkpt>
      <trkpt lat="45.75385" lon="6.07425">
        <ele>640</ele>
        <time>2021-09-10T11:02:30.462Z</time>
      </trkpt>
      <trkpt lat="45.75381" lon="6.07428">
        <ele>640</ele>
        <time>2021-09-10T11:02:31.463Z</time>
      </trkpt>
      <trkpt lat="45.75377" lon="6.07431">
        <ele>640</ele>
        <time>2021-09-10T11:02:32.463Z</time>
      </trkpt>
      <trkpt lat="45.75373" lon="6.07433">
        <ele>641</ele>
        <time>2021-09-10T11:02:33.463Z</time>
      </trkpt>
      <trkpt lat="45.75369" lon="6.07436">
        <ele>641</ele>
        <time>2021-09-10T11:02:34.463Z</time>
      </trkpt>
      <trkpt lat="45.75365" lon="6.07437">
        <ele>641</ele>
        <time>2021-09-10T11:02:35.463Z</time>
      </trkpt>
      <trkpt lat="45.75361" lon="6.07439">
        <ele>641</ele>
        <time>2021-09-10T11:02:36.463Z</time>
      </trkpt>
      <trkpt lat="45.75357" lon="6.07441">
        <ele>642</ele>
        <time>2021-09-10T11:02:37.462Z</time>
      </trkpt>
      <trkpt lat="45.75353" lon="6.07442">
        <ele>642</ele>
        <time>2021-09-10T11:02:38.463Z</time>
      </trkpt>
      <trkpt lat="45.75349" lon="6.07443">
        <ele>642</ele>
        <time>2021-09-10T11:02:39.463Z</time>
      </trkpt>
      <trkpt lat="45.75344" lon="6.07444">
        <ele>641</ele>
        <time>2021-09-10T11:02:40.463Z</time>
      </trkpt>
      <trkpt lat="45.7534" lon="6.07445">
        <ele>641</ele>
        <time>2021-09-10T11:02:41.462Z</time>
      </trkpt>
      <trkpt lat="45.75335" lon="6.07446">
        <ele>640</ele>
        <time>2021-09-10T11:02:42.463Z</time>
      </trkpt>
      <trkpt lat="45.75331" lon="6.07447">
        <ele>640</ele>
        <time>2021-09-10T11:02:43.463Z</time>
      </trkpt>
      <trkpt lat="45.75326" lon="6.07448">
        <ele>640</ele>
        <time>2021-09-10T11:02:44.463Z</time>
      </trkpt>
      <trkpt lat="45.75322" lon="6.07449">
        <ele>641</ele>
        <time>2021-09-10T11:02:45.463Z</time>
      </trkpt>
      <trkpt lat="45.75318" lon="6.07451">
        <ele>641</ele>
        <time>2021-09-10T11:02:46.462Z</time>
      </trkpt>
      <trkpt lat="45.75314" lon="6.07453">
        <ele>642</ele>
        <time>2021-09-10T11:02:47.463Z</time>
      </trkpt>
      <trkpt lat="45.7531" lon="6.07455">
        <ele>642</ele>
        <time>2021-09-10T11:02:48.463Z</time>
      </trkpt>
      <trkpt lat="45.75306" lon="6.07458">
        <ele>641</ele>
        <time>2021-09-10T11:02:49.463Z</time>
      </trkpt>
      <trkpt lat="45.75303" lon="6.0746">
        <ele>641</ele>
        <time>2021-09-10T11:02:50.463Z</time>
      </trkpt>
      <trkpt lat="45.75299" lon="6.07463">
        <ele>640</ele>
        <time>2021-09-10T11:02:51.463Z</time>
      </trkpt>
      <trkpt lat="45.75295" lon="6.07466">
        <ele>640</ele>
        <time>2021-09-10T11:02:52.463Z</time>
      </trkpt>
      <trkpt lat="45.75292" lon="6.0747">
        <ele>639</ele>
        <time>2021-09-10T11:02:53.463Z</time>
      </trkpt>
      <trkpt lat="45.75288" lon="6.07473">
        <ele>638</ele>
        <time>2021-09-10T11:02:54.463Z</time>
      </trkpt>
      <trkpt lat="45.75285" lon="6.07477">
        <ele>638</ele>
        <time>2021-09-10T11:02:55.462Z</time>
      </trkpt>
      <trkpt lat="45.75281" lon="6.07481">
        <ele>638</ele>
        <time>2021-09-10T11:02:56.462Z</time>
      </trkpt>
      <trkpt lat="45.75278" lon="6.07485">
        <ele>638</ele>
        <time>2021-09-10T11:02:57.463Z</time>
      </trkpt>
      <trkpt lat="45.75274" lon="6.07489">
        <ele>638</ele>
        <time>2021-09-10T11:02:58.463Z</time>
      </trkpt>
      <trkpt lat="45.75271" lon="6.07493">
        <ele>639</ele>
        <time>2021-09-10T11:02:59.462Z</time>
      </trkpt>
      <trkpt lat="45.75267" lon="6.07496">
        <ele>639</ele>
        <time>2021-09-10T11:03:00.462Z</time>
      </trkpt>
      <trkpt lat="45.75263" lon="6.075">
        <ele>639</ele>
        <time>2021-09-10T11:03:01.462Z</time>
      </trkpt>
      <trkpt lat="45.75259" lon="6.07504">
        <ele>638</ele>
        <time>2021-09-10T11:03:02.463Z</time>
      </trkpt>
      <trkpt lat="45.75256" lon="6.07507">
        <ele>638</ele>
        <time>2021-09-10T11:03:03.463Z</time>
      </trkpt>
      <trkpt lat="45.75252" lon="6.07511">
        <ele>638</ele>
        <time>2021-09-10T11:03:04.463Z</time>
      </trkpt>
      <trkpt lat="45.75249" lon="6.07515">
        <ele>638</ele>
        <time>2021-09-10T11:03:05.463Z</time>
      </trkpt>
      <trkpt lat="45.75245" lon="6.07519">
        <ele>638</ele>
        <time>2021-09-10T11:03:06.463Z</time>
      </trkpt>
      <trkpt lat="45.75242" lon="6.07523">
        <ele>638</ele>
        <time>2021-09-10T11:03:07.463Z</time>
      </trkpt>
      <trkpt lat="45.75239" lon="6.07527">
        <ele>638</ele>
        <time>2021-09-10T11:03:08.463Z</time>
      </trkpt>
      <trkpt lat="45.75236" lon="6.07532">
        <ele>639</ele>
        <time>2021-09-10T11:03:09.463Z</time>
      </trkpt>
      <trkpt lat="45.75233" lon="6.07536">
        <ele>639</ele>
        <time>2021-09-10T11:03:10.463Z</time>
      </trkpt>
      <trkpt lat="45.7523" lon="6.0754">
        <ele>640</ele>
        <time>2021-09-10T11:03:11.462Z</time>
      </trkpt>
      <trkpt lat="45.75228" lon="6.07545">
        <ele>640</ele>
        <time>2021-09-10T11:03:12.463Z</time>
      </trkpt>
      <trkpt lat="45.75226" lon="6.07549">
        <ele>640</ele>
        <time>2021-09-10T11:03:13.463Z</time>
      </trkpt>
      <trkpt lat="45.75223" lon="6.07553">
        <ele>640</ele>
        <time>2021-09-10T11:03:14.463Z</time>
      </trkpt>
      <trkpt lat="45.75221" lon="6.07558">
        <ele>639</ele>
        <time>2021-09-10T11:03:15.463Z</time>
      </trkpt>
      <trkpt lat="45.75219" lon="6.07564">
        <ele>639</ele>
        <time>2021-09-10T11:03:16.462Z</time>
      </trkpt>
      <trkpt lat="45.75216" lon="6.07569">
        <ele>639</ele>
        <time>2021-09-10T11:03:17.463Z</time>
      </trkpt>
      <trkpt lat="45.75214" lon="6.07574">
        <ele>639</ele>
        <time>2021-09-10T11:03:18.463Z</time>
      </trkpt>
      <trkpt lat="45.75212" lon="6.0758">
        <ele>639</ele>
        <time>2021-09-10T11:03:19.463Z</time>
      </trkpt>
      <trkpt lat="45.7521" lon="6.07586">
        <ele>639</ele>
        <time>2021-09-10T11:03:20.462Z</time>
      </trkpt>
      <trkpt lat="45.75208" lon="6.07592">
        <ele>639</ele>
        <time>2021-09-10T11:03:21.462Z</time>
      </trkpt>
      <trkpt lat="45.75206" lon="6.07597">
        <ele>640</ele>
        <time>2021-09-10T11:03:22.463Z</time>
      </trkpt>
      <trkpt lat="45.75204" lon="6.07603">
        <ele>639</ele>
        <time>2021-09-10T11:03:23.463Z</time>
      </trkpt>
      <trkpt lat="45.75203" lon="6.07609">
        <ele>640</ele>
        <time>2021-09-10T11:03:24.462Z</time>
      </trkpt>
      <trkpt lat="45.75202" lon="6.07615">
        <ele>639</ele>
        <time>2021-09-10T11:03:25.463Z</time>
      </trkpt>
      <trkpt lat="45.75201" lon="6.07623">
        <ele>639</ele>
        <time>2021-09-10T11:03:26.463Z</time>
      </trkpt>
      <trkpt lat="45.752" lon="6.07629">
        <ele>639</ele>
        <time>2021-09-10T11:03:27.463Z</time>
      </trkpt>
      <trkpt lat="45.75199" lon="6.07636">
        <ele>639</ele>
        <time>2021-09-10T11:03:28.463Z</time>
      </trkpt>
      <trkpt lat="45.75198" lon="6.07643">
        <ele>639</ele>
        <time>2021-09-10T11:03:29.462Z</time>
      </trkpt>
      <trkpt lat="45.75197" lon="6.07649">
        <ele>638</ele>
        <time>2021-09-10T11:03:30.463Z</time>
      </trkpt>
      <trkpt lat="45.75196" lon="6.07655">
        <ele>638</ele>
        <time>2021-09-10T11:03:31.463Z</time>
      </trkpt>
      <trkpt lat="45.75195" lon="6.07662">
        <ele>638</ele>
        <time>2021-09-10T11:03:32.463Z</time>
      </trkpt>
      <trkpt lat="45.75195" lon="6.07668">
        <ele>639</ele>
        <time>2021-09-10T11:03:33.463Z</time>
      </trkpt>
      <trkpt lat="45.75194" lon="6.07675">
        <ele>639</ele>
        <time>2021-09-10T11:03:34.463Z</time>
      </trkpt>
      <trkpt lat="45.75194" lon="6.07681">
        <ele>639</ele>
        <time>2021-09-10T11:03:35.463Z</time>
      </trkpt>
      <trkpt lat="45.75193" lon="6.07688">
        <ele>639</ele>
        <time>2021-09-10T11:03:36.462Z</time>
      </trkpt>
      <trkpt lat="45.75193" lon="6.07694">
        <ele>639</ele>
        <time>2021-09-10T11:03:37.463Z</time>
      </trkpt>
      <trkpt lat="45.75193" lon="6.07701">
        <ele>639</ele>
        <time>2021-09-10T11:03:38.462Z</time>
      </trkpt>
      <trkpt lat="45.75193" lon="6.07708">
        <ele>639</ele>
        <time>2021-09-10T11:03:39.463Z</time>
      </trkpt>
      <trkpt lat="45.75192" lon="6.07714">
        <ele>639</ele>
        <time>2021-09-10T11:03:40.463Z</time>
      </trkpt>
      <trkpt lat="45.75192" lon="6.07721">
        <ele>639</ele>
        <time>2021-09-10T11:03:41.463Z</time>
      </trkpt>
      <trkpt lat="45.75192" lon="6.07728">
        <ele>639</ele>
        <time>2021-09-10T11:03:42.463Z</time>
      </trkpt>
      <trkpt lat="45.75191" lon="6.07734">
        <ele>639</ele>
        <time>2021-09-10T11:03:43.463Z</time>
      </trkpt>
      <trkpt lat="45.75191" lon="6.07741">
        <ele>639</ele>
        <time>2021-09-10T11:03:44.463Z</time>
      </trkpt>
      <trkpt lat="45.75191" lon="6.07747">
        <ele>639</ele>
        <time>2021-09-10T11:03:45.463Z</time>
      </trkpt>
      <trkpt lat="45.75191" lon="6.07754">
        <ele>639</ele>
        <time>2021-09-10T11:03:46.463Z</time>
      </trkpt>
      <trkpt lat="45.75191" lon="6.0776">
        <ele>639</ele>
        <time>2021-09-10T11:03:47.462Z</time>
      </trkpt>
      <trkpt lat="45.75191" lon="6.07766">
        <ele>639</ele>
        <time>2021-09-10T11:03:48.463Z</time>
      </trkpt>
      <trkpt lat="45.75191" lon="6.07773">
        <ele>639</ele>
        <time>2021-09-10T11:03:49.463Z</time>
      </trkpt>
      <trkpt lat="45.75191" lon="6.07779">
        <ele>639</ele>
        <time>2021-09-10T11:03:50.462Z</time>
      </trkpt>
      <trkpt lat="45.75191" lon="6.07785">
        <ele>639</ele>
        <time>2021-09-10T11:03:51.463Z</time>
      </trkpt>
      <trkpt lat="45.75191" lon="6.07791">
        <ele>639</ele>
        <time>2021-09-10T11:03:52.463Z</time>
      </trkpt>
      <trkpt lat="45.7519" lon="6.07797">
        <ele>639</ele>
        <time>2021-09-10T11:03:53.463Z</time>
      </trkpt>
      <trkpt lat="45.7519" lon="6.07802">
        <ele>638</ele>
        <time>2021-09-10T11:03:54.462Z</time>
      </trkpt>
      <trkpt lat="45.75189" lon="6.07807">
        <ele>638</ele>
        <time>2021-09-10T11:03:55.463Z</time>
      </trkpt>
      <trkpt lat="45.75188" lon="6.07812">
        <ele>638</ele>
        <time>2021-09-10T11:03:56.463Z</time>
      </trkpt>
      <trkpt lat="45.75187" lon="6.07817">
        <ele>638</ele>
        <time>2021-09-10T11:03:57.463Z</time>
      </trkpt>
      <trkpt lat="45.75187" lon="6.07822">
        <ele>639</ele>
        <time>2021-09-10T11:03:58.463Z</time>
      </trkpt>
      <trkpt lat="45.75186" lon="6.07827">
        <ele>639</ele>
        <time>2021-09-10T11:03:59.463Z</time>
      </trkpt>
      <trkpt lat="45.75185" lon="6.07832">
        <ele>639</ele>
        <time>2021-09-10T11:04:00.462Z</time>
      </trkpt>
      <trkpt lat="45.75184" lon="6.07838">
        <ele>639</ele>
        <time>2021-09-10T11:04:01.463Z</time>
      </trkpt>
      <trkpt lat="45.75183" lon="6.07843">
        <ele>639</ele>
        <time>2021-09-10T11:04:02.463Z</time>
      </trkpt>
      <trkpt lat="45.75182" lon="6.07849">
        <ele>639</ele>
        <time>2021-09-10T11:04:03.462Z</time>
      </trkpt>
      <trkpt lat="45.75181" lon="6.07854">
        <ele>639</ele>
        <time>2021-09-10T11:04:04.463Z</time>
      </trkpt>
      <trkpt lat="45.7518" lon="6.07859">
        <ele>639</ele>
        <time>2021-09-10T11:04:05.463Z</time>
      </trkpt>
      <trkpt lat="45.75179" lon="6.07864">
        <ele>638</ele>
        <time>2021-09-10T11:04:06.463Z</time>
      </trkpt>
      <trkpt lat="45.75178" lon="6.0787">
        <ele>638</ele>
        <time>2021-09-10T11:04:07.463Z</time>
      </trkpt>
      <trkpt lat="45.75176" lon="6.07875">
        <ele>639</ele>
        <time>2021-09-10T11:04:08.463Z</time>
      </trkpt>
      <trkpt lat="45.75175" lon="6.0788">
        <ele>639</ele>
        <time>2021-09-10T11:04:09.463Z</time>
      </trkpt>
      <trkpt lat="45.75174" lon="6.07885">
        <ele>639</ele>
        <time>2021-09-10T11:04:10.462Z</time>
      </trkpt>
      <trkpt lat="45.75173" lon="6.0789">
        <ele>639</ele>
        <time>2021-09-10T11:04:11.463Z</time>
      </trkpt>
      <trkpt lat="45.75171" lon="6.07896">
        <ele>638</ele>
        <time>2021-09-10T11:04:12.463Z</time>
      </trkpt>
      <trkpt lat="45.7517" lon="6.07901">
        <ele>638</ele>
        <time>2021-09-10T11:04:13.462Z</time>
      </trkpt>
      <trkpt lat="45.75169" lon="6.07907">
        <ele>638</ele>
        <time>2021-09-10T11:04:14.463Z</time>
      </trkpt>
      <trkpt lat="45.75168" lon="6.07912">
        <ele>638</ele>
        <time>2021-09-10T11:04:15.463Z</time>
      </trkpt>
      <trkpt lat="45.75167" lon="6.07917">
        <ele>639</ele>
        <time>2021-09-10T11:04:16.463Z</time>
      </trkpt>
      <trkpt lat="45.75166" lon="6.07921">
        <ele>639</ele>
        <time>2021-09-10T11:04:17.463Z</time>
      </trkpt>
      <trkpt lat="45.75165" lon="6.07926">
        <ele>639</ele>
        <time>2021-09-10T11:04:18.463Z</time>
      </trkpt>
      <trkpt lat="45.75164" lon="6.0793">
        <ele>639</ele>
        <time>2021-09-10T11:04:19.463Z</time>
      </trkpt>
      <trkpt lat="45.75163" lon="6.07933">
        <ele>639</ele>
        <time>2021-09-10T11:04:20.463Z</time>
      </trkpt>
      <trkpt lat="45.75162" lon="6.07937">
        <ele>639</ele>
        <time>2021-09-10T11:04:21.463Z</time>
      </trkpt>
      <trkpt lat="45.75161" lon="6.0794">
        <ele>638</ele>
        <time>2021-09-10T11:04:22.463Z</time>
      </trkpt>
      <trkpt lat="45.7516" lon="6.07943">
        <ele>637</ele>
        <time>2021-09-10T11:04:23.463Z</time>
      </trkpt>
      <trkpt lat="45.75159" lon="6.07946">
        <ele>637</ele>
        <time>2021-09-10T11:04:24.463Z</time>
      </trkpt>
      <trkpt lat="45.75159" lon="6.0795">
        <ele>636</ele>
        <time>2021-09-10T11:04:25.463Z</time>
      </trkpt>
      <trkpt lat="45.75158" lon="6.07953">
        <ele>636</ele>
        <time>2021-09-10T11:04:26.463Z</time>
      </trkpt>
      <trkpt lat="45.75157" lon="6.07957">
        <ele>635</ele>
        <time>2021-09-10T11:04:27.463Z</time>
      </trkpt>
      <trkpt lat="45.75156" lon="6.07961">
        <ele>635</ele>
        <time>2021-09-10T11:04:28.463Z</time>
      </trkpt>
      <trkpt lat="45.75155" lon="6.07966">
        <ele>635</ele>
        <time>2021-09-10T11:04:29.463Z</time>
      </trkpt>
      <trkpt lat="45.75154" lon="6.07971">
        <ele>635</ele>
        <time>2021-09-10T11:04:30.462Z</time>
      </trkpt>
      <trkpt lat="45.75152" lon="6.07976">
        <ele>635</ele>
        <time>2021-09-10T11:04:31.463Z</time>
      </trkpt>
      <trkpt lat="45.75151" lon="6.07981">
        <ele>635</ele>
        <time>2021-09-10T11:04:32.462Z</time>
      </trkpt>
      <trkpt lat="45.7515" lon="6.07986">
        <ele>634</ele>
        <time>2021-09-10T11:04:33.462Z</time>
      </trkpt>
      <trkpt lat="45.75148" lon="6.07991">
        <ele>634</ele>
        <time>2021-09-10T11:04:34.462Z</time>
      </trkpt>
      <trkpt lat="45.75147" lon="6.07996">
        <ele>634</ele>
        <time>2021-09-10T11:04:35.462Z</time>
      </trkpt>
      <trkpt lat="45.75145" lon="6.08002">
        <ele>634</ele>
        <time>2021-09-10T11:04:36.462Z</time>
      </trkpt>
      <trkpt lat="45.75143" lon="6.08007">
        <ele>634</ele>
        <time>2021-09-10T11:04:37.463Z</time>
      </trkpt>
      <trkpt lat="45.75141" lon="6.08014">
        <ele>634</ele>
        <time>2021-09-10T11:04:38.463Z</time>
      </trkpt>
      <trkpt lat="45.75138" lon="6.0802">
        <ele>634</ele>
        <time>2021-09-10T11:04:39.463Z</time>
      </trkpt>
      <trkpt lat="45.75136" lon="6.08027">
        <ele>634</ele>
        <time>2021-09-10T11:04:40.463Z</time>
      </trkpt>
      <trkpt lat="45.75133" lon="6.08034">
        <ele>634</ele>
        <time>2021-09-10T11:04:41.463Z</time>
      </trkpt>
      <trkpt lat="45.7513" lon="6.08041">
        <ele>633</ele>
        <time>2021-09-10T11:04:42.463Z</time>
      </trkpt>
      <trkpt lat="45.75127" lon="6.08049">
        <ele>633</ele>
        <time>2021-09-10T11:04:43.463Z</time>
      </trkpt>
      <trkpt lat="45.75124" lon="6.08058">
        <ele>633</ele>
        <time>2021-09-10T11:04:44.463Z</time>
      </trkpt>
      <trkpt lat="45.7512" lon="6.08066">
        <ele>633</ele>
        <time>2021-09-10T11:04:45.462Z</time>
      </trkpt>
      <trkpt lat="45.75117" lon="6.08074">
        <ele>632</ele>
        <time>2021-09-10T11:04:46.463Z</time>
      </trkpt>
      <trkpt lat="45.75114" lon="6.08082">
        <ele>632</ele>
        <time>2021-09-10T11:04:47.463Z</time>
      </trkpt>
      <trkpt lat="45.7511" lon="6.0809">
        <ele>632</ele>
        <time>2021-09-10T11:04:48.463Z</time>
      </trkpt>
      <trkpt lat="45.75107" lon="6.08097">
        <ele>632</ele>
        <time>2021-09-10T11:04:49.462Z</time>
      </trkpt>
      <trkpt lat="45.75104" lon="6.08105">
        <ele>632</ele>
        <time>2021-09-10T11:04:50.462Z</time>
      </trkpt>
      <trkpt lat="45.751" lon="6.08113">
        <ele>632</ele>
        <time>2021-09-10T11:04:51.463Z</time>
      </trkpt>
      <trkpt lat="45.75097" lon="6.0812">
        <ele>632</ele>
        <time>2021-09-10T11:04:52.463Z</time>
      </trkpt>
      <trkpt lat="45.75095" lon="6.08128">
        <ele>632</ele>
        <time>2021-09-10T11:04:53.463Z</time>
      </trkpt>
      <trkpt lat="45.75092" lon="6.08135">
        <ele>631</ele>
        <time>2021-09-10T11:04:54.463Z</time>
      </trkpt>
      <trkpt lat="45.7509" lon="6.08143">
        <ele>631</ele>
        <time>2021-09-10T11:04:55.463Z</time>
      </trkpt>
      <trkpt lat="45.75088" lon="6.0815">
        <ele>631</ele>
        <time>2021-09-10T11:04:56.462Z</time>
      </trkpt>
      <trkpt lat="45.75085" lon="6.08158">
        <ele>631</ele>
        <time>2021-09-10T11:04:57.463Z</time>
      </trkpt>
      <trkpt lat="45.75083" lon="6.08166">
        <ele>631</ele>
        <time>2021-09-10T11:04:58.462Z</time>
      </trkpt>
      <trkpt lat="45.75081" lon="6.08174">
        <ele>631</ele>
        <time>2021-09-10T11:04:59.463Z</time>
      </trkpt>
      <trkpt lat="45.75079" lon="6.08182">
        <ele>632</ele>
        <time>2021-09-10T11:05:00.463Z</time>
      </trkpt>
      <trkpt lat="45.75076" lon="6.08191">
        <ele>632</ele>
        <time>2021-09-10T11:05:01.463Z</time>
      </trkpt>
      <trkpt lat="45.75074" lon="6.08199">
        <ele>631</ele>
        <time>2021-09-10T11:05:02.463Z</time>
      </trkpt>
      <trkpt lat="45.75072" lon="6.08207">
        <ele>631</ele>
        <time>2021-09-10T11:05:03.463Z</time>
      </trkpt>
      <trkpt lat="45.75069" lon="6.08214">
        <ele>631</ele>
        <time>2021-09-10T11:05:04.462Z</time>
      </trkpt>
      <trkpt lat="45.75067" lon="6.08222">
        <ele>631</ele>
        <time>2021-09-10T11:05:05.462Z</time>
      </trkpt>
      <trkpt lat="45.75064" lon="6.08231">
        <ele>631</ele>
        <time>2021-09-10T11:05:06.463Z</time>
      </trkpt>
      <trkpt lat="45.75062" lon="6.0824">
        <ele>631</ele>
        <time>2021-09-10T11:05:07.463Z</time>
      </trkpt>
      <trkpt lat="45.75059" lon="6.08248">
        <ele>631</ele>
        <time>2021-09-10T11:05:08.463Z</time>
      </trkpt>
      <trkpt lat="45.75057" lon="6.08257">
        <ele>631</ele>
        <time>2021-09-10T11:05:09.463Z</time>
      </trkpt>
      <trkpt lat="45.75054" lon="6.08266">
        <ele>631</ele>
        <time>2021-09-10T11:05:10.462Z</time>
      </trkpt>
      <trkpt lat="45.75052" lon="6.08274">
        <ele>630</ele>
        <time>2021-09-10T11:05:11.463Z</time>
      </trkpt>
      <trkpt lat="45.75049" lon="6.08283">
        <ele>630</ele>
        <time>2021-09-10T11:05:12.463Z</time>
      </trkpt>
      <trkpt lat="45.75046" lon="6.08291">
        <ele>630</ele>
        <time>2021-09-10T11:05:13.463Z</time>
      </trkpt>
      <trkpt lat="45.75044" lon="6.08299">
        <ele>630</ele>
        <time>2021-09-10T11:05:14.462Z</time>
      </trkpt>
      <trkpt lat="45.75042" lon="6.08307">
        <ele>630</ele>
        <time>2021-09-10T11:05:15.463Z</time>
      </trkpt>
      <trkpt lat="45.7504" lon="6.08315">
        <ele>630</ele>
        <time>2021-09-10T11:05:16.463Z</time>
      </trkpt>
      <trkpt lat="45.75038" lon="6.08323">
        <ele>629</ele>
        <time>2021-09-10T11:05:17.462Z</time>
      </trkpt>
      <trkpt lat="45.75036" lon="6.08331">
        <ele>629</ele>
        <time>2021-09-10T11:05:18.463Z</time>
      </trkpt>
      <trkpt lat="45.75034" lon="6.0834">
        <ele>628</ele>
        <time>2021-09-10T11:05:19.463Z</time>
      </trkpt>
      <trkpt lat="45.75031" lon="6.0835">
        <ele>628</ele>
        <time>2021-09-10T11:05:20.462Z</time>
      </trkpt>
      <trkpt lat="45.75028" lon="6.08359">
        <ele>628</ele>
        <time>2021-09-10T11:05:21.463Z</time>
      </trkpt>
      <trkpt lat="45.75025" lon="6.08368">
        <ele>627</ele>
        <time>2021-09-10T11:05:22.462Z</time>
      </trkpt>
      <trkpt lat="45.75022" lon="6.08378">
        <ele>627</ele>
        <time>2021-09-10T11:05:23.463Z</time>
      </trkpt>
      <trkpt lat="45.75019" lon="6.08387">
        <ele>627</ele>
        <time>2021-09-10T11:05:24.462Z</time>
      </trkpt>
      <trkpt lat="45.75016" lon="6.08397">
        <ele>626</ele>
        <time>2021-09-10T11:05:25.463Z</time>
      </trkpt>
      <trkpt lat="45.75012" lon="6.08406">
        <ele>626</ele>
        <time>2021-09-10T11:05:26.462Z</time>
      </trkpt>
      <trkpt lat="45.75008" lon="6.08416">
        <ele>625</ele>
        <time>2021-09-10T11:05:27.463Z</time>
      </trkpt>
      <trkpt lat="45.75003" lon="6.08426">
        <ele>625</ele>
        <time>2021-09-10T11:05:28.463Z</time>
      </trkpt>
      <trkpt lat="45.74999" lon="6.08435">
        <ele>625</ele>
        <time>2021-09-10T11:05:29.463Z</time>
      </trkpt>
      <trkpt lat="45.74994" lon="6.08444">
        <ele>625</ele>
        <time>2021-09-10T11:05:30.463Z</time>
      </trkpt>
      <trkpt lat="45.74989" lon="6.08453">
        <ele>624</ele>
        <time>2021-09-10T11:05:31.463Z</time>
      </trkpt>
      <trkpt lat="45.74984" lon="6.08463">
        <ele>624</ele>
        <time>2021-09-10T11:05:32.462Z</time>
      </trkpt>
      <trkpt lat="45.74978" lon="6.08472">
        <ele>624</ele>
        <time>2021-09-10T11:05:33.463Z</time>
      </trkpt>
      <trkpt lat="45.74973" lon="6.08481">
        <ele>624</ele>
        <time>2021-09-10T11:05:34.463Z</time>
      </trkpt>
      <trkpt lat="45.74969" lon="6.0849">
        <ele>624</ele>
        <time>2021-09-10T11:05:35.463Z</time>
      </trkpt>
      <trkpt lat="45.74964" lon="6.08499">
        <ele>623</ele>
        <time>2021-09-10T11:05:36.463Z</time>
      </trkpt>
      <trkpt lat="45.7496" lon="6.08509">
        <ele>623</ele>
        <time>2021-09-10T11:05:37.463Z</time>
      </trkpt>
      <trkpt lat="45.74957" lon="6.08518">
        <ele>622</ele>
        <time>2021-09-10T11:05:38.463Z</time>
      </trkpt>
      <trkpt lat="45.74953" lon="6.08527">
        <ele>621</ele>
        <time>2021-09-10T11:05:39.463Z</time>
      </trkpt>
      <trkpt lat="45.7495" lon="6.08536">
        <ele>620</ele>
        <time>2021-09-10T11:05:40.462Z</time>
      </trkpt>
      <trkpt lat="45.74946" lon="6.08545">
        <ele>619</ele>
        <time>2021-09-10T11:05:41.463Z</time>
      </trkpt>
      <trkpt lat="45.74943" lon="6.08554">
        <ele>619</ele>
        <time>2021-09-10T11:05:42.462Z</time>
      </trkpt>
      <trkpt lat="45.74939" lon="6.08563">
        <ele>618</ele>
        <time>2021-09-10T11:05:43.463Z</time>
      </trkpt>
      <trkpt lat="45.74936" lon="6.08572">
        <ele>617</ele>
        <time>2021-09-10T11:05:44.462Z</time>
      </trkpt>
      <trkpt lat="45.74933" lon="6.0858">
        <ele>617</ele>
        <time>2021-09-10T11:05:45.463Z</time>
      </trkpt>
      <trkpt lat="45.74929" lon="6.08587">
        <ele>616</ele>
        <time>2021-09-10T11:05:46.463Z</time>
      </trkpt>
      <trkpt lat="45.74926" lon="6.08594">
        <ele>616</ele>
        <time>2021-09-10T11:05:47.463Z</time>
      </trkpt>
      <trkpt lat="45.74922" lon="6.08601">
        <ele>615</ele>
        <time>2021-09-10T11:05:48.463Z</time>
      </trkpt>
      <trkpt lat="45.74918" lon="6.08608">
        <ele>615</ele>
        <time>2021-09-10T11:05:49.463Z</time>
      </trkpt>
      <trkpt lat="45.74913" lon="6.08615">
        <ele>614</ele>
        <time>2021-09-10T11:05:50.463Z</time>
      </trkpt>
      <trkpt lat="45.74908" lon="6.08622">
        <ele>614</ele>
        <time>2021-09-10T11:05:51.462Z</time>
      </trkpt>
      <trkpt lat="45.74903" lon="6.08629">
        <ele>613</ele>
        <time>2021-09-10T11:05:52.463Z</time>
      </trkpt>
      <trkpt lat="45.74899" lon="6.08636">
        <ele>613</ele>
        <time>2021-09-10T11:05:53.462Z</time>
      </trkpt>
      <trkpt lat="45.74894" lon="6.08643">
        <ele>613</ele>
        <time>2021-09-10T11:05:54.463Z</time>
      </trkpt>
      <trkpt lat="45.74891" lon="6.08649">
        <ele>613</ele>
        <time>2021-09-10T11:05:55.463Z</time>
      </trkpt>
      <trkpt lat="45.74887" lon="6.08653">
        <ele>614</ele>
        <time>2021-09-10T11:05:56.463Z</time>
      </trkpt>
      <trkpt lat="45.74885" lon="6.08658">
        <ele>614</ele>
        <time>2021-09-10T11:05:57.463Z</time>
      </trkpt>
      <trkpt lat="45.74882" lon="6.08664">
        <ele>614</ele>
        <time>2021-09-10T11:05:58.463Z</time>
      </trkpt>
      <trkpt lat="45.74879" lon="6.08669">
        <ele>613</ele>
        <time>2021-09-10T11:05:59.463Z</time>
      </trkpt>
      <trkpt lat="45.74876" lon="6.08675">
        <ele>613</ele>
        <time>2021-09-10T11:06:00.463Z</time>
      </trkpt>
      <trkpt lat="45.74874" lon="6.08682">
        <ele>613</ele>
        <time>2021-09-10T11:06:01.463Z</time>
      </trkpt>
      <trkpt lat="45.74871" lon="6.08689">
        <ele>612</ele>
        <time>2021-09-10T11:06:02.463Z</time>
      </trkpt>
      <trkpt lat="45.74869" lon="6.08696">
        <ele>612</ele>
        <time>2021-09-10T11:06:03.463Z</time>
      </trkpt>
      <trkpt lat="45.74866" lon="6.08704">
        <ele>612</ele>
        <time>2021-09-10T11:06:04.463Z</time>
      </trkpt>
      <trkpt lat="45.74864" lon="6.08712">
        <ele>611</ele>
        <time>2021-09-10T11:06:05.463Z</time>
      </trkpt>
      <trkpt lat="45.74862" lon="6.08721">
        <ele>611</ele>
        <time>2021-09-10T11:06:06.463Z</time>
      </trkpt>
      <trkpt lat="45.7486" lon="6.08729">
        <ele>610</ele>
        <time>2021-09-10T11:06:07.463Z</time>
      </trkpt>
      <trkpt lat="45.74857" lon="6.08738">
        <ele>610</ele>
        <time>2021-09-10T11:06:08.463Z</time>
      </trkpt>
      <trkpt lat="45.74855" lon="6.08747">
        <ele>610</ele>
        <time>2021-09-10T11:06:09.463Z</time>
      </trkpt>
      <trkpt lat="45.74853" lon="6.08757">
        <ele>610</ele>
        <time>2021-09-10T11:06:10.463Z</time>
      </trkpt>
      <trkpt lat="45.7485" lon="6.08766">
        <ele>609</ele>
        <time>2021-09-10T11:06:11.463Z</time>
      </trkpt>
      <trkpt lat="45.74847" lon="6.08776">
        <ele>609</ele>
        <time>2021-09-10T11:06:12.462Z</time>
      </trkpt>
      <trkpt lat="45.74845" lon="6.08785">
        <ele>609</ele>
        <time>2021-09-10T11:06:13.463Z</time>
      </trkpt>
      <trkpt lat="45.74842" lon="6.08796">
        <ele>609</ele>
        <time>2021-09-10T11:06:14.463Z</time>
      </trkpt>
      <trkpt lat="45.74839" lon="6.08806">
        <ele>609</ele>
        <time>2021-09-10T11:06:15.462Z</time>
      </trkpt>
      <trkpt lat="45.74836" lon="6.08816">
        <ele>610</ele>
        <time>2021-09-10T11:06:16.463Z</time>
      </trkpt>
      <trkpt lat="45.74834" lon="6.08827">
        <ele>610</ele>
        <time>2021-09-10T11:06:17.463Z</time>
      </trkpt>
      <trkpt lat="45.74831" lon="6.08837">
        <ele>609</ele>
        <time>2021-09-10T11:06:18.463Z</time>
      </trkpt>
      <trkpt lat="45.74829" lon="6.08848">
        <ele>609</ele>
        <time>2021-09-10T11:06:19.462Z</time>
      </trkpt>
      <trkpt lat="45.74827" lon="6.08859">
        <ele>608</ele>
        <time>2021-09-10T11:06:20.463Z</time>
      </trkpt>
      <trkpt lat="45.74825" lon="6.0887">
        <ele>608</ele>
        <time>2021-09-10T11:06:21.463Z</time>
      </trkpt>
      <trkpt lat="45.74824" lon="6.08881">
        <ele>607</ele>
        <time>2021-09-10T11:06:22.462Z</time>
      </trkpt>
      <trkpt lat="45.74823" lon="6.08893">
        <ele>607</ele>
        <time>2021-09-10T11:06:23.463Z</time>
      </trkpt>
      <trkpt lat="45.74822" lon="6.08904">
        <ele>606</ele>
        <time>2021-09-10T11:06:24.462Z</time>
      </trkpt>
      <trkpt lat="45.74821" lon="6.08914">
        <ele>605</ele>
        <time>2021-09-10T11:06:25.463Z</time>
      </trkpt>
      <trkpt lat="45.74819" lon="6.08928">
        <ele>604</ele>
        <time>2021-09-10T11:06:26.463Z</time>
      </trkpt>
      <trkpt lat="45.74817" lon="6.08939">
        <ele>603</ele>
        <time>2021-09-10T11:06:27.462Z</time>
      </trkpt>
      <trkpt lat="45.74814" lon="6.0895">
        <ele>603</ele>
        <time>2021-09-10T11:06:28.463Z</time>
      </trkpt>
      <trkpt lat="45.74812" lon="6.08961">
        <ele>602</ele>
        <time>2021-09-10T11:06:29.463Z</time>
      </trkpt>
      <trkpt lat="45.74809" lon="6.08971">
        <ele>602</ele>
        <time>2021-09-10T11:06:30.463Z</time>
      </trkpt>
      <trkpt lat="45.74806" lon="6.08982">
        <ele>602</ele>
        <time>2021-09-10T11:06:31.463Z</time>
      </trkpt>
      <trkpt lat="45.74803" lon="6.08993">
        <ele>601</ele>
        <time>2021-09-10T11:06:32.463Z</time>
      </trkpt>
      <trkpt lat="45.748" lon="6.09004">
        <ele>601</ele>
        <time>2021-09-10T11:06:33.463Z</time>
      </trkpt>
      <trkpt lat="45.74797" lon="6.09015">
        <ele>600</ele>
        <time>2021-09-10T11:06:34.462Z</time>
      </trkpt>
      <trkpt lat="45.74794" lon="6.09025">
        <ele>600</ele>
        <time>2021-09-10T11:06:35.463Z</time>
      </trkpt>
      <trkpt lat="45.74791" lon="6.09035">
        <ele>599</ele>
        <time>2021-09-10T11:06:36.462Z</time>
      </trkpt>
      <trkpt lat="45.74787" lon="6.09045">
        <ele>598</ele>
        <time>2021-09-10T11:06:37.462Z</time>
      </trkpt>
      <trkpt lat="45.74784" lon="6.09054">
        <ele>597</ele>
        <time>2021-09-10T11:06:38.463Z</time>
      </trkpt>
      <trkpt lat="45.7478" lon="6.09064">
        <ele>597</ele>
        <time>2021-09-10T11:06:39.463Z</time>
      </trkpt>
      <trkpt lat="45.74777" lon="6.09073">
        <ele>596</ele>
        <time>2021-09-10T11:06:40.463Z</time>
      </trkpt>
      <trkpt lat="45.74772" lon="6.09083">
        <ele>596</ele>
        <time>2021-09-10T11:06:41.462Z</time>
      </trkpt>
      <trkpt lat="45.74768" lon="6.09091">
        <ele>596</ele>
        <time>2021-09-10T11:06:42.463Z</time>
      </trkpt>
      <trkpt lat="45.74764" lon="6.091">
        <ele>595</ele>
        <time>2021-09-10T11:06:43.463Z</time>
      </trkpt>
      <trkpt lat="45.74759" lon="6.09108">
        <ele>595</ele>
        <time>2021-09-10T11:06:44.463Z</time>
      </trkpt>
      <trkpt lat="45.74755" lon="6.09116">
        <ele>594</ele>
        <time>2021-09-10T11:06:45.462Z</time>
      </trkpt>
      <trkpt lat="45.74751" lon="6.09124">
        <ele>593</ele>
        <time>2021-09-10T11:06:46.463Z</time>
      </trkpt>
      <trkpt lat="45.74748" lon="6.09133">
        <ele>593</ele>
        <time>2021-09-10T11:06:47.463Z</time>
      </trkpt>
      <trkpt lat="45.74746" lon="6.09141">
        <ele>593</ele>
        <time>2021-09-10T11:06:48.463Z</time>
      </trkpt>
      <trkpt lat="45.74745" lon="6.0915">
        <ele>592</ele>
        <time>2021-09-10T11:06:49.462Z</time>
      </trkpt>
      <trkpt lat="45.74744" lon="6.09161">
        <ele>592</ele>
        <time>2021-09-10T11:06:50.463Z</time>
      </trkpt>
      <trkpt lat="45.74745" lon="6.09169">
        <ele>592</ele>
        <time>2021-09-10T11:06:51.463Z</time>
      </trkpt>
      <trkpt lat="45.74745" lon="6.09179">
        <ele>592</ele>
        <time>2021-09-10T11:06:52.463Z</time>
      </trkpt>
      <trkpt lat="45.74744" lon="6.0919">
        <ele>592</ele>
        <time>2021-09-10T11:06:53.463Z</time>
      </trkpt>
      <trkpt lat="45.74743" lon="6.092">
        <ele>592</ele>
        <time>2021-09-10T11:06:54.463Z</time>
      </trkpt>
      <trkpt lat="45.74741" lon="6.09211">
        <ele>591</ele>
        <time>2021-09-10T11:06:55.462Z</time>
      </trkpt>
      <trkpt lat="45.74737" lon="6.0922">
        <ele>591</ele>
        <time>2021-09-10T11:06:56.463Z</time>
      </trkpt>
      <trkpt lat="45.74732" lon="6.09229">
        <ele>591</ele>
        <time>2021-09-10T11:06:57.463Z</time>
      </trkpt>
      <trkpt lat="45.74726" lon="6.09237">
        <ele>591</ele>
        <time>2021-09-10T11:06:58.463Z</time>
      </trkpt>
      <trkpt lat="45.74719" lon="6.09245">
        <ele>590</ele>
        <time>2021-09-10T11:06:59.462Z</time>
      </trkpt>
      <trkpt lat="45.74713" lon="6.09253">
        <ele>590</ele>
        <time>2021-09-10T11:07:00.463Z</time>
      </trkpt>
      <trkpt lat="45.74708" lon="6.09262">
        <ele>590</ele>
        <time>2021-09-10T11:07:01.463Z</time>
      </trkpt>
      <trkpt lat="45.74703" lon="6.09273">
        <ele>590</ele>
        <time>2021-09-10T11:07:02.462Z</time>
      </trkpt>
      <trkpt lat="45.74699" lon="6.09284">
        <ele>590</ele>
        <time>2021-09-10T11:07:03.463Z</time>
      </trkpt>
      <trkpt lat="45.74695" lon="6.09296">
        <ele>590</ele>
        <time>2021-09-10T11:07:04.463Z</time>
      </trkpt>
      <trkpt lat="45.7469" lon="6.09308">
        <ele>589</ele>
        <time>2021-09-10T11:07:05.463Z</time>
      </trkpt>
      <trkpt lat="45.74686" lon="6.09319">
        <ele>589</ele>
        <time>2021-09-10T11:07:06.463Z</time>
      </trkpt>
      <trkpt lat="45.74681" lon="6.09332">
        <ele>589</ele>
        <time>2021-09-10T11:07:07.462Z</time>
      </trkpt>
      <trkpt lat="45.74676" lon="6.09343">
        <ele>588</ele>
        <time>2021-09-10T11:07:08.463Z</time>
      </trkpt>
      <trkpt lat="45.74671" lon="6.09355">
        <ele>587</ele>
        <time>2021-09-10T11:07:09.463Z</time>
      </trkpt>
      <trkpt lat="45.74665" lon="6.09366">
        <ele>586</ele>
        <time>2021-09-10T11:07:10.462Z</time>
      </trkpt>
      <trkpt lat="45.74659" lon="6.09377">
        <ele>586</ele>
        <time>2021-09-10T11:07:11.463Z</time>
      </trkpt>
      <trkpt lat="45.74653" lon="6.09387">
        <ele>585</ele>
        <time>2021-09-10T11:07:12.462Z</time>
      </trkpt>
      <trkpt lat="45.74645" lon="6.09397">
        <ele>584</ele>
        <time>2021-09-10T11:07:13.463Z</time>
      </trkpt>
      <trkpt lat="45.74638" lon="6.09407">
        <ele>583</ele>
        <time>2021-09-10T11:07:14.462Z</time>
      </trkpt>
      <trkpt lat="45.7463" lon="6.09415">
        <ele>582</ele>
        <time>2021-09-10T11:07:15.463Z</time>
      </trkpt>
      <trkpt lat="45.74621" lon="6.09423">
        <ele>582</ele>
        <time>2021-09-10T11:07:16.463Z</time>
      </trkpt>
      <trkpt lat="45.74612" lon="6.09429">
        <ele>581</ele>
        <time>2021-09-10T11:07:17.463Z</time>
      </trkpt>
      <trkpt lat="45.74603" lon="6.09434">
        <ele>581</ele>
        <time>2021-09-10T11:07:18.463Z</time>
      </trkpt>
      <trkpt lat="45.74593" lon="6.09437">
        <ele>580</ele>
        <time>2021-09-10T11:07:19.463Z</time>
      </trkpt>
      <trkpt lat="45.74582" lon="6.0944">
        <ele>580</ele>
        <time>2021-09-10T11:07:20.463Z</time>
      </trkpt>
      <trkpt lat="45.74572" lon="6.09443">
        <ele>580</ele>
        <time>2021-09-10T11:07:21.463Z</time>
      </trkpt>
      <trkpt lat="45.74562" lon="6.09446">
        <ele>579</ele>
        <time>2021-09-10T11:07:22.463Z</time>
      </trkpt>
      <trkpt lat="45.74553" lon="6.09449">
        <ele>578</ele>
        <time>2021-09-10T11:07:23.462Z</time>
      </trkpt>
      <trkpt lat="45.74543" lon="6.09454">
        <ele>577</ele>
        <time>2021-09-10T11:07:24.463Z</time>
      </trkpt>
      <trkpt lat="45.74533" lon="6.0946">
        <ele>577</ele>
        <time>2021-09-10T11:07:25.463Z</time>
      </trkpt>
      <trkpt lat="45.74524" lon="6.09467">
        <ele>576</ele>
        <time>2021-09-10T11:07:26.463Z</time>
      </trkpt>
      <trkpt lat="45.74515" lon="6.09475">
        <ele>576</ele>
        <time>2021-09-10T11:07:27.463Z</time>
      </trkpt>
      <trkpt lat="45.74507" lon="6.09483">
        <ele>576</ele>
        <time>2021-09-10T11:07:28.462Z</time>
      </trkpt>
      <trkpt lat="45.74499" lon="6.09492">
        <ele>575</ele>
        <time>2021-09-10T11:07:29.463Z</time>
      </trkpt>
      <trkpt lat="45.74491" lon="6.095">
        <ele>574</ele>
        <time>2021-09-10T11:07:30.462Z</time>
      </trkpt>
      <trkpt lat="45.74483" lon="6.09508">
        <ele>574</ele>
        <time>2021-09-10T11:07:31.463Z</time>
      </trkpt>
      <trkpt lat="45.74477" lon="6.09516">
        <ele>573</ele>
        <time>2021-09-10T11:07:32.463Z</time>
      </trkpt>
      <trkpt lat="45.7447" lon="6.09524">
        <ele>572</ele>
        <time>2021-09-10T11:07:33.463Z</time>
      </trkpt>
      <trkpt lat="45.74464" lon="6.09532">
        <ele>572</ele>
        <time>2021-09-10T11:07:34.463Z</time>
      </trkpt>
      <trkpt lat="45.74459" lon="6.09539">
        <ele>572</ele>
        <time>2021-09-10T11:07:35.463Z</time>
      </trkpt>
      <trkpt lat="45.74454" lon="6.09547">
        <ele>572</ele>
        <time>2021-09-10T11:07:36.463Z</time>
      </trkpt>
      <trkpt lat="45.7445" lon="6.09554">
        <ele>572</ele>
        <time>2021-09-10T11:07:37.462Z</time>
      </trkpt>
      <trkpt lat="45.74446" lon="6.09561">
        <ele>571</ele>
        <time>2021-09-10T11:07:38.462Z</time>
      </trkpt>
      <trkpt lat="45.74443" lon="6.09567">
        <ele>570</ele>
        <time>2021-09-10T11:07:39.463Z</time>
      </trkpt>
      <trkpt lat="45.74439" lon="6.0957">
        <ele>570</ele>
        <time>2021-09-10T11:07:40.463Z</time>
      </trkpt>
      <trkpt lat="45.74436" lon="6.09572">
        <ele>569</ele>
        <time>2021-09-10T11:07:41.462Z</time>
      </trkpt>
      <trkpt lat="45.74433" lon="6.09573">
        <ele>569</ele>
        <time>2021-09-10T11:07:42.463Z</time>
      </trkpt>
      <trkpt lat="45.7443" lon="6.09573">
        <ele>568</ele>
        <time>2021-09-10T11:07:43.462Z</time>
      </trkpt>
      <trkpt lat="45.74429" lon="6.09572">
        <ele>567</ele>
        <time>2021-09-10T11:07:44.462Z</time>
      </trkpt>
      <trkpt lat="45.74428" lon="6.09571">
        <ele>567</ele>
        <time>2021-09-10T11:07:45.463Z</time>
      </trkpt>
      <trkpt lat="45.74427" lon="6.0957">
        <ele>566</ele>
        <time>2021-09-10T11:07:46.462Z</time>
      </trkpt>
      <trkpt lat="45.74427" lon="6.0957">
        <ele>565</ele>
        <time>2021-09-10T11:07:47.463Z</time>
      </trkpt>
      <trkpt lat="45.74427" lon="6.0957">
        <ele>564</ele>
        <time>2021-09-10T11:07:48.463Z</time>
      </trkpt>
      <trkpt lat="45.74426" lon="6.09569">
        <ele>564</ele>
        <time>2021-09-10T11:07:49.463Z</time>
      </trkpt>
      <trkpt lat="45.74425" lon="6.09568">
        <ele>563</ele>
        <time>2021-09-10T11:07:50.462Z</time>
      </trkpt>
      <trkpt lat="45.74424" lon="6.09567">
        <ele>563</ele>
        <time>2021-09-10T11:07:51.463Z</time>
      </trkpt>
      <trkpt lat="45.74422" lon="6.09566">
        <ele>563</ele>
        <time>2021-09-10T11:07:59.611Z</time>
      </trkpt>
      <trkpt lat="45.7442" lon="6.09567">
        <ele>563</ele>
        <time>2021-09-10T11:08:00.611Z</time>
      </trkpt>
      <trkpt lat="45.74419" lon="6.09569">
        <ele>563</ele>
        <time>2021-09-10T11:08:01.610Z</time>
      </trkpt>
      <trkpt lat="45.74418" lon="6.09571">
        <ele>562</ele>
        <time>2021-09-10T11:08:02.610Z</time>
      </trkpt>
      <trkpt lat="45.74416" lon="6.09573">
        <ele>562</ele>
        <time>2021-09-10T11:08:03.611Z</time>
      </trkpt>
      <trkpt lat="45.74414" lon="6.09576">
        <ele>562</ele>
        <time>2021-09-10T11:11:24.786Z</time>
      </trkpt>
      <trkpt lat="45.74412" lon="6.0958">
        <ele>562</ele>
        <time>2021-09-10T11:11:25.787Z</time>
      </trkpt>
      <trkpt lat="45.7441" lon="6.09583">
        <ele>562</ele>
        <time>2021-09-10T11:11:26.786Z</time>
      </trkpt>
      <trkpt lat="45.74408" lon="6.09587">
        <ele>562</ele>
        <time>2021-09-10T11:11:27.787Z</time>
      </trkpt>
      <trkpt lat="45.74406" lon="6.09591">
        <ele>562</ele>
        <time>2021-09-10T11:11:28.787Z</time>
      </trkpt>
      <trkpt lat="45.74404" lon="6.09596">
        <ele>562</ele>
        <time>2021-09-10T11:11:30.863Z</time>
      </trkpt>
      <trkpt lat="45.74401" lon="6.096">
        <ele>561</ele>
        <time>2021-09-10T11:11:31.864Z</time>
      </trkpt>
      <trkpt lat="45.74399" lon="6.09604">
        <ele>561</ele>
        <time>2021-09-10T11:11:52.736Z</time>
      </trkpt>
      <trkpt lat="45.74396" lon="6.09608">
        <ele>561</ele>
        <time>2021-09-10T11:11:53.736Z</time>
      </trkpt>
      <trkpt lat="45.74393" lon="6.09612">
        <ele>562</ele>
        <time>2021-09-10T11:11:54.736Z</time>
      </trkpt>
      <trkpt lat="45.74391" lon="6.09616">
        <ele>562</ele>
        <time>2021-09-10T11:11:55.736Z</time>
      </trkpt>
      <trkpt lat="45.74388" lon="6.0962">
        <ele>561</ele>
        <time>2021-09-10T11:11:56.736Z</time>
      </trkpt>
      <trkpt lat="45.74385" lon="6.09624">
        <ele>561</ele>
        <time>2021-09-10T11:11:57.735Z</time>
      </trkpt>
      <trkpt lat="45.74382" lon="6.09628">
        <ele>561</ele>
        <time>2021-09-10T11:11:58.736Z</time>
      </trkpt>
      <trkpt lat="45.74379" lon="6.09633">
        <ele>561</ele>
        <time>2021-09-10T11:11:59.736Z</time>
      </trkpt>
      <trkpt lat="45.74376" lon="6.09637">
        <ele>561</ele>
        <time>2021-09-10T11:12:00.736Z</time>
      </trkpt>
      <trkpt lat="45.74373" lon="6.09641">
        <ele>561</ele>
        <time>2021-09-10T11:12:01.736Z</time>
      </trkpt>
      <trkpt lat="45.7437" lon="6.09646">
        <ele>561</ele>
        <time>2021-09-10T11:12:02.736Z</time>
      </trkpt>
      <trkpt lat="45.74367" lon="6.0965">
        <ele>560</ele>
        <time>2021-09-10T11:12:03.735Z</time>
      </trkpt>
      <trkpt lat="45.74364" lon="6.09654">
        <ele>560</ele>
        <time>2021-09-10T11:12:04.735Z</time>
      </trkpt>
      <trkpt lat="45.7436" lon="6.09657">
        <ele>560</ele>
        <time>2021-09-10T11:12:05.736Z</time>
      </trkpt>
      <trkpt lat="45.74357" lon="6.09661">
        <ele>560</ele>
        <time>2021-09-10T11:12:06.736Z</time>
      </trkpt>
      <trkpt lat="45.74353" lon="6.09665">
        <ele>560</ele>
        <time>2021-09-10T11:12:07.736Z</time>
      </trkpt>
      <trkpt lat="45.7435" lon="6.09669">
        <ele>560</ele>
        <time>2021-09-10T11:12:08.736Z</time>
      </trkpt>
      <trkpt lat="45.74346" lon="6.09672">
        <ele>560</ele>
        <time>2021-09-10T11:12:09.736Z</time>
      </trkpt>
      <trkpt lat="45.74343" lon="6.09675">
        <ele>560</ele>
        <time>2021-09-10T11:12:10.736Z</time>
      </trkpt>
      <trkpt lat="45.74339" lon="6.09678">
        <ele>560</ele>
        <time>2021-09-10T11:12:11.736Z</time>
      </trkpt>
      <trkpt lat="45.74336" lon="6.09682">
        <ele>560</ele>
        <time>2021-09-10T11:12:12.736Z</time>
      </trkpt>
      <trkpt lat="45.74332" lon="6.09685">
        <ele>561</ele>
        <time>2021-09-10T11:12:13.736Z</time>
      </trkpt>
      <trkpt lat="45.74329" lon="6.09689">
        <ele>560</ele>
        <time>2021-09-10T11:12:14.736Z</time>
      </trkpt>
      <trkpt lat="45.74326" lon="6.09693">
        <ele>560</ele>
        <time>2021-09-10T11:12:15.735Z</time>
      </trkpt>
      <trkpt lat="45.74323" lon="6.09696">
        <ele>560</ele>
        <time>2021-09-10T11:12:16.736Z</time>
      </trkpt>
      <trkpt lat="45.74319" lon="6.097">
        <ele>560</ele>
        <time>2021-09-10T11:12:17.735Z</time>
      </trkpt>
      <trkpt lat="45.74316" lon="6.09703">
        <ele>560</ele>
        <time>2021-09-10T11:12:18.736Z</time>
      </trkpt>
      <trkpt lat="45.74313" lon="6.09707">
        <ele>560</ele>
        <time>2021-09-10T11:12:19.736Z</time>
      </trkpt>
      <trkpt lat="45.7431" lon="6.09711">
        <ele>560</ele>
        <time>2021-09-10T11:12:20.736Z</time>
      </trkpt>
      <trkpt lat="45.74306" lon="6.09714">
        <ele>561</ele>
        <time>2021-09-10T11:12:21.736Z</time>
      </trkpt>
      <trkpt lat="45.74303" lon="6.09718">
        <ele>561</ele>
        <time>2021-09-10T11:12:22.736Z</time>
      </trkpt>
      <trkpt lat="45.74299" lon="6.09722">
        <ele>562</ele>
        <time>2021-09-10T11:12:23.736Z</time>
      </trkpt>
      <trkpt lat="45.74296" lon="6.09725">
        <ele>562</ele>
        <time>2021-09-10T11:12:24.736Z</time>
      </trkpt>
      <trkpt lat="45.74292" lon="6.09729">
        <ele>563</ele>
        <time>2021-09-10T11:12:25.735Z</time>
      </trkpt>
      <trkpt lat="45.74289" lon="6.09733">
        <ele>563</ele>
        <time>2021-09-10T11:12:26.736Z</time>
      </trkpt>
      <trkpt lat="45.74285" lon="6.09737">
        <ele>563</ele>
        <time>2021-09-10T11:12:27.736Z</time>
      </trkpt>
      <trkpt lat="45.74282" lon="6.0974">
        <ele>563</ele>
        <time>2021-09-10T11:12:28.735Z</time>
      </trkpt>
      <trkpt lat="45.74278" lon="6.09744">
        <ele>563</ele>
        <time>2021-09-10T11:12:29.735Z</time>
      </trkpt>
      <trkpt lat="45.74275" lon="6.09747">
        <ele>563</ele>
        <time>2021-09-10T11:12:30.736Z</time>
      </trkpt>
      <trkpt lat="45.74271" lon="6.09751">
        <ele>562</ele>
        <time>2021-09-10T11:12:31.736Z</time>
      </trkpt>
      <trkpt lat="45.74268" lon="6.09754">
        <ele>562</ele>
        <time>2021-09-10T11:12:32.736Z</time>
      </trkpt>
      <trkpt lat="45.74265" lon="6.09757">
        <ele>562</ele>
        <time>2021-09-10T11:12:33.735Z</time>
      </trkpt>
      <trkpt lat="45.74261" lon="6.0976">
        <ele>562</ele>
        <time>2021-09-10T11:12:34.736Z</time>
      </trkpt>
      <trkpt lat="45.74257" lon="6.09764">
        <ele>562</ele>
        <time>2021-09-10T11:12:35.736Z</time>
      </trkpt>
      <trkpt lat="45.74254" lon="6.09767">
        <ele>563</ele>
        <time>2021-09-10T11:12:36.736Z</time>
      </trkpt>
      <trkpt lat="45.7425" lon="6.0977">
        <ele>562</ele>
        <time>2021-09-10T11:12:37.736Z</time>
      </trkpt>
      <trkpt lat="45.74247" lon="6.09774">
        <ele>562</ele>
        <time>2021-09-10T11:12:38.736Z</time>
      </trkpt>
      <trkpt lat="45.74243" lon="6.09777">
        <ele>562</ele>
        <time>2021-09-10T11:12:39.736Z</time>
      </trkpt>
      <trkpt lat="45.7424" lon="6.09779">
        <ele>562</ele>
        <time>2021-09-10T11:12:40.735Z</time>
      </trkpt>
      <trkpt lat="45.74235" lon="6.09783">
        <ele>563</ele>
        <time>2021-09-10T11:12:41.735Z</time>
      </trkpt>
      <trkpt lat="45.74231" lon="6.09786">
        <ele>563</ele>
        <time>2021-09-10T11:12:42.736Z</time>
      </trkpt>
      <trkpt lat="45.74227" lon="6.09789">
        <ele>564</ele>
        <time>2021-09-10T11:12:43.736Z</time>
      </trkpt>
      <trkpt lat="45.74223" lon="6.09792">
        <ele>564</ele>
        <time>2021-09-10T11:12:44.736Z</time>
      </trkpt>
      <trkpt lat="45.74219" lon="6.09795">
        <ele>565</ele>
        <time>2021-09-10T11:12:45.736Z</time>
      </trkpt>
      <trkpt lat="45.74216" lon="6.09798">
        <ele>565</ele>
        <time>2021-09-10T11:12:46.736Z</time>
      </trkpt>
      <trkpt lat="45.74212" lon="6.098">
        <ele>565</ele>
        <time>2021-09-10T11:12:47.735Z</time>
      </trkpt>
      <trkpt lat="45.74208" lon="6.09803">
        <ele>566</ele>
        <time>2021-09-10T11:12:48.735Z</time>
      </trkpt>
      <trkpt lat="45.74204" lon="6.09805">
        <ele>566</ele>
        <time>2021-09-10T11:12:49.736Z</time>
      </trkpt>
      <trkpt lat="45.742" lon="6.09808">
        <ele>566</ele>
        <time>2021-09-10T11:12:50.736Z</time>
      </trkpt>
      <trkpt lat="45.74196" lon="6.09811">
        <ele>566</ele>
        <time>2021-09-10T11:12:51.736Z</time>
      </trkpt>
      <trkpt lat="45.74192" lon="6.09813">
        <ele>566</ele>
        <time>2021-09-10T11:12:52.736Z</time>
      </trkpt>
      <trkpt lat="45.74188" lon="6.09815">
        <ele>566</ele>
        <time>2021-09-10T11:12:53.736Z</time>
      </trkpt>
      <trkpt lat="45.74184" lon="6.09817">
        <ele>567</ele>
        <time>2021-09-10T11:12:54.736Z</time>
      </trkpt>
      <trkpt lat="45.7418" lon="6.0982">
        <ele>567</ele>
        <time>2021-09-10T11:12:55.735Z</time>
      </trkpt>
      <trkpt lat="45.74176" lon="6.09821">
        <ele>567</ele>
        <time>2021-09-10T11:12:56.736Z</time>
      </trkpt>
      <trkpt lat="45.74172" lon="6.09823">
        <ele>567</ele>
        <time>2021-09-10T11:12:57.736Z</time>
      </trkpt>
      <trkpt lat="45.74168" lon="6.09825">
        <ele>567</ele>
        <time>2021-09-10T11:12:58.735Z</time>
      </trkpt>
      <trkpt lat="45.74163" lon="6.09826">
        <ele>567</ele>
        <time>2021-09-10T11:12:59.736Z</time>
      </trkpt>
      <trkpt lat="45.74159" lon="6.09827">
        <ele>566</ele>
        <time>2021-09-10T11:13:00.736Z</time>
      </trkpt>
      <trkpt lat="45.74155" lon="6.09829">
        <ele>566</ele>
        <time>2021-09-10T11:13:01.736Z</time>
      </trkpt>
      <trkpt lat="45.74151" lon="6.0983">
        <ele>566</ele>
        <time>2021-09-10T11:13:02.736Z</time>
      </trkpt>
      <trkpt lat="45.74146" lon="6.09831">
        <ele>566</ele>
        <time>2021-09-10T11:13:03.735Z</time>
      </trkpt>
      <trkpt lat="45.74142" lon="6.09832">
        <ele>566</ele>
        <time>2021-09-10T11:13:04.736Z</time>
      </trkpt>
      <trkpt lat="45.74138" lon="6.09833">
        <ele>566</ele>
        <time>2021-09-10T11:13:05.736Z</time>
      </trkpt>
      <trkpt lat="45.74133" lon="6.09835">
        <ele>565</ele>
        <time>2021-09-10T11:13:06.736Z</time>
      </trkpt>
      <trkpt lat="45.74129" lon="6.09836">
        <ele>565</ele>
        <time>2021-09-10T11:13:07.736Z</time>
      </trkpt>
      <trkpt lat="45.74125" lon="6.09837">
        <ele>565</ele>
        <time>2021-09-10T11:13:08.736Z</time>
      </trkpt>
      <trkpt lat="45.74121" lon="6.09838">
        <ele>565</ele>
        <time>2021-09-10T11:13:09.736Z</time>
      </trkpt>
      <trkpt lat="45.74116" lon="6.09839">
        <ele>565</ele>
        <time>2021-09-10T11:13:10.735Z</time>
      </trkpt>
      <trkpt lat="45.74112" lon="6.0984">
        <ele>565</ele>
        <time>2021-09-10T11:13:11.736Z</time>
      </trkpt>
      <trkpt lat="45.74108" lon="6.09841">
        <ele>565</ele>
        <time>2021-09-10T11:13:12.736Z</time>
      </trkpt>
      <trkpt lat="45.74104" lon="6.09842">
        <ele>565</ele>
        <time>2021-09-10T11:13:13.736Z</time>
      </trkpt>
      <trkpt lat="45.741" lon="6.09842">
        <ele>566</ele>
        <time>2021-09-10T11:13:14.736Z</time>
      </trkpt>
      <trkpt lat="45.74096" lon="6.09843">
        <ele>566</ele>
        <time>2021-09-10T11:13:15.735Z</time>
      </trkpt>
      <trkpt lat="45.74092" lon="6.09843">
        <ele>566</ele>
        <time>2021-09-10T11:13:16.735Z</time>
      </trkpt>
      <trkpt lat="45.74088" lon="6.09843">
        <ele>566</ele>
        <time>2021-09-10T11:13:17.736Z</time>
      </trkpt>
      <trkpt lat="45.74084" lon="6.09843">
        <ele>566</ele>
        <time>2021-09-10T11:13:18.736Z</time>
      </trkpt>
      <trkpt lat="45.7408" lon="6.09843">
        <ele>567</ele>
        <time>2021-09-10T11:13:19.736Z</time>
      </trkpt>
      <trkpt lat="45.74076" lon="6.09843">
        <ele>566</ele>
        <time>2021-09-10T11:13:20.736Z</time>
      </trkpt>
      <trkpt lat="45.74072" lon="6.09842">
        <ele>566</ele>
        <time>2021-09-10T11:13:21.736Z</time>
      </trkpt>
      <trkpt lat="45.74068" lon="6.09841">
        <ele>565</ele>
        <time>2021-09-10T11:13:22.736Z</time>
      </trkpt>
      <trkpt lat="45.74064" lon="6.0984">
        <ele>565</ele>
        <time>2021-09-10T11:13:23.736Z</time>
      </trkpt>
      <trkpt lat="45.7406" lon="6.09839">
        <ele>564</ele>
        <time>2021-09-10T11:13:24.736Z</time>
      </trkpt>
      <trkpt lat="45.74056" lon="6.09838">
        <ele>564</ele>
        <time>2021-09-10T11:13:25.736Z</time>
      </trkpt>
      <trkpt lat="45.74052" lon="6.09837">
        <ele>564</ele>
        <time>2021-09-10T11:13:26.735Z</time>
      </trkpt>
      <trkpt lat="45.74047" lon="6.09835">
        <ele>563</ele>
        <time>2021-09-10T11:13:27.735Z</time>
      </trkpt>
      <trkpt lat="45.74043" lon="6.09834">
        <ele>563</ele>
        <time>2021-09-10T11:13:28.736Z</time>
      </trkpt>
      <trkpt lat="45.74039" lon="6.09832">
        <ele>563</ele>
        <time>2021-09-10T11:13:29.736Z</time>
      </trkpt>
      <trkpt lat="45.74035" lon="6.0983">
        <ele>563</ele>
        <time>2021-09-10T11:13:30.735Z</time>
      </trkpt>
      <trkpt lat="45.74031" lon="6.09829">
        <ele>562</ele>
        <time>2021-09-10T11:13:31.735Z</time>
      </trkpt>
      <trkpt lat="45.74027" lon="6.09827">
        <ele>562</ele>
        <time>2021-09-10T11:13:32.736Z</time>
      </trkpt>
      <trkpt lat="45.74023" lon="6.09825">
        <ele>562</ele>
        <time>2021-09-10T11:13:33.736Z</time>
      </trkpt>
      <trkpt lat="45.74019" lon="6.09824">
        <ele>561</ele>
        <time>2021-09-10T11:13:34.735Z</time>
      </trkpt>
      <trkpt lat="45.74015" lon="6.09822">
        <ele>561</ele>
        <time>2021-09-10T11:13:35.736Z</time>
      </trkpt>
      <trkpt lat="45.74011" lon="6.0982">
        <ele>561</ele>
        <time>2021-09-10T11:13:36.735Z</time>
      </trkpt>
      <trkpt lat="45.74007" lon="6.09819">
        <ele>561</ele>
        <time>2021-09-10T11:13:37.735Z</time>
      </trkpt>
      <trkpt lat="45.74003" lon="6.09817">
        <ele>561</ele>
        <time>2021-09-10T11:13:38.736Z</time>
      </trkpt>
      <trkpt lat="45.73999" lon="6.09816">
        <ele>560</ele>
        <time>2021-09-10T11:13:39.736Z</time>
      </trkpt>
      <trkpt lat="45.73996" lon="6.09815">
        <ele>560</ele>
        <time>2021-09-10T11:13:40.735Z</time>
      </trkpt>
      <trkpt lat="45.73992" lon="6.09813">
        <ele>560</ele>
        <time>2021-09-10T11:13:41.736Z</time>
      </trkpt>
      <trkpt lat="45.73988" lon="6.09812">
        <ele>559</ele>
        <time>2021-09-10T11:13:42.736Z</time>
      </trkpt>
      <trkpt lat="45.73984" lon="6.09811">
        <ele>559</ele>
        <time>2021-09-10T11:13:43.736Z</time>
      </trkpt>
      <trkpt lat="45.73981" lon="6.09809">
        <ele>560</ele>
        <time>2021-09-10T11:13:44.736Z</time>
      </trkpt>
      <trkpt lat="45.73977" lon="6.09807">
        <ele>560</ele>
        <time>2021-09-10T11:13:45.736Z</time>
      </trkpt>
      <trkpt lat="45.73973" lon="6.09806">
        <ele>560</ele>
        <time>2021-09-10T11:13:46.736Z</time>
      </trkpt>
      <trkpt lat="45.73969" lon="6.09806">
        <ele>561</ele>
        <time>2021-09-10T11:13:47.736Z</time>
      </trkpt>
      <trkpt lat="45.73965" lon="6.09805">
        <ele>561</ele>
        <time>2021-09-10T11:13:48.736Z</time>
      </trkpt>
      <trkpt lat="45.73961" lon="6.09804">
        <ele>561</ele>
        <time>2021-09-10T11:13:49.736Z</time>
      </trkpt>
      <trkpt lat="45.73957" lon="6.09803">
        <ele>561</ele>
        <time>2021-09-10T11:13:50.735Z</time>
      </trkpt>
      <trkpt lat="45.73953" lon="6.09803">
        <ele>561</ele>
        <time>2021-09-10T11:13:51.736Z</time>
      </trkpt>
      <trkpt lat="45.73949" lon="6.09802">
        <ele>561</ele>
        <time>2021-09-10T11:13:52.736Z</time>
      </trkpt>
      <trkpt lat="45.73945" lon="6.09801">
        <ele>561</ele>
        <time>2021-09-10T11:13:53.735Z</time>
      </trkpt>
      <trkpt lat="45.73942" lon="6.09801">
        <ele>561</ele>
        <time>2021-09-10T11:13:54.735Z</time>
      </trkpt>
      <trkpt lat="45.73938" lon="6.09801">
        <ele>561</ele>
        <time>2021-09-10T11:13:55.735Z</time>
      </trkpt>
      <trkpt lat="45.73934" lon="6.098">
        <ele>561</ele>
        <time>2021-09-10T11:13:56.736Z</time>
      </trkpt>
      <trkpt lat="45.73931" lon="6.098">
        <ele>561</ele>
        <time>2021-09-10T11:13:57.736Z</time>
      </trkpt>
      <trkpt lat="45.73927" lon="6.098">
        <ele>561</ele>
        <time>2021-09-10T11:13:58.736Z</time>
      </trkpt>
      <trkpt lat="45.73923" lon="6.098">
        <ele>561</ele>
        <time>2021-09-10T11:13:59.736Z</time>
      </trkpt>
      <trkpt lat="45.73919" lon="6.09801">
        <ele>562</ele>
        <time>2021-09-10T11:14:00.735Z</time>
      </trkpt>
      <trkpt lat="45.73916" lon="6.09801">
        <ele>562</ele>
        <time>2021-09-10T11:14:01.736Z</time>
      </trkpt>
      <trkpt lat="45.73912" lon="6.09801">
        <ele>562</ele>
        <time>2021-09-10T11:14:02.735Z</time>
      </trkpt>
      <trkpt lat="45.73907" lon="6.09802">
        <ele>562</ele>
        <time>2021-09-10T11:14:03.736Z</time>
      </trkpt>
      <trkpt lat="45.73903" lon="6.09802">
        <ele>562</ele>
        <time>2021-09-10T11:14:04.736Z</time>
      </trkpt>
      <trkpt lat="45.73899" lon="6.09802">
        <ele>562</ele>
        <time>2021-09-10T11:14:05.736Z</time>
      </trkpt>
      <trkpt lat="45.73895" lon="6.09802">
        <ele>562</ele>
        <time>2021-09-10T11:14:06.735Z</time>
      </trkpt>
      <trkpt lat="45.73891" lon="6.09802">
        <ele>562</ele>
        <time>2021-09-10T11:14:07.736Z</time>
      </trkpt>
      <trkpt lat="45.73887" lon="6.09802">
        <ele>562</ele>
        <time>2021-09-10T11:14:08.736Z</time>
      </trkpt>
      <trkpt lat="45.73883" lon="6.09802">
        <ele>562</ele>
        <time>2021-09-10T11:14:09.736Z</time>
      </trkpt>
      <trkpt lat="45.73878" lon="6.09802">
        <ele>562</ele>
        <time>2021-09-10T11:14:10.736Z</time>
      </trkpt>
      <trkpt lat="45.73874" lon="6.09802">
        <ele>562</ele>
        <time>2021-09-10T11:14:11.735Z</time>
      </trkpt>
      <trkpt lat="45.7387" lon="6.09802">
        <ele>563</ele>
        <time>2021-09-10T11:14:12.735Z</time>
      </trkpt>
      <trkpt lat="45.73866" lon="6.09803">
        <ele>563</ele>
        <time>2021-09-10T11:14:13.735Z</time>
      </trkpt>
      <trkpt lat="45.73861" lon="6.09803">
        <ele>563</ele>
        <time>2021-09-10T11:14:14.735Z</time>
      </trkpt>
      <trkpt lat="45.73857" lon="6.09803">
        <ele>563</ele>
        <time>2021-09-10T11:14:15.735Z</time>
      </trkpt>
      <trkpt lat="45.73852" lon="6.09803">
        <ele>563</ele>
        <time>2021-09-10T11:14:16.736Z</time>
      </trkpt>
      <trkpt lat="45.73848" lon="6.09803">
        <ele>564</ele>
        <time>2021-09-10T11:14:17.735Z</time>
      </trkpt>
      <trkpt lat="45.73844" lon="6.09804">
        <ele>564</ele>
        <time>2021-09-10T11:14:18.735Z</time>
      </trkpt>
      <trkpt lat="45.7384" lon="6.09804">
        <ele>564</ele>
        <time>2021-09-10T11:14:19.735Z</time>
      </trkpt>
      <trkpt lat="45.73836" lon="6.09804">
        <ele>564</ele>
        <time>2021-09-10T11:14:20.735Z</time>
      </trkpt>
      <trkpt lat="45.73832" lon="6.09804">
        <ele>564</ele>
        <time>2021-09-10T11:14:21.735Z</time>
      </trkpt>
      <trkpt lat="45.73827" lon="6.09804">
        <ele>565</ele>
        <time>2021-09-10T11:14:22.736Z</time>
      </trkpt>
      <trkpt lat="45.73823" lon="6.09805">
        <ele>565</ele>
        <time>2021-09-10T11:14:23.735Z</time>
      </trkpt>
      <trkpt lat="45.73819" lon="6.09805">
        <ele>566</ele>
        <time>2021-09-10T11:14:24.735Z</time>
      </trkpt>
      <trkpt lat="45.73815" lon="6.09805">
        <ele>566</ele>
        <time>2021-09-10T11:14:25.735Z</time>
      </trkpt>
      <trkpt lat="45.73811" lon="6.09805">
        <ele>566</ele>
        <time>2021-09-10T11:14:26.736Z</time>
      </trkpt>
      <trkpt lat="45.73807" lon="6.09805">
        <ele>566</ele>
        <time>2021-09-10T11:14:27.736Z</time>
      </trkpt>
      <trkpt lat="45.73802" lon="6.09805">
        <ele>565</ele>
        <time>2021-09-10T11:14:28.736Z</time>
      </trkpt>
      <trkpt lat="45.73798" lon="6.09805">
        <ele>565</ele>
        <time>2021-09-10T11:14:29.736Z</time>
      </trkpt>
      <trkpt lat="45.73794" lon="6.09805">
        <ele>565</ele>
        <time>2021-09-10T11:14:30.736Z</time>
      </trkpt>
      <trkpt lat="45.7379" lon="6.09805">
        <ele>565</ele>
        <time>2021-09-10T11:14:31.735Z</time>
      </trkpt>
      <trkpt lat="45.73786" lon="6.09805">
        <ele>565</ele>
        <time>2021-09-10T11:14:32.736Z</time>
      </trkpt>
      <trkpt lat="45.73782" lon="6.09805">
        <ele>564</ele>
        <time>2021-09-10T11:14:33.736Z</time>
      </trkpt>
      <trkpt lat="45.73777" lon="6.09805">
        <ele>564</ele>
        <time>2021-09-10T11:14:34.736Z</time>
      </trkpt>
      <trkpt lat="45.73773" lon="6.09806">
        <ele>564</ele>
        <time>2021-09-10T11:14:35.736Z</time>
      </trkpt>
      <trkpt lat="45.73769" lon="6.09806">
        <ele>564</ele>
        <time>2021-09-10T11:14:36.736Z</time>
      </trkpt>
      <trkpt lat="45.73764" lon="6.09806">
        <ele>564</ele>
        <time>2021-09-10T11:14:37.735Z</time>
      </trkpt>
      <trkpt lat="45.7376" lon="6.09806">
        <ele>564</ele>
        <time>2021-09-10T11:14:38.735Z</time>
      </trkpt>
      <trkpt lat="45.73756" lon="6.09806">
        <ele>564</ele>
        <time>2021-09-10T11:14:39.735Z</time>
      </trkpt>
      <trkpt lat="45.73752" lon="6.09806">
        <ele>563</ele>
        <time>2021-09-10T11:14:40.736Z</time>
      </trkpt>
      <trkpt lat="45.73747" lon="6.09806">
        <ele>564</ele>
        <time>2021-09-10T11:14:41.736Z</time>
      </trkpt>
      <trkpt lat="45.73743" lon="6.09806">
        <ele>563</ele>
        <time>2021-09-10T11:14:42.735Z</time>
      </trkpt>
      <trkpt lat="45.73739" lon="6.09806">
        <ele>563</ele>
        <time>2021-09-10T11:14:43.735Z</time>
      </trkpt>
      <trkpt lat="45.73735" lon="6.09806">
        <ele>563</ele>
        <time>2021-09-10T11:14:44.736Z</time>
      </trkpt>
      <trkpt lat="45.73731" lon="6.09806">
        <ele>563</ele>
        <time>2021-09-10T11:14:45.735Z</time>
      </trkpt>
      <trkpt lat="45.73727" lon="6.09806">
        <ele>564</ele>
        <time>2021-09-10T11:14:46.736Z</time>
      </trkpt>
      <trkpt lat="45.73723" lon="6.09807">
        <ele>564</ele>
        <time>2021-09-10T11:14:47.735Z</time>
      </trkpt>
      <trkpt lat="45.7372" lon="6.09807">
        <ele>565</ele>
        <time>2021-09-10T11:14:48.735Z</time>
      </trkpt>
      <trkpt lat="45.73716" lon="6.09807">
        <ele>566</ele>
        <time>2021-09-10T11:14:49.735Z</time>
      </trkpt>
      <trkpt lat="45.73712" lon="6.09807">
        <ele>566</ele>
        <time>2021-09-10T11:14:50.736Z</time>
      </trkpt>
      <trkpt lat="45.73708" lon="6.09807">
        <ele>566</ele>
        <time>2021-09-10T11:14:51.736Z</time>
      </trkpt>
      <trkpt lat="45.73704" lon="6.09807">
        <ele>566</ele>
        <time>2021-09-10T11:14:52.736Z</time>
      </trkpt>
      <trkpt lat="45.737" lon="6.09807">
        <ele>567</ele>
        <time>2021-09-10T11:14:53.736Z</time>
      </trkpt>
      <trkpt lat="45.73696" lon="6.09807">
        <ele>567</ele>
        <time>2021-09-10T11:14:54.735Z</time>
      </trkpt>
      <trkpt lat="45.73692" lon="6.09808">
        <ele>567</ele>
        <time>2021-09-10T11:14:55.735Z</time>
      </trkpt>
      <trkpt lat="45.73688" lon="6.09808">
        <ele>567</ele>
        <time>2021-09-10T11:14:56.736Z</time>
      </trkpt>
      <trkpt lat="45.73683" lon="6.09807">
        <ele>567</ele>
        <time>2021-09-10T11:14:57.736Z</time>
      </trkpt>
      <trkpt lat="45.73679" lon="6.09808">
        <ele>566</ele>
        <time>2021-09-10T11:14:58.736Z</time>
      </trkpt>
      <trkpt lat="45.73675" lon="6.09808">
        <ele>566</ele>
        <time>2021-09-10T11:14:59.736Z</time>
      </trkpt>
      <trkpt lat="45.73671" lon="6.09808">
        <ele>565</ele>
        <time>2021-09-10T11:15:00.736Z</time>
      </trkpt>
      <trkpt lat="45.73667" lon="6.09807">
        <ele>565</ele>
        <time>2021-09-10T11:15:01.735Z</time>
      </trkpt>
      <trkpt lat="45.73662" lon="6.09807">
        <ele>564</ele>
        <time>2021-09-10T11:15:02.736Z</time>
      </trkpt>
      <trkpt lat="45.73658" lon="6.09807">
        <ele>564</ele>
        <time>2021-09-10T11:15:03.735Z</time>
      </trkpt>
      <trkpt lat="45.73654" lon="6.09807">
        <ele>564</ele>
        <time>2021-09-10T11:15:04.736Z</time>
      </trkpt>
      <trkpt lat="45.7365" lon="6.09807">
        <ele>564</ele>
        <time>2021-09-10T11:15:05.735Z</time>
      </trkpt>
      <trkpt lat="45.73645" lon="6.09807">
        <ele>564</ele>
        <time>2021-09-10T11:15:06.736Z</time>
      </trkpt>
      <trkpt lat="45.73641" lon="6.09807">
        <ele>564</ele>
        <time>2021-09-10T11:15:07.735Z</time>
      </trkpt>
      <trkpt lat="45.73637" lon="6.09807">
        <ele>564</ele>
        <time>2021-09-10T11:15:08.735Z</time>
      </trkpt>
      <trkpt lat="45.73633" lon="6.09807">
        <ele>564</ele>
        <time>2021-09-10T11:15:09.735Z</time>
      </trkpt>
      <trkpt lat="45.73628" lon="6.09807">
        <ele>565</ele>
        <time>2021-09-10T11:15:10.736Z</time>
      </trkpt>
      <trkpt lat="45.73624" lon="6.09808">
        <ele>564</ele>
        <time>2021-09-10T11:15:11.735Z</time>
      </trkpt>
      <trkpt lat="45.7362" lon="6.09808">
        <ele>564</ele>
        <time>2021-09-10T11:15:12.736Z</time>
      </trkpt>
      <trkpt lat="45.73615" lon="6.09808">
        <ele>564</ele>
        <time>2021-09-10T11:15:13.735Z</time>
      </trkpt>
      <trkpt lat="45.73611" lon="6.09808">
        <ele>563</ele>
        <time>2021-09-10T11:15:14.736Z</time>
      </trkpt>
      <trkpt lat="45.73606" lon="6.09808">
        <ele>563</ele>
        <time>2021-09-10T11:15:15.736Z</time>
      </trkpt>
      <trkpt lat="45.73602" lon="6.09808">
        <ele>563</ele>
        <time>2021-09-10T11:15:16.736Z</time>
      </trkpt>
      <trkpt lat="45.73597" lon="6.09808">
        <ele>564</ele>
        <time>2021-09-10T11:15:17.736Z</time>
      </trkpt>
      <trkpt lat="45.73592" lon="6.09808">
        <ele>564</ele>
        <time>2021-09-10T11:15:18.736Z</time>
      </trkpt>
      <trkpt lat="45.73588" lon="6.09808">
        <ele>564</ele>
        <time>2021-09-10T11:15:19.735Z</time>
      </trkpt>
      <trkpt lat="45.73583" lon="6.09808">
        <ele>564</ele>
        <time>2021-09-10T11:15:20.736Z</time>
      </trkpt>
      <trkpt lat="45.73579" lon="6.09807">
        <ele>564</ele>
        <time>2021-09-10T11:15:21.735Z</time>
      </trkpt>
      <trkpt lat="45.73574" lon="6.09807">
        <ele>564</ele>
        <time>2021-09-10T11:15:22.736Z</time>
      </trkpt>
      <trkpt lat="45.73569" lon="6.09807">
        <ele>564</ele>
        <time>2021-09-10T11:15:23.736Z</time>
      </trkpt>
      <trkpt lat="45.73565" lon="6.09807">
        <ele>564</ele>
        <time>2021-09-10T11:15:24.736Z</time>
      </trkpt>
      <trkpt lat="45.7356" lon="6.09807">
        <ele>565</ele>
        <time>2021-09-10T11:15:25.735Z</time>
      </trkpt>
      <trkpt lat="45.73556" lon="6.09808">
        <ele>565</ele>
        <time>2021-09-10T11:15:26.735Z</time>
      </trkpt>
      <trkpt lat="45.73552" lon="6.09808">
        <ele>565</ele>
        <time>2021-09-10T11:15:27.735Z</time>
      </trkpt>
      <trkpt lat="45.73547" lon="6.09808">
        <ele>565</ele>
        <time>2021-09-10T11:15:28.736Z</time>
      </trkpt>
      <trkpt lat="45.73543" lon="6.09808">
        <ele>564</ele>
        <time>2021-09-10T11:15:29.735Z</time>
      </trkpt>
      <trkpt lat="45.73539" lon="6.09808">
        <ele>564</ele>
        <time>2021-09-10T11:15:30.736Z</time>
      </trkpt>
      <trkpt lat="45.73535" lon="6.09808">
        <ele>564</ele>
        <time>2021-09-10T11:15:31.736Z</time>
      </trkpt>
      <trkpt lat="45.73531" lon="6.09808">
        <ele>564</ele>
        <time>2021-09-10T11:15:32.736Z</time>
      </trkpt>
      <trkpt lat="45.73527" lon="6.09808">
        <ele>564</ele>
        <time>2021-09-10T11:15:33.735Z</time>
      </trkpt>
      <trkpt lat="45.73523" lon="6.09807">
        <ele>564</ele>
        <time>2021-09-10T11:15:34.736Z</time>
      </trkpt>
      <trkpt lat="45.73518" lon="6.09806">
        <ele>565</ele>
        <time>2021-09-10T11:15:35.735Z</time>
      </trkpt>
      <trkpt lat="45.73514" lon="6.09806">
        <ele>565</ele>
        <time>2021-09-10T11:15:36.736Z</time>
      </trkpt>
      <trkpt lat="45.7351" lon="6.09805">
        <ele>565</ele>
        <time>2021-09-10T11:15:37.736Z</time>
      </trkpt>
      <trkpt lat="45.73506" lon="6.09805">
        <ele>565</ele>
        <time>2021-09-10T11:15:38.736Z</time>
      </trkpt>
      <trkpt lat="45.73502" lon="6.09804">
        <ele>565</ele>
        <time>2021-09-10T11:15:39.735Z</time>
      </trkpt>
      <trkpt lat="45.73498" lon="6.09804">
        <ele>565</ele>
        <time>2021-09-10T11:15:40.736Z</time>
      </trkpt>
      <trkpt lat="45.73494" lon="6.09803">
        <ele>564</ele>
        <time>2021-09-10T11:15:41.735Z</time>
      </trkpt>
      <trkpt lat="45.73489" lon="6.09803">
        <ele>564</ele>
        <time>2021-09-10T11:15:42.736Z</time>
      </trkpt>
      <trkpt lat="45.73485" lon="6.09801">
        <ele>563</ele>
        <time>2021-09-10T11:15:43.736Z</time>
      </trkpt>
      <trkpt lat="45.73481" lon="6.098">
        <ele>563</ele>
        <time>2021-09-10T11:15:44.736Z</time>
      </trkpt>
      <trkpt lat="45.73477" lon="6.09799">
        <ele>563</ele>
        <time>2021-09-10T11:15:45.736Z</time>
      </trkpt>
      <trkpt lat="45.73473" lon="6.09798">
        <ele>563</ele>
        <time>2021-09-10T11:15:46.736Z</time>
      </trkpt>
      <trkpt lat="45.73468" lon="6.09796">
        <ele>563</ele>
        <time>2021-09-10T11:15:47.736Z</time>
      </trkpt>
      <trkpt lat="45.73464" lon="6.09795">
        <ele>563</ele>
        <time>2021-09-10T11:15:48.735Z</time>
      </trkpt>
      <trkpt lat="45.7346" lon="6.09794">
        <ele>563</ele>
        <time>2021-09-10T11:15:49.736Z</time>
      </trkpt>
      <trkpt lat="45.73456" lon="6.09792">
        <ele>563</ele>
        <time>2021-09-10T11:15:50.736Z</time>
      </trkpt>
      <trkpt lat="45.73452" lon="6.09791">
        <ele>563</ele>
        <time>2021-09-10T11:15:51.736Z</time>
      </trkpt>
      <trkpt lat="45.73447" lon="6.09789">
        <ele>563</ele>
        <time>2021-09-10T11:15:52.736Z</time>
      </trkpt>
      <trkpt lat="45.73443" lon="6.09787">
        <ele>563</ele>
        <time>2021-09-10T11:15:53.736Z</time>
      </trkpt>
      <trkpt lat="45.73439" lon="6.09785">
        <ele>563</ele>
        <time>2021-09-10T11:15:54.736Z</time>
      </trkpt>
      <trkpt lat="45.73434" lon="6.09784">
        <ele>563</ele>
        <time>2021-09-10T11:15:55.736Z</time>
      </trkpt>
      <trkpt lat="45.7343" lon="6.09782">
        <ele>562</ele>
        <time>2021-09-10T11:15:56.736Z</time>
      </trkpt>
      <trkpt lat="45.73426" lon="6.0978">
        <ele>562</ele>
        <time>2021-09-10T11:15:57.735Z</time>
      </trkpt>
      <trkpt lat="45.73422" lon="6.09779">
        <ele>562</ele>
        <time>2021-09-10T11:15:58.736Z</time>
      </trkpt>
      <trkpt lat="45.73418" lon="6.09777">
        <ele>562</ele>
        <time>2021-09-10T11:15:59.736Z</time>
      </trkpt>
      <trkpt lat="45.73414" lon="6.09774">
        <ele>561</ele>
        <time>2021-09-10T11:16:00.736Z</time>
      </trkpt>
      <trkpt lat="45.73411" lon="6.09773">
        <ele>561</ele>
        <time>2021-09-10T11:16:01.736Z</time>
      </trkpt>
      <trkpt lat="45.73407" lon="6.0977">
        <ele>561</ele>
        <time>2021-09-10T11:16:02.735Z</time>
      </trkpt>
      <trkpt lat="45.73402" lon="6.09767">
        <ele>561</ele>
        <time>2021-09-10T11:16:03.736Z</time>
      </trkpt>
      <trkpt lat="45.73398" lon="6.09765">
        <ele>561</ele>
        <time>2021-09-10T11:16:04.736Z</time>
      </trkpt>
      <trkpt lat="45.73394" lon="6.09762">
        <ele>561</ele>
        <time>2021-09-10T11:16:05.736Z</time>
      </trkpt>
      <trkpt lat="45.7339" lon="6.0976">
        <ele>561</ele>
        <time>2021-09-10T11:16:06.735Z</time>
      </trkpt>
      <trkpt lat="45.73386" lon="6.09757">
        <ele>561</ele>
        <time>2021-09-10T11:16:07.736Z</time>
      </trkpt>
      <trkpt lat="45.73382" lon="6.09753">
        <ele>561</ele>
        <time>2021-09-10T11:16:08.736Z</time>
      </trkpt>
      <trkpt lat="45.73378" lon="6.0975">
        <ele>561</ele>
        <time>2021-09-10T11:16:09.736Z</time>
      </trkpt>
      <trkpt lat="45.73375" lon="6.09747">
        <ele>561</ele>
        <time>2021-09-10T11:16:10.736Z</time>
      </trkpt>
      <trkpt lat="45.73372" lon="6.09744">
        <ele>562</ele>
        <time>2021-09-10T11:16:11.736Z</time>
      </trkpt>
      <trkpt lat="45.73368" lon="6.09741">
        <ele>562</ele>
        <time>2021-09-10T11:16:12.736Z</time>
      </trkpt>
      <trkpt lat="45.73365" lon="6.09738">
        <ele>562</ele>
        <time>2021-09-10T11:16:13.736Z</time>
      </trkpt>
      <trkpt lat="45.73362" lon="6.09734">
        <ele>562</ele>
        <time>2021-09-10T11:16:14.735Z</time>
      </trkpt>
      <trkpt lat="45.73359" lon="6.09731">
        <ele>563</ele>
        <time>2021-09-10T11:16:15.736Z</time>
      </trkpt>
      <trkpt lat="45.73356" lon="6.09727">
        <ele>563</ele>
        <time>2021-09-10T11:16:16.736Z</time>
      </trkpt>
      <trkpt lat="45.73353" lon="6.09724">
        <ele>563</ele>
        <time>2021-09-10T11:16:17.736Z</time>
      </trkpt>
      <trkpt lat="45.73349" lon="6.09721">
        <ele>564</ele>
        <time>2021-09-10T11:16:18.736Z</time>
      </trkpt>
      <trkpt lat="45.73346" lon="6.09718">
        <ele>564</ele>
        <time>2021-09-10T11:16:19.736Z</time>
      </trkpt>
      <trkpt lat="45.73342" lon="6.09714">
        <ele>565</ele>
        <time>2021-09-10T11:16:20.735Z</time>
      </trkpt>
      <trkpt lat="45.73339" lon="6.09711">
        <ele>566</ele>
        <time>2021-09-10T11:16:21.736Z</time>
      </trkpt>
      <trkpt lat="45.73336" lon="6.09708">
        <ele>567</ele>
        <time>2021-09-10T11:16:22.736Z</time>
      </trkpt>
      <trkpt lat="45.73332" lon="6.09705">
        <ele>568</ele>
        <time>2021-09-10T11:16:23.736Z</time>
      </trkpt>
      <trkpt lat="45.73329" lon="6.09702">
        <ele>569</ele>
        <time>2021-09-10T11:16:24.735Z</time>
      </trkpt>
      <trkpt lat="45.73326" lon="6.097">
        <ele>569</ele>
        <time>2021-09-10T11:16:25.735Z</time>
      </trkpt>
      <trkpt lat="45.73323" lon="6.09697">
        <ele>570</ele>
        <time>2021-09-10T11:16:26.735Z</time>
      </trkpt>
      <trkpt lat="45.7332" lon="6.09695">
        <ele>570</ele>
        <time>2021-09-10T11:16:27.736Z</time>
      </trkpt>
      <trkpt lat="45.73316" lon="6.09693">
        <ele>571</ele>
        <time>2021-09-10T11:16:28.736Z</time>
      </trkpt>
      <trkpt lat="45.73313" lon="6.0969">
        <ele>571</ele>
        <time>2021-09-10T11:16:29.736Z</time>
      </trkpt>
      <trkpt lat="45.73309" lon="6.09688">
        <ele>571</ele>
        <time>2021-09-10T11:16:30.736Z</time>
      </trkpt>
      <trkpt lat="45.73306" lon="6.09686">
        <ele>571</ele>
        <time>2021-09-10T11:16:31.736Z</time>
      </trkpt>
      <trkpt lat="45.73303" lon="6.09684">
        <ele>571</ele>
        <time>2021-09-10T11:16:32.736Z</time>
      </trkpt>
      <trkpt lat="45.733" lon="6.09683">
        <ele>571</ele>
        <time>2021-09-10T11:16:33.736Z</time>
      </trkpt>
      <trkpt lat="45.73297" lon="6.09682">
        <ele>571</ele>
        <time>2021-09-10T11:16:34.735Z</time>
      </trkpt>
      <trkpt lat="45.73294" lon="6.09681">
        <ele>571</ele>
        <time>2021-09-10T11:16:35.736Z</time>
      </trkpt>
      <trkpt lat="45.7329" lon="6.0968">
        <ele>571</ele>
        <time>2021-09-10T11:16:36.736Z</time>
      </trkpt>
      <trkpt lat="45.73287" lon="6.09679">
        <ele>571</ele>
        <time>2021-09-10T11:16:37.735Z</time>
      </trkpt>
      <trkpt lat="45.73283" lon="6.09678">
        <ele>571</ele>
        <time>2021-09-10T11:16:38.736Z</time>
      </trkpt>
      <trkpt lat="45.7328" lon="6.09677">
        <ele>572</ele>
        <time>2021-09-10T11:16:39.736Z</time>
      </trkpt>
      <trkpt lat="45.73276" lon="6.09676">
        <ele>572</ele>
        <time>2021-09-10T11:16:40.736Z</time>
      </trkpt>
      <trkpt lat="45.73273" lon="6.09674">
        <ele>573</ele>
        <time>2021-09-10T11:16:41.736Z</time>
      </trkpt>
      <trkpt lat="45.73269" lon="6.09674">
        <ele>573</ele>
        <time>2021-09-10T11:16:42.736Z</time>
      </trkpt>
      <trkpt lat="45.73266" lon="6.09673">
        <ele>573</ele>
        <time>2021-09-10T11:16:43.736Z</time>
      </trkpt>
      <trkpt lat="45.73262" lon="6.09673">
        <ele>573</ele>
        <time>2021-09-10T11:16:44.736Z</time>
      </trkpt>
      <trkpt lat="45.73259" lon="6.09672">
        <ele>573</ele>
        <time>2021-09-10T11:16:45.736Z</time>
      </trkpt>
      <trkpt lat="45.73255" lon="6.09671">
        <ele>574</ele>
        <time>2021-09-10T11:16:46.736Z</time>
      </trkpt>
      <trkpt lat="45.73252" lon="6.0967">
        <ele>574</ele>
        <time>2021-09-10T11:16:47.736Z</time>
      </trkpt>
      <trkpt lat="45.73249" lon="6.09669">
        <ele>575</ele>
        <time>2021-09-10T11:16:48.736Z</time>
      </trkpt>
      <trkpt lat="45.73245" lon="6.09668">
        <ele>575</ele>
        <time>2021-09-10T11:16:49.736Z</time>
      </trkpt>
      <trkpt lat="45.73241" lon="6.09667">
        <ele>575</ele>
        <time>2021-09-10T11:16:50.735Z</time>
      </trkpt>
      <trkpt lat="45.73238" lon="6.09666">
        <ele>575</ele>
        <time>2021-09-10T11:16:51.735Z</time>
      </trkpt>
      <trkpt lat="45.73235" lon="6.09665">
        <ele>576</ele>
        <time>2021-09-10T11:16:52.736Z</time>
      </trkpt>
      <trkpt lat="45.73232" lon="6.09664">
        <ele>577</ele>
        <time>2021-09-10T11:16:53.736Z</time>
      </trkpt>
      <trkpt lat="45.73228" lon="6.09663">
        <ele>578</ele>
        <time>2021-09-10T11:16:54.735Z</time>
      </trkpt>
      <trkpt lat="45.73225" lon="6.09662">
        <ele>579</ele>
        <time>2021-09-10T11:16:55.736Z</time>
      </trkpt>
      <trkpt lat="45.73222" lon="6.09661">
        <ele>580</ele>
        <time>2021-09-10T11:16:56.736Z</time>
      </trkpt>
      <trkpt lat="45.73219" lon="6.0966">
        <ele>581</ele>
        <time>2021-09-10T11:16:57.736Z</time>
      </trkpt>
      <trkpt lat="45.73215" lon="6.09659">
        <ele>582</ele>
        <time>2021-09-10T11:16:58.736Z</time>
      </trkpt>
      <trkpt lat="45.73212" lon="6.09658">
        <ele>583</ele>
        <time>2021-09-10T11:16:59.736Z</time>
      </trkpt>
      <trkpt lat="45.73209" lon="6.09657">
        <ele>584</ele>
        <time>2021-09-10T11:17:00.735Z</time>
      </trkpt>
      <trkpt lat="45.73205" lon="6.09656">
        <ele>585</ele>
        <time>2021-09-10T11:17:01.736Z</time>
      </trkpt>
      <trkpt lat="45.73202" lon="6.09655">
        <ele>586</ele>
        <time>2021-09-10T11:17:02.736Z</time>
      </trkpt>
      <trkpt lat="45.73198" lon="6.09654">
        <ele>587</ele>
        <time>2021-09-10T11:17:03.735Z</time>
      </trkpt>
      <trkpt lat="45.73195" lon="6.09653">
        <ele>588</ele>
        <time>2021-09-10T11:17:04.736Z</time>
      </trkpt>
      <trkpt lat="45.73191" lon="6.09653">
        <ele>589</ele>
        <time>2021-09-10T11:17:05.736Z</time>
      </trkpt>
      <trkpt lat="45.73188" lon="6.09652">
        <ele>590</ele>
        <time>2021-09-10T11:17:06.736Z</time>
      </trkpt>
      <trkpt lat="45.73184" lon="6.09651">
        <ele>590</ele>
        <time>2021-09-10T11:17:07.736Z</time>
      </trkpt>
      <trkpt lat="45.7318" lon="6.0965">
        <ele>591</ele>
        <time>2021-09-10T11:17:08.735Z</time>
      </trkpt>
      <trkpt lat="45.73177" lon="6.09648">
        <ele>591</ele>
        <time>2021-09-10T11:17:09.736Z</time>
      </trkpt>
      <trkpt lat="45.73173" lon="6.09647">
        <ele>591</ele>
        <time>2021-09-10T11:17:10.736Z</time>
      </trkpt>
      <trkpt lat="45.73169" lon="6.09646">
        <ele>591</ele>
        <time>2021-09-10T11:17:11.735Z</time>
      </trkpt>
      <trkpt lat="45.73166" lon="6.09645">
        <ele>591</ele>
        <time>2021-09-10T11:17:12.736Z</time>
      </trkpt>
      <trkpt lat="45.73162" lon="6.09644">
        <ele>591</ele>
        <time>2021-09-10T11:17:13.736Z</time>
      </trkpt>
      <trkpt lat="45.73158" lon="6.09642">
        <ele>591</ele>
        <time>2021-09-10T11:17:14.735Z</time>
      </trkpt>
      <trkpt lat="45.73154" lon="6.09641">
        <ele>591</ele>
        <time>2021-09-10T11:17:15.736Z</time>
      </trkpt>
      <trkpt lat="45.73149" lon="6.09639">
        <ele>591</ele>
        <time>2021-09-10T11:17:16.736Z</time>
      </trkpt>
      <trkpt lat="45.73145" lon="6.09638">
        <ele>591</ele>
        <time>2021-09-10T11:17:17.736Z</time>
      </trkpt>
      <trkpt lat="45.7314" lon="6.09637">
        <ele>591</ele>
        <time>2021-09-10T11:17:18.736Z</time>
      </trkpt>
      <trkpt lat="45.73136" lon="6.09637">
        <ele>591</ele>
        <time>2021-09-10T11:17:19.735Z</time>
      </trkpt>
      <trkpt lat="45.73131" lon="6.09636">
        <ele>591</ele>
        <time>2021-09-10T11:17:20.736Z</time>
      </trkpt>
      <trkpt lat="45.73127" lon="6.09635">
        <ele>591</ele>
        <time>2021-09-10T11:17:21.736Z</time>
      </trkpt>
      <trkpt lat="45.73122" lon="6.09633">
        <ele>590</ele>
        <time>2021-09-10T11:17:22.736Z</time>
      </trkpt>
      <trkpt lat="45.73117" lon="6.09631">
        <ele>590</ele>
        <time>2021-09-10T11:17:23.736Z</time>
      </trkpt>
      <trkpt lat="45.73112" lon="6.09629">
        <ele>590</ele>
        <time>2021-09-10T11:17:24.736Z</time>
      </trkpt>
      <trkpt lat="45.73108" lon="6.09626">
        <ele>590</ele>
        <time>2021-09-10T11:17:25.735Z</time>
      </trkpt>
      <trkpt lat="45.73103" lon="6.09624">
        <ele>589</ele>
        <time>2021-09-10T11:17:26.735Z</time>
      </trkpt>
      <trkpt lat="45.73098" lon="6.09622">
        <ele>589</ele>
        <time>2021-09-10T11:17:27.736Z</time>
      </trkpt>
      <trkpt lat="45.73093" lon="6.09619">
        <ele>588</ele>
        <time>2021-09-10T11:17:28.736Z</time>
      </trkpt>
      <trkpt lat="45.73087" lon="6.09615">
        <ele>588</ele>
        <time>2021-09-10T11:17:29.736Z</time>
      </trkpt>
      <trkpt lat="45.73081" lon="6.09612">
        <ele>588</ele>
        <time>2021-09-10T11:17:30.735Z</time>
      </trkpt>
      <trkpt lat="45.73076" lon="6.09608">
        <ele>587</ele>
        <time>2021-09-10T11:17:31.735Z</time>
      </trkpt>
      <trkpt lat="45.7307" lon="6.09604">
        <ele>587</ele>
        <time>2021-09-10T11:17:32.736Z</time>
      </trkpt>
      <trkpt lat="45.73064" lon="6.096">
        <ele>586</ele>
        <time>2021-09-10T11:17:33.735Z</time>
      </trkpt>
      <trkpt lat="45.73058" lon="6.09595">
        <ele>585</ele>
        <time>2021-09-10T11:17:34.736Z</time>
      </trkpt>
      <trkpt lat="45.73052" lon="6.09591">
        <ele>583</ele>
        <time>2021-09-10T11:17:35.736Z</time>
      </trkpt>
      <trkpt lat="45.73046" lon="6.09587">
        <ele>582</ele>
        <time>2021-09-10T11:17:36.735Z</time>
      </trkpt>
      <trkpt lat="45.7304" lon="6.09582">
        <ele>581</ele>
        <time>2021-09-10T11:17:37.736Z</time>
      </trkpt>
      <trkpt lat="45.73034" lon="6.09578">
        <ele>580</ele>
        <time>2021-09-10T11:17:38.736Z</time>
      </trkpt>
      <trkpt lat="45.73028" lon="6.09573">
        <ele>579</ele>
        <time>2021-09-10T11:17:39.736Z</time>
      </trkpt>
      <trkpt lat="45.73023" lon="6.09569">
        <ele>578</ele>
        <time>2021-09-10T11:17:40.736Z</time>
      </trkpt>
      <trkpt lat="45.73017" lon="6.09565">
        <ele>577</ele>
        <time>2021-09-10T11:17:41.736Z</time>
      </trkpt>
      <trkpt lat="45.73012" lon="6.09561">
        <ele>576</ele>
        <time>2021-09-10T11:17:42.735Z</time>
      </trkpt>
      <trkpt lat="45.73007" lon="6.09557">
        <ele>576</ele>
        <time>2021-09-10T11:17:43.736Z</time>
      </trkpt>
      <trkpt lat="45.73002" lon="6.09553">
        <ele>575</ele>
        <time>2021-09-10T11:17:44.736Z</time>
      </trkpt>
      <trkpt lat="45.72997" lon="6.0955">
        <ele>575</ele>
        <time>2021-09-10T11:17:45.736Z</time>
      </trkpt>
      <trkpt lat="45.72992" lon="6.09546">
        <ele>574</ele>
        <time>2021-09-10T11:17:46.735Z</time>
      </trkpt>
      <trkpt lat="45.72988" lon="6.09542">
        <ele>573</ele>
        <time>2021-09-10T11:17:47.736Z</time>
      </trkpt>
      <trkpt lat="45.72983" lon="6.09539">
        <ele>573</ele>
        <time>2021-09-10T11:17:48.736Z</time>
      </trkpt>
      <trkpt lat="45.72978" lon="6.09535">
        <ele>572</ele>
        <time>2021-09-10T11:17:49.736Z</time>
      </trkpt>
      <trkpt lat="45.72974" lon="6.09532">
        <ele>572</ele>
        <time>2021-09-10T11:17:50.736Z</time>
      </trkpt>
      <trkpt lat="45.72969" lon="6.09528">
        <ele>572</ele>
        <time>2021-09-10T11:17:51.736Z</time>
      </trkpt>
      <trkpt lat="45.72965" lon="6.09525">
        <ele>572</ele>
        <time>2021-09-10T11:17:52.736Z</time>
      </trkpt>
      <trkpt lat="45.7296" lon="6.09522">
        <ele>572</ele>
        <time>2021-09-10T11:17:53.736Z</time>
      </trkpt>
      <trkpt lat="45.72956" lon="6.09519">
        <ele>572</ele>
        <time>2021-09-10T11:17:54.736Z</time>
      </trkpt>
      <trkpt lat="45.72951" lon="6.09517">
        <ele>572</ele>
        <time>2021-09-10T11:17:55.736Z</time>
      </trkpt>
      <trkpt lat="45.72946" lon="6.09515">
        <ele>572</ele>
        <time>2021-09-10T11:17:56.736Z</time>
      </trkpt>
      <trkpt lat="45.72941" lon="6.09513">
        <ele>572</ele>
        <time>2021-09-10T11:17:57.735Z</time>
      </trkpt>
      <trkpt lat="45.72936" lon="6.09512">
        <ele>572</ele>
        <time>2021-09-10T11:17:58.735Z</time>
      </trkpt>
      <trkpt lat="45.72932" lon="6.09511">
        <ele>572</ele>
        <time>2021-09-10T11:17:59.736Z</time>
      </trkpt>
      <trkpt lat="45.72927" lon="6.09511">
        <ele>573</ele>
        <time>2021-09-10T11:18:00.735Z</time>
      </trkpt>
      <trkpt lat="45.72922" lon="6.09511">
        <ele>573</ele>
        <time>2021-09-10T11:18:01.736Z</time>
      </trkpt>
      <trkpt lat="45.72917" lon="6.09511">
        <ele>574</ele>
        <time>2021-09-10T11:18:02.736Z</time>
      </trkpt>
      <trkpt lat="45.72912" lon="6.09511">
        <ele>575</ele>
        <time>2021-09-10T11:18:03.736Z</time>
      </trkpt>
      <trkpt lat="45.72908" lon="6.09511">
        <ele>575</ele>
        <time>2021-09-10T11:18:04.735Z</time>
      </trkpt>
      <trkpt lat="45.72904" lon="6.09512">
        <ele>576</ele>
        <time>2021-09-10T11:18:05.736Z</time>
      </trkpt>
      <trkpt lat="45.72899" lon="6.09512">
        <ele>576</ele>
        <time>2021-09-10T11:18:06.736Z</time>
      </trkpt>
      <trkpt lat="45.72895" lon="6.09513">
        <ele>577</ele>
        <time>2021-09-10T11:18:07.736Z</time>
      </trkpt>
      <trkpt lat="45.7289" lon="6.09514">
        <ele>577</ele>
        <time>2021-09-10T11:18:08.736Z</time>
      </trkpt>
      <trkpt lat="45.72886" lon="6.09515">
        <ele>577</ele>
        <time>2021-09-10T11:18:09.736Z</time>
      </trkpt>
      <trkpt lat="45.72882" lon="6.09517">
        <ele>578</ele>
        <time>2021-09-10T11:18:10.735Z</time>
      </trkpt>
      <trkpt lat="45.72878" lon="6.09519">
        <ele>578</ele>
        <time>2021-09-10T11:18:11.736Z</time>
      </trkpt>
      <trkpt lat="45.72874" lon="6.09521">
        <ele>579</ele>
        <time>2021-09-10T11:18:12.736Z</time>
      </trkpt>
      <trkpt lat="45.72871" lon="6.09524">
        <ele>579</ele>
        <time>2021-09-10T11:18:13.736Z</time>
      </trkpt>
      <trkpt lat="45.72867" lon="6.09526">
        <ele>579</ele>
        <time>2021-09-10T11:18:14.735Z</time>
      </trkpt>
      <trkpt lat="45.72864" lon="6.09528">
        <ele>579</ele>
        <time>2021-09-10T11:18:15.735Z</time>
      </trkpt>
      <trkpt lat="45.7286" lon="6.09531">
        <ele>579</ele>
        <time>2021-09-10T11:18:16.735Z</time>
      </trkpt>
      <trkpt lat="45.72856" lon="6.09534">
        <ele>578</ele>
        <time>2021-09-10T11:18:17.735Z</time>
      </trkpt>
      <trkpt lat="45.72853" lon="6.09538">
        <ele>578</ele>
        <time>2021-09-10T11:18:18.736Z</time>
      </trkpt>
      <trkpt lat="45.72849" lon="6.09541">
        <ele>578</ele>
        <time>2021-09-10T11:18:19.736Z</time>
      </trkpt>
      <trkpt lat="45.72846" lon="6.09544">
        <ele>578</ele>
        <time>2021-09-10T11:18:20.735Z</time>
      </trkpt>
      <trkpt lat="45.72842" lon="6.09547">
        <ele>578</ele>
        <time>2021-09-10T11:18:21.735Z</time>
      </trkpt>
      <trkpt lat="45.72838" lon="6.09551">
        <ele>578</ele>
        <time>2021-09-10T11:18:22.736Z</time>
      </trkpt>
      <trkpt lat="45.72834" lon="6.09554">
        <ele>579</ele>
        <time>2021-09-10T11:18:23.736Z</time>
      </trkpt>
      <trkpt lat="45.72829" lon="6.09556">
        <ele>579</ele>
        <time>2021-09-10T11:18:24.736Z</time>
      </trkpt>
      <trkpt lat="45.72825" lon="6.09559">
        <ele>579</ele>
        <time>2021-09-10T11:18:25.736Z</time>
      </trkpt>
      <trkpt lat="45.72821" lon="6.09561">
        <ele>580</ele>
        <time>2021-09-10T11:18:26.736Z</time>
      </trkpt>
      <trkpt lat="45.72816" lon="6.09563">
        <ele>580</ele>
        <time>2021-09-10T11:18:27.736Z</time>
      </trkpt>
      <trkpt lat="45.72811" lon="6.09565">
        <ele>581</ele>
        <time>2021-09-10T11:18:28.736Z</time>
      </trkpt>
      <trkpt lat="45.72807" lon="6.09566">
        <ele>581</ele>
        <time>2021-09-10T11:18:29.736Z</time>
      </trkpt>
      <trkpt lat="45.72803" lon="6.09568">
        <ele>581</ele>
        <time>2021-09-10T11:18:30.736Z</time>
      </trkpt>
      <trkpt lat="45.72799" lon="6.09568">
        <ele>580</ele>
        <time>2021-09-10T11:18:31.735Z</time>
      </trkpt>
      <trkpt lat="45.72795" lon="6.09569">
        <ele>580</ele>
        <time>2021-09-10T11:18:32.736Z</time>
      </trkpt>
      <trkpt lat="45.72792" lon="6.09569">
        <ele>580</ele>
        <time>2021-09-10T11:18:33.735Z</time>
      </trkpt>
      <trkpt lat="45.72788" lon="6.09569">
        <ele>580</ele>
        <time>2021-09-10T11:18:34.735Z</time>
      </trkpt>
      <trkpt lat="45.72784" lon="6.09568">
        <ele>579</ele>
        <time>2021-09-10T11:18:35.736Z</time>
      </trkpt>
      <trkpt lat="45.7278" lon="6.09567">
        <ele>579</ele>
        <time>2021-09-10T11:18:36.736Z</time>
      </trkpt>
      <trkpt lat="45.72776" lon="6.09567">
        <ele>579</ele>
        <time>2021-09-10T11:18:37.736Z</time>
      </trkpt>
      <trkpt lat="45.72772" lon="6.09567">
        <ele>579</ele>
        <time>2021-09-10T11:18:38.736Z</time>
      </trkpt>
      <trkpt lat="45.72768" lon="6.09566">
        <ele>579</ele>
        <time>2021-09-10T11:18:39.736Z</time>
      </trkpt>
      <trkpt lat="45.72764" lon="6.09566">
        <ele>579</ele>
        <time>2021-09-10T11:18:40.736Z</time>
      </trkpt>
      <trkpt lat="45.7276" lon="6.09565">
        <ele>579</ele>
        <time>2021-09-10T11:18:41.736Z</time>
      </trkpt>
      <trkpt lat="45.72755" lon="6.09564">
        <ele>580</ele>
        <time>2021-09-10T11:18:42.736Z</time>
      </trkpt>
      <trkpt lat="45.72751" lon="6.09564">
        <ele>580</ele>
        <time>2021-09-10T11:18:43.736Z</time>
      </trkpt>
      <trkpt lat="45.72747" lon="6.09563">
        <ele>580</ele>
        <time>2021-09-10T11:18:44.736Z</time>
      </trkpt>
      <trkpt lat="45.72743" lon="6.09561">
        <ele>580</ele>
        <time>2021-09-10T11:18:45.736Z</time>
      </trkpt>
      <trkpt lat="45.72739" lon="6.09561">
        <ele>580</ele>
        <time>2021-09-10T11:18:46.736Z</time>
      </trkpt>
      <trkpt lat="45.72735" lon="6.0956">
        <ele>579</ele>
        <time>2021-09-10T11:18:47.736Z</time>
      </trkpt>
      <trkpt lat="45.72731" lon="6.09559">
        <ele>579</ele>
        <time>2021-09-10T11:18:48.736Z</time>
      </trkpt>
      <trkpt lat="45.72728" lon="6.09559">
        <ele>579</ele>
        <time>2021-09-10T11:18:49.735Z</time>
      </trkpt>
      <trkpt lat="45.72723" lon="6.09559">
        <ele>579</ele>
        <time>2021-09-10T11:18:50.735Z</time>
      </trkpt>
      <trkpt lat="45.72719" lon="6.09558">
        <ele>579</ele>
        <time>2021-09-10T11:18:51.736Z</time>
      </trkpt>
      <trkpt lat="45.72714" lon="6.09558">
        <ele>580</ele>
        <time>2021-09-10T11:18:52.736Z</time>
      </trkpt>
      <trkpt lat="45.7271" lon="6.09557">
        <ele>580</ele>
        <time>2021-09-10T11:18:53.736Z</time>
      </trkpt>
      <trkpt lat="45.72706" lon="6.09557">
        <ele>581</ele>
        <time>2021-09-10T11:18:54.736Z</time>
      </trkpt>
      <trkpt lat="45.72701" lon="6.09556">
        <ele>581</ele>
        <time>2021-09-10T11:18:55.735Z</time>
      </trkpt>
      <trkpt lat="45.72697" lon="6.09555">
        <ele>582</ele>
        <time>2021-09-10T11:18:56.735Z</time>
      </trkpt>
      <trkpt lat="45.72693" lon="6.09553">
        <ele>582</ele>
        <time>2021-09-10T11:18:57.736Z</time>
      </trkpt>
      <trkpt lat="45.72689" lon="6.09552">
        <ele>582</ele>
        <time>2021-09-10T11:18:58.736Z</time>
      </trkpt>
      <trkpt lat="45.72685" lon="6.09551">
        <ele>583</ele>
        <time>2021-09-10T11:18:59.736Z</time>
      </trkpt>
      <trkpt lat="45.72681" lon="6.09551">
        <ele>583</ele>
        <time>2021-09-10T11:19:00.736Z</time>
      </trkpt>
      <trkpt lat="45.72676" lon="6.09552">
        <ele>584</ele>
        <time>2021-09-10T11:19:01.735Z</time>
      </trkpt>
      <trkpt lat="45.72672" lon="6.09551">
        <ele>585</ele>
        <time>2021-09-10T11:19:02.736Z</time>
      </trkpt>
      <trkpt lat="45.72668" lon="6.0955">
        <ele>586</ele>
        <time>2021-09-10T11:19:03.736Z</time>
      </trkpt>
      <trkpt lat="45.72664" lon="6.09549">
        <ele>586</ele>
        <time>2021-09-10T11:19:04.735Z</time>
      </trkpt>
      <trkpt lat="45.7266" lon="6.09548">
        <ele>587</ele>
        <time>2021-09-10T11:19:05.735Z</time>
      </trkpt>
      <trkpt lat="45.72656" lon="6.09547">
        <ele>587</ele>
        <time>2021-09-10T11:19:06.735Z</time>
      </trkpt>
      <trkpt lat="45.72652" lon="6.09546">
        <ele>587</ele>
        <time>2021-09-10T11:19:07.736Z</time>
      </trkpt>
      <trkpt lat="45.72648" lon="6.09546">
        <ele>588</ele>
        <time>2021-09-10T11:19:08.736Z</time>
      </trkpt>
      <trkpt lat="45.72643" lon="6.09545">
        <ele>589</ele>
        <time>2021-09-10T11:19:09.736Z</time>
      </trkpt>
      <trkpt lat="45.72639" lon="6.09544">
        <ele>590</ele>
        <time>2021-09-10T11:19:10.735Z</time>
      </trkpt>
      <trkpt lat="45.72635" lon="6.09543">
        <ele>590</ele>
        <time>2021-09-10T11:19:11.736Z</time>
      </trkpt>
      <trkpt lat="45.72632" lon="6.09542">
        <ele>590</ele>
        <time>2021-09-10T11:19:12.736Z</time>
      </trkpt>
      <trkpt lat="45.72628" lon="6.09541">
        <ele>590</ele>
        <time>2021-09-10T11:19:13.736Z</time>
      </trkpt>
      <trkpt lat="45.72624" lon="6.0954">
        <ele>590</ele>
        <time>2021-09-10T11:19:14.736Z</time>
      </trkpt>
      <trkpt lat="45.72621" lon="6.0954">
        <ele>590</ele>
        <time>2021-09-10T11:19:15.736Z</time>
      </trkpt>
      <trkpt lat="45.72617" lon="6.09539">
        <ele>590</ele>
        <time>2021-09-10T11:19:16.736Z</time>
      </trkpt>
      <trkpt lat="45.72614" lon="6.09538">
        <ele>590</ele>
        <time>2021-09-10T11:19:17.736Z</time>
      </trkpt>
      <trkpt lat="45.7261" lon="6.09537">
        <ele>591</ele>
        <time>2021-09-10T11:19:18.736Z</time>
      </trkpt>
      <trkpt lat="45.72607" lon="6.09536">
        <ele>592</ele>
        <time>2021-09-10T11:19:19.736Z</time>
      </trkpt>
      <trkpt lat="45.72604" lon="6.09535">
        <ele>592</ele>
        <time>2021-09-10T11:19:20.736Z</time>
      </trkpt>
      <trkpt lat="45.726" lon="6.09533">
        <ele>591</ele>
        <time>2021-09-10T11:19:21.736Z</time>
      </trkpt>
      <trkpt lat="45.72597" lon="6.09532">
        <ele>590</ele>
        <time>2021-09-10T11:19:22.735Z</time>
      </trkpt>
      <trkpt lat="45.72594" lon="6.0953">
        <ele>589</ele>
        <time>2021-09-10T11:19:23.736Z</time>
      </trkpt>
      <trkpt lat="45.7259" lon="6.09528">
        <ele>588</ele>
        <time>2021-09-10T11:19:24.736Z</time>
      </trkpt>
      <trkpt lat="45.72588" lon="6.09526">
        <ele>587</ele>
        <time>2021-09-10T11:19:25.736Z</time>
      </trkpt>
      <trkpt lat="45.72585" lon="6.09524">
        <ele>586</ele>
        <time>2021-09-10T11:19:26.735Z</time>
      </trkpt>
      <trkpt lat="45.72582" lon="6.09522">
        <ele>585</ele>
        <time>2021-09-10T11:19:27.735Z</time>
      </trkpt>
      <trkpt lat="45.72579" lon="6.09519">
        <ele>584</ele>
        <time>2021-09-10T11:19:28.736Z</time>
      </trkpt>
      <trkpt lat="45.72576" lon="6.09517">
        <ele>584</ele>
        <time>2021-09-10T11:19:29.736Z</time>
      </trkpt>
      <trkpt lat="45.72573" lon="6.09514">
        <ele>584</ele>
        <time>2021-09-10T11:19:30.736Z</time>
      </trkpt>
      <trkpt lat="45.72571" lon="6.09512">
        <ele>584</ele>
        <time>2021-09-10T11:19:31.736Z</time>
      </trkpt>
      <trkpt lat="45.72568" lon="6.0951">
        <ele>584</ele>
        <time>2021-09-10T11:19:32.736Z</time>
      </trkpt>
      <trkpt lat="45.72565" lon="6.09507">
        <ele>583</ele>
        <time>2021-09-10T11:19:33.735Z</time>
      </trkpt>
      <trkpt lat="45.72563" lon="6.09505">
        <ele>583</ele>
        <time>2021-09-10T11:19:34.736Z</time>
      </trkpt>
      <trkpt lat="45.7256" lon="6.09503">
        <ele>584</ele>
        <time>2021-09-10T11:19:35.735Z</time>
      </trkpt>
      <trkpt lat="45.72557" lon="6.09501">
        <ele>584</ele>
        <time>2021-09-10T11:19:36.736Z</time>
      </trkpt>
      <trkpt lat="45.72554" lon="6.09499">
        <ele>583</ele>
        <time>2021-09-10T11:19:37.736Z</time>
      </trkpt>
      <trkpt lat="45.72552" lon="6.09497">
        <ele>583</ele>
        <time>2021-09-10T11:19:38.736Z</time>
      </trkpt>
      <trkpt lat="45.72549" lon="6.09496">
        <ele>583</ele>
        <time>2021-09-10T11:19:39.735Z</time>
      </trkpt>
      <trkpt lat="45.72546" lon="6.09495">
        <ele>583</ele>
        <time>2021-09-10T11:19:40.736Z</time>
      </trkpt>
      <trkpt lat="45.72543" lon="6.09495">
        <ele>583</ele>
        <time>2021-09-10T11:19:41.736Z</time>
      </trkpt>
      <trkpt lat="45.7254" lon="6.09494">
        <ele>583</ele>
        <time>2021-09-10T11:19:42.736Z</time>
      </trkpt>
      <trkpt lat="45.72537" lon="6.09494">
        <ele>583</ele>
        <time>2021-09-10T11:19:43.735Z</time>
      </trkpt>
      <trkpt lat="45.72533" lon="6.09494">
        <ele>584</ele>
        <time>2021-09-10T11:19:44.736Z</time>
      </trkpt>
      <trkpt lat="45.7253" lon="6.09494">
        <ele>584</ele>
        <time>2021-09-10T11:19:45.736Z</time>
      </trkpt>
      <trkpt lat="45.72527" lon="6.09495">
        <ele>584</ele>
        <time>2021-09-10T11:19:46.736Z</time>
      </trkpt>
      <trkpt lat="45.72524" lon="6.09496">
        <ele>584</ele>
        <time>2021-09-10T11:19:47.736Z</time>
      </trkpt>
      <trkpt lat="45.72521" lon="6.09496">
        <ele>583</ele>
        <time>2021-09-10T11:19:48.736Z</time>
      </trkpt>
      <trkpt lat="45.72518" lon="6.09498">
        <ele>583</ele>
        <time>2021-09-10T11:19:49.736Z</time>
      </trkpt>
      <trkpt lat="45.72515" lon="6.09499">
        <ele>584</ele>
        <time>2021-09-10T11:19:50.736Z</time>
      </trkpt>
      <trkpt lat="45.72512" lon="6.095">
        <ele>584</ele>
        <time>2021-09-10T11:19:51.736Z</time>
      </trkpt>
      <trkpt lat="45.72509" lon="6.09501">
        <ele>584</ele>
        <time>2021-09-10T11:19:52.736Z</time>
      </trkpt>
      <trkpt lat="45.72506" lon="6.09502">
        <ele>584</ele>
        <time>2021-09-10T11:19:53.736Z</time>
      </trkpt>
      <trkpt lat="45.72503" lon="6.09504">
        <ele>584</ele>
        <time>2021-09-10T11:19:54.735Z</time>
      </trkpt>
      <trkpt lat="45.72501" lon="6.09506">
        <ele>584</ele>
        <time>2021-09-10T11:19:55.736Z</time>
      </trkpt>
      <trkpt lat="45.72499" lon="6.09508">
        <ele>584</ele>
        <time>2021-09-10T11:19:56.736Z</time>
      </trkpt>
      <trkpt lat="45.72497" lon="6.0951">
        <ele>585</ele>
        <time>2021-09-10T11:19:57.736Z</time>
      </trkpt>
      <trkpt lat="45.72494" lon="6.09512">
        <ele>585</ele>
        <time>2021-09-10T11:19:58.736Z</time>
      </trkpt>
      <trkpt lat="45.72492" lon="6.09514">
        <ele>586</ele>
        <time>2021-09-10T11:19:59.736Z</time>
      </trkpt>
      <trkpt lat="45.7249" lon="6.09516">
        <ele>586</ele>
        <time>2021-09-10T11:20:00.735Z</time>
      </trkpt>
      <trkpt lat="45.72488" lon="6.09518">
        <ele>586</ele>
        <time>2021-09-10T11:20:01.736Z</time>
      </trkpt>
      <trkpt lat="45.72487" lon="6.0952">
        <ele>586</ele>
        <time>2021-09-10T11:20:02.736Z</time>
      </trkpt>
      <trkpt lat="45.72485" lon="6.09522">
        <ele>585</ele>
        <time>2021-09-10T11:20:03.735Z</time>
      </trkpt>
      <trkpt lat="45.72484" lon="6.09524">
        <ele>585</ele>
        <time>2021-09-10T11:20:04.736Z</time>
      </trkpt>
      <trkpt lat="45.72482" lon="6.09526">
        <ele>585</ele>
        <time>2021-09-10T11:20:05.735Z</time>
      </trkpt>
      <trkpt lat="45.7248" lon="6.09529">
        <ele>586</ele>
        <time>2021-09-10T11:20:06.736Z</time>
      </trkpt>
      <trkpt lat="45.72478" lon="6.09531">
        <ele>586</ele>
        <time>2021-09-10T11:20:07.736Z</time>
      </trkpt>
      <trkpt lat="45.72476" lon="6.09534">
        <ele>586</ele>
        <time>2021-09-10T11:20:08.736Z</time>
      </trkpt>
      <trkpt lat="45.72474" lon="6.09537">
        <ele>586</ele>
        <time>2021-09-10T11:20:09.736Z</time>
      </trkpt>
      <trkpt lat="45.72471" lon="6.0954">
        <ele>587</ele>
        <time>2021-09-10T11:20:10.736Z</time>
      </trkpt>
      <trkpt lat="45.72468" lon="6.09543">
        <ele>587</ele>
        <time>2021-09-10T11:20:11.735Z</time>
      </trkpt>
      <trkpt lat="45.72466" lon="6.09545">
        <ele>587</ele>
        <time>2021-09-10T11:20:12.736Z</time>
      </trkpt>
      <trkpt lat="45.72463" lon="6.09548">
        <ele>586</ele>
        <time>2021-09-10T11:20:13.736Z</time>
      </trkpt>
      <trkpt lat="45.72461" lon="6.09551">
        <ele>586</ele>
        <time>2021-09-10T11:20:14.735Z</time>
      </trkpt>
      <trkpt lat="45.72459" lon="6.09554">
        <ele>586</ele>
        <time>2021-09-10T11:20:15.736Z</time>
      </trkpt>
      <trkpt lat="45.72457" lon="6.09557">
        <ele>586</ele>
        <time>2021-09-10T11:20:16.735Z</time>
      </trkpt>
      <trkpt lat="45.72455" lon="6.09559">
        <ele>586</ele>
        <time>2021-09-10T11:20:17.736Z</time>
      </trkpt>
      <trkpt lat="45.72453" lon="6.09562">
        <ele>586</ele>
        <time>2021-09-10T11:20:18.736Z</time>
      </trkpt>
      <trkpt lat="45.72451" lon="6.09564">
        <ele>585</ele>
        <time>2021-09-10T11:20:19.736Z</time>
      </trkpt>
      <trkpt lat="45.72449" lon="6.09567">
        <ele>584</ele>
        <time>2021-09-10T11:20:20.736Z</time>
      </trkpt>
      <trkpt lat="45.72446" lon="6.0957">
        <ele>584</ele>
        <time>2021-09-10T11:20:21.736Z</time>
      </trkpt>
      <trkpt lat="45.72444" lon="6.09573">
        <ele>583</ele>
        <time>2021-09-10T11:20:22.735Z</time>
      </trkpt>
      <trkpt lat="45.72442" lon="6.09576">
        <ele>583</ele>
        <time>2021-09-10T11:20:23.736Z</time>
      </trkpt>
      <trkpt lat="45.7244" lon="6.09578">
        <ele>582</ele>
        <time>2021-09-10T11:20:24.735Z</time>
      </trkpt>
      <trkpt lat="45.72438" lon="6.09581">
        <ele>582</ele>
        <time>2021-09-10T11:20:25.735Z</time>
      </trkpt>
      <trkpt lat="45.72435" lon="6.09584">
        <ele>582</ele>
        <time>2021-09-10T11:20:26.735Z</time>
      </trkpt>
      <trkpt lat="45.72433" lon="6.09587">
        <ele>582</ele>
        <time>2021-09-10T11:20:27.736Z</time>
      </trkpt>
      <trkpt lat="45.72431" lon="6.0959">
        <ele>582</ele>
        <time>2021-09-10T11:20:28.736Z</time>
      </trkpt>
      <trkpt lat="45.72428" lon="6.09593">
        <ele>582</ele>
        <time>2021-09-10T11:20:29.736Z</time>
      </trkpt>
      <trkpt lat="45.72426" lon="6.09596">
        <ele>582</ele>
        <time>2021-09-10T11:20:30.736Z</time>
      </trkpt>
      <trkpt lat="45.72423" lon="6.09599">
        <ele>582</ele>
        <time>2021-09-10T11:20:31.736Z</time>
      </trkpt>
      <trkpt lat="45.72421" lon="6.09601">
        <ele>582</ele>
        <time>2021-09-10T11:20:32.735Z</time>
      </trkpt>
      <trkpt lat="45.72419" lon="6.09604">
        <ele>582</ele>
        <time>2021-09-10T11:20:33.736Z</time>
      </trkpt>
      <trkpt lat="45.72417" lon="6.09606">
        <ele>583</ele>
        <time>2021-09-10T11:20:34.736Z</time>
      </trkpt>
      <trkpt lat="45.72415" lon="6.09609">
        <ele>583</ele>
        <time>2021-09-10T11:20:35.736Z</time>
      </trkpt>
      <trkpt lat="45.72412" lon="6.09612">
        <ele>583</ele>
        <time>2021-09-10T11:20:36.736Z</time>
      </trkpt>
      <trkpt lat="45.72411" lon="6.09614">
        <ele>583</ele>
        <time>2021-09-10T11:20:37.735Z</time>
      </trkpt>
      <trkpt lat="45.72409" lon="6.09617">
        <ele>583</ele>
        <time>2021-09-10T11:20:38.736Z</time>
      </trkpt>
      <trkpt lat="45.72407" lon="6.09621">
        <ele>583</ele>
        <time>2021-09-10T11:20:39.735Z</time>
      </trkpt>
      <trkpt lat="45.72404" lon="6.09624">
        <ele>584</ele>
        <time>2021-09-10T11:20:40.736Z</time>
      </trkpt>
      <trkpt lat="45.72402" lon="6.09627">
        <ele>585</ele>
        <time>2021-09-10T11:20:41.736Z</time>
      </trkpt>
      <trkpt lat="45.72399" lon="6.0963">
        <ele>585</ele>
        <time>2021-09-10T11:20:42.735Z</time>
      </trkpt>
      <trkpt lat="45.72397" lon="6.09632">
        <ele>586</ele>
        <time>2021-09-10T11:20:43.736Z</time>
      </trkpt>
      <trkpt lat="45.72395" lon="6.09635">
        <ele>586</ele>
        <time>2021-09-10T11:20:44.736Z</time>
      </trkpt>
      <trkpt lat="45.72393" lon="6.09638">
        <ele>587</ele>
        <time>2021-09-10T11:20:45.736Z</time>
      </trkpt>
      <trkpt lat="45.72391" lon="6.09641">
        <ele>588</ele>
        <time>2021-09-10T11:20:46.736Z</time>
      </trkpt>
      <trkpt lat="45.72389" lon="6.09644">
        <ele>589</ele>
        <time>2021-09-10T11:20:47.735Z</time>
      </trkpt>
      <trkpt lat="45.72387" lon="6.09647">
        <ele>590</ele>
        <time>2021-09-10T11:20:48.736Z</time>
      </trkpt>
      <trkpt lat="45.72385" lon="6.0965">
        <ele>590</ele>
        <time>2021-09-10T11:20:49.735Z</time>
      </trkpt>
      <trkpt lat="45.72384" lon="6.09652">
        <ele>591</ele>
        <time>2021-09-10T11:20:50.736Z</time>
      </trkpt>
      <trkpt lat="45.72382" lon="6.09655">
        <ele>591</ele>
        <time>2021-09-10T11:20:51.735Z</time>
      </trkpt>
      <trkpt lat="45.72381" lon="6.09657">
        <ele>592</ele>
        <time>2021-09-10T11:20:52.736Z</time>
      </trkpt>
      <trkpt lat="45.72379" lon="6.0966">
        <ele>592</ele>
        <time>2021-09-10T11:20:53.736Z</time>
      </trkpt>
      <trkpt lat="45.72378" lon="6.09663">
        <ele>593</ele>
        <time>2021-09-10T11:20:54.735Z</time>
      </trkpt>
      <trkpt lat="45.72376" lon="6.09665">
        <ele>594</ele>
        <time>2021-09-10T11:20:55.736Z</time>
      </trkpt>
      <trkpt lat="45.72374" lon="6.09668">
        <ele>595</ele>
        <time>2021-09-10T11:20:56.736Z</time>
      </trkpt>
      <trkpt lat="45.72373" lon="6.0967">
        <ele>596</ele>
        <time>2021-09-10T11:20:57.735Z</time>
      </trkpt>
      <trkpt lat="45.72372" lon="6.09673">
        <ele>596</ele>
        <time>2021-09-10T11:20:58.735Z</time>
      </trkpt>
      <trkpt lat="45.7237" lon="6.09675">
        <ele>597</ele>
        <time>2021-09-10T11:20:59.735Z</time>
      </trkpt>
      <trkpt lat="45.72369" lon="6.09678">
        <ele>597</ele>
        <time>2021-09-10T11:21:00.736Z</time>
      </trkpt>
      <trkpt lat="45.72367" lon="6.0968">
        <ele>597</ele>
        <time>2021-09-10T11:21:01.736Z</time>
      </trkpt>
      <trkpt lat="45.72366" lon="6.09683">
        <ele>598</ele>
        <time>2021-09-10T11:21:02.736Z</time>
      </trkpt>
      <trkpt lat="45.72364" lon="6.09686">
        <ele>598</ele>
        <time>2021-09-10T11:21:03.736Z</time>
      </trkpt>
      <trkpt lat="45.72363" lon="6.09688">
        <ele>598</ele>
        <time>2021-09-10T11:21:04.736Z</time>
      </trkpt>
      <trkpt lat="45.72361" lon="6.0969">
        <ele>598</ele>
        <time>2021-09-10T11:21:05.736Z</time>
      </trkpt>
      <trkpt lat="45.7236" lon="6.09692">
        <ele>599</ele>
        <time>2021-09-10T11:21:06.736Z</time>
      </trkpt>
      <trkpt lat="45.72358" lon="6.09694">
        <ele>599</ele>
        <time>2021-09-10T11:21:07.736Z</time>
      </trkpt>
      <trkpt lat="45.72357" lon="6.09696">
        <ele>599</ele>
        <time>2021-09-10T11:21:08.736Z</time>
      </trkpt>
      <trkpt lat="45.72355" lon="6.09699">
        <ele>599</ele>
        <time>2021-09-10T11:21:09.735Z</time>
      </trkpt>
      <trkpt lat="45.72354" lon="6.09701">
        <ele>599</ele>
        <time>2021-09-10T11:21:10.736Z</time>
      </trkpt>
      <trkpt lat="45.72353" lon="6.09703">
        <ele>599</ele>
        <time>2021-09-10T11:21:11.736Z</time>
      </trkpt>
      <trkpt lat="45.72352" lon="6.09705">
        <ele>598</ele>
        <time>2021-09-10T11:21:12.736Z</time>
      </trkpt>
      <trkpt lat="45.7235" lon="6.09707">
        <ele>598</ele>
        <time>2021-09-10T11:21:13.736Z</time>
      </trkpt>
      <trkpt lat="45.72349" lon="6.0971">
        <ele>598</ele>
        <time>2021-09-10T11:21:14.736Z</time>
      </trkpt>
      <trkpt lat="45.72347" lon="6.09712">
        <ele>597</ele>
        <time>2021-09-10T11:21:15.736Z</time>
      </trkpt>
      <trkpt lat="45.72346" lon="6.09715">
        <ele>597</ele>
        <time>2021-09-10T11:21:16.735Z</time>
      </trkpt>
      <trkpt lat="45.72344" lon="6.09717">
        <ele>597</ele>
        <time>2021-09-10T11:21:17.735Z</time>
      </trkpt>
      <trkpt lat="45.72343" lon="6.09719">
        <ele>596</ele>
        <time>2021-09-10T11:21:18.736Z</time>
      </trkpt>
      <trkpt lat="45.72341" lon="6.09722">
        <ele>596</ele>
        <time>2021-09-10T11:21:19.735Z</time>
      </trkpt>
      <trkpt lat="45.7234" lon="6.09724">
        <ele>596</ele>
        <time>2021-09-10T11:21:20.736Z</time>
      </trkpt>
      <trkpt lat="45.72338" lon="6.09726">
        <ele>596</ele>
        <time>2021-09-10T11:21:21.736Z</time>
      </trkpt>
      <trkpt lat="45.72337" lon="6.09729">
        <ele>596</ele>
        <time>2021-09-10T11:21:22.735Z</time>
      </trkpt>
      <trkpt lat="45.72336" lon="6.09731">
        <ele>597</ele>
        <time>2021-09-10T11:21:23.736Z</time>
      </trkpt>
      <trkpt lat="45.72335" lon="6.09734">
        <ele>597</ele>
        <time>2021-09-10T11:21:24.735Z</time>
      </trkpt>
      <trkpt lat="45.72333" lon="6.09736">
        <ele>597</ele>
        <time>2021-09-10T11:21:25.735Z</time>
      </trkpt>
      <trkpt lat="45.72332" lon="6.09738">
        <ele>597</ele>
        <time>2021-09-10T11:21:26.736Z</time>
      </trkpt>
      <trkpt lat="45.72331" lon="6.09741">
        <ele>598</ele>
        <time>2021-09-10T11:21:27.736Z</time>
      </trkpt>
      <trkpt lat="45.7233" lon="6.09743">
        <ele>599</ele>
        <time>2021-09-10T11:21:28.736Z</time>
      </trkpt>
      <trkpt lat="45.72328" lon="6.09746">
        <ele>599</ele>
        <time>2021-09-10T11:21:29.736Z</time>
      </trkpt>
      <trkpt lat="45.72327" lon="6.09749">
        <ele>600</ele>
        <time>2021-09-10T11:21:30.735Z</time>
      </trkpt>
      <trkpt lat="45.72325" lon="6.09751">
        <ele>601</ele>
        <time>2021-09-10T11:21:31.736Z</time>
      </trkpt>
      <trkpt lat="45.72324" lon="6.09754">
        <ele>601</ele>
        <time>2021-09-10T11:21:32.735Z</time>
      </trkpt>
      <trkpt lat="45.72323" lon="6.09757">
        <ele>601</ele>
        <time>2021-09-10T11:21:33.736Z</time>
      </trkpt>
      <trkpt lat="45.72321" lon="6.09759">
        <ele>602</ele>
        <time>2021-09-10T11:21:34.736Z</time>
      </trkpt>
      <trkpt lat="45.7232" lon="6.09762">
        <ele>602</ele>
        <time>2021-09-10T11:21:35.735Z</time>
      </trkpt>
      <trkpt lat="45.72319" lon="6.09764">
        <ele>602</ele>
        <time>2021-09-10T11:21:36.735Z</time>
      </trkpt>
      <trkpt lat="45.72317" lon="6.09767">
        <ele>602</ele>
        <time>2021-09-10T11:21:37.736Z</time>
      </trkpt>
      <trkpt lat="45.72316" lon="6.09769">
        <ele>602</ele>
        <time>2021-09-10T11:21:38.735Z</time>
      </trkpt>
      <trkpt lat="45.72314" lon="6.09772">
        <ele>602</ele>
        <time>2021-09-10T11:21:39.736Z</time>
      </trkpt>
      <trkpt lat="45.72313" lon="6.09775">
        <ele>602</ele>
        <time>2021-09-10T11:21:40.736Z</time>
      </trkpt>
      <trkpt lat="45.72311" lon="6.09777">
        <ele>603</ele>
        <time>2021-09-10T11:21:41.735Z</time>
      </trkpt>
      <trkpt lat="45.7231" lon="6.0978">
        <ele>603</ele>
        <time>2021-09-10T11:21:42.736Z</time>
      </trkpt>
      <trkpt lat="45.72308" lon="6.09782">
        <ele>603</ele>
        <time>2021-09-10T11:21:43.736Z</time>
      </trkpt>
      <trkpt lat="45.72307" lon="6.09785">
        <ele>603</ele>
        <time>2021-09-10T11:21:44.736Z</time>
      </trkpt>
      <trkpt lat="45.72306" lon="6.09788">
        <ele>604</ele>
        <time>2021-09-10T11:21:45.736Z</time>
      </trkpt>
      <trkpt lat="45.72304" lon="6.0979">
        <ele>604</ele>
        <time>2021-09-10T11:21:46.736Z</time>
      </trkpt>
      <trkpt lat="45.72303" lon="6.09793">
        <ele>605</ele>
        <time>2021-09-10T11:21:47.736Z</time>
      </trkpt>
      <trkpt lat="45.72302" lon="6.09795">
        <ele>605</ele>
        <time>2021-09-10T11:21:48.736Z</time>
      </trkpt>
      <trkpt lat="45.72301" lon="6.09798">
        <ele>605</ele>
        <time>2021-09-10T11:21:49.736Z</time>
      </trkpt>
      <trkpt lat="45.723" lon="6.09801">
        <ele>604</ele>
        <time>2021-09-10T11:21:50.736Z</time>
      </trkpt>
      <trkpt lat="45.72299" lon="6.09803">
        <ele>604</ele>
        <time>2021-09-10T11:21:51.736Z</time>
      </trkpt>
      <trkpt lat="45.72297" lon="6.09805">
        <ele>604</ele>
        <time>2021-09-10T11:21:52.736Z</time>
      </trkpt>
      <trkpt lat="45.72296" lon="6.09808">
        <ele>604</ele>
        <time>2021-09-10T11:21:53.735Z</time>
      </trkpt>
      <trkpt lat="45.72295" lon="6.0981">
        <ele>605</ele>
        <time>2021-09-10T11:21:54.736Z</time>
      </trkpt>
      <trkpt lat="45.72293" lon="6.09813">
        <ele>605</ele>
        <time>2021-09-10T11:21:55.736Z</time>
      </trkpt>
      <trkpt lat="45.72292" lon="6.09816">
        <ele>604</ele>
        <time>2021-09-10T11:21:56.736Z</time>
      </trkpt>
      <trkpt lat="45.72291" lon="6.09818">
        <ele>604</ele>
        <time>2021-09-10T11:21:57.736Z</time>
      </trkpt>
      <trkpt lat="45.7229" lon="6.09821">
        <ele>604</ele>
        <time>2021-09-10T11:21:58.736Z</time>
      </trkpt>
      <trkpt lat="45.72288" lon="6.09823">
        <ele>604</ele>
        <time>2021-09-10T11:21:59.736Z</time>
      </trkpt>
      <trkpt lat="45.72287" lon="6.09826">
        <ele>604</ele>
        <time>2021-09-10T11:22:00.736Z</time>
      </trkpt>
      <trkpt lat="45.72286" lon="6.09828">
        <ele>604</ele>
        <time>2021-09-10T11:22:01.736Z</time>
      </trkpt>
      <trkpt lat="45.72284" lon="6.09831">
        <ele>604</ele>
        <time>2021-09-10T11:22:02.736Z</time>
      </trkpt>
      <trkpt lat="45.72283" lon="6.09833">
        <ele>604</ele>
        <time>2021-09-10T11:22:03.736Z</time>
      </trkpt>
      <trkpt lat="45.72281" lon="6.09835">
        <ele>604</ele>
        <time>2021-09-10T11:22:04.736Z</time>
      </trkpt>
      <trkpt lat="45.72279" lon="6.09837">
        <ele>604</ele>
        <time>2021-09-10T11:22:05.736Z</time>
      </trkpt>
      <trkpt lat="45.72277" lon="6.0984">
        <ele>604</ele>
        <time>2021-09-10T11:22:06.736Z</time>
      </trkpt>
      <trkpt lat="45.72276" lon="6.09843">
        <ele>603</ele>
        <time>2021-09-10T11:22:07.736Z</time>
      </trkpt>
      <trkpt lat="45.72274" lon="6.09845">
        <ele>603</ele>
        <time>2021-09-10T11:22:08.736Z</time>
      </trkpt>
      <trkpt lat="45.72272" lon="6.09847">
        <ele>604</ele>
        <time>2021-09-10T11:22:09.736Z</time>
      </trkpt>
      <trkpt lat="45.7227" lon="6.0985">
        <ele>604</ele>
        <time>2021-09-10T11:22:10.736Z</time>
      </trkpt>
      <trkpt lat="45.72269" lon="6.09852">
        <ele>603</ele>
        <time>2021-09-10T11:22:11.736Z</time>
      </trkpt>
      <trkpt lat="45.72267" lon="6.09854">
        <ele>603</ele>
        <time>2021-09-10T11:22:12.736Z</time>
      </trkpt>
      <trkpt lat="45.72265" lon="6.09856">
        <ele>603</ele>
        <time>2021-09-10T11:22:13.736Z</time>
      </trkpt>
      <trkpt lat="45.72263" lon="6.09858">
        <ele>603</ele>
        <time>2021-09-10T11:22:14.736Z</time>
      </trkpt>
      <trkpt lat="45.72261" lon="6.09859">
        <ele>603</ele>
        <time>2021-09-10T11:22:15.736Z</time>
      </trkpt>
      <trkpt lat="45.72259" lon="6.09861">
        <ele>603</ele>
        <time>2021-09-10T11:22:16.736Z</time>
      </trkpt>
      <trkpt lat="45.72257" lon="6.09863">
        <ele>603</ele>
        <time>2021-09-10T11:22:17.736Z</time>
      </trkpt>
      <trkpt lat="45.72255" lon="6.09865">
        <ele>603</ele>
        <time>2021-09-10T11:22:18.736Z</time>
      </trkpt>
      <trkpt lat="45.72253" lon="6.09866">
        <ele>603</ele>
        <time>2021-09-10T11:22:19.736Z</time>
      </trkpt>
      <trkpt lat="45.72251" lon="6.09868">
        <ele>603</ele>
        <time>2021-09-10T11:22:20.736Z</time>
      </trkpt>
      <trkpt lat="45.72249" lon="6.0987">
        <ele>604</ele>
        <time>2021-09-10T11:22:21.736Z</time>
      </trkpt>
      <trkpt lat="45.72247" lon="6.09871">
        <ele>605</ele>
        <time>2021-09-10T11:22:22.735Z</time>
      </trkpt>
      <trkpt lat="45.72245" lon="6.09873">
        <ele>605</ele>
        <time>2021-09-10T11:22:23.736Z</time>
      </trkpt>
      <trkpt lat="45.72243" lon="6.09875">
        <ele>606</ele>
        <time>2021-09-10T11:22:24.735Z</time>
      </trkpt>
      <trkpt lat="45.72241" lon="6.09876">
        <ele>606</ele>
        <time>2021-09-10T11:22:25.735Z</time>
      </trkpt>
      <trkpt lat="45.7224" lon="6.09878">
        <ele>606</ele>
        <time>2021-09-10T11:22:26.735Z</time>
      </trkpt>
      <trkpt lat="45.72238" lon="6.0988">
        <ele>606</ele>
        <time>2021-09-10T11:22:27.736Z</time>
      </trkpt>
      <trkpt lat="45.72236" lon="6.09881">
        <ele>606</ele>
        <time>2021-09-10T11:22:28.736Z</time>
      </trkpt>
      <trkpt lat="45.72234" lon="6.09883">
        <ele>606</ele>
        <time>2021-09-10T11:22:29.736Z</time>
      </trkpt>
      <trkpt lat="45.72232" lon="6.09885">
        <ele>607</ele>
        <time>2021-09-10T11:22:30.736Z</time>
      </trkpt>
      <trkpt lat="45.7223" lon="6.09886">
        <ele>607</ele>
        <time>2021-09-10T11:22:31.736Z</time>
      </trkpt>
      <trkpt lat="45.72229" lon="6.09888">
        <ele>608</ele>
        <time>2021-09-10T11:22:32.735Z</time>
      </trkpt>
      <trkpt lat="45.72227" lon="6.0989">
        <ele>608</ele>
        <time>2021-09-10T11:22:33.736Z</time>
      </trkpt>
      <trkpt lat="45.72225" lon="6.09893">
        <ele>608</ele>
        <time>2021-09-10T11:22:34.736Z</time>
      </trkpt>
      <trkpt lat="45.72223" lon="6.09895">
        <ele>609</ele>
        <time>2021-09-10T11:22:35.736Z</time>
      </trkpt>
      <trkpt lat="45.72222" lon="6.09897">
        <ele>609</ele>
        <time>2021-09-10T11:22:36.735Z</time>
      </trkpt>
      <trkpt lat="45.7222" lon="6.099">
        <ele>610</ele>
        <time>2021-09-10T11:22:37.736Z</time>
      </trkpt>
      <trkpt lat="45.72219" lon="6.09902">
        <ele>611</ele>
        <time>2021-09-10T11:22:38.736Z</time>
      </trkpt>
      <trkpt lat="45.72218" lon="6.09904">
        <ele>611</ele>
        <time>2021-09-10T11:22:39.735Z</time>
      </trkpt>
      <trkpt lat="45.72217" lon="6.09907">
        <ele>612</ele>
        <time>2021-09-10T11:22:40.736Z</time>
      </trkpt>
      <trkpt lat="45.72215" lon="6.0991">
        <ele>612</ele>
        <time>2021-09-10T11:22:41.735Z</time>
      </trkpt>
      <trkpt lat="45.72214" lon="6.09913">
        <ele>612</ele>
        <time>2021-09-10T11:22:42.736Z</time>
      </trkpt>
      <trkpt lat="45.72213" lon="6.09915">
        <ele>611</ele>
        <time>2021-09-10T11:22:43.736Z</time>
      </trkpt>
      <trkpt lat="45.72212" lon="6.09918">
        <ele>611</ele>
        <time>2021-09-10T11:22:44.736Z</time>
      </trkpt>
      <trkpt lat="45.72211" lon="6.09921">
        <ele>611</ele>
        <time>2021-09-10T11:22:45.736Z</time>
      </trkpt>
      <trkpt lat="45.7221" lon="6.09924">
        <ele>611</ele>
        <time>2021-09-10T11:22:46.736Z</time>
      </trkpt>
      <trkpt lat="45.72209" lon="6.09927">
        <ele>612</ele>
        <time>2021-09-10T11:22:47.736Z</time>
      </trkpt>
      <trkpt lat="45.72208" lon="6.09931">
        <ele>612</ele>
        <time>2021-09-10T11:22:48.735Z</time>
      </trkpt>
      <trkpt lat="45.72207" lon="6.09934">
        <ele>613</ele>
        <time>2021-09-10T11:22:49.736Z</time>
      </trkpt>
      <trkpt lat="45.72207" lon="6.09937">
        <ele>613</ele>
        <time>2021-09-10T11:22:50.736Z</time>
      </trkpt>
      <trkpt lat="45.72206" lon="6.0994">
        <ele>613</ele>
        <time>2021-09-10T11:22:51.736Z</time>
      </trkpt>
      <trkpt lat="45.72206" lon="6.09944">
        <ele>613</ele>
        <time>2021-09-10T11:22:52.735Z</time>
      </trkpt>
      <trkpt lat="45.72205" lon="6.09947">
        <ele>613</ele>
        <time>2021-09-10T11:22:53.736Z</time>
      </trkpt>
      <trkpt lat="45.72204" lon="6.0995">
        <ele>613</ele>
        <time>2021-09-10T11:22:54.736Z</time>
      </trkpt>
      <trkpt lat="45.72204" lon="6.09953">
        <ele>614</ele>
        <time>2021-09-10T11:22:55.736Z</time>
      </trkpt>
      <trkpt lat="45.72203" lon="6.09957">
        <ele>614</ele>
        <time>2021-09-10T11:22:56.736Z</time>
      </trkpt>
      <trkpt lat="45.72203" lon="6.0996">
        <ele>614</ele>
        <time>2021-09-10T11:22:57.736Z</time>
      </trkpt>
      <trkpt lat="45.72203" lon="6.09964">
        <ele>615</ele>
        <time>2021-09-10T11:22:58.736Z</time>
      </trkpt>
      <trkpt lat="45.72202" lon="6.09967">
        <ele>615</ele>
        <time>2021-09-10T11:22:59.736Z</time>
      </trkpt>
      <trkpt lat="45.72202" lon="6.0997">
        <ele>615</ele>
        <time>2021-09-10T11:23:00.735Z</time>
      </trkpt>
      <trkpt lat="45.72202" lon="6.09974">
        <ele>615</ele>
        <time>2021-09-10T11:23:01.735Z</time>
      </trkpt>
      <trkpt lat="45.72202" lon="6.09977">
        <ele>615</ele>
        <time>2021-09-10T11:23:02.736Z</time>
      </trkpt>
      <trkpt lat="45.72202" lon="6.0998">
        <ele>614</ele>
        <time>2021-09-10T11:23:03.736Z</time>
      </trkpt>
      <trkpt lat="45.72202" lon="6.09984">
        <ele>614</ele>
        <time>2021-09-10T11:23:04.736Z</time>
      </trkpt>
      <trkpt lat="45.72202" lon="6.09987">
        <ele>613</ele>
        <time>2021-09-10T11:23:05.736Z</time>
      </trkpt>
      <trkpt lat="45.72202" lon="6.09991">
        <ele>612</ele>
        <time>2021-09-10T11:23:06.736Z</time>
      </trkpt>
      <trkpt lat="45.72203" lon="6.09994">
        <ele>612</ele>
        <time>2021-09-10T11:23:07.736Z</time>
      </trkpt>
      <trkpt lat="45.72203" lon="6.09997">
        <ele>612</ele>
        <time>2021-09-10T11:23:08.736Z</time>
      </trkpt>
      <trkpt lat="45.72203" lon="6.1">
        <ele>611</ele>
        <time>2021-09-10T11:23:09.735Z</time>
      </trkpt>
      <trkpt lat="45.72204" lon="6.10004">
        <ele>611</ele>
        <time>2021-09-10T11:23:10.736Z</time>
      </trkpt>
      <trkpt lat="45.72204" lon="6.10007">
        <ele>611</ele>
        <time>2021-09-10T11:23:11.736Z</time>
      </trkpt>
      <trkpt lat="45.72204" lon="6.1001">
        <ele>610</ele>
        <time>2021-09-10T11:23:12.736Z</time>
      </trkpt>
      <trkpt lat="45.72204" lon="6.10013">
        <ele>610</ele>
        <time>2021-09-10T11:23:13.736Z</time>
      </trkpt>
      <trkpt lat="45.72205" lon="6.10016">
        <ele>609</ele>
        <time>2021-09-10T11:23:14.735Z</time>
      </trkpt>
      <trkpt lat="45.72205" lon="6.10019">
        <ele>609</ele>
        <time>2021-09-10T11:23:15.736Z</time>
      </trkpt>
      <trkpt lat="45.72205" lon="6.10022">
        <ele>608</ele>
        <time>2021-09-10T11:23:16.736Z</time>
      </trkpt>
      <trkpt lat="45.72205" lon="6.10026">
        <ele>608</ele>
        <time>2021-09-10T11:23:17.736Z</time>
      </trkpt>
      <trkpt lat="45.72206" lon="6.10029">
        <ele>608</ele>
        <time>2021-09-10T11:23:18.736Z</time>
      </trkpt>
      <trkpt lat="45.72206" lon="6.10032">
        <ele>608</ele>
        <time>2021-09-10T11:23:19.736Z</time>
      </trkpt>
      <trkpt lat="45.72207" lon="6.10036">
        <ele>608</ele>
        <time>2021-09-10T11:23:20.736Z</time>
      </trkpt>
      <trkpt lat="45.72207" lon="6.10039">
        <ele>607</ele>
        <time>2021-09-10T11:23:21.736Z</time>
      </trkpt>
      <trkpt lat="45.72208" lon="6.10042">
        <ele>607</ele>
        <time>2021-09-10T11:23:22.735Z</time>
      </trkpt>
      <trkpt lat="45.72208" lon="6.10045">
        <ele>607</ele>
        <time>2021-09-10T11:23:23.736Z</time>
      </trkpt>
      <trkpt lat="45.72209" lon="6.10048">
        <ele>607</ele>
        <time>2021-09-10T11:23:24.736Z</time>
      </trkpt>
      <trkpt lat="45.7221" lon="6.10052">
        <ele>608</ele>
        <time>2021-09-10T11:23:25.736Z</time>
      </trkpt>
      <trkpt lat="45.72211" lon="6.10055">
        <ele>608</ele>
        <time>2021-09-10T11:23:26.736Z</time>
      </trkpt>
      <trkpt lat="45.72212" lon="6.10058">
        <ele>608</ele>
        <time>2021-09-10T11:23:27.736Z</time>
      </trkpt>
      <trkpt lat="45.72213" lon="6.10062">
        <ele>608</ele>
        <time>2021-09-10T11:23:28.736Z</time>
      </trkpt>
      <trkpt lat="45.72214" lon="6.10065">
        <ele>608</ele>
        <time>2021-09-10T11:23:29.736Z</time>
      </trkpt>
      <trkpt lat="45.72215" lon="6.10067">
        <ele>608</ele>
        <time>2021-09-10T11:23:30.735Z</time>
      </trkpt>
      <trkpt lat="45.72216" lon="6.1007">
        <ele>609</ele>
        <time>2021-09-10T11:23:31.736Z</time>
      </trkpt>
      <trkpt lat="45.72217" lon="6.10073">
        <ele>609</ele>
        <time>2021-09-10T11:23:32.735Z</time>
      </trkpt>
      <trkpt lat="45.72218" lon="6.10076">
        <ele>609</ele>
        <time>2021-09-10T11:23:33.736Z</time>
      </trkpt>
      <trkpt lat="45.72219" lon="6.10078">
        <ele>609</ele>
        <time>2021-09-10T11:23:34.735Z</time>
      </trkpt>
      <trkpt lat="45.72221" lon="6.10081">
        <ele>610</ele>
        <time>2021-09-10T11:23:35.736Z</time>
      </trkpt>
      <trkpt lat="45.72222" lon="6.10084">
        <ele>610</ele>
        <time>2021-09-10T11:23:36.736Z</time>
      </trkpt>
      <trkpt lat="45.72224" lon="6.10086">
        <ele>610</ele>
        <time>2021-09-10T11:23:37.736Z</time>
      </trkpt>
      <trkpt lat="45.72225" lon="6.10088">
        <ele>610</ele>
        <time>2021-09-10T11:23:38.736Z</time>
      </trkpt>
      <trkpt lat="45.72227" lon="6.10091">
        <ele>610</ele>
        <time>2021-09-10T11:23:39.736Z</time>
      </trkpt>
      <trkpt lat="45.72228" lon="6.10094">
        <ele>610</ele>
        <time>2021-09-10T11:23:40.736Z</time>
      </trkpt>
      <trkpt lat="45.7223" lon="6.10096">
        <ele>610</ele>
        <time>2021-09-10T11:23:41.736Z</time>
      </trkpt>
      <trkpt lat="45.72232" lon="6.10098">
        <ele>610</ele>
        <time>2021-09-10T11:23:42.736Z</time>
      </trkpt>
      <trkpt lat="45.72234" lon="6.101">
        <ele>611</ele>
        <time>2021-09-10T11:23:43.736Z</time>
      </trkpt>
      <trkpt lat="45.72236" lon="6.10102">
        <ele>611</ele>
        <time>2021-09-10T11:23:44.735Z</time>
      </trkpt>
      <trkpt lat="45.72238" lon="6.10104">
        <ele>611</ele>
        <time>2021-09-10T11:23:45.736Z</time>
      </trkpt>
      <trkpt lat="45.7224" lon="6.10106">
        <ele>612</ele>
        <time>2021-09-10T11:23:46.736Z</time>
      </trkpt>
      <trkpt lat="45.72241" lon="6.10107">
        <ele>612</ele>
        <time>2021-09-10T11:23:47.736Z</time>
      </trkpt>
      <trkpt lat="45.72243" lon="6.10109">
        <ele>612</ele>
        <time>2021-09-10T11:23:48.736Z</time>
      </trkpt>
      <trkpt lat="45.72245" lon="6.10111">
        <ele>612</ele>
        <time>2021-09-10T11:23:49.735Z</time>
      </trkpt>
      <trkpt lat="45.72247" lon="6.10113">
        <ele>612</ele>
        <time>2021-09-10T11:23:50.736Z</time>
      </trkpt>
      <trkpt lat="45.72249" lon="6.10115">
        <ele>612</ele>
        <time>2021-09-10T11:23:51.736Z</time>
      </trkpt>
      <trkpt lat="45.72251" lon="6.10118">
        <ele>612</ele>
        <time>2021-09-10T11:23:52.736Z</time>
      </trkpt>
      <trkpt lat="45.72253" lon="6.1012">
        <ele>612</ele>
        <time>2021-09-10T11:23:53.736Z</time>
      </trkpt>
      <trkpt lat="45.72254" lon="6.10123">
        <ele>612</ele>
        <time>2021-09-10T11:23:54.736Z</time>
      </trkpt>
      <trkpt lat="45.72256" lon="6.10125">
        <ele>611</ele>
        <time>2021-09-10T11:23:55.735Z</time>
      </trkpt>
      <trkpt lat="45.72258" lon="6.10128">
        <ele>611</ele>
        <time>2021-09-10T11:23:56.735Z</time>
      </trkpt>
      <trkpt lat="45.72259" lon="6.1013">
        <ele>611</ele>
        <time>2021-09-10T11:23:57.736Z</time>
      </trkpt>
      <trkpt lat="45.7226" lon="6.10133">
        <ele>611</ele>
        <time>2021-09-10T11:23:58.736Z</time>
      </trkpt>
      <trkpt lat="45.72262" lon="6.10136">
        <ele>610</ele>
        <time>2021-09-10T11:23:59.735Z</time>
      </trkpt>
      <trkpt lat="45.72263" lon="6.10139">
        <ele>610</ele>
        <time>2021-09-10T11:24:00.735Z</time>
      </trkpt>
      <trkpt lat="45.72264" lon="6.10142">
        <ele>610</ele>
        <time>2021-09-10T11:24:01.736Z</time>
      </trkpt>
      <trkpt lat="45.72265" lon="6.10145">
        <ele>609</ele>
        <time>2021-09-10T11:24:02.736Z</time>
      </trkpt>
      <trkpt lat="45.72266" lon="6.10148">
        <ele>609</ele>
        <time>2021-09-10T11:24:03.736Z</time>
      </trkpt>
      <trkpt lat="45.72266" lon="6.10152">
        <ele>609</ele>
        <time>2021-09-10T11:24:04.736Z</time>
      </trkpt>
      <trkpt lat="45.72267" lon="6.10155">
        <ele>610</ele>
        <time>2021-09-10T11:24:05.735Z</time>
      </trkpt>
      <trkpt lat="45.72268" lon="6.10158">
        <ele>610</ele>
        <time>2021-09-10T11:24:06.736Z</time>
      </trkpt>
      <trkpt lat="45.72268" lon="6.10162">
        <ele>610</ele>
        <time>2021-09-10T11:24:07.736Z</time>
      </trkpt>
      <trkpt lat="45.72268" lon="6.10165">
        <ele>611</ele>
        <time>2021-09-10T11:24:08.736Z</time>
      </trkpt>
      <trkpt lat="45.72268" lon="6.10168">
        <ele>611</ele>
        <time>2021-09-10T11:24:09.736Z</time>
      </trkpt>
      <trkpt lat="45.72268" lon="6.10172">
        <ele>610</ele>
        <time>2021-09-10T11:24:10.736Z</time>
      </trkpt>
      <trkpt lat="45.72268" lon="6.10175">
        <ele>610</ele>
        <time>2021-09-10T11:24:11.735Z</time>
      </trkpt>
      <trkpt lat="45.72268" lon="6.10178">
        <ele>611</ele>
        <time>2021-09-10T11:24:12.735Z</time>
      </trkpt>
      <trkpt lat="45.72268" lon="6.10181">
        <ele>611</ele>
        <time>2021-09-10T11:24:13.736Z</time>
      </trkpt>
      <trkpt lat="45.72268" lon="6.10185">
        <ele>611</ele>
        <time>2021-09-10T11:24:14.736Z</time>
      </trkpt>
      <trkpt lat="45.72268" lon="6.10188">
        <ele>611</ele>
        <time>2021-09-10T11:24:15.736Z</time>
      </trkpt>
      <trkpt lat="45.72268" lon="6.10191">
        <ele>611</ele>
        <time>2021-09-10T11:24:16.735Z</time>
      </trkpt>
      <trkpt lat="45.72267" lon="6.10195">
        <ele>611</ele>
        <time>2021-09-10T11:24:17.736Z</time>
      </trkpt>
      <trkpt lat="45.72267" lon="6.10197">
        <ele>611</ele>
        <time>2021-09-10T11:24:18.735Z</time>
      </trkpt>
      <trkpt lat="45.72267" lon="6.10201">
        <ele>612</ele>
        <time>2021-09-10T11:24:19.735Z</time>
      </trkpt>
      <trkpt lat="45.72267" lon="6.10204">
        <ele>612</ele>
        <time>2021-09-10T11:24:20.736Z</time>
      </trkpt>
      <trkpt lat="45.72267" lon="6.10207">
        <ele>612</ele>
        <time>2021-09-10T11:24:21.735Z</time>
      </trkpt>
      <trkpt lat="45.72268" lon="6.10209">
        <ele>612</ele>
        <time>2021-09-10T11:24:22.735Z</time>
      </trkpt>
      <trkpt lat="45.72268" lon="6.10212">
        <ele>612</ele>
        <time>2021-09-10T11:24:23.736Z</time>
      </trkpt>
      <trkpt lat="45.72269" lon="6.10214">
        <ele>613</ele>
        <time>2021-09-10T11:24:24.735Z</time>
      </trkpt>
      <trkpt lat="45.7227" lon="6.10216">
        <ele>613</ele>
        <time>2021-09-10T11:24:25.736Z</time>
      </trkpt>
      <trkpt lat="45.72271" lon="6.10218">
        <ele>614</ele>
        <time>2021-09-10T11:24:26.736Z</time>
      </trkpt>
      <trkpt lat="45.72272" lon="6.10221">
        <ele>613</ele>
        <time>2021-09-10T11:24:27.735Z</time>
      </trkpt>
      <trkpt lat="45.72273" lon="6.10223">
        <ele>613</ele>
        <time>2021-09-10T11:24:28.735Z</time>
      </trkpt>
      <trkpt lat="45.72274" lon="6.10225">
        <ele>613</ele>
        <time>2021-09-10T11:24:29.735Z</time>
      </trkpt>
      <trkpt lat="45.72274" lon="6.10227">
        <ele>613</ele>
        <time>2021-09-10T11:24:30.736Z</time>
      </trkpt>
      <trkpt lat="45.72276" lon="6.10228">
        <ele>613</ele>
        <time>2021-09-10T11:24:31.735Z</time>
      </trkpt>
      <trkpt lat="45.72277" lon="6.10228">
        <ele>614</ele>
        <time>2021-09-10T11:24:32.736Z</time>
      </trkpt>
      <trkpt lat="45.72277" lon="6.10227">
        <ele>614</ele>
        <time>2021-09-10T11:24:33.735Z</time>
      </trkpt>
      <trkpt lat="45.72277" lon="6.10226">
        <ele>614</ele>
        <time>2021-09-10T11:24:34.735Z</time>
      </trkpt>
      <trkpt lat="45.72276" lon="6.10224">
        <ele>614</ele>
        <time>2021-09-10T11:24:35.736Z</time>
      </trkpt>
      <trkpt lat="45.72274" lon="6.10223">
        <ele>615</ele>
        <time>2021-09-10T11:24:36.735Z</time>
      </trkpt>
      <trkpt lat="45.72272" lon="6.10222">
        <ele>615</ele>
        <time>2021-09-10T11:24:37.735Z</time>
      </trkpt>
      <trkpt lat="45.7227" lon="6.10222">
        <ele>616</ele>
        <time>2021-09-10T11:24:38.736Z</time>
      </trkpt>
      <trkpt lat="45.72269" lon="6.10224">
        <ele>617</ele>
        <time>2021-09-10T11:24:39.735Z</time>
      </trkpt>
      <trkpt lat="45.72267" lon="6.10226">
        <ele>617</ele>
        <time>2021-09-10T11:24:40.736Z</time>
      </trkpt>
      <trkpt lat="45.72266" lon="6.10228">
        <ele>618</ele>
        <time>2021-09-10T11:24:41.736Z</time>
      </trkpt>
      <trkpt lat="45.72265" lon="6.10231">
        <ele>617</ele>
        <time>2021-09-10T11:24:42.735Z</time>
      </trkpt>
      <trkpt lat="45.72264" lon="6.10233">
        <ele>617</ele>
        <time>2021-09-10T11:24:43.735Z</time>
      </trkpt>
      <trkpt lat="45.72263" lon="6.10234">
        <ele>617</ele>
        <time>2021-09-10T11:24:44.735Z</time>
      </trkpt>
      <trkpt lat="45.72263" lon="6.10235">
        <ele>617</ele>
        <time>2021-09-10T11:24:45.736Z</time>
      </trkpt>
      <trkpt lat="45.72263" lon="6.10235">
        <ele>617</ele>
        <time>2021-09-10T11:24:46.736Z</time>
      </trkpt>
      <trkpt lat="45.72263" lon="6.10235">
        <ele>617</ele>
        <time>2021-09-10T11:24:47.736Z</time>
      </trkpt>
      <trkpt lat="45.72261" lon="6.10236">
        <ele>615</ele>
        <time>2021-09-10T11:24:48.737Z</time>
      </trkpt>
      <trkpt lat="45.72261" lon="6.10238">
        <ele>615</ele>
        <time>2021-09-10T11:24:49.737Z</time>
      </trkpt>
      <trkpt lat="45.72261" lon="6.1024">
        <ele>615</ele>
        <time>2021-09-10T11:24:50.736Z</time>
      </trkpt>
      <trkpt lat="45.72261" lon="6.10242">
        <ele>615</ele>
        <time>2021-09-10T11:24:51.737Z</time>
      </trkpt>
      <trkpt lat="45.72261" lon="6.10244">
        <ele>616</ele>
        <time>2021-09-10T11:24:52.737Z</time>
      </trkpt>
      <trkpt lat="45.72261" lon="6.10246">
        <ele>616</ele>
        <time>2021-09-10T11:24:53.736Z</time>
      </trkpt>
      <trkpt lat="45.72261" lon="6.10248">
        <ele>616</ele>
        <time>2021-09-10T11:24:54.737Z</time>
      </trkpt>
      <trkpt lat="45.72261" lon="6.1025">
        <ele>616</ele>
        <time>2021-09-10T11:24:55.736Z</time>
      </trkpt>
      <trkpt lat="45.72261" lon="6.10251">
        <ele>616</ele>
        <time>2021-09-10T11:24:56.737Z</time>
      </trkpt>
      <trkpt lat="45.7226" lon="6.10252">
        <ele>616</ele>
        <time>2021-09-10T11:24:57.736Z</time>
      </trkpt>
      <trkpt lat="45.7226" lon="6.10252">
        <ele>617</ele>
        <time>2021-09-10T11:24:58.737Z</time>
      </trkpt>
      <trkpt lat="45.72259" lon="6.10253">
        <ele>617</ele>
        <time>2021-09-10T11:24:59.736Z</time>
      </trkpt>
      <trkpt lat="45.72259" lon="6.10254">
        <ele>617</ele>
        <time>2021-09-10T11:25:00.737Z</time>
      </trkpt>
      <trkpt lat="45.72258" lon="6.10255">
        <ele>617</ele>
        <time>2021-09-10T11:25:01.737Z</time>
      </trkpt>
      <trkpt lat="45.72258" lon="6.10257">
        <ele>617</ele>
        <time>2021-09-10T11:25:02.737Z</time>
      </trkpt>
      <trkpt lat="45.72257" lon="6.10258">
        <ele>616</ele>
        <time>2021-09-10T11:25:03.737Z</time>
      </trkpt>
      <trkpt lat="45.72257" lon="6.1026">
        <ele>616</ele>
        <time>2021-09-10T11:25:04.737Z</time>
      </trkpt>
      <trkpt lat="45.72257" lon="6.10262">
        <ele>616</ele>
        <time>2021-09-10T11:25:05.737Z</time>
      </trkpt>
      <trkpt lat="45.72256" lon="6.10264">
        <ele>616</ele>
        <time>2021-09-10T11:25:06.737Z</time>
      </trkpt>
      <trkpt lat="45.72256" lon="6.10265">
        <ele>616</ele>
        <time>2021-09-10T11:25:07.737Z</time>
      </trkpt>
      <trkpt lat="45.72255" lon="6.10267">
        <ele>616</ele>
        <time>2021-09-10T11:25:08.736Z</time>
      </trkpt>
      <trkpt lat="45.72255" lon="6.10269">
        <ele>616</ele>
        <time>2021-09-10T11:25:09.737Z</time>
      </trkpt>
      <trkpt lat="45.72255" lon="6.10271">
        <ele>616</ele>
        <time>2021-09-10T11:25:10.737Z</time>
      </trkpt>
      <trkpt lat="45.72255" lon="6.10273">
        <ele>617</ele>
        <time>2021-09-10T11:25:11.737Z</time>
      </trkpt>
      <trkpt lat="45.72255" lon="6.10275">
        <ele>616</ele>
        <time>2021-09-10T11:25:12.736Z</time>
      </trkpt>
      <trkpt lat="45.72255" lon="6.10276">
        <ele>616</ele>
        <time>2021-09-10T11:25:13.737Z</time>
      </trkpt>
      <trkpt lat="45.72255" lon="6.10277">
        <ele>616</ele>
        <time>2021-09-10T11:25:14.736Z</time>
      </trkpt>
      <trkpt lat="45.72256" lon="6.10278">
        <ele>616</ele>
        <time>2021-09-10T11:25:15.737Z</time>
      </trkpt>
      <trkpt lat="45.72257" lon="6.10278">
        <ele>615</ele>
        <time>2021-09-10T11:25:16.737Z</time>
      </trkpt>
      <trkpt lat="45.72257" lon="6.10279">
        <ele>615</ele>
        <time>2021-09-10T11:25:17.736Z</time>
      </trkpt>
      <trkpt lat="45.72257" lon="6.10279">
        <ele>615</ele>
        <time>2021-09-10T11:25:18.737Z</time>
      </trkpt>
      <trkpt lat="45.72257" lon="6.10277">
        <ele>614</ele>
        <time>2021-09-10T11:25:19.738Z</time>
      </trkpt>
      <trkpt lat="45.72258" lon="6.10276">
        <ele>614</ele>
        <time>2021-09-10T11:25:20.737Z</time>
      </trkpt>
      <trkpt lat="45.72259" lon="6.10275">
        <ele>615</ele>
        <time>2021-09-10T11:25:21.738Z</time>
      </trkpt>
      <trkpt lat="45.72259" lon="6.10274">
        <ele>615</ele>
        <time>2021-09-10T11:25:22.738Z</time>
      </trkpt>
      <trkpt lat="45.7226" lon="6.10273">
        <ele>615</ele>
        <time>2021-09-10T11:25:23.738Z</time>
      </trkpt>
      <trkpt lat="45.72261" lon="6.10273">
        <ele>616</ele>
        <time>2021-09-10T11:25:24.738Z</time>
      </trkpt>
      <trkpt lat="45.72262" lon="6.10273">
        <ele>616</ele>
        <time>2021-09-10T11:25:25.737Z</time>
      </trkpt>
      <trkpt lat="45.72263" lon="6.10273">
        <ele>616</ele>
        <time>2021-09-10T11:25:26.738Z</time>
      </trkpt>
      <trkpt lat="45.72264" lon="6.10274">
        <ele>616</ele>
        <time>2021-09-10T11:25:27.737Z</time>
      </trkpt>
      <trkpt lat="45.72265" lon="6.10274">
        <ele>616</ele>
        <time>2021-09-10T11:25:28.738Z</time>
      </trkpt>
      <trkpt lat="45.72266" lon="6.10274">
        <ele>615</ele>
        <time>2021-09-10T11:25:29.738Z</time>
      </trkpt>
      <trkpt lat="45.72267" lon="6.10275">
        <ele>615</ele>
        <time>2021-09-10T11:25:30.738Z</time>
      </trkpt>
      <trkpt lat="45.72268" lon="6.10274">
        <ele>614</ele>
        <time>2021-09-10T11:25:31.737Z</time>
      </trkpt>
      <trkpt lat="45.72268" lon="6.10273">
        <ele>613</ele>
        <time>2021-09-10T11:25:32.738Z</time>
      </trkpt>
      <trkpt lat="45.72268" lon="6.10271">
        <ele>613</ele>
        <time>2021-09-10T11:25:33.738Z</time>
      </trkpt>
      <trkpt lat="45.72269" lon="6.1027">
        <ele>614</ele>
        <time>2021-09-10T11:25:34.737Z</time>
      </trkpt>
      <trkpt lat="45.7227" lon="6.10268">
        <ele>614</ele>
        <time>2021-09-10T11:25:35.737Z</time>
      </trkpt>
      <trkpt lat="45.7227" lon="6.10267">
        <ele>614</ele>
        <time>2021-09-10T11:25:36.738Z</time>
      </trkpt>
      <trkpt lat="45.72271" lon="6.10267">
        <ele>614</ele>
        <time>2021-09-10T11:25:37.738Z</time>
      </trkpt>
      <trkpt lat="45.72272" lon="6.10266">
        <ele>614</ele>
        <time>2021-09-10T11:25:38.737Z</time>
      </trkpt>
      <trkpt lat="45.72273" lon="6.10265">
        <ele>615</ele>
        <time>2021-09-10T11:25:39.737Z</time>
      </trkpt>
      <trkpt lat="45.72275" lon="6.10263">
        <ele>614</ele>
        <time>2021-09-10T11:25:40.738Z</time>
      </trkpt>
      <trkpt lat="45.72277" lon="6.10261">
        <ele>614</ele>
        <time>2021-09-10T11:25:41.737Z</time>
      </trkpt>
      <trkpt lat="45.72279" lon="6.10259">
        <ele>614</ele>
        <time>2021-09-10T11:25:42.737Z</time>
      </trkpt>
      <trkpt lat="45.72281" lon="6.10256">
        <ele>614</ele>
        <time>2021-09-10T11:25:43.738Z</time>
      </trkpt>
      <trkpt lat="45.72283" lon="6.10254">
        <ele>614</ele>
        <time>2021-09-10T11:25:44.737Z</time>
      </trkpt>
      <trkpt lat="45.72285" lon="6.10251">
        <ele>614</ele>
        <time>2021-09-10T11:25:45.738Z</time>
      </trkpt>
      <trkpt lat="45.72287" lon="6.10249">
        <ele>614</ele>
        <time>2021-09-10T11:25:46.738Z</time>
      </trkpt>
      <trkpt lat="45.72288" lon="6.10247">
        <ele>613</ele>
        <time>2021-09-10T11:25:47.738Z</time>
      </trkpt>
      <trkpt lat="45.7229" lon="6.10245">
        <ele>613</ele>
        <time>2021-09-10T11:25:48.738Z</time>
      </trkpt>
      <trkpt lat="45.72291" lon="6.10243">
        <ele>613</ele>
        <time>2021-09-10T11:25:49.738Z</time>
      </trkpt>
      <trkpt lat="45.72292" lon="6.1024">
        <ele>613</ele>
        <time>2021-09-10T11:25:50.738Z</time>
      </trkpt>
      <trkpt lat="45.72292" lon="6.10237">
        <ele>613</ele>
        <time>2021-09-10T11:25:51.738Z</time>
      </trkpt>
      <trkpt lat="45.72292" lon="6.10233">
        <ele>613</ele>
        <time>2021-09-10T11:25:52.738Z</time>
      </trkpt>
      <trkpt lat="45.72292" lon="6.1023">
        <ele>613</ele>
        <time>2021-09-10T11:25:53.738Z</time>
      </trkpt>
      <trkpt lat="45.72291" lon="6.10226">
        <ele>614</ele>
        <time>2021-09-10T11:25:54.737Z</time>
      </trkpt>
      <trkpt lat="45.72291" lon="6.10222">
        <ele>614</ele>
        <time>2021-09-10T11:25:55.737Z</time>
      </trkpt>
      <trkpt lat="45.7229" lon="6.10218">
        <ele>614</ele>
        <time>2021-09-10T11:25:56.737Z</time>
      </trkpt>
      <trkpt lat="45.72289" lon="6.10214">
        <ele>615</ele>
        <time>2021-09-10T11:25:57.738Z</time>
      </trkpt>
      <trkpt lat="45.72288" lon="6.1021">
        <ele>614</ele>
        <time>2021-09-10T11:25:58.738Z</time>
      </trkpt>
      <trkpt lat="45.72287" lon="6.10206">
        <ele>615</ele>
        <time>2021-09-10T11:25:59.738Z</time>
      </trkpt>
      <trkpt lat="45.72286" lon="6.10202">
        <ele>615</ele>
        <time>2021-09-10T11:26:00.738Z</time>
      </trkpt>
      <trkpt lat="45.72286" lon="6.10199">
        <ele>615</ele>
        <time>2021-09-10T11:26:01.738Z</time>
      </trkpt>
      <trkpt lat="45.72286" lon="6.10195">
        <ele>615</ele>
        <time>2021-09-10T11:26:02.738Z</time>
      </trkpt>
      <trkpt lat="45.72285" lon="6.10193">
        <ele>616</ele>
        <time>2021-09-10T11:26:03.738Z</time>
      </trkpt>
      <trkpt lat="45.72286" lon="6.10191">
        <ele>617</ele>
        <time>2021-09-10T11:26:04.738Z</time>
      </trkpt>
      <trkpt lat="45.72285" lon="6.1019">
        <ele>618</ele>
        <time>2021-09-10T11:26:05.737Z</time>
      </trkpt>
      <trkpt lat="45.72285" lon="6.10189">
        <ele>618</ele>
        <time>2021-09-10T11:26:06.738Z</time>
      </trkpt>
      <trkpt lat="45.72285" lon="6.10189">
        <ele>619</ele>
        <time>2021-09-10T11:26:07.738Z</time>
      </trkpt>
      <trkpt lat="45.72286" lon="6.10204">
        <ele>620</ele>
        <time>2021-09-10T11:26:08.739Z</time>
      </trkpt>
      <trkpt lat="45.72287" lon="6.1021">
        <ele>620</ele>
        <time>2021-09-10T11:26:09.739Z</time>
      </trkpt>
      <trkpt lat="45.72288" lon="6.10216">
        <ele>620</ele>
        <time>2021-09-10T11:26:10.738Z</time>
      </trkpt>
      <trkpt lat="45.72288" lon="6.10222">
        <ele>620</ele>
        <time>2021-09-10T11:26:11.739Z</time>
      </trkpt>
      <trkpt lat="45.72289" lon="6.10227">
        <ele>621</ele>
        <time>2021-09-10T11:26:12.738Z</time>
      </trkpt>
      <trkpt lat="45.72289" lon="6.10233">
        <ele>621</ele>
        <time>2021-09-10T11:26:13.739Z</time>
      </trkpt>
      <trkpt lat="45.7229" lon="6.10239">
        <ele>621</ele>
        <time>2021-09-10T11:26:14.738Z</time>
      </trkpt>
      <trkpt lat="45.7229" lon="6.10244">
        <ele>621</ele>
        <time>2021-09-10T11:26:15.739Z</time>
      </trkpt>
      <trkpt lat="45.72288" lon="6.10248">
        <ele>621</ele>
        <time>2021-09-10T11:26:16.739Z</time>
      </trkpt>
      <trkpt lat="45.72286" lon="6.10252">
        <ele>621</ele>
        <time>2021-09-10T11:26:17.739Z</time>
      </trkpt>
      <trkpt lat="45.72284" lon="6.10255">
        <ele>621</ele>
        <time>2021-09-10T11:26:18.738Z</time>
      </trkpt>
      <trkpt lat="45.72281" lon="6.10259">
        <ele>621</ele>
        <time>2021-09-10T11:26:19.738Z</time>
      </trkpt>
      <trkpt lat="45.72278" lon="6.10262">
        <ele>621</ele>
        <time>2021-09-10T11:26:20.739Z</time>
      </trkpt>
      <trkpt lat="45.72275" lon="6.10266">
        <ele>621</ele>
        <time>2021-09-10T11:26:21.739Z</time>
      </trkpt>
      <trkpt lat="45.72272" lon="6.10269">
        <ele>621</ele>
        <time>2021-09-10T11:26:22.738Z</time>
      </trkpt>
      <trkpt lat="45.72269" lon="6.10271">
        <ele>620</ele>
        <time>2021-09-10T11:26:23.738Z</time>
      </trkpt>
      <trkpt lat="45.72266" lon="6.10272">
        <ele>620</ele>
        <time>2021-09-10T11:26:24.739Z</time>
      </trkpt>
      <trkpt lat="45.72263" lon="6.10274">
        <ele>619</ele>
        <time>2021-09-10T11:26:25.739Z</time>
      </trkpt>
      <trkpt lat="45.7226" lon="6.10275">
        <ele>619</ele>
        <time>2021-09-10T11:26:26.739Z</time>
      </trkpt>
      <trkpt lat="45.72259" lon="6.10276">
        <ele>618</ele>
        <time>2021-09-10T11:26:27.738Z</time>
      </trkpt>
      <trkpt lat="45.72258" lon="6.10277">
        <ele>618</ele>
        <time>2021-09-10T11:26:28.739Z</time>
      </trkpt>
      <trkpt lat="45.72258" lon="6.10277">
        <ele>618</ele>
        <time>2021-09-10T11:26:29.739Z</time>
      </trkpt>
      <trkpt lat="45.72257" lon="6.10277">
        <ele>618</ele>
        <time>2021-09-10T11:26:30.738Z</time>
      </trkpt>
      <trkpt lat="45.72257" lon="6.10276">
        <ele>618</ele>
        <time>2021-09-10T11:26:31.739Z</time>
      </trkpt>
      <trkpt lat="45.72257" lon="6.10276">
        <ele>618</ele>
        <time>2021-09-10T11:26:32.738Z</time>
      </trkpt>
      <trkpt lat="45.72256" lon="6.10276">
        <ele>618</ele>
        <time>2021-09-10T11:26:33.738Z</time>
      </trkpt>
      <trkpt lat="45.72256" lon="6.10276">
        <ele>617</ele>
        <time>2021-09-10T11:26:34.739Z</time>
      </trkpt>
      <trkpt lat="45.72256" lon="6.10276">
        <ele>617</ele>
        <time>2021-09-10T11:26:35.739Z</time>
      </trkpt>
      <trkpt lat="45.7225" lon="6.1028">
        <ele>615</ele>
        <time>2021-09-10T11:26:36.740Z</time>
      </trkpt>
      <trkpt lat="45.72248" lon="6.10279">
        <ele>615</ele>
        <time>2021-09-10T11:26:37.739Z</time>
      </trkpt>
      <trkpt lat="45.72245" lon="6.10278">
        <ele>615</ele>
        <time>2021-09-10T11:26:38.739Z</time>
      </trkpt>
      <trkpt lat="45.72243" lon="6.10278">
        <ele>615</ele>
        <time>2021-09-10T11:26:39.739Z</time>
      </trkpt>
      <trkpt lat="45.72241" lon="6.10278">
        <ele>615</ele>
        <time>2021-09-10T11:26:40.739Z</time>
      </trkpt>
      <trkpt lat="45.72239" lon="6.10279">
        <ele>615</ele>
        <time>2021-09-10T11:26:41.740Z</time>
      </trkpt>
      <trkpt lat="45.72237" lon="6.1028">
        <ele>615</ele>
        <time>2021-09-10T11:26:42.740Z</time>
      </trkpt>
      <trkpt lat="45.72235" lon="6.10281">
        <ele>615</ele>
        <time>2021-09-10T11:26:43.740Z</time>
      </trkpt>
      <trkpt lat="45.72235" lon="6.10281">
        <ele>616</ele>
        <time>2021-09-10T11:26:44.739Z</time>
      </trkpt>
      <trkpt lat="45.72234" lon="6.10281">
        <ele>617</ele>
        <time>2021-09-10T11:26:45.740Z</time>
      </trkpt>
      <trkpt lat="45.72234" lon="6.10281">
        <ele>617</ele>
        <time>2021-09-10T11:26:46.740Z</time>
      </trkpt>
      <trkpt lat="45.72234" lon="6.10281">
        <ele>620</ele>
        <time>2021-09-10T11:26:47.740Z</time>
      </trkpt>
      <trkpt lat="45.72233" lon="6.10283">
        <ele>623</ele>
        <time>2021-09-10T11:26:48.740Z</time>
      </trkpt>
      <trkpt lat="45.72233" lon="6.10285">
        <ele>624</ele>
        <time>2021-09-10T11:26:49.740Z</time>
      </trkpt>
      <trkpt lat="45.72232" lon="6.10287">
        <ele>624</ele>
        <time>2021-09-10T11:26:50.740Z</time>
      </trkpt>
      <trkpt lat="45.72231" lon="6.10289">
        <ele>623</ele>
        <time>2021-09-10T11:26:51.740Z</time>
      </trkpt>
      <trkpt lat="45.7223" lon="6.10292">
        <ele>623</ele>
        <time>2021-09-10T11:26:52.741Z</time>
      </trkpt>
      <trkpt lat="45.72229" lon="6.10294">
        <ele>623</ele>
        <time>2021-09-10T11:26:53.740Z</time>
      </trkpt>
      <trkpt lat="45.72228" lon="6.10297">
        <ele>623</ele>
        <time>2021-09-10T11:26:54.741Z</time>
      </trkpt>
      <trkpt lat="45.72227" lon="6.103">
        <ele>623</ele>
        <time>2021-09-10T11:26:55.740Z</time>
      </trkpt>
      <trkpt lat="45.72227" lon="6.10303">
        <ele>623</ele>
        <time>2021-09-10T11:26:56.741Z</time>
      </trkpt>
      <trkpt lat="45.72226" lon="6.10306">
        <ele>622</ele>
        <time>2021-09-10T11:26:57.740Z</time>
      </trkpt>
      <trkpt lat="45.72225" lon="6.10308">
        <ele>623</ele>
        <time>2021-09-10T11:26:58.741Z</time>
      </trkpt>
      <trkpt lat="45.72225" lon="6.10311">
        <ele>623</ele>
        <time>2021-09-10T11:26:59.741Z</time>
      </trkpt>
      <trkpt lat="45.72224" lon="6.10313">
        <ele>623</ele>
        <time>2021-09-10T11:27:00.741Z</time>
      </trkpt>
      <trkpt lat="45.72224" lon="6.10316">
        <ele>623</ele>
        <time>2021-09-10T11:27:01.741Z</time>
      </trkpt>
      <trkpt lat="45.72224" lon="6.10319">
        <ele>624</ele>
        <time>2021-09-10T11:27:02.741Z</time>
      </trkpt>
      <trkpt lat="45.72223" lon="6.10322">
        <ele>624</ele>
        <time>2021-09-10T11:27:03.741Z</time>
      </trkpt>
      <trkpt lat="45.72223" lon="6.10325">
        <ele>624</ele>
        <time>2021-09-10T11:27:04.740Z</time>
      </trkpt>
      <trkpt lat="45.72223" lon="6.10328">
        <ele>624</ele>
        <time>2021-09-10T11:27:05.741Z</time>
      </trkpt>
      <trkpt lat="45.72223" lon="6.10331">
        <ele>624</ele>
        <time>2021-09-10T11:27:06.740Z</time>
      </trkpt>
      <trkpt lat="45.72222" lon="6.10334">
        <ele>623</ele>
        <time>2021-09-10T11:27:07.741Z</time>
      </trkpt>
      <trkpt lat="45.72223" lon="6.10337">
        <ele>623</ele>
        <time>2021-09-10T11:27:08.741Z</time>
      </trkpt>
      <trkpt lat="45.72223" lon="6.1034">
        <ele>623</ele>
        <time>2021-09-10T11:27:09.740Z</time>
      </trkpt>
      <trkpt lat="45.72223" lon="6.10342">
        <ele>623</ele>
        <time>2021-09-10T11:27:10.741Z</time>
      </trkpt>
      <trkpt lat="45.72224" lon="6.10345">
        <ele>623</ele>
        <time>2021-09-10T11:27:11.741Z</time>
      </trkpt>
      <trkpt lat="45.72225" lon="6.10348">
        <ele>623</ele>
        <time>2021-09-10T11:27:12.741Z</time>
      </trkpt>
      <trkpt lat="45.72225" lon="6.1035">
        <ele>623</ele>
        <time>2021-09-10T11:27:13.741Z</time>
      </trkpt>
      <trkpt lat="45.72226" lon="6.10353">
        <ele>623</ele>
        <time>2021-09-10T11:27:14.740Z</time>
      </trkpt>
      <trkpt lat="45.72227" lon="6.10356">
        <ele>623</ele>
        <time>2021-09-10T11:27:15.741Z</time>
      </trkpt>
      <trkpt lat="45.72228" lon="6.10358">
        <ele>623</ele>
        <time>2021-09-10T11:27:16.740Z</time>
      </trkpt>
      <trkpt lat="45.72229" lon="6.10362">
        <ele>623</ele>
        <time>2021-09-10T11:27:17.740Z</time>
      </trkpt>
      <trkpt lat="45.7223" lon="6.10365">
        <ele>623</ele>
        <time>2021-09-10T11:27:18.740Z</time>
      </trkpt>
      <trkpt lat="45.72231" lon="6.10367">
        <ele>622</ele>
        <time>2021-09-10T11:27:19.741Z</time>
      </trkpt>
      <trkpt lat="45.72232" lon="6.1037">
        <ele>622</ele>
        <time>2021-09-10T11:27:20.741Z</time>
      </trkpt>
      <trkpt lat="45.72233" lon="6.10372">
        <ele>622</ele>
        <time>2021-09-10T11:27:21.741Z</time>
      </trkpt>
      <trkpt lat="45.72234" lon="6.10375">
        <ele>622</ele>
        <time>2021-09-10T11:27:22.740Z</time>
      </trkpt>
      <trkpt lat="45.72235" lon="6.10378">
        <ele>623</ele>
        <time>2021-09-10T11:27:23.740Z</time>
      </trkpt>
      <trkpt lat="45.72236" lon="6.10381">
        <ele>623</ele>
        <time>2021-09-10T11:27:24.740Z</time>
      </trkpt>
      <trkpt lat="45.72237" lon="6.10383">
        <ele>624</ele>
        <time>2021-09-10T11:27:25.741Z</time>
      </trkpt>
      <trkpt lat="45.72238" lon="6.10386">
        <ele>624</ele>
        <time>2021-09-10T11:27:26.740Z</time>
      </trkpt>
      <trkpt lat="45.72239" lon="6.10388">
        <ele>625</ele>
        <time>2021-09-10T11:27:27.740Z</time>
      </trkpt>
      <trkpt lat="45.7224" lon="6.1039">
        <ele>625</ele>
        <time>2021-09-10T11:27:28.740Z</time>
      </trkpt>
      <trkpt lat="45.72241" lon="6.10393">
        <ele>625</ele>
        <time>2021-09-10T11:27:29.740Z</time>
      </trkpt>
      <trkpt lat="45.72242" lon="6.10395">
        <ele>625</ele>
        <time>2021-09-10T11:27:30.740Z</time>
      </trkpt>
      <trkpt lat="45.72244" lon="6.10397">
        <ele>625</ele>
        <time>2021-09-10T11:27:31.740Z</time>
      </trkpt>
      <trkpt lat="45.72245" lon="6.104">
        <ele>625</ele>
        <time>2021-09-10T11:27:32.741Z</time>
      </trkpt>
      <trkpt lat="45.72246" lon="6.10402">
        <ele>625</ele>
        <time>2021-09-10T11:27:33.740Z</time>
      </trkpt>
      <trkpt lat="45.72248" lon="6.10405">
        <ele>625</ele>
        <time>2021-09-10T11:27:34.741Z</time>
      </trkpt>
      <trkpt lat="45.72249" lon="6.10406">
        <ele>625</ele>
        <time>2021-09-10T11:27:35.740Z</time>
      </trkpt>
      <trkpt lat="45.7225" lon="6.10409">
        <ele>625</ele>
        <time>2021-09-10T11:27:36.740Z</time>
      </trkpt>
      <trkpt lat="45.72252" lon="6.10411">
        <ele>625</ele>
        <time>2021-09-10T11:27:37.741Z</time>
      </trkpt>
      <trkpt lat="45.72253" lon="6.10414">
        <ele>625</ele>
        <time>2021-09-10T11:27:38.740Z</time>
      </trkpt>
      <trkpt lat="45.72254" lon="6.10416">
        <ele>625</ele>
        <time>2021-09-10T11:27:39.741Z</time>
      </trkpt>
      <trkpt lat="45.72256" lon="6.10418">
        <ele>624</ele>
        <time>2021-09-10T11:27:40.741Z</time>
      </trkpt>
      <trkpt lat="45.72257" lon="6.1042">
        <ele>624</ele>
        <time>2021-09-10T11:27:41.741Z</time>
      </trkpt>
      <trkpt lat="45.72258" lon="6.10422">
        <ele>624</ele>
        <time>2021-09-10T11:27:42.741Z</time>
      </trkpt>
      <trkpt lat="45.7226" lon="6.10425">
        <ele>624</ele>
        <time>2021-09-10T11:27:43.740Z</time>
      </trkpt>
      <trkpt lat="45.72262" lon="6.10427">
        <ele>624</ele>
        <time>2021-09-10T11:27:44.741Z</time>
      </trkpt>
      <trkpt lat="45.72263" lon="6.1043">
        <ele>624</ele>
        <time>2021-09-10T11:27:45.740Z</time>
      </trkpt>
      <trkpt lat="45.72264" lon="6.10431">
        <ele>625</ele>
        <time>2021-09-10T11:27:46.740Z</time>
      </trkpt>
      <trkpt lat="45.72266" lon="6.10434">
        <ele>625</ele>
        <time>2021-09-10T11:27:47.741Z</time>
      </trkpt>
      <trkpt lat="45.72267" lon="6.10436">
        <ele>625</ele>
        <time>2021-09-10T11:27:48.740Z</time>
      </trkpt>
      <trkpt lat="45.72268" lon="6.10438">
        <ele>626</ele>
        <time>2021-09-10T11:27:49.741Z</time>
      </trkpt>
      <trkpt lat="45.7227" lon="6.10441">
        <ele>626</ele>
        <time>2021-09-10T11:27:50.740Z</time>
      </trkpt>
      <trkpt lat="45.72271" lon="6.10443">
        <ele>626</ele>
        <time>2021-09-10T11:27:51.741Z</time>
      </trkpt>
      <trkpt lat="45.72273" lon="6.10445">
        <ele>627</ele>
        <time>2021-09-10T11:27:52.741Z</time>
      </trkpt>
      <trkpt lat="45.72274" lon="6.10447">
        <ele>628</ele>
        <time>2021-09-10T11:27:53.741Z</time>
      </trkpt>
      <trkpt lat="45.72275" lon="6.10449">
        <ele>628</ele>
        <time>2021-09-10T11:27:54.741Z</time>
      </trkpt>
      <trkpt lat="45.72277" lon="6.10451">
        <ele>628</ele>
        <time>2021-09-10T11:27:55.740Z</time>
      </trkpt>
      <trkpt lat="45.72278" lon="6.10452">
        <ele>628</ele>
        <time>2021-09-10T11:27:56.741Z</time>
      </trkpt>
      <trkpt lat="45.7228" lon="6.10454">
        <ele>629</ele>
        <time>2021-09-10T11:27:57.740Z</time>
      </trkpt>
      <trkpt lat="45.72281" lon="6.10456">
        <ele>629</ele>
        <time>2021-09-10T11:27:58.741Z</time>
      </trkpt>
      <trkpt lat="45.72284" lon="6.10458">
        <ele>629</ele>
        <time>2021-09-10T11:27:59.741Z</time>
      </trkpt>
      <trkpt lat="45.72285" lon="6.10459">
        <ele>629</ele>
        <time>2021-09-10T11:28:00.740Z</time>
      </trkpt>
      <trkpt lat="45.72287" lon="6.1046">
        <ele>628</ele>
        <time>2021-09-10T11:28:01.740Z</time>
      </trkpt>
      <trkpt lat="45.72289" lon="6.10461">
        <ele>628</ele>
        <time>2021-09-10T11:28:02.741Z</time>
      </trkpt>
      <trkpt lat="45.72291" lon="6.10462">
        <ele>628</ele>
        <time>2021-09-10T11:28:03.740Z</time>
      </trkpt>
      <trkpt lat="45.72293" lon="6.10462">
        <ele>628</ele>
        <time>2021-09-10T11:28:04.741Z</time>
      </trkpt>
      <trkpt lat="45.72295" lon="6.10463">
        <ele>627</ele>
        <time>2021-09-10T11:28:05.740Z</time>
      </trkpt>
      <trkpt lat="45.72297" lon="6.10464">
        <ele>627</ele>
        <time>2021-09-10T11:28:06.740Z</time>
      </trkpt>
      <trkpt lat="45.723" lon="6.10464">
        <ele>626</ele>
        <time>2021-09-10T11:28:07.740Z</time>
      </trkpt>
      <trkpt lat="45.72302" lon="6.10465">
        <ele>626</ele>
        <time>2021-09-10T11:28:08.740Z</time>
      </trkpt>
      <trkpt lat="45.72304" lon="6.10466">
        <ele>627</ele>
        <time>2021-09-10T11:28:09.740Z</time>
      </trkpt>
      <trkpt lat="45.72307" lon="6.10466">
        <ele>627</ele>
        <time>2021-09-10T11:28:10.740Z</time>
      </trkpt>
      <trkpt lat="45.72308" lon="6.10466">
        <ele>627</ele>
        <time>2021-09-10T11:28:11.740Z</time>
      </trkpt>
      <trkpt lat="45.7231" lon="6.10467">
        <ele>627</ele>
        <time>2021-09-10T11:28:12.741Z</time>
      </trkpt>
      <trkpt lat="45.72313" lon="6.10467">
        <ele>628</ele>
        <time>2021-09-10T11:28:13.741Z</time>
      </trkpt>
      <trkpt lat="45.72315" lon="6.10468">
        <ele>628</ele>
        <time>2021-09-10T11:28:14.741Z</time>
      </trkpt>
      <trkpt lat="45.72317" lon="6.10469">
        <ele>628</ele>
        <time>2021-09-10T11:28:15.740Z</time>
      </trkpt>
      <trkpt lat="45.7232" lon="6.1047">
        <ele>628</ele>
        <time>2021-09-10T11:28:16.740Z</time>
      </trkpt>
      <trkpt lat="45.72321" lon="6.1047">
        <ele>628</ele>
        <time>2021-09-10T11:28:17.741Z</time>
      </trkpt>
      <trkpt lat="45.72324" lon="6.10471">
        <ele>628</ele>
        <time>2021-09-10T11:28:18.741Z</time>
      </trkpt>
      <trkpt lat="45.72326" lon="6.10472">
        <ele>628</ele>
        <time>2021-09-10T11:28:19.741Z</time>
      </trkpt>
      <trkpt lat="45.72328" lon="6.10472">
        <ele>629</ele>
        <time>2021-09-10T11:28:20.741Z</time>
      </trkpt>
      <trkpt lat="45.7233" lon="6.10473">
        <ele>629</ele>
        <time>2021-09-10T11:28:21.741Z</time>
      </trkpt>
      <trkpt lat="45.72332" lon="6.10473">
        <ele>629</ele>
        <time>2021-09-10T11:28:22.741Z</time>
      </trkpt>
      <trkpt lat="45.72334" lon="6.10474">
        <ele>629</ele>
        <time>2021-09-10T11:28:23.741Z</time>
      </trkpt>
      <trkpt lat="45.72337" lon="6.10475">
        <ele>629</ele>
        <time>2021-09-10T11:28:24.741Z</time>
      </trkpt>
      <trkpt lat="45.72339" lon="6.10476">
        <ele>629</ele>
        <time>2021-09-10T11:28:25.741Z</time>
      </trkpt>
      <trkpt lat="45.72341" lon="6.10476">
        <ele>629</ele>
        <time>2021-09-10T11:28:26.740Z</time>
      </trkpt>
      <trkpt lat="45.72343" lon="6.10477">
        <ele>629</ele>
        <time>2021-09-10T11:28:27.740Z</time>
      </trkpt>
      <trkpt lat="45.72345" lon="6.10477">
        <ele>630</ele>
        <time>2021-09-10T11:28:28.741Z</time>
      </trkpt>
      <trkpt lat="45.72347" lon="6.10478">
        <ele>630</ele>
        <time>2021-09-10T11:28:29.741Z</time>
      </trkpt>
      <trkpt lat="45.72349" lon="6.10478">
        <ele>630</ele>
        <time>2021-09-10T11:28:30.741Z</time>
      </trkpt>
      <trkpt lat="45.72351" lon="6.10479">
        <ele>630</ele>
        <time>2021-09-10T11:28:31.740Z</time>
      </trkpt>
      <trkpt lat="45.72353" lon="6.10479">
        <ele>630</ele>
        <time>2021-09-10T11:28:32.741Z</time>
      </trkpt>
      <trkpt lat="45.72355" lon="6.1048">
        <ele>629</ele>
        <time>2021-09-10T11:28:33.741Z</time>
      </trkpt>
      <trkpt lat="45.72357" lon="6.10481">
        <ele>629</ele>
        <time>2021-09-10T11:28:34.741Z</time>
      </trkpt>
      <trkpt lat="45.72359" lon="6.10481">
        <ele>629</ele>
        <time>2021-09-10T11:28:35.740Z</time>
      </trkpt>
      <trkpt lat="45.72361" lon="6.10482">
        <ele>628</ele>
        <time>2021-09-10T11:28:36.740Z</time>
      </trkpt>
      <trkpt lat="45.72363" lon="6.10482">
        <ele>628</ele>
        <time>2021-09-10T11:28:37.741Z</time>
      </trkpt>
      <trkpt lat="45.72365" lon="6.10483">
        <ele>628</ele>
        <time>2021-09-10T11:28:38.740Z</time>
      </trkpt>
      <trkpt lat="45.72367" lon="6.10483">
        <ele>628</ele>
        <time>2021-09-10T11:28:39.741Z</time>
      </trkpt>
      <trkpt lat="45.72369" lon="6.10484">
        <ele>628</ele>
        <time>2021-09-10T11:28:40.740Z</time>
      </trkpt>
      <trkpt lat="45.72372" lon="6.10484">
        <ele>629</ele>
        <time>2021-09-10T11:28:41.741Z</time>
      </trkpt>
      <trkpt lat="45.72373" lon="6.10485">
        <ele>630</ele>
        <time>2021-09-10T11:28:42.741Z</time>
      </trkpt>
      <trkpt lat="45.72375" lon="6.10485">
        <ele>631</ele>
        <time>2021-09-10T11:28:43.741Z</time>
      </trkpt>
      <trkpt lat="45.72378" lon="6.10486">
        <ele>633</ele>
        <time>2021-09-10T11:28:44.741Z</time>
      </trkpt>
      <trkpt lat="45.7238" lon="6.10487">
        <ele>634</ele>
        <time>2021-09-10T11:28:45.740Z</time>
      </trkpt>
      <trkpt lat="45.72382" lon="6.10487">
        <ele>634</ele>
        <time>2021-09-10T11:28:46.740Z</time>
      </trkpt>
      <trkpt lat="45.72383" lon="6.10488">
        <ele>635</ele>
        <time>2021-09-10T11:28:47.741Z</time>
      </trkpt>
      <trkpt lat="45.72385" lon="6.10489">
        <ele>635</ele>
        <time>2021-09-10T11:28:48.741Z</time>
      </trkpt>
      <trkpt lat="45.72388" lon="6.10489">
        <ele>635</ele>
        <time>2021-09-10T11:28:49.741Z</time>
      </trkpt>
      <trkpt lat="45.7239" lon="6.1049">
        <ele>635</ele>
        <time>2021-09-10T11:28:50.740Z</time>
      </trkpt>
      <trkpt lat="45.72391" lon="6.10491">
        <ele>635</ele>
        <time>2021-09-10T11:28:51.741Z</time>
      </trkpt>
      <trkpt lat="45.72393" lon="6.10492">
        <ele>635</ele>
        <time>2021-09-10T11:28:52.740Z</time>
      </trkpt>
      <trkpt lat="45.72395" lon="6.10492">
        <ele>634</ele>
        <time>2021-09-10T11:28:53.740Z</time>
      </trkpt>
      <trkpt lat="45.72397" lon="6.10493">
        <ele>634</ele>
        <time>2021-09-10T11:28:54.741Z</time>
      </trkpt>
      <trkpt lat="45.72399" lon="6.10494">
        <ele>633</ele>
        <time>2021-09-10T11:28:55.740Z</time>
      </trkpt>
      <trkpt lat="45.72402" lon="6.10495">
        <ele>633</ele>
        <time>2021-09-10T11:28:56.741Z</time>
      </trkpt>
      <trkpt lat="45.72404" lon="6.10496">
        <ele>632</ele>
        <time>2021-09-10T11:28:57.741Z</time>
      </trkpt>
      <trkpt lat="45.72406" lon="6.10497">
        <ele>632</ele>
        <time>2021-09-10T11:28:58.740Z</time>
      </trkpt>
      <trkpt lat="45.72408" lon="6.10498">
        <ele>632</ele>
        <time>2021-09-10T11:28:59.741Z</time>
      </trkpt>
      <trkpt lat="45.72411" lon="6.10499">
        <ele>632</ele>
        <time>2021-09-10T11:29:00.740Z</time>
      </trkpt>
      <trkpt lat="45.72413" lon="6.105">
        <ele>632</ele>
        <time>2021-09-10T11:29:01.740Z</time>
      </trkpt>
      <trkpt lat="45.72415" lon="6.10501">
        <ele>632</ele>
        <time>2021-09-10T11:29:02.740Z</time>
      </trkpt>
      <trkpt lat="45.72418" lon="6.10502">
        <ele>632</ele>
        <time>2021-09-10T11:29:03.741Z</time>
      </trkpt>
      <trkpt lat="45.7242" lon="6.10503">
        <ele>632</ele>
        <time>2021-09-10T11:29:04.740Z</time>
      </trkpt>
      <trkpt lat="45.72423" lon="6.10504">
        <ele>632</ele>
        <time>2021-09-10T11:29:05.740Z</time>
      </trkpt>
      <trkpt lat="45.72425" lon="6.10505">
        <ele>632</ele>
        <time>2021-09-10T11:29:06.741Z</time>
      </trkpt>
      <trkpt lat="45.72428" lon="6.10506">
        <ele>632</ele>
        <time>2021-09-10T11:29:07.741Z</time>
      </trkpt>
      <trkpt lat="45.7243" lon="6.10507">
        <ele>632</ele>
        <time>2021-09-10T11:29:08.741Z</time>
      </trkpt>
      <trkpt lat="45.72432" lon="6.10508">
        <ele>632</ele>
        <time>2021-09-10T11:29:09.741Z</time>
      </trkpt>
      <trkpt lat="45.72435" lon="6.10509">
        <ele>632</ele>
        <time>2021-09-10T11:29:10.741Z</time>
      </trkpt>
      <trkpt lat="45.72437" lon="6.1051">
        <ele>632</ele>
        <time>2021-09-10T11:29:11.740Z</time>
      </trkpt>
      <trkpt lat="45.72439" lon="6.10511">
        <ele>632</ele>
        <time>2021-09-10T11:29:12.741Z</time>
      </trkpt>
      <trkpt lat="45.72442" lon="6.10512">
        <ele>632</ele>
        <time>2021-09-10T11:29:13.740Z</time>
      </trkpt>
      <trkpt lat="45.72444" lon="6.10513">
        <ele>632</ele>
        <time>2021-09-10T11:29:14.740Z</time>
      </trkpt>
      <trkpt lat="45.72447" lon="6.10514">
        <ele>632</ele>
        <time>2021-09-10T11:29:15.741Z</time>
      </trkpt>
      <trkpt lat="45.72449" lon="6.10515">
        <ele>632</ele>
        <time>2021-09-10T11:29:16.740Z</time>
      </trkpt>
      <trkpt lat="45.72451" lon="6.10516">
        <ele>632</ele>
        <time>2021-09-10T11:29:17.740Z</time>
      </trkpt>
      <trkpt lat="45.72454" lon="6.10517">
        <ele>632</ele>
        <time>2021-09-10T11:29:18.741Z</time>
      </trkpt>
      <trkpt lat="45.72457" lon="6.10518">
        <ele>632</ele>
        <time>2021-09-10T11:29:19.741Z</time>
      </trkpt>
      <trkpt lat="45.72459" lon="6.10519">
        <ele>631</ele>
        <time>2021-09-10T11:29:20.740Z</time>
      </trkpt>
      <trkpt lat="45.72462" lon="6.1052">
        <ele>631</ele>
        <time>2021-09-10T11:29:21.740Z</time>
      </trkpt>
      <trkpt lat="45.72464" lon="6.10521">
        <ele>631</ele>
        <time>2021-09-10T11:29:22.741Z</time>
      </trkpt>
      <trkpt lat="45.72467" lon="6.10522">
        <ele>631</ele>
        <time>2021-09-10T11:29:23.740Z</time>
      </trkpt>
      <trkpt lat="45.7247" lon="6.10523">
        <ele>631</ele>
        <time>2021-09-10T11:29:24.740Z</time>
      </trkpt>
      <trkpt lat="45.72473" lon="6.10524">
        <ele>631</ele>
        <time>2021-09-10T11:29:25.740Z</time>
      </trkpt>
      <trkpt lat="45.72475" lon="6.10526">
        <ele>631</ele>
        <time>2021-09-10T11:29:26.740Z</time>
      </trkpt>
      <trkpt lat="45.72478" lon="6.10527">
        <ele>631</ele>
        <time>2021-09-10T11:29:27.740Z</time>
      </trkpt>
      <trkpt lat="45.7248" lon="6.10528">
        <ele>631</ele>
        <time>2021-09-10T11:29:28.741Z</time>
      </trkpt>
      <trkpt lat="45.72483" lon="6.10529">
        <ele>631</ele>
        <time>2021-09-10T11:29:29.741Z</time>
      </trkpt>
      <trkpt lat="45.72486" lon="6.1053">
        <ele>631</ele>
        <time>2021-09-10T11:29:30.741Z</time>
      </trkpt>
      <trkpt lat="45.72488" lon="6.10531">
        <ele>631</ele>
        <time>2021-09-10T11:29:31.740Z</time>
      </trkpt>
      <trkpt lat="45.7249" lon="6.10532">
        <ele>631</ele>
        <time>2021-09-10T11:29:32.741Z</time>
      </trkpt>
      <trkpt lat="45.72493" lon="6.10533">
        <ele>631</ele>
        <time>2021-09-10T11:29:33.741Z</time>
      </trkpt>
      <trkpt lat="45.72495" lon="6.10533">
        <ele>631</ele>
        <time>2021-09-10T11:29:34.740Z</time>
      </trkpt>
      <trkpt lat="45.72497" lon="6.10535">
        <ele>632</ele>
        <time>2021-09-10T11:29:35.740Z</time>
      </trkpt>
      <trkpt lat="45.725" lon="6.10536">
        <ele>632</ele>
        <time>2021-09-10T11:29:36.740Z</time>
      </trkpt>
      <trkpt lat="45.72502" lon="6.10537">
        <ele>632</ele>
        <time>2021-09-10T11:29:37.741Z</time>
      </trkpt>
      <trkpt lat="45.72505" lon="6.10538">
        <ele>632</ele>
        <time>2021-09-10T11:29:38.740Z</time>
      </trkpt>
      <trkpt lat="45.72508" lon="6.10539">
        <ele>632</ele>
        <time>2021-09-10T11:29:39.741Z</time>
      </trkpt>
      <trkpt lat="45.7251" lon="6.1054">
        <ele>632</ele>
        <time>2021-09-10T11:29:40.740Z</time>
      </trkpt>
      <trkpt lat="45.72512" lon="6.10541">
        <ele>632</ele>
        <time>2021-09-10T11:29:41.741Z</time>
      </trkpt>
      <trkpt lat="45.72515" lon="6.10542">
        <ele>632</ele>
        <time>2021-09-10T11:29:42.741Z</time>
      </trkpt>
      <trkpt lat="45.72517" lon="6.10543">
        <ele>632</ele>
        <time>2021-09-10T11:29:43.741Z</time>
      </trkpt>
      <trkpt lat="45.72519" lon="6.10544">
        <ele>633</ele>
        <time>2021-09-10T11:29:44.740Z</time>
      </trkpt>
      <trkpt lat="45.72522" lon="6.10545">
        <ele>633</ele>
        <time>2021-09-10T11:29:45.740Z</time>
      </trkpt>
      <trkpt lat="45.72524" lon="6.10546">
        <ele>632</ele>
        <time>2021-09-10T11:29:46.741Z</time>
      </trkpt>
      <trkpt lat="45.72527" lon="6.10547">
        <ele>633</ele>
        <time>2021-09-10T11:29:47.740Z</time>
      </trkpt>
      <trkpt lat="45.72529" lon="6.10548">
        <ele>633</ele>
        <time>2021-09-10T11:29:48.741Z</time>
      </trkpt>
      <trkpt lat="45.72532" lon="6.10549">
        <ele>633</ele>
        <time>2021-09-10T11:29:49.741Z</time>
      </trkpt>
      <trkpt lat="45.72535" lon="6.1055">
        <ele>633</ele>
        <time>2021-09-10T11:29:50.741Z</time>
      </trkpt>
      <trkpt lat="45.72537" lon="6.10551">
        <ele>633</ele>
        <time>2021-09-10T11:29:51.740Z</time>
      </trkpt>
      <trkpt lat="45.72539" lon="6.10552">
        <ele>633</ele>
        <time>2021-09-10T11:29:52.740Z</time>
      </trkpt>
      <trkpt lat="45.72542" lon="6.10553">
        <ele>633</ele>
        <time>2021-09-10T11:29:53.740Z</time>
      </trkpt>
      <trkpt lat="45.72545" lon="6.10554">
        <ele>633</ele>
        <time>2021-09-10T11:29:54.740Z</time>
      </trkpt>
      <trkpt lat="45.72547" lon="6.10555">
        <ele>633</ele>
        <time>2021-09-10T11:29:55.741Z</time>
      </trkpt>
      <trkpt lat="45.72551" lon="6.10556">
        <ele>633</ele>
        <time>2021-09-10T11:29:56.741Z</time>
      </trkpt>
      <trkpt lat="45.72553" lon="6.10557">
        <ele>633</ele>
        <time>2021-09-10T11:29:57.741Z</time>
      </trkpt>
      <trkpt lat="45.72555" lon="6.10558">
        <ele>633</ele>
        <time>2021-09-10T11:29:58.741Z</time>
      </trkpt>
      <trkpt lat="45.72558" lon="6.10559">
        <ele>633</ele>
        <time>2021-09-10T11:29:59.741Z</time>
      </trkpt>
      <trkpt lat="45.72561" lon="6.1056">
        <ele>633</ele>
        <time>2021-09-10T11:30:00.741Z</time>
      </trkpt>
      <trkpt lat="45.72564" lon="6.10561">
        <ele>633</ele>
        <time>2021-09-10T11:30:01.740Z</time>
      </trkpt>
      <trkpt lat="45.72566" lon="6.10562">
        <ele>634</ele>
        <time>2021-09-10T11:30:02.741Z</time>
      </trkpt>
      <trkpt lat="45.72569" lon="6.10563">
        <ele>634</ele>
        <time>2021-09-10T11:30:03.741Z</time>
      </trkpt>
      <trkpt lat="45.72571" lon="6.10564">
        <ele>634</ele>
        <time>2021-09-10T11:30:04.740Z</time>
      </trkpt>
      <trkpt lat="45.72574" lon="6.10565">
        <ele>634</ele>
        <time>2021-09-10T11:30:05.741Z</time>
      </trkpt>
      <trkpt lat="45.72576" lon="6.10566">
        <ele>634</ele>
        <time>2021-09-10T11:30:06.740Z</time>
      </trkpt>
      <trkpt lat="45.72579" lon="6.10567">
        <ele>634</ele>
        <time>2021-09-10T11:30:07.740Z</time>
      </trkpt>
      <trkpt lat="45.72581" lon="6.10567">
        <ele>635</ele>
        <time>2021-09-10T11:30:08.741Z</time>
      </trkpt>
      <trkpt lat="45.72584" lon="6.10569">
        <ele>635</ele>
        <time>2021-09-10T11:30:09.741Z</time>
      </trkpt>
      <trkpt lat="45.72586" lon="6.1057">
        <ele>635</ele>
        <time>2021-09-10T11:30:10.741Z</time>
      </trkpt>
      <trkpt lat="45.72589" lon="6.10571">
        <ele>635</ele>
        <time>2021-09-10T11:30:11.741Z</time>
      </trkpt>
      <trkpt lat="45.72591" lon="6.10572">
        <ele>635</ele>
        <time>2021-09-10T11:30:12.741Z</time>
      </trkpt>
      <trkpt lat="45.72593" lon="6.10573">
        <ele>635</ele>
        <time>2021-09-10T11:30:13.741Z</time>
      </trkpt>
      <trkpt lat="45.72595" lon="6.10573">
        <ele>636</ele>
        <time>2021-09-10T11:30:14.741Z</time>
      </trkpt>
      <trkpt lat="45.72598" lon="6.10574">
        <ele>636</ele>
        <time>2021-09-10T11:30:15.741Z</time>
      </trkpt>
      <trkpt lat="45.72601" lon="6.10575">
        <ele>636</ele>
        <time>2021-09-10T11:30:16.741Z</time>
      </trkpt>
      <trkpt lat="45.72603" lon="6.10576">
        <ele>636</ele>
        <time>2021-09-10T11:30:17.741Z</time>
      </trkpt>
      <trkpt lat="45.72605" lon="6.10576">
        <ele>636</ele>
        <time>2021-09-10T11:30:18.741Z</time>
      </trkpt>
      <trkpt lat="45.72608" lon="6.10576">
        <ele>635</ele>
        <time>2021-09-10T11:30:19.741Z</time>
      </trkpt>
      <trkpt lat="45.7261" lon="6.10576">
        <ele>635</ele>
        <time>2021-09-10T11:30:20.740Z</time>
      </trkpt>
      <trkpt lat="45.72612" lon="6.10576">
        <ele>635</ele>
        <time>2021-09-10T11:30:21.741Z</time>
      </trkpt>
      <trkpt lat="45.72614" lon="6.10576">
        <ele>635</ele>
        <time>2021-09-10T11:30:22.741Z</time>
      </trkpt>
      <trkpt lat="45.72617" lon="6.10576">
        <ele>635</ele>
        <time>2021-09-10T11:30:23.741Z</time>
      </trkpt>
      <trkpt lat="45.72619" lon="6.10576">
        <ele>635</ele>
        <time>2021-09-10T11:30:24.740Z</time>
      </trkpt>
      <trkpt lat="45.72621" lon="6.10576">
        <ele>635</ele>
        <time>2021-09-10T11:30:25.741Z</time>
      </trkpt>
      <trkpt lat="45.72623" lon="6.10576">
        <ele>636</ele>
        <time>2021-09-10T11:30:26.741Z</time>
      </trkpt>
      <trkpt lat="45.72626" lon="6.10576">
        <ele>636</ele>
        <time>2021-09-10T11:30:27.741Z</time>
      </trkpt>
      <trkpt lat="45.72628" lon="6.10576">
        <ele>635</ele>
        <time>2021-09-10T11:30:28.741Z</time>
      </trkpt>
      <trkpt lat="45.7263" lon="6.10576">
        <ele>635</ele>
        <time>2021-09-10T11:30:29.741Z</time>
      </trkpt>
      <trkpt lat="45.72632" lon="6.10575">
        <ele>635</ele>
        <time>2021-09-10T11:30:30.741Z</time>
      </trkpt>
      <trkpt lat="45.72635" lon="6.10574">
        <ele>635</ele>
        <time>2021-09-10T11:30:31.741Z</time>
      </trkpt>
      <trkpt lat="45.72637" lon="6.10574">
        <ele>635</ele>
        <time>2021-09-10T11:30:32.741Z</time>
      </trkpt>
      <trkpt lat="45.72639" lon="6.10573">
        <ele>635</ele>
        <time>2021-09-10T11:30:33.741Z</time>
      </trkpt>
      <trkpt lat="45.72642" lon="6.10572">
        <ele>635</ele>
        <time>2021-09-10T11:30:34.741Z</time>
      </trkpt>
      <trkpt lat="45.72644" lon="6.10571">
        <ele>635</ele>
        <time>2021-09-10T11:30:35.740Z</time>
      </trkpt>
      <trkpt lat="45.72646" lon="6.1057">
        <ele>636</ele>
        <time>2021-09-10T11:30:36.741Z</time>
      </trkpt>
      <trkpt lat="45.72649" lon="6.1057">
        <ele>636</ele>
        <time>2021-09-10T11:30:37.741Z</time>
      </trkpt>
      <trkpt lat="45.72651" lon="6.10569">
        <ele>636</ele>
        <time>2021-09-10T11:30:38.741Z</time>
      </trkpt>
      <trkpt lat="45.72653" lon="6.10568">
        <ele>637</ele>
        <time>2021-09-10T11:30:39.741Z</time>
      </trkpt>
      <trkpt lat="45.72656" lon="6.10567">
        <ele>637</ele>
        <time>2021-09-10T11:30:40.741Z</time>
      </trkpt>
      <trkpt lat="45.72658" lon="6.10566">
        <ele>637</ele>
        <time>2021-09-10T11:30:41.741Z</time>
      </trkpt>
      <trkpt lat="45.72661" lon="6.10565">
        <ele>637</ele>
        <time>2021-09-10T11:30:42.741Z</time>
      </trkpt>
      <trkpt lat="45.72663" lon="6.10564">
        <ele>637</ele>
        <time>2021-09-10T11:30:43.741Z</time>
      </trkpt>
      <trkpt lat="45.72665" lon="6.10563">
        <ele>636</ele>
        <time>2021-09-10T11:30:44.741Z</time>
      </trkpt>
      <trkpt lat="45.72668" lon="6.10562">
        <ele>637</ele>
        <time>2021-09-10T11:30:45.741Z</time>
      </trkpt>
      <trkpt lat="45.7267" lon="6.10561">
        <ele>637</ele>
        <time>2021-09-10T11:30:46.741Z</time>
      </trkpt>
      <trkpt lat="45.72673" lon="6.10561">
        <ele>637</ele>
        <time>2021-09-10T11:30:47.741Z</time>
      </trkpt>
      <trkpt lat="45.72675" lon="6.1056">
        <ele>637</ele>
        <time>2021-09-10T11:30:48.741Z</time>
      </trkpt>
      <trkpt lat="45.72677" lon="6.10559">
        <ele>637</ele>
        <time>2021-09-10T11:30:49.741Z</time>
      </trkpt>
      <trkpt lat="45.7268" lon="6.10558">
        <ele>637</ele>
        <time>2021-09-10T11:30:50.740Z</time>
      </trkpt>
      <trkpt lat="45.72682" lon="6.10557">
        <ele>637</ele>
        <time>2021-09-10T11:30:51.741Z</time>
      </trkpt>
      <trkpt lat="45.72684" lon="6.10556">
        <ele>637</ele>
        <time>2021-09-10T11:30:52.740Z</time>
      </trkpt>
      <trkpt lat="45.72686" lon="6.10555">
        <ele>637</ele>
        <time>2021-09-10T11:30:53.741Z</time>
      </trkpt>
      <trkpt lat="45.72688" lon="6.10554">
        <ele>637</ele>
        <time>2021-09-10T11:30:54.741Z</time>
      </trkpt>
      <trkpt lat="45.7269" lon="6.10554">
        <ele>638</ele>
        <time>2021-09-10T11:30:55.741Z</time>
      </trkpt>
      <trkpt lat="45.72693" lon="6.10553">
        <ele>638</ele>
        <time>2021-09-10T11:30:56.741Z</time>
      </trkpt>
      <trkpt lat="45.72695" lon="6.10552">
        <ele>638</ele>
        <time>2021-09-10T11:30:57.741Z</time>
      </trkpt>
      <trkpt lat="45.72697" lon="6.10551">
        <ele>638</ele>
        <time>2021-09-10T11:30:58.741Z</time>
      </trkpt>
      <trkpt lat="45.72699" lon="6.1055">
        <ele>638</ele>
        <time>2021-09-10T11:30:59.741Z</time>
      </trkpt>
      <trkpt lat="45.72702" lon="6.1055">
        <ele>638</ele>
        <time>2021-09-10T11:31:00.741Z</time>
      </trkpt>
      <trkpt lat="45.72704" lon="6.10549">
        <ele>639</ele>
        <time>2021-09-10T11:31:01.740Z</time>
      </trkpt>
      <trkpt lat="45.72707" lon="6.10548">
        <ele>640</ele>
        <time>2021-09-10T11:31:02.740Z</time>
      </trkpt>
      <trkpt lat="45.72708" lon="6.10548">
        <ele>640</ele>
        <time>2021-09-10T11:31:03.741Z</time>
      </trkpt>
      <trkpt lat="45.7271" lon="6.10547">
        <ele>640</ele>
        <time>2021-09-10T11:31:04.741Z</time>
      </trkpt>
      <trkpt lat="45.72712" lon="6.10546">
        <ele>641</ele>
        <time>2021-09-10T11:31:05.741Z</time>
      </trkpt>
      <trkpt lat="45.72715" lon="6.10545">
        <ele>641</ele>
        <time>2021-09-10T11:31:06.740Z</time>
      </trkpt>
      <trkpt lat="45.72717" lon="6.10544">
        <ele>641</ele>
        <time>2021-09-10T11:31:07.741Z</time>
      </trkpt>
      <trkpt lat="45.72718" lon="6.10544">
        <ele>640</ele>
        <time>2021-09-10T11:31:08.741Z</time>
      </trkpt>
      <trkpt lat="45.72721" lon="6.10543">
        <ele>640</ele>
        <time>2021-09-10T11:31:09.741Z</time>
      </trkpt>
      <trkpt lat="45.72722" lon="6.10543">
        <ele>639</ele>
        <time>2021-09-10T11:31:10.740Z</time>
      </trkpt>
      <trkpt lat="45.72724" lon="6.10541">
        <ele>639</ele>
        <time>2021-09-10T11:31:11.741Z</time>
      </trkpt>
      <trkpt lat="45.72726" lon="6.1054">
        <ele>639</ele>
        <time>2021-09-10T11:31:12.740Z</time>
      </trkpt>
      <trkpt lat="45.72728" lon="6.1054">
        <ele>639</ele>
        <time>2021-09-10T11:31:13.741Z</time>
      </trkpt>
      <trkpt lat="45.7273" lon="6.10539">
        <ele>639</ele>
        <time>2021-09-10T11:31:14.740Z</time>
      </trkpt>
      <trkpt lat="45.72732" lon="6.10538">
        <ele>639</ele>
        <time>2021-09-10T11:31:15.740Z</time>
      </trkpt>
      <trkpt lat="45.72735" lon="6.10537">
        <ele>639</ele>
        <time>2021-09-10T11:31:16.740Z</time>
      </trkpt>
      <trkpt lat="45.72737" lon="6.10536">
        <ele>640</ele>
        <time>2021-09-10T11:31:17.741Z</time>
      </trkpt>
      <trkpt lat="45.72739" lon="6.10536">
        <ele>640</ele>
        <time>2021-09-10T11:31:18.740Z</time>
      </trkpt>
      <trkpt lat="45.72741" lon="6.10535">
        <ele>640</ele>
        <time>2021-09-10T11:31:19.741Z</time>
      </trkpt>
      <trkpt lat="45.72743" lon="6.10534">
        <ele>640</ele>
        <time>2021-09-10T11:31:20.741Z</time>
      </trkpt>
      <trkpt lat="45.72746" lon="6.10533">
        <ele>641</ele>
        <time>2021-09-10T11:31:21.740Z</time>
      </trkpt>
      <trkpt lat="45.72748" lon="6.10533">
        <ele>641</ele>
        <time>2021-09-10T11:31:22.740Z</time>
      </trkpt>
      <trkpt lat="45.7275" lon="6.10532">
        <ele>642</ele>
        <time>2021-09-10T11:31:23.741Z</time>
      </trkpt>
      <trkpt lat="45.72752" lon="6.10531">
        <ele>642</ele>
        <time>2021-09-10T11:31:24.740Z</time>
      </trkpt>
      <trkpt lat="45.72755" lon="6.1053">
        <ele>643</ele>
        <time>2021-09-10T11:31:25.740Z</time>
      </trkpt>
      <trkpt lat="45.72757" lon="6.10529">
        <ele>643</ele>
        <time>2021-09-10T11:31:26.740Z</time>
      </trkpt>
      <trkpt lat="45.72759" lon="6.10529">
        <ele>643</ele>
        <time>2021-09-10T11:31:27.741Z</time>
      </trkpt>
      <trkpt lat="45.72761" lon="6.10528">
        <ele>643</ele>
        <time>2021-09-10T11:31:28.741Z</time>
      </trkpt>
      <trkpt lat="45.72763" lon="6.10527">
        <ele>643</ele>
        <time>2021-09-10T11:31:29.741Z</time>
      </trkpt>
      <trkpt lat="45.72765" lon="6.10526">
        <ele>643</ele>
        <time>2021-09-10T11:31:30.741Z</time>
      </trkpt>
      <trkpt lat="45.72768" lon="6.10526">
        <ele>644</ele>
        <time>2021-09-10T11:31:31.741Z</time>
      </trkpt>
      <trkpt lat="45.7277" lon="6.10525">
        <ele>644</ele>
        <time>2021-09-10T11:31:32.740Z</time>
      </trkpt>
      <trkpt lat="45.72772" lon="6.10524">
        <ele>644</ele>
        <time>2021-09-10T11:31:33.741Z</time>
      </trkpt>
      <trkpt lat="45.72774" lon="6.10523">
        <ele>645</ele>
        <time>2021-09-10T11:31:34.741Z</time>
      </trkpt>
      <trkpt lat="45.72776" lon="6.10522">
        <ele>645</ele>
        <time>2021-09-10T11:31:35.741Z</time>
      </trkpt>
      <trkpt lat="45.72778" lon="6.10522">
        <ele>645</ele>
        <time>2021-09-10T11:31:36.740Z</time>
      </trkpt>
      <trkpt lat="45.7278" lon="6.10521">
        <ele>644</ele>
        <time>2021-09-10T11:31:37.740Z</time>
      </trkpt>
      <trkpt lat="45.72782" lon="6.1052">
        <ele>645</ele>
        <time>2021-09-10T11:31:38.741Z</time>
      </trkpt>
      <trkpt lat="45.72784" lon="6.10519">
        <ele>644</ele>
        <time>2021-09-10T11:31:39.741Z</time>
      </trkpt>
      <trkpt lat="45.72787" lon="6.10518">
        <ele>644</ele>
        <time>2021-09-10T11:31:40.741Z</time>
      </trkpt>
      <trkpt lat="45.72788" lon="6.10518">
        <ele>644</ele>
        <time>2021-09-10T11:31:41.741Z</time>
      </trkpt>
      <trkpt lat="45.72791" lon="6.10517">
        <ele>644</ele>
        <time>2021-09-10T11:31:42.741Z</time>
      </trkpt>
      <trkpt lat="45.72793" lon="6.10516">
        <ele>645</ele>
        <time>2021-09-10T11:31:43.740Z</time>
      </trkpt>
      <trkpt lat="45.72795" lon="6.10515">
        <ele>645</ele>
        <time>2021-09-10T11:31:44.741Z</time>
      </trkpt>
      <trkpt lat="45.72797" lon="6.10515">
        <ele>645</ele>
        <time>2021-09-10T11:31:45.741Z</time>
      </trkpt>
      <trkpt lat="45.72799" lon="6.10514">
        <ele>646</ele>
        <time>2021-09-10T11:31:46.741Z</time>
      </trkpt>
      <trkpt lat="45.72801" lon="6.10513">
        <ele>646</ele>
        <time>2021-09-10T11:31:47.740Z</time>
      </trkpt>
      <trkpt lat="45.72803" lon="6.10512">
        <ele>647</ele>
        <time>2021-09-10T11:31:48.741Z</time>
      </trkpt>
      <trkpt lat="45.72805" lon="6.10512">
        <ele>647</ele>
        <time>2021-09-10T11:31:49.741Z</time>
      </trkpt>
      <trkpt lat="45.72807" lon="6.10511">
        <ele>647</ele>
        <time>2021-09-10T11:31:50.741Z</time>
      </trkpt>
      <trkpt lat="45.72809" lon="6.10511">
        <ele>647</ele>
        <time>2021-09-10T11:31:51.740Z</time>
      </trkpt>
      <trkpt lat="45.72811" lon="6.1051">
        <ele>647</ele>
        <time>2021-09-10T11:31:52.740Z</time>
      </trkpt>
      <trkpt lat="45.72813" lon="6.1051">
        <ele>647</ele>
        <time>2021-09-10T11:31:53.741Z</time>
      </trkpt>
      <trkpt lat="45.72816" lon="6.1051">
        <ele>647</ele>
        <time>2021-09-10T11:31:54.740Z</time>
      </trkpt>
      <trkpt lat="45.72818" lon="6.10511">
        <ele>647</ele>
        <time>2021-09-10T11:31:55.741Z</time>
      </trkpt>
      <trkpt lat="45.7282" lon="6.10512">
        <ele>647</ele>
        <time>2021-09-10T11:31:56.741Z</time>
      </trkpt>
      <trkpt lat="45.72822" lon="6.10513">
        <ele>647</ele>
        <time>2021-09-10T11:31:57.741Z</time>
      </trkpt>
      <trkpt lat="45.72824" lon="6.10514">
        <ele>647</ele>
        <time>2021-09-10T11:31:58.741Z</time>
      </trkpt>
      <trkpt lat="45.72826" lon="6.10515">
        <ele>648</ele>
        <time>2021-09-10T11:31:59.741Z</time>
      </trkpt>
      <trkpt lat="45.72828" lon="6.10517">
        <ele>648</ele>
        <time>2021-09-10T11:32:00.740Z</time>
      </trkpt>
      <trkpt lat="45.72831" lon="6.10519">
        <ele>648</ele>
        <time>2021-09-10T11:32:01.740Z</time>
      </trkpt>
      <trkpt lat="45.72833" lon="6.10521">
        <ele>648</ele>
        <time>2021-09-10T11:32:02.741Z</time>
      </trkpt>
      <trkpt lat="45.72835" lon="6.10523">
        <ele>649</ele>
        <time>2021-09-10T11:32:03.741Z</time>
      </trkpt>
      <trkpt lat="45.72836" lon="6.10524">
        <ele>649</ele>
        <time>2021-09-10T11:32:04.741Z</time>
      </trkpt>
      <trkpt lat="45.72838" lon="6.10526">
        <ele>650</ele>
        <time>2021-09-10T11:32:05.741Z</time>
      </trkpt>
      <trkpt lat="45.7284" lon="6.10529">
        <ele>650</ele>
        <time>2021-09-10T11:32:06.741Z</time>
      </trkpt>
      <trkpt lat="45.72842" lon="6.10531">
        <ele>650</ele>
        <time>2021-09-10T11:32:07.740Z</time>
      </trkpt>
      <trkpt lat="45.72845" lon="6.10533">
        <ele>651</ele>
        <time>2021-09-10T11:32:08.741Z</time>
      </trkpt>
      <trkpt lat="45.72846" lon="6.10536">
        <ele>652</ele>
        <time>2021-09-10T11:32:09.740Z</time>
      </trkpt>
      <trkpt lat="45.72848" lon="6.10539">
        <ele>652</ele>
        <time>2021-09-10T11:32:10.740Z</time>
      </trkpt>
      <trkpt lat="45.7285" lon="6.10542">
        <ele>653</ele>
        <time>2021-09-10T11:32:11.740Z</time>
      </trkpt>
      <trkpt lat="45.72852" lon="6.10544">
        <ele>653</ele>
        <time>2021-09-10T11:32:12.741Z</time>
      </trkpt>
      <trkpt lat="45.72854" lon="6.10546">
        <ele>652</ele>
        <time>2021-09-10T11:32:13.741Z</time>
      </trkpt>
      <trkpt lat="45.72856" lon="6.10549">
        <ele>652</ele>
        <time>2021-09-10T11:32:14.741Z</time>
      </trkpt>
      <trkpt lat="45.72857" lon="6.10551">
        <ele>653</ele>
        <time>2021-09-10T11:32:15.741Z</time>
      </trkpt>
      <trkpt lat="45.7286" lon="6.10554">
        <ele>653</ele>
        <time>2021-09-10T11:32:16.740Z</time>
      </trkpt>
      <trkpt lat="45.72861" lon="6.10557">
        <ele>654</ele>
        <time>2021-09-10T11:32:17.740Z</time>
      </trkpt>
      <trkpt lat="45.72863" lon="6.10559">
        <ele>655</ele>
        <time>2021-09-10T11:32:18.740Z</time>
      </trkpt>
      <trkpt lat="45.72864" lon="6.10561">
        <ele>655</ele>
        <time>2021-09-10T11:32:19.741Z</time>
      </trkpt>
      <trkpt lat="45.72866" lon="6.10564">
        <ele>656</ele>
        <time>2021-09-10T11:32:20.740Z</time>
      </trkpt>
      <trkpt lat="45.72868" lon="6.10566">
        <ele>656</ele>
        <time>2021-09-10T11:32:21.741Z</time>
      </trkpt>
      <trkpt lat="45.72869" lon="6.10568">
        <ele>656</ele>
        <time>2021-09-10T11:32:22.741Z</time>
      </trkpt>
      <trkpt lat="45.7287" lon="6.10571">
        <ele>657</ele>
        <time>2021-09-10T11:32:23.741Z</time>
      </trkpt>
      <trkpt lat="45.72872" lon="6.10573">
        <ele>657</ele>
        <time>2021-09-10T11:32:24.741Z</time>
      </trkpt>
      <trkpt lat="45.72874" lon="6.10575">
        <ele>657</ele>
        <time>2021-09-10T11:32:25.740Z</time>
      </trkpt>
      <trkpt lat="45.72875" lon="6.10578">
        <ele>657</ele>
        <time>2021-09-10T11:32:26.741Z</time>
      </trkpt>
      <trkpt lat="45.72877" lon="6.1058">
        <ele>657</ele>
        <time>2021-09-10T11:32:27.741Z</time>
      </trkpt>
      <trkpt lat="45.72879" lon="6.10582">
        <ele>657</ele>
        <time>2021-09-10T11:32:28.741Z</time>
      </trkpt>
      <trkpt lat="45.7288" lon="6.10584">
        <ele>657</ele>
        <time>2021-09-10T11:32:29.741Z</time>
      </trkpt>
      <trkpt lat="45.72882" lon="6.10587">
        <ele>657</ele>
        <time>2021-09-10T11:32:30.740Z</time>
      </trkpt>
      <trkpt lat="45.72884" lon="6.10589">
        <ele>656</ele>
        <time>2021-09-10T11:32:31.741Z</time>
      </trkpt>
      <trkpt lat="45.72885" lon="6.10592">
        <ele>656</ele>
        <time>2021-09-10T11:32:32.741Z</time>
      </trkpt>
      <trkpt lat="45.72887" lon="6.10594">
        <ele>656</ele>
        <time>2021-09-10T11:32:33.741Z</time>
      </trkpt>
      <trkpt lat="45.72888" lon="6.10596">
        <ele>656</ele>
        <time>2021-09-10T11:32:34.741Z</time>
      </trkpt>
      <trkpt lat="45.7289" lon="6.10597">
        <ele>656</ele>
        <time>2021-09-10T11:32:35.740Z</time>
      </trkpt>
      <trkpt lat="45.72892" lon="6.10599">
        <ele>656</ele>
        <time>2021-09-10T11:32:36.740Z</time>
      </trkpt>
      <trkpt lat="45.72893" lon="6.10602">
        <ele>656</ele>
        <time>2021-09-10T11:32:37.740Z</time>
      </trkpt>
      <trkpt lat="45.72895" lon="6.10604">
        <ele>656</ele>
        <time>2021-09-10T11:32:38.740Z</time>
      </trkpt>
      <trkpt lat="45.72897" lon="6.10606">
        <ele>656</ele>
        <time>2021-09-10T11:32:39.741Z</time>
      </trkpt>
      <trkpt lat="45.72899" lon="6.10608">
        <ele>656</ele>
        <time>2021-09-10T11:32:40.741Z</time>
      </trkpt>
      <trkpt lat="45.729" lon="6.1061">
        <ele>657</ele>
        <time>2021-09-10T11:32:41.740Z</time>
      </trkpt>
      <trkpt lat="45.72901" lon="6.10612">
        <ele>657</ele>
        <time>2021-09-10T11:32:42.741Z</time>
      </trkpt>
      <trkpt lat="45.72903" lon="6.10614">
        <ele>657</ele>
        <time>2021-09-10T11:32:43.740Z</time>
      </trkpt>
      <trkpt lat="45.72904" lon="6.10616">
        <ele>658</ele>
        <time>2021-09-10T11:32:44.741Z</time>
      </trkpt>
      <trkpt lat="45.72906" lon="6.10618">
        <ele>658</ele>
        <time>2021-09-10T11:32:45.740Z</time>
      </trkpt>
      <trkpt lat="45.72908" lon="6.10619">
        <ele>659</ele>
        <time>2021-09-10T11:32:46.741Z</time>
      </trkpt>
      <trkpt lat="45.72909" lon="6.10621">
        <ele>659</ele>
        <time>2021-09-10T11:32:47.741Z</time>
      </trkpt>
      <trkpt lat="45.72911" lon="6.10623">
        <ele>660</ele>
        <time>2021-09-10T11:32:48.741Z</time>
      </trkpt>
      <trkpt lat="45.72913" lon="6.10625">
        <ele>660</ele>
        <time>2021-09-10T11:32:49.740Z</time>
      </trkpt>
      <trkpt lat="45.72914" lon="6.10627">
        <ele>661</ele>
        <time>2021-09-10T11:32:50.741Z</time>
      </trkpt>
      <trkpt lat="45.72916" lon="6.10629">
        <ele>662</ele>
        <time>2021-09-10T11:32:51.741Z</time>
      </trkpt>
      <trkpt lat="45.72917" lon="6.10631">
        <ele>663</ele>
        <time>2021-09-10T11:32:52.741Z</time>
      </trkpt>
      <trkpt lat="45.72919" lon="6.10634">
        <ele>663</ele>
        <time>2021-09-10T11:32:53.741Z</time>
      </trkpt>
      <trkpt lat="45.7292" lon="6.10636">
        <ele>664</ele>
        <time>2021-09-10T11:32:54.740Z</time>
      </trkpt>
      <trkpt lat="45.72921" lon="6.10638">
        <ele>664</ele>
        <time>2021-09-10T11:32:55.741Z</time>
      </trkpt>
      <trkpt lat="45.72924" lon="6.10641">
        <ele>664</ele>
        <time>2021-09-10T11:32:56.741Z</time>
      </trkpt>
      <trkpt lat="45.72925" lon="6.10643">
        <ele>664</ele>
        <time>2021-09-10T11:32:57.741Z</time>
      </trkpt>
      <trkpt lat="45.72927" lon="6.10645">
        <ele>664</ele>
        <time>2021-09-10T11:32:58.740Z</time>
      </trkpt>
      <trkpt lat="45.72928" lon="6.10647">
        <ele>664</ele>
        <time>2021-09-10T11:32:59.741Z</time>
      </trkpt>
      <trkpt lat="45.72929" lon="6.10649">
        <ele>663</ele>
        <time>2021-09-10T11:33:00.741Z</time>
      </trkpt>
      <trkpt lat="45.72931" lon="6.10652">
        <ele>663</ele>
        <time>2021-09-10T11:33:01.741Z</time>
      </trkpt>
      <trkpt lat="45.72933" lon="6.10654">
        <ele>662</ele>
        <time>2021-09-10T11:33:02.740Z</time>
      </trkpt>
      <trkpt lat="45.72934" lon="6.10656">
        <ele>662</ele>
        <time>2021-09-10T11:33:03.741Z</time>
      </trkpt>
      <trkpt lat="45.72936" lon="6.10658">
        <ele>662</ele>
        <time>2021-09-10T11:33:04.741Z</time>
      </trkpt>
      <trkpt lat="45.72937" lon="6.1066">
        <ele>662</ele>
        <time>2021-09-10T11:33:05.740Z</time>
      </trkpt>
      <trkpt lat="45.72939" lon="6.10663">
        <ele>662</ele>
        <time>2021-09-10T11:33:06.740Z</time>
      </trkpt>
      <trkpt lat="45.72941" lon="6.10665">
        <ele>662</ele>
        <time>2021-09-10T11:33:07.741Z</time>
      </trkpt>
      <trkpt lat="45.72943" lon="6.10666">
        <ele>662</ele>
        <time>2021-09-10T11:33:08.741Z</time>
      </trkpt>
      <trkpt lat="45.72944" lon="6.10669">
        <ele>663</ele>
        <time>2021-09-10T11:33:09.741Z</time>
      </trkpt>
      <trkpt lat="45.72946" lon="6.10671">
        <ele>663</ele>
        <time>2021-09-10T11:33:10.740Z</time>
      </trkpt>
      <trkpt lat="45.72948" lon="6.10673">
        <ele>663</ele>
        <time>2021-09-10T11:33:11.740Z</time>
      </trkpt>
      <trkpt lat="45.72949" lon="6.10675">
        <ele>664</ele>
        <time>2021-09-10T11:33:12.740Z</time>
      </trkpt>
      <trkpt lat="45.72951" lon="6.10677">
        <ele>664</ele>
        <time>2021-09-10T11:33:13.741Z</time>
      </trkpt>
      <trkpt lat="45.72953" lon="6.10679">
        <ele>664</ele>
        <time>2021-09-10T11:33:14.741Z</time>
      </trkpt>
      <trkpt lat="45.72954" lon="6.10681">
        <ele>665</ele>
        <time>2021-09-10T11:33:15.741Z</time>
      </trkpt>
      <trkpt lat="45.72956" lon="6.10683">
        <ele>665</ele>
        <time>2021-09-10T11:33:16.741Z</time>
      </trkpt>
      <trkpt lat="45.72957" lon="6.10685">
        <ele>666</ele>
        <time>2021-09-10T11:33:17.741Z</time>
      </trkpt>
      <trkpt lat="45.72959" lon="6.10687">
        <ele>666</ele>
        <time>2021-09-10T11:33:18.740Z</time>
      </trkpt>
      <trkpt lat="45.72961" lon="6.1069">
        <ele>667</ele>
        <time>2021-09-10T11:33:19.741Z</time>
      </trkpt>
      <trkpt lat="45.72963" lon="6.10692">
        <ele>667</ele>
        <time>2021-09-10T11:33:20.741Z</time>
      </trkpt>
      <trkpt lat="45.72964" lon="6.10694">
        <ele>667</ele>
        <time>2021-09-10T11:33:21.740Z</time>
      </trkpt>
      <trkpt lat="45.72966" lon="6.10696">
        <ele>667</ele>
        <time>2021-09-10T11:33:22.741Z</time>
      </trkpt>
      <trkpt lat="45.72968" lon="6.10698">
        <ele>666</ele>
        <time>2021-09-10T11:33:23.741Z</time>
      </trkpt>
      <trkpt lat="45.72969" lon="6.107">
        <ele>667</ele>
        <time>2021-09-10T11:33:24.740Z</time>
      </trkpt>
      <trkpt lat="45.72971" lon="6.10702">
        <ele>667</ele>
        <time>2021-09-10T11:33:25.740Z</time>
      </trkpt>
      <trkpt lat="45.72972" lon="6.10704">
        <ele>667</ele>
        <time>2021-09-10T11:33:26.740Z</time>
      </trkpt>
      <trkpt lat="45.72974" lon="6.10707">
        <ele>668</ele>
        <time>2021-09-10T11:33:27.741Z</time>
      </trkpt>
      <trkpt lat="45.72976" lon="6.10709">
        <ele>669</ele>
        <time>2021-09-10T11:33:28.741Z</time>
      </trkpt>
      <trkpt lat="45.72978" lon="6.10711">
        <ele>669</ele>
        <time>2021-09-10T11:33:29.741Z</time>
      </trkpt>
      <trkpt lat="45.72979" lon="6.10713">
        <ele>669</ele>
        <time>2021-09-10T11:33:30.740Z</time>
      </trkpt>
      <trkpt lat="45.72981" lon="6.10716">
        <ele>669</ele>
        <time>2021-09-10T11:33:31.740Z</time>
      </trkpt>
      <trkpt lat="45.72983" lon="6.10718">
        <ele>668</ele>
        <time>2021-09-10T11:33:32.741Z</time>
      </trkpt>
      <trkpt lat="45.72984" lon="6.1072">
        <ele>668</ele>
        <time>2021-09-10T11:33:33.741Z</time>
      </trkpt>
      <trkpt lat="45.72986" lon="6.10722">
        <ele>668</ele>
        <time>2021-09-10T11:33:34.741Z</time>
      </trkpt>
      <trkpt lat="45.72987" lon="6.10724">
        <ele>668</ele>
        <time>2021-09-10T11:33:35.741Z</time>
      </trkpt>
      <trkpt lat="45.72989" lon="6.10726">
        <ele>668</ele>
        <time>2021-09-10T11:33:36.741Z</time>
      </trkpt>
      <trkpt lat="45.7299" lon="6.10728">
        <ele>669</ele>
        <time>2021-09-10T11:33:37.740Z</time>
      </trkpt>
      <trkpt lat="45.72992" lon="6.1073">
        <ele>669</ele>
        <time>2021-09-10T11:33:38.740Z</time>
      </trkpt>
      <trkpt lat="45.72993" lon="6.10732">
        <ele>670</ele>
        <time>2021-09-10T11:33:39.740Z</time>
      </trkpt>
      <trkpt lat="45.72995" lon="6.10734">
        <ele>671</ele>
        <time>2021-09-10T11:33:40.741Z</time>
      </trkpt>
      <trkpt lat="45.72997" lon="6.10736">
        <ele>672</ele>
        <time>2021-09-10T11:33:41.741Z</time>
      </trkpt>
      <trkpt lat="45.72998" lon="6.10738">
        <ele>673</ele>
        <time>2021-09-10T11:33:42.741Z</time>
      </trkpt>
      <trkpt lat="45.72999" lon="6.10741">
        <ele>673</ele>
        <time>2021-09-10T11:33:43.741Z</time>
      </trkpt>
      <trkpt lat="45.73" lon="6.10743">
        <ele>674</ele>
        <time>2021-09-10T11:33:44.741Z</time>
      </trkpt>
      <trkpt lat="45.73001" lon="6.10745">
        <ele>674</ele>
        <time>2021-09-10T11:33:45.740Z</time>
      </trkpt>
      <trkpt lat="45.73003" lon="6.10748">
        <ele>675</ele>
        <time>2021-09-10T11:33:46.741Z</time>
      </trkpt>
      <trkpt lat="45.73004" lon="6.1075">
        <ele>675</ele>
        <time>2021-09-10T11:33:47.741Z</time>
      </trkpt>
      <trkpt lat="45.73006" lon="6.10752">
        <ele>676</ele>
        <time>2021-09-10T11:33:48.741Z</time>
      </trkpt>
      <trkpt lat="45.73008" lon="6.10754">
        <ele>676</ele>
        <time>2021-09-10T11:33:49.741Z</time>
      </trkpt>
      <trkpt lat="45.73009" lon="6.10756">
        <ele>677</ele>
        <time>2021-09-10T11:33:50.741Z</time>
      </trkpt>
      <trkpt lat="45.73011" lon="6.10758">
        <ele>677</ele>
        <time>2021-09-10T11:33:51.740Z</time>
      </trkpt>
      <trkpt lat="45.73013" lon="6.1076">
        <ele>678</ele>
        <time>2021-09-10T11:33:52.741Z</time>
      </trkpt>
      <trkpt lat="45.73014" lon="6.10762">
        <ele>678</ele>
        <time>2021-09-10T11:33:53.740Z</time>
      </trkpt>
      <trkpt lat="45.73015" lon="6.10763">
        <ele>679</ele>
        <time>2021-09-10T11:33:54.741Z</time>
      </trkpt>
      <trkpt lat="45.73017" lon="6.10765">
        <ele>679</ele>
        <time>2021-09-10T11:33:55.740Z</time>
      </trkpt>
      <trkpt lat="45.73019" lon="6.10767">
        <ele>680</ele>
        <time>2021-09-10T11:33:56.741Z</time>
      </trkpt>
      <trkpt lat="45.7302" lon="6.10769">
        <ele>680</ele>
        <time>2021-09-10T11:33:57.741Z</time>
      </trkpt>
      <trkpt lat="45.73022" lon="6.1077">
        <ele>679</ele>
        <time>2021-09-10T11:33:58.741Z</time>
      </trkpt>
      <trkpt lat="45.73023" lon="6.10772">
        <ele>680</ele>
        <time>2021-09-10T11:33:59.741Z</time>
      </trkpt>
      <trkpt lat="45.73025" lon="6.10773">
        <ele>679</ele>
        <time>2021-09-10T11:34:00.741Z</time>
      </trkpt>
      <trkpt lat="45.73026" lon="6.10776">
        <ele>679</ele>
        <time>2021-09-10T11:34:01.740Z</time>
      </trkpt>
      <trkpt lat="45.73027" lon="6.10777">
        <ele>679</ele>
        <time>2021-09-10T11:34:02.741Z</time>
      </trkpt>
      <trkpt lat="45.73029" lon="6.1078">
        <ele>679</ele>
        <time>2021-09-10T11:34:03.741Z</time>
      </trkpt>
      <trkpt lat="45.7303" lon="6.10782">
        <ele>678</ele>
        <time>2021-09-10T11:34:04.740Z</time>
      </trkpt>
      <trkpt lat="45.73031" lon="6.10784">
        <ele>678</ele>
        <time>2021-09-10T11:34:05.741Z</time>
      </trkpt>
      <trkpt lat="45.73032" lon="6.10787">
        <ele>678</ele>
        <time>2021-09-10T11:34:06.741Z</time>
      </trkpt>
      <trkpt lat="45.73033" lon="6.1079">
        <ele>678</ele>
        <time>2021-09-10T11:34:07.741Z</time>
      </trkpt>
      <trkpt lat="45.73034" lon="6.10793">
        <ele>677</ele>
        <time>2021-09-10T11:34:08.740Z</time>
      </trkpt>
      <trkpt lat="45.73034" lon="6.10796">
        <ele>677</ele>
        <time>2021-09-10T11:34:09.740Z</time>
      </trkpt>
      <trkpt lat="45.73035" lon="6.10798">
        <ele>677</ele>
        <time>2021-09-10T11:34:10.740Z</time>
      </trkpt>
      <trkpt lat="45.73036" lon="6.10801">
        <ele>677</ele>
        <time>2021-09-10T11:34:11.741Z</time>
      </trkpt>
      <trkpt lat="45.73037" lon="6.10804">
        <ele>676</ele>
        <time>2021-09-10T11:34:12.741Z</time>
      </trkpt>
      <trkpt lat="45.73038" lon="6.10807">
        <ele>676</ele>
        <time>2021-09-10T11:34:13.741Z</time>
      </trkpt>
      <trkpt lat="45.73039" lon="6.1081">
        <ele>677</ele>
        <time>2021-09-10T11:34:14.740Z</time>
      </trkpt>
      <trkpt lat="45.7304" lon="6.10814">
        <ele>677</ele>
        <time>2021-09-10T11:34:15.741Z</time>
      </trkpt>
      <trkpt lat="45.7304" lon="6.10817">
        <ele>677</ele>
        <time>2021-09-10T11:34:16.740Z</time>
      </trkpt>
      <trkpt lat="45.73041" lon="6.1082">
        <ele>677</ele>
        <time>2021-09-10T11:34:17.741Z</time>
      </trkpt>
      <trkpt lat="45.73042" lon="6.10824">
        <ele>677</ele>
        <time>2021-09-10T11:34:18.740Z</time>
      </trkpt>
      <trkpt lat="45.73043" lon="6.10827">
        <ele>676</ele>
        <time>2021-09-10T11:34:19.740Z</time>
      </trkpt>
      <trkpt lat="45.73044" lon="6.1083">
        <ele>676</ele>
        <time>2021-09-10T11:34:20.740Z</time>
      </trkpt>
      <trkpt lat="45.73044" lon="6.10834">
        <ele>676</ele>
        <time>2021-09-10T11:34:21.740Z</time>
      </trkpt>
      <trkpt lat="45.73045" lon="6.10837">
        <ele>676</ele>
        <time>2021-09-10T11:34:22.741Z</time>
      </trkpt>
      <trkpt lat="45.73046" lon="6.1084">
        <ele>676</ele>
        <time>2021-09-10T11:34:23.741Z</time>
      </trkpt>
      <trkpt lat="45.73047" lon="6.10843">
        <ele>675</ele>
        <time>2021-09-10T11:34:24.741Z</time>
      </trkpt>
      <trkpt lat="45.73048" lon="6.10847">
        <ele>675</ele>
        <time>2021-09-10T11:34:25.741Z</time>
      </trkpt>
      <trkpt lat="45.73049" lon="6.1085">
        <ele>675</ele>
        <time>2021-09-10T11:34:26.741Z</time>
      </trkpt>
      <trkpt lat="45.7305" lon="6.10853">
        <ele>674</ele>
        <time>2021-09-10T11:34:27.741Z</time>
      </trkpt>
      <trkpt lat="45.7305" lon="6.10856">
        <ele>675</ele>
        <time>2021-09-10T11:34:28.741Z</time>
      </trkpt>
      <trkpt lat="45.73051" lon="6.10859">
        <ele>675</ele>
        <time>2021-09-10T11:34:29.741Z</time>
      </trkpt>
      <trkpt lat="45.73052" lon="6.10862">
        <ele>675</ele>
        <time>2021-09-10T11:34:30.741Z</time>
      </trkpt>
      <trkpt lat="45.73053" lon="6.10865">
        <ele>676</ele>
        <time>2021-09-10T11:34:31.741Z</time>
      </trkpt>
      <trkpt lat="45.73054" lon="6.10868">
        <ele>676</ele>
        <time>2021-09-10T11:34:32.741Z</time>
      </trkpt>
      <trkpt lat="45.73055" lon="6.10871">
        <ele>676</ele>
        <time>2021-09-10T11:34:33.741Z</time>
      </trkpt>
      <trkpt lat="45.73056" lon="6.10874">
        <ele>675</ele>
        <time>2021-09-10T11:34:34.741Z</time>
      </trkpt>
      <trkpt lat="45.73057" lon="6.10877">
        <ele>675</ele>
        <time>2021-09-10T11:34:35.741Z</time>
      </trkpt>
      <trkpt lat="45.73058" lon="6.1088">
        <ele>674</ele>
        <time>2021-09-10T11:34:36.740Z</time>
      </trkpt>
      <trkpt lat="45.73059" lon="6.10883">
        <ele>674</ele>
        <time>2021-09-10T11:34:37.741Z</time>
      </trkpt>
      <trkpt lat="45.7306" lon="6.10886">
        <ele>674</ele>
        <time>2021-09-10T11:34:38.741Z</time>
      </trkpt>
      <trkpt lat="45.73061" lon="6.10888">
        <ele>674</ele>
        <time>2021-09-10T11:34:39.741Z</time>
      </trkpt>
      <trkpt lat="45.73063" lon="6.10891">
        <ele>674</ele>
        <time>2021-09-10T11:34:40.741Z</time>
      </trkpt>
      <trkpt lat="45.73064" lon="6.10893">
        <ele>674</ele>
        <time>2021-09-10T11:34:41.740Z</time>
      </trkpt>
      <trkpt lat="45.73066" lon="6.10896">
        <ele>673</ele>
        <time>2021-09-10T11:34:42.741Z</time>
      </trkpt>
      <trkpt lat="45.73067" lon="6.10898">
        <ele>673</ele>
        <time>2021-09-10T11:34:43.741Z</time>
      </trkpt>
      <trkpt lat="45.73068" lon="6.10901">
        <ele>673</ele>
        <time>2021-09-10T11:34:44.741Z</time>
      </trkpt>
      <trkpt lat="45.73069" lon="6.10903">
        <ele>674</ele>
        <time>2021-09-10T11:34:45.741Z</time>
      </trkpt>
      <trkpt lat="45.73071" lon="6.10905">
        <ele>673</ele>
        <time>2021-09-10T11:34:46.741Z</time>
      </trkpt>
      <trkpt lat="45.73072" lon="6.10907">
        <ele>674</ele>
        <time>2021-09-10T11:34:47.741Z</time>
      </trkpt>
      <trkpt lat="45.73074" lon="6.10909">
        <ele>674</ele>
        <time>2021-09-10T11:34:48.740Z</time>
      </trkpt>
      <trkpt lat="45.73075" lon="6.10911">
        <ele>674</ele>
        <time>2021-09-10T11:34:49.741Z</time>
      </trkpt>
      <trkpt lat="45.73077" lon="6.10913">
        <ele>674</ele>
        <time>2021-09-10T11:34:50.741Z</time>
      </trkpt>
      <trkpt lat="45.73079" lon="6.10915">
        <ele>675</ele>
        <time>2021-09-10T11:34:51.740Z</time>
      </trkpt>
      <trkpt lat="45.73081" lon="6.10916">
        <ele>676</ele>
        <time>2021-09-10T11:34:52.741Z</time>
      </trkpt>
      <trkpt lat="45.73083" lon="6.10918">
        <ele>677</ele>
        <time>2021-09-10T11:34:53.740Z</time>
      </trkpt>
      <trkpt lat="45.73084" lon="6.1092">
        <ele>677</ele>
        <time>2021-09-10T11:34:54.740Z</time>
      </trkpt>
      <trkpt lat="45.73086" lon="6.10921">
        <ele>677</ele>
        <time>2021-09-10T11:34:55.741Z</time>
      </trkpt>
      <trkpt lat="45.73089" lon="6.10923">
        <ele>676</ele>
        <time>2021-09-10T11:34:56.741Z</time>
      </trkpt>
      <trkpt lat="45.73091" lon="6.10925">
        <ele>676</ele>
        <time>2021-09-10T11:34:57.741Z</time>
      </trkpt>
      <trkpt lat="45.73093" lon="6.10927">
        <ele>675</ele>
        <time>2021-09-10T11:34:58.740Z</time>
      </trkpt>
      <trkpt lat="45.73095" lon="6.10928">
        <ele>675</ele>
        <time>2021-09-10T11:34:59.741Z</time>
      </trkpt>
      <trkpt lat="45.73098" lon="6.10929">
        <ele>675</ele>
        <time>2021-09-10T11:35:00.741Z</time>
      </trkpt>
      <trkpt lat="45.731" lon="6.1093">
        <ele>675</ele>
        <time>2021-09-10T11:35:01.741Z</time>
      </trkpt>
      <trkpt lat="45.73102" lon="6.10932">
        <ele>675</ele>
        <time>2021-09-10T11:35:02.741Z</time>
      </trkpt>
      <trkpt lat="45.73104" lon="6.10933">
        <ele>675</ele>
        <time>2021-09-10T11:35:03.741Z</time>
      </trkpt>
      <trkpt lat="45.73107" lon="6.10935">
        <ele>675</ele>
        <time>2021-09-10T11:35:04.740Z</time>
      </trkpt>
      <trkpt lat="45.73109" lon="6.10936">
        <ele>675</ele>
        <time>2021-09-10T11:35:05.740Z</time>
      </trkpt>
      <trkpt lat="45.73111" lon="6.10937">
        <ele>675</ele>
        <time>2021-09-10T11:35:06.741Z</time>
      </trkpt>
      <trkpt lat="45.73113" lon="6.10939">
        <ele>675</ele>
        <time>2021-09-10T11:35:07.741Z</time>
      </trkpt>
      <trkpt lat="45.73115" lon="6.1094">
        <ele>675</ele>
        <time>2021-09-10T11:35:08.740Z</time>
      </trkpt>
      <trkpt lat="45.73117" lon="6.10941">
        <ele>675</ele>
        <time>2021-09-10T11:35:09.740Z</time>
      </trkpt>
      <trkpt lat="45.73119" lon="6.10943">
        <ele>675</ele>
        <time>2021-09-10T11:35:10.741Z</time>
      </trkpt>
      <trkpt lat="45.73121" lon="6.10944">
        <ele>675</ele>
        <time>2021-09-10T11:35:11.741Z</time>
      </trkpt>
      <trkpt lat="45.73123" lon="6.10945">
        <ele>675</ele>
        <time>2021-09-10T11:35:12.741Z</time>
      </trkpt>
      <trkpt lat="45.73125" lon="6.10946">
        <ele>675</ele>
        <time>2021-09-10T11:35:13.740Z</time>
      </trkpt>
      <trkpt lat="45.73127" lon="6.10947">
        <ele>675</ele>
        <time>2021-09-10T11:35:14.741Z</time>
      </trkpt>
      <trkpt lat="45.7313" lon="6.10948">
        <ele>675</ele>
        <time>2021-09-10T11:35:15.741Z</time>
      </trkpt>
      <trkpt lat="45.73132" lon="6.1095">
        <ele>675</ele>
        <time>2021-09-10T11:35:16.741Z</time>
      </trkpt>
      <trkpt lat="45.73134" lon="6.10951">
        <ele>674</ele>
        <time>2021-09-10T11:35:17.740Z</time>
      </trkpt>
      <trkpt lat="45.73136" lon="6.10953">
        <ele>674</ele>
        <time>2021-09-10T11:35:18.740Z</time>
      </trkpt>
      <trkpt lat="45.73138" lon="6.10954">
        <ele>675</ele>
        <time>2021-09-10T11:35:19.740Z</time>
      </trkpt>
      <trkpt lat="45.73141" lon="6.10955">
        <ele>675</ele>
        <time>2021-09-10T11:35:20.740Z</time>
      </trkpt>
      <trkpt lat="45.73143" lon="6.10956">
        <ele>675</ele>
        <time>2021-09-10T11:35:21.740Z</time>
      </trkpt>
      <trkpt lat="45.73145" lon="6.10958">
        <ele>675</ele>
        <time>2021-09-10T11:35:22.741Z</time>
      </trkpt>
      <trkpt lat="45.73147" lon="6.10959">
        <ele>675</ele>
        <time>2021-09-10T11:35:23.741Z</time>
      </trkpt>
      <trkpt lat="45.73149" lon="6.1096">
        <ele>675</ele>
        <time>2021-09-10T11:35:24.741Z</time>
      </trkpt>
      <trkpt lat="45.73151" lon="6.10962">
        <ele>675</ele>
        <time>2021-09-10T11:35:25.740Z</time>
      </trkpt>
      <trkpt lat="45.73153" lon="6.10963">
        <ele>675</ele>
        <time>2021-09-10T11:35:26.740Z</time>
      </trkpt>
      <trkpt lat="45.73155" lon="6.10964">
        <ele>675</ele>
        <time>2021-09-10T11:35:27.741Z</time>
      </trkpt>
      <trkpt lat="45.73157" lon="6.10965">
        <ele>675</ele>
        <time>2021-09-10T11:35:28.741Z</time>
      </trkpt>
      <trkpt lat="45.73159" lon="6.10966">
        <ele>675</ele>
        <time>2021-09-10T11:35:29.741Z</time>
      </trkpt>
      <trkpt lat="45.73161" lon="6.10967">
        <ele>675</ele>
        <time>2021-09-10T11:35:30.740Z</time>
      </trkpt>
      <trkpt lat="45.73163" lon="6.10969">
        <ele>675</ele>
        <time>2021-09-10T11:35:31.741Z</time>
      </trkpt>
      <trkpt lat="45.73165" lon="6.1097">
        <ele>676</ele>
        <time>2021-09-10T11:35:32.741Z</time>
      </trkpt>
      <trkpt lat="45.73167" lon="6.10971">
        <ele>676</ele>
        <time>2021-09-10T11:35:33.741Z</time>
      </trkpt>
      <trkpt lat="45.73169" lon="6.10973">
        <ele>677</ele>
        <time>2021-09-10T11:35:34.741Z</time>
      </trkpt>
      <trkpt lat="45.73171" lon="6.10974">
        <ele>677</ele>
        <time>2021-09-10T11:35:35.741Z</time>
      </trkpt>
      <trkpt lat="45.73174" lon="6.10975">
        <ele>677</ele>
        <time>2021-09-10T11:35:36.741Z</time>
      </trkpt>
      <trkpt lat="45.73176" lon="6.10976">
        <ele>677</ele>
        <time>2021-09-10T11:35:37.740Z</time>
      </trkpt>
      <trkpt lat="45.73178" lon="6.10977">
        <ele>678</ele>
        <time>2021-09-10T11:35:38.741Z</time>
      </trkpt>
      <trkpt lat="45.7318" lon="6.10979">
        <ele>678</ele>
        <time>2021-09-10T11:35:39.740Z</time>
      </trkpt>
      <trkpt lat="45.73182" lon="6.1098">
        <ele>678</ele>
        <time>2021-09-10T11:35:40.741Z</time>
      </trkpt>
      <trkpt lat="45.73184" lon="6.10981">
        <ele>678</ele>
        <time>2021-09-10T11:35:41.741Z</time>
      </trkpt>
      <trkpt lat="45.73186" lon="6.10982">
        <ele>678</ele>
        <time>2021-09-10T11:35:42.741Z</time>
      </trkpt>
      <trkpt lat="45.73188" lon="6.10984">
        <ele>679</ele>
        <time>2021-09-10T11:35:43.741Z</time>
      </trkpt>
      <trkpt lat="45.7319" lon="6.10985">
        <ele>679</ele>
        <time>2021-09-10T11:35:44.741Z</time>
      </trkpt>
      <trkpt lat="45.73192" lon="6.10986">
        <ele>679</ele>
        <time>2021-09-10T11:35:45.741Z</time>
      </trkpt>
      <trkpt lat="45.73194" lon="6.10987">
        <ele>680</ele>
        <time>2021-09-10T11:35:46.740Z</time>
      </trkpt>
      <trkpt lat="45.73196" lon="6.10988">
        <ele>680</ele>
        <time>2021-09-10T11:35:47.741Z</time>
      </trkpt>
      <trkpt lat="45.73198" lon="6.1099">
        <ele>680</ele>
        <time>2021-09-10T11:35:48.741Z</time>
      </trkpt>
      <trkpt lat="45.732" lon="6.10991">
        <ele>680</ele>
        <time>2021-09-10T11:35:49.740Z</time>
      </trkpt>
      <trkpt lat="45.73203" lon="6.10992">
        <ele>680</ele>
        <time>2021-09-10T11:35:50.741Z</time>
      </trkpt>
      <trkpt lat="45.73205" lon="6.10993">
        <ele>680</ele>
        <time>2021-09-10T11:35:51.741Z</time>
      </trkpt>
      <trkpt lat="45.73207" lon="6.10995">
        <ele>679</ele>
        <time>2021-09-10T11:35:52.741Z</time>
      </trkpt>
      <trkpt lat="45.73209" lon="6.10996">
        <ele>679</ele>
        <time>2021-09-10T11:35:53.740Z</time>
      </trkpt>
      <trkpt lat="45.73211" lon="6.10997">
        <ele>679</ele>
        <time>2021-09-10T11:35:54.741Z</time>
      </trkpt>
      <trkpt lat="45.73213" lon="6.10998">
        <ele>680</ele>
        <time>2021-09-10T11:35:55.740Z</time>
      </trkpt>
      <trkpt lat="45.73215" lon="6.10999">
        <ele>680</ele>
        <time>2021-09-10T11:35:56.741Z</time>
      </trkpt>
      <trkpt lat="45.73217" lon="6.11">
        <ele>681</ele>
        <time>2021-09-10T11:35:57.741Z</time>
      </trkpt>
      <trkpt lat="45.73219" lon="6.11001">
        <ele>681</ele>
        <time>2021-09-10T11:35:58.741Z</time>
      </trkpt>
      <trkpt lat="45.73221" lon="6.11002">
        <ele>681</ele>
        <time>2021-09-10T11:35:59.741Z</time>
      </trkpt>
      <trkpt lat="45.73223" lon="6.11002">
        <ele>681</ele>
        <time>2021-09-10T11:36:00.740Z</time>
      </trkpt>
      <trkpt lat="45.73226" lon="6.11003">
        <ele>681</ele>
        <time>2021-09-10T11:36:01.741Z</time>
      </trkpt>
      <trkpt lat="45.73228" lon="6.11004">
        <ele>681</ele>
        <time>2021-09-10T11:36:02.741Z</time>
      </trkpt>
      <trkpt lat="45.7323" lon="6.11005">
        <ele>681</ele>
        <time>2021-09-10T11:36:03.741Z</time>
      </trkpt>
      <trkpt lat="45.73231" lon="6.11005">
        <ele>681</ele>
        <time>2021-09-10T11:36:04.741Z</time>
      </trkpt>
      <trkpt lat="45.73233" lon="6.11006">
        <ele>681</ele>
        <time>2021-09-10T11:36:05.741Z</time>
      </trkpt>
      <trkpt lat="45.73236" lon="6.11008">
        <ele>682</ele>
        <time>2021-09-10T11:36:06.741Z</time>
      </trkpt>
      <trkpt lat="45.73237" lon="6.11008">
        <ele>682</ele>
        <time>2021-09-10T11:36:07.741Z</time>
      </trkpt>
      <trkpt lat="45.7324" lon="6.11009">
        <ele>682</ele>
        <time>2021-09-10T11:36:08.741Z</time>
      </trkpt>
      <trkpt lat="45.73242" lon="6.1101">
        <ele>683</ele>
        <time>2021-09-10T11:36:09.741Z</time>
      </trkpt>
      <trkpt lat="45.73244" lon="6.11011">
        <ele>683</ele>
        <time>2021-09-10T11:36:10.741Z</time>
      </trkpt>
      <trkpt lat="45.73246" lon="6.11012">
        <ele>684</ele>
        <time>2021-09-10T11:36:11.741Z</time>
      </trkpt>
      <trkpt lat="45.73248" lon="6.11013">
        <ele>684</ele>
        <time>2021-09-10T11:36:12.741Z</time>
      </trkpt>
      <trkpt lat="45.7325" lon="6.11013">
        <ele>684</ele>
        <time>2021-09-10T11:36:13.741Z</time>
      </trkpt>
      <trkpt lat="45.73252" lon="6.11014">
        <ele>684</ele>
        <time>2021-09-10T11:36:14.741Z</time>
      </trkpt>
      <trkpt lat="45.73254" lon="6.11015">
        <ele>685</ele>
        <time>2021-09-10T11:36:15.741Z</time>
      </trkpt>
      <trkpt lat="45.73257" lon="6.11016">
        <ele>685</ele>
        <time>2021-09-10T11:36:16.741Z</time>
      </trkpt>
      <trkpt lat="45.73259" lon="6.11017">
        <ele>685</ele>
        <time>2021-09-10T11:36:17.741Z</time>
      </trkpt>
      <trkpt lat="45.73261" lon="6.11018">
        <ele>686</ele>
        <time>2021-09-10T11:36:18.741Z</time>
      </trkpt>
      <trkpt lat="45.73263" lon="6.11019">
        <ele>686</ele>
        <time>2021-09-10T11:36:19.741Z</time>
      </trkpt>
      <trkpt lat="45.73265" lon="6.1102">
        <ele>686</ele>
        <time>2021-09-10T11:36:20.741Z</time>
      </trkpt>
      <trkpt lat="45.73268" lon="6.11021">
        <ele>685</ele>
        <time>2021-09-10T11:36:21.740Z</time>
      </trkpt>
      <trkpt lat="45.73269" lon="6.11022">
        <ele>685</ele>
        <time>2021-09-10T11:36:22.741Z</time>
      </trkpt>
      <trkpt lat="45.73272" lon="6.11022">
        <ele>685</ele>
        <time>2021-09-10T11:36:23.741Z</time>
      </trkpt>
      <trkpt lat="45.73274" lon="6.11023">
        <ele>685</ele>
        <time>2021-09-10T11:36:24.741Z</time>
      </trkpt>
      <trkpt lat="45.73276" lon="6.11024">
        <ele>686</ele>
        <time>2021-09-10T11:36:25.741Z</time>
      </trkpt>
      <trkpt lat="45.73279" lon="6.11025">
        <ele>686</ele>
        <time>2021-09-10T11:36:26.740Z</time>
      </trkpt>
      <trkpt lat="45.73281" lon="6.11026">
        <ele>685</ele>
        <time>2021-09-10T11:36:27.741Z</time>
      </trkpt>
      <trkpt lat="45.73283" lon="6.11027">
        <ele>685</ele>
        <time>2021-09-10T11:36:28.741Z</time>
      </trkpt>
      <trkpt lat="45.73285" lon="6.11028">
        <ele>685</ele>
        <time>2021-09-10T11:36:29.741Z</time>
      </trkpt>
      <trkpt lat="45.73287" lon="6.11029">
        <ele>685</ele>
        <time>2021-09-10T11:36:30.741Z</time>
      </trkpt>
      <trkpt lat="45.7329" lon="6.1103">
        <ele>685</ele>
        <time>2021-09-10T11:36:31.741Z</time>
      </trkpt>
      <trkpt lat="45.73292" lon="6.11031">
        <ele>686</ele>
        <time>2021-09-10T11:36:32.741Z</time>
      </trkpt>
      <trkpt lat="45.73294" lon="6.11032">
        <ele>687</ele>
        <time>2021-09-10T11:36:33.740Z</time>
      </trkpt>
      <trkpt lat="45.73296" lon="6.11033">
        <ele>688</ele>
        <time>2021-09-10T11:36:34.740Z</time>
      </trkpt>
      <trkpt lat="45.73298" lon="6.11033">
        <ele>689</ele>
        <time>2021-09-10T11:36:35.741Z</time>
      </trkpt>
      <trkpt lat="45.733" lon="6.11034">
        <ele>689</ele>
        <time>2021-09-10T11:36:36.741Z</time>
      </trkpt>
      <trkpt lat="45.73302" lon="6.11035">
        <ele>689</ele>
        <time>2021-09-10T11:36:37.741Z</time>
      </trkpt>
      <trkpt lat="45.73304" lon="6.11036">
        <ele>689</ele>
        <time>2021-09-10T11:36:38.741Z</time>
      </trkpt>
      <trkpt lat="45.73306" lon="6.11037">
        <ele>689</ele>
        <time>2021-09-10T11:36:39.740Z</time>
      </trkpt>
      <trkpt lat="45.73308" lon="6.11038">
        <ele>688</ele>
        <time>2021-09-10T11:36:40.740Z</time>
      </trkpt>
      <trkpt lat="45.7331" lon="6.11038">
        <ele>688</ele>
        <time>2021-09-10T11:36:41.741Z</time>
      </trkpt>
      <trkpt lat="45.73312" lon="6.11039">
        <ele>688</ele>
        <time>2021-09-10T11:36:42.740Z</time>
      </trkpt>
      <trkpt lat="45.73315" lon="6.1104">
        <ele>688</ele>
        <time>2021-09-10T11:36:43.741Z</time>
      </trkpt>
      <trkpt lat="45.73317" lon="6.11041">
        <ele>688</ele>
        <time>2021-09-10T11:36:44.741Z</time>
      </trkpt>
      <trkpt lat="45.73319" lon="6.11042">
        <ele>688</ele>
        <time>2021-09-10T11:36:45.741Z</time>
      </trkpt>
      <trkpt lat="45.73321" lon="6.11043">
        <ele>688</ele>
        <time>2021-09-10T11:36:46.741Z</time>
      </trkpt>
      <trkpt lat="45.73323" lon="6.11044">
        <ele>689</ele>
        <time>2021-09-10T11:36:47.741Z</time>
      </trkpt>
      <trkpt lat="45.73325" lon="6.11045">
        <ele>689</ele>
        <time>2021-09-10T11:36:48.741Z</time>
      </trkpt>
      <trkpt lat="45.73327" lon="6.11045">
        <ele>689</ele>
        <time>2021-09-10T11:36:49.741Z</time>
      </trkpt>
      <trkpt lat="45.73329" lon="6.11046">
        <ele>689</ele>
        <time>2021-09-10T11:36:50.740Z</time>
      </trkpt>
      <trkpt lat="45.73332" lon="6.11047">
        <ele>689</ele>
        <time>2021-09-10T11:36:51.741Z</time>
      </trkpt>
      <trkpt lat="45.73334" lon="6.11048">
        <ele>689</ele>
        <time>2021-09-10T11:36:52.741Z</time>
      </trkpt>
      <trkpt lat="45.73336" lon="6.11049">
        <ele>689</ele>
        <time>2021-09-10T11:36:53.741Z</time>
      </trkpt>
      <trkpt lat="45.73338" lon="6.1105">
        <ele>689</ele>
        <time>2021-09-10T11:36:54.741Z</time>
      </trkpt>
      <trkpt lat="45.7334" lon="6.11051">
        <ele>689</ele>
        <time>2021-09-10T11:36:55.741Z</time>
      </trkpt>
      <trkpt lat="45.73342" lon="6.11052">
        <ele>689</ele>
        <time>2021-09-10T11:36:56.740Z</time>
      </trkpt>
      <trkpt lat="45.73344" lon="6.11053">
        <ele>689</ele>
        <time>2021-09-10T11:36:57.741Z</time>
      </trkpt>
      <trkpt lat="45.73346" lon="6.11054">
        <ele>689</ele>
        <time>2021-09-10T11:36:58.741Z</time>
      </trkpt>
      <trkpt lat="45.73348" lon="6.11055">
        <ele>689</ele>
        <time>2021-09-10T11:36:59.741Z</time>
      </trkpt>
      <trkpt lat="45.7335" lon="6.11056">
        <ele>689</ele>
        <time>2021-09-10T11:37:00.740Z</time>
      </trkpt>
      <trkpt lat="45.73352" lon="6.11057">
        <ele>689</ele>
        <time>2021-09-10T11:37:01.740Z</time>
      </trkpt>
      <trkpt lat="45.73354" lon="6.11059">
        <ele>690</ele>
        <time>2021-09-10T11:37:02.740Z</time>
      </trkpt>
      <trkpt lat="45.73356" lon="6.1106">
        <ele>690</ele>
        <time>2021-09-10T11:37:03.741Z</time>
      </trkpt>
      <trkpt lat="45.73358" lon="6.11061">
        <ele>691</ele>
        <time>2021-09-10T11:37:04.740Z</time>
      </trkpt>
      <trkpt lat="45.73359" lon="6.11063">
        <ele>691</ele>
        <time>2021-09-10T11:37:05.740Z</time>
      </trkpt>
      <trkpt lat="45.73361" lon="6.11064">
        <ele>691</ele>
        <time>2021-09-10T11:37:06.741Z</time>
      </trkpt>
      <trkpt lat="45.73363" lon="6.11065">
        <ele>692</ele>
        <time>2021-09-10T11:37:07.741Z</time>
      </trkpt>
      <trkpt lat="45.73365" lon="6.11067">
        <ele>692</ele>
        <time>2021-09-10T11:37:08.741Z</time>
      </trkpt>
      <trkpt lat="45.73367" lon="6.11068">
        <ele>692</ele>
        <time>2021-09-10T11:37:09.741Z</time>
      </trkpt>
      <trkpt lat="45.73368" lon="6.11069">
        <ele>692</ele>
        <time>2021-09-10T11:37:10.741Z</time>
      </trkpt>
      <trkpt lat="45.7337" lon="6.11071">
        <ele>692</ele>
        <time>2021-09-10T11:37:11.740Z</time>
      </trkpt>
      <trkpt lat="45.73372" lon="6.11072">
        <ele>692</ele>
        <time>2021-09-10T11:37:12.741Z</time>
      </trkpt>
      <trkpt lat="45.73374" lon="6.11074">
        <ele>692</ele>
        <time>2021-09-10T11:37:13.741Z</time>
      </trkpt>
      <trkpt lat="45.73375" lon="6.11075">
        <ele>692</ele>
        <time>2021-09-10T11:37:14.741Z</time>
      </trkpt>
      <trkpt lat="45.73376" lon="6.11077">
        <ele>692</ele>
        <time>2021-09-10T11:37:15.741Z</time>
      </trkpt>
      <trkpt lat="45.73378" lon="6.11078">
        <ele>693</ele>
        <time>2021-09-10T11:37:16.741Z</time>
      </trkpt>
      <trkpt lat="45.7338" lon="6.1108">
        <ele>693</ele>
        <time>2021-09-10T11:37:17.741Z</time>
      </trkpt>
      <trkpt lat="45.73381" lon="6.11081">
        <ele>693</ele>
        <time>2021-09-10T11:37:18.741Z</time>
      </trkpt>
      <trkpt lat="45.73383" lon="6.11083">
        <ele>693</ele>
        <time>2021-09-10T11:37:19.740Z</time>
      </trkpt>
      <trkpt lat="45.73384" lon="6.11084">
        <ele>693</ele>
        <time>2021-09-10T11:37:20.741Z</time>
      </trkpt>
      <trkpt lat="45.73386" lon="6.11085">
        <ele>693</ele>
        <time>2021-09-10T11:37:21.741Z</time>
      </trkpt>
      <trkpt lat="45.73388" lon="6.11087">
        <ele>693</ele>
        <time>2021-09-10T11:37:22.741Z</time>
      </trkpt>
      <trkpt lat="45.7339" lon="6.11088">
        <ele>694</ele>
        <time>2021-09-10T11:37:23.741Z</time>
      </trkpt>
      <trkpt lat="45.73392" lon="6.1109">
        <ele>694</ele>
        <time>2021-09-10T11:37:24.741Z</time>
      </trkpt>
      <trkpt lat="45.73393" lon="6.11091">
        <ele>694</ele>
        <time>2021-09-10T11:37:25.741Z</time>
      </trkpt>
      <trkpt lat="45.73395" lon="6.11093">
        <ele>694</ele>
        <time>2021-09-10T11:37:26.741Z</time>
      </trkpt>
      <trkpt lat="45.73397" lon="6.11095">
        <ele>693</ele>
        <time>2021-09-10T11:37:27.741Z</time>
      </trkpt>
      <trkpt lat="45.73399" lon="6.11097">
        <ele>693</ele>
        <time>2021-09-10T11:37:28.741Z</time>
      </trkpt>
      <trkpt lat="45.73401" lon="6.11099">
        <ele>693</ele>
        <time>2021-09-10T11:37:29.740Z</time>
      </trkpt>
      <trkpt lat="45.73403" lon="6.111">
        <ele>694</ele>
        <time>2021-09-10T11:37:30.741Z</time>
      </trkpt>
      <trkpt lat="45.73404" lon="6.11102">
        <ele>694</ele>
        <time>2021-09-10T11:37:31.741Z</time>
      </trkpt>
      <trkpt lat="45.73407" lon="6.11104">
        <ele>694</ele>
        <time>2021-09-10T11:37:32.740Z</time>
      </trkpt>
      <trkpt lat="45.73408" lon="6.11105">
        <ele>694</ele>
        <time>2021-09-10T11:37:33.741Z</time>
      </trkpt>
      <trkpt lat="45.7341" lon="6.11106">
        <ele>694</ele>
        <time>2021-09-10T11:37:34.740Z</time>
      </trkpt>
      <trkpt lat="45.73412" lon="6.11108">
        <ele>695</ele>
        <time>2021-09-10T11:37:35.741Z</time>
      </trkpt>
      <trkpt lat="45.73413" lon="6.1111">
        <ele>695</ele>
        <time>2021-09-10T11:37:36.741Z</time>
      </trkpt>
      <trkpt lat="45.73415" lon="6.11111">
        <ele>695</ele>
        <time>2021-09-10T11:37:37.740Z</time>
      </trkpt>
      <trkpt lat="45.73417" lon="6.11113">
        <ele>696</ele>
        <time>2021-09-10T11:37:38.741Z</time>
      </trkpt>
      <trkpt lat="45.73418" lon="6.11115">
        <ele>696</ele>
        <time>2021-09-10T11:37:39.741Z</time>
      </trkpt>
      <trkpt lat="45.7342" lon="6.11116">
        <ele>696</ele>
        <time>2021-09-10T11:37:40.741Z</time>
      </trkpt>
      <trkpt lat="45.73422" lon="6.11118">
        <ele>696</ele>
        <time>2021-09-10T11:37:41.741Z</time>
      </trkpt>
      <trkpt lat="45.73424" lon="6.1112">
        <ele>696</ele>
        <time>2021-09-10T11:37:42.740Z</time>
      </trkpt>
      <trkpt lat="45.73425" lon="6.11122">
        <ele>696</ele>
        <time>2021-09-10T11:37:43.741Z</time>
      </trkpt>
      <trkpt lat="45.73427" lon="6.11124">
        <ele>697</ele>
        <time>2021-09-10T11:37:44.740Z</time>
      </trkpt>
      <trkpt lat="45.73429" lon="6.11126">
        <ele>697</ele>
        <time>2021-09-10T11:37:45.741Z</time>
      </trkpt>
      <trkpt lat="45.7343" lon="6.11128">
        <ele>697</ele>
        <time>2021-09-10T11:37:46.741Z</time>
      </trkpt>
      <trkpt lat="45.73432" lon="6.1113">
        <ele>696</ele>
        <time>2021-09-10T11:37:47.741Z</time>
      </trkpt>
      <trkpt lat="45.73433" lon="6.11133">
        <ele>696</ele>
        <time>2021-09-10T11:37:48.740Z</time>
      </trkpt>
      <trkpt lat="45.73435" lon="6.11134">
        <ele>697</ele>
        <time>2021-09-10T11:37:49.741Z</time>
      </trkpt>
      <trkpt lat="45.73436" lon="6.11137">
        <ele>697</ele>
        <time>2021-09-10T11:37:50.741Z</time>
      </trkpt>
      <trkpt lat="45.73437" lon="6.11139">
        <ele>698</ele>
        <time>2021-09-10T11:37:51.740Z</time>
      </trkpt>
      <trkpt lat="45.73439" lon="6.11141">
        <ele>699</ele>
        <time>2021-09-10T11:37:52.741Z</time>
      </trkpt>
      <trkpt lat="45.7344" lon="6.11143">
        <ele>700</ele>
        <time>2021-09-10T11:37:53.741Z</time>
      </trkpt>
      <trkpt lat="45.73441" lon="6.11146">
        <ele>700</ele>
        <time>2021-09-10T11:37:54.741Z</time>
      </trkpt>
      <trkpt lat="45.73442" lon="6.11149">
        <ele>701</ele>
        <time>2021-09-10T11:37:55.740Z</time>
      </trkpt>
      <trkpt lat="45.73443" lon="6.11151">
        <ele>701</ele>
        <time>2021-09-10T11:37:56.740Z</time>
      </trkpt>
      <trkpt lat="45.73445" lon="6.11154">
        <ele>702</ele>
        <time>2021-09-10T11:37:57.741Z</time>
      </trkpt>
      <trkpt lat="45.73446" lon="6.11156">
        <ele>702</ele>
        <time>2021-09-10T11:37:58.740Z</time>
      </trkpt>
      <trkpt lat="45.73447" lon="6.11159">
        <ele>701</ele>
        <time>2021-09-10T11:37:59.741Z</time>
      </trkpt>
      <trkpt lat="45.73448" lon="6.11161">
        <ele>701</ele>
        <time>2021-09-10T11:38:00.741Z</time>
      </trkpt>
      <trkpt lat="45.73449" lon="6.11164">
        <ele>700</ele>
        <time>2021-09-10T11:38:01.741Z</time>
      </trkpt>
      <trkpt lat="45.7345" lon="6.11166">
        <ele>700</ele>
        <time>2021-09-10T11:38:02.741Z</time>
      </trkpt>
      <trkpt lat="45.73451" lon="6.11169">
        <ele>699</ele>
        <time>2021-09-10T11:38:03.740Z</time>
      </trkpt>
      <trkpt lat="45.73452" lon="6.11172">
        <ele>699</ele>
        <time>2021-09-10T11:38:04.741Z</time>
      </trkpt>
      <trkpt lat="45.73453" lon="6.11174">
        <ele>699</ele>
        <time>2021-09-10T11:38:05.740Z</time>
      </trkpt>
      <trkpt lat="45.73455" lon="6.11177">
        <ele>699</ele>
        <time>2021-09-10T11:38:06.741Z</time>
      </trkpt>
      <trkpt lat="45.73455" lon="6.11179">
        <ele>699</ele>
        <time>2021-09-10T11:38:07.741Z</time>
      </trkpt>
      <trkpt lat="45.73457" lon="6.11182">
        <ele>699</ele>
        <time>2021-09-10T11:38:08.741Z</time>
      </trkpt>
      <trkpt lat="45.73458" lon="6.11184">
        <ele>699</ele>
        <time>2021-09-10T11:38:09.741Z</time>
      </trkpt>
      <trkpt lat="45.73459" lon="6.11187">
        <ele>699</ele>
        <time>2021-09-10T11:38:10.741Z</time>
      </trkpt>
      <trkpt lat="45.7346" lon="6.1119">
        <ele>699</ele>
        <time>2021-09-10T11:38:11.741Z</time>
      </trkpt>
      <trkpt lat="45.73461" lon="6.11192">
        <ele>700</ele>
        <time>2021-09-10T11:38:12.740Z</time>
      </trkpt>
      <trkpt lat="45.73462" lon="6.11194">
        <ele>700</ele>
        <time>2021-09-10T11:38:13.740Z</time>
      </trkpt>
      <trkpt lat="45.73463" lon="6.11197">
        <ele>701</ele>
        <time>2021-09-10T11:38:14.741Z</time>
      </trkpt>
      <trkpt lat="45.73464" lon="6.11199">
        <ele>701</ele>
        <time>2021-09-10T11:38:15.741Z</time>
      </trkpt>
      <trkpt lat="45.73466" lon="6.11202">
        <ele>701</ele>
        <time>2021-09-10T11:38:16.741Z</time>
      </trkpt>
      <trkpt lat="45.73467" lon="6.11204">
        <ele>702</ele>
        <time>2021-09-10T11:38:17.741Z</time>
      </trkpt>
      <trkpt lat="45.73468" lon="6.11207">
        <ele>702</ele>
        <time>2021-09-10T11:38:18.740Z</time>
      </trkpt>
      <trkpt lat="45.73469" lon="6.11209">
        <ele>702</ele>
        <time>2021-09-10T11:38:19.741Z</time>
      </trkpt>
      <trkpt lat="45.7347" lon="6.11211">
        <ele>703</ele>
        <time>2021-09-10T11:38:20.741Z</time>
      </trkpt>
      <trkpt lat="45.73472" lon="6.11214">
        <ele>703</ele>
        <time>2021-09-10T11:38:21.741Z</time>
      </trkpt>
      <trkpt lat="45.73473" lon="6.11216">
        <ele>704</ele>
        <time>2021-09-10T11:38:22.741Z</time>
      </trkpt>
      <trkpt lat="45.73474" lon="6.11218">
        <ele>704</ele>
        <time>2021-09-10T11:38:23.740Z</time>
      </trkpt>
      <trkpt lat="45.73475" lon="6.11221">
        <ele>703</ele>
        <time>2021-09-10T11:38:24.741Z</time>
      </trkpt>
      <trkpt lat="45.73476" lon="6.11223">
        <ele>703</ele>
        <time>2021-09-10T11:38:25.741Z</time>
      </trkpt>
      <trkpt lat="45.73478" lon="6.11225">
        <ele>703</ele>
        <time>2021-09-10T11:38:26.741Z</time>
      </trkpt>
      <trkpt lat="45.73479" lon="6.11227">
        <ele>704</ele>
        <time>2021-09-10T11:38:27.741Z</time>
      </trkpt>
      <trkpt lat="45.7348" lon="6.11229">
        <ele>704</ele>
        <time>2021-09-10T11:38:28.741Z</time>
      </trkpt>
      <trkpt lat="45.73482" lon="6.11231">
        <ele>704</ele>
        <time>2021-09-10T11:38:29.741Z</time>
      </trkpt>
      <trkpt lat="45.73483" lon="6.11233">
        <ele>705</ele>
        <time>2021-09-10T11:38:30.741Z</time>
      </trkpt>
      <trkpt lat="45.73485" lon="6.11236">
        <ele>706</ele>
        <time>2021-09-10T11:38:31.741Z</time>
      </trkpt>
      <trkpt lat="45.73486" lon="6.11238">
        <ele>706</ele>
        <time>2021-09-10T11:38:32.740Z</time>
      </trkpt>
      <trkpt lat="45.73489" lon="6.11239">
        <ele>706</ele>
        <time>2021-09-10T11:38:33.741Z</time>
      </trkpt>
      <trkpt lat="45.7349" lon="6.11241">
        <ele>707</ele>
        <time>2021-09-10T11:38:34.741Z</time>
      </trkpt>
      <trkpt lat="45.73492" lon="6.11242">
        <ele>707</ele>
        <time>2021-09-10T11:38:35.740Z</time>
      </trkpt>
      <trkpt lat="45.73493" lon="6.11244">
        <ele>708</ele>
        <time>2021-09-10T11:38:36.741Z</time>
      </trkpt>
      <trkpt lat="45.73495" lon="6.11245">
        <ele>708</ele>
        <time>2021-09-10T11:38:37.741Z</time>
      </trkpt>
      <trkpt lat="45.73497" lon="6.11247">
        <ele>709</ele>
        <time>2021-09-10T11:38:38.740Z</time>
      </trkpt>
      <trkpt lat="45.73499" lon="6.11249">
        <ele>709</ele>
        <time>2021-09-10T11:38:39.741Z</time>
      </trkpt>
      <trkpt lat="45.73501" lon="6.11251">
        <ele>710</ele>
        <time>2021-09-10T11:38:40.740Z</time>
      </trkpt>
      <trkpt lat="45.73503" lon="6.11252">
        <ele>711</ele>
        <time>2021-09-10T11:38:41.741Z</time>
      </trkpt>
      <trkpt lat="45.73505" lon="6.11253">
        <ele>711</ele>
        <time>2021-09-10T11:38:42.740Z</time>
      </trkpt>
      <trkpt lat="45.73507" lon="6.11254">
        <ele>712</ele>
        <time>2021-09-10T11:38:43.740Z</time>
      </trkpt>
      <trkpt lat="45.73509" lon="6.11255">
        <ele>713</ele>
        <time>2021-09-10T11:38:44.741Z</time>
      </trkpt>
      <trkpt lat="45.73511" lon="6.11257">
        <ele>714</ele>
        <time>2021-09-10T11:38:45.740Z</time>
      </trkpt>
      <trkpt lat="45.73513" lon="6.11259">
        <ele>714</ele>
        <time>2021-09-10T11:38:46.740Z</time>
      </trkpt>
      <trkpt lat="45.73515" lon="6.1126">
        <ele>715</ele>
        <time>2021-09-10T11:38:47.740Z</time>
      </trkpt>
      <trkpt lat="45.73517" lon="6.11261">
        <ele>715</ele>
        <time>2021-09-10T11:38:48.741Z</time>
      </trkpt>
      <trkpt lat="45.73519" lon="6.11262">
        <ele>715</ele>
        <time>2021-09-10T11:38:49.740Z</time>
      </trkpt>
      <trkpt lat="45.73522" lon="6.11263">
        <ele>715</ele>
        <time>2021-09-10T11:38:50.741Z</time>
      </trkpt>
      <trkpt lat="45.73524" lon="6.11264">
        <ele>715</ele>
        <time>2021-09-10T11:38:51.741Z</time>
      </trkpt>
      <trkpt lat="45.73526" lon="6.11266">
        <ele>715</ele>
        <time>2021-09-10T11:38:52.741Z</time>
      </trkpt>
      <trkpt lat="45.73528" lon="6.11267">
        <ele>715</ele>
        <time>2021-09-10T11:38:53.740Z</time>
      </trkpt>
      <trkpt lat="45.7353" lon="6.11268">
        <ele>715</ele>
        <time>2021-09-10T11:38:54.741Z</time>
      </trkpt>
      <trkpt lat="45.73532" lon="6.1127">
        <ele>715</ele>
        <time>2021-09-10T11:38:55.741Z</time>
      </trkpt>
      <trkpt lat="45.73534" lon="6.11271">
        <ele>715</ele>
        <time>2021-09-10T11:38:56.740Z</time>
      </trkpt>
      <trkpt lat="45.73536" lon="6.11273">
        <ele>715</ele>
        <time>2021-09-10T11:38:57.741Z</time>
      </trkpt>
      <trkpt lat="45.73538" lon="6.11274">
        <ele>715</ele>
        <time>2021-09-10T11:38:58.741Z</time>
      </trkpt>
      <trkpt lat="45.7354" lon="6.11275">
        <ele>715</ele>
        <time>2021-09-10T11:38:59.741Z</time>
      </trkpt>
      <trkpt lat="45.73542" lon="6.11276">
        <ele>715</ele>
        <time>2021-09-10T11:39:00.741Z</time>
      </trkpt>
      <trkpt lat="45.73544" lon="6.11277">
        <ele>714</ele>
        <time>2021-09-10T11:39:01.740Z</time>
      </trkpt>
      <trkpt lat="45.73546" lon="6.11279">
        <ele>714</ele>
        <time>2021-09-10T11:39:02.740Z</time>
      </trkpt>
      <trkpt lat="45.73548" lon="6.1128">
        <ele>714</ele>
        <time>2021-09-10T11:39:03.740Z</time>
      </trkpt>
      <trkpt lat="45.7355" lon="6.1128">
        <ele>714</ele>
        <time>2021-09-10T11:39:04.741Z</time>
      </trkpt>
      <trkpt lat="45.73552" lon="6.11281">
        <ele>714</ele>
        <time>2021-09-10T11:39:05.741Z</time>
      </trkpt>
      <trkpt lat="45.73554" lon="6.11282">
        <ele>713</ele>
        <time>2021-09-10T11:39:06.741Z</time>
      </trkpt>
      <trkpt lat="45.73556" lon="6.11283">
        <ele>713</ele>
        <time>2021-09-10T11:39:07.740Z</time>
      </trkpt>
      <trkpt lat="45.73558" lon="6.11285">
        <ele>713</ele>
        <time>2021-09-10T11:39:08.741Z</time>
      </trkpt>
      <trkpt lat="45.7356" lon="6.11285">
        <ele>712</ele>
        <time>2021-09-10T11:39:09.741Z</time>
      </trkpt>
      <trkpt lat="45.73562" lon="6.11286">
        <ele>712</ele>
        <time>2021-09-10T11:39:10.741Z</time>
      </trkpt>
      <trkpt lat="45.73564" lon="6.11288">
        <ele>712</ele>
        <time>2021-09-10T11:39:11.740Z</time>
      </trkpt>
      <trkpt lat="45.73566" lon="6.11289">
        <ele>712</ele>
        <time>2021-09-10T11:39:12.740Z</time>
      </trkpt>
      <trkpt lat="45.73568" lon="6.1129">
        <ele>712</ele>
        <time>2021-09-10T11:39:13.741Z</time>
      </trkpt>
      <trkpt lat="45.73569" lon="6.1129">
        <ele>711</ele>
        <time>2021-09-10T11:39:14.741Z</time>
      </trkpt>
      <trkpt lat="45.73571" lon="6.11291">
        <ele>711</ele>
        <time>2021-09-10T11:39:15.741Z</time>
      </trkpt>
      <trkpt lat="45.73573" lon="6.11292">
        <ele>710</ele>
        <time>2021-09-10T11:39:16.741Z</time>
      </trkpt>
      <trkpt lat="45.73575" lon="6.11293">
        <ele>710</ele>
        <time>2021-09-10T11:39:17.740Z</time>
      </trkpt>
      <trkpt lat="45.73578" lon="6.11294">
        <ele>710</ele>
        <time>2021-09-10T11:39:18.740Z</time>
      </trkpt>
      <trkpt lat="45.73579" lon="6.11295">
        <ele>710</ele>
        <time>2021-09-10T11:39:19.740Z</time>
      </trkpt>
      <trkpt lat="45.73581" lon="6.11295">
        <ele>710</ele>
        <time>2021-09-10T11:39:20.740Z</time>
      </trkpt>
      <trkpt lat="45.73583" lon="6.11296">
        <ele>710</ele>
        <time>2021-09-10T11:39:21.741Z</time>
      </trkpt>
      <trkpt lat="45.73585" lon="6.11296">
        <ele>710</ele>
        <time>2021-09-10T11:39:22.740Z</time>
      </trkpt>
      <trkpt lat="45.73587" lon="6.11296">
        <ele>711</ele>
        <time>2021-09-10T11:39:23.741Z</time>
      </trkpt>
      <trkpt lat="45.73589" lon="6.11296">
        <ele>711</ele>
        <time>2021-09-10T11:39:24.741Z</time>
      </trkpt>
      <trkpt lat="45.73591" lon="6.11297">
        <ele>711</ele>
        <time>2021-09-10T11:39:25.741Z</time>
      </trkpt>
      <trkpt lat="45.73593" lon="6.11297">
        <ele>711</ele>
        <time>2021-09-10T11:39:26.740Z</time>
      </trkpt>
      <trkpt lat="45.73595" lon="6.11298">
        <ele>711</ele>
        <time>2021-09-10T11:39:27.741Z</time>
      </trkpt>
      <trkpt lat="45.73597" lon="6.11298">
        <ele>710</ele>
        <time>2021-09-10T11:39:28.741Z</time>
      </trkpt>
      <trkpt lat="45.73599" lon="6.11298">
        <ele>710</ele>
        <time>2021-09-10T11:39:29.740Z</time>
      </trkpt>
      <trkpt lat="45.73601" lon="6.11298">
        <ele>711</ele>
        <time>2021-09-10T11:39:30.740Z</time>
      </trkpt>
      <trkpt lat="45.73603" lon="6.11298">
        <ele>711</ele>
        <time>2021-09-10T11:39:31.741Z</time>
      </trkpt>
      <trkpt lat="45.73605" lon="6.11298">
        <ele>712</ele>
        <time>2021-09-10T11:39:32.741Z</time>
      </trkpt>
      <trkpt lat="45.73607" lon="6.11298">
        <ele>712</ele>
        <time>2021-09-10T11:39:33.741Z</time>
      </trkpt>
      <trkpt lat="45.73609" lon="6.11298">
        <ele>712</ele>
        <time>2021-09-10T11:39:34.741Z</time>
      </trkpt>
      <trkpt lat="45.73611" lon="6.11298">
        <ele>712</ele>
        <time>2021-09-10T11:39:35.741Z</time>
      </trkpt>
      <trkpt lat="45.73613" lon="6.11297">
        <ele>713</ele>
        <time>2021-09-10T11:39:36.741Z</time>
      </trkpt>
      <trkpt lat="45.73615" lon="6.11297">
        <ele>713</ele>
        <time>2021-09-10T11:39:37.740Z</time>
      </trkpt>
      <trkpt lat="45.73617" lon="6.11296">
        <ele>713</ele>
        <time>2021-09-10T11:39:38.740Z</time>
      </trkpt>
      <trkpt lat="45.73619" lon="6.11295">
        <ele>712</ele>
        <time>2021-09-10T11:39:39.741Z</time>
      </trkpt>
      <trkpt lat="45.73621" lon="6.11294">
        <ele>712</ele>
        <time>2021-09-10T11:39:40.741Z</time>
      </trkpt>
      <trkpt lat="45.73623" lon="6.11293">
        <ele>712</ele>
        <time>2021-09-10T11:39:41.741Z</time>
      </trkpt>
      <trkpt lat="45.73624" lon="6.11292">
        <ele>712</ele>
        <time>2021-09-10T11:39:42.740Z</time>
      </trkpt>
      <trkpt lat="45.73626" lon="6.11291">
        <ele>712</ele>
        <time>2021-09-10T11:39:43.740Z</time>
      </trkpt>
      <trkpt lat="45.73628" lon="6.11289">
        <ele>712</ele>
        <time>2021-09-10T11:39:44.741Z</time>
      </trkpt>
      <trkpt lat="45.7363" lon="6.11288">
        <ele>711</ele>
        <time>2021-09-10T11:39:45.740Z</time>
      </trkpt>
      <trkpt lat="45.73632" lon="6.11286">
        <ele>711</ele>
        <time>2021-09-10T11:39:46.740Z</time>
      </trkpt>
      <trkpt lat="45.73634" lon="6.11285">
        <ele>711</ele>
        <time>2021-09-10T11:39:47.740Z</time>
      </trkpt>
      <trkpt lat="45.73636" lon="6.11283">
        <ele>711</ele>
        <time>2021-09-10T11:39:48.740Z</time>
      </trkpt>
      <trkpt lat="45.73638" lon="6.11281">
        <ele>711</ele>
        <time>2021-09-10T11:39:49.741Z</time>
      </trkpt>
      <trkpt lat="45.7364" lon="6.1128">
        <ele>711</ele>
        <time>2021-09-10T11:39:50.741Z</time>
      </trkpt>
      <trkpt lat="45.73642" lon="6.11278">
        <ele>711</ele>
        <time>2021-09-10T11:39:51.740Z</time>
      </trkpt>
      <trkpt lat="45.73643" lon="6.11277">
        <ele>711</ele>
        <time>2021-09-10T11:39:52.741Z</time>
      </trkpt>
      <trkpt lat="45.73645" lon="6.11275">
        <ele>712</ele>
        <time>2021-09-10T11:39:53.741Z</time>
      </trkpt>
      <trkpt lat="45.73647" lon="6.11274">
        <ele>712</ele>
        <time>2021-09-10T11:39:54.741Z</time>
      </trkpt>
      <trkpt lat="45.73649" lon="6.11273">
        <ele>712</ele>
        <time>2021-09-10T11:39:55.740Z</time>
      </trkpt>
      <trkpt lat="45.73651" lon="6.11272">
        <ele>712</ele>
        <time>2021-09-10T11:39:56.741Z</time>
      </trkpt>
      <trkpt lat="45.73652" lon="6.11271">
        <ele>712</ele>
        <time>2021-09-10T11:39:57.741Z</time>
      </trkpt>
      <trkpt lat="45.73654" lon="6.1127">
        <ele>711</ele>
        <time>2021-09-10T11:39:58.741Z</time>
      </trkpt>
      <trkpt lat="45.73656" lon="6.11269">
        <ele>711</ele>
        <time>2021-09-10T11:39:59.741Z</time>
      </trkpt>
      <trkpt lat="45.73658" lon="6.11268">
        <ele>711</ele>
        <time>2021-09-10T11:40:00.740Z</time>
      </trkpt>
      <trkpt lat="45.7366" lon="6.11268">
        <ele>712</ele>
        <time>2021-09-10T11:40:01.740Z</time>
      </trkpt>
      <trkpt lat="45.73662" lon="6.11267">
        <ele>712</ele>
        <time>2021-09-10T11:40:02.741Z</time>
      </trkpt>
      <trkpt lat="45.73664" lon="6.11267">
        <ele>712</ele>
        <time>2021-09-10T11:40:03.741Z</time>
      </trkpt>
      <trkpt lat="45.73666" lon="6.11266">
        <ele>712</ele>
        <time>2021-09-10T11:40:04.740Z</time>
      </trkpt>
      <trkpt lat="45.73668" lon="6.11266">
        <ele>712</ele>
        <time>2021-09-10T11:40:05.741Z</time>
      </trkpt>
      <trkpt lat="45.7367" lon="6.11265">
        <ele>712</ele>
        <time>2021-09-10T11:40:06.740Z</time>
      </trkpt>
      <trkpt lat="45.73672" lon="6.11265">
        <ele>712</ele>
        <time>2021-09-10T11:40:07.741Z</time>
      </trkpt>
      <trkpt lat="45.73674" lon="6.11265">
        <ele>712</ele>
        <time>2021-09-10T11:40:08.740Z</time>
      </trkpt>
      <trkpt lat="45.73676" lon="6.11266">
        <ele>712</ele>
        <time>2021-09-10T11:40:09.741Z</time>
      </trkpt>
      <trkpt lat="45.73678" lon="6.11266">
        <ele>713</ele>
        <time>2021-09-10T11:40:10.740Z</time>
      </trkpt>
      <trkpt lat="45.7368" lon="6.11266">
        <ele>713</ele>
        <time>2021-09-10T11:40:11.741Z</time>
      </trkpt>
      <trkpt lat="45.73682" lon="6.11266">
        <ele>713</ele>
        <time>2021-09-10T11:40:12.740Z</time>
      </trkpt>
      <trkpt lat="45.73684" lon="6.11266">
        <ele>713</ele>
        <time>2021-09-10T11:40:13.741Z</time>
      </trkpt>
      <trkpt lat="45.73686" lon="6.11266">
        <ele>713</ele>
        <time>2021-09-10T11:40:14.741Z</time>
      </trkpt>
      <trkpt lat="45.73688" lon="6.11266">
        <ele>713</ele>
        <time>2021-09-10T11:40:15.741Z</time>
      </trkpt>
      <trkpt lat="45.7369" lon="6.11267">
        <ele>713</ele>
        <time>2021-09-10T11:40:16.741Z</time>
      </trkpt>
      <trkpt lat="45.73692" lon="6.11267">
        <ele>713</ele>
        <time>2021-09-10T11:40:17.740Z</time>
      </trkpt>
      <trkpt lat="45.73694" lon="6.11267">
        <ele>713</ele>
        <time>2021-09-10T11:40:18.741Z</time>
      </trkpt>
      <trkpt lat="45.73696" lon="6.11267">
        <ele>713</ele>
        <time>2021-09-10T11:40:19.740Z</time>
      </trkpt>
      <trkpt lat="45.73698" lon="6.11267">
        <ele>714</ele>
        <time>2021-09-10T11:40:20.740Z</time>
      </trkpt>
      <trkpt lat="45.737" lon="6.11267">
        <ele>714</ele>
        <time>2021-09-10T11:40:21.741Z</time>
      </trkpt>
      <trkpt lat="45.73702" lon="6.11267">
        <ele>714</ele>
        <time>2021-09-10T11:40:22.741Z</time>
      </trkpt>
      <trkpt lat="45.73704" lon="6.11268">
        <ele>714</ele>
        <time>2021-09-10T11:40:23.741Z</time>
      </trkpt>
      <trkpt lat="45.73706" lon="6.11268">
        <ele>714</ele>
        <time>2021-09-10T11:40:24.740Z</time>
      </trkpt>
      <trkpt lat="45.73708" lon="6.11268">
        <ele>714</ele>
        <time>2021-09-10T11:40:25.741Z</time>
      </trkpt>
      <trkpt lat="45.7371" lon="6.11268">
        <ele>715</ele>
        <time>2021-09-10T11:40:26.741Z</time>
      </trkpt>
      <trkpt lat="45.73712" lon="6.11267">
        <ele>715</ele>
        <time>2021-09-10T11:40:27.741Z</time>
      </trkpt>
      <trkpt lat="45.73714" lon="6.11266">
        <ele>715</ele>
        <time>2021-09-10T11:40:28.741Z</time>
      </trkpt>
      <trkpt lat="45.73715" lon="6.11265">
        <ele>714</ele>
        <time>2021-09-10T11:40:29.741Z</time>
      </trkpt>
      <trkpt lat="45.73717" lon="6.11264">
        <ele>714</ele>
        <time>2021-09-10T11:40:30.741Z</time>
      </trkpt>
      <trkpt lat="45.73719" lon="6.11262">
        <ele>714</ele>
        <time>2021-09-10T11:40:31.740Z</time>
      </trkpt>
      <trkpt lat="45.7372" lon="6.11262">
        <ele>714</ele>
        <time>2021-09-10T11:40:32.740Z</time>
      </trkpt>
      <trkpt lat="45.73722" lon="6.1126">
        <ele>715</ele>
        <time>2021-09-10T11:40:33.741Z</time>
      </trkpt>
      <trkpt lat="45.73723" lon="6.11259">
        <ele>715</ele>
        <time>2021-09-10T11:40:34.740Z</time>
      </trkpt>
      <trkpt lat="45.73724" lon="6.11259">
        <ele>715</ele>
        <time>2021-09-10T11:40:35.740Z</time>
      </trkpt>
      <trkpt lat="45.73724" lon="6.11259">
        <ele>715</ele>
        <time>2021-09-10T11:40:36.740Z</time>
      </trkpt>
      <trkpt lat="45.73724" lon="6.11258">
        <ele>714</ele>
        <time>2021-09-10T11:40:37.741Z</time>
      </trkpt>
      <trkpt lat="45.73724" lon="6.11259">
        <ele>714</ele>
        <time>2021-09-10T11:40:38.741Z</time>
      </trkpt>
      <trkpt lat="45.73722" lon="6.11259">
        <ele>714</ele>
        <time>2021-09-10T11:40:39.742Z</time>
      </trkpt>
      <trkpt lat="45.73722" lon="6.11259">
        <ele>713</ele>
        <time>2021-09-10T11:40:40.742Z</time>
      </trkpt>
      <trkpt lat="45.73722" lon="6.11259">
        <ele>714</ele>
        <time>2021-09-10T11:40:41.741Z</time>
      </trkpt>
      <trkpt lat="45.7373" lon="6.11263">
        <ele>722</ele>
        <time>2021-09-10T11:40:42.743Z</time>
      </trkpt>
      <trkpt lat="45.73733" lon="6.11264">
        <ele>722</ele>
        <time>2021-09-10T11:40:43.742Z</time>
      </trkpt>
      <trkpt lat="45.73736" lon="6.11264">
        <ele>722</ele>
        <time>2021-09-10T11:40:44.743Z</time>
      </trkpt>
      <trkpt lat="45.7374" lon="6.11265">
        <ele>722</ele>
        <time>2021-09-10T11:40:45.742Z</time>
      </trkpt>
      <trkpt lat="45.73743" lon="6.11266">
        <ele>722</ele>
        <time>2021-09-10T11:40:46.742Z</time>
      </trkpt>
      <trkpt lat="45.73746" lon="6.11267">
        <ele>722</ele>
        <time>2021-09-10T11:40:47.743Z</time>
      </trkpt>
      <trkpt lat="45.73749" lon="6.11267">
        <ele>722</ele>
        <time>2021-09-10T11:40:48.742Z</time>
      </trkpt>
      <trkpt lat="45.73752" lon="6.11268">
        <ele>723</ele>
        <time>2021-09-10T11:40:49.742Z</time>
      </trkpt>
      <trkpt lat="45.73754" lon="6.11268">
        <ele>723</ele>
        <time>2021-09-10T11:40:50.743Z</time>
      </trkpt>
      <trkpt lat="45.73756" lon="6.11268">
        <ele>723</ele>
        <time>2021-09-10T11:40:51.743Z</time>
      </trkpt>
      <trkpt lat="45.73759" lon="6.11268">
        <ele>723</ele>
        <time>2021-09-10T11:40:52.742Z</time>
      </trkpt>
      <trkpt lat="45.73761" lon="6.11267">
        <ele>723</ele>
        <time>2021-09-10T11:40:53.743Z</time>
      </trkpt>
      <trkpt lat="45.73762" lon="6.11267">
        <ele>723</ele>
        <time>2021-09-10T11:40:54.742Z</time>
      </trkpt>
      <trkpt lat="45.73764" lon="6.11267">
        <ele>723</ele>
        <time>2021-09-10T11:40:55.743Z</time>
      </trkpt>
      <trkpt lat="45.73765" lon="6.11267">
        <ele>723</ele>
        <time>2021-09-10T11:40:56.743Z</time>
      </trkpt>
      <trkpt lat="45.73765" lon="6.11266">
        <ele>722</ele>
        <time>2021-09-10T11:40:57.743Z</time>
      </trkpt>
      <trkpt lat="45.73765" lon="6.11266">
        <ele>722</ele>
        <time>2021-09-10T11:40:58.743Z</time>
      </trkpt>
      <trkpt lat="45.73765" lon="6.11266">
        <ele>722</ele>
        <time>2021-09-10T11:40:59.742Z</time>
      </trkpt>
      <trkpt lat="45.73768" lon="6.11262">
        <ele>721</ele>
        <time>2021-09-10T11:41:00.744Z</time>
      </trkpt>
      <trkpt lat="45.7377" lon="6.1126">
        <ele>721</ele>
        <time>2021-09-10T11:41:01.743Z</time>
      </trkpt>
      <trkpt lat="45.73772" lon="6.11257">
        <ele>721</ele>
        <time>2021-09-10T11:41:02.743Z</time>
      </trkpt>
      <trkpt lat="45.73774" lon="6.11253">
        <ele>721</ele>
        <time>2021-09-10T11:41:03.744Z</time>
      </trkpt>
      <trkpt lat="45.73776" lon="6.1125">
        <ele>721</ele>
        <time>2021-09-10T11:41:04.744Z</time>
      </trkpt>
      <trkpt lat="45.73778" lon="6.11246">
        <ele>721</ele>
        <time>2021-09-10T11:41:05.744Z</time>
      </trkpt>
      <trkpt lat="45.7378" lon="6.11242">
        <ele>722</ele>
        <time>2021-09-10T11:41:06.744Z</time>
      </trkpt>
      <trkpt lat="45.73781" lon="6.11239">
        <ele>722</ele>
        <time>2021-09-10T11:41:07.743Z</time>
      </trkpt>
      <trkpt lat="45.73783" lon="6.11235">
        <ele>722</ele>
        <time>2021-09-10T11:41:08.744Z</time>
      </trkpt>
      <trkpt lat="45.73784" lon="6.11232">
        <ele>722</ele>
        <time>2021-09-10T11:41:09.744Z</time>
      </trkpt>
      <trkpt lat="45.73785" lon="6.11229">
        <ele>722</ele>
        <time>2021-09-10T11:41:10.744Z</time>
      </trkpt>
      <trkpt lat="45.73786" lon="6.11226">
        <ele>721</ele>
        <time>2021-09-10T11:41:11.744Z</time>
      </trkpt>
      <trkpt lat="45.73787" lon="6.11222">
        <ele>721</ele>
        <time>2021-09-10T11:41:12.744Z</time>
      </trkpt>
      <trkpt lat="45.73789" lon="6.11219">
        <ele>721</ele>
        <time>2021-09-10T11:41:13.744Z</time>
      </trkpt>
      <trkpt lat="45.7379" lon="6.11216">
        <ele>721</ele>
        <time>2021-09-10T11:41:14.743Z</time>
      </trkpt>
      <trkpt lat="45.73791" lon="6.11212">
        <ele>721</ele>
        <time>2021-09-10T11:41:15.744Z</time>
      </trkpt>
      <trkpt lat="45.73792" lon="6.11209">
        <ele>721</ele>
        <time>2021-09-10T11:41:16.744Z</time>
      </trkpt>
      <trkpt lat="45.73793" lon="6.11206">
        <ele>721</ele>
        <time>2021-09-10T11:41:17.743Z</time>
      </trkpt>
      <trkpt lat="45.73794" lon="6.11203">
        <ele>721</ele>
        <time>2021-09-10T11:41:18.743Z</time>
      </trkpt>
      <trkpt lat="45.73795" lon="6.112">
        <ele>721</ele>
        <time>2021-09-10T11:41:19.744Z</time>
      </trkpt>
      <trkpt lat="45.73796" lon="6.11197">
        <ele>721</ele>
        <time>2021-09-10T11:41:20.744Z</time>
      </trkpt>
      <trkpt lat="45.73797" lon="6.11193">
        <ele>721</ele>
        <time>2021-09-10T11:41:21.744Z</time>
      </trkpt>
      <trkpt lat="45.73798" lon="6.1119">
        <ele>721</ele>
        <time>2021-09-10T11:41:22.744Z</time>
      </trkpt>
      <trkpt lat="45.73799" lon="6.11187">
        <ele>721</ele>
        <time>2021-09-10T11:41:23.743Z</time>
      </trkpt>
      <trkpt lat="45.73801" lon="6.11183">
        <ele>721</ele>
        <time>2021-09-10T11:41:24.743Z</time>
      </trkpt>
      <trkpt lat="45.73802" lon="6.1118">
        <ele>721</ele>
        <time>2021-09-10T11:41:25.743Z</time>
      </trkpt>
      <trkpt lat="45.73803" lon="6.11177">
        <ele>722</ele>
        <time>2021-09-10T11:41:26.744Z</time>
      </trkpt>
      <trkpt lat="45.73804" lon="6.11173">
        <ele>722</ele>
        <time>2021-09-10T11:41:27.744Z</time>
      </trkpt>
      <trkpt lat="45.73805" lon="6.1117">
        <ele>723</ele>
        <time>2021-09-10T11:41:28.743Z</time>
      </trkpt>
      <trkpt lat="45.73806" lon="6.11167">
        <ele>724</ele>
        <time>2021-09-10T11:41:29.744Z</time>
      </trkpt>
      <trkpt lat="45.73807" lon="6.11164">
        <ele>724</ele>
        <time>2021-09-10T11:41:30.743Z</time>
      </trkpt>
      <trkpt lat="45.73808" lon="6.1116">
        <ele>724</ele>
        <time>2021-09-10T11:41:31.744Z</time>
      </trkpt>
      <trkpt lat="45.73809" lon="6.11157">
        <ele>724</ele>
        <time>2021-09-10T11:41:32.743Z</time>
      </trkpt>
      <trkpt lat="45.7381" lon="6.11154">
        <ele>724</ele>
        <time>2021-09-10T11:41:33.744Z</time>
      </trkpt>
      <trkpt lat="45.73811" lon="6.11151">
        <ele>724</ele>
        <time>2021-09-10T11:41:34.744Z</time>
      </trkpt>
      <trkpt lat="45.73812" lon="6.11147">
        <ele>724</ele>
        <time>2021-09-10T11:41:35.744Z</time>
      </trkpt>
      <trkpt lat="45.73813" lon="6.11144">
        <ele>724</ele>
        <time>2021-09-10T11:41:36.744Z</time>
      </trkpt>
      <trkpt lat="45.73813" lon="6.11141">
        <ele>724</ele>
        <time>2021-09-10T11:41:37.744Z</time>
      </trkpt>
      <trkpt lat="45.73814" lon="6.11138">
        <ele>724</ele>
        <time>2021-09-10T11:41:38.744Z</time>
      </trkpt>
      <trkpt lat="45.73815" lon="6.11135">
        <ele>724</ele>
        <time>2021-09-10T11:41:39.744Z</time>
      </trkpt>
      <trkpt lat="45.73815" lon="6.11132">
        <ele>725</ele>
        <time>2021-09-10T11:41:40.744Z</time>
      </trkpt>
      <trkpt lat="45.73816" lon="6.11128">
        <ele>725</ele>
        <time>2021-09-10T11:41:41.744Z</time>
      </trkpt>
      <trkpt lat="45.73817" lon="6.11125">
        <ele>725</ele>
        <time>2021-09-10T11:41:42.744Z</time>
      </trkpt>
      <trkpt lat="45.73817" lon="6.11122">
        <ele>726</ele>
        <time>2021-09-10T11:41:43.743Z</time>
      </trkpt>
      <trkpt lat="45.73817" lon="6.11118">
        <ele>726</ele>
        <time>2021-09-10T11:41:44.743Z</time>
      </trkpt>
      <trkpt lat="45.73818" lon="6.11115">
        <ele>726</ele>
        <time>2021-09-10T11:41:45.744Z</time>
      </trkpt>
      <trkpt lat="45.73818" lon="6.11111">
        <ele>727</ele>
        <time>2021-09-10T11:41:46.744Z</time>
      </trkpt>
      <trkpt lat="45.73818" lon="6.11108">
        <ele>727</ele>
        <time>2021-09-10T11:41:47.744Z</time>
      </trkpt>
      <trkpt lat="45.73819" lon="6.11104">
        <ele>727</ele>
        <time>2021-09-10T11:41:48.744Z</time>
      </trkpt>
      <trkpt lat="45.73819" lon="6.11101">
        <ele>727</ele>
        <time>2021-09-10T11:41:49.744Z</time>
      </trkpt>
      <trkpt lat="45.73819" lon="6.11097">
        <ele>728</ele>
        <time>2021-09-10T11:41:50.744Z</time>
      </trkpt>
      <trkpt lat="45.7382" lon="6.11094">
        <ele>728</ele>
        <time>2021-09-10T11:41:51.744Z</time>
      </trkpt>
      <trkpt lat="45.73821" lon="6.1109">
        <ele>729</ele>
        <time>2021-09-10T11:41:52.744Z</time>
      </trkpt>
      <trkpt lat="45.73822" lon="6.11087">
        <ele>729</ele>
        <time>2021-09-10T11:41:53.744Z</time>
      </trkpt>
      <trkpt lat="45.73824" lon="6.11085">
        <ele>728</ele>
        <time>2021-09-10T11:41:54.743Z</time>
      </trkpt>
      <trkpt lat="45.73826" lon="6.11083">
        <ele>728</ele>
        <time>2021-09-10T11:41:55.744Z</time>
      </trkpt>
      <trkpt lat="45.73828" lon="6.11082">
        <ele>728</ele>
        <time>2021-09-10T11:41:56.744Z</time>
      </trkpt>
      <trkpt lat="45.7383" lon="6.11081">
        <ele>728</ele>
        <time>2021-09-10T11:41:57.743Z</time>
      </trkpt>
      <trkpt lat="45.73832" lon="6.11081">
        <ele>728</ele>
        <time>2021-09-10T11:41:58.744Z</time>
      </trkpt>
      <trkpt lat="45.73835" lon="6.11082">
        <ele>728</ele>
        <time>2021-09-10T11:41:59.744Z</time>
      </trkpt>
      <trkpt lat="45.73837" lon="6.11084">
        <ele>729</ele>
        <time>2021-09-10T11:42:00.743Z</time>
      </trkpt>
      <trkpt lat="45.73838" lon="6.11086">
        <ele>729</ele>
        <time>2021-09-10T11:42:01.744Z</time>
      </trkpt>
      <trkpt lat="45.73839" lon="6.11089">
        <ele>729</ele>
        <time>2021-09-10T11:42:02.744Z</time>
      </trkpt>
      <trkpt lat="45.7384" lon="6.11092">
        <ele>729</ele>
        <time>2021-09-10T11:42:03.744Z</time>
      </trkpt>
      <trkpt lat="45.73841" lon="6.11095">
        <ele>729</ele>
        <time>2021-09-10T11:42:04.743Z</time>
      </trkpt>
      <trkpt lat="45.73841" lon="6.11099">
        <ele>729</ele>
        <time>2021-09-10T11:42:05.743Z</time>
      </trkpt>
      <trkpt lat="45.73842" lon="6.11102">
        <ele>729</ele>
        <time>2021-09-10T11:42:06.743Z</time>
      </trkpt>
      <trkpt lat="45.73842" lon="6.11105">
        <ele>729</ele>
        <time>2021-09-10T11:42:07.744Z</time>
      </trkpt>
      <trkpt lat="45.73842" lon="6.11109">
        <ele>729</ele>
        <time>2021-09-10T11:42:08.743Z</time>
      </trkpt>
      <trkpt lat="45.73842" lon="6.11112">
        <ele>729</ele>
        <time>2021-09-10T11:42:09.744Z</time>
      </trkpt>
      <trkpt lat="45.73843" lon="6.11116">
        <ele>729</ele>
        <time>2021-09-10T11:42:10.744Z</time>
      </trkpt>
      <trkpt lat="45.73843" lon="6.11119">
        <ele>729</ele>
        <time>2021-09-10T11:42:11.744Z</time>
      </trkpt>
      <trkpt lat="45.73843" lon="6.11123">
        <ele>729</ele>
        <time>2021-09-10T11:42:12.744Z</time>
      </trkpt>
      <trkpt lat="45.73843" lon="6.11126">
        <ele>730</ele>
        <time>2021-09-10T11:42:13.744Z</time>
      </trkpt>
      <trkpt lat="45.73844" lon="6.1113">
        <ele>730</ele>
        <time>2021-09-10T11:42:14.744Z</time>
      </trkpt>
      <trkpt lat="45.73845" lon="6.11133">
        <ele>730</ele>
        <time>2021-09-10T11:42:15.744Z</time>
      </trkpt>
      <trkpt lat="45.73845" lon="6.11137">
        <ele>731</ele>
        <time>2021-09-10T11:42:16.744Z</time>
      </trkpt>
      <trkpt lat="45.73845" lon="6.1114">
        <ele>732</ele>
        <time>2021-09-10T11:42:17.744Z</time>
      </trkpt>
      <trkpt lat="45.73846" lon="6.11143">
        <ele>732</ele>
        <time>2021-09-10T11:42:18.743Z</time>
      </trkpt>
      <trkpt lat="45.73846" lon="6.11146">
        <ele>733</ele>
        <time>2021-09-10T11:42:19.744Z</time>
      </trkpt>
      <trkpt lat="45.73846" lon="6.1115">
        <ele>733</ele>
        <time>2021-09-10T11:42:20.743Z</time>
      </trkpt>
      <trkpt lat="45.73847" lon="6.11153">
        <ele>734</ele>
        <time>2021-09-10T11:42:21.743Z</time>
      </trkpt>
      <trkpt lat="45.73848" lon="6.11156">
        <ele>735</ele>
        <time>2021-09-10T11:42:22.744Z</time>
      </trkpt>
      <trkpt lat="45.73848" lon="6.11159">
        <ele>735</ele>
        <time>2021-09-10T11:42:23.744Z</time>
      </trkpt>
      <trkpt lat="45.73849" lon="6.11162">
        <ele>735</ele>
        <time>2021-09-10T11:42:24.743Z</time>
      </trkpt>
      <trkpt lat="45.73849" lon="6.11165">
        <ele>736</ele>
        <time>2021-09-10T11:42:25.744Z</time>
      </trkpt>
      <trkpt lat="45.7385" lon="6.11169">
        <ele>736</ele>
        <time>2021-09-10T11:42:26.743Z</time>
      </trkpt>
      <trkpt lat="45.7385" lon="6.11172">
        <ele>737</ele>
        <time>2021-09-10T11:42:27.743Z</time>
      </trkpt>
      <trkpt lat="45.73851" lon="6.11175">
        <ele>737</ele>
        <time>2021-09-10T11:42:28.744Z</time>
      </trkpt>
      <trkpt lat="45.73851" lon="6.11178">
        <ele>737</ele>
        <time>2021-09-10T11:42:29.744Z</time>
      </trkpt>
      <trkpt lat="45.73852" lon="6.11181">
        <ele>737</ele>
        <time>2021-09-10T11:42:30.743Z</time>
      </trkpt>
      <trkpt lat="45.73852" lon="6.11184">
        <ele>738</ele>
        <time>2021-09-10T11:42:31.744Z</time>
      </trkpt>
      <trkpt lat="45.73853" lon="6.11187">
        <ele>738</ele>
        <time>2021-09-10T11:42:32.744Z</time>
      </trkpt>
      <trkpt lat="45.73853" lon="6.1119">
        <ele>738</ele>
        <time>2021-09-10T11:42:33.743Z</time>
      </trkpt>
      <trkpt lat="45.73854" lon="6.11193">
        <ele>737</ele>
        <time>2021-09-10T11:42:34.743Z</time>
      </trkpt>
      <trkpt lat="45.73855" lon="6.11196">
        <ele>737</ele>
        <time>2021-09-10T11:42:35.744Z</time>
      </trkpt>
      <trkpt lat="45.73856" lon="6.112">
        <ele>737</ele>
        <time>2021-09-10T11:42:36.744Z</time>
      </trkpt>
      <trkpt lat="45.73857" lon="6.11203">
        <ele>737</ele>
        <time>2021-09-10T11:42:37.743Z</time>
      </trkpt>
      <trkpt lat="45.73858" lon="6.11206">
        <ele>738</ele>
        <time>2021-09-10T11:42:38.743Z</time>
      </trkpt>
      <trkpt lat="45.73859" lon="6.11209">
        <ele>738</ele>
        <time>2021-09-10T11:42:39.743Z</time>
      </trkpt>
      <trkpt lat="45.7386" lon="6.11212">
        <ele>738</ele>
        <time>2021-09-10T11:42:40.743Z</time>
      </trkpt>
      <trkpt lat="45.73862" lon="6.11215">
        <ele>738</ele>
        <time>2021-09-10T11:42:41.743Z</time>
      </trkpt>
      <trkpt lat="45.73863" lon="6.11217">
        <ele>739</ele>
        <time>2021-09-10T11:42:42.744Z</time>
      </trkpt>
      <trkpt lat="45.73865" lon="6.11219">
        <ele>739</ele>
        <time>2021-09-10T11:42:43.743Z</time>
      </trkpt>
      <trkpt lat="45.73866" lon="6.11222">
        <ele>739</ele>
        <time>2021-09-10T11:42:44.744Z</time>
      </trkpt>
      <trkpt lat="45.73868" lon="6.11224">
        <ele>739</ele>
        <time>2021-09-10T11:42:45.743Z</time>
      </trkpt>
      <trkpt lat="45.73869" lon="6.11226">
        <ele>740</ele>
        <time>2021-09-10T11:42:46.744Z</time>
      </trkpt>
      <trkpt lat="45.73871" lon="6.11228">
        <ele>740</ele>
        <time>2021-09-10T11:42:47.744Z</time>
      </trkpt>
      <trkpt lat="45.73872" lon="6.1123">
        <ele>740</ele>
        <time>2021-09-10T11:42:48.743Z</time>
      </trkpt>
      <trkpt lat="45.73874" lon="6.11232">
        <ele>740</ele>
        <time>2021-09-10T11:42:49.743Z</time>
      </trkpt>
      <trkpt lat="45.73876" lon="6.11234">
        <ele>739</ele>
        <time>2021-09-10T11:42:50.743Z</time>
      </trkpt>
      <trkpt lat="45.73878" lon="6.11236">
        <ele>739</ele>
        <time>2021-09-10T11:42:51.744Z</time>
      </trkpt>
      <trkpt lat="45.7388" lon="6.11237">
        <ele>739</ele>
        <time>2021-09-10T11:42:52.743Z</time>
      </trkpt>
      <trkpt lat="45.73882" lon="6.11239">
        <ele>739</ele>
        <time>2021-09-10T11:42:53.744Z</time>
      </trkpt>
      <trkpt lat="45.73884" lon="6.1124">
        <ele>739</ele>
        <time>2021-09-10T11:42:54.744Z</time>
      </trkpt>
      <trkpt lat="45.73886" lon="6.11242">
        <ele>739</ele>
        <time>2021-09-10T11:42:55.744Z</time>
      </trkpt>
      <trkpt lat="45.73888" lon="6.11243">
        <ele>739</ele>
        <time>2021-09-10T11:42:56.744Z</time>
      </trkpt>
      <trkpt lat="45.7389" lon="6.11245">
        <ele>739</ele>
        <time>2021-09-10T11:42:57.743Z</time>
      </trkpt>
      <trkpt lat="45.73892" lon="6.11246">
        <ele>739</ele>
        <time>2021-09-10T11:42:58.744Z</time>
      </trkpt>
      <trkpt lat="45.73894" lon="6.11248">
        <ele>739</ele>
        <time>2021-09-10T11:42:59.743Z</time>
      </trkpt>
      <trkpt lat="45.73897" lon="6.11249">
        <ele>739</ele>
        <time>2021-09-10T11:43:00.743Z</time>
      </trkpt>
      <trkpt lat="45.73899" lon="6.11251">
        <ele>739</ele>
        <time>2021-09-10T11:43:01.744Z</time>
      </trkpt>
      <trkpt lat="45.73901" lon="6.11253">
        <ele>739</ele>
        <time>2021-09-10T11:43:02.744Z</time>
      </trkpt>
      <trkpt lat="45.73903" lon="6.11254">
        <ele>738</ele>
        <time>2021-09-10T11:43:03.744Z</time>
      </trkpt>
      <trkpt lat="45.73905" lon="6.11256">
        <ele>738</ele>
        <time>2021-09-10T11:43:04.744Z</time>
      </trkpt>
      <trkpt lat="45.73907" lon="6.11257">
        <ele>739</ele>
        <time>2021-09-10T11:43:05.743Z</time>
      </trkpt>
      <trkpt lat="45.73909" lon="6.11259">
        <ele>738</ele>
        <time>2021-09-10T11:43:06.744Z</time>
      </trkpt>
      <trkpt lat="45.73911" lon="6.1126">
        <ele>739</ele>
        <time>2021-09-10T11:43:07.743Z</time>
      </trkpt>
      <trkpt lat="45.73913" lon="6.11262">
        <ele>739</ele>
        <time>2021-09-10T11:43:08.744Z</time>
      </trkpt>
      <trkpt lat="45.73915" lon="6.11263">
        <ele>739</ele>
        <time>2021-09-10T11:43:09.744Z</time>
      </trkpt>
      <trkpt lat="45.73917" lon="6.11264">
        <ele>740</ele>
        <time>2021-09-10T11:43:10.743Z</time>
      </trkpt>
      <trkpt lat="45.73919" lon="6.11266">
        <ele>740</ele>
        <time>2021-09-10T11:43:11.744Z</time>
      </trkpt>
      <trkpt lat="45.73921" lon="6.11267">
        <ele>741</ele>
        <time>2021-09-10T11:43:12.743Z</time>
      </trkpt>
      <trkpt lat="45.73923" lon="6.11268">
        <ele>742</ele>
        <time>2021-09-10T11:43:13.743Z</time>
      </trkpt>
      <trkpt lat="45.73925" lon="6.11269">
        <ele>742</ele>
        <time>2021-09-10T11:43:14.743Z</time>
      </trkpt>
      <trkpt lat="45.73927" lon="6.11271">
        <ele>742</ele>
        <time>2021-09-10T11:43:15.744Z</time>
      </trkpt>
      <trkpt lat="45.73929" lon="6.11272">
        <ele>742</ele>
        <time>2021-09-10T11:43:16.744Z</time>
      </trkpt>
      <trkpt lat="45.73931" lon="6.11273">
        <ele>743</ele>
        <time>2021-09-10T11:43:17.743Z</time>
      </trkpt>
      <trkpt lat="45.73933" lon="6.11273">
        <ele>743</ele>
        <time>2021-09-10T11:43:18.743Z</time>
      </trkpt>
      <trkpt lat="45.73935" lon="6.11274">
        <ele>743</ele>
        <time>2021-09-10T11:43:19.744Z</time>
      </trkpt>
      <trkpt lat="45.73937" lon="6.11275">
        <ele>743</ele>
        <time>2021-09-10T11:43:20.744Z</time>
      </trkpt>
      <trkpt lat="45.73939" lon="6.11275">
        <ele>743</ele>
        <time>2021-09-10T11:43:21.743Z</time>
      </trkpt>
      <trkpt lat="45.73941" lon="6.11276">
        <ele>742</ele>
        <time>2021-09-10T11:43:22.744Z</time>
      </trkpt>
      <trkpt lat="45.73943" lon="6.11276">
        <ele>742</ele>
        <time>2021-09-10T11:43:23.744Z</time>
      </trkpt>
      <trkpt lat="45.73945" lon="6.11276">
        <ele>742</ele>
        <time>2021-09-10T11:43:24.744Z</time>
      </trkpt>
      <trkpt lat="45.73948" lon="6.11277">
        <ele>742</ele>
        <time>2021-09-10T11:43:25.744Z</time>
      </trkpt>
      <trkpt lat="45.7395" lon="6.11277">
        <ele>742</ele>
        <time>2021-09-10T11:43:26.744Z</time>
      </trkpt>
      <trkpt lat="45.73952" lon="6.11277">
        <ele>742</ele>
        <time>2021-09-10T11:43:27.744Z</time>
      </trkpt>
      <trkpt lat="45.73954" lon="6.11277">
        <ele>742</ele>
        <time>2021-09-10T11:43:28.744Z</time>
      </trkpt>
      <trkpt lat="45.73957" lon="6.11277">
        <ele>742</ele>
        <time>2021-09-10T11:43:29.743Z</time>
      </trkpt>
      <trkpt lat="45.73959" lon="6.11277">
        <ele>743</ele>
        <time>2021-09-10T11:43:30.744Z</time>
      </trkpt>
      <trkpt lat="45.73961" lon="6.11277">
        <ele>743</ele>
        <time>2021-09-10T11:43:31.743Z</time>
      </trkpt>
      <trkpt lat="45.73963" lon="6.11277">
        <ele>743</ele>
        <time>2021-09-10T11:43:32.744Z</time>
      </trkpt>
      <trkpt lat="45.73965" lon="6.11277">
        <ele>743</ele>
        <time>2021-09-10T11:43:33.743Z</time>
      </trkpt>
      <trkpt lat="45.73967" lon="6.11277">
        <ele>743</ele>
        <time>2021-09-10T11:43:34.743Z</time>
      </trkpt>
      <trkpt lat="45.7397" lon="6.11278">
        <ele>744</ele>
        <time>2021-09-10T11:43:35.743Z</time>
      </trkpt>
      <trkpt lat="45.73972" lon="6.11278">
        <ele>744</ele>
        <time>2021-09-10T11:43:36.744Z</time>
      </trkpt>
      <trkpt lat="45.73974" lon="6.11278">
        <ele>744</ele>
        <time>2021-09-10T11:43:37.743Z</time>
      </trkpt>
      <trkpt lat="45.73976" lon="6.11279">
        <ele>745</ele>
        <time>2021-09-10T11:43:38.744Z</time>
      </trkpt>
      <trkpt lat="45.73979" lon="6.11279">
        <ele>745</ele>
        <time>2021-09-10T11:43:39.743Z</time>
      </trkpt>
      <trkpt lat="45.73981" lon="6.11279">
        <ele>745</ele>
        <time>2021-09-10T11:43:40.744Z</time>
      </trkpt>
      <trkpt lat="45.73983" lon="6.11279">
        <ele>745</ele>
        <time>2021-09-10T11:43:41.744Z</time>
      </trkpt>
      <trkpt lat="45.73986" lon="6.11279">
        <ele>746</ele>
        <time>2021-09-10T11:43:42.744Z</time>
      </trkpt>
      <trkpt lat="45.73988" lon="6.11279">
        <ele>746</ele>
        <time>2021-09-10T11:43:43.743Z</time>
      </trkpt>
      <trkpt lat="45.7399" lon="6.1128">
        <ele>746</ele>
        <time>2021-09-10T11:43:44.744Z</time>
      </trkpt>
      <trkpt lat="45.73992" lon="6.1128">
        <ele>746</ele>
        <time>2021-09-10T11:43:45.743Z</time>
      </trkpt>
      <trkpt lat="45.73994" lon="6.1128">
        <ele>747</ele>
        <time>2021-09-10T11:43:46.744Z</time>
      </trkpt>
      <trkpt lat="45.73996" lon="6.1128">
        <ele>747</ele>
        <time>2021-09-10T11:43:47.744Z</time>
      </trkpt>
      <trkpt lat="45.73999" lon="6.1128">
        <ele>747</ele>
        <time>2021-09-10T11:43:48.743Z</time>
      </trkpt>
      <trkpt lat="45.74001" lon="6.1128">
        <ele>747</ele>
        <time>2021-09-10T11:43:49.744Z</time>
      </trkpt>
      <trkpt lat="45.74003" lon="6.1128">
        <ele>747</ele>
        <time>2021-09-10T11:43:50.743Z</time>
      </trkpt>
      <trkpt lat="45.74006" lon="6.11281">
        <ele>747</ele>
        <time>2021-09-10T11:43:51.743Z</time>
      </trkpt>
      <trkpt lat="45.74008" lon="6.11281">
        <ele>748</ele>
        <time>2021-09-10T11:43:52.744Z</time>
      </trkpt>
      <trkpt lat="45.7401" lon="6.11281">
        <ele>748</ele>
        <time>2021-09-10T11:43:53.743Z</time>
      </trkpt>
      <trkpt lat="45.74012" lon="6.11281">
        <ele>748</ele>
        <time>2021-09-10T11:43:54.743Z</time>
      </trkpt>
      <trkpt lat="45.74014" lon="6.11281">
        <ele>749</ele>
        <time>2021-09-10T11:43:55.744Z</time>
      </trkpt>
      <trkpt lat="45.74016" lon="6.11281">
        <ele>749</ele>
        <time>2021-09-10T11:43:56.744Z</time>
      </trkpt>
      <trkpt lat="45.74018" lon="6.11281">
        <ele>749</ele>
        <time>2021-09-10T11:43:57.744Z</time>
      </trkpt>
      <trkpt lat="45.7402" lon="6.11282">
        <ele>749</ele>
        <time>2021-09-10T11:43:58.744Z</time>
      </trkpt>
      <trkpt lat="45.74022" lon="6.11282">
        <ele>749</ele>
        <time>2021-09-10T11:43:59.743Z</time>
      </trkpt>
      <trkpt lat="45.74024" lon="6.11282">
        <ele>749</ele>
        <time>2021-09-10T11:44:00.744Z</time>
      </trkpt>
      <trkpt lat="45.74026" lon="6.11282">
        <ele>750</ele>
        <time>2021-09-10T11:44:01.744Z</time>
      </trkpt>
      <trkpt lat="45.74028" lon="6.11282">
        <ele>750</ele>
        <time>2021-09-10T11:44:02.743Z</time>
      </trkpt>
      <trkpt lat="45.7403" lon="6.11282">
        <ele>750</ele>
        <time>2021-09-10T11:44:03.743Z</time>
      </trkpt>
      <trkpt lat="45.74033" lon="6.11282">
        <ele>750</ele>
        <time>2021-09-10T11:44:04.743Z</time>
      </trkpt>
      <trkpt lat="45.74035" lon="6.11282">
        <ele>750</ele>
        <time>2021-09-10T11:44:05.744Z</time>
      </trkpt>
      <trkpt lat="45.74037" lon="6.11282">
        <ele>750</ele>
        <time>2021-09-10T11:44:06.744Z</time>
      </trkpt>
      <trkpt lat="45.74039" lon="6.11282">
        <ele>750</ele>
        <time>2021-09-10T11:44:07.743Z</time>
      </trkpt>
      <trkpt lat="45.74041" lon="6.11281">
        <ele>750</ele>
        <time>2021-09-10T11:44:08.744Z</time>
      </trkpt>
      <trkpt lat="45.74043" lon="6.11281">
        <ele>750</ele>
        <time>2021-09-10T11:44:09.743Z</time>
      </trkpt>
      <trkpt lat="45.74045" lon="6.1128">
        <ele>751</ele>
        <time>2021-09-10T11:44:10.743Z</time>
      </trkpt>
      <trkpt lat="45.74048" lon="6.1128">
        <ele>751</ele>
        <time>2021-09-10T11:44:11.743Z</time>
      </trkpt>
      <trkpt lat="45.7405" lon="6.11279">
        <ele>751</ele>
        <time>2021-09-10T11:44:12.743Z</time>
      </trkpt>
      <trkpt lat="45.74052" lon="6.11278">
        <ele>751</ele>
        <time>2021-09-10T11:44:13.744Z</time>
      </trkpt>
      <trkpt lat="45.74054" lon="6.11278">
        <ele>751</ele>
        <time>2021-09-10T11:44:14.743Z</time>
      </trkpt>
      <trkpt lat="45.74056" lon="6.11277">
        <ele>751</ele>
        <time>2021-09-10T11:44:15.743Z</time>
      </trkpt>
      <trkpt lat="45.74058" lon="6.11276">
        <ele>750</ele>
        <time>2021-09-10T11:44:16.744Z</time>
      </trkpt>
      <trkpt lat="45.7406" lon="6.11275">
        <ele>750</ele>
        <time>2021-09-10T11:44:17.744Z</time>
      </trkpt>
      <trkpt lat="45.74062" lon="6.11274">
        <ele>750</ele>
        <time>2021-09-10T11:44:18.743Z</time>
      </trkpt>
      <trkpt lat="45.74065" lon="6.11273">
        <ele>750</ele>
        <time>2021-09-10T11:44:19.743Z</time>
      </trkpt>
      <trkpt lat="45.74067" lon="6.11272">
        <ele>750</ele>
        <time>2021-09-10T11:44:20.744Z</time>
      </trkpt>
      <trkpt lat="45.74069" lon="6.11271">
        <ele>750</ele>
        <time>2021-09-10T11:44:21.744Z</time>
      </trkpt>
      <trkpt lat="45.74071" lon="6.1127">
        <ele>751</ele>
        <time>2021-09-10T11:44:22.744Z</time>
      </trkpt>
      <trkpt lat="45.74073" lon="6.11269">
        <ele>751</ele>
        <time>2021-09-10T11:44:23.744Z</time>
      </trkpt>
      <trkpt lat="45.74076" lon="6.11269">
        <ele>751</ele>
        <time>2021-09-10T11:44:24.743Z</time>
      </trkpt>
      <trkpt lat="45.74078" lon="6.11268">
        <ele>751</ele>
        <time>2021-09-10T11:44:25.744Z</time>
      </trkpt>
      <trkpt lat="45.7408" lon="6.11268">
        <ele>751</ele>
        <time>2021-09-10T11:44:26.744Z</time>
      </trkpt>
      <trkpt lat="45.74082" lon="6.11267">
        <ele>751</ele>
        <time>2021-09-10T11:44:27.744Z</time>
      </trkpt>
      <trkpt lat="45.74085" lon="6.11266">
        <ele>751</ele>
        <time>2021-09-10T11:44:28.744Z</time>
      </trkpt>
      <trkpt lat="45.74087" lon="6.11265">
        <ele>751</ele>
        <time>2021-09-10T11:44:29.743Z</time>
      </trkpt>
      <trkpt lat="45.74089" lon="6.11264">
        <ele>751</ele>
        <time>2021-09-10T11:44:30.743Z</time>
      </trkpt>
      <trkpt lat="45.74091" lon="6.11263">
        <ele>751</ele>
        <time>2021-09-10T11:44:31.744Z</time>
      </trkpt>
      <trkpt lat="45.74093" lon="6.11263">
        <ele>751</ele>
        <time>2021-09-10T11:44:32.744Z</time>
      </trkpt>
      <trkpt lat="45.74096" lon="6.11262">
        <ele>752</ele>
        <time>2021-09-10T11:44:33.744Z</time>
      </trkpt>
      <trkpt lat="45.74098" lon="6.11262">
        <ele>752</ele>
        <time>2021-09-10T11:44:34.743Z</time>
      </trkpt>
      <trkpt lat="45.741" lon="6.11261">
        <ele>752</ele>
        <time>2021-09-10T11:44:35.743Z</time>
      </trkpt>
      <trkpt lat="45.74102" lon="6.11261">
        <ele>752</ele>
        <time>2021-09-10T11:44:36.744Z</time>
      </trkpt>
      <trkpt lat="45.74105" lon="6.11261">
        <ele>752</ele>
        <time>2021-09-10T11:49:33.799Z</time>
      </trkpt>
      <trkpt lat="45.74107" lon="6.1126">
        <ele>752</ele>
        <time>2021-09-10T11:49:34.799Z</time>
      </trkpt>
      <trkpt lat="45.7411" lon="6.1126">
        <ele>752</ele>
        <time>2021-09-10T11:49:35.799Z</time>
      </trkpt>
      <trkpt lat="45.74112" lon="6.11261">
        <ele>752</ele>
        <time>2021-09-10T11:49:36.799Z</time>
      </trkpt>
      <trkpt lat="45.74114" lon="6.11261">
        <ele>752</ele>
        <time>2021-09-10T11:49:37.800Z</time>
      </trkpt>
      <trkpt lat="45.74116" lon="6.11262">
        <ele>752</ele>
        <time>2021-09-10T11:49:38.799Z</time>
      </trkpt>
      <trkpt lat="45.74118" lon="6.11264">
        <ele>752</ele>
        <time>2021-09-10T11:49:39.800Z</time>
      </trkpt>
      <trkpt lat="45.7412" lon="6.11265">
        <ele>753</ele>
        <time>2021-09-10T11:49:40.799Z</time>
      </trkpt>
      <trkpt lat="45.74122" lon="6.11266">
        <ele>753</ele>
        <time>2021-09-10T11:49:41.799Z</time>
      </trkpt>
      <trkpt lat="45.74124" lon="6.11267">
        <ele>754</ele>
        <time>2021-09-10T11:49:42.799Z</time>
      </trkpt>
      <trkpt lat="45.74126" lon="6.11268">
        <ele>754</ele>
        <time>2021-09-10T11:49:43.799Z</time>
      </trkpt>
      <trkpt lat="45.74127" lon="6.11269">
        <ele>754</ele>
        <time>2021-09-10T11:49:44.799Z</time>
      </trkpt>
      <trkpt lat="45.74129" lon="6.11271">
        <ele>754</ele>
        <time>2021-09-10T11:49:45.800Z</time>
      </trkpt>
      <trkpt lat="45.74131" lon="6.11272">
        <ele>754</ele>
        <time>2021-09-10T11:49:46.800Z</time>
      </trkpt>
      <trkpt lat="45.74133" lon="6.11274">
        <ele>755</ele>
        <time>2021-09-10T11:49:47.800Z</time>
      </trkpt>
      <trkpt lat="45.74135" lon="6.11275">
        <ele>755</ele>
        <time>2021-09-10T11:49:48.799Z</time>
      </trkpt>
      <trkpt lat="45.74136" lon="6.11277">
        <ele>756</ele>
        <time>2021-09-10T11:49:49.799Z</time>
      </trkpt>
      <trkpt lat="45.74138" lon="6.11278">
        <ele>756</ele>
        <time>2021-09-10T11:49:50.799Z</time>
      </trkpt>
      <trkpt lat="45.7414" lon="6.1128">
        <ele>757</ele>
        <time>2021-09-10T11:49:51.799Z</time>
      </trkpt>
      <trkpt lat="45.74141" lon="6.11281">
        <ele>757</ele>
        <time>2021-09-10T11:49:52.800Z</time>
      </trkpt>
      <trkpt lat="45.74143" lon="6.11283">
        <ele>757</ele>
        <time>2021-09-10T11:49:53.800Z</time>
      </trkpt>
      <trkpt lat="45.74145" lon="6.11284">
        <ele>757</ele>
        <time>2021-09-10T11:49:54.800Z</time>
      </trkpt>
      <trkpt lat="45.74146" lon="6.11286">
        <ele>757</ele>
        <time>2021-09-10T11:49:55.799Z</time>
      </trkpt>
      <trkpt lat="45.74148" lon="6.11288">
        <ele>757</ele>
        <time>2021-09-10T11:49:56.799Z</time>
      </trkpt>
      <trkpt lat="45.7415" lon="6.11289">
        <ele>758</ele>
        <time>2021-09-10T11:49:57.800Z</time>
      </trkpt>
      <trkpt lat="45.74152" lon="6.11291">
        <ele>758</ele>
        <time>2021-09-10T11:49:58.799Z</time>
      </trkpt>
      <trkpt lat="45.74154" lon="6.11293">
        <ele>758</ele>
        <time>2021-09-10T11:49:59.800Z</time>
      </trkpt>
      <trkpt lat="45.74155" lon="6.11295">
        <ele>758</ele>
        <time>2021-09-10T11:50:00.800Z</time>
      </trkpt>
      <trkpt lat="45.74157" lon="6.11296">
        <ele>758</ele>
        <time>2021-09-10T11:50:01.800Z</time>
      </trkpt>
      <trkpt lat="45.74159" lon="6.11298">
        <ele>758</ele>
        <time>2021-09-10T11:50:02.800Z</time>
      </trkpt>
      <trkpt lat="45.74161" lon="6.113">
        <ele>758</ele>
        <time>2021-09-10T11:50:03.799Z</time>
      </trkpt>
      <trkpt lat="45.74163" lon="6.11301">
        <ele>757</ele>
        <time>2021-09-10T11:50:04.799Z</time>
      </trkpt>
      <trkpt lat="45.74164" lon="6.11303">
        <ele>757</ele>
        <time>2021-09-10T11:50:05.800Z</time>
      </trkpt>
      <trkpt lat="45.74167" lon="6.11305">
        <ele>756</ele>
        <time>2021-09-10T11:50:06.799Z</time>
      </trkpt>
      <trkpt lat="45.74168" lon="6.11306">
        <ele>756</ele>
        <time>2021-09-10T11:50:07.800Z</time>
      </trkpt>
      <trkpt lat="45.7417" lon="6.11308">
        <ele>756</ele>
        <time>2021-09-10T11:50:08.800Z</time>
      </trkpt>
      <trkpt lat="45.74172" lon="6.11309">
        <ele>756</ele>
        <time>2021-09-10T11:50:09.799Z</time>
      </trkpt>
      <trkpt lat="45.74173" lon="6.11311">
        <ele>756</ele>
        <time>2021-09-10T11:50:10.799Z</time>
      </trkpt>
      <trkpt lat="45.74175" lon="6.11313">
        <ele>756</ele>
        <time>2021-09-10T11:50:11.799Z</time>
      </trkpt>
      <trkpt lat="45.74177" lon="6.11314">
        <ele>757</ele>
        <time>2021-09-10T11:50:12.800Z</time>
      </trkpt>
      <trkpt lat="45.74179" lon="6.11316">
        <ele>757</ele>
        <time>2021-09-10T11:50:13.800Z</time>
      </trkpt>
      <trkpt lat="45.74181" lon="6.11317">
        <ele>757</ele>
        <time>2021-09-10T11:50:14.800Z</time>
      </trkpt>
      <trkpt lat="45.74183" lon="6.11319">
        <ele>757</ele>
        <time>2021-09-10T11:50:15.800Z</time>
      </trkpt>
      <trkpt lat="45.74184" lon="6.1132">
        <ele>757</ele>
        <time>2021-09-10T11:50:16.800Z</time>
      </trkpt>
      <trkpt lat="45.74186" lon="6.11322">
        <ele>758</ele>
        <time>2021-09-10T11:50:17.800Z</time>
      </trkpt>
      <trkpt lat="45.74188" lon="6.11324">
        <ele>758</ele>
        <time>2021-09-10T11:50:18.800Z</time>
      </trkpt>
      <trkpt lat="45.7419" lon="6.11325">
        <ele>758</ele>
        <time>2021-09-10T11:50:19.800Z</time>
      </trkpt>
      <trkpt lat="45.74192" lon="6.11327">
        <ele>758</ele>
        <time>2021-09-10T11:50:20.800Z</time>
      </trkpt>
      <trkpt lat="45.74194" lon="6.11328">
        <ele>758</ele>
        <time>2021-09-10T11:50:21.800Z</time>
      </trkpt>
      <trkpt lat="45.74195" lon="6.1133">
        <ele>758</ele>
        <time>2021-09-10T11:50:22.800Z</time>
      </trkpt>
      <trkpt lat="45.74197" lon="6.11332">
        <ele>758</ele>
        <time>2021-09-10T11:50:23.799Z</time>
      </trkpt>
      <trkpt lat="45.74199" lon="6.11333">
        <ele>758</ele>
        <time>2021-09-10T11:50:24.800Z</time>
      </trkpt>
      <trkpt lat="45.74201" lon="6.11335">
        <ele>759</ele>
        <time>2021-09-10T11:50:25.800Z</time>
      </trkpt>
      <trkpt lat="45.74203" lon="6.11337">
        <ele>760</ele>
        <time>2021-09-10T11:50:26.800Z</time>
      </trkpt>
      <trkpt lat="45.74205" lon="6.11338">
        <ele>760</ele>
        <time>2021-09-10T11:50:27.800Z</time>
      </trkpt>
      <trkpt lat="45.74206" lon="6.1134">
        <ele>761</ele>
        <time>2021-09-10T11:50:28.799Z</time>
      </trkpt>
      <trkpt lat="45.74208" lon="6.11341">
        <ele>761</ele>
        <time>2021-09-10T11:50:29.799Z</time>
      </trkpt>
      <trkpt lat="45.7421" lon="6.11343">
        <ele>762</ele>
        <time>2021-09-10T11:50:30.800Z</time>
      </trkpt>
      <trkpt lat="45.74212" lon="6.11345">
        <ele>762</ele>
        <time>2021-09-10T11:50:31.800Z</time>
      </trkpt>
      <trkpt lat="45.74214" lon="6.11346">
        <ele>762</ele>
        <time>2021-09-10T11:50:32.799Z</time>
      </trkpt>
      <trkpt lat="45.74216" lon="6.11348">
        <ele>762</ele>
        <time>2021-09-10T11:50:33.800Z</time>
      </trkpt>
      <trkpt lat="45.74218" lon="6.1135">
        <ele>761</ele>
        <time>2021-09-10T11:50:34.799Z</time>
      </trkpt>
      <trkpt lat="45.7422" lon="6.11351">
        <ele>762</ele>
        <time>2021-09-10T11:50:35.799Z</time>
      </trkpt>
      <trkpt lat="45.74222" lon="6.11353">
        <ele>762</ele>
        <time>2021-09-10T11:50:36.800Z</time>
      </trkpt>
      <trkpt lat="45.74224" lon="6.11355">
        <ele>761</ele>
        <time>2021-09-10T11:50:37.800Z</time>
      </trkpt>
      <trkpt lat="45.74225" lon="6.11357">
        <ele>762</ele>
        <time>2021-09-10T11:50:38.800Z</time>
      </trkpt>
      <trkpt lat="45.74227" lon="6.11359">
        <ele>762</ele>
        <time>2021-09-10T11:50:39.800Z</time>
      </trkpt>
      <trkpt lat="45.74229" lon="6.1136">
        <ele>762</ele>
        <time>2021-09-10T11:50:40.800Z</time>
      </trkpt>
      <trkpt lat="45.74231" lon="6.11362">
        <ele>762</ele>
        <time>2021-09-10T11:50:41.799Z</time>
      </trkpt>
      <trkpt lat="45.74233" lon="6.11364">
        <ele>762</ele>
        <time>2021-09-10T11:50:42.800Z</time>
      </trkpt>
      <trkpt lat="45.74235" lon="6.11365">
        <ele>763</ele>
        <time>2021-09-10T11:50:43.799Z</time>
      </trkpt>
      <trkpt lat="45.74237" lon="6.11367">
        <ele>763</ele>
        <time>2021-09-10T11:50:44.800Z</time>
      </trkpt>
      <trkpt lat="45.74239" lon="6.11368">
        <ele>763</ele>
        <time>2021-09-10T11:50:45.800Z</time>
      </trkpt>
      <trkpt lat="45.74241" lon="6.1137">
        <ele>763</ele>
        <time>2021-09-10T11:50:46.800Z</time>
      </trkpt>
      <trkpt lat="45.74243" lon="6.11372">
        <ele>763</ele>
        <time>2021-09-10T11:50:47.799Z</time>
      </trkpt>
      <trkpt lat="45.74245" lon="6.11374">
        <ele>762</ele>
        <time>2021-09-10T11:50:48.800Z</time>
      </trkpt>
      <trkpt lat="45.74246" lon="6.11375">
        <ele>762</ele>
        <time>2021-09-10T11:50:49.800Z</time>
      </trkpt>
      <trkpt lat="45.74248" lon="6.11377">
        <ele>763</ele>
        <time>2021-09-10T11:50:50.800Z</time>
      </trkpt>
      <trkpt lat="45.7425" lon="6.11378">
        <ele>763</ele>
        <time>2021-09-10T11:50:51.800Z</time>
      </trkpt>
      <trkpt lat="45.74252" lon="6.1138">
        <ele>763</ele>
        <time>2021-09-10T11:50:52.799Z</time>
      </trkpt>
      <trkpt lat="45.74254" lon="6.11382">
        <ele>763</ele>
        <time>2021-09-10T11:50:53.800Z</time>
      </trkpt>
      <trkpt lat="45.74256" lon="6.11383">
        <ele>763</ele>
        <time>2021-09-10T11:50:54.800Z</time>
      </trkpt>
      <trkpt lat="45.74258" lon="6.11385">
        <ele>764</ele>
        <time>2021-09-10T11:50:55.800Z</time>
      </trkpt>
      <trkpt lat="45.7426" lon="6.11386">
        <ele>764</ele>
        <time>2021-09-10T11:50:56.800Z</time>
      </trkpt>
      <trkpt lat="45.74262" lon="6.11387">
        <ele>764</ele>
        <time>2021-09-10T11:50:57.799Z</time>
      </trkpt>
      <trkpt lat="45.74264" lon="6.11389">
        <ele>764</ele>
        <time>2021-09-10T11:50:58.800Z</time>
      </trkpt>
      <trkpt lat="45.74266" lon="6.1139">
        <ele>763</ele>
        <time>2021-09-10T11:50:59.799Z</time>
      </trkpt>
      <trkpt lat="45.74268" lon="6.11391">
        <ele>764</ele>
        <time>2021-09-10T11:51:00.799Z</time>
      </trkpt>
      <trkpt lat="45.74271" lon="6.11392">
        <ele>764</ele>
        <time>2021-09-10T11:51:01.800Z</time>
      </trkpt>
      <trkpt lat="45.74273" lon="6.11394">
        <ele>765</ele>
        <time>2021-09-10T11:51:02.800Z</time>
      </trkpt>
      <trkpt lat="45.74275" lon="6.11395">
        <ele>766</ele>
        <time>2021-09-10T11:51:03.800Z</time>
      </trkpt>
      <trkpt lat="45.74277" lon="6.11396">
        <ele>767</ele>
        <time>2021-09-10T11:51:04.799Z</time>
      </trkpt>
      <trkpt lat="45.74279" lon="6.11397">
        <ele>767</ele>
        <time>2021-09-10T11:51:05.800Z</time>
      </trkpt>
      <trkpt lat="45.74281" lon="6.11398">
        <ele>767</ele>
        <time>2021-09-10T11:51:06.800Z</time>
      </trkpt>
      <trkpt lat="45.74284" lon="6.11399">
        <ele>767</ele>
        <time>2021-09-10T11:51:07.800Z</time>
      </trkpt>
      <trkpt lat="45.74286" lon="6.114">
        <ele>766</ele>
        <time>2021-09-10T11:51:08.800Z</time>
      </trkpt>
      <trkpt lat="45.74288" lon="6.11402">
        <ele>766</ele>
        <time>2021-09-10T11:51:09.800Z</time>
      </trkpt>
      <trkpt lat="45.7429" lon="6.11403">
        <ele>766</ele>
        <time>2021-09-10T11:51:10.800Z</time>
      </trkpt>
      <trkpt lat="45.74292" lon="6.11403">
        <ele>766</ele>
        <time>2021-09-10T11:51:11.800Z</time>
      </trkpt>
      <trkpt lat="45.74294" lon="6.11404">
        <ele>766</ele>
        <time>2021-09-10T11:51:12.799Z</time>
      </trkpt>
      <trkpt lat="45.74296" lon="6.11405">
        <ele>765</ele>
        <time>2021-09-10T11:51:13.800Z</time>
      </trkpt>
      <trkpt lat="45.74298" lon="6.11406">
        <ele>765</ele>
        <time>2021-09-10T11:51:14.800Z</time>
      </trkpt>
      <trkpt lat="45.743" lon="6.11407">
        <ele>765</ele>
        <time>2021-09-10T11:51:15.800Z</time>
      </trkpt>
      <trkpt lat="45.74303" lon="6.11409">
        <ele>765</ele>
        <time>2021-09-10T11:51:16.800Z</time>
      </trkpt>
      <trkpt lat="45.74304" lon="6.11409">
        <ele>766</ele>
        <time>2021-09-10T11:51:17.800Z</time>
      </trkpt>
      <trkpt lat="45.74307" lon="6.1141">
        <ele>766</ele>
        <time>2021-09-10T11:51:18.799Z</time>
      </trkpt>
      <trkpt lat="45.74309" lon="6.11411">
        <ele>766</ele>
        <time>2021-09-10T11:51:19.800Z</time>
      </trkpt>
      <trkpt lat="45.74311" lon="6.11413">
        <ele>767</ele>
        <time>2021-09-10T11:51:20.799Z</time>
      </trkpt>
      <trkpt lat="45.74313" lon="6.11414">
        <ele>767</ele>
        <time>2021-09-10T11:51:21.799Z</time>
      </trkpt>
      <trkpt lat="45.74315" lon="6.11415">
        <ele>768</ele>
        <time>2021-09-10T11:51:22.800Z</time>
      </trkpt>
      <trkpt lat="45.74317" lon="6.11416">
        <ele>768</ele>
        <time>2021-09-10T11:51:23.800Z</time>
      </trkpt>
      <trkpt lat="45.74319" lon="6.11416">
        <ele>769</ele>
        <time>2021-09-10T11:51:24.800Z</time>
      </trkpt>
      <trkpt lat="45.74321" lon="6.11417">
        <ele>769</ele>
        <time>2021-09-10T11:51:25.800Z</time>
      </trkpt>
      <trkpt lat="45.74323" lon="6.11418">
        <ele>769</ele>
        <time>2021-09-10T11:51:26.800Z</time>
      </trkpt>
      <trkpt lat="45.74325" lon="6.11419">
        <ele>769</ele>
        <time>2021-09-10T11:51:27.800Z</time>
      </trkpt>
      <trkpt lat="45.74327" lon="6.1142">
        <ele>769</ele>
        <time>2021-09-10T11:51:28.799Z</time>
      </trkpt>
      <trkpt lat="45.74329" lon="6.11421">
        <ele>769</ele>
        <time>2021-09-10T11:51:29.799Z</time>
      </trkpt>
      <trkpt lat="45.74331" lon="6.11423">
        <ele>769</ele>
        <time>2021-09-10T11:51:30.800Z</time>
      </trkpt>
      <trkpt lat="45.74333" lon="6.11424">
        <ele>768</ele>
        <time>2021-09-10T11:51:31.800Z</time>
      </trkpt>
      <trkpt lat="45.74335" lon="6.11425">
        <ele>768</ele>
        <time>2021-09-10T11:51:32.799Z</time>
      </trkpt>
      <trkpt lat="45.74337" lon="6.11426">
        <ele>768</ele>
        <time>2021-09-10T11:51:33.799Z</time>
      </trkpt>
      <trkpt lat="45.74339" lon="6.11427">
        <ele>767</ele>
        <time>2021-09-10T11:51:34.800Z</time>
      </trkpt>
      <trkpt lat="45.74342" lon="6.11428">
        <ele>767</ele>
        <time>2021-09-10T11:51:35.800Z</time>
      </trkpt>
      <trkpt lat="45.74344" lon="6.11429">
        <ele>767</ele>
        <time>2021-09-10T11:51:36.800Z</time>
      </trkpt>
      <trkpt lat="45.74346" lon="6.1143">
        <ele>767</ele>
        <time>2021-09-10T11:51:37.800Z</time>
      </trkpt>
      <trkpt lat="45.74348" lon="6.11431">
        <ele>767</ele>
        <time>2021-09-10T11:51:38.799Z</time>
      </trkpt>
      <trkpt lat="45.7435" lon="6.11432">
        <ele>767</ele>
        <time>2021-09-10T11:51:39.800Z</time>
      </trkpt>
      <trkpt lat="45.74352" lon="6.11433">
        <ele>767</ele>
        <time>2021-09-10T11:51:40.800Z</time>
      </trkpt>
      <trkpt lat="45.74354" lon="6.11433">
        <ele>767</ele>
        <time>2021-09-10T11:51:41.799Z</time>
      </trkpt>
      <trkpt lat="45.74356" lon="6.11434">
        <ele>767</ele>
        <time>2021-09-10T11:51:42.800Z</time>
      </trkpt>
      <trkpt lat="45.74358" lon="6.11435">
        <ele>767</ele>
        <time>2021-09-10T11:51:43.800Z</time>
      </trkpt>
      <trkpt lat="45.7436" lon="6.11435">
        <ele>768</ele>
        <time>2021-09-10T11:51:44.800Z</time>
      </trkpt>
      <trkpt lat="45.74362" lon="6.11435">
        <ele>769</ele>
        <time>2021-09-10T11:51:45.799Z</time>
      </trkpt>
      <trkpt lat="45.74364" lon="6.11436">
        <ele>769</ele>
        <time>2021-09-10T11:51:46.800Z</time>
      </trkpt>
      <trkpt lat="45.74367" lon="6.11436">
        <ele>768</ele>
        <time>2021-09-10T11:51:47.800Z</time>
      </trkpt>
      <trkpt lat="45.74369" lon="6.11436">
        <ele>768</ele>
        <time>2021-09-10T11:51:48.800Z</time>
      </trkpt>
      <trkpt lat="45.74371" lon="6.11436">
        <ele>767</ele>
        <time>2021-09-10T11:51:49.799Z</time>
      </trkpt>
      <trkpt lat="45.74373" lon="6.11436">
        <ele>767</ele>
        <time>2021-09-10T11:51:50.800Z</time>
      </trkpt>
      <trkpt lat="45.74375" lon="6.11436">
        <ele>767</ele>
        <time>2021-09-10T11:51:51.799Z</time>
      </trkpt>
      <trkpt lat="45.74377" lon="6.11436">
        <ele>768</ele>
        <time>2021-09-10T11:51:52.799Z</time>
      </trkpt>
      <trkpt lat="45.74379" lon="6.11436">
        <ele>768</ele>
        <time>2021-09-10T11:51:53.799Z</time>
      </trkpt>
      <trkpt lat="45.74381" lon="6.11436">
        <ele>767</ele>
        <time>2021-09-10T11:51:54.800Z</time>
      </trkpt>
      <trkpt lat="45.74383" lon="6.11437">
        <ele>768</ele>
        <time>2021-09-10T11:51:55.800Z</time>
      </trkpt>
      <trkpt lat="45.74385" lon="6.11437">
        <ele>768</ele>
        <time>2021-09-10T11:51:56.799Z</time>
      </trkpt>
      <trkpt lat="45.74387" lon="6.11437">
        <ele>768</ele>
        <time>2021-09-10T11:51:57.800Z</time>
      </trkpt>
      <trkpt lat="45.74389" lon="6.11436">
        <ele>769</ele>
        <time>2021-09-10T11:51:58.800Z</time>
      </trkpt>
      <trkpt lat="45.74391" lon="6.11436">
        <ele>770</ele>
        <time>2021-09-10T11:51:59.800Z</time>
      </trkpt>
      <trkpt lat="45.74393" lon="6.11436">
        <ele>770</ele>
        <time>2021-09-10T11:52:00.800Z</time>
      </trkpt>
      <trkpt lat="45.74396" lon="6.11435">
        <ele>770</ele>
        <time>2021-09-10T11:52:01.800Z</time>
      </trkpt>
      <trkpt lat="45.74398" lon="6.11435">
        <ele>770</ele>
        <time>2021-09-10T11:52:02.799Z</time>
      </trkpt>
      <trkpt lat="45.744" lon="6.11435">
        <ele>770</ele>
        <time>2021-09-10T11:52:03.800Z</time>
      </trkpt>
      <trkpt lat="45.74402" lon="6.11435">
        <ele>770</ele>
        <time>2021-09-10T11:52:04.800Z</time>
      </trkpt>
      <trkpt lat="45.74404" lon="6.11434">
        <ele>770</ele>
        <time>2021-09-10T11:52:05.800Z</time>
      </trkpt>
      <trkpt lat="45.74406" lon="6.11434">
        <ele>769</ele>
        <time>2021-09-10T11:52:06.800Z</time>
      </trkpt>
      <trkpt lat="45.74409" lon="6.11434">
        <ele>769</ele>
        <time>2021-09-10T11:52:07.800Z</time>
      </trkpt>
      <trkpt lat="45.74411" lon="6.11434">
        <ele>769</ele>
        <time>2021-09-10T11:52:08.800Z</time>
      </trkpt>
      <trkpt lat="45.74413" lon="6.11434">
        <ele>769</ele>
        <time>2021-09-10T11:52:09.800Z</time>
      </trkpt>
      <trkpt lat="45.74415" lon="6.11433">
        <ele>770</ele>
        <time>2021-09-10T11:52:10.800Z</time>
      </trkpt>
      <trkpt lat="45.74417" lon="6.11433">
        <ele>770</ele>
        <time>2021-09-10T11:52:11.799Z</time>
      </trkpt>
      <trkpt lat="45.7442" lon="6.11433">
        <ele>771</ele>
        <time>2021-09-10T11:52:12.799Z</time>
      </trkpt>
      <trkpt lat="45.74422" lon="6.11433">
        <ele>771</ele>
        <time>2021-09-10T11:52:13.800Z</time>
      </trkpt>
      <trkpt lat="45.74424" lon="6.11433">
        <ele>771</ele>
        <time>2021-09-10T11:52:14.799Z</time>
      </trkpt>
      <trkpt lat="45.74426" lon="6.11433">
        <ele>771</ele>
        <time>2021-09-10T11:52:15.799Z</time>
      </trkpt>
      <trkpt lat="45.74428" lon="6.11432">
        <ele>771</ele>
        <time>2021-09-10T11:52:16.800Z</time>
      </trkpt>
      <trkpt lat="45.74431" lon="6.11432">
        <ele>771</ele>
        <time>2021-09-10T11:52:17.800Z</time>
      </trkpt>
      <trkpt lat="45.74433" lon="6.11432">
        <ele>771</ele>
        <time>2021-09-10T11:52:18.800Z</time>
      </trkpt>
      <trkpt lat="45.74435" lon="6.11432">
        <ele>772</ele>
        <time>2021-09-10T11:52:19.800Z</time>
      </trkpt>
      <trkpt lat="45.74437" lon="6.11432">
        <ele>772</ele>
        <time>2021-09-10T11:52:20.799Z</time>
      </trkpt>
      <trkpt lat="45.7444" lon="6.11431">
        <ele>772</ele>
        <time>2021-09-10T11:52:21.800Z</time>
      </trkpt>
      <trkpt lat="45.74442" lon="6.11431">
        <ele>773</ele>
        <time>2021-09-10T11:52:22.800Z</time>
      </trkpt>
      <trkpt lat="45.74444" lon="6.11431">
        <ele>772</ele>
        <time>2021-09-10T11:52:23.800Z</time>
      </trkpt>
      <trkpt lat="45.74446" lon="6.11431">
        <ele>772</ele>
        <time>2021-09-10T11:52:24.800Z</time>
      </trkpt>
      <trkpt lat="45.74449" lon="6.11431">
        <ele>773</ele>
        <time>2021-09-10T11:52:25.799Z</time>
      </trkpt>
      <trkpt lat="45.74451" lon="6.11431">
        <ele>773</ele>
        <time>2021-09-10T11:52:26.800Z</time>
      </trkpt>
      <trkpt lat="45.74453" lon="6.11431">
        <ele>773</ele>
        <time>2021-09-10T11:52:27.800Z</time>
      </trkpt>
      <trkpt lat="45.74455" lon="6.11431">
        <ele>773</ele>
        <time>2021-09-10T11:52:28.800Z</time>
      </trkpt>
      <trkpt lat="45.74458" lon="6.11431">
        <ele>774</ele>
        <time>2021-09-10T11:52:29.800Z</time>
      </trkpt>
      <trkpt lat="45.7446" lon="6.11431">
        <ele>773</ele>
        <time>2021-09-10T11:52:30.800Z</time>
      </trkpt>
      <trkpt lat="45.74462" lon="6.11431">
        <ele>773</ele>
        <time>2021-09-10T11:52:31.799Z</time>
      </trkpt>
      <trkpt lat="45.74464" lon="6.11431">
        <ele>773</ele>
        <time>2021-09-10T11:52:32.800Z</time>
      </trkpt>
      <trkpt lat="45.74466" lon="6.11432">
        <ele>772</ele>
        <time>2021-09-10T11:52:33.800Z</time>
      </trkpt>
      <trkpt lat="45.74469" lon="6.11432">
        <ele>772</ele>
        <time>2021-09-10T11:52:34.800Z</time>
      </trkpt>
      <trkpt lat="45.74471" lon="6.11432">
        <ele>773</ele>
        <time>2021-09-10T11:52:35.799Z</time>
      </trkpt>
      <trkpt lat="45.74473" lon="6.11433">
        <ele>773</ele>
        <time>2021-09-10T11:52:36.800Z</time>
      </trkpt>
      <trkpt lat="45.74475" lon="6.11433">
        <ele>773</ele>
        <time>2021-09-10T11:52:37.800Z</time>
      </trkpt>
      <trkpt lat="45.74477" lon="6.11433">
        <ele>774</ele>
        <time>2021-09-10T11:52:38.800Z</time>
      </trkpt>
      <trkpt lat="45.74479" lon="6.11434">
        <ele>774</ele>
        <time>2021-09-10T11:52:39.800Z</time>
      </trkpt>
      <trkpt lat="45.74481" lon="6.11434">
        <ele>774</ele>
        <time>2021-09-10T11:52:40.799Z</time>
      </trkpt>
      <trkpt lat="45.74483" lon="6.11435">
        <ele>774</ele>
        <time>2021-09-10T11:52:41.800Z</time>
      </trkpt>
      <trkpt lat="45.74485" lon="6.11435">
        <ele>774</ele>
        <time>2021-09-10T11:52:42.800Z</time>
      </trkpt>
      <trkpt lat="45.74487" lon="6.11436">
        <ele>774</ele>
        <time>2021-09-10T11:52:43.800Z</time>
      </trkpt>
      <trkpt lat="45.74489" lon="6.11436">
        <ele>774</ele>
        <time>2021-09-10T11:52:44.800Z</time>
      </trkpt>
      <trkpt lat="45.74491" lon="6.11437">
        <ele>775</ele>
        <time>2021-09-10T11:52:45.800Z</time>
      </trkpt>
      <trkpt lat="45.74493" lon="6.11437">
        <ele>775</ele>
        <time>2021-09-10T11:52:46.800Z</time>
      </trkpt>
      <trkpt lat="45.74495" lon="6.11437">
        <ele>775</ele>
        <time>2021-09-10T11:52:47.799Z</time>
      </trkpt>
      <trkpt lat="45.74498" lon="6.11437">
        <ele>775</ele>
        <time>2021-09-10T11:52:48.799Z</time>
      </trkpt>
      <trkpt lat="45.745" lon="6.11437">
        <ele>775</ele>
        <time>2021-09-10T11:52:49.799Z</time>
      </trkpt>
      <trkpt lat="45.74502" lon="6.11438">
        <ele>775</ele>
        <time>2021-09-10T11:52:50.799Z</time>
      </trkpt>
      <trkpt lat="45.74504" lon="6.11438">
        <ele>775</ele>
        <time>2021-09-10T11:52:51.800Z</time>
      </trkpt>
      <trkpt lat="45.74506" lon="6.11439">
        <ele>775</ele>
        <time>2021-09-10T11:52:52.800Z</time>
      </trkpt>
      <trkpt lat="45.74508" lon="6.11439">
        <ele>776</ele>
        <time>2021-09-10T11:52:53.800Z</time>
      </trkpt>
      <trkpt lat="45.7451" lon="6.1144">
        <ele>776</ele>
        <time>2021-09-10T11:52:54.800Z</time>
      </trkpt>
      <trkpt lat="45.74512" lon="6.1144">
        <ele>776</ele>
        <time>2021-09-10T11:52:55.800Z</time>
      </trkpt>
      <trkpt lat="45.74514" lon="6.1144">
        <ele>776</ele>
        <time>2021-09-10T11:52:56.800Z</time>
      </trkpt>
      <trkpt lat="45.74516" lon="6.11441">
        <ele>777</ele>
        <time>2021-09-10T11:52:57.800Z</time>
      </trkpt>
      <trkpt lat="45.74519" lon="6.11441">
        <ele>777</ele>
        <time>2021-09-10T11:52:58.800Z</time>
      </trkpt>
      <trkpt lat="45.74521" lon="6.11442">
        <ele>776</ele>
        <time>2021-09-10T11:52:59.800Z</time>
      </trkpt>
      <trkpt lat="45.74523" lon="6.11442">
        <ele>776</ele>
        <time>2021-09-10T11:53:00.799Z</time>
      </trkpt>
      <trkpt lat="45.74525" lon="6.11443">
        <ele>776</ele>
        <time>2021-09-10T11:53:01.800Z</time>
      </trkpt>
      <trkpt lat="45.74528" lon="6.11443">
        <ele>776</ele>
        <time>2021-09-10T11:53:02.800Z</time>
      </trkpt>
      <trkpt lat="45.7453" lon="6.11444">
        <ele>776</ele>
        <time>2021-09-10T11:53:03.800Z</time>
      </trkpt>
      <trkpt lat="45.74532" lon="6.11444">
        <ele>777</ele>
        <time>2021-09-10T11:53:04.799Z</time>
      </trkpt>
      <trkpt lat="45.74534" lon="6.11444">
        <ele>777</ele>
        <time>2021-09-10T11:53:05.799Z</time>
      </trkpt>
      <trkpt lat="45.74536" lon="6.11445">
        <ele>778</ele>
        <time>2021-09-10T11:53:06.800Z</time>
      </trkpt>
      <trkpt lat="45.74538" lon="6.11445">
        <ele>778</ele>
        <time>2021-09-10T11:53:07.800Z</time>
      </trkpt>
      <trkpt lat="45.74541" lon="6.11446">
        <ele>778</ele>
        <time>2021-09-10T11:53:08.799Z</time>
      </trkpt>
      <trkpt lat="45.74543" lon="6.11446">
        <ele>779</ele>
        <time>2021-09-10T11:53:09.799Z</time>
      </trkpt>
      <trkpt lat="45.74545" lon="6.11447">
        <ele>779</ele>
        <time>2021-09-10T11:53:10.799Z</time>
      </trkpt>
      <trkpt lat="45.74547" lon="6.11447">
        <ele>779</ele>
        <time>2021-09-10T11:53:11.799Z</time>
      </trkpt>
      <trkpt lat="45.74549" lon="6.11447">
        <ele>779</ele>
        <time>2021-09-10T11:53:12.800Z</time>
      </trkpt>
      <trkpt lat="45.74551" lon="6.11448">
        <ele>779</ele>
        <time>2021-09-10T11:53:13.799Z</time>
      </trkpt>
      <trkpt lat="45.74553" lon="6.11448">
        <ele>779</ele>
        <time>2021-09-10T11:53:14.800Z</time>
      </trkpt>
      <trkpt lat="45.74555" lon="6.11448">
        <ele>780</ele>
        <time>2021-09-10T11:53:15.800Z</time>
      </trkpt>
      <trkpt lat="45.74557" lon="6.11449">
        <ele>779</ele>
        <time>2021-09-10T11:53:16.799Z</time>
      </trkpt>
      <trkpt lat="45.74559" lon="6.11449">
        <ele>779</ele>
        <time>2021-09-10T11:53:17.799Z</time>
      </trkpt>
      <trkpt lat="45.74561" lon="6.11449">
        <ele>779</ele>
        <time>2021-09-10T11:53:18.800Z</time>
      </trkpt>
      <trkpt lat="45.74563" lon="6.11449">
        <ele>779</ele>
        <time>2021-09-10T11:53:19.800Z</time>
      </trkpt>
      <trkpt lat="45.74565" lon="6.11449">
        <ele>779</ele>
        <time>2021-09-10T11:53:20.800Z</time>
      </trkpt>
      <trkpt lat="45.74567" lon="6.11449">
        <ele>779</ele>
        <time>2021-09-10T11:53:21.800Z</time>
      </trkpt>
      <trkpt lat="45.74569" lon="6.1145">
        <ele>780</ele>
        <time>2021-09-10T11:53:22.800Z</time>
      </trkpt>
      <trkpt lat="45.74571" lon="6.11451">
        <ele>780</ele>
        <time>2021-09-10T11:53:23.800Z</time>
      </trkpt>
      <trkpt lat="45.74574" lon="6.11451">
        <ele>780</ele>
        <time>2021-09-10T11:53:24.799Z</time>
      </trkpt>
      <trkpt lat="45.74576" lon="6.11452">
        <ele>780</ele>
        <time>2021-09-10T11:53:25.800Z</time>
      </trkpt>
      <trkpt lat="45.74579" lon="6.11452">
        <ele>780</ele>
        <time>2021-09-10T11:53:26.800Z</time>
      </trkpt>
      <trkpt lat="45.74581" lon="6.11452">
        <ele>780</ele>
        <time>2021-09-10T11:53:27.800Z</time>
      </trkpt>
      <trkpt lat="45.74583" lon="6.11453">
        <ele>781</ele>
        <time>2021-09-10T11:53:28.799Z</time>
      </trkpt>
      <trkpt lat="45.74585" lon="6.11453">
        <ele>781</ele>
        <time>2021-09-10T11:53:29.800Z</time>
      </trkpt>
      <trkpt lat="45.74587" lon="6.11454">
        <ele>781</ele>
        <time>2021-09-10T11:53:30.800Z</time>
      </trkpt>
      <trkpt lat="45.74589" lon="6.11454">
        <ele>781</ele>
        <time>2021-09-10T11:53:31.800Z</time>
      </trkpt>
      <trkpt lat="45.74591" lon="6.11454">
        <ele>781</ele>
        <time>2021-09-10T11:53:32.800Z</time>
      </trkpt>
      <trkpt lat="45.74593" lon="6.11454">
        <ele>781</ele>
        <time>2021-09-10T11:53:33.799Z</time>
      </trkpt>
      <trkpt lat="45.74595" lon="6.11454">
        <ele>781</ele>
        <time>2021-09-10T11:53:34.800Z</time>
      </trkpt>
      <trkpt lat="45.74597" lon="6.11454">
        <ele>781</ele>
        <time>2021-09-10T11:53:35.800Z</time>
      </trkpt>
      <trkpt lat="45.74598" lon="6.11454">
        <ele>781</ele>
        <time>2021-09-10T11:53:36.800Z</time>
      </trkpt>
      <trkpt lat="45.746" lon="6.11454">
        <ele>781</ele>
        <time>2021-09-10T11:53:37.799Z</time>
      </trkpt>
      <trkpt lat="45.74602" lon="6.11453">
        <ele>781</ele>
        <time>2021-09-10T11:53:38.800Z</time>
      </trkpt>
      <trkpt lat="45.74604" lon="6.11453">
        <ele>780</ele>
        <time>2021-09-10T11:53:39.800Z</time>
      </trkpt>
      <trkpt lat="45.74606" lon="6.11452">
        <ele>780</ele>
        <time>2021-09-10T11:53:40.800Z</time>
      </trkpt>
      <trkpt lat="45.74608" lon="6.11451">
        <ele>780</ele>
        <time>2021-09-10T11:53:41.799Z</time>
      </trkpt>
      <trkpt lat="45.7461" lon="6.1145">
        <ele>780</ele>
        <time>2021-09-10T11:53:42.800Z</time>
      </trkpt>
      <trkpt lat="45.74611" lon="6.11449">
        <ele>780</ele>
        <time>2021-09-10T11:53:43.799Z</time>
      </trkpt>
      <trkpt lat="45.74613" lon="6.11447">
        <ele>781</ele>
        <time>2021-09-10T11:53:44.800Z</time>
      </trkpt>
      <trkpt lat="45.74615" lon="6.11445">
        <ele>781</ele>
        <time>2021-09-10T11:53:45.799Z</time>
      </trkpt>
      <trkpt lat="45.74617" lon="6.11443">
        <ele>781</ele>
        <time>2021-09-10T11:53:46.800Z</time>
      </trkpt>
      <trkpt lat="45.74618" lon="6.11441">
        <ele>781</ele>
        <time>2021-09-10T11:53:47.800Z</time>
      </trkpt>
      <trkpt lat="45.7462" lon="6.11439">
        <ele>781</ele>
        <time>2021-09-10T11:53:48.799Z</time>
      </trkpt>
      <trkpt lat="45.74621" lon="6.11436">
        <ele>780</ele>
        <time>2021-09-10T11:53:49.799Z</time>
      </trkpt>
      <trkpt lat="45.74622" lon="6.11434">
        <ele>780</ele>
        <time>2021-09-10T11:53:50.800Z</time>
      </trkpt>
      <trkpt lat="45.74623" lon="6.11431">
        <ele>780</ele>
        <time>2021-09-10T11:53:51.800Z</time>
      </trkpt>
      <trkpt lat="45.74624" lon="6.11428">
        <ele>780</ele>
        <time>2021-09-10T11:53:52.800Z</time>
      </trkpt>
      <trkpt lat="45.74625" lon="6.11426">
        <ele>781</ele>
        <time>2021-09-10T11:53:53.799Z</time>
      </trkpt>
      <trkpt lat="45.74627" lon="6.11423">
        <ele>781</ele>
        <time>2021-09-10T11:53:54.800Z</time>
      </trkpt>
      <trkpt lat="45.74628" lon="6.11421">
        <ele>781</ele>
        <time>2021-09-10T11:53:55.800Z</time>
      </trkpt>
      <trkpt lat="45.7463" lon="6.11419">
        <ele>782</ele>
        <time>2021-09-10T11:53:56.800Z</time>
      </trkpt>
      <trkpt lat="45.74632" lon="6.11417">
        <ele>782</ele>
        <time>2021-09-10T11:53:57.799Z</time>
      </trkpt>
      <trkpt lat="45.74633" lon="6.11415">
        <ele>782</ele>
        <time>2021-09-10T11:53:58.800Z</time>
      </trkpt>
      <trkpt lat="45.74635" lon="6.11414">
        <ele>783</ele>
        <time>2021-09-10T11:53:59.800Z</time>
      </trkpt>
      <trkpt lat="45.74637" lon="6.11412">
        <ele>783</ele>
        <time>2021-09-10T11:54:00.800Z</time>
      </trkpt>
      <trkpt lat="45.74639" lon="6.11411">
        <ele>783</ele>
        <time>2021-09-10T11:54:01.800Z</time>
      </trkpt>
      <trkpt lat="45.74641" lon="6.11411">
        <ele>784</ele>
        <time>2021-09-10T11:54:02.799Z</time>
      </trkpt>
      <trkpt lat="45.74643" lon="6.1141">
        <ele>784</ele>
        <time>2021-09-10T11:54:03.799Z</time>
      </trkpt>
      <trkpt lat="45.74646" lon="6.11411">
        <ele>784</ele>
        <time>2021-09-10T11:54:04.799Z</time>
      </trkpt>
      <trkpt lat="45.74648" lon="6.11411">
        <ele>784</ele>
        <time>2021-09-10T11:54:05.800Z</time>
      </trkpt>
      <trkpt lat="45.7465" lon="6.11412">
        <ele>784</ele>
        <time>2021-09-10T11:54:06.799Z</time>
      </trkpt>
      <trkpt lat="45.74652" lon="6.11413">
        <ele>784</ele>
        <time>2021-09-10T11:54:07.800Z</time>
      </trkpt>
      <trkpt lat="45.74654" lon="6.11413">
        <ele>783</ele>
        <time>2021-09-10T11:54:08.800Z</time>
      </trkpt>
      <trkpt lat="45.74656" lon="6.11415">
        <ele>783</ele>
        <time>2021-09-10T11:54:09.800Z</time>
      </trkpt>
      <trkpt lat="45.74658" lon="6.11416">
        <ele>783</ele>
        <time>2021-09-10T11:54:10.799Z</time>
      </trkpt>
      <trkpt lat="45.7466" lon="6.11417">
        <ele>782</ele>
        <time>2021-09-10T11:54:11.799Z</time>
      </trkpt>
      <trkpt lat="45.74662" lon="6.11419">
        <ele>782</ele>
        <time>2021-09-10T11:54:12.800Z</time>
      </trkpt>
      <trkpt lat="45.74664" lon="6.1142">
        <ele>783</ele>
        <time>2021-09-10T11:54:13.800Z</time>
      </trkpt>
      <trkpt lat="45.74665" lon="6.11421">
        <ele>783</ele>
        <time>2021-09-10T11:54:14.799Z</time>
      </trkpt>
      <trkpt lat="45.74667" lon="6.11423">
        <ele>783</ele>
        <time>2021-09-10T11:54:15.800Z</time>
      </trkpt>
      <trkpt lat="45.74669" lon="6.11424">
        <ele>783</ele>
        <time>2021-09-10T11:54:16.800Z</time>
      </trkpt>
      <trkpt lat="45.74671" lon="6.11426">
        <ele>784</ele>
        <time>2021-09-10T11:54:17.800Z</time>
      </trkpt>
      <trkpt lat="45.74674" lon="6.11427">
        <ele>785</ele>
        <time>2021-09-10T11:54:18.800Z</time>
      </trkpt>
      <trkpt lat="45.74676" lon="6.11428">
        <ele>785</ele>
        <time>2021-09-10T11:54:19.800Z</time>
      </trkpt>
      <trkpt lat="45.74678" lon="6.11429">
        <ele>786</ele>
        <time>2021-09-10T11:54:20.800Z</time>
      </trkpt>
      <trkpt lat="45.7468" lon="6.1143">
        <ele>786</ele>
        <time>2021-09-10T11:54:21.800Z</time>
      </trkpt>
      <trkpt lat="45.74682" lon="6.11431">
        <ele>786</ele>
        <time>2021-09-10T11:54:22.800Z</time>
      </trkpt>
      <trkpt lat="45.74684" lon="6.11433">
        <ele>787</ele>
        <time>2021-09-10T11:54:23.800Z</time>
      </trkpt>
      <trkpt lat="45.74686" lon="6.11434">
        <ele>787</ele>
        <time>2021-09-10T11:54:24.800Z</time>
      </trkpt>
      <trkpt lat="45.74688" lon="6.11434">
        <ele>787</ele>
        <time>2021-09-10T11:54:25.800Z</time>
      </trkpt>
      <trkpt lat="45.7469" lon="6.11435">
        <ele>787</ele>
        <time>2021-09-10T11:54:26.800Z</time>
      </trkpt>
      <trkpt lat="45.74692" lon="6.11436">
        <ele>787</ele>
        <time>2021-09-10T11:54:27.800Z</time>
      </trkpt>
      <trkpt lat="45.74694" lon="6.11437">
        <ele>788</ele>
        <time>2021-09-10T11:54:28.800Z</time>
      </trkpt>
      <trkpt lat="45.74696" lon="6.11438">
        <ele>788</ele>
        <time>2021-09-10T11:54:29.800Z</time>
      </trkpt>
      <trkpt lat="45.74698" lon="6.11438">
        <ele>788</ele>
        <time>2021-09-10T11:54:30.800Z</time>
      </trkpt>
      <trkpt lat="45.747" lon="6.11439">
        <ele>788</ele>
        <time>2021-09-10T11:54:31.799Z</time>
      </trkpt>
      <trkpt lat="45.74702" lon="6.11439">
        <ele>788</ele>
        <time>2021-09-10T11:54:32.800Z</time>
      </trkpt>
      <trkpt lat="45.74704" lon="6.1144">
        <ele>788</ele>
        <time>2021-09-10T11:54:33.800Z</time>
      </trkpt>
      <trkpt lat="45.74706" lon="6.1144">
        <ele>788</ele>
        <time>2021-09-10T11:54:34.800Z</time>
      </trkpt>
      <trkpt lat="45.74708" lon="6.1144">
        <ele>789</ele>
        <time>2021-09-10T11:54:35.799Z</time>
      </trkpt>
      <trkpt lat="45.7471" lon="6.11441">
        <ele>789</ele>
        <time>2021-09-10T11:54:36.800Z</time>
      </trkpt>
      <trkpt lat="45.74712" lon="6.11441">
        <ele>790</ele>
        <time>2021-09-10T11:54:37.799Z</time>
      </trkpt>
      <trkpt lat="45.74715" lon="6.11441">
        <ele>790</ele>
        <time>2021-09-10T11:54:38.800Z</time>
      </trkpt>
      <trkpt lat="45.74717" lon="6.11441">
        <ele>789</ele>
        <time>2021-09-10T11:54:39.800Z</time>
      </trkpt>
      <trkpt lat="45.74719" lon="6.11441">
        <ele>789</ele>
        <time>2021-09-10T11:54:40.800Z</time>
      </trkpt>
      <trkpt lat="45.74721" lon="6.11441">
        <ele>789</ele>
        <time>2021-09-10T11:54:41.799Z</time>
      </trkpt>
      <trkpt lat="45.74723" lon="6.11441">
        <ele>789</ele>
        <time>2021-09-10T11:54:42.800Z</time>
      </trkpt>
      <trkpt lat="45.74726" lon="6.11441">
        <ele>789</ele>
        <time>2021-09-10T11:54:43.799Z</time>
      </trkpt>
      <trkpt lat="45.74728" lon="6.11441">
        <ele>790</ele>
        <time>2021-09-10T11:54:44.800Z</time>
      </trkpt>
      <trkpt lat="45.7473" lon="6.1144">
        <ele>790</ele>
        <time>2021-09-10T11:54:45.800Z</time>
      </trkpt>
      <trkpt lat="45.74732" lon="6.1144">
        <ele>790</ele>
        <time>2021-09-10T11:54:46.800Z</time>
      </trkpt>
      <trkpt lat="45.74734" lon="6.1144">
        <ele>790</ele>
        <time>2021-09-10T11:54:47.800Z</time>
      </trkpt>
      <trkpt lat="45.74737" lon="6.11441">
        <ele>791</ele>
        <time>2021-09-10T11:54:48.799Z</time>
      </trkpt>
      <trkpt lat="45.74739" lon="6.11441">
        <ele>791</ele>
        <time>2021-09-10T11:54:49.800Z</time>
      </trkpt>
      <trkpt lat="45.74741" lon="6.11441">
        <ele>791</ele>
        <time>2021-09-10T11:54:50.800Z</time>
      </trkpt>
      <trkpt lat="45.74743" lon="6.11441">
        <ele>791</ele>
        <time>2021-09-10T11:54:51.799Z</time>
      </trkpt>
      <trkpt lat="45.74745" lon="6.11441">
        <ele>791</ele>
        <time>2021-09-10T11:54:52.800Z</time>
      </trkpt>
      <trkpt lat="45.74747" lon="6.11441">
        <ele>792</ele>
        <time>2021-09-10T11:54:53.800Z</time>
      </trkpt>
      <trkpt lat="45.74749" lon="6.11441">
        <ele>792</ele>
        <time>2021-09-10T11:54:54.799Z</time>
      </trkpt>
      <trkpt lat="45.74751" lon="6.11441">
        <ele>792</ele>
        <time>2021-09-10T11:54:55.799Z</time>
      </trkpt>
      <trkpt lat="45.74753" lon="6.11441">
        <ele>792</ele>
        <time>2021-09-10T11:54:56.800Z</time>
      </trkpt>
      <trkpt lat="45.74755" lon="6.11441">
        <ele>792</ele>
        <time>2021-09-10T11:54:57.800Z</time>
      </trkpt>
      <trkpt lat="45.74757" lon="6.11442">
        <ele>792</ele>
        <time>2021-09-10T11:54:58.800Z</time>
      </trkpt>
      <trkpt lat="45.74759" lon="6.11442">
        <ele>792</ele>
        <time>2021-09-10T11:54:59.800Z</time>
      </trkpt>
      <trkpt lat="45.74761" lon="6.11442">
        <ele>792</ele>
        <time>2021-09-10T11:55:00.800Z</time>
      </trkpt>
      <trkpt lat="45.74763" lon="6.11442">
        <ele>792</ele>
        <time>2021-09-10T11:55:01.799Z</time>
      </trkpt>
      <trkpt lat="45.74765" lon="6.11442">
        <ele>793</ele>
        <time>2021-09-10T11:55:02.800Z</time>
      </trkpt>
      <trkpt lat="45.74767" lon="6.11442">
        <ele>793</ele>
        <time>2021-09-10T11:55:03.800Z</time>
      </trkpt>
      <trkpt lat="45.74769" lon="6.11442">
        <ele>793</ele>
        <time>2021-09-10T11:55:04.800Z</time>
      </trkpt>
      <trkpt lat="45.74771" lon="6.11442">
        <ele>793</ele>
        <time>2021-09-10T11:55:05.799Z</time>
      </trkpt>
      <trkpt lat="45.74773" lon="6.11442">
        <ele>793</ele>
        <time>2021-09-10T11:55:06.800Z</time>
      </trkpt>
      <trkpt lat="45.74776" lon="6.11442">
        <ele>794</ele>
        <time>2021-09-10T11:55:07.800Z</time>
      </trkpt>
      <trkpt lat="45.74778" lon="6.11442">
        <ele>794</ele>
        <time>2021-09-10T11:55:08.799Z</time>
      </trkpt>
      <trkpt lat="45.7478" lon="6.11442">
        <ele>794</ele>
        <time>2021-09-10T11:55:09.800Z</time>
      </trkpt>
      <trkpt lat="45.74782" lon="6.11442">
        <ele>794</ele>
        <time>2021-09-10T11:55:10.800Z</time>
      </trkpt>
      <trkpt lat="45.74784" lon="6.11442">
        <ele>794</ele>
        <time>2021-09-10T11:55:11.800Z</time>
      </trkpt>
      <trkpt lat="45.74787" lon="6.11442">
        <ele>795</ele>
        <time>2021-09-10T11:55:12.799Z</time>
      </trkpt>
      <trkpt lat="45.74789" lon="6.11442">
        <ele>795</ele>
        <time>2021-09-10T11:55:13.799Z</time>
      </trkpt>
      <trkpt lat="45.74791" lon="6.11442">
        <ele>796</ele>
        <time>2021-09-10T11:55:14.800Z</time>
      </trkpt>
      <trkpt lat="45.74793" lon="6.11442">
        <ele>796</ele>
        <time>2021-09-10T11:55:15.799Z</time>
      </trkpt>
      <trkpt lat="45.74795" lon="6.11442">
        <ele>796</ele>
        <time>2021-09-10T11:55:16.800Z</time>
      </trkpt>
      <trkpt lat="45.74797" lon="6.11441">
        <ele>796</ele>
        <time>2021-09-10T11:59:20.913Z</time>
      </trkpt>
      <trkpt lat="45.74799" lon="6.11441">
        <ele>796</ele>
        <time>2021-09-10T11:59:21.913Z</time>
      </trkpt>
      <trkpt lat="45.74802" lon="6.11441">
        <ele>796</ele>
        <time>2021-09-10T11:59:23.776Z</time>
      </trkpt>
      <trkpt lat="45.74804" lon="6.1144">
        <ele>796</ele>
        <time>2021-09-10T11:59:24.776Z</time>
      </trkpt>
      <trkpt lat="45.74806" lon="6.1144">
        <ele>797</ele>
        <time>2021-09-10T11:59:25.775Z</time>
      </trkpt>
      <trkpt lat="45.74808" lon="6.1144">
        <ele>796</ele>
        <time>2021-09-10T11:59:27.896Z</time>
      </trkpt>
      <trkpt lat="45.7481" lon="6.1144">
        <ele>796</ele>
        <time>2021-09-10T11:59:28.896Z</time>
      </trkpt>
      <trkpt lat="45.74812" lon="6.11439">
        <ele>796</ele>
        <time>2021-09-10T11:59:29.895Z</time>
      </trkpt>
      <trkpt lat="45.74815" lon="6.11439">
        <ele>797</ele>
        <time>2021-09-10T11:59:30.896Z</time>
      </trkpt>
      <trkpt lat="45.74817" lon="6.11438">
        <ele>797</ele>
        <time>2021-09-10T11:59:31.896Z</time>
      </trkpt>
      <trkpt lat="45.74819" lon="6.11438">
        <ele>797</ele>
        <time>2021-09-10T11:59:32.896Z</time>
      </trkpt>
      <trkpt lat="45.74821" lon="6.11437">
        <ele>797</ele>
        <time>2021-09-10T11:59:33.896Z</time>
      </trkpt>
      <trkpt lat="45.74823" lon="6.11436">
        <ele>797</ele>
        <time>2021-09-10T11:59:34.896Z</time>
      </trkpt>
      <trkpt lat="45.74825" lon="6.11436">
        <ele>797</ele>
        <time>2021-09-10T11:59:35.895Z</time>
      </trkpt>
      <trkpt lat="45.74827" lon="6.11435">
        <ele>798</ele>
        <time>2021-09-10T11:59:36.896Z</time>
      </trkpt>
      <trkpt lat="45.74829" lon="6.11434">
        <ele>798</ele>
        <time>2021-09-10T11:59:37.896Z</time>
      </trkpt>
      <trkpt lat="45.74831" lon="6.11434">
        <ele>798</ele>
        <time>2021-09-10T11:59:38.895Z</time>
      </trkpt>
      <trkpt lat="45.74833" lon="6.11433">
        <ele>799</ele>
        <time>2021-09-10T11:59:39.896Z</time>
      </trkpt>
      <trkpt lat="45.74835" lon="6.11432">
        <ele>799</ele>
        <time>2021-09-10T11:59:40.895Z</time>
      </trkpt>
      <trkpt lat="45.74836" lon="6.11432">
        <ele>799</ele>
        <time>2021-09-10T11:59:41.896Z</time>
      </trkpt>
      <trkpt lat="45.74839" lon="6.11431">
        <ele>799</ele>
        <time>2021-09-10T11:59:42.895Z</time>
      </trkpt>
      <trkpt lat="45.74841" lon="6.11431">
        <ele>800</ele>
        <time>2021-09-10T11:59:43.896Z</time>
      </trkpt>
      <trkpt lat="45.74843" lon="6.1143">
        <ele>801</ele>
        <time>2021-09-10T11:59:44.895Z</time>
      </trkpt>
      <trkpt lat="45.74846" lon="6.1143">
        <ele>801</ele>
        <time>2021-09-10T11:59:45.896Z</time>
      </trkpt>
      <trkpt lat="45.74848" lon="6.11429">
        <ele>802</ele>
        <time>2021-09-10T11:59:46.895Z</time>
      </trkpt>
      <trkpt lat="45.7485" lon="6.11429">
        <ele>802</ele>
        <time>2021-09-10T11:59:47.895Z</time>
      </trkpt>
      <trkpt lat="45.74852" lon="6.11428">
        <ele>802</ele>
        <time>2021-09-10T11:59:48.895Z</time>
      </trkpt>
      <trkpt lat="45.74854" lon="6.11427">
        <ele>802</ele>
        <time>2021-09-10T11:59:49.896Z</time>
      </trkpt>
      <trkpt lat="45.74856" lon="6.11427">
        <ele>801</ele>
        <time>2021-09-10T11:59:50.896Z</time>
      </trkpt>
      <trkpt lat="45.74859" lon="6.11426">
        <ele>801</ele>
        <time>2021-09-10T11:59:51.895Z</time>
      </trkpt>
      <trkpt lat="45.74861" lon="6.11426">
        <ele>801</ele>
        <time>2021-09-10T11:59:52.895Z</time>
      </trkpt>
      <trkpt lat="45.74863" lon="6.11425">
        <ele>802</ele>
        <time>2021-09-10T11:59:53.896Z</time>
      </trkpt>
      <trkpt lat="45.74865" lon="6.11424">
        <ele>802</ele>
        <time>2021-09-10T11:59:54.895Z</time>
      </trkpt>
      <trkpt lat="45.74867" lon="6.11424">
        <ele>802</ele>
        <time>2021-09-10T11:59:55.896Z</time>
      </trkpt>
      <trkpt lat="45.74869" lon="6.11423">
        <ele>802</ele>
        <time>2021-09-10T11:59:56.896Z</time>
      </trkpt>
      <trkpt lat="45.74872" lon="6.11423">
        <ele>802</ele>
        <time>2021-09-10T11:59:57.896Z</time>
      </trkpt>
      <trkpt lat="45.74874" lon="6.11422">
        <ele>802</ele>
        <time>2021-09-10T11:59:58.895Z</time>
      </trkpt>
      <trkpt lat="45.74876" lon="6.11422">
        <ele>802</ele>
        <time>2021-09-10T11:59:59.896Z</time>
      </trkpt>
      <trkpt lat="45.74879" lon="6.11421">
        <ele>802</ele>
        <time>2021-09-10T12:00:00.896Z</time>
      </trkpt>
      <trkpt lat="45.74881" lon="6.11421">
        <ele>802</ele>
        <time>2021-09-10T12:00:01.895Z</time>
      </trkpt>
      <trkpt lat="45.74883" lon="6.1142">
        <ele>801</ele>
        <time>2021-09-10T12:00:02.896Z</time>
      </trkpt>
      <trkpt lat="45.74886" lon="6.11419">
        <ele>801</ele>
        <time>2021-09-10T12:00:03.896Z</time>
      </trkpt>
      <trkpt lat="45.74888" lon="6.11419">
        <ele>800</ele>
        <time>2021-09-10T12:00:04.896Z</time>
      </trkpt>
      <trkpt lat="45.7489" lon="6.11418">
        <ele>800</ele>
        <time>2021-09-10T12:00:05.896Z</time>
      </trkpt>
      <trkpt lat="45.74893" lon="6.11418">
        <ele>800</ele>
        <time>2021-09-10T12:00:06.896Z</time>
      </trkpt>
      <trkpt lat="45.74895" lon="6.11417">
        <ele>800</ele>
        <time>2021-09-10T12:00:07.895Z</time>
      </trkpt>
      <trkpt lat="45.74897" lon="6.11417">
        <ele>800</ele>
        <time>2021-09-10T12:00:08.896Z</time>
      </trkpt>
      <trkpt lat="45.749" lon="6.11417">
        <ele>800</ele>
        <time>2021-09-10T12:00:09.895Z</time>
      </trkpt>
      <trkpt lat="45.74902" lon="6.11417">
        <ele>800</ele>
        <time>2021-09-10T12:00:10.895Z</time>
      </trkpt>
      <trkpt lat="45.74905" lon="6.11417">
        <ele>801</ele>
        <time>2021-09-10T12:00:11.895Z</time>
      </trkpt>
      <trkpt lat="45.74908" lon="6.11417">
        <ele>801</ele>
        <time>2021-09-10T12:00:12.896Z</time>
      </trkpt>
      <trkpt lat="45.7491" lon="6.11416">
        <ele>802</ele>
        <time>2021-09-10T12:00:13.896Z</time>
      </trkpt>
      <trkpt lat="45.74913" lon="6.11416">
        <ele>802</ele>
        <time>2021-09-10T12:00:14.896Z</time>
      </trkpt>
      <trkpt lat="45.74916" lon="6.11417">
        <ele>802</ele>
        <time>2021-09-10T12:00:15.895Z</time>
      </trkpt>
      <trkpt lat="45.74918" lon="6.11417">
        <ele>802</ele>
        <time>2021-09-10T12:00:16.895Z</time>
      </trkpt>
      <trkpt lat="45.74921" lon="6.11417">
        <ele>801</ele>
        <time>2021-09-10T12:00:17.896Z</time>
      </trkpt>
      <trkpt lat="45.74923" lon="6.11418">
        <ele>802</ele>
        <time>2021-09-10T12:00:18.896Z</time>
      </trkpt>
      <trkpt lat="45.74926" lon="6.11418">
        <ele>801</ele>
        <time>2021-09-10T12:00:19.895Z</time>
      </trkpt>
      <trkpt lat="45.74929" lon="6.11419">
        <ele>801</ele>
        <time>2021-09-10T12:00:20.896Z</time>
      </trkpt>
      <trkpt lat="45.74932" lon="6.1142">
        <ele>801</ele>
        <time>2021-09-10T12:00:21.895Z</time>
      </trkpt>
      <trkpt lat="45.74934" lon="6.11421">
        <ele>801</ele>
        <time>2021-09-10T12:00:22.895Z</time>
      </trkpt>
      <trkpt lat="45.74937" lon="6.11421">
        <ele>801</ele>
        <time>2021-09-10T12:00:23.896Z</time>
      </trkpt>
      <trkpt lat="45.7494" lon="6.11422">
        <ele>801</ele>
        <time>2021-09-10T12:00:24.896Z</time>
      </trkpt>
      <trkpt lat="45.74943" lon="6.11423">
        <ele>801</ele>
        <time>2021-09-10T12:00:25.896Z</time>
      </trkpt>
      <trkpt lat="45.74946" lon="6.11424">
        <ele>802</ele>
        <time>2021-09-10T12:00:26.896Z</time>
      </trkpt>
      <trkpt lat="45.74949" lon="6.11424">
        <ele>803</ele>
        <time>2021-09-10T12:00:27.895Z</time>
      </trkpt>
      <trkpt lat="45.74952" lon="6.11425">
        <ele>803</ele>
        <time>2021-09-10T12:00:28.896Z</time>
      </trkpt>
      <trkpt lat="45.74955" lon="6.11425">
        <ele>803</ele>
        <time>2021-09-10T12:00:29.896Z</time>
      </trkpt>
      <trkpt lat="45.74958" lon="6.11426">
        <ele>803</ele>
        <time>2021-09-10T12:00:30.896Z</time>
      </trkpt>
      <trkpt lat="45.74961" lon="6.11427">
        <ele>802</ele>
        <time>2021-09-10T12:00:31.896Z</time>
      </trkpt>
      <trkpt lat="45.74964" lon="6.11428">
        <ele>802</ele>
        <time>2021-09-10T12:00:32.895Z</time>
      </trkpt>
      <trkpt lat="45.74967" lon="6.11429">
        <ele>802</ele>
        <time>2021-09-10T12:00:33.895Z</time>
      </trkpt>
      <trkpt lat="45.7497" lon="6.1143">
        <ele>802</ele>
        <time>2021-09-10T12:00:34.896Z</time>
      </trkpt>
      <trkpt lat="45.74973" lon="6.11431">
        <ele>802</ele>
        <time>2021-09-10T12:00:35.896Z</time>
      </trkpt>
      <trkpt lat="45.74976" lon="6.11432">
        <ele>801</ele>
        <time>2021-09-10T12:00:36.895Z</time>
      </trkpt>
      <trkpt lat="45.74979" lon="6.11433">
        <ele>801</ele>
        <time>2021-09-10T12:00:37.896Z</time>
      </trkpt>
      <trkpt lat="45.74982" lon="6.11434">
        <ele>801</ele>
        <time>2021-09-10T12:00:38.895Z</time>
      </trkpt>
      <trkpt lat="45.74985" lon="6.11434">
        <ele>802</ele>
        <time>2021-09-10T12:00:39.896Z</time>
      </trkpt>
      <trkpt lat="45.74988" lon="6.11435">
        <ele>802</ele>
        <time>2021-09-10T12:00:40.895Z</time>
      </trkpt>
      <trkpt lat="45.74991" lon="6.11436">
        <ele>803</ele>
        <time>2021-09-10T12:00:41.896Z</time>
      </trkpt>
      <trkpt lat="45.74994" lon="6.11436">
        <ele>804</ele>
        <time>2021-09-10T12:00:42.895Z</time>
      </trkpt>
      <trkpt lat="45.74997" lon="6.11437">
        <ele>805</ele>
        <time>2021-09-10T12:00:43.895Z</time>
      </trkpt>
      <trkpt lat="45.74999" lon="6.11438">
        <ele>806</ele>
        <time>2021-09-10T12:00:44.895Z</time>
      </trkpt>
      <trkpt lat="45.75003" lon="6.11439">
        <ele>807</ele>
        <time>2021-09-10T12:00:45.896Z</time>
      </trkpt>
      <trkpt lat="45.75006" lon="6.1144">
        <ele>807</ele>
        <time>2021-09-10T12:00:46.896Z</time>
      </trkpt>
      <trkpt lat="45.75008" lon="6.11441">
        <ele>807</ele>
        <time>2021-09-10T12:00:47.896Z</time>
      </trkpt>
      <trkpt lat="45.75011" lon="6.11442">
        <ele>808</ele>
        <time>2021-09-10T12:00:48.896Z</time>
      </trkpt>
      <trkpt lat="45.75014" lon="6.11443">
        <ele>808</ele>
        <time>2021-09-10T12:00:49.896Z</time>
      </trkpt>
      <trkpt lat="45.75017" lon="6.11444">
        <ele>808</ele>
        <time>2021-09-10T12:00:50.896Z</time>
      </trkpt>
      <trkpt lat="45.7502" lon="6.11445">
        <ele>808</ele>
        <time>2021-09-10T12:00:51.896Z</time>
      </trkpt>
      <trkpt lat="45.75023" lon="6.11446">
        <ele>808</ele>
        <time>2021-09-10T12:00:52.896Z</time>
      </trkpt>
      <trkpt lat="45.75026" lon="6.11446">
        <ele>808</ele>
        <time>2021-09-10T12:00:53.896Z</time>
      </trkpt>
      <trkpt lat="45.75029" lon="6.11447">
        <ele>808</ele>
        <time>2021-09-10T12:00:54.895Z</time>
      </trkpt>
      <trkpt lat="45.75033" lon="6.11448">
        <ele>808</ele>
        <time>2021-09-10T12:00:55.896Z</time>
      </trkpt>
      <trkpt lat="45.75036" lon="6.11448">
        <ele>808</ele>
        <time>2021-09-10T12:00:56.895Z</time>
      </trkpt>
      <trkpt lat="45.75038" lon="6.11449">
        <ele>808</ele>
        <time>2021-09-10T12:00:57.896Z</time>
      </trkpt>
      <trkpt lat="45.75041" lon="6.1145">
        <ele>808</ele>
        <time>2021-09-10T12:00:58.895Z</time>
      </trkpt>
      <trkpt lat="45.75044" lon="6.11451">
        <ele>808</ele>
        <time>2021-09-10T12:00:59.896Z</time>
      </trkpt>
      <trkpt lat="45.75047" lon="6.11452">
        <ele>808</ele>
        <time>2021-09-10T12:01:00.895Z</time>
      </trkpt>
      <trkpt lat="45.7505" lon="6.11454">
        <ele>808</ele>
        <time>2021-09-10T12:01:01.896Z</time>
      </trkpt>
      <trkpt lat="45.75053" lon="6.11455">
        <ele>809</ele>
        <time>2021-09-10T12:01:02.895Z</time>
      </trkpt>
      <trkpt lat="45.75057" lon="6.11456">
        <ele>809</ele>
        <time>2021-09-10T12:01:03.896Z</time>
      </trkpt>
      <trkpt lat="45.75059" lon="6.11458">
        <ele>810</ele>
        <time>2021-09-10T12:01:04.895Z</time>
      </trkpt>
      <trkpt lat="45.75063" lon="6.11458">
        <ele>810</ele>
        <time>2021-09-10T12:01:05.896Z</time>
      </trkpt>
      <trkpt lat="45.75066" lon="6.1146">
        <ele>811</ele>
        <time>2021-09-10T12:01:06.895Z</time>
      </trkpt>
      <trkpt lat="45.75069" lon="6.11462">
        <ele>811</ele>
        <time>2021-09-10T12:01:07.896Z</time>
      </trkpt>
      <trkpt lat="45.75073" lon="6.11463">
        <ele>811</ele>
        <time>2021-09-10T12:01:08.896Z</time>
      </trkpt>
      <trkpt lat="45.75076" lon="6.11464">
        <ele>811</ele>
        <time>2021-09-10T12:01:09.895Z</time>
      </trkpt>
      <trkpt lat="45.7508" lon="6.11465">
        <ele>811</ele>
        <time>2021-09-10T12:01:10.896Z</time>
      </trkpt>
      <trkpt lat="45.75084" lon="6.11466">
        <ele>811</ele>
        <time>2021-09-10T12:01:11.896Z</time>
      </trkpt>
      <trkpt lat="45.75087" lon="6.11468">
        <ele>811</ele>
        <time>2021-09-10T12:01:12.896Z</time>
      </trkpt>
      <trkpt lat="45.75091" lon="6.1147">
        <ele>811</ele>
        <time>2021-09-10T12:01:13.895Z</time>
      </trkpt>
      <trkpt lat="45.75094" lon="6.11471">
        <ele>810</ele>
        <time>2021-09-10T12:01:14.896Z</time>
      </trkpt>
      <trkpt lat="45.75098" lon="6.11472">
        <ele>810</ele>
        <time>2021-09-10T12:01:15.896Z</time>
      </trkpt>
      <trkpt lat="45.75101" lon="6.11474">
        <ele>810</ele>
        <time>2021-09-10T12:01:16.896Z</time>
      </trkpt>
      <trkpt lat="45.75105" lon="6.11475">
        <ele>810</ele>
        <time>2021-09-10T12:01:17.895Z</time>
      </trkpt>
      <trkpt lat="45.75108" lon="6.11477">
        <ele>810</ele>
        <time>2021-09-10T12:01:18.896Z</time>
      </trkpt>
      <trkpt lat="45.75111" lon="6.11479">
        <ele>810</ele>
        <time>2021-09-10T12:01:19.896Z</time>
      </trkpt>
      <trkpt lat="45.75115" lon="6.11481">
        <ele>809</ele>
        <time>2021-09-10T12:01:20.895Z</time>
      </trkpt>
      <trkpt lat="45.75118" lon="6.11483">
        <ele>809</ele>
        <time>2021-09-10T12:01:21.895Z</time>
      </trkpt>
      <trkpt lat="45.75121" lon="6.11485">
        <ele>808</ele>
        <time>2021-09-10T12:01:22.895Z</time>
      </trkpt>
      <trkpt lat="45.75124" lon="6.11487">
        <ele>808</ele>
        <time>2021-09-10T12:01:23.895Z</time>
      </trkpt>
      <trkpt lat="45.75127" lon="6.11489">
        <ele>807</ele>
        <time>2021-09-10T12:01:24.895Z</time>
      </trkpt>
      <trkpt lat="45.75131" lon="6.11491">
        <ele>807</ele>
        <time>2021-09-10T12:01:25.895Z</time>
      </trkpt>
      <trkpt lat="45.75134" lon="6.11492">
        <ele>807</ele>
        <time>2021-09-10T12:01:26.896Z</time>
      </trkpt>
      <trkpt lat="45.75138" lon="6.11493">
        <ele>807</ele>
        <time>2021-09-10T12:01:27.895Z</time>
      </trkpt>
      <trkpt lat="45.75141" lon="6.11495">
        <ele>807</ele>
        <time>2021-09-10T12:01:28.896Z</time>
      </trkpt>
      <trkpt lat="45.75145" lon="6.11496">
        <ele>808</ele>
        <time>2021-09-10T12:01:29.895Z</time>
      </trkpt>
      <trkpt lat="45.75148" lon="6.11497">
        <ele>809</ele>
        <time>2021-09-10T12:01:30.896Z</time>
      </trkpt>
      <trkpt lat="45.75151" lon="6.11499">
        <ele>809</ele>
        <time>2021-09-10T12:01:31.896Z</time>
      </trkpt>
      <trkpt lat="45.75155" lon="6.11501">
        <ele>809</ele>
        <time>2021-09-10T12:01:32.895Z</time>
      </trkpt>
      <trkpt lat="45.75158" lon="6.11503">
        <ele>809</ele>
        <time>2021-09-10T12:01:33.895Z</time>
      </trkpt>
      <trkpt lat="45.75161" lon="6.11505">
        <ele>809</ele>
        <time>2021-09-10T12:01:34.895Z</time>
      </trkpt>
      <trkpt lat="45.75164" lon="6.11508">
        <ele>808</ele>
        <time>2021-09-10T12:01:35.895Z</time>
      </trkpt>
      <trkpt lat="45.75168" lon="6.11511">
        <ele>808</ele>
        <time>2021-09-10T12:01:36.895Z</time>
      </trkpt>
      <trkpt lat="45.75171" lon="6.11512">
        <ele>808</ele>
        <time>2021-09-10T12:01:37.895Z</time>
      </trkpt>
      <trkpt lat="45.75174" lon="6.11513">
        <ele>808</ele>
        <time>2021-09-10T12:01:38.895Z</time>
      </trkpt>
      <trkpt lat="45.75178" lon="6.11515">
        <ele>808</ele>
        <time>2021-09-10T12:01:39.896Z</time>
      </trkpt>
      <trkpt lat="45.75181" lon="6.11517">
        <ele>808</ele>
        <time>2021-09-10T12:01:40.896Z</time>
      </trkpt>
      <trkpt lat="45.75184" lon="6.11519">
        <ele>808</ele>
        <time>2021-09-10T12:01:41.896Z</time>
      </trkpt>
      <trkpt lat="45.75187" lon="6.11521">
        <ele>808</ele>
        <time>2021-09-10T12:01:42.895Z</time>
      </trkpt>
      <trkpt lat="45.7519" lon="6.11522">
        <ele>808</ele>
        <time>2021-09-10T12:01:43.895Z</time>
      </trkpt>
      <trkpt lat="45.75193" lon="6.11524">
        <ele>808</ele>
        <time>2021-09-10T12:01:44.895Z</time>
      </trkpt>
      <trkpt lat="45.75196" lon="6.11526">
        <ele>808</ele>
        <time>2021-09-10T12:01:45.895Z</time>
      </trkpt>
      <trkpt lat="45.75199" lon="6.11527">
        <ele>808</ele>
        <time>2021-09-10T12:01:46.895Z</time>
      </trkpt>
      <trkpt lat="45.75202" lon="6.11529">
        <ele>808</ele>
        <time>2021-09-10T12:01:47.895Z</time>
      </trkpt>
      <trkpt lat="45.75205" lon="6.11531">
        <ele>808</ele>
        <time>2021-09-10T12:01:48.895Z</time>
      </trkpt>
      <trkpt lat="45.75207" lon="6.11532">
        <ele>808</ele>
        <time>2021-09-10T12:01:49.895Z</time>
      </trkpt>
      <trkpt lat="45.7521" lon="6.11534">
        <ele>808</ele>
        <time>2021-09-10T12:01:50.896Z</time>
      </trkpt>
      <trkpt lat="45.75213" lon="6.11536">
        <ele>809</ele>
        <time>2021-09-10T12:01:51.896Z</time>
      </trkpt>
      <trkpt lat="45.75216" lon="6.11538">
        <ele>809</ele>
        <time>2021-09-10T12:01:52.895Z</time>
      </trkpt>
      <trkpt lat="45.75219" lon="6.11539">
        <ele>808</ele>
        <time>2021-09-10T12:01:53.895Z</time>
      </trkpt>
      <trkpt lat="45.75223" lon="6.11541">
        <ele>808</ele>
        <time>2021-09-10T12:01:54.895Z</time>
      </trkpt>
      <trkpt lat="45.75226" lon="6.11542">
        <ele>808</ele>
        <time>2021-09-10T12:01:55.896Z</time>
      </trkpt>
      <trkpt lat="45.75229" lon="6.11544">
        <ele>807</ele>
        <time>2021-09-10T12:01:56.896Z</time>
      </trkpt>
      <trkpt lat="45.75232" lon="6.11546">
        <ele>808</ele>
        <time>2021-09-10T12:01:57.896Z</time>
      </trkpt>
      <trkpt lat="45.75236" lon="6.11547">
        <ele>808</ele>
        <time>2021-09-10T12:01:58.896Z</time>
      </trkpt>
      <trkpt lat="45.75239" lon="6.11549">
        <ele>808</ele>
        <time>2021-09-10T12:01:59.896Z</time>
      </trkpt>
      <trkpt lat="45.75242" lon="6.11551">
        <ele>809</ele>
        <time>2021-09-10T12:02:00.896Z</time>
      </trkpt>
      <trkpt lat="45.75246" lon="6.11552">
        <ele>809</ele>
        <time>2021-09-10T12:02:01.896Z</time>
      </trkpt>
      <trkpt lat="45.75249" lon="6.11555">
        <ele>810</ele>
        <time>2021-09-10T12:02:02.895Z</time>
      </trkpt>
      <trkpt lat="45.75252" lon="6.11557">
        <ele>810</ele>
        <time>2021-09-10T12:02:03.896Z</time>
      </trkpt>
      <trkpt lat="45.75255" lon="6.11558">
        <ele>810</ele>
        <time>2021-09-10T12:02:04.895Z</time>
      </trkpt>
      <trkpt lat="45.75258" lon="6.1156">
        <ele>811</ele>
        <time>2021-09-10T12:02:05.896Z</time>
      </trkpt>
      <trkpt lat="45.75261" lon="6.11562">
        <ele>811</ele>
        <time>2021-09-10T12:02:06.896Z</time>
      </trkpt>
      <trkpt lat="45.75264" lon="6.11564">
        <ele>811</ele>
        <time>2021-09-10T12:02:07.896Z</time>
      </trkpt>
      <trkpt lat="45.75267" lon="6.11566">
        <ele>811</ele>
        <time>2021-09-10T12:02:08.895Z</time>
      </trkpt>
      <trkpt lat="45.7527" lon="6.11568">
        <ele>811</ele>
        <time>2021-09-10T12:02:09.896Z</time>
      </trkpt>
      <trkpt lat="45.75273" lon="6.1157">
        <ele>811</ele>
        <time>2021-09-10T12:02:10.896Z</time>
      </trkpt>
      <trkpt lat="45.75276" lon="6.11571">
        <ele>812</ele>
        <time>2021-09-10T12:02:11.895Z</time>
      </trkpt>
      <trkpt lat="45.75279" lon="6.11573">
        <ele>812</ele>
        <time>2021-09-10T12:02:12.895Z</time>
      </trkpt>
      <trkpt lat="45.75282" lon="6.11574">
        <ele>812</ele>
        <time>2021-09-10T12:02:13.896Z</time>
      </trkpt>
      <trkpt lat="45.75286" lon="6.11576">
        <ele>812</ele>
        <time>2021-09-10T12:02:14.895Z</time>
      </trkpt>
      <trkpt lat="45.75289" lon="6.11577">
        <ele>812</ele>
        <time>2021-09-10T12:02:15.896Z</time>
      </trkpt>
      <trkpt lat="45.75292" lon="6.11579">
        <ele>813</ele>
        <time>2021-09-10T12:02:16.895Z</time>
      </trkpt>
      <trkpt lat="45.75296" lon="6.11581">
        <ele>813</ele>
        <time>2021-09-10T12:02:17.895Z</time>
      </trkpt>
      <trkpt lat="45.75299" lon="6.11582">
        <ele>814</ele>
        <time>2021-09-10T12:02:18.896Z</time>
      </trkpt>
      <trkpt lat="45.75302" lon="6.11584">
        <ele>814</ele>
        <time>2021-09-10T12:02:19.895Z</time>
      </trkpt>
      <trkpt lat="45.75305" lon="6.11585">
        <ele>814</ele>
        <time>2021-09-10T12:02:20.895Z</time>
      </trkpt>
      <trkpt lat="45.75308" lon="6.11587">
        <ele>815</ele>
        <time>2021-09-10T12:02:21.895Z</time>
      </trkpt>
      <trkpt lat="45.75311" lon="6.11588">
        <ele>815</ele>
        <time>2021-09-10T12:02:22.895Z</time>
      </trkpt>
      <trkpt lat="45.75314" lon="6.1159">
        <ele>816</ele>
        <time>2021-09-10T12:02:23.896Z</time>
      </trkpt>
      <trkpt lat="45.75317" lon="6.11591">
        <ele>816</ele>
        <time>2021-09-10T12:02:24.895Z</time>
      </trkpt>
      <trkpt lat="45.75321" lon="6.11593">
        <ele>816</ele>
        <time>2021-09-10T12:02:25.896Z</time>
      </trkpt>
      <trkpt lat="45.75324" lon="6.11594">
        <ele>817</ele>
        <time>2021-09-10T12:02:26.895Z</time>
      </trkpt>
      <trkpt lat="45.75328" lon="6.11595">
        <ele>817</ele>
        <time>2021-09-10T12:02:27.895Z</time>
      </trkpt>
      <trkpt lat="45.75331" lon="6.11597">
        <ele>817</ele>
        <time>2021-09-10T12:02:28.895Z</time>
      </trkpt>
      <trkpt lat="45.75334" lon="6.11598">
        <ele>817</ele>
        <time>2021-09-10T12:02:29.895Z</time>
      </trkpt>
      <trkpt lat="45.75338" lon="6.11599">
        <ele>818</ele>
        <time>2021-09-10T12:02:30.895Z</time>
      </trkpt>
      <trkpt lat="45.75341" lon="6.116">
        <ele>818</ele>
        <time>2021-09-10T12:02:31.895Z</time>
      </trkpt>
      <trkpt lat="45.75345" lon="6.11602">
        <ele>819</ele>
        <time>2021-09-10T12:02:32.896Z</time>
      </trkpt>
      <trkpt lat="45.75348" lon="6.11603">
        <ele>819</ele>
        <time>2021-09-10T12:02:33.895Z</time>
      </trkpt>
      <trkpt lat="45.75351" lon="6.11605">
        <ele>819</ele>
        <time>2021-09-10T12:02:34.896Z</time>
      </trkpt>
      <trkpt lat="45.75354" lon="6.11606">
        <ele>820</ele>
        <time>2021-09-10T12:02:35.895Z</time>
      </trkpt>
      <trkpt lat="45.75356" lon="6.11608">
        <ele>820</ele>
        <time>2021-09-10T12:02:36.895Z</time>
      </trkpt>
      <trkpt lat="45.75359" lon="6.11609">
        <ele>820</ele>
        <time>2021-09-10T12:02:37.895Z</time>
      </trkpt>
      <trkpt lat="45.75362" lon="6.11611">
        <ele>820</ele>
        <time>2021-09-10T12:02:38.896Z</time>
      </trkpt>
      <trkpt lat="45.75365" lon="6.11613">
        <ele>820</ele>
        <time>2021-09-10T12:02:39.896Z</time>
      </trkpt>
      <trkpt lat="45.75369" lon="6.11614">
        <ele>820</ele>
        <time>2021-09-10T12:02:40.895Z</time>
      </trkpt>
      <trkpt lat="45.75372" lon="6.11617">
        <ele>820</ele>
        <time>2021-09-10T12:02:41.895Z</time>
      </trkpt>
      <trkpt lat="45.75376" lon="6.11618">
        <ele>820</ele>
        <time>2021-09-10T12:02:42.895Z</time>
      </trkpt>
      <trkpt lat="45.75379" lon="6.11619">
        <ele>820</ele>
        <time>2021-09-10T12:02:43.895Z</time>
      </trkpt>
      <trkpt lat="45.75382" lon="6.11622">
        <ele>819</ele>
        <time>2021-09-10T12:02:44.896Z</time>
      </trkpt>
      <trkpt lat="45.75385" lon="6.11624">
        <ele>819</ele>
        <time>2021-09-10T12:02:45.895Z</time>
      </trkpt>
      <trkpt lat="45.75389" lon="6.11626">
        <ele>820</ele>
        <time>2021-09-10T12:02:46.895Z</time>
      </trkpt>
      <trkpt lat="45.75392" lon="6.11627">
        <ele>821</ele>
        <time>2021-09-10T12:02:47.896Z</time>
      </trkpt>
      <trkpt lat="45.75396" lon="6.11629">
        <ele>821</ele>
        <time>2021-09-10T12:02:48.896Z</time>
      </trkpt>
      <trkpt lat="45.75399" lon="6.11631">
        <ele>822</ele>
        <time>2021-09-10T12:02:49.896Z</time>
      </trkpt>
      <trkpt lat="45.75402" lon="6.11632">
        <ele>822</ele>
        <time>2021-09-10T12:02:50.895Z</time>
      </trkpt>
      <trkpt lat="45.75405" lon="6.11633">
        <ele>823</ele>
        <time>2021-09-10T12:02:51.895Z</time>
      </trkpt>
      <trkpt lat="45.75409" lon="6.11634">
        <ele>823</ele>
        <time>2021-09-10T12:02:52.896Z</time>
      </trkpt>
      <trkpt lat="45.75412" lon="6.11636">
        <ele>822</ele>
        <time>2021-09-10T12:02:55.917Z</time>
      </trkpt>
      <trkpt lat="45.75415" lon="6.11637">
        <ele>821</ele>
        <time>2021-09-10T12:04:08.802Z</time>
      </trkpt>
      <trkpt lat="45.75418" lon="6.11639">
        <ele>821</ele>
        <time>2021-09-10T12:04:09.802Z</time>
      </trkpt>
      <trkpt lat="45.75422" lon="6.11639">
        <ele>820</ele>
        <time>2021-09-10T12:04:10.801Z</time>
      </trkpt>
      <trkpt lat="45.75425" lon="6.1164">
        <ele>820</ele>
        <time>2021-09-10T12:04:11.801Z</time>
      </trkpt>
      <trkpt lat="45.75429" lon="6.11641">
        <ele>820</ele>
        <time>2021-09-10T12:04:12.801Z</time>
      </trkpt>
      <trkpt lat="45.75432" lon="6.11642">
        <ele>820</ele>
        <time>2021-09-10T12:04:13.802Z</time>
      </trkpt>
      <trkpt lat="45.75435" lon="6.11642">
        <ele>820</ele>
        <time>2021-09-10T12:04:14.801Z</time>
      </trkpt>
      <trkpt lat="45.75439" lon="6.11643">
        <ele>820</ele>
        <time>2021-09-10T12:04:15.802Z</time>
      </trkpt>
      <trkpt lat="45.75442" lon="6.11644">
        <ele>820</ele>
        <time>2021-09-10T12:04:16.802Z</time>
      </trkpt>
      <trkpt lat="45.75445" lon="6.11645">
        <ele>821</ele>
        <time>2021-09-10T12:04:17.802Z</time>
      </trkpt>
      <trkpt lat="45.75449" lon="6.11646">
        <ele>821</ele>
        <time>2021-09-10T12:04:18.801Z</time>
      </trkpt>
      <trkpt lat="45.75452" lon="6.11647">
        <ele>821</ele>
        <time>2021-09-10T12:04:19.802Z</time>
      </trkpt>
      <trkpt lat="45.75455" lon="6.11648">
        <ele>821</ele>
        <time>2021-09-10T12:04:20.801Z</time>
      </trkpt>
      <trkpt lat="45.75458" lon="6.11649">
        <ele>821</ele>
        <time>2021-09-10T12:04:21.802Z</time>
      </trkpt>
      <trkpt lat="45.75461" lon="6.1165">
        <ele>821</ele>
        <time>2021-09-10T12:04:22.801Z</time>
      </trkpt>
      <trkpt lat="45.75465" lon="6.11651">
        <ele>822</ele>
        <time>2021-09-10T12:04:23.802Z</time>
      </trkpt>
      <trkpt lat="45.75468" lon="6.11652">
        <ele>821</ele>
        <time>2021-09-10T12:04:24.802Z</time>
      </trkpt>
      <trkpt lat="45.75471" lon="6.11653">
        <ele>821</ele>
        <time>2021-09-10T12:04:25.801Z</time>
      </trkpt>
      <trkpt lat="45.75475" lon="6.11655">
        <ele>821</ele>
        <time>2021-09-10T12:04:26.801Z</time>
      </trkpt>
      <trkpt lat="45.75478" lon="6.11657">
        <ele>821</ele>
        <time>2021-09-10T12:04:27.802Z</time>
      </trkpt>
      <trkpt lat="45.75481" lon="6.11658">
        <ele>821</ele>
        <time>2021-09-10T12:04:28.802Z</time>
      </trkpt>
      <trkpt lat="45.75484" lon="6.1166">
        <ele>820</ele>
        <time>2021-09-10T12:04:29.802Z</time>
      </trkpt>
      <trkpt lat="45.75487" lon="6.11662">
        <ele>820</ele>
        <time>2021-09-10T12:04:30.801Z</time>
      </trkpt>
      <trkpt lat="45.7549" lon="6.11664">
        <ele>819</ele>
        <time>2021-09-10T12:04:31.802Z</time>
      </trkpt>
      <trkpt lat="45.75493" lon="6.11667">
        <ele>818</ele>
        <time>2021-09-10T12:04:32.802Z</time>
      </trkpt>
      <trkpt lat="45.75496" lon="6.11669">
        <ele>818</ele>
        <time>2021-09-10T12:04:33.801Z</time>
      </trkpt>
      <trkpt lat="45.75498" lon="6.11672">
        <ele>818</ele>
        <time>2021-09-10T12:04:34.802Z</time>
      </trkpt>
      <trkpt lat="45.75501" lon="6.11675">
        <ele>817</ele>
        <time>2021-09-10T12:04:35.801Z</time>
      </trkpt>
      <trkpt lat="45.75503" lon="6.11677">
        <ele>817</ele>
        <time>2021-09-10T12:04:36.802Z</time>
      </trkpt>
      <trkpt lat="45.75506" lon="6.1168">
        <ele>816</ele>
        <time>2021-09-10T12:04:37.802Z</time>
      </trkpt>
      <trkpt lat="45.75509" lon="6.11683">
        <ele>816</ele>
        <time>2021-09-10T12:04:38.802Z</time>
      </trkpt>
      <trkpt lat="45.75511" lon="6.11686">
        <ele>815</ele>
        <time>2021-09-10T12:04:39.801Z</time>
      </trkpt>
      <trkpt lat="45.75513" lon="6.11689">
        <ele>816</ele>
        <time>2021-09-10T12:04:40.802Z</time>
      </trkpt>
      <trkpt lat="45.75516" lon="6.11691">
        <ele>816</ele>
        <time>2021-09-10T12:04:41.802Z</time>
      </trkpt>
      <trkpt lat="45.75518" lon="6.11694">
        <ele>817</ele>
        <time>2021-09-10T12:04:42.802Z</time>
      </trkpt>
      <trkpt lat="45.75521" lon="6.11696">
        <ele>817</ele>
        <time>2021-09-10T12:04:43.802Z</time>
      </trkpt>
      <trkpt lat="45.75523" lon="6.11699">
        <ele>817</ele>
        <time>2021-09-10T12:04:44.801Z</time>
      </trkpt>
      <trkpt lat="45.75526" lon="6.11701">
        <ele>818</ele>
        <time>2021-09-10T12:04:45.801Z</time>
      </trkpt>
      <trkpt lat="45.75529" lon="6.11704">
        <ele>818</ele>
        <time>2021-09-10T12:04:46.801Z</time>
      </trkpt>
      <trkpt lat="45.75532" lon="6.11706">
        <ele>818</ele>
        <time>2021-09-10T12:04:47.802Z</time>
      </trkpt>
      <trkpt lat="45.75535" lon="6.11708">
        <ele>818</ele>
        <time>2021-09-10T12:04:48.802Z</time>
      </trkpt>
      <trkpt lat="45.75538" lon="6.1171">
        <ele>818</ele>
        <time>2021-09-10T12:04:49.801Z</time>
      </trkpt>
      <trkpt lat="45.75541" lon="6.11711">
        <ele>818</ele>
        <time>2021-09-10T12:04:50.801Z</time>
      </trkpt>
      <trkpt lat="45.75544" lon="6.11713">
        <ele>818</ele>
        <time>2021-09-10T12:04:51.802Z</time>
      </trkpt>
      <trkpt lat="45.75547" lon="6.11714">
        <ele>818</ele>
        <time>2021-09-10T12:04:52.802Z</time>
      </trkpt>
      <trkpt lat="45.75551" lon="6.11715">
        <ele>818</ele>
        <time>2021-09-10T12:04:53.802Z</time>
      </trkpt>
      <trkpt lat="45.75554" lon="6.11716">
        <ele>818</ele>
        <time>2021-09-10T12:04:54.801Z</time>
      </trkpt>
      <trkpt lat="45.75558" lon="6.11718">
        <ele>818</ele>
        <time>2021-09-10T12:04:55.801Z</time>
      </trkpt>
      <trkpt lat="45.75561" lon="6.11719">
        <ele>818</ele>
        <time>2021-09-10T12:04:56.802Z</time>
      </trkpt>
      <trkpt lat="45.75565" lon="6.11721">
        <ele>818</ele>
        <time>2021-09-10T12:04:57.802Z</time>
      </trkpt>
      <trkpt lat="45.75568" lon="6.11721">
        <ele>818</ele>
        <time>2021-09-10T12:04:58.802Z</time>
      </trkpt>
      <trkpt lat="45.75571" lon="6.11722">
        <ele>818</ele>
        <time>2021-09-10T12:04:59.802Z</time>
      </trkpt>
      <trkpt lat="45.75575" lon="6.11723">
        <ele>818</ele>
        <time>2021-09-10T12:05:00.802Z</time>
      </trkpt>
      <trkpt lat="45.75578" lon="6.11723">
        <ele>818</ele>
        <time>2021-09-10T12:05:01.802Z</time>
      </trkpt>
      <trkpt lat="45.75581" lon="6.11724">
        <ele>818</ele>
        <time>2021-09-10T12:05:02.802Z</time>
      </trkpt>
      <trkpt lat="45.75584" lon="6.11725">
        <ele>818</ele>
        <time>2021-09-10T12:05:03.801Z</time>
      </trkpt>
      <trkpt lat="45.75587" lon="6.11726">
        <ele>817</ele>
        <time>2021-09-10T12:05:04.801Z</time>
      </trkpt>
      <trkpt lat="45.7559" lon="6.11727">
        <ele>817</ele>
        <time>2021-09-10T12:05:05.802Z</time>
      </trkpt>
      <trkpt lat="45.75593" lon="6.11728">
        <ele>817</ele>
        <time>2021-09-10T12:05:06.802Z</time>
      </trkpt>
      <trkpt lat="45.75597" lon="6.11729">
        <ele>817</ele>
        <time>2021-09-10T12:05:07.801Z</time>
      </trkpt>
      <trkpt lat="45.756" lon="6.1173">
        <ele>817</ele>
        <time>2021-09-10T12:05:08.802Z</time>
      </trkpt>
      <trkpt lat="45.75603" lon="6.11731">
        <ele>817</ele>
        <time>2021-09-10T12:05:09.802Z</time>
      </trkpt>
      <trkpt lat="45.75607" lon="6.11732">
        <ele>817</ele>
        <time>2021-09-10T12:05:10.802Z</time>
      </trkpt>
      <trkpt lat="45.7561" lon="6.11733">
        <ele>817</ele>
        <time>2021-09-10T12:05:11.802Z</time>
      </trkpt>
      <trkpt lat="45.75613" lon="6.11734">
        <ele>817</ele>
        <time>2021-09-10T12:05:12.802Z</time>
      </trkpt>
      <trkpt lat="45.75616" lon="6.11735">
        <ele>817</ele>
        <time>2021-09-10T12:05:13.802Z</time>
      </trkpt>
      <trkpt lat="45.75619" lon="6.11736">
        <ele>817</ele>
        <time>2021-09-10T12:05:14.802Z</time>
      </trkpt>
      <trkpt lat="45.75623" lon="6.11737">
        <ele>817</ele>
        <time>2021-09-10T12:05:15.801Z</time>
      </trkpt>
      <trkpt lat="45.75626" lon="6.11738">
        <ele>817</ele>
        <time>2021-09-10T12:05:16.802Z</time>
      </trkpt>
      <trkpt lat="45.75629" lon="6.11739">
        <ele>817</ele>
        <time>2021-09-10T12:05:17.801Z</time>
      </trkpt>
      <trkpt lat="45.75632" lon="6.1174">
        <ele>817</ele>
        <time>2021-09-10T12:05:18.801Z</time>
      </trkpt>
      <trkpt lat="45.75636" lon="6.11741">
        <ele>818</ele>
        <time>2021-09-10T12:05:19.801Z</time>
      </trkpt>
      <trkpt lat="45.75639" lon="6.11742">
        <ele>818</ele>
        <time>2021-09-10T12:05:20.801Z</time>
      </trkpt>
      <trkpt lat="45.75642" lon="6.11743">
        <ele>818</ele>
        <time>2021-09-10T12:05:21.802Z</time>
      </trkpt>
      <trkpt lat="45.75645" lon="6.11743">
        <ele>818</ele>
        <time>2021-09-10T12:05:22.802Z</time>
      </trkpt>
      <trkpt lat="45.75649" lon="6.11744">
        <ele>818</ele>
        <time>2021-09-10T12:05:23.802Z</time>
      </trkpt>
      <trkpt lat="45.75652" lon="6.11745">
        <ele>818</ele>
        <time>2021-09-10T12:05:24.801Z</time>
      </trkpt>
      <trkpt lat="45.75655" lon="6.11746">
        <ele>818</ele>
        <time>2021-09-10T12:05:25.801Z</time>
      </trkpt>
      <trkpt lat="45.75658" lon="6.11747">
        <ele>818</ele>
        <time>2021-09-10T12:05:26.802Z</time>
      </trkpt>
      <trkpt lat="45.75661" lon="6.11748">
        <ele>818</ele>
        <time>2021-09-10T12:05:27.801Z</time>
      </trkpt>
      <trkpt lat="45.75665" lon="6.11749">
        <ele>819</ele>
        <time>2021-09-10T12:05:28.802Z</time>
      </trkpt>
      <trkpt lat="45.75668" lon="6.1175">
        <ele>820</ele>
        <time>2021-09-10T12:05:29.801Z</time>
      </trkpt>
      <trkpt lat="45.75671" lon="6.11751">
        <ele>821</ele>
        <time>2021-09-10T12:05:30.802Z</time>
      </trkpt>
      <trkpt lat="45.75674" lon="6.11752">
        <ele>821</ele>
        <time>2021-09-10T12:05:31.801Z</time>
      </trkpt>
      <trkpt lat="45.75677" lon="6.11753">
        <ele>821</ele>
        <time>2021-09-10T12:05:32.802Z</time>
      </trkpt>
      <trkpt lat="45.75681" lon="6.11754">
        <ele>821</ele>
        <time>2021-09-10T12:05:33.802Z</time>
      </trkpt>
      <trkpt lat="45.75684" lon="6.11755">
        <ele>821</ele>
        <time>2021-09-10T12:05:34.801Z</time>
      </trkpt>
      <trkpt lat="45.75687" lon="6.11755">
        <ele>821</ele>
        <time>2021-09-10T12:05:35.802Z</time>
      </trkpt>
      <trkpt lat="45.7569" lon="6.11756">
        <ele>820</ele>
        <time>2021-09-10T12:05:36.802Z</time>
      </trkpt>
      <trkpt lat="45.75693" lon="6.11757">
        <ele>820</ele>
        <time>2021-09-10T12:05:37.802Z</time>
      </trkpt>
      <trkpt lat="45.75697" lon="6.11757">
        <ele>820</ele>
        <time>2021-09-10T12:05:38.802Z</time>
      </trkpt>
      <trkpt lat="45.757" lon="6.11758">
        <ele>820</ele>
        <time>2021-09-10T12:05:39.801Z</time>
      </trkpt>
      <trkpt lat="45.75703" lon="6.11759">
        <ele>820</ele>
        <time>2021-09-10T12:05:40.801Z</time>
      </trkpt>
      <trkpt lat="45.75706" lon="6.1176">
        <ele>821</ele>
        <time>2021-09-10T12:05:41.802Z</time>
      </trkpt>
      <trkpt lat="45.75709" lon="6.11761">
        <ele>821</ele>
        <time>2021-09-10T12:05:42.802Z</time>
      </trkpt>
      <trkpt lat="45.75712" lon="6.11763">
        <ele>821</ele>
        <time>2021-09-10T12:05:43.802Z</time>
      </trkpt>
      <trkpt lat="45.75715" lon="6.11764">
        <ele>820</ele>
        <time>2021-09-10T12:05:44.801Z</time>
      </trkpt>
      <trkpt lat="45.75718" lon="6.11765">
        <ele>820</ele>
        <time>2021-09-10T12:05:45.801Z</time>
      </trkpt>
      <trkpt lat="45.75721" lon="6.11766">
        <ele>820</ele>
        <time>2021-09-10T12:05:46.801Z</time>
      </trkpt>
      <trkpt lat="45.75724" lon="6.11767">
        <ele>821</ele>
        <time>2021-09-10T12:05:47.801Z</time>
      </trkpt>
      <trkpt lat="45.75727" lon="6.11767">
        <ele>821</ele>
        <time>2021-09-10T12:05:48.802Z</time>
      </trkpt>
      <trkpt lat="45.7573" lon="6.11768">
        <ele>822</ele>
        <time>2021-09-10T12:05:49.801Z</time>
      </trkpt>
      <trkpt lat="45.75733" lon="6.11769">
        <ele>821</ele>
        <time>2021-09-10T12:05:50.802Z</time>
      </trkpt>
      <trkpt lat="45.75736" lon="6.1177">
        <ele>822</ele>
        <time>2021-09-10T12:05:51.802Z</time>
      </trkpt>
      <trkpt lat="45.75739" lon="6.11771">
        <ele>822</ele>
        <time>2021-09-10T12:05:52.802Z</time>
      </trkpt>
      <trkpt lat="45.75742" lon="6.11772">
        <ele>822</ele>
        <time>2021-09-10T12:05:53.802Z</time>
      </trkpt>
      <trkpt lat="45.75745" lon="6.11773">
        <ele>823</ele>
        <time>2021-09-10T12:05:54.802Z</time>
      </trkpt>
      <trkpt lat="45.75748" lon="6.11774">
        <ele>823</ele>
        <time>2021-09-10T12:05:55.802Z</time>
      </trkpt>
      <trkpt lat="45.75752" lon="6.11775">
        <ele>823</ele>
        <time>2021-09-10T12:05:56.802Z</time>
      </trkpt>
      <trkpt lat="45.75755" lon="6.11776">
        <ele>823</ele>
        <time>2021-09-10T12:05:57.802Z</time>
      </trkpt>
      <trkpt lat="45.75758" lon="6.11776">
        <ele>823</ele>
        <time>2021-09-10T12:05:58.801Z</time>
      </trkpt>
      <trkpt lat="45.75761" lon="6.11777">
        <ele>823</ele>
        <time>2021-09-10T12:05:59.802Z</time>
      </trkpt>
      <trkpt lat="45.75764" lon="6.11778">
        <ele>823</ele>
        <time>2021-09-10T12:06:00.801Z</time>
      </trkpt>
      <trkpt lat="45.75767" lon="6.11779">
        <ele>823</ele>
        <time>2021-09-10T12:06:01.802Z</time>
      </trkpt>
      <trkpt lat="45.7577" lon="6.11781">
        <ele>824</ele>
        <time>2021-09-10T12:06:02.802Z</time>
      </trkpt>
      <trkpt lat="45.75773" lon="6.11782">
        <ele>824</ele>
        <time>2021-09-10T12:06:03.802Z</time>
      </trkpt>
      <trkpt lat="45.75776" lon="6.11783">
        <ele>824</ele>
        <time>2021-09-10T12:06:04.801Z</time>
      </trkpt>
      <trkpt lat="45.75779" lon="6.11784">
        <ele>825</ele>
        <time>2021-09-10T12:06:05.802Z</time>
      </trkpt>
      <trkpt lat="45.75782" lon="6.11784">
        <ele>825</ele>
        <time>2021-09-10T12:06:06.802Z</time>
      </trkpt>
      <trkpt lat="45.75785" lon="6.11785">
        <ele>826</ele>
        <time>2021-09-10T12:06:07.801Z</time>
      </trkpt>
      <trkpt lat="45.75788" lon="6.11786">
        <ele>826</ele>
        <time>2021-09-10T12:06:08.801Z</time>
      </trkpt>
      <trkpt lat="45.75791" lon="6.11787">
        <ele>826</ele>
        <time>2021-09-10T12:06:09.802Z</time>
      </trkpt>
      <trkpt lat="45.75794" lon="6.11788">
        <ele>825</ele>
        <time>2021-09-10T12:06:10.802Z</time>
      </trkpt>
      <trkpt lat="45.75797" lon="6.11789">
        <ele>825</ele>
        <time>2021-09-10T12:06:11.802Z</time>
      </trkpt>
      <trkpt lat="45.75799" lon="6.1179">
        <ele>826</ele>
        <time>2021-09-10T12:06:12.802Z</time>
      </trkpt>
      <trkpt lat="45.75802" lon="6.11791">
        <ele>826</ele>
        <time>2021-09-10T12:06:13.802Z</time>
      </trkpt>
      <trkpt lat="45.75805" lon="6.11792">
        <ele>827</ele>
        <time>2021-09-10T12:06:14.801Z</time>
      </trkpt>
      <trkpt lat="45.75808" lon="6.11793">
        <ele>828</ele>
        <time>2021-09-10T12:06:15.802Z</time>
      </trkpt>
      <trkpt lat="45.75811" lon="6.11794">
        <ele>828</ele>
        <time>2021-09-10T12:06:16.802Z</time>
      </trkpt>
      <trkpt lat="45.75813" lon="6.11795">
        <ele>829</ele>
        <time>2021-09-10T12:06:17.802Z</time>
      </trkpt>
      <trkpt lat="45.75816" lon="6.11796">
        <ele>829</ele>
        <time>2021-09-10T12:06:18.802Z</time>
      </trkpt>
      <trkpt lat="45.75819" lon="6.11797">
        <ele>830</ele>
        <time>2021-09-10T12:06:19.802Z</time>
      </trkpt>
      <trkpt lat="45.75822" lon="6.11798">
        <ele>830</ele>
        <time>2021-09-10T12:06:20.802Z</time>
      </trkpt>
      <trkpt lat="45.75825" lon="6.118">
        <ele>830</ele>
        <time>2021-09-10T12:06:21.801Z</time>
      </trkpt>
      <trkpt lat="45.75827" lon="6.11801">
        <ele>830</ele>
        <time>2021-09-10T12:06:22.802Z</time>
      </trkpt>
      <trkpt lat="45.7583" lon="6.11803">
        <ele>830</ele>
        <time>2021-09-10T12:06:23.802Z</time>
      </trkpt>
      <trkpt lat="45.75833" lon="6.11804">
        <ele>830</ele>
        <time>2021-09-10T12:06:24.802Z</time>
      </trkpt>
      <trkpt lat="45.75836" lon="6.11806">
        <ele>829</ele>
        <time>2021-09-10T12:06:25.801Z</time>
      </trkpt>
      <trkpt lat="45.75839" lon="6.11808">
        <ele>829</ele>
        <time>2021-09-10T12:06:26.802Z</time>
      </trkpt>
      <trkpt lat="45.75842" lon="6.1181">
        <ele>829</ele>
        <time>2021-09-10T12:06:27.802Z</time>
      </trkpt>
      <trkpt lat="45.75845" lon="6.11812">
        <ele>828</ele>
        <time>2021-09-10T12:06:28.802Z</time>
      </trkpt>
      <trkpt lat="45.75847" lon="6.11813">
        <ele>828</ele>
        <time>2021-09-10T12:06:29.802Z</time>
      </trkpt>
      <trkpt lat="45.7585" lon="6.11815">
        <ele>828</ele>
        <time>2021-09-10T12:06:30.802Z</time>
      </trkpt>
      <trkpt lat="45.75853" lon="6.11816">
        <ele>827</ele>
        <time>2021-09-10T12:06:31.802Z</time>
      </trkpt>
      <trkpt lat="45.75856" lon="6.11818">
        <ele>827</ele>
        <time>2021-09-10T12:06:32.802Z</time>
      </trkpt>
      <trkpt lat="45.75858" lon="6.1182">
        <ele>826</ele>
        <time>2021-09-10T12:06:33.802Z</time>
      </trkpt>
      <trkpt lat="45.75861" lon="6.11821">
        <ele>826</ele>
        <time>2021-09-10T12:06:34.801Z</time>
      </trkpt>
      <trkpt lat="45.75864" lon="6.11823">
        <ele>826</ele>
        <time>2021-09-10T12:06:35.802Z</time>
      </trkpt>
      <trkpt lat="45.75867" lon="6.11824">
        <ele>826</ele>
        <time>2021-09-10T12:06:36.802Z</time>
      </trkpt>
      <trkpt lat="45.75869" lon="6.11826">
        <ele>827</ele>
        <time>2021-09-10T12:06:37.802Z</time>
      </trkpt>
      <trkpt lat="45.75872" lon="6.11828">
        <ele>827</ele>
        <time>2021-09-10T12:06:38.802Z</time>
      </trkpt>
      <trkpt lat="45.75875" lon="6.1183">
        <ele>828</ele>
        <time>2021-09-10T12:06:39.801Z</time>
      </trkpt>
      <trkpt lat="45.75877" lon="6.11832">
        <ele>829</ele>
        <time>2021-09-10T12:06:40.802Z</time>
      </trkpt>
      <trkpt lat="45.7588" lon="6.11834">
        <ele>829</ele>
        <time>2021-09-10T12:06:41.802Z</time>
      </trkpt>
      <trkpt lat="45.75883" lon="6.11836">
        <ele>830</ele>
        <time>2021-09-10T12:06:42.801Z</time>
      </trkpt>
      <trkpt lat="45.75885" lon="6.11838">
        <ele>830</ele>
        <time>2021-09-10T12:06:43.801Z</time>
      </trkpt>
      <trkpt lat="45.75888" lon="6.11839">
        <ele>830</ele>
        <time>2021-09-10T12:06:44.802Z</time>
      </trkpt>
      <trkpt lat="45.75891" lon="6.11841">
        <ele>830</ele>
        <time>2021-09-10T12:06:45.801Z</time>
      </trkpt>
      <trkpt lat="45.75894" lon="6.11843">
        <ele>829</ele>
        <time>2021-09-10T12:06:46.801Z</time>
      </trkpt>
      <trkpt lat="45.75896" lon="6.11845">
        <ele>829</ele>
        <time>2021-09-10T12:06:47.802Z</time>
      </trkpt>
      <trkpt lat="45.75899" lon="6.11846">
        <ele>829</ele>
        <time>2021-09-10T12:06:49.781Z</time>
      </trkpt>
      <trkpt lat="45.75901" lon="6.11848">
        <ele>829</ele>
        <time>2021-09-10T12:06:50.781Z</time>
      </trkpt>
      <trkpt lat="45.75904" lon="6.1185">
        <ele>829</ele>
        <time>2021-09-10T12:06:51.781Z</time>
      </trkpt>
      <trkpt lat="45.75906" lon="6.11851">
        <ele>829</ele>
        <time>2021-09-10T12:06:52.780Z</time>
      </trkpt>
      <trkpt lat="45.75909" lon="6.11853">
        <ele>829</ele>
        <time>2021-09-10T12:06:53.781Z</time>
      </trkpt>
      <trkpt lat="45.75911" lon="6.11854">
        <ele>830</ele>
        <time>2021-09-10T12:06:54.780Z</time>
      </trkpt>
      <trkpt lat="45.75914" lon="6.11856">
        <ele>830</ele>
        <time>2021-09-10T12:06:55.781Z</time>
      </trkpt>
      <trkpt lat="45.75916" lon="6.11857">
        <ele>831</ele>
        <time>2021-09-10T12:06:56.781Z</time>
      </trkpt>
      <trkpt lat="45.75918" lon="6.11859">
        <ele>831</ele>
        <time>2021-09-10T12:06:57.780Z</time>
      </trkpt>
      <trkpt lat="45.7592" lon="6.11861">
        <ele>832</ele>
        <time>2021-09-10T12:06:58.781Z</time>
      </trkpt>
      <trkpt lat="45.75923" lon="6.11862">
        <ele>832</ele>
        <time>2021-09-10T12:06:59.780Z</time>
      </trkpt>
      <trkpt lat="45.75925" lon="6.11864">
        <ele>832</ele>
        <time>2021-09-10T12:07:00.780Z</time>
      </trkpt>
      <trkpt lat="45.75927" lon="6.11865">
        <ele>831</ele>
        <time>2021-09-10T12:07:01.780Z</time>
      </trkpt>
      <trkpt lat="45.7593" lon="6.11867">
        <ele>831</ele>
        <time>2021-09-10T12:07:02.780Z</time>
      </trkpt>
      <trkpt lat="45.75933" lon="6.11869">
        <ele>831</ele>
        <time>2021-09-10T12:07:03.780Z</time>
      </trkpt>
      <trkpt lat="45.75935" lon="6.1187">
        <ele>831</ele>
        <time>2021-09-10T12:07:04.781Z</time>
      </trkpt>
      <trkpt lat="45.75937" lon="6.11872">
        <ele>832</ele>
        <time>2021-09-10T12:07:05.780Z</time>
      </trkpt>
      <trkpt lat="45.7594" lon="6.11874">
        <ele>832</ele>
        <time>2021-09-10T12:07:11.835Z</time>
      </trkpt>
      <trkpt lat="45.75942" lon="6.11876">
        <ele>833</ele>
        <time>2021-09-10T12:07:12.836Z</time>
      </trkpt>
      <trkpt lat="45.75945" lon="6.11877">
        <ele>833</ele>
        <time>2021-09-10T12:07:13.835Z</time>
      </trkpt>
      <trkpt lat="45.75947" lon="6.11879">
        <ele>833</ele>
        <time>2021-09-10T12:07:14.836Z</time>
      </trkpt>
      <trkpt lat="45.7595" lon="6.11881">
        <ele>833</ele>
        <time>2021-09-10T12:07:15.836Z</time>
      </trkpt>
      <trkpt lat="45.75953" lon="6.11882">
        <ele>832</ele>
        <time>2021-09-10T12:07:17.909Z</time>
      </trkpt>
      <trkpt lat="45.75956" lon="6.11884">
        <ele>832</ele>
        <time>2021-09-10T12:07:18.910Z</time>
      </trkpt>
      <trkpt lat="45.75958" lon="6.11886">
        <ele>831</ele>
        <time>2021-09-10T12:07:19.910Z</time>
      </trkpt>
      <trkpt lat="45.7596" lon="6.11888">
        <ele>832</ele>
        <time>2021-09-10T12:39:08.586Z</time>
      </trkpt>
      <trkpt lat="45.75963" lon="6.1189">
        <ele>832</ele>
        <time>2021-09-10T12:39:09.587Z</time>
      </trkpt>
      <trkpt lat="45.75965" lon="6.11892">
        <ele>833</ele>
        <time>2021-09-10T12:39:10.587Z</time>
      </trkpt>
      <trkpt lat="45.75968" lon="6.11894">
        <ele>833</ele>
        <time>2021-09-10T12:39:11.586Z</time>
      </trkpt>
      <trkpt lat="45.7597" lon="6.11896">
        <ele>833</ele>
        <time>2021-09-10T12:39:12.587Z</time>
      </trkpt>
      <trkpt lat="45.75972" lon="6.11899">
        <ele>834</ele>
        <time>2021-09-10T12:39:13.587Z</time>
      </trkpt>
      <trkpt lat="45.75974" lon="6.11901">
        <ele>834</ele>
        <time>2021-09-10T12:39:14.587Z</time>
      </trkpt>
      <trkpt lat="45.75976" lon="6.11904">
        <ele>834</ele>
        <time>2021-09-10T12:39:15.587Z</time>
      </trkpt>
      <trkpt lat="45.75978" lon="6.11907">
        <ele>833</ele>
        <time>2021-09-10T12:39:16.587Z</time>
      </trkpt>
      <trkpt lat="45.7598" lon="6.11909">
        <ele>834</ele>
        <time>2021-09-10T12:39:17.586Z</time>
      </trkpt>
      <trkpt lat="45.75982" lon="6.11912">
        <ele>834</ele>
        <time>2021-09-10T12:39:18.586Z</time>
      </trkpt>
      <trkpt lat="45.75984" lon="6.11914">
        <ele>834</ele>
        <time>2021-09-10T12:39:19.587Z</time>
      </trkpt>
      <trkpt lat="45.75986" lon="6.11917">
        <ele>835</ele>
        <time>2021-09-10T12:39:20.586Z</time>
      </trkpt>
      <trkpt lat="45.75988" lon="6.11919">
        <ele>835</ele>
        <time>2021-09-10T12:39:21.586Z</time>
      </trkpt>
      <trkpt lat="45.7599" lon="6.11922">
        <ele>835</ele>
        <time>2021-09-10T12:39:22.587Z</time>
      </trkpt>
      <trkpt lat="45.75992" lon="6.11925">
        <ele>835</ele>
        <time>2021-09-10T12:39:23.587Z</time>
      </trkpt>
      <trkpt lat="45.75993" lon="6.11928">
        <ele>835</ele>
        <time>2021-09-10T12:39:24.586Z</time>
      </trkpt>
      <trkpt lat="45.75995" lon="6.11931">
        <ele>834</ele>
        <time>2021-09-10T12:39:25.587Z</time>
      </trkpt>
      <trkpt lat="45.75997" lon="6.11933">
        <ele>834</ele>
        <time>2021-09-10T12:39:26.587Z</time>
      </trkpt>
      <trkpt lat="45.75999" lon="6.11936">
        <ele>834</ele>
        <time>2021-09-10T12:39:27.587Z</time>
      </trkpt>
      <trkpt lat="45.76001" lon="6.11938">
        <ele>834</ele>
        <time>2021-09-10T12:39:28.587Z</time>
      </trkpt>
      <trkpt lat="45.76003" lon="6.11941">
        <ele>834</ele>
        <time>2021-09-10T12:39:29.587Z</time>
      </trkpt>
      <trkpt lat="45.76005" lon="6.11943">
        <ele>835</ele>
        <time>2021-09-10T12:39:30.586Z</time>
      </trkpt>
      <trkpt lat="45.76007" lon="6.11946">
        <ele>835</ele>
        <time>2021-09-10T12:39:31.587Z</time>
      </trkpt>
      <trkpt lat="45.76008" lon="6.11949">
        <ele>835</ele>
        <time>2021-09-10T12:39:32.587Z</time>
      </trkpt>
      <trkpt lat="45.7601" lon="6.11952">
        <ele>835</ele>
        <time>2021-09-10T12:39:33.587Z</time>
      </trkpt>
      <trkpt lat="45.76012" lon="6.11954">
        <ele>834</ele>
        <time>2021-09-10T12:39:34.587Z</time>
      </trkpt>
      <trkpt lat="45.76014" lon="6.11957">
        <ele>835</ele>
        <time>2021-09-10T12:39:35.587Z</time>
      </trkpt>
      <trkpt lat="45.76016" lon="6.1196">
        <ele>835</ele>
        <time>2021-09-10T12:39:36.587Z</time>
      </trkpt>
      <trkpt lat="45.76018" lon="6.11962">
        <ele>835</ele>
        <time>2021-09-10T12:39:37.587Z</time>
      </trkpt>
      <trkpt lat="45.7602" lon="6.11964">
        <ele>835</ele>
        <time>2021-09-10T12:39:38.586Z</time>
      </trkpt>
      <trkpt lat="45.76022" lon="6.11967">
        <ele>835</ele>
        <time>2021-09-10T12:39:39.587Z</time>
      </trkpt>
      <trkpt lat="45.76023" lon="6.11969">
        <ele>836</ele>
        <time>2021-09-10T12:39:40.586Z</time>
      </trkpt>
      <trkpt lat="45.76025" lon="6.11972">
        <ele>836</ele>
        <time>2021-09-10T12:39:41.587Z</time>
      </trkpt>
      <trkpt lat="45.76027" lon="6.11974">
        <ele>836</ele>
        <time>2021-09-10T12:39:42.586Z</time>
      </trkpt>
      <trkpt lat="45.76029" lon="6.11977">
        <ele>837</ele>
        <time>2021-09-10T12:39:43.587Z</time>
      </trkpt>
      <trkpt lat="45.76031" lon="6.11979">
        <ele>838</ele>
        <time>2021-09-10T12:39:44.587Z</time>
      </trkpt>
      <trkpt lat="45.76033" lon="6.11982">
        <ele>838</ele>
        <time>2021-09-10T12:39:45.587Z</time>
      </trkpt>
      <trkpt lat="45.76035" lon="6.11985">
        <ele>838</ele>
        <time>2021-09-10T12:39:46.587Z</time>
      </trkpt>
      <trkpt lat="45.76037" lon="6.11987">
        <ele>839</ele>
        <time>2021-09-10T12:39:47.587Z</time>
      </trkpt>
      <trkpt lat="45.76039" lon="6.11989">
        <ele>839</ele>
        <time>2021-09-10T12:39:48.586Z</time>
      </trkpt>
      <trkpt lat="45.76041" lon="6.11992">
        <ele>840</ele>
        <time>2021-09-10T12:39:49.587Z</time>
      </trkpt>
      <trkpt lat="45.76043" lon="6.11995">
        <ele>840</ele>
        <time>2021-09-10T12:39:50.587Z</time>
      </trkpt>
      <trkpt lat="45.76045" lon="6.11998">
        <ele>841</ele>
        <time>2021-09-10T12:39:51.587Z</time>
      </trkpt>
      <trkpt lat="45.76047" lon="6.12001">
        <ele>842</ele>
        <time>2021-09-10T12:39:52.587Z</time>
      </trkpt>
      <trkpt lat="45.7605" lon="6.12003">
        <ele>842</ele>
        <time>2021-09-10T12:39:53.587Z</time>
      </trkpt>
      <trkpt lat="45.76052" lon="6.12006">
        <ele>842</ele>
        <time>2021-09-10T12:39:54.587Z</time>
      </trkpt>
      <trkpt lat="45.76055" lon="6.12009">
        <ele>841</ele>
        <time>2021-09-10T12:39:55.587Z</time>
      </trkpt>
      <trkpt lat="45.76058" lon="6.12011">
        <ele>841</ele>
        <time>2021-09-10T12:39:56.587Z</time>
      </trkpt>
      <trkpt lat="45.7606" lon="6.12013">
        <ele>841</ele>
        <time>2021-09-10T12:39:57.586Z</time>
      </trkpt>
      <trkpt lat="45.76063" lon="6.12016">
        <ele>841</ele>
        <time>2021-09-10T12:39:58.587Z</time>
      </trkpt>
      <trkpt lat="45.76065" lon="6.12018">
        <ele>841</ele>
        <time>2021-09-10T12:39:59.586Z</time>
      </trkpt>
      <trkpt lat="45.76068" lon="6.1202">
        <ele>840</ele>
        <time>2021-09-10T12:40:00.586Z</time>
      </trkpt>
      <trkpt lat="45.7607" lon="6.12022">
        <ele>840</ele>
        <time>2021-09-10T12:40:01.587Z</time>
      </trkpt>
      <trkpt lat="45.76072" lon="6.12025">
        <ele>840</ele>
        <time>2021-09-10T12:40:02.587Z</time>
      </trkpt>
      <trkpt lat="45.76074" lon="6.12027">
        <ele>840</ele>
        <time>2021-09-10T12:40:03.587Z</time>
      </trkpt>
      <trkpt lat="45.76077" lon="6.12029">
        <ele>840</ele>
        <time>2021-09-10T12:40:04.587Z</time>
      </trkpt>
      <trkpt lat="45.76079" lon="6.12031">
        <ele>840</ele>
        <time>2021-09-10T12:40:05.586Z</time>
      </trkpt>
      <trkpt lat="45.76081" lon="6.12033">
        <ele>839</ele>
        <time>2021-09-10T12:40:06.587Z</time>
      </trkpt>
      <trkpt lat="45.76083" lon="6.12034">
        <ele>839</ele>
        <time>2021-09-10T12:40:07.587Z</time>
      </trkpt>
      <trkpt lat="45.76085" lon="6.12036">
        <ele>838</ele>
        <time>2021-09-10T12:40:08.587Z</time>
      </trkpt>
      <trkpt lat="45.76088" lon="6.12038">
        <ele>838</ele>
        <time>2021-09-10T12:40:09.587Z</time>
      </trkpt>
      <trkpt lat="45.7609" lon="6.1204">
        <ele>838</ele>
        <time>2021-09-10T12:40:10.587Z</time>
      </trkpt>
      <trkpt lat="45.76092" lon="6.12042">
        <ele>839</ele>
        <time>2021-09-10T12:40:11.587Z</time>
      </trkpt>
      <trkpt lat="45.76094" lon="6.12043">
        <ele>839</ele>
        <time>2021-09-10T12:40:12.587Z</time>
      </trkpt>
      <trkpt lat="45.76096" lon="6.12045">
        <ele>839</ele>
        <time>2021-09-10T12:40:13.586Z</time>
      </trkpt>
      <trkpt lat="45.76099" lon="6.12047">
        <ele>839</ele>
        <time>2021-09-10T12:40:14.587Z</time>
      </trkpt>
      <trkpt lat="45.76101" lon="6.12048">
        <ele>839</ele>
        <time>2021-09-10T12:40:15.587Z</time>
      </trkpt>
      <trkpt lat="45.76103" lon="6.1205">
        <ele>839</ele>
        <time>2021-09-10T12:40:16.587Z</time>
      </trkpt>
      <trkpt lat="45.76105" lon="6.12051">
        <ele>839</ele>
        <time>2021-09-10T12:40:17.586Z</time>
      </trkpt>
      <trkpt lat="45.76107" lon="6.12053">
        <ele>839</ele>
        <time>2021-09-10T12:40:18.587Z</time>
      </trkpt>
      <trkpt lat="45.76109" lon="6.12055">
        <ele>839</ele>
        <time>2021-09-10T12:40:19.587Z</time>
      </trkpt>
      <trkpt lat="45.76111" lon="6.12056">
        <ele>839</ele>
        <time>2021-09-10T12:40:20.587Z</time>
      </trkpt>
      <trkpt lat="45.76114" lon="6.12058">
        <ele>840</ele>
        <time>2021-09-10T12:40:21.587Z</time>
      </trkpt>
      <trkpt lat="45.76116" lon="6.12059">
        <ele>840</ele>
        <time>2021-09-10T12:40:22.587Z</time>
      </trkpt>
      <trkpt lat="45.76118" lon="6.12061">
        <ele>840</ele>
        <time>2021-09-10T12:40:23.587Z</time>
      </trkpt>
      <trkpt lat="45.7612" lon="6.12062">
        <ele>839</ele>
        <time>2021-09-10T12:40:24.587Z</time>
      </trkpt>
      <trkpt lat="45.76122" lon="6.12063">
        <ele>839</ele>
        <time>2021-09-10T12:40:25.587Z</time>
      </trkpt>
      <trkpt lat="45.76124" lon="6.12065">
        <ele>839</ele>
        <time>2021-09-10T12:40:26.587Z</time>
      </trkpt>
      <trkpt lat="45.76127" lon="6.12066">
        <ele>839</ele>
        <time>2021-09-10T12:40:27.587Z</time>
      </trkpt>
      <trkpt lat="45.76129" lon="6.12067">
        <ele>839</ele>
        <time>2021-09-10T12:40:28.587Z</time>
      </trkpt>
      <trkpt lat="45.76131" lon="6.12068">
        <ele>839</ele>
        <time>2021-09-10T12:40:29.587Z</time>
      </trkpt>
      <trkpt lat="45.76133" lon="6.12069">
        <ele>839</ele>
        <time>2021-09-10T12:40:30.587Z</time>
      </trkpt>
      <trkpt lat="45.76135" lon="6.1207">
        <ele>839</ele>
        <time>2021-09-10T12:40:31.587Z</time>
      </trkpt>
      <trkpt lat="45.76138" lon="6.12071">
        <ele>840</ele>
        <time>2021-09-10T12:40:32.587Z</time>
      </trkpt>
      <trkpt lat="45.7614" lon="6.12073">
        <ele>840</ele>
        <time>2021-09-10T12:40:33.587Z</time>
      </trkpt>
      <trkpt lat="45.76142" lon="6.12074">
        <ele>840</ele>
        <time>2021-09-10T12:40:34.587Z</time>
      </trkpt>
      <trkpt lat="45.76145" lon="6.12075">
        <ele>840</ele>
        <time>2021-09-10T12:40:35.587Z</time>
      </trkpt>
      <trkpt lat="45.76147" lon="6.12077">
        <ele>840</ele>
        <time>2021-09-10T12:40:36.587Z</time>
      </trkpt>
      <trkpt lat="45.76149" lon="6.12078">
        <ele>841</ele>
        <time>2021-09-10T12:40:37.587Z</time>
      </trkpt>
      <trkpt lat="45.76151" lon="6.12079">
        <ele>841</ele>
        <time>2021-09-10T12:40:38.587Z</time>
      </trkpt>
      <trkpt lat="45.76154" lon="6.1208">
        <ele>841</ele>
        <time>2021-09-10T12:40:39.587Z</time>
      </trkpt>
      <trkpt lat="45.76156" lon="6.12081">
        <ele>841</ele>
        <time>2021-09-10T12:40:40.587Z</time>
      </trkpt>
      <trkpt lat="45.76158" lon="6.12083">
        <ele>841</ele>
        <time>2021-09-10T12:40:41.586Z</time>
      </trkpt>
      <trkpt lat="45.7616" lon="6.12083">
        <ele>841</ele>
        <time>2021-09-10T12:40:42.586Z</time>
      </trkpt>
      <trkpt lat="45.76163" lon="6.12085">
        <ele>841</ele>
        <time>2021-09-10T12:40:43.587Z</time>
      </trkpt>
      <trkpt lat="45.76165" lon="6.12086">
        <ele>841</ele>
        <time>2021-09-10T12:40:44.586Z</time>
      </trkpt>
      <trkpt lat="45.76167" lon="6.12088">
        <ele>840</ele>
        <time>2021-09-10T12:40:45.587Z</time>
      </trkpt>
      <trkpt lat="45.76169" lon="6.12089">
        <ele>840</ele>
        <time>2021-09-10T12:40:46.587Z</time>
      </trkpt>
      <trkpt lat="45.76172" lon="6.1209">
        <ele>840</ele>
        <time>2021-09-10T12:40:47.587Z</time>
      </trkpt>
      <trkpt lat="45.76174" lon="6.12091">
        <ele>841</ele>
        <time>2021-09-10T12:40:48.587Z</time>
      </trkpt>
      <trkpt lat="45.76176" lon="6.12092">
        <ele>841</ele>
        <time>2021-09-10T12:40:49.586Z</time>
      </trkpt>
      <trkpt lat="45.76178" lon="6.12094">
        <ele>842</ele>
        <time>2021-09-10T12:40:50.587Z</time>
      </trkpt>
      <trkpt lat="45.7618" lon="6.12095">
        <ele>842</ele>
        <time>2021-09-10T12:40:51.587Z</time>
      </trkpt>
      <trkpt lat="45.76183" lon="6.12096">
        <ele>843</ele>
        <time>2021-09-10T12:40:52.587Z</time>
      </trkpt>
      <trkpt lat="45.76185" lon="6.12097">
        <ele>843</ele>
        <time>2021-09-10T12:40:53.587Z</time>
      </trkpt>
      <trkpt lat="45.76187" lon="6.12098">
        <ele>843</ele>
        <time>2021-09-10T12:40:54.587Z</time>
      </trkpt>
      <trkpt lat="45.76189" lon="6.12099">
        <ele>844</ele>
        <time>2021-09-10T12:40:55.586Z</time>
      </trkpt>
      <trkpt lat="45.76192" lon="6.121">
        <ele>844</ele>
        <time>2021-09-10T12:40:56.587Z</time>
      </trkpt>
      <trkpt lat="45.76194" lon="6.12101">
        <ele>844</ele>
        <time>2021-09-10T12:40:57.586Z</time>
      </trkpt>
      <trkpt lat="45.76197" lon="6.12102">
        <ele>845</ele>
        <time>2021-09-10T12:40:58.587Z</time>
      </trkpt>
      <trkpt lat="45.76199" lon="6.12103">
        <ele>845</ele>
        <time>2021-09-10T12:40:59.587Z</time>
      </trkpt>
      <trkpt lat="45.76201" lon="6.12104">
        <ele>845</ele>
        <time>2021-09-10T12:41:00.587Z</time>
      </trkpt>
      <trkpt lat="45.76204" lon="6.12105">
        <ele>845</ele>
        <time>2021-09-10T12:41:01.587Z</time>
      </trkpt>
      <trkpt lat="45.76206" lon="6.12107">
        <ele>845</ele>
        <time>2021-09-10T12:41:02.587Z</time>
      </trkpt>
      <trkpt lat="45.76209" lon="6.12108">
        <ele>846</ele>
        <time>2021-09-10T12:41:03.587Z</time>
      </trkpt>
      <trkpt lat="45.76211" lon="6.12109">
        <ele>846</ele>
        <time>2021-09-10T12:41:04.587Z</time>
      </trkpt>
      <trkpt lat="45.76213" lon="6.1211">
        <ele>846</ele>
        <time>2021-09-10T12:41:05.587Z</time>
      </trkpt>
      <trkpt lat="45.76215" lon="6.12111">
        <ele>845</ele>
        <time>2021-09-10T12:41:06.587Z</time>
      </trkpt>
      <trkpt lat="45.76217" lon="6.12112">
        <ele>845</ele>
        <time>2021-09-10T12:41:07.587Z</time>
      </trkpt>
      <trkpt lat="45.76219" lon="6.12114">
        <ele>846</ele>
        <time>2021-09-10T12:41:08.587Z</time>
      </trkpt>
      <trkpt lat="45.76222" lon="6.12115">
        <ele>846</ele>
        <time>2021-09-10T12:41:09.587Z</time>
      </trkpt>
      <trkpt lat="45.76224" lon="6.12116">
        <ele>846</ele>
        <time>2021-09-10T12:41:10.587Z</time>
      </trkpt>
      <trkpt lat="45.76226" lon="6.12117">
        <ele>846</ele>
        <time>2021-09-10T12:41:11.587Z</time>
      </trkpt>
      <trkpt lat="45.76228" lon="6.12119">
        <ele>846</ele>
        <time>2021-09-10T12:41:12.587Z</time>
      </trkpt>
      <trkpt lat="45.7623" lon="6.1212">
        <ele>846</ele>
        <time>2021-09-10T12:41:13.587Z</time>
      </trkpt>
      <trkpt lat="45.76233" lon="6.12121">
        <ele>846</ele>
        <time>2021-09-10T12:41:14.586Z</time>
      </trkpt>
      <trkpt lat="45.76235" lon="6.12123">
        <ele>846</ele>
        <time>2021-09-10T12:41:15.587Z</time>
      </trkpt>
      <trkpt lat="45.76237" lon="6.12124">
        <ele>846</ele>
        <time>2021-09-10T12:41:16.586Z</time>
      </trkpt>
      <trkpt lat="45.7624" lon="6.12125">
        <ele>846</ele>
        <time>2021-09-10T12:41:17.586Z</time>
      </trkpt>
      <trkpt lat="45.76242" lon="6.12126">
        <ele>846</ele>
        <time>2021-09-10T12:41:18.587Z</time>
      </trkpt>
      <trkpt lat="45.76244" lon="6.12127">
        <ele>846</ele>
        <time>2021-09-10T12:41:19.587Z</time>
      </trkpt>
      <trkpt lat="45.76247" lon="6.12128">
        <ele>846</ele>
        <time>2021-09-10T12:41:20.586Z</time>
      </trkpt>
      <trkpt lat="45.76249" lon="6.12129">
        <ele>846</ele>
        <time>2021-09-10T12:41:21.587Z</time>
      </trkpt>
      <trkpt lat="45.76251" lon="6.1213">
        <ele>846</ele>
        <time>2021-09-10T12:41:22.586Z</time>
      </trkpt>
      <trkpt lat="45.76253" lon="6.12131">
        <ele>846</ele>
        <time>2021-09-10T12:41:23.586Z</time>
      </trkpt>
      <trkpt lat="45.76256" lon="6.12133">
        <ele>847</ele>
        <time>2021-09-10T12:41:24.586Z</time>
      </trkpt>
      <trkpt lat="45.76258" lon="6.12134">
        <ele>847</ele>
        <time>2021-09-10T12:41:25.587Z</time>
      </trkpt>
      <trkpt lat="45.7626" lon="6.12135">
        <ele>848</ele>
        <time>2021-09-10T12:41:26.587Z</time>
      </trkpt>
      <trkpt lat="45.76263" lon="6.12137">
        <ele>848</ele>
        <time>2021-09-10T12:41:27.587Z</time>
      </trkpt>
      <trkpt lat="45.76265" lon="6.12138">
        <ele>848</ele>
        <time>2021-09-10T12:41:28.587Z</time>
      </trkpt>
      <trkpt lat="45.76268" lon="6.12139">
        <ele>848</ele>
        <time>2021-09-10T12:41:29.586Z</time>
      </trkpt>
      <trkpt lat="45.7627" lon="6.12141">
        <ele>848</ele>
        <time>2021-09-10T12:41:30.587Z</time>
      </trkpt>
      <trkpt lat="45.76272" lon="6.12142">
        <ele>848</ele>
        <time>2021-09-10T12:41:31.587Z</time>
      </trkpt>
      <trkpt lat="45.76274" lon="6.12143">
        <ele>848</ele>
        <time>2021-09-10T12:41:32.587Z</time>
      </trkpt>
      <trkpt lat="45.76277" lon="6.12144">
        <ele>848</ele>
        <time>2021-09-10T12:41:33.587Z</time>
      </trkpt>
      <trkpt lat="45.76279" lon="6.12145">
        <ele>848</ele>
        <time>2021-09-10T12:41:34.587Z</time>
      </trkpt>
      <trkpt lat="45.76281" lon="6.12146">
        <ele>848</ele>
        <time>2021-09-10T12:41:35.586Z</time>
      </trkpt>
      <trkpt lat="45.76283" lon="6.12147">
        <ele>849</ele>
        <time>2021-09-10T12:41:36.586Z</time>
      </trkpt>
      <trkpt lat="45.76286" lon="6.12149">
        <ele>849</ele>
        <time>2021-09-10T12:41:37.587Z</time>
      </trkpt>
      <trkpt lat="45.76288" lon="6.1215">
        <ele>848</ele>
        <time>2021-09-10T12:41:38.587Z</time>
      </trkpt>
      <trkpt lat="45.7629" lon="6.12151">
        <ele>848</ele>
        <time>2021-09-10T12:41:39.587Z</time>
      </trkpt>
      <trkpt lat="45.76293" lon="6.12153">
        <ele>848</ele>
        <time>2021-09-10T12:41:40.587Z</time>
      </trkpt>
      <trkpt lat="45.76295" lon="6.12154">
        <ele>848</ele>
        <time>2021-09-10T12:41:41.587Z</time>
      </trkpt>
      <trkpt lat="45.76297" lon="6.12155">
        <ele>848</ele>
        <time>2021-09-10T12:41:42.587Z</time>
      </trkpt>
      <trkpt lat="45.76299" lon="6.12156">
        <ele>848</ele>
        <time>2021-09-10T12:41:43.587Z</time>
      </trkpt>
      <trkpt lat="45.76301" lon="6.12157">
        <ele>849</ele>
        <time>2021-09-10T12:41:44.586Z</time>
      </trkpt>
      <trkpt lat="45.76304" lon="6.12158">
        <ele>849</ele>
        <time>2021-09-10T12:41:45.587Z</time>
      </trkpt>
      <trkpt lat="45.76306" lon="6.1216">
        <ele>850</ele>
        <time>2021-09-10T12:41:46.587Z</time>
      </trkpt>
      <trkpt lat="45.76308" lon="6.12161">
        <ele>850</ele>
        <time>2021-09-10T12:41:47.587Z</time>
      </trkpt>
      <trkpt lat="45.76311" lon="6.12162">
        <ele>850</ele>
        <time>2021-09-10T12:41:48.587Z</time>
      </trkpt>
      <trkpt lat="45.76313" lon="6.12163">
        <ele>850</ele>
        <time>2021-09-10T12:41:49.587Z</time>
      </trkpt>
      <trkpt lat="45.76315" lon="6.12164">
        <ele>850</ele>
        <time>2021-09-10T12:41:50.587Z</time>
      </trkpt>
      <trkpt lat="45.76317" lon="6.12166">
        <ele>850</ele>
        <time>2021-09-10T12:41:51.586Z</time>
      </trkpt>
      <trkpt lat="45.7632" lon="6.12167">
        <ele>849</ele>
        <time>2021-09-10T12:41:52.587Z</time>
      </trkpt>
      <trkpt lat="45.76322" lon="6.12168">
        <ele>849</ele>
        <time>2021-09-10T12:41:53.587Z</time>
      </trkpt>
      <trkpt lat="45.76325" lon="6.12169">
        <ele>849</ele>
        <time>2021-09-10T12:41:54.587Z</time>
      </trkpt>
      <trkpt lat="45.76327" lon="6.12171">
        <ele>849</ele>
        <time>2021-09-10T12:41:55.586Z</time>
      </trkpt>
      <trkpt lat="45.76329" lon="6.12172">
        <ele>849</ele>
        <time>2021-09-10T12:41:56.587Z</time>
      </trkpt>
      <trkpt lat="45.76331" lon="6.12173">
        <ele>849</ele>
        <time>2021-09-10T12:41:57.587Z</time>
      </trkpt>
      <trkpt lat="45.76334" lon="6.12174">
        <ele>850</ele>
        <time>2021-09-10T12:41:58.587Z</time>
      </trkpt>
      <trkpt lat="45.76336" lon="6.12175">
        <ele>850</ele>
        <time>2021-09-10T12:41:59.586Z</time>
      </trkpt>
      <trkpt lat="45.76338" lon="6.12177">
        <ele>850</ele>
        <time>2021-09-10T12:42:00.587Z</time>
      </trkpt>
      <trkpt lat="45.76341" lon="6.12178">
        <ele>851</ele>
        <time>2021-09-10T12:42:01.586Z</time>
      </trkpt>
      <trkpt lat="45.76343" lon="6.1218">
        <ele>851</ele>
        <time>2021-09-10T12:42:02.587Z</time>
      </trkpt>
      <trkpt lat="45.76345" lon="6.12181">
        <ele>851</ele>
        <time>2021-09-10T12:42:03.587Z</time>
      </trkpt>
      <trkpt lat="45.76347" lon="6.12183">
        <ele>851</ele>
        <time>2021-09-10T12:42:04.587Z</time>
      </trkpt>
      <trkpt lat="45.76349" lon="6.12184">
        <ele>851</ele>
        <time>2021-09-10T12:42:05.587Z</time>
      </trkpt>
      <trkpt lat="45.76351" lon="6.12186">
        <ele>851</ele>
        <time>2021-09-10T12:42:06.587Z</time>
      </trkpt>
      <trkpt lat="45.76353" lon="6.12188">
        <ele>851</ele>
        <time>2021-09-10T12:42:07.587Z</time>
      </trkpt>
      <trkpt lat="45.76355" lon="6.12189">
        <ele>851</ele>
        <time>2021-09-10T12:42:08.587Z</time>
      </trkpt>
      <trkpt lat="45.76357" lon="6.12191">
        <ele>851</ele>
        <time>2021-09-10T12:42:09.587Z</time>
      </trkpt>
      <trkpt lat="45.76359" lon="6.12193">
        <ele>852</ele>
        <time>2021-09-10T12:42:10.587Z</time>
      </trkpt>
      <trkpt lat="45.76361" lon="6.12195">
        <ele>852</ele>
        <time>2021-09-10T12:42:11.587Z</time>
      </trkpt>
      <trkpt lat="45.76363" lon="6.12197">
        <ele>852</ele>
        <time>2021-09-10T12:42:12.586Z</time>
      </trkpt>
      <trkpt lat="45.76365" lon="6.122">
        <ele>852</ele>
        <time>2021-09-10T12:42:13.587Z</time>
      </trkpt>
      <trkpt lat="45.76366" lon="6.12202">
        <ele>852</ele>
        <time>2021-09-10T12:42:14.587Z</time>
      </trkpt>
      <trkpt lat="45.76368" lon="6.12205">
        <ele>852</ele>
        <time>2021-09-10T12:42:15.587Z</time>
      </trkpt>
      <trkpt lat="45.7637" lon="6.12207">
        <ele>852</ele>
        <time>2021-09-10T12:42:16.587Z</time>
      </trkpt>
      <trkpt lat="45.76372" lon="6.1221">
        <ele>852</ele>
        <time>2021-09-10T12:42:17.586Z</time>
      </trkpt>
      <trkpt lat="45.76373" lon="6.12213">
        <ele>852</ele>
        <time>2021-09-10T12:42:18.587Z</time>
      </trkpt>
      <trkpt lat="45.76375" lon="6.12216">
        <ele>851</ele>
        <time>2021-09-10T12:42:19.587Z</time>
      </trkpt>
      <trkpt lat="45.76377" lon="6.12218">
        <ele>851</ele>
        <time>2021-09-10T12:42:20.587Z</time>
      </trkpt>
      <trkpt lat="45.76378" lon="6.12221">
        <ele>851</ele>
        <time>2021-09-10T12:42:21.587Z</time>
      </trkpt>
      <trkpt lat="45.7638" lon="6.12224">
        <ele>851</ele>
        <time>2021-09-10T12:42:22.587Z</time>
      </trkpt>
      <trkpt lat="45.76382" lon="6.12227">
        <ele>850</ele>
        <time>2021-09-10T12:42:23.587Z</time>
      </trkpt>
      <trkpt lat="45.76383" lon="6.1223">
        <ele>851</ele>
        <time>2021-09-10T12:42:24.587Z</time>
      </trkpt>
      <trkpt lat="45.76385" lon="6.12232">
        <ele>851</ele>
        <time>2021-09-10T12:42:25.587Z</time>
      </trkpt>
      <trkpt lat="45.76386" lon="6.12235">
        <ele>851</ele>
        <time>2021-09-10T12:42:26.587Z</time>
      </trkpt>
      <trkpt lat="45.76387" lon="6.12238">
        <ele>851</ele>
        <time>2021-09-10T12:42:27.587Z</time>
      </trkpt>
      <trkpt lat="45.76389" lon="6.1224">
        <ele>852</ele>
        <time>2021-09-10T12:42:28.587Z</time>
      </trkpt>
      <trkpt lat="45.7639" lon="6.12243">
        <ele>852</ele>
        <time>2021-09-10T12:42:29.587Z</time>
      </trkpt>
      <trkpt lat="45.76391" lon="6.12247">
        <ele>852</ele>
        <time>2021-09-10T12:42:30.586Z</time>
      </trkpt>
      <trkpt lat="45.76392" lon="6.1225">
        <ele>852</ele>
        <time>2021-09-10T12:42:31.587Z</time>
      </trkpt>
      <trkpt lat="45.76393" lon="6.12253">
        <ele>852</ele>
        <time>2021-09-10T12:42:32.586Z</time>
      </trkpt>
      <trkpt lat="45.76395" lon="6.12256">
        <ele>852</ele>
        <time>2021-09-10T12:42:33.587Z</time>
      </trkpt>
      <trkpt lat="45.76396" lon="6.12259">
        <ele>852</ele>
        <time>2021-09-10T12:42:34.586Z</time>
      </trkpt>
      <trkpt lat="45.76397" lon="6.12263">
        <ele>852</ele>
        <time>2021-09-10T12:42:35.586Z</time>
      </trkpt>
      <trkpt lat="45.76398" lon="6.12266">
        <ele>852</ele>
        <time>2021-09-10T12:42:36.587Z</time>
      </trkpt>
      <trkpt lat="45.76398" lon="6.12269">
        <ele>852</ele>
        <time>2021-09-10T12:42:37.587Z</time>
      </trkpt>
      <trkpt lat="45.76399" lon="6.12273">
        <ele>852</ele>
        <time>2021-09-10T12:42:38.587Z</time>
      </trkpt>
      <trkpt lat="45.764" lon="6.12276">
        <ele>852</ele>
        <time>2021-09-10T12:42:39.587Z</time>
      </trkpt>
      <trkpt lat="45.76401" lon="6.1228">
        <ele>852</ele>
        <time>2021-09-10T12:42:40.587Z</time>
      </trkpt>
      <trkpt lat="45.76401" lon="6.12283">
        <ele>853</ele>
        <time>2021-09-10T12:42:41.587Z</time>
      </trkpt>
      <trkpt lat="45.76401" lon="6.12286">
        <ele>853</ele>
        <time>2021-09-10T12:42:42.586Z</time>
      </trkpt>
      <trkpt lat="45.76401" lon="6.12289">
        <ele>853</ele>
        <time>2021-09-10T12:42:43.586Z</time>
      </trkpt>
      <trkpt lat="45.76401" lon="6.12292">
        <ele>852</ele>
        <time>2021-09-10T12:42:44.586Z</time>
      </trkpt>
      <trkpt lat="45.76401" lon="6.12295">
        <ele>852</ele>
        <time>2021-09-10T12:42:45.586Z</time>
      </trkpt>
      <trkpt lat="45.76401" lon="6.12299">
        <ele>852</ele>
        <time>2021-09-10T12:42:46.587Z</time>
      </trkpt>
      <trkpt lat="45.76402" lon="6.12302">
        <ele>851</ele>
        <time>2021-09-10T12:42:47.587Z</time>
      </trkpt>
      <trkpt lat="45.76402" lon="6.12305">
        <ele>851</ele>
        <time>2021-09-10T12:42:48.587Z</time>
      </trkpt>
      <trkpt lat="45.76403" lon="6.12309">
        <ele>851</ele>
        <time>2021-09-10T12:42:49.586Z</time>
      </trkpt>
      <trkpt lat="45.76403" lon="6.12313">
        <ele>852</ele>
        <time>2021-09-10T12:42:50.586Z</time>
      </trkpt>
      <trkpt lat="45.76403" lon="6.12317">
        <ele>852</ele>
        <time>2021-09-10T12:42:51.587Z</time>
      </trkpt>
      <trkpt lat="45.76404" lon="6.12321">
        <ele>852</ele>
        <time>2021-09-10T12:42:52.587Z</time>
      </trkpt>
      <trkpt lat="45.76404" lon="6.12324">
        <ele>852</ele>
        <time>2021-09-10T12:42:53.587Z</time>
      </trkpt>
      <trkpt lat="45.76404" lon="6.12328">
        <ele>853</ele>
        <time>2021-09-10T12:42:54.586Z</time>
      </trkpt>
      <trkpt lat="45.76404" lon="6.12331">
        <ele>853</ele>
        <time>2021-09-10T12:42:55.586Z</time>
      </trkpt>
      <trkpt lat="45.76405" lon="6.12335">
        <ele>853</ele>
        <time>2021-09-10T12:42:56.587Z</time>
      </trkpt>
      <trkpt lat="45.76405" lon="6.12339">
        <ele>854</ele>
        <time>2021-09-10T12:42:57.587Z</time>
      </trkpt>
      <trkpt lat="45.76404" lon="6.12343">
        <ele>855</ele>
        <time>2021-09-10T12:42:58.587Z</time>
      </trkpt>
      <trkpt lat="45.76404" lon="6.12346">
        <ele>855</ele>
        <time>2021-09-10T12:42:59.586Z</time>
      </trkpt>
      <trkpt lat="45.76404" lon="6.1235">
        <ele>856</ele>
        <time>2021-09-10T12:43:00.586Z</time>
      </trkpt>
      <trkpt lat="45.76404" lon="6.12353">
        <ele>856</ele>
        <time>2021-09-10T12:43:01.587Z</time>
      </trkpt>
      <trkpt lat="45.76404" lon="6.12357">
        <ele>856</ele>
        <time>2021-09-10T12:43:02.587Z</time>
      </trkpt>
      <trkpt lat="45.76405" lon="6.1236">
        <ele>856</ele>
        <time>2021-09-10T12:43:03.586Z</time>
      </trkpt>
      <trkpt lat="45.76405" lon="6.12364">
        <ele>856</ele>
        <time>2021-09-10T12:43:04.587Z</time>
      </trkpt>
      <trkpt lat="45.76405" lon="6.12368">
        <ele>856</ele>
        <time>2021-09-10T12:43:05.586Z</time>
      </trkpt>
      <trkpt lat="45.76405" lon="6.12371">
        <ele>856</ele>
        <time>2021-09-10T12:43:06.586Z</time>
      </trkpt>
      <trkpt lat="45.76405" lon="6.12375">
        <ele>856</ele>
        <time>2021-09-10T12:43:07.586Z</time>
      </trkpt>
      <trkpt lat="45.76405" lon="6.12378">
        <ele>857</ele>
        <time>2021-09-10T12:43:08.586Z</time>
      </trkpt>
      <trkpt lat="45.76405" lon="6.12382">
        <ele>857</ele>
        <time>2021-09-10T12:43:09.586Z</time>
      </trkpt>
      <trkpt lat="45.76406" lon="6.12384">
        <ele>857</ele>
        <time>2021-09-10T12:43:10.586Z</time>
      </trkpt>
      <trkpt lat="45.76407" lon="6.12388">
        <ele>858</ele>
        <time>2021-09-10T12:43:11.586Z</time>
      </trkpt>
      <trkpt lat="45.76408" lon="6.12391">
        <ele>858</ele>
        <time>2021-09-10T12:43:12.587Z</time>
      </trkpt>
      <trkpt lat="45.76409" lon="6.12394">
        <ele>858</ele>
        <time>2021-09-10T12:43:13.587Z</time>
      </trkpt>
      <trkpt lat="45.7641" lon="6.12398">
        <ele>858</ele>
        <time>2021-09-10T12:43:14.586Z</time>
      </trkpt>
      <trkpt lat="45.76411" lon="6.12401">
        <ele>858</ele>
        <time>2021-09-10T12:43:15.586Z</time>
      </trkpt>
      <trkpt lat="45.76412" lon="6.12403">
        <ele>858</ele>
        <time>2021-09-10T12:43:16.586Z</time>
      </trkpt>
      <trkpt lat="45.76414" lon="6.12407">
        <ele>858</ele>
        <time>2021-09-10T12:43:17.587Z</time>
      </trkpt>
      <trkpt lat="45.76416" lon="6.12411">
        <ele>858</ele>
        <time>2021-09-10T12:43:18.586Z</time>
      </trkpt>
      <trkpt lat="45.76417" lon="6.12414">
        <ele>858</ele>
        <time>2021-09-10T12:43:19.586Z</time>
      </trkpt>
      <trkpt lat="45.76419" lon="6.12417">
        <ele>858</ele>
        <time>2021-09-10T12:43:20.586Z</time>
      </trkpt>
      <trkpt lat="45.7642" lon="6.12421">
        <ele>857</ele>
        <time>2021-09-10T12:43:21.587Z</time>
      </trkpt>
      <trkpt lat="45.76422" lon="6.12424">
        <ele>857</ele>
        <time>2021-09-10T12:43:22.587Z</time>
      </trkpt>
      <trkpt lat="45.76424" lon="6.12427">
        <ele>857</ele>
        <time>2021-09-10T12:43:23.587Z</time>
      </trkpt>
      <trkpt lat="45.76426" lon="6.1243">
        <ele>857</ele>
        <time>2021-09-10T12:43:24.587Z</time>
      </trkpt>
      <trkpt lat="45.76428" lon="6.12432">
        <ele>858</ele>
        <time>2021-09-10T12:43:25.586Z</time>
      </trkpt>
      <trkpt lat="45.76429" lon="6.12434">
        <ele>858</ele>
        <time>2021-09-10T12:43:26.587Z</time>
      </trkpt>
      <trkpt lat="45.76431" lon="6.12438">
        <ele>858</ele>
        <time>2021-09-10T12:43:27.587Z</time>
      </trkpt>
      <trkpt lat="45.76433" lon="6.1244">
        <ele>858</ele>
        <time>2021-09-10T12:43:28.587Z</time>
      </trkpt>
      <trkpt lat="45.76435" lon="6.12443">
        <ele>859</ele>
        <time>2021-09-10T12:43:29.587Z</time>
      </trkpt>
      <trkpt lat="45.76436" lon="6.12445">
        <ele>859</ele>
        <time>2021-09-10T12:43:30.587Z</time>
      </trkpt>
      <trkpt lat="45.76438" lon="6.12448">
        <ele>860</ele>
        <time>2021-09-10T12:43:31.586Z</time>
      </trkpt>
      <trkpt lat="45.7644" lon="6.12451">
        <ele>860</ele>
        <time>2021-09-10T12:43:32.587Z</time>
      </trkpt>
      <trkpt lat="45.76442" lon="6.12453">
        <ele>860</ele>
        <time>2021-09-10T12:43:33.586Z</time>
      </trkpt>
      <trkpt lat="45.76444" lon="6.12455">
        <ele>860</ele>
        <time>2021-09-10T12:43:34.587Z</time>
      </trkpt>
      <trkpt lat="45.76445" lon="6.12458">
        <ele>860</ele>
        <time>2021-09-10T12:43:35.587Z</time>
      </trkpt>
      <trkpt lat="45.76447" lon="6.1246">
        <ele>860</ele>
        <time>2021-09-10T12:43:36.587Z</time>
      </trkpt>
      <trkpt lat="45.76449" lon="6.12463">
        <ele>860</ele>
        <time>2021-09-10T12:43:37.587Z</time>
      </trkpt>
      <trkpt lat="45.76451" lon="6.12465">
        <ele>860</ele>
        <time>2021-09-10T12:43:38.586Z</time>
      </trkpt>
      <trkpt lat="45.76452" lon="6.12468">
        <ele>861</ele>
        <time>2021-09-10T12:43:39.587Z</time>
      </trkpt>
      <trkpt lat="45.76454" lon="6.1247">
        <ele>860</ele>
        <time>2021-09-10T12:43:40.587Z</time>
      </trkpt>
      <trkpt lat="45.76456" lon="6.12473">
        <ele>860</ele>
        <time>2021-09-10T12:43:41.587Z</time>
      </trkpt>
      <trkpt lat="45.76457" lon="6.12475">
        <ele>860</ele>
        <time>2021-09-10T12:43:42.587Z</time>
      </trkpt>
      <trkpt lat="45.76459" lon="6.12478">
        <ele>860</ele>
        <time>2021-09-10T12:43:43.587Z</time>
      </trkpt>
      <trkpt lat="45.76461" lon="6.1248">
        <ele>860</ele>
        <time>2021-09-10T12:43:44.586Z</time>
      </trkpt>
      <trkpt lat="45.76462" lon="6.12483">
        <ele>860</ele>
        <time>2021-09-10T12:43:45.586Z</time>
      </trkpt>
      <trkpt lat="45.76463" lon="6.12485">
        <ele>861</ele>
        <time>2021-09-10T12:43:46.587Z</time>
      </trkpt>
      <trkpt lat="45.76465" lon="6.12488">
        <ele>861</ele>
        <time>2021-09-10T12:43:47.586Z</time>
      </trkpt>
      <trkpt lat="45.76467" lon="6.12491">
        <ele>861</ele>
        <time>2021-09-10T12:43:48.587Z</time>
      </trkpt>
      <trkpt lat="45.76469" lon="6.12494">
        <ele>860</ele>
        <time>2021-09-10T12:43:49.587Z</time>
      </trkpt>
      <trkpt lat="45.76471" lon="6.12497">
        <ele>860</ele>
        <time>2021-09-10T12:43:50.587Z</time>
      </trkpt>
      <trkpt lat="45.76472" lon="6.12499">
        <ele>860</ele>
        <time>2021-09-10T12:43:51.587Z</time>
      </trkpt>
      <trkpt lat="45.76474" lon="6.12502">
        <ele>860</ele>
        <time>2021-09-10T12:43:52.586Z</time>
      </trkpt>
      <trkpt lat="45.76476" lon="6.12504">
        <ele>860</ele>
        <time>2021-09-10T12:43:53.587Z</time>
      </trkpt>
      <trkpt lat="45.76478" lon="6.12507">
        <ele>861</ele>
        <time>2021-09-10T12:43:54.586Z</time>
      </trkpt>
      <trkpt lat="45.7648" lon="6.12509">
        <ele>861</ele>
        <time>2021-09-10T12:43:55.587Z</time>
      </trkpt>
      <trkpt lat="45.76482" lon="6.12512">
        <ele>861</ele>
        <time>2021-09-10T12:43:56.587Z</time>
      </trkpt>
      <trkpt lat="45.76483" lon="6.12514">
        <ele>861</ele>
        <time>2021-09-10T12:43:57.587Z</time>
      </trkpt>
      <trkpt lat="45.76485" lon="6.12517">
        <ele>862</ele>
        <time>2021-09-10T12:43:58.587Z</time>
      </trkpt>
      <trkpt lat="45.76486" lon="6.12519">
        <ele>862</ele>
        <time>2021-09-10T12:43:59.587Z</time>
      </trkpt>
      <trkpt lat="45.76488" lon="6.12522">
        <ele>863</ele>
        <time>2021-09-10T12:44:00.587Z</time>
      </trkpt>
      <trkpt lat="45.7649" lon="6.12524">
        <ele>863</ele>
        <time>2021-09-10T12:44:01.586Z</time>
      </trkpt>
      <trkpt lat="45.76492" lon="6.12526">
        <ele>863</ele>
        <time>2021-09-10T12:44:02.587Z</time>
      </trkpt>
      <trkpt lat="45.76494" lon="6.12528">
        <ele>863</ele>
        <time>2021-09-10T12:44:03.587Z</time>
      </trkpt>
      <trkpt lat="45.76496" lon="6.1253">
        <ele>863</ele>
        <time>2021-09-10T12:44:04.586Z</time>
      </trkpt>
      <trkpt lat="45.76498" lon="6.12533">
        <ele>863</ele>
        <time>2021-09-10T12:44:05.587Z</time>
      </trkpt>
      <trkpt lat="45.765" lon="6.12535">
        <ele>863</ele>
        <time>2021-09-10T12:44:06.587Z</time>
      </trkpt>
      <trkpt lat="45.76503" lon="6.12536">
        <ele>863</ele>
        <time>2021-09-10T12:44:07.587Z</time>
      </trkpt>
      <trkpt lat="45.76505" lon="6.12538">
        <ele>863</ele>
        <time>2021-09-10T12:44:08.586Z</time>
      </trkpt>
      <trkpt lat="45.76507" lon="6.1254">
        <ele>863</ele>
        <time>2021-09-10T12:44:09.587Z</time>
      </trkpt>
      <trkpt lat="45.76509" lon="6.12542">
        <ele>863</ele>
        <time>2021-09-10T12:44:10.587Z</time>
      </trkpt>
      <trkpt lat="45.76512" lon="6.12544">
        <ele>862</ele>
        <time>2021-09-10T12:44:11.586Z</time>
      </trkpt>
      <trkpt lat="45.76514" lon="6.12546">
        <ele>862</ele>
        <time>2021-09-10T12:44:12.587Z</time>
      </trkpt>
      <trkpt lat="45.76516" lon="6.12547">
        <ele>862</ele>
        <time>2021-09-10T12:44:13.587Z</time>
      </trkpt>
      <trkpt lat="45.76519" lon="6.12549">
        <ele>862</ele>
        <time>2021-09-10T12:44:14.587Z</time>
      </trkpt>
      <trkpt lat="45.76521" lon="6.12551">
        <ele>862</ele>
        <time>2021-09-10T12:44:15.586Z</time>
      </trkpt>
      <trkpt lat="45.76523" lon="6.12553">
        <ele>862</ele>
        <time>2021-09-10T12:44:16.586Z</time>
      </trkpt>
      <trkpt lat="45.76525" lon="6.12554">
        <ele>863</ele>
        <time>2021-09-10T12:44:17.587Z</time>
      </trkpt>
      <trkpt lat="45.76527" lon="6.12556">
        <ele>863</ele>
        <time>2021-09-10T12:44:18.587Z</time>
      </trkpt>
      <trkpt lat="45.7653" lon="6.12558">
        <ele>863</ele>
        <time>2021-09-10T12:44:19.587Z</time>
      </trkpt>
      <trkpt lat="45.76532" lon="6.1256">
        <ele>863</ele>
        <time>2021-09-10T12:44:20.587Z</time>
      </trkpt>
      <trkpt lat="45.76534" lon="6.12561">
        <ele>863</ele>
        <time>2021-09-10T12:44:21.587Z</time>
      </trkpt>
      <trkpt lat="45.76536" lon="6.12563">
        <ele>863</ele>
        <time>2021-09-10T12:44:22.587Z</time>
      </trkpt>
      <trkpt lat="45.76539" lon="6.12565">
        <ele>864</ele>
        <time>2021-09-10T12:44:23.587Z</time>
      </trkpt>
      <trkpt lat="45.76541" lon="6.12566">
        <ele>864</ele>
        <time>2021-09-10T12:44:24.586Z</time>
      </trkpt>
      <trkpt lat="45.76543" lon="6.12568">
        <ele>864</ele>
        <time>2021-09-10T12:44:25.587Z</time>
      </trkpt>
      <trkpt lat="45.76545" lon="6.1257">
        <ele>865</ele>
        <time>2021-09-10T12:44:26.586Z</time>
      </trkpt>
      <trkpt lat="45.76548" lon="6.12571">
        <ele>865</ele>
        <time>2021-09-10T12:44:27.587Z</time>
      </trkpt>
      <trkpt lat="45.7655" lon="6.12573">
        <ele>866</ele>
        <time>2021-09-10T12:44:28.587Z</time>
      </trkpt>
      <trkpt lat="45.76552" lon="6.12575">
        <ele>865</ele>
        <time>2021-09-10T12:44:29.587Z</time>
      </trkpt>
      <trkpt lat="45.76555" lon="6.12576">
        <ele>865</ele>
        <time>2021-09-10T12:44:30.586Z</time>
      </trkpt>
      <trkpt lat="45.76557" lon="6.12578">
        <ele>865</ele>
        <time>2021-09-10T12:44:31.587Z</time>
      </trkpt>
      <trkpt lat="45.76559" lon="6.1258">
        <ele>865</ele>
        <time>2021-09-10T12:44:32.586Z</time>
      </trkpt>
      <trkpt lat="45.76562" lon="6.12582">
        <ele>864</ele>
        <time>2021-09-10T12:44:33.587Z</time>
      </trkpt>
      <trkpt lat="45.76564" lon="6.12583">
        <ele>864</ele>
        <time>2021-09-10T12:44:34.586Z</time>
      </trkpt>
      <trkpt lat="45.76567" lon="6.12585">
        <ele>864</ele>
        <time>2021-09-10T12:44:35.587Z</time>
      </trkpt>
      <trkpt lat="45.76569" lon="6.12587">
        <ele>864</ele>
        <time>2021-09-10T12:44:36.587Z</time>
      </trkpt>
      <trkpt lat="45.76571" lon="6.12588">
        <ele>864</ele>
        <time>2021-09-10T12:44:37.587Z</time>
      </trkpt>
      <trkpt lat="45.76573" lon="6.1259">
        <ele>864</ele>
        <time>2021-09-10T12:44:38.587Z</time>
      </trkpt>
      <trkpt lat="45.76575" lon="6.12592">
        <ele>864</ele>
        <time>2021-09-10T12:44:39.586Z</time>
      </trkpt>
      <trkpt lat="45.76578" lon="6.12593">
        <ele>865</ele>
        <time>2021-09-10T12:44:40.587Z</time>
      </trkpt>
      <trkpt lat="45.7658" lon="6.12595">
        <ele>864</ele>
        <time>2021-09-10T12:44:41.587Z</time>
      </trkpt>
      <trkpt lat="45.76582" lon="6.12596">
        <ele>864</ele>
        <time>2021-09-10T12:44:42.587Z</time>
      </trkpt>
      <trkpt lat="45.76584" lon="6.12598">
        <ele>864</ele>
        <time>2021-09-10T12:44:43.587Z</time>
      </trkpt>
      <trkpt lat="45.76587" lon="6.12599">
        <ele>865</ele>
        <time>2021-09-10T12:44:44.587Z</time>
      </trkpt>
      <trkpt lat="45.76589" lon="6.126">
        <ele>865</ele>
        <time>2021-09-10T12:44:45.587Z</time>
      </trkpt>
      <trkpt lat="45.76591" lon="6.12602">
        <ele>865</ele>
        <time>2021-09-10T12:44:46.587Z</time>
      </trkpt>
      <trkpt lat="45.76593" lon="6.12604">
        <ele>866</ele>
        <time>2021-09-10T12:44:47.587Z</time>
      </trkpt>
      <trkpt lat="45.76595" lon="6.12605">
        <ele>866</ele>
        <time>2021-09-10T12:44:48.587Z</time>
      </trkpt>
      <trkpt lat="45.76597" lon="6.12607">
        <ele>867</ele>
        <time>2021-09-10T12:44:49.586Z</time>
      </trkpt>
      <trkpt lat="45.76599" lon="6.12609">
        <ele>867</ele>
        <time>2021-09-10T12:44:50.587Z</time>
      </trkpt>
      <trkpt lat="45.76602" lon="6.1261">
        <ele>868</ele>
        <time>2021-09-10T12:44:51.587Z</time>
      </trkpt>
      <trkpt lat="45.76604" lon="6.12612">
        <ele>868</ele>
        <time>2021-09-10T12:44:52.587Z</time>
      </trkpt>
      <trkpt lat="45.76606" lon="6.12614">
        <ele>868</ele>
        <time>2021-09-10T12:44:53.586Z</time>
      </trkpt>
      <trkpt lat="45.76608" lon="6.12615">
        <ele>868</ele>
        <time>2021-09-10T12:44:54.587Z</time>
      </trkpt>
      <trkpt lat="45.7661" lon="6.12617">
        <ele>868</ele>
        <time>2021-09-10T12:44:55.586Z</time>
      </trkpt>
      <trkpt lat="45.76612" lon="6.12619">
        <ele>868</ele>
        <time>2021-09-10T12:44:56.587Z</time>
      </trkpt>
      <trkpt lat="45.76614" lon="6.1262">
        <ele>867</ele>
        <time>2021-09-10T12:44:57.586Z</time>
      </trkpt>
      <trkpt lat="45.76616" lon="6.12622">
        <ele>867</ele>
        <time>2021-09-10T12:44:58.587Z</time>
      </trkpt>
      <trkpt lat="45.76618" lon="6.12623">
        <ele>867</ele>
        <time>2021-09-10T12:44:59.586Z</time>
      </trkpt>
      <trkpt lat="45.7662" lon="6.12625">
        <ele>867</ele>
        <time>2021-09-10T12:45:00.586Z</time>
      </trkpt>
      <trkpt lat="45.76623" lon="6.12627">
        <ele>867</ele>
        <time>2021-09-10T12:45:01.587Z</time>
      </trkpt>
      <trkpt lat="45.76625" lon="6.12628">
        <ele>867</ele>
        <time>2021-09-10T12:45:02.587Z</time>
      </trkpt>
      <trkpt lat="45.76627" lon="6.1263">
        <ele>867</ele>
        <time>2021-09-10T12:45:03.587Z</time>
      </trkpt>
      <trkpt lat="45.7663" lon="6.12632">
        <ele>867</ele>
        <time>2021-09-10T12:45:04.587Z</time>
      </trkpt>
      <trkpt lat="45.76632" lon="6.12633">
        <ele>867</ele>
        <time>2021-09-10T12:45:05.586Z</time>
      </trkpt>
      <trkpt lat="45.76634" lon="6.12635">
        <ele>867</ele>
        <time>2021-09-10T12:45:06.587Z</time>
      </trkpt>
      <trkpt lat="45.76636" lon="6.12636">
        <ele>867</ele>
        <time>2021-09-10T12:45:07.587Z</time>
      </trkpt>
      <trkpt lat="45.76638" lon="6.12638">
        <ele>867</ele>
        <time>2021-09-10T12:45:08.587Z</time>
      </trkpt>
      <trkpt lat="45.76641" lon="6.12639">
        <ele>868</ele>
        <time>2021-09-10T12:45:09.586Z</time>
      </trkpt>
      <trkpt lat="45.76643" lon="6.12641">
        <ele>867</ele>
        <time>2021-09-10T12:45:10.586Z</time>
      </trkpt>
      <trkpt lat="45.76645" lon="6.12643">
        <ele>868</ele>
        <time>2021-09-10T12:45:11.587Z</time>
      </trkpt>
      <trkpt lat="45.76647" lon="6.12644">
        <ele>868</ele>
        <time>2021-09-10T12:45:12.587Z</time>
      </trkpt>
      <trkpt lat="45.76649" lon="6.12646">
        <ele>868</ele>
        <time>2021-09-10T12:45:13.587Z</time>
      </trkpt>
      <trkpt lat="45.76651" lon="6.12647">
        <ele>868</ele>
        <time>2021-09-10T12:45:14.587Z</time>
      </trkpt>
      <trkpt lat="45.76653" lon="6.12648">
        <ele>868</ele>
        <time>2021-09-10T12:45:15.586Z</time>
      </trkpt>
      <trkpt lat="45.76655" lon="6.1265">
        <ele>868</ele>
        <time>2021-09-10T12:45:16.587Z</time>
      </trkpt>
      <trkpt lat="45.76657" lon="6.12651">
        <ele>868</ele>
        <time>2021-09-10T12:45:17.587Z</time>
      </trkpt>
      <trkpt lat="45.7666" lon="6.12652">
        <ele>868</ele>
        <time>2021-09-10T12:45:18.587Z</time>
      </trkpt>
      <trkpt lat="45.76662" lon="6.12654">
        <ele>868</ele>
        <time>2021-09-10T12:45:19.586Z</time>
      </trkpt>
      <trkpt lat="45.76664" lon="6.12655">
        <ele>868</ele>
        <time>2021-09-10T12:45:20.586Z</time>
      </trkpt>
      <trkpt lat="45.76666" lon="6.12656">
        <ele>868</ele>
        <time>2021-09-10T12:45:21.587Z</time>
      </trkpt>
      <trkpt lat="45.76668" lon="6.12658">
        <ele>868</ele>
        <time>2021-09-10T12:45:22.586Z</time>
      </trkpt>
      <trkpt lat="45.76671" lon="6.12659">
        <ele>868</ele>
        <time>2021-09-10T12:45:23.587Z</time>
      </trkpt>
      <trkpt lat="45.76673" lon="6.1266">
        <ele>869</ele>
        <time>2021-09-10T12:45:24.586Z</time>
      </trkpt>
      <trkpt lat="45.76675" lon="6.12661">
        <ele>869</ele>
        <time>2021-09-10T12:45:25.586Z</time>
      </trkpt>
      <trkpt lat="45.76677" lon="6.12663">
        <ele>869</ele>
        <time>2021-09-10T12:45:26.587Z</time>
      </trkpt>
      <trkpt lat="45.7668" lon="6.12664">
        <ele>869</ele>
        <time>2021-09-10T12:45:27.587Z</time>
      </trkpt>
      <trkpt lat="45.76682" lon="6.12666">
        <ele>870</ele>
        <time>2021-09-10T12:45:28.587Z</time>
      </trkpt>
      <trkpt lat="45.76684" lon="6.12667">
        <ele>870</ele>
        <time>2021-09-10T12:45:29.586Z</time>
      </trkpt>
      <trkpt lat="45.76686" lon="6.12668">
        <ele>870</ele>
        <time>2021-09-10T12:45:30.587Z</time>
      </trkpt>
      <trkpt lat="45.76689" lon="6.1267">
        <ele>870</ele>
        <time>2021-09-10T12:45:31.587Z</time>
      </trkpt>
      <trkpt lat="45.76691" lon="6.12671">
        <ele>870</ele>
        <time>2021-09-10T12:45:32.587Z</time>
      </trkpt>
      <trkpt lat="45.76693" lon="6.12672">
        <ele>871</ele>
        <time>2021-09-10T12:45:33.587Z</time>
      </trkpt>
      <trkpt lat="45.76695" lon="6.12673">
        <ele>871</ele>
        <time>2021-09-10T12:45:34.587Z</time>
      </trkpt>
      <trkpt lat="45.76697" lon="6.12674">
        <ele>871</ele>
        <time>2021-09-10T12:45:35.587Z</time>
      </trkpt>
      <trkpt lat="45.767" lon="6.12675">
        <ele>871</ele>
        <time>2021-09-10T12:45:36.587Z</time>
      </trkpt>
      <trkpt lat="45.76702" lon="6.12676">
        <ele>871</ele>
        <time>2021-09-10T12:45:37.586Z</time>
      </trkpt>
      <trkpt lat="45.76704" lon="6.12677">
        <ele>870</ele>
        <time>2021-09-10T12:45:38.586Z</time>
      </trkpt>
      <trkpt lat="45.76706" lon="6.12678">
        <ele>870</ele>
        <time>2021-09-10T12:45:39.587Z</time>
      </trkpt>
      <trkpt lat="45.76709" lon="6.12679">
        <ele>870</ele>
        <time>2021-09-10T12:45:40.587Z</time>
      </trkpt>
      <trkpt lat="45.76711" lon="6.12681">
        <ele>870</ele>
        <time>2021-09-10T12:45:41.587Z</time>
      </trkpt>
      <trkpt lat="45.76713" lon="6.12682">
        <ele>870</ele>
        <time>2021-09-10T12:45:42.587Z</time>
      </trkpt>
      <trkpt lat="45.76715" lon="6.12683">
        <ele>870</ele>
        <time>2021-09-10T12:45:43.587Z</time>
      </trkpt>
      <trkpt lat="45.76717" lon="6.12684">
        <ele>870</ele>
        <time>2021-09-10T12:45:44.587Z</time>
      </trkpt>
      <trkpt lat="45.76719" lon="6.12685">
        <ele>871</ele>
        <time>2021-09-10T12:45:45.587Z</time>
      </trkpt>
      <trkpt lat="45.76722" lon="6.12686">
        <ele>871</ele>
        <time>2021-09-10T12:45:46.587Z</time>
      </trkpt>
      <trkpt lat="45.76724" lon="6.12687">
        <ele>871</ele>
        <time>2021-09-10T12:45:47.586Z</time>
      </trkpt>
      <trkpt lat="45.76726" lon="6.12688">
        <ele>871</ele>
        <time>2021-09-10T12:45:48.587Z</time>
      </trkpt>
      <trkpt lat="45.76729" lon="6.1269">
        <ele>872</ele>
        <time>2021-09-10T12:45:49.586Z</time>
      </trkpt>
      <trkpt lat="45.76731" lon="6.12691">
        <ele>872</ele>
        <time>2021-09-10T12:45:50.586Z</time>
      </trkpt>
      <trkpt lat="45.76733" lon="6.12692">
        <ele>872</ele>
        <time>2021-09-10T12:45:51.587Z</time>
      </trkpt>
      <trkpt lat="45.76735" lon="6.12693">
        <ele>873</ele>
        <time>2021-09-10T12:45:52.587Z</time>
      </trkpt>
      <trkpt lat="45.76738" lon="6.12695">
        <ele>873</ele>
        <time>2021-09-10T12:45:53.586Z</time>
      </trkpt>
      <trkpt lat="45.7674" lon="6.12696">
        <ele>873</ele>
        <time>2021-09-10T12:45:54.587Z</time>
      </trkpt>
      <trkpt lat="45.76742" lon="6.12697">
        <ele>873</ele>
        <time>2021-09-10T12:45:55.587Z</time>
      </trkpt>
      <trkpt lat="45.76745" lon="6.12698">
        <ele>873</ele>
        <time>2021-09-10T12:45:56.587Z</time>
      </trkpt>
      <trkpt lat="45.76747" lon="6.127">
        <ele>873</ele>
        <time>2021-09-10T12:45:57.587Z</time>
      </trkpt>
      <trkpt lat="45.76749" lon="6.12701">
        <ele>873</ele>
        <time>2021-09-10T12:45:58.586Z</time>
      </trkpt>
      <trkpt lat="45.76752" lon="6.12702">
        <ele>873</ele>
        <time>2021-09-10T12:45:59.587Z</time>
      </trkpt>
      <trkpt lat="45.76754" lon="6.12704">
        <ele>873</ele>
        <time>2021-09-10T12:46:00.586Z</time>
      </trkpt>
      <trkpt lat="45.76756" lon="6.12705">
        <ele>873</ele>
        <time>2021-09-10T12:46:01.587Z</time>
      </trkpt>
      <trkpt lat="45.76758" lon="6.12706">
        <ele>873</ele>
        <time>2021-09-10T12:46:02.587Z</time>
      </trkpt>
      <trkpt lat="45.7676" lon="6.12707">
        <ele>872</ele>
        <time>2021-09-10T12:46:03.587Z</time>
      </trkpt>
      <trkpt lat="45.76762" lon="6.12708">
        <ele>872</ele>
        <time>2021-09-10T12:46:04.587Z</time>
      </trkpt>
      <trkpt lat="45.76764" lon="6.12709">
        <ele>872</ele>
        <time>2021-09-10T12:46:05.586Z</time>
      </trkpt>
      <trkpt lat="45.76766" lon="6.1271">
        <ele>872</ele>
        <time>2021-09-10T12:46:06.587Z</time>
      </trkpt>
      <trkpt lat="45.76769" lon="6.12711">
        <ele>872</ele>
        <time>2021-09-10T12:46:07.587Z</time>
      </trkpt>
      <trkpt lat="45.76771" lon="6.12712">
        <ele>872</ele>
        <time>2021-09-10T12:46:08.586Z</time>
      </trkpt>
      <trkpt lat="45.76773" lon="6.12714">
        <ele>873</ele>
        <time>2021-09-10T12:46:09.586Z</time>
      </trkpt>
      <trkpt lat="45.76775" lon="6.12714">
        <ele>873</ele>
        <time>2021-09-10T12:46:10.587Z</time>
      </trkpt>
      <trkpt lat="45.76778" lon="6.12715">
        <ele>873</ele>
        <time>2021-09-10T12:46:11.586Z</time>
      </trkpt>
      <trkpt lat="45.7678" lon="6.12716">
        <ele>873</ele>
        <time>2021-09-10T12:46:12.587Z</time>
      </trkpt>
      <trkpt lat="45.76782" lon="6.12717">
        <ele>874</ele>
        <time>2021-09-10T12:46:13.586Z</time>
      </trkpt>
      <trkpt lat="45.76785" lon="6.12718">
        <ele>874</ele>
        <time>2021-09-10T12:46:14.586Z</time>
      </trkpt>
      <trkpt lat="45.76787" lon="6.12719">
        <ele>874</ele>
        <time>2021-09-10T12:46:15.587Z</time>
      </trkpt>
      <trkpt lat="45.76789" lon="6.1272">
        <ele>874</ele>
        <time>2021-09-10T12:46:16.587Z</time>
      </trkpt>
      <trkpt lat="45.76792" lon="6.1272">
        <ele>874</ele>
        <time>2021-09-10T12:46:17.587Z</time>
      </trkpt>
      <trkpt lat="45.76794" lon="6.12721">
        <ele>874</ele>
        <time>2021-09-10T12:46:18.586Z</time>
      </trkpt>
      <trkpt lat="45.76796" lon="6.12721">
        <ele>875</ele>
        <time>2021-09-10T12:46:19.587Z</time>
      </trkpt>
      <trkpt lat="45.76799" lon="6.12722">
        <ele>875</ele>
        <time>2021-09-10T12:46:20.587Z</time>
      </trkpt>
      <trkpt lat="45.76801" lon="6.12722">
        <ele>875</ele>
        <time>2021-09-10T12:46:21.587Z</time>
      </trkpt>
      <trkpt lat="45.76803" lon="6.12722">
        <ele>875</ele>
        <time>2021-09-10T12:46:22.587Z</time>
      </trkpt>
      <trkpt lat="45.76806" lon="6.12723">
        <ele>875</ele>
        <time>2021-09-10T12:46:23.587Z</time>
      </trkpt>
      <trkpt lat="45.76808" lon="6.12723">
        <ele>874</ele>
        <time>2021-09-10T12:46:24.586Z</time>
      </trkpt>
      <trkpt lat="45.7681" lon="6.12723">
        <ele>874</ele>
        <time>2021-09-10T12:46:25.586Z</time>
      </trkpt>
      <trkpt lat="45.76813" lon="6.12723">
        <ele>874</ele>
        <time>2021-09-10T12:46:26.587Z</time>
      </trkpt>
      <trkpt lat="45.76815" lon="6.12722">
        <ele>874</ele>
        <time>2021-09-10T12:46:27.587Z</time>
      </trkpt>
      <trkpt lat="45.76817" lon="6.12722">
        <ele>874</ele>
        <time>2021-09-10T12:46:28.587Z</time>
      </trkpt>
      <trkpt lat="45.76819" lon="6.12722">
        <ele>874</ele>
        <time>2021-09-10T12:46:29.587Z</time>
      </trkpt>
      <trkpt lat="45.76822" lon="6.12721">
        <ele>874</ele>
        <time>2021-09-10T12:46:30.586Z</time>
      </trkpt>
      <trkpt lat="45.76824" lon="6.12721">
        <ele>874</ele>
        <time>2021-09-10T12:46:31.586Z</time>
      </trkpt>
      <trkpt lat="45.76826" lon="6.12721">
        <ele>874</ele>
        <time>2021-09-10T12:46:32.587Z</time>
      </trkpt>
      <trkpt lat="45.76829" lon="6.12721">
        <ele>874</ele>
        <time>2021-09-10T12:46:33.587Z</time>
      </trkpt>
      <trkpt lat="45.76831" lon="6.12721">
        <ele>875</ele>
        <time>2021-09-10T12:46:34.587Z</time>
      </trkpt>
      <trkpt lat="45.76833" lon="6.1272">
        <ele>875</ele>
        <time>2021-09-10T12:46:35.587Z</time>
      </trkpt>
      <trkpt lat="45.76836" lon="6.1272">
        <ele>875</ele>
        <time>2021-09-10T12:46:36.587Z</time>
      </trkpt>
      <trkpt lat="45.76838" lon="6.1272">
        <ele>875</ele>
        <time>2021-09-10T12:46:37.586Z</time>
      </trkpt>
      <trkpt lat="45.7684" lon="6.12719">
        <ele>875</ele>
        <time>2021-09-10T12:46:38.587Z</time>
      </trkpt>
      <trkpt lat="45.76843" lon="6.12719">
        <ele>875</ele>
        <time>2021-09-10T12:46:39.586Z</time>
      </trkpt>
      <trkpt lat="45.76845" lon="6.12719">
        <ele>876</ele>
        <time>2021-09-10T12:46:40.587Z</time>
      </trkpt>
      <trkpt lat="45.76848" lon="6.12718">
        <ele>876</ele>
        <time>2021-09-10T12:46:41.587Z</time>
      </trkpt>
      <trkpt lat="45.7685" lon="6.12718">
        <ele>876</ele>
        <time>2021-09-10T12:46:42.586Z</time>
      </trkpt>
      <trkpt lat="45.76852" lon="6.12718">
        <ele>877</ele>
        <time>2021-09-10T12:46:43.587Z</time>
      </trkpt>
      <trkpt lat="45.76855" lon="6.12717">
        <ele>877</ele>
        <time>2021-09-10T12:46:44.587Z</time>
      </trkpt>
      <trkpt lat="45.76857" lon="6.12717">
        <ele>878</ele>
        <time>2021-09-10T12:46:45.587Z</time>
      </trkpt>
      <trkpt lat="45.76859" lon="6.12716">
        <ele>878</ele>
        <time>2021-09-10T12:46:46.587Z</time>
      </trkpt>
      <trkpt lat="45.76862" lon="6.12716">
        <ele>878</ele>
        <time>2021-09-10T12:46:47.587Z</time>
      </trkpt>
      <trkpt lat="45.76864" lon="6.12716">
        <ele>878</ele>
        <time>2021-09-10T12:46:48.587Z</time>
      </trkpt>
      <trkpt lat="45.76866" lon="6.12716">
        <ele>878</ele>
        <time>2021-09-10T12:46:49.587Z</time>
      </trkpt>
      <trkpt lat="45.76868" lon="6.12715">
        <ele>878</ele>
        <time>2021-09-10T12:46:50.587Z</time>
      </trkpt>
      <trkpt lat="45.76871" lon="6.12715">
        <ele>878</ele>
        <time>2021-09-10T12:46:51.586Z</time>
      </trkpt>
      <trkpt lat="45.76873" lon="6.12715">
        <ele>879</ele>
        <time>2021-09-10T12:46:52.587Z</time>
      </trkpt>
      <trkpt lat="45.76875" lon="6.12715">
        <ele>878</ele>
        <time>2021-09-10T12:46:53.587Z</time>
      </trkpt>
      <trkpt lat="45.76878" lon="6.12715">
        <ele>878</ele>
        <time>2021-09-10T12:46:54.587Z</time>
      </trkpt>
      <trkpt lat="45.7688" lon="6.12715">
        <ele>878</ele>
        <time>2021-09-10T12:46:55.586Z</time>
      </trkpt>
      <trkpt lat="45.76882" lon="6.12716">
        <ele>877</ele>
        <time>2021-09-10T12:46:56.587Z</time>
      </trkpt>
      <trkpt lat="45.76884" lon="6.12716">
        <ele>878</ele>
        <time>2021-09-10T12:46:57.587Z</time>
      </trkpt>
      <trkpt lat="45.76887" lon="6.12717">
        <ele>878</ele>
        <time>2021-09-10T12:46:58.587Z</time>
      </trkpt>
      <trkpt lat="45.76889" lon="6.12718">
        <ele>878</ele>
        <time>2021-09-10T12:46:59.586Z</time>
      </trkpt>
      <trkpt lat="45.76891" lon="6.1272">
        <ele>877</ele>
        <time>2021-09-10T12:47:00.587Z</time>
      </trkpt>
      <trkpt lat="45.76893" lon="6.12721">
        <ele>877</ele>
        <time>2021-09-10T12:47:01.586Z</time>
      </trkpt>
      <trkpt lat="45.76895" lon="6.12723">
        <ele>877</ele>
        <time>2021-09-10T12:47:02.587Z</time>
      </trkpt>
      <trkpt lat="45.76897" lon="6.12724">
        <ele>877</ele>
        <time>2021-09-10T12:47:03.586Z</time>
      </trkpt>
      <trkpt lat="45.769" lon="6.12726">
        <ele>878</ele>
        <time>2021-09-10T12:47:04.587Z</time>
      </trkpt>
      <trkpt lat="45.76902" lon="6.12728">
        <ele>878</ele>
        <time>2021-09-10T12:47:05.587Z</time>
      </trkpt>
      <trkpt lat="45.76904" lon="6.12729">
        <ele>879</ele>
        <time>2021-09-10T12:47:06.587Z</time>
      </trkpt>
      <trkpt lat="45.76906" lon="6.12731">
        <ele>879</ele>
        <time>2021-09-10T12:47:07.586Z</time>
      </trkpt>
      <trkpt lat="45.76908" lon="6.12733">
        <ele>879</ele>
        <time>2021-09-10T12:47:08.586Z</time>
      </trkpt>
      <trkpt lat="45.7691" lon="6.12735">
        <ele>880</ele>
        <time>2021-09-10T12:47:09.587Z</time>
      </trkpt>
      <trkpt lat="45.76912" lon="6.12737">
        <ele>880</ele>
        <time>2021-09-10T12:47:10.587Z</time>
      </trkpt>
      <trkpt lat="45.76914" lon="6.12739">
        <ele>880</ele>
        <time>2021-09-10T12:47:11.587Z</time>
      </trkpt>
      <trkpt lat="45.76916" lon="6.12741">
        <ele>880</ele>
        <time>2021-09-10T12:47:12.587Z</time>
      </trkpt>
      <trkpt lat="45.76918" lon="6.12743">
        <ele>880</ele>
        <time>2021-09-10T12:47:13.587Z</time>
      </trkpt>
      <trkpt lat="45.7692" lon="6.12745">
        <ele>880</ele>
        <time>2021-09-10T12:47:14.587Z</time>
      </trkpt>
      <trkpt lat="45.76921" lon="6.12747">
        <ele>880</ele>
        <time>2021-09-10T12:47:15.587Z</time>
      </trkpt>
      <trkpt lat="45.76923" lon="6.12749">
        <ele>880</ele>
        <time>2021-09-10T12:47:16.587Z</time>
      </trkpt>
      <trkpt lat="45.76925" lon="6.12751">
        <ele>880</ele>
        <time>2021-09-10T12:47:17.587Z</time>
      </trkpt>
      <trkpt lat="45.76927" lon="6.12753">
        <ele>880</ele>
        <time>2021-09-10T12:47:18.587Z</time>
      </trkpt>
      <trkpt lat="45.76929" lon="6.12755">
        <ele>880</ele>
        <time>2021-09-10T12:47:19.587Z</time>
      </trkpt>
      <trkpt lat="45.76931" lon="6.12757">
        <ele>879</ele>
        <time>2021-09-10T12:47:20.587Z</time>
      </trkpt>
      <trkpt lat="45.76933" lon="6.1276">
        <ele>879</ele>
        <time>2021-09-10T12:47:21.587Z</time>
      </trkpt>
      <trkpt lat="45.76935" lon="6.12762">
        <ele>880</ele>
        <time>2021-09-10T12:47:22.586Z</time>
      </trkpt>
      <trkpt lat="45.76937" lon="6.12763">
        <ele>880</ele>
        <time>2021-09-10T12:47:23.587Z</time>
      </trkpt>
      <trkpt lat="45.76938" lon="6.12766">
        <ele>880</ele>
        <time>2021-09-10T12:47:24.587Z</time>
      </trkpt>
      <trkpt lat="45.7694" lon="6.12768">
        <ele>880</ele>
        <time>2021-09-10T12:47:25.587Z</time>
      </trkpt>
      <trkpt lat="45.76942" lon="6.1277">
        <ele>880</ele>
        <time>2021-09-10T12:47:26.587Z</time>
      </trkpt>
      <trkpt lat="45.76944" lon="6.12772">
        <ele>880</ele>
        <time>2021-09-10T12:47:27.587Z</time>
      </trkpt>
      <trkpt lat="45.76946" lon="6.12774">
        <ele>881</ele>
        <time>2021-09-10T12:47:28.587Z</time>
      </trkpt>
      <trkpt lat="45.76948" lon="6.12776">
        <ele>881</ele>
        <time>2021-09-10T12:47:29.586Z</time>
      </trkpt>
      <trkpt lat="45.7695" lon="6.12778">
        <ele>881</ele>
        <time>2021-09-10T12:47:30.586Z</time>
      </trkpt>
      <trkpt lat="45.76952" lon="6.1278">
        <ele>881</ele>
        <time>2021-09-10T12:47:31.587Z</time>
      </trkpt>
      <trkpt lat="45.76954" lon="6.12782">
        <ele>881</ele>
        <time>2021-09-10T12:47:32.586Z</time>
      </trkpt>
      <trkpt lat="45.76956" lon="6.12784">
        <ele>881</ele>
        <time>2021-09-10T12:47:33.587Z</time>
      </trkpt>
      <trkpt lat="45.76958" lon="6.12786">
        <ele>882</ele>
        <time>2021-09-10T12:47:34.587Z</time>
      </trkpt>
      <trkpt lat="45.76959" lon="6.12789">
        <ele>882</ele>
        <time>2021-09-10T12:47:35.587Z</time>
      </trkpt>
      <trkpt lat="45.76961" lon="6.12791">
        <ele>882</ele>
        <time>2021-09-10T12:47:36.587Z</time>
      </trkpt>
      <trkpt lat="45.76963" lon="6.12793">
        <ele>882</ele>
        <time>2021-09-10T12:47:37.587Z</time>
      </trkpt>
      <trkpt lat="45.76965" lon="6.12795">
        <ele>882</ele>
        <time>2021-09-10T12:47:38.587Z</time>
      </trkpt>
      <trkpt lat="45.76967" lon="6.12797">
        <ele>882</ele>
        <time>2021-09-10T12:47:39.586Z</time>
      </trkpt>
      <trkpt lat="45.76968" lon="6.12799">
        <ele>882</ele>
        <time>2021-09-10T12:47:40.587Z</time>
      </trkpt>
      <trkpt lat="45.7697" lon="6.12801">
        <ele>882</ele>
        <time>2021-09-10T12:47:41.586Z</time>
      </trkpt>
      <trkpt lat="45.76972" lon="6.12803">
        <ele>881</ele>
        <time>2021-09-10T12:47:42.587Z</time>
      </trkpt>
      <trkpt lat="45.76974" lon="6.12805">
        <ele>881</ele>
        <time>2021-09-10T12:47:43.586Z</time>
      </trkpt>
      <trkpt lat="45.76976" lon="6.12808">
        <ele>881</ele>
        <time>2021-09-10T12:47:44.587Z</time>
      </trkpt>
      <trkpt lat="45.76978" lon="6.12809">
        <ele>881</ele>
        <time>2021-09-10T12:47:45.586Z</time>
      </trkpt>
      <trkpt lat="45.7698" lon="6.12811">
        <ele>882</ele>
        <time>2021-09-10T12:47:46.587Z</time>
      </trkpt>
      <trkpt lat="45.76982" lon="6.12814">
        <ele>882</ele>
        <time>2021-09-10T12:47:47.586Z</time>
      </trkpt>
      <trkpt lat="45.76984" lon="6.12816">
        <ele>881</ele>
        <time>2021-09-10T12:47:48.586Z</time>
      </trkpt>
      <trkpt lat="45.76986" lon="6.12819">
        <ele>881</ele>
        <time>2021-09-10T12:47:49.587Z</time>
      </trkpt>
      <trkpt lat="45.76988" lon="6.12821">
        <ele>881</ele>
        <time>2021-09-10T12:47:50.587Z</time>
      </trkpt>
      <trkpt lat="45.76989" lon="6.12823">
        <ele>881</ele>
        <time>2021-09-10T12:47:51.587Z</time>
      </trkpt>
      <trkpt lat="45.76991" lon="6.12826">
        <ele>881</ele>
        <time>2021-09-10T12:47:52.587Z</time>
      </trkpt>
      <trkpt lat="45.76993" lon="6.12829">
        <ele>881</ele>
        <time>2021-09-10T12:47:53.586Z</time>
      </trkpt>
      <trkpt lat="45.76994" lon="6.12831">
        <ele>881</ele>
        <time>2021-09-10T12:47:54.586Z</time>
      </trkpt>
      <trkpt lat="45.76996" lon="6.12834">
        <ele>882</ele>
        <time>2021-09-10T12:47:55.587Z</time>
      </trkpt>
      <trkpt lat="45.76998" lon="6.12836">
        <ele>882</ele>
        <time>2021-09-10T12:47:56.587Z</time>
      </trkpt>
      <trkpt lat="45.76999" lon="6.12839">
        <ele>882</ele>
        <time>2021-09-10T12:47:57.586Z</time>
      </trkpt>
      <trkpt lat="45.77001" lon="6.12842">
        <ele>882</ele>
        <time>2021-09-10T12:47:58.587Z</time>
      </trkpt>
      <trkpt lat="45.77002" lon="6.12845">
        <ele>882</ele>
        <time>2021-09-10T12:47:59.587Z</time>
      </trkpt>
      <trkpt lat="45.77004" lon="6.12848">
        <ele>883</ele>
        <time>2021-09-10T12:48:00.587Z</time>
      </trkpt>
      <trkpt lat="45.77005" lon="6.12852">
        <ele>883</ele>
        <time>2021-09-10T12:48:01.587Z</time>
      </trkpt>
      <trkpt lat="45.77006" lon="6.12855">
        <ele>883</ele>
        <time>2021-09-10T12:48:02.586Z</time>
      </trkpt>
      <trkpt lat="45.77007" lon="6.12859">
        <ele>883</ele>
        <time>2021-09-10T12:48:03.587Z</time>
      </trkpt>
      <trkpt lat="45.77007" lon="6.12862">
        <ele>883</ele>
        <time>2021-09-10T12:48:04.587Z</time>
      </trkpt>
      <trkpt lat="45.77008" lon="6.12866">
        <ele>883</ele>
        <time>2021-09-10T12:48:05.587Z</time>
      </trkpt>
      <trkpt lat="45.77009" lon="6.12868">
        <ele>883</ele>
        <time>2021-09-10T12:48:06.587Z</time>
      </trkpt>
      <trkpt lat="45.77009" lon="6.12873">
        <ele>883</ele>
        <time>2021-09-10T12:48:07.587Z</time>
      </trkpt>
      <trkpt lat="45.7701" lon="6.12876">
        <ele>884</ele>
        <time>2021-09-10T12:48:08.586Z</time>
      </trkpt>
      <trkpt lat="45.7701" lon="6.12879">
        <ele>884</ele>
        <time>2021-09-10T12:48:09.586Z</time>
      </trkpt>
      <trkpt lat="45.77011" lon="6.12882">
        <ele>885</ele>
        <time>2021-09-10T12:48:10.586Z</time>
      </trkpt>
      <trkpt lat="45.77011" lon="6.12886">
        <ele>885</ele>
        <time>2021-09-10T12:48:11.586Z</time>
      </trkpt>
      <trkpt lat="45.77012" lon="6.12889">
        <ele>885</ele>
        <time>2021-09-10T12:48:12.587Z</time>
      </trkpt>
      <trkpt lat="45.77012" lon="6.12893">
        <ele>886</ele>
        <time>2021-09-10T12:48:13.586Z</time>
      </trkpt>
      <trkpt lat="45.77013" lon="6.12896">
        <ele>886</ele>
        <time>2021-09-10T12:48:14.587Z</time>
      </trkpt>
      <trkpt lat="45.77013" lon="6.129">
        <ele>887</ele>
        <time>2021-09-10T12:48:15.587Z</time>
      </trkpt>
      <trkpt lat="45.77013" lon="6.12904">
        <ele>887</ele>
        <time>2021-09-10T12:48:16.587Z</time>
      </trkpt>
      <trkpt lat="45.77014" lon="6.12907">
        <ele>887</ele>
        <time>2021-09-10T12:48:17.587Z</time>
      </trkpt>
      <trkpt lat="45.77014" lon="6.12911">
        <ele>888</ele>
        <time>2021-09-10T12:48:18.586Z</time>
      </trkpt>
      <trkpt lat="45.77014" lon="6.12914">
        <ele>888</ele>
        <time>2021-09-10T12:48:19.587Z</time>
      </trkpt>
      <trkpt lat="45.77015" lon="6.12918">
        <ele>888</ele>
        <time>2021-09-10T12:48:20.587Z</time>
      </trkpt>
      <trkpt lat="45.77015" lon="6.12922">
        <ele>888</ele>
        <time>2021-09-10T12:48:21.587Z</time>
      </trkpt>
      <trkpt lat="45.77016" lon="6.12926">
        <ele>889</ele>
        <time>2021-09-10T12:48:22.587Z</time>
      </trkpt>
      <trkpt lat="45.77016" lon="6.12929">
        <ele>889</ele>
        <time>2021-09-10T12:48:23.586Z</time>
      </trkpt>
      <trkpt lat="45.77016" lon="6.12933">
        <ele>890</ele>
        <time>2021-09-10T12:48:24.586Z</time>
      </trkpt>
      <trkpt lat="45.77016" lon="6.12935">
        <ele>889</ele>
        <time>2021-09-10T12:48:25.586Z</time>
      </trkpt>
      <trkpt lat="45.77017" lon="6.12939">
        <ele>889</ele>
        <time>2021-09-10T12:48:26.587Z</time>
      </trkpt>
      <trkpt lat="45.77017" lon="6.12943">
        <ele>889</ele>
        <time>2021-09-10T12:48:27.587Z</time>
      </trkpt>
      <trkpt lat="45.77018" lon="6.12947">
        <ele>889</ele>
        <time>2021-09-10T12:48:28.586Z</time>
      </trkpt>
      <trkpt lat="45.77018" lon="6.1295">
        <ele>889</ele>
        <time>2021-09-10T12:48:29.587Z</time>
      </trkpt>
      <trkpt lat="45.77018" lon="6.12953">
        <ele>889</ele>
        <time>2021-09-10T12:48:30.586Z</time>
      </trkpt>
      <trkpt lat="45.77019" lon="6.12957">
        <ele>889</ele>
        <time>2021-09-10T12:48:31.587Z</time>
      </trkpt>
      <trkpt lat="45.7702" lon="6.12961">
        <ele>889</ele>
        <time>2021-09-10T12:48:32.587Z</time>
      </trkpt>
      <trkpt lat="45.7702" lon="6.12964">
        <ele>889</ele>
        <time>2021-09-10T12:48:33.587Z</time>
      </trkpt>
      <trkpt lat="45.77021" lon="6.12967">
        <ele>889</ele>
        <time>2021-09-10T12:48:34.587Z</time>
      </trkpt>
      <trkpt lat="45.77022" lon="6.12971">
        <ele>889</ele>
        <time>2021-09-10T12:48:35.586Z</time>
      </trkpt>
      <trkpt lat="45.77022" lon="6.12973">
        <ele>889</ele>
        <time>2021-09-10T12:48:36.587Z</time>
      </trkpt>
      <trkpt lat="45.77023" lon="6.12977">
        <ele>889</ele>
        <time>2021-09-10T12:48:37.586Z</time>
      </trkpt>
      <trkpt lat="45.77024" lon="6.12981">
        <ele>889</ele>
        <time>2021-09-10T12:48:38.587Z</time>
      </trkpt>
      <trkpt lat="45.77025" lon="6.12984">
        <ele>890</ele>
        <time>2021-09-10T12:48:39.587Z</time>
      </trkpt>
      <trkpt lat="45.77027" lon="6.12986">
        <ele>890</ele>
        <time>2021-09-10T12:48:40.586Z</time>
      </trkpt>
      <trkpt lat="45.77028" lon="6.12989">
        <ele>890</ele>
        <time>2021-09-10T12:48:41.586Z</time>
      </trkpt>
      <trkpt lat="45.77029" lon="6.12992">
        <ele>890</ele>
        <time>2021-09-10T12:48:42.587Z</time>
      </trkpt>
      <trkpt lat="45.77031" lon="6.12995">
        <ele>890</ele>
        <time>2021-09-10T12:48:43.587Z</time>
      </trkpt>
      <trkpt lat="45.77033" lon="6.12998">
        <ele>889</ele>
        <time>2021-09-10T12:48:44.586Z</time>
      </trkpt>
      <trkpt lat="45.77034" lon="6.13">
        <ele>889</ele>
        <time>2021-09-10T12:48:45.586Z</time>
      </trkpt>
      <trkpt lat="45.77036" lon="6.13003">
        <ele>890</ele>
        <time>2021-09-10T12:48:46.587Z</time>
      </trkpt>
      <trkpt lat="45.77038" lon="6.13006">
        <ele>890</ele>
        <time>2021-09-10T12:48:47.587Z</time>
      </trkpt>
      <trkpt lat="45.7704" lon="6.13009">
        <ele>890</ele>
        <time>2021-09-10T12:48:48.587Z</time>
      </trkpt>
      <trkpt lat="45.77042" lon="6.13011">
        <ele>891</ele>
        <time>2021-09-10T12:48:49.586Z</time>
      </trkpt>
      <trkpt lat="45.77043" lon="6.13014">
        <ele>891</ele>
        <time>2021-09-10T12:48:50.586Z</time>
      </trkpt>
      <trkpt lat="45.77045" lon="6.13016">
        <ele>891</ele>
        <time>2021-09-10T12:48:51.587Z</time>
      </trkpt>
      <trkpt lat="45.77047" lon="6.13019">
        <ele>891</ele>
        <time>2021-09-10T12:48:52.587Z</time>
      </trkpt>
      <trkpt lat="45.77049" lon="6.13021">
        <ele>891</ele>
        <time>2021-09-10T12:48:53.587Z</time>
      </trkpt>
      <trkpt lat="45.77052" lon="6.13023">
        <ele>891</ele>
        <time>2021-09-10T12:48:54.586Z</time>
      </trkpt>
      <trkpt lat="45.77054" lon="6.13026">
        <ele>891</ele>
        <time>2021-09-10T12:48:55.587Z</time>
      </trkpt>
      <trkpt lat="45.77056" lon="6.13028">
        <ele>891</ele>
        <time>2021-09-10T12:48:56.586Z</time>
      </trkpt>
      <trkpt lat="45.77058" lon="6.1303">
        <ele>891</ele>
        <time>2021-09-10T12:48:57.587Z</time>
      </trkpt>
      <trkpt lat="45.7706" lon="6.13032">
        <ele>891</ele>
        <time>2021-09-10T12:48:58.587Z</time>
      </trkpt>
      <trkpt lat="45.77062" lon="6.13034">
        <ele>891</ele>
        <time>2021-09-10T12:48:59.586Z</time>
      </trkpt>
      <trkpt lat="45.77064" lon="6.13036">
        <ele>891</ele>
        <time>2021-09-10T12:49:00.586Z</time>
      </trkpt>
      <trkpt lat="45.77066" lon="6.13037">
        <ele>891</ele>
        <time>2021-09-10T12:49:01.587Z</time>
      </trkpt>
      <trkpt lat="45.77068" lon="6.13039">
        <ele>891</ele>
        <time>2021-09-10T12:49:02.587Z</time>
      </trkpt>
      <trkpt lat="45.7707" lon="6.13042">
        <ele>891</ele>
        <time>2021-09-10T12:49:03.587Z</time>
      </trkpt>
      <trkpt lat="45.77072" lon="6.13043">
        <ele>892</ele>
        <time>2021-09-10T12:49:04.587Z</time>
      </trkpt>
      <trkpt lat="45.77074" lon="6.13045">
        <ele>892</ele>
        <time>2021-09-10T12:49:05.586Z</time>
      </trkpt>
      <trkpt lat="45.77076" lon="6.13047">
        <ele>892</ele>
        <time>2021-09-10T12:49:06.587Z</time>
      </trkpt>
      <trkpt lat="45.77078" lon="6.13049">
        <ele>892</ele>
        <time>2021-09-10T12:49:07.586Z</time>
      </trkpt>
      <trkpt lat="45.7708" lon="6.13051">
        <ele>892</ele>
        <time>2021-09-10T12:49:08.586Z</time>
      </trkpt>
      <trkpt lat="45.77082" lon="6.13053">
        <ele>891</ele>
        <time>2021-09-10T12:49:09.586Z</time>
      </trkpt>
      <trkpt lat="45.77084" lon="6.13055">
        <ele>891</ele>
        <time>2021-09-10T12:49:10.586Z</time>
      </trkpt>
      <trkpt lat="45.77086" lon="6.13057">
        <ele>891</ele>
        <time>2021-09-10T12:49:11.586Z</time>
      </trkpt>
      <trkpt lat="45.77088" lon="6.13059">
        <ele>891</ele>
        <time>2021-09-10T12:49:12.586Z</time>
      </trkpt>
      <trkpt lat="45.77089" lon="6.13062">
        <ele>891</ele>
        <time>2021-09-10T12:49:13.587Z</time>
      </trkpt>
      <trkpt lat="45.77091" lon="6.13064">
        <ele>891</ele>
        <time>2021-09-10T12:49:14.586Z</time>
      </trkpt>
      <trkpt lat="45.77093" lon="6.13066">
        <ele>891</ele>
        <time>2021-09-10T12:49:15.586Z</time>
      </trkpt>
      <trkpt lat="45.77095" lon="6.13068">
        <ele>891</ele>
        <time>2021-09-10T12:49:16.587Z</time>
      </trkpt>
      <trkpt lat="45.77097" lon="6.13071">
        <ele>891</ele>
        <time>2021-09-10T12:49:17.587Z</time>
      </trkpt>
      <trkpt lat="45.77099" lon="6.13073">
        <ele>891</ele>
        <time>2021-09-10T12:49:18.586Z</time>
      </trkpt>
      <trkpt lat="45.77101" lon="6.13076">
        <ele>891</ele>
        <time>2021-09-10T12:49:19.586Z</time>
      </trkpt>
      <trkpt lat="45.77102" lon="6.13078">
        <ele>892</ele>
        <time>2021-09-10T12:49:20.587Z</time>
      </trkpt>
      <trkpt lat="45.77104" lon="6.13081">
        <ele>892</ele>
        <time>2021-09-10T12:49:21.587Z</time>
      </trkpt>
      <trkpt lat="45.77107" lon="6.13083">
        <ele>892</ele>
        <time>2021-09-10T12:49:22.586Z</time>
      </trkpt>
      <trkpt lat="45.77109" lon="6.13085">
        <ele>892</ele>
        <time>2021-09-10T12:49:23.587Z</time>
      </trkpt>
      <trkpt lat="45.77111" lon="6.13087">
        <ele>892</ele>
        <time>2021-09-10T12:49:24.587Z</time>
      </trkpt>
      <trkpt lat="45.77113" lon="6.13088">
        <ele>892</ele>
        <time>2021-09-10T12:49:25.586Z</time>
      </trkpt>
      <trkpt lat="45.77115" lon="6.1309">
        <ele>892</ele>
        <time>2021-09-10T12:49:26.586Z</time>
      </trkpt>
      <trkpt lat="45.77117" lon="6.13092">
        <ele>893</ele>
        <time>2021-09-10T12:49:27.587Z</time>
      </trkpt>
      <trkpt lat="45.77119" lon="6.13094">
        <ele>894</ele>
        <time>2021-09-10T12:49:28.587Z</time>
      </trkpt>
      <trkpt lat="45.7712" lon="6.13097">
        <ele>894</ele>
        <time>2021-09-10T12:49:29.586Z</time>
      </trkpt>
      <trkpt lat="45.77122" lon="6.13099">
        <ele>894</ele>
        <time>2021-09-10T12:49:30.586Z</time>
      </trkpt>
      <trkpt lat="45.77124" lon="6.131">
        <ele>894</ele>
        <time>2021-09-10T12:49:31.587Z</time>
      </trkpt>
      <trkpt lat="45.77127" lon="6.13103">
        <ele>894</ele>
        <time>2021-09-10T12:49:32.587Z</time>
      </trkpt>
      <trkpt lat="45.77129" lon="6.13105">
        <ele>894</ele>
        <time>2021-09-10T12:49:33.587Z</time>
      </trkpt>
      <trkpt lat="45.77131" lon="6.13108">
        <ele>893</ele>
        <time>2021-09-10T12:49:34.586Z</time>
      </trkpt>
      <trkpt lat="45.77134" lon="6.1311">
        <ele>893</ele>
        <time>2021-09-10T12:49:35.587Z</time>
      </trkpt>
      <trkpt lat="45.77136" lon="6.13113">
        <ele>893</ele>
        <time>2021-09-10T12:49:36.586Z</time>
      </trkpt>
      <trkpt lat="45.77138" lon="6.13115">
        <ele>894</ele>
        <time>2021-09-10T12:49:37.587Z</time>
      </trkpt>
      <trkpt lat="45.7714" lon="6.13118">
        <ele>894</ele>
        <time>2021-09-10T12:49:38.587Z</time>
      </trkpt>
      <trkpt lat="45.77142" lon="6.1312">
        <ele>894</ele>
        <time>2021-09-10T12:49:39.586Z</time>
      </trkpt>
      <trkpt lat="45.77144" lon="6.13123">
        <ele>894</ele>
        <time>2021-09-10T12:49:40.586Z</time>
      </trkpt>
      <trkpt lat="45.77146" lon="6.13125">
        <ele>894</ele>
        <time>2021-09-10T12:49:41.587Z</time>
      </trkpt>
      <trkpt lat="45.77148" lon="6.13128">
        <ele>894</ele>
        <time>2021-09-10T12:49:42.587Z</time>
      </trkpt>
      <trkpt lat="45.7715" lon="6.1313">
        <ele>893</ele>
        <time>2021-09-10T12:49:43.587Z</time>
      </trkpt>
      <trkpt lat="45.77152" lon="6.13132">
        <ele>893</ele>
        <time>2021-09-10T12:49:44.586Z</time>
      </trkpt>
      <trkpt lat="45.77154" lon="6.13135">
        <ele>893</ele>
        <time>2021-09-10T12:49:45.587Z</time>
      </trkpt>
      <trkpt lat="45.77156" lon="6.13137">
        <ele>894</ele>
        <time>2021-09-10T12:49:46.586Z</time>
      </trkpt>
      <trkpt lat="45.77157" lon="6.13139">
        <ele>894</ele>
        <time>2021-09-10T12:49:47.586Z</time>
      </trkpt>
      <trkpt lat="45.77159" lon="6.13141">
        <ele>894</ele>
        <time>2021-09-10T12:49:48.587Z</time>
      </trkpt>
      <trkpt lat="45.77161" lon="6.13143">
        <ele>894</ele>
        <time>2021-09-10T12:49:49.587Z</time>
      </trkpt>
      <trkpt lat="45.77163" lon="6.13145">
        <ele>894</ele>
        <time>2021-09-10T12:49:50.587Z</time>
      </trkpt>
      <trkpt lat="45.77164" lon="6.13147">
        <ele>895</ele>
        <time>2021-09-10T12:49:51.587Z</time>
      </trkpt>
      <trkpt lat="45.77166" lon="6.13149">
        <ele>895</ele>
        <time>2021-09-10T12:49:52.587Z</time>
      </trkpt>
      <trkpt lat="45.77168" lon="6.13152">
        <ele>895</ele>
        <time>2021-09-10T12:49:53.587Z</time>
      </trkpt>
      <trkpt lat="45.77169" lon="6.13154">
        <ele>895</ele>
        <time>2021-09-10T12:49:54.586Z</time>
      </trkpt>
      <trkpt lat="45.77171" lon="6.13156">
        <ele>895</ele>
        <time>2021-09-10T12:49:55.586Z</time>
      </trkpt>
      <trkpt lat="45.77173" lon="6.13158">
        <ele>896</ele>
        <time>2021-09-10T12:49:56.587Z</time>
      </trkpt>
      <trkpt lat="45.77174" lon="6.1316">
        <ele>896</ele>
        <time>2021-09-10T12:49:57.586Z</time>
      </trkpt>
      <trkpt lat="45.77176" lon="6.13162">
        <ele>897</ele>
        <time>2021-09-10T12:49:58.586Z</time>
      </trkpt>
      <trkpt lat="45.77177" lon="6.13164">
        <ele>897</ele>
        <time>2021-09-10T12:49:59.587Z</time>
      </trkpt>
      <trkpt lat="45.77178" lon="6.13167">
        <ele>896</ele>
        <time>2021-09-10T12:50:00.587Z</time>
      </trkpt>
      <trkpt lat="45.77178" lon="6.13169">
        <ele>896</ele>
        <time>2021-09-10T12:50:01.586Z</time>
      </trkpt>
      <trkpt lat="45.77178" lon="6.13172">
        <ele>896</ele>
        <time>2021-09-10T12:50:02.587Z</time>
      </trkpt>
      <trkpt lat="45.77177" lon="6.13174">
        <ele>896</ele>
        <time>2021-09-10T12:50:03.587Z</time>
      </trkpt>
      <trkpt lat="45.77176" lon="6.13177">
        <ele>896</ele>
        <time>2021-09-10T12:50:04.587Z</time>
      </trkpt>
      <trkpt lat="45.77175" lon="6.13178">
        <ele>897</ele>
        <time>2021-09-10T12:50:05.586Z</time>
      </trkpt>
      <trkpt lat="45.77173" lon="6.13181">
        <ele>897</ele>
        <time>2021-09-10T12:50:06.587Z</time>
      </trkpt>
      <trkpt lat="45.77171" lon="6.13182">
        <ele>898</ele>
        <time>2021-09-10T12:50:07.587Z</time>
      </trkpt>
      <trkpt lat="45.7717" lon="6.13183">
        <ele>898</ele>
        <time>2021-09-10T12:50:08.587Z</time>
      </trkpt>
      <trkpt lat="45.77169" lon="6.13184">
        <ele>899</ele>
        <time>2021-09-10T12:50:09.586Z</time>
      </trkpt>
      <trkpt lat="45.77169" lon="6.13185">
        <ele>899</ele>
        <time>2021-09-10T12:50:10.587Z</time>
      </trkpt>
      <trkpt lat="45.77169" lon="6.13185">
        <ele>899</ele>
        <time>2021-09-10T12:50:11.587Z</time>
      </trkpt>
      <trkpt lat="45.77169" lon="6.13186">
        <ele>899</ele>
        <time>2021-09-10T12:50:12.587Z</time>
      </trkpt>
      <trkpt lat="45.77169" lon="6.13185">
        <ele>899</ele>
        <time>2021-09-10T12:50:13.587Z</time>
      </trkpt>
      <trkpt lat="45.77168" lon="6.13185">
        <ele>899</ele>
        <time>2021-09-10T12:50:14.586Z</time>
      </trkpt>
      <trkpt lat="45.77168" lon="6.13185">
        <ele>899</ele>
        <time>2021-09-10T12:50:15.587Z</time>
      </trkpt>
      <trkpt lat="45.77167" lon="6.13189">
        <ele>898</ele>
        <time>2021-09-10T12:50:16.588Z</time>
      </trkpt>
      <trkpt lat="45.77166" lon="6.13191">
        <ele>898</ele>
        <time>2021-09-10T12:50:17.588Z</time>
      </trkpt>
      <trkpt lat="45.77164" lon="6.13192">
        <ele>898</ele>
        <time>2021-09-10T12:50:18.587Z</time>
      </trkpt>
      <trkpt lat="45.77163" lon="6.13194">
        <ele>898</ele>
        <time>2021-09-10T12:50:19.588Z</time>
      </trkpt>
      <trkpt lat="45.77162" lon="6.13195">
        <ele>899</ele>
        <time>2021-09-10T12:50:20.587Z</time>
      </trkpt>
      <trkpt lat="45.77162" lon="6.13196">
        <ele>899</ele>
        <time>2021-09-10T12:50:21.587Z</time>
      </trkpt>
      <trkpt lat="45.77161" lon="6.13197">
        <ele>898</ele>
        <time>2021-09-10T12:50:22.588Z</time>
      </trkpt>
      <trkpt lat="45.77163" lon="6.13201">
        <ele>900</ele>
        <time>2021-09-10T12:50:23.589Z</time>
      </trkpt>
      <trkpt lat="45.77164" lon="6.13204">
        <ele>900</ele>
        <time>2021-09-10T12:50:24.589Z</time>
      </trkpt>
      <trkpt lat="45.77165" lon="6.13206">
        <ele>900</ele>
        <time>2021-09-10T12:50:25.588Z</time>
      </trkpt>
      <trkpt lat="45.77166" lon="6.13208">
        <ele>900</ele>
        <time>2021-09-10T12:50:26.589Z</time>
      </trkpt>
      <trkpt lat="45.77167" lon="6.13211">
        <ele>900</ele>
        <time>2021-09-10T12:50:27.589Z</time>
      </trkpt>
      <trkpt lat="45.77167" lon="6.13213">
        <ele>900</ele>
        <time>2021-09-10T12:50:28.589Z</time>
      </trkpt>
      <trkpt lat="45.77168" lon="6.13216">
        <ele>900</ele>
        <time>2021-09-10T12:50:29.589Z</time>
      </trkpt>
      <trkpt lat="45.77168" lon="6.13219">
        <ele>900</ele>
        <time>2021-09-10T12:50:30.589Z</time>
      </trkpt>
      <trkpt lat="45.77168" lon="6.13221">
        <ele>901</ele>
        <time>2021-09-10T12:50:31.588Z</time>
      </trkpt>
      <trkpt lat="45.77167" lon="6.13223">
        <ele>900</ele>
        <time>2021-09-10T12:50:32.588Z</time>
      </trkpt>
      <trkpt lat="45.77167" lon="6.13226">
        <ele>900</ele>
        <time>2021-09-10T12:50:33.589Z</time>
      </trkpt>
      <trkpt lat="45.77166" lon="6.13228">
        <ele>900</ele>
        <time>2021-09-10T12:50:34.589Z</time>
      </trkpt>
      <trkpt lat="45.77166" lon="6.1323">
        <ele>900</ele>
        <time>2021-09-10T12:50:35.589Z</time>
      </trkpt>
      <trkpt lat="45.77166" lon="6.13232">
        <ele>899</ele>
        <time>2021-09-10T12:50:36.588Z</time>
      </trkpt>
      <trkpt lat="45.77165" lon="6.13234">
        <ele>899</ele>
        <time>2021-09-10T12:50:37.588Z</time>
      </trkpt>
      <trkpt lat="45.77165" lon="6.13236">
        <ele>899</ele>
        <time>2021-09-10T12:50:38.589Z</time>
      </trkpt>
      <trkpt lat="45.77165" lon="6.13237">
        <ele>899</ele>
        <time>2021-09-10T12:50:39.588Z</time>
      </trkpt>
      <trkpt lat="45.77165" lon="6.13239">
        <ele>899</ele>
        <time>2021-09-10T12:50:40.589Z</time>
      </trkpt>
      <trkpt lat="45.77165" lon="6.1324">
        <ele>899</ele>
        <time>2021-09-10T12:50:41.589Z</time>
      </trkpt>
      <trkpt lat="45.77165" lon="6.13242">
        <ele>899</ele>
        <time>2021-09-10T12:50:42.589Z</time>
      </trkpt>
      <trkpt lat="45.77165" lon="6.13243">
        <ele>899</ele>
        <time>2021-09-10T12:50:43.589Z</time>
      </trkpt>
      <trkpt lat="45.77165" lon="6.13244">
        <ele>899</ele>
        <time>2021-09-10T12:50:44.589Z</time>
      </trkpt>
      <trkpt lat="45.77166" lon="6.13245">
        <ele>898</ele>
        <time>2021-09-10T12:50:45.589Z</time>
      </trkpt>
      <trkpt lat="45.77166" lon="6.13245">
        <ele>898</ele>
        <time>2021-09-10T12:50:46.589Z</time>
      </trkpt>
      <trkpt lat="45.77166" lon="6.13245">
        <ele>897</ele>
        <time>2021-09-10T12:50:47.589Z</time>
      </trkpt>
      <trkpt lat="45.77166" lon="6.13245">
        <ele>896</ele>
        <time>2021-09-10T12:50:48.589Z</time>
      </trkpt>
      <trkpt lat="45.77165" lon="6.13246">
        <ele>894</ele>
        <time>2021-09-10T12:50:49.589Z</time>
      </trkpt>
      <trkpt lat="45.77164" lon="6.13246">
        <ele>895</ele>
        <time>2021-09-10T12:50:50.588Z</time>
      </trkpt>
      <trkpt lat="45.77163" lon="6.13246">
        <ele>895</ele>
        <time>2021-09-10T12:50:51.588Z</time>
      </trkpt>
      <trkpt lat="45.77162" lon="6.13247">
        <ele>896</ele>
        <time>2021-09-10T12:50:52.589Z</time>
      </trkpt>
      <trkpt lat="45.77161" lon="6.13248">
        <ele>897</ele>
        <time>2021-09-10T12:50:53.589Z</time>
      </trkpt>
      <trkpt lat="45.7716" lon="6.1325">
        <ele>897</ele>
        <time>2021-09-10T12:50:54.589Z</time>
      </trkpt>
      <trkpt lat="45.77159" lon="6.13252">
        <ele>897</ele>
        <time>2021-09-10T12:50:55.589Z</time>
      </trkpt>
      <trkpt lat="45.77158" lon="6.13254">
        <ele>897</ele>
        <time>2021-09-10T12:50:56.588Z</time>
      </trkpt>
      <trkpt lat="45.77158" lon="6.13257">
        <ele>897</ele>
        <time>2021-09-10T12:50:57.589Z</time>
      </trkpt>
      <trkpt lat="45.77157" lon="6.13258">
        <ele>898</ele>
        <time>2021-09-10T12:50:58.589Z</time>
      </trkpt>
      <trkpt lat="45.77156" lon="6.1326">
        <ele>898</ele>
        <time>2021-09-10T12:50:59.588Z</time>
      </trkpt>
      <trkpt lat="45.77155" lon="6.13262">
        <ele>897</ele>
        <time>2021-09-10T12:51:00.589Z</time>
      </trkpt>
      <trkpt lat="45.77155" lon="6.13264">
        <ele>897</ele>
        <time>2021-09-10T12:51:01.589Z</time>
      </trkpt>
      <trkpt lat="45.77154" lon="6.13267">
        <ele>897</ele>
        <time>2021-09-10T12:51:02.589Z</time>
      </trkpt>
      <trkpt lat="45.77154" lon="6.13269">
        <ele>897</ele>
        <time>2021-09-10T12:51:03.589Z</time>
      </trkpt>
      <trkpt lat="45.77153" lon="6.13271">
        <ele>897</ele>
        <time>2021-09-10T12:51:04.589Z</time>
      </trkpt>
      <trkpt lat="45.77152" lon="6.13274">
        <ele>898</ele>
        <time>2021-09-10T12:51:05.588Z</time>
      </trkpt>
      <trkpt lat="45.77151" lon="6.13276">
        <ele>897</ele>
        <time>2021-09-10T12:51:06.589Z</time>
      </trkpt>
      <trkpt lat="45.7715" lon="6.13279">
        <ele>898</ele>
        <time>2021-09-10T12:51:07.588Z</time>
      </trkpt>
      <trkpt lat="45.77149" lon="6.13282">
        <ele>898</ele>
        <time>2021-09-10T12:51:08.589Z</time>
      </trkpt>
      <trkpt lat="45.77147" lon="6.13286">
        <ele>898</ele>
        <time>2021-09-10T12:51:09.589Z</time>
      </trkpt>
      <trkpt lat="45.77146" lon="6.13289">
        <ele>898</ele>
        <time>2021-09-10T12:51:10.589Z</time>
      </trkpt>
      <trkpt lat="45.77144" lon="6.13292">
        <ele>898</ele>
        <time>2021-09-10T12:51:11.589Z</time>
      </trkpt>
      <trkpt lat="45.77143" lon="6.13296">
        <ele>898</ele>
        <time>2021-09-10T12:51:12.589Z</time>
      </trkpt>
      <trkpt lat="45.77141" lon="6.13299">
        <ele>899</ele>
        <time>2021-09-10T12:51:13.589Z</time>
      </trkpt>
      <trkpt lat="45.77139" lon="6.13302">
        <ele>899</ele>
        <time>2021-09-10T12:51:14.589Z</time>
      </trkpt>
      <trkpt lat="45.77138" lon="6.13304">
        <ele>899</ele>
        <time>2021-09-10T12:51:15.589Z</time>
      </trkpt>
      <trkpt lat="45.77136" lon="6.13307">
        <ele>899</ele>
        <time>2021-09-10T12:51:16.588Z</time>
      </trkpt>
      <trkpt lat="45.77135" lon="6.13309">
        <ele>899</ele>
        <time>2021-09-10T12:51:17.588Z</time>
      </trkpt>
      <trkpt lat="45.77134" lon="6.13312">
        <ele>899</ele>
        <time>2021-09-10T12:51:18.588Z</time>
      </trkpt>
      <trkpt lat="45.77132" lon="6.13314">
        <ele>900</ele>
        <time>2021-09-10T12:51:19.589Z</time>
      </trkpt>
      <trkpt lat="45.77131" lon="6.13316">
        <ele>900</ele>
        <time>2021-09-10T12:51:20.589Z</time>
      </trkpt>
      <trkpt lat="45.77129" lon="6.13318">
        <ele>900</ele>
        <time>2021-09-10T12:51:21.588Z</time>
      </trkpt>
      <trkpt lat="45.77127" lon="6.13319">
        <ele>900</ele>
        <time>2021-09-10T12:51:22.588Z</time>
      </trkpt>
      <trkpt lat="45.77125" lon="6.1332">
        <ele>901</ele>
        <time>2021-09-10T12:51:23.589Z</time>
      </trkpt>
      <trkpt lat="45.77123" lon="6.13321">
        <ele>901</ele>
        <time>2021-09-10T12:51:24.588Z</time>
      </trkpt>
      <trkpt lat="45.77122" lon="6.13322">
        <ele>900</ele>
        <time>2021-09-10T12:51:25.589Z</time>
      </trkpt>
      <trkpt lat="45.7712" lon="6.13324">
        <ele>900</ele>
        <time>2021-09-10T12:51:26.588Z</time>
      </trkpt>
      <trkpt lat="45.77118" lon="6.13325">
        <ele>900</ele>
        <time>2021-09-10T12:51:27.588Z</time>
      </trkpt>
      <trkpt lat="45.77117" lon="6.13326">
        <ele>901</ele>
        <time>2021-09-10T12:51:28.589Z</time>
      </trkpt>
      <trkpt lat="45.77115" lon="6.13328">
        <ele>901</ele>
        <time>2021-09-10T12:51:29.588Z</time>
      </trkpt>
      <trkpt lat="45.77113" lon="6.13329">
        <ele>901</ele>
        <time>2021-09-10T12:51:30.588Z</time>
      </trkpt>
      <trkpt lat="45.77111" lon="6.13331">
        <ele>901</ele>
        <time>2021-09-10T12:51:31.588Z</time>
      </trkpt>
      <trkpt lat="45.7711" lon="6.13332">
        <ele>902</ele>
        <time>2021-09-10T12:51:32.589Z</time>
      </trkpt>
      <trkpt lat="45.77108" lon="6.13334">
        <ele>902</ele>
        <time>2021-09-10T12:51:33.589Z</time>
      </trkpt>
      <trkpt lat="45.77106" lon="6.13335">
        <ele>903</ele>
        <time>2021-09-10T12:51:34.589Z</time>
      </trkpt>
      <trkpt lat="45.77105" lon="6.13337">
        <ele>903</ele>
        <time>2021-09-10T12:51:35.589Z</time>
      </trkpt>
      <trkpt lat="45.77103" lon="6.13338">
        <ele>903</ele>
        <time>2021-09-10T12:51:36.589Z</time>
      </trkpt>
      <trkpt lat="45.77102" lon="6.1334">
        <ele>903</ele>
        <time>2021-09-10T12:51:37.589Z</time>
      </trkpt>
      <trkpt lat="45.771" lon="6.13341">
        <ele>903</ele>
        <time>2021-09-10T12:51:38.589Z</time>
      </trkpt>
      <trkpt lat="45.77098" lon="6.13342">
        <ele>903</ele>
        <time>2021-09-10T12:51:39.588Z</time>
      </trkpt>
      <trkpt lat="45.77096" lon="6.13344">
        <ele>903</ele>
        <time>2021-09-10T12:51:40.589Z</time>
      </trkpt>
      <trkpt lat="45.77094" lon="6.13345">
        <ele>903</ele>
        <time>2021-09-10T12:51:41.589Z</time>
      </trkpt>
      <trkpt lat="45.77093" lon="6.13347">
        <ele>904</ele>
        <time>2021-09-10T12:51:42.589Z</time>
      </trkpt>
      <trkpt lat="45.77091" lon="6.13349">
        <ele>905</ele>
        <time>2021-09-10T12:51:43.588Z</time>
      </trkpt>
      <trkpt lat="45.7709" lon="6.1335">
        <ele>905</ele>
        <time>2021-09-10T12:51:44.588Z</time>
      </trkpt>
      <trkpt lat="45.77088" lon="6.13352">
        <ele>906</ele>
        <time>2021-09-10T12:51:45.588Z</time>
      </trkpt>
      <trkpt lat="45.77086" lon="6.13353">
        <ele>906</ele>
        <time>2021-09-10T12:51:46.589Z</time>
      </trkpt>
      <trkpt lat="45.77084" lon="6.13354">
        <ele>907</ele>
        <time>2021-09-10T12:51:47.589Z</time>
      </trkpt>
      <trkpt lat="45.77082" lon="6.13355">
        <ele>908</ele>
        <time>2021-09-10T12:51:48.589Z</time>
      </trkpt>
      <trkpt lat="45.7708" lon="6.13356">
        <ele>908</ele>
        <time>2021-09-10T12:51:49.589Z</time>
      </trkpt>
      <trkpt lat="45.77078" lon="6.13357">
        <ele>908</ele>
        <time>2021-09-10T12:51:50.588Z</time>
      </trkpt>
      <trkpt lat="45.77076" lon="6.13358">
        <ele>908</ele>
        <time>2021-09-10T12:51:51.589Z</time>
      </trkpt>
      <trkpt lat="45.77075" lon="6.13358">
        <ele>908</ele>
        <time>2021-09-10T12:51:52.589Z</time>
      </trkpt>
      <trkpt lat="45.77073" lon="6.13358">
        <ele>908</ele>
        <time>2021-09-10T12:51:53.589Z</time>
      </trkpt>
      <trkpt lat="45.77071" lon="6.13359">
        <ele>908</ele>
        <time>2021-09-10T12:51:54.589Z</time>
      </trkpt>
      <trkpt lat="45.77069" lon="6.13359">
        <ele>908</ele>
        <time>2021-09-10T12:51:55.588Z</time>
      </trkpt>
      <trkpt lat="45.77067" lon="6.1336">
        <ele>908</ele>
        <time>2021-09-10T12:51:56.589Z</time>
      </trkpt>
      <trkpt lat="45.77065" lon="6.13359">
        <ele>908</ele>
        <time>2021-09-10T12:51:57.589Z</time>
      </trkpt>
      <trkpt lat="45.77064" lon="6.13359">
        <ele>909</ele>
        <time>2021-09-10T12:51:58.588Z</time>
      </trkpt>
      <trkpt lat="45.77062" lon="6.13359">
        <ele>909</ele>
        <time>2021-09-10T12:51:59.588Z</time>
      </trkpt>
      <trkpt lat="45.7706" lon="6.13359">
        <ele>909</ele>
        <time>2021-09-10T12:52:00.588Z</time>
      </trkpt>
      <trkpt lat="45.77058" lon="6.13359">
        <ele>909</ele>
        <time>2021-09-10T12:52:01.589Z</time>
      </trkpt>
      <trkpt lat="45.77056" lon="6.13359">
        <ele>909</ele>
        <time>2021-09-10T12:52:02.589Z</time>
      </trkpt>
      <trkpt lat="45.77054" lon="6.13358">
        <ele>909</ele>
        <time>2021-09-10T12:52:03.589Z</time>
      </trkpt>
      <trkpt lat="45.77052" lon="6.13358">
        <ele>909</ele>
        <time>2021-09-10T12:52:04.589Z</time>
      </trkpt>
      <trkpt lat="45.7705" lon="6.13358">
        <ele>909</ele>
        <time>2021-09-10T12:52:05.588Z</time>
      </trkpt>
      <trkpt lat="45.77049" lon="6.13357">
        <ele>909</ele>
        <time>2021-09-10T12:52:06.589Z</time>
      </trkpt>
      <trkpt lat="45.77047" lon="6.13357">
        <ele>909</ele>
        <time>2021-09-10T12:52:07.588Z</time>
      </trkpt>
      <trkpt lat="45.77045" lon="6.13357">
        <ele>909</ele>
        <time>2021-09-10T12:52:08.589Z</time>
      </trkpt>
      <trkpt lat="45.77043" lon="6.13356">
        <ele>909</ele>
        <time>2021-09-10T12:52:09.589Z</time>
      </trkpt>
      <trkpt lat="45.77042" lon="6.13356">
        <ele>909</ele>
        <time>2021-09-10T12:52:10.588Z</time>
      </trkpt>
      <trkpt lat="45.7704" lon="6.13356">
        <ele>910</ele>
        <time>2021-09-10T12:52:11.589Z</time>
      </trkpt>
      <trkpt lat="45.77038" lon="6.13355">
        <ele>910</ele>
        <time>2021-09-10T12:52:12.589Z</time>
      </trkpt>
      <trkpt lat="45.77036" lon="6.13355">
        <ele>910</ele>
        <time>2021-09-10T12:52:13.588Z</time>
      </trkpt>
      <trkpt lat="45.77035" lon="6.13355">
        <ele>910</ele>
        <time>2021-09-10T12:52:14.589Z</time>
      </trkpt>
      <trkpt lat="45.77033" lon="6.13354">
        <ele>910</ele>
        <time>2021-09-10T12:52:15.589Z</time>
      </trkpt>
      <trkpt lat="45.77031" lon="6.13354">
        <ele>910</ele>
        <time>2021-09-10T12:52:16.589Z</time>
      </trkpt>
      <trkpt lat="45.77029" lon="6.13354">
        <ele>910</ele>
        <time>2021-09-10T12:52:17.589Z</time>
      </trkpt>
      <trkpt lat="45.77027" lon="6.13354">
        <ele>910</ele>
        <time>2021-09-10T12:52:18.589Z</time>
      </trkpt>
      <trkpt lat="45.77026" lon="6.13354">
        <ele>910</ele>
        <time>2021-09-10T12:52:19.589Z</time>
      </trkpt>
      <trkpt lat="45.77024" lon="6.13355">
        <ele>910</ele>
        <time>2021-09-10T12:52:20.589Z</time>
      </trkpt>
      <trkpt lat="45.77022" lon="6.13356">
        <ele>910</ele>
        <time>2021-09-10T12:52:21.589Z</time>
      </trkpt>
      <trkpt lat="45.7702" lon="6.13357">
        <ele>910</ele>
        <time>2021-09-10T12:52:22.588Z</time>
      </trkpt>
      <trkpt lat="45.77018" lon="6.13358">
        <ele>911</ele>
        <time>2021-09-10T12:52:23.589Z</time>
      </trkpt>
      <trkpt lat="45.77017" lon="6.13358">
        <ele>911</ele>
        <time>2021-09-10T12:52:24.588Z</time>
      </trkpt>
      <trkpt lat="45.77015" lon="6.13359">
        <ele>911</ele>
        <time>2021-09-10T12:52:25.589Z</time>
      </trkpt>
      <trkpt lat="45.77012" lon="6.13359">
        <ele>911</ele>
        <time>2021-09-10T12:52:26.589Z</time>
      </trkpt>
      <trkpt lat="45.77011" lon="6.1336">
        <ele>911</ele>
        <time>2021-09-10T12:52:27.588Z</time>
      </trkpt>
      <trkpt lat="45.77009" lon="6.13361">
        <ele>911</ele>
        <time>2021-09-10T12:52:28.588Z</time>
      </trkpt>
      <trkpt lat="45.77007" lon="6.13362">
        <ele>911</ele>
        <time>2021-09-10T12:52:29.588Z</time>
      </trkpt>
      <trkpt lat="45.77006" lon="6.13363">
        <ele>911</ele>
        <time>2021-09-10T12:52:30.588Z</time>
      </trkpt>
      <trkpt lat="45.77004" lon="6.13364">
        <ele>911</ele>
        <time>2021-09-10T12:52:31.589Z</time>
      </trkpt>
      <trkpt lat="45.77003" lon="6.13366">
        <ele>911</ele>
        <time>2021-09-10T12:52:32.588Z</time>
      </trkpt>
      <trkpt lat="45.77001" lon="6.13367">
        <ele>911</ele>
        <time>2021-09-10T12:52:33.589Z</time>
      </trkpt>
      <trkpt lat="45.77" lon="6.13369">
        <ele>912</ele>
        <time>2021-09-10T12:52:34.589Z</time>
      </trkpt>
      <trkpt lat="45.76999" lon="6.13371">
        <ele>912</ele>
        <time>2021-09-10T12:52:35.589Z</time>
      </trkpt>
      <trkpt lat="45.76998" lon="6.13373">
        <ele>912</ele>
        <time>2021-09-10T12:52:36.589Z</time>
      </trkpt>
      <trkpt lat="45.76997" lon="6.13375">
        <ele>912</ele>
        <time>2021-09-10T12:52:37.589Z</time>
      </trkpt>
      <trkpt lat="45.76996" lon="6.13377">
        <ele>912</ele>
        <time>2021-09-10T12:52:38.589Z</time>
      </trkpt>
      <trkpt lat="45.76996" lon="6.1338">
        <ele>912</ele>
        <time>2021-09-10T12:52:39.589Z</time>
      </trkpt>
      <trkpt lat="45.76996" lon="6.13382">
        <ele>912</ele>
        <time>2021-09-10T12:52:40.589Z</time>
      </trkpt>
      <trkpt lat="45.76996" lon="6.13385">
        <ele>912</ele>
        <time>2021-09-10T12:52:41.589Z</time>
      </trkpt>
      <trkpt lat="45.76996" lon="6.13387">
        <ele>912</ele>
        <time>2021-09-10T12:52:42.589Z</time>
      </trkpt>
      <trkpt lat="45.76996" lon="6.1339">
        <ele>913</ele>
        <time>2021-09-10T12:52:43.589Z</time>
      </trkpt>
      <trkpt lat="45.76997" lon="6.13392">
        <ele>913</ele>
        <time>2021-09-10T12:52:44.589Z</time>
      </trkpt>
      <trkpt lat="45.76998" lon="6.13395">
        <ele>914</ele>
        <time>2021-09-10T12:52:45.589Z</time>
      </trkpt>
      <trkpt lat="45.76998" lon="6.13397">
        <ele>915</ele>
        <time>2021-09-10T12:52:46.589Z</time>
      </trkpt>
      <trkpt lat="45.77" lon="6.13399">
        <ele>915</ele>
        <time>2021-09-10T12:52:47.589Z</time>
      </trkpt>
      <trkpt lat="45.77001" lon="6.13402">
        <ele>915</ele>
        <time>2021-09-10T12:52:48.589Z</time>
      </trkpt>
      <trkpt lat="45.77002" lon="6.13404">
        <ele>916</ele>
        <time>2021-09-10T12:52:49.588Z</time>
      </trkpt>
      <trkpt lat="45.77003" lon="6.13406">
        <ele>916</ele>
        <time>2021-09-10T12:52:50.588Z</time>
      </trkpt>
      <trkpt lat="45.77005" lon="6.13408">
        <ele>916</ele>
        <time>2021-09-10T12:52:51.589Z</time>
      </trkpt>
      <trkpt lat="45.77006" lon="6.13409">
        <ele>916</ele>
        <time>2021-09-10T12:52:52.588Z</time>
      </trkpt>
      <trkpt lat="45.77008" lon="6.13411">
        <ele>915</ele>
        <time>2021-09-10T12:52:53.589Z</time>
      </trkpt>
      <trkpt lat="45.77009" lon="6.13412">
        <ele>915</ele>
        <time>2021-09-10T12:52:54.589Z</time>
      </trkpt>
      <trkpt lat="45.77011" lon="6.13413">
        <ele>915</ele>
        <time>2021-09-10T12:52:55.589Z</time>
      </trkpt>
      <trkpt lat="45.77013" lon="6.13415">
        <ele>915</ele>
        <time>2021-09-10T12:52:56.588Z</time>
      </trkpt>
      <trkpt lat="45.77015" lon="6.13416">
        <ele>914</ele>
        <time>2021-09-10T12:52:57.589Z</time>
      </trkpt>
      <trkpt lat="45.77016" lon="6.13418">
        <ele>914</ele>
        <time>2021-09-10T12:52:58.588Z</time>
      </trkpt>
      <trkpt lat="45.77018" lon="6.13419">
        <ele>914</ele>
        <time>2021-09-10T12:52:59.589Z</time>
      </trkpt>
      <trkpt lat="45.77019" lon="6.13419">
        <ele>914</ele>
        <time>2021-09-10T12:53:00.589Z</time>
      </trkpt>
      <trkpt lat="45.77021" lon="6.13421">
        <ele>914</ele>
        <time>2021-09-10T12:53:01.589Z</time>
      </trkpt>
      <trkpt lat="45.77023" lon="6.13422">
        <ele>914</ele>
        <time>2021-09-10T12:53:02.589Z</time>
      </trkpt>
      <trkpt lat="45.77025" lon="6.13423">
        <ele>914</ele>
        <time>2021-09-10T12:53:03.588Z</time>
      </trkpt>
      <trkpt lat="45.77026" lon="6.13424">
        <ele>914</ele>
        <time>2021-09-10T12:53:04.588Z</time>
      </trkpt>
      <trkpt lat="45.77028" lon="6.13425">
        <ele>914</ele>
        <time>2021-09-10T12:53:05.588Z</time>
      </trkpt>
      <trkpt lat="45.77029" lon="6.13426">
        <ele>914</ele>
        <time>2021-09-10T12:53:06.589Z</time>
      </trkpt>
      <trkpt lat="45.77031" lon="6.13427">
        <ele>914</ele>
        <time>2021-09-10T12:53:07.588Z</time>
      </trkpt>
      <trkpt lat="45.77032" lon="6.13428">
        <ele>914</ele>
        <time>2021-09-10T12:53:08.589Z</time>
      </trkpt>
      <trkpt lat="45.77034" lon="6.1343">
        <ele>915</ele>
        <time>2021-09-10T12:53:09.588Z</time>
      </trkpt>
      <trkpt lat="45.77036" lon="6.13431">
        <ele>915</ele>
        <time>2021-09-10T12:53:10.589Z</time>
      </trkpt>
      <trkpt lat="45.77037" lon="6.13433">
        <ele>915</ele>
        <time>2021-09-10T12:53:11.588Z</time>
      </trkpt>
      <trkpt lat="45.77039" lon="6.13435">
        <ele>914</ele>
        <time>2021-09-10T12:53:12.588Z</time>
      </trkpt>
      <trkpt lat="45.7704" lon="6.13437">
        <ele>914</ele>
        <time>2021-09-10T12:53:13.589Z</time>
      </trkpt>
      <trkpt lat="45.77041" lon="6.13439">
        <ele>914</ele>
        <time>2021-09-10T12:53:14.589Z</time>
      </trkpt>
      <trkpt lat="45.77043" lon="6.13441">
        <ele>914</ele>
        <time>2021-09-10T12:53:15.589Z</time>
      </trkpt>
      <trkpt lat="45.77044" lon="6.13443">
        <ele>914</ele>
        <time>2021-09-10T12:53:16.589Z</time>
      </trkpt>
      <trkpt lat="45.77044" lon="6.13446">
        <ele>914</ele>
        <time>2021-09-10T12:53:17.589Z</time>
      </trkpt>
      <trkpt lat="45.77045" lon="6.13448">
        <ele>914</ele>
        <time>2021-09-10T12:53:18.589Z</time>
      </trkpt>
      <trkpt lat="45.77045" lon="6.1345">
        <ele>914</ele>
        <time>2021-09-10T12:53:19.589Z</time>
      </trkpt>
      <trkpt lat="45.77045" lon="6.13454">
        <ele>914</ele>
        <time>2021-09-10T12:53:20.589Z</time>
      </trkpt>
      <trkpt lat="45.77044" lon="6.13456">
        <ele>914</ele>
        <time>2021-09-10T12:53:21.589Z</time>
      </trkpt>
      <trkpt lat="45.77043" lon="6.13459">
        <ele>914</ele>
        <time>2021-09-10T12:53:22.589Z</time>
      </trkpt>
      <trkpt lat="45.77042" lon="6.13462">
        <ele>915</ele>
        <time>2021-09-10T12:53:23.589Z</time>
      </trkpt>
      <trkpt lat="45.77042" lon="6.13464">
        <ele>915</ele>
        <time>2021-09-10T12:53:24.589Z</time>
      </trkpt>
      <trkpt lat="45.77041" lon="6.13466">
        <ele>916</ele>
        <time>2021-09-10T12:53:25.589Z</time>
      </trkpt>
      <trkpt lat="45.7704" lon="6.13469">
        <ele>916</ele>
        <time>2021-09-10T12:53:26.589Z</time>
      </trkpt>
      <trkpt lat="45.77039" lon="6.13472">
        <ele>917</ele>
        <time>2021-09-10T12:53:27.589Z</time>
      </trkpt>
      <trkpt lat="45.77038" lon="6.13474">
        <ele>917</ele>
        <time>2021-09-10T12:53:28.588Z</time>
      </trkpt>
      <trkpt lat="45.77038" lon="6.13476">
        <ele>918</ele>
        <time>2021-09-10T12:53:29.589Z</time>
      </trkpt>
      <trkpt lat="45.77036" lon="6.13479">
        <ele>918</ele>
        <time>2021-09-10T12:53:30.588Z</time>
      </trkpt>
      <trkpt lat="45.77035" lon="6.13482">
        <ele>918</ele>
        <time>2021-09-10T12:53:31.589Z</time>
      </trkpt>
      <trkpt lat="45.77034" lon="6.13484">
        <ele>919</ele>
        <time>2021-09-10T12:53:32.589Z</time>
      </trkpt>
      <trkpt lat="45.77033" lon="6.13486">
        <ele>919</ele>
        <time>2021-09-10T12:53:33.589Z</time>
      </trkpt>
      <trkpt lat="45.77033" lon="6.13488">
        <ele>920</ele>
        <time>2021-09-10T12:53:34.588Z</time>
      </trkpt>
      <trkpt lat="45.77032" lon="6.13491">
        <ele>920</ele>
        <time>2021-09-10T12:53:35.589Z</time>
      </trkpt>
      <trkpt lat="45.7703" lon="6.13493">
        <ele>920</ele>
        <time>2021-09-10T12:53:36.589Z</time>
      </trkpt>
      <trkpt lat="45.77029" lon="6.13495">
        <ele>920</ele>
        <time>2021-09-10T12:53:37.588Z</time>
      </trkpt>
      <trkpt lat="45.77028" lon="6.13497">
        <ele>921</ele>
        <time>2021-09-10T12:53:38.589Z</time>
      </trkpt>
      <trkpt lat="45.77027" lon="6.13499">
        <ele>921</ele>
        <time>2021-09-10T12:53:39.589Z</time>
      </trkpt>
      <trkpt lat="45.77026" lon="6.13502">
        <ele>922</ele>
        <time>2021-09-10T12:53:40.589Z</time>
      </trkpt>
      <trkpt lat="45.77025" lon="6.13505">
        <ele>922</ele>
        <time>2021-09-10T12:53:41.589Z</time>
      </trkpt>
      <trkpt lat="45.77025" lon="6.13507">
        <ele>922</ele>
        <time>2021-09-10T12:53:42.589Z</time>
      </trkpt>
      <trkpt lat="45.77024" lon="6.1351">
        <ele>922</ele>
        <time>2021-09-10T12:53:43.589Z</time>
      </trkpt>
      <trkpt lat="45.77023" lon="6.13512">
        <ele>922</ele>
        <time>2021-09-10T12:53:44.589Z</time>
      </trkpt>
      <trkpt lat="45.77022" lon="6.13515">
        <ele>922</ele>
        <time>2021-09-10T12:53:45.589Z</time>
      </trkpt>
      <trkpt lat="45.7702" lon="6.13517">
        <ele>922</ele>
        <time>2021-09-10T12:53:46.588Z</time>
      </trkpt>
      <trkpt lat="45.77019" lon="6.13519">
        <ele>922</ele>
        <time>2021-09-10T12:53:47.589Z</time>
      </trkpt>
      <trkpt lat="45.77018" lon="6.13522">
        <ele>921</ele>
        <time>2021-09-10T12:53:48.589Z</time>
      </trkpt>
      <trkpt lat="45.77017" lon="6.13524">
        <ele>921</ele>
        <time>2021-09-10T12:53:49.589Z</time>
      </trkpt>
      <trkpt lat="45.77016" lon="6.13527">
        <ele>921</ele>
        <time>2021-09-10T12:53:50.589Z</time>
      </trkpt>
      <trkpt lat="45.77014" lon="6.13529">
        <ele>920</ele>
        <time>2021-09-10T12:53:51.589Z</time>
      </trkpt>
      <trkpt lat="45.77013" lon="6.13531">
        <ele>920</ele>
        <time>2021-09-10T12:53:52.589Z</time>
      </trkpt>
      <trkpt lat="45.77012" lon="6.13533">
        <ele>921</ele>
        <time>2021-09-10T12:53:53.589Z</time>
      </trkpt>
      <trkpt lat="45.7701" lon="6.13535">
        <ele>921</ele>
        <time>2021-09-10T12:53:54.589Z</time>
      </trkpt>
      <trkpt lat="45.77008" lon="6.13536">
        <ele>921</ele>
        <time>2021-09-10T12:53:55.589Z</time>
      </trkpt>
      <trkpt lat="45.77006" lon="6.13538">
        <ele>921</ele>
        <time>2021-09-10T12:53:56.589Z</time>
      </trkpt>
      <trkpt lat="45.77005" lon="6.13539">
        <ele>922</ele>
        <time>2021-09-10T12:53:57.589Z</time>
      </trkpt>
      <trkpt lat="45.77003" lon="6.13542">
        <ele>922</ele>
        <time>2021-09-10T12:53:58.589Z</time>
      </trkpt>
      <trkpt lat="45.77001" lon="6.13544">
        <ele>923</ele>
        <time>2021-09-10T12:53:59.589Z</time>
      </trkpt>
      <trkpt lat="45.77" lon="6.13546">
        <ele>924</ele>
        <time>2021-09-10T12:54:00.589Z</time>
      </trkpt>
      <trkpt lat="45.76999" lon="6.13547">
        <ele>924</ele>
        <time>2021-09-10T12:54:01.589Z</time>
      </trkpt>
      <trkpt lat="45.76997" lon="6.13549">
        <ele>925</ele>
        <time>2021-09-10T12:54:02.589Z</time>
      </trkpt>
      <trkpt lat="45.76996" lon="6.13552">
        <ele>925</ele>
        <time>2021-09-10T12:54:03.589Z</time>
      </trkpt>
      <trkpt lat="45.76994" lon="6.13554">
        <ele>925</ele>
        <time>2021-09-10T12:54:04.589Z</time>
      </trkpt>
      <trkpt lat="45.76993" lon="6.13555">
        <ele>925</ele>
        <time>2021-09-10T12:54:05.589Z</time>
      </trkpt>
      <trkpt lat="45.76991" lon="6.13557">
        <ele>925</ele>
        <time>2021-09-10T12:54:06.588Z</time>
      </trkpt>
      <trkpt lat="45.7699" lon="6.1356">
        <ele>925</ele>
        <time>2021-09-10T12:54:07.588Z</time>
      </trkpt>
      <trkpt lat="45.76989" lon="6.13562">
        <ele>925</ele>
        <time>2021-09-10T12:54:08.589Z</time>
      </trkpt>
      <trkpt lat="45.76988" lon="6.13563">
        <ele>926</ele>
        <time>2021-09-10T12:54:09.588Z</time>
      </trkpt>
      <trkpt lat="45.76987" lon="6.13565">
        <ele>926</ele>
        <time>2021-09-10T12:54:10.589Z</time>
      </trkpt>
      <trkpt lat="45.76986" lon="6.13567">
        <ele>926</ele>
        <time>2021-09-10T12:54:11.589Z</time>
      </trkpt>
      <trkpt lat="45.76985" lon="6.13569">
        <ele>926</ele>
        <time>2021-09-10T12:54:12.589Z</time>
      </trkpt>
      <trkpt lat="45.76983" lon="6.1357">
        <ele>926</ele>
        <time>2021-09-10T12:54:13.589Z</time>
      </trkpt>
      <trkpt lat="45.76982" lon="6.13572">
        <ele>926</ele>
        <time>2021-09-10T12:54:14.589Z</time>
      </trkpt>
      <trkpt lat="45.7698" lon="6.13574">
        <ele>926</ele>
        <time>2021-09-10T12:54:15.589Z</time>
      </trkpt>
      <trkpt lat="45.76978" lon="6.13575">
        <ele>926</ele>
        <time>2021-09-10T12:54:16.589Z</time>
      </trkpt>
      <trkpt lat="45.76976" lon="6.13577">
        <ele>926</ele>
        <time>2021-09-10T12:54:17.588Z</time>
      </trkpt>
      <trkpt lat="45.76974" lon="6.13579">
        <ele>927</ele>
        <time>2021-09-10T12:54:18.588Z</time>
      </trkpt>
      <trkpt lat="45.76973" lon="6.13581">
        <ele>927</ele>
        <time>2021-09-10T12:54:19.589Z</time>
      </trkpt>
      <trkpt lat="45.76971" lon="6.13583">
        <ele>928</ele>
        <time>2021-09-10T12:54:20.589Z</time>
      </trkpt>
      <trkpt lat="45.76969" lon="6.13585">
        <ele>928</ele>
        <time>2021-09-10T12:54:21.588Z</time>
      </trkpt>
      <trkpt lat="45.76968" lon="6.13587">
        <ele>928</ele>
        <time>2021-09-10T12:54:22.589Z</time>
      </trkpt>
      <trkpt lat="45.76966" lon="6.13589">
        <ele>928</ele>
        <time>2021-09-10T12:54:23.589Z</time>
      </trkpt>
      <trkpt lat="45.76965" lon="6.1359">
        <ele>928</ele>
        <time>2021-09-10T12:54:24.589Z</time>
      </trkpt>
      <trkpt lat="45.76963" lon="6.13592">
        <ele>928</ele>
        <time>2021-09-10T12:54:25.589Z</time>
      </trkpt>
      <trkpt lat="45.76961" lon="6.13594">
        <ele>929</ele>
        <time>2021-09-10T12:54:26.589Z</time>
      </trkpt>
      <trkpt lat="45.7696" lon="6.13595">
        <ele>929</ele>
        <time>2021-09-10T12:54:27.588Z</time>
      </trkpt>
      <trkpt lat="45.76958" lon="6.13597">
        <ele>929</ele>
        <time>2021-09-10T12:54:28.588Z</time>
      </trkpt>
      <trkpt lat="45.76957" lon="6.13599">
        <ele>929</ele>
        <time>2021-09-10T12:54:29.588Z</time>
      </trkpt>
      <trkpt lat="45.76955" lon="6.13601">
        <ele>929</ele>
        <time>2021-09-10T12:54:30.589Z</time>
      </trkpt>
      <trkpt lat="45.76953" lon="6.13603">
        <ele>929</ele>
        <time>2021-09-10T12:54:31.588Z</time>
      </trkpt>
      <trkpt lat="45.76951" lon="6.13606">
        <ele>930</ele>
        <time>2021-09-10T12:54:32.589Z</time>
      </trkpt>
      <trkpt lat="45.7695" lon="6.13608">
        <ele>930</ele>
        <time>2021-09-10T12:54:33.589Z</time>
      </trkpt>
      <trkpt lat="45.76948" lon="6.1361">
        <ele>930</ele>
        <time>2021-09-10T12:54:34.589Z</time>
      </trkpt>
      <trkpt lat="45.76946" lon="6.13612">
        <ele>930</ele>
        <time>2021-09-10T12:54:35.589Z</time>
      </trkpt>
      <trkpt lat="45.76945" lon="6.13614">
        <ele>930</ele>
        <time>2021-09-10T12:54:36.588Z</time>
      </trkpt>
      <trkpt lat="45.76944" lon="6.13617">
        <ele>930</ele>
        <time>2021-09-10T12:54:37.589Z</time>
      </trkpt>
      <trkpt lat="45.76942" lon="6.13619">
        <ele>930</ele>
        <time>2021-09-10T12:54:38.589Z</time>
      </trkpt>
      <trkpt lat="45.76941" lon="6.13621">
        <ele>929</ele>
        <time>2021-09-10T12:54:39.589Z</time>
      </trkpt>
      <trkpt lat="45.7694" lon="6.13623">
        <ele>929</ele>
        <time>2021-09-10T12:54:40.589Z</time>
      </trkpt>
      <trkpt lat="45.76938" lon="6.13625">
        <ele>929</ele>
        <time>2021-09-10T12:54:41.589Z</time>
      </trkpt>
      <trkpt lat="45.76937" lon="6.13628">
        <ele>929</ele>
        <time>2021-09-10T12:54:42.588Z</time>
      </trkpt>
      <trkpt lat="45.76936" lon="6.1363">
        <ele>929</ele>
        <time>2021-09-10T12:54:43.589Z</time>
      </trkpt>
      <trkpt lat="45.76935" lon="6.13633">
        <ele>929</ele>
        <time>2021-09-10T12:54:44.589Z</time>
      </trkpt>
      <trkpt lat="45.76934" lon="6.13635">
        <ele>929</ele>
        <time>2021-09-10T12:54:45.588Z</time>
      </trkpt>
      <trkpt lat="45.76933" lon="6.13638">
        <ele>929</ele>
        <time>2021-09-10T12:54:46.589Z</time>
      </trkpt>
      <trkpt lat="45.76932" lon="6.13641">
        <ele>929</ele>
        <time>2021-09-10T12:54:47.589Z</time>
      </trkpt>
      <trkpt lat="45.76931" lon="6.13643">
        <ele>929</ele>
        <time>2021-09-10T12:54:48.589Z</time>
      </trkpt>
      <trkpt lat="45.76931" lon="6.13646">
        <ele>929</ele>
        <time>2021-09-10T12:54:49.589Z</time>
      </trkpt>
      <trkpt lat="45.7693" lon="6.13648">
        <ele>929</ele>
        <time>2021-09-10T12:54:50.588Z</time>
      </trkpt>
      <trkpt lat="45.76929" lon="6.13651">
        <ele>929</ele>
        <time>2021-09-10T12:54:51.588Z</time>
      </trkpt>
      <trkpt lat="45.76929" lon="6.13654">
        <ele>929</ele>
        <time>2021-09-10T12:54:52.589Z</time>
      </trkpt>
      <trkpt lat="45.76928" lon="6.13656">
        <ele>929</ele>
        <time>2021-09-10T12:54:53.589Z</time>
      </trkpt>
      <trkpt lat="45.76928" lon="6.13658">
        <ele>929</ele>
        <time>2021-09-10T12:54:54.589Z</time>
      </trkpt>
      <trkpt lat="45.76928" lon="6.13661">
        <ele>929</ele>
        <time>2021-09-10T12:54:55.588Z</time>
      </trkpt>
      <trkpt lat="45.76928" lon="6.13664">
        <ele>929</ele>
        <time>2021-09-10T12:54:56.589Z</time>
      </trkpt>
      <trkpt lat="45.76927" lon="6.13667">
        <ele>930</ele>
        <time>2021-09-10T12:54:57.589Z</time>
      </trkpt>
      <trkpt lat="45.76927" lon="6.13669">
        <ele>930</ele>
        <time>2021-09-10T12:54:58.589Z</time>
      </trkpt>
      <trkpt lat="45.76926" lon="6.13672">
        <ele>930</ele>
        <time>2021-09-10T12:54:59.589Z</time>
      </trkpt>
      <trkpt lat="45.76925" lon="6.13675">
        <ele>930</ele>
        <time>2021-09-10T12:55:00.589Z</time>
      </trkpt>
      <trkpt lat="45.76924" lon="6.13677">
        <ele>930</ele>
        <time>2021-09-10T12:55:01.589Z</time>
      </trkpt>
      <trkpt lat="45.76924" lon="6.1368">
        <ele>930</ele>
        <time>2021-09-10T12:55:02.589Z</time>
      </trkpt>
      <trkpt lat="45.76923" lon="6.13683">
        <ele>930</ele>
        <time>2021-09-10T12:55:03.589Z</time>
      </trkpt>
      <trkpt lat="45.76922" lon="6.13685">
        <ele>929</ele>
        <time>2021-09-10T12:55:04.588Z</time>
      </trkpt>
      <trkpt lat="45.76922" lon="6.13688">
        <ele>929</ele>
        <time>2021-09-10T12:55:05.589Z</time>
      </trkpt>
      <trkpt lat="45.76921" lon="6.13691">
        <ele>929</ele>
        <time>2021-09-10T12:55:06.588Z</time>
      </trkpt>
      <trkpt lat="45.7692" lon="6.13694">
        <ele>929</ele>
        <time>2021-09-10T12:55:07.588Z</time>
      </trkpt>
      <trkpt lat="45.7692" lon="6.13696">
        <ele>929</ele>
        <time>2021-09-10T12:55:08.589Z</time>
      </trkpt>
      <trkpt lat="45.76919" lon="6.13699">
        <ele>929</ele>
        <time>2021-09-10T12:55:09.588Z</time>
      </trkpt>
      <trkpt lat="45.76918" lon="6.13702">
        <ele>929</ele>
        <time>2021-09-10T12:55:10.589Z</time>
      </trkpt>
      <trkpt lat="45.76918" lon="6.13705">
        <ele>929</ele>
        <time>2021-09-10T12:55:11.589Z</time>
      </trkpt>
      <trkpt lat="45.76917" lon="6.13708">
        <ele>929</ele>
        <time>2021-09-10T12:55:12.588Z</time>
      </trkpt>
      <trkpt lat="45.76917" lon="6.13711">
        <ele>929</ele>
        <time>2021-09-10T12:55:13.589Z</time>
      </trkpt>
      <trkpt lat="45.76916" lon="6.13714">
        <ele>929</ele>
        <time>2021-09-10T12:55:14.589Z</time>
      </trkpt>
      <trkpt lat="45.76915" lon="6.13717">
        <ele>930</ele>
        <time>2021-09-10T12:55:15.589Z</time>
      </trkpt>
      <trkpt lat="45.76915" lon="6.13719">
        <ele>930</ele>
        <time>2021-09-10T12:55:16.588Z</time>
      </trkpt>
      <trkpt lat="45.76915" lon="6.13722">
        <ele>930</ele>
        <time>2021-09-10T12:55:17.589Z</time>
      </trkpt>
      <trkpt lat="45.76914" lon="6.13725">
        <ele>930</ele>
        <time>2021-09-10T12:55:18.589Z</time>
      </trkpt>
      <trkpt lat="45.76914" lon="6.13727">
        <ele>930</ele>
        <time>2021-09-10T12:55:19.588Z</time>
      </trkpt>
      <trkpt lat="45.76913" lon="6.1373">
        <ele>930</ele>
        <time>2021-09-10T12:55:20.588Z</time>
      </trkpt>
      <trkpt lat="45.76913" lon="6.13733">
        <ele>931</ele>
        <time>2021-09-10T12:55:21.588Z</time>
      </trkpt>
      <trkpt lat="45.76913" lon="6.13736">
        <ele>931</ele>
        <time>2021-09-10T12:55:22.589Z</time>
      </trkpt>
      <trkpt lat="45.76913" lon="6.13739">
        <ele>931</ele>
        <time>2021-09-10T12:55:23.589Z</time>
      </trkpt>
      <trkpt lat="45.76913" lon="6.13742">
        <ele>931</ele>
        <time>2021-09-10T12:55:24.589Z</time>
      </trkpt>
      <trkpt lat="45.76913" lon="6.13745">
        <ele>931</ele>
        <time>2021-09-10T12:55:25.588Z</time>
      </trkpt>
      <trkpt lat="45.76913" lon="6.13748">
        <ele>931</ele>
        <time>2021-09-10T12:55:26.589Z</time>
      </trkpt>
      <trkpt lat="45.76913" lon="6.13751">
        <ele>931</ele>
        <time>2021-09-10T12:55:27.588Z</time>
      </trkpt>
      <trkpt lat="45.76914" lon="6.13754">
        <ele>932</ele>
        <time>2021-09-10T12:55:28.589Z</time>
      </trkpt>
      <trkpt lat="45.76914" lon="6.13757">
        <ele>932</ele>
        <time>2021-09-10T12:55:29.588Z</time>
      </trkpt>
      <trkpt lat="45.76915" lon="6.13759">
        <ele>932</ele>
        <time>2021-09-10T12:55:30.589Z</time>
      </trkpt>
      <trkpt lat="45.76916" lon="6.13762">
        <ele>932</ele>
        <time>2021-09-10T12:55:31.589Z</time>
      </trkpt>
      <trkpt lat="45.76917" lon="6.13765">
        <ele>932</ele>
        <time>2021-09-10T12:55:32.589Z</time>
      </trkpt>
      <trkpt lat="45.76918" lon="6.13768">
        <ele>932</ele>
        <time>2021-09-10T12:55:33.589Z</time>
      </trkpt>
      <trkpt lat="45.76919" lon="6.1377">
        <ele>933</ele>
        <time>2021-09-10T12:55:34.589Z</time>
      </trkpt>
      <trkpt lat="45.7692" lon="6.13773">
        <ele>933</ele>
        <time>2021-09-10T12:55:35.589Z</time>
      </trkpt>
      <trkpt lat="45.76921" lon="6.13776">
        <ele>934</ele>
        <time>2021-09-10T12:55:36.589Z</time>
      </trkpt>
      <trkpt lat="45.76922" lon="6.13778">
        <ele>934</ele>
        <time>2021-09-10T12:55:37.589Z</time>
      </trkpt>
      <trkpt lat="45.76923" lon="6.1378">
        <ele>935</ele>
        <time>2021-09-10T12:55:38.588Z</time>
      </trkpt>
      <trkpt lat="45.76924" lon="6.13783">
        <ele>935</ele>
        <time>2021-09-10T12:55:39.589Z</time>
      </trkpt>
      <trkpt lat="45.76925" lon="6.13785">
        <ele>936</ele>
        <time>2021-09-10T12:55:40.589Z</time>
      </trkpt>
      <trkpt lat="45.76926" lon="6.13788">
        <ele>936</ele>
        <time>2021-09-10T12:55:41.589Z</time>
      </trkpt>
      <trkpt lat="45.76927" lon="6.13791">
        <ele>936</ele>
        <time>2021-09-10T12:55:42.588Z</time>
      </trkpt>
      <trkpt lat="45.76928" lon="6.13793">
        <ele>936</ele>
        <time>2021-09-10T12:55:43.589Z</time>
      </trkpt>
      <trkpt lat="45.76929" lon="6.13796">
        <ele>937</ele>
        <time>2021-09-10T12:55:44.589Z</time>
      </trkpt>
      <trkpt lat="45.7693" lon="6.13798">
        <ele>937</ele>
        <time>2021-09-10T12:55:45.589Z</time>
      </trkpt>
      <trkpt lat="45.76931" lon="6.13801">
        <ele>937</ele>
        <time>2021-09-10T12:55:46.588Z</time>
      </trkpt>
      <trkpt lat="45.76932" lon="6.13804">
        <ele>938</ele>
        <time>2021-09-10T12:55:47.589Z</time>
      </trkpt>
      <trkpt lat="45.76933" lon="6.13807">
        <ele>938</ele>
        <time>2021-09-10T12:55:48.589Z</time>
      </trkpt>
      <trkpt lat="45.76934" lon="6.13809">
        <ele>938</ele>
        <time>2021-09-10T12:55:49.589Z</time>
      </trkpt>
      <trkpt lat="45.76935" lon="6.13812">
        <ele>938</ele>
        <time>2021-09-10T12:55:50.588Z</time>
      </trkpt>
      <trkpt lat="45.76936" lon="6.13815">
        <ele>938</ele>
        <time>2021-09-10T12:55:51.589Z</time>
      </trkpt>
      <trkpt lat="45.76936" lon="6.13818">
        <ele>938</ele>
        <time>2021-09-10T12:55:52.589Z</time>
      </trkpt>
      <trkpt lat="45.76937" lon="6.1382">
        <ele>938</ele>
        <time>2021-09-10T12:55:53.589Z</time>
      </trkpt>
      <trkpt lat="45.76938" lon="6.13822">
        <ele>937</ele>
        <time>2021-09-10T12:55:54.589Z</time>
      </trkpt>
      <trkpt lat="45.76939" lon="6.13825">
        <ele>937</ele>
        <time>2021-09-10T12:55:55.589Z</time>
      </trkpt>
      <trkpt lat="45.7694" lon="6.13828">
        <ele>937</ele>
        <time>2021-09-10T12:55:56.588Z</time>
      </trkpt>
      <trkpt lat="45.7694" lon="6.13831">
        <ele>937</ele>
        <time>2021-09-10T12:55:57.589Z</time>
      </trkpt>
      <trkpt lat="45.76941" lon="6.13834">
        <ele>937</ele>
        <time>2021-09-10T12:55:58.588Z</time>
      </trkpt>
      <trkpt lat="45.76941" lon="6.13837">
        <ele>937</ele>
        <time>2021-09-10T12:55:59.589Z</time>
      </trkpt>
      <trkpt lat="45.76942" lon="6.1384">
        <ele>937</ele>
        <time>2021-09-10T12:56:00.588Z</time>
      </trkpt>
      <trkpt lat="45.76942" lon="6.13843">
        <ele>937</ele>
        <time>2021-09-10T12:56:01.589Z</time>
      </trkpt>
      <trkpt lat="45.76943" lon="6.13846">
        <ele>937</ele>
        <time>2021-09-10T12:56:02.589Z</time>
      </trkpt>
      <trkpt lat="45.76943" lon="6.13849">
        <ele>938</ele>
        <time>2021-09-10T12:56:03.589Z</time>
      </trkpt>
      <trkpt lat="45.76944" lon="6.13853">
        <ele>938</ele>
        <time>2021-09-10T12:56:04.589Z</time>
      </trkpt>
      <trkpt lat="45.76944" lon="6.13856">
        <ele>938</ele>
        <time>2021-09-10T12:56:05.589Z</time>
      </trkpt>
      <trkpt lat="45.76945" lon="6.1386">
        <ele>939</ele>
        <time>2021-09-10T12:56:06.589Z</time>
      </trkpt>
      <trkpt lat="45.76945" lon="6.13864">
        <ele>939</ele>
        <time>2021-09-10T12:56:07.589Z</time>
      </trkpt>
      <trkpt lat="45.76946" lon="6.13868">
        <ele>939</ele>
        <time>2021-09-10T12:56:08.588Z</time>
      </trkpt>
      <trkpt lat="45.76946" lon="6.13872">
        <ele>939</ele>
        <time>2021-09-10T12:56:09.589Z</time>
      </trkpt>
      <trkpt lat="45.76947" lon="6.13876">
        <ele>939</ele>
        <time>2021-09-10T12:56:10.589Z</time>
      </trkpt>
      <trkpt lat="45.76947" lon="6.1388">
        <ele>939</ele>
        <time>2021-09-10T12:56:11.588Z</time>
      </trkpt>
      <trkpt lat="45.76947" lon="6.13885">
        <ele>939</ele>
        <time>2021-09-10T12:56:12.589Z</time>
      </trkpt>
      <trkpt lat="45.76947" lon="6.13889">
        <ele>939</ele>
        <time>2021-09-10T12:56:13.589Z</time>
      </trkpt>
      <trkpt lat="45.76948" lon="6.13894">
        <ele>939</ele>
        <time>2021-09-10T12:56:14.589Z</time>
      </trkpt>
      <trkpt lat="45.76948" lon="6.13898">
        <ele>939</ele>
        <time>2021-09-10T12:56:15.589Z</time>
      </trkpt>
      <trkpt lat="45.76949" lon="6.13903">
        <ele>939</ele>
        <time>2021-09-10T12:56:16.588Z</time>
      </trkpt>
      <trkpt lat="45.76949" lon="6.13907">
        <ele>939</ele>
        <time>2021-09-10T12:56:17.588Z</time>
      </trkpt>
      <trkpt lat="45.7695" lon="6.13912">
        <ele>938</ele>
        <time>2021-09-10T12:56:18.589Z</time>
      </trkpt>
      <trkpt lat="45.76951" lon="6.13917">
        <ele>938</ele>
        <time>2021-09-10T12:56:19.589Z</time>
      </trkpt>
      <trkpt lat="45.76952" lon="6.13922">
        <ele>938</ele>
        <time>2021-09-10T12:56:20.589Z</time>
      </trkpt>
      <trkpt lat="45.76953" lon="6.13927">
        <ele>937</ele>
        <time>2021-09-10T12:56:21.589Z</time>
      </trkpt>
      <trkpt lat="45.76954" lon="6.13933">
        <ele>937</ele>
        <time>2021-09-10T12:56:22.588Z</time>
      </trkpt>
      <trkpt lat="45.76954" lon="6.13939">
        <ele>937</ele>
        <time>2021-09-10T12:56:23.589Z</time>
      </trkpt>
      <trkpt lat="45.76955" lon="6.13944">
        <ele>936</ele>
        <time>2021-09-10T12:56:24.588Z</time>
      </trkpt>
      <trkpt lat="45.76957" lon="6.1395">
        <ele>936</ele>
        <time>2021-09-10T12:56:25.589Z</time>
      </trkpt>
      <trkpt lat="45.76958" lon="6.13956">
        <ele>936</ele>
        <time>2021-09-10T12:56:26.588Z</time>
      </trkpt>
      <trkpt lat="45.76959" lon="6.13961">
        <ele>936</ele>
        <time>2021-09-10T12:56:27.589Z</time>
      </trkpt>
      <trkpt lat="45.76959" lon="6.13967">
        <ele>936</ele>
        <time>2021-09-10T12:56:28.589Z</time>
      </trkpt>
      <trkpt lat="45.76961" lon="6.13973">
        <ele>936</ele>
        <time>2021-09-10T12:56:29.589Z</time>
      </trkpt>
      <trkpt lat="45.76962" lon="6.1398">
        <ele>937</ele>
        <time>2021-09-10T12:56:30.588Z</time>
      </trkpt>
      <trkpt lat="45.76964" lon="6.13986">
        <ele>938</ele>
        <time>2021-09-10T12:56:31.589Z</time>
      </trkpt>
      <trkpt lat="45.76965" lon="6.13992">
        <ele>939</ele>
        <time>2021-09-10T12:56:32.589Z</time>
      </trkpt>
      <trkpt lat="45.76967" lon="6.13999">
        <ele>940</ele>
        <time>2021-09-10T12:56:33.589Z</time>
      </trkpt>
      <trkpt lat="45.76969" lon="6.14005">
        <ele>940</ele>
        <time>2021-09-10T12:56:34.588Z</time>
      </trkpt>
      <trkpt lat="45.76972" lon="6.14012">
        <ele>939</ele>
        <time>2021-09-10T12:56:35.588Z</time>
      </trkpt>
      <trkpt lat="45.76974" lon="6.14018">
        <ele>939</ele>
        <time>2021-09-10T12:56:36.589Z</time>
      </trkpt>
      <trkpt lat="45.76977" lon="6.14024">
        <ele>939</ele>
        <time>2021-09-10T12:56:37.588Z</time>
      </trkpt>
      <trkpt lat="45.7698" lon="6.14031">
        <ele>939</ele>
        <time>2021-09-10T12:56:38.589Z</time>
      </trkpt>
      <trkpt lat="45.76983" lon="6.14037">
        <ele>939</ele>
        <time>2021-09-10T12:56:39.589Z</time>
      </trkpt>
      <trkpt lat="45.76986" lon="6.14043">
        <ele>939</ele>
        <time>2021-09-10T12:56:40.588Z</time>
      </trkpt>
      <trkpt lat="45.76989" lon="6.14048">
        <ele>940</ele>
        <time>2021-09-10T12:56:41.589Z</time>
      </trkpt>
      <trkpt lat="45.76991" lon="6.14054">
        <ele>940</ele>
        <time>2021-09-10T12:56:42.589Z</time>
      </trkpt>
      <trkpt lat="45.76992" lon="6.1406">
        <ele>939</ele>
        <time>2021-09-10T12:56:43.589Z</time>
      </trkpt>
      <trkpt lat="45.76994" lon="6.14065">
        <ele>939</ele>
        <time>2021-09-10T12:56:44.589Z</time>
      </trkpt>
      <trkpt lat="45.76995" lon="6.14072">
        <ele>939</ele>
        <time>2021-09-10T12:56:45.589Z</time>
      </trkpt>
      <trkpt lat="45.76995" lon="6.14078">
        <ele>938</ele>
        <time>2021-09-10T12:56:46.589Z</time>
      </trkpt>
      <trkpt lat="45.76995" lon="6.14084">
        <ele>938</ele>
        <time>2021-09-10T12:56:47.588Z</time>
      </trkpt>
      <trkpt lat="45.76996" lon="6.14091">
        <ele>937</ele>
        <time>2021-09-10T12:56:48.589Z</time>
      </trkpt>
      <trkpt lat="45.76996" lon="6.14098">
        <ele>937</ele>
        <time>2021-09-10T12:56:49.589Z</time>
      </trkpt>
      <trkpt lat="45.76997" lon="6.14105">
        <ele>936</ele>
        <time>2021-09-10T12:56:50.589Z</time>
      </trkpt>
      <trkpt lat="45.77" lon="6.14112">
        <ele>936</ele>
        <time>2021-09-10T12:56:51.589Z</time>
      </trkpt>
      <trkpt lat="45.77003" lon="6.14118">
        <ele>937</ele>
        <time>2021-09-10T12:56:52.589Z</time>
      </trkpt>
      <trkpt lat="45.77006" lon="6.14121">
        <ele>937</ele>
        <time>2021-09-10T12:56:53.588Z</time>
      </trkpt>
      <trkpt lat="45.77011" lon="6.14125">
        <ele>937</ele>
        <time>2021-09-10T12:56:54.589Z</time>
      </trkpt>
      <trkpt lat="45.77017" lon="6.14127">
        <ele>937</ele>
        <time>2021-09-10T12:56:55.588Z</time>
      </trkpt>
      <trkpt lat="45.77022" lon="6.14128">
        <ele>938</ele>
        <time>2021-09-10T12:56:56.589Z</time>
      </trkpt>
      <trkpt lat="45.77027" lon="6.14128">
        <ele>938</ele>
        <time>2021-09-10T12:56:57.588Z</time>
      </trkpt>
      <trkpt lat="45.77032" lon="6.14127">
        <ele>938</ele>
        <time>2021-09-10T12:56:58.588Z</time>
      </trkpt>
      <trkpt lat="45.77038" lon="6.14126">
        <ele>938</ele>
        <time>2021-09-10T12:56:59.588Z</time>
      </trkpt>
      <trkpt lat="45.77043" lon="6.14124">
        <ele>937</ele>
        <time>2021-09-10T12:57:00.589Z</time>
      </trkpt>
      <trkpt lat="45.77049" lon="6.14121">
        <ele>937</ele>
        <time>2021-09-10T12:57:01.589Z</time>
      </trkpt>
      <trkpt lat="45.77053" lon="6.14119">
        <ele>937</ele>
        <time>2021-09-10T12:57:02.588Z</time>
      </trkpt>
      <trkpt lat="45.77058" lon="6.14116">
        <ele>937</ele>
        <time>2021-09-10T12:57:03.588Z</time>
      </trkpt>
      <trkpt lat="45.77062" lon="6.14114">
        <ele>936</ele>
        <time>2021-09-10T12:57:04.589Z</time>
      </trkpt>
      <trkpt lat="45.77065" lon="6.14111">
        <ele>936</ele>
        <time>2021-09-10T12:57:05.589Z</time>
      </trkpt>
      <trkpt lat="45.77069" lon="6.14108">
        <ele>936</ele>
        <time>2021-09-10T12:57:06.589Z</time>
      </trkpt>
      <trkpt lat="45.77074" lon="6.14105">
        <ele>936</ele>
        <time>2021-09-10T12:57:07.589Z</time>
      </trkpt>
      <trkpt lat="45.77078" lon="6.14101">
        <ele>935</ele>
        <time>2021-09-10T12:57:08.589Z</time>
      </trkpt>
      <trkpt lat="45.77083" lon="6.14098">
        <ele>935</ele>
        <time>2021-09-10T12:57:09.588Z</time>
      </trkpt>
      <trkpt lat="45.77087" lon="6.14094">
        <ele>935</ele>
        <time>2021-09-10T12:57:10.589Z</time>
      </trkpt>
      <trkpt lat="45.7709" lon="6.14091">
        <ele>935</ele>
        <time>2021-09-10T12:57:11.589Z</time>
      </trkpt>
      <trkpt lat="45.77094" lon="6.14088">
        <ele>936</ele>
        <time>2021-09-10T12:57:12.588Z</time>
      </trkpt>
      <trkpt lat="45.77099" lon="6.14086">
        <ele>936</ele>
        <time>2021-09-10T12:57:13.588Z</time>
      </trkpt>
      <trkpt lat="45.77103" lon="6.14083">
        <ele>936</ele>
        <time>2021-09-10T12:57:14.589Z</time>
      </trkpt>
      <trkpt lat="45.77108" lon="6.1408">
        <ele>936</ele>
        <time>2021-09-10T12:57:15.589Z</time>
      </trkpt>
      <trkpt lat="45.77113" lon="6.14077">
        <ele>936</ele>
        <time>2021-09-10T12:57:16.588Z</time>
      </trkpt>
      <trkpt lat="45.77117" lon="6.14074">
        <ele>936</ele>
        <time>2021-09-10T12:57:17.589Z</time>
      </trkpt>
      <trkpt lat="45.77122" lon="6.14073">
        <ele>936</ele>
        <time>2021-09-10T12:57:18.589Z</time>
      </trkpt>
      <trkpt lat="45.77127" lon="6.14072">
        <ele>936</ele>
        <time>2021-09-10T12:57:19.588Z</time>
      </trkpt>
      <trkpt lat="45.77133" lon="6.14072">
        <ele>936</ele>
        <time>2021-09-10T12:57:20.588Z</time>
      </trkpt>
      <trkpt lat="45.77137" lon="6.14072">
        <ele>936</ele>
        <time>2021-09-10T12:57:21.588Z</time>
      </trkpt>
      <trkpt lat="45.77142" lon="6.14074">
        <ele>936</ele>
        <time>2021-09-10T12:57:22.588Z</time>
      </trkpt>
      <trkpt lat="45.77146" lon="6.14076">
        <ele>936</ele>
        <time>2021-09-10T12:57:23.589Z</time>
      </trkpt>
      <trkpt lat="45.77151" lon="6.14079">
        <ele>935</ele>
        <time>2021-09-10T12:57:24.589Z</time>
      </trkpt>
      <trkpt lat="45.77155" lon="6.14083">
        <ele>935</ele>
        <time>2021-09-10T12:57:25.589Z</time>
      </trkpt>
      <trkpt lat="45.77159" lon="6.14088">
        <ele>935</ele>
        <time>2021-09-10T12:57:26.589Z</time>
      </trkpt>
      <trkpt lat="45.77162" lon="6.14093">
        <ele>935</ele>
        <time>2021-09-10T12:57:27.588Z</time>
      </trkpt>
      <trkpt lat="45.77165" lon="6.14099">
        <ele>934</ele>
        <time>2021-09-10T12:57:28.589Z</time>
      </trkpt>
      <trkpt lat="45.77168" lon="6.14105">
        <ele>933</ele>
        <time>2021-09-10T12:57:29.589Z</time>
      </trkpt>
      <trkpt lat="45.7717" lon="6.14111">
        <ele>932</ele>
        <time>2021-09-10T12:57:30.589Z</time>
      </trkpt>
      <trkpt lat="45.77172" lon="6.14117">
        <ele>931</ele>
        <time>2021-09-10T12:57:31.589Z</time>
      </trkpt>
      <trkpt lat="45.77174" lon="6.14123">
        <ele>931</ele>
        <time>2021-09-10T12:57:32.589Z</time>
      </trkpt>
      <trkpt lat="45.77175" lon="6.1413">
        <ele>930</ele>
        <time>2021-09-10T12:57:33.589Z</time>
      </trkpt>
      <trkpt lat="45.77176" lon="6.14136">
        <ele>930</ele>
        <time>2021-09-10T12:57:34.589Z</time>
      </trkpt>
      <trkpt lat="45.77176" lon="6.14142">
        <ele>930</ele>
        <time>2021-09-10T12:57:35.589Z</time>
      </trkpt>
      <trkpt lat="45.77177" lon="6.14148">
        <ele>930</ele>
        <time>2021-09-10T12:57:36.589Z</time>
      </trkpt>
      <trkpt lat="45.77178" lon="6.14155">
        <ele>930</ele>
        <time>2021-09-10T12:57:37.589Z</time>
      </trkpt>
      <trkpt lat="45.77179" lon="6.14161">
        <ele>930</ele>
        <time>2021-09-10T12:57:38.589Z</time>
      </trkpt>
      <trkpt lat="45.7718" lon="6.14167">
        <ele>930</ele>
        <time>2021-09-10T12:57:39.589Z</time>
      </trkpt>
      <trkpt lat="45.77181" lon="6.14174">
        <ele>930</ele>
        <time>2021-09-10T12:57:40.589Z</time>
      </trkpt>
      <trkpt lat="45.77182" lon="6.1418">
        <ele>930</ele>
        <time>2021-09-10T12:57:41.588Z</time>
      </trkpt>
      <trkpt lat="45.77184" lon="6.14186">
        <ele>930</ele>
        <time>2021-09-10T12:57:42.588Z</time>
      </trkpt>
      <trkpt lat="45.77185" lon="6.14192">
        <ele>930</ele>
        <time>2021-09-10T12:57:43.588Z</time>
      </trkpt>
      <trkpt lat="45.77187" lon="6.14198">
        <ele>930</ele>
        <time>2021-09-10T12:57:44.588Z</time>
      </trkpt>
      <trkpt lat="45.77189" lon="6.14204">
        <ele>930</ele>
        <time>2021-09-10T12:57:45.589Z</time>
      </trkpt>
      <trkpt lat="45.77192" lon="6.1421">
        <ele>930</ele>
        <time>2021-09-10T12:57:46.589Z</time>
      </trkpt>
      <trkpt lat="45.77194" lon="6.14215">
        <ele>930</ele>
        <time>2021-09-10T12:57:47.589Z</time>
      </trkpt>
      <trkpt lat="45.77197" lon="6.14221">
        <ele>931</ele>
        <time>2021-09-10T12:57:48.589Z</time>
      </trkpt>
      <trkpt lat="45.772" lon="6.14227">
        <ele>931</ele>
        <time>2021-09-10T12:57:49.589Z</time>
      </trkpt>
      <trkpt lat="45.77203" lon="6.14232">
        <ele>931</ele>
        <time>2021-09-10T12:57:50.589Z</time>
      </trkpt>
      <trkpt lat="45.77206" lon="6.14237">
        <ele>931</ele>
        <time>2021-09-10T12:57:51.588Z</time>
      </trkpt>
      <trkpt lat="45.7721" lon="6.14241">
        <ele>931</ele>
        <time>2021-09-10T12:57:52.588Z</time>
      </trkpt>
      <trkpt lat="45.77213" lon="6.14246">
        <ele>931</ele>
        <time>2021-09-10T12:57:53.589Z</time>
      </trkpt>
      <trkpt lat="45.77216" lon="6.14251">
        <ele>932</ele>
        <time>2021-09-10T12:57:54.589Z</time>
      </trkpt>
      <trkpt lat="45.77219" lon="6.14256">
        <ele>932</ele>
        <time>2021-09-10T12:57:55.589Z</time>
      </trkpt>
      <trkpt lat="45.77222" lon="6.14261">
        <ele>933</ele>
        <time>2021-09-10T12:57:56.588Z</time>
      </trkpt>
      <trkpt lat="45.77225" lon="6.14266">
        <ele>934</ele>
        <time>2021-09-10T12:57:57.589Z</time>
      </trkpt>
      <trkpt lat="45.77228" lon="6.14271">
        <ele>934</ele>
        <time>2021-09-10T12:57:58.589Z</time>
      </trkpt>
      <trkpt lat="45.77231" lon="6.14276">
        <ele>935</ele>
        <time>2021-09-10T12:57:59.588Z</time>
      </trkpt>
      <trkpt lat="45.77235" lon="6.14281">
        <ele>936</ele>
        <time>2021-09-10T12:58:00.589Z</time>
      </trkpt>
      <trkpt lat="45.77238" lon="6.14286">
        <ele>936</ele>
        <time>2021-09-10T12:58:01.589Z</time>
      </trkpt>
      <trkpt lat="45.77241" lon="6.14291">
        <ele>936</ele>
        <time>2021-09-10T12:58:02.589Z</time>
      </trkpt>
      <trkpt lat="45.77244" lon="6.14296">
        <ele>936</ele>
        <time>2021-09-10T12:58:03.588Z</time>
      </trkpt>
      <trkpt lat="45.77247" lon="6.143">
        <ele>936</ele>
        <time>2021-09-10T12:58:04.589Z</time>
      </trkpt>
      <trkpt lat="45.77249" lon="6.14304">
        <ele>936</ele>
        <time>2021-09-10T12:58:05.589Z</time>
      </trkpt>
      <trkpt lat="45.77252" lon="6.14309">
        <ele>936</ele>
        <time>2021-09-10T12:58:06.589Z</time>
      </trkpt>
      <trkpt lat="45.77254" lon="6.14314">
        <ele>935</ele>
        <time>2021-09-10T12:58:07.589Z</time>
      </trkpt>
      <trkpt lat="45.77256" lon="6.14318">
        <ele>935</ele>
        <time>2021-09-10T12:58:08.588Z</time>
      </trkpt>
      <trkpt lat="45.77259" lon="6.14324">
        <ele>934</ele>
        <time>2021-09-10T12:58:09.589Z</time>
      </trkpt>
      <trkpt lat="45.77261" lon="6.14328">
        <ele>934</ele>
        <time>2021-09-10T12:58:10.588Z</time>
      </trkpt>
      <trkpt lat="45.77264" lon="6.14334">
        <ele>933</ele>
        <time>2021-09-10T12:58:11.589Z</time>
      </trkpt>
      <trkpt lat="45.77267" lon="6.14339">
        <ele>933</ele>
        <time>2021-09-10T12:58:12.589Z</time>
      </trkpt>
      <trkpt lat="45.77269" lon="6.14345">
        <ele>933</ele>
        <time>2021-09-10T12:58:13.589Z</time>
      </trkpt>
      <trkpt lat="45.77271" lon="6.14351">
        <ele>933</ele>
        <time>2021-09-10T12:58:14.589Z</time>
      </trkpt>
      <trkpt lat="45.77273" lon="6.14357">
        <ele>932</ele>
        <time>2021-09-10T12:58:15.589Z</time>
      </trkpt>
      <trkpt lat="45.77274" lon="6.14363">
        <ele>932</ele>
        <time>2021-09-10T12:58:16.589Z</time>
      </trkpt>
      <trkpt lat="45.77275" lon="6.1437">
        <ele>931</ele>
        <time>2021-09-10T12:58:17.588Z</time>
      </trkpt>
      <trkpt lat="45.77275" lon="6.14376">
        <ele>931</ele>
        <time>2021-09-10T12:58:18.589Z</time>
      </trkpt>
      <trkpt lat="45.77275" lon="6.14383">
        <ele>931</ele>
        <time>2021-09-10T12:58:19.589Z</time>
      </trkpt>
      <trkpt lat="45.77274" lon="6.1439">
        <ele>931</ele>
        <time>2021-09-10T12:58:20.588Z</time>
      </trkpt>
      <trkpt lat="45.77273" lon="6.14397">
        <ele>931</ele>
        <time>2021-09-10T12:58:21.588Z</time>
      </trkpt>
      <trkpt lat="45.77271" lon="6.14403">
        <ele>931</ele>
        <time>2021-09-10T12:58:22.588Z</time>
      </trkpt>
      <trkpt lat="45.77269" lon="6.14409">
        <ele>930</ele>
        <time>2021-09-10T12:58:23.588Z</time>
      </trkpt>
      <trkpt lat="45.77267" lon="6.14416">
        <ele>930</ele>
        <time>2021-09-10T12:58:24.588Z</time>
      </trkpt>
      <trkpt lat="45.77265" lon="6.14422">
        <ele>931</ele>
        <time>2021-09-10T12:58:25.588Z</time>
      </trkpt>
      <trkpt lat="45.77263" lon="6.14429">
        <ele>930</ele>
        <time>2021-09-10T12:58:26.588Z</time>
      </trkpt>
      <trkpt lat="45.77261" lon="6.14436">
        <ele>930</ele>
        <time>2021-09-10T12:58:27.589Z</time>
      </trkpt>
      <trkpt lat="45.77259" lon="6.14443">
        <ele>930</ele>
        <time>2021-09-10T12:58:28.589Z</time>
      </trkpt>
      <trkpt lat="45.77258" lon="6.1445">
        <ele>930</ele>
        <time>2021-09-10T12:58:29.589Z</time>
      </trkpt>
      <trkpt lat="45.77257" lon="6.14457">
        <ele>930</ele>
        <time>2021-09-10T12:58:30.588Z</time>
      </trkpt>
      <trkpt lat="45.77257" lon="6.14464">
        <ele>930</ele>
        <time>2021-09-10T12:58:31.589Z</time>
      </trkpt>
      <trkpt lat="45.77257" lon="6.14472">
        <ele>931</ele>
        <time>2021-09-10T12:58:32.589Z</time>
      </trkpt>
      <trkpt lat="45.77257" lon="6.14479">
        <ele>931</ele>
        <time>2021-09-10T12:58:33.589Z</time>
      </trkpt>
      <trkpt lat="45.77257" lon="6.14486">
        <ele>931</ele>
        <time>2021-09-10T12:58:34.589Z</time>
      </trkpt>
      <trkpt lat="45.77258" lon="6.14493">
        <ele>931</ele>
        <time>2021-09-10T12:58:35.588Z</time>
      </trkpt>
      <trkpt lat="45.77258" lon="6.145">
        <ele>930</ele>
        <time>2021-09-10T12:58:36.589Z</time>
      </trkpt>
      <trkpt lat="45.77259" lon="6.14508">
        <ele>930</ele>
        <time>2021-09-10T12:58:37.589Z</time>
      </trkpt>
      <trkpt lat="45.7726" lon="6.14515">
        <ele>930</ele>
        <time>2021-09-10T12:58:38.588Z</time>
      </trkpt>
      <trkpt lat="45.77261" lon="6.14522">
        <ele>930</ele>
        <time>2021-09-10T12:58:39.589Z</time>
      </trkpt>
      <trkpt lat="45.77262" lon="6.14529">
        <ele>930</ele>
        <time>2021-09-10T12:58:40.588Z</time>
      </trkpt>
      <trkpt lat="45.77263" lon="6.14536">
        <ele>930</ele>
        <time>2021-09-10T12:58:41.589Z</time>
      </trkpt>
      <trkpt lat="45.77265" lon="6.14542">
        <ele>930</ele>
        <time>2021-09-10T12:58:42.588Z</time>
      </trkpt>
      <trkpt lat="45.77267" lon="6.14549">
        <ele>931</ele>
        <time>2021-09-10T12:58:43.589Z</time>
      </trkpt>
      <trkpt lat="45.7727" lon="6.14555">
        <ele>931</ele>
        <time>2021-09-10T12:58:44.589Z</time>
      </trkpt>
      <trkpt lat="45.77272" lon="6.14561">
        <ele>931</ele>
        <time>2021-09-10T12:58:45.588Z</time>
      </trkpt>
      <trkpt lat="45.77275" lon="6.14567">
        <ele>931</ele>
        <time>2021-09-10T12:58:46.589Z</time>
      </trkpt>
      <trkpt lat="45.77277" lon="6.14573">
        <ele>931</ele>
        <time>2021-09-10T12:58:47.589Z</time>
      </trkpt>
      <trkpt lat="45.7728" lon="6.14578">
        <ele>931</ele>
        <time>2021-09-10T12:58:48.589Z</time>
      </trkpt>
      <trkpt lat="45.77282" lon="6.14584">
        <ele>931</ele>
        <time>2021-09-10T12:58:49.589Z</time>
      </trkpt>
      <trkpt lat="45.77284" lon="6.14588">
        <ele>931</ele>
        <time>2021-09-10T12:58:50.588Z</time>
      </trkpt>
      <trkpt lat="45.77287" lon="6.14595">
        <ele>931</ele>
        <time>2021-09-10T12:58:51.589Z</time>
      </trkpt>
      <trkpt lat="45.77288" lon="6.14601">
        <ele>931</ele>
        <time>2021-09-10T12:58:52.589Z</time>
      </trkpt>
      <trkpt lat="45.77289" lon="6.14608">
        <ele>931</ele>
        <time>2021-09-10T12:58:53.588Z</time>
      </trkpt>
      <trkpt lat="45.7729" lon="6.14613">
        <ele>930</ele>
        <time>2021-09-10T12:58:54.589Z</time>
      </trkpt>
      <trkpt lat="45.77291" lon="6.14619">
        <ele>930</ele>
        <time>2021-09-10T12:58:55.589Z</time>
      </trkpt>
      <trkpt lat="45.77291" lon="6.14626">
        <ele>929</ele>
        <time>2021-09-10T12:58:56.588Z</time>
      </trkpt>
      <trkpt lat="45.7729" lon="6.14632">
        <ele>929</ele>
        <time>2021-09-10T12:58:57.588Z</time>
      </trkpt>
      <trkpt lat="45.7729" lon="6.14639">
        <ele>929</ele>
        <time>2021-09-10T12:58:58.589Z</time>
      </trkpt>
      <trkpt lat="45.7729" lon="6.14645">
        <ele>929</ele>
        <time>2021-09-10T12:58:59.589Z</time>
      </trkpt>
      <trkpt lat="45.7729" lon="6.14652">
        <ele>929</ele>
        <time>2021-09-10T12:59:00.589Z</time>
      </trkpt>
      <trkpt lat="45.7729" lon="6.14659">
        <ele>929</ele>
        <time>2021-09-10T12:59:01.588Z</time>
      </trkpt>
      <trkpt lat="45.77289" lon="6.14665">
        <ele>929</ele>
        <time>2021-09-10T12:59:02.589Z</time>
      </trkpt>
      <trkpt lat="45.77289" lon="6.14674">
        <ele>929</ele>
        <time>2021-09-10T12:59:03.588Z</time>
      </trkpt>
      <trkpt lat="45.7729" lon="6.1468">
        <ele>929</ele>
        <time>2021-09-10T12:59:04.588Z</time>
      </trkpt>
      <trkpt lat="45.77291" lon="6.14687">
        <ele>930</ele>
        <time>2021-09-10T12:59:05.588Z</time>
      </trkpt>
      <trkpt lat="45.77292" lon="6.14693">
        <ele>931</ele>
        <time>2021-09-10T12:59:06.589Z</time>
      </trkpt>
      <trkpt lat="45.77295" lon="6.14698">
        <ele>932</ele>
        <time>2021-09-10T12:59:07.588Z</time>
      </trkpt>
      <trkpt lat="45.77297" lon="6.14703">
        <ele>932</ele>
        <time>2021-09-10T12:59:08.588Z</time>
      </trkpt>
      <trkpt lat="45.773" lon="6.14707">
        <ele>933</ele>
        <time>2021-09-10T12:59:09.588Z</time>
      </trkpt>
      <trkpt lat="45.77304" lon="6.1471">
        <ele>934</ele>
        <time>2021-09-10T12:59:10.589Z</time>
      </trkpt>
      <trkpt lat="45.77308" lon="6.14712">
        <ele>934</ele>
        <time>2021-09-10T12:59:11.589Z</time>
      </trkpt>
      <trkpt lat="45.77313" lon="6.14713">
        <ele>935</ele>
        <time>2021-09-10T12:59:12.589Z</time>
      </trkpt>
      <trkpt lat="45.77318" lon="6.14714">
        <ele>935</ele>
        <time>2021-09-10T12:59:13.589Z</time>
      </trkpt>
      <trkpt lat="45.77323" lon="6.14714">
        <ele>935</ele>
        <time>2021-09-10T12:59:14.588Z</time>
      </trkpt>
      <trkpt lat="45.77327" lon="6.14713">
        <ele>935</ele>
        <time>2021-09-10T12:59:15.589Z</time>
      </trkpt>
      <trkpt lat="45.77332" lon="6.14711">
        <ele>935</ele>
        <time>2021-09-10T12:59:16.588Z</time>
      </trkpt>
      <trkpt lat="45.77337" lon="6.14709">
        <ele>934</ele>
        <time>2021-09-10T12:59:17.588Z</time>
      </trkpt>
      <trkpt lat="45.77342" lon="6.14707">
        <ele>935</ele>
        <time>2021-09-10T12:59:18.588Z</time>
      </trkpt>
      <trkpt lat="45.77346" lon="6.14705">
        <ele>935</ele>
        <time>2021-09-10T12:59:19.589Z</time>
      </trkpt>
      <trkpt lat="45.77351" lon="6.14702">
        <ele>935</ele>
        <time>2021-09-10T12:59:20.589Z</time>
      </trkpt>
      <trkpt lat="45.77355" lon="6.14699">
        <ele>935</ele>
        <time>2021-09-10T12:59:21.589Z</time>
      </trkpt>
      <trkpt lat="45.77359" lon="6.14696">
        <ele>935</ele>
        <time>2021-09-10T12:59:22.589Z</time>
      </trkpt>
      <trkpt lat="45.77363" lon="6.14691">
        <ele>935</ele>
        <time>2021-09-10T12:59:23.589Z</time>
      </trkpt>
      <trkpt lat="45.77366" lon="6.14687">
        <ele>935</ele>
        <time>2021-09-10T12:59:24.589Z</time>
      </trkpt>
      <trkpt lat="45.7737" lon="6.14682">
        <ele>935</ele>
        <time>2021-09-10T12:59:25.589Z</time>
      </trkpt>
      <trkpt lat="45.77373" lon="6.14677">
        <ele>935</ele>
        <time>2021-09-10T12:59:26.589Z</time>
      </trkpt>
      <trkpt lat="45.77377" lon="6.14672">
        <ele>934</ele>
        <time>2021-09-10T12:59:27.589Z</time>
      </trkpt>
      <trkpt lat="45.7738" lon="6.14667">
        <ele>934</ele>
        <time>2021-09-10T12:59:28.588Z</time>
      </trkpt>
      <trkpt lat="45.77383" lon="6.14662">
        <ele>934</ele>
        <time>2021-09-10T12:59:29.588Z</time>
      </trkpt>
      <trkpt lat="45.77385" lon="6.14656">
        <ele>933</ele>
        <time>2021-09-10T12:59:30.588Z</time>
      </trkpt>
      <trkpt lat="45.77388" lon="6.1465">
        <ele>933</ele>
        <time>2021-09-10T12:59:31.588Z</time>
      </trkpt>
      <trkpt lat="45.77391" lon="6.14644">
        <ele>933</ele>
        <time>2021-09-10T12:59:32.589Z</time>
      </trkpt>
      <trkpt lat="45.77393" lon="6.14639">
        <ele>932</ele>
        <time>2021-09-10T12:59:33.589Z</time>
      </trkpt>
      <trkpt lat="45.77396" lon="6.14633">
        <ele>932</ele>
        <time>2021-09-10T12:59:34.589Z</time>
      </trkpt>
      <trkpt lat="45.77398" lon="6.14627">
        <ele>932</ele>
        <time>2021-09-10T12:59:35.589Z</time>
      </trkpt>
      <trkpt lat="45.77401" lon="6.14621">
        <ele>932</ele>
        <time>2021-09-10T12:59:36.589Z</time>
      </trkpt>
      <trkpt lat="45.77403" lon="6.14616">
        <ele>931</ele>
        <time>2021-09-10T12:59:37.589Z</time>
      </trkpt>
      <trkpt lat="45.77407" lon="6.14612">
        <ele>931</ele>
        <time>2021-09-10T12:59:38.589Z</time>
      </trkpt>
      <trkpt lat="45.7741" lon="6.14608">
        <ele>931</ele>
        <time>2021-09-10T12:59:39.589Z</time>
      </trkpt>
      <trkpt lat="45.77414" lon="6.14606">
        <ele>931</ele>
        <time>2021-09-10T12:59:40.589Z</time>
      </trkpt>
      <trkpt lat="45.77418" lon="6.14605">
        <ele>931</ele>
        <time>2021-09-10T12:59:41.589Z</time>
      </trkpt>
      <trkpt lat="45.77421" lon="6.14605">
        <ele>931</ele>
        <time>2021-09-10T12:59:42.589Z</time>
      </trkpt>
      <trkpt lat="45.77425" lon="6.14606">
        <ele>931</ele>
        <time>2021-09-10T12:59:43.589Z</time>
      </trkpt>
      <trkpt lat="45.77429" lon="6.14608">
        <ele>931</ele>
        <time>2021-09-10T12:59:44.588Z</time>
      </trkpt>
      <trkpt lat="45.77431" lon="6.14609">
        <ele>931</ele>
        <time>2021-09-10T12:59:45.589Z</time>
      </trkpt>
      <trkpt lat="45.77434" lon="6.14611">
        <ele>931</ele>
        <time>2021-09-10T12:59:46.589Z</time>
      </trkpt>
      <trkpt lat="45.77436" lon="6.14613">
        <ele>931</ele>
        <time>2021-09-10T12:59:47.589Z</time>
      </trkpt>
      <trkpt lat="45.77438" lon="6.14615">
        <ele>931</ele>
        <time>2021-09-10T12:59:48.588Z</time>
      </trkpt>
      <trkpt lat="45.7744" lon="6.14617">
        <ele>931</ele>
        <time>2021-09-10T12:59:49.589Z</time>
      </trkpt>
      <trkpt lat="45.77442" lon="6.14619">
        <ele>932</ele>
        <time>2021-09-10T12:59:50.589Z</time>
      </trkpt>
      <trkpt lat="45.77445" lon="6.14621">
        <ele>932</ele>
        <time>2021-09-10T12:59:51.588Z</time>
      </trkpt>
      <trkpt lat="45.77447" lon="6.14624">
        <ele>932</ele>
        <time>2021-09-10T12:59:52.589Z</time>
      </trkpt>
      <trkpt lat="45.77449" lon="6.14625">
        <ele>932</ele>
        <time>2021-09-10T12:59:53.589Z</time>
      </trkpt>
      <trkpt lat="45.77451" lon="6.14627">
        <ele>933</ele>
        <time>2021-09-10T12:59:54.588Z</time>
      </trkpt>
      <trkpt lat="45.77453" lon="6.14629">
        <ele>933</ele>
        <time>2021-09-10T12:59:55.589Z</time>
      </trkpt>
      <trkpt lat="45.77455" lon="6.1463">
        <ele>933</ele>
        <time>2021-09-10T12:59:56.589Z</time>
      </trkpt>
      <trkpt lat="45.77457" lon="6.14631">
        <ele>933</ele>
        <time>2021-09-10T12:59:57.589Z</time>
      </trkpt>
      <trkpt lat="45.77459" lon="6.14633">
        <ele>934</ele>
        <time>2021-09-10T12:59:58.588Z</time>
      </trkpt>
      <trkpt lat="45.77462" lon="6.14634">
        <ele>934</ele>
        <time>2021-09-10T12:59:59.589Z</time>
      </trkpt>
      <trkpt lat="45.77464" lon="6.14634">
        <ele>935</ele>
        <time>2021-09-10T13:00:00.589Z</time>
      </trkpt>
      <trkpt lat="45.77467" lon="6.14635">
        <ele>935</ele>
        <time>2021-09-10T13:00:01.589Z</time>
      </trkpt>
      <trkpt lat="45.77469" lon="6.14636">
        <ele>935</ele>
        <time>2021-09-10T13:00:02.588Z</time>
      </trkpt>
      <trkpt lat="45.77471" lon="6.14636">
        <ele>935</ele>
        <time>2021-09-10T13:00:03.589Z</time>
      </trkpt>
      <trkpt lat="45.77474" lon="6.14636">
        <ele>935</ele>
        <time>2021-09-10T13:00:04.588Z</time>
      </trkpt>
      <trkpt lat="45.77476" lon="6.14635">
        <ele>935</ele>
        <time>2021-09-10T13:00:05.589Z</time>
      </trkpt>
      <trkpt lat="45.77478" lon="6.14635">
        <ele>934</ele>
        <time>2021-09-10T13:00:06.589Z</time>
      </trkpt>
      <trkpt lat="45.7748" lon="6.14635">
        <ele>934</ele>
        <time>2021-09-10T13:00:07.588Z</time>
      </trkpt>
      <trkpt lat="45.77482" lon="6.14635">
        <ele>933</ele>
        <time>2021-09-10T13:00:08.588Z</time>
      </trkpt>
      <trkpt lat="45.77484" lon="6.14635">
        <ele>933</ele>
        <time>2021-09-10T13:00:09.589Z</time>
      </trkpt>
      <trkpt lat="45.77487" lon="6.14635">
        <ele>933</ele>
        <time>2021-09-10T13:00:10.589Z</time>
      </trkpt>
      <trkpt lat="45.77489" lon="6.14635">
        <ele>933</ele>
        <time>2021-09-10T13:00:11.589Z</time>
      </trkpt>
      <trkpt lat="45.77491" lon="6.14636">
        <ele>933</ele>
        <time>2021-09-10T13:00:12.589Z</time>
      </trkpt>
      <trkpt lat="45.77493" lon="6.14636">
        <ele>933</ele>
        <time>2021-09-10T13:00:13.589Z</time>
      </trkpt>
      <trkpt lat="45.77495" lon="6.14636">
        <ele>934</ele>
        <time>2021-09-10T13:00:14.589Z</time>
      </trkpt>
      <trkpt lat="45.77496" lon="6.14637">
        <ele>934</ele>
        <time>2021-09-10T13:00:15.589Z</time>
      </trkpt>
      <trkpt lat="45.77498" lon="6.14639">
        <ele>935</ele>
        <time>2021-09-10T13:00:16.588Z</time>
      </trkpt>
      <trkpt lat="45.77499" lon="6.1464">
        <ele>935</ele>
        <time>2021-09-10T13:00:17.588Z</time>
      </trkpt>
      <trkpt lat="45.77501" lon="6.14642">
        <ele>935</ele>
        <time>2021-09-10T13:00:18.589Z</time>
      </trkpt>
      <trkpt lat="45.77503" lon="6.14644">
        <ele>935</ele>
        <time>2021-09-10T13:00:19.588Z</time>
      </trkpt>
      <trkpt lat="45.77504" lon="6.14646">
        <ele>935</ele>
        <time>2021-09-10T13:00:20.588Z</time>
      </trkpt>
      <trkpt lat="45.77506" lon="6.14649">
        <ele>935</ele>
        <time>2021-09-10T13:00:21.589Z</time>
      </trkpt>
      <trkpt lat="45.77507" lon="6.14651">
        <ele>936</ele>
        <time>2021-09-10T13:00:22.589Z</time>
      </trkpt>
      <trkpt lat="45.77509" lon="6.14653">
        <ele>936</ele>
        <time>2021-09-10T13:00:23.589Z</time>
      </trkpt>
      <trkpt lat="45.7751" lon="6.14656">
        <ele>936</ele>
        <time>2021-09-10T13:00:24.588Z</time>
      </trkpt>
      <trkpt lat="45.77512" lon="6.14658">
        <ele>936</ele>
        <time>2021-09-10T13:00:25.589Z</time>
      </trkpt>
      <trkpt lat="45.77514" lon="6.1466">
        <ele>936</ele>
        <time>2021-09-10T13:00:26.589Z</time>
      </trkpt>
      <trkpt lat="45.77515" lon="6.14663">
        <ele>936</ele>
        <time>2021-09-10T13:00:27.589Z</time>
      </trkpt>
      <trkpt lat="45.77516" lon="6.14665">
        <ele>936</ele>
        <time>2021-09-10T13:00:28.588Z</time>
      </trkpt>
      <trkpt lat="45.77518" lon="6.14667">
        <ele>935</ele>
        <time>2021-09-10T13:00:29.588Z</time>
      </trkpt>
      <trkpt lat="45.7752" lon="6.14669">
        <ele>935</ele>
        <time>2021-09-10T13:00:30.589Z</time>
      </trkpt>
      <trkpt lat="45.77522" lon="6.14672">
        <ele>935</ele>
        <time>2021-09-10T13:00:31.589Z</time>
      </trkpt>
      <trkpt lat="45.77523" lon="6.14675">
        <ele>935</ele>
        <time>2021-09-10T13:00:32.589Z</time>
      </trkpt>
      <trkpt lat="45.77524" lon="6.14678">
        <ele>935</ele>
        <time>2021-09-10T13:00:33.588Z</time>
      </trkpt>
      <trkpt lat="45.77524" lon="6.1468">
        <ele>935</ele>
        <time>2021-09-10T13:00:34.588Z</time>
      </trkpt>
      <trkpt lat="45.77525" lon="6.14683">
        <ele>935</ele>
        <time>2021-09-10T13:00:35.589Z</time>
      </trkpt>
      <trkpt lat="45.77525" lon="6.14686">
        <ele>936</ele>
        <time>2021-09-10T13:00:36.588Z</time>
      </trkpt>
      <trkpt lat="45.77526" lon="6.1469">
        <ele>936</ele>
        <time>2021-09-10T13:00:37.589Z</time>
      </trkpt>
      <trkpt lat="45.77527" lon="6.14692">
        <ele>936</ele>
        <time>2021-09-10T13:00:38.589Z</time>
      </trkpt>
      <trkpt lat="45.77528" lon="6.14695">
        <ele>936</ele>
        <time>2021-09-10T13:00:39.589Z</time>
      </trkpt>
      <trkpt lat="45.77528" lon="6.14698">
        <ele>937</ele>
        <time>2021-09-10T13:00:40.588Z</time>
      </trkpt>
      <trkpt lat="45.77529" lon="6.14702">
        <ele>937</ele>
        <time>2021-09-10T13:00:41.589Z</time>
      </trkpt>
      <trkpt lat="45.77529" lon="6.14705">
        <ele>937</ele>
        <time>2021-09-10T13:00:42.588Z</time>
      </trkpt>
      <trkpt lat="45.77529" lon="6.14708">
        <ele>937</ele>
        <time>2021-09-10T13:00:43.589Z</time>
      </trkpt>
      <trkpt lat="45.77529" lon="6.14711">
        <ele>937</ele>
        <time>2021-09-10T13:00:44.589Z</time>
      </trkpt>
      <trkpt lat="45.7753" lon="6.14714">
        <ele>938</ele>
        <time>2021-09-10T13:00:45.589Z</time>
      </trkpt>
      <trkpt lat="45.7753" lon="6.14717">
        <ele>938</ele>
        <time>2021-09-10T13:00:46.588Z</time>
      </trkpt>
      <trkpt lat="45.77531" lon="6.14719">
        <ele>938</ele>
        <time>2021-09-10T13:00:47.588Z</time>
      </trkpt>
      <trkpt lat="45.77532" lon="6.14721">
        <ele>939</ele>
        <time>2021-09-10T13:00:48.589Z</time>
      </trkpt>
      <trkpt lat="45.77534" lon="6.14724">
        <ele>939</ele>
        <time>2021-09-10T13:00:49.588Z</time>
      </trkpt>
      <trkpt lat="45.77535" lon="6.14726">
        <ele>939</ele>
        <time>2021-09-10T13:00:50.589Z</time>
      </trkpt>
      <trkpt lat="45.77537" lon="6.14729">
        <ele>940</ele>
        <time>2021-09-10T13:00:51.589Z</time>
      </trkpt>
      <trkpt lat="45.77538" lon="6.14732">
        <ele>940</ele>
        <time>2021-09-10T13:00:52.589Z</time>
      </trkpt>
      <trkpt lat="45.77539" lon="6.14734">
        <ele>940</ele>
        <time>2021-09-10T13:00:53.589Z</time>
      </trkpt>
      <trkpt lat="45.7754" lon="6.14736">
        <ele>940</ele>
        <time>2021-09-10T13:00:54.589Z</time>
      </trkpt>
      <trkpt lat="45.77542" lon="6.14738">
        <ele>940</ele>
        <time>2021-09-10T13:00:55.589Z</time>
      </trkpt>
      <trkpt lat="45.77543" lon="6.1474">
        <ele>940</ele>
        <time>2021-09-10T13:00:56.589Z</time>
      </trkpt>
      <trkpt lat="45.77545" lon="6.14742">
        <ele>939</ele>
        <time>2021-09-10T13:00:57.589Z</time>
      </trkpt>
      <trkpt lat="45.77547" lon="6.14744">
        <ele>939</ele>
        <time>2021-09-10T13:00:58.589Z</time>
      </trkpt>
      <trkpt lat="45.77548" lon="6.14746">
        <ele>939</ele>
        <time>2021-09-10T13:00:59.589Z</time>
      </trkpt>
      <trkpt lat="45.7755" lon="6.14748">
        <ele>939</ele>
        <time>2021-09-10T13:01:00.589Z</time>
      </trkpt>
      <trkpt lat="45.77552" lon="6.14749">
        <ele>939</ele>
        <time>2021-09-10T13:01:01.589Z</time>
      </trkpt>
      <trkpt lat="45.77554" lon="6.14751">
        <ele>938</ele>
        <time>2021-09-10T13:01:02.588Z</time>
      </trkpt>
      <trkpt lat="45.77556" lon="6.14752">
        <ele>938</ele>
        <time>2021-09-10T13:01:03.588Z</time>
      </trkpt>
      <trkpt lat="45.77558" lon="6.14754">
        <ele>938</ele>
        <time>2021-09-10T13:01:04.589Z</time>
      </trkpt>
      <trkpt lat="45.7756" lon="6.14755">
        <ele>938</ele>
        <time>2021-09-10T13:01:05.589Z</time>
      </trkpt>
      <trkpt lat="45.77562" lon="6.14757">
        <ele>938</ele>
        <time>2021-09-10T13:01:06.589Z</time>
      </trkpt>
      <trkpt lat="45.77565" lon="6.14758">
        <ele>938</ele>
        <time>2021-09-10T13:01:07.588Z</time>
      </trkpt>
      <trkpt lat="45.77567" lon="6.14759">
        <ele>939</ele>
        <time>2021-09-10T13:01:08.588Z</time>
      </trkpt>
      <trkpt lat="45.77569" lon="6.1476">
        <ele>939</ele>
        <time>2021-09-10T13:01:09.588Z</time>
      </trkpt>
      <trkpt lat="45.77571" lon="6.14762">
        <ele>939</ele>
        <time>2021-09-10T13:01:10.588Z</time>
      </trkpt>
      <trkpt lat="45.77574" lon="6.14763">
        <ele>939</ele>
        <time>2021-09-10T13:01:11.588Z</time>
      </trkpt>
      <trkpt lat="45.77576" lon="6.14764">
        <ele>940</ele>
        <time>2021-09-10T13:01:12.589Z</time>
      </trkpt>
      <trkpt lat="45.77578" lon="6.14765">
        <ele>940</ele>
        <time>2021-09-10T13:01:13.588Z</time>
      </trkpt>
      <trkpt lat="45.7758" lon="6.14767">
        <ele>940</ele>
        <time>2021-09-10T13:01:14.589Z</time>
      </trkpt>
      <trkpt lat="45.77583" lon="6.14769">
        <ele>940</ele>
        <time>2021-09-10T13:01:15.589Z</time>
      </trkpt>
      <trkpt lat="45.77586" lon="6.1477">
        <ele>940</ele>
        <time>2021-09-10T13:01:16.588Z</time>
      </trkpt>
      <trkpt lat="45.77589" lon="6.14771">
        <ele>940</ele>
        <time>2021-09-10T13:01:17.589Z</time>
      </trkpt>
      <trkpt lat="45.77592" lon="6.14773">
        <ele>941</ele>
        <time>2021-09-10T13:01:18.589Z</time>
      </trkpt>
      <trkpt lat="45.77594" lon="6.14774">
        <ele>941</ele>
        <time>2021-09-10T13:01:19.589Z</time>
      </trkpt>
      <trkpt lat="45.77597" lon="6.14776">
        <ele>941</ele>
        <time>2021-09-10T13:01:20.589Z</time>
      </trkpt>
      <trkpt lat="45.776" lon="6.14777">
        <ele>942</ele>
        <time>2021-09-10T13:01:21.589Z</time>
      </trkpt>
      <trkpt lat="45.77603" lon="6.14779">
        <ele>942</ele>
        <time>2021-09-10T13:01:22.589Z</time>
      </trkpt>
      <trkpt lat="45.77606" lon="6.14781">
        <ele>942</ele>
        <time>2021-09-10T13:01:23.589Z</time>
      </trkpt>
      <trkpt lat="45.77609" lon="6.14784">
        <ele>942</ele>
        <time>2021-09-10T13:01:24.589Z</time>
      </trkpt>
      <trkpt lat="45.77611" lon="6.14786">
        <ele>942</ele>
        <time>2021-09-10T13:01:25.589Z</time>
      </trkpt>
      <trkpt lat="45.77613" lon="6.14788">
        <ele>942</ele>
        <time>2021-09-10T13:01:26.589Z</time>
      </trkpt>
      <trkpt lat="45.77616" lon="6.14792">
        <ele>942</ele>
        <time>2021-09-10T13:01:27.589Z</time>
      </trkpt>
      <trkpt lat="45.77619" lon="6.14796">
        <ele>942</ele>
        <time>2021-09-10T13:01:28.589Z</time>
      </trkpt>
      <trkpt lat="45.7762" lon="6.148">
        <ele>942</ele>
        <time>2021-09-10T13:01:29.589Z</time>
      </trkpt>
      <trkpt lat="45.77622" lon="6.14804">
        <ele>942</ele>
        <time>2021-09-10T13:01:30.589Z</time>
      </trkpt>
      <trkpt lat="45.77624" lon="6.14809">
        <ele>942</ele>
        <time>2021-09-10T13:01:31.589Z</time>
      </trkpt>
      <trkpt lat="45.77626" lon="6.14815">
        <ele>942</ele>
        <time>2021-09-10T13:01:32.589Z</time>
      </trkpt>
      <trkpt lat="45.77628" lon="6.14821">
        <ele>942</ele>
        <time>2021-09-10T13:01:33.588Z</time>
      </trkpt>
      <trkpt lat="45.77629" lon="6.14828">
        <ele>942</ele>
        <time>2021-09-10T13:01:34.589Z</time>
      </trkpt>
      <trkpt lat="45.7763" lon="6.14833">
        <ele>941</ele>
        <time>2021-09-10T13:01:35.588Z</time>
      </trkpt>
      <trkpt lat="45.77632" lon="6.1484">
        <ele>941</ele>
        <time>2021-09-10T13:01:36.589Z</time>
      </trkpt>
      <trkpt lat="45.77633" lon="6.14847">
        <ele>941</ele>
        <time>2021-09-10T13:01:37.589Z</time>
      </trkpt>
      <trkpt lat="45.77635" lon="6.14856">
        <ele>941</ele>
        <time>2021-09-10T13:01:38.589Z</time>
      </trkpt>
      <trkpt lat="45.77637" lon="6.14863">
        <ele>941</ele>
        <time>2021-09-10T13:01:39.589Z</time>
      </trkpt>
      <trkpt lat="45.77638" lon="6.1487">
        <ele>941</ele>
        <time>2021-09-10T13:01:40.589Z</time>
      </trkpt>
      <trkpt lat="45.7764" lon="6.14879">
        <ele>941</ele>
        <time>2021-09-10T13:01:41.589Z</time>
      </trkpt>
      <trkpt lat="45.77641" lon="6.14887">
        <ele>940</ele>
        <time>2021-09-10T13:01:42.589Z</time>
      </trkpt>
      <trkpt lat="45.77642" lon="6.14896">
        <ele>940</ele>
        <time>2021-09-10T13:01:43.588Z</time>
      </trkpt>
      <trkpt lat="45.77642" lon="6.14906">
        <ele>940</ele>
        <time>2021-09-10T13:01:44.589Z</time>
      </trkpt>
      <trkpt lat="45.77641" lon="6.14915">
        <ele>940</ele>
        <time>2021-09-10T13:01:45.589Z</time>
      </trkpt>
      <trkpt lat="45.77639" lon="6.14923">
        <ele>940</ele>
        <time>2021-09-10T13:01:46.589Z</time>
      </trkpt>
      <trkpt lat="45.77636" lon="6.14931">
        <ele>940</ele>
        <time>2021-09-10T13:01:47.588Z</time>
      </trkpt>
      <trkpt lat="45.77633" lon="6.1494">
        <ele>940</ele>
        <time>2021-09-10T13:01:48.589Z</time>
      </trkpt>
      <trkpt lat="45.7763" lon="6.14947">
        <ele>940</ele>
        <time>2021-09-10T13:01:49.589Z</time>
      </trkpt>
      <trkpt lat="45.77628" lon="6.14953">
        <ele>941</ele>
        <time>2021-09-10T13:01:50.588Z</time>
      </trkpt>
      <trkpt lat="45.77628" lon="6.14961">
        <ele>941</ele>
        <time>2021-09-10T13:01:51.589Z</time>
      </trkpt>
      <trkpt lat="45.7763" lon="6.14966">
        <ele>942</ele>
        <time>2021-09-10T13:01:52.589Z</time>
      </trkpt>
      <trkpt lat="45.77633" lon="6.1497">
        <ele>943</ele>
        <time>2021-09-10T13:01:53.589Z</time>
      </trkpt>
      <trkpt lat="45.77636" lon="6.14971">
        <ele>944</ele>
        <time>2021-09-10T13:01:54.588Z</time>
      </trkpt>
      <trkpt lat="45.77641" lon="6.14972">
        <ele>945</ele>
        <time>2021-09-10T13:01:55.588Z</time>
      </trkpt>
      <trkpt lat="45.77645" lon="6.14973">
        <ele>945</ele>
        <time>2021-09-10T13:01:56.589Z</time>
      </trkpt>
      <trkpt lat="45.77648" lon="6.14973">
        <ele>946</ele>
        <time>2021-09-10T13:01:57.589Z</time>
      </trkpt>
      <trkpt lat="45.77652" lon="6.14973">
        <ele>947</ele>
        <time>2021-09-10T13:01:58.588Z</time>
      </trkpt>
      <trkpt lat="45.77654" lon="6.14972">
        <ele>948</ele>
        <time>2021-09-10T13:01:59.588Z</time>
      </trkpt>
      <trkpt lat="45.77657" lon="6.14971">
        <ele>948</ele>
        <time>2021-09-10T13:02:00.589Z</time>
      </trkpt>
      <trkpt lat="45.77661" lon="6.14971">
        <ele>949</ele>
        <time>2021-09-10T13:02:01.589Z</time>
      </trkpt>
      <trkpt lat="45.77663" lon="6.14971">
        <ele>949</ele>
        <time>2021-09-10T13:02:02.589Z</time>
      </trkpt>
      <trkpt lat="45.77666" lon="6.1497">
        <ele>949</ele>
        <time>2021-09-10T13:02:03.588Z</time>
      </trkpt>
      <trkpt lat="45.77668" lon="6.14968">
        <ele>950</ele>
        <time>2021-09-10T13:02:04.588Z</time>
      </trkpt>
      <trkpt lat="45.77671" lon="6.14968">
        <ele>950</ele>
        <time>2021-09-10T13:02:05.589Z</time>
      </trkpt>
      <trkpt lat="45.77674" lon="6.14968">
        <ele>950</ele>
        <time>2021-09-10T13:02:06.589Z</time>
      </trkpt>
      <trkpt lat="45.77677" lon="6.14969">
        <ele>950</ele>
        <time>2021-09-10T13:02:07.589Z</time>
      </trkpt>
      <trkpt lat="45.7768" lon="6.14968">
        <ele>950</ele>
        <time>2021-09-10T13:02:08.589Z</time>
      </trkpt>
      <trkpt lat="45.77683" lon="6.14968">
        <ele>951</ele>
        <time>2021-09-10T13:02:09.588Z</time>
      </trkpt>
      <trkpt lat="45.77686" lon="6.14968">
        <ele>951</ele>
        <time>2021-09-10T13:02:10.589Z</time>
      </trkpt>
      <trkpt lat="45.77689" lon="6.14968">
        <ele>951</ele>
        <time>2021-09-10T13:02:11.588Z</time>
      </trkpt>
      <trkpt lat="45.77693" lon="6.14969">
        <ele>951</ele>
        <time>2021-09-10T13:02:12.589Z</time>
      </trkpt>
      <trkpt lat="45.77695" lon="6.1497">
        <ele>951</ele>
        <time>2021-09-10T13:02:13.589Z</time>
      </trkpt>
      <trkpt lat="45.77698" lon="6.14971">
        <ele>951</ele>
        <time>2021-09-10T13:02:14.588Z</time>
      </trkpt>
      <trkpt lat="45.77701" lon="6.14971">
        <ele>951</ele>
        <time>2021-09-10T13:02:15.589Z</time>
      </trkpt>
      <trkpt lat="45.77704" lon="6.14973">
        <ele>951</ele>
        <time>2021-09-10T13:02:16.589Z</time>
      </trkpt>
      <trkpt lat="45.77706" lon="6.14973">
        <ele>951</ele>
        <time>2021-09-10T13:02:17.589Z</time>
      </trkpt>
      <trkpt lat="45.77708" lon="6.14975">
        <ele>951</ele>
        <time>2021-09-10T13:02:18.589Z</time>
      </trkpt>
      <trkpt lat="45.77711" lon="6.14978">
        <ele>951</ele>
        <time>2021-09-10T13:02:19.588Z</time>
      </trkpt>
      <trkpt lat="45.77714" lon="6.1498">
        <ele>951</ele>
        <time>2021-09-10T13:02:20.588Z</time>
      </trkpt>
      <trkpt lat="45.77717" lon="6.14982">
        <ele>951</ele>
        <time>2021-09-10T13:02:21.589Z</time>
      </trkpt>
      <trkpt lat="45.77719" lon="6.14983">
        <ele>951</ele>
        <time>2021-09-10T13:02:22.589Z</time>
      </trkpt>
      <trkpt lat="45.77721" lon="6.14986">
        <ele>951</ele>
        <time>2021-09-10T13:02:23.589Z</time>
      </trkpt>
      <trkpt lat="45.77723" lon="6.14989">
        <ele>951</ele>
        <time>2021-09-10T13:02:24.589Z</time>
      </trkpt>
      <trkpt lat="45.77726" lon="6.14993">
        <ele>951</ele>
        <time>2021-09-10T13:02:25.589Z</time>
      </trkpt>
      <trkpt lat="45.77729" lon="6.14997">
        <ele>951</ele>
        <time>2021-09-10T13:02:26.589Z</time>
      </trkpt>
      <trkpt lat="45.77731" lon="6.15">
        <ele>951</ele>
        <time>2021-09-10T13:02:27.588Z</time>
      </trkpt>
      <trkpt lat="45.77734" lon="6.15003">
        <ele>950</ele>
        <time>2021-09-10T13:02:28.589Z</time>
      </trkpt>
      <trkpt lat="45.77737" lon="6.15007">
        <ele>950</ele>
        <time>2021-09-10T13:02:29.589Z</time>
      </trkpt>
      <trkpt lat="45.7774" lon="6.15012">
        <ele>950</ele>
        <time>2021-09-10T13:02:30.589Z</time>
      </trkpt>
      <trkpt lat="45.77742" lon="6.15017">
        <ele>949</ele>
        <time>2021-09-10T13:02:31.589Z</time>
      </trkpt>
      <trkpt lat="45.77744" lon="6.15021">
        <ele>948</ele>
        <time>2021-09-10T13:02:32.589Z</time>
      </trkpt>
      <trkpt lat="45.77746" lon="6.15026">
        <ele>947</ele>
        <time>2021-09-10T13:02:33.588Z</time>
      </trkpt>
      <trkpt lat="45.77748" lon="6.1503">
        <ele>947</ele>
        <time>2021-09-10T13:02:34.588Z</time>
      </trkpt>
      <trkpt lat="45.77751" lon="6.15034">
        <ele>947</ele>
        <time>2021-09-10T13:02:35.589Z</time>
      </trkpt>
      <trkpt lat="45.77754" lon="6.15037">
        <ele>947</ele>
        <time>2021-09-10T13:02:36.588Z</time>
      </trkpt>
      <trkpt lat="45.77756" lon="6.15039">
        <ele>947</ele>
        <time>2021-09-10T13:02:37.588Z</time>
      </trkpt>
      <trkpt lat="45.77759" lon="6.1504">
        <ele>947</ele>
        <time>2021-09-10T13:02:38.589Z</time>
      </trkpt>
      <trkpt lat="45.77762" lon="6.15041">
        <ele>947</ele>
        <time>2021-09-10T13:02:39.588Z</time>
      </trkpt>
      <trkpt lat="45.77765" lon="6.15042">
        <ele>947</ele>
        <time>2021-09-10T13:02:40.589Z</time>
      </trkpt>
      <trkpt lat="45.77768" lon="6.15042">
        <ele>947</ele>
        <time>2021-09-10T13:02:41.589Z</time>
      </trkpt>
      <trkpt lat="45.77772" lon="6.15041">
        <ele>947</ele>
        <time>2021-09-10T13:02:42.589Z</time>
      </trkpt>
      <trkpt lat="45.77775" lon="6.15039">
        <ele>948</ele>
        <time>2021-09-10T13:02:43.589Z</time>
      </trkpt>
      <trkpt lat="45.77778" lon="6.15037">
        <ele>948</ele>
        <time>2021-09-10T13:02:44.588Z</time>
      </trkpt>
      <trkpt lat="45.77781" lon="6.15036">
        <ele>949</ele>
        <time>2021-09-10T13:02:45.589Z</time>
      </trkpt>
      <trkpt lat="45.77783" lon="6.15035">
        <ele>949</ele>
        <time>2021-09-10T13:02:46.589Z</time>
      </trkpt>
      <trkpt lat="45.77785" lon="6.15035">
        <ele>949</ele>
        <time>2021-09-10T13:02:47.589Z</time>
      </trkpt>
      <trkpt lat="45.77787" lon="6.15035">
        <ele>948</ele>
        <time>2021-09-10T13:02:48.589Z</time>
      </trkpt>
      <trkpt lat="45.77788" lon="6.15034">
        <ele>948</ele>
        <time>2021-09-10T13:02:49.589Z</time>
      </trkpt>
      <trkpt lat="45.7779" lon="6.15034">
        <ele>947</ele>
        <time>2021-09-10T13:02:50.588Z</time>
      </trkpt>
      <trkpt lat="45.77792" lon="6.15033">
        <ele>947</ele>
        <time>2021-09-10T13:02:51.589Z</time>
      </trkpt>
      <trkpt lat="45.77793" lon="6.15033">
        <ele>947</ele>
        <time>2021-09-10T13:02:52.589Z</time>
      </trkpt>
      <trkpt lat="45.77794" lon="6.15033">
        <ele>947</ele>
        <time>2021-09-10T13:02:53.589Z</time>
      </trkpt>
      <trkpt lat="45.77796" lon="6.15033">
        <ele>947</ele>
        <time>2021-09-10T13:02:54.589Z</time>
      </trkpt>
      <trkpt lat="45.77797" lon="6.15032">
        <ele>947</ele>
        <time>2021-09-10T13:02:55.588Z</time>
      </trkpt>
      <trkpt lat="45.77799" lon="6.15032">
        <ele>946</ele>
        <time>2021-09-10T13:02:56.588Z</time>
      </trkpt>
      <trkpt lat="45.778" lon="6.15031">
        <ele>946</ele>
        <time>2021-09-10T13:02:57.589Z</time>
      </trkpt>
      <trkpt lat="45.77802" lon="6.1503">
        <ele>946</ele>
        <time>2021-09-10T13:02:58.589Z</time>
      </trkpt>
      <trkpt lat="45.77803" lon="6.1503">
        <ele>945</ele>
        <time>2021-09-10T13:02:59.589Z</time>
      </trkpt>
      <trkpt lat="45.77805" lon="6.1503">
        <ele>945</ele>
        <time>2021-09-10T13:03:00.588Z</time>
      </trkpt>
      <trkpt lat="45.77806" lon="6.1503">
        <ele>945</ele>
        <time>2021-09-10T13:03:01.589Z</time>
      </trkpt>
      <trkpt lat="45.77808" lon="6.1503">
        <ele>944</ele>
        <time>2021-09-10T13:03:02.589Z</time>
      </trkpt>
      <trkpt lat="45.77809" lon="6.15029">
        <ele>943</ele>
        <time>2021-09-10T13:03:03.589Z</time>
      </trkpt>
      <trkpt lat="45.77811" lon="6.15029">
        <ele>943</ele>
        <time>2021-09-10T13:03:04.589Z</time>
      </trkpt>
      <trkpt lat="45.77812" lon="6.15029">
        <ele>942</ele>
        <time>2021-09-10T13:03:05.589Z</time>
      </trkpt>
      <trkpt lat="45.77814" lon="6.15028">
        <ele>942</ele>
        <time>2021-09-10T13:03:06.589Z</time>
      </trkpt>
      <trkpt lat="45.77815" lon="6.15028">
        <ele>941</ele>
        <time>2021-09-10T13:03:07.589Z</time>
      </trkpt>
      <trkpt lat="45.77817" lon="6.15027">
        <ele>941</ele>
        <time>2021-09-10T13:03:08.589Z</time>
      </trkpt>
      <trkpt lat="45.77818" lon="6.15027">
        <ele>941</ele>
        <time>2021-09-10T13:03:09.589Z</time>
      </trkpt>
      <trkpt lat="45.7782" lon="6.15026">
        <ele>941</ele>
        <time>2021-09-10T13:03:10.589Z</time>
      </trkpt>
      <trkpt lat="45.77822" lon="6.15025">
        <ele>941</ele>
        <time>2021-09-10T13:03:11.589Z</time>
      </trkpt>
      <trkpt lat="45.77824" lon="6.15025">
        <ele>942</ele>
        <time>2021-09-10T13:03:12.589Z</time>
      </trkpt>
      <trkpt lat="45.77827" lon="6.15025">
        <ele>941</ele>
        <time>2021-09-10T13:03:13.588Z</time>
      </trkpt>
      <trkpt lat="45.77829" lon="6.15024">
        <ele>941</ele>
        <time>2021-09-10T13:03:14.588Z</time>
      </trkpt>
      <trkpt lat="45.77831" lon="6.15024">
        <ele>941</ele>
        <time>2021-09-10T13:03:15.589Z</time>
      </trkpt>
      <trkpt lat="45.77834" lon="6.15024">
        <ele>940</ele>
        <time>2021-09-10T13:03:16.589Z</time>
      </trkpt>
      <trkpt lat="45.77837" lon="6.15024">
        <ele>940</ele>
        <time>2021-09-10T13:03:17.589Z</time>
      </trkpt>
      <trkpt lat="45.7784" lon="6.15024">
        <ele>940</ele>
        <time>2021-09-10T13:03:18.589Z</time>
      </trkpt>
      <trkpt lat="45.77843" lon="6.15024">
        <ele>940</ele>
        <time>2021-09-10T13:03:19.588Z</time>
      </trkpt>
      <trkpt lat="45.77846" lon="6.15024">
        <ele>940</ele>
        <time>2021-09-10T13:03:20.589Z</time>
      </trkpt>
      <trkpt lat="45.77849" lon="6.15024">
        <ele>940</ele>
        <time>2021-09-10T13:03:21.588Z</time>
      </trkpt>
      <trkpt lat="45.77852" lon="6.15024">
        <ele>940</ele>
        <time>2021-09-10T13:03:22.589Z</time>
      </trkpt>
      <trkpt lat="45.77856" lon="6.15024">
        <ele>940</ele>
        <time>2021-09-10T13:03:23.588Z</time>
      </trkpt>
      <trkpt lat="45.77859" lon="6.15023">
        <ele>941</ele>
        <time>2021-09-10T13:03:24.589Z</time>
      </trkpt>
      <trkpt lat="45.77863" lon="6.15022">
        <ele>941</ele>
        <time>2021-09-10T13:03:25.589Z</time>
      </trkpt>
      <trkpt lat="45.77867" lon="6.15021">
        <ele>940</ele>
        <time>2021-09-10T13:03:26.589Z</time>
      </trkpt>
      <trkpt lat="45.77872" lon="6.15019">
        <ele>940</ele>
        <time>2021-09-10T13:03:27.589Z</time>
      </trkpt>
      <trkpt lat="45.77876" lon="6.15018">
        <ele>939</ele>
        <time>2021-09-10T13:03:28.589Z</time>
      </trkpt>
      <trkpt lat="45.77881" lon="6.15018">
        <ele>939</ele>
        <time>2021-09-10T13:03:29.589Z</time>
      </trkpt>
      <trkpt lat="45.77885" lon="6.15017">
        <ele>939</ele>
        <time>2021-09-10T13:03:30.589Z</time>
      </trkpt>
      <trkpt lat="45.77889" lon="6.15017">
        <ele>938</ele>
        <time>2021-09-10T13:03:31.589Z</time>
      </trkpt>
      <trkpt lat="45.77894" lon="6.15017">
        <ele>938</ele>
        <time>2021-09-10T13:03:32.589Z</time>
      </trkpt>
      <trkpt lat="45.77899" lon="6.15017">
        <ele>938</ele>
        <time>2021-09-10T13:03:33.589Z</time>
      </trkpt>
      <trkpt lat="45.77903" lon="6.15017">
        <ele>938</ele>
        <time>2021-09-10T13:03:34.589Z</time>
      </trkpt>
      <trkpt lat="45.77907" lon="6.15017">
        <ele>938</ele>
        <time>2021-09-10T13:03:35.588Z</time>
      </trkpt>
      <trkpt lat="45.77912" lon="6.15017">
        <ele>937</ele>
        <time>2021-09-10T13:03:36.589Z</time>
      </trkpt>
      <trkpt lat="45.77916" lon="6.15017">
        <ele>937</ele>
        <time>2021-09-10T13:03:37.589Z</time>
      </trkpt>
      <trkpt lat="45.77921" lon="6.15017">
        <ele>936</ele>
        <time>2021-09-10T13:03:38.589Z</time>
      </trkpt>
      <trkpt lat="45.77926" lon="6.15017">
        <ele>935</ele>
        <time>2021-09-10T13:03:39.588Z</time>
      </trkpt>
      <trkpt lat="45.77931" lon="6.15016">
        <ele>935</ele>
        <time>2021-09-10T13:03:40.589Z</time>
      </trkpt>
      <trkpt lat="45.77936" lon="6.15014">
        <ele>934</ele>
        <time>2021-09-10T13:03:41.589Z</time>
      </trkpt>
      <trkpt lat="45.77941" lon="6.15012">
        <ele>934</ele>
        <time>2021-09-10T13:03:42.589Z</time>
      </trkpt>
      <trkpt lat="45.77946" lon="6.15009">
        <ele>934</ele>
        <time>2021-09-10T13:03:43.589Z</time>
      </trkpt>
      <trkpt lat="45.7795" lon="6.15006">
        <ele>934</ele>
        <time>2021-09-10T13:03:44.588Z</time>
      </trkpt>
      <trkpt lat="45.77955" lon="6.15002">
        <ele>933</ele>
        <time>2021-09-10T13:03:45.589Z</time>
      </trkpt>
      <trkpt lat="45.77959" lon="6.14998">
        <ele>933</ele>
        <time>2021-09-10T13:03:46.589Z</time>
      </trkpt>
      <trkpt lat="45.77964" lon="6.14993">
        <ele>933</ele>
        <time>2021-09-10T13:03:47.589Z</time>
      </trkpt>
      <trkpt lat="45.77968" lon="6.14989">
        <ele>932</ele>
        <time>2021-09-10T13:03:48.589Z</time>
      </trkpt>
      <trkpt lat="45.77974" lon="6.14985">
        <ele>932</ele>
        <time>2021-09-10T13:03:49.589Z</time>
      </trkpt>
      <trkpt lat="45.77979" lon="6.14981">
        <ele>932</ele>
        <time>2021-09-10T13:03:50.589Z</time>
      </trkpt>
      <trkpt lat="45.77983" lon="6.14977">
        <ele>932</ele>
        <time>2021-09-10T13:03:51.588Z</time>
      </trkpt>
      <trkpt lat="45.77987" lon="6.14973">
        <ele>932</ele>
        <time>2021-09-10T13:03:52.588Z</time>
      </trkpt>
      <trkpt lat="45.77991" lon="6.14968">
        <ele>931</ele>
        <time>2021-09-10T13:03:53.589Z</time>
      </trkpt>
      <trkpt lat="45.77994" lon="6.14963">
        <ele>931</ele>
        <time>2021-09-10T13:03:54.588Z</time>
      </trkpt>
      <trkpt lat="45.77995" lon="6.14957">
        <ele>931</ele>
        <time>2021-09-10T13:03:55.588Z</time>
      </trkpt>
      <trkpt lat="45.77995" lon="6.14951">
        <ele>930</ele>
        <time>2021-09-10T13:03:56.589Z</time>
      </trkpt>
      <trkpt lat="45.77994" lon="6.14946">
        <ele>929</ele>
        <time>2021-09-10T13:03:57.589Z</time>
      </trkpt>
      <trkpt lat="45.77992" lon="6.14939">
        <ele>928</ele>
        <time>2021-09-10T13:03:58.589Z</time>
      </trkpt>
      <trkpt lat="45.77988" lon="6.14933">
        <ele>928</ele>
        <time>2021-09-10T13:03:59.588Z</time>
      </trkpt>
      <trkpt lat="45.77984" lon="6.1493">
        <ele>927</ele>
        <time>2021-09-10T13:04:00.589Z</time>
      </trkpt>
      <trkpt lat="45.77979" lon="6.14929">
        <ele>927</ele>
        <time>2021-09-10T13:04:01.589Z</time>
      </trkpt>
      <trkpt lat="45.77975" lon="6.14929">
        <ele>926</ele>
        <time>2021-09-10T13:04:02.589Z</time>
      </trkpt>
      <trkpt lat="45.77969" lon="6.1493">
        <ele>926</ele>
        <time>2021-09-10T13:04:03.589Z</time>
      </trkpt>
      <trkpt lat="45.77963" lon="6.1493">
        <ele>926</ele>
        <time>2021-09-10T13:04:04.589Z</time>
      </trkpt>
      <trkpt lat="45.77957" lon="6.14931">
        <ele>926</ele>
        <time>2021-09-10T13:04:05.589Z</time>
      </trkpt>
      <trkpt lat="45.77951" lon="6.1493">
        <ele>925</ele>
        <time>2021-09-10T13:04:06.589Z</time>
      </trkpt>
      <trkpt lat="45.77947" lon="6.1493">
        <ele>925</ele>
        <time>2021-09-10T13:04:07.588Z</time>
      </trkpt>
      <trkpt lat="45.77942" lon="6.14928">
        <ele>924</ele>
        <time>2021-09-10T13:04:08.589Z</time>
      </trkpt>
      <trkpt lat="45.77937" lon="6.14923">
        <ele>924</ele>
        <time>2021-09-10T13:04:09.589Z</time>
      </trkpt>
      <trkpt lat="45.77934" lon="6.14917">
        <ele>923</ele>
        <time>2021-09-10T13:04:10.589Z</time>
      </trkpt>
      <trkpt lat="45.77933" lon="6.14912">
        <ele>922</ele>
        <time>2021-09-10T13:04:11.589Z</time>
      </trkpt>
      <trkpt lat="45.77934" lon="6.14906">
        <ele>921</ele>
        <time>2021-09-10T13:04:12.588Z</time>
      </trkpt>
      <trkpt lat="45.77936" lon="6.149">
        <ele>920</ele>
        <time>2021-09-10T13:04:13.589Z</time>
      </trkpt>
      <trkpt lat="45.7794" lon="6.14894">
        <ele>919</ele>
        <time>2021-09-10T13:04:14.589Z</time>
      </trkpt>
      <trkpt lat="45.77944" lon="6.14889">
        <ele>919</ele>
        <time>2021-09-10T13:04:15.588Z</time>
      </trkpt>
      <trkpt lat="45.77948" lon="6.14887">
        <ele>918</ele>
        <time>2021-09-10T13:04:16.588Z</time>
      </trkpt>
      <trkpt lat="45.77953" lon="6.14884">
        <ele>918</ele>
        <time>2021-09-10T13:04:17.589Z</time>
      </trkpt>
      <trkpt lat="45.77958" lon="6.14882">
        <ele>917</ele>
        <time>2021-09-10T13:04:18.589Z</time>
      </trkpt>
      <trkpt lat="45.77964" lon="6.1488">
        <ele>917</ele>
        <time>2021-09-10T13:04:19.589Z</time>
      </trkpt>
      <trkpt lat="45.7797" lon="6.14877">
        <ele>917</ele>
        <time>2021-09-10T13:04:20.589Z</time>
      </trkpt>
      <trkpt lat="45.77975" lon="6.14874">
        <ele>917</ele>
        <time>2021-09-10T13:04:21.588Z</time>
      </trkpt>
      <trkpt lat="45.77982" lon="6.14872">
        <ele>917</ele>
        <time>2021-09-10T13:04:22.589Z</time>
      </trkpt>
      <trkpt lat="45.77988" lon="6.1487">
        <ele>917</ele>
        <time>2021-09-10T13:04:23.588Z</time>
      </trkpt>
      <trkpt lat="45.77994" lon="6.14868">
        <ele>916</ele>
        <time>2021-09-10T13:04:24.589Z</time>
      </trkpt>
      <trkpt lat="45.78002" lon="6.14865">
        <ele>916</ele>
        <time>2021-09-10T13:04:25.589Z</time>
      </trkpt>
      <trkpt lat="45.78006" lon="6.14863">
        <ele>915</ele>
        <time>2021-09-10T13:04:26.589Z</time>
      </trkpt>
      <trkpt lat="45.78012" lon="6.14861">
        <ele>915</ele>
        <time>2021-09-10T13:04:27.588Z</time>
      </trkpt>
      <trkpt lat="45.7802" lon="6.14858">
        <ele>914</ele>
        <time>2021-09-10T13:04:28.589Z</time>
      </trkpt>
      <trkpt lat="45.78025" lon="6.14856">
        <ele>914</ele>
        <time>2021-09-10T13:04:29.589Z</time>
      </trkpt>
      <trkpt lat="45.78032" lon="6.14853">
        <ele>914</ele>
        <time>2021-09-10T13:04:30.589Z</time>
      </trkpt>
      <trkpt lat="45.78039" lon="6.14851">
        <ele>913</ele>
        <time>2021-09-10T13:04:31.588Z</time>
      </trkpt>
      <trkpt lat="45.78046" lon="6.14847">
        <ele>913</ele>
        <time>2021-09-10T13:04:32.589Z</time>
      </trkpt>
      <trkpt lat="45.78052" lon="6.14843">
        <ele>913</ele>
        <time>2021-09-10T13:04:33.588Z</time>
      </trkpt>
      <trkpt lat="45.78058" lon="6.14838">
        <ele>913</ele>
        <time>2021-09-10T13:04:34.588Z</time>
      </trkpt>
      <trkpt lat="45.78065" lon="6.14832">
        <ele>913</ele>
        <time>2021-09-10T13:04:35.589Z</time>
      </trkpt>
      <trkpt lat="45.78071" lon="6.14828">
        <ele>913</ele>
        <time>2021-09-10T13:04:36.589Z</time>
      </trkpt>
      <trkpt lat="45.78078" lon="6.14822">
        <ele>912</ele>
        <time>2021-09-10T13:04:37.588Z</time>
      </trkpt>
      <trkpt lat="45.78086" lon="6.14817">
        <ele>912</ele>
        <time>2021-09-10T13:04:38.588Z</time>
      </trkpt>
      <trkpt lat="45.78093" lon="6.14812">
        <ele>911</ele>
        <time>2021-09-10T13:04:39.588Z</time>
      </trkpt>
      <trkpt lat="45.78101" lon="6.14808">
        <ele>911</ele>
        <time>2021-09-10T13:04:40.589Z</time>
      </trkpt>
      <trkpt lat="45.78108" lon="6.14802">
        <ele>910</ele>
        <time>2021-09-10T13:04:41.588Z</time>
      </trkpt>
      <trkpt lat="45.78116" lon="6.14797">
        <ele>910</ele>
        <time>2021-09-10T13:04:42.588Z</time>
      </trkpt>
      <trkpt lat="45.78123" lon="6.1479">
        <ele>909</ele>
        <time>2021-09-10T13:04:43.589Z</time>
      </trkpt>
      <trkpt lat="45.78131" lon="6.14784">
        <ele>909</ele>
        <time>2021-09-10T13:04:44.589Z</time>
      </trkpt>
      <trkpt lat="45.78138" lon="6.14777">
        <ele>908</ele>
        <time>2021-09-10T13:04:45.588Z</time>
      </trkpt>
      <trkpt lat="45.78146" lon="6.14771">
        <ele>907</ele>
        <time>2021-09-10T13:04:46.588Z</time>
      </trkpt>
      <trkpt lat="45.78154" lon="6.14765">
        <ele>907</ele>
        <time>2021-09-10T13:04:47.589Z</time>
      </trkpt>
      <trkpt lat="45.78161" lon="6.14761">
        <ele>906</ele>
        <time>2021-09-10T13:04:48.588Z</time>
      </trkpt>
      <trkpt lat="45.78169" lon="6.14757">
        <ele>905</ele>
        <time>2021-09-10T13:04:49.588Z</time>
      </trkpt>
      <trkpt lat="45.78177" lon="6.14755">
        <ele>905</ele>
        <time>2021-09-10T13:04:50.589Z</time>
      </trkpt>
      <trkpt lat="45.78185" lon="6.14753">
        <ele>904</ele>
        <time>2021-09-10T13:04:51.589Z</time>
      </trkpt>
      <trkpt lat="45.78193" lon="6.14751">
        <ele>904</ele>
        <time>2021-09-10T13:04:52.588Z</time>
      </trkpt>
      <trkpt lat="45.78201" lon="6.14749">
        <ele>903</ele>
        <time>2021-09-10T13:04:53.589Z</time>
      </trkpt>
      <trkpt lat="45.7821" lon="6.14747">
        <ele>902</ele>
        <time>2021-09-10T13:04:54.588Z</time>
      </trkpt>
      <trkpt lat="45.78219" lon="6.14744">
        <ele>902</ele>
        <time>2021-09-10T13:04:55.588Z</time>
      </trkpt>
      <trkpt lat="45.78227" lon="6.14741">
        <ele>902</ele>
        <time>2021-09-10T13:04:56.588Z</time>
      </trkpt>
      <trkpt lat="45.78236" lon="6.14737">
        <ele>901</ele>
        <time>2021-09-10T13:04:57.588Z</time>
      </trkpt>
      <trkpt lat="45.78245" lon="6.14733">
        <ele>901</ele>
        <time>2021-09-10T13:04:58.588Z</time>
      </trkpt>
      <trkpt lat="45.78254" lon="6.14729">
        <ele>900</ele>
        <time>2021-09-10T13:04:59.588Z</time>
      </trkpt>
      <trkpt lat="45.78263" lon="6.14725">
        <ele>899</ele>
        <time>2021-09-10T13:05:00.588Z</time>
      </trkpt>
      <trkpt lat="45.78271" lon="6.1472">
        <ele>898</ele>
        <time>2021-09-10T13:05:01.589Z</time>
      </trkpt>
      <trkpt lat="45.78278" lon="6.14715">
        <ele>898</ele>
        <time>2021-09-10T13:05:02.589Z</time>
      </trkpt>
      <trkpt lat="45.78285" lon="6.14709">
        <ele>897</ele>
        <time>2021-09-10T13:05:03.588Z</time>
      </trkpt>
      <trkpt lat="45.78292" lon="6.14703">
        <ele>896</ele>
        <time>2021-09-10T13:05:04.589Z</time>
      </trkpt>
      <trkpt lat="45.78299" lon="6.14698">
        <ele>895</ele>
        <time>2021-09-10T13:05:05.588Z</time>
      </trkpt>
      <trkpt lat="45.78306" lon="6.14694">
        <ele>894</ele>
        <time>2021-09-10T13:05:06.588Z</time>
      </trkpt>
      <trkpt lat="45.78314" lon="6.14691">
        <ele>893</ele>
        <time>2021-09-10T13:05:07.588Z</time>
      </trkpt>
      <trkpt lat="45.78322" lon="6.14688">
        <ele>893</ele>
        <time>2021-09-10T13:05:08.588Z</time>
      </trkpt>
      <trkpt lat="45.7833" lon="6.14686">
        <ele>892</ele>
        <time>2021-09-10T13:05:09.589Z</time>
      </trkpt>
      <trkpt lat="45.78338" lon="6.14683">
        <ele>891</ele>
        <time>2021-09-10T13:05:10.589Z</time>
      </trkpt>
      <trkpt lat="45.78346" lon="6.14681">
        <ele>890</ele>
        <time>2021-09-10T13:05:11.588Z</time>
      </trkpt>
      <trkpt lat="45.78355" lon="6.14679">
        <ele>889</ele>
        <time>2021-09-10T13:05:12.588Z</time>
      </trkpt>
      <trkpt lat="45.78363" lon="6.14676">
        <ele>888</ele>
        <time>2021-09-10T13:05:13.588Z</time>
      </trkpt>
      <trkpt lat="45.78371" lon="6.14673">
        <ele>887</ele>
        <time>2021-09-10T13:05:14.589Z</time>
      </trkpt>
      <trkpt lat="45.7838" lon="6.1467">
        <ele>886</ele>
        <time>2021-09-10T13:05:15.588Z</time>
      </trkpt>
      <trkpt lat="45.78387" lon="6.14667">
        <ele>886</ele>
        <time>2021-09-10T13:05:16.588Z</time>
      </trkpt>
      <trkpt lat="45.78395" lon="6.14664">
        <ele>886</ele>
        <time>2021-09-10T13:05:17.588Z</time>
      </trkpt>
      <trkpt lat="45.78404" lon="6.14661">
        <ele>886</ele>
        <time>2021-09-10T13:05:18.588Z</time>
      </trkpt>
      <trkpt lat="45.78412" lon="6.14659">
        <ele>885</ele>
        <time>2021-09-10T13:05:19.589Z</time>
      </trkpt>
      <trkpt lat="45.78421" lon="6.14658">
        <ele>885</ele>
        <time>2021-09-10T13:05:20.589Z</time>
      </trkpt>
      <trkpt lat="45.78432" lon="6.14656">
        <ele>884</ele>
        <time>2021-09-10T13:05:21.588Z</time>
      </trkpt>
      <trkpt lat="45.78442" lon="6.14654">
        <ele>883</ele>
        <time>2021-09-10T13:05:22.588Z</time>
      </trkpt>
      <trkpt lat="45.78449" lon="6.14654">
        <ele>882</ele>
        <time>2021-09-10T13:05:23.588Z</time>
      </trkpt>
      <trkpt lat="45.78458" lon="6.14654">
        <ele>881</ele>
        <time>2021-09-10T13:05:24.589Z</time>
      </trkpt>
      <trkpt lat="45.78467" lon="6.14654">
        <ele>880</ele>
        <time>2021-09-10T13:05:25.589Z</time>
      </trkpt>
      <trkpt lat="45.78477" lon="6.14655">
        <ele>879</ele>
        <time>2021-09-10T13:05:26.588Z</time>
      </trkpt>
      <trkpt lat="45.78488" lon="6.14657">
        <ele>878</ele>
        <time>2021-09-10T13:05:27.588Z</time>
      </trkpt>
      <trkpt lat="45.78495" lon="6.14658">
        <ele>878</ele>
        <time>2021-09-10T13:05:28.588Z</time>
      </trkpt>
      <trkpt lat="45.78504" lon="6.1466">
        <ele>878</ele>
        <time>2021-09-10T13:05:29.589Z</time>
      </trkpt>
      <trkpt lat="45.78514" lon="6.14663">
        <ele>877</ele>
        <time>2021-09-10T13:05:30.588Z</time>
      </trkpt>
      <trkpt lat="45.78522" lon="6.14665">
        <ele>877</ele>
        <time>2021-09-10T13:05:31.589Z</time>
      </trkpt>
      <trkpt lat="45.78531" lon="6.14669">
        <ele>876</ele>
        <time>2021-09-10T13:05:32.588Z</time>
      </trkpt>
      <trkpt lat="45.78539" lon="6.14672">
        <ele>875</ele>
        <time>2021-09-10T13:05:33.588Z</time>
      </trkpt>
      <trkpt lat="45.78548" lon="6.14676">
        <ele>875</ele>
        <time>2021-09-10T13:05:34.589Z</time>
      </trkpt>
      <trkpt lat="45.78556" lon="6.14682">
        <ele>874</ele>
        <time>2021-09-10T13:05:35.588Z</time>
      </trkpt>
      <trkpt lat="45.78563" lon="6.14689">
        <ele>873</ele>
        <time>2021-09-10T13:05:36.588Z</time>
      </trkpt>
      <trkpt lat="45.7857" lon="6.14696">
        <ele>873</ele>
        <time>2021-09-10T13:05:37.588Z</time>
      </trkpt>
      <trkpt lat="45.78578" lon="6.14704">
        <ele>872</ele>
        <time>2021-09-10T13:05:38.588Z</time>
      </trkpt>
      <trkpt lat="45.78585" lon="6.14712">
        <ele>872</ele>
        <time>2021-09-10T13:05:39.588Z</time>
      </trkpt>
      <trkpt lat="45.78593" lon="6.14721">
        <ele>871</ele>
        <time>2021-09-10T13:05:40.589Z</time>
      </trkpt>
      <trkpt lat="45.78599" lon="6.14726">
        <ele>870</ele>
        <time>2021-09-10T13:05:41.588Z</time>
      </trkpt>
      <trkpt lat="45.78607" lon="6.14733">
        <ele>870</ele>
        <time>2021-09-10T13:05:42.589Z</time>
      </trkpt>
      <trkpt lat="45.78615" lon="6.14739">
        <ele>869</ele>
        <time>2021-09-10T13:05:43.588Z</time>
      </trkpt>
      <trkpt lat="45.78622" lon="6.14745">
        <ele>869</ele>
        <time>2021-09-10T13:05:44.589Z</time>
      </trkpt>
      <trkpt lat="45.78631" lon="6.1475">
        <ele>868</ele>
        <time>2021-09-10T13:05:45.588Z</time>
      </trkpt>
      <trkpt lat="45.78638" lon="6.14752">
        <ele>867</ele>
        <time>2021-09-10T13:05:46.588Z</time>
      </trkpt>
      <trkpt lat="45.78646" lon="6.14755">
        <ele>866</ele>
        <time>2021-09-10T13:05:47.589Z</time>
      </trkpt>
      <trkpt lat="45.78653" lon="6.14756">
        <ele>865</ele>
        <time>2021-09-10T13:05:48.588Z</time>
      </trkpt>
      <trkpt lat="45.78661" lon="6.14756">
        <ele>864</ele>
        <time>2021-09-10T13:05:49.588Z</time>
      </trkpt>
      <trkpt lat="45.78669" lon="6.14757">
        <ele>864</ele>
        <time>2021-09-10T13:05:50.589Z</time>
      </trkpt>
      <trkpt lat="45.78678" lon="6.14758">
        <ele>863</ele>
        <time>2021-09-10T13:05:51.589Z</time>
      </trkpt>
      <trkpt lat="45.78686" lon="6.14758">
        <ele>862</ele>
        <time>2021-09-10T13:05:52.588Z</time>
      </trkpt>
      <trkpt lat="45.78695" lon="6.1476">
        <ele>861</ele>
        <time>2021-09-10T13:05:53.588Z</time>
      </trkpt>
      <trkpt lat="45.78704" lon="6.14761">
        <ele>860</ele>
        <time>2021-09-10T13:05:54.588Z</time>
      </trkpt>
      <trkpt lat="45.78713" lon="6.14763">
        <ele>860</ele>
        <time>2021-09-10T13:05:55.588Z</time>
      </trkpt>
      <trkpt lat="45.78723" lon="6.14764">
        <ele>859</ele>
        <time>2021-09-10T13:05:56.588Z</time>
      </trkpt>
      <trkpt lat="45.78732" lon="6.14765">
        <ele>859</ele>
        <time>2021-09-10T13:05:57.589Z</time>
      </trkpt>
      <trkpt lat="45.7874" lon="6.14766">
        <ele>859</ele>
        <time>2021-09-10T13:05:58.589Z</time>
      </trkpt>
      <trkpt lat="45.78749" lon="6.14765">
        <ele>858</ele>
        <time>2021-09-10T13:05:59.589Z</time>
      </trkpt>
      <trkpt lat="45.78757" lon="6.14765">
        <ele>858</ele>
        <time>2021-09-10T13:06:00.589Z</time>
      </trkpt>
      <trkpt lat="45.78766" lon="6.14765">
        <ele>857</ele>
        <time>2021-09-10T13:06:01.588Z</time>
      </trkpt>
      <trkpt lat="45.78774" lon="6.14764">
        <ele>857</ele>
        <time>2021-09-10T13:06:02.589Z</time>
      </trkpt>
      <trkpt lat="45.78782" lon="6.14764">
        <ele>856</ele>
        <time>2021-09-10T13:06:03.589Z</time>
      </trkpt>
      <trkpt lat="45.78789" lon="6.14762">
        <ele>856</ele>
        <time>2021-09-10T13:06:04.589Z</time>
      </trkpt>
      <trkpt lat="45.78797" lon="6.1476">
        <ele>855</ele>
        <time>2021-09-10T13:06:05.589Z</time>
      </trkpt>
      <trkpt lat="45.78805" lon="6.14758">
        <ele>854</ele>
        <time>2021-09-10T13:06:06.589Z</time>
      </trkpt>
      <trkpt lat="45.78813" lon="6.14757">
        <ele>854</ele>
        <time>2021-09-10T13:06:07.589Z</time>
      </trkpt>
      <trkpt lat="45.7882" lon="6.14756">
        <ele>853</ele>
        <time>2021-09-10T13:06:08.589Z</time>
      </trkpt>
      <trkpt lat="45.78828" lon="6.14757">
        <ele>853</ele>
        <time>2021-09-10T13:06:09.588Z</time>
      </trkpt>
      <trkpt lat="45.78835" lon="6.14758">
        <ele>852</ele>
        <time>2021-09-10T13:06:10.589Z</time>
      </trkpt>
      <trkpt lat="45.78843" lon="6.14761">
        <ele>851</ele>
        <time>2021-09-10T13:06:11.589Z</time>
      </trkpt>
      <trkpt lat="45.7885" lon="6.14763">
        <ele>851</ele>
        <time>2021-09-10T13:06:12.588Z</time>
      </trkpt>
      <trkpt lat="45.78858" lon="6.14766">
        <ele>850</ele>
        <time>2021-09-10T13:06:13.589Z</time>
      </trkpt>
      <trkpt lat="45.78865" lon="6.14768">
        <ele>850</ele>
        <time>2021-09-10T13:06:14.588Z</time>
      </trkpt>
      <trkpt lat="45.78873" lon="6.14769">
        <ele>849</ele>
        <time>2021-09-10T13:06:15.589Z</time>
      </trkpt>
      <trkpt lat="45.7888" lon="6.14769">
        <ele>848</ele>
        <time>2021-09-10T13:06:16.589Z</time>
      </trkpt>
      <trkpt lat="45.78886" lon="6.14768">
        <ele>847</ele>
        <time>2021-09-10T13:06:17.589Z</time>
      </trkpt>
      <trkpt lat="45.78893" lon="6.14766">
        <ele>846</ele>
        <time>2021-09-10T13:06:18.589Z</time>
      </trkpt>
      <trkpt lat="45.789" lon="6.14766">
        <ele>845</ele>
        <time>2021-09-10T13:06:19.589Z</time>
      </trkpt>
      <trkpt lat="45.78907" lon="6.14766">
        <ele>845</ele>
        <time>2021-09-10T13:06:20.588Z</time>
      </trkpt>
      <trkpt lat="45.78913" lon="6.14768">
        <ele>844</ele>
        <time>2021-09-10T13:06:21.589Z</time>
      </trkpt>
      <trkpt lat="45.78918" lon="6.14771">
        <ele>843</ele>
        <time>2021-09-10T13:06:22.589Z</time>
      </trkpt>
      <trkpt lat="45.78923" lon="6.14776">
        <ele>842</ele>
        <time>2021-09-10T13:06:23.589Z</time>
      </trkpt>
      <trkpt lat="45.78927" lon="6.14782">
        <ele>842</ele>
        <time>2021-09-10T13:06:24.589Z</time>
      </trkpt>
      <trkpt lat="45.78932" lon="6.14788">
        <ele>841</ele>
        <time>2021-09-10T13:06:25.589Z</time>
      </trkpt>
      <trkpt lat="45.78935" lon="6.14795">
        <ele>841</ele>
        <time>2021-09-10T13:06:26.589Z</time>
      </trkpt>
      <trkpt lat="45.78939" lon="6.14803">
        <ele>840</ele>
        <time>2021-09-10T13:06:27.589Z</time>
      </trkpt>
      <trkpt lat="45.78942" lon="6.14809">
        <ele>840</ele>
        <time>2021-09-10T13:06:28.589Z</time>
      </trkpt>
      <trkpt lat="45.78944" lon="6.14815">
        <ele>840</ele>
        <time>2021-09-10T13:06:29.589Z</time>
      </trkpt>
      <trkpt lat="45.78946" lon="6.1482">
        <ele>839</ele>
        <time>2021-09-10T13:06:30.589Z</time>
      </trkpt>
      <trkpt lat="45.78948" lon="6.14823">
        <ele>839</ele>
        <time>2021-09-10T13:06:31.589Z</time>
      </trkpt>
      <trkpt lat="45.78949" lon="6.14826">
        <ele>838</ele>
        <time>2021-09-10T13:06:32.589Z</time>
      </trkpt>
      <trkpt lat="45.78949" lon="6.14827">
        <ele>838</ele>
        <time>2021-09-10T13:06:33.589Z</time>
      </trkpt>
      <trkpt lat="45.7895" lon="6.14828">
        <ele>838</ele>
        <time>2021-09-10T13:06:34.589Z</time>
      </trkpt>
      <trkpt lat="45.7895" lon="6.14829">
        <ele>837</ele>
        <time>2021-09-10T13:06:35.588Z</time>
      </trkpt>
      <trkpt lat="45.7895" lon="6.14829">
        <ele>837</ele>
        <time>2021-09-10T13:06:36.589Z</time>
      </trkpt>
      <trkpt lat="45.78945" lon="6.14833">
        <ele>837</ele>
        <time>2021-09-10T13:06:37.591Z</time>
      </trkpt>
      <trkpt lat="45.78948" lon="6.14838">
        <ele>837</ele>
        <time>2021-09-10T13:06:38.591Z</time>
      </trkpt>
      <trkpt lat="45.7895" lon="6.14843">
        <ele>837</ele>
        <time>2021-09-10T13:06:39.590Z</time>
      </trkpt>
      <trkpt lat="45.78953" lon="6.14849">
        <ele>837</ele>
        <time>2021-09-10T13:06:40.590Z</time>
      </trkpt>
      <trkpt lat="45.78957" lon="6.14856">
        <ele>837</ele>
        <time>2021-09-10T13:06:41.590Z</time>
      </trkpt>
      <trkpt lat="45.7896" lon="6.14863">
        <ele>837</ele>
        <time>2021-09-10T13:06:42.590Z</time>
      </trkpt>
      <trkpt lat="45.78964" lon="6.14871">
        <ele>836</ele>
        <time>2021-09-10T13:06:43.590Z</time>
      </trkpt>
      <trkpt lat="45.78967" lon="6.1488">
        <ele>836</ele>
        <time>2021-09-10T13:06:44.590Z</time>
      </trkpt>
      <trkpt lat="45.7897" lon="6.14889">
        <ele>836</ele>
        <time>2021-09-10T13:06:45.591Z</time>
      </trkpt>
      <trkpt lat="45.78973" lon="6.14901">
        <ele>836</ele>
        <time>2021-09-10T13:06:46.590Z</time>
      </trkpt>
      <trkpt lat="45.78975" lon="6.14911">
        <ele>836</ele>
        <time>2021-09-10T13:06:47.590Z</time>
      </trkpt>
      <trkpt lat="45.78976" lon="6.1492">
        <ele>836</ele>
        <time>2021-09-10T13:06:48.591Z</time>
      </trkpt>
      <trkpt lat="45.78976" lon="6.14931">
        <ele>835</ele>
        <time>2021-09-10T13:06:49.591Z</time>
      </trkpt>
      <trkpt lat="45.78975" lon="6.14944">
        <ele>835</ele>
        <time>2021-09-10T13:06:50.591Z</time>
      </trkpt>
      <trkpt lat="45.78973" lon="6.14957">
        <ele>834</ele>
        <time>2021-09-10T13:06:51.590Z</time>
      </trkpt>
      <trkpt lat="45.78972" lon="6.14967">
        <ele>834</ele>
        <time>2021-09-10T13:06:52.590Z</time>
      </trkpt>
      <trkpt lat="45.78971" lon="6.14977">
        <ele>833</ele>
        <time>2021-09-10T13:06:53.590Z</time>
      </trkpt>
      <trkpt lat="45.78971" lon="6.14986">
        <ele>832</ele>
        <time>2021-09-10T13:06:54.591Z</time>
      </trkpt>
      <trkpt lat="45.78973" lon="6.14995">
        <ele>832</ele>
        <time>2021-09-10T13:06:55.591Z</time>
      </trkpt>
      <trkpt lat="45.78976" lon="6.15">
        <ele>831</ele>
        <time>2021-09-10T13:06:56.590Z</time>
      </trkpt>
      <trkpt lat="45.7898" lon="6.15005">
        <ele>831</ele>
        <time>2021-09-10T13:06:57.590Z</time>
      </trkpt>
      <trkpt lat="45.78985" lon="6.15007">
        <ele>830</ele>
        <time>2021-09-10T13:06:58.590Z</time>
      </trkpt>
      <trkpt lat="45.78991" lon="6.15007">
        <ele>830</ele>
        <time>2021-09-10T13:06:59.591Z</time>
      </trkpt>
      <trkpt lat="45.78997" lon="6.15005">
        <ele>830</ele>
        <time>2021-09-10T13:07:00.591Z</time>
      </trkpt>
      <trkpt lat="45.79002" lon="6.15001">
        <ele>829</ele>
        <time>2021-09-10T13:07:01.590Z</time>
      </trkpt>
      <trkpt lat="45.79005" lon="6.14995">
        <ele>829</ele>
        <time>2021-09-10T13:07:02.590Z</time>
      </trkpt>
      <trkpt lat="45.79009" lon="6.14988">
        <ele>829</ele>
        <time>2021-09-10T13:07:03.590Z</time>
      </trkpt>
      <trkpt lat="45.79011" lon="6.1498">
        <ele>828</ele>
        <time>2021-09-10T13:07:04.590Z</time>
      </trkpt>
      <trkpt lat="45.79013" lon="6.1497">
        <ele>828</ele>
        <time>2021-09-10T13:07:05.590Z</time>
      </trkpt>
      <trkpt lat="45.79015" lon="6.14961">
        <ele>828</ele>
        <time>2021-09-10T13:07:06.590Z</time>
      </trkpt>
      <trkpt lat="45.79018" lon="6.14953">
        <ele>827</ele>
        <time>2021-09-10T13:07:07.590Z</time>
      </trkpt>
      <trkpt lat="45.7902" lon="6.14944">
        <ele>827</ele>
        <time>2021-09-10T13:07:08.590Z</time>
      </trkpt>
      <trkpt lat="45.79024" lon="6.14934">
        <ele>827</ele>
        <time>2021-09-10T13:07:09.591Z</time>
      </trkpt>
      <trkpt lat="45.79028" lon="6.14925">
        <ele>827</ele>
        <time>2021-09-10T13:07:10.591Z</time>
      </trkpt>
      <trkpt lat="45.79034" lon="6.14914">
        <ele>826</ele>
        <time>2021-09-10T13:07:11.590Z</time>
      </trkpt>
      <trkpt lat="45.79039" lon="6.14905">
        <ele>825</ele>
        <time>2021-09-10T13:07:12.590Z</time>
      </trkpt>
      <trkpt lat="45.79043" lon="6.14898">
        <ele>825</ele>
        <time>2021-09-10T13:07:13.590Z</time>
      </trkpt>
      <trkpt lat="45.79048" lon="6.1489">
        <ele>824</ele>
        <time>2021-09-10T13:07:14.590Z</time>
      </trkpt>
      <trkpt lat="45.79052" lon="6.14881">
        <ele>823</ele>
        <time>2021-09-10T13:07:15.591Z</time>
      </trkpt>
      <trkpt lat="45.79057" lon="6.14872">
        <ele>822</ele>
        <time>2021-09-10T13:07:16.590Z</time>
      </trkpt>
      <trkpt lat="45.79061" lon="6.14863">
        <ele>821</ele>
        <time>2021-09-10T13:07:17.590Z</time>
      </trkpt>
      <trkpt lat="45.79065" lon="6.14852">
        <ele>820</ele>
        <time>2021-09-10T13:07:18.590Z</time>
      </trkpt>
      <trkpt lat="45.79067" lon="6.14842">
        <ele>820</ele>
        <time>2021-09-10T13:07:19.590Z</time>
      </trkpt>
      <trkpt lat="45.79068" lon="6.14832">
        <ele>820</ele>
        <time>2021-09-10T13:07:20.590Z</time>
      </trkpt>
      <trkpt lat="45.79069" lon="6.14819">
        <ele>820</ele>
        <time>2021-09-10T13:07:21.590Z</time>
      </trkpt>
      <trkpt lat="45.79069" lon="6.14809">
        <ele>819</ele>
        <time>2021-09-10T13:07:22.590Z</time>
      </trkpt>
      <trkpt lat="45.79069" lon="6.14799">
        <ele>819</ele>
        <time>2021-09-10T13:07:23.590Z</time>
      </trkpt>
      <trkpt lat="45.79069" lon="6.14789">
        <ele>818</ele>
        <time>2021-09-10T13:07:24.590Z</time>
      </trkpt>
      <trkpt lat="45.79069" lon="6.14777">
        <ele>817</ele>
        <time>2021-09-10T13:07:25.590Z</time>
      </trkpt>
      <trkpt lat="45.7907" lon="6.14769">
        <ele>817</ele>
        <time>2021-09-10T13:07:26.590Z</time>
      </trkpt>
      <trkpt lat="45.79071" lon="6.14762">
        <ele>816</ele>
        <time>2021-09-10T13:07:27.591Z</time>
      </trkpt>
      <trkpt lat="45.79073" lon="6.14754">
        <ele>816</ele>
        <time>2021-09-10T13:07:28.591Z</time>
      </trkpt>
      <trkpt lat="45.79077" lon="6.14749">
        <ele>816</ele>
        <time>2021-09-10T13:07:29.591Z</time>
      </trkpt>
      <trkpt lat="45.79081" lon="6.14746">
        <ele>815</ele>
        <time>2021-09-10T13:07:30.591Z</time>
      </trkpt>
      <trkpt lat="45.79086" lon="6.14745">
        <ele>815</ele>
        <time>2021-09-10T13:07:31.591Z</time>
      </trkpt>
      <trkpt lat="45.79092" lon="6.14747">
        <ele>814</ele>
        <time>2021-09-10T13:07:32.591Z</time>
      </trkpt>
      <trkpt lat="45.79095" lon="6.1475">
        <ele>814</ele>
        <time>2021-09-10T13:07:33.590Z</time>
      </trkpt>
      <trkpt lat="45.79099" lon="6.14755">
        <ele>813</ele>
        <time>2021-09-10T13:07:34.590Z</time>
      </trkpt>
      <trkpt lat="45.79102" lon="6.14762">
        <ele>813</ele>
        <time>2021-09-10T13:07:35.591Z</time>
      </trkpt>
      <trkpt lat="45.79104" lon="6.1477">
        <ele>813</ele>
        <time>2021-09-10T13:07:36.591Z</time>
      </trkpt>
      <trkpt lat="45.79105" lon="6.14779">
        <ele>812</ele>
        <time>2021-09-10T13:07:37.591Z</time>
      </trkpt>
      <trkpt lat="45.79106" lon="6.1479">
        <ele>812</ele>
        <time>2021-09-10T13:07:38.591Z</time>
      </trkpt>
      <trkpt lat="45.79107" lon="6.14798">
        <ele>811</ele>
        <time>2021-09-10T13:07:39.591Z</time>
      </trkpt>
      <trkpt lat="45.79107" lon="6.14809">
        <ele>811</ele>
        <time>2021-09-10T13:07:40.591Z</time>
      </trkpt>
      <trkpt lat="45.79107" lon="6.14822">
        <ele>810</ele>
        <time>2021-09-10T13:07:41.591Z</time>
      </trkpt>
      <trkpt lat="45.79108" lon="6.14834">
        <ele>810</ele>
        <time>2021-09-10T13:07:42.591Z</time>
      </trkpt>
      <trkpt lat="45.79109" lon="6.14845">
        <ele>810</ele>
        <time>2021-09-10T13:07:43.591Z</time>
      </trkpt>
      <trkpt lat="45.7911" lon="6.14854">
        <ele>809</ele>
        <time>2021-09-10T13:07:44.591Z</time>
      </trkpt>
      <trkpt lat="45.79111" lon="6.14865">
        <ele>809</ele>
        <time>2021-09-10T13:07:45.591Z</time>
      </trkpt>
      <trkpt lat="45.79113" lon="6.14877">
        <ele>808</ele>
        <time>2021-09-10T13:07:46.590Z</time>
      </trkpt>
      <trkpt lat="45.79114" lon="6.14887">
        <ele>808</ele>
        <time>2021-09-10T13:07:47.590Z</time>
      </trkpt>
      <trkpt lat="45.79117" lon="6.14897">
        <ele>808</ele>
        <time>2021-09-10T13:07:48.591Z</time>
      </trkpt>
      <trkpt lat="45.79119" lon="6.14905">
        <ele>808</ele>
        <time>2021-09-10T13:07:49.591Z</time>
      </trkpt>
      <trkpt lat="45.79121" lon="6.14914">
        <ele>807</ele>
        <time>2021-09-10T13:07:50.591Z</time>
      </trkpt>
      <trkpt lat="45.79124" lon="6.14923">
        <ele>807</ele>
        <time>2021-09-10T13:07:51.591Z</time>
      </trkpt>
      <trkpt lat="45.79127" lon="6.14934">
        <ele>806</ele>
        <time>2021-09-10T13:07:52.591Z</time>
      </trkpt>
      <trkpt lat="45.7913" lon="6.14943">
        <ele>806</ele>
        <time>2021-09-10T13:07:53.591Z</time>
      </trkpt>
      <trkpt lat="45.79133" lon="6.1495">
        <ele>806</ele>
        <time>2021-09-10T13:07:54.591Z</time>
      </trkpt>
      <trkpt lat="45.79136" lon="6.14959">
        <ele>806</ele>
        <time>2021-09-10T13:07:55.590Z</time>
      </trkpt>
      <trkpt lat="45.7914" lon="6.1497">
        <ele>806</ele>
        <time>2021-09-10T13:07:56.591Z</time>
      </trkpt>
      <trkpt lat="45.79143" lon="6.14979">
        <ele>806</ele>
        <time>2021-09-10T13:07:57.591Z</time>
      </trkpt>
      <trkpt lat="45.79147" lon="6.14989">
        <ele>806</ele>
        <time>2021-09-10T13:07:58.591Z</time>
      </trkpt>
      <trkpt lat="45.7915" lon="6.14996">
        <ele>806</ele>
        <time>2021-09-10T13:07:59.591Z</time>
      </trkpt>
      <trkpt lat="45.79153" lon="6.15006">
        <ele>806</ele>
        <time>2021-09-10T13:08:00.591Z</time>
      </trkpt>
      <trkpt lat="45.79156" lon="6.15016">
        <ele>805</ele>
        <time>2021-09-10T13:08:01.591Z</time>
      </trkpt>
      <trkpt lat="45.79159" lon="6.15025">
        <ele>804</ele>
        <time>2021-09-10T13:08:02.591Z</time>
      </trkpt>
      <trkpt lat="45.79161" lon="6.15034">
        <ele>803</ele>
        <time>2021-09-10T13:08:03.590Z</time>
      </trkpt>
      <trkpt lat="45.79163" lon="6.15043">
        <ele>803</ele>
        <time>2021-09-10T13:08:04.591Z</time>
      </trkpt>
      <trkpt lat="45.79163" lon="6.15052">
        <ele>802</ele>
        <time>2021-09-10T13:08:05.591Z</time>
      </trkpt>
      <trkpt lat="45.79163" lon="6.1506">
        <ele>800</ele>
        <time>2021-09-10T13:08:06.591Z</time>
      </trkpt>
      <trkpt lat="45.7916" lon="6.1507">
        <ele>799</ele>
        <time>2021-09-10T13:08:07.591Z</time>
      </trkpt>
      <trkpt lat="45.79158" lon="6.15075">
        <ele>798</ele>
        <time>2021-09-10T13:08:08.591Z</time>
      </trkpt>
      <trkpt lat="45.79154" lon="6.15082">
        <ele>798</ele>
        <time>2021-09-10T13:08:09.591Z</time>
      </trkpt>
      <trkpt lat="45.7915" lon="6.15089">
        <ele>797</ele>
        <time>2021-09-10T13:08:10.591Z</time>
      </trkpt>
      <trkpt lat="45.79145" lon="6.15097">
        <ele>797</ele>
        <time>2021-09-10T13:08:11.591Z</time>
      </trkpt>
      <trkpt lat="45.79143" lon="6.15103">
        <ele>797</ele>
        <time>2021-09-10T13:08:12.591Z</time>
      </trkpt>
      <trkpt lat="45.79142" lon="6.15108">
        <ele>797</ele>
        <time>2021-09-10T13:08:13.591Z</time>
      </trkpt>
      <trkpt lat="45.7914" lon="6.15114">
        <ele>797</ele>
        <time>2021-09-10T13:08:14.591Z</time>
      </trkpt>
      <trkpt lat="45.79141" lon="6.15119">
        <ele>798</ele>
        <time>2021-09-10T13:08:15.591Z</time>
      </trkpt>
      <trkpt lat="45.79143" lon="6.15124">
        <ele>798</ele>
        <time>2021-09-10T13:08:16.591Z</time>
      </trkpt>
      <trkpt lat="45.79146" lon="6.15127">
        <ele>798</ele>
        <time>2021-09-10T13:08:17.590Z</time>
      </trkpt>
      <trkpt lat="45.79151" lon="6.1513">
        <ele>798</ele>
        <time>2021-09-10T13:08:18.591Z</time>
      </trkpt>
      <trkpt lat="45.79155" lon="6.1513">
        <ele>798</ele>
        <time>2021-09-10T13:08:19.591Z</time>
      </trkpt>
      <trkpt lat="45.7916" lon="6.15129">
        <ele>797</ele>
        <time>2021-09-10T13:08:20.591Z</time>
      </trkpt>
      <trkpt lat="45.79166" lon="6.15125">
        <ele>796</ele>
        <time>2021-09-10T13:08:21.591Z</time>
      </trkpt>
      <trkpt lat="45.79171" lon="6.15121">
        <ele>795</ele>
        <time>2021-09-10T13:08:22.591Z</time>
      </trkpt>
      <trkpt lat="45.79177" lon="6.15115">
        <ele>795</ele>
        <time>2021-09-10T13:08:23.591Z</time>
      </trkpt>
      <trkpt lat="45.79182" lon="6.15108">
        <ele>795</ele>
        <time>2021-09-10T13:08:24.591Z</time>
      </trkpt>
      <trkpt lat="45.79187" lon="6.15101">
        <ele>795</ele>
        <time>2021-09-10T13:08:25.590Z</time>
      </trkpt>
      <trkpt lat="45.79193" lon="6.15091">
        <ele>794</ele>
        <time>2021-09-10T13:08:26.591Z</time>
      </trkpt>
      <trkpt lat="45.79198" lon="6.15084">
        <ele>794</ele>
        <time>2021-09-10T13:08:27.591Z</time>
      </trkpt>
      <trkpt lat="45.79203" lon="6.15074">
        <ele>794</ele>
        <time>2021-09-10T13:08:28.591Z</time>
      </trkpt>
      <trkpt lat="45.79209" lon="6.15064">
        <ele>793</ele>
        <time>2021-09-10T13:08:29.591Z</time>
      </trkpt>
      <trkpt lat="45.79214" lon="6.15054">
        <ele>793</ele>
        <time>2021-09-10T13:08:30.591Z</time>
      </trkpt>
      <trkpt lat="45.79218" lon="6.15045">
        <ele>792</ele>
        <time>2021-09-10T13:08:31.591Z</time>
      </trkpt>
      <trkpt lat="45.79222" lon="6.15035">
        <ele>791</ele>
        <time>2021-09-10T13:08:32.591Z</time>
      </trkpt>
      <trkpt lat="45.79226" lon="6.15025">
        <ele>791</ele>
        <time>2021-09-10T13:08:33.590Z</time>
      </trkpt>
      <trkpt lat="45.7923" lon="6.15015">
        <ele>790</ele>
        <time>2021-09-10T13:08:34.591Z</time>
      </trkpt>
      <trkpt lat="45.79234" lon="6.15006">
        <ele>790</ele>
        <time>2021-09-10T13:08:35.591Z</time>
      </trkpt>
      <trkpt lat="45.79238" lon="6.14996">
        <ele>789</ele>
        <time>2021-09-10T13:08:36.591Z</time>
      </trkpt>
      <trkpt lat="45.79242" lon="6.14987">
        <ele>787</ele>
        <time>2021-09-10T13:08:37.590Z</time>
      </trkpt>
      <trkpt lat="45.79246" lon="6.14979">
        <ele>786</ele>
        <time>2021-09-10T13:08:38.590Z</time>
      </trkpt>
      <trkpt lat="45.79249" lon="6.1497">
        <ele>786</ele>
        <time>2021-09-10T13:08:39.591Z</time>
      </trkpt>
      <trkpt lat="45.79252" lon="6.14961">
        <ele>785</ele>
        <time>2021-09-10T13:08:40.591Z</time>
      </trkpt>
      <trkpt lat="45.79254" lon="6.14949">
        <ele>784</ele>
        <time>2021-09-10T13:08:41.591Z</time>
      </trkpt>
      <trkpt lat="45.79256" lon="6.14939">
        <ele>783</ele>
        <time>2021-09-10T13:08:42.591Z</time>
      </trkpt>
      <trkpt lat="45.79258" lon="6.14929">
        <ele>782</ele>
        <time>2021-09-10T13:08:43.591Z</time>
      </trkpt>
      <trkpt lat="45.7926" lon="6.14921">
        <ele>781</ele>
        <time>2021-09-10T13:08:44.590Z</time>
      </trkpt>
      <trkpt lat="45.79263" lon="6.14912">
        <ele>780</ele>
        <time>2021-09-10T13:08:45.591Z</time>
      </trkpt>
      <trkpt lat="45.79267" lon="6.14902">
        <ele>780</ele>
        <time>2021-09-10T13:08:46.590Z</time>
      </trkpt>
      <trkpt lat="45.79271" lon="6.14894">
        <ele>779</ele>
        <time>2021-09-10T13:08:47.591Z</time>
      </trkpt>
      <trkpt lat="45.79276" lon="6.14888">
        <ele>779</ele>
        <time>2021-09-10T13:08:48.591Z</time>
      </trkpt>
      <trkpt lat="45.7928" lon="6.14883">
        <ele>778</ele>
        <time>2021-09-10T13:08:49.591Z</time>
      </trkpt>
      <trkpt lat="45.79285" lon="6.14876">
        <ele>778</ele>
        <time>2021-09-10T13:08:50.591Z</time>
      </trkpt>
      <trkpt lat="45.7929" lon="6.14868">
        <ele>778</ele>
        <time>2021-09-10T13:08:51.590Z</time>
      </trkpt>
      <trkpt lat="45.79295" lon="6.14861">
        <ele>778</ele>
        <time>2021-09-10T13:08:52.591Z</time>
      </trkpt>
      <trkpt lat="45.793" lon="6.14854">
        <ele>778</ele>
        <time>2021-09-10T13:08:53.591Z</time>
      </trkpt>
      <trkpt lat="45.79303" lon="6.14848">
        <ele>777</ele>
        <time>2021-09-10T13:08:54.591Z</time>
      </trkpt>
      <trkpt lat="45.79308" lon="6.1484">
        <ele>777</ele>
        <time>2021-09-10T13:08:55.591Z</time>
      </trkpt>
      <trkpt lat="45.79312" lon="6.14832">
        <ele>776</ele>
        <time>2021-09-10T13:08:56.590Z</time>
      </trkpt>
      <trkpt lat="45.79318" lon="6.14824">
        <ele>776</ele>
        <time>2021-09-10T13:08:57.591Z</time>
      </trkpt>
      <trkpt lat="45.79323" lon="6.14817">
        <ele>775</ele>
        <time>2021-09-10T13:08:58.590Z</time>
      </trkpt>
      <trkpt lat="45.79329" lon="6.1481">
        <ele>775</ele>
        <time>2021-09-10T13:08:59.590Z</time>
      </trkpt>
      <trkpt lat="45.79336" lon="6.14803">
        <ele>774</ele>
        <time>2021-09-10T13:09:00.591Z</time>
      </trkpt>
      <trkpt lat="45.79342" lon="6.14797">
        <ele>773</ele>
        <time>2021-09-10T13:09:01.590Z</time>
      </trkpt>
      <trkpt lat="45.7935" lon="6.1479">
        <ele>773</ele>
        <time>2021-09-10T13:09:02.591Z</time>
      </trkpt>
      <trkpt lat="45.79356" lon="6.14785">
        <ele>772</ele>
        <time>2021-09-10T13:09:03.591Z</time>
      </trkpt>
      <trkpt lat="45.79361" lon="6.1478">
        <ele>772</ele>
        <time>2021-09-10T13:09:04.590Z</time>
      </trkpt>
      <trkpt lat="45.79366" lon="6.14773">
        <ele>771</ele>
        <time>2021-09-10T13:09:05.591Z</time>
      </trkpt>
      <trkpt lat="45.7937" lon="6.14766">
        <ele>770</ele>
        <time>2021-09-10T13:09:06.590Z</time>
      </trkpt>
      <trkpt lat="45.79373" lon="6.14759">
        <ele>770</ele>
        <time>2021-09-10T13:09:07.590Z</time>
      </trkpt>
      <trkpt lat="45.79375" lon="6.14749">
        <ele>770</ele>
        <time>2021-09-10T13:09:08.590Z</time>
      </trkpt>
      <trkpt lat="45.79374" lon="6.14742">
        <ele>769</ele>
        <time>2021-09-10T13:09:09.590Z</time>
      </trkpt>
      <trkpt lat="45.79373" lon="6.14734">
        <ele>768</ele>
        <time>2021-09-10T13:09:10.591Z</time>
      </trkpt>
      <trkpt lat="45.79371" lon="6.14724">
        <ele>767</ele>
        <time>2021-09-10T13:09:11.590Z</time>
      </trkpt>
      <trkpt lat="45.79367" lon="6.14715">
        <ele>766</ele>
        <time>2021-09-10T13:09:12.590Z</time>
      </trkpt>
      <trkpt lat="45.79364" lon="6.14707">
        <ele>765</ele>
        <time>2021-09-10T13:09:13.590Z</time>
      </trkpt>
      <trkpt lat="45.7936" lon="6.147">
        <ele>764</ele>
        <time>2021-09-10T13:09:14.591Z</time>
      </trkpt>
      <trkpt lat="45.79357" lon="6.14693">
        <ele>763</ele>
        <time>2021-09-10T13:09:15.591Z</time>
      </trkpt>
      <trkpt lat="45.79354" lon="6.14684">
        <ele>763</ele>
        <time>2021-09-10T13:09:16.590Z</time>
      </trkpt>
      <trkpt lat="45.79353" lon="6.14676">
        <ele>762</ele>
        <time>2021-09-10T13:09:17.590Z</time>
      </trkpt>
      <trkpt lat="45.79353" lon="6.14668">
        <ele>762</ele>
        <time>2021-09-10T13:09:18.591Z</time>
      </trkpt>
      <trkpt lat="45.79355" lon="6.14663">
        <ele>761</ele>
        <time>2021-09-10T13:09:19.591Z</time>
      </trkpt>
      <trkpt lat="45.79358" lon="6.14658">
        <ele>761</ele>
        <time>2021-09-10T13:09:20.591Z</time>
      </trkpt>
      <trkpt lat="45.79362" lon="6.14654">
        <ele>761</ele>
        <time>2021-09-10T13:09:21.590Z</time>
      </trkpt>
      <trkpt lat="45.79367" lon="6.14652">
        <ele>760</ele>
        <time>2021-09-10T13:09:22.590Z</time>
      </trkpt>
      <trkpt lat="45.79373" lon="6.14653">
        <ele>759</ele>
        <time>2021-09-10T13:09:23.590Z</time>
      </trkpt>
      <trkpt lat="45.79378" lon="6.14655">
        <ele>758</ele>
        <time>2021-09-10T13:09:24.591Z</time>
      </trkpt>
      <trkpt lat="45.79384" lon="6.14659">
        <ele>757</ele>
        <time>2021-09-10T13:09:25.591Z</time>
      </trkpt>
      <trkpt lat="45.7939" lon="6.14666">
        <ele>756</ele>
        <time>2021-09-10T13:09:26.591Z</time>
      </trkpt>
      <trkpt lat="45.79395" lon="6.14672">
        <ele>756</ele>
        <time>2021-09-10T13:09:27.591Z</time>
      </trkpt>
      <trkpt lat="45.79402" lon="6.14679">
        <ele>755</ele>
        <time>2021-09-10T13:09:28.591Z</time>
      </trkpt>
      <trkpt lat="45.79406" lon="6.14685">
        <ele>754</ele>
        <time>2021-09-10T13:09:29.591Z</time>
      </trkpt>
      <trkpt lat="45.79412" lon="6.14692">
        <ele>753</ele>
        <time>2021-09-10T13:09:30.591Z</time>
      </trkpt>
      <trkpt lat="45.79418" lon="6.14699">
        <ele>753</ele>
        <time>2021-09-10T13:09:31.591Z</time>
      </trkpt>
      <trkpt lat="45.79422" lon="6.14707">
        <ele>752</ele>
        <time>2021-09-10T13:09:32.591Z</time>
      </trkpt>
      <trkpt lat="45.79427" lon="6.14716">
        <ele>751</ele>
        <time>2021-09-10T13:09:33.591Z</time>
      </trkpt>
      <trkpt lat="45.7943" lon="6.14722">
        <ele>751</ele>
        <time>2021-09-10T13:09:34.590Z</time>
      </trkpt>
      <trkpt lat="45.79432" lon="6.14731">
        <ele>750</ele>
        <time>2021-09-10T13:09:35.591Z</time>
      </trkpt>
      <trkpt lat="45.79434" lon="6.14739">
        <ele>749</ele>
        <time>2021-09-10T13:09:36.590Z</time>
      </trkpt>
      <trkpt lat="45.79435" lon="6.14748">
        <ele>749</ele>
        <time>2021-09-10T13:09:37.591Z</time>
      </trkpt>
      <trkpt lat="45.79436" lon="6.14754">
        <ele>749</ele>
        <time>2021-09-10T13:09:38.591Z</time>
      </trkpt>
      <trkpt lat="45.79437" lon="6.14761">
        <ele>749</ele>
        <time>2021-09-10T13:09:39.590Z</time>
      </trkpt>
      <trkpt lat="45.79438" lon="6.14768">
        <ele>748</ele>
        <time>2021-09-10T13:09:40.591Z</time>
      </trkpt>
      <trkpt lat="45.7944" lon="6.14774">
        <ele>748</ele>
        <time>2021-09-10T13:09:41.591Z</time>
      </trkpt>
      <trkpt lat="45.79443" lon="6.1478">
        <ele>748</ele>
        <time>2021-09-10T13:09:42.590Z</time>
      </trkpt>
      <trkpt lat="45.79447" lon="6.14786">
        <ele>748</ele>
        <time>2021-09-10T13:09:43.590Z</time>
      </trkpt>
      <trkpt lat="45.7945" lon="6.14789">
        <ele>748</ele>
        <time>2021-09-10T13:09:44.591Z</time>
      </trkpt>
      <trkpt lat="45.79454" lon="6.14792">
        <ele>748</ele>
        <time>2021-09-10T13:09:45.591Z</time>
      </trkpt>
      <trkpt lat="45.7946" lon="6.14794">
        <ele>748</ele>
        <time>2021-09-10T13:09:46.591Z</time>
      </trkpt>
      <trkpt lat="45.79465" lon="6.14794">
        <ele>748</ele>
        <time>2021-09-10T13:09:47.591Z</time>
      </trkpt>
      <trkpt lat="45.7947" lon="6.14795">
        <ele>748</ele>
        <time>2021-09-10T13:09:48.591Z</time>
      </trkpt>
      <trkpt lat="45.79476" lon="6.14796">
        <ele>748</ele>
        <time>2021-09-10T13:09:49.591Z</time>
      </trkpt>
      <trkpt lat="45.7948" lon="6.14798">
        <ele>748</ele>
        <time>2021-09-10T13:09:50.591Z</time>
      </trkpt>
      <trkpt lat="45.79485" lon="6.14803">
        <ele>748</ele>
        <time>2021-09-10T13:09:51.591Z</time>
      </trkpt>
      <trkpt lat="45.79489" lon="6.14807">
        <ele>748</ele>
        <time>2021-09-10T13:09:52.591Z</time>
      </trkpt>
      <trkpt lat="45.79491" lon="6.14813">
        <ele>748</ele>
        <time>2021-09-10T13:09:53.591Z</time>
      </trkpt>
      <trkpt lat="45.79493" lon="6.1482">
        <ele>748</ele>
        <time>2021-09-10T13:09:54.591Z</time>
      </trkpt>
      <trkpt lat="45.79495" lon="6.14827">
        <ele>747</ele>
        <time>2021-09-10T13:09:55.591Z</time>
      </trkpt>
      <trkpt lat="45.79497" lon="6.14834">
        <ele>746</ele>
        <time>2021-09-10T13:09:56.590Z</time>
      </trkpt>
      <trkpt lat="45.79499" lon="6.14838">
        <ele>745</ele>
        <time>2021-09-10T13:09:57.591Z</time>
      </trkpt>
      <trkpt lat="45.79502" lon="6.14843">
        <ele>744</ele>
        <time>2021-09-10T13:09:58.591Z</time>
      </trkpt>
      <trkpt lat="45.79504" lon="6.14846">
        <ele>744</ele>
        <time>2021-09-10T13:09:59.591Z</time>
      </trkpt>
      <trkpt lat="45.79507" lon="6.14849">
        <ele>743</ele>
        <time>2021-09-10T13:10:00.591Z</time>
      </trkpt>
      <trkpt lat="45.79512" lon="6.14853">
        <ele>743</ele>
        <time>2021-09-10T13:10:01.591Z</time>
      </trkpt>
      <trkpt lat="45.79517" lon="6.14854">
        <ele>742</ele>
        <time>2021-09-10T13:10:02.591Z</time>
      </trkpt>
      <trkpt lat="45.79522" lon="6.14855">
        <ele>741</ele>
        <time>2021-09-10T13:10:03.591Z</time>
      </trkpt>
      <trkpt lat="45.79528" lon="6.14856">
        <ele>740</ele>
        <time>2021-09-10T13:10:04.591Z</time>
      </trkpt>
      <trkpt lat="45.79534" lon="6.14856">
        <ele>740</ele>
        <time>2021-09-10T13:10:05.591Z</time>
      </trkpt>
      <trkpt lat="45.7954" lon="6.14855">
        <ele>739</ele>
        <time>2021-09-10T13:10:06.591Z</time>
      </trkpt>
      <trkpt lat="45.79546" lon="6.14853">
        <ele>738</ele>
        <time>2021-09-10T13:10:07.591Z</time>
      </trkpt>
      <trkpt lat="45.79551" lon="6.14852">
        <ele>738</ele>
        <time>2021-09-10T13:10:08.590Z</time>
      </trkpt>
      <trkpt lat="45.79556" lon="6.14849">
        <ele>738</ele>
        <time>2021-09-10T13:10:09.591Z</time>
      </trkpt>
      <trkpt lat="45.79561" lon="6.14846">
        <ele>738</ele>
        <time>2021-09-10T13:10:10.590Z</time>
      </trkpt>
      <trkpt lat="45.79566" lon="6.14843">
        <ele>738</ele>
        <time>2021-09-10T13:10:11.591Z</time>
      </trkpt>
      <trkpt lat="45.79571" lon="6.1484">
        <ele>737</ele>
        <time>2021-09-10T13:10:12.591Z</time>
      </trkpt>
      <trkpt lat="45.79576" lon="6.14839">
        <ele>737</ele>
        <time>2021-09-10T13:10:13.591Z</time>
      </trkpt>
      <trkpt lat="45.79581" lon="6.1484">
        <ele>737</ele>
        <time>2021-09-10T13:10:14.591Z</time>
      </trkpt>
      <trkpt lat="45.79586" lon="6.14841">
        <ele>736</ele>
        <time>2021-09-10T13:10:15.591Z</time>
      </trkpt>
      <trkpt lat="45.7959" lon="6.14844">
        <ele>737</ele>
        <time>2021-09-10T13:10:16.590Z</time>
      </trkpt>
      <trkpt lat="45.79593" lon="6.14848">
        <ele>737</ele>
        <time>2021-09-10T13:10:17.591Z</time>
      </trkpt>
      <trkpt lat="45.79596" lon="6.14853">
        <ele>738</ele>
        <time>2021-09-10T13:10:18.590Z</time>
      </trkpt>
      <trkpt lat="45.79599" lon="6.14858">
        <ele>738</ele>
        <time>2021-09-10T13:10:19.591Z</time>
      </trkpt>
      <trkpt lat="45.79601" lon="6.14864">
        <ele>738</ele>
        <time>2021-09-10T13:10:20.591Z</time>
      </trkpt>
      <trkpt lat="45.79602" lon="6.14869">
        <ele>738</ele>
        <time>2021-09-10T13:10:21.591Z</time>
      </trkpt>
      <trkpt lat="45.79602" lon="6.14874">
        <ele>737</ele>
        <time>2021-09-10T13:10:22.591Z</time>
      </trkpt>
      <trkpt lat="45.79601" lon="6.14878">
        <ele>736</ele>
        <time>2021-09-10T13:10:23.591Z</time>
      </trkpt>
      <trkpt lat="45.796" lon="6.14882">
        <ele>735</ele>
        <time>2021-09-10T13:10:24.591Z</time>
      </trkpt>
      <trkpt lat="45.79599" lon="6.14886">
        <ele>735</ele>
        <time>2021-09-10T13:10:25.591Z</time>
      </trkpt>
      <trkpt lat="45.79597" lon="6.14891">
        <ele>735</ele>
        <time>2021-09-10T13:10:26.591Z</time>
      </trkpt>
      <trkpt lat="45.79595" lon="6.14894">
        <ele>734</ele>
        <time>2021-09-10T13:10:27.591Z</time>
      </trkpt>
      <trkpt lat="45.79594" lon="6.14896">
        <ele>734</ele>
        <time>2021-09-10T13:10:28.591Z</time>
      </trkpt>
      <trkpt lat="45.79591" lon="6.14898">
        <ele>734</ele>
        <time>2021-09-10T13:10:29.591Z</time>
      </trkpt>
      <trkpt lat="45.79588" lon="6.149">
        <ele>734</ele>
        <time>2021-09-10T13:10:30.591Z</time>
      </trkpt>
      <trkpt lat="45.79584" lon="6.14901">
        <ele>734</ele>
        <time>2021-09-10T13:10:31.591Z</time>
      </trkpt>
      <trkpt lat="45.79582" lon="6.14901">
        <ele>735</ele>
        <time>2021-09-10T13:10:32.591Z</time>
      </trkpt>
      <trkpt lat="45.7958" lon="6.14902">
        <ele>735</ele>
        <time>2021-09-10T13:10:33.591Z</time>
      </trkpt>
      <trkpt lat="45.79579" lon="6.14902">
        <ele>735</ele>
        <time>2021-09-10T13:10:34.591Z</time>
      </trkpt>
      <trkpt lat="45.79578" lon="6.14902">
        <ele>736</ele>
        <time>2021-09-10T13:10:35.591Z</time>
      </trkpt>
      <trkpt lat="45.79577" lon="6.14902">
        <ele>736</ele>
        <time>2021-09-10T13:10:36.591Z</time>
      </trkpt>
      <trkpt lat="45.79574" lon="6.14905">
        <ele>741</ele>
        <time>2021-09-10T13:10:37.592Z</time>
      </trkpt>
      <trkpt lat="45.79572" lon="6.14905">
        <ele>741</ele>
        <time>2021-09-10T13:10:38.591Z</time>
      </trkpt>
      <trkpt lat="45.7957" lon="6.14904">
        <ele>740</ele>
        <time>2021-09-10T13:10:39.591Z</time>
      </trkpt>
      <trkpt lat="45.79568" lon="6.14904">
        <ele>740</ele>
        <time>2021-09-10T13:10:40.592Z</time>
      </trkpt>
      <trkpt lat="45.79565" lon="6.14902">
        <ele>739</ele>
        <time>2021-09-10T13:10:41.591Z</time>
      </trkpt>
      <trkpt lat="45.79561" lon="6.14901">
        <ele>739</ele>
        <time>2021-09-10T13:10:42.591Z</time>
      </trkpt>
      <trkpt lat="45.79558" lon="6.14899">
        <ele>739</ele>
        <time>2021-09-10T13:10:43.592Z</time>
      </trkpt>
      <trkpt lat="45.79555" lon="6.14897">
        <ele>738</ele>
        <time>2021-09-10T13:10:44.591Z</time>
      </trkpt>
      <trkpt lat="45.79552" lon="6.14895">
        <ele>738</ele>
        <time>2021-09-10T13:10:45.592Z</time>
      </trkpt>
      <trkpt lat="45.79548" lon="6.14893">
        <ele>738</ele>
        <time>2021-09-10T13:10:46.591Z</time>
      </trkpt>
      <trkpt lat="45.79546" lon="6.14891">
        <ele>738</ele>
        <time>2021-09-10T13:10:47.591Z</time>
      </trkpt>
      <trkpt lat="45.79543" lon="6.14889">
        <ele>738</ele>
        <time>2021-09-10T13:10:48.592Z</time>
      </trkpt>
      <trkpt lat="45.79539" lon="6.14889">
        <ele>738</ele>
        <time>2021-09-10T13:10:49.592Z</time>
      </trkpt>
      <trkpt lat="45.79537" lon="6.14888">
        <ele>738</ele>
        <time>2021-09-10T13:10:50.592Z</time>
      </trkpt>
      <trkpt lat="45.79534" lon="6.14886">
        <ele>738</ele>
        <time>2021-09-10T13:10:51.591Z</time>
      </trkpt>
      <trkpt lat="45.79532" lon="6.14884">
        <ele>738</ele>
        <time>2021-09-10T13:10:52.591Z</time>
      </trkpt>
      <trkpt lat="45.79528" lon="6.14883">
        <ele>738</ele>
        <time>2021-09-10T13:10:53.591Z</time>
      </trkpt>
      <trkpt lat="45.79526" lon="6.14881">
        <ele>738</ele>
        <time>2021-09-10T13:10:54.592Z</time>
      </trkpt>
      <trkpt lat="45.79524" lon="6.1488">
        <ele>738</ele>
        <time>2021-09-10T13:10:55.591Z</time>
      </trkpt>
      <trkpt lat="45.79522" lon="6.14878">
        <ele>737</ele>
        <time>2021-09-10T13:10:56.591Z</time>
      </trkpt>
      <trkpt lat="45.7952" lon="6.14877">
        <ele>737</ele>
        <time>2021-09-10T13:10:57.591Z</time>
      </trkpt>
      <trkpt lat="45.79517" lon="6.14876">
        <ele>737</ele>
        <time>2021-09-10T13:10:58.592Z</time>
      </trkpt>
      <trkpt lat="45.79515" lon="6.14874">
        <ele>736</ele>
        <time>2021-09-10T13:10:59.592Z</time>
      </trkpt>
      <trkpt lat="45.79513" lon="6.14874">
        <ele>736</ele>
        <time>2021-09-10T13:11:00.591Z</time>
      </trkpt>
      <trkpt lat="45.79511" lon="6.14874">
        <ele>736</ele>
        <time>2021-09-10T13:11:01.591Z</time>
      </trkpt>
      <trkpt lat="45.79509" lon="6.14875">
        <ele>736</ele>
        <time>2021-09-10T13:11:02.591Z</time>
      </trkpt>
      <trkpt lat="45.79506" lon="6.14876">
        <ele>736</ele>
        <time>2021-09-10T13:11:03.591Z</time>
      </trkpt>
      <trkpt lat="45.79502" lon="6.14877">
        <ele>737</ele>
        <time>2021-09-10T13:11:04.592Z</time>
      </trkpt>
      <trkpt lat="45.79499" lon="6.14877">
        <ele>738</ele>
        <time>2021-09-10T13:11:05.592Z</time>
      </trkpt>
      <trkpt lat="45.79495" lon="6.14876">
        <ele>738</ele>
        <time>2021-09-10T13:11:06.591Z</time>
      </trkpt>
      <trkpt lat="45.79493" lon="6.14876">
        <ele>739</ele>
        <time>2021-09-10T13:11:07.591Z</time>
      </trkpt>
      <trkpt lat="45.7949" lon="6.14876">
        <ele>740</ele>
        <time>2021-09-10T13:11:08.592Z</time>
      </trkpt>
      <trkpt lat="45.79486" lon="6.14876">
        <ele>741</ele>
        <time>2021-09-10T13:11:09.592Z</time>
      </trkpt>
      <trkpt lat="45.79483" lon="6.14877">
        <ele>741</ele>
        <time>2021-09-10T13:11:10.592Z</time>
      </trkpt>
      <trkpt lat="45.79479" lon="6.14878">
        <ele>741</ele>
        <time>2021-09-10T13:11:11.591Z</time>
      </trkpt>
      <trkpt lat="45.79476" lon="6.1488">
        <ele>742</ele>
        <time>2021-09-10T13:11:12.592Z</time>
      </trkpt>
      <trkpt lat="45.79473" lon="6.14883">
        <ele>742</ele>
        <time>2021-09-10T13:11:13.592Z</time>
      </trkpt>
      <trkpt lat="45.7947" lon="6.14888">
        <ele>742</ele>
        <time>2021-09-10T13:11:14.591Z</time>
      </trkpt>
      <trkpt lat="45.79468" lon="6.14894">
        <ele>741</ele>
        <time>2021-09-10T13:11:15.591Z</time>
      </trkpt>
      <trkpt lat="45.79467" lon="6.14901">
        <ele>741</ele>
        <time>2021-09-10T13:11:16.591Z</time>
      </trkpt>
      <trkpt lat="45.79467" lon="6.14908">
        <ele>741</ele>
        <time>2021-09-10T13:11:17.592Z</time>
      </trkpt>
      <trkpt lat="45.79469" lon="6.14915">
        <ele>741</ele>
        <time>2021-09-10T13:11:18.592Z</time>
      </trkpt>
      <trkpt lat="45.79473" lon="6.14924">
        <ele>740</ele>
        <time>2021-09-10T13:11:19.592Z</time>
      </trkpt>
      <trkpt lat="45.79478" lon="6.1493">
        <ele>740</ele>
        <time>2021-09-10T13:11:20.591Z</time>
      </trkpt>
      <trkpt lat="45.79484" lon="6.14936">
        <ele>741</ele>
        <time>2021-09-10T13:11:21.592Z</time>
      </trkpt>
      <trkpt lat="45.7949" lon="6.1494">
        <ele>741</ele>
        <time>2021-09-10T13:11:22.591Z</time>
      </trkpt>
      <trkpt lat="45.79497" lon="6.14945">
        <ele>741</ele>
        <time>2021-09-10T13:11:23.591Z</time>
      </trkpt>
      <trkpt lat="45.79507" lon="6.14952">
        <ele>742</ele>
        <time>2021-09-10T13:11:24.592Z</time>
      </trkpt>
      <trkpt lat="45.79514" lon="6.14958">
        <ele>742</ele>
        <time>2021-09-10T13:11:25.591Z</time>
      </trkpt>
      <trkpt lat="45.7952" lon="6.14965">
        <ele>742</ele>
        <time>2021-09-10T13:11:26.591Z</time>
      </trkpt>
      <trkpt lat="45.79525" lon="6.14975">
        <ele>742</ele>
        <time>2021-09-10T13:11:27.591Z</time>
      </trkpt>
      <trkpt lat="45.79531" lon="6.14987">
        <ele>741</ele>
        <time>2021-09-10T13:11:28.591Z</time>
      </trkpt>
      <trkpt lat="45.79536" lon="6.15001">
        <ele>740</ele>
        <time>2021-09-10T13:11:29.592Z</time>
      </trkpt>
      <trkpt lat="45.79539" lon="6.15012">
        <ele>740</ele>
        <time>2021-09-10T13:11:30.592Z</time>
      </trkpt>
      <trkpt lat="45.79543" lon="6.15025">
        <ele>739</ele>
        <time>2021-09-10T13:11:31.592Z</time>
      </trkpt>
      <trkpt lat="45.79547" lon="6.15037">
        <ele>739</ele>
        <time>2021-09-10T13:11:32.591Z</time>
      </trkpt>
      <trkpt lat="45.79551" lon="6.15047">
        <ele>738</ele>
        <time>2021-09-10T13:11:33.591Z</time>
      </trkpt>
      <trkpt lat="45.79558" lon="6.15059">
        <ele>738</ele>
        <time>2021-09-10T13:11:34.591Z</time>
      </trkpt>
      <trkpt lat="45.79564" lon="6.15066">
        <ele>738</ele>
        <time>2021-09-10T13:11:35.591Z</time>
      </trkpt>
      <trkpt lat="45.79571" lon="6.15074">
        <ele>737</ele>
        <time>2021-09-10T13:11:36.591Z</time>
      </trkpt>
      <trkpt lat="45.79577" lon="6.15081">
        <ele>737</ele>
        <time>2021-09-10T13:11:37.592Z</time>
      </trkpt>
      <trkpt lat="45.79585" lon="6.15087">
        <ele>737</ele>
        <time>2021-09-10T13:11:38.591Z</time>
      </trkpt>
      <trkpt lat="45.79593" lon="6.15094">
        <ele>736</ele>
        <time>2021-09-10T13:11:39.591Z</time>
      </trkpt>
      <trkpt lat="45.79603" lon="6.15101">
        <ele>736</ele>
        <time>2021-09-10T13:11:40.592Z</time>
      </trkpt>
      <trkpt lat="45.79612" lon="6.15105">
        <ele>735</ele>
        <time>2021-09-10T13:11:41.592Z</time>
      </trkpt>
      <trkpt lat="45.79621" lon="6.15109">
        <ele>734</ele>
        <time>2021-09-10T13:11:42.592Z</time>
      </trkpt>
      <trkpt lat="45.79628" lon="6.15111">
        <ele>734</ele>
        <time>2021-09-10T13:11:43.591Z</time>
      </trkpt>
      <trkpt lat="45.7964" lon="6.15115">
        <ele>733</ele>
        <time>2021-09-10T13:11:44.592Z</time>
      </trkpt>
      <trkpt lat="45.79649" lon="6.15114">
        <ele>732</ele>
        <time>2021-09-10T13:11:45.592Z</time>
      </trkpt>
      <trkpt lat="45.79658" lon="6.15115">
        <ele>732</ele>
        <time>2021-09-10T13:11:46.592Z</time>
      </trkpt>
      <trkpt lat="45.79665" lon="6.15117">
        <ele>731</ele>
        <time>2021-09-10T13:11:47.592Z</time>
      </trkpt>
      <trkpt lat="45.79673" lon="6.15121">
        <ele>731</ele>
        <time>2021-09-10T13:11:48.591Z</time>
      </trkpt>
      <trkpt lat="45.79681" lon="6.15128">
        <ele>730</ele>
        <time>2021-09-10T13:11:49.592Z</time>
      </trkpt>
      <trkpt lat="45.79686" lon="6.15135">
        <ele>729</ele>
        <time>2021-09-10T13:11:50.592Z</time>
      </trkpt>
      <trkpt lat="45.79691" lon="6.15142">
        <ele>727</ele>
        <time>2021-09-10T13:11:51.592Z</time>
      </trkpt>
      <trkpt lat="45.79693" lon="6.15148">
        <ele>725</ele>
        <time>2021-09-10T13:11:52.592Z</time>
      </trkpt>
      <trkpt lat="45.79695" lon="6.15156">
        <ele>723</ele>
        <time>2021-09-10T13:11:53.592Z</time>
      </trkpt>
      <trkpt lat="45.79696" lon="6.15165">
        <ele>722</ele>
        <time>2021-09-10T13:11:54.592Z</time>
      </trkpt>
      <trkpt lat="45.79696" lon="6.15172">
        <ele>720</ele>
        <time>2021-09-10T13:11:55.592Z</time>
      </trkpt>
      <trkpt lat="45.79696" lon="6.15177">
        <ele>719</ele>
        <time>2021-09-10T13:11:56.591Z</time>
      </trkpt>
      <trkpt lat="45.79695" lon="6.15181">
        <ele>717</ele>
        <time>2021-09-10T13:11:57.592Z</time>
      </trkpt>
      <trkpt lat="45.79693" lon="6.15185">
        <ele>716</ele>
        <time>2021-09-10T13:11:58.592Z</time>
      </trkpt>
      <trkpt lat="45.7969" lon="6.15189">
        <ele>716</ele>
        <time>2021-09-10T13:11:59.591Z</time>
      </trkpt>
      <trkpt lat="45.79688" lon="6.15192">
        <ele>715</ele>
        <time>2021-09-10T13:12:00.592Z</time>
      </trkpt>
      <trkpt lat="45.79687" lon="6.15195">
        <ele>715</ele>
        <time>2021-09-10T13:12:01.592Z</time>
      </trkpt>
      <trkpt lat="45.79686" lon="6.15197">
        <ele>714</ele>
        <time>2021-09-10T13:12:02.592Z</time>
      </trkpt>
      <trkpt lat="45.79685" lon="6.152">
        <ele>714</ele>
        <time>2021-09-10T13:12:03.592Z</time>
      </trkpt>
      <trkpt lat="45.79683" lon="6.15203">
        <ele>714</ele>
        <time>2021-09-10T13:12:04.592Z</time>
      </trkpt>
      <trkpt lat="45.79682" lon="6.15205">
        <ele>714</ele>
        <time>2021-09-10T13:12:05.591Z</time>
      </trkpt>
      <trkpt lat="45.79681" lon="6.15208">
        <ele>714</ele>
        <time>2021-09-10T13:12:06.592Z</time>
      </trkpt>
      <trkpt lat="45.79681" lon="6.1521">
        <ele>714</ele>
        <time>2021-09-10T13:12:07.592Z</time>
      </trkpt>
      <trkpt lat="45.79681" lon="6.15212">
        <ele>714</ele>
        <time>2021-09-10T13:12:08.592Z</time>
      </trkpt>
      <trkpt lat="45.7968" lon="6.15213">
        <ele>714</ele>
        <time>2021-09-10T13:12:09.592Z</time>
      </trkpt>
      <trkpt lat="45.7968" lon="6.15213">
        <ele>713</ele>
        <time>2021-09-10T13:12:10.592Z</time>
      </trkpt>
      <trkpt lat="45.7968" lon="6.15213">
        <ele>712</ele>
        <time>2021-09-10T13:12:11.592Z</time>
      </trkpt>
      <trkpt lat="45.79678" lon="6.15219">
        <ele>702</ele>
        <time>2021-09-10T13:12:12.592Z</time>
      </trkpt>
      <trkpt lat="45.7968" lon="6.15221">
        <ele>702</ele>
        <time>2021-09-10T13:12:13.592Z</time>
      </trkpt>
      <trkpt lat="45.79682" lon="6.15223">
        <ele>703</ele>
        <time>2021-09-10T13:12:14.592Z</time>
      </trkpt>
      <trkpt lat="45.79683" lon="6.15225">
        <ele>703</ele>
        <time>2021-09-10T13:12:15.592Z</time>
      </trkpt>
      <trkpt lat="45.79685" lon="6.15226">
        <ele>704</ele>
        <time>2021-09-10T13:12:16.592Z</time>
      </trkpt>
      <trkpt lat="45.79687" lon="6.15227">
        <ele>705</ele>
        <time>2021-09-10T13:12:17.592Z</time>
      </trkpt>
      <trkpt lat="45.79689" lon="6.15228">
        <ele>706</ele>
        <time>2021-09-10T13:12:18.591Z</time>
      </trkpt>
      <trkpt lat="45.79691" lon="6.15229">
        <ele>706</ele>
        <time>2021-09-10T13:12:19.592Z</time>
      </trkpt>
      <trkpt lat="45.79693" lon="6.15229">
        <ele>707</ele>
        <time>2021-09-10T13:12:20.592Z</time>
      </trkpt>
      <trkpt lat="45.79694" lon="6.15229">
        <ele>707</ele>
        <time>2021-09-10T13:12:21.591Z</time>
      </trkpt>
      <trkpt lat="45.79696" lon="6.1523">
        <ele>707</ele>
        <time>2021-09-10T13:12:22.592Z</time>
      </trkpt>
      <trkpt lat="45.79698" lon="6.15229">
        <ele>708</ele>
        <time>2021-09-10T13:12:23.592Z</time>
      </trkpt>
      <trkpt lat="45.79699" lon="6.15229">
        <ele>708</ele>
        <time>2021-09-10T13:12:24.592Z</time>
      </trkpt>
      <trkpt lat="45.79701" lon="6.15228">
        <ele>708</ele>
        <time>2021-09-10T13:12:25.591Z</time>
      </trkpt>
      <trkpt lat="45.79703" lon="6.15227">
        <ele>708</ele>
        <time>2021-09-10T13:12:26.592Z</time>
      </trkpt>
      <trkpt lat="45.79705" lon="6.15227">
        <ele>708</ele>
        <time>2021-09-10T13:12:27.592Z</time>
      </trkpt>
      <trkpt lat="45.79706" lon="6.15226">
        <ele>709</ele>
        <time>2021-09-10T13:12:28.592Z</time>
      </trkpt>
      <trkpt lat="45.79708" lon="6.15225">
        <ele>709</ele>
        <time>2021-09-10T13:12:29.592Z</time>
      </trkpt>
      <trkpt lat="45.7971" lon="6.15225">
        <ele>709</ele>
        <time>2021-09-10T13:12:30.592Z</time>
      </trkpt>
      <trkpt lat="45.79712" lon="6.15225">
        <ele>710</ele>
        <time>2021-09-10T13:12:31.592Z</time>
      </trkpt>
      <trkpt lat="45.79714" lon="6.15225">
        <ele>710</ele>
        <time>2021-09-10T13:12:32.592Z</time>
      </trkpt>
      <trkpt lat="45.79715" lon="6.15225">
        <ele>711</ele>
        <time>2021-09-10T13:12:33.592Z</time>
      </trkpt>
      <trkpt lat="45.79718" lon="6.15225">
        <ele>711</ele>
        <time>2021-09-10T13:12:34.591Z</time>
      </trkpt>
      <trkpt lat="45.7972" lon="6.15224">
        <ele>711</ele>
        <time>2021-09-10T13:12:35.592Z</time>
      </trkpt>
      <trkpt lat="45.79722" lon="6.15223">
        <ele>711</ele>
        <time>2021-09-10T13:12:36.591Z</time>
      </trkpt>
      <trkpt lat="45.79724" lon="6.15223">
        <ele>711</ele>
        <time>2021-09-10T13:12:37.592Z</time>
      </trkpt>
      <trkpt lat="45.79725" lon="6.15221">
        <ele>711</ele>
        <time>2021-09-10T13:12:38.592Z</time>
      </trkpt>
      <trkpt lat="45.79727" lon="6.1522">
        <ele>712</ele>
        <time>2021-09-10T13:12:39.592Z</time>
      </trkpt>
      <trkpt lat="45.7973" lon="6.15219">
        <ele>712</ele>
        <time>2021-09-10T13:12:40.592Z</time>
      </trkpt>
      <trkpt lat="45.79732" lon="6.15219">
        <ele>712</ele>
        <time>2021-09-10T13:12:41.591Z</time>
      </trkpt>
      <trkpt lat="45.79734" lon="6.15219">
        <ele>713</ele>
        <time>2021-09-10T13:12:42.592Z</time>
      </trkpt>
      <trkpt lat="45.79736" lon="6.15219">
        <ele>713</ele>
        <time>2021-09-10T13:12:43.592Z</time>
      </trkpt>
      <trkpt lat="45.79738" lon="6.15218">
        <ele>714</ele>
        <time>2021-09-10T13:12:44.592Z</time>
      </trkpt>
      <trkpt lat="45.7974" lon="6.15218">
        <ele>714</ele>
        <time>2021-09-10T13:12:45.591Z</time>
      </trkpt>
      <trkpt lat="45.79742" lon="6.15217">
        <ele>714</ele>
        <time>2021-09-10T13:12:46.591Z</time>
      </trkpt>
      <trkpt lat="45.79744" lon="6.15217">
        <ele>714</ele>
        <time>2021-09-10T13:12:47.592Z</time>
      </trkpt>
      <trkpt lat="45.79746" lon="6.15217">
        <ele>714</ele>
        <time>2021-09-10T13:12:48.592Z</time>
      </trkpt>
      <trkpt lat="45.79748" lon="6.15217">
        <ele>714</ele>
        <time>2021-09-10T13:12:49.592Z</time>
      </trkpt>
      <trkpt lat="45.7975" lon="6.15217">
        <ele>714</ele>
        <time>2021-09-10T13:12:50.591Z</time>
      </trkpt>
      <trkpt lat="45.79751" lon="6.15218">
        <ele>714</ele>
        <time>2021-09-10T13:12:51.592Z</time>
      </trkpt>
      <trkpt lat="45.79753" lon="6.15218">
        <ele>715</ele>
        <time>2021-09-10T13:12:52.592Z</time>
      </trkpt>
      <trkpt lat="45.79755" lon="6.15218">
        <ele>715</ele>
        <time>2021-09-10T13:12:53.592Z</time>
      </trkpt>
      <trkpt lat="45.79757" lon="6.15219">
        <ele>715</ele>
        <time>2021-09-10T13:12:54.591Z</time>
      </trkpt>
      <trkpt lat="45.79759" lon="6.1522">
        <ele>715</ele>
        <time>2021-09-10T13:12:55.591Z</time>
      </trkpt>
      <trkpt lat="45.79761" lon="6.15221">
        <ele>715</ele>
        <time>2021-09-10T13:12:56.592Z</time>
      </trkpt>
      <trkpt lat="45.79763" lon="6.15221">
        <ele>715</ele>
        <time>2021-09-10T13:12:57.592Z</time>
      </trkpt>
      <trkpt lat="45.79765" lon="6.15221">
        <ele>716</ele>
        <time>2021-09-10T13:12:58.592Z</time>
      </trkpt>
      <trkpt lat="45.79767" lon="6.15222">
        <ele>716</ele>
        <time>2021-09-10T13:12:59.592Z</time>
      </trkpt>
      <trkpt lat="45.79769" lon="6.15223">
        <ele>716</ele>
        <time>2021-09-10T13:13:00.591Z</time>
      </trkpt>
      <trkpt lat="45.7977" lon="6.15223">
        <ele>716</ele>
        <time>2021-09-10T13:13:01.592Z</time>
      </trkpt>
      <trkpt lat="45.79772" lon="6.15224">
        <ele>717</ele>
        <time>2021-09-10T13:13:02.591Z</time>
      </trkpt>
      <trkpt lat="45.79774" lon="6.15224">
        <ele>717</ele>
        <time>2021-09-10T13:13:03.592Z</time>
      </trkpt>
      <trkpt lat="45.79776" lon="6.15224">
        <ele>717</ele>
        <time>2021-09-10T13:13:04.592Z</time>
      </trkpt>
      <trkpt lat="45.79778" lon="6.15224">
        <ele>717</ele>
        <time>2021-09-10T13:13:05.592Z</time>
      </trkpt>
      <trkpt lat="45.7978" lon="6.15224">
        <ele>717</ele>
        <time>2021-09-10T13:13:06.592Z</time>
      </trkpt>
      <trkpt lat="45.79782" lon="6.15224">
        <ele>717</ele>
        <time>2021-09-10T13:13:07.591Z</time>
      </trkpt>
      <trkpt lat="45.79784" lon="6.15224">
        <ele>717</ele>
        <time>2021-09-10T13:13:08.592Z</time>
      </trkpt>
      <trkpt lat="45.79786" lon="6.15224">
        <ele>718</ele>
        <time>2021-09-10T13:13:09.592Z</time>
      </trkpt>
      <trkpt lat="45.79788" lon="6.15224">
        <ele>718</ele>
        <time>2021-09-10T13:13:10.591Z</time>
      </trkpt>
      <trkpt lat="45.79789" lon="6.15223">
        <ele>718</ele>
        <time>2021-09-10T13:13:11.591Z</time>
      </trkpt>
      <trkpt lat="45.79791" lon="6.15223">
        <ele>718</ele>
        <time>2021-09-10T13:13:12.591Z</time>
      </trkpt>
      <trkpt lat="45.79793" lon="6.15223">
        <ele>718</ele>
        <time>2021-09-10T13:13:13.592Z</time>
      </trkpt>
      <trkpt lat="45.79795" lon="6.15223">
        <ele>719</ele>
        <time>2021-09-10T13:13:14.591Z</time>
      </trkpt>
      <trkpt lat="45.79797" lon="6.15223">
        <ele>719</ele>
        <time>2021-09-10T13:13:15.592Z</time>
      </trkpt>
      <trkpt lat="45.79799" lon="6.15222">
        <ele>720</ele>
        <time>2021-09-10T13:13:16.591Z</time>
      </trkpt>
      <trkpt lat="45.79801" lon="6.15222">
        <ele>721</ele>
        <time>2021-09-10T13:13:17.592Z</time>
      </trkpt>
      <trkpt lat="45.79803" lon="6.15223">
        <ele>721</ele>
        <time>2021-09-10T13:13:18.592Z</time>
      </trkpt>
      <trkpt lat="45.79805" lon="6.15223">
        <ele>721</ele>
        <time>2021-09-10T13:13:19.592Z</time>
      </trkpt>
      <trkpt lat="45.79807" lon="6.15223">
        <ele>721</ele>
        <time>2021-09-10T13:13:20.591Z</time>
      </trkpt>
      <trkpt lat="45.79809" lon="6.15223">
        <ele>721</ele>
        <time>2021-09-10T13:13:21.591Z</time>
      </trkpt>
      <trkpt lat="45.79811" lon="6.15223">
        <ele>722</ele>
        <time>2021-09-10T13:13:22.591Z</time>
      </trkpt>
      <trkpt lat="45.79813" lon="6.15224">
        <ele>722</ele>
        <time>2021-09-10T13:13:23.592Z</time>
      </trkpt>
      <trkpt lat="45.79815" lon="6.15224">
        <ele>722</ele>
        <time>2021-09-10T13:13:24.592Z</time>
      </trkpt>
      <trkpt lat="45.79817" lon="6.15225">
        <ele>723</ele>
        <time>2021-09-10T13:13:25.591Z</time>
      </trkpt>
      <trkpt lat="45.79819" lon="6.15226">
        <ele>723</ele>
        <time>2021-09-10T13:13:26.591Z</time>
      </trkpt>
      <trkpt lat="45.79822" lon="6.15226">
        <ele>723</ele>
        <time>2021-09-10T13:13:27.591Z</time>
      </trkpt>
      <trkpt lat="45.79824" lon="6.15227">
        <ele>723</ele>
        <time>2021-09-10T13:13:28.591Z</time>
      </trkpt>
      <trkpt lat="45.79826" lon="6.15229">
        <ele>723</ele>
        <time>2021-09-10T13:13:29.591Z</time>
      </trkpt>
      <trkpt lat="45.79827" lon="6.1523">
        <ele>723</ele>
        <time>2021-09-10T13:13:30.591Z</time>
      </trkpt>
      <trkpt lat="45.79829" lon="6.15231">
        <ele>723</ele>
        <time>2021-09-10T13:13:31.592Z</time>
      </trkpt>
      <trkpt lat="45.79831" lon="6.15233">
        <ele>724</ele>
        <time>2021-09-10T13:13:32.591Z</time>
      </trkpt>
      <trkpt lat="45.79832" lon="6.15235">
        <ele>724</ele>
        <time>2021-09-10T13:13:33.592Z</time>
      </trkpt>
      <trkpt lat="45.79834" lon="6.15237">
        <ele>724</ele>
        <time>2021-09-10T13:13:34.592Z</time>
      </trkpt>
      <trkpt lat="45.79835" lon="6.15239">
        <ele>724</ele>
        <time>2021-09-10T13:13:35.591Z</time>
      </trkpt>
      <trkpt lat="45.79837" lon="6.15241">
        <ele>724</ele>
        <time>2021-09-10T13:13:36.592Z</time>
      </trkpt>
      <trkpt lat="45.79837" lon="6.15243">
        <ele>724</ele>
        <time>2021-09-10T13:13:37.591Z</time>
      </trkpt>
      <trkpt lat="45.79838" lon="6.15245">
        <ele>723</ele>
        <time>2021-09-10T13:13:38.591Z</time>
      </trkpt>
      <trkpt lat="45.79839" lon="6.15248">
        <ele>723</ele>
        <time>2021-09-10T13:13:39.591Z</time>
      </trkpt>
      <trkpt lat="45.79839" lon="6.1525">
        <ele>723</ele>
        <time>2021-09-10T13:13:40.591Z</time>
      </trkpt>
      <trkpt lat="45.7984" lon="6.15253">
        <ele>723</ele>
        <time>2021-09-10T13:13:41.591Z</time>
      </trkpt>
      <trkpt lat="45.7984" lon="6.15255">
        <ele>722</ele>
        <time>2021-09-10T13:13:42.591Z</time>
      </trkpt>
      <trkpt lat="45.7984" lon="6.15258">
        <ele>722</ele>
        <time>2021-09-10T13:13:43.591Z</time>
      </trkpt>
      <trkpt lat="45.7984" lon="6.15261">
        <ele>722</ele>
        <time>2021-09-10T13:13:44.591Z</time>
      </trkpt>
      <trkpt lat="45.7984" lon="6.15264">
        <ele>722</ele>
        <time>2021-09-10T13:13:45.592Z</time>
      </trkpt>
      <trkpt lat="45.7984" lon="6.15266">
        <ele>722</ele>
        <time>2021-09-10T13:13:46.592Z</time>
      </trkpt>
      <trkpt lat="45.7984" lon="6.15269">
        <ele>722</ele>
        <time>2021-09-10T13:13:47.592Z</time>
      </trkpt>
      <trkpt lat="45.7984" lon="6.15272">
        <ele>722</ele>
        <time>2021-09-10T13:13:48.591Z</time>
      </trkpt>
      <trkpt lat="45.79839" lon="6.15275">
        <ele>722</ele>
        <time>2021-09-10T13:13:49.592Z</time>
      </trkpt>
      <trkpt lat="45.79839" lon="6.15277">
        <ele>722</ele>
        <time>2021-09-10T13:13:50.592Z</time>
      </trkpt>
      <trkpt lat="45.79839" lon="6.1528">
        <ele>722</ele>
        <time>2021-09-10T13:13:51.591Z</time>
      </trkpt>
      <trkpt lat="45.79839" lon="6.15282">
        <ele>723</ele>
        <time>2021-09-10T13:13:52.592Z</time>
      </trkpt>
      <trkpt lat="45.79838" lon="6.15286">
        <ele>723</ele>
        <time>2021-09-10T13:13:53.591Z</time>
      </trkpt>
      <trkpt lat="45.79838" lon="6.15288">
        <ele>724</ele>
        <time>2021-09-10T13:13:54.592Z</time>
      </trkpt>
      <trkpt lat="45.79838" lon="6.15291">
        <ele>724</ele>
        <time>2021-09-10T13:13:55.591Z</time>
      </trkpt>
      <trkpt lat="45.79838" lon="6.15294">
        <ele>725</ele>
        <time>2021-09-10T13:13:56.591Z</time>
      </trkpt>
      <trkpt lat="45.79838" lon="6.15296">
        <ele>725</ele>
        <time>2021-09-10T13:13:57.591Z</time>
      </trkpt>
      <trkpt lat="45.79838" lon="6.15299">
        <ele>726</ele>
        <time>2021-09-10T13:13:58.592Z</time>
      </trkpt>
      <trkpt lat="45.79837" lon="6.15301">
        <ele>726</ele>
        <time>2021-09-10T13:13:59.592Z</time>
      </trkpt>
      <trkpt lat="45.79837" lon="6.15304">
        <ele>726</ele>
        <time>2021-09-10T13:14:00.591Z</time>
      </trkpt>
      <trkpt lat="45.79837" lon="6.15307">
        <ele>726</ele>
        <time>2021-09-10T13:14:01.591Z</time>
      </trkpt>
      <trkpt lat="45.79836" lon="6.1531">
        <ele>727</ele>
        <time>2021-09-10T13:14:02.591Z</time>
      </trkpt>
      <trkpt lat="45.79836" lon="6.15312">
        <ele>727</ele>
        <time>2021-09-10T13:14:03.592Z</time>
      </trkpt>
      <trkpt lat="45.79836" lon="6.15315">
        <ele>727</ele>
        <time>2021-09-10T13:14:04.592Z</time>
      </trkpt>
      <trkpt lat="45.79836" lon="6.15317">
        <ele>726</ele>
        <time>2021-09-10T13:14:05.591Z</time>
      </trkpt>
      <trkpt lat="45.79835" lon="6.1532">
        <ele>726</ele>
        <time>2021-09-10T13:14:06.591Z</time>
      </trkpt>
      <trkpt lat="45.79835" lon="6.15322">
        <ele>726</ele>
        <time>2021-09-10T13:14:07.591Z</time>
      </trkpt>
      <trkpt lat="45.79834" lon="6.15325">
        <ele>726</ele>
        <time>2021-09-10T13:14:08.591Z</time>
      </trkpt>
      <trkpt lat="45.79834" lon="6.15328">
        <ele>727</ele>
        <time>2021-09-10T13:14:09.591Z</time>
      </trkpt>
      <trkpt lat="45.79833" lon="6.1533">
        <ele>727</ele>
        <time>2021-09-10T13:14:10.592Z</time>
      </trkpt>
      <trkpt lat="45.79833" lon="6.15333">
        <ele>728</ele>
        <time>2021-09-10T13:14:11.591Z</time>
      </trkpt>
      <trkpt lat="45.79831" lon="6.15335">
        <ele>728</ele>
        <time>2021-09-10T13:14:12.592Z</time>
      </trkpt>
      <trkpt lat="45.79831" lon="6.15338">
        <ele>728</ele>
        <time>2021-09-10T13:14:13.591Z</time>
      </trkpt>
      <trkpt lat="45.7983" lon="6.1534">
        <ele>728</ele>
        <time>2021-09-10T13:14:14.591Z</time>
      </trkpt>
      <trkpt lat="45.79829" lon="6.15343">
        <ele>727</ele>
        <time>2021-09-10T13:14:15.591Z</time>
      </trkpt>
      <trkpt lat="45.79828" lon="6.15345">
        <ele>727</ele>
        <time>2021-09-10T13:14:16.592Z</time>
      </trkpt>
      <trkpt lat="45.79827" lon="6.15348">
        <ele>728</ele>
        <time>2021-09-10T13:14:17.591Z</time>
      </trkpt>
      <trkpt lat="45.79826" lon="6.1535">
        <ele>728</ele>
        <time>2021-09-10T13:14:18.591Z</time>
      </trkpt>
      <trkpt lat="45.79825" lon="6.15353">
        <ele>728</ele>
        <time>2021-09-10T13:14:19.592Z</time>
      </trkpt>
      <trkpt lat="45.79824" lon="6.15355">
        <ele>728</ele>
        <time>2021-09-10T13:14:20.591Z</time>
      </trkpt>
      <trkpt lat="45.79823" lon="6.15358">
        <ele>728</ele>
        <time>2021-09-10T13:14:21.591Z</time>
      </trkpt>
      <trkpt lat="45.79822" lon="6.1536">
        <ele>728</ele>
        <time>2021-09-10T13:14:22.591Z</time>
      </trkpt>
      <trkpt lat="45.79821" lon="6.15363">
        <ele>729</ele>
        <time>2021-09-10T13:14:23.591Z</time>
      </trkpt>
      <trkpt lat="45.79821" lon="6.15366">
        <ele>729</ele>
        <time>2021-09-10T13:14:24.591Z</time>
      </trkpt>
      <trkpt lat="45.7982" lon="6.15368">
        <ele>729</ele>
        <time>2021-09-10T13:14:25.591Z</time>
      </trkpt>
      <trkpt lat="45.79819" lon="6.15371">
        <ele>729</ele>
        <time>2021-09-10T13:14:26.592Z</time>
      </trkpt>
      <trkpt lat="45.79818" lon="6.15374">
        <ele>730</ele>
        <time>2021-09-10T13:14:27.592Z</time>
      </trkpt>
      <trkpt lat="45.79817" lon="6.15376">
        <ele>731</ele>
        <time>2021-09-10T13:14:28.592Z</time>
      </trkpt>
      <trkpt lat="45.79816" lon="6.15379">
        <ele>731</ele>
        <time>2021-09-10T13:14:29.592Z</time>
      </trkpt>
      <trkpt lat="45.79815" lon="6.15381">
        <ele>732</ele>
        <time>2021-09-10T13:14:30.592Z</time>
      </trkpt>
      <trkpt lat="45.79814" lon="6.15384">
        <ele>732</ele>
        <time>2021-09-10T13:14:31.592Z</time>
      </trkpt>
      <trkpt lat="45.79813" lon="6.15386">
        <ele>732</ele>
        <time>2021-09-10T13:14:32.592Z</time>
      </trkpt>
      <trkpt lat="45.79813" lon="6.15389">
        <ele>733</ele>
        <time>2021-09-10T13:14:33.592Z</time>
      </trkpt>
      <trkpt lat="45.79812" lon="6.15391">
        <ele>733</ele>
        <time>2021-09-10T13:14:34.592Z</time>
      </trkpt>
      <trkpt lat="45.79812" lon="6.15394">
        <ele>733</ele>
        <time>2021-09-10T13:14:35.592Z</time>
      </trkpt>
      <trkpt lat="45.79811" lon="6.15396">
        <ele>733</ele>
        <time>2021-09-10T13:14:36.592Z</time>
      </trkpt>
      <trkpt lat="45.7981" lon="6.15399">
        <ele>733</ele>
        <time>2021-09-10T13:14:37.592Z</time>
      </trkpt>
      <trkpt lat="45.7981" lon="6.15402">
        <ele>733</ele>
        <time>2021-09-10T13:14:38.592Z</time>
      </trkpt>
      <trkpt lat="45.79809" lon="6.15405">
        <ele>733</ele>
        <time>2021-09-10T13:14:39.592Z</time>
      </trkpt>
      <trkpt lat="45.79809" lon="6.15407">
        <ele>733</ele>
        <time>2021-09-10T13:14:40.592Z</time>
      </trkpt>
      <trkpt lat="45.79808" lon="6.1541">
        <ele>733</ele>
        <time>2021-09-10T13:14:41.592Z</time>
      </trkpt>
      <trkpt lat="45.79808" lon="6.15413">
        <ele>733</ele>
        <time>2021-09-10T13:14:42.591Z</time>
      </trkpt>
      <trkpt lat="45.79808" lon="6.15416">
        <ele>733</ele>
        <time>2021-09-10T13:14:43.591Z</time>
      </trkpt>
      <trkpt lat="45.79808" lon="6.15419">
        <ele>733</ele>
        <time>2021-09-10T13:14:44.591Z</time>
      </trkpt>
      <trkpt lat="45.79809" lon="6.15422">
        <ele>734</ele>
        <time>2021-09-10T13:14:45.591Z</time>
      </trkpt>
      <trkpt lat="45.79809" lon="6.15425">
        <ele>735</ele>
        <time>2021-09-10T13:14:46.592Z</time>
      </trkpt>
      <trkpt lat="45.79809" lon="6.15428">
        <ele>735</ele>
        <time>2021-09-10T13:14:47.592Z</time>
      </trkpt>
      <trkpt lat="45.79809" lon="6.15431">
        <ele>736</ele>
        <time>2021-09-10T13:14:48.592Z</time>
      </trkpt>
      <trkpt lat="45.79809" lon="6.15434">
        <ele>736</ele>
        <time>2021-09-10T13:14:49.592Z</time>
      </trkpt>
      <trkpt lat="45.79809" lon="6.15437">
        <ele>737</ele>
        <time>2021-09-10T13:14:50.592Z</time>
      </trkpt>
      <trkpt lat="45.79809" lon="6.15439">
        <ele>737</ele>
        <time>2021-09-10T13:14:51.591Z</time>
      </trkpt>
      <trkpt lat="45.7981" lon="6.15442">
        <ele>737</ele>
        <time>2021-09-10T13:14:52.592Z</time>
      </trkpt>
      <trkpt lat="45.7981" lon="6.15445">
        <ele>738</ele>
        <time>2021-09-10T13:14:53.591Z</time>
      </trkpt>
      <trkpt lat="45.7981" lon="6.15448">
        <ele>738</ele>
        <time>2021-09-10T13:14:54.592Z</time>
      </trkpt>
      <trkpt lat="45.79811" lon="6.1545">
        <ele>738</ele>
        <time>2021-09-10T13:14:55.591Z</time>
      </trkpt>
      <trkpt lat="45.79812" lon="6.15453">
        <ele>738</ele>
        <time>2021-09-10T13:14:56.592Z</time>
      </trkpt>
      <trkpt lat="45.79812" lon="6.15455">
        <ele>738</ele>
        <time>2021-09-10T13:14:57.592Z</time>
      </trkpt>
      <trkpt lat="45.79813" lon="6.15458">
        <ele>738</ele>
        <time>2021-09-10T13:14:58.591Z</time>
      </trkpt>
      <trkpt lat="45.79814" lon="6.15461">
        <ele>738</ele>
        <time>2021-09-10T13:14:59.592Z</time>
      </trkpt>
      <trkpt lat="45.79815" lon="6.15464">
        <ele>739</ele>
        <time>2021-09-10T13:15:00.591Z</time>
      </trkpt>
      <trkpt lat="45.79815" lon="6.15466">
        <ele>739</ele>
        <time>2021-09-10T13:15:01.592Z</time>
      </trkpt>
      <trkpt lat="45.79816" lon="6.15469">
        <ele>740</ele>
        <time>2021-09-10T13:15:02.591Z</time>
      </trkpt>
      <trkpt lat="45.79816" lon="6.15472">
        <ele>740</ele>
        <time>2021-09-10T13:15:03.592Z</time>
      </trkpt>
      <trkpt lat="45.79817" lon="6.15475">
        <ele>740</ele>
        <time>2021-09-10T13:15:04.592Z</time>
      </trkpt>
      <trkpt lat="45.79817" lon="6.15477">
        <ele>741</ele>
        <time>2021-09-10T13:15:05.592Z</time>
      </trkpt>
      <trkpt lat="45.79818" lon="6.1548">
        <ele>741</ele>
        <time>2021-09-10T13:15:06.591Z</time>
      </trkpt>
      <trkpt lat="45.79818" lon="6.15483">
        <ele>741</ele>
        <time>2021-09-10T13:15:07.592Z</time>
      </trkpt>
      <trkpt lat="45.79819" lon="6.15485">
        <ele>742</ele>
        <time>2021-09-10T13:15:08.592Z</time>
      </trkpt>
      <trkpt lat="45.7982" lon="6.15488">
        <ele>742</ele>
        <time>2021-09-10T13:15:09.592Z</time>
      </trkpt>
      <trkpt lat="45.7982" lon="6.15491">
        <ele>742</ele>
        <time>2021-09-10T13:15:10.592Z</time>
      </trkpt>
      <trkpt lat="45.7982" lon="6.15494">
        <ele>742</ele>
        <time>2021-09-10T13:15:11.592Z</time>
      </trkpt>
      <trkpt lat="45.79821" lon="6.15497">
        <ele>742</ele>
        <time>2021-09-10T13:15:12.591Z</time>
      </trkpt>
      <trkpt lat="45.79821" lon="6.155">
        <ele>741</ele>
        <time>2021-09-10T13:15:13.591Z</time>
      </trkpt>
      <trkpt lat="45.79821" lon="6.15502">
        <ele>741</ele>
        <time>2021-09-10T13:15:14.592Z</time>
      </trkpt>
      <trkpt lat="45.79822" lon="6.15505">
        <ele>740</ele>
        <time>2021-09-10T13:15:15.592Z</time>
      </trkpt>
      <trkpt lat="45.79822" lon="6.15508">
        <ele>740</ele>
        <time>2021-09-10T13:15:16.592Z</time>
      </trkpt>
      <trkpt lat="45.79822" lon="6.15511">
        <ele>740</ele>
        <time>2021-09-10T13:15:17.592Z</time>
      </trkpt>
      <trkpt lat="45.79822" lon="6.15514">
        <ele>740</ele>
        <time>2021-09-10T13:15:18.592Z</time>
      </trkpt>
      <trkpt lat="45.79822" lon="6.15517">
        <ele>741</ele>
        <time>2021-09-10T13:15:19.592Z</time>
      </trkpt>
      <trkpt lat="45.79822" lon="6.15519">
        <ele>741</ele>
        <time>2021-09-10T13:15:20.592Z</time>
      </trkpt>
      <trkpt lat="45.79821" lon="6.15522">
        <ele>741</ele>
        <time>2021-09-10T13:15:21.591Z</time>
      </trkpt>
      <trkpt lat="45.79821" lon="6.15525">
        <ele>742</ele>
        <time>2021-09-10T13:15:22.591Z</time>
      </trkpt>
      <trkpt lat="45.79821" lon="6.15528">
        <ele>742</ele>
        <time>2021-09-10T13:15:23.592Z</time>
      </trkpt>
      <trkpt lat="45.79821" lon="6.1553">
        <ele>742</ele>
        <time>2021-09-10T13:15:24.592Z</time>
      </trkpt>
      <trkpt lat="45.79821" lon="6.15533">
        <ele>742</ele>
        <time>2021-09-10T13:15:25.592Z</time>
      </trkpt>
      <trkpt lat="45.7982" lon="6.15535">
        <ele>742</ele>
        <time>2021-09-10T13:15:26.592Z</time>
      </trkpt>
      <trkpt lat="45.7982" lon="6.15538">
        <ele>743</ele>
        <time>2021-09-10T13:15:27.592Z</time>
      </trkpt>
      <trkpt lat="45.7982" lon="6.15541">
        <ele>742</ele>
        <time>2021-09-10T13:15:28.592Z</time>
      </trkpt>
      <trkpt lat="45.7982" lon="6.15544">
        <ele>742</ele>
        <time>2021-09-10T13:15:29.591Z</time>
      </trkpt>
      <trkpt lat="45.7982" lon="6.15547">
        <ele>742</ele>
        <time>2021-09-10T13:15:30.592Z</time>
      </trkpt>
      <trkpt lat="45.7982" lon="6.1555">
        <ele>742</ele>
        <time>2021-09-10T13:15:31.591Z</time>
      </trkpt>
      <trkpt lat="45.7982" lon="6.15553">
        <ele>742</ele>
        <time>2021-09-10T13:15:32.591Z</time>
      </trkpt>
      <trkpt lat="45.79821" lon="6.15555">
        <ele>741</ele>
        <time>2021-09-10T13:15:33.591Z</time>
      </trkpt>
      <trkpt lat="45.79821" lon="6.15557">
        <ele>741</ele>
        <time>2021-09-10T13:15:34.592Z</time>
      </trkpt>
      <trkpt lat="45.79822" lon="6.15558">
        <ele>741</ele>
        <time>2021-09-10T13:15:35.591Z</time>
      </trkpt>
      <trkpt lat="45.79823" lon="6.1556">
        <ele>741</ele>
        <time>2021-09-10T13:15:36.592Z</time>
      </trkpt>
      <trkpt lat="45.79823" lon="6.15563">
        <ele>741</ele>
        <time>2021-09-10T13:15:37.592Z</time>
      </trkpt>
      <trkpt lat="45.79824" lon="6.15565">
        <ele>741</ele>
        <time>2021-09-10T13:15:38.592Z</time>
      </trkpt>
      <trkpt lat="45.79825" lon="6.15567">
        <ele>742</ele>
        <time>2021-09-10T13:15:39.592Z</time>
      </trkpt>
      <trkpt lat="45.79826" lon="6.15569">
        <ele>742</ele>
        <time>2021-09-10T13:15:40.592Z</time>
      </trkpt>
      <trkpt lat="45.79827" lon="6.15571">
        <ele>743</ele>
        <time>2021-09-10T13:15:41.592Z</time>
      </trkpt>
      <trkpt lat="45.79828" lon="6.15573">
        <ele>743</ele>
        <time>2021-09-10T13:15:42.592Z</time>
      </trkpt>
      <trkpt lat="45.79829" lon="6.15575">
        <ele>744</ele>
        <time>2021-09-10T13:15:43.592Z</time>
      </trkpt>
      <trkpt lat="45.7983" lon="6.15577">
        <ele>744</ele>
        <time>2021-09-10T13:15:44.592Z</time>
      </trkpt>
      <trkpt lat="45.79832" lon="6.15578">
        <ele>744</ele>
        <time>2021-09-10T13:15:45.592Z</time>
      </trkpt>
      <trkpt lat="45.79833" lon="6.1558">
        <ele>744</ele>
        <time>2021-09-10T13:15:46.592Z</time>
      </trkpt>
      <trkpt lat="45.79835" lon="6.15582">
        <ele>744</ele>
        <time>2021-09-10T13:15:47.592Z</time>
      </trkpt>
      <trkpt lat="45.79836" lon="6.15583">
        <ele>744</ele>
        <time>2021-09-10T13:15:48.592Z</time>
      </trkpt>
      <trkpt lat="45.79838" lon="6.15585">
        <ele>745</ele>
        <time>2021-09-10T13:15:49.592Z</time>
      </trkpt>
      <trkpt lat="45.79839" lon="6.15586">
        <ele>745</ele>
        <time>2021-09-10T13:15:50.592Z</time>
      </trkpt>
      <trkpt lat="45.79841" lon="6.15588">
        <ele>745</ele>
        <time>2021-09-10T13:15:51.592Z</time>
      </trkpt>
      <trkpt lat="45.79842" lon="6.15589">
        <ele>745</ele>
        <time>2021-09-10T13:15:52.592Z</time>
      </trkpt>
      <trkpt lat="45.79844" lon="6.1559">
        <ele>746</ele>
        <time>2021-09-10T13:15:53.592Z</time>
      </trkpt>
      <trkpt lat="45.79846" lon="6.15591">
        <ele>746</ele>
        <time>2021-09-10T13:15:54.592Z</time>
      </trkpt>
      <trkpt lat="45.79847" lon="6.15592">
        <ele>747</ele>
        <time>2021-09-10T13:15:55.592Z</time>
      </trkpt>
      <trkpt lat="45.79848" lon="6.15593">
        <ele>747</ele>
        <time>2021-09-10T13:15:56.592Z</time>
      </trkpt>
      <trkpt lat="45.79849" lon="6.15595">
        <ele>748</ele>
        <time>2021-09-10T13:15:57.592Z</time>
      </trkpt>
      <trkpt lat="45.7985" lon="6.15597">
        <ele>748</ele>
        <time>2021-09-10T13:15:58.592Z</time>
      </trkpt>
      <trkpt lat="45.79851" lon="6.15599">
        <ele>749</ele>
        <time>2021-09-10T13:15:59.591Z</time>
      </trkpt>
      <trkpt lat="45.79852" lon="6.15601">
        <ele>750</ele>
        <time>2021-09-10T13:16:00.592Z</time>
      </trkpt>
      <trkpt lat="45.79853" lon="6.15604">
        <ele>750</ele>
        <time>2021-09-10T13:16:01.592Z</time>
      </trkpt>
      <trkpt lat="45.79854" lon="6.15606">
        <ele>750</ele>
        <time>2021-09-10T13:16:02.592Z</time>
      </trkpt>
      <trkpt lat="45.79855" lon="6.15608">
        <ele>750</ele>
        <time>2021-09-10T13:16:03.592Z</time>
      </trkpt>
      <trkpt lat="45.79856" lon="6.1561">
        <ele>750</ele>
        <time>2021-09-10T13:16:04.592Z</time>
      </trkpt>
      <trkpt lat="45.79857" lon="6.15613">
        <ele>750</ele>
        <time>2021-09-10T13:16:05.592Z</time>
      </trkpt>
      <trkpt lat="45.79858" lon="6.15615">
        <ele>750</ele>
        <time>2021-09-10T13:16:06.591Z</time>
      </trkpt>
      <trkpt lat="45.7986" lon="6.15617">
        <ele>750</ele>
        <time>2021-09-10T13:16:07.591Z</time>
      </trkpt>
      <trkpt lat="45.79861" lon="6.1562">
        <ele>750</ele>
        <time>2021-09-10T13:16:08.591Z</time>
      </trkpt>
      <trkpt lat="45.79861" lon="6.15622">
        <ele>750</ele>
        <time>2021-09-10T13:16:09.591Z</time>
      </trkpt>
      <trkpt lat="45.79862" lon="6.15624">
        <ele>750</ele>
        <time>2021-09-10T13:16:10.592Z</time>
      </trkpt>
      <trkpt lat="45.79863" lon="6.15626">
        <ele>750</ele>
        <time>2021-09-10T13:16:11.592Z</time>
      </trkpt>
      <trkpt lat="45.79864" lon="6.15628">
        <ele>750</ele>
        <time>2021-09-10T13:16:12.591Z</time>
      </trkpt>
      <trkpt lat="45.79865" lon="6.1563">
        <ele>751</ele>
        <time>2021-09-10T13:16:13.592Z</time>
      </trkpt>
      <trkpt lat="45.79866" lon="6.15632">
        <ele>751</ele>
        <time>2021-09-10T13:16:14.592Z</time>
      </trkpt>
      <trkpt lat="45.79867" lon="6.15634">
        <ele>752</ele>
        <time>2021-09-10T13:16:15.592Z</time>
      </trkpt>
      <trkpt lat="45.79868" lon="6.15637">
        <ele>752</ele>
        <time>2021-09-10T13:16:16.592Z</time>
      </trkpt>
      <trkpt lat="45.79869" lon="6.15639">
        <ele>752</ele>
        <time>2021-09-10T13:16:17.591Z</time>
      </trkpt>
      <trkpt lat="45.7987" lon="6.15641">
        <ele>752</ele>
        <time>2021-09-10T13:16:18.592Z</time>
      </trkpt>
      <trkpt lat="45.79871" lon="6.15644">
        <ele>753</ele>
        <time>2021-09-10T13:16:19.592Z</time>
      </trkpt>
      <trkpt lat="45.79871" lon="6.15646">
        <ele>754</ele>
        <time>2021-09-10T13:16:20.591Z</time>
      </trkpt>
      <trkpt lat="45.79872" lon="6.15649">
        <ele>754</ele>
        <time>2021-09-10T13:16:21.592Z</time>
      </trkpt>
      <trkpt lat="45.79873" lon="6.15651">
        <ele>755</ele>
        <time>2021-09-10T13:16:22.592Z</time>
      </trkpt>
      <trkpt lat="45.79874" lon="6.15653">
        <ele>755</ele>
        <time>2021-09-10T13:16:23.592Z</time>
      </trkpt>
      <trkpt lat="45.79876" lon="6.15656">
        <ele>755</ele>
        <time>2021-09-10T13:16:24.592Z</time>
      </trkpt>
      <trkpt lat="45.79877" lon="6.15658">
        <ele>756</ele>
        <time>2021-09-10T13:16:25.592Z</time>
      </trkpt>
      <trkpt lat="45.79878" lon="6.1566">
        <ele>756</ele>
        <time>2021-09-10T13:16:26.592Z</time>
      </trkpt>
      <trkpt lat="45.79879" lon="6.15662">
        <ele>756</ele>
        <time>2021-09-10T13:16:27.592Z</time>
      </trkpt>
      <trkpt lat="45.79881" lon="6.15664">
        <ele>756</ele>
        <time>2021-09-10T13:16:28.591Z</time>
      </trkpt>
      <trkpt lat="45.79882" lon="6.15666">
        <ele>757</ele>
        <time>2021-09-10T13:16:29.592Z</time>
      </trkpt>
      <trkpt lat="45.79883" lon="6.15668">
        <ele>757</ele>
        <time>2021-09-10T13:16:30.592Z</time>
      </trkpt>
      <trkpt lat="45.79884" lon="6.1567">
        <ele>757</ele>
        <time>2021-09-10T13:16:31.592Z</time>
      </trkpt>
      <trkpt lat="45.79885" lon="6.15673">
        <ele>758</ele>
        <time>2021-09-10T13:16:32.592Z</time>
      </trkpt>
      <trkpt lat="45.79887" lon="6.15675">
        <ele>757</ele>
        <time>2021-09-10T13:16:33.592Z</time>
      </trkpt>
      <trkpt lat="45.79888" lon="6.15678">
        <ele>757</ele>
        <time>2021-09-10T13:16:34.592Z</time>
      </trkpt>
      <trkpt lat="45.79889" lon="6.15681">
        <ele>757</ele>
        <time>2021-09-10T13:16:35.591Z</time>
      </trkpt>
      <trkpt lat="45.7989" lon="6.15683">
        <ele>758</ele>
        <time>2021-09-10T13:16:36.592Z</time>
      </trkpt>
      <trkpt lat="45.79891" lon="6.15685">
        <ele>758</ele>
        <time>2021-09-10T13:16:37.591Z</time>
      </trkpt>
      <trkpt lat="45.79891" lon="6.15688">
        <ele>758</ele>
        <time>2021-09-10T13:16:38.592Z</time>
      </trkpt>
      <trkpt lat="45.79893" lon="6.1569">
        <ele>758</ele>
        <time>2021-09-10T13:16:39.592Z</time>
      </trkpt>
      <trkpt lat="45.79894" lon="6.15693">
        <ele>758</ele>
        <time>2021-09-10T13:16:40.592Z</time>
      </trkpt>
      <trkpt lat="45.79895" lon="6.15695">
        <ele>758</ele>
        <time>2021-09-10T13:16:41.592Z</time>
      </trkpt>
      <trkpt lat="45.79896" lon="6.15698">
        <ele>758</ele>
        <time>2021-09-10T13:16:42.592Z</time>
      </trkpt>
      <trkpt lat="45.79896" lon="6.157">
        <ele>758</ele>
        <time>2021-09-10T13:16:43.592Z</time>
      </trkpt>
      <trkpt lat="45.79897" lon="6.15703">
        <ele>757</ele>
        <time>2021-09-10T13:16:44.592Z</time>
      </trkpt>
      <trkpt lat="45.79899" lon="6.15705">
        <ele>757</ele>
        <time>2021-09-10T13:16:45.592Z</time>
      </trkpt>
      <trkpt lat="45.799" lon="6.15708">
        <ele>757</ele>
        <time>2021-09-10T13:16:46.592Z</time>
      </trkpt>
      <trkpt lat="45.79901" lon="6.1571">
        <ele>757</ele>
        <time>2021-09-10T13:16:47.592Z</time>
      </trkpt>
      <trkpt lat="45.79902" lon="6.15713">
        <ele>757</ele>
        <time>2021-09-10T13:16:48.591Z</time>
      </trkpt>
      <trkpt lat="45.79903" lon="6.15716">
        <ele>756</ele>
        <time>2021-09-10T13:16:49.592Z</time>
      </trkpt>
      <trkpt lat="45.79903" lon="6.15718">
        <ele>756</ele>
        <time>2021-09-10T13:16:50.592Z</time>
      </trkpt>
      <trkpt lat="45.79904" lon="6.15721">
        <ele>757</ele>
        <time>2021-09-10T13:16:51.592Z</time>
      </trkpt>
      <trkpt lat="45.79905" lon="6.15724">
        <ele>757</ele>
        <time>2021-09-10T13:16:52.592Z</time>
      </trkpt>
      <trkpt lat="45.79906" lon="6.15726">
        <ele>756</ele>
        <time>2021-09-10T13:16:53.592Z</time>
      </trkpt>
      <trkpt lat="45.79907" lon="6.15729">
        <ele>756</ele>
        <time>2021-09-10T13:16:54.591Z</time>
      </trkpt>
      <trkpt lat="45.79908" lon="6.15731">
        <ele>756</ele>
        <time>2021-09-10T13:16:55.592Z</time>
      </trkpt>
      <trkpt lat="45.79908" lon="6.15734">
        <ele>756</ele>
        <time>2021-09-10T13:16:56.592Z</time>
      </trkpt>
      <trkpt lat="45.79909" lon="6.15736">
        <ele>756</ele>
        <time>2021-09-10T13:16:57.591Z</time>
      </trkpt>
      <trkpt lat="45.7991" lon="6.15738">
        <ele>756</ele>
        <time>2021-09-10T13:16:58.591Z</time>
      </trkpt>
      <trkpt lat="45.79911" lon="6.15741">
        <ele>756</ele>
        <time>2021-09-10T13:16:59.592Z</time>
      </trkpt>
      <trkpt lat="45.79912" lon="6.15744">
        <ele>756</ele>
        <time>2021-09-10T13:17:00.592Z</time>
      </trkpt>
      <trkpt lat="45.79913" lon="6.15746">
        <ele>756</ele>
        <time>2021-09-10T13:17:01.592Z</time>
      </trkpt>
      <trkpt lat="45.79914" lon="6.15749">
        <ele>755</ele>
        <time>2021-09-10T13:17:02.592Z</time>
      </trkpt>
      <trkpt lat="45.79915" lon="6.15751">
        <ele>755</ele>
        <time>2021-09-10T13:17:03.591Z</time>
      </trkpt>
      <trkpt lat="45.79916" lon="6.15754">
        <ele>755</ele>
        <time>2021-09-10T13:17:04.592Z</time>
      </trkpt>
      <trkpt lat="45.79917" lon="6.15756">
        <ele>755</ele>
        <time>2021-09-10T13:17:05.592Z</time>
      </trkpt>
      <trkpt lat="45.79919" lon="6.15758">
        <ele>755</ele>
        <time>2021-09-10T13:17:06.592Z</time>
      </trkpt>
      <trkpt lat="45.7992" lon="6.15761">
        <ele>755</ele>
        <time>2021-09-10T13:17:07.591Z</time>
      </trkpt>
      <trkpt lat="45.79921" lon="6.15763">
        <ele>755</ele>
        <time>2021-09-10T13:17:08.592Z</time>
      </trkpt>
      <trkpt lat="45.79923" lon="6.15766">
        <ele>755</ele>
        <time>2021-09-10T13:17:09.592Z</time>
      </trkpt>
      <trkpt lat="45.79924" lon="6.15769">
        <ele>755</ele>
        <time>2021-09-10T13:17:10.592Z</time>
      </trkpt>
      <trkpt lat="45.79926" lon="6.15772">
        <ele>755</ele>
        <time>2021-09-10T13:17:11.591Z</time>
      </trkpt>
      <trkpt lat="45.79928" lon="6.15774">
        <ele>755</ele>
        <time>2021-09-10T13:17:12.592Z</time>
      </trkpt>
      <trkpt lat="45.7993" lon="6.15777">
        <ele>755</ele>
        <time>2021-09-10T13:17:13.592Z</time>
      </trkpt>
      <trkpt lat="45.79932" lon="6.15781">
        <ele>755</ele>
        <time>2021-09-10T13:17:14.592Z</time>
      </trkpt>
      <trkpt lat="45.79934" lon="6.15784">
        <ele>755</ele>
        <time>2021-09-10T13:17:15.592Z</time>
      </trkpt>
      <trkpt lat="45.79936" lon="6.15787">
        <ele>755</ele>
        <time>2021-09-10T13:17:16.592Z</time>
      </trkpt>
      <trkpt lat="45.79939" lon="6.1579">
        <ele>755</ele>
        <time>2021-09-10T13:17:17.592Z</time>
      </trkpt>
      <trkpt lat="45.79941" lon="6.15794">
        <ele>755</ele>
        <time>2021-09-10T13:17:18.592Z</time>
      </trkpt>
      <trkpt lat="45.79944" lon="6.15797">
        <ele>756</ele>
        <time>2021-09-10T13:17:19.591Z</time>
      </trkpt>
      <trkpt lat="45.79947" lon="6.158">
        <ele>756</ele>
        <time>2021-09-10T13:17:20.592Z</time>
      </trkpt>
      <trkpt lat="45.7995" lon="6.15803">
        <ele>756</ele>
        <time>2021-09-10T13:17:21.592Z</time>
      </trkpt>
      <trkpt lat="45.79953" lon="6.15806">
        <ele>756</ele>
        <time>2021-09-10T13:17:22.591Z</time>
      </trkpt>
      <trkpt lat="45.79955" lon="6.1581">
        <ele>756</ele>
        <time>2021-09-10T13:17:23.592Z</time>
      </trkpt>
      <trkpt lat="45.79958" lon="6.15814">
        <ele>756</ele>
        <time>2021-09-10T13:17:24.592Z</time>
      </trkpt>
      <trkpt lat="45.7996" lon="6.15816">
        <ele>756</ele>
        <time>2021-09-10T13:17:25.592Z</time>
      </trkpt>
      <trkpt lat="45.79961" lon="6.15818">
        <ele>756</ele>
        <time>2021-09-10T13:17:26.592Z</time>
      </trkpt>
      <trkpt lat="45.79963" lon="6.15819">
        <ele>755</ele>
        <time>2021-09-10T13:17:27.591Z</time>
      </trkpt>
      <trkpt lat="45.79964" lon="6.1582">
        <ele>755</ele>
        <time>2021-09-10T13:17:28.592Z</time>
      </trkpt>
      <trkpt lat="45.79964" lon="6.1582">
        <ele>754</ele>
        <time>2021-09-10T13:17:29.592Z</time>
      </trkpt>
      <trkpt lat="45.79963" lon="6.1582">
        <ele>754</ele>
        <time>2021-09-10T13:17:30.592Z</time>
      </trkpt>
      <trkpt lat="45.79963" lon="6.15819">
        <ele>754</ele>
        <time>2021-09-10T13:17:31.591Z</time>
      </trkpt>
      <trkpt lat="45.79966" lon="6.1582">
        <ele>751</ele>
        <time>2021-09-10T13:17:32.591Z</time>
      </trkpt>
      <trkpt lat="45.79969" lon="6.15822">
        <ele>751</ele>
        <time>2021-09-10T13:17:33.591Z</time>
      </trkpt>
      <trkpt lat="45.79971" lon="6.15824">
        <ele>751</ele>
        <time>2021-09-10T13:17:34.592Z</time>
      </trkpt>
      <trkpt lat="45.79973" lon="6.15826">
        <ele>751</ele>
        <time>2021-09-10T13:17:35.592Z</time>
      </trkpt>
      <trkpt lat="45.79976" lon="6.15827">
        <ele>751</ele>
        <time>2021-09-10T13:17:36.591Z</time>
      </trkpt>
      <trkpt lat="45.79979" lon="6.15828">
        <ele>751</ele>
        <time>2021-09-10T13:17:37.591Z</time>
      </trkpt>
      <trkpt lat="45.79981" lon="6.15829">
        <ele>751</ele>
        <time>2021-09-10T13:17:38.591Z</time>
      </trkpt>
      <trkpt lat="45.79983" lon="6.1583">
        <ele>751</ele>
        <time>2021-09-10T13:17:39.591Z</time>
      </trkpt>
      <trkpt lat="45.79985" lon="6.15831">
        <ele>751</ele>
        <time>2021-09-10T13:17:40.591Z</time>
      </trkpt>
      <trkpt lat="45.79987" lon="6.15832">
        <ele>751</ele>
        <time>2021-09-10T13:17:41.591Z</time>
      </trkpt>
      <trkpt lat="45.79989" lon="6.15832">
        <ele>752</ele>
        <time>2021-09-10T13:17:42.591Z</time>
      </trkpt>
      <trkpt lat="45.79991" lon="6.15833">
        <ele>753</ele>
        <time>2021-09-10T13:17:43.591Z</time>
      </trkpt>
      <trkpt lat="45.79993" lon="6.15834">
        <ele>754</ele>
        <time>2021-09-10T13:17:44.592Z</time>
      </trkpt>
      <trkpt lat="45.79995" lon="6.15835">
        <ele>754</ele>
        <time>2021-09-10T13:17:45.591Z</time>
      </trkpt>
      <trkpt lat="45.79997" lon="6.15835">
        <ele>754</ele>
        <time>2021-09-10T13:17:46.591Z</time>
      </trkpt>
      <trkpt lat="45.8" lon="6.15835">
        <ele>754</ele>
        <time>2021-09-10T13:17:47.591Z</time>
      </trkpt>
      <trkpt lat="45.80002" lon="6.15835">
        <ele>754</ele>
        <time>2021-09-10T13:17:48.592Z</time>
      </trkpt>
      <trkpt lat="45.80003" lon="6.15835">
        <ele>755</ele>
        <time>2021-09-10T13:17:49.591Z</time>
      </trkpt>
      <trkpt lat="45.80005" lon="6.15834">
        <ele>755</ele>
        <time>2021-09-10T13:17:50.591Z</time>
      </trkpt>
      <trkpt lat="45.80007" lon="6.15832">
        <ele>755</ele>
        <time>2021-09-10T13:17:51.592Z</time>
      </trkpt>
      <trkpt lat="45.80009" lon="6.15831">
        <ele>756</ele>
        <time>2021-09-10T13:17:52.591Z</time>
      </trkpt>
      <trkpt lat="45.8001" lon="6.15829">
        <ele>756</ele>
        <time>2021-09-10T13:17:53.592Z</time>
      </trkpt>
      <trkpt lat="45.80012" lon="6.15827">
        <ele>756</ele>
        <time>2021-09-10T13:17:54.591Z</time>
      </trkpt>
      <trkpt lat="45.80013" lon="6.15826">
        <ele>757</ele>
        <time>2021-09-10T13:17:55.591Z</time>
      </trkpt>
      <trkpt lat="45.80015" lon="6.15824">
        <ele>757</ele>
        <time>2021-09-10T13:17:56.591Z</time>
      </trkpt>
      <trkpt lat="45.80016" lon="6.15821">
        <ele>757</ele>
        <time>2021-09-10T13:17:57.591Z</time>
      </trkpt>
      <trkpt lat="45.80017" lon="6.15819">
        <ele>757</ele>
        <time>2021-09-10T13:17:58.591Z</time>
      </trkpt>
      <trkpt lat="45.80018" lon="6.15816">
        <ele>757</ele>
        <time>2021-09-10T13:17:59.591Z</time>
      </trkpt>
      <trkpt lat="45.80019" lon="6.15813">
        <ele>757</ele>
        <time>2021-09-10T13:18:00.591Z</time>
      </trkpt>
      <trkpt lat="45.80021" lon="6.15811">
        <ele>758</ele>
        <time>2021-09-10T13:18:01.591Z</time>
      </trkpt>
      <trkpt lat="45.80022" lon="6.15808">
        <ele>758</ele>
        <time>2021-09-10T13:18:02.591Z</time>
      </trkpt>
      <trkpt lat="45.80023" lon="6.15805">
        <ele>758</ele>
        <time>2021-09-10T13:18:03.591Z</time>
      </trkpt>
      <trkpt lat="45.80024" lon="6.15802">
        <ele>758</ele>
        <time>2021-09-10T13:18:04.591Z</time>
      </trkpt>
      <trkpt lat="45.80025" lon="6.15799">
        <ele>758</ele>
        <time>2021-09-10T13:18:05.591Z</time>
      </trkpt>
      <trkpt lat="45.80026" lon="6.15796">
        <ele>758</ele>
        <time>2021-09-10T13:18:06.591Z</time>
      </trkpt>
      <trkpt lat="45.80027" lon="6.15793">
        <ele>758</ele>
        <time>2021-09-10T13:18:07.591Z</time>
      </trkpt>
      <trkpt lat="45.80028" lon="6.15791">
        <ele>758</ele>
        <time>2021-09-10T13:18:08.591Z</time>
      </trkpt>
      <trkpt lat="45.80028" lon="6.15788">
        <ele>758</ele>
        <time>2021-09-10T13:18:09.591Z</time>
      </trkpt>
      <trkpt lat="45.80029" lon="6.15786">
        <ele>759</ele>
        <time>2021-09-10T13:18:10.591Z</time>
      </trkpt>
      <trkpt lat="45.8003" lon="6.15784">
        <ele>759</ele>
        <time>2021-09-10T13:18:11.591Z</time>
      </trkpt>
      <trkpt lat="45.80031" lon="6.15782">
        <ele>759</ele>
        <time>2021-09-10T13:18:12.591Z</time>
      </trkpt>
      <trkpt lat="45.80032" lon="6.15779">
        <ele>759</ele>
        <time>2021-09-10T13:18:13.591Z</time>
      </trkpt>
      <trkpt lat="45.80033" lon="6.15776">
        <ele>759</ele>
        <time>2021-09-10T13:18:14.591Z</time>
      </trkpt>
      <trkpt lat="45.80035" lon="6.15774">
        <ele>759</ele>
        <time>2021-09-10T13:18:15.591Z</time>
      </trkpt>
      <trkpt lat="45.80036" lon="6.15771">
        <ele>759</ele>
        <time>2021-09-10T13:18:16.592Z</time>
      </trkpt>
      <trkpt lat="45.80037" lon="6.15769">
        <ele>759</ele>
        <time>2021-09-10T13:18:17.592Z</time>
      </trkpt>
      <trkpt lat="45.80038" lon="6.15766">
        <ele>759</ele>
        <time>2021-09-10T13:18:18.591Z</time>
      </trkpt>
      <trkpt lat="45.8004" lon="6.15764">
        <ele>760</ele>
        <time>2021-09-10T13:18:19.591Z</time>
      </trkpt>
      <trkpt lat="45.80041" lon="6.15763">
        <ele>760</ele>
        <time>2021-09-10T13:18:20.591Z</time>
      </trkpt>
      <trkpt lat="45.80042" lon="6.15761">
        <ele>760</ele>
        <time>2021-09-10T13:18:21.591Z</time>
      </trkpt>
      <trkpt lat="45.80044" lon="6.1576">
        <ele>760</ele>
        <time>2021-09-10T13:18:22.591Z</time>
      </trkpt>
      <trkpt lat="45.80045" lon="6.15758">
        <ele>760</ele>
        <time>2021-09-10T13:18:23.591Z</time>
      </trkpt>
      <trkpt lat="45.80047" lon="6.15757">
        <ele>761</ele>
        <time>2021-09-10T13:18:24.591Z</time>
      </trkpt>
      <trkpt lat="45.80048" lon="6.15755">
        <ele>761</ele>
        <time>2021-09-10T13:18:25.591Z</time>
      </trkpt>
      <trkpt lat="45.8005" lon="6.15754">
        <ele>761</ele>
        <time>2021-09-10T13:18:26.592Z</time>
      </trkpt>
      <trkpt lat="45.80051" lon="6.15753">
        <ele>761</ele>
        <time>2021-09-10T13:18:27.591Z</time>
      </trkpt>
      <trkpt lat="45.80053" lon="6.15752">
        <ele>761</ele>
        <time>2021-09-10T13:18:28.591Z</time>
      </trkpt>
      <trkpt lat="45.80055" lon="6.15752">
        <ele>761</ele>
        <time>2021-09-10T13:18:29.592Z</time>
      </trkpt>
      <trkpt lat="45.80057" lon="6.15752">
        <ele>761</ele>
        <time>2021-09-10T13:18:30.592Z</time>
      </trkpt>
      <trkpt lat="45.80058" lon="6.15751">
        <ele>761</ele>
        <time>2021-09-10T13:18:31.592Z</time>
      </trkpt>
      <trkpt lat="45.8006" lon="6.15751">
        <ele>760</ele>
        <time>2021-09-10T13:18:32.591Z</time>
      </trkpt>
      <trkpt lat="45.80062" lon="6.15751">
        <ele>760</ele>
        <time>2021-09-10T13:18:33.591Z</time>
      </trkpt>
      <trkpt lat="45.80064" lon="6.15751">
        <ele>760</ele>
        <time>2021-09-10T13:18:34.592Z</time>
      </trkpt>
      <trkpt lat="45.80065" lon="6.15751">
        <ele>761</ele>
        <time>2021-09-10T13:18:35.591Z</time>
      </trkpt>
      <trkpt lat="45.80067" lon="6.15751">
        <ele>761</ele>
        <time>2021-09-10T13:18:36.591Z</time>
      </trkpt>
      <trkpt lat="45.80069" lon="6.15751">
        <ele>761</ele>
        <time>2021-09-10T13:18:37.592Z</time>
      </trkpt>
      <trkpt lat="45.80071" lon="6.15751">
        <ele>761</ele>
        <time>2021-09-10T13:18:38.591Z</time>
      </trkpt>
      <trkpt lat="45.80073" lon="6.15751">
        <ele>761</ele>
        <time>2021-09-10T13:18:39.591Z</time>
      </trkpt>
      <trkpt lat="45.80074" lon="6.15751">
        <ele>761</ele>
        <time>2021-09-10T13:18:40.591Z</time>
      </trkpt>
      <trkpt lat="45.80076" lon="6.15752">
        <ele>762</ele>
        <time>2021-09-10T13:18:41.591Z</time>
      </trkpt>
      <trkpt lat="45.80078" lon="6.15752">
        <ele>762</ele>
        <time>2021-09-10T13:18:42.592Z</time>
      </trkpt>
      <trkpt lat="45.8008" lon="6.15752">
        <ele>762</ele>
        <time>2021-09-10T13:18:43.592Z</time>
      </trkpt>
      <trkpt lat="45.80082" lon="6.15753">
        <ele>762</ele>
        <time>2021-09-10T13:18:44.591Z</time>
      </trkpt>
      <trkpt lat="45.80084" lon="6.15753">
        <ele>762</ele>
        <time>2021-09-10T13:18:45.591Z</time>
      </trkpt>
      <trkpt lat="45.80086" lon="6.15753">
        <ele>762</ele>
        <time>2021-09-10T13:18:46.591Z</time>
      </trkpt>
      <trkpt lat="45.80088" lon="6.15754">
        <ele>762</ele>
        <time>2021-09-10T13:18:47.591Z</time>
      </trkpt>
      <trkpt lat="45.8009" lon="6.15754">
        <ele>762</ele>
        <time>2021-09-10T13:18:48.591Z</time>
      </trkpt>
      <trkpt lat="45.80092" lon="6.15754">
        <ele>762</ele>
        <time>2021-09-10T13:18:49.592Z</time>
      </trkpt>
      <trkpt lat="45.80094" lon="6.15754">
        <ele>762</ele>
        <time>2021-09-10T13:18:50.591Z</time>
      </trkpt>
      <trkpt lat="45.80096" lon="6.15755">
        <ele>762</ele>
        <time>2021-09-10T13:18:51.592Z</time>
      </trkpt>
      <trkpt lat="45.80098" lon="6.15755">
        <ele>762</ele>
        <time>2021-09-10T13:18:52.591Z</time>
      </trkpt>
      <trkpt lat="45.801" lon="6.15756">
        <ele>763</ele>
        <time>2021-09-10T13:18:53.591Z</time>
      </trkpt>
      <trkpt lat="45.80102" lon="6.15756">
        <ele>763</ele>
        <time>2021-09-10T13:18:54.592Z</time>
      </trkpt>
      <trkpt lat="45.80104" lon="6.15756">
        <ele>763</ele>
        <time>2021-09-10T13:18:55.591Z</time>
      </trkpt>
      <trkpt lat="45.80106" lon="6.15757">
        <ele>762</ele>
        <time>2021-09-10T13:18:56.591Z</time>
      </trkpt>
      <trkpt lat="45.80108" lon="6.15757">
        <ele>762</ele>
        <time>2021-09-10T13:18:57.592Z</time>
      </trkpt>
      <trkpt lat="45.8011" lon="6.15757">
        <ele>762</ele>
        <time>2021-09-10T13:18:58.591Z</time>
      </trkpt>
      <trkpt lat="45.80112" lon="6.15757">
        <ele>763</ele>
        <time>2021-09-10T13:18:59.592Z</time>
      </trkpt>
      <trkpt lat="45.80114" lon="6.15758">
        <ele>763</ele>
        <time>2021-09-10T13:19:00.592Z</time>
      </trkpt>
      <trkpt lat="45.80117" lon="6.15758">
        <ele>763</ele>
        <time>2021-09-10T13:19:01.591Z</time>
      </trkpt>
      <trkpt lat="45.80119" lon="6.15758">
        <ele>764</ele>
        <time>2021-09-10T13:19:02.592Z</time>
      </trkpt>
      <trkpt lat="45.80121" lon="6.15759">
        <ele>764</ele>
        <time>2021-09-10T13:19:03.592Z</time>
      </trkpt>
      <trkpt lat="45.80123" lon="6.15759">
        <ele>764</ele>
        <time>2021-09-10T13:19:04.592Z</time>
      </trkpt>
      <trkpt lat="45.80125" lon="6.1576">
        <ele>764</ele>
        <time>2021-09-10T13:19:05.591Z</time>
      </trkpt>
      <trkpt lat="45.80127" lon="6.15761">
        <ele>764</ele>
        <time>2021-09-10T13:19:06.591Z</time>
      </trkpt>
      <trkpt lat="45.80128" lon="6.15761">
        <ele>764</ele>
        <time>2021-09-10T13:19:07.592Z</time>
      </trkpt>
      <trkpt lat="45.8013" lon="6.15761">
        <ele>764</ele>
        <time>2021-09-10T13:19:08.591Z</time>
      </trkpt>
      <trkpt lat="45.80132" lon="6.15762">
        <ele>765</ele>
        <time>2021-09-10T13:19:09.592Z</time>
      </trkpt>
      <trkpt lat="45.80134" lon="6.15762">
        <ele>765</ele>
        <time>2021-09-10T13:19:10.591Z</time>
      </trkpt>
      <trkpt lat="45.80136" lon="6.15762">
        <ele>766</ele>
        <time>2021-09-10T13:19:11.591Z</time>
      </trkpt>
      <trkpt lat="45.80138" lon="6.15762">
        <ele>766</ele>
        <time>2021-09-10T13:19:12.591Z</time>
      </trkpt>
      <trkpt lat="45.8014" lon="6.15762">
        <ele>767</ele>
        <time>2021-09-10T13:19:13.591Z</time>
      </trkpt>
      <trkpt lat="45.80141" lon="6.15762">
        <ele>767</ele>
        <time>2021-09-10T13:19:14.592Z</time>
      </trkpt>
      <trkpt lat="45.80143" lon="6.15762">
        <ele>767</ele>
        <time>2021-09-10T13:19:15.591Z</time>
      </trkpt>
      <trkpt lat="45.80145" lon="6.15762">
        <ele>767</ele>
        <time>2021-09-10T13:19:16.591Z</time>
      </trkpt>
      <trkpt lat="45.80147" lon="6.15762">
        <ele>768</ele>
        <time>2021-09-10T13:19:17.591Z</time>
      </trkpt>
      <trkpt lat="45.80149" lon="6.15762">
        <ele>768</ele>
        <time>2021-09-10T13:19:18.591Z</time>
      </trkpt>
      <trkpt lat="45.80151" lon="6.15763">
        <ele>768</ele>
        <time>2021-09-10T13:19:19.591Z</time>
      </trkpt>
      <trkpt lat="45.80153" lon="6.15763">
        <ele>768</ele>
        <time>2021-09-10T13:19:20.591Z</time>
      </trkpt>
      <trkpt lat="45.80154" lon="6.15763">
        <ele>768</ele>
        <time>2021-09-10T13:19:21.592Z</time>
      </trkpt>
      <trkpt lat="45.80156" lon="6.15764">
        <ele>768</ele>
        <time>2021-09-10T13:19:22.591Z</time>
      </trkpt>
      <trkpt lat="45.80158" lon="6.15764">
        <ele>768</ele>
        <time>2021-09-10T13:19:23.591Z</time>
      </trkpt>
      <trkpt lat="45.8016" lon="6.15764">
        <ele>769</ele>
        <time>2021-09-10T13:19:24.592Z</time>
      </trkpt>
      <trkpt lat="45.80161" lon="6.15764">
        <ele>769</ele>
        <time>2021-09-10T13:19:25.592Z</time>
      </trkpt>
      <trkpt lat="45.80163" lon="6.15764">
        <ele>769</ele>
        <time>2021-09-10T13:19:26.591Z</time>
      </trkpt>
      <trkpt lat="45.80164" lon="6.15764">
        <ele>769</ele>
        <time>2021-09-10T13:19:27.591Z</time>
      </trkpt>
      <trkpt lat="45.80166" lon="6.15764">
        <ele>769</ele>
        <time>2021-09-10T13:19:28.591Z</time>
      </trkpt>
      <trkpt lat="45.80168" lon="6.15764">
        <ele>770</ele>
        <time>2021-09-10T13:19:29.591Z</time>
      </trkpt>
      <trkpt lat="45.80169" lon="6.15765">
        <ele>770</ele>
        <time>2021-09-10T13:19:30.591Z</time>
      </trkpt>
      <trkpt lat="45.8017" lon="6.15765">
        <ele>770</ele>
        <time>2021-09-10T13:19:31.591Z</time>
      </trkpt>
      <trkpt lat="45.80172" lon="6.15764">
        <ele>770</ele>
        <time>2021-09-10T13:19:32.591Z</time>
      </trkpt>
      <trkpt lat="45.80174" lon="6.15764">
        <ele>770</ele>
        <time>2021-09-10T13:19:33.591Z</time>
      </trkpt>
      <trkpt lat="45.80176" lon="6.15765">
        <ele>770</ele>
        <time>2021-09-10T13:19:34.592Z</time>
      </trkpt>
      <trkpt lat="45.80178" lon="6.15765">
        <ele>770</ele>
        <time>2021-09-10T13:19:35.592Z</time>
      </trkpt>
      <trkpt lat="45.80179" lon="6.15765">
        <ele>770</ele>
        <time>2021-09-10T13:19:36.591Z</time>
      </trkpt>
      <trkpt lat="45.80182" lon="6.15765">
        <ele>771</ele>
        <time>2021-09-10T13:19:37.591Z</time>
      </trkpt>
      <trkpt lat="45.80183" lon="6.15765">
        <ele>771</ele>
        <time>2021-09-10T13:19:38.591Z</time>
      </trkpt>
      <trkpt lat="45.80185" lon="6.15766">
        <ele>771</ele>
        <time>2021-09-10T13:19:39.592Z</time>
      </trkpt>
      <trkpt lat="45.80187" lon="6.15766">
        <ele>771</ele>
        <time>2021-09-10T13:19:40.592Z</time>
      </trkpt>
      <trkpt lat="45.80189" lon="6.15766">
        <ele>771</ele>
        <time>2021-09-10T13:19:41.591Z</time>
      </trkpt>
      <trkpt lat="45.80191" lon="6.15767">
        <ele>771</ele>
        <time>2021-09-10T13:19:42.592Z</time>
      </trkpt>
      <trkpt lat="45.80193" lon="6.15768">
        <ele>771</ele>
        <time>2021-09-10T13:19:43.591Z</time>
      </trkpt>
      <trkpt lat="45.80194" lon="6.15768">
        <ele>771</ele>
        <time>2021-09-10T13:19:44.592Z</time>
      </trkpt>
      <trkpt lat="45.80196" lon="6.15769">
        <ele>771</ele>
        <time>2021-09-10T13:19:45.591Z</time>
      </trkpt>
      <trkpt lat="45.80198" lon="6.1577">
        <ele>772</ele>
        <time>2021-09-10T13:19:46.592Z</time>
      </trkpt>
      <trkpt lat="45.802" lon="6.15771">
        <ele>772</ele>
        <time>2021-09-10T13:19:47.592Z</time>
      </trkpt>
      <trkpt lat="45.80202" lon="6.15772">
        <ele>772</ele>
        <time>2021-09-10T13:19:48.591Z</time>
      </trkpt>
      <trkpt lat="45.80203" lon="6.15773">
        <ele>772</ele>
        <time>2021-09-10T13:19:49.592Z</time>
      </trkpt>
      <trkpt lat="45.80205" lon="6.15773">
        <ele>772</ele>
        <time>2021-09-10T13:19:50.592Z</time>
      </trkpt>
      <trkpt lat="45.80207" lon="6.15774">
        <ele>773</ele>
        <time>2021-09-10T13:19:51.591Z</time>
      </trkpt>
      <trkpt lat="45.80209" lon="6.15775">
        <ele>773</ele>
        <time>2021-09-10T13:19:52.592Z</time>
      </trkpt>
      <trkpt lat="45.80211" lon="6.15776">
        <ele>773</ele>
        <time>2021-09-10T13:19:53.591Z</time>
      </trkpt>
      <trkpt lat="45.80213" lon="6.15777">
        <ele>773</ele>
        <time>2021-09-10T13:19:54.591Z</time>
      </trkpt>
      <trkpt lat="45.80214" lon="6.15778">
        <ele>773</ele>
        <time>2021-09-10T13:19:55.592Z</time>
      </trkpt>
      <trkpt lat="45.80217" lon="6.15779">
        <ele>772</ele>
        <time>2021-09-10T13:19:56.591Z</time>
      </trkpt>
      <trkpt lat="45.80218" lon="6.1578">
        <ele>772</ele>
        <time>2021-09-10T13:19:57.591Z</time>
      </trkpt>
      <trkpt lat="45.8022" lon="6.15781">
        <ele>773</ele>
        <time>2021-09-10T13:19:58.592Z</time>
      </trkpt>
      <trkpt lat="45.80222" lon="6.15782">
        <ele>773</ele>
        <time>2021-09-10T13:19:59.591Z</time>
      </trkpt>
      <trkpt lat="45.80224" lon="6.15783">
        <ele>773</ele>
        <time>2021-09-10T13:20:00.591Z</time>
      </trkpt>
      <trkpt lat="45.80226" lon="6.15785">
        <ele>773</ele>
        <time>2021-09-10T13:20:01.591Z</time>
      </trkpt>
      <trkpt lat="45.80228" lon="6.15786">
        <ele>773</ele>
        <time>2021-09-10T13:20:02.592Z</time>
      </trkpt>
      <trkpt lat="45.80229" lon="6.15787">
        <ele>774</ele>
        <time>2021-09-10T13:20:03.592Z</time>
      </trkpt>
      <trkpt lat="45.80231" lon="6.15788">
        <ele>774</ele>
        <time>2021-09-10T13:20:04.592Z</time>
      </trkpt>
      <trkpt lat="45.80233" lon="6.15789">
        <ele>774</ele>
        <time>2021-09-10T13:20:05.591Z</time>
      </trkpt>
      <trkpt lat="45.80235" lon="6.1579">
        <ele>774</ele>
        <time>2021-09-10T13:20:06.592Z</time>
      </trkpt>
      <trkpt lat="45.80237" lon="6.15791">
        <ele>775</ele>
        <time>2021-09-10T13:20:07.591Z</time>
      </trkpt>
      <trkpt lat="45.80239" lon="6.15792">
        <ele>775</ele>
        <time>2021-09-10T13:20:08.591Z</time>
      </trkpt>
      <trkpt lat="45.8024" lon="6.15792">
        <ele>776</ele>
        <time>2021-09-10T13:20:09.591Z</time>
      </trkpt>
      <trkpt lat="45.80242" lon="6.15793">
        <ele>776</ele>
        <time>2021-09-10T13:20:10.591Z</time>
      </trkpt>
      <trkpt lat="45.80244" lon="6.15794">
        <ele>776</ele>
        <time>2021-09-10T13:20:11.591Z</time>
      </trkpt>
      <trkpt lat="45.80245" lon="6.15796">
        <ele>776</ele>
        <time>2021-09-10T13:20:12.592Z</time>
      </trkpt>
      <trkpt lat="45.80247" lon="6.15797">
        <ele>777</ele>
        <time>2021-09-10T13:20:13.591Z</time>
      </trkpt>
      <trkpt lat="45.80249" lon="6.15798">
        <ele>777</ele>
        <time>2021-09-10T13:20:14.591Z</time>
      </trkpt>
      <trkpt lat="45.8025" lon="6.15799">
        <ele>777</ele>
        <time>2021-09-10T13:20:15.591Z</time>
      </trkpt>
      <trkpt lat="45.80253" lon="6.158">
        <ele>777</ele>
        <time>2021-09-10T13:20:16.591Z</time>
      </trkpt>
      <trkpt lat="45.80254" lon="6.15801">
        <ele>777</ele>
        <time>2021-09-10T13:20:17.591Z</time>
      </trkpt>
      <trkpt lat="45.80256" lon="6.15802">
        <ele>777</ele>
        <time>2021-09-10T13:20:18.592Z</time>
      </trkpt>
      <trkpt lat="45.80258" lon="6.15803">
        <ele>777</ele>
        <time>2021-09-10T13:20:19.592Z</time>
      </trkpt>
      <trkpt lat="45.80259" lon="6.15804">
        <ele>778</ele>
        <time>2021-09-10T13:20:20.592Z</time>
      </trkpt>
      <trkpt lat="45.80261" lon="6.15805">
        <ele>778</ele>
        <time>2021-09-10T13:20:21.592Z</time>
      </trkpt>
      <trkpt lat="45.80263" lon="6.15806">
        <ele>778</ele>
        <time>2021-09-10T13:20:22.591Z</time>
      </trkpt>
      <trkpt lat="45.80264" lon="6.15807">
        <ele>778</ele>
        <time>2021-09-10T13:20:23.591Z</time>
      </trkpt>
      <trkpt lat="45.80266" lon="6.15808">
        <ele>778</ele>
        <time>2021-09-10T13:20:24.591Z</time>
      </trkpt>
      <trkpt lat="45.80268" lon="6.15809">
        <ele>778</ele>
        <time>2021-09-10T13:20:25.592Z</time>
      </trkpt>
      <trkpt lat="45.8027" lon="6.1581">
        <ele>778</ele>
        <time>2021-09-10T13:20:26.591Z</time>
      </trkpt>
      <trkpt lat="45.80272" lon="6.15811">
        <ele>778</ele>
        <time>2021-09-10T13:20:27.591Z</time>
      </trkpt>
      <trkpt lat="45.80274" lon="6.15811">
        <ele>778</ele>
        <time>2021-09-10T13:20:28.592Z</time>
      </trkpt>
      <trkpt lat="45.80275" lon="6.15812">
        <ele>779</ele>
        <time>2021-09-10T13:22:14.706Z</time>
      </trkpt>
      <trkpt lat="45.80277" lon="6.15813">
        <ele>779</ele>
        <time>2021-09-10T13:22:15.706Z</time>
      </trkpt>
      <trkpt lat="45.80278" lon="6.15815">
        <ele>779</ele>
        <time>2021-09-10T13:22:16.707Z</time>
      </trkpt>
      <trkpt lat="45.8028" lon="6.15815">
        <ele>779</ele>
        <time>2021-09-10T13:22:17.706Z</time>
      </trkpt>
      <trkpt lat="45.80281" lon="6.15816">
        <ele>779</ele>
        <time>2021-09-10T13:22:18.707Z</time>
      </trkpt>
      <trkpt lat="45.80283" lon="6.15817">
        <ele>779</ele>
        <time>2021-09-10T13:22:19.706Z</time>
      </trkpt>
      <trkpt lat="45.80285" lon="6.15818">
        <ele>779</ele>
        <time>2021-09-10T13:22:20.706Z</time>
      </trkpt>
      <trkpt lat="45.80287" lon="6.1582">
        <ele>779</ele>
        <time>2021-09-10T13:22:21.707Z</time>
      </trkpt>
      <trkpt lat="45.80288" lon="6.1582">
        <ele>779</ele>
        <time>2021-09-10T13:22:22.706Z</time>
      </trkpt>
      <trkpt lat="45.80289" lon="6.15821">
        <ele>779</ele>
        <time>2021-09-10T13:22:23.706Z</time>
      </trkpt>
      <trkpt lat="45.80291" lon="6.15822">
        <ele>779</ele>
        <time>2021-09-10T13:22:24.706Z</time>
      </trkpt>
      <trkpt lat="45.80293" lon="6.15823">
        <ele>779</ele>
        <time>2021-09-10T13:22:25.706Z</time>
      </trkpt>
      <trkpt lat="45.80294" lon="6.15824">
        <ele>780</ele>
        <time>2021-09-10T13:22:26.706Z</time>
      </trkpt>
      <trkpt lat="45.80296" lon="6.15825">
        <ele>780</ele>
        <time>2021-09-10T13:22:27.706Z</time>
      </trkpt>
      <trkpt lat="45.80298" lon="6.15826">
        <ele>781</ele>
        <time>2021-09-10T13:22:28.707Z</time>
      </trkpt>
      <trkpt lat="45.80299" lon="6.15826">
        <ele>781</ele>
        <time>2021-09-10T13:22:29.707Z</time>
      </trkpt>
      <trkpt lat="45.80301" lon="6.15827">
        <ele>781</ele>
        <time>2021-09-10T13:22:30.706Z</time>
      </trkpt>
      <trkpt lat="45.80302" lon="6.15829">
        <ele>781</ele>
        <time>2021-09-10T13:22:31.706Z</time>
      </trkpt>
      <trkpt lat="45.80304" lon="6.1583">
        <ele>782</ele>
        <time>2021-09-10T13:22:32.707Z</time>
      </trkpt>
      <trkpt lat="45.80305" lon="6.15831">
        <ele>781</ele>
        <time>2021-09-10T13:22:33.707Z</time>
      </trkpt>
      <trkpt lat="45.80307" lon="6.15832">
        <ele>781</ele>
        <time>2021-09-10T13:22:34.707Z</time>
      </trkpt>
      <trkpt lat="45.80309" lon="6.15833">
        <ele>781</ele>
        <time>2021-09-10T13:22:35.707Z</time>
      </trkpt>
      <trkpt lat="45.8031" lon="6.15834">
        <ele>782</ele>
        <time>2021-09-10T13:22:36.706Z</time>
      </trkpt>
      <trkpt lat="45.80312" lon="6.15835">
        <ele>782</ele>
        <time>2021-09-10T13:22:37.706Z</time>
      </trkpt>
      <trkpt lat="45.80313" lon="6.15836">
        <ele>782</ele>
        <time>2021-09-10T13:22:38.706Z</time>
      </trkpt>
      <trkpt lat="45.80315" lon="6.15837">
        <ele>783</ele>
        <time>2021-09-10T13:22:39.707Z</time>
      </trkpt>
      <trkpt lat="45.80317" lon="6.15838">
        <ele>783</ele>
        <time>2021-09-10T13:22:40.706Z</time>
      </trkpt>
      <trkpt lat="45.80318" lon="6.1584">
        <ele>783</ele>
        <time>2021-09-10T13:22:41.707Z</time>
      </trkpt>
      <trkpt lat="45.80319" lon="6.15841">
        <ele>783</ele>
        <time>2021-09-10T13:22:42.706Z</time>
      </trkpt>
      <trkpt lat="45.8032" lon="6.15842">
        <ele>784</ele>
        <time>2021-09-10T13:22:43.707Z</time>
      </trkpt>
      <trkpt lat="45.80321" lon="6.15844">
        <ele>784</ele>
        <time>2021-09-10T13:22:44.706Z</time>
      </trkpt>
      <trkpt lat="45.80323" lon="6.15845">
        <ele>784</ele>
        <time>2021-09-10T13:22:45.706Z</time>
      </trkpt>
      <trkpt lat="45.80325" lon="6.15847">
        <ele>784</ele>
        <time>2021-09-10T13:22:46.706Z</time>
      </trkpt>
      <trkpt lat="45.80326" lon="6.15848">
        <ele>785</ele>
        <time>2021-09-10T13:22:47.707Z</time>
      </trkpt>
      <trkpt lat="45.80327" lon="6.1585">
        <ele>785</ele>
        <time>2021-09-10T13:22:48.706Z</time>
      </trkpt>
      <trkpt lat="45.80328" lon="6.15851">
        <ele>785</ele>
        <time>2021-09-10T13:22:49.707Z</time>
      </trkpt>
      <trkpt lat="45.8033" lon="6.15854">
        <ele>786</ele>
        <time>2021-09-10T13:22:50.707Z</time>
      </trkpt>
      <trkpt lat="45.80331" lon="6.15855">
        <ele>786</ele>
        <time>2021-09-10T13:22:51.706Z</time>
      </trkpt>
      <trkpt lat="45.80332" lon="6.15857">
        <ele>786</ele>
        <time>2021-09-10T13:22:52.707Z</time>
      </trkpt>
      <trkpt lat="45.80333" lon="6.15859">
        <ele>786</ele>
        <time>2021-09-10T13:22:53.707Z</time>
      </trkpt>
      <trkpt lat="45.80334" lon="6.15861">
        <ele>786</ele>
        <time>2021-09-10T13:22:54.707Z</time>
      </trkpt>
      <trkpt lat="45.80335" lon="6.15863">
        <ele>786</ele>
        <time>2021-09-10T13:22:55.706Z</time>
      </trkpt>
      <trkpt lat="45.80336" lon="6.15865">
        <ele>786</ele>
        <time>2021-09-10T13:22:56.706Z</time>
      </trkpt>
      <trkpt lat="45.80338" lon="6.15867">
        <ele>786</ele>
        <time>2021-09-10T13:22:57.706Z</time>
      </trkpt>
      <trkpt lat="45.80339" lon="6.15869">
        <ele>787</ele>
        <time>2021-09-10T13:22:58.707Z</time>
      </trkpt>
      <trkpt lat="45.8034" lon="6.1587">
        <ele>787</ele>
        <time>2021-09-10T13:22:59.706Z</time>
      </trkpt>
      <trkpt lat="45.80341" lon="6.15873">
        <ele>787</ele>
        <time>2021-09-10T13:23:00.706Z</time>
      </trkpt>
      <trkpt lat="45.80343" lon="6.15875">
        <ele>787</ele>
        <time>2021-09-10T13:23:01.707Z</time>
      </trkpt>
      <trkpt lat="45.80344" lon="6.15877">
        <ele>788</ele>
        <time>2021-09-10T13:23:02.706Z</time>
      </trkpt>
      <trkpt lat="45.80345" lon="6.15879">
        <ele>788</ele>
        <time>2021-09-10T13:23:03.706Z</time>
      </trkpt>
      <trkpt lat="45.80346" lon="6.15881">
        <ele>789</ele>
        <time>2021-09-10T13:23:04.706Z</time>
      </trkpt>
      <trkpt lat="45.80348" lon="6.15883">
        <ele>789</ele>
        <time>2021-09-10T13:23:05.706Z</time>
      </trkpt>
      <trkpt lat="45.80349" lon="6.15885">
        <ele>789</ele>
        <time>2021-09-10T13:23:06.706Z</time>
      </trkpt>
      <trkpt lat="45.8035" lon="6.15887">
        <ele>789</ele>
        <time>2021-09-10T13:23:07.706Z</time>
      </trkpt>
      <trkpt lat="45.80351" lon="6.15889">
        <ele>789</ele>
        <time>2021-09-10T13:23:08.706Z</time>
      </trkpt>
      <trkpt lat="45.80352" lon="6.15891">
        <ele>789</ele>
        <time>2021-09-10T13:23:09.706Z</time>
      </trkpt>
      <trkpt lat="45.80353" lon="6.15893">
        <ele>789</ele>
        <time>2021-09-10T13:23:10.706Z</time>
      </trkpt>
      <trkpt lat="45.80355" lon="6.15894">
        <ele>789</ele>
        <time>2021-09-10T13:23:11.706Z</time>
      </trkpt>
      <trkpt lat="45.80356" lon="6.15896">
        <ele>790</ele>
        <time>2021-09-10T13:23:12.706Z</time>
      </trkpt>
      <trkpt lat="45.80357" lon="6.15898">
        <ele>790</ele>
        <time>2021-09-10T13:23:13.706Z</time>
      </trkpt>
      <trkpt lat="45.80358" lon="6.159">
        <ele>790</ele>
        <time>2021-09-10T13:23:14.706Z</time>
      </trkpt>
      <trkpt lat="45.80359" lon="6.15903">
        <ele>791</ele>
        <time>2021-09-10T13:23:15.707Z</time>
      </trkpt>
      <trkpt lat="45.8036" lon="6.15904">
        <ele>791</ele>
        <time>2021-09-10T13:23:16.706Z</time>
      </trkpt>
      <trkpt lat="45.80361" lon="6.15906">
        <ele>792</ele>
        <time>2021-09-10T13:23:17.706Z</time>
      </trkpt>
      <trkpt lat="45.80363" lon="6.15908">
        <ele>792</ele>
        <time>2021-09-10T13:23:18.706Z</time>
      </trkpt>
      <trkpt lat="45.80364" lon="6.1591">
        <ele>792</ele>
        <time>2021-09-10T13:23:19.707Z</time>
      </trkpt>
      <trkpt lat="45.80365" lon="6.15913">
        <ele>792</ele>
        <time>2021-09-10T13:23:20.707Z</time>
      </trkpt>
      <trkpt lat="45.80366" lon="6.15914">
        <ele>792</ele>
        <time>2021-09-10T13:23:21.706Z</time>
      </trkpt>
      <trkpt lat="45.80367" lon="6.15916">
        <ele>792</ele>
        <time>2021-09-10T13:23:22.707Z</time>
      </trkpt>
      <trkpt lat="45.80368" lon="6.15918">
        <ele>792</ele>
        <time>2021-09-10T13:23:23.706Z</time>
      </trkpt>
      <trkpt lat="45.80369" lon="6.1592">
        <ele>792</ele>
        <time>2021-09-10T13:23:24.706Z</time>
      </trkpt>
      <trkpt lat="45.8037" lon="6.15922">
        <ele>792</ele>
        <time>2021-09-10T13:23:25.706Z</time>
      </trkpt>
      <trkpt lat="45.80371" lon="6.15924">
        <ele>792</ele>
        <time>2021-09-10T13:23:26.706Z</time>
      </trkpt>
      <trkpt lat="45.80373" lon="6.15926">
        <ele>792</ele>
        <time>2021-09-10T13:23:27.707Z</time>
      </trkpt>
      <trkpt lat="45.80374" lon="6.15928">
        <ele>792</ele>
        <time>2021-09-10T13:23:28.706Z</time>
      </trkpt>
      <trkpt lat="45.80375" lon="6.1593">
        <ele>792</ele>
        <time>2021-09-10T13:23:29.707Z</time>
      </trkpt>
      <trkpt lat="45.80376" lon="6.15932">
        <ele>792</ele>
        <time>2021-09-10T13:23:30.706Z</time>
      </trkpt>
      <trkpt lat="45.80377" lon="6.15934">
        <ele>792</ele>
        <time>2021-09-10T13:23:31.706Z</time>
      </trkpt>
      <trkpt lat="45.80378" lon="6.15936">
        <ele>792</ele>
        <time>2021-09-10T13:23:32.706Z</time>
      </trkpt>
      <trkpt lat="45.80379" lon="6.15938">
        <ele>792</ele>
        <time>2021-09-10T13:23:33.706Z</time>
      </trkpt>
      <trkpt lat="45.8038" lon="6.1594">
        <ele>792</ele>
        <time>2021-09-10T13:23:34.706Z</time>
      </trkpt>
      <trkpt lat="45.80381" lon="6.15942">
        <ele>792</ele>
        <time>2021-09-10T13:23:35.706Z</time>
      </trkpt>
      <trkpt lat="45.80382" lon="6.15944">
        <ele>792</ele>
        <time>2021-09-10T13:23:36.707Z</time>
      </trkpt>
      <trkpt lat="45.80383" lon="6.15946">
        <ele>792</ele>
        <time>2021-09-10T13:23:37.707Z</time>
      </trkpt>
      <trkpt lat="45.80385" lon="6.15948">
        <ele>792</ele>
        <time>2021-09-10T13:23:38.706Z</time>
      </trkpt>
      <trkpt lat="45.80386" lon="6.1595">
        <ele>792</ele>
        <time>2021-09-10T13:23:39.707Z</time>
      </trkpt>
      <trkpt lat="45.80388" lon="6.15952">
        <ele>793</ele>
        <time>2021-09-10T13:23:40.706Z</time>
      </trkpt>
      <trkpt lat="45.80389" lon="6.15955">
        <ele>793</ele>
        <time>2021-09-10T13:23:41.706Z</time>
      </trkpt>
      <trkpt lat="45.8039" lon="6.15957">
        <ele>794</ele>
        <time>2021-09-10T13:23:42.706Z</time>
      </trkpt>
      <trkpt lat="45.80392" lon="6.15959">
        <ele>794</ele>
        <time>2021-09-10T13:23:43.707Z</time>
      </trkpt>
      <trkpt lat="45.80393" lon="6.15961">
        <ele>795</ele>
        <time>2021-09-10T13:23:44.707Z</time>
      </trkpt>
      <trkpt lat="45.80395" lon="6.15963">
        <ele>795</ele>
        <time>2021-09-10T13:23:45.706Z</time>
      </trkpt>
      <trkpt lat="45.80397" lon="6.15965">
        <ele>795</ele>
        <time>2021-09-10T13:23:46.706Z</time>
      </trkpt>
      <trkpt lat="45.80398" lon="6.15968">
        <ele>795</ele>
        <time>2021-09-10T13:23:47.707Z</time>
      </trkpt>
      <trkpt lat="45.804" lon="6.1597">
        <ele>795</ele>
        <time>2021-09-10T13:23:48.707Z</time>
      </trkpt>
      <trkpt lat="45.80401" lon="6.15972">
        <ele>795</ele>
        <time>2021-09-10T13:23:49.706Z</time>
      </trkpt>
      <trkpt lat="45.80403" lon="6.15974">
        <ele>795</ele>
        <time>2021-09-10T13:23:50.706Z</time>
      </trkpt>
      <trkpt lat="45.80405" lon="6.15975">
        <ele>795</ele>
        <time>2021-09-10T13:23:51.707Z</time>
      </trkpt>
      <trkpt lat="45.80407" lon="6.15977">
        <ele>795</ele>
        <time>2021-09-10T13:23:52.707Z</time>
      </trkpt>
      <trkpt lat="45.80408" lon="6.15979">
        <ele>795</ele>
        <time>2021-09-10T13:23:53.706Z</time>
      </trkpt>
      <trkpt lat="45.8041" lon="6.15981">
        <ele>795</ele>
        <time>2021-09-10T13:23:54.707Z</time>
      </trkpt>
      <trkpt lat="45.80412" lon="6.15983">
        <ele>795</ele>
        <time>2021-09-10T13:23:55.706Z</time>
      </trkpt>
      <trkpt lat="45.80414" lon="6.15984">
        <ele>795</ele>
        <time>2021-09-10T13:23:56.706Z</time>
      </trkpt>
      <trkpt lat="45.80416" lon="6.15986">
        <ele>795</ele>
        <time>2021-09-10T13:23:57.707Z</time>
      </trkpt>
      <trkpt lat="45.80418" lon="6.15988">
        <ele>794</ele>
        <time>2021-09-10T13:23:58.706Z</time>
      </trkpt>
      <trkpt lat="45.8042" lon="6.1599">
        <ele>794</ele>
        <time>2021-09-10T13:23:59.707Z</time>
      </trkpt>
      <trkpt lat="45.80422" lon="6.15992">
        <ele>795</ele>
        <time>2021-09-10T13:24:00.707Z</time>
      </trkpt>
      <trkpt lat="45.80424" lon="6.15994">
        <ele>794</ele>
        <time>2021-09-10T13:24:01.707Z</time>
      </trkpt>
      <trkpt lat="45.80426" lon="6.15996">
        <ele>794</ele>
        <time>2021-09-10T13:24:02.707Z</time>
      </trkpt>
      <trkpt lat="45.80428" lon="6.15998">
        <ele>794</ele>
        <time>2021-09-10T13:24:03.707Z</time>
      </trkpt>
      <trkpt lat="45.8043" lon="6.16">
        <ele>794</ele>
        <time>2021-09-10T13:24:04.707Z</time>
      </trkpt>
      <trkpt lat="45.80432" lon="6.16002">
        <ele>795</ele>
        <time>2021-09-10T13:24:05.706Z</time>
      </trkpt>
      <trkpt lat="45.80434" lon="6.16004">
        <ele>795</ele>
        <time>2021-09-10T13:24:06.706Z</time>
      </trkpt>
      <trkpt lat="45.80435" lon="6.16006">
        <ele>795</ele>
        <time>2021-09-10T13:24:07.707Z</time>
      </trkpt>
      <trkpt lat="45.80437" lon="6.16009">
        <ele>795</ele>
        <time>2021-09-10T13:24:08.706Z</time>
      </trkpt>
      <trkpt lat="45.80438" lon="6.16011">
        <ele>795</ele>
        <time>2021-09-10T13:24:09.707Z</time>
      </trkpt>
      <trkpt lat="45.80439" lon="6.16014">
        <ele>795</ele>
        <time>2021-09-10T13:24:10.707Z</time>
      </trkpt>
      <trkpt lat="45.8044" lon="6.16016">
        <ele>795</ele>
        <time>2021-09-10T13:24:11.707Z</time>
      </trkpt>
      <trkpt lat="45.8044" lon="6.16019">
        <ele>795</ele>
        <time>2021-09-10T13:24:12.706Z</time>
      </trkpt>
      <trkpt lat="45.8044" lon="6.16022">
        <ele>795</ele>
        <time>2021-09-10T13:24:13.706Z</time>
      </trkpt>
      <trkpt lat="45.80441" lon="6.16025">
        <ele>795</ele>
        <time>2021-09-10T13:24:14.706Z</time>
      </trkpt>
      <trkpt lat="45.80441" lon="6.16028">
        <ele>795</ele>
        <time>2021-09-10T13:24:15.706Z</time>
      </trkpt>
      <trkpt lat="45.8044" lon="6.16031">
        <ele>795</ele>
        <time>2021-09-10T13:24:16.706Z</time>
      </trkpt>
      <trkpt lat="45.80439" lon="6.16033">
        <ele>795</ele>
        <time>2021-09-10T13:24:17.706Z</time>
      </trkpt>
      <trkpt lat="45.80438" lon="6.16036">
        <ele>795</ele>
        <time>2021-09-10T13:24:18.706Z</time>
      </trkpt>
      <trkpt lat="45.80437" lon="6.16039">
        <ele>796</ele>
        <time>2021-09-10T13:24:19.707Z</time>
      </trkpt>
      <trkpt lat="45.80437" lon="6.16042">
        <ele>796</ele>
        <time>2021-09-10T13:24:20.707Z</time>
      </trkpt>
      <trkpt lat="45.80436" lon="6.16045">
        <ele>796</ele>
        <time>2021-09-10T13:24:21.706Z</time>
      </trkpt>
      <trkpt lat="45.80435" lon="6.16048">
        <ele>795</ele>
        <time>2021-09-10T13:24:22.706Z</time>
      </trkpt>
      <trkpt lat="45.80434" lon="6.1605">
        <ele>795</ele>
        <time>2021-09-10T13:24:23.706Z</time>
      </trkpt>
      <trkpt lat="45.80433" lon="6.16053">
        <ele>796</ele>
        <time>2021-09-10T13:24:24.707Z</time>
      </trkpt>
      <trkpt lat="45.80432" lon="6.16055">
        <ele>796</ele>
        <time>2021-09-10T13:24:25.706Z</time>
      </trkpt>
      <trkpt lat="45.8043" lon="6.16057">
        <ele>796</ele>
        <time>2021-09-10T13:24:26.706Z</time>
      </trkpt>
      <trkpt lat="45.80428" lon="6.16059">
        <ele>796</ele>
        <time>2021-09-10T13:24:27.707Z</time>
      </trkpt>
      <trkpt lat="45.80427" lon="6.1606">
        <ele>796</ele>
        <time>2021-09-10T13:24:28.707Z</time>
      </trkpt>
      <trkpt lat="45.80425" lon="6.16062">
        <ele>797</ele>
        <time>2021-09-10T13:24:29.706Z</time>
      </trkpt>
      <trkpt lat="45.80423" lon="6.16063">
        <ele>796</ele>
        <time>2021-09-10T13:24:30.706Z</time>
      </trkpt>
      <trkpt lat="45.80421" lon="6.16065">
        <ele>797</ele>
        <time>2021-09-10T13:24:31.706Z</time>
      </trkpt>
      <trkpt lat="45.80419" lon="6.16066">
        <ele>797</ele>
        <time>2021-09-10T13:24:32.706Z</time>
      </trkpt>
      <trkpt lat="45.80417" lon="6.16067">
        <ele>797</ele>
        <time>2021-09-10T13:24:33.707Z</time>
      </trkpt>
      <trkpt lat="45.80415" lon="6.16069">
        <ele>797</ele>
        <time>2021-09-10T13:24:34.707Z</time>
      </trkpt>
      <trkpt lat="45.80414" lon="6.16071">
        <ele>798</ele>
        <time>2021-09-10T13:24:35.707Z</time>
      </trkpt>
      <trkpt lat="45.80413" lon="6.16073">
        <ele>798</ele>
        <time>2021-09-10T13:24:36.707Z</time>
      </trkpt>
      <trkpt lat="45.80412" lon="6.16075">
        <ele>798</ele>
        <time>2021-09-10T13:24:37.706Z</time>
      </trkpt>
      <trkpt lat="45.80412" lon="6.16078">
        <ele>798</ele>
        <time>2021-09-10T13:24:38.706Z</time>
      </trkpt>
      <trkpt lat="45.80413" lon="6.16081">
        <ele>799</ele>
        <time>2021-09-10T13:24:39.707Z</time>
      </trkpt>
      <trkpt lat="45.80414" lon="6.16083">
        <ele>799</ele>
        <time>2021-09-10T13:24:40.706Z</time>
      </trkpt>
      <trkpt lat="45.80415" lon="6.16085">
        <ele>800</ele>
        <time>2021-09-10T13:24:41.707Z</time>
      </trkpt>
      <trkpt lat="45.80416" lon="6.16088">
        <ele>800</ele>
        <time>2021-09-10T13:24:42.707Z</time>
      </trkpt>
      <trkpt lat="45.80417" lon="6.1609">
        <ele>800</ele>
        <time>2021-09-10T13:24:43.706Z</time>
      </trkpt>
      <trkpt lat="45.80418" lon="6.16092">
        <ele>800</ele>
        <time>2021-09-10T13:24:44.706Z</time>
      </trkpt>
      <trkpt lat="45.8042" lon="6.16094">
        <ele>800</ele>
        <time>2021-09-10T13:24:45.706Z</time>
      </trkpt>
      <trkpt lat="45.80421" lon="6.16096">
        <ele>800</ele>
        <time>2021-09-10T13:24:46.706Z</time>
      </trkpt>
      <trkpt lat="45.80422" lon="6.16098">
        <ele>801</ele>
        <time>2021-09-10T13:24:47.707Z</time>
      </trkpt>
      <trkpt lat="45.80422" lon="6.161">
        <ele>801</ele>
        <time>2021-09-10T13:24:48.707Z</time>
      </trkpt>
      <trkpt lat="45.80423" lon="6.16102">
        <ele>801</ele>
        <time>2021-09-10T13:24:49.706Z</time>
      </trkpt>
      <trkpt lat="45.80425" lon="6.16104">
        <ele>801</ele>
        <time>2021-09-10T13:24:50.707Z</time>
      </trkpt>
      <trkpt lat="45.80426" lon="6.16106">
        <ele>802</ele>
        <time>2021-09-10T13:24:51.707Z</time>
      </trkpt>
      <trkpt lat="45.80428" lon="6.16108">
        <ele>802</ele>
        <time>2021-09-10T13:24:52.706Z</time>
      </trkpt>
      <trkpt lat="45.80429" lon="6.1611">
        <ele>803</ele>
        <time>2021-09-10T13:24:53.707Z</time>
      </trkpt>
      <trkpt lat="45.80429" lon="6.16112">
        <ele>803</ele>
        <time>2021-09-10T13:24:54.706Z</time>
      </trkpt>
      <trkpt lat="45.8043" lon="6.16114">
        <ele>803</ele>
        <time>2021-09-10T13:24:55.707Z</time>
      </trkpt>
      <trkpt lat="45.80431" lon="6.16117">
        <ele>803</ele>
        <time>2021-09-10T13:24:56.707Z</time>
      </trkpt>
      <trkpt lat="45.80431" lon="6.16119">
        <ele>803</ele>
        <time>2021-09-10T13:24:57.706Z</time>
      </trkpt>
      <trkpt lat="45.80431" lon="6.16122">
        <ele>802</ele>
        <time>2021-09-10T13:24:58.706Z</time>
      </trkpt>
      <trkpt lat="45.8043" lon="6.16124">
        <ele>802</ele>
        <time>2021-09-10T13:24:59.706Z</time>
      </trkpt>
      <trkpt lat="45.80429" lon="6.16126">
        <ele>802</ele>
        <time>2021-09-10T13:25:00.706Z</time>
      </trkpt>
      <trkpt lat="45.80428" lon="6.16128">
        <ele>803</ele>
        <time>2021-09-10T13:25:01.707Z</time>
      </trkpt>
      <trkpt lat="45.80426" lon="6.1613">
        <ele>803</ele>
        <time>2021-09-10T13:25:02.706Z</time>
      </trkpt>
      <trkpt lat="45.80425" lon="6.16132">
        <ele>803</ele>
        <time>2021-09-10T13:25:03.706Z</time>
      </trkpt>
      <trkpt lat="45.80423" lon="6.16134">
        <ele>804</ele>
        <time>2021-09-10T13:25:04.707Z</time>
      </trkpt>
      <trkpt lat="45.80422" lon="6.16136">
        <ele>804</ele>
        <time>2021-09-10T13:25:05.707Z</time>
      </trkpt>
      <trkpt lat="45.80421" lon="6.16138">
        <ele>804</ele>
        <time>2021-09-10T13:25:06.706Z</time>
      </trkpt>
      <trkpt lat="45.8042" lon="6.1614">
        <ele>803</ele>
        <time>2021-09-10T13:25:07.707Z</time>
      </trkpt>
      <trkpt lat="45.80418" lon="6.16142">
        <ele>803</ele>
        <time>2021-09-10T13:25:08.706Z</time>
      </trkpt>
      <trkpt lat="45.80417" lon="6.16143">
        <ele>803</ele>
        <time>2021-09-10T13:25:09.706Z</time>
      </trkpt>
      <trkpt lat="45.80416" lon="6.16145">
        <ele>803</ele>
        <time>2021-09-10T13:25:10.706Z</time>
      </trkpt>
      <trkpt lat="45.80416" lon="6.16146">
        <ele>804</ele>
        <time>2021-09-10T13:25:11.707Z</time>
      </trkpt>
      <trkpt lat="45.80416" lon="6.16148">
        <ele>804</ele>
        <time>2021-09-10T13:25:12.706Z</time>
      </trkpt>
      <trkpt lat="45.80416" lon="6.16149">
        <ele>804</ele>
        <time>2021-09-10T13:25:13.706Z</time>
      </trkpt>
      <trkpt lat="45.80417" lon="6.16151">
        <ele>803</ele>
        <time>2021-09-10T13:25:14.706Z</time>
      </trkpt>
      <trkpt lat="45.80419" lon="6.16152">
        <ele>803</ele>
        <time>2021-09-10T13:25:15.707Z</time>
      </trkpt>
      <trkpt lat="45.8042" lon="6.16154">
        <ele>803</ele>
        <time>2021-09-10T13:25:16.706Z</time>
      </trkpt>
      <trkpt lat="45.80422" lon="6.16155">
        <ele>802</ele>
        <time>2021-09-10T13:25:17.706Z</time>
      </trkpt>
      <trkpt lat="45.80424" lon="6.16157">
        <ele>802</ele>
        <time>2021-09-10T13:25:18.707Z</time>
      </trkpt>
      <trkpt lat="45.80426" lon="6.16159">
        <ele>802</ele>
        <time>2021-09-10T13:25:19.706Z</time>
      </trkpt>
      <trkpt lat="45.80429" lon="6.16162">
        <ele>802</ele>
        <time>2021-09-10T13:25:20.706Z</time>
      </trkpt>
      <trkpt lat="45.80431" lon="6.16165">
        <ele>802</ele>
        <time>2021-09-10T13:25:21.706Z</time>
      </trkpt>
      <trkpt lat="45.80433" lon="6.16167">
        <ele>802</ele>
        <time>2021-09-10T13:25:22.707Z</time>
      </trkpt>
      <trkpt lat="45.80434" lon="6.16168">
        <ele>802</ele>
        <time>2021-09-10T13:25:23.706Z</time>
      </trkpt>
      <trkpt lat="45.80436" lon="6.1617">
        <ele>802</ele>
        <time>2021-09-10T13:25:24.706Z</time>
      </trkpt>
      <trkpt lat="45.80437" lon="6.16172">
        <ele>802</ele>
        <time>2021-09-10T13:25:25.707Z</time>
      </trkpt>
      <trkpt lat="45.80438" lon="6.16173">
        <ele>803</ele>
        <time>2021-09-10T13:25:26.706Z</time>
      </trkpt>
      <trkpt lat="45.8044" lon="6.16175">
        <ele>803</ele>
        <time>2021-09-10T13:25:27.706Z</time>
      </trkpt>
      <trkpt lat="45.8044" lon="6.16176">
        <ele>803</ele>
        <time>2021-09-10T13:25:28.706Z</time>
      </trkpt>
      <trkpt lat="45.80441" lon="6.16177">
        <ele>804</ele>
        <time>2021-09-10T13:25:29.706Z</time>
      </trkpt>
      <trkpt lat="45.80442" lon="6.16177">
        <ele>803</ele>
        <time>2021-09-10T13:25:30.706Z</time>
      </trkpt>
      <trkpt lat="45.80442" lon="6.16177">
        <ele>803</ele>
        <time>2021-09-10T13:25:31.707Z</time>
      </trkpt>
      <trkpt lat="45.80442" lon="6.16177">
        <ele>803</ele>
        <time>2021-09-10T13:25:32.706Z</time>
      </trkpt>
      <trkpt lat="45.80416" lon="6.16088">
        <ele>797</ele>
        <time>2021-09-11T09:02:09.209Z</time>
      </trkpt>
      <trkpt lat="45.80416" lon="6.16088">
        <ele>797</ele>
        <time>2021-09-11T09:02:09.209Z</time>
      </trkpt>
      <trkpt lat="45.80416" lon="6.16088">
        <ele>797</ele>
        <time>2021-09-11T09:02:10.210Z</time>
      </trkpt>
      <trkpt lat="45.80416" lon="6.16088">
        <ele>797</ele>
        <time>2021-09-11T09:02:11.210Z</time>
      </trkpt>
      <trkpt lat="45.80416" lon="6.16088">
        <ele>797</ele>
        <time>2021-09-11T09:02:12.210Z</time>
      </trkpt>
      <trkpt lat="45.80416" lon="6.16088">
        <ele>797</ele>
        <time>2021-09-11T09:02:13.210Z</time>
      </trkpt>
      <trkpt lat="45.80416" lon="6.16088">
        <ele>797</ele>
        <time>2021-09-11T09:02:14.211Z</time>
      </trkpt>
      <trkpt lat="45.80416" lon="6.16088">
        <ele>797</ele>
        <time>2021-09-11T09:02:15.211Z</time>
      </trkpt>
      <trkpt lat="45.80416" lon="6.16088">
        <ele>797</ele>
        <time>2021-09-11T09:02:16.210Z</time>
      </trkpt>
      <trkpt lat="45.80416" lon="6.16088">
        <ele>797</ele>
        <time>2021-09-11T09:02:17.211Z</time>
      </trkpt>
      <trkpt lat="45.80416" lon="6.16088">
        <ele>797</ele>
        <time>2021-09-11T09:02:18.211Z</time>
      </trkpt>
      <trkpt lat="45.80416" lon="6.16088">
        <ele>797</ele>
        <time>2021-09-11T09:02:19.211Z</time>
      </trkpt>
      <trkpt lat="45.80416" lon="6.16088">
        <ele>797</ele>
        <time>2021-09-11T09:02:20.210Z</time>
      </trkpt>
      <trkpt lat="45.80416" lon="6.16088">
        <ele>797</ele>
        <time>2021-09-11T09:02:21.210Z</time>
      </trkpt>
      <trkpt lat="45.80416" lon="6.16088">
        <ele>797</ele>
        <time>2021-09-11T09:02:22.210Z</time>
      </trkpt>
      <trkpt lat="45.80416" lon="6.16088">
        <ele>797</ele>
        <time>2021-09-11T09:02:23.210Z</time>
      </trkpt>
      <trkpt lat="45.80416" lon="6.16088">
        <ele>797</ele>
        <time>2021-09-11T09:02:24.210Z</time>
      </trkpt>
      <trkpt lat="45.80416" lon="6.16088">
        <ele>797</ele>
        <time>2021-09-11T09:02:25.210Z</time>
      </trkpt>
      <trkpt lat="45.80416" lon="6.16088">
        <ele>797</ele>
        <time>2021-09-11T09:02:26.210Z</time>
      </trkpt>
      <trkpt lat="45.80416" lon="6.16088">
        <ele>797</ele>
        <time>2021-09-11T09:02:27.210Z</time>
      </trkpt>
      <trkpt lat="45.80416" lon="6.16088">
        <ele>797</ele>
        <time>2021-09-11T09:02:28.210Z</time>
      </trkpt>
      <trkpt lat="45.80416" lon="6.16088">
        <ele>797</ele>
        <time>2021-09-11T09:02:29.211Z</time>
      </trkpt>
      <trkpt lat="45.80416" lon="6.16088">
        <ele>797</ele>
        <time>2021-09-11T09:02:30.210Z</time>
      </trkpt>
      <trkpt lat="45.80416" lon="6.16087">
        <ele>797</ele>
        <time>2021-09-11T09:02:31.210Z</time>
      </trkpt>
      <trkpt lat="45.80416" lon="6.16087">
        <ele>797</ele>
        <time>2021-09-11T09:02:32.211Z</time>
      </trkpt>
      <trkpt lat="45.80416" lon="6.16087">
        <ele>797</ele>
        <time>2021-09-11T09:02:33.210Z</time>
      </trkpt>
      <trkpt lat="45.80416" lon="6.16087">
        <ele>797</ele>
        <time>2021-09-11T09:02:34.210Z</time>
      </trkpt>
      <trkpt lat="45.80415" lon="6.16087">
        <ele>797</ele>
        <time>2021-09-11T09:02:35.211Z</time>
      </trkpt>
      <trkpt lat="45.80415" lon="6.16087">
        <ele>797</ele>
        <time>2021-09-11T09:02:36.210Z</time>
      </trkpt>
      <trkpt lat="45.80415" lon="6.16087">
        <ele>798</ele>
        <time>2021-09-11T09:02:37.210Z</time>
      </trkpt>
      <trkpt lat="45.80415" lon="6.16087">
        <ele>798</ele>
        <time>2021-09-11T09:02:38.210Z</time>
      </trkpt>
      <trkpt lat="45.80415" lon="6.16086">
        <ele>798</ele>
        <time>2021-09-11T09:02:39.210Z</time>
      </trkpt>
      <trkpt lat="45.80415" lon="6.16086">
        <ele>798</ele>
        <time>2021-09-11T09:02:40.211Z</time>
      </trkpt>
      <trkpt lat="45.80415" lon="6.16085">
        <ele>798</ele>
        <time>2021-09-11T09:02:41.210Z</time>
      </trkpt>
      <trkpt lat="45.80415" lon="6.16085">
        <ele>798</ele>
        <time>2021-09-11T09:02:42.211Z</time>
      </trkpt>
      <trkpt lat="45.80415" lon="6.16085">
        <ele>798</ele>
        <time>2021-09-11T09:02:43.210Z</time>
      </trkpt>
      <trkpt lat="45.80415" lon="6.16085">
        <ele>798</ele>
        <time>2021-09-11T09:02:44.210Z</time>
      </trkpt>
      <trkpt lat="45.80415" lon="6.16085">
        <ele>798</ele>
        <time>2021-09-11T09:02:45.210Z</time>
      </trkpt>
      <trkpt lat="45.80415" lon="6.16085">
        <ele>798</ele>
        <time>2021-09-11T09:02:46.210Z</time>
      </trkpt>
      <trkpt lat="45.80415" lon="6.16085">
        <ele>798</ele>
        <time>2021-09-11T09:02:47.210Z</time>
      </trkpt>
      <trkpt lat="45.80415" lon="6.16085">
        <ele>798</ele>
        <time>2021-09-11T09:02:48.210Z</time>
      </trkpt>
      <trkpt lat="45.80415" lon="6.16085">
        <ele>798</ele>
        <time>2021-09-11T09:02:49.210Z</time>
      </trkpt>
      <trkpt lat="45.80415" lon="6.16085">
        <ele>798</ele>
        <time>2021-09-11T09:02:50.210Z</time>
      </trkpt>
      <trkpt lat="45.80415" lon="6.16085">
        <ele>798</ele>
        <time>2021-09-11T09:02:51.210Z</time>
      </trkpt>
      <trkpt lat="45.80415" lon="6.16085">
        <ele>798</ele>
        <time>2021-09-11T09:02:52.210Z</time>
      </trkpt>
      <trkpt lat="45.80415" lon="6.16085">
        <ele>798</ele>
        <time>2021-09-11T09:02:53.211Z</time>
      </trkpt>
      <trkpt lat="45.80415" lon="6.16085">
        <ele>798</ele>
        <time>2021-09-11T09:02:54.210Z</time>
      </trkpt>
      <trkpt lat="45.80415" lon="6.16085">
        <ele>798</ele>
        <time>2021-09-11T09:02:55.210Z</time>
      </trkpt>
      <trkpt lat="45.80415" lon="6.16085">
        <ele>798</ele>
        <time>2021-09-11T09:02:56.210Z</time>
      </trkpt>
      <trkpt lat="45.80415" lon="6.16085">
        <ele>798</ele>
        <time>2021-09-11T09:02:57.210Z</time>
      </trkpt>
      <trkpt lat="45.80415" lon="6.16085">
        <ele>798</ele>
        <time>2021-09-11T09:02:58.210Z</time>
      </trkpt>
      <trkpt lat="45.80415" lon="6.16085">
        <ele>799</ele>
        <time>2021-09-11T09:02:59.210Z</time>
      </trkpt>
      <trkpt lat="45.80415" lon="6.16085">
        <ele>799</ele>
        <time>2021-09-11T09:03:00.211Z</time>
      </trkpt>
      <trkpt lat="45.80415" lon="6.16085">
        <ele>799</ele>
        <time>2021-09-11T09:03:01.210Z</time>
      </trkpt>
      <trkpt lat="45.80415" lon="6.16085">
        <ele>799</ele>
        <time>2021-09-11T09:03:02.211Z</time>
      </trkpt>
      <trkpt lat="45.80415" lon="6.16085">
        <ele>799</ele>
        <time>2021-09-11T09:03:03.210Z</time>
      </trkpt>
      <trkpt lat="45.80415" lon="6.16085">
        <ele>799</ele>
        <time>2021-09-11T09:03:04.211Z</time>
      </trkpt>
      <trkpt lat="45.80415" lon="6.16085">
        <ele>799</ele>
        <time>2021-09-11T09:03:05.210Z</time>
      </trkpt>
      <trkpt lat="45.80415" lon="6.16085">
        <ele>799</ele>
        <time>2021-09-11T09:03:06.210Z</time>
      </trkpt>
      <trkpt lat="45.80415" lon="6.16085">
        <ele>799</ele>
        <time>2021-09-11T09:03:07.211Z</time>
      </trkpt>
      <trkpt lat="45.80415" lon="6.16085">
        <ele>799</ele>
        <time>2021-09-11T09:03:08.210Z</time>
      </trkpt>
      <trkpt lat="45.80415" lon="6.16085">
        <ele>799</ele>
        <time>2021-09-11T09:03:09.210Z</time>
      </trkpt>
      <trkpt lat="45.80415" lon="6.16085">
        <ele>799</ele>
        <time>2021-09-11T09:03:10.210Z</time>
      </trkpt>
      <trkpt lat="45.80415" lon="6.16085">
        <ele>799</ele>
        <time>2021-09-11T09:03:11.210Z</time>
      </trkpt>
      <trkpt lat="45.80415" lon="6.16085">
        <ele>799</ele>
        <time>2021-09-11T09:03:12.210Z</time>
      </trkpt>
      <trkpt lat="45.80415" lon="6.16085">
        <ele>799</ele>
        <time>2021-09-11T09:03:13.210Z</time>
      </trkpt>
      <trkpt lat="45.80415" lon="6.16085">
        <ele>799</ele>
        <time>2021-09-11T09:03:14.211Z</time>
      </trkpt>
      <trkpt lat="45.80415" lon="6.16085">
        <ele>799</ele>
        <time>2021-09-11T09:03:15.210Z</time>
      </trkpt>
      <trkpt lat="45.80415" lon="6.16085">
        <ele>799</ele>
        <time>2021-09-11T09:03:16.210Z</time>
      </trkpt>
      <trkpt lat="45.80415" lon="6.16085">
        <ele>799</ele>
        <time>2021-09-11T09:03:17.210Z</time>
      </trkpt>
      <trkpt lat="45.80415" lon="6.16085">
        <ele>799</ele>
        <time>2021-09-11T09:03:18.210Z</time>
      </trkpt>
      <trkpt lat="45.80415" lon="6.16085">
        <ele>799</ele>
        <time>2021-09-11T09:03:19.211Z</time>
      </trkpt>
      <trkpt lat="45.80415" lon="6.16085">
        <ele>800</ele>
        <time>2021-09-11T09:03:20.210Z</time>
      </trkpt>
      <trkpt lat="45.80415" lon="6.16085">
        <ele>800</ele>
        <time>2021-09-11T09:03:21.210Z</time>
      </trkpt>
      <trkpt lat="45.80415" lon="6.16085">
        <ele>800</ele>
        <time>2021-09-11T09:03:22.211Z</time>
      </trkpt>
      <trkpt lat="45.80415" lon="6.16085">
        <ele>800</ele>
        <time>2021-09-11T09:03:23.211Z</time>
      </trkpt>
      <trkpt lat="45.80415" lon="6.16085">
        <ele>800</ele>
        <time>2021-09-11T09:03:24.211Z</time>
      </trkpt>
      <trkpt lat="45.80415" lon="6.16085">
        <ele>800</ele>
        <time>2021-09-11T09:03:25.210Z</time>
      </trkpt>
      <trkpt lat="45.80415" lon="6.16085">
        <ele>800</ele>
        <time>2021-09-11T09:03:26.210Z</time>
      </trkpt>
      <trkpt lat="45.80415" lon="6.16085">
        <ele>800</ele>
        <time>2021-09-11T09:03:27.210Z</time>
      </trkpt>
      <trkpt lat="45.80415" lon="6.16085">
        <ele>800</ele>
        <time>2021-09-11T09:03:28.211Z</time>
      </trkpt>
      <trkpt lat="45.80414" lon="6.16084">
        <ele>800</ele>
        <time>2021-09-11T09:03:29.210Z</time>
      </trkpt>
      <trkpt lat="45.80414" lon="6.16081">
        <ele>800</ele>
        <time>2021-09-11T09:03:30.210Z</time>
      </trkpt>
      <trkpt lat="45.80414" lon="6.16077">
        <ele>800</ele>
        <time>2021-09-11T09:03:31.210Z</time>
      </trkpt>
      <trkpt lat="45.80415" lon="6.16073">
        <ele>800</ele>
        <time>2021-09-11T09:03:32.210Z</time>
      </trkpt>
      <trkpt lat="45.80417" lon="6.1607">
        <ele>799</ele>
        <time>2021-09-11T09:03:33.210Z</time>
      </trkpt>
      <trkpt lat="45.8042" lon="6.16068">
        <ele>799</ele>
        <time>2021-09-11T09:03:34.210Z</time>
      </trkpt>
      <trkpt lat="45.80423" lon="6.16066">
        <ele>799</ele>
        <time>2021-09-11T09:03:35.211Z</time>
      </trkpt>
      <trkpt lat="45.80427" lon="6.16062">
        <ele>799</ele>
        <time>2021-09-11T09:03:36.210Z</time>
      </trkpt>
      <trkpt lat="45.8043" lon="6.16057">
        <ele>798</ele>
        <time>2021-09-11T09:03:37.211Z</time>
      </trkpt>
      <trkpt lat="45.80432" lon="6.16051">
        <ele>798</ele>
        <time>2021-09-11T09:03:38.210Z</time>
      </trkpt>
      <trkpt lat="45.80435" lon="6.16047">
        <ele>798</ele>
        <time>2021-09-11T09:03:39.210Z</time>
      </trkpt>
      <trkpt lat="45.80437" lon="6.16039">
        <ele>797</ele>
        <time>2021-09-11T09:03:40.210Z</time>
      </trkpt>
      <trkpt lat="45.80439" lon="6.16033">
        <ele>796</ele>
        <time>2021-09-11T09:03:41.210Z</time>
      </trkpt>
      <trkpt lat="45.8044" lon="6.16028">
        <ele>796</ele>
        <time>2021-09-11T09:03:42.210Z</time>
      </trkpt>
      <trkpt lat="45.80442" lon="6.16023">
        <ele>795</ele>
        <time>2021-09-11T09:03:43.210Z</time>
      </trkpt>
      <trkpt lat="45.80443" lon="6.16021">
        <ele>795</ele>
        <time>2021-09-11T09:03:44.210Z</time>
      </trkpt>
      <trkpt lat="45.80443" lon="6.1602">
        <ele>795</ele>
        <time>2021-09-11T09:03:45.210Z</time>
      </trkpt>
      <trkpt lat="45.80444" lon="6.16019">
        <ele>794</ele>
        <time>2021-09-11T09:03:46.211Z</time>
      </trkpt>
      <trkpt lat="45.80444" lon="6.16019">
        <ele>794</ele>
        <time>2021-09-11T09:03:47.211Z</time>
      </trkpt>
      <trkpt lat="45.80444" lon="6.16019">
        <ele>794</ele>
        <time>2021-09-11T09:03:48.210Z</time>
      </trkpt>
      <trkpt lat="45.80444" lon="6.16019">
        <ele>794</ele>
        <time>2021-09-11T09:03:49.211Z</time>
      </trkpt>
      <trkpt lat="45.80444" lon="6.16019">
        <ele>794</ele>
        <time>2021-09-11T09:03:50.210Z</time>
      </trkpt>
      <trkpt lat="45.80444" lon="6.16019">
        <ele>795</ele>
        <time>2021-09-11T09:03:51.210Z</time>
      </trkpt>
      <trkpt lat="45.80444" lon="6.16019">
        <ele>795</ele>
        <time>2021-09-11T09:03:52.210Z</time>
      </trkpt>
      <trkpt lat="45.80444" lon="6.16019">
        <ele>794</ele>
        <time>2021-09-11T09:03:53.210Z</time>
      </trkpt>
      <trkpt lat="45.80444" lon="6.16019">
        <ele>794</ele>
        <time>2021-09-11T09:03:54.210Z</time>
      </trkpt>
      <trkpt lat="45.80444" lon="6.16019">
        <ele>794</ele>
        <time>2021-09-11T09:03:55.211Z</time>
      </trkpt>
      <trkpt lat="45.80444" lon="6.16019">
        <ele>793</ele>
        <time>2021-09-11T09:03:56.211Z</time>
      </trkpt>
      <trkpt lat="45.80444" lon="6.16018">
        <ele>793</ele>
        <time>2021-09-11T09:03:57.210Z</time>
      </trkpt>
      <trkpt lat="45.80447" lon="6.16017">
        <ele>791</ele>
        <time>2021-09-11T09:03:58.211Z</time>
      </trkpt>
      <trkpt lat="45.8045" lon="6.16016">
        <ele>791</ele>
        <time>2021-09-11T09:03:59.210Z</time>
      </trkpt>
      <trkpt lat="45.80454" lon="6.16015">
        <ele>791</ele>
        <time>2021-09-11T09:04:00.210Z</time>
      </trkpt>
      <trkpt lat="45.80458" lon="6.16015">
        <ele>791</ele>
        <time>2021-09-11T09:04:01.211Z</time>
      </trkpt>
      <trkpt lat="45.80462" lon="6.16015">
        <ele>791</ele>
        <time>2021-09-11T09:04:02.211Z</time>
      </trkpt>
      <trkpt lat="45.80467" lon="6.16014">
        <ele>791</ele>
        <time>2021-09-11T09:04:03.210Z</time>
      </trkpt>
      <trkpt lat="45.80473" lon="6.16014">
        <ele>791</ele>
        <time>2021-09-11T09:04:04.210Z</time>
      </trkpt>
      <trkpt lat="45.80478" lon="6.16015">
        <ele>791</ele>
        <time>2021-09-11T09:04:05.210Z</time>
      </trkpt>
      <trkpt lat="45.80484" lon="6.16015">
        <ele>791</ele>
        <time>2021-09-11T09:04:06.211Z</time>
      </trkpt>
      <trkpt lat="45.80491" lon="6.16016">
        <ele>791</ele>
        <time>2021-09-11T09:04:07.211Z</time>
      </trkpt>
      <trkpt lat="45.80497" lon="6.16016">
        <ele>790</ele>
        <time>2021-09-11T09:04:08.210Z</time>
      </trkpt>
      <trkpt lat="45.80504" lon="6.16017">
        <ele>789</ele>
        <time>2021-09-11T09:04:09.211Z</time>
      </trkpt>
      <trkpt lat="45.80511" lon="6.16017">
        <ele>789</ele>
        <time>2021-09-11T09:04:10.211Z</time>
      </trkpt>
      <trkpt lat="45.80519" lon="6.16018">
        <ele>788</ele>
        <time>2021-09-11T09:04:11.211Z</time>
      </trkpt>
      <trkpt lat="45.80526" lon="6.16019">
        <ele>788</ele>
        <time>2021-09-11T09:04:12.211Z</time>
      </trkpt>
      <trkpt lat="45.80533" lon="6.1602">
        <ele>788</ele>
        <time>2021-09-11T09:04:13.211Z</time>
      </trkpt>
      <trkpt lat="45.8054" lon="6.16021">
        <ele>788</ele>
        <time>2021-09-11T09:04:14.211Z</time>
      </trkpt>
      <trkpt lat="45.80548" lon="6.16021">
        <ele>788</ele>
        <time>2021-09-11T09:04:15.211Z</time>
      </trkpt>
      <trkpt lat="45.80555" lon="6.16022">
        <ele>787</ele>
        <time>2021-09-11T09:04:16.211Z</time>
      </trkpt>
      <trkpt lat="45.80562" lon="6.16023">
        <ele>787</ele>
        <time>2021-09-11T09:04:17.210Z</time>
      </trkpt>
      <trkpt lat="45.80569" lon="6.16023">
        <ele>786</ele>
        <time>2021-09-11T09:04:18.210Z</time>
      </trkpt>
      <trkpt lat="45.80577" lon="6.16023">
        <ele>786</ele>
        <time>2021-09-11T09:04:19.211Z</time>
      </trkpt>
      <trkpt lat="45.80584" lon="6.16022">
        <ele>785</ele>
        <time>2021-09-11T09:04:20.211Z</time>
      </trkpt>
      <trkpt lat="45.80591" lon="6.16019">
        <ele>785</ele>
        <time>2021-09-11T09:04:21.210Z</time>
      </trkpt>
      <trkpt lat="45.80597" lon="6.16014">
        <ele>784</ele>
        <time>2021-09-11T09:04:22.211Z</time>
      </trkpt>
      <trkpt lat="45.80603" lon="6.16007">
        <ele>784</ele>
        <time>2021-09-11T09:04:23.211Z</time>
      </trkpt>
      <trkpt lat="45.80609" lon="6.15999">
        <ele>784</ele>
        <time>2021-09-11T09:04:24.210Z</time>
      </trkpt>
      <trkpt lat="45.80615" lon="6.1599">
        <ele>783</ele>
        <time>2021-09-11T09:04:25.210Z</time>
      </trkpt>
      <trkpt lat="45.80621" lon="6.15981">
        <ele>783</ele>
        <time>2021-09-11T09:04:26.210Z</time>
      </trkpt>
      <trkpt lat="45.80626" lon="6.1597">
        <ele>782</ele>
        <time>2021-09-11T09:04:27.210Z</time>
      </trkpt>
      <trkpt lat="45.80632" lon="6.1596">
        <ele>782</ele>
        <time>2021-09-11T09:04:28.211Z</time>
      </trkpt>
      <trkpt lat="45.80638" lon="6.15949">
        <ele>781</ele>
        <time>2021-09-11T09:04:29.211Z</time>
      </trkpt>
      <trkpt lat="45.80643" lon="6.15938">
        <ele>781</ele>
        <time>2021-09-11T09:04:30.211Z</time>
      </trkpt>
      <trkpt lat="45.80649" lon="6.15927">
        <ele>780</ele>
        <time>2021-09-11T09:04:31.210Z</time>
      </trkpt>
      <trkpt lat="45.80655" lon="6.15915">
        <ele>780</ele>
        <time>2021-09-11T09:04:32.211Z</time>
      </trkpt>
      <trkpt lat="45.80661" lon="6.15904">
        <ele>779</ele>
        <time>2021-09-11T09:04:33.211Z</time>
      </trkpt>
      <trkpt lat="45.80666" lon="6.15893">
        <ele>778</ele>
        <time>2021-09-11T09:04:34.210Z</time>
      </trkpt>
      <trkpt lat="45.80672" lon="6.15883">
        <ele>777</ele>
        <time>2021-09-11T09:04:35.210Z</time>
      </trkpt>
      <trkpt lat="45.80678" lon="6.15874">
        <ele>776</ele>
        <time>2021-09-11T09:04:36.211Z</time>
      </trkpt>
      <trkpt lat="45.80684" lon="6.15866">
        <ele>776</ele>
        <time>2021-09-11T09:04:37.211Z</time>
      </trkpt>
      <trkpt lat="45.80689" lon="6.15858">
        <ele>775</ele>
        <time>2021-09-11T09:04:38.210Z</time>
      </trkpt>
      <trkpt lat="45.80694" lon="6.15852">
        <ele>774</ele>
        <time>2021-09-11T09:04:39.210Z</time>
      </trkpt>
      <trkpt lat="45.807" lon="6.15846">
        <ele>774</ele>
        <time>2021-09-11T09:04:40.211Z</time>
      </trkpt>
      <trkpt lat="45.80706" lon="6.15842">
        <ele>773</ele>
        <time>2021-09-11T09:04:41.211Z</time>
      </trkpt>
      <trkpt lat="45.80712" lon="6.1584">
        <ele>773</ele>
        <time>2021-09-11T09:04:42.210Z</time>
      </trkpt>
      <trkpt lat="45.80718" lon="6.15841">
        <ele>773</ele>
        <time>2021-09-11T09:04:43.211Z</time>
      </trkpt>
      <trkpt lat="45.80723" lon="6.15844">
        <ele>773</ele>
        <time>2021-09-11T09:04:44.210Z</time>
      </trkpt>
      <trkpt lat="45.80728" lon="6.1585">
        <ele>772</ele>
        <time>2021-09-11T09:04:45.210Z</time>
      </trkpt>
      <trkpt lat="45.8073" lon="6.15856">
        <ele>772</ele>
        <time>2021-09-11T09:04:46.211Z</time>
      </trkpt>
      <trkpt lat="45.80732" lon="6.15863">
        <ele>772</ele>
        <time>2021-09-11T09:04:47.210Z</time>
      </trkpt>
      <trkpt lat="45.80731" lon="6.1587">
        <ele>772</ele>
        <time>2021-09-11T09:04:48.211Z</time>
      </trkpt>
      <trkpt lat="45.80729" lon="6.15877">
        <ele>771</ele>
        <time>2021-09-11T09:04:49.210Z</time>
      </trkpt>
      <trkpt lat="45.80727" lon="6.15883">
        <ele>771</ele>
        <time>2021-09-11T09:04:50.210Z</time>
      </trkpt>
      <trkpt lat="45.80722" lon="6.1589">
        <ele>771</ele>
        <time>2021-09-11T09:04:51.210Z</time>
      </trkpt>
      <trkpt lat="45.80718" lon="6.15896">
        <ele>770</ele>
        <time>2021-09-11T09:04:52.211Z</time>
      </trkpt>
      <trkpt lat="45.80714" lon="6.15904">
        <ele>770</ele>
        <time>2021-09-11T09:04:53.210Z</time>
      </trkpt>
      <trkpt lat="45.8071" lon="6.15911">
        <ele>770</ele>
        <time>2021-09-11T09:04:54.211Z</time>
      </trkpt>
      <trkpt lat="45.80708" lon="6.15919">
        <ele>769</ele>
        <time>2021-09-11T09:04:55.211Z</time>
      </trkpt>
      <trkpt lat="45.80705" lon="6.15926">
        <ele>768</ele>
        <time>2021-09-11T09:04:56.211Z</time>
      </trkpt>
      <trkpt lat="45.80703" lon="6.15935">
        <ele>767</ele>
        <time>2021-09-11T09:04:57.211Z</time>
      </trkpt>
      <trkpt lat="45.80701" lon="6.15944">
        <ele>767</ele>
        <time>2021-09-11T09:04:58.210Z</time>
      </trkpt>
      <trkpt lat="45.80699" lon="6.15953">
        <ele>766</ele>
        <time>2021-09-11T09:04:59.210Z</time>
      </trkpt>
      <trkpt lat="45.80697" lon="6.15963">
        <ele>765</ele>
        <time>2021-09-11T09:05:00.210Z</time>
      </trkpt>
      <trkpt lat="45.80695" lon="6.15973">
        <ele>765</ele>
        <time>2021-09-11T09:05:01.211Z</time>
      </trkpt>
      <trkpt lat="45.80694" lon="6.15984">
        <ele>765</ele>
        <time>2021-09-11T09:05:02.210Z</time>
      </trkpt>
      <trkpt lat="45.80693" lon="6.15997">
        <ele>764</ele>
        <time>2021-09-11T09:05:03.211Z</time>
      </trkpt>
      <trkpt lat="45.80693" lon="6.16006">
        <ele>764</ele>
        <time>2021-09-11T09:05:04.211Z</time>
      </trkpt>
      <trkpt lat="45.80693" lon="6.16016">
        <ele>764</ele>
        <time>2021-09-11T09:05:05.210Z</time>
      </trkpt>
      <trkpt lat="45.80694" lon="6.16026">
        <ele>764</ele>
        <time>2021-09-11T09:05:06.211Z</time>
      </trkpt>
      <trkpt lat="45.80695" lon="6.16038">
        <ele>763</ele>
        <time>2021-09-11T09:05:07.211Z</time>
      </trkpt>
      <trkpt lat="45.80696" lon="6.16046">
        <ele>763</ele>
        <time>2021-09-11T09:05:08.211Z</time>
      </trkpt>
      <trkpt lat="45.80697" lon="6.16055">
        <ele>762</ele>
        <time>2021-09-11T09:05:09.210Z</time>
      </trkpt>
      <trkpt lat="45.80698" lon="6.16065">
        <ele>762</ele>
        <time>2021-09-11T09:05:10.211Z</time>
      </trkpt>
      <trkpt lat="45.80698" lon="6.16074">
        <ele>761</ele>
        <time>2021-09-11T09:05:11.211Z</time>
      </trkpt>
      <trkpt lat="45.80699" lon="6.16083">
        <ele>761</ele>
        <time>2021-09-11T09:05:12.210Z</time>
      </trkpt>
      <trkpt lat="45.807" lon="6.16091">
        <ele>761</ele>
        <time>2021-09-11T09:05:13.211Z</time>
      </trkpt>
      <trkpt lat="45.807" lon="6.16099">
        <ele>761</ele>
        <time>2021-09-11T09:05:14.210Z</time>
      </trkpt>
      <trkpt lat="45.80701" lon="6.16106">
        <ele>761</ele>
        <time>2021-09-11T09:05:15.211Z</time>
      </trkpt>
      <trkpt lat="45.80701" lon="6.16113">
        <ele>761</ele>
        <time>2021-09-11T09:05:16.210Z</time>
      </trkpt>
      <trkpt lat="45.80702" lon="6.1612">
        <ele>761</ele>
        <time>2021-09-11T09:05:17.211Z</time>
      </trkpt>
      <trkpt lat="45.80702" lon="6.16126">
        <ele>761</ele>
        <time>2021-09-11T09:05:18.210Z</time>
      </trkpt>
      <trkpt lat="45.80703" lon="6.16133">
        <ele>761</ele>
        <time>2021-09-11T09:05:19.211Z</time>
      </trkpt>
      <trkpt lat="45.80703" lon="6.16139">
        <ele>761</ele>
        <time>2021-09-11T09:05:20.211Z</time>
      </trkpt>
      <trkpt lat="45.80704" lon="6.16145">
        <ele>761</ele>
        <time>2021-09-11T09:05:21.211Z</time>
      </trkpt>
      <trkpt lat="45.80704" lon="6.16151">
        <ele>760</ele>
        <time>2021-09-11T09:05:22.211Z</time>
      </trkpt>
      <trkpt lat="45.80704" lon="6.16157">
        <ele>760</ele>
        <time>2021-09-11T09:05:23.210Z</time>
      </trkpt>
      <trkpt lat="45.80705" lon="6.16163">
        <ele>760</ele>
        <time>2021-09-11T09:05:24.210Z</time>
      </trkpt>
      <trkpt lat="45.80705" lon="6.16169">
        <ele>760</ele>
        <time>2021-09-11T09:05:25.211Z</time>
      </trkpt>
      <trkpt lat="45.80705" lon="6.16174">
        <ele>760</ele>
        <time>2021-09-11T09:05:26.211Z</time>
      </trkpt>
      <trkpt lat="45.80705" lon="6.16179">
        <ele>761</ele>
        <time>2021-09-11T09:05:27.210Z</time>
      </trkpt>
      <trkpt lat="45.80705" lon="6.16184">
        <ele>761</ele>
        <time>2021-09-11T09:05:28.210Z</time>
      </trkpt>
      <trkpt lat="45.80705" lon="6.1619">
        <ele>761</ele>
        <time>2021-09-11T09:05:29.211Z</time>
      </trkpt>
      <trkpt lat="45.80705" lon="6.16196">
        <ele>761</ele>
        <time>2021-09-11T09:05:30.211Z</time>
      </trkpt>
      <trkpt lat="45.80706" lon="6.16203">
        <ele>761</ele>
        <time>2021-09-11T09:05:31.211Z</time>
      </trkpt>
      <trkpt lat="45.80707" lon="6.16209">
        <ele>761</ele>
        <time>2021-09-11T09:05:32.210Z</time>
      </trkpt>
      <trkpt lat="45.80707" lon="6.16216">
        <ele>761</ele>
        <time>2021-09-11T09:05:33.210Z</time>
      </trkpt>
      <trkpt lat="45.80708" lon="6.16223">
        <ele>761</ele>
        <time>2021-09-11T09:05:34.210Z</time>
      </trkpt>
      <trkpt lat="45.80709" lon="6.16229">
        <ele>761</ele>
        <time>2021-09-11T09:05:35.210Z</time>
      </trkpt>
      <trkpt lat="45.8071" lon="6.16236">
        <ele>761</ele>
        <time>2021-09-11T09:05:36.211Z</time>
      </trkpt>
      <trkpt lat="45.8071" lon="6.16243">
        <ele>762</ele>
        <time>2021-09-11T09:05:37.211Z</time>
      </trkpt>
      <trkpt lat="45.80711" lon="6.1625">
        <ele>762</ele>
        <time>2021-09-11T09:05:38.210Z</time>
      </trkpt>
      <trkpt lat="45.80711" lon="6.16258">
        <ele>762</ele>
        <time>2021-09-11T09:05:39.211Z</time>
      </trkpt>
      <trkpt lat="45.80712" lon="6.16266">
        <ele>763</ele>
        <time>2021-09-11T09:05:40.211Z</time>
      </trkpt>
      <trkpt lat="45.80712" lon="6.16273">
        <ele>762</ele>
        <time>2021-09-11T09:05:41.210Z</time>
      </trkpt>
      <trkpt lat="45.80713" lon="6.16282">
        <ele>762</ele>
        <time>2021-09-11T09:05:42.211Z</time>
      </trkpt>
      <trkpt lat="45.80713" lon="6.1629">
        <ele>762</ele>
        <time>2021-09-11T09:05:43.210Z</time>
      </trkpt>
      <trkpt lat="45.80714" lon="6.16298">
        <ele>762</ele>
        <time>2021-09-11T09:05:44.210Z</time>
      </trkpt>
      <trkpt lat="45.80714" lon="6.16306">
        <ele>762</ele>
        <time>2021-09-11T09:05:45.210Z</time>
      </trkpt>
      <trkpt lat="45.80715" lon="6.16314">
        <ele>762</ele>
        <time>2021-09-11T09:05:46.210Z</time>
      </trkpt>
      <trkpt lat="45.80717" lon="6.16322">
        <ele>762</ele>
        <time>2021-09-11T09:05:47.211Z</time>
      </trkpt>
      <trkpt lat="45.80718" lon="6.1633">
        <ele>762</ele>
        <time>2021-09-11T09:05:48.210Z</time>
      </trkpt>
      <trkpt lat="45.80719" lon="6.16338">
        <ele>761</ele>
        <time>2021-09-11T09:05:49.211Z</time>
      </trkpt>
      <trkpt lat="45.80721" lon="6.16346">
        <ele>761</ele>
        <time>2021-09-11T09:05:50.211Z</time>
      </trkpt>
      <trkpt lat="45.80723" lon="6.16353">
        <ele>760</ele>
        <time>2021-09-11T09:05:51.210Z</time>
      </trkpt>
      <trkpt lat="45.80725" lon="6.16362">
        <ele>760</ele>
        <time>2021-09-11T09:05:52.211Z</time>
      </trkpt>
      <trkpt lat="45.80729" lon="6.1637">
        <ele>759</ele>
        <time>2021-09-11T09:05:53.210Z</time>
      </trkpt>
      <trkpt lat="45.80732" lon="6.16378">
        <ele>759</ele>
        <time>2021-09-11T09:05:54.210Z</time>
      </trkpt>
      <trkpt lat="45.80736" lon="6.16385">
        <ele>759</ele>
        <time>2021-09-11T09:05:55.211Z</time>
      </trkpt>
      <trkpt lat="45.8074" lon="6.16392">
        <ele>758</ele>
        <time>2021-09-11T09:05:56.211Z</time>
      </trkpt>
      <trkpt lat="45.80745" lon="6.16399">
        <ele>758</ele>
        <time>2021-09-11T09:05:57.211Z</time>
      </trkpt>
      <trkpt lat="45.80749" lon="6.16406">
        <ele>757</ele>
        <time>2021-09-11T09:05:58.211Z</time>
      </trkpt>
      <trkpt lat="45.80753" lon="6.16413">
        <ele>756</ele>
        <time>2021-09-11T09:05:59.210Z</time>
      </trkpt>
      <trkpt lat="45.80758" lon="6.16421">
        <ele>756</ele>
        <time>2021-09-11T09:06:00.211Z</time>
      </trkpt>
      <trkpt lat="45.80762" lon="6.16427">
        <ele>755</ele>
        <time>2021-09-11T09:06:01.211Z</time>
      </trkpt>
      <trkpt lat="45.80766" lon="6.16434">
        <ele>755</ele>
        <time>2021-09-11T09:06:02.211Z</time>
      </trkpt>
      <trkpt lat="45.8077" lon="6.16441">
        <ele>754</ele>
        <time>2021-09-11T09:06:03.211Z</time>
      </trkpt>
      <trkpt lat="45.80775" lon="6.16447">
        <ele>754</ele>
        <time>2021-09-11T09:06:04.210Z</time>
      </trkpt>
      <trkpt lat="45.80779" lon="6.16454">
        <ele>754</ele>
        <time>2021-09-11T09:06:05.211Z</time>
      </trkpt>
      <trkpt lat="45.80784" lon="6.16462">
        <ele>754</ele>
        <time>2021-09-11T09:06:06.210Z</time>
      </trkpt>
      <trkpt lat="45.80789" lon="6.16469">
        <ele>754</ele>
        <time>2021-09-11T09:06:07.210Z</time>
      </trkpt>
      <trkpt lat="45.80792" lon="6.16474">
        <ele>754</ele>
        <time>2021-09-11T09:06:08.210Z</time>
      </trkpt>
      <trkpt lat="45.80797" lon="6.16481">
        <ele>754</ele>
        <time>2021-09-11T09:06:09.211Z</time>
      </trkpt>
      <trkpt lat="45.80802" lon="6.16489">
        <ele>754</ele>
        <time>2021-09-11T09:06:10.210Z</time>
      </trkpt>
      <trkpt lat="45.80806" lon="6.16494">
        <ele>754</ele>
        <time>2021-09-11T09:06:11.210Z</time>
      </trkpt>
      <trkpt lat="45.80811" lon="6.16501">
        <ele>753</ele>
        <time>2021-09-11T09:06:12.211Z</time>
      </trkpt>
      <trkpt lat="45.80815" lon="6.16507">
        <ele>753</ele>
        <time>2021-09-11T09:06:13.211Z</time>
      </trkpt>
      <trkpt lat="45.8082" lon="6.16513">
        <ele>753</ele>
        <time>2021-09-11T09:06:14.210Z</time>
      </trkpt>
      <trkpt lat="45.80825" lon="6.1652">
        <ele>753</ele>
        <time>2021-09-11T09:06:15.211Z</time>
      </trkpt>
      <trkpt lat="45.80829" lon="6.16524">
        <ele>752</ele>
        <time>2021-09-11T09:06:16.211Z</time>
      </trkpt>
      <trkpt lat="45.80835" lon="6.16528">
        <ele>752</ele>
        <time>2021-09-11T09:06:17.210Z</time>
      </trkpt>
      <trkpt lat="45.8084" lon="6.16531">
        <ele>752</ele>
        <time>2021-09-11T09:06:18.210Z</time>
      </trkpt>
      <trkpt lat="45.80846" lon="6.16534">
        <ele>751</ele>
        <time>2021-09-11T09:06:19.211Z</time>
      </trkpt>
      <trkpt lat="45.80854" lon="6.16536">
        <ele>751</ele>
        <time>2021-09-11T09:06:20.210Z</time>
      </trkpt>
      <trkpt lat="45.8086" lon="6.16536">
        <ele>750</ele>
        <time>2021-09-11T09:06:21.211Z</time>
      </trkpt>
      <trkpt lat="45.80867" lon="6.16536">
        <ele>750</ele>
        <time>2021-09-11T09:06:22.211Z</time>
      </trkpt>
      <trkpt lat="45.80873" lon="6.16536">
        <ele>750</ele>
        <time>2021-09-11T09:06:23.211Z</time>
      </trkpt>
      <trkpt lat="45.80881" lon="6.16535">
        <ele>749</ele>
        <time>2021-09-11T09:06:24.210Z</time>
      </trkpt>
      <trkpt lat="45.80887" lon="6.16534">
        <ele>749</ele>
        <time>2021-09-11T09:06:25.211Z</time>
      </trkpt>
      <trkpt lat="45.80895" lon="6.16533">
        <ele>748</ele>
        <time>2021-09-11T09:06:26.211Z</time>
      </trkpt>
      <trkpt lat="45.80903" lon="6.16531">
        <ele>748</ele>
        <time>2021-09-11T09:06:27.210Z</time>
      </trkpt>
      <trkpt lat="45.80911" lon="6.1653">
        <ele>748</ele>
        <time>2021-09-11T09:06:28.210Z</time>
      </trkpt>
      <trkpt lat="45.80919" lon="6.16529">
        <ele>748</ele>
        <time>2021-09-11T09:06:29.210Z</time>
      </trkpt>
      <trkpt lat="45.80928" lon="6.16529">
        <ele>749</ele>
        <time>2021-09-11T09:06:30.211Z</time>
      </trkpt>
      <trkpt lat="45.80935" lon="6.1653">
        <ele>749</ele>
        <time>2021-09-11T09:06:31.211Z</time>
      </trkpt>
      <trkpt lat="45.8094" lon="6.16532">
        <ele>749</ele>
        <time>2021-09-11T09:06:32.210Z</time>
      </trkpt>
      <trkpt lat="45.80947" lon="6.16535">
        <ele>749</ele>
        <time>2021-09-11T09:06:33.211Z</time>
      </trkpt>
      <trkpt lat="45.80954" lon="6.1654">
        <ele>748</ele>
        <time>2021-09-11T09:06:34.211Z</time>
      </trkpt>
      <trkpt lat="45.8096" lon="6.16545">
        <ele>748</ele>
        <time>2021-09-11T09:06:35.210Z</time>
      </trkpt>
      <trkpt lat="45.80966" lon="6.16551">
        <ele>747</ele>
        <time>2021-09-11T09:06:36.211Z</time>
      </trkpt>
      <trkpt lat="45.80972" lon="6.16556">
        <ele>746</ele>
        <time>2021-09-11T09:06:37.211Z</time>
      </trkpt>
      <trkpt lat="45.80977" lon="6.16562">
        <ele>745</ele>
        <time>2021-09-11T09:06:38.211Z</time>
      </trkpt>
      <trkpt lat="45.80983" lon="6.16569">
        <ele>744</ele>
        <time>2021-09-11T09:06:39.211Z</time>
      </trkpt>
      <trkpt lat="45.80989" lon="6.16577">
        <ele>744</ele>
        <time>2021-09-11T09:06:40.211Z</time>
      </trkpt>
      <trkpt lat="45.80993" lon="6.16585">
        <ele>744</ele>
        <time>2021-09-11T09:06:41.210Z</time>
      </trkpt>
      <trkpt lat="45.80996" lon="6.16596">
        <ele>745</ele>
        <time>2021-09-11T09:06:42.210Z</time>
      </trkpt>
      <trkpt lat="45.80999" lon="6.16609">
        <ele>745</ele>
        <time>2021-09-11T09:06:43.211Z</time>
      </trkpt>
      <trkpt lat="45.81" lon="6.16619">
        <ele>745</ele>
        <time>2021-09-11T09:06:44.211Z</time>
      </trkpt>
      <trkpt lat="45.81" lon="6.16631">
        <ele>745</ele>
        <time>2021-09-11T09:06:45.211Z</time>
      </trkpt>
      <trkpt lat="45.81" lon="6.16642">
        <ele>745</ele>
        <time>2021-09-11T09:06:46.210Z</time>
      </trkpt>
      <trkpt lat="45.81" lon="6.16655">
        <ele>744</ele>
        <time>2021-09-11T09:06:47.210Z</time>
      </trkpt>
      <trkpt lat="45.81001" lon="6.16664">
        <ele>744</ele>
        <time>2021-09-11T09:06:48.211Z</time>
      </trkpt>
      <trkpt lat="45.81003" lon="6.16675">
        <ele>743</ele>
        <time>2021-09-11T09:06:49.211Z</time>
      </trkpt>
      <trkpt lat="45.81006" lon="6.16682">
        <ele>743</ele>
        <time>2021-09-11T09:06:50.210Z</time>
      </trkpt>
      <trkpt lat="45.8101" lon="6.1669">
        <ele>742</ele>
        <time>2021-09-11T09:06:51.210Z</time>
      </trkpt>
      <trkpt lat="45.81016" lon="6.16698">
        <ele>741</ele>
        <time>2021-09-11T09:06:52.211Z</time>
      </trkpt>
      <trkpt lat="45.81022" lon="6.16705">
        <ele>740</ele>
        <time>2021-09-11T09:06:53.211Z</time>
      </trkpt>
      <trkpt lat="45.81028" lon="6.16713">
        <ele>739</ele>
        <time>2021-09-11T09:06:54.210Z</time>
      </trkpt>
      <trkpt lat="45.81032" lon="6.16719">
        <ele>738</ele>
        <time>2021-09-11T09:06:55.210Z</time>
      </trkpt>
      <trkpt lat="45.81038" lon="6.16731">
        <ele>738</ele>
        <time>2021-09-11T09:06:56.211Z</time>
      </trkpt>
      <trkpt lat="45.81042" lon="6.16741">
        <ele>737</ele>
        <time>2021-09-11T09:06:57.211Z</time>
      </trkpt>
      <trkpt lat="45.81046" lon="6.16752">
        <ele>737</ele>
        <time>2021-09-11T09:06:58.210Z</time>
      </trkpt>
      <trkpt lat="45.81048" lon="6.1676">
        <ele>736</ele>
        <time>2021-09-11T09:06:59.211Z</time>
      </trkpt>
      <trkpt lat="45.81051" lon="6.16771">
        <ele>735</ele>
        <time>2021-09-11T09:07:00.211Z</time>
      </trkpt>
      <trkpt lat="45.81055" lon="6.16785">
        <ele>735</ele>
        <time>2021-09-11T09:07:01.211Z</time>
      </trkpt>
      <trkpt lat="45.81058" lon="6.16796">
        <ele>734</ele>
        <time>2021-09-11T09:07:02.210Z</time>
      </trkpt>
      <trkpt lat="45.81062" lon="6.16805">
        <ele>733</ele>
        <time>2021-09-11T09:07:03.211Z</time>
      </trkpt>
      <trkpt lat="45.81065" lon="6.16811">
        <ele>733</ele>
        <time>2021-09-11T09:07:04.211Z</time>
      </trkpt>
      <trkpt lat="45.8107" lon="6.16817">
        <ele>732</ele>
        <time>2021-09-11T09:07:05.211Z</time>
      </trkpt>
      <trkpt lat="45.81077" lon="6.16822">
        <ele>731</ele>
        <time>2021-09-11T09:07:06.211Z</time>
      </trkpt>
      <trkpt lat="45.81083" lon="6.16825">
        <ele>730</ele>
        <time>2021-09-11T09:07:07.210Z</time>
      </trkpt>
      <trkpt lat="45.81089" lon="6.16826">
        <ele>730</ele>
        <time>2021-09-11T09:07:08.210Z</time>
      </trkpt>
      <trkpt lat="45.81095" lon="6.16827">
        <ele>729</ele>
        <time>2021-09-11T09:07:09.211Z</time>
      </trkpt>
      <trkpt lat="45.81103" lon="6.16827">
        <ele>728</ele>
        <time>2021-09-11T09:07:10.210Z</time>
      </trkpt>
      <trkpt lat="45.8111" lon="6.16827">
        <ele>727</ele>
        <time>2021-09-11T09:07:11.211Z</time>
      </trkpt>
      <trkpt lat="45.81117" lon="6.16827">
        <ele>727</ele>
        <time>2021-09-11T09:07:12.211Z</time>
      </trkpt>
      <trkpt lat="45.81123" lon="6.16827">
        <ele>726</ele>
        <time>2021-09-11T09:07:13.211Z</time>
      </trkpt>
      <trkpt lat="45.81129" lon="6.16828">
        <ele>726</ele>
        <time>2021-09-11T09:07:14.210Z</time>
      </trkpt>
      <trkpt lat="45.81137" lon="6.16828">
        <ele>725</ele>
        <time>2021-09-11T09:07:15.211Z</time>
      </trkpt>
      <trkpt lat="45.81144" lon="6.16829">
        <ele>725</ele>
        <time>2021-09-11T09:07:16.211Z</time>
      </trkpt>
      <trkpt lat="45.8115" lon="6.16829">
        <ele>724</ele>
        <time>2021-09-11T09:07:17.210Z</time>
      </trkpt>
      <trkpt lat="45.81155" lon="6.16829">
        <ele>724</ele>
        <time>2021-09-11T09:07:18.210Z</time>
      </trkpt>
      <trkpt lat="45.81162" lon="6.16829">
        <ele>723</ele>
        <time>2021-09-11T09:07:19.211Z</time>
      </trkpt>
      <trkpt lat="45.81168" lon="6.1683">
        <ele>723</ele>
        <time>2021-09-11T09:07:20.211Z</time>
      </trkpt>
      <trkpt lat="45.81175" lon="6.16831">
        <ele>723</ele>
        <time>2021-09-11T09:07:21.211Z</time>
      </trkpt>
      <trkpt lat="45.81182" lon="6.16833">
        <ele>722</ele>
        <time>2021-09-11T09:07:22.211Z</time>
      </trkpt>
      <trkpt lat="45.8119" lon="6.16836">
        <ele>722</ele>
        <time>2021-09-11T09:07:23.210Z</time>
      </trkpt>
      <trkpt lat="45.81199" lon="6.16839">
        <ele>722</ele>
        <time>2021-09-11T09:07:24.210Z</time>
      </trkpt>
      <trkpt lat="45.81205" lon="6.16842">
        <ele>722</ele>
        <time>2021-09-11T09:07:25.211Z</time>
      </trkpt>
      <trkpt lat="45.81213" lon="6.16846">
        <ele>722</ele>
        <time>2021-09-11T09:07:26.210Z</time>
      </trkpt>
      <trkpt lat="45.81221" lon="6.1685">
        <ele>722</ele>
        <time>2021-09-11T09:07:27.211Z</time>
      </trkpt>
      <trkpt lat="45.81229" lon="6.16854">
        <ele>722</ele>
        <time>2021-09-11T09:07:28.210Z</time>
      </trkpt>
      <trkpt lat="45.81238" lon="6.16859">
        <ele>721</ele>
        <time>2021-09-11T09:07:29.210Z</time>
      </trkpt>
      <trkpt lat="45.81248" lon="6.16864">
        <ele>721</ele>
        <time>2021-09-11T09:07:30.210Z</time>
      </trkpt>
      <trkpt lat="45.81255" lon="6.16869">
        <ele>720</ele>
        <time>2021-09-11T09:07:31.210Z</time>
      </trkpt>
      <trkpt lat="45.81264" lon="6.16874">
        <ele>719</ele>
        <time>2021-09-11T09:07:32.211Z</time>
      </trkpt>
      <trkpt lat="45.81273" lon="6.16881">
        <ele>718</ele>
        <time>2021-09-11T09:07:33.211Z</time>
      </trkpt>
      <trkpt lat="45.81282" lon="6.16887">
        <ele>717</ele>
        <time>2021-09-11T09:07:34.211Z</time>
      </trkpt>
      <trkpt lat="45.81291" lon="6.16894">
        <ele>716</ele>
        <time>2021-09-11T09:07:35.210Z</time>
      </trkpt>
      <trkpt lat="45.81301" lon="6.16901">
        <ele>715</ele>
        <time>2021-09-11T09:07:36.210Z</time>
      </trkpt>
      <trkpt lat="45.8131" lon="6.16908">
        <ele>714</ele>
        <time>2021-09-11T09:07:37.210Z</time>
      </trkpt>
      <trkpt lat="45.81318" lon="6.16916">
        <ele>713</ele>
        <time>2021-09-11T09:07:38.211Z</time>
      </trkpt>
      <trkpt lat="45.81326" lon="6.16923">
        <ele>712</ele>
        <time>2021-09-11T09:07:39.210Z</time>
      </trkpt>
      <trkpt lat="45.81333" lon="6.16928">
        <ele>712</ele>
        <time>2021-09-11T09:07:40.210Z</time>
      </trkpt>
      <trkpt lat="45.81339" lon="6.1693">
        <ele>711</ele>
        <time>2021-09-11T09:07:41.210Z</time>
      </trkpt>
      <trkpt lat="45.81345" lon="6.16929">
        <ele>710</ele>
        <time>2021-09-11T09:07:42.210Z</time>
      </trkpt>
      <trkpt lat="45.81349" lon="6.16924">
        <ele>710</ele>
        <time>2021-09-11T09:07:43.210Z</time>
      </trkpt>
      <trkpt lat="45.81351" lon="6.16917">
        <ele>709</ele>
        <time>2021-09-11T09:07:44.210Z</time>
      </trkpt>
      <trkpt lat="45.81351" lon="6.16908">
        <ele>709</ele>
        <time>2021-09-11T09:07:45.210Z</time>
      </trkpt>
      <trkpt lat="45.81349" lon="6.16899">
        <ele>709</ele>
        <time>2021-09-11T09:07:46.211Z</time>
      </trkpt>
      <trkpt lat="45.81346" lon="6.1689">
        <ele>708</ele>
        <time>2021-09-11T09:07:47.211Z</time>
      </trkpt>
      <trkpt lat="45.8134" lon="6.16879">
        <ele>708</ele>
        <time>2021-09-11T09:07:48.210Z</time>
      </trkpt>
      <trkpt lat="45.81334" lon="6.16868">
        <ele>708</ele>
        <time>2021-09-11T09:07:49.210Z</time>
      </trkpt>
      <trkpt lat="45.81328" lon="6.16857">
        <ele>707</ele>
        <time>2021-09-11T09:07:50.210Z</time>
      </trkpt>
      <trkpt lat="45.81323" lon="6.16846">
        <ele>707</ele>
        <time>2021-09-11T09:07:51.211Z</time>
      </trkpt>
      <trkpt lat="45.81317" lon="6.16835">
        <ele>706</ele>
        <time>2021-09-11T09:07:52.210Z</time>
      </trkpt>
      <trkpt lat="45.81311" lon="6.16823">
        <ele>706</ele>
        <time>2021-09-11T09:07:53.210Z</time>
      </trkpt>
      <trkpt lat="45.81305" lon="6.16811">
        <ele>706</ele>
        <time>2021-09-11T09:07:54.211Z</time>
      </trkpt>
      <trkpt lat="45.81299" lon="6.16799">
        <ele>705</ele>
        <time>2021-09-11T09:07:55.211Z</time>
      </trkpt>
      <trkpt lat="45.81292" lon="6.16786">
        <ele>705</ele>
        <time>2021-09-11T09:07:56.211Z</time>
      </trkpt>
      <trkpt lat="45.81286" lon="6.16773">
        <ele>704</ele>
        <time>2021-09-11T09:07:57.211Z</time>
      </trkpt>
      <trkpt lat="45.81279" lon="6.1676">
        <ele>704</ele>
        <time>2021-09-11T09:07:58.210Z</time>
      </trkpt>
      <trkpt lat="45.81271" lon="6.16747">
        <ele>704</ele>
        <time>2021-09-11T09:07:59.211Z</time>
      </trkpt>
      <trkpt lat="45.81265" lon="6.16736">
        <ele>703</ele>
        <time>2021-09-11T09:08:00.211Z</time>
      </trkpt>
      <trkpt lat="45.81259" lon="6.16725">
        <ele>702</ele>
        <time>2021-09-11T09:08:01.210Z</time>
      </trkpt>
      <trkpt lat="45.81251" lon="6.16714">
        <ele>702</ele>
        <time>2021-09-11T09:08:02.211Z</time>
      </trkpt>
      <trkpt lat="45.81247" lon="6.16707">
        <ele>701</ele>
        <time>2021-09-11T09:08:03.210Z</time>
      </trkpt>
      <trkpt lat="45.81243" lon="6.16697">
        <ele>701</ele>
        <time>2021-09-11T09:08:04.211Z</time>
      </trkpt>
      <trkpt lat="45.81242" lon="6.1669">
        <ele>700</ele>
        <time>2021-09-11T09:08:05.211Z</time>
      </trkpt>
      <trkpt lat="45.81243" lon="6.16682">
        <ele>699</ele>
        <time>2021-09-11T09:08:06.211Z</time>
      </trkpt>
      <trkpt lat="45.81247" lon="6.16677">
        <ele>698</ele>
        <time>2021-09-11T09:08:07.211Z</time>
      </trkpt>
      <trkpt lat="45.81252" lon="6.16675">
        <ele>697</ele>
        <time>2021-09-11T09:08:08.211Z</time>
      </trkpt>
      <trkpt lat="45.8126" lon="6.16677">
        <ele>697</ele>
        <time>2021-09-11T09:08:09.210Z</time>
      </trkpt>
      <trkpt lat="45.81266" lon="6.16681">
        <ele>697</ele>
        <time>2021-09-11T09:08:10.211Z</time>
      </trkpt>
      <trkpt lat="45.81272" lon="6.16686">
        <ele>697</ele>
        <time>2021-09-11T09:08:11.210Z</time>
      </trkpt>
      <trkpt lat="45.81278" lon="6.16692">
        <ele>696</ele>
        <time>2021-09-11T09:08:12.211Z</time>
      </trkpt>
      <trkpt lat="45.81284" lon="6.16698">
        <ele>695</ele>
        <time>2021-09-11T09:08:13.210Z</time>
      </trkpt>
      <trkpt lat="45.81289" lon="6.16703">
        <ele>694</ele>
        <time>2021-09-11T09:08:14.211Z</time>
      </trkpt>
      <trkpt lat="45.81292" lon="6.16707">
        <ele>694</ele>
        <time>2021-09-11T09:08:15.211Z</time>
      </trkpt>
      <trkpt lat="45.81296" lon="6.16711">
        <ele>693</ele>
        <time>2021-09-11T09:08:16.211Z</time>
      </trkpt>
      <trkpt lat="45.81301" lon="6.16716">
        <ele>693</ele>
        <time>2021-09-11T09:08:17.211Z</time>
      </trkpt>
      <trkpt lat="45.81305" lon="6.16719">
        <ele>692</ele>
        <time>2021-09-11T09:08:18.211Z</time>
      </trkpt>
      <trkpt lat="45.81308" lon="6.16722">
        <ele>692</ele>
        <time>2021-09-11T09:08:19.210Z</time>
      </trkpt>
      <trkpt lat="45.81311" lon="6.16726">
        <ele>691</ele>
        <time>2021-09-11T09:08:20.211Z</time>
      </trkpt>
      <trkpt lat="45.81315" lon="6.16729">
        <ele>690</ele>
        <time>2021-09-11T09:08:21.211Z</time>
      </trkpt>
      <trkpt lat="45.81319" lon="6.16733">
        <ele>690</ele>
        <time>2021-09-11T09:08:22.211Z</time>
      </trkpt>
      <trkpt lat="45.81323" lon="6.16737">
        <ele>689</ele>
        <time>2021-09-11T09:08:23.211Z</time>
      </trkpt>
      <trkpt lat="45.81326" lon="6.16739">
        <ele>689</ele>
        <time>2021-09-11T09:08:24.211Z</time>
      </trkpt>
      <trkpt lat="45.8133" lon="6.16743">
        <ele>688</ele>
        <time>2021-09-11T09:08:25.211Z</time>
      </trkpt>
      <trkpt lat="45.81334" lon="6.16746">
        <ele>687</ele>
        <time>2021-09-11T09:08:26.210Z</time>
      </trkpt>
      <trkpt lat="45.81339" lon="6.16751">
        <ele>687</ele>
        <time>2021-09-11T09:08:27.210Z</time>
      </trkpt>
      <trkpt lat="45.81343" lon="6.16754">
        <ele>687</ele>
        <time>2021-09-11T09:08:28.211Z</time>
      </trkpt>
      <trkpt lat="45.81347" lon="6.16758">
        <ele>687</ele>
        <time>2021-09-11T09:08:29.211Z</time>
      </trkpt>
      <trkpt lat="45.81352" lon="6.16762">
        <ele>686</ele>
        <time>2021-09-11T09:08:30.210Z</time>
      </trkpt>
      <trkpt lat="45.81358" lon="6.16767">
        <ele>686</ele>
        <time>2021-09-11T09:08:31.210Z</time>
      </trkpt>
      <trkpt lat="45.81363" lon="6.16771">
        <ele>686</ele>
        <time>2021-09-11T09:08:32.210Z</time>
      </trkpt>
      <trkpt lat="45.81367" lon="6.16775">
        <ele>685</ele>
        <time>2021-09-11T09:08:33.211Z</time>
      </trkpt>
      <trkpt lat="45.81373" lon="6.16779">
        <ele>685</ele>
        <time>2021-09-11T09:08:34.210Z</time>
      </trkpt>
      <trkpt lat="45.81378" lon="6.16783">
        <ele>685</ele>
        <time>2021-09-11T09:08:35.211Z</time>
      </trkpt>
      <trkpt lat="45.81384" lon="6.16787">
        <ele>685</ele>
        <time>2021-09-11T09:08:36.211Z</time>
      </trkpt>
      <trkpt lat="45.81388" lon="6.1679">
        <ele>685</ele>
        <time>2021-09-11T09:08:37.211Z</time>
      </trkpt>
      <trkpt lat="45.81393" lon="6.16794">
        <ele>685</ele>
        <time>2021-09-11T09:08:38.211Z</time>
      </trkpt>
      <trkpt lat="45.814" lon="6.16799">
        <ele>684</ele>
        <time>2021-09-11T09:08:39.211Z</time>
      </trkpt>
      <trkpt lat="45.81405" lon="6.16804">
        <ele>684</ele>
        <time>2021-09-11T09:08:40.211Z</time>
      </trkpt>
      <trkpt lat="45.8141" lon="6.16808">
        <ele>684</ele>
        <time>2021-09-11T09:08:41.211Z</time>
      </trkpt>
      <trkpt lat="45.81415" lon="6.16813">
        <ele>684</ele>
        <time>2021-09-11T09:08:42.210Z</time>
      </trkpt>
      <trkpt lat="45.81421" lon="6.16819">
        <ele>683</ele>
        <time>2021-09-11T09:08:43.210Z</time>
      </trkpt>
      <trkpt lat="45.81425" lon="6.16824">
        <ele>683</ele>
        <time>2021-09-11T09:08:44.210Z</time>
      </trkpt>
      <trkpt lat="45.8143" lon="6.16831">
        <ele>682</ele>
        <time>2021-09-11T09:08:45.210Z</time>
      </trkpt>
      <trkpt lat="45.81435" lon="6.16838">
        <ele>682</ele>
        <time>2021-09-11T09:08:46.211Z</time>
      </trkpt>
      <trkpt lat="45.8144" lon="6.16846">
        <ele>682</ele>
        <time>2021-09-11T09:08:47.210Z</time>
      </trkpt>
      <trkpt lat="45.81445" lon="6.16854">
        <ele>681</ele>
        <time>2021-09-11T09:08:48.210Z</time>
      </trkpt>
      <trkpt lat="45.81451" lon="6.16862">
        <ele>681</ele>
        <time>2021-09-11T09:08:49.211Z</time>
      </trkpt>
      <trkpt lat="45.81457" lon="6.16871">
        <ele>681</ele>
        <time>2021-09-11T09:08:50.211Z</time>
      </trkpt>
      <trkpt lat="45.81463" lon="6.1688">
        <ele>681</ele>
        <time>2021-09-11T09:08:51.210Z</time>
      </trkpt>
      <trkpt lat="45.81469" lon="6.16889">
        <ele>681</ele>
        <time>2021-09-11T09:08:52.210Z</time>
      </trkpt>
      <trkpt lat="45.81475" lon="6.16898">
        <ele>681</ele>
        <time>2021-09-11T09:08:53.211Z</time>
      </trkpt>
      <trkpt lat="45.81482" lon="6.16908">
        <ele>681</ele>
        <time>2021-09-11T09:08:54.211Z</time>
      </trkpt>
      <trkpt lat="45.81488" lon="6.16917">
        <ele>680</ele>
        <time>2021-09-11T09:08:55.211Z</time>
      </trkpt>
      <trkpt lat="45.81495" lon="6.16927">
        <ele>680</ele>
        <time>2021-09-11T09:08:56.211Z</time>
      </trkpt>
      <trkpt lat="45.81501" lon="6.16936">
        <ele>679</ele>
        <time>2021-09-11T09:08:57.211Z</time>
      </trkpt>
      <trkpt lat="45.81507" lon="6.16947">
        <ele>678</ele>
        <time>2021-09-11T09:08:58.210Z</time>
      </trkpt>
      <trkpt lat="45.81513" lon="6.16957">
        <ele>677</ele>
        <time>2021-09-11T09:08:59.211Z</time>
      </trkpt>
      <trkpt lat="45.81518" lon="6.16968">
        <ele>676</ele>
        <time>2021-09-11T09:09:00.210Z</time>
      </trkpt>
      <trkpt lat="45.81523" lon="6.16979">
        <ele>675</ele>
        <time>2021-09-11T09:09:01.211Z</time>
      </trkpt>
      <trkpt lat="45.81528" lon="6.1699">
        <ele>675</ele>
        <time>2021-09-11T09:09:02.210Z</time>
      </trkpt>
      <trkpt lat="45.81534" lon="6.17002">
        <ele>674</ele>
        <time>2021-09-11T09:09:03.210Z</time>
      </trkpt>
      <trkpt lat="45.8154" lon="6.17013">
        <ele>673</ele>
        <time>2021-09-11T09:09:04.210Z</time>
      </trkpt>
      <trkpt lat="45.81546" lon="6.17024">
        <ele>672</ele>
        <time>2021-09-11T09:09:05.210Z</time>
      </trkpt>
      <trkpt lat="45.81553" lon="6.17036">
        <ele>671</ele>
        <time>2021-09-11T09:09:06.210Z</time>
      </trkpt>
      <trkpt lat="45.81559" lon="6.17047">
        <ele>670</ele>
        <time>2021-09-11T09:09:07.210Z</time>
      </trkpt>
      <trkpt lat="45.81566" lon="6.17059">
        <ele>670</ele>
        <time>2021-09-11T09:09:08.211Z</time>
      </trkpt>
      <trkpt lat="45.81572" lon="6.1707">
        <ele>669</ele>
        <time>2021-09-11T09:09:09.211Z</time>
      </trkpt>
      <trkpt lat="45.81578" lon="6.17081">
        <ele>668</ele>
        <time>2021-09-11T09:09:10.210Z</time>
      </trkpt>
      <trkpt lat="45.81584" lon="6.17092">
        <ele>667</ele>
        <time>2021-09-11T09:09:11.210Z</time>
      </trkpt>
      <trkpt lat="45.81591" lon="6.17103">
        <ele>666</ele>
        <time>2021-09-11T09:09:12.211Z</time>
      </trkpt>
      <trkpt lat="45.81597" lon="6.17115">
        <ele>666</ele>
        <time>2021-09-11T09:09:13.211Z</time>
      </trkpt>
      <trkpt lat="45.81604" lon="6.17125">
        <ele>665</ele>
        <time>2021-09-11T09:09:14.211Z</time>
      </trkpt>
      <trkpt lat="45.81612" lon="6.17135">
        <ele>664</ele>
        <time>2021-09-11T09:09:15.211Z</time>
      </trkpt>
      <trkpt lat="45.8162" lon="6.17145">
        <ele>664</ele>
        <time>2021-09-11T09:09:16.211Z</time>
      </trkpt>
      <trkpt lat="45.81628" lon="6.17154">
        <ele>663</ele>
        <time>2021-09-11T09:09:17.211Z</time>
      </trkpt>
      <trkpt lat="45.81636" lon="6.17163">
        <ele>663</ele>
        <time>2021-09-11T09:09:18.211Z</time>
      </trkpt>
      <trkpt lat="45.81644" lon="6.1717">
        <ele>662</ele>
        <time>2021-09-11T09:09:19.211Z</time>
      </trkpt>
      <trkpt lat="45.81652" lon="6.17178">
        <ele>662</ele>
        <time>2021-09-11T09:09:20.211Z</time>
      </trkpt>
      <trkpt lat="45.8166" lon="6.17185">
        <ele>661</ele>
        <time>2021-09-11T09:09:21.210Z</time>
      </trkpt>
      <trkpt lat="45.81667" lon="6.17193">
        <ele>661</ele>
        <time>2021-09-11T09:09:22.210Z</time>
      </trkpt>
      <trkpt lat="45.81674" lon="6.17202">
        <ele>660</ele>
        <time>2021-09-11T09:09:23.211Z</time>
      </trkpt>
      <trkpt lat="45.81679" lon="6.17211">
        <ele>659</ele>
        <time>2021-09-11T09:09:24.211Z</time>
      </trkpt>
      <trkpt lat="45.81682" lon="6.17222">
        <ele>658</ele>
        <time>2021-09-11T09:09:25.210Z</time>
      </trkpt>
      <trkpt lat="45.81685" lon="6.17235">
        <ele>657</ele>
        <time>2021-09-11T09:09:26.210Z</time>
      </trkpt>
      <trkpt lat="45.81686" lon="6.17244">
        <ele>657</ele>
        <time>2021-09-11T09:09:27.211Z</time>
      </trkpt>
      <trkpt lat="45.81688" lon="6.17253">
        <ele>656</ele>
        <time>2021-09-11T09:09:28.210Z</time>
      </trkpt>
      <trkpt lat="45.81691" lon="6.17261">
        <ele>655</ele>
        <time>2021-09-11T09:09:29.210Z</time>
      </trkpt>
      <trkpt lat="45.81695" lon="6.17266">
        <ele>654</ele>
        <time>2021-09-11T09:09:30.211Z</time>
      </trkpt>
      <trkpt lat="45.817" lon="6.17269">
        <ele>653</ele>
        <time>2021-09-11T09:09:31.211Z</time>
      </trkpt>
      <trkpt lat="45.81704" lon="6.17269">
        <ele>652</ele>
        <time>2021-09-11T09:09:32.210Z</time>
      </trkpt>
      <trkpt lat="45.81708" lon="6.17266">
        <ele>651</ele>
        <time>2021-09-11T09:09:33.210Z</time>
      </trkpt>
      <trkpt lat="45.81711" lon="6.17261">
        <ele>650</ele>
        <time>2021-09-11T09:09:34.211Z</time>
      </trkpt>
      <trkpt lat="45.81712" lon="6.17256">
        <ele>649</ele>
        <time>2021-09-11T09:09:35.211Z</time>
      </trkpt>
      <trkpt lat="45.81713" lon="6.17252">
        <ele>648</ele>
        <time>2021-09-11T09:09:36.211Z</time>
      </trkpt>
      <trkpt lat="45.81713" lon="6.17249">
        <ele>648</ele>
        <time>2021-09-11T09:09:37.211Z</time>
      </trkpt>
      <trkpt lat="45.81713" lon="6.17246">
        <ele>647</ele>
        <time>2021-09-11T09:09:38.210Z</time>
      </trkpt>
      <trkpt lat="45.81713" lon="6.17242">
        <ele>647</ele>
        <time>2021-09-11T09:09:39.211Z</time>
      </trkpt>
      <trkpt lat="45.81713" lon="6.1724">
        <ele>647</ele>
        <time>2021-09-11T09:09:40.210Z</time>
      </trkpt>
      <trkpt lat="45.81713" lon="6.17238">
        <ele>647</ele>
        <time>2021-09-11T09:09:41.211Z</time>
      </trkpt>
      <trkpt lat="45.81712" lon="6.17237">
        <ele>647</ele>
        <time>2021-09-11T09:09:42.210Z</time>
      </trkpt>
      <trkpt lat="45.81712" lon="6.17236">
        <ele>647</ele>
        <time>2021-09-11T09:09:43.211Z</time>
      </trkpt>
      <trkpt lat="45.81712" lon="6.17236">
        <ele>647</ele>
        <time>2021-09-11T09:09:44.211Z</time>
      </trkpt>
      <trkpt lat="45.81709" lon="6.17225">
        <ele>646</ele>
        <time>2021-09-11T09:09:45.211Z</time>
      </trkpt>
      <trkpt lat="45.81708" lon="6.17221">
        <ele>646</ele>
        <time>2021-09-11T09:09:46.211Z</time>
      </trkpt>
      <trkpt lat="45.81708" lon="6.17217">
        <ele>646</ele>
        <time>2021-09-11T09:09:47.210Z</time>
      </trkpt>
      <trkpt lat="45.81707" lon="6.17213">
        <ele>646</ele>
        <time>2021-09-11T09:09:48.211Z</time>
      </trkpt>
      <trkpt lat="45.81707" lon="6.17208">
        <ele>646</ele>
        <time>2021-09-11T09:09:49.211Z</time>
      </trkpt>
      <trkpt lat="45.81707" lon="6.17203">
        <ele>646</ele>
        <time>2021-09-11T09:09:50.210Z</time>
      </trkpt>
      <trkpt lat="45.81707" lon="6.17197">
        <ele>646</ele>
        <time>2021-09-11T09:09:51.210Z</time>
      </trkpt>
      <trkpt lat="45.81707" lon="6.17191">
        <ele>646</ele>
        <time>2021-09-11T09:09:52.211Z</time>
      </trkpt>
      <trkpt lat="45.81707" lon="6.17185">
        <ele>646</ele>
        <time>2021-09-11T09:09:53.211Z</time>
      </trkpt>
      <trkpt lat="45.81707" lon="6.17179">
        <ele>646</ele>
        <time>2021-09-11T09:09:54.211Z</time>
      </trkpt>
      <trkpt lat="45.81707" lon="6.17172">
        <ele>645</ele>
        <time>2021-09-11T09:09:55.211Z</time>
      </trkpt>
      <trkpt lat="45.81707" lon="6.17165">
        <ele>645</ele>
        <time>2021-09-11T09:09:56.211Z</time>
      </trkpt>
      <trkpt lat="45.81707" lon="6.17158">
        <ele>645</ele>
        <time>2021-09-11T09:09:57.210Z</time>
      </trkpt>
      <trkpt lat="45.81706" lon="6.17151">
        <ele>645</ele>
        <time>2021-09-11T09:09:58.210Z</time>
      </trkpt>
      <trkpt lat="45.81705" lon="6.17143">
        <ele>645</ele>
        <time>2021-09-11T09:09:59.210Z</time>
      </trkpt>
      <trkpt lat="45.81704" lon="6.17134">
        <ele>645</ele>
        <time>2021-09-11T09:10:00.210Z</time>
      </trkpt>
      <trkpt lat="45.81702" lon="6.17125">
        <ele>644</ele>
        <time>2021-09-11T09:10:01.211Z</time>
      </trkpt>
      <trkpt lat="45.817" lon="6.17116">
        <ele>643</ele>
        <time>2021-09-11T09:10:02.211Z</time>
      </trkpt>
      <trkpt lat="45.81697" lon="6.17106">
        <ele>643</ele>
        <time>2021-09-11T09:10:03.211Z</time>
      </trkpt>
      <trkpt lat="45.81694" lon="6.17097">
        <ele>642</ele>
        <time>2021-09-11T09:10:04.211Z</time>
      </trkpt>
      <trkpt lat="45.81691" lon="6.17087">
        <ele>641</ele>
        <time>2021-09-11T09:10:05.211Z</time>
      </trkpt>
      <trkpt lat="45.81688" lon="6.17077">
        <ele>641</ele>
        <time>2021-09-11T09:10:06.211Z</time>
      </trkpt>
      <trkpt lat="45.81685" lon="6.17067">
        <ele>640</ele>
        <time>2021-09-11T09:10:07.211Z</time>
      </trkpt>
      <trkpt lat="45.81683" lon="6.17057">
        <ele>639</ele>
        <time>2021-09-11T09:10:08.211Z</time>
      </trkpt>
      <trkpt lat="45.8168" lon="6.17048">
        <ele>638</ele>
        <time>2021-09-11T09:10:09.211Z</time>
      </trkpt>
      <trkpt lat="45.81677" lon="6.17039">
        <ele>638</ele>
        <time>2021-09-11T09:10:10.210Z</time>
      </trkpt>
      <trkpt lat="45.81675" lon="6.17031">
        <ele>637</ele>
        <time>2021-09-11T09:10:11.210Z</time>
      </trkpt>
      <trkpt lat="45.81672" lon="6.17024">
        <ele>637</ele>
        <time>2021-09-11T09:10:12.211Z</time>
      </trkpt>
      <trkpt lat="45.81669" lon="6.17017">
        <ele>636</ele>
        <time>2021-09-11T09:10:13.211Z</time>
      </trkpt>
      <trkpt lat="45.81667" lon="6.1701">
        <ele>636</ele>
        <time>2021-09-11T09:10:14.210Z</time>
      </trkpt>
      <trkpt lat="45.81665" lon="6.17003">
        <ele>636</ele>
        <time>2021-09-11T09:10:15.211Z</time>
      </trkpt>
      <trkpt lat="45.81665" lon="6.16996">
        <ele>635</ele>
        <time>2021-09-11T09:10:16.211Z</time>
      </trkpt>
      <trkpt lat="45.81666" lon="6.1699">
        <ele>634</ele>
        <time>2021-09-11T09:10:17.210Z</time>
      </trkpt>
      <trkpt lat="45.8167" lon="6.16985">
        <ele>634</ele>
        <time>2021-09-11T09:10:18.211Z</time>
      </trkpt>
      <trkpt lat="45.81676" lon="6.16984">
        <ele>633</ele>
        <time>2021-09-11T09:10:19.210Z</time>
      </trkpt>
      <trkpt lat="45.81682" lon="6.16986">
        <ele>633</ele>
        <time>2021-09-11T09:10:20.211Z</time>
      </trkpt>
      <trkpt lat="45.81687" lon="6.16989">
        <ele>632</ele>
        <time>2021-09-11T09:10:21.210Z</time>
      </trkpt>
      <trkpt lat="45.81692" lon="6.16994">
        <ele>632</ele>
        <time>2021-09-11T09:10:22.211Z</time>
      </trkpt>
      <trkpt lat="45.81697" lon="6.16999">
        <ele>631</ele>
        <time>2021-09-11T09:10:23.211Z</time>
      </trkpt>
      <trkpt lat="45.81703" lon="6.17003">
        <ele>631</ele>
        <time>2021-09-11T09:10:24.211Z</time>
      </trkpt>
      <trkpt lat="45.8171" lon="6.17006">
        <ele>630</ele>
        <time>2021-09-11T09:10:25.210Z</time>
      </trkpt>
      <trkpt lat="45.81717" lon="6.17009">
        <ele>629</ele>
        <time>2021-09-11T09:10:26.210Z</time>
      </trkpt>
      <trkpt lat="45.81724" lon="6.17012">
        <ele>629</ele>
        <time>2021-09-11T09:10:27.211Z</time>
      </trkpt>
      <trkpt lat="45.81732" lon="6.17015">
        <ele>628</ele>
        <time>2021-09-11T09:10:28.211Z</time>
      </trkpt>
      <trkpt lat="45.81739" lon="6.1702">
        <ele>628</ele>
        <time>2021-09-11T09:10:29.210Z</time>
      </trkpt>
      <trkpt lat="45.81747" lon="6.17027">
        <ele>628</ele>
        <time>2021-09-11T09:10:30.210Z</time>
      </trkpt>
      <trkpt lat="45.81753" lon="6.17035">
        <ele>628</ele>
        <time>2021-09-11T09:10:31.211Z</time>
      </trkpt>
      <trkpt lat="45.81759" lon="6.17044">
        <ele>628</ele>
        <time>2021-09-11T09:10:32.211Z</time>
      </trkpt>
      <trkpt lat="45.81765" lon="6.17053">
        <ele>627</ele>
        <time>2021-09-11T09:10:33.211Z</time>
      </trkpt>
      <trkpt lat="45.8177" lon="6.17062">
        <ele>627</ele>
        <time>2021-09-11T09:10:34.210Z</time>
      </trkpt>
      <trkpt lat="45.81775" lon="6.17071">
        <ele>627</ele>
        <time>2021-09-11T09:10:35.211Z</time>
      </trkpt>
      <trkpt lat="45.8178" lon="6.1708">
        <ele>626</ele>
        <time>2021-09-11T09:10:36.211Z</time>
      </trkpt>
      <trkpt lat="45.81785" lon="6.17089">
        <ele>626</ele>
        <time>2021-09-11T09:10:37.210Z</time>
      </trkpt>
      <trkpt lat="45.8179" lon="6.17098">
        <ele>626</ele>
        <time>2021-09-11T09:10:38.211Z</time>
      </trkpt>
      <trkpt lat="45.81795" lon="6.17107">
        <ele>625</ele>
        <time>2021-09-11T09:10:39.211Z</time>
      </trkpt>
      <trkpt lat="45.818" lon="6.17116">
        <ele>625</ele>
        <time>2021-09-11T09:10:40.211Z</time>
      </trkpt>
      <trkpt lat="45.81805" lon="6.17125">
        <ele>624</ele>
        <time>2021-09-11T09:10:41.211Z</time>
      </trkpt>
      <trkpt lat="45.81809" lon="6.17134">
        <ele>623</ele>
        <time>2021-09-11T09:10:42.210Z</time>
      </trkpt>
      <trkpt lat="45.81813" lon="6.17143">
        <ele>622</ele>
        <time>2021-09-11T09:10:43.210Z</time>
      </trkpt>
      <trkpt lat="45.81817" lon="6.17152">
        <ele>622</ele>
        <time>2021-09-11T09:10:44.211Z</time>
      </trkpt>
      <trkpt lat="45.81821" lon="6.1716">
        <ele>622</ele>
        <time>2021-09-11T09:10:45.211Z</time>
      </trkpt>
      <trkpt lat="45.81825" lon="6.17167">
        <ele>622</ele>
        <time>2021-09-11T09:10:46.211Z</time>
      </trkpt>
      <trkpt lat="45.81828" lon="6.17173">
        <ele>622</ele>
        <time>2021-09-11T09:10:47.211Z</time>
      </trkpt>
      <trkpt lat="45.81832" lon="6.17178">
        <ele>622</ele>
        <time>2021-09-11T09:10:48.211Z</time>
      </trkpt>
      <trkpt lat="45.81835" lon="6.17183">
        <ele>622</ele>
        <time>2021-09-11T09:10:49.211Z</time>
      </trkpt>
      <trkpt lat="45.81838" lon="6.17188">
        <ele>622</ele>
        <time>2021-09-11T09:10:50.210Z</time>
      </trkpt>
      <trkpt lat="45.81841" lon="6.17192">
        <ele>623</ele>
        <time>2021-09-11T09:10:51.211Z</time>
      </trkpt>
      <trkpt lat="45.81843" lon="6.17197">
        <ele>623</ele>
        <time>2021-09-11T09:10:52.211Z</time>
      </trkpt>
      <trkpt lat="45.81847" lon="6.17202">
        <ele>623</ele>
        <time>2021-09-11T09:10:53.211Z</time>
      </trkpt>
      <trkpt lat="45.81849" lon="6.17206">
        <ele>623</ele>
        <time>2021-09-11T09:10:54.210Z</time>
      </trkpt>
      <trkpt lat="45.81852" lon="6.17211">
        <ele>622</ele>
        <time>2021-09-11T09:10:55.211Z</time>
      </trkpt>
      <trkpt lat="45.81854" lon="6.17215">
        <ele>621</ele>
        <time>2021-09-11T09:10:56.211Z</time>
      </trkpt>
      <trkpt lat="45.81856" lon="6.1722">
        <ele>621</ele>
        <time>2021-09-11T09:10:57.211Z</time>
      </trkpt>
      <trkpt lat="45.81857" lon="6.17226">
        <ele>620</ele>
        <time>2021-09-11T09:10:58.211Z</time>
      </trkpt>
      <trkpt lat="45.81858" lon="6.17233">
        <ele>620</ele>
        <time>2021-09-11T09:10:59.210Z</time>
      </trkpt>
      <trkpt lat="45.81858" lon="6.17239">
        <ele>619</ele>
        <time>2021-09-11T09:11:00.211Z</time>
      </trkpt>
      <trkpt lat="45.81858" lon="6.17246">
        <ele>618</ele>
        <time>2021-09-11T09:11:01.211Z</time>
      </trkpt>
      <trkpt lat="45.81857" lon="6.17254">
        <ele>618</ele>
        <time>2021-09-11T09:11:02.211Z</time>
      </trkpt>
      <trkpt lat="45.81857" lon="6.17261">
        <ele>617</ele>
        <time>2021-09-11T09:11:03.211Z</time>
      </trkpt>
      <trkpt lat="45.81857" lon="6.17268">
        <ele>617</ele>
        <time>2021-09-11T09:11:04.211Z</time>
      </trkpt>
      <trkpt lat="45.81858" lon="6.17272">
        <ele>617</ele>
        <time>2021-09-11T09:11:05.210Z</time>
      </trkpt>
      <trkpt lat="45.81859" lon="6.17277">
        <ele>616</ele>
        <time>2021-09-11T09:11:06.210Z</time>
      </trkpt>
      <trkpt lat="45.81862" lon="6.17281">
        <ele>616</ele>
        <time>2021-09-11T09:11:07.210Z</time>
      </trkpt>
      <trkpt lat="45.81865" lon="6.17284">
        <ele>615</ele>
        <time>2021-09-11T09:11:08.211Z</time>
      </trkpt>
      <trkpt lat="45.81868" lon="6.17285">
        <ele>615</ele>
        <time>2021-09-11T09:11:09.211Z</time>
      </trkpt>
      <trkpt lat="45.8187" lon="6.17286">
        <ele>615</ele>
        <time>2021-09-11T09:11:10.211Z</time>
      </trkpt>
      <trkpt lat="45.81873" lon="6.17285">
        <ele>614</ele>
        <time>2021-09-11T09:11:11.211Z</time>
      </trkpt>
      <trkpt lat="45.81875" lon="6.17284">
        <ele>614</ele>
        <time>2021-09-11T09:11:12.211Z</time>
      </trkpt>
      <trkpt lat="45.81877" lon="6.17283">
        <ele>613</ele>
        <time>2021-09-11T09:11:13.211Z</time>
      </trkpt>
      <trkpt lat="45.81879" lon="6.17282">
        <ele>613</ele>
        <time>2021-09-11T09:11:14.211Z</time>
      </trkpt>
      <trkpt lat="45.81881" lon="6.1728">
        <ele>612</ele>
        <time>2021-09-11T09:11:15.211Z</time>
      </trkpt>
      <trkpt lat="45.81884" lon="6.17278">
        <ele>612</ele>
        <time>2021-09-11T09:11:16.211Z</time>
      </trkpt>
      <trkpt lat="45.81887" lon="6.17276">
        <ele>612</ele>
        <time>2021-09-11T09:11:17.210Z</time>
      </trkpt>
      <trkpt lat="45.81889" lon="6.17275">
        <ele>612</ele>
        <time>2021-09-11T09:11:18.211Z</time>
      </trkpt>
      <trkpt lat="45.81892" lon="6.17273">
        <ele>612</ele>
        <time>2021-09-11T09:11:19.211Z</time>
      </trkpt>
      <trkpt lat="45.81896" lon="6.17272">
        <ele>612</ele>
        <time>2021-09-11T09:11:20.210Z</time>
      </trkpt>
      <trkpt lat="45.81899" lon="6.17271">
        <ele>611</ele>
        <time>2021-09-11T09:11:21.211Z</time>
      </trkpt>
      <trkpt lat="45.81903" lon="6.1727">
        <ele>610</ele>
        <time>2021-09-11T09:11:22.211Z</time>
      </trkpt>
      <trkpt lat="45.81905" lon="6.1727">
        <ele>610</ele>
        <time>2021-09-11T09:11:23.211Z</time>
      </trkpt>
      <trkpt lat="45.81908" lon="6.17269">
        <ele>609</ele>
        <time>2021-09-11T09:11:24.211Z</time>
      </trkpt>
      <trkpt lat="45.81911" lon="6.17269">
        <ele>608</ele>
        <time>2021-09-11T09:11:25.211Z</time>
      </trkpt>
      <trkpt lat="45.81914" lon="6.17268">
        <ele>608</ele>
        <time>2021-09-11T09:11:26.211Z</time>
      </trkpt>
      <trkpt lat="45.81916" lon="6.17267">
        <ele>607</ele>
        <time>2021-09-11T09:11:27.211Z</time>
      </trkpt>
      <trkpt lat="45.81919" lon="6.17266">
        <ele>607</ele>
        <time>2021-09-11T09:11:28.211Z</time>
      </trkpt>
      <trkpt lat="45.81921" lon="6.17266">
        <ele>606</ele>
        <time>2021-09-11T09:11:29.211Z</time>
      </trkpt>
      <trkpt lat="45.81924" lon="6.17265">
        <ele>606</ele>
        <time>2021-09-11T09:11:30.211Z</time>
      </trkpt>
      <trkpt lat="45.81927" lon="6.17264">
        <ele>605</ele>
        <time>2021-09-11T09:11:31.211Z</time>
      </trkpt>
      <trkpt lat="45.8193" lon="6.17262">
        <ele>605</ele>
        <time>2021-09-11T09:11:32.211Z</time>
      </trkpt>
      <trkpt lat="45.81933" lon="6.1726">
        <ele>604</ele>
        <time>2021-09-11T09:11:33.211Z</time>
      </trkpt>
      <trkpt lat="45.81937" lon="6.17257">
        <ele>604</ele>
        <time>2021-09-11T09:11:34.211Z</time>
      </trkpt>
      <trkpt lat="45.81941" lon="6.17254">
        <ele>604</ele>
        <time>2021-09-11T09:11:35.211Z</time>
      </trkpt>
      <trkpt lat="45.81945" lon="6.17249">
        <ele>604</ele>
        <time>2021-09-11T09:11:36.210Z</time>
      </trkpt>
      <trkpt lat="45.81949" lon="6.17245">
        <ele>604</ele>
        <time>2021-09-11T09:11:37.211Z</time>
      </trkpt>
      <trkpt lat="45.81953" lon="6.17239">
        <ele>604</ele>
        <time>2021-09-11T09:11:38.211Z</time>
      </trkpt>
      <trkpt lat="45.81957" lon="6.17232">
        <ele>603</ele>
        <time>2021-09-11T09:11:39.211Z</time>
      </trkpt>
      <trkpt lat="45.81959" lon="6.17226">
        <ele>603</ele>
        <time>2021-09-11T09:11:40.211Z</time>
      </trkpt>
      <trkpt lat="45.8196" lon="6.17219">
        <ele>603</ele>
        <time>2021-09-11T09:11:41.211Z</time>
      </trkpt>
      <trkpt lat="45.81961" lon="6.17211">
        <ele>603</ele>
        <time>2021-09-11T09:11:42.211Z</time>
      </trkpt>
      <trkpt lat="45.81959" lon="6.17204">
        <ele>603</ele>
        <time>2021-09-11T09:11:43.211Z</time>
      </trkpt>
      <trkpt lat="45.81957" lon="6.17197">
        <ele>603</ele>
        <time>2021-09-11T09:11:44.211Z</time>
      </trkpt>
      <trkpt lat="45.81954" lon="6.1719">
        <ele>603</ele>
        <time>2021-09-11T09:11:45.211Z</time>
      </trkpt>
      <trkpt lat="45.8195" lon="6.17183">
        <ele>603</ele>
        <time>2021-09-11T09:11:46.211Z</time>
      </trkpt>
      <trkpt lat="45.81945" lon="6.17176">
        <ele>603</ele>
        <time>2021-09-11T09:11:47.210Z</time>
      </trkpt>
      <trkpt lat="45.81942" lon="6.17167">
        <ele>603</ele>
        <time>2021-09-11T09:11:48.210Z</time>
      </trkpt>
      <trkpt lat="45.8194" lon="6.17158">
        <ele>602</ele>
        <time>2021-09-11T09:11:49.211Z</time>
      </trkpt>
      <trkpt lat="45.81941" lon="6.17149">
        <ele>602</ele>
        <time>2021-09-11T09:11:50.210Z</time>
      </trkpt>
      <trkpt lat="45.81943" lon="6.17142">
        <ele>601</ele>
        <time>2021-09-11T09:11:51.211Z</time>
      </trkpt>
      <trkpt lat="45.81945" lon="6.17133">
        <ele>600</ele>
        <time>2021-09-11T09:11:52.211Z</time>
      </trkpt>
      <trkpt lat="45.81948" lon="6.17121">
        <ele>600</ele>
        <time>2021-09-11T09:11:53.210Z</time>
      </trkpt>
      <trkpt lat="45.8195" lon="6.17111">
        <ele>599</ele>
        <time>2021-09-11T09:11:54.211Z</time>
      </trkpt>
      <trkpt lat="45.81952" lon="6.17101">
        <ele>599</ele>
        <time>2021-09-11T09:11:55.211Z</time>
      </trkpt>
      <trkpt lat="45.81952" lon="6.17092">
        <ele>598</ele>
        <time>2021-09-11T09:11:56.211Z</time>
      </trkpt>
      <trkpt lat="45.81953" lon="6.17082">
        <ele>598</ele>
        <time>2021-09-11T09:11:57.211Z</time>
      </trkpt>
      <trkpt lat="45.81951" lon="6.17068">
        <ele>598</ele>
        <time>2021-09-11T09:11:58.210Z</time>
      </trkpt>
      <trkpt lat="45.81949" lon="6.17057">
        <ele>598</ele>
        <time>2021-09-11T09:11:59.210Z</time>
      </trkpt>
      <trkpt lat="45.81948" lon="6.17048">
        <ele>597</ele>
        <time>2021-09-11T09:12:00.211Z</time>
      </trkpt>
      <trkpt lat="45.81946" lon="6.17036">
        <ele>597</ele>
        <time>2021-09-11T09:12:01.211Z</time>
      </trkpt>
      <trkpt lat="45.81944" lon="6.17024">
        <ele>596</ele>
        <time>2021-09-11T09:12:02.211Z</time>
      </trkpt>
      <trkpt lat="45.81943" lon="6.17013">
        <ele>596</ele>
        <time>2021-09-11T09:12:03.211Z</time>
      </trkpt>
      <trkpt lat="45.81941" lon="6.17">
        <ele>595</ele>
        <time>2021-09-11T09:12:04.211Z</time>
      </trkpt>
      <trkpt lat="45.81939" lon="6.16987">
        <ele>595</ele>
        <time>2021-09-11T09:12:05.210Z</time>
      </trkpt>
      <trkpt lat="45.81937" lon="6.16974">
        <ele>594</ele>
        <time>2021-09-11T09:12:06.211Z</time>
      </trkpt>
      <trkpt lat="45.81934" lon="6.16958">
        <ele>593</ele>
        <time>2021-09-11T09:12:07.211Z</time>
      </trkpt>
      <trkpt lat="45.81932" lon="6.16945">
        <ele>593</ele>
        <time>2021-09-11T09:12:08.211Z</time>
      </trkpt>
      <trkpt lat="45.8193" lon="6.16933">
        <ele>592</ele>
        <time>2021-09-11T09:12:09.211Z</time>
      </trkpt>
      <trkpt lat="45.8193" lon="6.16924">
        <ele>591</ele>
        <time>2021-09-11T09:12:10.210Z</time>
      </trkpt>
      <trkpt lat="45.81931" lon="6.16913">
        <ele>590</ele>
        <time>2021-09-11T09:12:11.211Z</time>
      </trkpt>
      <trkpt lat="45.81934" lon="6.16906">
        <ele>589</ele>
        <time>2021-09-11T09:12:12.211Z</time>
      </trkpt>
      <trkpt lat="45.81939" lon="6.16901">
        <ele>589</ele>
        <time>2021-09-11T09:12:13.211Z</time>
      </trkpt>
      <trkpt lat="45.81944" lon="6.16898">
        <ele>587</ele>
        <time>2021-09-11T09:12:14.211Z</time>
      </trkpt>
      <trkpt lat="45.8195" lon="6.16897">
        <ele>586</ele>
        <time>2021-09-11T09:12:15.211Z</time>
      </trkpt>
      <trkpt lat="45.81958" lon="6.16898">
        <ele>586</ele>
        <time>2021-09-11T09:12:16.210Z</time>
      </trkpt>
      <trkpt lat="45.81966" lon="6.16902">
        <ele>585</ele>
        <time>2021-09-11T09:12:17.211Z</time>
      </trkpt>
      <trkpt lat="45.81974" lon="6.16907">
        <ele>584</ele>
        <time>2021-09-11T09:12:18.211Z</time>
      </trkpt>
      <trkpt lat="45.8198" lon="6.16911">
        <ele>584</ele>
        <time>2021-09-11T09:12:19.210Z</time>
      </trkpt>
      <trkpt lat="45.8199" lon="6.16916">
        <ele>583</ele>
        <time>2021-09-11T09:12:20.211Z</time>
      </trkpt>
      <trkpt lat="45.81999" lon="6.16919">
        <ele>583</ele>
        <time>2021-09-11T09:12:21.211Z</time>
      </trkpt>
      <trkpt lat="45.82006" lon="6.1692">
        <ele>582</ele>
        <time>2021-09-11T09:12:22.211Z</time>
      </trkpt>
      <trkpt lat="45.82016" lon="6.1692">
        <ele>581</ele>
        <time>2021-09-11T09:12:23.211Z</time>
      </trkpt>
      <trkpt lat="45.82025" lon="6.16919">
        <ele>580</ele>
        <time>2021-09-11T09:12:24.211Z</time>
      </trkpt>
      <trkpt lat="45.82036" lon="6.16918">
        <ele>579</ele>
        <time>2021-09-11T09:12:25.211Z</time>
      </trkpt>
      <trkpt lat="45.82045" lon="6.16919">
        <ele>579</ele>
        <time>2021-09-11T09:12:26.210Z</time>
      </trkpt>
      <trkpt lat="45.82053" lon="6.16921">
        <ele>578</ele>
        <time>2021-09-11T09:12:27.211Z</time>
      </trkpt>
      <trkpt lat="45.82059" lon="6.16926">
        <ele>578</ele>
        <time>2021-09-11T09:12:28.211Z</time>
      </trkpt>
      <trkpt lat="45.82068" lon="6.16934">
        <ele>577</ele>
        <time>2021-09-11T09:12:29.211Z</time>
      </trkpt>
      <trkpt lat="45.82073" lon="6.16943">
        <ele>576</ele>
        <time>2021-09-11T09:12:30.211Z</time>
      </trkpt>
      <trkpt lat="45.82078" lon="6.16955">
        <ele>575</ele>
        <time>2021-09-11T09:12:31.211Z</time>
      </trkpt>
      <trkpt lat="45.82081" lon="6.16965">
        <ele>575</ele>
        <time>2021-09-11T09:12:32.211Z</time>
      </trkpt>
      <trkpt lat="45.82083" lon="6.16978">
        <ele>574</ele>
        <time>2021-09-11T09:12:33.210Z</time>
      </trkpt>
      <trkpt lat="45.82086" lon="6.16994">
        <ele>573</ele>
        <time>2021-09-11T09:12:34.211Z</time>
      </trkpt>
      <trkpt lat="45.82089" lon="6.17007">
        <ele>573</ele>
        <time>2021-09-11T09:12:35.211Z</time>
      </trkpt>
      <trkpt lat="45.82093" lon="6.1702">
        <ele>572</ele>
        <time>2021-09-11T09:12:36.211Z</time>
      </trkpt>
      <trkpt lat="45.82097" lon="6.17029">
        <ele>571</ele>
        <time>2021-09-11T09:12:37.211Z</time>
      </trkpt>
      <trkpt lat="45.82102" lon="6.17038">
        <ele>571</ele>
        <time>2021-09-11T09:12:38.210Z</time>
      </trkpt>
      <trkpt lat="45.82109" lon="6.17045">
        <ele>571</ele>
        <time>2021-09-11T09:12:39.211Z</time>
      </trkpt>
      <trkpt lat="45.82115" lon="6.17051">
        <ele>570</ele>
        <time>2021-09-11T09:12:40.211Z</time>
      </trkpt>
      <trkpt lat="45.82124" lon="6.17057">
        <ele>569</ele>
        <time>2021-09-11T09:12:41.210Z</time>
      </trkpt>
      <trkpt lat="45.8213" lon="6.17062">
        <ele>568</ele>
        <time>2021-09-11T09:12:42.211Z</time>
      </trkpt>
      <trkpt lat="45.82138" lon="6.1707">
        <ele>567</ele>
        <time>2021-09-11T09:12:43.211Z</time>
      </trkpt>
      <trkpt lat="45.82144" lon="6.17076">
        <ele>567</ele>
        <time>2021-09-11T09:12:44.211Z</time>
      </trkpt>
      <trkpt lat="45.82151" lon="6.17082">
        <ele>566</ele>
        <time>2021-09-11T09:12:45.211Z</time>
      </trkpt>
      <trkpt lat="45.82158" lon="6.17087">
        <ele>565</ele>
        <time>2021-09-11T09:12:46.211Z</time>
      </trkpt>
      <trkpt lat="45.82165" lon="6.17088">
        <ele>565</ele>
        <time>2021-09-11T09:12:47.211Z</time>
      </trkpt>
      <trkpt lat="45.8217" lon="6.17085">
        <ele>564</ele>
        <time>2021-09-11T09:12:48.210Z</time>
      </trkpt>
      <trkpt lat="45.82175" lon="6.17078">
        <ele>563</ele>
        <time>2021-09-11T09:12:49.211Z</time>
      </trkpt>
      <trkpt lat="45.82176" lon="6.17072">
        <ele>562</ele>
        <time>2021-09-11T09:12:50.210Z</time>
      </trkpt>
      <trkpt lat="45.82175" lon="6.17063">
        <ele>561</ele>
        <time>2021-09-11T09:12:51.211Z</time>
      </trkpt>
      <trkpt lat="45.82172" lon="6.17056">
        <ele>560</ele>
        <time>2021-09-11T09:12:52.211Z</time>
      </trkpt>
      <trkpt lat="45.82168" lon="6.17047">
        <ele>560</ele>
        <time>2021-09-11T09:12:53.211Z</time>
      </trkpt>
      <trkpt lat="45.82164" lon="6.17039">
        <ele>559</ele>
        <time>2021-09-11T09:12:54.211Z</time>
      </trkpt>
      <trkpt lat="45.82159" lon="6.17031">
        <ele>559</ele>
        <time>2021-09-11T09:12:55.211Z</time>
      </trkpt>
      <trkpt lat="45.82156" lon="6.17024">
        <ele>558</ele>
        <time>2021-09-11T09:12:56.210Z</time>
      </trkpt>
      <trkpt lat="45.82153" lon="6.17015">
        <ele>558</ele>
        <time>2021-09-11T09:12:57.211Z</time>
      </trkpt>
      <trkpt lat="45.82151" lon="6.17007">
        <ele>558</ele>
        <time>2021-09-11T09:12:58.210Z</time>
      </trkpt>
      <trkpt lat="45.82149" lon="6.16999">
        <ele>558</ele>
        <time>2021-09-11T09:12:59.211Z</time>
      </trkpt>
      <trkpt lat="45.82147" lon="6.16993">
        <ele>557</ele>
        <time>2021-09-11T09:13:00.211Z</time>
      </trkpt>
      <trkpt lat="45.82146" lon="6.16986">
        <ele>557</ele>
        <time>2021-09-11T09:13:01.210Z</time>
      </trkpt>
      <trkpt lat="45.82143" lon="6.16976">
        <ele>556</ele>
        <time>2021-09-11T09:13:02.210Z</time>
      </trkpt>
      <trkpt lat="45.82141" lon="6.16967">
        <ele>555</ele>
        <time>2021-09-11T09:13:03.211Z</time>
      </trkpt>
      <trkpt lat="45.82139" lon="6.16958">
        <ele>555</ele>
        <time>2021-09-11T09:13:04.211Z</time>
      </trkpt>
      <trkpt lat="45.82137" lon="6.1695">
        <ele>555</ele>
        <time>2021-09-11T09:13:05.211Z</time>
      </trkpt>
      <trkpt lat="45.82134" lon="6.16938">
        <ele>555</ele>
        <time>2021-09-11T09:13:06.210Z</time>
      </trkpt>
      <trkpt lat="45.82131" lon="6.16927">
        <ele>554</ele>
        <time>2021-09-11T09:13:07.211Z</time>
      </trkpt>
      <trkpt lat="45.82128" lon="6.16916">
        <ele>554</ele>
        <time>2021-09-11T09:13:08.210Z</time>
      </trkpt>
      <trkpt lat="45.82125" lon="6.16907">
        <ele>553</ele>
        <time>2021-09-11T09:13:09.210Z</time>
      </trkpt>
      <trkpt lat="45.82122" lon="6.16897">
        <ele>553</ele>
        <time>2021-09-11T09:13:10.211Z</time>
      </trkpt>
      <trkpt lat="45.82119" lon="6.16884">
        <ele>552</ele>
        <time>2021-09-11T09:13:11.211Z</time>
      </trkpt>
      <trkpt lat="45.82117" lon="6.16875">
        <ele>552</ele>
        <time>2021-09-11T09:13:12.210Z</time>
      </trkpt>
      <trkpt lat="45.82118" lon="6.16866">
        <ele>552</ele>
        <time>2021-09-11T09:13:13.211Z</time>
      </trkpt>
      <trkpt lat="45.82121" lon="6.16861">
        <ele>551</ele>
        <time>2021-09-11T09:13:14.211Z</time>
      </trkpt>
      <trkpt lat="45.82126" lon="6.16857">
        <ele>551</ele>
        <time>2021-09-11T09:13:15.211Z</time>
      </trkpt>
      <trkpt lat="45.82131" lon="6.16858">
        <ele>550</ele>
        <time>2021-09-11T09:13:16.210Z</time>
      </trkpt>
      <trkpt lat="45.82135" lon="6.16862">
        <ele>550</ele>
        <time>2021-09-11T09:13:17.211Z</time>
      </trkpt>
      <trkpt lat="45.8214" lon="6.16868">
        <ele>549</ele>
        <time>2021-09-11T09:13:18.211Z</time>
      </trkpt>
      <trkpt lat="45.82145" lon="6.16874">
        <ele>549</ele>
        <time>2021-09-11T09:13:19.210Z</time>
      </trkpt>
      <trkpt lat="45.82151" lon="6.16885">
        <ele>548</ele>
        <time>2021-09-11T09:13:20.211Z</time>
      </trkpt>
      <trkpt lat="45.82157" lon="6.16893">
        <ele>548</ele>
        <time>2021-09-11T09:13:21.211Z</time>
      </trkpt>
      <trkpt lat="45.82163" lon="6.16902">
        <ele>547</ele>
        <time>2021-09-11T09:13:22.211Z</time>
      </trkpt>
      <trkpt lat="45.82168" lon="6.16909">
        <ele>547</ele>
        <time>2021-09-11T09:13:23.211Z</time>
      </trkpt>
      <trkpt lat="45.82175" lon="6.16917">
        <ele>546</ele>
        <time>2021-09-11T09:13:24.211Z</time>
      </trkpt>
      <trkpt lat="45.82182" lon="6.16925">
        <ele>545</ele>
        <time>2021-09-11T09:13:25.211Z</time>
      </trkpt>
      <trkpt lat="45.82189" lon="6.16932">
        <ele>545</ele>
        <time>2021-09-11T09:13:26.211Z</time>
      </trkpt>
      <trkpt lat="45.82193" lon="6.16937">
        <ele>544</ele>
        <time>2021-09-11T09:13:27.211Z</time>
      </trkpt>
      <trkpt lat="45.822" lon="6.16942">
        <ele>544</ele>
        <time>2021-09-11T09:13:28.210Z</time>
      </trkpt>
      <trkpt lat="45.82208" lon="6.16949">
        <ele>543</ele>
        <time>2021-09-11T09:13:29.210Z</time>
      </trkpt>
      <trkpt lat="45.82215" lon="6.16953">
        <ele>543</ele>
        <time>2021-09-11T09:13:30.211Z</time>
      </trkpt>
      <trkpt lat="45.82222" lon="6.16957">
        <ele>542</ele>
        <time>2021-09-11T09:13:31.211Z</time>
      </trkpt>
      <trkpt lat="45.82229" lon="6.16961">
        <ele>542</ele>
        <time>2021-09-11T09:13:32.210Z</time>
      </trkpt>
      <trkpt lat="45.82236" lon="6.16965">
        <ele>541</ele>
        <time>2021-09-11T09:13:33.211Z</time>
      </trkpt>
      <trkpt lat="45.82245" lon="6.1697">
        <ele>541</ele>
        <time>2021-09-11T09:13:34.211Z</time>
      </trkpt>
      <trkpt lat="45.82253" lon="6.16975">
        <ele>540</ele>
        <time>2021-09-11T09:13:35.210Z</time>
      </trkpt>
      <trkpt lat="45.8226" lon="6.1698">
        <ele>540</ele>
        <time>2021-09-11T09:13:36.211Z</time>
      </trkpt>
      <trkpt lat="45.82266" lon="6.16983">
        <ele>539</ele>
        <time>2021-09-11T09:13:37.211Z</time>
      </trkpt>
      <trkpt lat="45.82276" lon="6.16988">
        <ele>539</ele>
        <time>2021-09-11T09:13:38.211Z</time>
      </trkpt>
      <trkpt lat="45.82283" lon="6.16991">
        <ele>538</ele>
        <time>2021-09-11T09:13:39.211Z</time>
      </trkpt>
      <trkpt lat="45.82291" lon="6.16994">
        <ele>538</ele>
        <time>2021-09-11T09:13:40.211Z</time>
      </trkpt>
      <trkpt lat="45.82298" lon="6.16997">
        <ele>537</ele>
        <time>2021-09-11T09:13:41.211Z</time>
      </trkpt>
      <trkpt lat="45.82306" lon="6.17001">
        <ele>536</ele>
        <time>2021-09-11T09:13:42.211Z</time>
      </trkpt>
      <trkpt lat="45.82316" lon="6.17006">
        <ele>535</ele>
        <time>2021-09-11T09:13:43.211Z</time>
      </trkpt>
      <trkpt lat="45.82323" lon="6.17012">
        <ele>535</ele>
        <time>2021-09-11T09:13:44.210Z</time>
      </trkpt>
      <trkpt lat="45.82329" lon="6.17019">
        <ele>534</ele>
        <time>2021-09-11T09:13:45.211Z</time>
      </trkpt>
      <trkpt lat="45.82333" lon="6.17026">
        <ele>534</ele>
        <time>2021-09-11T09:13:46.211Z</time>
      </trkpt>
      <trkpt lat="45.82339" lon="6.17036">
        <ele>534</ele>
        <time>2021-09-11T09:13:47.211Z</time>
      </trkpt>
      <trkpt lat="45.82343" lon="6.17044">
        <ele>534</ele>
        <time>2021-09-11T09:13:48.211Z</time>
      </trkpt>
      <trkpt lat="45.82348" lon="6.17053">
        <ele>533</ele>
        <time>2021-09-11T09:13:49.210Z</time>
      </trkpt>
      <trkpt lat="45.82353" lon="6.17062">
        <ele>533</ele>
        <time>2021-09-11T09:13:50.210Z</time>
      </trkpt>
      <trkpt lat="45.82357" lon="6.1707">
        <ele>532</ele>
        <time>2021-09-11T09:13:51.211Z</time>
      </trkpt>
      <trkpt lat="45.82363" lon="6.17081">
        <ele>532</ele>
        <time>2021-09-11T09:13:52.211Z</time>
      </trkpt>
      <trkpt lat="45.82367" lon="6.17091">
        <ele>532</ele>
        <time>2021-09-11T09:13:53.210Z</time>
      </trkpt>
      <trkpt lat="45.82372" lon="6.171">
        <ele>531</ele>
        <time>2021-09-11T09:13:54.211Z</time>
      </trkpt>
      <trkpt lat="45.82376" lon="6.17108">
        <ele>530</ele>
        <time>2021-09-11T09:13:55.211Z</time>
      </trkpt>
      <trkpt lat="45.8238" lon="6.17117">
        <ele>530</ele>
        <time>2021-09-11T09:13:56.211Z</time>
      </trkpt>
      <trkpt lat="45.82385" lon="6.17125">
        <ele>529</ele>
        <time>2021-09-11T09:13:57.210Z</time>
      </trkpt>
      <trkpt lat="45.82389" lon="6.17134">
        <ele>528</ele>
        <time>2021-09-11T09:13:58.211Z</time>
      </trkpt>
      <trkpt lat="45.82393" lon="6.17143">
        <ele>527</ele>
        <time>2021-09-11T09:13:59.211Z</time>
      </trkpt>
      <trkpt lat="45.82396" lon="6.17153">
        <ele>527</ele>
        <time>2021-09-11T09:14:00.210Z</time>
      </trkpt>
      <trkpt lat="45.82399" lon="6.17165">
        <ele>527</ele>
        <time>2021-09-11T09:14:01.211Z</time>
      </trkpt>
      <trkpt lat="45.82401" lon="6.17175">
        <ele>527</ele>
        <time>2021-09-11T09:14:02.210Z</time>
      </trkpt>
      <trkpt lat="45.82402" lon="6.17185">
        <ele>526</ele>
        <time>2021-09-11T09:14:03.210Z</time>
      </trkpt>
      <trkpt lat="45.82401" lon="6.17192">
        <ele>526</ele>
        <time>2021-09-11T09:14:04.210Z</time>
      </trkpt>
      <trkpt lat="45.82401" lon="6.17201">
        <ele>525</ele>
        <time>2021-09-11T09:14:05.211Z</time>
      </trkpt>
      <trkpt lat="45.824" lon="6.17212">
        <ele>525</ele>
        <time>2021-09-11T09:14:06.211Z</time>
      </trkpt>
      <trkpt lat="45.82398" lon="6.1722">
        <ele>524</ele>
        <time>2021-09-11T09:14:07.211Z</time>
      </trkpt>
      <trkpt lat="45.82396" lon="6.17227">
        <ele>523</ele>
        <time>2021-09-11T09:14:08.211Z</time>
      </trkpt>
      <trkpt lat="45.82393" lon="6.17235">
        <ele>523</ele>
        <time>2021-09-11T09:14:09.210Z</time>
      </trkpt>
      <trkpt lat="45.8239" lon="6.17244">
        <ele>522</ele>
        <time>2021-09-11T09:14:10.211Z</time>
      </trkpt>
      <trkpt lat="45.82387" lon="6.17253">
        <ele>522</ele>
        <time>2021-09-11T09:14:11.211Z</time>
      </trkpt>
      <trkpt lat="45.82384" lon="6.17262">
        <ele>521</ele>
        <time>2021-09-11T09:14:12.211Z</time>
      </trkpt>
      <trkpt lat="45.82383" lon="6.17267">
        <ele>520</ele>
        <time>2021-09-11T09:14:13.210Z</time>
      </trkpt>
      <trkpt lat="45.82383" lon="6.17274">
        <ele>520</ele>
        <time>2021-09-11T09:14:14.210Z</time>
      </trkpt>
      <trkpt lat="45.82383" lon="6.17279">
        <ele>519</ele>
        <time>2021-09-11T09:14:15.211Z</time>
      </trkpt>
      <trkpt lat="45.82382" lon="6.17283">
        <ele>519</ele>
        <time>2021-09-11T09:14:16.211Z</time>
      </trkpt>
      <trkpt lat="45.82382" lon="6.17285">
        <ele>518</ele>
        <time>2021-09-11T09:14:17.210Z</time>
      </trkpt>
      <trkpt lat="45.82382" lon="6.17287">
        <ele>517</ele>
        <time>2021-09-11T09:14:18.210Z</time>
      </trkpt>
      <trkpt lat="45.82382" lon="6.17288">
        <ele>516</ele>
        <time>2021-09-11T09:14:19.210Z</time>
      </trkpt>
      <trkpt lat="45.82383" lon="6.17289">
        <ele>515</ele>
        <time>2021-09-11T09:14:20.211Z</time>
      </trkpt>
      <trkpt lat="45.82383" lon="6.17289">
        <ele>514</ele>
        <time>2021-09-11T09:14:21.211Z</time>
      </trkpt>
      <trkpt lat="45.82383" lon="6.17288">
        <ele>514</ele>
        <time>2021-09-11T09:14:22.211Z</time>
      </trkpt>
      <trkpt lat="45.82385" lon="6.17286">
        <ele>507</ele>
        <time>2021-09-11T09:14:23.213Z</time>
      </trkpt>
      <trkpt lat="45.82386" lon="6.17287">
        <ele>507</ele>
        <time>2021-09-11T09:14:24.213Z</time>
      </trkpt>
      <trkpt lat="45.82387" lon="6.17288">
        <ele>507</ele>
        <time>2021-09-11T09:14:25.212Z</time>
      </trkpt>
      <trkpt lat="45.82388" lon="6.17288">
        <ele>507</ele>
        <time>2021-09-11T09:14:26.213Z</time>
      </trkpt>
      <trkpt lat="45.82389" lon="6.17289">
        <ele>508</ele>
        <time>2021-09-11T09:14:27.213Z</time>
      </trkpt>
      <trkpt lat="45.8239" lon="6.17289">
        <ele>508</ele>
        <time>2021-09-11T09:14:28.212Z</time>
      </trkpt>
      <trkpt lat="45.82392" lon="6.1729">
        <ele>508</ele>
        <time>2021-09-11T09:14:29.212Z</time>
      </trkpt>
      <trkpt lat="45.82394" lon="6.17291">
        <ele>508</ele>
        <time>2021-09-11T09:14:30.213Z</time>
      </trkpt>
      <trkpt lat="45.82396" lon="6.17292">
        <ele>508</ele>
        <time>2021-09-11T09:14:31.213Z</time>
      </trkpt>
      <trkpt lat="45.82398" lon="6.17293">
        <ele>508</ele>
        <time>2021-09-11T09:14:32.212Z</time>
      </trkpt>
      <trkpt lat="45.824" lon="6.17293">
        <ele>508</ele>
        <time>2021-09-11T09:14:33.213Z</time>
      </trkpt>
      <trkpt lat="45.82402" lon="6.17294">
        <ele>508</ele>
        <time>2021-09-11T09:14:34.213Z</time>
      </trkpt>
      <trkpt lat="45.82405" lon="6.17295">
        <ele>508</ele>
        <time>2021-09-11T09:14:35.213Z</time>
      </trkpt>
      <trkpt lat="45.82408" lon="6.17295">
        <ele>508</ele>
        <time>2021-09-11T09:14:36.212Z</time>
      </trkpt>
      <trkpt lat="45.8241" lon="6.17295">
        <ele>508</ele>
        <time>2021-09-11T09:14:37.213Z</time>
      </trkpt>
      <trkpt lat="45.82412" lon="6.17294">
        <ele>508</ele>
        <time>2021-09-11T09:14:38.213Z</time>
      </trkpt>
      <trkpt lat="45.82414" lon="6.17293">
        <ele>508</ele>
        <time>2021-09-11T09:14:39.213Z</time>
      </trkpt>
      <trkpt lat="45.82416" lon="6.17291">
        <ele>509</ele>
        <time>2021-09-11T09:14:40.213Z</time>
      </trkpt>
      <trkpt lat="45.82418" lon="6.17289">
        <ele>509</ele>
        <time>2021-09-11T09:14:41.213Z</time>
      </trkpt>
      <trkpt lat="45.82419" lon="6.17287">
        <ele>509</ele>
        <time>2021-09-11T09:14:42.213Z</time>
      </trkpt>
      <trkpt lat="45.82421" lon="6.17284">
        <ele>509</ele>
        <time>2021-09-11T09:14:43.212Z</time>
      </trkpt>
      <trkpt lat="45.82423" lon="6.1728">
        <ele>509</ele>
        <time>2021-09-11T09:14:44.213Z</time>
      </trkpt>
      <trkpt lat="45.82425" lon="6.17275">
        <ele>509</ele>
        <time>2021-09-11T09:14:45.213Z</time>
      </trkpt>
      <trkpt lat="45.82427" lon="6.17271">
        <ele>510</ele>
        <time>2021-09-11T09:14:46.213Z</time>
      </trkpt>
      <trkpt lat="45.82428" lon="6.17265">
        <ele>510</ele>
        <time>2021-09-11T09:14:47.213Z</time>
      </trkpt>
      <trkpt lat="45.8243" lon="6.17261">
        <ele>511</ele>
        <time>2021-09-11T09:14:48.212Z</time>
      </trkpt>
      <trkpt lat="45.82431" lon="6.17256">
        <ele>511</ele>
        <time>2021-09-11T09:14:49.213Z</time>
      </trkpt>
      <trkpt lat="45.82433" lon="6.17252">
        <ele>511</ele>
        <time>2021-09-11T09:14:50.213Z</time>
      </trkpt>
      <trkpt lat="45.82434" lon="6.17247">
        <ele>511</ele>
        <time>2021-09-11T09:14:51.213Z</time>
      </trkpt>
      <trkpt lat="45.82436" lon="6.17243">
        <ele>510</ele>
        <time>2021-09-11T09:14:52.213Z</time>
      </trkpt>
      <trkpt lat="45.82437" lon="6.17238">
        <ele>510</ele>
        <time>2021-09-11T09:14:53.213Z</time>
      </trkpt>
      <trkpt lat="45.82439" lon="6.17234">
        <ele>510</ele>
        <time>2021-09-11T09:14:54.213Z</time>
      </trkpt>
      <trkpt lat="45.82439" lon="6.17231">
        <ele>510</ele>
        <time>2021-09-11T09:14:55.213Z</time>
      </trkpt>
      <trkpt lat="45.82441" lon="6.17226">
        <ele>510</ele>
        <time>2021-09-11T09:14:56.213Z</time>
      </trkpt>
      <trkpt lat="45.82442" lon="6.17223">
        <ele>509</ele>
        <time>2021-09-11T09:14:57.213Z</time>
      </trkpt>
      <trkpt lat="45.82443" lon="6.1722">
        <ele>509</ele>
        <time>2021-09-11T09:14:58.213Z</time>
      </trkpt>
      <trkpt lat="45.82444" lon="6.17215">
        <ele>509</ele>
        <time>2021-09-11T09:14:59.213Z</time>
      </trkpt>
      <trkpt lat="45.82444" lon="6.17212">
        <ele>509</ele>
        <time>2021-09-11T09:15:00.213Z</time>
      </trkpt>
      <trkpt lat="45.82445" lon="6.17207">
        <ele>509</ele>
        <time>2021-09-11T09:15:01.213Z</time>
      </trkpt>
      <trkpt lat="45.82446" lon="6.17203">
        <ele>509</ele>
        <time>2021-09-11T09:15:02.213Z</time>
      </trkpt>
      <trkpt lat="45.82447" lon="6.17198">
        <ele>509</ele>
        <time>2021-09-11T09:15:03.213Z</time>
      </trkpt>
      <trkpt lat="45.82447" lon="6.17194">
        <ele>509</ele>
        <time>2021-09-11T09:15:04.212Z</time>
      </trkpt>
      <trkpt lat="45.82448" lon="6.17189">
        <ele>509</ele>
        <time>2021-09-11T09:15:05.213Z</time>
      </trkpt>
      <trkpt lat="45.82449" lon="6.17185">
        <ele>509</ele>
        <time>2021-09-11T09:15:06.213Z</time>
      </trkpt>
      <trkpt lat="45.82449" lon="6.1718">
        <ele>509</ele>
        <time>2021-09-11T09:15:07.212Z</time>
      </trkpt>
      <trkpt lat="45.8245" lon="6.17174">
        <ele>508</ele>
        <time>2021-09-11T09:15:08.212Z</time>
      </trkpt>
      <trkpt lat="45.8245" lon="6.17168">
        <ele>508</ele>
        <time>2021-09-11T09:15:09.213Z</time>
      </trkpt>
      <trkpt lat="45.8245" lon="6.17163">
        <ele>508</ele>
        <time>2021-09-11T09:15:10.213Z</time>
      </trkpt>
      <trkpt lat="45.82451" lon="6.17157">
        <ele>508</ele>
        <time>2021-09-11T09:15:11.213Z</time>
      </trkpt>
      <trkpt lat="45.82451" lon="6.17151">
        <ele>508</ele>
        <time>2021-09-11T09:15:12.213Z</time>
      </trkpt>
      <trkpt lat="45.82451" lon="6.17145">
        <ele>508</ele>
        <time>2021-09-11T09:15:13.213Z</time>
      </trkpt>
      <trkpt lat="45.82451" lon="6.17137">
        <ele>508</ele>
        <time>2021-09-11T09:15:14.213Z</time>
      </trkpt>
      <trkpt lat="45.82451" lon="6.1713">
        <ele>508</ele>
        <time>2021-09-11T09:15:15.213Z</time>
      </trkpt>
      <trkpt lat="45.82452" lon="6.17126">
        <ele>508</ele>
        <time>2021-09-11T09:15:16.212Z</time>
      </trkpt>
      <trkpt lat="45.82452" lon="6.1712">
        <ele>508</ele>
        <time>2021-09-11T09:15:17.213Z</time>
      </trkpt>
      <trkpt lat="45.82452" lon="6.17114">
        <ele>508</ele>
        <time>2021-09-11T09:15:18.213Z</time>
      </trkpt>
      <trkpt lat="45.82452" lon="6.17107">
        <ele>507</ele>
        <time>2021-09-11T09:15:19.213Z</time>
      </trkpt>
      <trkpt lat="45.82453" lon="6.17103">
        <ele>507</ele>
        <time>2021-09-11T09:15:20.213Z</time>
      </trkpt>
      <trkpt lat="45.82453" lon="6.17097">
        <ele>507</ele>
        <time>2021-09-11T09:15:21.213Z</time>
      </trkpt>
      <trkpt lat="45.82453" lon="6.1709">
        <ele>507</ele>
        <time>2021-09-11T09:15:22.213Z</time>
      </trkpt>
      <trkpt lat="45.82453" lon="6.17085">
        <ele>507</ele>
        <time>2021-09-11T09:15:23.213Z</time>
      </trkpt>
      <trkpt lat="45.82453" lon="6.17079">
        <ele>507</ele>
        <time>2021-09-11T09:15:24.213Z</time>
      </trkpt>
      <trkpt lat="45.82454" lon="6.17072">
        <ele>507</ele>
        <time>2021-09-11T09:15:25.213Z</time>
      </trkpt>
      <trkpt lat="45.82454" lon="6.17065">
        <ele>507</ele>
        <time>2021-09-11T09:15:26.213Z</time>
      </trkpt>
      <trkpt lat="45.82454" lon="6.17057">
        <ele>506</ele>
        <time>2021-09-11T09:15:27.213Z</time>
      </trkpt>
      <trkpt lat="45.82455" lon="6.17048">
        <ele>505</ele>
        <time>2021-09-11T09:15:28.213Z</time>
      </trkpt>
      <trkpt lat="45.82456" lon="6.17042">
        <ele>505</ele>
        <time>2021-09-11T09:15:29.213Z</time>
      </trkpt>
      <trkpt lat="45.82457" lon="6.17034">
        <ele>504</ele>
        <time>2021-09-11T09:15:30.213Z</time>
      </trkpt>
      <trkpt lat="45.82459" lon="6.17025">
        <ele>504</ele>
        <time>2021-09-11T09:15:31.212Z</time>
      </trkpt>
      <trkpt lat="45.8246" lon="6.17018">
        <ele>503</ele>
        <time>2021-09-11T09:15:32.213Z</time>
      </trkpt>
      <trkpt lat="45.82462" lon="6.17011">
        <ele>503</ele>
        <time>2021-09-11T09:15:33.213Z</time>
      </trkpt>
      <trkpt lat="45.82463" lon="6.17002">
        <ele>503</ele>
        <time>2021-09-11T09:15:34.212Z</time>
      </trkpt>
      <trkpt lat="45.82465" lon="6.16994">
        <ele>502</ele>
        <time>2021-09-11T09:15:35.213Z</time>
      </trkpt>
      <trkpt lat="45.82466" lon="6.16985">
        <ele>502</ele>
        <time>2021-09-11T09:15:36.213Z</time>
      </trkpt>
      <trkpt lat="45.82467" lon="6.16977">
        <ele>502</ele>
        <time>2021-09-11T09:15:37.212Z</time>
      </trkpt>
      <trkpt lat="45.82468" lon="6.16967">
        <ele>501</ele>
        <time>2021-09-11T09:15:38.213Z</time>
      </trkpt>
      <trkpt lat="45.82469" lon="6.16957">
        <ele>501</ele>
        <time>2021-09-11T09:15:39.213Z</time>
      </trkpt>
      <trkpt lat="45.8247" lon="6.16947">
        <ele>500</ele>
        <time>2021-09-11T09:15:40.212Z</time>
      </trkpt>
      <trkpt lat="45.8247" lon="6.16936">
        <ele>500</ele>
        <time>2021-09-11T09:15:41.213Z</time>
      </trkpt>
      <trkpt lat="45.82471" lon="6.16926">
        <ele>500</ele>
        <time>2021-09-11T09:15:42.213Z</time>
      </trkpt>
      <trkpt lat="45.82472" lon="6.16916">
        <ele>500</ele>
        <time>2021-09-11T09:15:43.213Z</time>
      </trkpt>
      <trkpt lat="45.82472" lon="6.16906">
        <ele>499</ele>
        <time>2021-09-11T09:15:44.213Z</time>
      </trkpt>
      <trkpt lat="45.82473" lon="6.16896">
        <ele>499</ele>
        <time>2021-09-11T09:15:45.212Z</time>
      </trkpt>
      <trkpt lat="45.82473" lon="6.16887">
        <ele>498</ele>
        <time>2021-09-11T09:15:46.213Z</time>
      </trkpt>
      <trkpt lat="45.82473" lon="6.16878">
        <ele>498</ele>
        <time>2021-09-11T09:15:47.212Z</time>
      </trkpt>
      <trkpt lat="45.82472" lon="6.16868">
        <ele>497</ele>
        <time>2021-09-11T09:15:48.213Z</time>
      </trkpt>
      <trkpt lat="45.82471" lon="6.16858">
        <ele>496</ele>
        <time>2021-09-11T09:15:49.212Z</time>
      </trkpt>
      <trkpt lat="45.8247" lon="6.16848">
        <ele>496</ele>
        <time>2021-09-11T09:15:50.213Z</time>
      </trkpt>
      <trkpt lat="45.82469" lon="6.16838">
        <ele>495</ele>
        <time>2021-09-11T09:15:51.212Z</time>
      </trkpt>
      <trkpt lat="45.82468" lon="6.16826">
        <ele>494</ele>
        <time>2021-09-11T09:15:52.213Z</time>
      </trkpt>
      <trkpt lat="45.82468" lon="6.16814">
        <ele>494</ele>
        <time>2021-09-11T09:15:53.213Z</time>
      </trkpt>
      <trkpt lat="45.82469" lon="6.16803">
        <ele>493</ele>
        <time>2021-09-11T09:15:54.213Z</time>
      </trkpt>
      <trkpt lat="45.82471" lon="6.16791">
        <ele>493</ele>
        <time>2021-09-11T09:15:55.213Z</time>
      </trkpt>
      <trkpt lat="45.82472" lon="6.16778">
        <ele>492</ele>
        <time>2021-09-11T09:15:56.213Z</time>
      </trkpt>
      <trkpt lat="45.82473" lon="6.16767">
        <ele>492</ele>
        <time>2021-09-11T09:15:57.213Z</time>
      </trkpt>
      <trkpt lat="45.82474" lon="6.16759">
        <ele>491</ele>
        <time>2021-09-11T09:15:58.212Z</time>
      </trkpt>
      <trkpt lat="45.82475" lon="6.16749">
        <ele>491</ele>
        <time>2021-09-11T09:15:59.213Z</time>
      </trkpt>
      <trkpt lat="45.82476" lon="6.1674">
        <ele>490</ele>
        <time>2021-09-11T09:16:00.213Z</time>
      </trkpt>
      <trkpt lat="45.82479" lon="6.16733">
        <ele>489</ele>
        <time>2021-09-11T09:16:01.212Z</time>
      </trkpt>
      <trkpt lat="45.82482" lon="6.1673">
        <ele>489</ele>
        <time>2021-09-11T09:16:02.212Z</time>
      </trkpt>
      <trkpt lat="45.82486" lon="6.16729">
        <ele>488</ele>
        <time>2021-09-11T09:16:03.213Z</time>
      </trkpt>
      <trkpt lat="45.82491" lon="6.16731">
        <ele>487</ele>
        <time>2021-09-11T09:16:04.212Z</time>
      </trkpt>
      <trkpt lat="45.82496" lon="6.16735">
        <ele>487</ele>
        <time>2021-09-11T09:16:05.213Z</time>
      </trkpt>
      <trkpt lat="45.82499" lon="6.16739">
        <ele>486</ele>
        <time>2021-09-11T09:16:06.213Z</time>
      </trkpt>
      <trkpt lat="45.82503" lon="6.16744">
        <ele>486</ele>
        <time>2021-09-11T09:16:07.213Z</time>
      </trkpt>
      <trkpt lat="45.82508" lon="6.1675">
        <ele>485</ele>
        <time>2021-09-11T09:16:08.213Z</time>
      </trkpt>
      <trkpt lat="45.82512" lon="6.16755">
        <ele>485</ele>
        <time>2021-09-11T09:16:09.213Z</time>
      </trkpt>
      <trkpt lat="45.82518" lon="6.16763">
        <ele>485</ele>
        <time>2021-09-11T09:16:10.213Z</time>
      </trkpt>
      <trkpt lat="45.82523" lon="6.1677">
        <ele>484</ele>
        <time>2021-09-11T09:16:11.212Z</time>
      </trkpt>
      <trkpt lat="45.82526" lon="6.16775">
        <ele>484</ele>
        <time>2021-09-11T09:16:12.213Z</time>
      </trkpt>
      <trkpt lat="45.82531" lon="6.16783">
        <ele>483</ele>
        <time>2021-09-11T09:16:13.212Z</time>
      </trkpt>
      <trkpt lat="45.82537" lon="6.16791">
        <ele>483</ele>
        <time>2021-09-11T09:16:14.213Z</time>
      </trkpt>
      <trkpt lat="45.82541" lon="6.16797">
        <ele>483</ele>
        <time>2021-09-11T09:16:15.213Z</time>
      </trkpt>
      <trkpt lat="45.82545" lon="6.16804">
        <ele>482</ele>
        <time>2021-09-11T09:16:16.213Z</time>
      </trkpt>
      <trkpt lat="45.8255" lon="6.1681">
        <ele>482</ele>
        <time>2021-09-11T09:16:17.213Z</time>
      </trkpt>
      <trkpt lat="45.82555" lon="6.16816">
        <ele>482</ele>
        <time>2021-09-11T09:16:18.213Z</time>
      </trkpt>
      <trkpt lat="45.82559" lon="6.16822">
        <ele>481</ele>
        <time>2021-09-11T09:16:19.213Z</time>
      </trkpt>
      <trkpt lat="45.82565" lon="6.16829">
        <ele>481</ele>
        <time>2021-09-11T09:16:20.213Z</time>
      </trkpt>
      <trkpt lat="45.8257" lon="6.16833">
        <ele>481</ele>
        <time>2021-09-11T09:16:21.212Z</time>
      </trkpt>
      <trkpt lat="45.82575" lon="6.16839">
        <ele>481</ele>
        <time>2021-09-11T09:16:22.213Z</time>
      </trkpt>
      <trkpt lat="45.82581" lon="6.16844">
        <ele>481</ele>
        <time>2021-09-11T09:16:23.212Z</time>
      </trkpt>
      <trkpt lat="45.82587" lon="6.16849">
        <ele>481</ele>
        <time>2021-09-11T09:16:24.213Z</time>
      </trkpt>
      <trkpt lat="45.82592" lon="6.16852">
        <ele>481</ele>
        <time>2021-09-11T09:16:25.213Z</time>
      </trkpt>
      <trkpt lat="45.82598" lon="6.16856">
        <ele>481</ele>
        <time>2021-09-11T09:16:26.213Z</time>
      </trkpt>
      <trkpt lat="45.82605" lon="6.1686">
        <ele>480</ele>
        <time>2021-09-11T09:16:27.213Z</time>
      </trkpt>
      <trkpt lat="45.82612" lon="6.16865">
        <ele>480</ele>
        <time>2021-09-11T09:16:28.213Z</time>
      </trkpt>
      <trkpt lat="45.82619" lon="6.16869">
        <ele>480</ele>
        <time>2021-09-11T09:16:29.213Z</time>
      </trkpt>
      <trkpt lat="45.82624" lon="6.16872">
        <ele>479</ele>
        <time>2021-09-11T09:16:30.213Z</time>
      </trkpt>
      <trkpt lat="45.82631" lon="6.16876">
        <ele>479</ele>
        <time>2021-09-11T09:16:31.213Z</time>
      </trkpt>
      <trkpt lat="45.82639" lon="6.1688">
        <ele>478</ele>
        <time>2021-09-11T09:16:32.213Z</time>
      </trkpt>
      <trkpt lat="45.82644" lon="6.16882">
        <ele>478</ele>
        <time>2021-09-11T09:16:33.213Z</time>
      </trkpt>
      <trkpt lat="45.82651" lon="6.16886">
        <ele>478</ele>
        <time>2021-09-11T09:16:34.213Z</time>
      </trkpt>
      <trkpt lat="45.82657" lon="6.1689">
        <ele>478</ele>
        <time>2021-09-11T09:16:35.213Z</time>
      </trkpt>
      <trkpt lat="45.82664" lon="6.16893">
        <ele>477</ele>
        <time>2021-09-11T09:16:36.213Z</time>
      </trkpt>
      <trkpt lat="45.82671" lon="6.16897">
        <ele>477</ele>
        <time>2021-09-11T09:16:37.212Z</time>
      </trkpt>
      <trkpt lat="45.82679" lon="6.16901">
        <ele>477</ele>
        <time>2021-09-11T09:16:38.213Z</time>
      </trkpt>
      <trkpt lat="45.82684" lon="6.16904">
        <ele>476</ele>
        <time>2021-09-11T09:16:39.212Z</time>
      </trkpt>
      <trkpt lat="45.82691" lon="6.16906">
        <ele>476</ele>
        <time>2021-09-11T09:16:40.212Z</time>
      </trkpt>
      <trkpt lat="45.827" lon="6.16909">
        <ele>476</ele>
        <time>2021-09-11T09:16:41.213Z</time>
      </trkpt>
      <trkpt lat="45.82706" lon="6.16911">
        <ele>475</ele>
        <time>2021-09-11T09:16:42.213Z</time>
      </trkpt>
      <trkpt lat="45.82712" lon="6.16912">
        <ele>475</ele>
        <time>2021-09-11T09:16:43.213Z</time>
      </trkpt>
      <trkpt lat="45.82719" lon="6.16913">
        <ele>475</ele>
        <time>2021-09-11T09:16:44.213Z</time>
      </trkpt>
      <trkpt lat="45.82726" lon="6.16914">
        <ele>475</ele>
        <time>2021-09-11T09:16:45.212Z</time>
      </trkpt>
      <trkpt lat="45.82735" lon="6.16915">
        <ele>475</ele>
        <time>2021-09-11T09:16:46.213Z</time>
      </trkpt>
      <trkpt lat="45.82743" lon="6.16917">
        <ele>474</ele>
        <time>2021-09-11T09:16:47.213Z</time>
      </trkpt>
      <trkpt lat="45.82748" lon="6.16918">
        <ele>474</ele>
        <time>2021-09-11T09:16:48.213Z</time>
      </trkpt>
      <trkpt lat="45.82757" lon="6.16919">
        <ele>474</ele>
        <time>2021-09-11T09:16:49.213Z</time>
      </trkpt>
      <trkpt lat="45.82764" lon="6.1692">
        <ele>474</ele>
        <time>2021-09-11T09:16:50.213Z</time>
      </trkpt>
      <trkpt lat="45.82769" lon="6.16921">
        <ele>474</ele>
        <time>2021-09-11T09:16:51.213Z</time>
      </trkpt>
      <trkpt lat="45.82775" lon="6.16923">
        <ele>474</ele>
        <time>2021-09-11T09:16:52.212Z</time>
      </trkpt>
      <trkpt lat="45.82781" lon="6.16925">
        <ele>474</ele>
        <time>2021-09-11T09:16:53.213Z</time>
      </trkpt>
      <trkpt lat="45.82787" lon="6.16927">
        <ele>474</ele>
        <time>2021-09-11T09:16:54.213Z</time>
      </trkpt>
      <trkpt lat="45.82794" lon="6.1693">
        <ele>473</ele>
        <time>2021-09-11T09:16:55.213Z</time>
      </trkpt>
      <trkpt lat="45.828" lon="6.16933">
        <ele>473</ele>
        <time>2021-09-11T09:16:56.213Z</time>
      </trkpt>
      <trkpt lat="45.82805" lon="6.16936">
        <ele>473</ele>
        <time>2021-09-11T09:16:57.213Z</time>
      </trkpt>
      <trkpt lat="45.82811" lon="6.16939">
        <ele>472</ele>
        <time>2021-09-11T09:16:58.212Z</time>
      </trkpt>
      <trkpt lat="45.82816" lon="6.16944">
        <ele>472</ele>
        <time>2021-09-11T09:16:59.212Z</time>
      </trkpt>
      <trkpt lat="45.82822" lon="6.16948">
        <ele>472</ele>
        <time>2021-09-11T09:17:00.213Z</time>
      </trkpt>
      <trkpt lat="45.82827" lon="6.16952">
        <ele>471</ele>
        <time>2021-09-11T09:17:01.213Z</time>
      </trkpt>
      <trkpt lat="45.82833" lon="6.16956">
        <ele>471</ele>
        <time>2021-09-11T09:17:02.212Z</time>
      </trkpt>
      <trkpt lat="45.82838" lon="6.16961">
        <ele>471</ele>
        <time>2021-09-11T09:17:03.213Z</time>
      </trkpt>
      <trkpt lat="45.82845" lon="6.16966">
        <ele>471</ele>
        <time>2021-09-11T09:17:04.213Z</time>
      </trkpt>
      <trkpt lat="45.8285" lon="6.1697">
        <ele>471</ele>
        <time>2021-09-11T09:17:05.213Z</time>
      </trkpt>
      <trkpt lat="45.82855" lon="6.16974">
        <ele>471</ele>
        <time>2021-09-11T09:17:06.212Z</time>
      </trkpt>
      <trkpt lat="45.8286" lon="6.16979">
        <ele>471</ele>
        <time>2021-09-11T09:17:07.213Z</time>
      </trkpt>
      <trkpt lat="45.82866" lon="6.16983">
        <ele>471</ele>
        <time>2021-09-11T09:17:08.212Z</time>
      </trkpt>
      <trkpt lat="45.82872" lon="6.16988">
        <ele>471</ele>
        <time>2021-09-11T09:17:09.212Z</time>
      </trkpt>
      <trkpt lat="45.82877" lon="6.16992">
        <ele>471</ele>
        <time>2021-09-11T09:17:10.212Z</time>
      </trkpt>
      <trkpt lat="45.82883" lon="6.16997">
        <ele>471</ele>
        <time>2021-09-11T09:17:11.213Z</time>
      </trkpt>
      <trkpt lat="45.82889" lon="6.17001">
        <ele>470</ele>
        <time>2021-09-11T09:17:12.213Z</time>
      </trkpt>
      <trkpt lat="45.82896" lon="6.17007">
        <ele>470</ele>
        <time>2021-09-11T09:17:13.213Z</time>
      </trkpt>
      <trkpt lat="45.82902" lon="6.17011">
        <ele>470</ele>
        <time>2021-09-11T09:17:14.213Z</time>
      </trkpt>
      <trkpt lat="45.82906" lon="6.17015">
        <ele>469</ele>
        <time>2021-09-11T09:17:15.213Z</time>
      </trkpt>
      <trkpt lat="45.82913" lon="6.17021">
        <ele>469</ele>
        <time>2021-09-11T09:17:16.213Z</time>
      </trkpt>
      <trkpt lat="45.82919" lon="6.17026">
        <ele>469</ele>
        <time>2021-09-11T09:17:17.213Z</time>
      </trkpt>
      <trkpt lat="45.82924" lon="6.17029">
        <ele>469</ele>
        <time>2021-09-11T09:17:18.213Z</time>
      </trkpt>
      <trkpt lat="45.82929" lon="6.17033">
        <ele>469</ele>
        <time>2021-09-11T09:17:19.213Z</time>
      </trkpt>
      <trkpt lat="45.82935" lon="6.17038">
        <ele>469</ele>
        <time>2021-09-11T09:17:20.213Z</time>
      </trkpt>
      <trkpt lat="45.8294" lon="6.17042">
        <ele>469</ele>
        <time>2021-09-11T09:17:21.212Z</time>
      </trkpt>
      <trkpt lat="45.82947" lon="6.17048">
        <ele>469</ele>
        <time>2021-09-11T09:17:22.213Z</time>
      </trkpt>
      <trkpt lat="45.82952" lon="6.17052">
        <ele>469</ele>
        <time>2021-09-11T09:17:23.212Z</time>
      </trkpt>
      <trkpt lat="45.82956" lon="6.17056">
        <ele>469</ele>
        <time>2021-09-11T09:17:24.212Z</time>
      </trkpt>
      <trkpt lat="45.82963" lon="6.17061">
        <ele>469</ele>
        <time>2021-09-11T09:17:25.213Z</time>
      </trkpt>
      <trkpt lat="45.82968" lon="6.17066">
        <ele>469</ele>
        <time>2021-09-11T09:17:26.212Z</time>
      </trkpt>
      <trkpt lat="45.82972" lon="6.17069">
        <ele>468</ele>
        <time>2021-09-11T09:17:27.212Z</time>
      </trkpt>
      <trkpt lat="45.82977" lon="6.17074">
        <ele>468</ele>
        <time>2021-09-11T09:17:28.213Z</time>
      </trkpt>
      <trkpt lat="45.82982" lon="6.17079">
        <ele>468</ele>
        <time>2021-09-11T09:17:29.212Z</time>
      </trkpt>
      <trkpt lat="45.82987" lon="6.17084">
        <ele>467</ele>
        <time>2021-09-11T09:17:30.213Z</time>
      </trkpt>
      <trkpt lat="45.82993" lon="6.1709">
        <ele>467</ele>
        <time>2021-09-11T09:17:31.212Z</time>
      </trkpt>
      <trkpt lat="45.82997" lon="6.17094">
        <ele>466</ele>
        <time>2021-09-11T09:17:32.213Z</time>
      </trkpt>
      <trkpt lat="45.83002" lon="6.17099">
        <ele>466</ele>
        <time>2021-09-11T09:17:33.213Z</time>
      </trkpt>
      <trkpt lat="45.83007" lon="6.17104">
        <ele>466</ele>
        <time>2021-09-11T09:17:34.213Z</time>
      </trkpt>
      <trkpt lat="45.83013" lon="6.1711">
        <ele>466</ele>
        <time>2021-09-11T09:17:35.213Z</time>
      </trkpt>
      <trkpt lat="45.83017" lon="6.17115">
        <ele>466</ele>
        <time>2021-09-11T09:17:36.213Z</time>
      </trkpt>
      <trkpt lat="45.83021" lon="6.17119">
        <ele>465</ele>
        <time>2021-09-11T09:17:37.212Z</time>
      </trkpt>
      <trkpt lat="45.83027" lon="6.17125">
        <ele>465</ele>
        <time>2021-09-11T09:17:38.213Z</time>
      </trkpt>
      <trkpt lat="45.83031" lon="6.17129">
        <ele>465</ele>
        <time>2021-09-11T09:17:39.213Z</time>
      </trkpt>
      <trkpt lat="45.83036" lon="6.17134">
        <ele>464</ele>
        <time>2021-09-11T09:17:40.213Z</time>
      </trkpt>
      <trkpt lat="45.8304" lon="6.17137">
        <ele>464</ele>
        <time>2021-09-11T09:17:41.212Z</time>
      </trkpt>
      <trkpt lat="45.83044" lon="6.17142">
        <ele>464</ele>
        <time>2021-09-11T09:17:42.212Z</time>
      </trkpt>
      <trkpt lat="45.83049" lon="6.17146">
        <ele>464</ele>
        <time>2021-09-11T09:17:43.213Z</time>
      </trkpt>
      <trkpt lat="45.83054" lon="6.17151">
        <ele>465</ele>
        <time>2021-09-11T09:17:44.213Z</time>
      </trkpt>
      <trkpt lat="45.83058" lon="6.17155">
        <ele>465</ele>
        <time>2021-09-11T09:17:45.213Z</time>
      </trkpt>
      <trkpt lat="45.83062" lon="6.17158">
        <ele>465</ele>
        <time>2021-09-11T09:17:46.213Z</time>
      </trkpt>
      <trkpt lat="45.83066" lon="6.17162">
        <ele>465</ele>
        <time>2021-09-11T09:17:47.213Z</time>
      </trkpt>
      <trkpt lat="45.83071" lon="6.17167">
        <ele>465</ele>
        <time>2021-09-11T09:17:48.213Z</time>
      </trkpt>
      <trkpt lat="45.83076" lon="6.17171">
        <ele>465</ele>
        <time>2021-09-11T09:17:49.212Z</time>
      </trkpt>
      <trkpt lat="45.83079" lon="6.17175">
        <ele>466</ele>
        <time>2021-09-11T09:17:50.212Z</time>
      </trkpt>
      <trkpt lat="45.83084" lon="6.17179">
        <ele>466</ele>
        <time>2021-09-11T09:17:51.212Z</time>
      </trkpt>
      <trkpt lat="45.83088" lon="6.17183">
        <ele>466</ele>
        <time>2021-09-11T09:17:52.213Z</time>
      </trkpt>
      <trkpt lat="45.83093" lon="6.17187">
        <ele>465</ele>
        <time>2021-09-11T09:17:53.212Z</time>
      </trkpt>
      <trkpt lat="45.83098" lon="6.17192">
        <ele>465</ele>
        <time>2021-09-11T09:17:54.213Z</time>
      </trkpt>
      <trkpt lat="45.83101" lon="6.17195">
        <ele>465</ele>
        <time>2021-09-11T09:17:55.212Z</time>
      </trkpt>
      <trkpt lat="45.83107" lon="6.17199">
        <ele>464</ele>
        <time>2021-09-11T09:17:56.212Z</time>
      </trkpt>
      <trkpt lat="45.83111" lon="6.17203">
        <ele>464</ele>
        <time>2021-09-11T09:17:57.213Z</time>
      </trkpt>
      <trkpt lat="45.83115" lon="6.17206">
        <ele>463</ele>
        <time>2021-09-11T09:17:58.213Z</time>
      </trkpt>
      <trkpt lat="45.8312" lon="6.1721">
        <ele>463</ele>
        <time>2021-09-11T09:17:59.213Z</time>
      </trkpt>
      <trkpt lat="45.83124" lon="6.17214">
        <ele>463</ele>
        <time>2021-09-11T09:18:00.213Z</time>
      </trkpt>
      <trkpt lat="45.83128" lon="6.17218">
        <ele>463</ele>
        <time>2021-09-11T09:18:01.212Z</time>
      </trkpt>
      <trkpt lat="45.83134" lon="6.17222">
        <ele>463</ele>
        <time>2021-09-11T09:18:02.212Z</time>
      </trkpt>
      <trkpt lat="45.83138" lon="6.17225">
        <ele>463</ele>
        <time>2021-09-11T09:18:03.213Z</time>
      </trkpt>
      <trkpt lat="45.83143" lon="6.17228">
        <ele>463</ele>
        <time>2021-09-11T09:18:04.213Z</time>
      </trkpt>
      <trkpt lat="45.83149" lon="6.17232">
        <ele>463</ele>
        <time>2021-09-11T09:18:05.213Z</time>
      </trkpt>
      <trkpt lat="45.83154" lon="6.17235">
        <ele>463</ele>
        <time>2021-09-11T09:18:06.213Z</time>
      </trkpt>
      <trkpt lat="45.83158" lon="6.17238">
        <ele>464</ele>
        <time>2021-09-11T09:18:07.213Z</time>
      </trkpt>
      <trkpt lat="45.83163" lon="6.17241">
        <ele>464</ele>
        <time>2021-09-11T09:18:08.213Z</time>
      </trkpt>
      <trkpt lat="45.83169" lon="6.17243">
        <ele>463</ele>
        <time>2021-09-11T09:18:09.212Z</time>
      </trkpt>
      <trkpt lat="45.83175" lon="6.17244">
        <ele>463</ele>
        <time>2021-09-11T09:18:10.213Z</time>
      </trkpt>
      <trkpt lat="45.83181" lon="6.17243">
        <ele>463</ele>
        <time>2021-09-11T09:18:11.213Z</time>
      </trkpt>
      <trkpt lat="45.83186" lon="6.17241">
        <ele>463</ele>
        <time>2021-09-11T09:18:12.212Z</time>
      </trkpt>
      <trkpt lat="45.83189" lon="6.17239">
        <ele>462</ele>
        <time>2021-09-11T09:18:13.213Z</time>
      </trkpt>
      <trkpt lat="45.83193" lon="6.17238">
        <ele>461</ele>
        <time>2021-09-11T09:18:14.213Z</time>
      </trkpt>
      <trkpt lat="45.83195" lon="6.17238">
        <ele>461</ele>
        <time>2021-09-11T09:18:15.213Z</time>
      </trkpt>
      <trkpt lat="45.83196" lon="6.17238">
        <ele>461</ele>
        <time>2021-09-11T09:18:16.212Z</time>
      </trkpt>
      <trkpt lat="45.83198" lon="6.17238">
        <ele>461</ele>
        <time>2021-09-11T09:18:17.213Z</time>
      </trkpt>
      <trkpt lat="45.83198" lon="6.17239">
        <ele>460</ele>
        <time>2021-09-11T09:18:18.212Z</time>
      </trkpt>
      <trkpt lat="45.83199" lon="6.17239">
        <ele>460</ele>
        <time>2021-09-11T09:18:19.213Z</time>
      </trkpt>
      <trkpt lat="45.83201" lon="6.17241">
        <ele>460</ele>
        <time>2021-09-11T09:18:20.213Z</time>
      </trkpt>
      <trkpt lat="45.83202" lon="6.17242">
        <ele>461</ele>
        <time>2021-09-11T09:18:21.212Z</time>
      </trkpt>
      <trkpt lat="45.83203" lon="6.17244">
        <ele>461</ele>
        <time>2021-09-11T09:18:22.212Z</time>
      </trkpt>
      <trkpt lat="45.83206" lon="6.17247">
        <ele>461</ele>
        <time>2021-09-11T09:18:23.213Z</time>
      </trkpt>
      <trkpt lat="45.83209" lon="6.17249">
        <ele>461</ele>
        <time>2021-09-11T09:18:24.213Z</time>
      </trkpt>
      <trkpt lat="45.83212" lon="6.1725">
        <ele>462</ele>
        <time>2021-09-11T09:18:25.213Z</time>
      </trkpt>
      <trkpt lat="45.83217" lon="6.17251">
        <ele>462</ele>
        <time>2021-09-11T09:18:26.212Z</time>
      </trkpt>
      <trkpt lat="45.83221" lon="6.17252">
        <ele>461</ele>
        <time>2021-09-11T09:18:27.213Z</time>
      </trkpt>
      <trkpt lat="45.83226" lon="6.17253">
        <ele>461</ele>
        <time>2021-09-11T09:18:28.213Z</time>
      </trkpt>
      <trkpt lat="45.83232" lon="6.17255">
        <ele>461</ele>
        <time>2021-09-11T09:18:29.212Z</time>
      </trkpt>
      <trkpt lat="45.83235" lon="6.17257">
        <ele>460</ele>
        <time>2021-09-11T09:18:30.212Z</time>
      </trkpt>
      <trkpt lat="45.83239" lon="6.17258">
        <ele>460</ele>
        <time>2021-09-11T09:18:31.213Z</time>
      </trkpt>
      <trkpt lat="45.83244" lon="6.17258">
        <ele>460</ele>
        <time>2021-09-11T09:18:32.212Z</time>
      </trkpt>
      <trkpt lat="45.83248" lon="6.17256">
        <ele>460</ele>
        <time>2021-09-11T09:18:33.213Z</time>
      </trkpt>
      <trkpt lat="45.8325" lon="6.17253">
        <ele>460</ele>
        <time>2021-09-11T09:18:34.213Z</time>
      </trkpt>
      <trkpt lat="45.83252" lon="6.17248">
        <ele>459</ele>
        <time>2021-09-11T09:18:35.213Z</time>
      </trkpt>
      <trkpt lat="45.83253" lon="6.17242">
        <ele>458</ele>
        <time>2021-09-11T09:18:36.212Z</time>
      </trkpt>
      <trkpt lat="45.83253" lon="6.17235">
        <ele>458</ele>
        <time>2021-09-11T09:18:37.213Z</time>
      </trkpt>
      <trkpt lat="45.83253" lon="6.17227">
        <ele>457</ele>
        <time>2021-09-11T09:18:38.213Z</time>
      </trkpt>
      <trkpt lat="45.83252" lon="6.17222">
        <ele>457</ele>
        <time>2021-09-11T09:18:39.213Z</time>
      </trkpt>
      <trkpt lat="45.83251" lon="6.17215">
        <ele>457</ele>
        <time>2021-09-11T09:18:40.213Z</time>
      </trkpt>
      <trkpt lat="45.83251" lon="6.17208">
        <ele>457</ele>
        <time>2021-09-11T09:18:41.212Z</time>
      </trkpt>
      <trkpt lat="45.83251" lon="6.17203">
        <ele>457</ele>
        <time>2021-09-11T09:18:42.213Z</time>
      </trkpt>
      <trkpt lat="45.83251" lon="6.17196">
        <ele>457</ele>
        <time>2021-09-11T09:18:43.213Z</time>
      </trkpt>
      <trkpt lat="45.83251" lon="6.1719">
        <ele>457</ele>
        <time>2021-09-11T09:18:44.213Z</time>
      </trkpt>
      <trkpt lat="45.83251" lon="6.17183">
        <ele>457</ele>
        <time>2021-09-11T09:18:45.213Z</time>
      </trkpt>
      <trkpt lat="45.83252" lon="6.17177">
        <ele>457</ele>
        <time>2021-09-11T09:18:46.213Z</time>
      </trkpt>
      <trkpt lat="45.83254" lon="6.17171">
        <ele>457</ele>
        <time>2021-09-11T09:18:47.213Z</time>
      </trkpt>
      <trkpt lat="45.83255" lon="6.17167">
        <ele>457</ele>
        <time>2021-09-11T09:18:48.212Z</time>
      </trkpt>
      <trkpt lat="45.83256" lon="6.17162">
        <ele>457</ele>
        <time>2021-09-11T09:18:49.213Z</time>
      </trkpt>
      <trkpt lat="45.83256" lon="6.17156">
        <ele>457</ele>
        <time>2021-09-11T09:18:50.213Z</time>
      </trkpt>
      <trkpt lat="45.83255" lon="6.17151">
        <ele>457</ele>
        <time>2021-09-11T09:18:51.213Z</time>
      </trkpt>
      <trkpt lat="45.83256" lon="6.17147">
        <ele>457</ele>
        <time>2021-09-11T09:18:52.213Z</time>
      </trkpt>
      <trkpt lat="45.83257" lon="6.17143">
        <ele>457</ele>
        <time>2021-09-11T09:18:53.212Z</time>
      </trkpt>
      <trkpt lat="45.83259" lon="6.17139">
        <ele>457</ele>
        <time>2021-09-11T09:18:54.213Z</time>
      </trkpt>
      <trkpt lat="45.8326" lon="6.17136">
        <ele>456</ele>
        <time>2021-09-11T09:18:55.213Z</time>
      </trkpt>
      <trkpt lat="45.83263" lon="6.17131">
        <ele>456</ele>
        <time>2021-09-11T09:18:56.213Z</time>
      </trkpt>
      <trkpt lat="45.83264" lon="6.17128">
        <ele>456</ele>
        <time>2021-09-11T09:18:57.212Z</time>
      </trkpt>
      <trkpt lat="45.83266" lon="6.17124">
        <ele>456</ele>
        <time>2021-09-11T09:18:58.213Z</time>
      </trkpt>
      <trkpt lat="45.83269" lon="6.1712">
        <ele>457</ele>
        <time>2021-09-11T09:18:59.213Z</time>
      </trkpt>
      <trkpt lat="45.8327" lon="6.17116">
        <ele>457</ele>
        <time>2021-09-11T09:19:00.213Z</time>
      </trkpt>
      <trkpt lat="45.83272" lon="6.17112">
        <ele>457</ele>
        <time>2021-09-11T09:19:01.213Z</time>
      </trkpt>
      <trkpt lat="45.83273" lon="6.1711">
        <ele>457</ele>
        <time>2021-09-11T09:19:02.213Z</time>
      </trkpt>
      <trkpt lat="45.83274" lon="6.17106">
        <ele>457</ele>
        <time>2021-09-11T09:19:03.212Z</time>
      </trkpt>
      <trkpt lat="45.83275" lon="6.17103">
        <ele>457</ele>
        <time>2021-09-11T09:19:04.213Z</time>
      </trkpt>
      <trkpt lat="45.83276" lon="6.171">
        <ele>457</ele>
        <time>2021-09-11T09:19:05.213Z</time>
      </trkpt>
      <trkpt lat="45.83277" lon="6.17098">
        <ele>457</ele>
        <time>2021-09-11T09:19:06.212Z</time>
      </trkpt>
      <trkpt lat="45.83279" lon="6.17095">
        <ele>457</ele>
        <time>2021-09-11T09:19:07.213Z</time>
      </trkpt>
      <trkpt lat="45.8328" lon="6.17092">
        <ele>457</ele>
        <time>2021-09-11T09:19:08.213Z</time>
      </trkpt>
      <trkpt lat="45.83282" lon="6.17088">
        <ele>457</ele>
        <time>2021-09-11T09:19:09.213Z</time>
      </trkpt>
      <trkpt lat="45.83283" lon="6.17085">
        <ele>457</ele>
        <time>2021-09-11T09:19:10.213Z</time>
      </trkpt>
      <trkpt lat="45.83285" lon="6.17081">
        <ele>458</ele>
        <time>2021-09-11T09:19:11.213Z</time>
      </trkpt>
      <trkpt lat="45.83287" lon="6.17078">
        <ele>458</ele>
        <time>2021-09-11T09:19:12.213Z</time>
      </trkpt>
      <trkpt lat="45.83289" lon="6.17075">
        <ele>458</ele>
        <time>2021-09-11T09:19:13.212Z</time>
      </trkpt>
      <trkpt lat="45.83291" lon="6.17071">
        <ele>459</ele>
        <time>2021-09-11T09:19:14.213Z</time>
      </trkpt>
      <trkpt lat="45.83292" lon="6.17068">
        <ele>459</ele>
        <time>2021-09-11T09:19:15.213Z</time>
      </trkpt>
      <trkpt lat="45.83294" lon="6.17064">
        <ele>458</ele>
        <time>2021-09-11T09:19:16.213Z</time>
      </trkpt>
      <trkpt lat="45.83296" lon="6.17059">
        <ele>458</ele>
        <time>2021-09-11T09:19:17.213Z</time>
      </trkpt>
      <trkpt lat="45.83298" lon="6.17056">
        <ele>458</ele>
        <time>2021-09-11T09:19:18.213Z</time>
      </trkpt>
      <trkpt lat="45.83299" lon="6.17053">
        <ele>459</ele>
        <time>2021-09-11T09:19:19.213Z</time>
      </trkpt>
      <trkpt lat="45.83301" lon="6.1705">
        <ele>459</ele>
        <time>2021-09-11T09:19:20.213Z</time>
      </trkpt>
      <trkpt lat="45.83302" lon="6.17049">
        <ele>460</ele>
        <time>2021-09-11T09:19:21.212Z</time>
      </trkpt>
      <trkpt lat="45.83302" lon="6.17048">
        <ele>461</ele>
        <time>2021-09-11T09:19:22.213Z</time>
      </trkpt>
      <trkpt lat="45.83302" lon="6.17048">
        <ele>462</ele>
        <time>2021-09-11T09:19:23.213Z</time>
      </trkpt>
      <trkpt lat="45.83302" lon="6.17048">
        <ele>462</ele>
        <time>2021-09-11T09:19:24.212Z</time>
      </trkpt>
      <trkpt lat="45.83302" lon="6.17048">
        <ele>463</ele>
        <time>2021-09-11T09:19:25.213Z</time>
      </trkpt>
      <trkpt lat="45.83302" lon="6.17048">
        <ele>464</ele>
        <time>2021-09-11T09:19:26.213Z</time>
      </trkpt>
      <trkpt lat="45.83301" lon="6.17048">
        <ele>464</ele>
        <time>2021-09-11T09:19:27.213Z</time>
      </trkpt>
      <trkpt lat="45.83301" lon="6.17048">
        <ele>464</ele>
        <time>2021-09-11T09:19:28.212Z</time>
      </trkpt>
      <trkpt lat="45.83301" lon="6.17048">
        <ele>464</ele>
        <time>2021-09-11T09:19:29.213Z</time>
      </trkpt>
      <trkpt lat="45.83301" lon="6.17049">
        <ele>465</ele>
        <time>2021-09-11T09:19:30.213Z</time>
      </trkpt>
      <trkpt lat="45.833" lon="6.17049">
        <ele>463</ele>
        <time>2021-09-11T09:19:31.213Z</time>
      </trkpt>
      <trkpt lat="45.833" lon="6.17049">
        <ele>462</ele>
        <time>2021-09-11T09:19:32.213Z</time>
      </trkpt>
      <trkpt lat="45.833" lon="6.17049">
        <ele>462</ele>
        <time>2021-09-11T09:19:33.212Z</time>
      </trkpt>
      <trkpt lat="45.83303" lon="6.17043">
        <ele>460</ele>
        <time>2021-09-11T09:19:34.215Z</time>
      </trkpt>
      <trkpt lat="45.83304" lon="6.17041">
        <ele>460</ele>
        <time>2021-09-11T09:19:35.215Z</time>
      </trkpt>
      <trkpt lat="45.83305" lon="6.17039">
        <ele>460</ele>
        <time>2021-09-11T09:19:36.214Z</time>
      </trkpt>
      <trkpt lat="45.83305" lon="6.17038">
        <ele>460</ele>
        <time>2021-09-11T09:19:37.215Z</time>
      </trkpt>
      <trkpt lat="45.83305" lon="6.17037">
        <ele>460</ele>
        <time>2021-09-11T09:19:38.215Z</time>
      </trkpt>
      <trkpt lat="45.83305" lon="6.17036">
        <ele>461</ele>
        <time>2021-09-11T09:19:39.214Z</time>
      </trkpt>
      <trkpt lat="45.83305" lon="6.17033">
        <ele>461</ele>
        <time>2021-09-11T09:19:40.216Z</time>
      </trkpt>
      <trkpt lat="45.83305" lon="6.17032">
        <ele>461</ele>
        <time>2021-09-11T09:19:41.216Z</time>
      </trkpt>
      <trkpt lat="45.83305" lon="6.17031">
        <ele>461</ele>
        <time>2021-09-11T09:19:42.215Z</time>
      </trkpt>
      <trkpt lat="45.83306" lon="6.17029">
        <ele>461</ele>
        <time>2021-09-11T09:19:43.216Z</time>
      </trkpt>
      <trkpt lat="45.83306" lon="6.17027">
        <ele>460</ele>
        <time>2021-09-11T09:19:44.216Z</time>
      </trkpt>
      <trkpt lat="45.83308" lon="6.17025">
        <ele>460</ele>
        <time>2021-09-11T09:19:45.216Z</time>
      </trkpt>
      <trkpt lat="45.83309" lon="6.17022">
        <ele>460</ele>
        <time>2021-09-11T09:19:46.216Z</time>
      </trkpt>
      <trkpt lat="45.8331" lon="6.17019">
        <ele>460</ele>
        <time>2021-09-11T09:19:47.216Z</time>
      </trkpt>
      <trkpt lat="45.83312" lon="6.17016">
        <ele>460</ele>
        <time>2021-09-11T09:19:48.216Z</time>
      </trkpt>
      <trkpt lat="45.83314" lon="6.17012">
        <ele>460</ele>
        <time>2021-09-11T09:19:49.215Z</time>
      </trkpt>
      <trkpt lat="45.83315" lon="6.17009">
        <ele>460</ele>
        <time>2021-09-11T09:19:50.216Z</time>
      </trkpt>
      <trkpt lat="45.83317" lon="6.17006">
        <ele>460</ele>
        <time>2021-09-11T09:19:51.216Z</time>
      </trkpt>
      <trkpt lat="45.83319" lon="6.17001">
        <ele>460</ele>
        <time>2021-09-11T09:19:52.216Z</time>
      </trkpt>
      <trkpt lat="45.83322" lon="6.16998">
        <ele>460</ele>
        <time>2021-09-11T09:19:53.216Z</time>
      </trkpt>
      <trkpt lat="45.83324" lon="6.16995">
        <ele>460</ele>
        <time>2021-09-11T09:19:54.215Z</time>
      </trkpt>
      <trkpt lat="45.83326" lon="6.16991">
        <ele>461</ele>
        <time>2021-09-11T09:19:55.216Z</time>
      </trkpt>
      <trkpt lat="45.83328" lon="6.16987">
        <ele>461</ele>
        <time>2021-09-11T09:19:56.216Z</time>
      </trkpt>
      <trkpt lat="45.8333" lon="6.16983">
        <ele>461</ele>
        <time>2021-09-11T09:19:57.216Z</time>
      </trkpt>
      <trkpt lat="45.83333" lon="6.16977">
        <ele>461</ele>
        <time>2021-09-11T09:19:58.216Z</time>
      </trkpt>
      <trkpt lat="45.83335" lon="6.16972">
        <ele>461</ele>
        <time>2021-09-11T09:19:59.216Z</time>
      </trkpt>
      <trkpt lat="45.83337" lon="6.16968">
        <ele>460</ele>
        <time>2021-09-11T09:20:00.215Z</time>
      </trkpt>
      <trkpt lat="45.8334" lon="6.16962">
        <ele>460</ele>
        <time>2021-09-11T09:20:01.215Z</time>
      </trkpt>
      <trkpt lat="45.83342" lon="6.16957">
        <ele>460</ele>
        <time>2021-09-11T09:20:02.215Z</time>
      </trkpt>
      <trkpt lat="45.83344" lon="6.16953">
        <ele>460</ele>
        <time>2021-09-11T09:20:03.216Z</time>
      </trkpt>
      <trkpt lat="45.83347" lon="6.16947">
        <ele>461</ele>
        <time>2021-09-11T09:20:04.215Z</time>
      </trkpt>
      <trkpt lat="45.83349" lon="6.16942">
        <ele>461</ele>
        <time>2021-09-11T09:20:05.216Z</time>
      </trkpt>
      <trkpt lat="45.83352" lon="6.16937">
        <ele>461</ele>
        <time>2021-09-11T09:20:06.216Z</time>
      </trkpt>
      <trkpt lat="45.83355" lon="6.16931">
        <ele>461</ele>
        <time>2021-09-11T09:20:07.216Z</time>
      </trkpt>
      <trkpt lat="45.83357" lon="6.16927">
        <ele>461</ele>
        <time>2021-09-11T09:20:08.216Z</time>
      </trkpt>
      <trkpt lat="45.8336" lon="6.16922">
        <ele>461</ele>
        <time>2021-09-11T09:20:09.216Z</time>
      </trkpt>
      <trkpt lat="45.83363" lon="6.16917">
        <ele>461</ele>
        <time>2021-09-11T09:20:10.215Z</time>
      </trkpt>
      <trkpt lat="45.83365" lon="6.16911">
        <ele>460</ele>
        <time>2021-09-11T09:20:11.216Z</time>
      </trkpt>
      <trkpt lat="45.83368" lon="6.16906">
        <ele>460</ele>
        <time>2021-09-11T09:20:12.216Z</time>
      </trkpt>
      <trkpt lat="45.8337" lon="6.16901">
        <ele>460</ele>
        <time>2021-09-11T09:20:13.216Z</time>
      </trkpt>
      <trkpt lat="45.83373" lon="6.16896">
        <ele>460</ele>
        <time>2021-09-11T09:20:14.216Z</time>
      </trkpt>
      <trkpt lat="45.83376" lon="6.1689">
        <ele>459</ele>
        <time>2021-09-11T09:20:15.215Z</time>
      </trkpt>
      <trkpt lat="45.83378" lon="6.16885">
        <ele>459</ele>
        <time>2021-09-11T09:20:16.215Z</time>
      </trkpt>
      <trkpt lat="45.8338" lon="6.16881">
        <ele>459</ele>
        <time>2021-09-11T09:20:17.216Z</time>
      </trkpt>
      <trkpt lat="45.83382" lon="6.16877">
        <ele>459</ele>
        <time>2021-09-11T09:20:18.216Z</time>
      </trkpt>
      <trkpt lat="45.83384" lon="6.16873">
        <ele>459</ele>
        <time>2021-09-11T09:20:19.215Z</time>
      </trkpt>
      <trkpt lat="45.83386" lon="6.1687">
        <ele>459</ele>
        <time>2021-09-11T09:20:20.216Z</time>
      </trkpt>
      <trkpt lat="45.83388" lon="6.16866">
        <ele>459</ele>
        <time>2021-09-11T09:20:21.216Z</time>
      </trkpt>
      <trkpt lat="45.83389" lon="6.16863">
        <ele>459</ele>
        <time>2021-09-11T09:20:22.215Z</time>
      </trkpt>
      <trkpt lat="45.8339" lon="6.16859">
        <ele>459</ele>
        <time>2021-09-11T09:20:23.215Z</time>
      </trkpt>
      <trkpt lat="45.83392" lon="6.16855">
        <ele>459</ele>
        <time>2021-09-11T09:20:24.216Z</time>
      </trkpt>
      <trkpt lat="45.83394" lon="6.1685">
        <ele>459</ele>
        <time>2021-09-11T09:20:25.216Z</time>
      </trkpt>
      <trkpt lat="45.83396" lon="6.16847">
        <ele>458</ele>
        <time>2021-09-11T09:20:26.216Z</time>
      </trkpt>
      <trkpt lat="45.83398" lon="6.16841">
        <ele>459</ele>
        <time>2021-09-11T09:20:27.215Z</time>
      </trkpt>
      <trkpt lat="45.834" lon="6.16836">
        <ele>459</ele>
        <time>2021-09-11T09:20:28.216Z</time>
      </trkpt>
      <trkpt lat="45.83404" lon="6.16829">
        <ele>459</ele>
        <time>2021-09-11T09:20:29.216Z</time>
      </trkpt>
      <trkpt lat="45.83406" lon="6.16824">
        <ele>459</ele>
        <time>2021-09-11T09:20:30.216Z</time>
      </trkpt>
      <trkpt lat="45.83408" lon="6.16819">
        <ele>459</ele>
        <time>2021-09-11T09:20:31.216Z</time>
      </trkpt>
      <trkpt lat="45.83411" lon="6.16812">
        <ele>459</ele>
        <time>2021-09-11T09:20:32.215Z</time>
      </trkpt>
      <trkpt lat="45.83413" lon="6.16808">
        <ele>459</ele>
        <time>2021-09-11T09:20:33.215Z</time>
      </trkpt>
      <trkpt lat="45.83415" lon="6.16803">
        <ele>459</ele>
        <time>2021-09-11T09:20:34.215Z</time>
      </trkpt>
      <trkpt lat="45.83417" lon="6.16797">
        <ele>459</ele>
        <time>2021-09-11T09:20:35.216Z</time>
      </trkpt>
      <trkpt lat="45.8342" lon="6.16792">
        <ele>459</ele>
        <time>2021-09-11T09:20:36.215Z</time>
      </trkpt>
      <trkpt lat="45.83422" lon="6.16787">
        <ele>459</ele>
        <time>2021-09-11T09:20:37.216Z</time>
      </trkpt>
      <trkpt lat="45.83425" lon="6.16781">
        <ele>459</ele>
        <time>2021-09-11T09:20:38.215Z</time>
      </trkpt>
      <trkpt lat="45.83428" lon="6.16777">
        <ele>458</ele>
        <time>2021-09-11T09:20:39.215Z</time>
      </trkpt>
      <trkpt lat="45.8343" lon="6.16773">
        <ele>458</ele>
        <time>2021-09-11T09:20:40.216Z</time>
      </trkpt>
      <trkpt lat="45.83432" lon="6.16769">
        <ele>458</ele>
        <time>2021-09-11T09:20:41.216Z</time>
      </trkpt>
      <trkpt lat="45.83435" lon="6.16763">
        <ele>458</ele>
        <time>2021-09-11T09:20:42.216Z</time>
      </trkpt>
      <trkpt lat="45.83438" lon="6.16757">
        <ele>457</ele>
        <time>2021-09-11T09:20:43.216Z</time>
      </trkpt>
      <trkpt lat="45.83439" lon="6.16753">
        <ele>457</ele>
        <time>2021-09-11T09:20:44.216Z</time>
      </trkpt>
      <trkpt lat="45.83442" lon="6.16748">
        <ele>457</ele>
        <time>2021-09-11T09:20:45.215Z</time>
      </trkpt>
      <trkpt lat="45.83445" lon="6.16743">
        <ele>457</ele>
        <time>2021-09-11T09:20:46.215Z</time>
      </trkpt>
      <trkpt lat="45.83448" lon="6.16736">
        <ele>457</ele>
        <time>2021-09-11T09:20:47.216Z</time>
      </trkpt>
      <trkpt lat="45.8345" lon="6.1673">
        <ele>458</ele>
        <time>2021-09-11T09:20:48.216Z</time>
      </trkpt>
      <trkpt lat="45.83452" lon="6.16727">
        <ele>458</ele>
        <time>2021-09-11T09:20:49.215Z</time>
      </trkpt>
      <trkpt lat="45.83455" lon="6.16721">
        <ele>458</ele>
        <time>2021-09-11T09:20:50.216Z</time>
      </trkpt>
      <trkpt lat="45.83458" lon="6.16717">
        <ele>459</ele>
        <time>2021-09-11T09:20:51.216Z</time>
      </trkpt>
      <trkpt lat="45.8346" lon="6.16713">
        <ele>459</ele>
        <time>2021-09-11T09:20:52.216Z</time>
      </trkpt>
      <trkpt lat="45.83462" lon="6.16708">
        <ele>459</ele>
        <time>2021-09-11T09:20:53.216Z</time>
      </trkpt>
      <trkpt lat="45.83465" lon="6.16703">
        <ele>459</ele>
        <time>2021-09-11T09:20:54.216Z</time>
      </trkpt>
      <trkpt lat="45.83467" lon="6.16698">
        <ele>459</ele>
        <time>2021-09-11T09:20:55.216Z</time>
      </trkpt>
      <trkpt lat="45.8347" lon="6.16692">
        <ele>459</ele>
        <time>2021-09-11T09:20:56.216Z</time>
      </trkpt>
      <trkpt lat="45.83472" lon="6.16687">
        <ele>459</ele>
        <time>2021-09-11T09:20:57.215Z</time>
      </trkpt>
      <trkpt lat="45.83474" lon="6.16683">
        <ele>459</ele>
        <time>2021-09-11T09:20:58.216Z</time>
      </trkpt>
      <trkpt lat="45.83477" lon="6.16678">
        <ele>460</ele>
        <time>2021-09-11T09:20:59.215Z</time>
      </trkpt>
      <trkpt lat="45.8348" lon="6.16673">
        <ele>460</ele>
        <time>2021-09-11T09:21:00.215Z</time>
      </trkpt>
      <trkpt lat="45.83482" lon="6.16669">
        <ele>460</ele>
        <time>2021-09-11T09:21:01.216Z</time>
      </trkpt>
      <trkpt lat="45.83484" lon="6.16664">
        <ele>460</ele>
        <time>2021-09-11T09:21:02.216Z</time>
      </trkpt>
      <trkpt lat="45.83487" lon="6.16659">
        <ele>461</ele>
        <time>2021-09-11T09:21:03.216Z</time>
      </trkpt>
      <trkpt lat="45.83489" lon="6.16654">
        <ele>461</ele>
        <time>2021-09-11T09:21:04.215Z</time>
      </trkpt>
      <trkpt lat="45.83492" lon="6.16647">
        <ele>461</ele>
        <time>2021-09-11T09:21:05.216Z</time>
      </trkpt>
      <trkpt lat="45.83494" lon="6.16643">
        <ele>460</ele>
        <time>2021-09-11T09:21:06.215Z</time>
      </trkpt>
      <trkpt lat="45.83496" lon="6.16639">
        <ele>460</ele>
        <time>2021-09-11T09:21:07.216Z</time>
      </trkpt>
      <trkpt lat="45.83498" lon="6.16633">
        <ele>460</ele>
        <time>2021-09-11T09:21:08.216Z</time>
      </trkpt>
      <trkpt lat="45.835" lon="6.16629">
        <ele>460</ele>
        <time>2021-09-11T09:21:09.216Z</time>
      </trkpt>
      <trkpt lat="45.83502" lon="6.16625">
        <ele>459</ele>
        <time>2021-09-11T09:21:10.215Z</time>
      </trkpt>
      <trkpt lat="45.83503" lon="6.16622">
        <ele>459</ele>
        <time>2021-09-11T09:21:11.216Z</time>
      </trkpt>
      <trkpt lat="45.83504" lon="6.16619">
        <ele>459</ele>
        <time>2021-09-11T09:21:12.215Z</time>
      </trkpt>
      <trkpt lat="45.83505" lon="6.16616">
        <ele>459</ele>
        <time>2021-09-11T09:21:13.216Z</time>
      </trkpt>
      <trkpt lat="45.83507" lon="6.16613">
        <ele>459</ele>
        <time>2021-09-11T09:21:14.215Z</time>
      </trkpt>
      <trkpt lat="45.83508" lon="6.16612">
        <ele>459</ele>
        <time>2021-09-11T09:21:15.216Z</time>
      </trkpt>
      <trkpt lat="45.83509" lon="6.16611">
        <ele>459</ele>
        <time>2021-09-11T09:21:16.216Z</time>
      </trkpt>
      <trkpt lat="45.8351" lon="6.16611">
        <ele>459</ele>
        <time>2021-09-11T09:21:17.216Z</time>
      </trkpt>
      <trkpt lat="45.8351" lon="6.1661">
        <ele>459</ele>
        <time>2021-09-11T09:21:18.216Z</time>
      </trkpt>
      <trkpt lat="45.8351" lon="6.1661">
        <ele>459</ele>
        <time>2021-09-11T09:21:19.216Z</time>
      </trkpt>
      <trkpt lat="45.83511" lon="6.16609">
        <ele>459</ele>
        <time>2021-09-11T09:21:20.216Z</time>
      </trkpt>
      <trkpt lat="45.83512" lon="6.16607">
        <ele>459</ele>
        <time>2021-09-11T09:21:21.216Z</time>
      </trkpt>
      <trkpt lat="45.83512" lon="6.16604">
        <ele>459</ele>
        <time>2021-09-11T09:21:22.216Z</time>
      </trkpt>
      <trkpt lat="45.83513" lon="6.16601">
        <ele>459</ele>
        <time>2021-09-11T09:21:23.215Z</time>
      </trkpt>
      <trkpt lat="45.83514" lon="6.16598">
        <ele>459</ele>
        <time>2021-09-11T09:21:24.215Z</time>
      </trkpt>
      <trkpt lat="45.83515" lon="6.16594">
        <ele>459</ele>
        <time>2021-09-11T09:21:25.216Z</time>
      </trkpt>
      <trkpt lat="45.83517" lon="6.1659">
        <ele>459</ele>
        <time>2021-09-11T09:21:26.215Z</time>
      </trkpt>
      <trkpt lat="45.83519" lon="6.16587">
        <ele>459</ele>
        <time>2021-09-11T09:21:27.216Z</time>
      </trkpt>
      <trkpt lat="45.8352" lon="6.16583">
        <ele>459</ele>
        <time>2021-09-11T09:21:28.215Z</time>
      </trkpt>
      <trkpt lat="45.83522" lon="6.16579">
        <ele>459</ele>
        <time>2021-09-11T09:21:29.216Z</time>
      </trkpt>
      <trkpt lat="45.83524" lon="6.16575">
        <ele>459</ele>
        <time>2021-09-11T09:21:30.216Z</time>
      </trkpt>
      <trkpt lat="45.83526" lon="6.16571">
        <ele>460</ele>
        <time>2021-09-11T09:21:31.216Z</time>
      </trkpt>
      <trkpt lat="45.83529" lon="6.16565">
        <ele>460</ele>
        <time>2021-09-11T09:21:32.216Z</time>
      </trkpt>
      <trkpt lat="45.8353" lon="6.16561">
        <ele>460</ele>
        <time>2021-09-11T09:21:33.216Z</time>
      </trkpt>
      <trkpt lat="45.83533" lon="6.16556">
        <ele>460</ele>
        <time>2021-09-11T09:21:34.215Z</time>
      </trkpt>
      <trkpt lat="45.83535" lon="6.16551">
        <ele>461</ele>
        <time>2021-09-11T09:21:35.216Z</time>
      </trkpt>
      <trkpt lat="45.83538" lon="6.16546">
        <ele>461</ele>
        <time>2021-09-11T09:21:36.216Z</time>
      </trkpt>
      <trkpt lat="45.83541" lon="6.1654">
        <ele>461</ele>
        <time>2021-09-11T09:21:37.216Z</time>
      </trkpt>
      <trkpt lat="45.83543" lon="6.16535">
        <ele>461</ele>
        <time>2021-09-11T09:21:38.216Z</time>
      </trkpt>
      <trkpt lat="45.83546" lon="6.1653">
        <ele>461</ele>
        <time>2021-09-11T09:21:39.216Z</time>
      </trkpt>
      <trkpt lat="45.83548" lon="6.16525">
        <ele>461</ele>
        <time>2021-09-11T09:21:40.216Z</time>
      </trkpt>
      <trkpt lat="45.83552" lon="6.16518">
        <ele>461</ele>
        <time>2021-09-11T09:21:41.215Z</time>
      </trkpt>
      <trkpt lat="45.83554" lon="6.16513">
        <ele>460</ele>
        <time>2021-09-11T09:21:42.216Z</time>
      </trkpt>
      <trkpt lat="45.83556" lon="6.16508">
        <ele>460</ele>
        <time>2021-09-11T09:21:43.216Z</time>
      </trkpt>
      <trkpt lat="45.83559" lon="6.16502">
        <ele>460</ele>
        <time>2021-09-11T09:21:44.216Z</time>
      </trkpt>
      <trkpt lat="45.83561" lon="6.16497">
        <ele>460</ele>
        <time>2021-09-11T09:21:45.216Z</time>
      </trkpt>
      <trkpt lat="45.83564" lon="6.16491">
        <ele>460</ele>
        <time>2021-09-11T09:21:46.216Z</time>
      </trkpt>
      <trkpt lat="45.83567" lon="6.16485">
        <ele>461</ele>
        <time>2021-09-11T09:21:47.216Z</time>
      </trkpt>
      <trkpt lat="45.8357" lon="6.16479">
        <ele>461</ele>
        <time>2021-09-11T09:21:48.216Z</time>
      </trkpt>
      <trkpt lat="45.83572" lon="6.16474">
        <ele>461</ele>
        <time>2021-09-11T09:21:49.216Z</time>
      </trkpt>
      <trkpt lat="45.83575" lon="6.16467">
        <ele>461</ele>
        <time>2021-09-11T09:21:50.216Z</time>
      </trkpt>
      <trkpt lat="45.83578" lon="6.16462">
        <ele>461</ele>
        <time>2021-09-11T09:21:51.216Z</time>
      </trkpt>
      <trkpt lat="45.8358" lon="6.16457">
        <ele>460</ele>
        <time>2021-09-11T09:21:52.216Z</time>
      </trkpt>
      <trkpt lat="45.83584" lon="6.16451">
        <ele>460</ele>
        <time>2021-09-11T09:21:53.216Z</time>
      </trkpt>
      <trkpt lat="45.83587" lon="6.16446">
        <ele>460</ele>
        <time>2021-09-11T09:21:54.216Z</time>
      </trkpt>
      <trkpt lat="45.8359" lon="6.16441">
        <ele>460</ele>
        <time>2021-09-11T09:21:55.216Z</time>
      </trkpt>
      <trkpt lat="45.83593" lon="6.16435">
        <ele>459</ele>
        <time>2021-09-11T09:21:56.215Z</time>
      </trkpt>
      <trkpt lat="45.83596" lon="6.1643">
        <ele>459</ele>
        <time>2021-09-11T09:21:57.216Z</time>
      </trkpt>
      <trkpt lat="45.83599" lon="6.16424">
        <ele>459</ele>
        <time>2021-09-11T09:21:58.216Z</time>
      </trkpt>
      <trkpt lat="45.83602" lon="6.16418">
        <ele>459</ele>
        <time>2021-09-11T09:21:59.216Z</time>
      </trkpt>
      <trkpt lat="45.83606" lon="6.16412">
        <ele>459</ele>
        <time>2021-09-11T09:22:00.215Z</time>
      </trkpt>
      <trkpt lat="45.83609" lon="6.16407">
        <ele>459</ele>
        <time>2021-09-11T09:22:01.216Z</time>
      </trkpt>
      <trkpt lat="45.83613" lon="6.16401">
        <ele>459</ele>
        <time>2021-09-11T09:22:02.216Z</time>
      </trkpt>
      <trkpt lat="45.83616" lon="6.16396">
        <ele>459</ele>
        <time>2021-09-11T09:22:03.215Z</time>
      </trkpt>
      <trkpt lat="45.83621" lon="6.16389">
        <ele>459</ele>
        <time>2021-09-11T09:22:04.216Z</time>
      </trkpt>
      <trkpt lat="45.83623" lon="6.16385">
        <ele>459</ele>
        <time>2021-09-11T09:22:05.216Z</time>
      </trkpt>
      <trkpt lat="45.83628" lon="6.16378">
        <ele>459</ele>
        <time>2021-09-11T09:22:06.216Z</time>
      </trkpt>
      <trkpt lat="45.8363" lon="6.16374">
        <ele>459</ele>
        <time>2021-09-11T09:22:07.216Z</time>
      </trkpt>
      <trkpt lat="45.83634" lon="6.16368">
        <ele>459</ele>
        <time>2021-09-11T09:22:08.215Z</time>
      </trkpt>
      <trkpt lat="45.83638" lon="6.16363">
        <ele>459</ele>
        <time>2021-09-11T09:22:09.216Z</time>
      </trkpt>
      <trkpt lat="45.83642" lon="6.16358">
        <ele>458</ele>
        <time>2021-09-11T09:22:10.215Z</time>
      </trkpt>
      <trkpt lat="45.83646" lon="6.16353">
        <ele>458</ele>
        <time>2021-09-11T09:22:11.216Z</time>
      </trkpt>
      <trkpt lat="45.8365" lon="6.16347">
        <ele>458</ele>
        <time>2021-09-11T09:22:12.215Z</time>
      </trkpt>
      <trkpt lat="45.83654" lon="6.16342">
        <ele>458</ele>
        <time>2021-09-11T09:22:13.216Z</time>
      </trkpt>
      <trkpt lat="45.83658" lon="6.16338">
        <ele>457</ele>
        <time>2021-09-11T09:22:14.216Z</time>
      </trkpt>
      <trkpt lat="45.83662" lon="6.16333">
        <ele>457</ele>
        <time>2021-09-11T09:22:15.216Z</time>
      </trkpt>
      <trkpt lat="45.83666" lon="6.16329">
        <ele>458</ele>
        <time>2021-09-11T09:22:16.216Z</time>
      </trkpt>
      <trkpt lat="45.8367" lon="6.16325">
        <ele>458</ele>
        <time>2021-09-11T09:22:17.216Z</time>
      </trkpt>
      <trkpt lat="45.83674" lon="6.16321">
        <ele>458</ele>
        <time>2021-09-11T09:22:18.216Z</time>
      </trkpt>
      <trkpt lat="45.83678" lon="6.16317">
        <ele>458</ele>
        <time>2021-09-11T09:22:19.215Z</time>
      </trkpt>
      <trkpt lat="45.83682" lon="6.16313">
        <ele>458</ele>
        <time>2021-09-11T09:22:20.216Z</time>
      </trkpt>
      <trkpt lat="45.83686" lon="6.16309">
        <ele>458</ele>
        <time>2021-09-11T09:22:21.216Z</time>
      </trkpt>
      <trkpt lat="45.8369" lon="6.16304">
        <ele>458</ele>
        <time>2021-09-11T09:22:22.216Z</time>
      </trkpt>
      <trkpt lat="45.83694" lon="6.163">
        <ele>458</ele>
        <time>2021-09-11T09:22:23.216Z</time>
      </trkpt>
      <trkpt lat="45.83699" lon="6.16295">
        <ele>458</ele>
        <time>2021-09-11T09:22:24.216Z</time>
      </trkpt>
      <trkpt lat="45.83703" lon="6.16292">
        <ele>458</ele>
        <time>2021-09-11T09:22:25.216Z</time>
      </trkpt>
      <trkpt lat="45.83707" lon="6.16288">
        <ele>457</ele>
        <time>2021-09-11T09:22:26.215Z</time>
      </trkpt>
      <trkpt lat="45.83712" lon="6.16283">
        <ele>457</ele>
        <time>2021-09-11T09:22:27.216Z</time>
      </trkpt>
      <trkpt lat="45.83716" lon="6.16279">
        <ele>457</ele>
        <time>2021-09-11T09:22:28.216Z</time>
      </trkpt>
      <trkpt lat="45.83721" lon="6.16276">
        <ele>457</ele>
        <time>2021-09-11T09:22:29.216Z</time>
      </trkpt>
      <trkpt lat="45.83726" lon="6.16272">
        <ele>457</ele>
        <time>2021-09-11T09:22:30.216Z</time>
      </trkpt>
      <trkpt lat="45.8373" lon="6.16269">
        <ele>456</ele>
        <time>2021-09-11T09:22:31.216Z</time>
      </trkpt>
      <trkpt lat="45.83735" lon="6.16265">
        <ele>456</ele>
        <time>2021-09-11T09:22:32.215Z</time>
      </trkpt>
      <trkpt lat="45.8374" lon="6.16262">
        <ele>456</ele>
        <time>2021-09-11T09:22:33.216Z</time>
      </trkpt>
      <trkpt lat="45.83744" lon="6.16259">
        <ele>456</ele>
        <time>2021-09-11T09:22:34.216Z</time>
      </trkpt>
      <trkpt lat="45.8375" lon="6.16256">
        <ele>456</ele>
        <time>2021-09-11T09:22:35.215Z</time>
      </trkpt>
      <trkpt lat="45.83754" lon="6.16254">
        <ele>456</ele>
        <time>2021-09-11T09:22:36.215Z</time>
      </trkpt>
      <trkpt lat="45.83758" lon="6.16251">
        <ele>456</ele>
        <time>2021-09-11T09:22:37.216Z</time>
      </trkpt>
      <trkpt lat="45.83763" lon="6.16248">
        <ele>456</ele>
        <time>2021-09-11T09:22:38.215Z</time>
      </trkpt>
      <trkpt lat="45.83767" lon="6.16245">
        <ele>456</ele>
        <time>2021-09-11T09:22:39.215Z</time>
      </trkpt>
      <trkpt lat="45.83771" lon="6.16242">
        <ele>457</ele>
        <time>2021-09-11T09:22:40.216Z</time>
      </trkpt>
      <trkpt lat="45.83776" lon="6.16239">
        <ele>457</ele>
        <time>2021-09-11T09:22:41.216Z</time>
      </trkpt>
      <trkpt lat="45.8378" lon="6.16236">
        <ele>457</ele>
        <time>2021-09-11T09:22:42.215Z</time>
      </trkpt>
      <trkpt lat="45.83785" lon="6.16233">
        <ele>457</ele>
        <time>2021-09-11T09:22:43.215Z</time>
      </trkpt>
      <trkpt lat="45.8379" lon="6.1623">
        <ele>457</ele>
        <time>2021-09-11T09:22:44.215Z</time>
      </trkpt>
      <trkpt lat="45.83793" lon="6.16227">
        <ele>457</ele>
        <time>2021-09-11T09:22:45.215Z</time>
      </trkpt>
      <trkpt lat="45.83798" lon="6.16224">
        <ele>457</ele>
        <time>2021-09-11T09:22:46.216Z</time>
      </trkpt>
      <trkpt lat="45.83802" lon="6.16222">
        <ele>457</ele>
        <time>2021-09-11T09:22:47.216Z</time>
      </trkpt>
      <trkpt lat="45.83808" lon="6.16218">
        <ele>457</ele>
        <time>2021-09-11T09:22:48.215Z</time>
      </trkpt>
      <trkpt lat="45.83812" lon="6.16216">
        <ele>457</ele>
        <time>2021-09-11T09:22:49.215Z</time>
      </trkpt>
      <trkpt lat="45.83816" lon="6.16212">
        <ele>457</ele>
        <time>2021-09-11T09:22:50.216Z</time>
      </trkpt>
      <trkpt lat="45.83822" lon="6.16209">
        <ele>457</ele>
        <time>2021-09-11T09:22:51.215Z</time>
      </trkpt>
      <trkpt lat="45.83826" lon="6.16206">
        <ele>457</ele>
        <time>2021-09-11T09:22:52.215Z</time>
      </trkpt>
      <trkpt lat="45.83831" lon="6.16203">
        <ele>457</ele>
        <time>2021-09-11T09:22:53.216Z</time>
      </trkpt>
      <trkpt lat="45.83835" lon="6.16201">
        <ele>457</ele>
        <time>2021-09-11T09:22:54.216Z</time>
      </trkpt>
      <trkpt lat="45.8384" lon="6.16198">
        <ele>457</ele>
        <time>2021-09-11T09:22:55.216Z</time>
      </trkpt>
      <trkpt lat="45.83845" lon="6.16196">
        <ele>457</ele>
        <time>2021-09-11T09:22:56.215Z</time>
      </trkpt>
      <trkpt lat="45.83851" lon="6.16192">
        <ele>456</ele>
        <time>2021-09-11T09:22:57.216Z</time>
      </trkpt>
      <trkpt lat="45.83855" lon="6.1619">
        <ele>456</ele>
        <time>2021-09-11T09:22:58.215Z</time>
      </trkpt>
      <trkpt lat="45.83859" lon="6.16187">
        <ele>456</ele>
        <time>2021-09-11T09:22:59.216Z</time>
      </trkpt>
      <trkpt lat="45.83865" lon="6.16184">
        <ele>456</ele>
        <time>2021-09-11T09:23:00.216Z</time>
      </trkpt>
      <trkpt lat="45.8387" lon="6.16181">
        <ele>456</ele>
        <time>2021-09-11T09:23:01.216Z</time>
      </trkpt>
      <trkpt lat="45.83874" lon="6.16178">
        <ele>456</ele>
        <time>2021-09-11T09:23:02.215Z</time>
      </trkpt>
      <trkpt lat="45.83878" lon="6.16175">
        <ele>456</ele>
        <time>2021-09-11T09:23:03.216Z</time>
      </trkpt>
      <trkpt lat="45.83883" lon="6.16172">
        <ele>457</ele>
        <time>2021-09-11T09:23:04.216Z</time>
      </trkpt>
      <trkpt lat="45.83888" lon="6.16169">
        <ele>457</ele>
        <time>2021-09-11T09:23:05.216Z</time>
      </trkpt>
      <trkpt lat="45.83892" lon="6.16166">
        <ele>457</ele>
        <time>2021-09-11T09:23:06.216Z</time>
      </trkpt>
      <trkpt lat="45.83898" lon="6.16163">
        <ele>457</ele>
        <time>2021-09-11T09:23:07.216Z</time>
      </trkpt>
      <trkpt lat="45.83902" lon="6.16161">
        <ele>457</ele>
        <time>2021-09-11T09:23:08.216Z</time>
      </trkpt>
      <trkpt lat="45.83906" lon="6.16158">
        <ele>456</ele>
        <time>2021-09-11T09:23:09.215Z</time>
      </trkpt>
      <trkpt lat="45.83912" lon="6.16155">
        <ele>456</ele>
        <time>2021-09-11T09:23:10.216Z</time>
      </trkpt>
      <trkpt lat="45.83917" lon="6.16152">
        <ele>456</ele>
        <time>2021-09-11T09:23:11.215Z</time>
      </trkpt>
      <trkpt lat="45.83921" lon="6.16149">
        <ele>455</ele>
        <time>2021-09-11T09:23:12.216Z</time>
      </trkpt>
      <trkpt lat="45.83926" lon="6.16146">
        <ele>455</ele>
        <time>2021-09-11T09:23:13.216Z</time>
      </trkpt>
      <trkpt lat="45.8393" lon="6.16143">
        <ele>455</ele>
        <time>2021-09-11T09:23:14.216Z</time>
      </trkpt>
      <trkpt lat="45.83936" lon="6.1614">
        <ele>455</ele>
        <time>2021-09-11T09:23:15.215Z</time>
      </trkpt>
      <trkpt lat="45.8394" lon="6.16136">
        <ele>455</ele>
        <time>2021-09-11T09:23:16.216Z</time>
      </trkpt>
      <trkpt lat="45.83944" lon="6.16134">
        <ele>455</ele>
        <time>2021-09-11T09:23:17.216Z</time>
      </trkpt>
      <trkpt lat="45.83948" lon="6.1613">
        <ele>455</ele>
        <time>2021-09-11T09:23:18.216Z</time>
      </trkpt>
      <trkpt lat="45.83954" lon="6.16126">
        <ele>455</ele>
        <time>2021-09-11T09:23:19.216Z</time>
      </trkpt>
      <trkpt lat="45.83959" lon="6.16123">
        <ele>455</ele>
        <time>2021-09-11T09:23:20.216Z</time>
      </trkpt>
      <trkpt lat="45.83963" lon="6.16121">
        <ele>455</ele>
        <time>2021-09-11T09:23:21.215Z</time>
      </trkpt>
      <trkpt lat="45.83967" lon="6.16118">
        <ele>455</ele>
        <time>2021-09-11T09:23:22.216Z</time>
      </trkpt>
      <trkpt lat="45.83973" lon="6.16114">
        <ele>454</ele>
        <time>2021-09-11T09:23:23.215Z</time>
      </trkpt>
      <trkpt lat="45.83977" lon="6.16111">
        <ele>454</ele>
        <time>2021-09-11T09:23:24.216Z</time>
      </trkpt>
      <trkpt lat="45.83982" lon="6.16108">
        <ele>454</ele>
        <time>2021-09-11T09:23:25.215Z</time>
      </trkpt>
      <trkpt lat="45.83987" lon="6.16105">
        <ele>454</ele>
        <time>2021-09-11T09:23:26.216Z</time>
      </trkpt>
      <trkpt lat="45.83993" lon="6.16101">
        <ele>454</ele>
        <time>2021-09-11T09:23:27.215Z</time>
      </trkpt>
      <trkpt lat="45.83999" lon="6.16098">
        <ele>454</ele>
        <time>2021-09-11T09:23:28.216Z</time>
      </trkpt>
      <trkpt lat="45.84004" lon="6.16095">
        <ele>454</ele>
        <time>2021-09-11T09:23:29.215Z</time>
      </trkpt>
      <trkpt lat="45.84009" lon="6.16092">
        <ele>454</ele>
        <time>2021-09-11T09:23:30.216Z</time>
      </trkpt>
      <trkpt lat="45.84015" lon="6.16089">
        <ele>454</ele>
        <time>2021-09-11T09:23:31.216Z</time>
      </trkpt>
      <trkpt lat="45.84021" lon="6.16084">
        <ele>454</ele>
        <time>2021-09-11T09:23:32.215Z</time>
      </trkpt>
      <trkpt lat="45.84027" lon="6.16081">
        <ele>454</ele>
        <time>2021-09-11T09:23:33.216Z</time>
      </trkpt>
      <trkpt lat="45.84033" lon="6.16077">
        <ele>454</ele>
        <time>2021-09-11T09:23:34.215Z</time>
      </trkpt>
      <trkpt lat="45.84037" lon="6.16075">
        <ele>454</ele>
        <time>2021-09-11T09:23:35.215Z</time>
      </trkpt>
      <trkpt lat="45.84043" lon="6.16071">
        <ele>454</ele>
        <time>2021-09-11T09:23:36.216Z</time>
      </trkpt>
      <trkpt lat="45.84048" lon="6.16067">
        <ele>454</ele>
        <time>2021-09-11T09:23:37.216Z</time>
      </trkpt>
      <trkpt lat="45.84054" lon="6.16063">
        <ele>454</ele>
        <time>2021-09-11T09:23:38.216Z</time>
      </trkpt>
      <trkpt lat="45.8406" lon="6.16059">
        <ele>454</ele>
        <time>2021-09-11T09:23:39.216Z</time>
      </trkpt>
      <trkpt lat="45.84065" lon="6.16055">
        <ele>454</ele>
        <time>2021-09-11T09:23:40.216Z</time>
      </trkpt>
      <trkpt lat="45.8407" lon="6.16051">
        <ele>454</ele>
        <time>2021-09-11T09:23:41.215Z</time>
      </trkpt>
      <trkpt lat="45.84077" lon="6.16046">
        <ele>454</ele>
        <time>2021-09-11T09:23:42.216Z</time>
      </trkpt>
      <trkpt lat="45.84082" lon="6.16042">
        <ele>454</ele>
        <time>2021-09-11T09:23:43.215Z</time>
      </trkpt>
      <trkpt lat="45.84087" lon="6.16039">
        <ele>454</ele>
        <time>2021-09-11T09:23:44.216Z</time>
      </trkpt>
      <trkpt lat="45.84092" lon="6.16034">
        <ele>454</ele>
        <time>2021-09-11T09:23:45.216Z</time>
      </trkpt>
      <trkpt lat="45.84097" lon="6.1603">
        <ele>454</ele>
        <time>2021-09-11T09:23:46.216Z</time>
      </trkpt>
      <trkpt lat="45.84102" lon="6.16025">
        <ele>454</ele>
        <time>2021-09-11T09:23:47.216Z</time>
      </trkpt>
      <trkpt lat="45.84109" lon="6.16019">
        <ele>453</ele>
        <time>2021-09-11T09:23:48.215Z</time>
      </trkpt>
      <trkpt lat="45.84113" lon="6.16015">
        <ele>453</ele>
        <time>2021-09-11T09:23:49.216Z</time>
      </trkpt>
      <trkpt lat="45.84118" lon="6.1601">
        <ele>453</ele>
        <time>2021-09-11T09:23:50.216Z</time>
      </trkpt>
      <trkpt lat="45.84124" lon="6.16004">
        <ele>453</ele>
        <time>2021-09-11T09:23:51.216Z</time>
      </trkpt>
      <trkpt lat="45.84129" lon="6.15999">
        <ele>452</ele>
        <time>2021-09-11T09:23:52.216Z</time>
      </trkpt>
      <trkpt lat="45.84134" lon="6.15993">
        <ele>452</ele>
        <time>2021-09-11T09:23:53.216Z</time>
      </trkpt>
      <trkpt lat="45.84138" lon="6.15989">
        <ele>452</ele>
        <time>2021-09-11T09:23:54.216Z</time>
      </trkpt>
      <trkpt lat="45.84144" lon="6.15982">
        <ele>452</ele>
        <time>2021-09-11T09:23:55.215Z</time>
      </trkpt>
      <trkpt lat="45.84148" lon="6.15977">
        <ele>452</ele>
        <time>2021-09-11T09:23:56.215Z</time>
      </trkpt>
      <trkpt lat="45.84153" lon="6.15971">
        <ele>451</ele>
        <time>2021-09-11T09:23:57.216Z</time>
      </trkpt>
      <trkpt lat="45.84157" lon="6.15966">
        <ele>451</ele>
        <time>2021-09-11T09:23:58.216Z</time>
      </trkpt>
      <trkpt lat="45.84162" lon="6.1596">
        <ele>451</ele>
        <time>2021-09-11T09:23:59.216Z</time>
      </trkpt>
      <trkpt lat="45.84167" lon="6.15954">
        <ele>451</ele>
        <time>2021-09-11T09:24:00.216Z</time>
      </trkpt>
      <trkpt lat="45.84171" lon="6.15948">
        <ele>451</ele>
        <time>2021-09-11T09:24:01.216Z</time>
      </trkpt>
      <trkpt lat="45.84176" lon="6.15942">
        <ele>451</ele>
        <time>2021-09-11T09:24:02.215Z</time>
      </trkpt>
      <trkpt lat="45.84179" lon="6.15937">
        <ele>450</ele>
        <time>2021-09-11T09:24:03.216Z</time>
      </trkpt>
      <trkpt lat="45.84184" lon="6.15931">
        <ele>450</ele>
        <time>2021-09-11T09:24:04.216Z</time>
      </trkpt>
      <trkpt lat="45.84187" lon="6.15926">
        <ele>450</ele>
        <time>2021-09-11T09:24:05.216Z</time>
      </trkpt>
      <trkpt lat="45.84191" lon="6.15918">
        <ele>450</ele>
        <time>2021-09-11T09:24:06.216Z</time>
      </trkpt>
      <trkpt lat="45.84195" lon="6.15914">
        <ele>450</ele>
        <time>2021-09-11T09:24:07.216Z</time>
      </trkpt>
      <trkpt lat="45.84198" lon="6.15908">
        <ele>450</ele>
        <time>2021-09-11T09:24:08.216Z</time>
      </trkpt>
      <trkpt lat="45.84202" lon="6.15902">
        <ele>451</ele>
        <time>2021-09-11T09:24:09.216Z</time>
      </trkpt>
      <trkpt lat="45.84206" lon="6.15896">
        <ele>451</ele>
        <time>2021-09-11T09:24:10.216Z</time>
      </trkpt>
      <trkpt lat="45.84209" lon="6.15889">
        <ele>451</ele>
        <time>2021-09-11T09:24:11.216Z</time>
      </trkpt>
      <trkpt lat="45.84212" lon="6.15884">
        <ele>452</ele>
        <time>2021-09-11T09:24:12.216Z</time>
      </trkpt>
      <trkpt lat="45.84217" lon="6.15877">
        <ele>452</ele>
        <time>2021-09-11T09:24:13.215Z</time>
      </trkpt>
      <trkpt lat="45.8422" lon="6.1587">
        <ele>452</ele>
        <time>2021-09-11T09:24:14.216Z</time>
      </trkpt>
      <trkpt lat="45.84224" lon="6.15864">
        <ele>452</ele>
        <time>2021-09-11T09:24:15.216Z</time>
      </trkpt>
      <trkpt lat="45.84226" lon="6.15859">
        <ele>451</ele>
        <time>2021-09-11T09:24:16.215Z</time>
      </trkpt>
      <trkpt lat="45.8423" lon="6.15852">
        <ele>452</ele>
        <time>2021-09-11T09:24:17.216Z</time>
      </trkpt>
      <trkpt lat="45.84234" lon="6.15844">
        <ele>451</ele>
        <time>2021-09-11T09:24:18.216Z</time>
      </trkpt>
      <trkpt lat="45.84237" lon="6.15837">
        <ele>451</ele>
        <time>2021-09-11T09:24:19.216Z</time>
      </trkpt>
      <trkpt lat="45.84239" lon="6.15832">
        <ele>451</ele>
        <time>2021-09-11T09:24:20.216Z</time>
      </trkpt>
      <trkpt lat="45.84242" lon="6.15825">
        <ele>450</ele>
        <time>2021-09-11T09:24:21.216Z</time>
      </trkpt>
      <trkpt lat="45.84246" lon="6.15817">
        <ele>450</ele>
        <time>2021-09-11T09:24:22.216Z</time>
      </trkpt>
      <trkpt lat="45.84248" lon="6.15811">
        <ele>450</ele>
        <time>2021-09-11T09:24:23.215Z</time>
      </trkpt>
      <trkpt lat="45.84251" lon="6.15805">
        <ele>449</ele>
        <time>2021-09-11T09:24:24.216Z</time>
      </trkpt>
      <trkpt lat="45.84254" lon="6.15798">
        <ele>449</ele>
        <time>2021-09-11T09:24:25.216Z</time>
      </trkpt>
      <trkpt lat="45.84257" lon="6.15792">
        <ele>448</ele>
        <time>2021-09-11T09:24:26.216Z</time>
      </trkpt>
      <trkpt lat="45.8426" lon="6.15786">
        <ele>448</ele>
        <time>2021-09-11T09:24:27.216Z</time>
      </trkpt>
      <trkpt lat="45.84263" lon="6.1578">
        <ele>447</ele>
        <time>2021-09-11T09:24:28.216Z</time>
      </trkpt>
      <trkpt lat="45.84266" lon="6.15773">
        <ele>447</ele>
        <time>2021-09-11T09:24:29.216Z</time>
      </trkpt>
      <trkpt lat="45.84268" lon="6.15766">
        <ele>447</ele>
        <time>2021-09-11T09:24:30.215Z</time>
      </trkpt>
      <trkpt lat="45.84272" lon="6.15759">
        <ele>447</ele>
        <time>2021-09-11T09:24:31.215Z</time>
      </trkpt>
      <trkpt lat="45.84275" lon="6.15753">
        <ele>447</ele>
        <time>2021-09-11T09:24:32.216Z</time>
      </trkpt>
      <trkpt lat="45.84277" lon="6.15747">
        <ele>447</ele>
        <time>2021-09-11T09:24:33.215Z</time>
      </trkpt>
      <trkpt lat="45.84279" lon="6.15742">
        <ele>447</ele>
        <time>2021-09-11T09:24:34.216Z</time>
      </trkpt>
      <trkpt lat="45.84281" lon="6.15737">
        <ele>447</ele>
        <time>2021-09-11T09:24:35.216Z</time>
      </trkpt>
      <trkpt lat="45.84283" lon="6.15732">
        <ele>447</ele>
        <time>2021-09-11T09:24:36.216Z</time>
      </trkpt>
      <trkpt lat="45.84285" lon="6.15726">
        <ele>448</ele>
        <time>2021-09-11T09:24:37.215Z</time>
      </trkpt>
      <trkpt lat="45.84287" lon="6.15721">
        <ele>448</ele>
        <time>2021-09-11T09:24:38.216Z</time>
      </trkpt>
      <trkpt lat="45.8429" lon="6.15715">
        <ele>448</ele>
        <time>2021-09-11T09:24:39.216Z</time>
      </trkpt>
      <trkpt lat="45.84293" lon="6.15708">
        <ele>448</ele>
        <time>2021-09-11T09:24:40.215Z</time>
      </trkpt>
      <trkpt lat="45.84296" lon="6.15701">
        <ele>448</ele>
        <time>2021-09-11T09:24:41.216Z</time>
      </trkpt>
      <trkpt lat="45.84298" lon="6.15695">
        <ele>448</ele>
        <time>2021-09-11T09:24:42.216Z</time>
      </trkpt>
      <trkpt lat="45.84301" lon="6.1569">
        <ele>448</ele>
        <time>2021-09-11T09:24:43.216Z</time>
      </trkpt>
      <trkpt lat="45.84303" lon="6.15683">
        <ele>448</ele>
        <time>2021-09-11T09:24:44.216Z</time>
      </trkpt>
      <trkpt lat="45.84307" lon="6.15676">
        <ele>448</ele>
        <time>2021-09-11T09:24:45.216Z</time>
      </trkpt>
      <trkpt lat="45.8431" lon="6.1567">
        <ele>447</ele>
        <time>2021-09-11T09:24:46.216Z</time>
      </trkpt>
      <trkpt lat="45.84312" lon="6.15664">
        <ele>447</ele>
        <time>2021-09-11T09:24:47.216Z</time>
      </trkpt>
      <trkpt lat="45.84315" lon="6.15659">
        <ele>447</ele>
        <time>2021-09-11T09:24:48.215Z</time>
      </trkpt>
      <trkpt lat="45.84318" lon="6.15652">
        <ele>448</ele>
        <time>2021-09-11T09:24:49.215Z</time>
      </trkpt>
      <trkpt lat="45.8432" lon="6.15647">
        <ele>448</ele>
        <time>2021-09-11T09:24:50.216Z</time>
      </trkpt>
      <trkpt lat="45.84324" lon="6.15639">
        <ele>448</ele>
        <time>2021-09-11T09:24:51.216Z</time>
      </trkpt>
      <trkpt lat="45.84326" lon="6.15634">
        <ele>449</ele>
        <time>2021-09-11T09:24:52.215Z</time>
      </trkpt>
      <trkpt lat="45.84328" lon="6.15628">
        <ele>449</ele>
        <time>2021-09-11T09:24:53.216Z</time>
      </trkpt>
      <trkpt lat="45.84332" lon="6.15621">
        <ele>449</ele>
        <time>2021-09-11T09:24:54.216Z</time>
      </trkpt>
      <trkpt lat="45.84334" lon="6.15615">
        <ele>449</ele>
        <time>2021-09-11T09:24:55.215Z</time>
      </trkpt>
      <trkpt lat="45.84337" lon="6.15609">
        <ele>449</ele>
        <time>2021-09-11T09:24:56.215Z</time>
      </trkpt>
      <trkpt lat="45.84339" lon="6.15604">
        <ele>449</ele>
        <time>2021-09-11T09:24:57.216Z</time>
      </trkpt>
      <trkpt lat="45.84342" lon="6.15598">
        <ele>449</ele>
        <time>2021-09-11T09:24:58.216Z</time>
      </trkpt>
      <trkpt lat="45.84345" lon="6.15592">
        <ele>448</ele>
        <time>2021-09-11T09:24:59.216Z</time>
      </trkpt>
      <trkpt lat="45.84348" lon="6.15586">
        <ele>448</ele>
        <time>2021-09-11T09:25:00.216Z</time>
      </trkpt>
      <trkpt lat="45.8435" lon="6.15581">
        <ele>448</ele>
        <time>2021-09-11T09:25:01.215Z</time>
      </trkpt>
      <trkpt lat="45.84352" lon="6.15574">
        <ele>448</ele>
        <time>2021-09-11T09:25:02.216Z</time>
      </trkpt>
      <trkpt lat="45.84356" lon="6.15567">
        <ele>448</ele>
        <time>2021-09-11T09:25:03.216Z</time>
      </trkpt>
      <trkpt lat="45.84359" lon="6.1556">
        <ele>448</ele>
        <time>2021-09-11T09:25:04.216Z</time>
      </trkpt>
      <trkpt lat="45.84361" lon="6.15553">
        <ele>448</ele>
        <time>2021-09-11T09:25:05.216Z</time>
      </trkpt>
      <trkpt lat="45.84364" lon="6.15548">
        <ele>447</ele>
        <time>2021-09-11T09:25:06.215Z</time>
      </trkpt>
      <trkpt lat="45.84367" lon="6.1554">
        <ele>447</ele>
        <time>2021-09-11T09:25:07.216Z</time>
      </trkpt>
      <trkpt lat="45.8437" lon="6.15534">
        <ele>447</ele>
        <time>2021-09-11T09:25:08.216Z</time>
      </trkpt>
      <trkpt lat="45.84373" lon="6.15527">
        <ele>447</ele>
        <time>2021-09-11T09:25:09.215Z</time>
      </trkpt>
      <trkpt lat="45.84376" lon="6.15522">
        <ele>447</ele>
        <time>2021-09-11T09:25:10.216Z</time>
      </trkpt>
      <trkpt lat="45.84379" lon="6.15515">
        <ele>447</ele>
        <time>2021-09-11T09:25:11.215Z</time>
      </trkpt>
      <trkpt lat="45.84383" lon="6.15509">
        <ele>448</ele>
        <time>2021-09-11T09:25:12.216Z</time>
      </trkpt>
      <trkpt lat="45.84387" lon="6.15501">
        <ele>448</ele>
        <time>2021-09-11T09:25:13.216Z</time>
      </trkpt>
      <trkpt lat="45.8439" lon="6.15495">
        <ele>448</ele>
        <time>2021-09-11T09:25:14.215Z</time>
      </trkpt>
      <trkpt lat="45.84393" lon="6.1549">
        <ele>447</ele>
        <time>2021-09-11T09:25:15.215Z</time>
      </trkpt>
      <trkpt lat="45.84396" lon="6.15482">
        <ele>447</ele>
        <time>2021-09-11T09:25:16.215Z</time>
      </trkpt>
      <trkpt lat="45.844" lon="6.15476">
        <ele>447</ele>
        <time>2021-09-11T09:25:17.215Z</time>
      </trkpt>
      <trkpt lat="45.84403" lon="6.1547">
        <ele>447</ele>
        <time>2021-09-11T09:25:18.216Z</time>
      </trkpt>
      <trkpt lat="45.84406" lon="6.15465">
        <ele>448</ele>
        <time>2021-09-11T09:25:19.216Z</time>
      </trkpt>
      <trkpt lat="45.84409" lon="6.15458">
        <ele>448</ele>
        <time>2021-09-11T09:25:20.216Z</time>
      </trkpt>
      <trkpt lat="45.84413" lon="6.15451">
        <ele>448</ele>
        <time>2021-09-11T09:25:21.216Z</time>
      </trkpt>
      <trkpt lat="45.84417" lon="6.15445">
        <ele>448</ele>
        <time>2021-09-11T09:25:22.216Z</time>
      </trkpt>
      <trkpt lat="45.8442" lon="6.15441">
        <ele>448</ele>
        <time>2021-09-11T09:25:23.216Z</time>
      </trkpt>
      <trkpt lat="45.84424" lon="6.15435">
        <ele>448</ele>
        <time>2021-09-11T09:25:24.216Z</time>
      </trkpt>
      <trkpt lat="45.84428" lon="6.15429">
        <ele>448</ele>
        <time>2021-09-11T09:25:25.216Z</time>
      </trkpt>
      <trkpt lat="45.84432" lon="6.15423">
        <ele>448</ele>
        <time>2021-09-11T09:25:26.216Z</time>
      </trkpt>
      <trkpt lat="45.84436" lon="6.15418">
        <ele>448</ele>
        <time>2021-09-11T09:25:27.216Z</time>
      </trkpt>
      <trkpt lat="45.8444" lon="6.15413">
        <ele>448</ele>
        <time>2021-09-11T09:25:28.216Z</time>
      </trkpt>
      <trkpt lat="45.84445" lon="6.15406">
        <ele>447</ele>
        <time>2021-09-11T09:25:29.215Z</time>
      </trkpt>
      <trkpt lat="45.84449" lon="6.154">
        <ele>447</ele>
        <time>2021-09-11T09:25:30.216Z</time>
      </trkpt>
      <trkpt lat="45.84452" lon="6.15394">
        <ele>447</ele>
        <time>2021-09-11T09:25:31.216Z</time>
      </trkpt>
      <trkpt lat="45.84456" lon="6.15389">
        <ele>447</ele>
        <time>2021-09-11T09:25:32.216Z</time>
      </trkpt>
      <trkpt lat="45.8446" lon="6.15382">
        <ele>447</ele>
        <time>2021-09-11T09:25:33.215Z</time>
      </trkpt>
      <trkpt lat="45.84465" lon="6.15376">
        <ele>447</ele>
        <time>2021-09-11T09:25:34.216Z</time>
      </trkpt>
      <trkpt lat="45.8447" lon="6.15368">
        <ele>447</ele>
        <time>2021-09-11T09:25:35.216Z</time>
      </trkpt>
      <trkpt lat="45.84475" lon="6.15362">
        <ele>447</ele>
        <time>2021-09-11T09:25:36.215Z</time>
      </trkpt>
      <trkpt lat="45.84479" lon="6.15358">
        <ele>447</ele>
        <time>2021-09-11T09:25:37.216Z</time>
      </trkpt>
      <trkpt lat="45.84484" lon="6.15351">
        <ele>447</ele>
        <time>2021-09-11T09:25:38.215Z</time>
      </trkpt>
      <trkpt lat="45.84489" lon="6.15345">
        <ele>447</ele>
        <time>2021-09-11T09:25:39.216Z</time>
      </trkpt>
      <trkpt lat="45.84495" lon="6.1534">
        <ele>447</ele>
        <time>2021-09-11T09:25:40.216Z</time>
      </trkpt>
      <trkpt lat="45.84499" lon="6.15335">
        <ele>447</ele>
        <time>2021-09-11T09:25:41.216Z</time>
      </trkpt>
      <trkpt lat="45.84504" lon="6.1533">
        <ele>448</ele>
        <time>2021-09-11T09:25:42.216Z</time>
      </trkpt>
      <trkpt lat="45.84509" lon="6.15325">
        <ele>449</ele>
        <time>2021-09-11T09:25:43.215Z</time>
      </trkpt>
      <trkpt lat="45.84515" lon="6.15319">
        <ele>449</ele>
        <time>2021-09-11T09:25:44.216Z</time>
      </trkpt>
      <trkpt lat="45.84519" lon="6.15314">
        <ele>449</ele>
        <time>2021-09-11T09:25:45.216Z</time>
      </trkpt>
      <trkpt lat="45.84523" lon="6.1531">
        <ele>449</ele>
        <time>2021-09-11T09:25:46.216Z</time>
      </trkpt>
      <trkpt lat="45.84528" lon="6.15305">
        <ele>449</ele>
        <time>2021-09-11T09:25:47.216Z</time>
      </trkpt>
      <trkpt lat="45.84533" lon="6.153">
        <ele>448</ele>
        <time>2021-09-11T09:25:48.216Z</time>
      </trkpt>
      <trkpt lat="45.84537" lon="6.15296">
        <ele>448</ele>
        <time>2021-09-11T09:25:49.216Z</time>
      </trkpt>
      <trkpt lat="45.84541" lon="6.15292">
        <ele>448</ele>
        <time>2021-09-11T09:25:50.216Z</time>
      </trkpt>
      <trkpt lat="45.84546" lon="6.15288">
        <ele>448</ele>
        <time>2021-09-11T09:25:51.216Z</time>
      </trkpt>
      <trkpt lat="45.84551" lon="6.15284">
        <ele>448</ele>
        <time>2021-09-11T09:25:52.216Z</time>
      </trkpt>
      <trkpt lat="45.84555" lon="6.1528">
        <ele>448</ele>
        <time>2021-09-11T09:25:53.215Z</time>
      </trkpt>
      <trkpt lat="45.84559" lon="6.15277">
        <ele>448</ele>
        <time>2021-09-11T09:25:54.216Z</time>
      </trkpt>
      <trkpt lat="45.84563" lon="6.15273">
        <ele>448</ele>
        <time>2021-09-11T09:25:55.216Z</time>
      </trkpt>
      <trkpt lat="45.84568" lon="6.15268">
        <ele>449</ele>
        <time>2021-09-11T09:25:56.216Z</time>
      </trkpt>
      <trkpt lat="45.84573" lon="6.15264">
        <ele>449</ele>
        <time>2021-09-11T09:25:57.216Z</time>
      </trkpt>
      <trkpt lat="45.84578" lon="6.15259">
        <ele>449</ele>
        <time>2021-09-11T09:25:58.216Z</time>
      </trkpt>
      <trkpt lat="45.84582" lon="6.15256">
        <ele>449</ele>
        <time>2021-09-11T09:25:59.216Z</time>
      </trkpt>
      <trkpt lat="45.84587" lon="6.15251">
        <ele>449</ele>
        <time>2021-09-11T09:26:00.215Z</time>
      </trkpt>
      <trkpt lat="45.84594" lon="6.15246">
        <ele>449</ele>
        <time>2021-09-11T09:26:01.216Z</time>
      </trkpt>
      <trkpt lat="45.84599" lon="6.15242">
        <ele>450</ele>
        <time>2021-09-11T09:26:02.216Z</time>
      </trkpt>
      <trkpt lat="45.84605" lon="6.15238">
        <ele>450</ele>
        <time>2021-09-11T09:26:03.216Z</time>
      </trkpt>
      <trkpt lat="45.8461" lon="6.15235">
        <ele>450</ele>
        <time>2021-09-11T09:26:04.216Z</time>
      </trkpt>
      <trkpt lat="45.84617" lon="6.15231">
        <ele>450</ele>
        <time>2021-09-11T09:26:05.216Z</time>
      </trkpt>
      <trkpt lat="45.84623" lon="6.15228">
        <ele>450</ele>
        <time>2021-09-11T09:26:06.216Z</time>
      </trkpt>
      <trkpt lat="45.84627" lon="6.15225">
        <ele>450</ele>
        <time>2021-09-11T09:26:07.216Z</time>
      </trkpt>
      <trkpt lat="45.84633" lon="6.15222">
        <ele>450</ele>
        <time>2021-09-11T09:26:08.215Z</time>
      </trkpt>
      <trkpt lat="45.84639" lon="6.15218">
        <ele>450</ele>
        <time>2021-09-11T09:26:09.216Z</time>
      </trkpt>
      <trkpt lat="45.84645" lon="6.15214">
        <ele>450</ele>
        <time>2021-09-11T09:26:10.215Z</time>
      </trkpt>
      <trkpt lat="45.84652" lon="6.1521">
        <ele>450</ele>
        <time>2021-09-11T09:26:11.216Z</time>
      </trkpt>
      <trkpt lat="45.84657" lon="6.15207">
        <ele>450</ele>
        <time>2021-09-11T09:26:12.216Z</time>
      </trkpt>
      <trkpt lat="45.84663" lon="6.15203">
        <ele>450</ele>
        <time>2021-09-11T09:26:13.215Z</time>
      </trkpt>
      <trkpt lat="45.84669" lon="6.152">
        <ele>450</ele>
        <time>2021-09-11T09:26:14.215Z</time>
      </trkpt>
      <trkpt lat="45.84676" lon="6.15195">
        <ele>450</ele>
        <time>2021-09-11T09:26:15.215Z</time>
      </trkpt>
      <trkpt lat="45.84681" lon="6.15193">
        <ele>450</ele>
        <time>2021-09-11T09:26:16.216Z</time>
      </trkpt>
      <trkpt lat="45.84687" lon="6.15189">
        <ele>450</ele>
        <time>2021-09-11T09:26:17.216Z</time>
      </trkpt>
      <trkpt lat="45.84693" lon="6.15185">
        <ele>450</ele>
        <time>2021-09-11T09:26:18.216Z</time>
      </trkpt>
      <trkpt lat="45.84701" lon="6.15181">
        <ele>450</ele>
        <time>2021-09-11T09:26:19.216Z</time>
      </trkpt>
      <trkpt lat="45.84706" lon="6.15177">
        <ele>450</ele>
        <time>2021-09-11T09:26:20.215Z</time>
      </trkpt>
      <trkpt lat="45.84711" lon="6.15174">
        <ele>450</ele>
        <time>2021-09-11T09:26:21.216Z</time>
      </trkpt>
      <trkpt lat="45.84717" lon="6.1517">
        <ele>450</ele>
        <time>2021-09-11T09:26:22.216Z</time>
      </trkpt>
      <trkpt lat="45.84724" lon="6.15166">
        <ele>450</ele>
        <time>2021-09-11T09:26:23.215Z</time>
      </trkpt>
      <trkpt lat="45.84729" lon="6.15162">
        <ele>450</ele>
        <time>2021-09-11T09:26:24.216Z</time>
      </trkpt>
      <trkpt lat="45.84735" lon="6.15159">
        <ele>450</ele>
        <time>2021-09-11T09:26:25.215Z</time>
      </trkpt>
      <trkpt lat="45.84739" lon="6.15156">
        <ele>450</ele>
        <time>2021-09-11T09:26:26.216Z</time>
      </trkpt>
      <trkpt lat="45.84745" lon="6.15152">
        <ele>450</ele>
        <time>2021-09-11T09:26:27.215Z</time>
      </trkpt>
      <trkpt lat="45.8475" lon="6.15149">
        <ele>450</ele>
        <time>2021-09-11T09:26:28.215Z</time>
      </trkpt>
      <trkpt lat="45.84756" lon="6.15145">
        <ele>450</ele>
        <time>2021-09-11T09:26:29.215Z</time>
      </trkpt>
      <trkpt lat="45.8476" lon="6.15142">
        <ele>450</ele>
        <time>2021-09-11T09:26:30.215Z</time>
      </trkpt>
      <trkpt lat="45.84766" lon="6.15139">
        <ele>449</ele>
        <time>2021-09-11T09:26:31.215Z</time>
      </trkpt>
      <trkpt lat="45.84772" lon="6.15135">
        <ele>449</ele>
        <time>2021-09-11T09:26:32.215Z</time>
      </trkpt>
      <trkpt lat="45.84777" lon="6.15132">
        <ele>449</ele>
        <time>2021-09-11T09:26:33.216Z</time>
      </trkpt>
      <trkpt lat="45.84782" lon="6.15129">
        <ele>449</ele>
        <time>2021-09-11T09:26:34.215Z</time>
      </trkpt>
      <trkpt lat="45.84786" lon="6.15127">
        <ele>449</ele>
        <time>2021-09-11T09:26:35.215Z</time>
      </trkpt>
      <trkpt lat="45.84791" lon="6.15123">
        <ele>449</ele>
        <time>2021-09-11T09:26:36.215Z</time>
      </trkpt>
      <trkpt lat="45.84795" lon="6.1512">
        <ele>450</ele>
        <time>2021-09-11T09:26:37.216Z</time>
      </trkpt>
      <trkpt lat="45.848" lon="6.15117">
        <ele>450</ele>
        <time>2021-09-11T09:26:38.215Z</time>
      </trkpt>
      <trkpt lat="45.84804" lon="6.15114">
        <ele>449</ele>
        <time>2021-09-11T09:26:39.215Z</time>
      </trkpt>
      <trkpt lat="45.84808" lon="6.15111">
        <ele>450</ele>
        <time>2021-09-11T09:26:40.216Z</time>
      </trkpt>
      <trkpt lat="45.84813" lon="6.15108">
        <ele>450</ele>
        <time>2021-09-11T09:26:41.216Z</time>
      </trkpt>
      <trkpt lat="45.84818" lon="6.15104">
        <ele>450</ele>
        <time>2021-09-11T09:26:42.215Z</time>
      </trkpt>
      <trkpt lat="45.84823" lon="6.15101">
        <ele>450</ele>
        <time>2021-09-11T09:26:43.215Z</time>
      </trkpt>
      <trkpt lat="45.84827" lon="6.15098">
        <ele>450</ele>
        <time>2021-09-11T09:26:44.216Z</time>
      </trkpt>
      <trkpt lat="45.84833" lon="6.15095">
        <ele>450</ele>
        <time>2021-09-11T09:26:45.215Z</time>
      </trkpt>
      <trkpt lat="45.84837" lon="6.15091">
        <ele>450</ele>
        <time>2021-09-11T09:26:46.216Z</time>
      </trkpt>
      <trkpt lat="45.84841" lon="6.15089">
        <ele>450</ele>
        <time>2021-09-11T09:26:47.216Z</time>
      </trkpt>
      <trkpt lat="45.84846" lon="6.15086">
        <ele>450</ele>
        <time>2021-09-11T09:26:48.216Z</time>
      </trkpt>
      <trkpt lat="45.84851" lon="6.15083">
        <ele>450</ele>
        <time>2021-09-11T09:26:49.216Z</time>
      </trkpt>
      <trkpt lat="45.84856" lon="6.1508">
        <ele>450</ele>
        <time>2021-09-11T09:26:50.215Z</time>
      </trkpt>
      <trkpt lat="45.84861" lon="6.15077">
        <ele>450</ele>
        <time>2021-09-11T09:26:51.215Z</time>
      </trkpt>
      <trkpt lat="45.84866" lon="6.15074">
        <ele>450</ele>
        <time>2021-09-11T09:26:52.215Z</time>
      </trkpt>
      <trkpt lat="45.8487" lon="6.15072">
        <ele>450</ele>
        <time>2021-09-11T09:26:53.216Z</time>
      </trkpt>
      <trkpt lat="45.84874" lon="6.15069">
        <ele>450</ele>
        <time>2021-09-11T09:26:54.215Z</time>
      </trkpt>
      <trkpt lat="45.84879" lon="6.15066">
        <ele>450</ele>
        <time>2021-09-11T09:26:55.216Z</time>
      </trkpt>
      <trkpt lat="45.84884" lon="6.15063">
        <ele>450</ele>
        <time>2021-09-11T09:26:56.216Z</time>
      </trkpt>
      <trkpt lat="45.84888" lon="6.1506">
        <ele>450</ele>
        <time>2021-09-11T09:26:57.215Z</time>
      </trkpt>
      <trkpt lat="45.84893" lon="6.15057">
        <ele>450</ele>
        <time>2021-09-11T09:26:58.216Z</time>
      </trkpt>
      <trkpt lat="45.84897" lon="6.15054">
        <ele>450</ele>
        <time>2021-09-11T09:26:59.215Z</time>
      </trkpt>
      <trkpt lat="45.84902" lon="6.15051">
        <ele>450</ele>
        <time>2021-09-11T09:27:00.216Z</time>
      </trkpt>
      <trkpt lat="45.84907" lon="6.15048">
        <ele>450</ele>
        <time>2021-09-11T09:27:01.216Z</time>
      </trkpt>
      <trkpt lat="45.84911" lon="6.15046">
        <ele>450</ele>
        <time>2021-09-11T09:27:02.215Z</time>
      </trkpt>
      <trkpt lat="45.84915" lon="6.15043">
        <ele>449</ele>
        <time>2021-09-11T09:27:03.216Z</time>
      </trkpt>
      <trkpt lat="45.8492" lon="6.1504">
        <ele>449</ele>
        <time>2021-09-11T09:27:04.216Z</time>
      </trkpt>
      <trkpt lat="45.84924" lon="6.15037">
        <ele>449</ele>
        <time>2021-09-11T09:27:05.215Z</time>
      </trkpt>
      <trkpt lat="45.84928" lon="6.15035">
        <ele>449</ele>
        <time>2021-09-11T09:27:06.216Z</time>
      </trkpt>
      <trkpt lat="45.84932" lon="6.15032">
        <ele>449</ele>
        <time>2021-09-11T09:27:07.216Z</time>
      </trkpt>
      <trkpt lat="45.84936" lon="6.15029">
        <ele>450</ele>
        <time>2021-09-11T09:27:08.215Z</time>
      </trkpt>
      <trkpt lat="45.84941" lon="6.15025">
        <ele>450</ele>
        <time>2021-09-11T09:27:09.216Z</time>
      </trkpt>
      <trkpt lat="45.84945" lon="6.15023">
        <ele>450</ele>
        <time>2021-09-11T09:27:10.215Z</time>
      </trkpt>
      <trkpt lat="45.84949" lon="6.1502">
        <ele>450</ele>
        <time>2021-09-11T09:27:11.216Z</time>
      </trkpt>
      <trkpt lat="45.84954" lon="6.15017">
        <ele>450</ele>
        <time>2021-09-11T09:27:12.216Z</time>
      </trkpt>
      <trkpt lat="45.84958" lon="6.15014">
        <ele>451</ele>
        <time>2021-09-11T09:27:13.215Z</time>
      </trkpt>
      <trkpt lat="45.84962" lon="6.15011">
        <ele>451</ele>
        <time>2021-09-11T09:27:14.215Z</time>
      </trkpt>
      <trkpt lat="45.84967" lon="6.15009">
        <ele>451</ele>
        <time>2021-09-11T09:27:15.216Z</time>
      </trkpt>
      <trkpt lat="45.84971" lon="6.15006">
        <ele>451</ele>
        <time>2021-09-11T09:27:16.216Z</time>
      </trkpt>
      <trkpt lat="45.84976" lon="6.15003">
        <ele>451</ele>
        <time>2021-09-11T09:27:17.216Z</time>
      </trkpt>
      <trkpt lat="45.84981" lon="6.14999">
        <ele>451</ele>
        <time>2021-09-11T09:27:18.216Z</time>
      </trkpt>
      <trkpt lat="45.84986" lon="6.14996">
        <ele>451</ele>
        <time>2021-09-11T09:27:19.215Z</time>
      </trkpt>
      <trkpt lat="45.84989" lon="6.14994">
        <ele>451</ele>
        <time>2021-09-11T09:27:20.215Z</time>
      </trkpt>
      <trkpt lat="45.84994" lon="6.14991">
        <ele>451</ele>
        <time>2021-09-11T09:27:21.216Z</time>
      </trkpt>
      <trkpt lat="45.84998" lon="6.14989">
        <ele>450</ele>
        <time>2021-09-11T09:27:22.216Z</time>
      </trkpt>
      <trkpt lat="45.85003" lon="6.14986">
        <ele>450</ele>
        <time>2021-09-11T09:27:23.215Z</time>
      </trkpt>
      <trkpt lat="45.85007" lon="6.14983">
        <ele>450</ele>
        <time>2021-09-11T09:27:24.215Z</time>
      </trkpt>
      <trkpt lat="45.85012" lon="6.1498">
        <ele>449</ele>
        <time>2021-09-11T09:27:25.215Z</time>
      </trkpt>
      <trkpt lat="45.85016" lon="6.14977">
        <ele>449</ele>
        <time>2021-09-11T09:27:26.216Z</time>
      </trkpt>
      <trkpt lat="45.8502" lon="6.14974">
        <ele>449</ele>
        <time>2021-09-11T09:27:27.216Z</time>
      </trkpt>
      <trkpt lat="45.85025" lon="6.14971">
        <ele>449</ele>
        <time>2021-09-11T09:27:28.216Z</time>
      </trkpt>
      <trkpt lat="45.85029" lon="6.14968">
        <ele>449</ele>
        <time>2021-09-11T09:27:29.215Z</time>
      </trkpt>
      <trkpt lat="45.85033" lon="6.14965">
        <ele>449</ele>
        <time>2021-09-11T09:27:30.216Z</time>
      </trkpt>
      <trkpt lat="45.85038" lon="6.14962">
        <ele>449</ele>
        <time>2021-09-11T09:27:31.216Z</time>
      </trkpt>
      <trkpt lat="45.85042" lon="6.1496">
        <ele>449</ele>
        <time>2021-09-11T09:27:32.216Z</time>
      </trkpt>
      <trkpt lat="45.85045" lon="6.14957">
        <ele>449</ele>
        <time>2021-09-11T09:27:33.215Z</time>
      </trkpt>
      <trkpt lat="45.85049" lon="6.14955">
        <ele>449</ele>
        <time>2021-09-11T09:27:34.215Z</time>
      </trkpt>
      <trkpt lat="45.85054" lon="6.14951">
        <ele>449</ele>
        <time>2021-09-11T09:27:35.215Z</time>
      </trkpt>
      <trkpt lat="45.85057" lon="6.14948">
        <ele>449</ele>
        <time>2021-09-11T09:27:36.216Z</time>
      </trkpt>
      <trkpt lat="45.85062" lon="6.14945">
        <ele>449</ele>
        <time>2021-09-11T09:27:37.216Z</time>
      </trkpt>
      <trkpt lat="45.85065" lon="6.14943">
        <ele>449</ele>
        <time>2021-09-11T09:27:38.216Z</time>
      </trkpt>
      <trkpt lat="45.85069" lon="6.1494">
        <ele>449</ele>
        <time>2021-09-11T09:27:39.215Z</time>
      </trkpt>
      <trkpt lat="45.85075" lon="6.14937">
        <ele>450</ele>
        <time>2021-09-11T09:27:40.215Z</time>
      </trkpt>
      <trkpt lat="45.85078" lon="6.14934">
        <ele>450</ele>
        <time>2021-09-11T09:27:41.216Z</time>
      </trkpt>
      <trkpt lat="45.85083" lon="6.14931">
        <ele>450</ele>
        <time>2021-09-11T09:27:42.216Z</time>
      </trkpt>
      <trkpt lat="45.85087" lon="6.14928">
        <ele>450</ele>
        <time>2021-09-11T09:27:43.216Z</time>
      </trkpt>
      <trkpt lat="45.85092" lon="6.14924">
        <ele>450</ele>
        <time>2021-09-11T09:27:44.216Z</time>
      </trkpt>
      <trkpt lat="45.85097" lon="6.14921">
        <ele>450</ele>
        <time>2021-09-11T09:27:45.215Z</time>
      </trkpt>
      <trkpt lat="45.85101" lon="6.14918">
        <ele>450</ele>
        <time>2021-09-11T09:27:46.215Z</time>
      </trkpt>
      <trkpt lat="45.85105" lon="6.14915">
        <ele>449</ele>
        <time>2021-09-11T09:27:47.216Z</time>
      </trkpt>
      <trkpt lat="45.8511" lon="6.14912">
        <ele>449</ele>
        <time>2021-09-11T09:27:48.216Z</time>
      </trkpt>
      <trkpt lat="45.85115" lon="6.14908">
        <ele>449</ele>
        <time>2021-09-11T09:27:49.215Z</time>
      </trkpt>
      <trkpt lat="45.8512" lon="6.14904">
        <ele>450</ele>
        <time>2021-09-11T09:27:50.215Z</time>
      </trkpt>
      <trkpt lat="45.85123" lon="6.14902">
        <ele>449</ele>
        <time>2021-09-11T09:27:51.216Z</time>
      </trkpt>
      <trkpt lat="45.85128" lon="6.14898">
        <ele>449</ele>
        <time>2021-09-11T09:27:52.215Z</time>
      </trkpt>
      <trkpt lat="45.85133" lon="6.14894">
        <ele>449</ele>
        <time>2021-09-11T09:27:53.216Z</time>
      </trkpt>
      <trkpt lat="45.85137" lon="6.14891">
        <ele>448</ele>
        <time>2021-09-11T09:27:54.215Z</time>
      </trkpt>
      <trkpt lat="45.85142" lon="6.14886">
        <ele>448</ele>
        <time>2021-09-11T09:27:55.215Z</time>
      </trkpt>
      <trkpt lat="45.85145" lon="6.14883">
        <ele>448</ele>
        <time>2021-09-11T09:27:56.216Z</time>
      </trkpt>
      <trkpt lat="45.85149" lon="6.1488">
        <ele>448</ele>
        <time>2021-09-11T09:27:57.216Z</time>
      </trkpt>
      <trkpt lat="45.85154" lon="6.14875">
        <ele>449</ele>
        <time>2021-09-11T09:27:58.216Z</time>
      </trkpt>
      <trkpt lat="45.85158" lon="6.14872">
        <ele>448</ele>
        <time>2021-09-11T09:27:59.215Z</time>
      </trkpt>
      <trkpt lat="45.85161" lon="6.14869">
        <ele>448</ele>
        <time>2021-09-11T09:28:00.215Z</time>
      </trkpt>
      <trkpt lat="45.85165" lon="6.14866">
        <ele>448</ele>
        <time>2021-09-11T09:28:01.216Z</time>
      </trkpt>
      <trkpt lat="45.85168" lon="6.14862">
        <ele>447</ele>
        <time>2021-09-11T09:28:02.216Z</time>
      </trkpt>
      <trkpt lat="45.85171" lon="6.14859">
        <ele>448</ele>
        <time>2021-09-11T09:28:03.215Z</time>
      </trkpt>
      <trkpt lat="45.85174" lon="6.14856">
        <ele>448</ele>
        <time>2021-09-11T09:28:04.215Z</time>
      </trkpt>
      <trkpt lat="45.85177" lon="6.14853">
        <ele>448</ele>
        <time>2021-09-11T09:28:05.215Z</time>
      </trkpt>
      <trkpt lat="45.85179" lon="6.14849">
        <ele>448</ele>
        <time>2021-09-11T09:28:06.216Z</time>
      </trkpt>
      <trkpt lat="45.85183" lon="6.14845">
        <ele>448</ele>
        <time>2021-09-11T09:28:07.215Z</time>
      </trkpt>
      <trkpt lat="45.85188" lon="6.14841">
        <ele>448</ele>
        <time>2021-09-11T09:28:08.215Z</time>
      </trkpt>
      <trkpt lat="45.85191" lon="6.14838">
        <ele>448</ele>
        <time>2021-09-11T09:28:09.215Z</time>
      </trkpt>
      <trkpt lat="45.85196" lon="6.14834">
        <ele>448</ele>
        <time>2021-09-11T09:28:10.215Z</time>
      </trkpt>
      <trkpt lat="45.85201" lon="6.14829">
        <ele>448</ele>
        <time>2021-09-11T09:28:11.215Z</time>
      </trkpt>
      <trkpt lat="45.85206" lon="6.14825">
        <ele>448</ele>
        <time>2021-09-11T09:28:12.215Z</time>
      </trkpt>
      <trkpt lat="45.85211" lon="6.14821">
        <ele>448</ele>
        <time>2021-09-11T09:28:13.215Z</time>
      </trkpt>
      <trkpt lat="45.85215" lon="6.14818">
        <ele>448</ele>
        <time>2021-09-11T09:28:14.216Z</time>
      </trkpt>
      <trkpt lat="45.85221" lon="6.14813">
        <ele>448</ele>
        <time>2021-09-11T09:28:15.215Z</time>
      </trkpt>
      <trkpt lat="45.85225" lon="6.14809">
        <ele>448</ele>
        <time>2021-09-11T09:28:16.215Z</time>
      </trkpt>
      <trkpt lat="45.85231" lon="6.14804">
        <ele>448</ele>
        <time>2021-09-11T09:28:17.215Z</time>
      </trkpt>
      <trkpt lat="45.85234" lon="6.148">
        <ele>448</ele>
        <time>2021-09-11T09:28:18.216Z</time>
      </trkpt>
      <trkpt lat="45.85239" lon="6.14796">
        <ele>449</ele>
        <time>2021-09-11T09:28:19.215Z</time>
      </trkpt>
      <trkpt lat="45.85245" lon="6.1479">
        <ele>449</ele>
        <time>2021-09-11T09:28:20.215Z</time>
      </trkpt>
      <trkpt lat="45.8525" lon="6.14786">
        <ele>449</ele>
        <time>2021-09-11T09:28:21.216Z</time>
      </trkpt>
      <trkpt lat="45.85254" lon="6.14782">
        <ele>449</ele>
        <time>2021-09-11T09:28:22.216Z</time>
      </trkpt>
      <trkpt lat="45.85258" lon="6.14778">
        <ele>449</ele>
        <time>2021-09-11T09:28:23.215Z</time>
      </trkpt>
      <trkpt lat="45.85262" lon="6.14774">
        <ele>449</ele>
        <time>2021-09-11T09:28:24.215Z</time>
      </trkpt>
      <trkpt lat="45.85267" lon="6.14769">
        <ele>449</ele>
        <time>2021-09-11T09:28:25.216Z</time>
      </trkpt>
      <trkpt lat="45.85271" lon="6.14765">
        <ele>450</ele>
        <time>2021-09-11T09:28:26.216Z</time>
      </trkpt>
      <trkpt lat="45.85275" lon="6.14761">
        <ele>450</ele>
        <time>2021-09-11T09:28:27.216Z</time>
      </trkpt>
      <trkpt lat="45.85279" lon="6.14757">
        <ele>450</ele>
        <time>2021-09-11T09:28:28.215Z</time>
      </trkpt>
      <trkpt lat="45.85284" lon="6.14753">
        <ele>450</ele>
        <time>2021-09-11T09:28:29.216Z</time>
      </trkpt>
      <trkpt lat="45.85288" lon="6.14749">
        <ele>450</ele>
        <time>2021-09-11T09:28:30.216Z</time>
      </trkpt>
      <trkpt lat="45.85292" lon="6.14745">
        <ele>450</ele>
        <time>2021-09-11T09:28:31.216Z</time>
      </trkpt>
      <trkpt lat="45.85295" lon="6.14742">
        <ele>450</ele>
        <time>2021-09-11T09:28:32.215Z</time>
      </trkpt>
      <trkpt lat="45.85299" lon="6.14738">
        <ele>450</ele>
        <time>2021-09-11T09:28:33.216Z</time>
      </trkpt>
      <trkpt lat="45.85302" lon="6.14735">
        <ele>450</ele>
        <time>2021-09-11T09:28:34.216Z</time>
      </trkpt>
      <trkpt lat="45.85307" lon="6.14731">
        <ele>450</ele>
        <time>2021-09-11T09:28:35.216Z</time>
      </trkpt>
      <trkpt lat="45.8531" lon="6.14728">
        <ele>450</ele>
        <time>2021-09-11T09:28:36.216Z</time>
      </trkpt>
      <trkpt lat="45.85313" lon="6.14724">
        <ele>450</ele>
        <time>2021-09-11T09:28:37.216Z</time>
      </trkpt>
      <trkpt lat="45.85318" lon="6.1472">
        <ele>449</ele>
        <time>2021-09-11T09:28:38.215Z</time>
      </trkpt>
      <trkpt lat="45.85322" lon="6.14717">
        <ele>449</ele>
        <time>2021-09-11T09:28:39.215Z</time>
      </trkpt>
      <trkpt lat="45.85326" lon="6.14713">
        <ele>449</ele>
        <time>2021-09-11T09:28:40.216Z</time>
      </trkpt>
      <trkpt lat="45.85329" lon="6.1471">
        <ele>449</ele>
        <time>2021-09-11T09:28:41.216Z</time>
      </trkpt>
      <trkpt lat="45.85334" lon="6.14706">
        <ele>449</ele>
        <time>2021-09-11T09:28:42.216Z</time>
      </trkpt>
      <trkpt lat="45.85337" lon="6.14703">
        <ele>449</ele>
        <time>2021-09-11T09:28:43.216Z</time>
      </trkpt>
      <trkpt lat="45.85341" lon="6.14699">
        <ele>449</ele>
        <time>2021-09-11T09:28:44.216Z</time>
      </trkpt>
      <trkpt lat="45.85344" lon="6.14696">
        <ele>448</ele>
        <time>2021-09-11T09:28:45.216Z</time>
      </trkpt>
      <trkpt lat="45.85348" lon="6.14692">
        <ele>448</ele>
        <time>2021-09-11T09:28:46.215Z</time>
      </trkpt>
      <trkpt lat="45.85352" lon="6.14689">
        <ele>448</ele>
        <time>2021-09-11T09:28:47.215Z</time>
      </trkpt>
      <trkpt lat="45.85357" lon="6.14686">
        <ele>448</ele>
        <time>2021-09-11T09:28:48.216Z</time>
      </trkpt>
      <trkpt lat="45.85361" lon="6.14683">
        <ele>448</ele>
        <time>2021-09-11T09:28:49.216Z</time>
      </trkpt>
      <trkpt lat="45.85364" lon="6.1468">
        <ele>448</ele>
        <time>2021-09-11T09:28:50.216Z</time>
      </trkpt>
      <trkpt lat="45.85368" lon="6.14678">
        <ele>448</ele>
        <time>2021-09-11T09:28:51.216Z</time>
      </trkpt>
      <trkpt lat="45.85372" lon="6.14675">
        <ele>448</ele>
        <time>2021-09-11T09:28:52.216Z</time>
      </trkpt>
      <trkpt lat="45.85377" lon="6.14672">
        <ele>448</ele>
        <time>2021-09-11T09:28:53.216Z</time>
      </trkpt>
      <trkpt lat="45.8538" lon="6.1467">
        <ele>448</ele>
        <time>2021-09-11T09:28:54.216Z</time>
      </trkpt>
      <trkpt lat="45.85384" lon="6.14668">
        <ele>448</ele>
        <time>2021-09-11T09:28:55.215Z</time>
      </trkpt>
      <trkpt lat="45.85388" lon="6.14665">
        <ele>448</ele>
        <time>2021-09-11T09:28:56.216Z</time>
      </trkpt>
      <trkpt lat="45.85391" lon="6.14663">
        <ele>448</ele>
        <time>2021-09-11T09:28:57.216Z</time>
      </trkpt>
      <trkpt lat="45.85395" lon="6.14661">
        <ele>448</ele>
        <time>2021-09-11T09:28:58.215Z</time>
      </trkpt>
      <trkpt lat="45.85399" lon="6.1466">
        <ele>448</ele>
        <time>2021-09-11T09:28:59.216Z</time>
      </trkpt>
      <trkpt lat="45.85402" lon="6.14658">
        <ele>448</ele>
        <time>2021-09-11T09:29:00.216Z</time>
      </trkpt>
      <trkpt lat="45.85406" lon="6.14656">
        <ele>448</ele>
        <time>2021-09-11T09:29:01.216Z</time>
      </trkpt>
      <trkpt lat="45.85409" lon="6.14655">
        <ele>448</ele>
        <time>2021-09-11T09:29:02.216Z</time>
      </trkpt>
      <trkpt lat="45.85412" lon="6.14653">
        <ele>448</ele>
        <time>2021-09-11T09:29:03.216Z</time>
      </trkpt>
      <trkpt lat="45.85416" lon="6.14651">
        <ele>449</ele>
        <time>2021-09-11T09:29:04.216Z</time>
      </trkpt>
      <trkpt lat="45.8542" lon="6.14649">
        <ele>449</ele>
        <time>2021-09-11T09:29:05.216Z</time>
      </trkpt>
      <trkpt lat="45.85424" lon="6.14648">
        <ele>449</ele>
        <time>2021-09-11T09:29:06.215Z</time>
      </trkpt>
      <trkpt lat="45.85427" lon="6.14647">
        <ele>449</ele>
        <time>2021-09-11T09:29:07.216Z</time>
      </trkpt>
      <trkpt lat="45.85431" lon="6.14646">
        <ele>448</ele>
        <time>2021-09-11T09:29:08.216Z</time>
      </trkpt>
      <trkpt lat="45.85434" lon="6.14645">
        <ele>448</ele>
        <time>2021-09-11T09:29:09.216Z</time>
      </trkpt>
      <trkpt lat="45.85438" lon="6.14644">
        <ele>449</ele>
        <time>2021-09-11T09:29:10.216Z</time>
      </trkpt>
      <trkpt lat="45.85443" lon="6.14643">
        <ele>448</ele>
        <time>2021-09-11T09:29:11.216Z</time>
      </trkpt>
      <trkpt lat="45.85447" lon="6.14642">
        <ele>448</ele>
        <time>2021-09-11T09:29:12.216Z</time>
      </trkpt>
      <trkpt lat="45.85452" lon="6.14642">
        <ele>448</ele>
        <time>2021-09-11T09:29:13.216Z</time>
      </trkpt>
      <trkpt lat="45.85457" lon="6.14641">
        <ele>448</ele>
        <time>2021-09-11T09:29:14.216Z</time>
      </trkpt>
      <trkpt lat="45.85463" lon="6.1464">
        <ele>448</ele>
        <time>2021-09-11T09:29:15.215Z</time>
      </trkpt>
      <trkpt lat="45.85468" lon="6.1464">
        <ele>448</ele>
        <time>2021-09-11T09:29:16.216Z</time>
      </trkpt>
      <trkpt lat="45.85474" lon="6.14639">
        <ele>448</ele>
        <time>2021-09-11T09:29:17.216Z</time>
      </trkpt>
      <trkpt lat="45.85479" lon="6.14639">
        <ele>448</ele>
        <time>2021-09-11T09:29:18.216Z</time>
      </trkpt>
      <trkpt lat="45.85485" lon="6.14638">
        <ele>448</ele>
        <time>2021-09-11T09:29:19.216Z</time>
      </trkpt>
      <trkpt lat="45.8549" lon="6.14638">
        <ele>448</ele>
        <time>2021-09-11T09:29:20.216Z</time>
      </trkpt>
      <trkpt lat="45.85495" lon="6.14638">
        <ele>448</ele>
        <time>2021-09-11T09:29:21.216Z</time>
      </trkpt>
      <trkpt lat="45.855" lon="6.14637">
        <ele>448</ele>
        <time>2021-09-11T09:29:22.216Z</time>
      </trkpt>
      <trkpt lat="45.85504" lon="6.14637">
        <ele>448</ele>
        <time>2021-09-11T09:29:23.216Z</time>
      </trkpt>
      <trkpt lat="45.85509" lon="6.14637">
        <ele>448</ele>
        <time>2021-09-11T09:29:24.216Z</time>
      </trkpt>
      <trkpt lat="45.85514" lon="6.14636">
        <ele>448</ele>
        <time>2021-09-11T09:29:25.216Z</time>
      </trkpt>
      <trkpt lat="45.85518" lon="6.14636">
        <ele>448</ele>
        <time>2021-09-11T09:29:26.216Z</time>
      </trkpt>
      <trkpt lat="45.85523" lon="6.14635">
        <ele>448</ele>
        <time>2021-09-11T09:29:27.216Z</time>
      </trkpt>
      <trkpt lat="45.85528" lon="6.14635">
        <ele>449</ele>
        <time>2021-09-11T09:29:28.215Z</time>
      </trkpt>
      <trkpt lat="45.85533" lon="6.14634">
        <ele>449</ele>
        <time>2021-09-11T09:29:29.216Z</time>
      </trkpt>
      <trkpt lat="45.85537" lon="6.14634">
        <ele>449</ele>
        <time>2021-09-11T09:29:30.216Z</time>
      </trkpt>
      <trkpt lat="45.85542" lon="6.14633">
        <ele>450</ele>
        <time>2021-09-11T09:29:31.216Z</time>
      </trkpt>
      <trkpt lat="45.85547" lon="6.14633">
        <ele>450</ele>
        <time>2021-09-11T09:29:32.216Z</time>
      </trkpt>
      <trkpt lat="45.85551" lon="6.14633">
        <ele>450</ele>
        <time>2021-09-11T09:29:33.216Z</time>
      </trkpt>
      <trkpt lat="45.85555" lon="6.14632">
        <ele>450</ele>
        <time>2021-09-11T09:29:34.216Z</time>
      </trkpt>
      <trkpt lat="45.8556" lon="6.14631">
        <ele>450</ele>
        <time>2021-09-11T09:29:35.216Z</time>
      </trkpt>
      <trkpt lat="45.85564" lon="6.14631">
        <ele>449</ele>
        <time>2021-09-11T09:29:36.215Z</time>
      </trkpt>
      <trkpt lat="45.85568" lon="6.1463">
        <ele>449</ele>
        <time>2021-09-11T09:29:37.215Z</time>
      </trkpt>
      <trkpt lat="45.85573" lon="6.14629">
        <ele>449</ele>
        <time>2021-09-11T09:29:38.216Z</time>
      </trkpt>
      <trkpt lat="45.85577" lon="6.14628">
        <ele>449</ele>
        <time>2021-09-11T09:29:39.216Z</time>
      </trkpt>
      <trkpt lat="45.85582" lon="6.14627">
        <ele>450</ele>
        <time>2021-09-11T09:29:40.216Z</time>
      </trkpt>
      <trkpt lat="45.85586" lon="6.14625">
        <ele>450</ele>
        <time>2021-09-11T09:29:41.216Z</time>
      </trkpt>
      <trkpt lat="45.8559" lon="6.14624">
        <ele>450</ele>
        <time>2021-09-11T09:29:42.216Z</time>
      </trkpt>
      <trkpt lat="45.85594" lon="6.14623">
        <ele>450</ele>
        <time>2021-09-11T09:29:43.216Z</time>
      </trkpt>
      <trkpt lat="45.85598" lon="6.14622">
        <ele>450</ele>
        <time>2021-09-11T09:29:44.216Z</time>
      </trkpt>
      <trkpt lat="45.85602" lon="6.14621">
        <ele>450</ele>
        <time>2021-09-11T09:29:45.216Z</time>
      </trkpt>
      <trkpt lat="45.85606" lon="6.14619">
        <ele>450</ele>
        <time>2021-09-11T09:29:46.216Z</time>
      </trkpt>
      <trkpt lat="45.8561" lon="6.14618">
        <ele>450</ele>
        <time>2021-09-11T09:29:47.215Z</time>
      </trkpt>
      <trkpt lat="45.85614" lon="6.14616">
        <ele>450</ele>
        <time>2021-09-11T09:29:48.216Z</time>
      </trkpt>
      <trkpt lat="45.85619" lon="6.14614">
        <ele>450</ele>
        <time>2021-09-11T09:29:49.215Z</time>
      </trkpt>
      <trkpt lat="45.85623" lon="6.14612">
        <ele>450</ele>
        <time>2021-09-11T09:29:50.216Z</time>
      </trkpt>
      <trkpt lat="45.85627" lon="6.1461">
        <ele>450</ele>
        <time>2021-09-11T09:29:51.216Z</time>
      </trkpt>
      <trkpt lat="45.85632" lon="6.14607">
        <ele>450</ele>
        <time>2021-09-11T09:29:52.216Z</time>
      </trkpt>
      <trkpt lat="45.85636" lon="6.14605">
        <ele>450</ele>
        <time>2021-09-11T09:29:53.215Z</time>
      </trkpt>
      <trkpt lat="45.85641" lon="6.14602">
        <ele>449</ele>
        <time>2021-09-11T09:29:54.216Z</time>
      </trkpt>
      <trkpt lat="45.85645" lon="6.14599">
        <ele>449</ele>
        <time>2021-09-11T09:29:55.216Z</time>
      </trkpt>
      <trkpt lat="45.8565" lon="6.14597">
        <ele>449</ele>
        <time>2021-09-11T09:29:56.216Z</time>
      </trkpt>
      <trkpt lat="45.85654" lon="6.14594">
        <ele>450</ele>
        <time>2021-09-11T09:29:57.215Z</time>
      </trkpt>
      <trkpt lat="45.85659" lon="6.14591">
        <ele>449</ele>
        <time>2021-09-11T09:29:58.215Z</time>
      </trkpt>
      <trkpt lat="45.85664" lon="6.14588">
        <ele>450</ele>
        <time>2021-09-11T09:29:59.216Z</time>
      </trkpt>
      <trkpt lat="45.85667" lon="6.14585">
        <ele>450</ele>
        <time>2021-09-11T09:30:00.216Z</time>
      </trkpt>
      <trkpt lat="45.85672" lon="6.14581">
        <ele>450</ele>
        <time>2021-09-11T09:30:01.215Z</time>
      </trkpt>
      <trkpt lat="45.85676" lon="6.14578">
        <ele>450</ele>
        <time>2021-09-11T09:30:02.216Z</time>
      </trkpt>
      <trkpt lat="45.8568" lon="6.14574">
        <ele>450</ele>
        <time>2021-09-11T09:30:03.215Z</time>
      </trkpt>
      <trkpt lat="45.85685" lon="6.14569">
        <ele>450</ele>
        <time>2021-09-11T09:30:04.216Z</time>
      </trkpt>
      <trkpt lat="45.85688" lon="6.14565">
        <ele>450</ele>
        <time>2021-09-11T09:30:05.215Z</time>
      </trkpt>
      <trkpt lat="45.85691" lon="6.14561">
        <ele>450</ele>
        <time>2021-09-11T09:30:06.216Z</time>
      </trkpt>
      <trkpt lat="45.85695" lon="6.14556">
        <ele>450</ele>
        <time>2021-09-11T09:30:07.216Z</time>
      </trkpt>
      <trkpt lat="45.85699" lon="6.14552">
        <ele>450</ele>
        <time>2021-09-11T09:30:08.216Z</time>
      </trkpt>
      <trkpt lat="45.85703" lon="6.14547">
        <ele>450</ele>
        <time>2021-09-11T09:30:09.216Z</time>
      </trkpt>
      <trkpt lat="45.85707" lon="6.14543">
        <ele>450</ele>
        <time>2021-09-11T09:30:10.216Z</time>
      </trkpt>
      <trkpt lat="45.8571" lon="6.14538">
        <ele>449</ele>
        <time>2021-09-11T09:30:11.216Z</time>
      </trkpt>
      <trkpt lat="45.85714" lon="6.14533">
        <ele>449</ele>
        <time>2021-09-11T09:30:12.216Z</time>
      </trkpt>
      <trkpt lat="45.85719" lon="6.14528">
        <ele>449</ele>
        <time>2021-09-11T09:30:13.216Z</time>
      </trkpt>
      <trkpt lat="45.85723" lon="6.14523">
        <ele>448</ele>
        <time>2021-09-11T09:30:14.216Z</time>
      </trkpt>
      <trkpt lat="45.85726" lon="6.14518">
        <ele>448</ele>
        <time>2021-09-11T09:30:15.216Z</time>
      </trkpt>
      <trkpt lat="45.8573" lon="6.14512">
        <ele>448</ele>
        <time>2021-09-11T09:30:16.216Z</time>
      </trkpt>
      <trkpt lat="45.85735" lon="6.14505">
        <ele>448</ele>
        <time>2021-09-11T09:30:17.216Z</time>
      </trkpt>
      <trkpt lat="45.85739" lon="6.14499">
        <ele>448</ele>
        <time>2021-09-11T09:30:18.216Z</time>
      </trkpt>
      <trkpt lat="45.85742" lon="6.14495">
        <ele>448</ele>
        <time>2021-09-11T09:30:19.216Z</time>
      </trkpt>
      <trkpt lat="45.85746" lon="6.14489">
        <ele>448</ele>
        <time>2021-09-11T09:30:20.215Z</time>
      </trkpt>
      <trkpt lat="45.85749" lon="6.14483">
        <ele>448</ele>
        <time>2021-09-11T09:30:21.216Z</time>
      </trkpt>
      <trkpt lat="45.85753" lon="6.14476">
        <ele>448</ele>
        <time>2021-09-11T09:30:22.216Z</time>
      </trkpt>
      <trkpt lat="45.85758" lon="6.14469">
        <ele>448</ele>
        <time>2021-09-11T09:30:23.215Z</time>
      </trkpt>
      <trkpt lat="45.85761" lon="6.14462">
        <ele>447</ele>
        <time>2021-09-11T09:30:24.216Z</time>
      </trkpt>
      <trkpt lat="45.85764" lon="6.14457">
        <ele>447</ele>
        <time>2021-09-11T09:30:25.215Z</time>
      </trkpt>
      <trkpt lat="45.85768" lon="6.1445">
        <ele>447</ele>
        <time>2021-09-11T09:30:26.215Z</time>
      </trkpt>
      <trkpt lat="45.85772" lon="6.14442">
        <ele>447</ele>
        <time>2021-09-11T09:30:27.215Z</time>
      </trkpt>
      <trkpt lat="45.85776" lon="6.14437">
        <ele>447</ele>
        <time>2021-09-11T09:30:28.216Z</time>
      </trkpt>
      <trkpt lat="45.85779" lon="6.14431">
        <ele>447</ele>
        <time>2021-09-11T09:30:29.216Z</time>
      </trkpt>
      <trkpt lat="45.85783" lon="6.14424">
        <ele>447</ele>
        <time>2021-09-11T09:30:30.216Z</time>
      </trkpt>
      <trkpt lat="45.85787" lon="6.14418">
        <ele>447</ele>
        <time>2021-09-11T09:30:31.216Z</time>
      </trkpt>
      <trkpt lat="45.8579" lon="6.14411">
        <ele>448</ele>
        <time>2021-09-11T09:30:32.216Z</time>
      </trkpt>
      <trkpt lat="45.85793" lon="6.14404">
        <ele>448</ele>
        <time>2021-09-11T09:30:33.215Z</time>
      </trkpt>
      <trkpt lat="45.85797" lon="6.14398">
        <ele>448</ele>
        <time>2021-09-11T09:30:34.215Z</time>
      </trkpt>
      <trkpt lat="45.85801" lon="6.14392">
        <ele>448</ele>
        <time>2021-09-11T09:30:35.216Z</time>
      </trkpt>
      <trkpt lat="45.85805" lon="6.14386">
        <ele>449</ele>
        <time>2021-09-11T09:30:36.216Z</time>
      </trkpt>
      <trkpt lat="45.85809" lon="6.1438">
        <ele>449</ele>
        <time>2021-09-11T09:30:37.216Z</time>
      </trkpt>
      <trkpt lat="45.85813" lon="6.14374">
        <ele>449</ele>
        <time>2021-09-11T09:30:38.216Z</time>
      </trkpt>
      <trkpt lat="45.85817" lon="6.14368">
        <ele>448</ele>
        <time>2021-09-11T09:30:39.216Z</time>
      </trkpt>
      <trkpt lat="45.85822" lon="6.14363">
        <ele>448</ele>
        <time>2021-09-11T09:30:40.216Z</time>
      </trkpt>
      <trkpt lat="45.85827" lon="6.14357">
        <ele>448</ele>
        <time>2021-09-11T09:30:41.216Z</time>
      </trkpt>
      <trkpt lat="45.85831" lon="6.14352">
        <ele>448</ele>
        <time>2021-09-11T09:30:42.216Z</time>
      </trkpt>
      <trkpt lat="45.85836" lon="6.14347">
        <ele>448</ele>
        <time>2021-09-11T09:30:43.216Z</time>
      </trkpt>
      <trkpt lat="45.85841" lon="6.14341">
        <ele>448</ele>
        <time>2021-09-11T09:30:44.215Z</time>
      </trkpt>
      <trkpt lat="45.85846" lon="6.14337">
        <ele>448</ele>
        <time>2021-09-11T09:30:45.216Z</time>
      </trkpt>
      <trkpt lat="45.8585" lon="6.14332">
        <ele>448</ele>
        <time>2021-09-11T09:30:46.216Z</time>
      </trkpt>
      <trkpt lat="45.85855" lon="6.14328">
        <ele>448</ele>
        <time>2021-09-11T09:30:47.216Z</time>
      </trkpt>
      <trkpt lat="45.85861" lon="6.14323">
        <ele>447</ele>
        <time>2021-09-11T09:30:48.215Z</time>
      </trkpt>
      <trkpt lat="45.85864" lon="6.1432">
        <ele>447</ele>
        <time>2021-09-11T09:30:49.216Z</time>
      </trkpt>
      <trkpt lat="45.8587" lon="6.14315">
        <ele>447</ele>
        <time>2021-09-11T09:30:50.216Z</time>
      </trkpt>
      <trkpt lat="45.85875" lon="6.14312">
        <ele>447</ele>
        <time>2021-09-11T09:30:51.215Z</time>
      </trkpt>
      <trkpt lat="45.85879" lon="6.14309">
        <ele>447</ele>
        <time>2021-09-11T09:30:52.216Z</time>
      </trkpt>
      <trkpt lat="45.85884" lon="6.14305">
        <ele>447</ele>
        <time>2021-09-11T09:30:53.216Z</time>
      </trkpt>
      <trkpt lat="45.85889" lon="6.14302">
        <ele>447</ele>
        <time>2021-09-11T09:30:54.216Z</time>
      </trkpt>
      <trkpt lat="45.85894" lon="6.143">
        <ele>447</ele>
        <time>2021-09-11T09:30:55.216Z</time>
      </trkpt>
      <trkpt lat="45.85899" lon="6.14298">
        <ele>447</ele>
        <time>2021-09-11T09:30:56.215Z</time>
      </trkpt>
      <trkpt lat="45.85904" lon="6.14296">
        <ele>447</ele>
        <time>2021-09-11T09:30:57.216Z</time>
      </trkpt>
      <trkpt lat="45.85908" lon="6.14294">
        <ele>446</ele>
        <time>2021-09-11T09:30:58.215Z</time>
      </trkpt>
      <trkpt lat="45.85912" lon="6.14293">
        <ele>446</ele>
        <time>2021-09-11T09:30:59.216Z</time>
      </trkpt>
      <trkpt lat="45.85915" lon="6.14292">
        <ele>446</ele>
        <time>2021-09-11T09:31:00.215Z</time>
      </trkpt>
      <trkpt lat="45.85919" lon="6.1429">
        <ele>446</ele>
        <time>2021-09-11T09:31:01.215Z</time>
      </trkpt>
      <trkpt lat="45.85921" lon="6.14289">
        <ele>446</ele>
        <time>2021-09-11T09:31:02.216Z</time>
      </trkpt>
      <trkpt lat="45.85923" lon="6.14289">
        <ele>446</ele>
        <time>2021-09-11T09:31:03.216Z</time>
      </trkpt>
      <trkpt lat="45.85926" lon="6.1429">
        <ele>446</ele>
        <time>2021-09-11T09:31:04.216Z</time>
      </trkpt>
      <trkpt lat="45.85928" lon="6.1429">
        <ele>446</ele>
        <time>2021-09-11T09:31:05.216Z</time>
      </trkpt>
      <trkpt lat="45.85931" lon="6.1429">
        <ele>446</ele>
        <time>2021-09-11T09:31:06.215Z</time>
      </trkpt>
      <trkpt lat="45.85933" lon="6.14289">
        <ele>446</ele>
        <time>2021-09-11T09:31:07.216Z</time>
      </trkpt>
      <trkpt lat="45.85934" lon="6.14289">
        <ele>446</ele>
        <time>2021-09-11T09:31:08.215Z</time>
      </trkpt>
      <trkpt lat="45.85936" lon="6.14288">
        <ele>446</ele>
        <time>2021-09-11T09:31:09.216Z</time>
      </trkpt>
      <trkpt lat="45.85937" lon="6.14288">
        <ele>446</ele>
        <time>2021-09-11T09:31:10.216Z</time>
      </trkpt>
      <trkpt lat="45.85938" lon="6.14288">
        <ele>446</ele>
        <time>2021-09-11T09:31:11.215Z</time>
      </trkpt>
      <trkpt lat="45.85939" lon="6.14288">
        <ele>446</ele>
        <time>2021-09-11T09:31:12.216Z</time>
      </trkpt>
      <trkpt lat="45.85939" lon="6.14288">
        <ele>447</ele>
        <time>2021-09-11T09:31:13.216Z</time>
      </trkpt>
      <trkpt lat="45.85937" lon="6.14299">
        <ele>439</ele>
        <time>2021-09-11T09:31:14.216Z</time>
      </trkpt>
      <trkpt lat="45.85937" lon="6.14305">
        <ele>440</ele>
        <time>2021-09-11T09:31:15.215Z</time>
      </trkpt>
      <trkpt lat="45.85937" lon="6.1431">
        <ele>440</ele>
        <time>2021-09-11T09:31:16.215Z</time>
      </trkpt>
      <trkpt lat="45.85937" lon="6.14315">
        <ele>440</ele>
        <time>2021-09-11T09:31:17.215Z</time>
      </trkpt>
      <trkpt lat="45.85938" lon="6.1432">
        <ele>441</ele>
        <time>2021-09-11T09:31:18.216Z</time>
      </trkpt>
      <trkpt lat="45.85938" lon="6.14324">
        <ele>441</ele>
        <time>2021-09-11T09:31:19.216Z</time>
      </trkpt>
      <trkpt lat="45.85938" lon="6.14328">
        <ele>442</ele>
        <time>2021-09-11T09:31:20.216Z</time>
      </trkpt>
      <trkpt lat="45.85938" lon="6.14332">
        <ele>442</ele>
        <time>2021-09-11T09:31:21.216Z</time>
      </trkpt>
      <trkpt lat="45.85938" lon="6.14334">
        <ele>443</ele>
        <time>2021-09-11T09:31:22.216Z</time>
      </trkpt>
      <trkpt lat="45.85938" lon="6.14336">
        <ele>443</ele>
        <time>2021-09-11T09:31:23.216Z</time>
      </trkpt>
      <trkpt lat="45.85938" lon="6.14338">
        <ele>444</ele>
        <time>2021-09-11T09:31:24.215Z</time>
      </trkpt>
      <trkpt lat="45.85938" lon="6.1434">
        <ele>444</ele>
        <time>2021-09-11T09:31:25.216Z</time>
      </trkpt>
      <trkpt lat="45.85939" lon="6.14341">
        <ele>444</ele>
        <time>2021-09-11T09:31:26.216Z</time>
      </trkpt>
      <trkpt lat="45.85939" lon="6.14343">
        <ele>445</ele>
        <time>2021-09-11T09:31:27.215Z</time>
      </trkpt>
      <trkpt lat="45.85939" lon="6.14345">
        <ele>445</ele>
        <time>2021-09-11T09:31:28.216Z</time>
      </trkpt>
      <trkpt lat="45.8594" lon="6.14347">
        <ele>445</ele>
        <time>2021-09-11T09:31:29.216Z</time>
      </trkpt>
      <trkpt lat="45.8594" lon="6.14348">
        <ele>445</ele>
        <time>2021-09-11T09:31:30.216Z</time>
      </trkpt>
      <trkpt lat="45.85941" lon="6.1435">
        <ele>445</ele>
        <time>2021-09-11T09:31:31.216Z</time>
      </trkpt>
      <trkpt lat="45.85942" lon="6.14352">
        <ele>445</ele>
        <time>2021-09-11T09:31:32.216Z</time>
      </trkpt>
      <trkpt lat="45.85943" lon="6.14356">
        <ele>445</ele>
        <time>2021-09-11T09:31:33.216Z</time>
      </trkpt>
      <trkpt lat="45.85943" lon="6.14359">
        <ele>445</ele>
        <time>2021-09-11T09:31:34.216Z</time>
      </trkpt>
      <trkpt lat="45.85944" lon="6.14363">
        <ele>445</ele>
        <time>2021-09-11T09:31:35.216Z</time>
      </trkpt>
      <trkpt lat="45.85944" lon="6.14367">
        <ele>445</ele>
        <time>2021-09-11T09:31:36.216Z</time>
      </trkpt>
      <trkpt lat="45.85944" lon="6.14371">
        <ele>445</ele>
        <time>2021-09-11T09:31:37.216Z</time>
      </trkpt>
      <trkpt lat="45.85945" lon="6.14377">
        <ele>446</ele>
        <time>2021-09-11T09:31:38.215Z</time>
      </trkpt>
      <trkpt lat="45.85945" lon="6.1438">
        <ele>446</ele>
        <time>2021-09-11T09:31:39.216Z</time>
      </trkpt>
      <trkpt lat="45.85946" lon="6.14385">
        <ele>446</ele>
        <time>2021-09-11T09:31:40.216Z</time>
      </trkpt>
      <trkpt lat="45.85947" lon="6.14389">
        <ele>446</ele>
        <time>2021-09-11T09:31:41.215Z</time>
      </trkpt>
      <trkpt lat="45.85948" lon="6.14394">
        <ele>446</ele>
        <time>2021-09-11T09:31:42.216Z</time>
      </trkpt>
      <trkpt lat="45.85949" lon="6.14398">
        <ele>446</ele>
        <time>2021-09-11T09:31:43.216Z</time>
      </trkpt>
      <trkpt lat="45.8595" lon="6.14403">
        <ele>446</ele>
        <time>2021-09-11T09:31:44.216Z</time>
      </trkpt>
      <trkpt lat="45.85951" lon="6.14408">
        <ele>446</ele>
        <time>2021-09-11T09:31:45.216Z</time>
      </trkpt>
      <trkpt lat="45.85952" lon="6.14412">
        <ele>446</ele>
        <time>2021-09-11T09:31:46.215Z</time>
      </trkpt>
      <trkpt lat="45.85953" lon="6.14416">
        <ele>446</ele>
        <time>2021-09-11T09:31:47.215Z</time>
      </trkpt>
      <trkpt lat="45.85953" lon="6.14421">
        <ele>446</ele>
        <time>2021-09-11T09:31:48.216Z</time>
      </trkpt>
      <trkpt lat="45.85954" lon="6.14425">
        <ele>446</ele>
        <time>2021-09-11T09:31:49.216Z</time>
      </trkpt>
      <trkpt lat="45.85955" lon="6.14429">
        <ele>446</ele>
        <time>2021-09-11T09:31:50.216Z</time>
      </trkpt>
      <trkpt lat="45.85955" lon="6.14433">
        <ele>446</ele>
        <time>2021-09-11T09:31:51.215Z</time>
      </trkpt>
      <trkpt lat="45.85956" lon="6.14437">
        <ele>446</ele>
        <time>2021-09-11T09:31:52.216Z</time>
      </trkpt>
      <trkpt lat="45.85957" lon="6.14442">
        <ele>446</ele>
        <time>2021-09-11T09:31:53.216Z</time>
      </trkpt>
      <trkpt lat="45.85957" lon="6.14446">
        <ele>445</ele>
        <time>2021-09-11T09:31:54.216Z</time>
      </trkpt>
      <trkpt lat="45.85958" lon="6.1445">
        <ele>445</ele>
        <time>2021-09-11T09:31:55.216Z</time>
      </trkpt>
      <trkpt lat="45.85958" lon="6.14454">
        <ele>445</ele>
        <time>2021-09-11T09:31:56.216Z</time>
      </trkpt>
      <trkpt lat="45.85959" lon="6.14458">
        <ele>445</ele>
        <time>2021-09-11T09:31:57.216Z</time>
      </trkpt>
      <trkpt lat="45.8596" lon="6.14462">
        <ele>445</ele>
        <time>2021-09-11T09:31:58.216Z</time>
      </trkpt>
      <trkpt lat="45.85961" lon="6.14466">
        <ele>446</ele>
        <time>2021-09-11T09:31:59.216Z</time>
      </trkpt>
      <trkpt lat="45.85961" lon="6.14469">
        <ele>446</ele>
        <time>2021-09-11T09:32:00.216Z</time>
      </trkpt>
      <trkpt lat="45.85962" lon="6.14472">
        <ele>447</ele>
        <time>2021-09-11T09:32:01.215Z</time>
      </trkpt>
      <trkpt lat="45.85962" lon="6.14475">
        <ele>447</ele>
        <time>2021-09-11T09:32:02.216Z</time>
      </trkpt>
      <trkpt lat="45.85963" lon="6.14479">
        <ele>447</ele>
        <time>2021-09-11T09:32:03.215Z</time>
      </trkpt>
      <trkpt lat="45.85964" lon="6.14483">
        <ele>447</ele>
        <time>2021-09-11T09:32:04.215Z</time>
      </trkpt>
      <trkpt lat="45.85964" lon="6.14487">
        <ele>447</ele>
        <time>2021-09-11T09:32:05.216Z</time>
      </trkpt>
      <trkpt lat="45.85965" lon="6.1449">
        <ele>447</ele>
        <time>2021-09-11T09:32:06.216Z</time>
      </trkpt>
      <trkpt lat="45.85966" lon="6.14494">
        <ele>447</ele>
        <time>2021-09-11T09:32:07.216Z</time>
      </trkpt>
      <trkpt lat="45.85967" lon="6.14498">
        <ele>446</ele>
        <time>2021-09-11T09:32:08.216Z</time>
      </trkpt>
      <trkpt lat="45.85968" lon="6.14502">
        <ele>446</ele>
        <time>2021-09-11T09:32:09.215Z</time>
      </trkpt>
      <trkpt lat="45.85968" lon="6.14506">
        <ele>446</ele>
        <time>2021-09-11T09:32:10.215Z</time>
      </trkpt>
      <trkpt lat="45.85969" lon="6.1451">
        <ele>445</ele>
        <time>2021-09-11T09:32:11.216Z</time>
      </trkpt>
      <trkpt lat="45.8597" lon="6.14514">
        <ele>445</ele>
        <time>2021-09-11T09:32:12.216Z</time>
      </trkpt>
      <trkpt lat="45.85971" lon="6.14518">
        <ele>446</ele>
        <time>2021-09-11T09:32:13.215Z</time>
      </trkpt>
      <trkpt lat="45.85971" lon="6.14522">
        <ele>446</ele>
        <time>2021-09-11T09:32:14.216Z</time>
      </trkpt>
      <trkpt lat="45.85972" lon="6.14525">
        <ele>447</ele>
        <time>2021-09-11T09:32:15.216Z</time>
      </trkpt>
      <trkpt lat="45.85972" lon="6.14528">
        <ele>446</ele>
        <time>2021-09-11T09:32:16.215Z</time>
      </trkpt>
      <trkpt lat="45.85973" lon="6.14529">
        <ele>446</ele>
        <time>2021-09-11T09:32:17.216Z</time>
      </trkpt>
      <trkpt lat="45.85973" lon="6.1453">
        <ele>446</ele>
        <time>2021-09-11T09:32:18.215Z</time>
      </trkpt>
      <trkpt lat="45.85974" lon="6.1453">
        <ele>446</ele>
        <time>2021-09-11T09:32:19.216Z</time>
      </trkpt>
      <trkpt lat="45.85974" lon="6.1453">
        <ele>447</ele>
        <time>2021-09-11T09:32:20.215Z</time>
      </trkpt>
      <trkpt lat="45.85974" lon="6.1453">
        <ele>447</ele>
        <time>2021-09-11T09:32:21.216Z</time>
      </trkpt>
      <trkpt lat="45.85974" lon="6.1453">
        <ele>448</ele>
        <time>2021-09-11T09:32:22.215Z</time>
      </trkpt>
      <trkpt lat="45.85974" lon="6.14532">
        <ele>448</ele>
        <time>2021-09-11T09:32:23.215Z</time>
      </trkpt>
      <trkpt lat="45.85973" lon="6.14533">
        <ele>449</ele>
        <time>2021-09-11T09:32:24.215Z</time>
      </trkpt>
      <trkpt lat="45.85973" lon="6.14535">
        <ele>449</ele>
        <time>2021-09-11T09:32:25.216Z</time>
      </trkpt>
      <trkpt lat="45.85973" lon="6.14537">
        <ele>449</ele>
        <time>2021-09-11T09:32:26.216Z</time>
      </trkpt>
      <trkpt lat="45.85973" lon="6.14538">
        <ele>449</ele>
        <time>2021-09-11T09:32:27.216Z</time>
      </trkpt>
      <trkpt lat="45.85973" lon="6.14539">
        <ele>449</ele>
        <time>2021-09-11T09:32:28.216Z</time>
      </trkpt>
      <trkpt lat="45.85974" lon="6.1454">
        <ele>449</ele>
        <time>2021-09-11T09:32:29.216Z</time>
      </trkpt>
      <trkpt lat="45.85974" lon="6.14542">
        <ele>448</ele>
        <time>2021-09-11T09:32:30.216Z</time>
      </trkpt>
      <trkpt lat="45.85974" lon="6.14543">
        <ele>448</ele>
        <time>2021-09-11T09:32:31.215Z</time>
      </trkpt>
      <trkpt lat="45.85975" lon="6.14544">
        <ele>447</ele>
        <time>2021-09-11T09:32:32.216Z</time>
      </trkpt>
      <trkpt lat="45.85975" lon="6.14546">
        <ele>447</ele>
        <time>2021-09-11T09:32:33.216Z</time>
      </trkpt>
      <trkpt lat="45.85975" lon="6.14547">
        <ele>447</ele>
        <time>2021-09-11T09:32:34.215Z</time>
      </trkpt>
      <trkpt lat="45.85975" lon="6.14548">
        <ele>447</ele>
        <time>2021-09-11T09:32:35.216Z</time>
      </trkpt>
      <trkpt lat="45.85975" lon="6.14549">
        <ele>446</ele>
        <time>2021-09-11T09:32:36.216Z</time>
      </trkpt>
      <trkpt lat="45.85976" lon="6.1455">
        <ele>446</ele>
        <time>2021-09-11T09:32:37.215Z</time>
      </trkpt>
      <trkpt lat="45.85976" lon="6.14552">
        <ele>446</ele>
        <time>2021-09-11T09:32:38.215Z</time>
      </trkpt>
      <trkpt lat="45.85976" lon="6.14553">
        <ele>446</ele>
        <time>2021-09-11T09:32:39.216Z</time>
      </trkpt>
      <trkpt lat="45.85976" lon="6.14554">
        <ele>446</ele>
        <time>2021-09-11T09:32:40.216Z</time>
      </trkpt>
      <trkpt lat="45.85976" lon="6.14555">
        <ele>446</ele>
        <time>2021-09-11T09:32:41.216Z</time>
      </trkpt>
      <trkpt lat="45.85976" lon="6.14557">
        <ele>446</ele>
        <time>2021-09-11T09:32:42.216Z</time>
      </trkpt>
      <trkpt lat="45.85977" lon="6.14558">
        <ele>445</ele>
        <time>2021-09-11T09:32:43.216Z</time>
      </trkpt>
      <trkpt lat="45.85977" lon="6.1456">
        <ele>445</ele>
        <time>2021-09-11T09:32:44.216Z</time>
      </trkpt>
      <trkpt lat="45.85977" lon="6.14561">
        <ele>445</ele>
        <time>2021-09-11T09:32:45.216Z</time>
      </trkpt>
      <trkpt lat="45.85977" lon="6.14562">
        <ele>444</ele>
        <time>2021-09-11T09:32:46.216Z</time>
      </trkpt>
      <trkpt lat="45.85977" lon="6.14563">
        <ele>443</ele>
        <time>2021-09-11T09:32:47.216Z</time>
      </trkpt>
      <trkpt lat="45.85978" lon="6.14564">
        <ele>443</ele>
        <time>2021-09-11T09:32:48.216Z</time>
      </trkpt>
      <trkpt lat="45.85977" lon="6.14566">
        <ele>443</ele>
        <time>2021-09-11T09:32:49.216Z</time>
      </trkpt>
      <trkpt lat="45.85977" lon="6.14566">
        <ele>443</ele>
        <time>2021-09-11T09:32:50.216Z</time>
      </trkpt>
      <trkpt lat="45.85977" lon="6.14567">
        <ele>443</ele>
        <time>2021-09-11T09:32:51.216Z</time>
      </trkpt>
      <trkpt lat="45.85977" lon="6.14567">
        <ele>443</ele>
        <time>2021-09-11T09:32:52.216Z</time>
      </trkpt>
      <trkpt lat="45.85977" lon="6.14568">
        <ele>443</ele>
        <time>2021-09-11T09:32:53.216Z</time>
      </trkpt>
      <trkpt lat="45.85977" lon="6.14567">
        <ele>445</ele>
        <time>2021-09-11T09:32:54.217Z</time>
      </trkpt>
      <trkpt lat="45.85977" lon="6.14566">
        <ele>445</ele>
        <time>2021-09-11T09:32:55.217Z</time>
      </trkpt>
      <trkpt lat="45.85977" lon="6.14565">
        <ele>445</ele>
        <time>2021-09-11T09:32:56.216Z</time>
      </trkpt>
      <trkpt lat="45.85977" lon="6.14564">
        <ele>445</ele>
        <time>2021-09-11T09:32:57.217Z</time>
      </trkpt>
      <trkpt lat="45.85978" lon="6.14567">
        <ele>448</ele>
        <time>2021-09-11T09:32:58.217Z</time>
      </trkpt>
      <trkpt lat="45.85978" lon="6.14567">
        <ele>448</ele>
        <time>2021-09-11T09:32:59.218Z</time>
      </trkpt>
      <trkpt lat="45.85978" lon="6.14567">
        <ele>448</ele>
        <time>2021-09-11T09:33:00.218Z</time>
      </trkpt>
      <trkpt lat="45.85978" lon="6.14567">
        <ele>448</ele>
        <time>2021-09-11T09:33:01.218Z</time>
      </trkpt>
      <trkpt lat="45.85978" lon="6.14567">
        <ele>448</ele>
        <time>2021-09-11T09:33:02.217Z</time>
      </trkpt>
      <trkpt lat="45.85978" lon="6.14567">
        <ele>448</ele>
        <time>2021-09-11T09:33:03.218Z</time>
      </trkpt>
      <trkpt lat="45.85978" lon="6.14567">
        <ele>448</ele>
        <time>2021-09-11T09:33:04.217Z</time>
      </trkpt>
      <trkpt lat="45.85978" lon="6.14567">
        <ele>448</ele>
        <time>2021-09-11T09:33:05.217Z</time>
      </trkpt>
      <trkpt lat="45.85978" lon="6.14567">
        <ele>448</ele>
        <time>2021-09-11T09:33:06.218Z</time>
      </trkpt>
      <trkpt lat="45.85978" lon="6.14567">
        <ele>448</ele>
        <time>2021-09-11T09:33:07.217Z</time>
      </trkpt>
      <trkpt lat="45.85978" lon="6.14567">
        <ele>448</ele>
        <time>2021-09-11T09:33:08.217Z</time>
      </trkpt>
      <trkpt lat="45.85978" lon="6.14567">
        <ele>448</ele>
        <time>2021-09-11T09:33:09.218Z</time>
      </trkpt>
      <trkpt lat="45.85978" lon="6.14566">
        <ele>448</ele>
        <time>2021-09-11T09:33:10.218Z</time>
      </trkpt>
      <trkpt lat="45.85977" lon="6.14565">
        <ele>448</ele>
        <time>2021-09-11T09:33:11.218Z</time>
      </trkpt>
      <trkpt lat="45.85977" lon="6.14563">
        <ele>448</ele>
        <time>2021-09-11T09:33:12.218Z</time>
      </trkpt>
      <trkpt lat="45.85977" lon="6.14561">
        <ele>448</ele>
        <time>2021-09-11T09:33:13.218Z</time>
      </trkpt>
      <trkpt lat="45.85976" lon="6.14558">
        <ele>448</ele>
        <time>2021-09-11T09:33:14.217Z</time>
      </trkpt>
      <trkpt lat="45.85976" lon="6.14556">
        <ele>448</ele>
        <time>2021-09-11T09:33:15.218Z</time>
      </trkpt>
      <trkpt lat="45.85976" lon="6.14554">
        <ele>448</ele>
        <time>2021-09-11T09:33:16.218Z</time>
      </trkpt>
      <trkpt lat="45.85975" lon="6.14553">
        <ele>447</ele>
        <time>2021-09-11T09:33:17.218Z</time>
      </trkpt>
      <trkpt lat="45.85975" lon="6.1455">
        <ele>447</ele>
        <time>2021-09-11T09:33:18.218Z</time>
      </trkpt>
      <trkpt lat="45.85975" lon="6.14548">
        <ele>448</ele>
        <time>2021-09-11T09:33:19.218Z</time>
      </trkpt>
      <trkpt lat="45.85975" lon="6.14546">
        <ele>448</ele>
        <time>2021-09-11T09:33:20.218Z</time>
      </trkpt>
      <trkpt lat="45.85975" lon="6.14546">
        <ele>448</ele>
        <time>2021-09-11T09:33:21.218Z</time>
      </trkpt>
      <trkpt lat="45.85975" lon="6.14545">
        <ele>448</ele>
        <time>2021-09-11T09:33:22.218Z</time>
      </trkpt>
      <trkpt lat="45.85975" lon="6.14546">
        <ele>448</ele>
        <time>2021-09-11T09:33:23.217Z</time>
      </trkpt>
      <trkpt lat="45.85975" lon="6.14545">
        <ele>448</ele>
        <time>2021-09-11T09:33:24.218Z</time>
      </trkpt>
      <trkpt lat="45.85975" lon="6.14545">
        <ele>448</ele>
        <time>2021-09-11T09:33:25.217Z</time>
      </trkpt>
      <trkpt lat="45.85975" lon="6.14546">
        <ele>447</ele>
        <time>2021-09-11T09:33:26.218Z</time>
      </trkpt>
      <trkpt lat="45.85975" lon="6.14546">
        <ele>447</ele>
        <time>2021-09-11T09:33:27.218Z</time>
      </trkpt>
      <trkpt lat="45.85975" lon="6.14546">
        <ele>446</ele>
        <time>2021-09-11T09:33:28.217Z</time>
      </trkpt>
      <trkpt lat="45.85975" lon="6.14546">
        <ele>446</ele>
        <time>2021-09-11T09:33:29.218Z</time>
      </trkpt>
      <trkpt lat="45.85975" lon="6.14546">
        <ele>445</ele>
        <time>2021-09-11T09:33:30.218Z</time>
      </trkpt>
      <trkpt lat="45.85975" lon="6.14546">
        <ele>446</ele>
        <time>2021-09-11T09:33:31.218Z</time>
      </trkpt>
      <trkpt lat="45.85974" lon="6.14546">
        <ele>446</ele>
        <time>2021-09-11T09:33:32.218Z</time>
      </trkpt>
      <trkpt lat="45.85974" lon="6.14546">
        <ele>446</ele>
        <time>2021-09-11T09:33:33.218Z</time>
      </trkpt>
      <trkpt lat="45.85974" lon="6.14544">
        <ele>446</ele>
        <time>2021-09-11T09:33:34.218Z</time>
      </trkpt>
      <trkpt lat="45.85974" lon="6.14542">
        <ele>446</ele>
        <time>2021-09-11T09:33:35.217Z</time>
      </trkpt>
      <trkpt lat="45.85973" lon="6.14541">
        <ele>446</ele>
        <time>2021-09-11T09:33:36.218Z</time>
      </trkpt>
      <trkpt lat="45.85973" lon="6.14539">
        <ele>446</ele>
        <time>2021-09-11T09:33:37.218Z</time>
      </trkpt>
      <trkpt lat="45.85973" lon="6.14538">
        <ele>446</ele>
        <time>2021-09-11T09:33:38.217Z</time>
      </trkpt>
      <trkpt lat="45.85973" lon="6.14537">
        <ele>446</ele>
        <time>2021-09-11T09:33:39.218Z</time>
      </trkpt>
      <trkpt lat="45.85972" lon="6.14536">
        <ele>446</ele>
        <time>2021-09-11T09:33:40.218Z</time>
      </trkpt>
      <trkpt lat="45.85972" lon="6.14534">
        <ele>447</ele>
        <time>2021-09-11T09:33:41.218Z</time>
      </trkpt>
      <trkpt lat="45.85972" lon="6.14532">
        <ele>447</ele>
        <time>2021-09-11T09:33:42.217Z</time>
      </trkpt>
      <trkpt lat="45.85972" lon="6.14531">
        <ele>447</ele>
        <time>2021-09-11T09:33:43.218Z</time>
      </trkpt>
      <trkpt lat="45.85971" lon="6.14529">
        <ele>447</ele>
        <time>2021-09-11T09:33:44.217Z</time>
      </trkpt>
      <trkpt lat="45.85971" lon="6.14528">
        <ele>447</ele>
        <time>2021-09-11T09:33:45.218Z</time>
      </trkpt>
      <trkpt lat="45.85971" lon="6.14526">
        <ele>446</ele>
        <time>2021-09-11T09:33:46.218Z</time>
      </trkpt>
      <trkpt lat="45.85971" lon="6.14525">
        <ele>446</ele>
        <time>2021-09-11T09:33:47.217Z</time>
      </trkpt>
      <trkpt lat="45.8597" lon="6.14523">
        <ele>446</ele>
        <time>2021-09-11T09:33:48.218Z</time>
      </trkpt>
      <trkpt lat="45.8597" lon="6.14521">
        <ele>445</ele>
        <time>2021-09-11T09:33:49.218Z</time>
      </trkpt>
      <trkpt lat="45.8597" lon="6.1452">
        <ele>446</ele>
        <time>2021-09-11T09:33:50.218Z</time>
      </trkpt>
      <trkpt lat="45.85969" lon="6.14518">
        <ele>446</ele>
        <time>2021-09-11T09:33:51.217Z</time>
      </trkpt>
      <trkpt lat="45.85969" lon="6.14516">
        <ele>446</ele>
        <time>2021-09-11T09:33:52.218Z</time>
      </trkpt>
      <trkpt lat="45.85969" lon="6.14515">
        <ele>445</ele>
        <time>2021-09-11T09:33:53.218Z</time>
      </trkpt>
      <trkpt lat="45.85969" lon="6.14513">
        <ele>445</ele>
        <time>2021-09-11T09:33:54.218Z</time>
      </trkpt>
      <trkpt lat="45.85969" lon="6.14511">
        <ele>445</ele>
        <time>2021-09-11T09:33:55.218Z</time>
      </trkpt>
      <trkpt lat="45.85968" lon="6.1451">
        <ele>445</ele>
        <time>2021-09-11T09:33:56.218Z</time>
      </trkpt>
      <trkpt lat="45.85968" lon="6.14508">
        <ele>445</ele>
        <time>2021-09-11T09:33:57.218Z</time>
      </trkpt>
      <trkpt lat="45.85968" lon="6.14506">
        <ele>446</ele>
        <time>2021-09-11T09:33:58.218Z</time>
      </trkpt>
      <trkpt lat="45.85968" lon="6.14505">
        <ele>446</ele>
        <time>2021-09-11T09:33:59.218Z</time>
      </trkpt>
      <trkpt lat="45.85968" lon="6.14504">
        <ele>446</ele>
        <time>2021-09-11T09:34:00.218Z</time>
      </trkpt>
      <trkpt lat="45.85967" lon="6.14502">
        <ele>446</ele>
        <time>2021-09-11T09:34:01.218Z</time>
      </trkpt>
      <trkpt lat="45.85967" lon="6.145">
        <ele>446</ele>
        <time>2021-09-11T09:34:02.218Z</time>
      </trkpt>
      <trkpt lat="45.85967" lon="6.14499">
        <ele>446</ele>
        <time>2021-09-11T09:34:03.217Z</time>
      </trkpt>
      <trkpt lat="45.85967" lon="6.14497">
        <ele>446</ele>
        <time>2021-09-11T09:34:04.217Z</time>
      </trkpt>
      <trkpt lat="45.85967" lon="6.14495">
        <ele>446</ele>
        <time>2021-09-11T09:34:05.218Z</time>
      </trkpt>
      <trkpt lat="45.85967" lon="6.14494">
        <ele>446</ele>
        <time>2021-09-11T09:34:06.218Z</time>
      </trkpt>
      <trkpt lat="45.85966" lon="6.14493">
        <ele>446</ele>
        <time>2021-09-11T09:34:07.218Z</time>
      </trkpt>
      <trkpt lat="45.85966" lon="6.14491">
        <ele>446</ele>
        <time>2021-09-11T09:34:08.218Z</time>
      </trkpt>
      <trkpt lat="45.85966" lon="6.14489">
        <ele>446</ele>
        <time>2021-09-11T09:34:09.218Z</time>
      </trkpt>
      <trkpt lat="45.85965" lon="6.14487">
        <ele>446</ele>
        <time>2021-09-11T09:34:10.218Z</time>
      </trkpt>
      <trkpt lat="45.85965" lon="6.14486">
        <ele>446</ele>
        <time>2021-09-11T09:34:11.218Z</time>
      </trkpt>
      <trkpt lat="45.85965" lon="6.14484">
        <ele>446</ele>
        <time>2021-09-11T09:34:12.218Z</time>
      </trkpt>
      <trkpt lat="45.85964" lon="6.14483">
        <ele>446</ele>
        <time>2021-09-11T09:34:13.218Z</time>
      </trkpt>
      <trkpt lat="45.85964" lon="6.14481">
        <ele>446</ele>
        <time>2021-09-11T09:34:14.218Z</time>
      </trkpt>
      <trkpt lat="45.85964" lon="6.14479">
        <ele>446</ele>
        <time>2021-09-11T09:34:15.217Z</time>
      </trkpt>
      <trkpt lat="45.85963" lon="6.14478">
        <ele>446</ele>
        <time>2021-09-11T09:34:16.217Z</time>
      </trkpt>
      <trkpt lat="45.85963" lon="6.14476">
        <ele>446</ele>
        <time>2021-09-11T09:34:17.217Z</time>
      </trkpt>
      <trkpt lat="45.85963" lon="6.14475">
        <ele>445</ele>
        <time>2021-09-11T09:34:18.218Z</time>
      </trkpt>
      <trkpt lat="45.85962" lon="6.14473">
        <ele>445</ele>
        <time>2021-09-11T09:34:19.218Z</time>
      </trkpt>
      <trkpt lat="45.85962" lon="6.14472">
        <ele>445</ele>
        <time>2021-09-11T09:34:20.218Z</time>
      </trkpt>
      <trkpt lat="45.85962" lon="6.1447">
        <ele>445</ele>
        <time>2021-09-11T09:34:21.218Z</time>
      </trkpt>
      <trkpt lat="45.85962" lon="6.14469">
        <ele>445</ele>
        <time>2021-09-11T09:34:22.217Z</time>
      </trkpt>
      <trkpt lat="45.85962" lon="6.14469">
        <ele>446</ele>
        <time>2021-09-11T09:34:23.218Z</time>
      </trkpt>
      <trkpt lat="45.85961" lon="6.14469">
        <ele>446</ele>
        <time>2021-09-11T09:34:24.218Z</time>
      </trkpt>
      <trkpt lat="45.85961" lon="6.14468">
        <ele>446</ele>
        <time>2021-09-11T09:34:25.218Z</time>
      </trkpt>
      <trkpt lat="45.85961" lon="6.14468">
        <ele>446</ele>
        <time>2021-09-11T09:34:26.217Z</time>
      </trkpt>
      <trkpt lat="45.8596" lon="6.1446">
        <ele>448</ele>
        <time>2021-09-11T09:34:27.218Z</time>
      </trkpt>
      <trkpt lat="45.85959" lon="6.14456">
        <ele>448</ele>
        <time>2021-09-11T09:34:28.217Z</time>
      </trkpt>
      <trkpt lat="45.85958" lon="6.14451">
        <ele>447</ele>
        <time>2021-09-11T09:34:29.217Z</time>
      </trkpt>
      <trkpt lat="45.85958" lon="6.14447">
        <ele>447</ele>
        <time>2021-09-11T09:34:30.218Z</time>
      </trkpt>
      <trkpt lat="45.85957" lon="6.14442">
        <ele>447</ele>
        <time>2021-09-11T09:34:31.218Z</time>
      </trkpt>
      <trkpt lat="45.85956" lon="6.14437">
        <ele>447</ele>
        <time>2021-09-11T09:34:32.218Z</time>
      </trkpt>
      <trkpt lat="45.85955" lon="6.14432">
        <ele>447</ele>
        <time>2021-09-11T09:34:33.218Z</time>
      </trkpt>
      <trkpt lat="45.85955" lon="6.14426">
        <ele>447</ele>
        <time>2021-09-11T09:34:34.217Z</time>
      </trkpt>
      <trkpt lat="45.85954" lon="6.14421">
        <ele>446</ele>
        <time>2021-09-11T09:34:35.218Z</time>
      </trkpt>
      <trkpt lat="45.85953" lon="6.14416">
        <ele>446</ele>
        <time>2021-09-11T09:34:36.218Z</time>
      </trkpt>
      <trkpt lat="45.85952" lon="6.1441">
        <ele>446</ele>
        <time>2021-09-11T09:34:37.218Z</time>
      </trkpt>
      <trkpt lat="45.85951" lon="6.14405">
        <ele>446</ele>
        <time>2021-09-11T09:34:38.218Z</time>
      </trkpt>
      <trkpt lat="45.8595" lon="6.144">
        <ele>446</ele>
        <time>2021-09-11T09:34:39.218Z</time>
      </trkpt>
      <trkpt lat="45.85949" lon="6.14395">
        <ele>446</ele>
        <time>2021-09-11T09:34:40.218Z</time>
      </trkpt>
      <trkpt lat="45.85948" lon="6.1439">
        <ele>447</ele>
        <time>2021-09-11T09:34:41.217Z</time>
      </trkpt>
      <trkpt lat="45.85947" lon="6.14384">
        <ele>447</ele>
        <time>2021-09-11T09:34:42.218Z</time>
      </trkpt>
      <trkpt lat="45.85946" lon="6.14379">
        <ele>446</ele>
        <time>2021-09-11T09:34:43.218Z</time>
      </trkpt>
      <trkpt lat="45.85945" lon="6.14375">
        <ele>446</ele>
        <time>2021-09-11T09:34:44.217Z</time>
      </trkpt>
      <trkpt lat="45.85944" lon="6.14369">
        <ele>446</ele>
        <time>2021-09-11T09:34:45.217Z</time>
      </trkpt>
      <trkpt lat="45.85943" lon="6.14365">
        <ele>446</ele>
        <time>2021-09-11T09:34:46.218Z</time>
      </trkpt>
      <trkpt lat="45.85942" lon="6.1436">
        <ele>445</ele>
        <time>2021-09-11T09:34:47.218Z</time>
      </trkpt>
      <trkpt lat="45.85941" lon="6.14355">
        <ele>445</ele>
        <time>2021-09-11T09:34:48.218Z</time>
      </trkpt>
      <trkpt lat="45.8594" lon="6.1435">
        <ele>445</ele>
        <time>2021-09-11T09:34:49.218Z</time>
      </trkpt>
      <trkpt lat="45.8594" lon="6.14345">
        <ele>446</ele>
        <time>2021-09-11T09:34:50.217Z</time>
      </trkpt>
      <trkpt lat="45.85939" lon="6.1434">
        <ele>445</ele>
        <time>2021-09-11T09:34:51.217Z</time>
      </trkpt>
      <trkpt lat="45.85939" lon="6.14335">
        <ele>445</ele>
        <time>2021-09-11T09:34:52.218Z</time>
      </trkpt>
      <trkpt lat="45.85938" lon="6.14329">
        <ele>445</ele>
        <time>2021-09-11T09:34:53.218Z</time>
      </trkpt>
      <trkpt lat="45.85937" lon="6.14325">
        <ele>445</ele>
        <time>2021-09-11T09:34:54.217Z</time>
      </trkpt>
      <trkpt lat="45.85936" lon="6.1432">
        <ele>445</ele>
        <time>2021-09-11T09:34:55.218Z</time>
      </trkpt>
      <trkpt lat="45.85935" lon="6.14316">
        <ele>446</ele>
        <time>2021-09-11T09:34:56.218Z</time>
      </trkpt>
      <trkpt lat="45.85934" lon="6.14312">
        <ele>446</ele>
        <time>2021-09-11T09:34:57.218Z</time>
      </trkpt>
      <trkpt lat="45.85933" lon="6.14308">
        <ele>446</ele>
        <time>2021-09-11T09:34:58.217Z</time>
      </trkpt>
      <trkpt lat="45.85932" lon="6.14305">
        <ele>445</ele>
        <time>2021-09-11T09:34:59.218Z</time>
      </trkpt>
      <trkpt lat="45.85932" lon="6.14302">
        <ele>445</ele>
        <time>2021-09-11T09:35:00.217Z</time>
      </trkpt>
      <trkpt lat="45.85933" lon="6.14299">
        <ele>445</ele>
        <time>2021-09-11T09:35:01.218Z</time>
      </trkpt>
      <trkpt lat="45.85933" lon="6.14296">
        <ele>446</ele>
        <time>2021-09-11T09:35:02.217Z</time>
      </trkpt>
      <trkpt lat="45.85932" lon="6.14293">
        <ele>446</ele>
        <time>2021-09-11T09:35:03.218Z</time>
      </trkpt>
      <trkpt lat="45.85933" lon="6.1429">
        <ele>446</ele>
        <time>2021-09-11T09:35:04.218Z</time>
      </trkpt>
      <trkpt lat="45.85934" lon="6.14287">
        <ele>445</ele>
        <time>2021-09-11T09:35:05.218Z</time>
      </trkpt>
      <trkpt lat="45.85936" lon="6.14286">
        <ele>445</ele>
        <time>2021-09-11T09:35:06.218Z</time>
      </trkpt>
      <trkpt lat="45.85938" lon="6.14286">
        <ele>445</ele>
        <time>2021-09-11T09:35:07.218Z</time>
      </trkpt>
      <trkpt lat="45.85941" lon="6.14285">
        <ele>445</ele>
        <time>2021-09-11T09:35:08.218Z</time>
      </trkpt>
      <trkpt lat="45.85943" lon="6.14285">
        <ele>445</ele>
        <time>2021-09-11T09:35:09.218Z</time>
      </trkpt>
      <trkpt lat="45.85946" lon="6.14283">
        <ele>445</ele>
        <time>2021-09-11T09:35:10.217Z</time>
      </trkpt>
      <trkpt lat="45.85948" lon="6.1428">
        <ele>445</ele>
        <time>2021-09-11T09:35:11.218Z</time>
      </trkpt>
      <trkpt lat="45.85951" lon="6.14277">
        <ele>445</ele>
        <time>2021-09-11T09:35:12.217Z</time>
      </trkpt>
      <trkpt lat="45.85953" lon="6.14274">
        <ele>445</ele>
        <time>2021-09-11T09:35:13.218Z</time>
      </trkpt>
      <trkpt lat="45.85955" lon="6.14271">
        <ele>444</ele>
        <time>2021-09-11T09:35:14.218Z</time>
      </trkpt>
      <trkpt lat="45.85958" lon="6.14267">
        <ele>444</ele>
        <time>2021-09-11T09:35:15.218Z</time>
      </trkpt>
      <trkpt lat="45.8596" lon="6.14263">
        <ele>444</ele>
        <time>2021-09-11T09:35:16.218Z</time>
      </trkpt>
      <trkpt lat="45.85962" lon="6.14259">
        <ele>443</ele>
        <time>2021-09-11T09:35:17.218Z</time>
      </trkpt>
      <trkpt lat="45.85965" lon="6.14256">
        <ele>443</ele>
        <time>2021-09-11T09:35:18.218Z</time>
      </trkpt>
      <trkpt lat="45.85967" lon="6.14252">
        <ele>443</ele>
        <time>2021-09-11T09:35:19.218Z</time>
      </trkpt>
      <trkpt lat="45.8597" lon="6.14249">
        <ele>443</ele>
        <time>2021-09-11T09:35:20.218Z</time>
      </trkpt>
      <trkpt lat="45.85973" lon="6.14247">
        <ele>443</ele>
        <time>2021-09-11T09:35:21.218Z</time>
      </trkpt>
      <trkpt lat="45.85976" lon="6.14245">
        <ele>443</ele>
        <time>2021-09-11T09:35:22.218Z</time>
      </trkpt>
      <trkpt lat="45.85979" lon="6.14242">
        <ele>443</ele>
        <time>2021-09-11T09:35:23.218Z</time>
      </trkpt>
      <trkpt lat="45.85982" lon="6.1424">
        <ele>443</ele>
        <time>2021-09-11T09:35:24.218Z</time>
      </trkpt>
      <trkpt lat="45.85986" lon="6.14238">
        <ele>443</ele>
        <time>2021-09-11T09:35:25.218Z</time>
      </trkpt>
      <trkpt lat="45.85989" lon="6.14236">
        <ele>443</ele>
        <time>2021-09-11T09:35:26.218Z</time>
      </trkpt>
      <trkpt lat="45.85992" lon="6.14235">
        <ele>443</ele>
        <time>2021-09-11T09:35:27.218Z</time>
      </trkpt>
      <trkpt lat="45.85995" lon="6.14233">
        <ele>443</ele>
        <time>2021-09-11T09:35:28.218Z</time>
      </trkpt>
      <trkpt lat="45.85999" lon="6.14232">
        <ele>443</ele>
        <time>2021-09-11T09:35:29.218Z</time>
      </trkpt>
      <trkpt lat="45.86002" lon="6.14232">
        <ele>443</ele>
        <time>2021-09-11T09:35:30.217Z</time>
      </trkpt>
      <trkpt lat="45.86006" lon="6.14231">
        <ele>443</ele>
        <time>2021-09-11T09:35:31.218Z</time>
      </trkpt>
      <trkpt lat="45.86009" lon="6.14231">
        <ele>444</ele>
        <time>2021-09-11T09:35:32.217Z</time>
      </trkpt>
      <trkpt lat="45.86013" lon="6.1423">
        <ele>444</ele>
        <time>2021-09-11T09:35:33.217Z</time>
      </trkpt>
      <trkpt lat="45.86016" lon="6.1423">
        <ele>445</ele>
        <time>2021-09-11T09:35:34.218Z</time>
      </trkpt>
      <trkpt lat="45.8602" lon="6.1423">
        <ele>445</ele>
        <time>2021-09-11T09:35:35.218Z</time>
      </trkpt>
      <trkpt lat="45.86023" lon="6.1423">
        <ele>445</ele>
        <time>2021-09-11T09:35:36.218Z</time>
      </trkpt>
      <trkpt lat="45.86026" lon="6.1423">
        <ele>445</ele>
        <time>2021-09-11T09:35:37.218Z</time>
      </trkpt>
      <trkpt lat="45.86029" lon="6.1423">
        <ele>445</ele>
        <time>2021-09-11T09:35:38.217Z</time>
      </trkpt>
      <trkpt lat="45.86032" lon="6.1423">
        <ele>446</ele>
        <time>2021-09-11T09:35:39.218Z</time>
      </trkpt>
      <trkpt lat="45.86036" lon="6.14231">
        <ele>446</ele>
        <time>2021-09-11T09:35:40.218Z</time>
      </trkpt>
      <trkpt lat="45.86039" lon="6.14231">
        <ele>446</ele>
        <time>2021-09-11T09:35:41.218Z</time>
      </trkpt>
      <trkpt lat="45.86043" lon="6.14232">
        <ele>447</ele>
        <time>2021-09-11T09:35:42.217Z</time>
      </trkpt>
      <trkpt lat="45.86046" lon="6.14233">
        <ele>447</ele>
        <time>2021-09-11T09:35:43.218Z</time>
      </trkpt>
      <trkpt lat="45.8605" lon="6.14234">
        <ele>447</ele>
        <time>2021-09-11T09:35:44.218Z</time>
      </trkpt>
      <trkpt lat="45.86054" lon="6.14236">
        <ele>447</ele>
        <time>2021-09-11T09:35:45.217Z</time>
      </trkpt>
      <trkpt lat="45.86058" lon="6.14237">
        <ele>447</ele>
        <time>2021-09-11T09:35:46.218Z</time>
      </trkpt>
      <trkpt lat="45.86062" lon="6.14238">
        <ele>447</ele>
        <time>2021-09-11T09:35:47.217Z</time>
      </trkpt>
      <trkpt lat="45.86066" lon="6.1424">
        <ele>447</ele>
        <time>2021-09-11T09:35:48.218Z</time>
      </trkpt>
      <trkpt lat="45.86069" lon="6.14242">
        <ele>447</ele>
        <time>2021-09-11T09:35:49.218Z</time>
      </trkpt>
      <trkpt lat="45.86073" lon="6.14243">
        <ele>447</ele>
        <time>2021-09-11T09:35:50.218Z</time>
      </trkpt>
      <trkpt lat="45.86076" lon="6.14245">
        <ele>447</ele>
        <time>2021-09-11T09:35:51.217Z</time>
      </trkpt>
      <trkpt lat="45.8608" lon="6.14247">
        <ele>447</ele>
        <time>2021-09-11T09:35:52.218Z</time>
      </trkpt>
      <trkpt lat="45.86084" lon="6.14249">
        <ele>446</ele>
        <time>2021-09-11T09:35:53.218Z</time>
      </trkpt>
      <trkpt lat="45.86087" lon="6.14251">
        <ele>446</ele>
        <time>2021-09-11T09:35:54.218Z</time>
      </trkpt>
      <trkpt lat="45.86091" lon="6.14253">
        <ele>446</ele>
        <time>2021-09-11T09:35:55.218Z</time>
      </trkpt>
      <trkpt lat="45.86095" lon="6.14255">
        <ele>446</ele>
        <time>2021-09-11T09:35:56.217Z</time>
      </trkpt>
      <trkpt lat="45.86098" lon="6.14257">
        <ele>446</ele>
        <time>2021-09-11T09:35:57.218Z</time>
      </trkpt>
      <trkpt lat="45.86102" lon="6.14259">
        <ele>446</ele>
        <time>2021-09-11T09:35:58.217Z</time>
      </trkpt>
      <trkpt lat="45.86106" lon="6.14261">
        <ele>447</ele>
        <time>2021-09-11T09:35:59.217Z</time>
      </trkpt>
      <trkpt lat="45.8611" lon="6.14262">
        <ele>447</ele>
        <time>2021-09-11T09:36:00.217Z</time>
      </trkpt>
      <trkpt lat="45.86114" lon="6.14264">
        <ele>447</ele>
        <time>2021-09-11T09:36:01.217Z</time>
      </trkpt>
      <trkpt lat="45.86117" lon="6.14266">
        <ele>447</ele>
        <time>2021-09-11T09:36:02.217Z</time>
      </trkpt>
      <trkpt lat="45.86121" lon="6.14268">
        <ele>447</ele>
        <time>2021-09-11T09:36:03.217Z</time>
      </trkpt>
      <trkpt lat="45.86125" lon="6.14269">
        <ele>448</ele>
        <time>2021-09-11T09:36:04.217Z</time>
      </trkpt>
      <trkpt lat="45.86129" lon="6.14271">
        <ele>448</ele>
        <time>2021-09-11T09:36:05.218Z</time>
      </trkpt>
      <trkpt lat="45.86133" lon="6.14273">
        <ele>448</ele>
        <time>2021-09-11T09:36:06.218Z</time>
      </trkpt>
      <trkpt lat="45.86137" lon="6.14274">
        <ele>448</ele>
        <time>2021-09-11T09:36:07.218Z</time>
      </trkpt>
      <trkpt lat="45.86141" lon="6.14275">
        <ele>448</ele>
        <time>2021-09-11T09:36:08.217Z</time>
      </trkpt>
      <trkpt lat="45.86144" lon="6.14277">
        <ele>448</ele>
        <time>2021-09-11T09:36:09.218Z</time>
      </trkpt>
      <trkpt lat="45.86148" lon="6.14279">
        <ele>448</ele>
        <time>2021-09-11T09:36:10.218Z</time>
      </trkpt>
      <trkpt lat="45.86152" lon="6.1428">
        <ele>447</ele>
        <time>2021-09-11T09:36:11.217Z</time>
      </trkpt>
      <trkpt lat="45.86156" lon="6.14282">
        <ele>447</ele>
        <time>2021-09-11T09:36:12.217Z</time>
      </trkpt>
      <trkpt lat="45.8616" lon="6.14284">
        <ele>447</ele>
        <time>2021-09-11T09:36:13.218Z</time>
      </trkpt>
      <trkpt lat="45.86164" lon="6.14285">
        <ele>447</ele>
        <time>2021-09-11T09:36:14.218Z</time>
      </trkpt>
      <trkpt lat="45.86167" lon="6.14287">
        <ele>447</ele>
        <time>2021-09-11T09:36:15.218Z</time>
      </trkpt>
      <trkpt lat="45.86171" lon="6.14288">
        <ele>447</ele>
        <time>2021-09-11T09:36:16.218Z</time>
      </trkpt>
      <trkpt lat="45.86175" lon="6.1429">
        <ele>447</ele>
        <time>2021-09-11T09:36:17.218Z</time>
      </trkpt>
      <trkpt lat="45.86179" lon="6.14291">
        <ele>447</ele>
        <time>2021-09-11T09:36:18.218Z</time>
      </trkpt>
      <trkpt lat="45.86183" lon="6.14293">
        <ele>447</ele>
        <time>2021-09-11T09:36:19.218Z</time>
      </trkpt>
      <trkpt lat="45.86186" lon="6.14294">
        <ele>447</ele>
        <time>2021-09-11T09:36:20.218Z</time>
      </trkpt>
      <trkpt lat="45.8619" lon="6.14295">
        <ele>447</ele>
        <time>2021-09-11T09:36:21.218Z</time>
      </trkpt>
      <trkpt lat="45.86193" lon="6.14297">
        <ele>447</ele>
        <time>2021-09-11T09:36:22.218Z</time>
      </trkpt>
      <trkpt lat="45.86197" lon="6.14298">
        <ele>447</ele>
        <time>2021-09-11T09:36:23.218Z</time>
      </trkpt>
      <trkpt lat="45.86201" lon="6.143">
        <ele>447</ele>
        <time>2021-09-11T09:36:24.217Z</time>
      </trkpt>
      <trkpt lat="45.86204" lon="6.14302">
        <ele>447</ele>
        <time>2021-09-11T09:36:25.217Z</time>
      </trkpt>
      <trkpt lat="45.86207" lon="6.14304">
        <ele>447</ele>
        <time>2021-09-11T09:36:26.218Z</time>
      </trkpt>
      <trkpt lat="45.8621" lon="6.14306">
        <ele>447</ele>
        <time>2021-09-11T09:36:27.218Z</time>
      </trkpt>
      <trkpt lat="45.86213" lon="6.14309">
        <ele>447</ele>
        <time>2021-09-11T09:36:28.218Z</time>
      </trkpt>
      <trkpt lat="45.86216" lon="6.14313">
        <ele>447</ele>
        <time>2021-09-11T09:36:29.218Z</time>
      </trkpt>
      <trkpt lat="45.86219" lon="6.14316">
        <ele>447</ele>
        <time>2021-09-11T09:36:30.217Z</time>
      </trkpt>
      <trkpt lat="45.86221" lon="6.14319">
        <ele>446</ele>
        <time>2021-09-11T09:36:31.218Z</time>
      </trkpt>
      <trkpt lat="45.86223" lon="6.14323">
        <ele>447</ele>
        <time>2021-09-11T09:36:32.218Z</time>
      </trkpt>
      <trkpt lat="45.86226" lon="6.14326">
        <ele>447</ele>
        <time>2021-09-11T09:36:33.218Z</time>
      </trkpt>
      <trkpt lat="45.86228" lon="6.14328">
        <ele>447</ele>
        <time>2021-09-11T09:36:34.218Z</time>
      </trkpt>
      <trkpt lat="45.8623" lon="6.14331">
        <ele>447</ele>
        <time>2021-09-11T09:36:35.218Z</time>
      </trkpt>
      <trkpt lat="45.86232" lon="6.14334">
        <ele>447</ele>
        <time>2021-09-11T09:36:36.218Z</time>
      </trkpt>
      <trkpt lat="45.86235" lon="6.14338">
        <ele>447</ele>
        <time>2021-09-11T09:36:37.218Z</time>
      </trkpt>
      <trkpt lat="45.86238" lon="6.14341">
        <ele>446</ele>
        <time>2021-09-11T09:36:38.217Z</time>
      </trkpt>
      <trkpt lat="45.8624" lon="6.14344">
        <ele>446</ele>
        <time>2021-09-11T09:36:39.218Z</time>
      </trkpt>
      <trkpt lat="45.86243" lon="6.14347">
        <ele>446</ele>
        <time>2021-09-11T09:36:40.218Z</time>
      </trkpt>
      <trkpt lat="45.86246" lon="6.14349">
        <ele>446</ele>
        <time>2021-09-11T09:36:41.218Z</time>
      </trkpt>
      <trkpt lat="45.8625" lon="6.14351">
        <ele>445</ele>
        <time>2021-09-11T09:36:42.218Z</time>
      </trkpt>
      <trkpt lat="45.86253" lon="6.14352">
        <ele>444</ele>
        <time>2021-09-11T09:36:43.217Z</time>
      </trkpt>
      <trkpt lat="45.86257" lon="6.14354">
        <ele>444</ele>
        <time>2021-09-11T09:36:44.217Z</time>
      </trkpt>
      <trkpt lat="45.8626" lon="6.14356">
        <ele>443</ele>
        <time>2021-09-11T09:36:45.218Z</time>
      </trkpt>
      <trkpt lat="45.86264" lon="6.14358">
        <ele>443</ele>
        <time>2021-09-11T09:36:46.217Z</time>
      </trkpt>
      <trkpt lat="45.86267" lon="6.1436">
        <ele>443</ele>
        <time>2021-09-11T09:36:47.218Z</time>
      </trkpt>
      <trkpt lat="45.86271" lon="6.14361">
        <ele>443</ele>
        <time>2021-09-11T09:36:48.218Z</time>
      </trkpt>
      <trkpt lat="45.86275" lon="6.14363">
        <ele>443</ele>
        <time>2021-09-11T09:36:49.217Z</time>
      </trkpt>
      <trkpt lat="45.86278" lon="6.14365">
        <ele>443</ele>
        <time>2021-09-11T09:36:50.218Z</time>
      </trkpt>
      <trkpt lat="45.86283" lon="6.14367">
        <ele>443</ele>
        <time>2021-09-11T09:36:51.218Z</time>
      </trkpt>
      <trkpt lat="45.86286" lon="6.14369">
        <ele>443</ele>
        <time>2021-09-11T09:36:52.218Z</time>
      </trkpt>
      <trkpt lat="45.86289" lon="6.1437">
        <ele>444</ele>
        <time>2021-09-11T09:36:53.217Z</time>
      </trkpt>
      <trkpt lat="45.86292" lon="6.14371">
        <ele>444</ele>
        <time>2021-09-11T09:36:54.218Z</time>
      </trkpt>
      <trkpt lat="45.86295" lon="6.14372">
        <ele>444</ele>
        <time>2021-09-11T09:36:55.218Z</time>
      </trkpt>
      <trkpt lat="45.86298" lon="6.14373">
        <ele>444</ele>
        <time>2021-09-11T09:36:56.217Z</time>
      </trkpt>
      <trkpt lat="45.86301" lon="6.14374">
        <ele>444</ele>
        <time>2021-09-11T09:36:57.218Z</time>
      </trkpt>
      <trkpt lat="45.86304" lon="6.14375">
        <ele>444</ele>
        <time>2021-09-11T09:36:58.218Z</time>
      </trkpt>
      <trkpt lat="45.86308" lon="6.14376">
        <ele>443</ele>
        <time>2021-09-11T09:36:59.217Z</time>
      </trkpt>
      <trkpt lat="45.86311" lon="6.14377">
        <ele>443</ele>
        <time>2021-09-11T09:37:00.218Z</time>
      </trkpt>
      <trkpt lat="45.86315" lon="6.14379">
        <ele>442</ele>
        <time>2021-09-11T09:37:01.218Z</time>
      </trkpt>
      <trkpt lat="45.8632" lon="6.1438">
        <ele>442</ele>
        <time>2021-09-11T09:37:02.218Z</time>
      </trkpt>
      <trkpt lat="45.86323" lon="6.14381">
        <ele>441</ele>
        <time>2021-09-11T09:37:03.218Z</time>
      </trkpt>
      <trkpt lat="45.86327" lon="6.14381">
        <ele>441</ele>
        <time>2021-09-11T09:37:04.218Z</time>
      </trkpt>
      <trkpt lat="45.86331" lon="6.14382">
        <ele>440</ele>
        <time>2021-09-11T09:37:05.217Z</time>
      </trkpt>
      <trkpt lat="45.86336" lon="6.14383">
        <ele>440</ele>
        <time>2021-09-11T09:37:06.218Z</time>
      </trkpt>
      <trkpt lat="45.86339" lon="6.14383">
        <ele>440</ele>
        <time>2021-09-11T09:37:07.218Z</time>
      </trkpt>
      <trkpt lat="45.86344" lon="6.14384">
        <ele>440</ele>
        <time>2021-09-11T09:37:08.218Z</time>
      </trkpt>
      <trkpt lat="45.86347" lon="6.14385">
        <ele>440</ele>
        <time>2021-09-11T09:37:09.217Z</time>
      </trkpt>
      <trkpt lat="45.86352" lon="6.14385">
        <ele>441</ele>
        <time>2021-09-11T09:37:10.218Z</time>
      </trkpt>
      <trkpt lat="45.86356" lon="6.14386">
        <ele>441</ele>
        <time>2021-09-11T09:37:11.218Z</time>
      </trkpt>
      <trkpt lat="45.8636" lon="6.14386">
        <ele>441</ele>
        <time>2021-09-11T09:37:12.218Z</time>
      </trkpt>
      <trkpt lat="45.86363" lon="6.14386">
        <ele>441</ele>
        <time>2021-09-11T09:37:13.217Z</time>
      </trkpt>
      <trkpt lat="45.86367" lon="6.14386">
        <ele>441</ele>
        <time>2021-09-11T09:37:14.218Z</time>
      </trkpt>
      <trkpt lat="45.86371" lon="6.14386">
        <ele>441</ele>
        <time>2021-09-11T09:37:15.218Z</time>
      </trkpt>
      <trkpt lat="45.86375" lon="6.14386">
        <ele>441</ele>
        <time>2021-09-11T09:37:16.218Z</time>
      </trkpt>
      <trkpt lat="45.8638" lon="6.14386">
        <ele>440</ele>
        <time>2021-09-11T09:37:17.218Z</time>
      </trkpt>
      <trkpt lat="45.86383" lon="6.14386">
        <ele>441</ele>
        <time>2021-09-11T09:37:18.218Z</time>
      </trkpt>
      <trkpt lat="45.86387" lon="6.14386">
        <ele>441</ele>
        <time>2021-09-11T09:37:19.217Z</time>
      </trkpt>
      <trkpt lat="45.86392" lon="6.14386">
        <ele>441</ele>
        <time>2021-09-11T09:37:20.217Z</time>
      </trkpt>
      <trkpt lat="45.86397" lon="6.14387">
        <ele>442</ele>
        <time>2021-09-11T09:37:21.218Z</time>
      </trkpt>
      <trkpt lat="45.86402" lon="6.14387">
        <ele>442</ele>
        <time>2021-09-11T09:37:22.218Z</time>
      </trkpt>
      <trkpt lat="45.86406" lon="6.14388">
        <ele>443</ele>
        <time>2021-09-11T09:37:23.218Z</time>
      </trkpt>
      <trkpt lat="45.8641" lon="6.14388">
        <ele>443</ele>
        <time>2021-09-11T09:37:24.218Z</time>
      </trkpt>
      <trkpt lat="45.86415" lon="6.14389">
        <ele>443</ele>
        <time>2021-09-11T09:37:25.218Z</time>
      </trkpt>
      <trkpt lat="45.8642" lon="6.14388">
        <ele>443</ele>
        <time>2021-09-11T09:37:26.218Z</time>
      </trkpt>
      <trkpt lat="45.86423" lon="6.14388">
        <ele>442</ele>
        <time>2021-09-11T09:37:27.218Z</time>
      </trkpt>
      <trkpt lat="45.86428" lon="6.14388">
        <ele>442</ele>
        <time>2021-09-11T09:37:28.218Z</time>
      </trkpt>
      <trkpt lat="45.86432" lon="6.14388">
        <ele>442</ele>
        <time>2021-09-11T09:37:29.218Z</time>
      </trkpt>
      <trkpt lat="45.86438" lon="6.14388">
        <ele>442</ele>
        <time>2021-09-11T09:37:30.217Z</time>
      </trkpt>
      <trkpt lat="45.86441" lon="6.14388">
        <ele>442</ele>
        <time>2021-09-11T09:37:31.217Z</time>
      </trkpt>
      <trkpt lat="45.86446" lon="6.14388">
        <ele>443</ele>
        <time>2021-09-11T09:37:32.218Z</time>
      </trkpt>
      <trkpt lat="45.86449" lon="6.14387">
        <ele>443</ele>
        <time>2021-09-11T09:37:33.218Z</time>
      </trkpt>
      <trkpt lat="45.86453" lon="6.14387">
        <ele>443</ele>
        <time>2021-09-11T09:37:34.217Z</time>
      </trkpt>
      <trkpt lat="45.86457" lon="6.14387">
        <ele>442</ele>
        <time>2021-09-11T09:37:35.218Z</time>
      </trkpt>
      <trkpt lat="45.86462" lon="6.14387">
        <ele>442</ele>
        <time>2021-09-11T09:37:36.218Z</time>
      </trkpt>
      <trkpt lat="45.86466" lon="6.14387">
        <ele>442</ele>
        <time>2021-09-11T09:37:37.218Z</time>
      </trkpt>
      <trkpt lat="45.8647" lon="6.14387">
        <ele>442</ele>
        <time>2021-09-11T09:37:38.218Z</time>
      </trkpt>
      <trkpt lat="45.86475" lon="6.14386">
        <ele>441</ele>
        <time>2021-09-11T09:37:39.218Z</time>
      </trkpt>
      <trkpt lat="45.86479" lon="6.14386">
        <ele>441</ele>
        <time>2021-09-11T09:37:40.218Z</time>
      </trkpt>
      <trkpt lat="45.86483" lon="6.14386">
        <ele>441</ele>
        <time>2021-09-11T09:37:41.217Z</time>
      </trkpt>
      <trkpt lat="45.86488" lon="6.14386">
        <ele>441</ele>
        <time>2021-09-11T09:37:42.218Z</time>
      </trkpt>
      <trkpt lat="45.86492" lon="6.14387">
        <ele>441</ele>
        <time>2021-09-11T09:37:43.218Z</time>
      </trkpt>
      <trkpt lat="45.86496" lon="6.14387">
        <ele>441</ele>
        <time>2021-09-11T09:37:44.218Z</time>
      </trkpt>
      <trkpt lat="45.86502" lon="6.14387">
        <ele>441</ele>
        <time>2021-09-11T09:37:45.217Z</time>
      </trkpt>
      <trkpt lat="45.86505" lon="6.14387">
        <ele>441</ele>
        <time>2021-09-11T09:37:46.218Z</time>
      </trkpt>
      <trkpt lat="45.8651" lon="6.14387">
        <ele>441</ele>
        <time>2021-09-11T09:37:47.218Z</time>
      </trkpt>
      <trkpt lat="45.86514" lon="6.14387">
        <ele>441</ele>
        <time>2021-09-11T09:37:48.218Z</time>
      </trkpt>
      <trkpt lat="45.86519" lon="6.14387">
        <ele>441</ele>
        <time>2021-09-11T09:37:49.218Z</time>
      </trkpt>
      <trkpt lat="45.86523" lon="6.14387">
        <ele>442</ele>
        <time>2021-09-11T09:37:50.218Z</time>
      </trkpt>
      <trkpt lat="45.86528" lon="6.14387">
        <ele>441</ele>
        <time>2021-09-11T09:37:51.218Z</time>
      </trkpt>
      <trkpt lat="45.86532" lon="6.14387">
        <ele>441</ele>
        <time>2021-09-11T09:37:52.218Z</time>
      </trkpt>
      <trkpt lat="45.86536" lon="6.14387">
        <ele>442</ele>
        <time>2021-09-11T09:37:53.218Z</time>
      </trkpt>
      <trkpt lat="45.86541" lon="6.14387">
        <ele>442</ele>
        <time>2021-09-11T09:37:54.218Z</time>
      </trkpt>
      <trkpt lat="45.86545" lon="6.14387">
        <ele>443</ele>
        <time>2021-09-11T09:37:55.218Z</time>
      </trkpt>
      <trkpt lat="45.8655" lon="6.14387">
        <ele>443</ele>
        <time>2021-09-11T09:37:56.218Z</time>
      </trkpt>
      <trkpt lat="45.86555" lon="6.14387">
        <ele>444</ele>
        <time>2021-09-11T09:37:57.218Z</time>
      </trkpt>
      <trkpt lat="45.86558" lon="6.14387">
        <ele>444</ele>
        <time>2021-09-11T09:37:58.218Z</time>
      </trkpt>
      <trkpt lat="45.86562" lon="6.14387">
        <ele>443</ele>
        <time>2021-09-11T09:37:59.218Z</time>
      </trkpt>
      <trkpt lat="45.86566" lon="6.14387">
        <ele>443</ele>
        <time>2021-09-11T09:38:00.218Z</time>
      </trkpt>
      <trkpt lat="45.8657" lon="6.14387">
        <ele>443</ele>
        <time>2021-09-11T09:38:01.218Z</time>
      </trkpt>
      <trkpt lat="45.86576" lon="6.14387">
        <ele>442</ele>
        <time>2021-09-11T09:38:02.217Z</time>
      </trkpt>
      <trkpt lat="45.86579" lon="6.14387">
        <ele>442</ele>
        <time>2021-09-11T09:38:03.218Z</time>
      </trkpt>
      <trkpt lat="45.86583" lon="6.14386">
        <ele>442</ele>
        <time>2021-09-11T09:38:04.218Z</time>
      </trkpt>
      <trkpt lat="45.86588" lon="6.14385">
        <ele>442</ele>
        <time>2021-09-11T09:38:05.218Z</time>
      </trkpt>
      <trkpt lat="45.86593" lon="6.14385">
        <ele>441</ele>
        <time>2021-09-11T09:38:06.218Z</time>
      </trkpt>
      <trkpt lat="45.86596" lon="6.14384">
        <ele>442</ele>
        <time>2021-09-11T09:38:07.217Z</time>
      </trkpt>
      <trkpt lat="45.86601" lon="6.14384">
        <ele>442</ele>
        <time>2021-09-11T09:38:08.218Z</time>
      </trkpt>
      <trkpt lat="45.86606" lon="6.14383">
        <ele>442</ele>
        <time>2021-09-11T09:38:09.217Z</time>
      </trkpt>
      <trkpt lat="45.86609" lon="6.14382">
        <ele>443</ele>
        <time>2021-09-11T09:38:10.218Z</time>
      </trkpt>
      <trkpt lat="45.86613" lon="6.14381">
        <ele>443</ele>
        <time>2021-09-11T09:38:11.217Z</time>
      </trkpt>
      <trkpt lat="45.86617" lon="6.1438">
        <ele>442</ele>
        <time>2021-09-11T09:38:12.217Z</time>
      </trkpt>
      <trkpt lat="45.86621" lon="6.14378">
        <ele>442</ele>
        <time>2021-09-11T09:38:13.218Z</time>
      </trkpt>
      <trkpt lat="45.86625" lon="6.14377">
        <ele>442</ele>
        <time>2021-09-11T09:38:14.218Z</time>
      </trkpt>
      <trkpt lat="45.86629" lon="6.14376">
        <ele>443</ele>
        <time>2021-09-11T09:38:15.218Z</time>
      </trkpt>
      <trkpt lat="45.86633" lon="6.14375">
        <ele>443</ele>
        <time>2021-09-11T09:38:16.218Z</time>
      </trkpt>
      <trkpt lat="45.86636" lon="6.14374">
        <ele>443</ele>
        <time>2021-09-11T09:38:17.218Z</time>
      </trkpt>
      <trkpt lat="45.86641" lon="6.14372">
        <ele>443</ele>
        <time>2021-09-11T09:38:18.218Z</time>
      </trkpt>
      <trkpt lat="45.86644" lon="6.14371">
        <ele>443</ele>
        <time>2021-09-11T09:38:19.218Z</time>
      </trkpt>
      <trkpt lat="45.86648" lon="6.1437">
        <ele>443</ele>
        <time>2021-09-11T09:38:20.218Z</time>
      </trkpt>
      <trkpt lat="45.86651" lon="6.14369">
        <ele>443</ele>
        <time>2021-09-11T09:38:21.218Z</time>
      </trkpt>
      <trkpt lat="45.86655" lon="6.14367">
        <ele>444</ele>
        <time>2021-09-11T09:38:22.218Z</time>
      </trkpt>
      <trkpt lat="45.86659" lon="6.14365">
        <ele>444</ele>
        <time>2021-09-11T09:38:23.218Z</time>
      </trkpt>
      <trkpt lat="45.86663" lon="6.14363">
        <ele>445</ele>
        <time>2021-09-11T09:38:24.217Z</time>
      </trkpt>
      <trkpt lat="45.86666" lon="6.14361">
        <ele>445</ele>
        <time>2021-09-11T09:38:25.218Z</time>
      </trkpt>
      <trkpt lat="45.86669" lon="6.1436">
        <ele>445</ele>
        <time>2021-09-11T09:38:26.218Z</time>
      </trkpt>
      <trkpt lat="45.86673" lon="6.14357">
        <ele>445</ele>
        <time>2021-09-11T09:38:27.217Z</time>
      </trkpt>
      <trkpt lat="45.86678" lon="6.14355">
        <ele>445</ele>
        <time>2021-09-11T09:38:28.217Z</time>
      </trkpt>
      <trkpt lat="45.86681" lon="6.14352">
        <ele>445</ele>
        <time>2021-09-11T09:38:29.218Z</time>
      </trkpt>
      <trkpt lat="45.86684" lon="6.1435">
        <ele>445</ele>
        <time>2021-09-11T09:38:30.218Z</time>
      </trkpt>
      <trkpt lat="45.86688" lon="6.14348">
        <ele>445</ele>
        <time>2021-09-11T09:38:31.217Z</time>
      </trkpt>
      <trkpt lat="45.86693" lon="6.14345">
        <ele>445</ele>
        <time>2021-09-11T09:38:32.218Z</time>
      </trkpt>
      <trkpt lat="45.86696" lon="6.14343">
        <ele>446</ele>
        <time>2021-09-11T09:38:33.218Z</time>
      </trkpt>
      <trkpt lat="45.86699" lon="6.1434">
        <ele>446</ele>
        <time>2021-09-11T09:38:34.217Z</time>
      </trkpt>
      <trkpt lat="45.86703" lon="6.14338">
        <ele>446</ele>
        <time>2021-09-11T09:38:35.218Z</time>
      </trkpt>
      <trkpt lat="45.86706" lon="6.14335">
        <ele>446</ele>
        <time>2021-09-11T09:38:36.217Z</time>
      </trkpt>
      <trkpt lat="45.86711" lon="6.14332">
        <ele>446</ele>
        <time>2021-09-11T09:38:37.218Z</time>
      </trkpt>
      <trkpt lat="45.86714" lon="6.1433">
        <ele>446</ele>
        <time>2021-09-11T09:38:38.218Z</time>
      </trkpt>
      <trkpt lat="45.86717" lon="6.14327">
        <ele>446</ele>
        <time>2021-09-11T09:38:39.218Z</time>
      </trkpt>
      <trkpt lat="45.86721" lon="6.14325">
        <ele>446</ele>
        <time>2021-09-11T09:38:40.218Z</time>
      </trkpt>
      <trkpt lat="45.86725" lon="6.14322">
        <ele>447</ele>
        <time>2021-09-11T09:38:41.218Z</time>
      </trkpt>
      <trkpt lat="45.86729" lon="6.14319">
        <ele>447</ele>
        <time>2021-09-11T09:38:42.217Z</time>
      </trkpt>
      <trkpt lat="45.86732" lon="6.14317">
        <ele>447</ele>
        <time>2021-09-11T09:38:43.218Z</time>
      </trkpt>
      <trkpt lat="45.86736" lon="6.14314">
        <ele>448</ele>
        <time>2021-09-11T09:38:44.218Z</time>
      </trkpt>
      <trkpt lat="45.8674" lon="6.14311">
        <ele>448</ele>
        <time>2021-09-11T09:38:45.218Z</time>
      </trkpt>
      <trkpt lat="45.86744" lon="6.14309">
        <ele>448</ele>
        <time>2021-09-11T09:38:46.218Z</time>
      </trkpt>
      <trkpt lat="45.86749" lon="6.14306">
        <ele>448</ele>
        <time>2021-09-11T09:38:47.217Z</time>
      </trkpt>
      <trkpt lat="45.86753" lon="6.14303">
        <ele>448</ele>
        <time>2021-09-11T09:38:48.218Z</time>
      </trkpt>
      <trkpt lat="45.86756" lon="6.14301">
        <ele>448</ele>
        <time>2021-09-11T09:38:49.218Z</time>
      </trkpt>
      <trkpt lat="45.8676" lon="6.14299">
        <ele>448</ele>
        <time>2021-09-11T09:38:50.217Z</time>
      </trkpt>
      <trkpt lat="45.86764" lon="6.14296">
        <ele>448</ele>
        <time>2021-09-11T09:38:51.218Z</time>
      </trkpt>
      <trkpt lat="45.86768" lon="6.14294">
        <ele>449</ele>
        <time>2021-09-11T09:38:52.217Z</time>
      </trkpt>
      <trkpt lat="45.86772" lon="6.14292">
        <ele>449</ele>
        <time>2021-09-11T09:38:53.218Z</time>
      </trkpt>
      <trkpt lat="45.86776" lon="6.1429">
        <ele>449</ele>
        <time>2021-09-11T09:38:54.218Z</time>
      </trkpt>
      <trkpt lat="45.86779" lon="6.14288">
        <ele>449</ele>
        <time>2021-09-11T09:38:55.218Z</time>
      </trkpt>
      <trkpt lat="45.86783" lon="6.14286">
        <ele>450</ele>
        <time>2021-09-11T09:38:56.217Z</time>
      </trkpt>
      <trkpt lat="45.86787" lon="6.14284">
        <ele>450</ele>
        <time>2021-09-11T09:38:57.218Z</time>
      </trkpt>
      <trkpt lat="45.86791" lon="6.14282">
        <ele>449</ele>
        <time>2021-09-11T09:38:58.218Z</time>
      </trkpt>
      <trkpt lat="45.86794" lon="6.1428">
        <ele>449</ele>
        <time>2021-09-11T09:38:59.218Z</time>
      </trkpt>
      <trkpt lat="45.86797" lon="6.14279">
        <ele>449</ele>
        <time>2021-09-11T09:39:00.218Z</time>
      </trkpt>
      <trkpt lat="45.86801" lon="6.14277">
        <ele>450</ele>
        <time>2021-09-11T09:39:01.218Z</time>
      </trkpt>
      <trkpt lat="45.86804" lon="6.14276">
        <ele>450</ele>
        <time>2021-09-11T09:39:02.218Z</time>
      </trkpt>
      <trkpt lat="45.86808" lon="6.14275">
        <ele>450</ele>
        <time>2021-09-11T09:39:03.218Z</time>
      </trkpt>
      <trkpt lat="45.86812" lon="6.14274">
        <ele>450</ele>
        <time>2021-09-11T09:39:04.217Z</time>
      </trkpt>
      <trkpt lat="45.86816" lon="6.14272">
        <ele>449</ele>
        <time>2021-09-11T09:39:05.218Z</time>
      </trkpt>
      <trkpt lat="45.8682" lon="6.14271">
        <ele>449</ele>
        <time>2021-09-11T09:39:06.218Z</time>
      </trkpt>
      <trkpt lat="45.86824" lon="6.1427">
        <ele>449</ele>
        <time>2021-09-11T09:39:07.218Z</time>
      </trkpt>
      <trkpt lat="45.86829" lon="6.14269">
        <ele>449</ele>
        <time>2021-09-11T09:39:08.217Z</time>
      </trkpt>
      <trkpt lat="45.86833" lon="6.14268">
        <ele>448</ele>
        <time>2021-09-11T09:39:09.217Z</time>
      </trkpt>
      <trkpt lat="45.86837" lon="6.14267">
        <ele>448</ele>
        <time>2021-09-11T09:39:10.218Z</time>
      </trkpt>
      <trkpt lat="45.86841" lon="6.14267">
        <ele>447</ele>
        <time>2021-09-11T09:39:11.218Z</time>
      </trkpt>
      <trkpt lat="45.86845" lon="6.14267">
        <ele>447</ele>
        <time>2021-09-11T09:39:12.218Z</time>
      </trkpt>
      <trkpt lat="45.86849" lon="6.14266">
        <ele>447</ele>
        <time>2021-09-11T09:39:13.218Z</time>
      </trkpt>
      <trkpt lat="45.86853" lon="6.14266">
        <ele>447</ele>
        <time>2021-09-11T09:39:14.218Z</time>
      </trkpt>
      <trkpt lat="45.86857" lon="6.14265">
        <ele>447</ele>
        <time>2021-09-11T09:39:15.218Z</time>
      </trkpt>
      <trkpt lat="45.86862" lon="6.14265">
        <ele>447</ele>
        <time>2021-09-11T09:39:16.218Z</time>
      </trkpt>
      <trkpt lat="45.86865" lon="6.14265">
        <ele>447</ele>
        <time>2021-09-11T09:39:17.218Z</time>
      </trkpt>
      <trkpt lat="45.86869" lon="6.14265">
        <ele>448</ele>
        <time>2021-09-11T09:39:18.218Z</time>
      </trkpt>
      <trkpt lat="45.86873" lon="6.14265">
        <ele>448</ele>
        <time>2021-09-11T09:39:19.218Z</time>
      </trkpt>
      <trkpt lat="45.86877" lon="6.14265">
        <ele>449</ele>
        <time>2021-09-11T09:39:20.218Z</time>
      </trkpt>
      <trkpt lat="45.86881" lon="6.14265">
        <ele>449</ele>
        <time>2021-09-11T09:39:21.217Z</time>
      </trkpt>
      <trkpt lat="45.86885" lon="6.14265">
        <ele>449</ele>
        <time>2021-09-11T09:39:22.218Z</time>
      </trkpt>
      <trkpt lat="45.86889" lon="6.14266">
        <ele>449</ele>
        <time>2021-09-11T09:39:23.218Z</time>
      </trkpt>
      <trkpt lat="45.86892" lon="6.14266">
        <ele>449</ele>
        <time>2021-09-11T09:39:24.217Z</time>
      </trkpt>
      <trkpt lat="45.86897" lon="6.14267">
        <ele>449</ele>
        <time>2021-09-11T09:39:25.218Z</time>
      </trkpt>
      <trkpt lat="45.86901" lon="6.14267">
        <ele>449</ele>
        <time>2021-09-11T09:39:26.217Z</time>
      </trkpt>
      <trkpt lat="45.86905" lon="6.14267">
        <ele>449</ele>
        <time>2021-09-11T09:39:27.218Z</time>
      </trkpt>
      <trkpt lat="45.86908" lon="6.14268">
        <ele>449</ele>
        <time>2021-09-11T09:39:28.218Z</time>
      </trkpt>
      <trkpt lat="45.86912" lon="6.14269">
        <ele>449</ele>
        <time>2021-09-11T09:39:29.218Z</time>
      </trkpt>
      <trkpt lat="45.86916" lon="6.1427">
        <ele>449</ele>
        <time>2021-09-11T09:39:30.218Z</time>
      </trkpt>
      <trkpt lat="45.8692" lon="6.14271">
        <ele>450</ele>
        <time>2021-09-11T09:39:31.218Z</time>
      </trkpt>
      <trkpt lat="45.86924" lon="6.14272">
        <ele>450</ele>
        <time>2021-09-11T09:39:32.218Z</time>
      </trkpt>
      <trkpt lat="45.86928" lon="6.14273">
        <ele>450</ele>
        <time>2021-09-11T09:39:33.217Z</time>
      </trkpt>
      <trkpt lat="45.86932" lon="6.14274">
        <ele>450</ele>
        <time>2021-09-11T09:39:34.217Z</time>
      </trkpt>
      <trkpt lat="45.86935" lon="6.14275">
        <ele>450</ele>
        <time>2021-09-11T09:39:35.218Z</time>
      </trkpt>
      <trkpt lat="45.86939" lon="6.14276">
        <ele>450</ele>
        <time>2021-09-11T09:39:36.218Z</time>
      </trkpt>
      <trkpt lat="45.86943" lon="6.14277">
        <ele>450</ele>
        <time>2021-09-11T09:39:37.218Z</time>
      </trkpt>
      <trkpt lat="45.86947" lon="6.14279">
        <ele>449</ele>
        <time>2021-09-11T09:39:38.218Z</time>
      </trkpt>
      <trkpt lat="45.86951" lon="6.14281">
        <ele>449</ele>
        <time>2021-09-11T09:39:39.218Z</time>
      </trkpt>
      <trkpt lat="45.86955" lon="6.14283">
        <ele>449</ele>
        <time>2021-09-11T09:39:40.217Z</time>
      </trkpt>
      <trkpt lat="45.86959" lon="6.14285">
        <ele>449</ele>
        <time>2021-09-11T09:39:41.218Z</time>
      </trkpt>
      <trkpt lat="45.86963" lon="6.14287">
        <ele>449</ele>
        <time>2021-09-11T09:39:42.218Z</time>
      </trkpt>
      <trkpt lat="45.86966" lon="6.14288">
        <ele>449</ele>
        <time>2021-09-11T09:39:43.218Z</time>
      </trkpt>
      <trkpt lat="45.8697" lon="6.1429">
        <ele>449</ele>
        <time>2021-09-11T09:39:44.218Z</time>
      </trkpt>
      <trkpt lat="45.86973" lon="6.14292">
        <ele>449</ele>
        <time>2021-09-11T09:39:45.218Z</time>
      </trkpt>
      <trkpt lat="45.86978" lon="6.14294">
        <ele>449</ele>
        <time>2021-09-11T09:39:46.218Z</time>
      </trkpt>
      <trkpt lat="45.86981" lon="6.14296">
        <ele>450</ele>
        <time>2021-09-11T09:39:47.218Z</time>
      </trkpt>
      <trkpt lat="45.86985" lon="6.14298">
        <ele>450</ele>
        <time>2021-09-11T09:39:48.218Z</time>
      </trkpt>
      <trkpt lat="45.86989" lon="6.14301">
        <ele>450</ele>
        <time>2021-09-11T09:39:49.217Z</time>
      </trkpt>
      <trkpt lat="45.86993" lon="6.14303">
        <ele>450</ele>
        <time>2021-09-11T09:39:50.218Z</time>
      </trkpt>
      <trkpt lat="45.86997" lon="6.14305">
        <ele>450</ele>
        <time>2021-09-11T09:39:51.217Z</time>
      </trkpt>
      <trkpt lat="45.87" lon="6.14307">
        <ele>450</ele>
        <time>2021-09-11T09:39:52.218Z</time>
      </trkpt>
      <trkpt lat="45.87004" lon="6.14309">
        <ele>450</ele>
        <time>2021-09-11T09:39:53.217Z</time>
      </trkpt>
      <trkpt lat="45.87008" lon="6.14312">
        <ele>450</ele>
        <time>2021-09-11T09:39:54.217Z</time>
      </trkpt>
      <trkpt lat="45.87013" lon="6.14315">
        <ele>449</ele>
        <time>2021-09-11T09:39:55.218Z</time>
      </trkpt>
      <trkpt lat="45.87017" lon="6.14317">
        <ele>449</ele>
        <time>2021-09-11T09:39:56.218Z</time>
      </trkpt>
      <trkpt lat="45.8702" lon="6.14319">
        <ele>450</ele>
        <time>2021-09-11T09:39:57.218Z</time>
      </trkpt>
      <trkpt lat="45.87024" lon="6.14321">
        <ele>449</ele>
        <time>2021-09-11T09:39:58.217Z</time>
      </trkpt>
      <trkpt lat="45.87028" lon="6.14324">
        <ele>449</ele>
        <time>2021-09-11T09:39:59.217Z</time>
      </trkpt>
      <trkpt lat="45.87032" lon="6.14327">
        <ele>449</ele>
        <time>2021-09-11T09:40:00.218Z</time>
      </trkpt>
      <trkpt lat="45.87036" lon="6.14329">
        <ele>449</ele>
        <time>2021-09-11T09:40:01.218Z</time>
      </trkpt>
      <trkpt lat="45.87039" lon="6.14331">
        <ele>449</ele>
        <time>2021-09-11T09:40:02.218Z</time>
      </trkpt>
      <trkpt lat="45.87044" lon="6.14333">
        <ele>450</ele>
        <time>2021-09-11T09:40:03.218Z</time>
      </trkpt>
      <trkpt lat="45.87048" lon="6.14336">
        <ele>450</ele>
        <time>2021-09-11T09:40:04.218Z</time>
      </trkpt>
      <trkpt lat="45.87052" lon="6.14338">
        <ele>450</ele>
        <time>2021-09-11T09:40:05.218Z</time>
      </trkpt>
      <trkpt lat="45.87055" lon="6.1434">
        <ele>450</ele>
        <time>2021-09-11T09:40:06.218Z</time>
      </trkpt>
      <trkpt lat="45.87059" lon="6.14343">
        <ele>451</ele>
        <time>2021-09-11T09:40:07.218Z</time>
      </trkpt>
      <trkpt lat="45.87064" lon="6.14346">
        <ele>451</ele>
        <time>2021-09-11T09:40:08.217Z</time>
      </trkpt>
      <trkpt lat="45.87068" lon="6.14348">
        <ele>451</ele>
        <time>2021-09-11T09:40:09.218Z</time>
      </trkpt>
      <trkpt lat="45.87071" lon="6.1435">
        <ele>450</ele>
        <time>2021-09-11T09:40:10.218Z</time>
      </trkpt>
      <trkpt lat="45.87074" lon="6.14352">
        <ele>450</ele>
        <time>2021-09-11T09:40:11.217Z</time>
      </trkpt>
      <trkpt lat="45.87079" lon="6.14353">
        <ele>449</ele>
        <time>2021-09-11T09:40:12.217Z</time>
      </trkpt>
      <trkpt lat="45.87083" lon="6.14356">
        <ele>449</ele>
        <time>2021-09-11T09:40:13.218Z</time>
      </trkpt>
      <trkpt lat="45.87087" lon="6.14358">
        <ele>449</ele>
        <time>2021-09-11T09:40:14.217Z</time>
      </trkpt>
      <trkpt lat="45.87091" lon="6.14359">
        <ele>448</ele>
        <time>2021-09-11T09:40:15.218Z</time>
      </trkpt>
      <trkpt lat="45.87096" lon="6.14362">
        <ele>448</ele>
        <time>2021-09-11T09:40:16.218Z</time>
      </trkpt>
      <trkpt lat="45.871" lon="6.14364">
        <ele>447</ele>
        <time>2021-09-11T09:40:17.217Z</time>
      </trkpt>
      <trkpt lat="45.87104" lon="6.14365">
        <ele>447</ele>
        <time>2021-09-11T09:40:18.217Z</time>
      </trkpt>
      <trkpt lat="45.87109" lon="6.14368">
        <ele>447</ele>
        <time>2021-09-11T09:40:19.218Z</time>
      </trkpt>
      <trkpt lat="45.87112" lon="6.14369">
        <ele>447</ele>
        <time>2021-09-11T09:40:20.218Z</time>
      </trkpt>
      <trkpt lat="45.87116" lon="6.14371">
        <ele>447</ele>
        <time>2021-09-11T09:40:21.218Z</time>
      </trkpt>
      <trkpt lat="45.87121" lon="6.14373">
        <ele>447</ele>
        <time>2021-09-11T09:40:22.217Z</time>
      </trkpt>
      <trkpt lat="45.87126" lon="6.14374">
        <ele>447</ele>
        <time>2021-09-11T09:40:23.218Z</time>
      </trkpt>
      <trkpt lat="45.87129" lon="6.14375">
        <ele>447</ele>
        <time>2021-09-11T09:40:24.218Z</time>
      </trkpt>
      <trkpt lat="45.87133" lon="6.14377">
        <ele>447</ele>
        <time>2021-09-11T09:40:25.218Z</time>
      </trkpt>
      <trkpt lat="45.87137" lon="6.14378">
        <ele>448</ele>
        <time>2021-09-11T09:40:26.217Z</time>
      </trkpt>
      <trkpt lat="45.87142" lon="6.14379">
        <ele>449</ele>
        <time>2021-09-11T09:40:27.218Z</time>
      </trkpt>
      <trkpt lat="45.87147" lon="6.1438">
        <ele>449</ele>
        <time>2021-09-11T09:40:28.217Z</time>
      </trkpt>
      <trkpt lat="45.8715" lon="6.14381">
        <ele>449</ele>
        <time>2021-09-11T09:40:29.218Z</time>
      </trkpt>
      <trkpt lat="45.87155" lon="6.14381">
        <ele>448</ele>
        <time>2021-09-11T09:40:30.218Z</time>
      </trkpt>
      <trkpt lat="45.87159" lon="6.14382">
        <ele>448</ele>
        <time>2021-09-11T09:40:31.218Z</time>
      </trkpt>
      <trkpt lat="45.87164" lon="6.14382">
        <ele>447</ele>
        <time>2021-09-11T09:40:32.218Z</time>
      </trkpt>
      <trkpt lat="45.87167" lon="6.14383">
        <ele>447</ele>
        <time>2021-09-11T09:40:33.217Z</time>
      </trkpt>
      <trkpt lat="45.87172" lon="6.14383">
        <ele>447</ele>
        <time>2021-09-11T09:40:34.217Z</time>
      </trkpt>
      <trkpt lat="45.87175" lon="6.14383">
        <ele>447</ele>
        <time>2021-09-11T09:40:35.218Z</time>
      </trkpt>
      <trkpt lat="45.8718" lon="6.14384">
        <ele>447</ele>
        <time>2021-09-11T09:40:36.218Z</time>
      </trkpt>
      <trkpt lat="45.87184" lon="6.14384">
        <ele>447</ele>
        <time>2021-09-11T09:40:37.218Z</time>
      </trkpt>
      <trkpt lat="45.87188" lon="6.14385">
        <ele>447</ele>
        <time>2021-09-11T09:40:38.218Z</time>
      </trkpt>
      <trkpt lat="45.87193" lon="6.14386">
        <ele>448</ele>
        <time>2021-09-11T09:40:39.218Z</time>
      </trkpt>
      <trkpt lat="45.87197" lon="6.14386">
        <ele>447</ele>
        <time>2021-09-11T09:40:40.218Z</time>
      </trkpt>
      <trkpt lat="45.87202" lon="6.14386">
        <ele>447</ele>
        <time>2021-09-11T09:40:41.218Z</time>
      </trkpt>
      <trkpt lat="45.87208" lon="6.14387">
        <ele>447</ele>
        <time>2021-09-11T09:40:42.217Z</time>
      </trkpt>
      <trkpt lat="45.87212" lon="6.14387">
        <ele>446</ele>
        <time>2021-09-11T09:40:43.218Z</time>
      </trkpt>
      <trkpt lat="45.87216" lon="6.14387">
        <ele>446</ele>
        <time>2021-09-11T09:40:44.217Z</time>
      </trkpt>
      <trkpt lat="45.8722" lon="6.14387">
        <ele>446</ele>
        <time>2021-09-11T09:40:45.217Z</time>
      </trkpt>
      <trkpt lat="45.87226" lon="6.14386">
        <ele>446</ele>
        <time>2021-09-11T09:40:46.218Z</time>
      </trkpt>
      <trkpt lat="45.87229" lon="6.14386">
        <ele>446</ele>
        <time>2021-09-11T09:40:47.218Z</time>
      </trkpt>
      <trkpt lat="45.87234" lon="6.14386">
        <ele>446</ele>
        <time>2021-09-11T09:40:48.217Z</time>
      </trkpt>
      <trkpt lat="45.87238" lon="6.14384">
        <ele>446</ele>
        <time>2021-09-11T09:40:49.218Z</time>
      </trkpt>
      <trkpt lat="45.87242" lon="6.14383">
        <ele>447</ele>
        <time>2021-09-11T09:40:50.218Z</time>
      </trkpt>
      <trkpt lat="45.87246" lon="6.14382">
        <ele>447</ele>
        <time>2021-09-11T09:40:51.217Z</time>
      </trkpt>
      <trkpt lat="45.8725" lon="6.14382">
        <ele>448</ele>
        <time>2021-09-11T09:40:52.218Z</time>
      </trkpt>
      <trkpt lat="45.87254" lon="6.14381">
        <ele>448</ele>
        <time>2021-09-11T09:40:53.218Z</time>
      </trkpt>
      <trkpt lat="45.87258" lon="6.1438">
        <ele>448</ele>
        <time>2021-09-11T09:40:54.218Z</time>
      </trkpt>
      <trkpt lat="45.87262" lon="6.14379">
        <ele>448</ele>
        <time>2021-09-11T09:40:55.218Z</time>
      </trkpt>
      <trkpt lat="45.87266" lon="6.14378">
        <ele>448</ele>
        <time>2021-09-11T09:40:56.218Z</time>
      </trkpt>
      <trkpt lat="45.8727" lon="6.14377">
        <ele>448</ele>
        <time>2021-09-11T09:40:57.218Z</time>
      </trkpt>
      <trkpt lat="45.87274" lon="6.14376">
        <ele>448</ele>
        <time>2021-09-11T09:40:58.218Z</time>
      </trkpt>
      <trkpt lat="45.87279" lon="6.14374">
        <ele>448</ele>
        <time>2021-09-11T09:40:59.218Z</time>
      </trkpt>
      <trkpt lat="45.87282" lon="6.14373">
        <ele>448</ele>
        <time>2021-09-11T09:41:00.217Z</time>
      </trkpt>
      <trkpt lat="45.87287" lon="6.14372">
        <ele>448</ele>
        <time>2021-09-11T09:41:01.218Z</time>
      </trkpt>
      <trkpt lat="45.87292" lon="6.1437">
        <ele>448</ele>
        <time>2021-09-11T09:41:02.218Z</time>
      </trkpt>
      <trkpt lat="45.87296" lon="6.14369">
        <ele>449</ele>
        <time>2021-09-11T09:41:03.218Z</time>
      </trkpt>
      <trkpt lat="45.873" lon="6.14367">
        <ele>449</ele>
        <time>2021-09-11T09:41:04.218Z</time>
      </trkpt>
      <trkpt lat="45.87305" lon="6.14366">
        <ele>450</ele>
        <time>2021-09-11T09:41:05.217Z</time>
      </trkpt>
      <trkpt lat="45.87309" lon="6.14364">
        <ele>450</ele>
        <time>2021-09-11T09:41:06.218Z</time>
      </trkpt>
      <trkpt lat="45.87313" lon="6.14363">
        <ele>450</ele>
        <time>2021-09-11T09:41:07.217Z</time>
      </trkpt>
      <trkpt lat="45.87316" lon="6.14361">
        <ele>450</ele>
        <time>2021-09-11T09:41:08.218Z</time>
      </trkpt>
      <trkpt lat="45.8732" lon="6.1436">
        <ele>450</ele>
        <time>2021-09-11T09:41:09.218Z</time>
      </trkpt>
      <trkpt lat="45.87324" lon="6.14359">
        <ele>450</ele>
        <time>2021-09-11T09:41:10.218Z</time>
      </trkpt>
      <trkpt lat="45.87329" lon="6.14357">
        <ele>450</ele>
        <time>2021-09-11T09:41:11.218Z</time>
      </trkpt>
      <trkpt lat="45.87334" lon="6.14355">
        <ele>450</ele>
        <time>2021-09-11T09:41:12.217Z</time>
      </trkpt>
      <trkpt lat="45.87337" lon="6.14354">
        <ele>450</ele>
        <time>2021-09-11T09:41:13.218Z</time>
      </trkpt>
      <trkpt lat="45.87342" lon="6.14352">
        <ele>450</ele>
        <time>2021-09-11T09:41:14.218Z</time>
      </trkpt>
      <trkpt lat="45.87346" lon="6.1435">
        <ele>450</ele>
        <time>2021-09-11T09:41:15.217Z</time>
      </trkpt>
      <trkpt lat="45.87351" lon="6.14348">
        <ele>450</ele>
        <time>2021-09-11T09:41:16.218Z</time>
      </trkpt>
      <trkpt lat="45.87354" lon="6.14347">
        <ele>450</ele>
        <time>2021-09-11T09:41:17.218Z</time>
      </trkpt>
      <trkpt lat="45.87359" lon="6.14345">
        <ele>450</ele>
        <time>2021-09-11T09:41:18.218Z</time>
      </trkpt>
      <trkpt lat="45.87363" lon="6.14343">
        <ele>450</ele>
        <time>2021-09-11T09:41:19.218Z</time>
      </trkpt>
      <trkpt lat="45.87367" lon="6.14342">
        <ele>449</ele>
        <time>2021-09-11T09:41:20.218Z</time>
      </trkpt>
      <trkpt lat="45.87371" lon="6.14341">
        <ele>449</ele>
        <time>2021-09-11T09:41:21.218Z</time>
      </trkpt>
      <trkpt lat="45.87374" lon="6.1434">
        <ele>449</ele>
        <time>2021-09-11T09:41:22.218Z</time>
      </trkpt>
      <trkpt lat="45.87377" lon="6.14338">
        <ele>449</ele>
        <time>2021-09-11T09:41:23.218Z</time>
      </trkpt>
      <trkpt lat="45.87381" lon="6.14337">
        <ele>449</ele>
        <time>2021-09-11T09:41:24.217Z</time>
      </trkpt>
      <trkpt lat="45.87385" lon="6.14336">
        <ele>449</ele>
        <time>2021-09-11T09:41:25.218Z</time>
      </trkpt>
      <trkpt lat="45.87388" lon="6.14335">
        <ele>449</ele>
        <time>2021-09-11T09:41:26.218Z</time>
      </trkpt>
      <trkpt lat="45.87392" lon="6.14334">
        <ele>449</ele>
        <time>2021-09-11T09:41:27.217Z</time>
      </trkpt>
      <trkpt lat="45.87395" lon="6.14333">
        <ele>448</ele>
        <time>2021-09-11T09:41:28.217Z</time>
      </trkpt>
      <trkpt lat="45.874" lon="6.14331">
        <ele>448</ele>
        <time>2021-09-11T09:41:29.218Z</time>
      </trkpt>
      <trkpt lat="45.87404" lon="6.14329">
        <ele>448</ele>
        <time>2021-09-11T09:41:30.218Z</time>
      </trkpt>
      <trkpt lat="45.87408" lon="6.14328">
        <ele>448</ele>
        <time>2021-09-11T09:41:31.218Z</time>
      </trkpt>
      <trkpt lat="45.87411" lon="6.14326">
        <ele>448</ele>
        <time>2021-09-11T09:41:32.218Z</time>
      </trkpt>
      <trkpt lat="45.87416" lon="6.14324">
        <ele>448</ele>
        <time>2021-09-11T09:41:33.218Z</time>
      </trkpt>
      <trkpt lat="45.87421" lon="6.14323">
        <ele>448</ele>
        <time>2021-09-11T09:41:34.218Z</time>
      </trkpt>
      <trkpt lat="45.87425" lon="6.14322">
        <ele>448</ele>
        <time>2021-09-11T09:41:35.218Z</time>
      </trkpt>
      <trkpt lat="45.87429" lon="6.1432">
        <ele>449</ele>
        <time>2021-09-11T09:41:36.218Z</time>
      </trkpt>
      <trkpt lat="45.87433" lon="6.14319">
        <ele>449</ele>
        <time>2021-09-11T09:41:37.217Z</time>
      </trkpt>
      <trkpt lat="45.87437" lon="6.14317">
        <ele>449</ele>
        <time>2021-09-11T09:41:38.218Z</time>
      </trkpt>
      <trkpt lat="45.87441" lon="6.14315">
        <ele>449</ele>
        <time>2021-09-11T09:41:39.218Z</time>
      </trkpt>
      <trkpt lat="45.87445" lon="6.14314">
        <ele>449</ele>
        <time>2021-09-11T09:41:40.218Z</time>
      </trkpt>
      <trkpt lat="45.87448" lon="6.14313">
        <ele>450</ele>
        <time>2021-09-11T09:41:41.218Z</time>
      </trkpt>
      <trkpt lat="45.87452" lon="6.14312">
        <ele>450</ele>
        <time>2021-09-11T09:41:42.218Z</time>
      </trkpt>
      <trkpt lat="45.87457" lon="6.14311">
        <ele>450</ele>
        <time>2021-09-11T09:41:43.218Z</time>
      </trkpt>
      <trkpt lat="45.8746" lon="6.1431">
        <ele>450</ele>
        <time>2021-09-11T09:41:44.218Z</time>
      </trkpt>
      <trkpt lat="45.87464" lon="6.1431">
        <ele>450</ele>
        <time>2021-09-11T09:41:45.217Z</time>
      </trkpt>
      <trkpt lat="45.87468" lon="6.14309">
        <ele>450</ele>
        <time>2021-09-11T09:41:46.218Z</time>
      </trkpt>
      <trkpt lat="45.87471" lon="6.14308">
        <ele>450</ele>
        <time>2021-09-11T09:41:47.218Z</time>
      </trkpt>
      <trkpt lat="45.87475" lon="6.14307">
        <ele>450</ele>
        <time>2021-09-11T09:41:48.218Z</time>
      </trkpt>
      <trkpt lat="45.87479" lon="6.14307">
        <ele>450</ele>
        <time>2021-09-11T09:41:49.217Z</time>
      </trkpt>
      <trkpt lat="45.87483" lon="6.14307">
        <ele>450</ele>
        <time>2021-09-11T09:41:50.218Z</time>
      </trkpt>
      <trkpt lat="45.87486" lon="6.14307">
        <ele>449</ele>
        <time>2021-09-11T09:41:51.217Z</time>
      </trkpt>
      <trkpt lat="45.8749" lon="6.14306">
        <ele>449</ele>
        <time>2021-09-11T09:41:52.218Z</time>
      </trkpt>
      <trkpt lat="45.87493" lon="6.14306">
        <ele>449</ele>
        <time>2021-09-11T09:41:53.217Z</time>
      </trkpt>
      <trkpt lat="45.87498" lon="6.14306">
        <ele>449</ele>
        <time>2021-09-11T09:41:54.218Z</time>
      </trkpt>
      <trkpt lat="45.87501" lon="6.14305">
        <ele>449</ele>
        <time>2021-09-11T09:41:55.218Z</time>
      </trkpt>
      <trkpt lat="45.87505" lon="6.14305">
        <ele>449</ele>
        <time>2021-09-11T09:41:56.218Z</time>
      </trkpt>
      <trkpt lat="45.87508" lon="6.14305">
        <ele>450</ele>
        <time>2021-09-11T09:41:57.218Z</time>
      </trkpt>
      <trkpt lat="45.87513" lon="6.14304">
        <ele>450</ele>
        <time>2021-09-11T09:41:58.218Z</time>
      </trkpt>
      <trkpt lat="45.87517" lon="6.14305">
        <ele>450</ele>
        <time>2021-09-11T09:41:59.218Z</time>
      </trkpt>
      <trkpt lat="45.87521" lon="6.14305">
        <ele>450</ele>
        <time>2021-09-11T09:42:00.218Z</time>
      </trkpt>
      <trkpt lat="45.87524" lon="6.14305">
        <ele>450</ele>
        <time>2021-09-11T09:42:01.218Z</time>
      </trkpt>
      <trkpt lat="45.87529" lon="6.14305">
        <ele>450</ele>
        <time>2021-09-11T09:42:02.218Z</time>
      </trkpt>
      <trkpt lat="45.87533" lon="6.14306">
        <ele>450</ele>
        <time>2021-09-11T09:42:03.218Z</time>
      </trkpt>
      <trkpt lat="45.87537" lon="6.14306">
        <ele>451</ele>
        <time>2021-09-11T09:42:04.217Z</time>
      </trkpt>
      <trkpt lat="45.87541" lon="6.14306">
        <ele>451</ele>
        <time>2021-09-11T09:42:05.218Z</time>
      </trkpt>
      <trkpt lat="45.87544" lon="6.14307">
        <ele>451</ele>
        <time>2021-09-11T09:42:06.217Z</time>
      </trkpt>
      <trkpt lat="45.87548" lon="6.14307">
        <ele>451</ele>
        <time>2021-09-11T09:42:07.217Z</time>
      </trkpt>
      <trkpt lat="45.87551" lon="6.14307">
        <ele>451</ele>
        <time>2021-09-11T09:42:08.218Z</time>
      </trkpt>
      <trkpt lat="45.87555" lon="6.14307">
        <ele>451</ele>
        <time>2021-09-11T09:42:09.218Z</time>
      </trkpt>
      <trkpt lat="45.87558" lon="6.14307">
        <ele>451</ele>
        <time>2021-09-11T09:42:10.218Z</time>
      </trkpt>
      <trkpt lat="45.87561" lon="6.14307">
        <ele>451</ele>
        <time>2021-09-11T09:42:11.218Z</time>
      </trkpt>
      <trkpt lat="45.87565" lon="6.14307">
        <ele>451</ele>
        <time>2021-09-11T09:42:12.218Z</time>
      </trkpt>
      <trkpt lat="45.87569" lon="6.14308">
        <ele>451</ele>
        <time>2021-09-11T09:42:13.218Z</time>
      </trkpt>
      <trkpt lat="45.87573" lon="6.14308">
        <ele>451</ele>
        <time>2021-09-11T09:42:14.218Z</time>
      </trkpt>
      <trkpt lat="45.87577" lon="6.14308">
        <ele>451</ele>
        <time>2021-09-11T09:42:15.217Z</time>
      </trkpt>
      <trkpt lat="45.87582" lon="6.14308">
        <ele>451</ele>
        <time>2021-09-11T09:42:16.218Z</time>
      </trkpt>
      <trkpt lat="45.87586" lon="6.14308">
        <ele>451</ele>
        <time>2021-09-11T09:42:17.217Z</time>
      </trkpt>
      <trkpt lat="45.8759" lon="6.14308">
        <ele>450</ele>
        <time>2021-09-11T09:42:18.218Z</time>
      </trkpt>
      <trkpt lat="45.87594" lon="6.14309">
        <ele>450</ele>
        <time>2021-09-11T09:42:19.218Z</time>
      </trkpt>
      <trkpt lat="45.87597" lon="6.14309">
        <ele>450</ele>
        <time>2021-09-11T09:42:20.217Z</time>
      </trkpt>
      <trkpt lat="45.87602" lon="6.14309">
        <ele>450</ele>
        <time>2021-09-11T09:42:21.217Z</time>
      </trkpt>
      <trkpt lat="45.87606" lon="6.14309">
        <ele>450</ele>
        <time>2021-09-11T09:42:22.217Z</time>
      </trkpt>
      <trkpt lat="45.8761" lon="6.1431">
        <ele>450</ele>
        <time>2021-09-11T09:42:23.218Z</time>
      </trkpt>
      <trkpt lat="45.87615" lon="6.1431">
        <ele>450</ele>
        <time>2021-09-11T09:42:24.218Z</time>
      </trkpt>
      <trkpt lat="45.87618" lon="6.1431">
        <ele>450</ele>
        <time>2021-09-11T09:42:25.218Z</time>
      </trkpt>
      <trkpt lat="45.87623" lon="6.1431">
        <ele>450</ele>
        <time>2021-09-11T09:42:26.218Z</time>
      </trkpt>
      <trkpt lat="45.87627" lon="6.1431">
        <ele>450</ele>
        <time>2021-09-11T09:42:27.218Z</time>
      </trkpt>
      <trkpt lat="45.87632" lon="6.1431">
        <ele>450</ele>
        <time>2021-09-11T09:42:28.217Z</time>
      </trkpt>
      <trkpt lat="45.87636" lon="6.1431">
        <ele>450</ele>
        <time>2021-09-11T09:42:29.218Z</time>
      </trkpt>
      <trkpt lat="45.8764" lon="6.1431">
        <ele>450</ele>
        <time>2021-09-11T09:42:30.218Z</time>
      </trkpt>
      <trkpt lat="45.87646" lon="6.1431">
        <ele>450</ele>
        <time>2021-09-11T09:42:31.218Z</time>
      </trkpt>
      <trkpt lat="45.8765" lon="6.1431">
        <ele>450</ele>
        <time>2021-09-11T09:42:32.217Z</time>
      </trkpt>
      <trkpt lat="45.87655" lon="6.1431">
        <ele>450</ele>
        <time>2021-09-11T09:42:33.218Z</time>
      </trkpt>
      <trkpt lat="45.87658" lon="6.14309">
        <ele>450</ele>
        <time>2021-09-11T09:42:34.218Z</time>
      </trkpt>
      <trkpt lat="45.87663" lon="6.14309">
        <ele>450</ele>
        <time>2021-09-11T09:42:35.218Z</time>
      </trkpt>
      <trkpt lat="45.87667" lon="6.14308">
        <ele>450</ele>
        <time>2021-09-11T09:42:36.218Z</time>
      </trkpt>
      <trkpt lat="45.87672" lon="6.14307">
        <ele>450</ele>
        <time>2021-09-11T09:42:37.218Z</time>
      </trkpt>
      <trkpt lat="45.87677" lon="6.14306">
        <ele>450</ele>
        <time>2021-09-11T09:42:38.218Z</time>
      </trkpt>
      <trkpt lat="45.87681" lon="6.14305">
        <ele>450</ele>
        <time>2021-09-11T09:42:39.218Z</time>
      </trkpt>
      <trkpt lat="45.87684" lon="6.14304">
        <ele>450</ele>
        <time>2021-09-11T09:42:40.218Z</time>
      </trkpt>
      <trkpt lat="45.87689" lon="6.14303">
        <ele>450</ele>
        <time>2021-09-11T09:42:41.218Z</time>
      </trkpt>
      <trkpt lat="45.87693" lon="6.14303">
        <ele>450</ele>
        <time>2021-09-11T09:42:42.217Z</time>
      </trkpt>
      <trkpt lat="45.87697" lon="6.14302">
        <ele>450</ele>
        <time>2021-09-11T09:42:43.218Z</time>
      </trkpt>
      <trkpt lat="45.87701" lon="6.14301">
        <ele>450</ele>
        <time>2021-09-11T09:42:44.218Z</time>
      </trkpt>
      <trkpt lat="45.87704" lon="6.14301">
        <ele>450</ele>
        <time>2021-09-11T09:42:45.217Z</time>
      </trkpt>
      <trkpt lat="45.87708" lon="6.14299">
        <ele>450</ele>
        <time>2021-09-11T09:42:46.218Z</time>
      </trkpt>
      <trkpt lat="45.87712" lon="6.14298">
        <ele>450</ele>
        <time>2021-09-11T09:42:47.218Z</time>
      </trkpt>
      <trkpt lat="45.87714" lon="6.14298">
        <ele>450</ele>
        <time>2021-09-11T09:42:48.217Z</time>
      </trkpt>
      <trkpt lat="45.87718" lon="6.14297">
        <ele>449</ele>
        <time>2021-09-11T09:42:49.218Z</time>
      </trkpt>
      <trkpt lat="45.87721" lon="6.14296">
        <ele>449</ele>
        <time>2021-09-11T09:42:50.217Z</time>
      </trkpt>
      <trkpt lat="45.87726" lon="6.14295">
        <ele>449</ele>
        <time>2021-09-11T09:42:51.218Z</time>
      </trkpt>
      <trkpt lat="45.87729" lon="6.14293">
        <ele>449</ele>
        <time>2021-09-11T09:42:52.217Z</time>
      </trkpt>
      <trkpt lat="45.87733" lon="6.14292">
        <ele>449</ele>
        <time>2021-09-11T09:42:53.218Z</time>
      </trkpt>
      <trkpt lat="45.87737" lon="6.14291">
        <ele>449</ele>
        <time>2021-09-11T09:42:54.218Z</time>
      </trkpt>
      <trkpt lat="45.8774" lon="6.1429">
        <ele>450</ele>
        <time>2021-09-11T09:42:55.218Z</time>
      </trkpt>
      <trkpt lat="45.87744" lon="6.14289">
        <ele>450</ele>
        <time>2021-09-11T09:42:56.218Z</time>
      </trkpt>
      <trkpt lat="45.87749" lon="6.14287">
        <ele>450</ele>
        <time>2021-09-11T09:42:57.218Z</time>
      </trkpt>
      <trkpt lat="45.87752" lon="6.14285">
        <ele>450</ele>
        <time>2021-09-11T09:42:58.217Z</time>
      </trkpt>
      <trkpt lat="45.87756" lon="6.14284">
        <ele>450</ele>
        <time>2021-09-11T09:42:59.217Z</time>
      </trkpt>
      <trkpt lat="45.87759" lon="6.14282">
        <ele>449</ele>
        <time>2021-09-11T09:43:00.218Z</time>
      </trkpt>
      <trkpt lat="45.87764" lon="6.1428">
        <ele>449</ele>
        <time>2021-09-11T09:43:01.218Z</time>
      </trkpt>
      <trkpt lat="45.87768" lon="6.14278">
        <ele>450</ele>
        <time>2021-09-11T09:43:02.218Z</time>
      </trkpt>
      <trkpt lat="45.87771" lon="6.14277">
        <ele>450</ele>
        <time>2021-09-11T09:43:03.218Z</time>
      </trkpt>
      <trkpt lat="45.87776" lon="6.14276">
        <ele>450</ele>
        <time>2021-09-11T09:43:04.217Z</time>
      </trkpt>
      <trkpt lat="45.87781" lon="6.14275">
        <ele>449</ele>
        <time>2021-09-11T09:43:05.218Z</time>
      </trkpt>
      <trkpt lat="45.87785" lon="6.14273">
        <ele>449</ele>
        <time>2021-09-11T09:43:06.217Z</time>
      </trkpt>
      <trkpt lat="45.87789" lon="6.14272">
        <ele>449</ele>
        <time>2021-09-11T09:43:07.218Z</time>
      </trkpt>
      <trkpt lat="45.87794" lon="6.14271">
        <ele>449</ele>
        <time>2021-09-11T09:43:08.218Z</time>
      </trkpt>
      <trkpt lat="45.87797" lon="6.1427">
        <ele>449</ele>
        <time>2021-09-11T09:43:09.217Z</time>
      </trkpt>
      <trkpt lat="45.87802" lon="6.14268">
        <ele>449</ele>
        <time>2021-09-11T09:43:10.217Z</time>
      </trkpt>
      <trkpt lat="45.87806" lon="6.14267">
        <ele>449</ele>
        <time>2021-09-11T09:43:11.218Z</time>
      </trkpt>
      <trkpt lat="45.87809" lon="6.14266">
        <ele>450</ele>
        <time>2021-09-11T09:43:12.218Z</time>
      </trkpt>
      <trkpt lat="45.87813" lon="6.14265">
        <ele>450</ele>
        <time>2021-09-11T09:43:13.218Z</time>
      </trkpt>
      <trkpt lat="45.87817" lon="6.14264">
        <ele>450</ele>
        <time>2021-09-11T09:43:14.217Z</time>
      </trkpt>
      <trkpt lat="45.87823" lon="6.14263">
        <ele>450</ele>
        <time>2021-09-11T09:43:15.218Z</time>
      </trkpt>
      <trkpt lat="45.87827" lon="6.14263">
        <ele>450</ele>
        <time>2021-09-11T09:43:16.218Z</time>
      </trkpt>
      <trkpt lat="45.87831" lon="6.14262">
        <ele>450</ele>
        <time>2021-09-11T09:43:17.218Z</time>
      </trkpt>
      <trkpt lat="45.87836" lon="6.14262">
        <ele>450</ele>
        <time>2021-09-11T09:43:18.217Z</time>
      </trkpt>
      <trkpt lat="45.87839" lon="6.14262">
        <ele>450</ele>
        <time>2021-09-11T09:43:19.218Z</time>
      </trkpt>
      <trkpt lat="45.87845" lon="6.14261">
        <ele>450</ele>
        <time>2021-09-11T09:43:20.218Z</time>
      </trkpt>
      <trkpt lat="45.87849" lon="6.1426">
        <ele>451</ele>
        <time>2021-09-11T09:43:21.218Z</time>
      </trkpt>
      <trkpt lat="45.87854" lon="6.1426">
        <ele>450</ele>
        <time>2021-09-11T09:43:22.218Z</time>
      </trkpt>
      <trkpt lat="45.87858" lon="6.1426">
        <ele>450</ele>
        <time>2021-09-11T09:43:23.217Z</time>
      </trkpt>
      <trkpt lat="45.87862" lon="6.14259">
        <ele>450</ele>
        <time>2021-09-11T09:43:24.218Z</time>
      </trkpt>
      <trkpt lat="45.87867" lon="6.1426">
        <ele>450</ele>
        <time>2021-09-11T09:43:25.218Z</time>
      </trkpt>
      <trkpt lat="45.87871" lon="6.1426">
        <ele>450</ele>
        <time>2021-09-11T09:43:26.217Z</time>
      </trkpt>
      <trkpt lat="45.87875" lon="6.1426">
        <ele>450</ele>
        <time>2021-09-11T09:43:27.217Z</time>
      </trkpt>
      <trkpt lat="45.87879" lon="6.1426">
        <ele>450</ele>
        <time>2021-09-11T09:43:28.217Z</time>
      </trkpt>
      <trkpt lat="45.87884" lon="6.14261">
        <ele>450</ele>
        <time>2021-09-11T09:43:29.218Z</time>
      </trkpt>
      <trkpt lat="45.87888" lon="6.14261">
        <ele>450</ele>
        <time>2021-09-11T09:43:30.218Z</time>
      </trkpt>
      <trkpt lat="45.87893" lon="6.14262">
        <ele>450</ele>
        <time>2021-09-11T09:43:31.218Z</time>
      </trkpt>
      <trkpt lat="45.87897" lon="6.14263">
        <ele>450</ele>
        <time>2021-09-11T09:43:32.218Z</time>
      </trkpt>
      <trkpt lat="45.87902" lon="6.14264">
        <ele>450</ele>
        <time>2021-09-11T09:43:33.218Z</time>
      </trkpt>
      <trkpt lat="45.87906" lon="6.14265">
        <ele>450</ele>
        <time>2021-09-11T09:43:34.218Z</time>
      </trkpt>
      <trkpt lat="45.87911" lon="6.14265">
        <ele>450</ele>
        <time>2021-09-11T09:43:35.218Z</time>
      </trkpt>
      <trkpt lat="45.87915" lon="6.14265">
        <ele>450</ele>
        <time>2021-09-11T09:43:36.218Z</time>
      </trkpt>
      <trkpt lat="45.87919" lon="6.14266">
        <ele>450</ele>
        <time>2021-09-11T09:43:37.218Z</time>
      </trkpt>
      <trkpt lat="45.87923" lon="6.14266">
        <ele>450</ele>
        <time>2021-09-11T09:43:38.218Z</time>
      </trkpt>
      <trkpt lat="45.87929" lon="6.14266">
        <ele>450</ele>
        <time>2021-09-11T09:43:39.218Z</time>
      </trkpt>
      <trkpt lat="45.87933" lon="6.14267">
        <ele>450</ele>
        <time>2021-09-11T09:43:40.218Z</time>
      </trkpt>
      <trkpt lat="45.87938" lon="6.14267">
        <ele>450</ele>
        <time>2021-09-11T09:43:41.218Z</time>
      </trkpt>
      <trkpt lat="45.87941" lon="6.14268">
        <ele>450</ele>
        <time>2021-09-11T09:43:42.217Z</time>
      </trkpt>
      <trkpt lat="45.87946" lon="6.14268">
        <ele>450</ele>
        <time>2021-09-11T09:43:43.217Z</time>
      </trkpt>
      <trkpt lat="45.87952" lon="6.14268">
        <ele>450</ele>
        <time>2021-09-11T09:43:44.218Z</time>
      </trkpt>
      <trkpt lat="45.87956" lon="6.14268">
        <ele>450</ele>
        <time>2021-09-11T09:43:45.218Z</time>
      </trkpt>
      <trkpt lat="45.87961" lon="6.14268">
        <ele>450</ele>
        <time>2021-09-11T09:43:46.218Z</time>
      </trkpt>
      <trkpt lat="45.87964" lon="6.14268">
        <ele>450</ele>
        <time>2021-09-11T09:43:47.218Z</time>
      </trkpt>
      <trkpt lat="45.8797" lon="6.14268">
        <ele>450</ele>
        <time>2021-09-11T09:43:48.218Z</time>
      </trkpt>
      <trkpt lat="45.87974" lon="6.14269">
        <ele>450</ele>
        <time>2021-09-11T09:43:49.217Z</time>
      </trkpt>
      <trkpt lat="45.87979" lon="6.14269">
        <ele>450</ele>
        <time>2021-09-11T09:43:50.217Z</time>
      </trkpt>
      <trkpt lat="45.87983" lon="6.14268">
        <ele>450</ele>
        <time>2021-09-11T09:43:51.217Z</time>
      </trkpt>
      <trkpt lat="45.87988" lon="6.14268">
        <ele>450</ele>
        <time>2021-09-11T09:43:52.218Z</time>
      </trkpt>
      <trkpt lat="45.87992" lon="6.14268">
        <ele>450</ele>
        <time>2021-09-11T09:43:53.218Z</time>
      </trkpt>
      <trkpt lat="45.87997" lon="6.14267">
        <ele>450</ele>
        <time>2021-09-11T09:43:54.218Z</time>
      </trkpt>
      <trkpt lat="45.88002" lon="6.14266">
        <ele>450</ele>
        <time>2021-09-11T09:43:55.218Z</time>
      </trkpt>
      <trkpt lat="45.88006" lon="6.14265">
        <ele>450</ele>
        <time>2021-09-11T09:43:56.218Z</time>
      </trkpt>
      <trkpt lat="45.8801" lon="6.14264">
        <ele>450</ele>
        <time>2021-09-11T09:43:57.218Z</time>
      </trkpt>
      <trkpt lat="45.88014" lon="6.14263">
        <ele>450</ele>
        <time>2021-09-11T09:43:58.218Z</time>
      </trkpt>
      <trkpt lat="45.8802" lon="6.14262">
        <ele>450</ele>
        <time>2021-09-11T09:43:59.217Z</time>
      </trkpt>
      <trkpt lat="45.88024" lon="6.14261">
        <ele>450</ele>
        <time>2021-09-11T09:44:00.217Z</time>
      </trkpt>
      <trkpt lat="45.88029" lon="6.1426">
        <ele>450</ele>
        <time>2021-09-11T09:44:01.218Z</time>
      </trkpt>
      <trkpt lat="45.88032" lon="6.14259">
        <ele>450</ele>
        <time>2021-09-11T09:44:02.218Z</time>
      </trkpt>
      <trkpt lat="45.88038" lon="6.14258">
        <ele>450</ele>
        <time>2021-09-11T09:44:03.218Z</time>
      </trkpt>
      <trkpt lat="45.88042" lon="6.14256">
        <ele>450</ele>
        <time>2021-09-11T09:44:04.217Z</time>
      </trkpt>
      <trkpt lat="45.88046" lon="6.14255">
        <ele>450</ele>
        <time>2021-09-11T09:44:05.218Z</time>
      </trkpt>
      <trkpt lat="45.8805" lon="6.14254">
        <ele>451</ele>
        <time>2021-09-11T09:44:06.218Z</time>
      </trkpt>
      <trkpt lat="45.88055" lon="6.14252">
        <ele>451</ele>
        <time>2021-09-11T09:44:07.217Z</time>
      </trkpt>
      <trkpt lat="45.88059" lon="6.1425">
        <ele>450</ele>
        <time>2021-09-11T09:44:08.218Z</time>
      </trkpt>
      <trkpt lat="45.88063" lon="6.14248">
        <ele>450</ele>
        <time>2021-09-11T09:44:09.218Z</time>
      </trkpt>
      <trkpt lat="45.88067" lon="6.14246">
        <ele>450</ele>
        <time>2021-09-11T09:44:10.218Z</time>
      </trkpt>
      <trkpt lat="45.88071" lon="6.14245">
        <ele>450</ele>
        <time>2021-09-11T09:44:11.218Z</time>
      </trkpt>
      <trkpt lat="45.88076" lon="6.14242">
        <ele>450</ele>
        <time>2021-09-11T09:44:12.217Z</time>
      </trkpt>
      <trkpt lat="45.8808" lon="6.1424">
        <ele>450</ele>
        <time>2021-09-11T09:44:13.218Z</time>
      </trkpt>
      <trkpt lat="45.88084" lon="6.14238">
        <ele>450</ele>
        <time>2021-09-11T09:44:14.218Z</time>
      </trkpt>
      <trkpt lat="45.88087" lon="6.14236">
        <ele>450</ele>
        <time>2021-09-11T09:44:15.218Z</time>
      </trkpt>
      <trkpt lat="45.88091" lon="6.14232">
        <ele>451</ele>
        <time>2021-09-11T09:44:16.218Z</time>
      </trkpt>
      <trkpt lat="45.88096" lon="6.1423">
        <ele>451</ele>
        <time>2021-09-11T09:44:17.217Z</time>
      </trkpt>
      <trkpt lat="45.881" lon="6.14228">
        <ele>451</ele>
        <time>2021-09-11T09:44:18.217Z</time>
      </trkpt>
      <trkpt lat="45.88104" lon="6.14225">
        <ele>451</ele>
        <time>2021-09-11T09:44:19.217Z</time>
      </trkpt>
      <trkpt lat="45.88108" lon="6.14223">
        <ele>451</ele>
        <time>2021-09-11T09:44:20.217Z</time>
      </trkpt>
      <trkpt lat="45.88112" lon="6.14219">
        <ele>452</ele>
        <time>2021-09-11T09:44:21.217Z</time>
      </trkpt>
      <trkpt lat="45.88118" lon="6.14216">
        <ele>451</ele>
        <time>2021-09-11T09:44:22.218Z</time>
      </trkpt>
      <trkpt lat="45.88122" lon="6.14212">
        <ele>451</ele>
        <time>2021-09-11T09:44:23.218Z</time>
      </trkpt>
      <trkpt lat="45.88126" lon="6.14209">
        <ele>450</ele>
        <time>2021-09-11T09:44:24.218Z</time>
      </trkpt>
      <trkpt lat="45.88129" lon="6.14206">
        <ele>450</ele>
        <time>2021-09-11T09:44:25.217Z</time>
      </trkpt>
      <trkpt lat="45.88134" lon="6.14204">
        <ele>450</ele>
        <time>2021-09-11T09:44:26.218Z</time>
      </trkpt>
      <trkpt lat="45.88139" lon="6.14202">
        <ele>450</ele>
        <time>2021-09-11T09:44:27.218Z</time>
      </trkpt>
      <trkpt lat="45.88144" lon="6.14202">
        <ele>450</ele>
        <time>2021-09-11T09:44:28.217Z</time>
      </trkpt>
      <trkpt lat="45.88148" lon="6.14201">
        <ele>450</ele>
        <time>2021-09-11T09:44:29.218Z</time>
      </trkpt>
      <trkpt lat="45.88151" lon="6.14201">
        <ele>450</ele>
        <time>2021-09-11T09:44:30.217Z</time>
      </trkpt>
      <trkpt lat="45.88154" lon="6.14201">
        <ele>450</ele>
        <time>2021-09-11T09:44:31.218Z</time>
      </trkpt>
      <trkpt lat="45.88159" lon="6.14201">
        <ele>451</ele>
        <time>2021-09-11T09:44:32.217Z</time>
      </trkpt>
      <trkpt lat="45.88162" lon="6.14201">
        <ele>451</ele>
        <time>2021-09-11T09:44:33.217Z</time>
      </trkpt>
      <trkpt lat="45.88167" lon="6.14201">
        <ele>451</ele>
        <time>2021-09-11T09:44:34.218Z</time>
      </trkpt>
      <trkpt lat="45.88171" lon="6.14201">
        <ele>451</ele>
        <time>2021-09-11T09:44:35.218Z</time>
      </trkpt>
      <trkpt lat="45.88175" lon="6.14201">
        <ele>450</ele>
        <time>2021-09-11T09:44:36.218Z</time>
      </trkpt>
      <trkpt lat="45.8818" lon="6.14201">
        <ele>451</ele>
        <time>2021-09-11T09:44:37.218Z</time>
      </trkpt>
      <trkpt lat="45.88184" lon="6.14201">
        <ele>451</ele>
        <time>2021-09-11T09:44:38.217Z</time>
      </trkpt>
      <trkpt lat="45.88188" lon="6.14201">
        <ele>451</ele>
        <time>2021-09-11T09:44:39.218Z</time>
      </trkpt>
      <trkpt lat="45.88193" lon="6.14201">
        <ele>451</ele>
        <time>2021-09-11T09:44:40.217Z</time>
      </trkpt>
      <trkpt lat="45.882" lon="6.14201">
        <ele>451</ele>
        <time>2021-09-11T09:44:41.218Z</time>
      </trkpt>
      <trkpt lat="45.88205" lon="6.14201">
        <ele>450</ele>
        <time>2021-09-11T09:44:42.218Z</time>
      </trkpt>
      <trkpt lat="45.88211" lon="6.14201">
        <ele>450</ele>
        <time>2021-09-11T09:44:43.218Z</time>
      </trkpt>
      <trkpt lat="45.88216" lon="6.14201">
        <ele>449</ele>
        <time>2021-09-11T09:44:44.218Z</time>
      </trkpt>
      <trkpt lat="45.88223" lon="6.14201">
        <ele>449</ele>
        <time>2021-09-11T09:44:45.218Z</time>
      </trkpt>
      <trkpt lat="45.88229" lon="6.14201">
        <ele>449</ele>
        <time>2021-09-11T09:44:46.217Z</time>
      </trkpt>
      <trkpt lat="45.88236" lon="6.142">
        <ele>449</ele>
        <time>2021-09-11T09:44:47.218Z</time>
      </trkpt>
      <trkpt lat="45.88242" lon="6.142">
        <ele>449</ele>
        <time>2021-09-11T09:44:48.218Z</time>
      </trkpt>
      <trkpt lat="45.88247" lon="6.142">
        <ele>449</ele>
        <time>2021-09-11T09:44:49.217Z</time>
      </trkpt>
      <trkpt lat="45.88255" lon="6.142">
        <ele>449</ele>
        <time>2021-09-11T09:44:50.217Z</time>
      </trkpt>
      <trkpt lat="45.88262" lon="6.142">
        <ele>449</ele>
        <time>2021-09-11T09:44:51.217Z</time>
      </trkpt>
      <trkpt lat="45.88268" lon="6.142">
        <ele>449</ele>
        <time>2021-09-11T09:44:52.218Z</time>
      </trkpt>
      <trkpt lat="45.88273" lon="6.142">
        <ele>448</ele>
        <time>2021-09-11T09:44:53.218Z</time>
      </trkpt>
      <trkpt lat="45.88277" lon="6.142">
        <ele>448</ele>
        <time>2021-09-11T09:44:54.218Z</time>
      </trkpt>
      <trkpt lat="45.88283" lon="6.14201">
        <ele>447</ele>
        <time>2021-09-11T09:44:55.217Z</time>
      </trkpt>
      <trkpt lat="45.88289" lon="6.14201">
        <ele>447</ele>
        <time>2021-09-11T09:44:56.217Z</time>
      </trkpt>
      <trkpt lat="45.88295" lon="6.14201">
        <ele>447</ele>
        <time>2021-09-11T09:44:57.217Z</time>
      </trkpt>
      <trkpt lat="45.883" lon="6.14202">
        <ele>446</ele>
        <time>2021-09-11T09:44:58.218Z</time>
      </trkpt>
      <trkpt lat="45.88304" lon="6.14202">
        <ele>445</ele>
        <time>2021-09-11T09:44:59.218Z</time>
      </trkpt>
      <trkpt lat="45.88309" lon="6.14203">
        <ele>445</ele>
        <time>2021-09-11T09:45:00.218Z</time>
      </trkpt>
      <trkpt lat="45.88315" lon="6.14203">
        <ele>444</ele>
        <time>2021-09-11T09:45:01.218Z</time>
      </trkpt>
      <trkpt lat="45.8832" lon="6.14204">
        <ele>444</ele>
        <time>2021-09-11T09:45:02.218Z</time>
      </trkpt>
      <trkpt lat="45.88326" lon="6.14205">
        <ele>444</ele>
        <time>2021-09-11T09:45:03.217Z</time>
      </trkpt>
      <trkpt lat="45.88331" lon="6.14205">
        <ele>444</ele>
        <time>2021-09-11T09:45:04.218Z</time>
      </trkpt>
      <trkpt lat="45.88337" lon="6.14206">
        <ele>444</ele>
        <time>2021-09-11T09:45:05.217Z</time>
      </trkpt>
      <trkpt lat="45.88343" lon="6.14208">
        <ele>444</ele>
        <time>2021-09-11T09:45:06.217Z</time>
      </trkpt>
      <trkpt lat="45.88348" lon="6.14209">
        <ele>445</ele>
        <time>2021-09-11T09:45:07.218Z</time>
      </trkpt>
      <trkpt lat="45.88353" lon="6.1421">
        <ele>445</ele>
        <time>2021-09-11T09:45:08.217Z</time>
      </trkpt>
      <trkpt lat="45.88357" lon="6.14211">
        <ele>445</ele>
        <time>2021-09-11T09:45:09.217Z</time>
      </trkpt>
      <trkpt lat="45.88362" lon="6.14212">
        <ele>445</ele>
        <time>2021-09-11T09:45:10.218Z</time>
      </trkpt>
      <trkpt lat="45.88367" lon="6.14213">
        <ele>445</ele>
        <time>2021-09-11T09:45:11.218Z</time>
      </trkpt>
      <trkpt lat="45.88372" lon="6.14214">
        <ele>445</ele>
        <time>2021-09-11T09:45:12.218Z</time>
      </trkpt>
      <trkpt lat="45.88377" lon="6.14215">
        <ele>445</ele>
        <time>2021-09-11T09:45:13.217Z</time>
      </trkpt>
      <trkpt lat="45.88382" lon="6.14217">
        <ele>445</ele>
        <time>2021-09-11T09:45:14.217Z</time>
      </trkpt>
      <trkpt lat="45.88388" lon="6.14218">
        <ele>446</ele>
        <time>2021-09-11T09:45:15.218Z</time>
      </trkpt>
      <trkpt lat="45.88391" lon="6.14219">
        <ele>446</ele>
        <time>2021-09-11T09:45:16.218Z</time>
      </trkpt>
      <trkpt lat="45.88397" lon="6.1422">
        <ele>447</ele>
        <time>2021-09-11T09:45:17.218Z</time>
      </trkpt>
      <trkpt lat="45.88402" lon="6.14221">
        <ele>447</ele>
        <time>2021-09-11T09:45:18.218Z</time>
      </trkpt>
      <trkpt lat="45.88407" lon="6.14222">
        <ele>447</ele>
        <time>2021-09-11T09:45:19.218Z</time>
      </trkpt>
      <trkpt lat="45.88412" lon="6.14222">
        <ele>447</ele>
        <time>2021-09-11T09:45:20.218Z</time>
      </trkpt>
      <trkpt lat="45.88417" lon="6.14222">
        <ele>447</ele>
        <time>2021-09-11T09:45:21.218Z</time>
      </trkpt>
      <trkpt lat="45.88422" lon="6.14223">
        <ele>447</ele>
        <time>2021-09-11T09:45:22.217Z</time>
      </trkpt>
      <trkpt lat="45.88426" lon="6.14223">
        <ele>447</ele>
        <time>2021-09-11T09:45:23.217Z</time>
      </trkpt>
      <trkpt lat="45.88432" lon="6.14224">
        <ele>447</ele>
        <time>2021-09-11T09:45:24.218Z</time>
      </trkpt>
      <trkpt lat="45.88437" lon="6.14225">
        <ele>447</ele>
        <time>2021-09-11T09:45:25.218Z</time>
      </trkpt>
      <trkpt lat="45.88441" lon="6.14225">
        <ele>447</ele>
        <time>2021-09-11T09:45:26.218Z</time>
      </trkpt>
      <trkpt lat="45.88447" lon="6.14226">
        <ele>447</ele>
        <time>2021-09-11T09:45:27.218Z</time>
      </trkpt>
      <trkpt lat="45.88452" lon="6.14226">
        <ele>448</ele>
        <time>2021-09-11T09:45:28.217Z</time>
      </trkpt>
      <trkpt lat="45.88457" lon="6.14227">
        <ele>448</ele>
        <time>2021-09-11T09:45:29.217Z</time>
      </trkpt>
      <trkpt lat="45.88461" lon="6.14228">
        <ele>448</ele>
        <time>2021-09-11T09:45:30.217Z</time>
      </trkpt>
      <trkpt lat="45.88465" lon="6.14228">
        <ele>447</ele>
        <time>2021-09-11T09:45:31.217Z</time>
      </trkpt>
      <trkpt lat="45.88471" lon="6.14229">
        <ele>448</ele>
        <time>2021-09-11T09:45:32.218Z</time>
      </trkpt>
      <trkpt lat="45.88475" lon="6.14229">
        <ele>448</ele>
        <time>2021-09-11T09:45:33.218Z</time>
      </trkpt>
      <trkpt lat="45.8848" lon="6.1423">
        <ele>448</ele>
        <time>2021-09-11T09:45:34.218Z</time>
      </trkpt>
      <trkpt lat="45.88483" lon="6.14231">
        <ele>449</ele>
        <time>2021-09-11T09:45:35.218Z</time>
      </trkpt>
      <trkpt lat="45.88489" lon="6.14232">
        <ele>449</ele>
        <time>2021-09-11T09:45:36.218Z</time>
      </trkpt>
      <trkpt lat="45.88494" lon="6.14233">
        <ele>449</ele>
        <time>2021-09-11T09:45:37.217Z</time>
      </trkpt>
      <trkpt lat="45.88497" lon="6.14233">
        <ele>449</ele>
        <time>2021-09-11T09:45:38.217Z</time>
      </trkpt>
      <trkpt lat="45.88501" lon="6.14234">
        <ele>449</ele>
        <time>2021-09-11T09:45:39.217Z</time>
      </trkpt>
      <trkpt lat="45.88506" lon="6.14236">
        <ele>449</ele>
        <time>2021-09-11T09:45:40.218Z</time>
      </trkpt>
      <trkpt lat="45.88511" lon="6.14237">
        <ele>449</ele>
        <time>2021-09-11T09:45:41.218Z</time>
      </trkpt>
      <trkpt lat="45.88516" lon="6.14238">
        <ele>449</ele>
        <time>2021-09-11T09:45:42.217Z</time>
      </trkpt>
      <trkpt lat="45.88521" lon="6.14239">
        <ele>449</ele>
        <time>2021-09-11T09:45:43.218Z</time>
      </trkpt>
      <trkpt lat="45.88524" lon="6.1424">
        <ele>449</ele>
        <time>2021-09-11T09:45:44.218Z</time>
      </trkpt>
      <trkpt lat="45.88529" lon="6.14241">
        <ele>449</ele>
        <time>2021-09-11T09:45:45.217Z</time>
      </trkpt>
      <trkpt lat="45.88533" lon="6.14242">
        <ele>449</ele>
        <time>2021-09-11T09:45:46.217Z</time>
      </trkpt>
      <trkpt lat="45.88539" lon="6.14244">
        <ele>449</ele>
        <time>2021-09-11T09:45:47.217Z</time>
      </trkpt>
      <trkpt lat="45.88544" lon="6.14245">
        <ele>449</ele>
        <time>2021-09-11T09:45:48.217Z</time>
      </trkpt>
      <trkpt lat="45.88548" lon="6.14247">
        <ele>449</ele>
        <time>2021-09-11T09:45:49.218Z</time>
      </trkpt>
      <trkpt lat="45.88552" lon="6.14249">
        <ele>448</ele>
        <time>2021-09-11T09:45:50.218Z</time>
      </trkpt>
      <trkpt lat="45.88557" lon="6.1425">
        <ele>448</ele>
        <time>2021-09-11T09:45:51.217Z</time>
      </trkpt>
      <trkpt lat="45.88561" lon="6.14253">
        <ele>448</ele>
        <time>2021-09-11T09:45:52.218Z</time>
      </trkpt>
      <trkpt lat="45.88565" lon="6.14255">
        <ele>448</ele>
        <time>2021-09-11T09:45:53.218Z</time>
      </trkpt>
      <trkpt lat="45.8857" lon="6.14257">
        <ele>448</ele>
        <time>2021-09-11T09:45:54.218Z</time>
      </trkpt>
      <trkpt lat="45.88574" lon="6.14259">
        <ele>448</ele>
        <time>2021-09-11T09:45:55.217Z</time>
      </trkpt>
      <trkpt lat="45.88578" lon="6.14261">
        <ele>447</ele>
        <time>2021-09-11T09:45:56.217Z</time>
      </trkpt>
      <trkpt lat="45.88583" lon="6.14264">
        <ele>447</ele>
        <time>2021-09-11T09:45:57.218Z</time>
      </trkpt>
      <trkpt lat="45.88588" lon="6.14266">
        <ele>447</ele>
        <time>2021-09-11T09:45:58.217Z</time>
      </trkpt>
      <trkpt lat="45.88592" lon="6.14269">
        <ele>447</ele>
        <time>2021-09-11T09:45:59.217Z</time>
      </trkpt>
      <trkpt lat="45.88597" lon="6.14272">
        <ele>447</ele>
        <time>2021-09-11T09:46:00.218Z</time>
      </trkpt>
      <trkpt lat="45.88601" lon="6.14274">
        <ele>446</ele>
        <time>2021-09-11T09:46:01.218Z</time>
      </trkpt>
      <trkpt lat="45.88606" lon="6.14277">
        <ele>446</ele>
        <time>2021-09-11T09:46:02.218Z</time>
      </trkpt>
      <trkpt lat="45.8861" lon="6.1428">
        <ele>446</ele>
        <time>2021-09-11T09:46:03.218Z</time>
      </trkpt>
      <trkpt lat="45.88615" lon="6.14282">
        <ele>445</ele>
        <time>2021-09-11T09:46:04.218Z</time>
      </trkpt>
      <trkpt lat="45.88619" lon="6.14285">
        <ele>445</ele>
        <time>2021-09-11T09:46:05.218Z</time>
      </trkpt>
      <trkpt lat="45.88624" lon="6.14287">
        <ele>445</ele>
        <time>2021-09-11T09:46:06.218Z</time>
      </trkpt>
      <trkpt lat="45.88628" lon="6.1429">
        <ele>444</ele>
        <time>2021-09-11T09:46:07.218Z</time>
      </trkpt>
      <trkpt lat="45.88633" lon="6.14293">
        <ele>444</ele>
        <time>2021-09-11T09:46:08.218Z</time>
      </trkpt>
      <trkpt lat="45.88637" lon="6.14296">
        <ele>444</ele>
        <time>2021-09-11T09:46:09.218Z</time>
      </trkpt>
      <trkpt lat="45.88642" lon="6.14298">
        <ele>444</ele>
        <time>2021-09-11T09:46:10.218Z</time>
      </trkpt>
      <trkpt lat="45.88646" lon="6.143">
        <ele>444</ele>
        <time>2021-09-11T09:46:11.218Z</time>
      </trkpt>
      <trkpt lat="45.88651" lon="6.14303">
        <ele>444</ele>
        <time>2021-09-11T09:46:12.218Z</time>
      </trkpt>
      <trkpt lat="45.88655" lon="6.14305">
        <ele>445</ele>
        <time>2021-09-11T09:46:13.218Z</time>
      </trkpt>
      <trkpt lat="45.8866" lon="6.14307">
        <ele>445</ele>
        <time>2021-09-11T09:46:14.218Z</time>
      </trkpt>
      <trkpt lat="45.88664" lon="6.14309">
        <ele>445</ele>
        <time>2021-09-11T09:46:15.218Z</time>
      </trkpt>
      <trkpt lat="45.88669" lon="6.14312">
        <ele>445</ele>
        <time>2021-09-11T09:46:16.217Z</time>
      </trkpt>
      <trkpt lat="45.88674" lon="6.14314">
        <ele>445</ele>
        <time>2021-09-11T09:46:17.217Z</time>
      </trkpt>
      <trkpt lat="45.88678" lon="6.14316">
        <ele>446</ele>
        <time>2021-09-11T09:46:18.217Z</time>
      </trkpt>
      <trkpt lat="45.88683" lon="6.14318">
        <ele>446</ele>
        <time>2021-09-11T09:46:19.217Z</time>
      </trkpt>
      <trkpt lat="45.88687" lon="6.1432">
        <ele>447</ele>
        <time>2021-09-11T09:46:20.218Z</time>
      </trkpt>
      <trkpt lat="45.88692" lon="6.14322">
        <ele>446</ele>
        <time>2021-09-11T09:46:21.217Z</time>
      </trkpt>
      <trkpt lat="45.88696" lon="6.14324">
        <ele>446</ele>
        <time>2021-09-11T09:46:22.218Z</time>
      </trkpt>
      <trkpt lat="45.88701" lon="6.14326">
        <ele>446</ele>
        <time>2021-09-11T09:46:23.218Z</time>
      </trkpt>
      <trkpt lat="45.88706" lon="6.14328">
        <ele>446</ele>
        <time>2021-09-11T09:46:24.218Z</time>
      </trkpt>
      <trkpt lat="45.8871" lon="6.1433">
        <ele>446</ele>
        <time>2021-09-11T09:46:25.218Z</time>
      </trkpt>
      <trkpt lat="45.88714" lon="6.14332">
        <ele>446</ele>
        <time>2021-09-11T09:46:26.218Z</time>
      </trkpt>
      <trkpt lat="45.8872" lon="6.14334">
        <ele>446</ele>
        <time>2021-09-11T09:46:27.218Z</time>
      </trkpt>
      <trkpt lat="45.88724" lon="6.14336">
        <ele>446</ele>
        <time>2021-09-11T09:46:28.218Z</time>
      </trkpt>
      <trkpt lat="45.88729" lon="6.14337">
        <ele>446</ele>
        <time>2021-09-11T09:46:29.218Z</time>
      </trkpt>
      <trkpt lat="45.88734" lon="6.14338">
        <ele>446</ele>
        <time>2021-09-11T09:46:30.218Z</time>
      </trkpt>
      <trkpt lat="45.88738" lon="6.14339">
        <ele>446</ele>
        <time>2021-09-11T09:46:31.218Z</time>
      </trkpt>
      <trkpt lat="45.88743" lon="6.14341">
        <ele>445</ele>
        <time>2021-09-11T09:46:32.218Z</time>
      </trkpt>
      <trkpt lat="45.88748" lon="6.14342">
        <ele>445</ele>
        <time>2021-09-11T09:46:33.218Z</time>
      </trkpt>
      <trkpt lat="45.88753" lon="6.14343">
        <ele>445</ele>
        <time>2021-09-11T09:46:34.218Z</time>
      </trkpt>
      <trkpt lat="45.88758" lon="6.14344">
        <ele>444</ele>
        <time>2021-09-11T09:46:35.218Z</time>
      </trkpt>
      <trkpt lat="45.88762" lon="6.14346">
        <ele>445</ele>
        <time>2021-09-11T09:46:36.217Z</time>
      </trkpt>
      <trkpt lat="45.88767" lon="6.14347">
        <ele>445</ele>
        <time>2021-09-11T09:46:37.218Z</time>
      </trkpt>
      <trkpt lat="45.88771" lon="6.14348">
        <ele>445</ele>
        <time>2021-09-11T09:46:38.218Z</time>
      </trkpt>
      <trkpt lat="45.88776" lon="6.1435">
        <ele>445</ele>
        <time>2021-09-11T09:46:39.218Z</time>
      </trkpt>
      <trkpt lat="45.8878" lon="6.14351">
        <ele>445</ele>
        <time>2021-09-11T09:46:40.218Z</time>
      </trkpt>
      <trkpt lat="45.88785" lon="6.14353">
        <ele>445</ele>
        <time>2021-09-11T09:46:41.218Z</time>
      </trkpt>
      <trkpt lat="45.8879" lon="6.14354">
        <ele>445</ele>
        <time>2021-09-11T09:46:42.217Z</time>
      </trkpt>
      <trkpt lat="45.88794" lon="6.14355">
        <ele>445</ele>
        <time>2021-09-11T09:46:43.218Z</time>
      </trkpt>
      <trkpt lat="45.88798" lon="6.14355">
        <ele>445</ele>
        <time>2021-09-11T09:46:44.217Z</time>
      </trkpt>
      <trkpt lat="45.88802" lon="6.14356">
        <ele>446</ele>
        <time>2021-09-11T09:46:45.217Z</time>
      </trkpt>
      <trkpt lat="45.88807" lon="6.14357">
        <ele>446</ele>
        <time>2021-09-11T09:46:46.218Z</time>
      </trkpt>
      <trkpt lat="45.88811" lon="6.14358">
        <ele>446</ele>
        <time>2021-09-11T09:46:47.218Z</time>
      </trkpt>
      <trkpt lat="45.88816" lon="6.14359">
        <ele>446</ele>
        <time>2021-09-11T09:46:48.217Z</time>
      </trkpt>
      <trkpt lat="45.8882" lon="6.14359">
        <ele>446</ele>
        <time>2021-09-11T09:46:49.218Z</time>
      </trkpt>
      <trkpt lat="45.88825" lon="6.14361">
        <ele>446</ele>
        <time>2021-09-11T09:46:50.218Z</time>
      </trkpt>
      <trkpt lat="45.8883" lon="6.14363">
        <ele>446</ele>
        <time>2021-09-11T09:46:51.218Z</time>
      </trkpt>
      <trkpt lat="45.88835" lon="6.14364">
        <ele>445</ele>
        <time>2021-09-11T09:46:52.218Z</time>
      </trkpt>
      <trkpt lat="45.8884" lon="6.14365">
        <ele>445</ele>
        <time>2021-09-11T09:46:53.218Z</time>
      </trkpt>
      <trkpt lat="45.88844" lon="6.14366">
        <ele>445</ele>
        <time>2021-09-11T09:46:54.218Z</time>
      </trkpt>
      <trkpt lat="45.88848" lon="6.14366">
        <ele>445</ele>
        <time>2021-09-11T09:46:55.217Z</time>
      </trkpt>
      <trkpt lat="45.88853" lon="6.14367">
        <ele>446</ele>
        <time>2021-09-11T09:46:56.217Z</time>
      </trkpt>
      <trkpt lat="45.88857" lon="6.14367">
        <ele>446</ele>
        <time>2021-09-11T09:46:57.218Z</time>
      </trkpt>
      <trkpt lat="45.88862" lon="6.14366">
        <ele>447</ele>
        <time>2021-09-11T09:46:58.218Z</time>
      </trkpt>
      <trkpt lat="45.88866" lon="6.14366">
        <ele>447</ele>
        <time>2021-09-11T09:46:59.217Z</time>
      </trkpt>
      <trkpt lat="45.8887" lon="6.14365">
        <ele>448</ele>
        <time>2021-09-11T09:47:00.218Z</time>
      </trkpt>
      <trkpt lat="45.88873" lon="6.14365">
        <ele>448</ele>
        <time>2021-09-11T09:47:01.218Z</time>
      </trkpt>
      <trkpt lat="45.88878" lon="6.14365">
        <ele>447</ele>
        <time>2021-09-11T09:47:02.218Z</time>
      </trkpt>
      <trkpt lat="45.88882" lon="6.14365">
        <ele>447</ele>
        <time>2021-09-11T09:47:03.217Z</time>
      </trkpt>
      <trkpt lat="45.88887" lon="6.14365">
        <ele>447</ele>
        <time>2021-09-11T09:47:04.217Z</time>
      </trkpt>
      <trkpt lat="45.88891" lon="6.14365">
        <ele>447</ele>
        <time>2021-09-11T09:47:05.218Z</time>
      </trkpt>
      <trkpt lat="45.88897" lon="6.14365">
        <ele>447</ele>
        <time>2021-09-11T09:47:06.218Z</time>
      </trkpt>
      <trkpt lat="45.889" lon="6.14365">
        <ele>447</ele>
        <time>2021-09-11T09:47:07.218Z</time>
      </trkpt>
      <trkpt lat="45.88905" lon="6.14365">
        <ele>447</ele>
        <time>2021-09-11T09:47:08.218Z</time>
      </trkpt>
      <trkpt lat="45.88909" lon="6.14365">
        <ele>447</ele>
        <time>2021-09-11T09:47:09.218Z</time>
      </trkpt>
      <trkpt lat="45.88914" lon="6.14365">
        <ele>447</ele>
        <time>2021-09-11T09:47:10.218Z</time>
      </trkpt>
      <trkpt lat="45.88919" lon="6.14365">
        <ele>447</ele>
        <time>2021-09-11T09:47:11.218Z</time>
      </trkpt>
      <trkpt lat="45.88922" lon="6.14365">
        <ele>447</ele>
        <time>2021-09-11T09:47:12.218Z</time>
      </trkpt>
      <trkpt lat="45.88927" lon="6.14364">
        <ele>447</ele>
        <time>2021-09-11T09:47:13.218Z</time>
      </trkpt>
      <trkpt lat="45.88932" lon="6.14364">
        <ele>447</ele>
        <time>2021-09-11T09:47:14.218Z</time>
      </trkpt>
      <trkpt lat="45.88936" lon="6.14363">
        <ele>447</ele>
        <time>2021-09-11T09:47:15.218Z</time>
      </trkpt>
      <trkpt lat="45.88941" lon="6.14363">
        <ele>447</ele>
        <time>2021-09-11T09:47:16.218Z</time>
      </trkpt>
      <trkpt lat="45.88946" lon="6.14362">
        <ele>447</ele>
        <time>2021-09-11T09:47:17.218Z</time>
      </trkpt>
      <trkpt lat="45.88951" lon="6.14361">
        <ele>446</ele>
        <time>2021-09-11T09:47:18.218Z</time>
      </trkpt>
      <trkpt lat="45.88955" lon="6.14361">
        <ele>446</ele>
        <time>2021-09-11T09:47:19.218Z</time>
      </trkpt>
      <trkpt lat="45.88961" lon="6.1436">
        <ele>445</ele>
        <time>2021-09-11T09:47:20.218Z</time>
      </trkpt>
      <trkpt lat="45.88965" lon="6.14359">
        <ele>445</ele>
        <time>2021-09-11T09:47:21.218Z</time>
      </trkpt>
      <trkpt lat="45.88969" lon="6.14358">
        <ele>445</ele>
        <time>2021-09-11T09:47:22.217Z</time>
      </trkpt>
      <trkpt lat="45.88973" lon="6.14357">
        <ele>445</ele>
        <time>2021-09-11T09:47:23.218Z</time>
      </trkpt>
      <trkpt lat="45.88978" lon="6.14355">
        <ele>445</ele>
        <time>2021-09-11T09:47:24.218Z</time>
      </trkpt>
      <trkpt lat="45.88983" lon="6.14353">
        <ele>445</ele>
        <time>2021-09-11T09:47:25.217Z</time>
      </trkpt>
      <trkpt lat="45.88987" lon="6.14351">
        <ele>445</ele>
        <time>2021-09-11T09:47:26.218Z</time>
      </trkpt>
      <trkpt lat="45.88991" lon="6.14348">
        <ele>445</ele>
        <time>2021-09-11T09:47:27.217Z</time>
      </trkpt>
      <trkpt lat="45.88995" lon="6.14346">
        <ele>445</ele>
        <time>2021-09-11T09:47:28.218Z</time>
      </trkpt>
      <trkpt lat="45.88998" lon="6.14343">
        <ele>445</ele>
        <time>2021-09-11T09:47:29.218Z</time>
      </trkpt>
      <trkpt lat="45.89002" lon="6.14341">
        <ele>445</ele>
        <time>2021-09-11T09:47:30.218Z</time>
      </trkpt>
      <trkpt lat="45.89006" lon="6.14337">
        <ele>446</ele>
        <time>2021-09-11T09:47:31.218Z</time>
      </trkpt>
      <trkpt lat="45.8901" lon="6.14334">
        <ele>446</ele>
        <time>2021-09-11T09:47:32.218Z</time>
      </trkpt>
      <trkpt lat="45.89014" lon="6.1433">
        <ele>446</ele>
        <time>2021-09-11T09:47:33.217Z</time>
      </trkpt>
      <trkpt lat="45.89018" lon="6.14325">
        <ele>445</ele>
        <time>2021-09-11T09:47:34.218Z</time>
      </trkpt>
      <trkpt lat="45.89023" lon="6.1432">
        <ele>445</ele>
        <time>2021-09-11T09:47:35.218Z</time>
      </trkpt>
      <trkpt lat="45.89026" lon="6.14315">
        <ele>445</ele>
        <time>2021-09-11T09:47:36.218Z</time>
      </trkpt>
      <trkpt lat="45.89029" lon="6.1431">
        <ele>445</ele>
        <time>2021-09-11T09:47:37.217Z</time>
      </trkpt>
      <trkpt lat="45.89032" lon="6.14305">
        <ele>445</ele>
        <time>2021-09-11T09:47:38.218Z</time>
      </trkpt>
      <trkpt lat="45.89035" lon="6.143">
        <ele>445</ele>
        <time>2021-09-11T09:47:39.217Z</time>
      </trkpt>
      <trkpt lat="45.89038" lon="6.14295">
        <ele>445</ele>
        <time>2021-09-11T09:47:40.218Z</time>
      </trkpt>
      <trkpt lat="45.8904" lon="6.1429">
        <ele>445</ele>
        <time>2021-09-11T09:47:41.218Z</time>
      </trkpt>
      <trkpt lat="45.89043" lon="6.14284">
        <ele>446</ele>
        <time>2021-09-11T09:47:42.217Z</time>
      </trkpt>
      <trkpt lat="45.89045" lon="6.14279">
        <ele>446</ele>
        <time>2021-09-11T09:47:43.217Z</time>
      </trkpt>
      <trkpt lat="45.89048" lon="6.14272">
        <ele>446</ele>
        <time>2021-09-11T09:47:44.217Z</time>
      </trkpt>
      <trkpt lat="45.8905" lon="6.14267">
        <ele>447</ele>
        <time>2021-09-11T09:47:45.218Z</time>
      </trkpt>
      <trkpt lat="45.89051" lon="6.14261">
        <ele>448</ele>
        <time>2021-09-11T09:47:46.218Z</time>
      </trkpt>
      <trkpt lat="45.89053" lon="6.14254">
        <ele>448</ele>
        <time>2021-09-11T09:47:47.218Z</time>
      </trkpt>
      <trkpt lat="45.89055" lon="6.14247">
        <ele>449</ele>
        <time>2021-09-11T09:47:48.217Z</time>
      </trkpt>
      <trkpt lat="45.89056" lon="6.14241">
        <ele>449</ele>
        <time>2021-09-11T09:47:49.218Z</time>
      </trkpt>
      <trkpt lat="45.89057" lon="6.14235">
        <ele>450</ele>
        <time>2021-09-11T09:47:50.218Z</time>
      </trkpt>
      <trkpt lat="45.89058" lon="6.14229">
        <ele>450</ele>
        <time>2021-09-11T09:47:51.218Z</time>
      </trkpt>
      <trkpt lat="45.89059" lon="6.14221">
        <ele>451</ele>
        <time>2021-09-11T09:47:52.218Z</time>
      </trkpt>
      <trkpt lat="45.8906" lon="6.14214">
        <ele>451</ele>
        <time>2021-09-11T09:47:53.218Z</time>
      </trkpt>
      <trkpt lat="45.89061" lon="6.14207">
        <ele>451</ele>
        <time>2021-09-11T09:47:54.218Z</time>
      </trkpt>
      <trkpt lat="45.89061" lon="6.14201">
        <ele>451</ele>
        <time>2021-09-11T09:47:55.218Z</time>
      </trkpt>
      <trkpt lat="45.89062" lon="6.14194">
        <ele>450</ele>
        <time>2021-09-11T09:47:56.218Z</time>
      </trkpt>
      <trkpt lat="45.89062" lon="6.14186">
        <ele>450</ele>
        <time>2021-09-11T09:47:57.218Z</time>
      </trkpt>
      <trkpt lat="45.89062" lon="6.14179">
        <ele>449</ele>
        <time>2021-09-11T09:47:58.218Z</time>
      </trkpt>
      <trkpt lat="45.89062" lon="6.14172">
        <ele>449</ele>
        <time>2021-09-11T09:47:59.218Z</time>
      </trkpt>
      <trkpt lat="45.89063" lon="6.14165">
        <ele>449</ele>
        <time>2021-09-11T09:48:00.217Z</time>
      </trkpt>
      <trkpt lat="45.89063" lon="6.14157">
        <ele>449</ele>
        <time>2021-09-11T09:48:01.218Z</time>
      </trkpt>
      <trkpt lat="45.89064" lon="6.1415">
        <ele>449</ele>
        <time>2021-09-11T09:48:02.218Z</time>
      </trkpt>
      <trkpt lat="45.89064" lon="6.14144">
        <ele>449</ele>
        <time>2021-09-11T09:48:03.218Z</time>
      </trkpt>
      <trkpt lat="45.89065" lon="6.14136">
        <ele>449</ele>
        <time>2021-09-11T09:48:04.217Z</time>
      </trkpt>
      <trkpt lat="45.89066" lon="6.14128">
        <ele>449</ele>
        <time>2021-09-11T09:48:05.218Z</time>
      </trkpt>
      <trkpt lat="45.89067" lon="6.14121">
        <ele>449</ele>
        <time>2021-09-11T09:48:06.217Z</time>
      </trkpt>
      <trkpt lat="45.89068" lon="6.14114">
        <ele>449</ele>
        <time>2021-09-11T09:48:07.218Z</time>
      </trkpt>
      <trkpt lat="45.8907" lon="6.14107">
        <ele>449</ele>
        <time>2021-09-11T09:48:08.218Z</time>
      </trkpt>
      <trkpt lat="45.89071" lon="6.141">
        <ele>448</ele>
        <time>2021-09-11T09:48:09.217Z</time>
      </trkpt>
      <trkpt lat="45.89073" lon="6.14092">
        <ele>448</ele>
        <time>2021-09-11T09:48:10.218Z</time>
      </trkpt>
      <trkpt lat="45.89075" lon="6.14084">
        <ele>448</ele>
        <time>2021-09-11T09:48:11.218Z</time>
      </trkpt>
      <trkpt lat="45.89077" lon="6.14076">
        <ele>448</ele>
        <time>2021-09-11T09:48:12.217Z</time>
      </trkpt>
      <trkpt lat="45.89079" lon="6.14069">
        <ele>448</ele>
        <time>2021-09-11T09:48:13.218Z</time>
      </trkpt>
      <trkpt lat="45.89081" lon="6.14064">
        <ele>448</ele>
        <time>2021-09-11T09:48:14.218Z</time>
      </trkpt>
      <trkpt lat="45.89083" lon="6.14056">
        <ele>447</ele>
        <time>2021-09-11T09:48:15.217Z</time>
      </trkpt>
      <trkpt lat="45.89086" lon="6.14049">
        <ele>447</ele>
        <time>2021-09-11T09:48:16.218Z</time>
      </trkpt>
      <trkpt lat="45.89088" lon="6.14042">
        <ele>447</ele>
        <time>2021-09-11T09:48:17.218Z</time>
      </trkpt>
      <trkpt lat="45.8909" lon="6.14037">
        <ele>447</ele>
        <time>2021-09-11T09:48:18.218Z</time>
      </trkpt>
      <trkpt lat="45.89093" lon="6.14029">
        <ele>447</ele>
        <time>2021-09-11T09:48:19.217Z</time>
      </trkpt>
      <trkpt lat="45.89096" lon="6.14023">
        <ele>447</ele>
        <time>2021-09-11T09:48:20.218Z</time>
      </trkpt>
      <trkpt lat="45.89099" lon="6.14017">
        <ele>447</ele>
        <time>2021-09-11T09:48:21.218Z</time>
      </trkpt>
      <trkpt lat="45.89101" lon="6.14011">
        <ele>448</ele>
        <time>2021-09-11T09:48:22.218Z</time>
      </trkpt>
      <trkpt lat="45.89104" lon="6.14005">
        <ele>448</ele>
        <time>2021-09-11T09:48:23.218Z</time>
      </trkpt>
      <trkpt lat="45.89106" lon="6.14">
        <ele>448</ele>
        <time>2021-09-11T09:48:24.218Z</time>
      </trkpt>
      <trkpt lat="45.8911" lon="6.13993">
        <ele>448</ele>
        <time>2021-09-11T09:48:25.218Z</time>
      </trkpt>
      <trkpt lat="45.89113" lon="6.13987">
        <ele>448</ele>
        <time>2021-09-11T09:48:26.218Z</time>
      </trkpt>
      <trkpt lat="45.89115" lon="6.13983">
        <ele>449</ele>
        <time>2021-09-11T09:48:27.218Z</time>
      </trkpt>
      <trkpt lat="45.89118" lon="6.13977">
        <ele>449</ele>
        <time>2021-09-11T09:48:28.217Z</time>
      </trkpt>
      <trkpt lat="45.89122" lon="6.13971">
        <ele>449</ele>
        <time>2021-09-11T09:48:29.218Z</time>
      </trkpt>
      <trkpt lat="45.89126" lon="6.13965">
        <ele>449</ele>
        <time>2021-09-11T09:48:30.217Z</time>
      </trkpt>
      <trkpt lat="45.89128" lon="6.1396">
        <ele>448</ele>
        <time>2021-09-11T09:48:31.218Z</time>
      </trkpt>
      <trkpt lat="45.89132" lon="6.13955">
        <ele>448</ele>
        <time>2021-09-11T09:48:32.218Z</time>
      </trkpt>
      <trkpt lat="45.89135" lon="6.1395">
        <ele>448</ele>
        <time>2021-09-11T09:48:33.218Z</time>
      </trkpt>
      <trkpt lat="45.89138" lon="6.13944">
        <ele>448</ele>
        <time>2021-09-11T09:48:34.218Z</time>
      </trkpt>
      <trkpt lat="45.89142" lon="6.13938">
        <ele>448</ele>
        <time>2021-09-11T09:48:35.218Z</time>
      </trkpt>
      <trkpt lat="45.89145" lon="6.13933">
        <ele>448</ele>
        <time>2021-09-11T09:48:36.217Z</time>
      </trkpt>
      <trkpt lat="45.89148" lon="6.13927">
        <ele>447</ele>
        <time>2021-09-11T09:48:37.218Z</time>
      </trkpt>
      <trkpt lat="45.89151" lon="6.13921">
        <ele>447</ele>
        <time>2021-09-11T09:48:38.218Z</time>
      </trkpt>
      <trkpt lat="45.89154" lon="6.13916">
        <ele>447</ele>
        <time>2021-09-11T09:48:39.218Z</time>
      </trkpt>
      <trkpt lat="45.89157" lon="6.1391">
        <ele>447</ele>
        <time>2021-09-11T09:48:40.217Z</time>
      </trkpt>
      <trkpt lat="45.8916" lon="6.13905">
        <ele>447</ele>
        <time>2021-09-11T09:48:41.218Z</time>
      </trkpt>
      <trkpt lat="45.89163" lon="6.139">
        <ele>447</ele>
        <time>2021-09-11T09:48:42.218Z</time>
      </trkpt>
      <trkpt lat="45.89166" lon="6.13895">
        <ele>446</ele>
        <time>2021-09-11T09:48:43.217Z</time>
      </trkpt>
      <trkpt lat="45.89168" lon="6.1389">
        <ele>446</ele>
        <time>2021-09-11T09:48:44.218Z</time>
      </trkpt>
      <trkpt lat="45.89171" lon="6.13885">
        <ele>446</ele>
        <time>2021-09-11T09:48:45.218Z</time>
      </trkpt>
      <trkpt lat="45.89174" lon="6.1388">
        <ele>446</ele>
        <time>2021-09-11T09:48:46.218Z</time>
      </trkpt>
      <trkpt lat="45.89176" lon="6.13875">
        <ele>446</ele>
        <time>2021-09-11T09:48:47.217Z</time>
      </trkpt>
      <trkpt lat="45.89179" lon="6.13871">
        <ele>446</ele>
        <time>2021-09-11T09:48:48.217Z</time>
      </trkpt>
      <trkpt lat="45.89182" lon="6.13866">
        <ele>445</ele>
        <time>2021-09-11T09:48:49.217Z</time>
      </trkpt>
      <trkpt lat="45.89185" lon="6.13861">
        <ele>445</ele>
        <time>2021-09-11T09:48:50.218Z</time>
      </trkpt>
      <trkpt lat="45.89188" lon="6.13856">
        <ele>446</ele>
        <time>2021-09-11T09:48:51.217Z</time>
      </trkpt>
      <trkpt lat="45.8919" lon="6.13852">
        <ele>446</ele>
        <time>2021-09-11T09:48:52.218Z</time>
      </trkpt>
      <trkpt lat="45.89193" lon="6.13847">
        <ele>446</ele>
        <time>2021-09-11T09:48:53.217Z</time>
      </trkpt>
      <trkpt lat="45.89196" lon="6.13842">
        <ele>446</ele>
        <time>2021-09-11T09:48:54.218Z</time>
      </trkpt>
      <trkpt lat="45.89199" lon="6.13837">
        <ele>446</ele>
        <time>2021-09-11T09:48:55.218Z</time>
      </trkpt>
      <trkpt lat="45.89202" lon="6.13833">
        <ele>446</ele>
        <time>2021-09-11T09:48:56.218Z</time>
      </trkpt>
      <trkpt lat="45.89205" lon="6.13828">
        <ele>446</ele>
        <time>2021-09-11T09:48:57.217Z</time>
      </trkpt>
      <trkpt lat="45.89208" lon="6.13823">
        <ele>446</ele>
        <time>2021-09-11T09:48:58.218Z</time>
      </trkpt>
      <trkpt lat="45.89211" lon="6.13818">
        <ele>446</ele>
        <time>2021-09-11T09:48:59.217Z</time>
      </trkpt>
      <trkpt lat="45.89214" lon="6.13813">
        <ele>446</ele>
        <time>2021-09-11T09:49:00.218Z</time>
      </trkpt>
      <trkpt lat="45.89216" lon="6.13808">
        <ele>446</ele>
        <time>2021-09-11T09:49:01.218Z</time>
      </trkpt>
      <trkpt lat="45.89219" lon="6.13803">
        <ele>446</ele>
        <time>2021-09-11T09:49:02.218Z</time>
      </trkpt>
      <trkpt lat="45.89222" lon="6.13798">
        <ele>446</ele>
        <time>2021-09-11T09:49:03.218Z</time>
      </trkpt>
      <trkpt lat="45.89225" lon="6.13793">
        <ele>445</ele>
        <time>2021-09-11T09:49:04.218Z</time>
      </trkpt>
      <trkpt lat="45.89228" lon="6.13788">
        <ele>445</ele>
        <time>2021-09-11T09:49:05.218Z</time>
      </trkpt>
      <trkpt lat="45.89231" lon="6.13783">
        <ele>445</ele>
        <time>2021-09-11T09:49:06.217Z</time>
      </trkpt>
      <trkpt lat="45.89235" lon="6.13777">
        <ele>445</ele>
        <time>2021-09-11T09:49:07.217Z</time>
      </trkpt>
      <trkpt lat="45.89237" lon="6.13772">
        <ele>445</ele>
        <time>2021-09-11T09:49:08.218Z</time>
      </trkpt>
      <trkpt lat="45.8924" lon="6.13767">
        <ele>444</ele>
        <time>2021-09-11T09:49:09.217Z</time>
      </trkpt>
      <trkpt lat="45.89243" lon="6.13762">
        <ele>445</ele>
        <time>2021-09-11T09:49:10.218Z</time>
      </trkpt>
      <trkpt lat="45.89247" lon="6.13758">
        <ele>445</ele>
        <time>2021-09-11T09:49:11.217Z</time>
      </trkpt>
      <trkpt lat="45.8925" lon="6.13752">
        <ele>445</ele>
        <time>2021-09-11T09:49:12.218Z</time>
      </trkpt>
      <trkpt lat="45.89253" lon="6.13747">
        <ele>445</ele>
        <time>2021-09-11T09:49:13.217Z</time>
      </trkpt>
      <trkpt lat="45.89256" lon="6.13742">
        <ele>445</ele>
        <time>2021-09-11T09:49:14.218Z</time>
      </trkpt>
      <trkpt lat="45.89259" lon="6.13736">
        <ele>445</ele>
        <time>2021-09-11T09:49:15.218Z</time>
      </trkpt>
      <trkpt lat="45.89263" lon="6.13731">
        <ele>445</ele>
        <time>2021-09-11T09:49:16.217Z</time>
      </trkpt>
      <trkpt lat="45.89266" lon="6.13727">
        <ele>445</ele>
        <time>2021-09-11T09:49:17.218Z</time>
      </trkpt>
      <trkpt lat="45.89269" lon="6.13722">
        <ele>445</ele>
        <time>2021-09-11T09:49:18.218Z</time>
      </trkpt>
      <trkpt lat="45.89272" lon="6.13717">
        <ele>445</ele>
        <time>2021-09-11T09:49:19.217Z</time>
      </trkpt>
      <trkpt lat="45.89276" lon="6.13711">
        <ele>446</ele>
        <time>2021-09-11T09:49:20.218Z</time>
      </trkpt>
      <trkpt lat="45.89278" lon="6.13706">
        <ele>446</ele>
        <time>2021-09-11T09:49:21.218Z</time>
      </trkpt>
      <trkpt lat="45.89282" lon="6.137">
        <ele>446</ele>
        <time>2021-09-11T09:49:22.218Z</time>
      </trkpt>
      <trkpt lat="45.89285" lon="6.13695">
        <ele>447</ele>
        <time>2021-09-11T09:49:23.218Z</time>
      </trkpt>
      <trkpt lat="45.89288" lon="6.1369">
        <ele>447</ele>
        <time>2021-09-11T09:49:24.218Z</time>
      </trkpt>
      <trkpt lat="45.89291" lon="6.13686">
        <ele>446</ele>
        <time>2021-09-11T09:49:25.217Z</time>
      </trkpt>
      <trkpt lat="45.89294" lon="6.13681">
        <ele>446</ele>
        <time>2021-09-11T09:49:26.218Z</time>
      </trkpt>
      <trkpt lat="45.89296" lon="6.13676">
        <ele>446</ele>
        <time>2021-09-11T09:49:27.218Z</time>
      </trkpt>
      <trkpt lat="45.89299" lon="6.13672">
        <ele>446</ele>
        <time>2021-09-11T09:49:28.218Z</time>
      </trkpt>
      <trkpt lat="45.89302" lon="6.13668">
        <ele>446</ele>
        <time>2021-09-11T09:49:29.217Z</time>
      </trkpt>
      <trkpt lat="45.89305" lon="6.13664">
        <ele>446</ele>
        <time>2021-09-11T09:49:30.218Z</time>
      </trkpt>
      <trkpt lat="45.89308" lon="6.13661">
        <ele>446</ele>
        <time>2021-09-11T09:49:31.218Z</time>
      </trkpt>
      <trkpt lat="45.89311" lon="6.13658">
        <ele>446</ele>
        <time>2021-09-11T09:49:32.217Z</time>
      </trkpt>
      <trkpt lat="45.89313" lon="6.13655">
        <ele>446</ele>
        <time>2021-09-11T09:49:33.218Z</time>
      </trkpt>
      <trkpt lat="45.89316" lon="6.13652">
        <ele>446</ele>
        <time>2021-09-11T09:49:34.218Z</time>
      </trkpt>
      <trkpt lat="45.89319" lon="6.1365">
        <ele>446</ele>
        <time>2021-09-11T09:49:35.217Z</time>
      </trkpt>
      <trkpt lat="45.89321" lon="6.13648">
        <ele>446</ele>
        <time>2021-09-11T09:49:36.218Z</time>
      </trkpt>
      <trkpt lat="45.89323" lon="6.13645">
        <ele>446</ele>
        <time>2021-09-11T09:49:37.218Z</time>
      </trkpt>
      <trkpt lat="45.89326" lon="6.13642">
        <ele>446</ele>
        <time>2021-09-11T09:49:38.218Z</time>
      </trkpt>
      <trkpt lat="45.89328" lon="6.13638">
        <ele>446</ele>
        <time>2021-09-11T09:49:39.218Z</time>
      </trkpt>
      <trkpt lat="45.89331" lon="6.13634">
        <ele>446</ele>
        <time>2021-09-11T09:49:40.218Z</time>
      </trkpt>
      <trkpt lat="45.89333" lon="6.1363">
        <ele>447</ele>
        <time>2021-09-11T09:49:41.218Z</time>
      </trkpt>
      <trkpt lat="45.89336" lon="6.13626">
        <ele>446</ele>
        <time>2021-09-11T09:49:42.218Z</time>
      </trkpt>
      <trkpt lat="45.89339" lon="6.13621">
        <ele>446</ele>
        <time>2021-09-11T09:49:43.218Z</time>
      </trkpt>
      <trkpt lat="45.89341" lon="6.13617">
        <ele>446</ele>
        <time>2021-09-11T09:49:44.218Z</time>
      </trkpt>
      <trkpt lat="45.89344" lon="6.13612">
        <ele>445</ele>
        <time>2021-09-11T09:49:45.217Z</time>
      </trkpt>
      <trkpt lat="45.89347" lon="6.13608">
        <ele>445</ele>
        <time>2021-09-11T09:49:46.218Z</time>
      </trkpt>
      <trkpt lat="45.8935" lon="6.13603">
        <ele>445</ele>
        <time>2021-09-11T09:49:47.218Z</time>
      </trkpt>
      <trkpt lat="45.89352" lon="6.136">
        <ele>444</ele>
        <time>2021-09-11T09:49:48.217Z</time>
      </trkpt>
      <trkpt lat="45.89355" lon="6.13596">
        <ele>444</ele>
        <time>2021-09-11T09:49:49.218Z</time>
      </trkpt>
      <trkpt lat="45.89358" lon="6.13592">
        <ele>443</ele>
        <time>2021-09-11T09:49:50.218Z</time>
      </trkpt>
      <trkpt lat="45.89361" lon="6.13587">
        <ele>444</ele>
        <time>2021-09-11T09:49:51.218Z</time>
      </trkpt>
      <trkpt lat="45.89364" lon="6.13582">
        <ele>444</ele>
        <time>2021-09-11T09:49:52.218Z</time>
      </trkpt>
      <trkpt lat="45.89368" lon="6.13578">
        <ele>444</ele>
        <time>2021-09-11T09:49:53.217Z</time>
      </trkpt>
      <trkpt lat="45.89371" lon="6.13573">
        <ele>444</ele>
        <time>2021-09-11T09:49:54.218Z</time>
      </trkpt>
      <trkpt lat="45.89375" lon="6.13569">
        <ele>444</ele>
        <time>2021-09-11T09:49:55.217Z</time>
      </trkpt>
      <trkpt lat="45.89379" lon="6.13564">
        <ele>444</ele>
        <time>2021-09-11T09:49:56.218Z</time>
      </trkpt>
      <trkpt lat="45.89382" lon="6.13559">
        <ele>444</ele>
        <time>2021-09-11T09:49:57.218Z</time>
      </trkpt>
      <trkpt lat="45.89386" lon="6.13554">
        <ele>444</ele>
        <time>2021-09-11T09:49:58.218Z</time>
      </trkpt>
      <trkpt lat="45.89389" lon="6.13549">
        <ele>445</ele>
        <time>2021-09-11T09:49:59.218Z</time>
      </trkpt>
      <trkpt lat="45.89392" lon="6.13544">
        <ele>445</ele>
        <time>2021-09-11T09:50:00.217Z</time>
      </trkpt>
      <trkpt lat="45.89396" lon="6.13539">
        <ele>445</ele>
        <time>2021-09-11T09:50:01.218Z</time>
      </trkpt>
      <trkpt lat="45.89399" lon="6.13534">
        <ele>446</ele>
        <time>2021-09-11T09:50:02.218Z</time>
      </trkpt>
      <trkpt lat="45.89403" lon="6.1353">
        <ele>446</ele>
        <time>2021-09-11T09:50:03.218Z</time>
      </trkpt>
      <trkpt lat="45.89406" lon="6.13524">
        <ele>447</ele>
        <time>2021-09-11T09:50:04.218Z</time>
      </trkpt>
      <trkpt lat="45.89409" lon="6.1352">
        <ele>447</ele>
        <time>2021-09-11T09:50:05.218Z</time>
      </trkpt>
      <trkpt lat="45.89412" lon="6.13515">
        <ele>447</ele>
        <time>2021-09-11T09:50:06.218Z</time>
      </trkpt>
      <trkpt lat="45.89414" lon="6.13511">
        <ele>447</ele>
        <time>2021-09-11T09:50:07.218Z</time>
      </trkpt>
      <trkpt lat="45.89416" lon="6.13506">
        <ele>446</ele>
        <time>2021-09-11T09:50:08.218Z</time>
      </trkpt>
      <trkpt lat="45.89418" lon="6.13501">
        <ele>446</ele>
        <time>2021-09-11T09:50:09.218Z</time>
      </trkpt>
      <trkpt lat="45.8942" lon="6.13495">
        <ele>447</ele>
        <time>2021-09-11T09:50:10.217Z</time>
      </trkpt>
      <trkpt lat="45.89422" lon="6.1349">
        <ele>447</ele>
        <time>2021-09-11T09:50:11.218Z</time>
      </trkpt>
      <trkpt lat="45.89424" lon="6.13486">
        <ele>446</ele>
        <time>2021-09-11T09:50:12.218Z</time>
      </trkpt>
      <trkpt lat="45.89427" lon="6.13482">
        <ele>446</ele>
        <time>2021-09-11T09:50:13.218Z</time>
      </trkpt>
      <trkpt lat="45.89431" lon="6.13479">
        <ele>446</ele>
        <time>2021-09-11T09:50:14.217Z</time>
      </trkpt>
      <trkpt lat="45.89434" lon="6.13475">
        <ele>446</ele>
        <time>2021-09-11T09:50:15.218Z</time>
      </trkpt>
      <trkpt lat="45.89438" lon="6.13472">
        <ele>446</ele>
        <time>2021-09-11T09:50:16.218Z</time>
      </trkpt>
      <trkpt lat="45.89441" lon="6.13468">
        <ele>446</ele>
        <time>2021-09-11T09:50:17.218Z</time>
      </trkpt>
      <trkpt lat="45.89445" lon="6.13464">
        <ele>446</ele>
        <time>2021-09-11T09:50:18.218Z</time>
      </trkpt>
      <trkpt lat="45.89448" lon="6.13459">
        <ele>446</ele>
        <time>2021-09-11T09:50:19.218Z</time>
      </trkpt>
      <trkpt lat="45.89451" lon="6.13455">
        <ele>446</ele>
        <time>2021-09-11T09:50:20.218Z</time>
      </trkpt>
      <trkpt lat="45.89455" lon="6.13451">
        <ele>446</ele>
        <time>2021-09-11T09:50:21.218Z</time>
      </trkpt>
      <trkpt lat="45.89458" lon="6.13447">
        <ele>446</ele>
        <time>2021-09-11T09:50:22.217Z</time>
      </trkpt>
      <trkpt lat="45.89461" lon="6.13443">
        <ele>446</ele>
        <time>2021-09-11T09:50:23.218Z</time>
      </trkpt>
      <trkpt lat="45.89465" lon="6.1344">
        <ele>446</ele>
        <time>2021-09-11T09:50:24.218Z</time>
      </trkpt>
      <trkpt lat="45.89468" lon="6.13436">
        <ele>446</ele>
        <time>2021-09-11T09:50:25.217Z</time>
      </trkpt>
      <trkpt lat="45.89471" lon="6.13432">
        <ele>446</ele>
        <time>2021-09-11T09:50:26.217Z</time>
      </trkpt>
      <trkpt lat="45.89474" lon="6.13429">
        <ele>446</ele>
        <time>2021-09-11T09:50:27.218Z</time>
      </trkpt>
      <trkpt lat="45.89477" lon="6.13425">
        <ele>446</ele>
        <time>2021-09-11T09:50:28.218Z</time>
      </trkpt>
      <trkpt lat="45.8948" lon="6.13422">
        <ele>446</ele>
        <time>2021-09-11T09:50:29.218Z</time>
      </trkpt>
      <trkpt lat="45.89484" lon="6.13418">
        <ele>446</ele>
        <time>2021-09-11T09:50:30.217Z</time>
      </trkpt>
      <trkpt lat="45.89487" lon="6.13415">
        <ele>447</ele>
        <time>2021-09-11T09:50:31.218Z</time>
      </trkpt>
      <trkpt lat="45.8949" lon="6.13411">
        <ele>447</ele>
        <time>2021-09-11T09:50:32.218Z</time>
      </trkpt>
      <trkpt lat="45.89494" lon="6.13408">
        <ele>447</ele>
        <time>2021-09-11T09:50:33.217Z</time>
      </trkpt>
      <trkpt lat="45.89497" lon="6.13404">
        <ele>446</ele>
        <time>2021-09-11T09:50:34.218Z</time>
      </trkpt>
      <trkpt lat="45.89501" lon="6.134">
        <ele>446</ele>
        <time>2021-09-11T09:50:35.218Z</time>
      </trkpt>
      <trkpt lat="45.89505" lon="6.13397">
        <ele>446</ele>
        <time>2021-09-11T09:50:36.218Z</time>
      </trkpt>
      <trkpt lat="45.89508" lon="6.13395">
        <ele>446</ele>
        <time>2021-09-11T09:50:37.218Z</time>
      </trkpt>
      <trkpt lat="45.89512" lon="6.13396">
        <ele>446</ele>
        <time>2021-09-11T09:50:38.218Z</time>
      </trkpt>
      <trkpt lat="45.89516" lon="6.13397">
        <ele>446</ele>
        <time>2021-09-11T09:50:39.218Z</time>
      </trkpt>
      <trkpt lat="45.89519" lon="6.13398">
        <ele>446</ele>
        <time>2021-09-11T09:50:40.218Z</time>
      </trkpt>
      <trkpt lat="45.89523" lon="6.13397">
        <ele>446</ele>
        <time>2021-09-11T09:50:41.218Z</time>
      </trkpt>
      <trkpt lat="45.89526" lon="6.13395">
        <ele>446</ele>
        <time>2021-09-11T09:50:42.218Z</time>
      </trkpt>
      <trkpt lat="45.8953" lon="6.13392">
        <ele>445</ele>
        <time>2021-09-11T09:50:43.218Z</time>
      </trkpt>
      <trkpt lat="45.89533" lon="6.13389">
        <ele>445</ele>
        <time>2021-09-11T09:50:44.218Z</time>
      </trkpt>
      <trkpt lat="45.89536" lon="6.13385">
        <ele>445</ele>
        <time>2021-09-11T09:50:45.218Z</time>
      </trkpt>
      <trkpt lat="45.8954" lon="6.13381">
        <ele>445</ele>
        <time>2021-09-11T09:50:46.218Z</time>
      </trkpt>
      <trkpt lat="45.89543" lon="6.13377">
        <ele>445</ele>
        <time>2021-09-11T09:50:47.218Z</time>
      </trkpt>
      <trkpt lat="45.89547" lon="6.13373">
        <ele>445</ele>
        <time>2021-09-11T09:50:48.218Z</time>
      </trkpt>
      <trkpt lat="45.8955" lon="6.13369">
        <ele>444</ele>
        <time>2021-09-11T09:50:49.218Z</time>
      </trkpt>
      <trkpt lat="45.89554" lon="6.13366">
        <ele>444</ele>
        <time>2021-09-11T09:50:50.218Z</time>
      </trkpt>
      <trkpt lat="45.89558" lon="6.13364">
        <ele>445</ele>
        <time>2021-09-11T09:50:51.218Z</time>
      </trkpt>
      <trkpt lat="45.89562" lon="6.13365">
        <ele>445</ele>
        <time>2021-09-11T09:50:52.218Z</time>
      </trkpt>
      <trkpt lat="45.89566" lon="6.13368">
        <ele>445</ele>
        <time>2021-09-11T09:50:53.218Z</time>
      </trkpt>
      <trkpt lat="45.89569" lon="6.13372">
        <ele>446</ele>
        <time>2021-09-11T09:50:54.218Z</time>
      </trkpt>
      <trkpt lat="45.89572" lon="6.13377">
        <ele>446</ele>
        <time>2021-09-11T09:50:55.217Z</time>
      </trkpt>
      <trkpt lat="45.89575" lon="6.13382">
        <ele>446</ele>
        <time>2021-09-11T09:50:56.218Z</time>
      </trkpt>
      <trkpt lat="45.89578" lon="6.13387">
        <ele>446</ele>
        <time>2021-09-11T09:50:57.217Z</time>
      </trkpt>
      <trkpt lat="45.89582" lon="6.13393">
        <ele>446</ele>
        <time>2021-09-11T09:50:58.218Z</time>
      </trkpt>
      <trkpt lat="45.89584" lon="6.13397">
        <ele>445</ele>
        <time>2021-09-11T09:50:59.217Z</time>
      </trkpt>
      <trkpt lat="45.89587" lon="6.13402">
        <ele>445</ele>
        <time>2021-09-11T09:51:00.218Z</time>
      </trkpt>
      <trkpt lat="45.8959" lon="6.13407">
        <ele>445</ele>
        <time>2021-09-11T09:51:01.218Z</time>
      </trkpt>
      <trkpt lat="45.89592" lon="6.13412">
        <ele>445</ele>
        <time>2021-09-11T09:51:02.218Z</time>
      </trkpt>
      <trkpt lat="45.89595" lon="6.13417">
        <ele>445</ele>
        <time>2021-09-11T09:51:03.218Z</time>
      </trkpt>
      <trkpt lat="45.89597" lon="6.13421">
        <ele>445</ele>
        <time>2021-09-11T09:51:04.218Z</time>
      </trkpt>
      <trkpt lat="45.89599" lon="6.13426">
        <ele>446</ele>
        <time>2021-09-11T09:51:05.217Z</time>
      </trkpt>
      <trkpt lat="45.89601" lon="6.13431">
        <ele>446</ele>
        <time>2021-09-11T09:51:06.218Z</time>
      </trkpt>
      <trkpt lat="45.89602" lon="6.13436">
        <ele>446</ele>
        <time>2021-09-11T09:51:07.217Z</time>
      </trkpt>
      <trkpt lat="45.89604" lon="6.13441">
        <ele>446</ele>
        <time>2021-09-11T09:51:08.218Z</time>
      </trkpt>
      <trkpt lat="45.89606" lon="6.13446">
        <ele>445</ele>
        <time>2021-09-11T09:51:09.217Z</time>
      </trkpt>
      <trkpt lat="45.89608" lon="6.13451">
        <ele>445</ele>
        <time>2021-09-11T09:51:10.218Z</time>
      </trkpt>
      <trkpt lat="45.8961" lon="6.13456">
        <ele>445</ele>
        <time>2021-09-11T09:51:11.217Z</time>
      </trkpt>
      <trkpt lat="45.89612" lon="6.13461">
        <ele>445</ele>
        <time>2021-09-11T09:51:12.218Z</time>
      </trkpt>
      <trkpt lat="45.89614" lon="6.13464">
        <ele>445</ele>
        <time>2021-09-11T09:51:13.218Z</time>
      </trkpt>
      <trkpt lat="45.89615" lon="6.13466">
        <ele>445</ele>
        <time>2021-09-11T09:51:14.218Z</time>
      </trkpt>
      <trkpt lat="45.89617" lon="6.13469">
        <ele>445</ele>
        <time>2021-09-11T09:51:15.218Z</time>
      </trkpt>
      <trkpt lat="45.89618" lon="6.13471">
        <ele>445</ele>
        <time>2021-09-11T09:51:16.218Z</time>
      </trkpt>
      <trkpt lat="45.8962" lon="6.13472">
        <ele>445</ele>
        <time>2021-09-11T09:51:17.218Z</time>
      </trkpt>
      <trkpt lat="45.89621" lon="6.13473">
        <ele>445</ele>
        <time>2021-09-11T09:51:18.218Z</time>
      </trkpt>
      <trkpt lat="45.89622" lon="6.13475">
        <ele>445</ele>
        <time>2021-09-11T09:51:19.218Z</time>
      </trkpt>
      <trkpt lat="45.89623" lon="6.13476">
        <ele>445</ele>
        <time>2021-09-11T09:51:20.218Z</time>
      </trkpt>
      <trkpt lat="45.89624" lon="6.13478">
        <ele>445</ele>
        <time>2021-09-11T09:51:21.218Z</time>
      </trkpt>
      <trkpt lat="45.89626" lon="6.13479">
        <ele>445</ele>
        <time>2021-09-11T09:51:22.217Z</time>
      </trkpt>
      <trkpt lat="45.89626" lon="6.1348">
        <ele>445</ele>
        <time>2021-09-11T09:51:23.218Z</time>
      </trkpt>
      <trkpt lat="45.89627" lon="6.13482">
        <ele>445</ele>
        <time>2021-09-11T09:51:24.218Z</time>
      </trkpt>
      <trkpt lat="45.89628" lon="6.13484">
        <ele>445</ele>
        <time>2021-09-11T09:51:25.218Z</time>
      </trkpt>
      <trkpt lat="45.89629" lon="6.13485">
        <ele>445</ele>
        <time>2021-09-11T09:51:26.217Z</time>
      </trkpt>
      <trkpt lat="45.8963" lon="6.13485">
        <ele>444</ele>
        <time>2021-09-11T09:51:27.217Z</time>
      </trkpt>
      <trkpt lat="45.89632" lon="6.13485">
        <ele>445</ele>
        <time>2021-09-11T09:51:28.218Z</time>
      </trkpt>
      <trkpt lat="45.89633" lon="6.13484">
        <ele>445</ele>
        <time>2021-09-11T09:51:29.218Z</time>
      </trkpt>
      <trkpt lat="45.89634" lon="6.13484">
        <ele>445</ele>
        <time>2021-09-11T09:51:30.218Z</time>
      </trkpt>
      <trkpt lat="45.89635" lon="6.13482">
        <ele>445</ele>
        <time>2021-09-11T09:51:31.218Z</time>
      </trkpt>
      <trkpt lat="45.89636" lon="6.13482">
        <ele>445</ele>
        <time>2021-09-11T09:51:32.218Z</time>
      </trkpt>
      <trkpt lat="45.89637" lon="6.13481">
        <ele>446</ele>
        <time>2021-09-11T09:51:33.218Z</time>
      </trkpt>
      <trkpt lat="45.89637" lon="6.1348">
        <ele>446</ele>
        <time>2021-09-11T09:51:34.218Z</time>
      </trkpt>
      <trkpt lat="45.89637" lon="6.1348">
        <ele>446</ele>
        <time>2021-09-11T09:51:35.217Z</time>
      </trkpt>
      <trkpt lat="45.8964" lon="6.13473">
        <ele>445</ele>
        <time>2021-09-11T09:51:36.217Z</time>
      </trkpt>
      <trkpt lat="45.89642" lon="6.13469">
        <ele>445</ele>
        <time>2021-09-11T09:51:37.218Z</time>
      </trkpt>
      <trkpt lat="45.89645" lon="6.13466">
        <ele>445</ele>
        <time>2021-09-11T09:51:38.217Z</time>
      </trkpt>
      <trkpt lat="45.89648" lon="6.13462">
        <ele>445</ele>
        <time>2021-09-11T09:51:39.218Z</time>
      </trkpt>
      <trkpt lat="45.8965" lon="6.1346">
        <ele>445</ele>
        <time>2021-09-11T09:51:40.218Z</time>
      </trkpt>
      <trkpt lat="45.89653" lon="6.13455">
        <ele>445</ele>
        <time>2021-09-11T09:51:41.217Z</time>
      </trkpt>
      <trkpt lat="45.89656" lon="6.13451">
        <ele>445</ele>
        <time>2021-09-11T09:51:42.218Z</time>
      </trkpt>
      <trkpt lat="45.8966" lon="6.13447">
        <ele>445</ele>
        <time>2021-09-11T09:51:43.218Z</time>
      </trkpt>
      <trkpt lat="45.89662" lon="6.13445">
        <ele>444</ele>
        <time>2021-09-11T09:51:44.218Z</time>
      </trkpt>
      <trkpt lat="45.89665" lon="6.13441">
        <ele>445</ele>
        <time>2021-09-11T09:51:45.218Z</time>
      </trkpt>
      <trkpt lat="45.89669" lon="6.13437">
        <ele>445</ele>
        <time>2021-09-11T09:51:46.217Z</time>
      </trkpt>
      <trkpt lat="45.89672" lon="6.13433">
        <ele>445</ele>
        <time>2021-09-11T09:51:47.218Z</time>
      </trkpt>
      <trkpt lat="45.89674" lon="6.1343">
        <ele>445</ele>
        <time>2021-09-11T09:51:48.217Z</time>
      </trkpt>
      <trkpt lat="45.89677" lon="6.13426">
        <ele>445</ele>
        <time>2021-09-11T09:51:49.218Z</time>
      </trkpt>
      <trkpt lat="45.8968" lon="6.13422">
        <ele>446</ele>
        <time>2021-09-11T09:51:50.218Z</time>
      </trkpt>
      <trkpt lat="45.89683" lon="6.13419">
        <ele>446</ele>
        <time>2021-09-11T09:51:51.217Z</time>
      </trkpt>
      <trkpt lat="45.89687" lon="6.13416">
        <ele>446</ele>
        <time>2021-09-11T09:51:52.218Z</time>
      </trkpt>
      <trkpt lat="45.89689" lon="6.13413">
        <ele>446</ele>
        <time>2021-09-11T09:51:53.218Z</time>
      </trkpt>
      <trkpt lat="45.89693" lon="6.13406">
        <ele>446</ele>
        <time>2021-09-11T09:51:54.218Z</time>
      </trkpt>
      <trkpt lat="45.89696" lon="6.13402">
        <ele>446</ele>
        <time>2021-09-11T09:51:55.217Z</time>
      </trkpt>
      <trkpt lat="45.89699" lon="6.13398">
        <ele>446</ele>
        <time>2021-09-11T09:51:56.218Z</time>
      </trkpt>
      <trkpt lat="45.89702" lon="6.13395">
        <ele>446</ele>
        <time>2021-09-11T09:51:57.217Z</time>
      </trkpt>
      <trkpt lat="45.89704" lon="6.13392">
        <ele>445</ele>
        <time>2021-09-11T09:51:58.217Z</time>
      </trkpt>
      <trkpt lat="45.89708" lon="6.13387">
        <ele>445</ele>
        <time>2021-09-11T09:51:59.217Z</time>
      </trkpt>
      <trkpt lat="45.89712" lon="6.13383">
        <ele>446</ele>
        <time>2021-09-11T09:52:00.218Z</time>
      </trkpt>
      <trkpt lat="45.89715" lon="6.13379">
        <ele>446</ele>
        <time>2021-09-11T09:52:01.218Z</time>
      </trkpt>
      <trkpt lat="45.89718" lon="6.13376">
        <ele>446</ele>
        <time>2021-09-11T09:52:02.218Z</time>
      </trkpt>
      <trkpt lat="45.89721" lon="6.13373">
        <ele>446</ele>
        <time>2021-09-11T09:52:03.218Z</time>
      </trkpt>
      <trkpt lat="45.89725" lon="6.13369">
        <ele>446</ele>
        <time>2021-09-11T09:52:04.218Z</time>
      </trkpt>
      <trkpt lat="45.89728" lon="6.13365">
        <ele>446</ele>
        <time>2021-09-11T09:52:05.218Z</time>
      </trkpt>
      <trkpt lat="45.89731" lon="6.13361">
        <ele>446</ele>
        <time>2021-09-11T09:52:06.218Z</time>
      </trkpt>
      <trkpt lat="45.89735" lon="6.13357">
        <ele>446</ele>
        <time>2021-09-11T09:52:07.218Z</time>
      </trkpt>
      <trkpt lat="45.89738" lon="6.13354">
        <ele>447</ele>
        <time>2021-09-11T09:52:08.218Z</time>
      </trkpt>
      <trkpt lat="45.89741" lon="6.1335">
        <ele>447</ele>
        <time>2021-09-11T09:52:09.218Z</time>
      </trkpt>
      <trkpt lat="45.89745" lon="6.13345">
        <ele>447</ele>
        <time>2021-09-11T09:52:10.217Z</time>
      </trkpt>
      <trkpt lat="45.89748" lon="6.13341">
        <ele>448</ele>
        <time>2021-09-11T09:52:11.218Z</time>
      </trkpt>
      <trkpt lat="45.89751" lon="6.13338">
        <ele>448</ele>
        <time>2021-09-11T09:52:12.217Z</time>
      </trkpt>
      <trkpt lat="45.89754" lon="6.13333">
        <ele>447</ele>
        <time>2021-09-11T09:52:13.218Z</time>
      </trkpt>
      <trkpt lat="45.89757" lon="6.13329">
        <ele>447</ele>
        <time>2021-09-11T09:52:14.218Z</time>
      </trkpt>
      <trkpt lat="45.8976" lon="6.13325">
        <ele>447</ele>
        <time>2021-09-11T09:52:15.218Z</time>
      </trkpt>
      <trkpt lat="45.89763" lon="6.1332">
        <ele>447</ele>
        <time>2021-09-11T09:52:16.218Z</time>
      </trkpt>
      <trkpt lat="45.89766" lon="6.13315">
        <ele>446</ele>
        <time>2021-09-11T09:52:17.218Z</time>
      </trkpt>
      <trkpt lat="45.89769" lon="6.1331">
        <ele>446</ele>
        <time>2021-09-11T09:52:18.218Z</time>
      </trkpt>
      <trkpt lat="45.89772" lon="6.13305">
        <ele>446</ele>
        <time>2021-09-11T09:52:19.218Z</time>
      </trkpt>
      <trkpt lat="45.89774" lon="6.13301">
        <ele>445</ele>
        <time>2021-09-11T09:52:20.217Z</time>
      </trkpt>
      <trkpt lat="45.89777" lon="6.13295">
        <ele>445</ele>
        <time>2021-09-11T09:52:21.218Z</time>
      </trkpt>
      <trkpt lat="45.89779" lon="6.1329">
        <ele>445</ele>
        <time>2021-09-11T09:52:22.218Z</time>
      </trkpt>
      <trkpt lat="45.89782" lon="6.13285">
        <ele>445</ele>
        <time>2021-09-11T09:52:23.217Z</time>
      </trkpt>
      <trkpt lat="45.89784" lon="6.1328">
        <ele>444</ele>
        <time>2021-09-11T09:52:24.218Z</time>
      </trkpt>
      <trkpt lat="45.89786" lon="6.13274">
        <ele>445</ele>
        <time>2021-09-11T09:52:25.218Z</time>
      </trkpt>
      <trkpt lat="45.89789" lon="6.13268">
        <ele>445</ele>
        <time>2021-09-11T09:52:26.218Z</time>
      </trkpt>
      <trkpt lat="45.89791" lon="6.13262">
        <ele>445</ele>
        <time>2021-09-11T09:52:27.218Z</time>
      </trkpt>
      <trkpt lat="45.89792" lon="6.13257">
        <ele>446</ele>
        <time>2021-09-11T09:52:28.218Z</time>
      </trkpt>
      <trkpt lat="45.89794" lon="6.13253">
        <ele>446</ele>
        <time>2021-09-11T09:52:29.218Z</time>
      </trkpt>
      <trkpt lat="45.89795" lon="6.13246">
        <ele>446</ele>
        <time>2021-09-11T09:52:30.217Z</time>
      </trkpt>
      <trkpt lat="45.89797" lon="6.13242">
        <ele>446</ele>
        <time>2021-09-11T09:52:31.217Z</time>
      </trkpt>
      <trkpt lat="45.89797" lon="6.13238">
        <ele>446</ele>
        <time>2021-09-11T09:52:32.218Z</time>
      </trkpt>
      <trkpt lat="45.89798" lon="6.13234">
        <ele>446</ele>
        <time>2021-09-11T09:52:33.218Z</time>
      </trkpt>
      <trkpt lat="45.89797" lon="6.1323">
        <ele>446</ele>
        <time>2021-09-11T09:52:34.218Z</time>
      </trkpt>
      <trkpt lat="45.89796" lon="6.13224">
        <ele>446</ele>
        <time>2021-09-11T09:52:35.218Z</time>
      </trkpt>
      <trkpt lat="45.89796" lon="6.1322">
        <ele>446</ele>
        <time>2021-09-11T09:52:36.217Z</time>
      </trkpt>
      <trkpt lat="45.89795" lon="6.13216">
        <ele>445</ele>
        <time>2021-09-11T09:52:37.218Z</time>
      </trkpt>
      <trkpt lat="45.89795" lon="6.13212">
        <ele>445</ele>
        <time>2021-09-11T09:52:38.218Z</time>
      </trkpt>
      <trkpt lat="45.89795" lon="6.13206">
        <ele>445</ele>
        <time>2021-09-11T09:52:39.218Z</time>
      </trkpt>
      <trkpt lat="45.89795" lon="6.132">
        <ele>446</ele>
        <time>2021-09-11T09:52:40.218Z</time>
      </trkpt>
      <trkpt lat="45.89796" lon="6.13196">
        <ele>446</ele>
        <time>2021-09-11T09:52:41.218Z</time>
      </trkpt>
      <trkpt lat="45.89796" lon="6.13191">
        <ele>446</ele>
        <time>2021-09-11T09:52:42.217Z</time>
      </trkpt>
      <trkpt lat="45.89796" lon="6.13185">
        <ele>446</ele>
        <time>2021-09-11T09:52:43.218Z</time>
      </trkpt>
      <trkpt lat="45.89797" lon="6.1318">
        <ele>447</ele>
        <time>2021-09-11T09:52:44.217Z</time>
      </trkpt>
      <trkpt lat="45.89797" lon="6.13174">
        <ele>447</ele>
        <time>2021-09-11T09:52:45.217Z</time>
      </trkpt>
      <trkpt lat="45.89797" lon="6.13168">
        <ele>447</ele>
        <time>2021-09-11T09:52:46.218Z</time>
      </trkpt>
      <trkpt lat="45.89797" lon="6.13162">
        <ele>446</ele>
        <time>2021-09-11T09:52:47.217Z</time>
      </trkpt>
      <trkpt lat="45.89797" lon="6.13157">
        <ele>446</ele>
        <time>2021-09-11T09:52:48.218Z</time>
      </trkpt>
      <trkpt lat="45.89797" lon="6.13151">
        <ele>445</ele>
        <time>2021-09-11T09:52:49.218Z</time>
      </trkpt>
      <trkpt lat="45.89797" lon="6.13145">
        <ele>445</ele>
        <time>2021-09-11T09:52:50.218Z</time>
      </trkpt>
      <trkpt lat="45.89797" lon="6.13139">
        <ele>445</ele>
        <time>2021-09-11T09:52:51.218Z</time>
      </trkpt>
      <trkpt lat="45.89797" lon="6.13133">
        <ele>445</ele>
        <time>2021-09-11T09:52:52.218Z</time>
      </trkpt>
      <trkpt lat="45.89798" lon="6.13127">
        <ele>444</ele>
        <time>2021-09-11T09:52:53.218Z</time>
      </trkpt>
      <trkpt lat="45.89798" lon="6.13121">
        <ele>444</ele>
        <time>2021-09-11T09:52:54.218Z</time>
      </trkpt>
      <trkpt lat="45.89798" lon="6.13115">
        <ele>443</ele>
        <time>2021-09-11T09:52:55.218Z</time>
      </trkpt>
      <trkpt lat="45.89798" lon="6.13109">
        <ele>443</ele>
        <time>2021-09-11T09:52:56.218Z</time>
      </trkpt>
      <trkpt lat="45.89797" lon="6.13102">
        <ele>443</ele>
        <time>2021-09-11T09:52:57.218Z</time>
      </trkpt>
      <trkpt lat="45.89797" lon="6.13096">
        <ele>443</ele>
        <time>2021-09-11T09:52:58.218Z</time>
      </trkpt>
      <trkpt lat="45.89796" lon="6.13089">
        <ele>443</ele>
        <time>2021-09-11T09:52:59.218Z</time>
      </trkpt>
      <trkpt lat="45.89796" lon="6.13082">
        <ele>444</ele>
        <time>2021-09-11T09:53:00.218Z</time>
      </trkpt>
      <trkpt lat="45.89796" lon="6.13076">
        <ele>444</ele>
        <time>2021-09-11T09:53:01.218Z</time>
      </trkpt>
      <trkpt lat="45.89795" lon="6.1307">
        <ele>445</ele>
        <time>2021-09-11T09:53:02.218Z</time>
      </trkpt>
      <trkpt lat="45.89795" lon="6.13064">
        <ele>445</ele>
        <time>2021-09-11T09:53:03.218Z</time>
      </trkpt>
      <trkpt lat="45.89794" lon="6.13057">
        <ele>446</ele>
        <time>2021-09-11T09:53:04.218Z</time>
      </trkpt>
      <trkpt lat="45.89792" lon="6.13051">
        <ele>446</ele>
        <time>2021-09-11T09:53:05.218Z</time>
      </trkpt>
      <trkpt lat="45.89789" lon="6.13044">
        <ele>447</ele>
        <time>2021-09-11T09:53:06.217Z</time>
      </trkpt>
      <trkpt lat="45.89788" lon="6.13038">
        <ele>448</ele>
        <time>2021-09-11T09:53:07.218Z</time>
      </trkpt>
      <trkpt lat="45.89787" lon="6.13032">
        <ele>448</ele>
        <time>2021-09-11T09:53:08.217Z</time>
      </trkpt>
      <trkpt lat="45.89786" lon="6.13027">
        <ele>449</ele>
        <time>2021-09-11T09:53:09.218Z</time>
      </trkpt>
      <trkpt lat="45.89786" lon="6.13021">
        <ele>449</ele>
        <time>2021-09-11T09:53:10.218Z</time>
      </trkpt>
      <trkpt lat="45.89787" lon="6.13015">
        <ele>449</ele>
        <time>2021-09-11T09:53:11.218Z</time>
      </trkpt>
      <trkpt lat="45.89788" lon="6.13009">
        <ele>449</ele>
        <time>2021-09-11T09:53:12.218Z</time>
      </trkpt>
      <trkpt lat="45.89789" lon="6.13003">
        <ele>449</ele>
        <time>2021-09-11T09:53:13.217Z</time>
      </trkpt>
      <trkpt lat="45.8979" lon="6.12997">
        <ele>448</ele>
        <time>2021-09-11T09:53:14.217Z</time>
      </trkpt>
      <trkpt lat="45.89791" lon="6.12991">
        <ele>448</ele>
        <time>2021-09-11T09:53:15.218Z</time>
      </trkpt>
      <trkpt lat="45.89791" lon="6.12985">
        <ele>447</ele>
        <time>2021-09-11T09:53:16.218Z</time>
      </trkpt>
      <trkpt lat="45.89792" lon="6.12979">
        <ele>447</ele>
        <time>2021-09-11T09:53:17.217Z</time>
      </trkpt>
      <trkpt lat="45.89793" lon="6.12973">
        <ele>447</ele>
        <time>2021-09-11T09:53:18.218Z</time>
      </trkpt>
      <trkpt lat="45.89794" lon="6.12967">
        <ele>447</ele>
        <time>2021-09-11T09:53:19.217Z</time>
      </trkpt>
      <trkpt lat="45.89794" lon="6.12961">
        <ele>447</ele>
        <time>2021-09-11T09:53:20.218Z</time>
      </trkpt>
      <trkpt lat="45.89795" lon="6.12955">
        <ele>447</ele>
        <time>2021-09-11T09:53:21.218Z</time>
      </trkpt>
      <trkpt lat="45.89796" lon="6.12949">
        <ele>447</ele>
        <time>2021-09-11T09:53:22.217Z</time>
      </trkpt>
      <trkpt lat="45.89797" lon="6.12944">
        <ele>446</ele>
        <time>2021-09-11T09:53:23.218Z</time>
      </trkpt>
      <trkpt lat="45.89798" lon="6.12938">
        <ele>445</ele>
        <time>2021-09-11T09:53:24.218Z</time>
      </trkpt>
      <trkpt lat="45.89799" lon="6.12933">
        <ele>445</ele>
        <time>2021-09-11T09:53:25.218Z</time>
      </trkpt>
      <trkpt lat="45.898" lon="6.12928">
        <ele>444</ele>
        <time>2021-09-11T09:53:26.218Z</time>
      </trkpt>
      <trkpt lat="45.89801" lon="6.12923">
        <ele>444</ele>
        <time>2021-09-11T09:53:27.218Z</time>
      </trkpt>
      <trkpt lat="45.89803" lon="6.12918">
        <ele>444</ele>
        <time>2021-09-11T09:53:28.218Z</time>
      </trkpt>
      <trkpt lat="45.89805" lon="6.12915">
        <ele>443</ele>
        <time>2021-09-11T09:53:29.218Z</time>
      </trkpt>
      <trkpt lat="45.89807" lon="6.12911">
        <ele>444</ele>
        <time>2021-09-11T09:53:30.218Z</time>
      </trkpt>
      <trkpt lat="45.8981" lon="6.12909">
        <ele>444</ele>
        <time>2021-09-11T09:53:31.218Z</time>
      </trkpt>
      <trkpt lat="45.89813" lon="6.12908">
        <ele>444</ele>
        <time>2021-09-11T09:53:32.218Z</time>
      </trkpt>
      <trkpt lat="45.89816" lon="6.12907">
        <ele>444</ele>
        <time>2021-09-11T09:53:33.218Z</time>
      </trkpt>
      <trkpt lat="45.89819" lon="6.12907">
        <ele>444</ele>
        <time>2021-09-11T09:53:34.218Z</time>
      </trkpt>
      <trkpt lat="45.89822" lon="6.12907">
        <ele>444</ele>
        <time>2021-09-11T09:53:35.218Z</time>
      </trkpt>
      <trkpt lat="45.89826" lon="6.12908">
        <ele>445</ele>
        <time>2021-09-11T09:53:36.218Z</time>
      </trkpt>
      <trkpt lat="45.89829" lon="6.12908">
        <ele>445</ele>
        <time>2021-09-11T09:53:37.218Z</time>
      </trkpt>
      <trkpt lat="45.89832" lon="6.12908">
        <ele>445</ele>
        <time>2021-09-11T09:53:38.217Z</time>
      </trkpt>
      <trkpt lat="45.89836" lon="6.12908">
        <ele>445</ele>
        <time>2021-09-11T09:53:39.218Z</time>
      </trkpt>
      <trkpt lat="45.89839" lon="6.12907">
        <ele>446</ele>
        <time>2021-09-11T09:53:40.218Z</time>
      </trkpt>
      <trkpt lat="45.89841" lon="6.12907">
        <ele>446</ele>
        <time>2021-09-11T09:53:41.217Z</time>
      </trkpt>
      <trkpt lat="45.89843" lon="6.12907">
        <ele>446</ele>
        <time>2021-09-11T09:53:42.217Z</time>
      </trkpt>
      <trkpt lat="45.89843" lon="6.12907">
        <ele>447</ele>
        <time>2021-09-11T09:53:43.218Z</time>
      </trkpt>
      <trkpt lat="45.89844" lon="6.12906">
        <ele>447</ele>
        <time>2021-09-11T09:53:44.218Z</time>
      </trkpt>
      <trkpt lat="45.89844" lon="6.12907">
        <ele>448</ele>
        <time>2021-09-11T09:53:45.217Z</time>
      </trkpt>
      <trkpt lat="45.89844" lon="6.12907">
        <ele>448</ele>
        <time>2021-09-11T09:53:46.218Z</time>
      </trkpt>
      <trkpt lat="45.8985" lon="6.12906">
        <ele>450</ele>
        <time>2021-09-11T09:53:47.219Z</time>
      </trkpt>
      <trkpt lat="45.89853" lon="6.12907">
        <ele>450</ele>
        <time>2021-09-11T09:53:48.218Z</time>
      </trkpt>
      <trkpt lat="45.89857" lon="6.12907">
        <ele>451</ele>
        <time>2021-09-11T09:53:49.219Z</time>
      </trkpt>
      <trkpt lat="45.8986" lon="6.12907">
        <ele>451</ele>
        <time>2021-09-11T09:53:50.218Z</time>
      </trkpt>
      <trkpt lat="45.89864" lon="6.12908">
        <ele>451</ele>
        <time>2021-09-11T09:53:51.218Z</time>
      </trkpt>
      <trkpt lat="45.89868" lon="6.12908">
        <ele>451</ele>
        <time>2021-09-11T09:53:52.218Z</time>
      </trkpt>
      <trkpt lat="45.89872" lon="6.12908">
        <ele>451</ele>
        <time>2021-09-11T09:53:53.218Z</time>
      </trkpt>
      <trkpt lat="45.89877" lon="6.12908">
        <ele>451</ele>
        <time>2021-09-11T09:53:54.219Z</time>
      </trkpt>
      <trkpt lat="45.8988" lon="6.12908">
        <ele>451</ele>
        <time>2021-09-11T09:53:55.218Z</time>
      </trkpt>
      <trkpt lat="45.89884" lon="6.12909">
        <ele>451</ele>
        <time>2021-09-11T09:53:56.218Z</time>
      </trkpt>
      <trkpt lat="45.89887" lon="6.12908">
        <ele>451</ele>
        <time>2021-09-11T09:53:57.219Z</time>
      </trkpt>
      <trkpt lat="45.89889" lon="6.12906">
        <ele>451</ele>
        <time>2021-09-11T09:53:58.219Z</time>
      </trkpt>
      <trkpt lat="45.89892" lon="6.12904">
        <ele>450</ele>
        <time>2021-09-11T09:53:59.219Z</time>
      </trkpt>
      <trkpt lat="45.89895" lon="6.12902">
        <ele>450</ele>
        <time>2021-09-11T09:54:00.218Z</time>
      </trkpt>
      <trkpt lat="45.89898" lon="6.129">
        <ele>451</ele>
        <time>2021-09-11T09:54:01.219Z</time>
      </trkpt>
      <trkpt lat="45.89901" lon="6.12898">
        <ele>451</ele>
        <time>2021-09-11T09:54:02.219Z</time>
      </trkpt>
      <trkpt lat="45.89904" lon="6.12896">
        <ele>451</ele>
        <time>2021-09-11T09:54:03.219Z</time>
      </trkpt>
      <trkpt lat="45.89907" lon="6.12894">
        <ele>452</ele>
        <time>2021-09-11T09:54:04.219Z</time>
      </trkpt>
      <trkpt lat="45.8991" lon="6.12892">
        <ele>452</ele>
        <time>2021-09-11T09:54:05.218Z</time>
      </trkpt>
      <trkpt lat="45.89912" lon="6.1289">
        <ele>452</ele>
        <time>2021-09-11T09:54:06.218Z</time>
      </trkpt>
      <trkpt lat="45.89914" lon="6.12888">
        <ele>451</ele>
        <time>2021-09-11T09:54:07.219Z</time>
      </trkpt>
      <trkpt lat="45.89916" lon="6.12885">
        <ele>451</ele>
        <time>2021-09-11T09:54:08.219Z</time>
      </trkpt>
      <trkpt lat="45.89918" lon="6.12883">
        <ele>451</ele>
        <time>2021-09-11T09:54:09.219Z</time>
      </trkpt>
      <trkpt lat="45.8992" lon="6.12882">
        <ele>451</ele>
        <time>2021-09-11T09:54:10.218Z</time>
      </trkpt>
      <trkpt lat="45.89922" lon="6.1288">
        <ele>450</ele>
        <time>2021-09-11T09:54:11.218Z</time>
      </trkpt>
      <trkpt lat="45.89923" lon="6.12878">
        <ele>450</ele>
        <time>2021-09-11T09:54:12.218Z</time>
      </trkpt>
      <trkpt lat="45.89925" lon="6.12877">
        <ele>450</ele>
        <time>2021-09-11T09:54:13.219Z</time>
      </trkpt>
      <trkpt lat="45.89927" lon="6.12876">
        <ele>450</ele>
        <time>2021-09-11T09:54:14.219Z</time>
      </trkpt>
      <trkpt lat="45.89929" lon="6.12873">
        <ele>450</ele>
        <time>2021-09-11T09:54:15.218Z</time>
      </trkpt>
      <trkpt lat="45.89929" lon="6.12871">
        <ele>449</ele>
        <time>2021-09-11T09:54:16.218Z</time>
      </trkpt>
      <trkpt lat="45.8993" lon="6.12868">
        <ele>449</ele>
        <time>2021-09-11T09:54:17.219Z</time>
      </trkpt>
      <trkpt lat="45.8993" lon="6.12866">
        <ele>449</ele>
        <time>2021-09-11T09:54:18.219Z</time>
      </trkpt>
      <trkpt lat="45.89929" lon="6.12863">
        <ele>448</ele>
        <time>2021-09-11T09:54:19.219Z</time>
      </trkpt>
      <trkpt lat="45.89928" lon="6.12859">
        <ele>448</ele>
        <time>2021-09-11T09:54:20.219Z</time>
      </trkpt>
      <trkpt lat="45.89928" lon="6.12856">
        <ele>448</ele>
        <time>2021-09-11T09:54:21.219Z</time>
      </trkpt>
      <trkpt lat="45.89927" lon="6.12853">
        <ele>448</ele>
        <time>2021-09-11T09:54:22.218Z</time>
      </trkpt>
      <trkpt lat="45.89927" lon="6.12849">
        <ele>448</ele>
        <time>2021-09-11T09:54:23.219Z</time>
      </trkpt>
      <trkpt lat="45.89926" lon="6.12845">
        <ele>447</ele>
        <time>2021-09-11T09:54:24.219Z</time>
      </trkpt>
      <trkpt lat="45.89925" lon="6.12841">
        <ele>447</ele>
        <time>2021-09-11T09:54:25.218Z</time>
      </trkpt>
      <trkpt lat="45.89923" lon="6.12838">
        <ele>447</ele>
        <time>2021-09-11T09:54:26.219Z</time>
      </trkpt>
      <trkpt lat="45.89922" lon="6.12836">
        <ele>447</ele>
        <time>2021-09-11T09:54:27.218Z</time>
      </trkpt>
      <trkpt lat="45.89921" lon="6.12834">
        <ele>447</ele>
        <time>2021-09-11T09:54:28.218Z</time>
      </trkpt>
      <trkpt lat="45.89919" lon="6.12834">
        <ele>447</ele>
        <time>2021-09-11T09:54:29.218Z</time>
      </trkpt>
      <trkpt lat="45.89917" lon="6.12835">
        <ele>447</ele>
        <time>2021-09-11T09:54:30.219Z</time>
      </trkpt>
      <trkpt lat="45.89916" lon="6.12836">
        <ele>447</ele>
        <time>2021-09-11T09:54:31.219Z</time>
      </trkpt>
      <trkpt lat="45.89915" lon="6.12837">
        <ele>447</ele>
        <time>2021-09-11T09:54:32.218Z</time>
      </trkpt>
      <trkpt lat="45.89914" lon="6.12838">
        <ele>447</ele>
        <time>2021-09-11T09:54:33.219Z</time>
      </trkpt>
      <trkpt lat="45.89913" lon="6.1284">
        <ele>447</ele>
        <time>2021-09-11T09:54:34.219Z</time>
      </trkpt>
      <trkpt lat="45.89912" lon="6.12841">
        <ele>447</ele>
        <time>2021-09-11T09:54:35.219Z</time>
      </trkpt>
      <trkpt lat="45.89913" lon="6.12841">
        <ele>447</ele>
        <time>2021-09-11T09:54:36.219Z</time>
      </trkpt>
      <trkpt lat="45.89913" lon="6.12842">
        <ele>446</ele>
        <time>2021-09-11T09:54:37.219Z</time>
      </trkpt>
      <trkpt lat="45.89914" lon="6.12843">
        <ele>446</ele>
        <time>2021-09-11T09:54:38.219Z</time>
      </trkpt>
      <trkpt lat="45.89915" lon="6.12843">
        <ele>445</ele>
        <time>2021-09-11T09:54:39.218Z</time>
      </trkpt>
      <trkpt lat="45.89916" lon="6.12843">
        <ele>445</ele>
        <time>2021-09-11T09:54:40.219Z</time>
      </trkpt>
      <trkpt lat="45.89917" lon="6.12843">
        <ele>444</ele>
        <time>2021-09-11T09:54:41.219Z</time>
      </trkpt>
      <trkpt lat="45.89918" lon="6.12841">
        <ele>443</ele>
        <time>2021-09-11T09:54:42.219Z</time>
      </trkpt>
      <trkpt lat="45.89918" lon="6.12839">
        <ele>443</ele>
        <time>2021-09-11T09:54:43.218Z</time>
      </trkpt>
      <trkpt lat="45.89918" lon="6.12836">
        <ele>443</ele>
        <time>2021-09-11T09:54:44.218Z</time>
      </trkpt>
      <trkpt lat="45.89917" lon="6.12834">
        <ele>443</ele>
        <time>2021-09-11T09:54:45.218Z</time>
      </trkpt>
      <trkpt lat="45.89917" lon="6.1283">
        <ele>443</ele>
        <time>2021-09-11T09:54:46.219Z</time>
      </trkpt>
      <trkpt lat="45.89915" lon="6.12826">
        <ele>444</ele>
        <time>2021-09-11T09:54:47.219Z</time>
      </trkpt>
      <trkpt lat="45.89914" lon="6.12823">
        <ele>444</ele>
        <time>2021-09-11T09:54:48.219Z</time>
      </trkpt>
      <trkpt lat="45.89913" lon="6.12819">
        <ele>445</ele>
        <time>2021-09-11T09:54:49.218Z</time>
      </trkpt>
      <trkpt lat="45.89913" lon="6.12816">
        <ele>445</ele>
        <time>2021-09-11T09:54:50.218Z</time>
      </trkpt>
      <trkpt lat="45.89912" lon="6.12813">
        <ele>445</ele>
        <time>2021-09-11T09:54:51.218Z</time>
      </trkpt>
      <trkpt lat="45.89911" lon="6.1281">
        <ele>445</ele>
        <time>2021-09-11T09:54:52.219Z</time>
      </trkpt>
      <trkpt lat="45.89911" lon="6.12806">
        <ele>445</ele>
        <time>2021-09-11T09:54:53.219Z</time>
      </trkpt>
      <trkpt lat="45.89911" lon="6.12804">
        <ele>446</ele>
        <time>2021-09-11T09:54:54.218Z</time>
      </trkpt>
      <trkpt lat="45.8991" lon="6.12801">
        <ele>446</ele>
        <time>2021-09-11T09:54:55.219Z</time>
      </trkpt>
      <trkpt lat="45.89909" lon="6.12797">
        <ele>447</ele>
        <time>2021-09-11T09:54:56.219Z</time>
      </trkpt>
      <trkpt lat="45.89908" lon="6.12794">
        <ele>447</ele>
        <time>2021-09-11T09:54:57.218Z</time>
      </trkpt>
      <trkpt lat="45.89908" lon="6.12791">
        <ele>447</ele>
        <time>2021-09-11T09:54:58.218Z</time>
      </trkpt>
      <trkpt lat="45.89907" lon="6.12788">
        <ele>448</ele>
        <time>2021-09-11T09:54:59.218Z</time>
      </trkpt>
      <trkpt lat="45.89907" lon="6.12786">
        <ele>448</ele>
        <time>2021-09-11T09:55:00.218Z</time>
      </trkpt>
      <trkpt lat="45.89906" lon="6.12783">
        <ele>449</ele>
        <time>2021-09-11T09:55:01.219Z</time>
      </trkpt>
      <trkpt lat="45.89906" lon="6.1278">
        <ele>449</ele>
        <time>2021-09-11T09:55:02.218Z</time>
      </trkpt>
      <trkpt lat="45.89905" lon="6.12777">
        <ele>449</ele>
        <time>2021-09-11T09:55:03.219Z</time>
      </trkpt>
      <trkpt lat="45.89905" lon="6.12775">
        <ele>449</ele>
        <time>2021-09-11T09:55:04.219Z</time>
      </trkpt>
      <trkpt lat="45.89905" lon="6.12773">
        <ele>449</ele>
        <time>2021-09-11T09:55:05.219Z</time>
      </trkpt>
      <trkpt lat="45.89905" lon="6.1277">
        <ele>449</ele>
        <time>2021-09-11T09:55:06.219Z</time>
      </trkpt>
      <trkpt lat="45.89905" lon="6.12767">
        <ele>449</ele>
        <time>2021-09-11T09:55:07.218Z</time>
      </trkpt>
      <trkpt lat="45.89905" lon="6.12765">
        <ele>449</ele>
        <time>2021-09-11T09:55:08.218Z</time>
      </trkpt>
      <trkpt lat="45.89906" lon="6.12761">
        <ele>448</ele>
        <time>2021-09-11T09:55:09.218Z</time>
      </trkpt>
      <trkpt lat="45.89906" lon="6.12757">
        <ele>448</ele>
        <time>2021-09-11T09:55:10.219Z</time>
      </trkpt>
      <trkpt lat="45.89906" lon="6.12755">
        <ele>448</ele>
        <time>2021-09-11T09:55:11.218Z</time>
      </trkpt>
      <trkpt lat="45.89907" lon="6.1275">
        <ele>447</ele>
        <time>2021-09-11T09:55:12.219Z</time>
      </trkpt>
      <trkpt lat="45.89906" lon="6.12749">
        <ele>447</ele>
        <time>2021-09-11T09:55:13.219Z</time>
      </trkpt>
      <trkpt lat="45.89905" lon="6.12745">
        <ele>447</ele>
        <time>2021-09-11T09:55:14.219Z</time>
      </trkpt>
      <trkpt lat="45.89904" lon="6.12742">
        <ele>447</ele>
        <time>2021-09-11T09:55:15.219Z</time>
      </trkpt>
      <trkpt lat="45.89904" lon="6.12738">
        <ele>447</ele>
        <time>2021-09-11T09:55:16.219Z</time>
      </trkpt>
      <trkpt lat="45.89903" lon="6.12735">
        <ele>447</ele>
        <time>2021-09-11T09:55:17.219Z</time>
      </trkpt>
      <trkpt lat="45.89902" lon="6.12731">
        <ele>447</ele>
        <time>2021-09-11T09:55:18.219Z</time>
      </trkpt>
      <trkpt lat="45.89902" lon="6.12727">
        <ele>447</ele>
        <time>2021-09-11T09:55:19.218Z</time>
      </trkpt>
      <trkpt lat="45.89902" lon="6.12722">
        <ele>448</ele>
        <time>2021-09-11T09:55:20.219Z</time>
      </trkpt>
      <trkpt lat="45.89902" lon="6.12717">
        <ele>448</ele>
        <time>2021-09-11T09:55:21.219Z</time>
      </trkpt>
      <trkpt lat="45.89902" lon="6.12714">
        <ele>448</ele>
        <time>2021-09-11T09:55:22.219Z</time>
      </trkpt>
      <trkpt lat="45.89902" lon="6.12708">
        <ele>449</ele>
        <time>2021-09-11T09:55:23.218Z</time>
      </trkpt>
      <trkpt lat="45.89902" lon="6.12704">
        <ele>450</ele>
        <time>2021-09-11T09:55:24.219Z</time>
      </trkpt>
      <trkpt lat="45.89903" lon="6.12699">
        <ele>451</ele>
        <time>2021-09-11T09:55:25.219Z</time>
      </trkpt>
      <trkpt lat="45.89903" lon="6.12695">
        <ele>451</ele>
        <time>2021-09-11T09:55:26.218Z</time>
      </trkpt>
      <trkpt lat="45.89904" lon="6.12691">
        <ele>452</ele>
        <time>2021-09-11T09:55:27.218Z</time>
      </trkpt>
      <trkpt lat="45.89905" lon="6.12687">
        <ele>452</ele>
        <time>2021-09-11T09:55:28.218Z</time>
      </trkpt>
      <trkpt lat="45.89906" lon="6.12683">
        <ele>453</ele>
        <time>2021-09-11T09:55:29.219Z</time>
      </trkpt>
      <trkpt lat="45.89905" lon="6.1268">
        <ele>453</ele>
        <time>2021-09-11T09:55:30.219Z</time>
      </trkpt>
      <trkpt lat="45.89905" lon="6.12677">
        <ele>453</ele>
        <time>2021-09-11T09:55:31.218Z</time>
      </trkpt>
      <trkpt lat="45.89904" lon="6.12675">
        <ele>453</ele>
        <time>2021-09-11T09:55:32.219Z</time>
      </trkpt>
      <trkpt lat="45.89903" lon="6.12673">
        <ele>453</ele>
        <time>2021-09-11T09:55:33.218Z</time>
      </trkpt>
      <trkpt lat="45.89902" lon="6.1267">
        <ele>453</ele>
        <time>2021-09-11T09:55:34.218Z</time>
      </trkpt>
      <trkpt lat="45.89902" lon="6.12666">
        <ele>453</ele>
        <time>2021-09-11T09:55:35.219Z</time>
      </trkpt>
      <trkpt lat="45.89902" lon="6.12664">
        <ele>453</ele>
        <time>2021-09-11T09:55:36.219Z</time>
      </trkpt>
      <trkpt lat="45.89902" lon="6.12662">
        <ele>454</ele>
        <time>2021-09-11T09:55:37.219Z</time>
      </trkpt>
      <trkpt lat="45.89902" lon="6.12659">
        <ele>454</ele>
        <time>2021-09-11T09:55:38.219Z</time>
      </trkpt>
      <trkpt lat="45.89902" lon="6.12656">
        <ele>455</ele>
        <time>2021-09-11T09:55:39.219Z</time>
      </trkpt>
      <trkpt lat="45.89902" lon="6.12653">
        <ele>455</ele>
        <time>2021-09-11T09:55:40.219Z</time>
      </trkpt>
      <trkpt lat="45.89901" lon="6.12649">
        <ele>456</ele>
        <time>2021-09-11T09:55:41.219Z</time>
      </trkpt>
      <trkpt lat="45.899" lon="6.12646">
        <ele>456</ele>
        <time>2021-09-11T09:55:42.218Z</time>
      </trkpt>
      <trkpt lat="45.89899" lon="6.12644">
        <ele>457</ele>
        <time>2021-09-11T09:55:43.219Z</time>
      </trkpt>
      <trkpt lat="45.89897" lon="6.12643">
        <ele>457</ele>
        <time>2021-09-11T09:55:44.218Z</time>
      </trkpt>
      <trkpt lat="45.89896" lon="6.12642">
        <ele>458</ele>
        <time>2021-09-11T09:55:45.219Z</time>
      </trkpt>
      <trkpt lat="45.89895" lon="6.1264">
        <ele>458</ele>
        <time>2021-09-11T09:55:46.219Z</time>
      </trkpt>
      <trkpt lat="45.89895" lon="6.12638">
        <ele>459</ele>
        <time>2021-09-11T09:55:47.219Z</time>
      </trkpt>
      <trkpt lat="45.89895" lon="6.12635">
        <ele>459</ele>
        <time>2021-09-11T09:55:48.219Z</time>
      </trkpt>
      <trkpt lat="45.89895" lon="6.12634">
        <ele>459</ele>
        <time>2021-09-11T09:55:49.218Z</time>
      </trkpt>
      <trkpt lat="45.89894" lon="6.12633">
        <ele>460</ele>
        <time>2021-09-11T09:55:50.218Z</time>
      </trkpt>
      <trkpt lat="45.89893" lon="6.12632">
        <ele>460</ele>
        <time>2021-09-11T09:55:51.219Z</time>
      </trkpt>
      <trkpt lat="45.89893" lon="6.1263">
        <ele>460</ele>
        <time>2021-09-11T09:55:52.218Z</time>
      </trkpt>
      <trkpt lat="45.89893" lon="6.12627">
        <ele>460</ele>
        <time>2021-09-11T09:55:53.219Z</time>
      </trkpt>
      <trkpt lat="45.89893" lon="6.12624">
        <ele>459</ele>
        <time>2021-09-11T09:55:54.219Z</time>
      </trkpt>
      <trkpt lat="45.89893" lon="6.12621">
        <ele>459</ele>
        <time>2021-09-11T09:55:55.219Z</time>
      </trkpt>
      <trkpt lat="45.89893" lon="6.12618">
        <ele>458</ele>
        <time>2021-09-11T09:55:56.219Z</time>
      </trkpt>
      <trkpt lat="45.89892" lon="6.12614">
        <ele>457</ele>
        <time>2021-09-11T09:55:57.218Z</time>
      </trkpt>
      <trkpt lat="45.89893" lon="6.1261">
        <ele>457</ele>
        <time>2021-09-11T09:55:58.219Z</time>
      </trkpt>
      <trkpt lat="45.89893" lon="6.12606">
        <ele>456</ele>
        <time>2021-09-11T09:55:59.219Z</time>
      </trkpt>
      <trkpt lat="45.89894" lon="6.12602">
        <ele>456</ele>
        <time>2021-09-11T09:56:00.219Z</time>
      </trkpt>
      <trkpt lat="45.89894" lon="6.12598">
        <ele>456</ele>
        <time>2021-09-11T09:56:01.219Z</time>
      </trkpt>
      <trkpt lat="45.89895" lon="6.12594">
        <ele>456</ele>
        <time>2021-09-11T09:56:02.219Z</time>
      </trkpt>
      <trkpt lat="45.89896" lon="6.12589">
        <ele>456</ele>
        <time>2021-09-11T09:56:03.219Z</time>
      </trkpt>
      <trkpt lat="45.89897" lon="6.12585">
        <ele>456</ele>
        <time>2021-09-11T09:56:04.218Z</time>
      </trkpt>
      <trkpt lat="45.89898" lon="6.12581">
        <ele>455</ele>
        <time>2021-09-11T09:56:05.219Z</time>
      </trkpt>
      <trkpt lat="45.89899" lon="6.12576">
        <ele>455</ele>
        <time>2021-09-11T09:56:06.218Z</time>
      </trkpt>
      <trkpt lat="45.89899" lon="6.12572">
        <ele>455</ele>
        <time>2021-09-11T09:56:07.219Z</time>
      </trkpt>
      <trkpt lat="45.899" lon="6.12568">
        <ele>455</ele>
        <time>2021-09-11T09:56:08.219Z</time>
      </trkpt>
      <trkpt lat="45.899" lon="6.12564">
        <ele>455</ele>
        <time>2021-09-11T09:56:09.218Z</time>
      </trkpt>
      <trkpt lat="45.899" lon="6.12561">
        <ele>454</ele>
        <time>2021-09-11T09:56:10.219Z</time>
      </trkpt>
      <trkpt lat="45.899" lon="6.12559">
        <ele>454</ele>
        <time>2021-09-11T09:56:11.218Z</time>
      </trkpt>
      <trkpt lat="45.89901" lon="6.12556">
        <ele>453</ele>
        <time>2021-09-11T09:56:12.219Z</time>
      </trkpt>
      <trkpt lat="45.89901" lon="6.12553">
        <ele>453</ele>
        <time>2021-09-11T09:56:13.219Z</time>
      </trkpt>
      <trkpt lat="45.89902" lon="6.12551">
        <ele>452</ele>
        <time>2021-09-11T09:56:14.219Z</time>
      </trkpt>
      <trkpt lat="45.89902" lon="6.12548">
        <ele>452</ele>
        <time>2021-09-11T09:56:15.219Z</time>
      </trkpt>
      <trkpt lat="45.89901" lon="6.12545">
        <ele>451</ele>
        <time>2021-09-11T09:56:16.219Z</time>
      </trkpt>
      <trkpt lat="45.89902" lon="6.12543">
        <ele>450</ele>
        <time>2021-09-11T09:56:17.219Z</time>
      </trkpt>
      <trkpt lat="45.89902" lon="6.12538">
        <ele>450</ele>
        <time>2021-09-11T09:56:18.219Z</time>
      </trkpt>
      <trkpt lat="45.89903" lon="6.12534">
        <ele>449</ele>
        <time>2021-09-11T09:56:19.218Z</time>
      </trkpt>
      <trkpt lat="45.89904" lon="6.1253">
        <ele>449</ele>
        <time>2021-09-11T09:56:20.218Z</time>
      </trkpt>
      <trkpt lat="45.89905" lon="6.12527">
        <ele>449</ele>
        <time>2021-09-11T09:56:21.218Z</time>
      </trkpt>
      <trkpt lat="45.89907" lon="6.12522">
        <ele>448</ele>
        <time>2021-09-11T09:56:22.219Z</time>
      </trkpt>
      <trkpt lat="45.89907" lon="6.12519">
        <ele>449</ele>
        <time>2021-09-11T09:56:23.218Z</time>
      </trkpt>
      <trkpt lat="45.89908" lon="6.12516">
        <ele>449</ele>
        <time>2021-09-11T09:56:24.219Z</time>
      </trkpt>
      <trkpt lat="45.89908" lon="6.12514">
        <ele>449</ele>
        <time>2021-09-11T09:56:25.218Z</time>
      </trkpt>
      <trkpt lat="45.89909" lon="6.12512">
        <ele>450</ele>
        <time>2021-09-11T09:56:26.219Z</time>
      </trkpt>
      <trkpt lat="45.8991" lon="6.12509">
        <ele>450</ele>
        <time>2021-09-11T09:56:27.219Z</time>
      </trkpt>
      <trkpt lat="45.8991" lon="6.12506">
        <ele>450</ele>
        <time>2021-09-11T09:56:28.219Z</time>
      </trkpt>
      <trkpt lat="45.8991" lon="6.12503">
        <ele>450</ele>
        <time>2021-09-11T09:56:29.219Z</time>
      </trkpt>
      <trkpt lat="45.89911" lon="6.125">
        <ele>451</ele>
        <time>2021-09-11T09:56:30.219Z</time>
      </trkpt>
      <trkpt lat="45.89911" lon="6.12495">
        <ele>451</ele>
        <time>2021-09-11T09:56:31.218Z</time>
      </trkpt>
      <trkpt lat="45.89911" lon="6.1249">
        <ele>450</ele>
        <time>2021-09-11T09:56:32.218Z</time>
      </trkpt>
      <trkpt lat="45.89911" lon="6.12486">
        <ele>450</ele>
        <time>2021-09-11T09:56:33.218Z</time>
      </trkpt>
      <trkpt lat="45.89912" lon="6.12481">
        <ele>450</ele>
        <time>2021-09-11T09:56:34.219Z</time>
      </trkpt>
      <trkpt lat="45.89912" lon="6.12477">
        <ele>450</ele>
        <time>2021-09-11T09:56:35.219Z</time>
      </trkpt>
      <trkpt lat="45.89913" lon="6.12473">
        <ele>449</ele>
        <time>2021-09-11T09:56:36.218Z</time>
      </trkpt>
      <trkpt lat="45.89914" lon="6.12469">
        <ele>449</ele>
        <time>2021-09-11T09:56:37.219Z</time>
      </trkpt>
      <trkpt lat="45.89915" lon="6.12464">
        <ele>449</ele>
        <time>2021-09-11T09:56:38.219Z</time>
      </trkpt>
      <trkpt lat="45.89915" lon="6.12459">
        <ele>449</ele>
        <time>2021-09-11T09:56:39.218Z</time>
      </trkpt>
      <trkpt lat="45.89916" lon="6.12455">
        <ele>449</ele>
        <time>2021-09-11T09:56:40.219Z</time>
      </trkpt>
      <trkpt lat="45.89917" lon="6.12452">
        <ele>449</ele>
        <time>2021-09-11T09:56:41.218Z</time>
      </trkpt>
      <trkpt lat="45.89917" lon="6.12449">
        <ele>449</ele>
        <time>2021-09-11T09:56:42.219Z</time>
      </trkpt>
      <trkpt lat="45.89917" lon="6.12444">
        <ele>449</ele>
        <time>2021-09-11T09:56:43.219Z</time>
      </trkpt>
      <trkpt lat="45.89917" lon="6.12439">
        <ele>448</ele>
        <time>2021-09-11T09:56:44.219Z</time>
      </trkpt>
      <trkpt lat="45.89917" lon="6.12434">
        <ele>448</ele>
        <time>2021-09-11T09:56:45.219Z</time>
      </trkpt>
      <trkpt lat="45.89918" lon="6.1243">
        <ele>448</ele>
        <time>2021-09-11T09:56:46.218Z</time>
      </trkpt>
      <trkpt lat="45.89918" lon="6.12426">
        <ele>448</ele>
        <time>2021-09-11T09:56:47.219Z</time>
      </trkpt>
      <trkpt lat="45.89918" lon="6.12424">
        <ele>448</ele>
        <time>2021-09-11T09:56:48.219Z</time>
      </trkpt>
      <trkpt lat="45.89918" lon="6.12422">
        <ele>448</ele>
        <time>2021-09-11T09:56:49.219Z</time>
      </trkpt>
      <trkpt lat="45.89917" lon="6.12421">
        <ele>448</ele>
        <time>2021-09-11T09:56:50.218Z</time>
      </trkpt>
      <trkpt lat="45.89917" lon="6.12419">
        <ele>448</ele>
        <time>2021-09-11T09:56:51.219Z</time>
      </trkpt>
      <trkpt lat="45.89918" lon="6.12417">
        <ele>448</ele>
        <time>2021-09-11T09:56:52.219Z</time>
      </trkpt>
      <trkpt lat="45.89918" lon="6.12416">
        <ele>448</ele>
        <time>2021-09-11T09:56:53.219Z</time>
      </trkpt>
      <trkpt lat="45.89918" lon="6.12414">
        <ele>447</ele>
        <time>2021-09-11T09:56:54.218Z</time>
      </trkpt>
      <trkpt lat="45.89917" lon="6.12412">
        <ele>448</ele>
        <time>2021-09-11T09:56:55.219Z</time>
      </trkpt>
      <trkpt lat="45.89917" lon="6.12411">
        <ele>448</ele>
        <time>2021-09-11T09:56:56.219Z</time>
      </trkpt>
      <trkpt lat="45.89917" lon="6.12409">
        <ele>448</ele>
        <time>2021-09-11T09:56:57.219Z</time>
      </trkpt>
      <trkpt lat="45.89917" lon="6.12407">
        <ele>448</ele>
        <time>2021-09-11T09:56:58.218Z</time>
      </trkpt>
      <trkpt lat="45.89917" lon="6.12405">
        <ele>448</ele>
        <time>2021-09-11T09:56:59.219Z</time>
      </trkpt>
      <trkpt lat="45.89917" lon="6.12403">
        <ele>448</ele>
        <time>2021-09-11T09:57:00.219Z</time>
      </trkpt>
      <trkpt lat="45.89917" lon="6.12402">
        <ele>448</ele>
        <time>2021-09-11T09:57:01.219Z</time>
      </trkpt>
      <trkpt lat="45.89917" lon="6.124">
        <ele>448</ele>
        <time>2021-09-11T09:57:02.218Z</time>
      </trkpt>
      <trkpt lat="45.89917" lon="6.12397">
        <ele>448</ele>
        <time>2021-09-11T09:57:03.219Z</time>
      </trkpt>
      <trkpt lat="45.89917" lon="6.12396">
        <ele>448</ele>
        <time>2021-09-11T09:57:04.219Z</time>
      </trkpt>
      <trkpt lat="45.89916" lon="6.12394">
        <ele>448</ele>
        <time>2021-09-11T09:57:05.218Z</time>
      </trkpt>
      <trkpt lat="45.89917" lon="6.12392">
        <ele>449</ele>
        <time>2021-09-11T09:57:06.219Z</time>
      </trkpt>
      <trkpt lat="45.89917" lon="6.12391">
        <ele>449</ele>
        <time>2021-09-11T09:57:07.219Z</time>
      </trkpt>
      <trkpt lat="45.89917" lon="6.12389">
        <ele>449</ele>
        <time>2021-09-11T09:57:08.219Z</time>
      </trkpt>
      <trkpt lat="45.89916" lon="6.12387">
        <ele>449</ele>
        <time>2021-09-11T09:57:09.218Z</time>
      </trkpt>
      <trkpt lat="45.89917" lon="6.12384">
        <ele>448</ele>
        <time>2021-09-11T09:57:10.218Z</time>
      </trkpt>
      <trkpt lat="45.89918" lon="6.1238">
        <ele>448</ele>
        <time>2021-09-11T09:57:11.219Z</time>
      </trkpt>
      <trkpt lat="45.8992" lon="6.12378">
        <ele>448</ele>
        <time>2021-09-11T09:57:12.218Z</time>
      </trkpt>
      <trkpt lat="45.89922" lon="6.12375">
        <ele>448</ele>
        <time>2021-09-11T09:57:13.218Z</time>
      </trkpt>
      <trkpt lat="45.89925" lon="6.12375">
        <ele>448</ele>
        <time>2021-09-11T09:57:14.218Z</time>
      </trkpt>
      <trkpt lat="45.89928" lon="6.12374">
        <ele>448</ele>
        <time>2021-09-11T09:57:15.218Z</time>
      </trkpt>
      <trkpt lat="45.89931" lon="6.12373">
        <ele>448</ele>
        <time>2021-09-11T09:57:16.218Z</time>
      </trkpt>
      <trkpt lat="45.89934" lon="6.12371">
        <ele>448</ele>
        <time>2021-09-11T09:57:17.219Z</time>
      </trkpt>
      <trkpt lat="45.89937" lon="6.1237">
        <ele>449</ele>
        <time>2021-09-11T09:57:18.219Z</time>
      </trkpt>
      <trkpt lat="45.8994" lon="6.12369">
        <ele>449</ele>
        <time>2021-09-11T09:57:19.219Z</time>
      </trkpt>
      <trkpt lat="45.89943" lon="6.12367">
        <ele>449</ele>
        <time>2021-09-11T09:57:20.218Z</time>
      </trkpt>
      <trkpt lat="45.89947" lon="6.12367">
        <ele>449</ele>
        <time>2021-09-11T09:57:21.219Z</time>
      </trkpt>
      <trkpt lat="45.8995" lon="6.12366">
        <ele>450</ele>
        <time>2021-09-11T09:57:22.219Z</time>
      </trkpt>
      <trkpt lat="45.89953" lon="6.12364">
        <ele>450</ele>
        <time>2021-09-11T09:57:23.218Z</time>
      </trkpt>
      <trkpt lat="45.89957" lon="6.12363">
        <ele>450</ele>
        <time>2021-09-11T09:57:24.219Z</time>
      </trkpt>
      <trkpt lat="45.8996" lon="6.12362">
        <ele>449</ele>
        <time>2021-09-11T09:57:25.219Z</time>
      </trkpt>
      <trkpt lat="45.89963" lon="6.12361">
        <ele>450</ele>
        <time>2021-09-11T09:57:26.219Z</time>
      </trkpt>
      <trkpt lat="45.89966" lon="6.1236">
        <ele>449</ele>
        <time>2021-09-11T09:57:27.218Z</time>
      </trkpt>
      <trkpt lat="45.89969" lon="6.12359">
        <ele>449</ele>
        <time>2021-09-11T09:57:28.218Z</time>
      </trkpt>
      <trkpt lat="45.89972" lon="6.12358">
        <ele>449</ele>
        <time>2021-09-11T09:57:29.219Z</time>
      </trkpt>
      <trkpt lat="45.89976" lon="6.12357">
        <ele>449</ele>
        <time>2021-09-11T09:57:30.219Z</time>
      </trkpt>
      <trkpt lat="45.89979" lon="6.12356">
        <ele>449</ele>
        <time>2021-09-11T09:57:31.218Z</time>
      </trkpt>
      <trkpt lat="45.89982" lon="6.12355">
        <ele>449</ele>
        <time>2021-09-11T09:57:32.218Z</time>
      </trkpt>
      <trkpt lat="45.89985" lon="6.12354">
        <ele>449</ele>
        <time>2021-09-11T09:57:33.219Z</time>
      </trkpt>
      <trkpt lat="45.89988" lon="6.12353">
        <ele>449</ele>
        <time>2021-09-11T09:57:34.219Z</time>
      </trkpt>
      <trkpt lat="45.89991" lon="6.12352">
        <ele>449</ele>
        <time>2021-09-11T09:57:35.218Z</time>
      </trkpt>
      <trkpt lat="45.89994" lon="6.12351">
        <ele>449</ele>
        <time>2021-09-11T09:57:36.219Z</time>
      </trkpt>
      <trkpt lat="45.89997" lon="6.1235">
        <ele>449</ele>
        <time>2021-09-11T09:57:37.218Z</time>
      </trkpt>
      <trkpt lat="45.89999" lon="6.12349">
        <ele>449</ele>
        <time>2021-09-11T09:57:38.218Z</time>
      </trkpt>
      <trkpt lat="45.90001" lon="6.12348">
        <ele>449</ele>
        <time>2021-09-11T09:57:39.218Z</time>
      </trkpt>
      <trkpt lat="45.90004" lon="6.12346">
        <ele>449</ele>
        <time>2021-09-11T09:57:40.218Z</time>
      </trkpt>
      <trkpt lat="45.90006" lon="6.12345">
        <ele>449</ele>
        <time>2021-09-11T09:57:41.219Z</time>
      </trkpt>
      <trkpt lat="45.90007" lon="6.12344">
        <ele>449</ele>
        <time>2021-09-11T09:57:42.219Z</time>
      </trkpt>
      <trkpt lat="45.90008" lon="6.12343">
        <ele>449</ele>
        <time>2021-09-11T09:57:43.219Z</time>
      </trkpt>
      <trkpt lat="45.90009" lon="6.12342">
        <ele>448</ele>
        <time>2021-09-11T09:57:44.219Z</time>
      </trkpt>
      <trkpt lat="45.90009" lon="6.12341">
        <ele>448</ele>
        <time>2021-09-11T09:57:45.219Z</time>
      </trkpt>
      <trkpt lat="45.90009" lon="6.12341">
        <ele>447</ele>
        <time>2021-09-11T09:57:46.218Z</time>
      </trkpt>
      <trkpt lat="45.90009" lon="6.12341">
        <ele>447</ele>
        <time>2021-09-11T09:57:47.219Z</time>
      </trkpt>
      <trkpt lat="45.90009" lon="6.1234">
        <ele>446</ele>
        <time>2021-09-11T09:57:48.220Z</time>
      </trkpt>
      <trkpt lat="45.9001" lon="6.12338">
        <ele>446</ele>
        <time>2021-09-11T09:57:49.220Z</time>
      </trkpt>
      <trkpt lat="45.9001" lon="6.12337">
        <ele>447</ele>
        <time>2021-09-11T09:57:50.220Z</time>
      </trkpt>
      <trkpt lat="45.9001" lon="6.12335">
        <ele>447</ele>
        <time>2021-09-11T09:57:51.220Z</time>
      </trkpt>
      <trkpt lat="45.90009" lon="6.12333">
        <ele>447</ele>
        <time>2021-09-11T09:57:52.219Z</time>
      </trkpt>
      <trkpt lat="45.90008" lon="6.1233">
        <ele>448</ele>
        <time>2021-09-11T09:57:53.219Z</time>
      </trkpt>
      <trkpt lat="45.90007" lon="6.12326">
        <ele>448</ele>
        <time>2021-09-11T09:57:54.219Z</time>
      </trkpt>
      <trkpt lat="45.90006" lon="6.12322">
        <ele>448</ele>
        <time>2021-09-11T09:57:55.219Z</time>
      </trkpt>
      <trkpt lat="45.90005" lon="6.12317">
        <ele>449</ele>
        <time>2021-09-11T09:57:56.219Z</time>
      </trkpt>
      <trkpt lat="45.90004" lon="6.12312">
        <ele>450</ele>
        <time>2021-09-11T09:57:57.220Z</time>
      </trkpt>
      <trkpt lat="45.90002" lon="6.12307">
        <ele>451</ele>
        <time>2021-09-11T09:57:58.219Z</time>
      </trkpt>
      <trkpt lat="45.90001" lon="6.12301">
        <ele>452</ele>
        <time>2021-09-11T09:57:59.220Z</time>
      </trkpt>
      <trkpt lat="45.89999" lon="6.12297">
        <ele>453</ele>
        <time>2021-09-11T09:58:00.220Z</time>
      </trkpt>
      <trkpt lat="45.89997" lon="6.12292">
        <ele>455</ele>
        <time>2021-09-11T09:58:01.220Z</time>
      </trkpt>
      <trkpt lat="45.89996" lon="6.12289">
        <ele>455</ele>
        <time>2021-09-11T09:58:02.220Z</time>
      </trkpt>
      <trkpt lat="45.89995" lon="6.12284">
        <ele>456</ele>
        <time>2021-09-11T09:58:03.220Z</time>
      </trkpt>
      <trkpt lat="45.89994" lon="6.12281">
        <ele>457</ele>
        <time>2021-09-11T09:58:04.220Z</time>
      </trkpt>
      <trkpt lat="45.89993" lon="6.12277">
        <ele>458</ele>
        <time>2021-09-11T09:58:05.220Z</time>
      </trkpt>
      <trkpt lat="45.89992" lon="6.12274">
        <ele>458</ele>
        <time>2021-09-11T09:58:06.220Z</time>
      </trkpt>
      <trkpt lat="45.89991" lon="6.1227">
        <ele>459</ele>
        <time>2021-09-11T09:58:07.219Z</time>
      </trkpt>
      <trkpt lat="45.8999" lon="6.12266">
        <ele>459</ele>
        <time>2021-09-11T09:58:08.220Z</time>
      </trkpt>
      <trkpt lat="45.89989" lon="6.12261">
        <ele>460</ele>
        <time>2021-09-11T09:58:09.220Z</time>
      </trkpt>
      <trkpt lat="45.89988" lon="6.12256">
        <ele>461</ele>
        <time>2021-09-11T09:58:10.220Z</time>
      </trkpt>
      <trkpt lat="45.89987" lon="6.12251">
        <ele>461</ele>
        <time>2021-09-11T09:58:11.219Z</time>
      </trkpt>
      <trkpt lat="45.89985" lon="6.12246">
        <ele>462</ele>
        <time>2021-09-11T09:58:12.220Z</time>
      </trkpt>
      <trkpt lat="45.89983" lon="6.12241">
        <ele>462</ele>
        <time>2021-09-11T09:58:13.220Z</time>
      </trkpt>
      <trkpt lat="45.89982" lon="6.12235">
        <ele>463</ele>
        <time>2021-09-11T09:58:14.220Z</time>
      </trkpt>
      <trkpt lat="45.8998" lon="6.1223">
        <ele>463</ele>
        <time>2021-09-11T09:58:15.220Z</time>
      </trkpt>
      <trkpt lat="45.89978" lon="6.12224">
        <ele>464</ele>
        <time>2021-09-11T09:58:16.219Z</time>
      </trkpt>
      <trkpt lat="45.89976" lon="6.12218">
        <ele>465</ele>
        <time>2021-09-11T09:58:17.220Z</time>
      </trkpt>
      <trkpt lat="45.89974" lon="6.12212">
        <ele>467</ele>
        <time>2021-09-11T09:58:18.220Z</time>
      </trkpt>
      <trkpt lat="45.89972" lon="6.12206">
        <ele>467</ele>
        <time>2021-09-11T09:58:19.220Z</time>
      </trkpt>
      <trkpt lat="45.8997" lon="6.122">
        <ele>468</ele>
        <time>2021-09-11T09:58:20.220Z</time>
      </trkpt>
      <trkpt lat="45.89968" lon="6.12195">
        <ele>468</ele>
        <time>2021-09-11T09:58:21.220Z</time>
      </trkpt>
      <trkpt lat="45.89966" lon="6.12191">
        <ele>469</ele>
        <time>2021-09-11T09:58:22.220Z</time>
      </trkpt>
      <trkpt lat="45.89966" lon="6.12188">
        <ele>470</ele>
        <time>2021-09-11T09:58:23.220Z</time>
      </trkpt>
      <trkpt lat="45.89965" lon="6.12186">
        <ele>470</ele>
        <time>2021-09-11T09:58:24.220Z</time>
      </trkpt>
      <trkpt lat="45.89964" lon="6.12185">
        <ele>470</ele>
        <time>2021-09-11T09:58:25.219Z</time>
      </trkpt>
      <trkpt lat="45.89963" lon="6.12183">
        <ele>470</ele>
        <time>2021-09-11T09:58:26.220Z</time>
      </trkpt>
      <trkpt lat="45.89963" lon="6.12181">
        <ele>471</ele>
        <time>2021-09-11T09:58:27.220Z</time>
      </trkpt>
      <trkpt lat="45.89962" lon="6.12179">
        <ele>472</ele>
        <time>2021-09-11T09:58:28.220Z</time>
      </trkpt>
      <trkpt lat="45.89961" lon="6.12178">
        <ele>473</ele>
        <time>2021-09-11T09:58:29.219Z</time>
      </trkpt>
      <trkpt lat="45.8996" lon="6.12177">
        <ele>474</ele>
        <time>2021-09-11T09:58:30.219Z</time>
      </trkpt>
      <trkpt lat="45.89959" lon="6.12175">
        <ele>474</ele>
        <time>2021-09-11T09:58:31.220Z</time>
      </trkpt>
      <trkpt lat="45.89957" lon="6.12173">
        <ele>474</ele>
        <time>2021-09-11T09:58:32.220Z</time>
      </trkpt>
      <trkpt lat="45.89956" lon="6.1217">
        <ele>475</ele>
        <time>2021-09-11T09:58:33.220Z</time>
      </trkpt>
      <trkpt lat="45.89957" lon="6.12167">
        <ele>474</ele>
        <time>2021-09-11T09:58:34.220Z</time>
      </trkpt>
      <trkpt lat="45.89956" lon="6.12163">
        <ele>474</ele>
        <time>2021-09-11T09:58:35.220Z</time>
      </trkpt>
      <trkpt lat="45.89954" lon="6.12159">
        <ele>474</ele>
        <time>2021-09-11T09:58:36.220Z</time>
      </trkpt>
      <trkpt lat="45.89953" lon="6.12155">
        <ele>474</ele>
        <time>2021-09-11T09:58:37.219Z</time>
      </trkpt>
      <trkpt lat="45.89951" lon="6.1215">
        <ele>474</ele>
        <time>2021-09-11T09:58:38.219Z</time>
      </trkpt>
      <trkpt lat="45.8995" lon="6.12145">
        <ele>473</ele>
        <time>2021-09-11T09:58:39.220Z</time>
      </trkpt>
      <trkpt lat="45.8995" lon="6.12139">
        <ele>473</ele>
        <time>2021-09-11T09:58:40.220Z</time>
      </trkpt>
      <trkpt lat="45.89949" lon="6.12133">
        <ele>473</ele>
        <time>2021-09-11T09:58:41.219Z</time>
      </trkpt>
      <trkpt lat="45.89947" lon="6.12127">
        <ele>472</ele>
        <time>2021-09-11T09:58:42.220Z</time>
      </trkpt>
      <trkpt lat="45.89946" lon="6.12121">
        <ele>472</ele>
        <time>2021-09-11T09:58:43.219Z</time>
      </trkpt>
      <trkpt lat="45.89944" lon="6.12117">
        <ele>471</ele>
        <time>2021-09-11T09:58:44.220Z</time>
      </trkpt>
      <trkpt lat="45.89941" lon="6.12112">
        <ele>471</ele>
        <time>2021-09-11T09:58:45.220Z</time>
      </trkpt>
      <trkpt lat="45.8994" lon="6.12107">
        <ele>470</ele>
        <time>2021-09-11T09:58:46.219Z</time>
      </trkpt>
      <trkpt lat="45.89939" lon="6.12103">
        <ele>470</ele>
        <time>2021-09-11T09:58:47.220Z</time>
      </trkpt>
      <trkpt lat="45.89938" lon="6.12098">
        <ele>470</ele>
        <time>2021-09-11T09:58:48.220Z</time>
      </trkpt>
      <trkpt lat="45.89937" lon="6.12094">
        <ele>469</ele>
        <time>2021-09-11T09:58:49.220Z</time>
      </trkpt>
      <trkpt lat="45.89936" lon="6.1209">
        <ele>469</ele>
        <time>2021-09-11T09:58:50.220Z</time>
      </trkpt>
      <trkpt lat="45.89935" lon="6.12086">
        <ele>468</ele>
        <time>2021-09-11T09:58:51.220Z</time>
      </trkpt>
      <trkpt lat="45.89934" lon="6.12082">
        <ele>468</ele>
        <time>2021-09-11T09:58:52.220Z</time>
      </trkpt>
      <trkpt lat="45.89933" lon="6.12077">
        <ele>467</ele>
        <time>2021-09-11T09:58:53.220Z</time>
      </trkpt>
      <trkpt lat="45.89931" lon="6.12073">
        <ele>467</ele>
        <time>2021-09-11T09:58:54.220Z</time>
      </trkpt>
      <trkpt lat="45.8993" lon="6.12068">
        <ele>467</ele>
        <time>2021-09-11T09:58:55.219Z</time>
      </trkpt>
      <trkpt lat="45.89928" lon="6.12063">
        <ele>466</ele>
        <time>2021-09-11T09:58:56.220Z</time>
      </trkpt>
      <trkpt lat="45.89926" lon="6.12058">
        <ele>466</ele>
        <time>2021-09-11T09:58:57.220Z</time>
      </trkpt>
      <trkpt lat="45.89925" lon="6.12054">
        <ele>465</ele>
        <time>2021-09-11T09:58:58.219Z</time>
      </trkpt>
      <trkpt lat="45.89924" lon="6.12049">
        <ele>464</ele>
        <time>2021-09-11T09:58:59.220Z</time>
      </trkpt>
      <trkpt lat="45.89922" lon="6.12043">
        <ele>464</ele>
        <time>2021-09-11T09:59:00.220Z</time>
      </trkpt>
      <trkpt lat="45.89921" lon="6.12038">
        <ele>464</ele>
        <time>2021-09-11T09:59:01.219Z</time>
      </trkpt>
      <trkpt lat="45.8992" lon="6.12033">
        <ele>464</ele>
        <time>2021-09-11T09:59:02.220Z</time>
      </trkpt>
      <trkpt lat="45.89918" lon="6.12028">
        <ele>463</ele>
        <time>2021-09-11T09:59:03.220Z</time>
      </trkpt>
      <trkpt lat="45.89917" lon="6.12023">
        <ele>463</ele>
        <time>2021-09-11T09:59:04.220Z</time>
      </trkpt>
      <trkpt lat="45.89916" lon="6.12018">
        <ele>463</ele>
        <time>2021-09-11T09:59:05.220Z</time>
      </trkpt>
      <trkpt lat="45.89915" lon="6.12013">
        <ele>463</ele>
        <time>2021-09-11T09:59:06.220Z</time>
      </trkpt>
      <trkpt lat="45.89913" lon="6.12008">
        <ele>463</ele>
        <time>2021-09-11T09:59:07.220Z</time>
      </trkpt>
      <trkpt lat="45.89912" lon="6.12003">
        <ele>463</ele>
        <time>2021-09-11T09:59:08.220Z</time>
      </trkpt>
      <trkpt lat="45.89911" lon="6.11999">
        <ele>462</ele>
        <time>2021-09-11T09:59:09.220Z</time>
      </trkpt>
      <trkpt lat="45.8991" lon="6.11994">
        <ele>462</ele>
        <time>2021-09-11T09:59:10.219Z</time>
      </trkpt>
      <trkpt lat="45.89909" lon="6.1199">
        <ele>461</ele>
        <time>2021-09-11T09:59:11.220Z</time>
      </trkpt>
      <trkpt lat="45.89907" lon="6.11985">
        <ele>461</ele>
        <time>2021-09-11T09:59:12.220Z</time>
      </trkpt>
      <trkpt lat="45.89906" lon="6.1198">
        <ele>461</ele>
        <time>2021-09-11T09:59:13.220Z</time>
      </trkpt>
      <trkpt lat="45.89905" lon="6.11975">
        <ele>461</ele>
        <time>2021-09-11T09:59:14.220Z</time>
      </trkpt>
      <trkpt lat="45.89904" lon="6.1197">
        <ele>461</ele>
        <time>2021-09-11T09:59:15.220Z</time>
      </trkpt>
      <trkpt lat="45.89902" lon="6.11965">
        <ele>460</ele>
        <time>2021-09-11T09:59:16.220Z</time>
      </trkpt>
      <trkpt lat="45.89901" lon="6.1196">
        <ele>460</ele>
        <time>2021-09-11T09:59:17.220Z</time>
      </trkpt>
      <trkpt lat="45.899" lon="6.11955">
        <ele>459</ele>
        <time>2021-09-11T09:59:18.220Z</time>
      </trkpt>
      <trkpt lat="45.89899" lon="6.11951">
        <ele>459</ele>
        <time>2021-09-11T09:59:19.219Z</time>
      </trkpt>
      <trkpt lat="45.89898" lon="6.11946">
        <ele>458</ele>
        <time>2021-09-11T09:59:20.220Z</time>
      </trkpt>
      <trkpt lat="45.89897" lon="6.11941">
        <ele>458</ele>
        <time>2021-09-11T09:59:21.220Z</time>
      </trkpt>
      <trkpt lat="45.89897" lon="6.11937">
        <ele>458</ele>
        <time>2021-09-11T09:59:22.220Z</time>
      </trkpt>
      <trkpt lat="45.89896" lon="6.11932">
        <ele>458</ele>
        <time>2021-09-11T09:59:23.219Z</time>
      </trkpt>
      <trkpt lat="45.89895" lon="6.11928">
        <ele>458</ele>
        <time>2021-09-11T09:59:24.220Z</time>
      </trkpt>
      <trkpt lat="45.89894" lon="6.11923">
        <ele>458</ele>
        <time>2021-09-11T09:59:25.220Z</time>
      </trkpt>
      <trkpt lat="45.89893" lon="6.11919">
        <ele>458</ele>
        <time>2021-09-11T09:59:26.220Z</time>
      </trkpt>
      <trkpt lat="45.89891" lon="6.11914">
        <ele>458</ele>
        <time>2021-09-11T09:59:27.220Z</time>
      </trkpt>
      <trkpt lat="45.8989" lon="6.11911">
        <ele>458</ele>
        <time>2021-09-11T09:59:28.219Z</time>
      </trkpt>
      <trkpt lat="45.89889" lon="6.11906">
        <ele>458</ele>
        <time>2021-09-11T09:59:29.220Z</time>
      </trkpt>
      <trkpt lat="45.89887" lon="6.11901">
        <ele>458</ele>
        <time>2021-09-11T09:59:30.220Z</time>
      </trkpt>
      <trkpt lat="45.89886" lon="6.11896">
        <ele>458</ele>
        <time>2021-09-11T09:59:31.220Z</time>
      </trkpt>
      <trkpt lat="45.89885" lon="6.1189">
        <ele>458</ele>
        <time>2021-09-11T09:59:32.220Z</time>
      </trkpt>
      <trkpt lat="45.89883" lon="6.11885">
        <ele>459</ele>
        <time>2021-09-11T09:59:33.220Z</time>
      </trkpt>
      <trkpt lat="45.89883" lon="6.1188">
        <ele>459</ele>
        <time>2021-09-11T09:59:34.220Z</time>
      </trkpt>
      <trkpt lat="45.89881" lon="6.11875">
        <ele>459</ele>
        <time>2021-09-11T09:59:35.220Z</time>
      </trkpt>
      <trkpt lat="45.8988" lon="6.1187">
        <ele>459</ele>
        <time>2021-09-11T09:59:36.220Z</time>
      </trkpt>
      <trkpt lat="45.89879" lon="6.11865">
        <ele>460</ele>
        <time>2021-09-11T09:59:37.220Z</time>
      </trkpt>
      <trkpt lat="45.89878" lon="6.1186">
        <ele>459</ele>
        <time>2021-09-11T09:59:38.219Z</time>
      </trkpt>
      <trkpt lat="45.89878" lon="6.11855">
        <ele>459</ele>
        <time>2021-09-11T09:59:39.220Z</time>
      </trkpt>
      <trkpt lat="45.89878" lon="6.11851">
        <ele>458</ele>
        <time>2021-09-11T09:59:40.220Z</time>
      </trkpt>
      <trkpt lat="45.89879" lon="6.11847">
        <ele>458</ele>
        <time>2021-09-11T09:59:41.219Z</time>
      </trkpt>
      <trkpt lat="45.89879" lon="6.11845">
        <ele>458</ele>
        <time>2021-09-11T09:59:42.220Z</time>
      </trkpt>
      <trkpt lat="45.89879" lon="6.11843">
        <ele>459</ele>
        <time>2021-09-11T09:59:43.220Z</time>
      </trkpt>
      <trkpt lat="45.89879" lon="6.11842">
        <ele>459</ele>
        <time>2021-09-11T09:59:44.220Z</time>
      </trkpt>
      <trkpt lat="45.89879" lon="6.11841">
        <ele>460</ele>
        <time>2021-09-11T09:59:45.220Z</time>
      </trkpt>
      <trkpt lat="45.89879" lon="6.11841">
        <ele>460</ele>
        <time>2021-09-11T09:59:46.219Z</time>
      </trkpt>
      <trkpt lat="45.89879" lon="6.11841">
        <ele>460</ele>
        <time>2021-09-11T09:59:47.219Z</time>
      </trkpt>
      <trkpt lat="45.89884" lon="6.1183">
        <ele>464</ele>
        <time>2021-09-11T09:59:48.220Z</time>
      </trkpt>
      <trkpt lat="45.89884" lon="6.11825">
        <ele>464</ele>
        <time>2021-09-11T09:59:49.220Z</time>
      </trkpt>
      <trkpt lat="45.89884" lon="6.11821">
        <ele>464</ele>
        <time>2021-09-11T09:59:50.219Z</time>
      </trkpt>
      <trkpt lat="45.89883" lon="6.11816">
        <ele>464</ele>
        <time>2021-09-11T09:59:51.219Z</time>
      </trkpt>
      <trkpt lat="45.89882" lon="6.11812">
        <ele>463</ele>
        <time>2021-09-11T09:59:52.220Z</time>
      </trkpt>
      <trkpt lat="45.89881" lon="6.11808">
        <ele>461</ele>
        <time>2021-09-11T09:59:53.220Z</time>
      </trkpt>
      <trkpt lat="45.89879" lon="6.11804">
        <ele>459</ele>
        <time>2021-09-11T09:59:54.220Z</time>
      </trkpt>
      <trkpt lat="45.89876" lon="6.118">
        <ele>458</ele>
        <time>2021-09-11T09:59:55.219Z</time>
      </trkpt>
      <trkpt lat="45.89873" lon="6.11797">
        <ele>456</ele>
        <time>2021-09-11T09:59:56.219Z</time>
      </trkpt>
      <trkpt lat="45.89871" lon="6.11794">
        <ele>455</ele>
        <time>2021-09-11T09:59:57.220Z</time>
      </trkpt>
      <trkpt lat="45.89868" lon="6.11791">
        <ele>454</ele>
        <time>2021-09-11T09:59:58.220Z</time>
      </trkpt>
      <trkpt lat="45.89865" lon="6.11786">
        <ele>453</ele>
        <time>2021-09-11T09:59:59.220Z</time>
      </trkpt>
      <trkpt lat="45.89862" lon="6.1178">
        <ele>452</ele>
        <time>2021-09-11T10:00:00.220Z</time>
      </trkpt>
      <trkpt lat="45.8986" lon="6.11775">
        <ele>452</ele>
        <time>2021-09-11T10:00:01.220Z</time>
      </trkpt>
      <trkpt lat="45.89859" lon="6.1177">
        <ele>452</ele>
        <time>2021-09-11T10:00:02.220Z</time>
      </trkpt>
      <trkpt lat="45.89857" lon="6.11764">
        <ele>452</ele>
        <time>2021-09-11T10:00:03.219Z</time>
      </trkpt>
      <trkpt lat="45.89855" lon="6.11758">
        <ele>452</ele>
        <time>2021-09-11T10:00:04.219Z</time>
      </trkpt>
      <trkpt lat="45.89853" lon="6.11752">
        <ele>452</ele>
        <time>2021-09-11T10:00:05.219Z</time>
      </trkpt>
      <trkpt lat="45.89852" lon="6.11746">
        <ele>452</ele>
        <time>2021-09-11T10:00:06.219Z</time>
      </trkpt>
      <trkpt lat="45.89851" lon="6.11741">
        <ele>452</ele>
        <time>2021-09-11T10:00:07.219Z</time>
      </trkpt>
      <trkpt lat="45.89849" lon="6.11736">
        <ele>452</ele>
        <time>2021-09-11T10:00:08.219Z</time>
      </trkpt>
      <trkpt lat="45.89847" lon="6.11729">
        <ele>451</ele>
        <time>2021-09-11T10:00:09.220Z</time>
      </trkpt>
      <trkpt lat="45.89846" lon="6.11723">
        <ele>451</ele>
        <time>2021-09-11T10:00:10.219Z</time>
      </trkpt>
      <trkpt lat="45.89845" lon="6.11717">
        <ele>450</ele>
        <time>2021-09-11T10:00:11.219Z</time>
      </trkpt>
      <trkpt lat="45.89843" lon="6.11711">
        <ele>449</ele>
        <time>2021-09-11T10:00:12.220Z</time>
      </trkpt>
      <trkpt lat="45.89842" lon="6.11705">
        <ele>449</ele>
        <time>2021-09-11T10:00:13.220Z</time>
      </trkpt>
      <trkpt lat="45.8984" lon="6.11699">
        <ele>448</ele>
        <time>2021-09-11T10:00:14.220Z</time>
      </trkpt>
      <trkpt lat="45.89839" lon="6.11693">
        <ele>447</ele>
        <time>2021-09-11T10:00:15.220Z</time>
      </trkpt>
      <trkpt lat="45.89837" lon="6.11688">
        <ele>447</ele>
        <time>2021-09-11T10:00:16.220Z</time>
      </trkpt>
      <trkpt lat="45.89836" lon="6.11682">
        <ele>447</ele>
        <time>2021-09-11T10:00:17.220Z</time>
      </trkpt>
      <trkpt lat="45.89834" lon="6.11675">
        <ele>447</ele>
        <time>2021-09-11T10:00:18.220Z</time>
      </trkpt>
      <trkpt lat="45.89832" lon="6.11669">
        <ele>447</ele>
        <time>2021-09-11T10:00:19.219Z</time>
      </trkpt>
      <trkpt lat="45.8983" lon="6.11663">
        <ele>448</ele>
        <time>2021-09-11T10:00:20.220Z</time>
      </trkpt>
      <trkpt lat="45.89829" lon="6.11658">
        <ele>448</ele>
        <time>2021-09-11T10:00:21.220Z</time>
      </trkpt>
      <trkpt lat="45.89827" lon="6.11651">
        <ele>448</ele>
        <time>2021-09-11T10:00:22.219Z</time>
      </trkpt>
      <trkpt lat="45.89826" lon="6.11645">
        <ele>449</ele>
        <time>2021-09-11T10:00:23.219Z</time>
      </trkpt>
      <trkpt lat="45.89824" lon="6.11639">
        <ele>449</ele>
        <time>2021-09-11T10:00:24.220Z</time>
      </trkpt>
      <trkpt lat="45.89822" lon="6.11633">
        <ele>450</ele>
        <time>2021-09-11T10:00:25.220Z</time>
      </trkpt>
      <trkpt lat="45.8982" lon="6.11628">
        <ele>451</ele>
        <time>2021-09-11T10:00:26.220Z</time>
      </trkpt>
      <trkpt lat="45.89817" lon="6.11621">
        <ele>451</ele>
        <time>2021-09-11T10:00:27.219Z</time>
      </trkpt>
      <trkpt lat="45.89815" lon="6.11613">
        <ele>452</ele>
        <time>2021-09-11T10:00:28.220Z</time>
      </trkpt>
      <trkpt lat="45.89813" lon="6.11606">
        <ele>453</ele>
        <time>2021-09-11T10:00:29.220Z</time>
      </trkpt>
      <trkpt lat="45.89811" lon="6.116">
        <ele>454</ele>
        <time>2021-09-11T10:00:30.219Z</time>
      </trkpt>
      <trkpt lat="45.89809" lon="6.11592">
        <ele>455</ele>
        <time>2021-09-11T10:00:31.219Z</time>
      </trkpt>
      <trkpt lat="45.89808" lon="6.11586">
        <ele>456</ele>
        <time>2021-09-11T10:00:32.220Z</time>
      </trkpt>
      <trkpt lat="45.89806" lon="6.1158">
        <ele>457</ele>
        <time>2021-09-11T10:00:33.220Z</time>
      </trkpt>
      <trkpt lat="45.89804" lon="6.11573">
        <ele>458</ele>
        <time>2021-09-11T10:00:34.220Z</time>
      </trkpt>
      <trkpt lat="45.89802" lon="6.11568">
        <ele>459</ele>
        <time>2021-09-11T10:00:35.220Z</time>
      </trkpt>
      <trkpt lat="45.898" lon="6.11563">
        <ele>460</ele>
        <time>2021-09-11T10:00:36.220Z</time>
      </trkpt>
      <trkpt lat="45.89797" lon="6.11557">
        <ele>461</ele>
        <time>2021-09-11T10:00:37.219Z</time>
      </trkpt>
      <trkpt lat="45.89794" lon="6.11551">
        <ele>463</ele>
        <time>2021-09-11T10:00:38.219Z</time>
      </trkpt>
      <trkpt lat="45.89792" lon="6.11545">
        <ele>463</ele>
        <time>2021-09-11T10:00:39.220Z</time>
      </trkpt>
      <trkpt lat="45.89792" lon="6.11538">
        <ele>464</ele>
        <time>2021-09-11T10:00:40.219Z</time>
      </trkpt>
      <trkpt lat="45.8979" lon="6.11533">
        <ele>464</ele>
        <time>2021-09-11T10:00:41.220Z</time>
      </trkpt>
      <trkpt lat="45.8979" lon="6.11528">
        <ele>464</ele>
        <time>2021-09-11T10:00:42.220Z</time>
      </trkpt>
      <trkpt lat="45.89789" lon="6.11523">
        <ele>464</ele>
        <time>2021-09-11T10:00:43.220Z</time>
      </trkpt>
      <trkpt lat="45.89788" lon="6.11519">
        <ele>464</ele>
        <time>2021-09-11T10:00:44.219Z</time>
      </trkpt>
      <trkpt lat="45.89786" lon="6.11512">
        <ele>463</ele>
        <time>2021-09-11T10:00:45.220Z</time>
      </trkpt>
      <trkpt lat="45.89784" lon="6.11505">
        <ele>463</ele>
        <time>2021-09-11T10:00:46.220Z</time>
      </trkpt>
      <trkpt lat="45.89783" lon="6.115">
        <ele>463</ele>
        <time>2021-09-11T10:00:47.220Z</time>
      </trkpt>
      <trkpt lat="45.89781" lon="6.11494">
        <ele>463</ele>
        <time>2021-09-11T10:00:48.219Z</time>
      </trkpt>
      <trkpt lat="45.89779" lon="6.11489">
        <ele>463</ele>
        <time>2021-09-11T10:00:49.219Z</time>
      </trkpt>
      <trkpt lat="45.89778" lon="6.11483">
        <ele>462</ele>
        <time>2021-09-11T10:00:50.220Z</time>
      </trkpt>
      <trkpt lat="45.89777" lon="6.11477">
        <ele>463</ele>
        <time>2021-09-11T10:00:51.220Z</time>
      </trkpt>
      <trkpt lat="45.89775" lon="6.11472">
        <ele>463</ele>
        <time>2021-09-11T10:00:52.220Z</time>
      </trkpt>
      <trkpt lat="45.89774" lon="6.11467">
        <ele>463</ele>
        <time>2021-09-11T10:00:53.220Z</time>
      </trkpt>
      <trkpt lat="45.89773" lon="6.11461">
        <ele>463</ele>
        <time>2021-09-11T10:00:54.220Z</time>
      </trkpt>
      <trkpt lat="45.89772" lon="6.11457">
        <ele>463</ele>
        <time>2021-09-11T10:00:55.220Z</time>
      </trkpt>
      <trkpt lat="45.89771" lon="6.11453">
        <ele>463</ele>
        <time>2021-09-11T10:00:56.219Z</time>
      </trkpt>
      <trkpt lat="45.8977" lon="6.11449">
        <ele>463</ele>
        <time>2021-09-11T10:00:57.220Z</time>
      </trkpt>
      <trkpt lat="45.89769" lon="6.11446">
        <ele>462</ele>
        <time>2021-09-11T10:00:58.219Z</time>
      </trkpt>
      <trkpt lat="45.89769" lon="6.11443">
        <ele>462</ele>
        <time>2021-09-11T10:00:59.219Z</time>
      </trkpt>
      <trkpt lat="45.89768" lon="6.1144">
        <ele>462</ele>
        <time>2021-09-11T10:01:00.220Z</time>
      </trkpt>
      <trkpt lat="45.89767" lon="6.11437">
        <ele>462</ele>
        <time>2021-09-11T10:01:01.220Z</time>
      </trkpt>
      <trkpt lat="45.89766" lon="6.11434">
        <ele>462</ele>
        <time>2021-09-11T10:01:02.220Z</time>
      </trkpt>
      <trkpt lat="45.89766" lon="6.11432">
        <ele>462</ele>
        <time>2021-09-11T10:01:03.219Z</time>
      </trkpt>
      <trkpt lat="45.89765" lon="6.11431">
        <ele>462</ele>
        <time>2021-09-11T10:01:04.220Z</time>
      </trkpt>
      <trkpt lat="45.89765" lon="6.1143">
        <ele>462</ele>
        <time>2021-09-11T10:01:05.219Z</time>
      </trkpt>
      <trkpt lat="45.89765" lon="6.11429">
        <ele>463</ele>
        <time>2021-09-11T10:01:06.220Z</time>
      </trkpt>
      <trkpt lat="45.89765" lon="6.11429">
        <ele>463</ele>
        <time>2021-09-11T10:01:07.220Z</time>
      </trkpt>
      <trkpt lat="45.89765" lon="6.11426">
        <ele>463</ele>
        <time>2021-09-11T10:01:08.221Z</time>
      </trkpt>
      <trkpt lat="45.89763" lon="6.11422">
        <ele>463</ele>
        <time>2021-09-11T10:01:09.220Z</time>
      </trkpt>
      <trkpt lat="45.89762" lon="6.11418">
        <ele>463</ele>
        <time>2021-09-11T10:01:10.220Z</time>
      </trkpt>
      <trkpt lat="45.89761" lon="6.11414">
        <ele>464</ele>
        <time>2021-09-11T10:01:11.221Z</time>
      </trkpt>
      <trkpt lat="45.8976" lon="6.11408">
        <ele>464</ele>
        <time>2021-09-11T10:01:12.221Z</time>
      </trkpt>
      <trkpt lat="45.89759" lon="6.11401">
        <ele>464</ele>
        <time>2021-09-11T10:01:13.221Z</time>
      </trkpt>
      <trkpt lat="45.89758" lon="6.11395">
        <ele>464</ele>
        <time>2021-09-11T10:01:14.221Z</time>
      </trkpt>
      <trkpt lat="45.89757" lon="6.11389">
        <ele>463</ele>
        <time>2021-09-11T10:01:15.221Z</time>
      </trkpt>
      <trkpt lat="45.89755" lon="6.11385">
        <ele>462</ele>
        <time>2021-09-11T10:01:16.221Z</time>
      </trkpt>
      <trkpt lat="45.89754" lon="6.1138">
        <ele>461</ele>
        <time>2021-09-11T10:01:17.220Z</time>
      </trkpt>
      <trkpt lat="45.89752" lon="6.11373">
        <ele>460</ele>
        <time>2021-09-11T10:01:18.220Z</time>
      </trkpt>
      <trkpt lat="45.8975" lon="6.11368">
        <ele>460</ele>
        <time>2021-09-11T10:01:19.221Z</time>
      </trkpt>
      <trkpt lat="45.89749" lon="6.11364">
        <ele>459</ele>
        <time>2021-09-11T10:01:20.221Z</time>
      </trkpt>
      <trkpt lat="45.89748" lon="6.11359">
        <ele>458</ele>
        <time>2021-09-11T10:01:21.221Z</time>
      </trkpt>
      <trkpt lat="45.89746" lon="6.11353">
        <ele>458</ele>
        <time>2021-09-11T10:01:22.221Z</time>
      </trkpt>
      <trkpt lat="45.89745" lon="6.11348">
        <ele>457</ele>
        <time>2021-09-11T10:01:23.221Z</time>
      </trkpt>
      <trkpt lat="45.89743" lon="6.11343">
        <ele>456</ele>
        <time>2021-09-11T10:01:24.221Z</time>
      </trkpt>
      <trkpt lat="45.89742" lon="6.11339">
        <ele>456</ele>
        <time>2021-09-11T10:01:25.221Z</time>
      </trkpt>
      <trkpt lat="45.8974" lon="6.11334">
        <ele>455</ele>
        <time>2021-09-11T10:01:26.221Z</time>
      </trkpt>
      <trkpt lat="45.89739" lon="6.11329">
        <ele>455</ele>
        <time>2021-09-11T10:01:27.221Z</time>
      </trkpt>
      <trkpt lat="45.89737" lon="6.11325">
        <ele>456</ele>
        <time>2021-09-11T10:01:28.221Z</time>
      </trkpt>
      <trkpt lat="45.89736" lon="6.11321">
        <ele>456</ele>
        <time>2021-09-11T10:01:29.220Z</time>
      </trkpt>
      <trkpt lat="45.89735" lon="6.11317">
        <ele>456</ele>
        <time>2021-09-11T10:01:30.221Z</time>
      </trkpt>
      <trkpt lat="45.89733" lon="6.11311">
        <ele>457</ele>
        <time>2021-09-11T10:01:31.221Z</time>
      </trkpt>
      <trkpt lat="45.89731" lon="6.11306">
        <ele>457</ele>
        <time>2021-09-11T10:01:32.221Z</time>
      </trkpt>
      <trkpt lat="45.8973" lon="6.113">
        <ele>457</ele>
        <time>2021-09-11T10:01:33.221Z</time>
      </trkpt>
      <trkpt lat="45.89727" lon="6.11295">
        <ele>457</ele>
        <time>2021-09-11T10:01:34.221Z</time>
      </trkpt>
      <trkpt lat="45.89725" lon="6.11291">
        <ele>457</ele>
        <time>2021-09-11T10:01:35.221Z</time>
      </trkpt>
      <trkpt lat="45.89722" lon="6.11285">
        <ele>457</ele>
        <time>2021-09-11T10:01:36.221Z</time>
      </trkpt>
      <trkpt lat="45.8972" lon="6.1128">
        <ele>457</ele>
        <time>2021-09-11T10:01:37.220Z</time>
      </trkpt>
      <trkpt lat="45.89718" lon="6.11276">
        <ele>457</ele>
        <time>2021-09-11T10:01:38.221Z</time>
      </trkpt>
      <trkpt lat="45.89716" lon="6.11271">
        <ele>457</ele>
        <time>2021-09-11T10:01:39.221Z</time>
      </trkpt>
      <trkpt lat="45.89713" lon="6.11266">
        <ele>457</ele>
        <time>2021-09-11T10:01:40.221Z</time>
      </trkpt>
      <trkpt lat="45.8971" lon="6.11261">
        <ele>457</ele>
        <time>2021-09-11T10:01:41.220Z</time>
      </trkpt>
      <trkpt lat="45.89708" lon="6.11256">
        <ele>457</ele>
        <time>2021-09-11T10:01:42.221Z</time>
      </trkpt>
      <trkpt lat="45.89706" lon="6.11252">
        <ele>457</ele>
        <time>2021-09-11T10:01:43.220Z</time>
      </trkpt>
      <trkpt lat="45.89704" lon="6.11249">
        <ele>457</ele>
        <time>2021-09-11T10:01:44.220Z</time>
      </trkpt>
      <trkpt lat="45.897" lon="6.11244">
        <ele>457</ele>
        <time>2021-09-11T10:01:45.221Z</time>
      </trkpt>
      <trkpt lat="45.89698" lon="6.11239">
        <ele>457</ele>
        <time>2021-09-11T10:01:46.220Z</time>
      </trkpt>
      <trkpt lat="45.89695" lon="6.11235">
        <ele>457</ele>
        <time>2021-09-11T10:01:47.221Z</time>
      </trkpt>
      <trkpt lat="45.89692" lon="6.11231">
        <ele>456</ele>
        <time>2021-09-11T10:01:48.221Z</time>
      </trkpt>
      <trkpt lat="45.89689" lon="6.11227">
        <ele>455</ele>
        <time>2021-09-11T10:01:49.220Z</time>
      </trkpt>
      <trkpt lat="45.89686" lon="6.11223">
        <ele>454</ele>
        <time>2021-09-11T10:01:50.221Z</time>
      </trkpt>
      <trkpt lat="45.89684" lon="6.11219">
        <ele>454</ele>
        <time>2021-09-11T10:01:51.221Z</time>
      </trkpt>
      <trkpt lat="45.89683" lon="6.11215">
        <ele>453</ele>
        <time>2021-09-11T10:01:52.221Z</time>
      </trkpt>
      <trkpt lat="45.89682" lon="6.1121">
        <ele>452</ele>
        <time>2021-09-11T10:01:53.221Z</time>
      </trkpt>
      <trkpt lat="45.89683" lon="6.11206">
        <ele>452</ele>
        <time>2021-09-11T10:01:54.221Z</time>
      </trkpt>
      <trkpt lat="45.89686" lon="6.11202">
        <ele>452</ele>
        <time>2021-09-11T10:01:55.221Z</time>
      </trkpt>
      <trkpt lat="45.89688" lon="6.11198">
        <ele>452</ele>
        <time>2021-09-11T10:01:56.220Z</time>
      </trkpt>
      <trkpt lat="45.8969" lon="6.11194">
        <ele>452</ele>
        <time>2021-09-11T10:01:57.221Z</time>
      </trkpt>
      <trkpt lat="45.89692" lon="6.11189">
        <ele>451</ele>
        <time>2021-09-11T10:01:58.221Z</time>
      </trkpt>
      <trkpt lat="45.89694" lon="6.11183">
        <ele>451</ele>
        <time>2021-09-11T10:01:59.221Z</time>
      </trkpt>
      <trkpt lat="45.89696" lon="6.11178">
        <ele>451</ele>
        <time>2021-09-11T10:02:00.220Z</time>
      </trkpt>
      <trkpt lat="45.89696" lon="6.11174">
        <ele>451</ele>
        <time>2021-09-11T10:02:01.221Z</time>
      </trkpt>
      <trkpt lat="45.89696" lon="6.11169">
        <ele>450</ele>
        <time>2021-09-11T10:02:02.221Z</time>
      </trkpt>
      <trkpt lat="45.89696" lon="6.11164">
        <ele>450</ele>
        <time>2021-09-11T10:02:03.220Z</time>
      </trkpt>
      <trkpt lat="45.89695" lon="6.11158">
        <ele>451</ele>
        <time>2021-09-11T10:02:04.221Z</time>
      </trkpt>
      <trkpt lat="45.89694" lon="6.11153">
        <ele>451</ele>
        <time>2021-09-11T10:02:05.220Z</time>
      </trkpt>
      <trkpt lat="45.89693" lon="6.1115">
        <ele>451</ele>
        <time>2021-09-11T10:02:06.221Z</time>
      </trkpt>
      <trkpt lat="45.89692" lon="6.11145">
        <ele>451</ele>
        <time>2021-09-11T10:02:07.220Z</time>
      </trkpt>
      <trkpt lat="45.89691" lon="6.1114">
        <ele>451</ele>
        <time>2021-09-11T10:02:08.221Z</time>
      </trkpt>
      <trkpt lat="45.8969" lon="6.11136">
        <ele>451</ele>
        <time>2021-09-11T10:02:09.221Z</time>
      </trkpt>
      <trkpt lat="45.89689" lon="6.11132">
        <ele>451</ele>
        <time>2021-09-11T10:02:10.221Z</time>
      </trkpt>
      <trkpt lat="45.89688" lon="6.11128">
        <ele>451</ele>
        <time>2021-09-11T10:02:11.220Z</time>
      </trkpt>
      <trkpt lat="45.89688" lon="6.11125">
        <ele>452</ele>
        <time>2021-09-11T10:02:12.221Z</time>
      </trkpt>
      <trkpt lat="45.89687" lon="6.11122">
        <ele>452</ele>
        <time>2021-09-11T10:02:13.221Z</time>
      </trkpt>
      <trkpt lat="45.89686" lon="6.11118">
        <ele>452</ele>
        <time>2021-09-11T10:02:14.221Z</time>
      </trkpt>
      <trkpt lat="45.89686" lon="6.11115">
        <ele>453</ele>
        <time>2021-09-11T10:02:15.220Z</time>
      </trkpt>
      <trkpt lat="45.89686" lon="6.11113">
        <ele>453</ele>
        <time>2021-09-11T10:02:16.221Z</time>
      </trkpt>
      <trkpt lat="45.89687" lon="6.1111">
        <ele>453</ele>
        <time>2021-09-11T10:02:17.221Z</time>
      </trkpt>
      <trkpt lat="45.89687" lon="6.11108">
        <ele>453</ele>
        <time>2021-09-11T10:02:18.221Z</time>
      </trkpt>
      <trkpt lat="45.89686" lon="6.11106">
        <ele>453</ele>
        <time>2021-09-11T10:02:19.220Z</time>
      </trkpt>
      <trkpt lat="45.89685" lon="6.11104">
        <ele>453</ele>
        <time>2021-09-11T10:02:20.220Z</time>
      </trkpt>
      <trkpt lat="45.89684" lon="6.11102">
        <ele>453</ele>
        <time>2021-09-11T10:02:21.221Z</time>
      </trkpt>
      <trkpt lat="45.89682" lon="6.11101">
        <ele>453</ele>
        <time>2021-09-11T10:02:22.221Z</time>
      </trkpt>
      <trkpt lat="45.8968" lon="6.111">
        <ele>453</ele>
        <time>2021-09-11T10:02:23.221Z</time>
      </trkpt>
      <trkpt lat="45.89678" lon="6.111">
        <ele>453</ele>
        <time>2021-09-11T10:02:24.221Z</time>
      </trkpt>
      <trkpt lat="45.89675" lon="6.11099">
        <ele>453</ele>
        <time>2021-09-11T10:02:25.221Z</time>
      </trkpt>
      <trkpt lat="45.89671" lon="6.11099">
        <ele>453</ele>
        <time>2021-09-11T10:02:26.221Z</time>
      </trkpt>
      <trkpt lat="45.89668" lon="6.11099">
        <ele>454</ele>
        <time>2021-09-11T10:02:27.221Z</time>
      </trkpt>
      <trkpt lat="45.89665" lon="6.11099">
        <ele>454</ele>
        <time>2021-09-11T10:02:28.221Z</time>
      </trkpt>
      <trkpt lat="45.89663" lon="6.11099">
        <ele>454</ele>
        <time>2021-09-11T10:02:29.221Z</time>
      </trkpt>
      <trkpt lat="45.8966" lon="6.11099">
        <ele>454</ele>
        <time>2021-09-11T10:02:30.221Z</time>
      </trkpt>
      <trkpt lat="45.89657" lon="6.11099">
        <ele>454</ele>
        <time>2021-09-11T10:02:31.221Z</time>
      </trkpt>
      <trkpt lat="45.89654" lon="6.111">
        <ele>453</ele>
        <time>2021-09-11T10:02:32.221Z</time>
      </trkpt>
      <trkpt lat="45.8965" lon="6.11101">
        <ele>454</ele>
        <time>2021-09-11T10:02:33.221Z</time>
      </trkpt>
      <trkpt lat="45.89647" lon="6.11101">
        <ele>453</ele>
        <time>2021-09-11T10:02:34.221Z</time>
      </trkpt>
      <trkpt lat="45.89644" lon="6.11101">
        <ele>454</ele>
        <time>2021-09-11T10:02:35.221Z</time>
      </trkpt>
      <trkpt lat="45.89642" lon="6.111">
        <ele>454</ele>
        <time>2021-09-11T10:02:36.221Z</time>
      </trkpt>
      <trkpt lat="45.8964" lon="6.11098">
        <ele>453</ele>
        <time>2021-09-11T10:02:37.221Z</time>
      </trkpt>
      <trkpt lat="45.89639" lon="6.11096">
        <ele>453</ele>
        <time>2021-09-11T10:02:38.220Z</time>
      </trkpt>
      <trkpt lat="45.89639" lon="6.11094">
        <ele>453</ele>
        <time>2021-09-11T10:02:39.221Z</time>
      </trkpt>
      <trkpt lat="45.89639" lon="6.11091">
        <ele>452</ele>
        <time>2021-09-11T10:02:40.221Z</time>
      </trkpt>
      <trkpt lat="45.8964" lon="6.11088">
        <ele>452</ele>
        <time>2021-09-11T10:02:41.221Z</time>
      </trkpt>
      <trkpt lat="45.89641" lon="6.11085">
        <ele>452</ele>
        <time>2021-09-11T10:02:42.221Z</time>
      </trkpt>
      <trkpt lat="45.89642" lon="6.11082">
        <ele>452</ele>
        <time>2021-09-11T10:02:43.220Z</time>
      </trkpt>
      <trkpt lat="45.89644" lon="6.11079">
        <ele>452</ele>
        <time>2021-09-11T10:02:44.221Z</time>
      </trkpt>
      <trkpt lat="45.89646" lon="6.11075">
        <ele>453</ele>
        <time>2021-09-11T10:02:45.221Z</time>
      </trkpt>
      <trkpt lat="45.89647" lon="6.11071">
        <ele>453</ele>
        <time>2021-09-11T10:02:46.220Z</time>
      </trkpt>
      <trkpt lat="45.89649" lon="6.11068">
        <ele>453</ele>
        <time>2021-09-11T10:02:47.221Z</time>
      </trkpt>
      <trkpt lat="45.89651" lon="6.11064">
        <ele>453</ele>
        <time>2021-09-11T10:02:48.221Z</time>
      </trkpt>
      <trkpt lat="45.89652" lon="6.1106">
        <ele>453</ele>
        <time>2021-09-11T10:02:49.221Z</time>
      </trkpt>
      <trkpt lat="45.89654" lon="6.11056">
        <ele>453</ele>
        <time>2021-09-11T10:02:50.221Z</time>
      </trkpt>
      <trkpt lat="45.89655" lon="6.11053">
        <ele>453</ele>
        <time>2021-09-11T10:02:51.221Z</time>
      </trkpt>
      <trkpt lat="45.89657" lon="6.1105">
        <ele>453</ele>
        <time>2021-09-11T10:02:52.221Z</time>
      </trkpt>
      <trkpt lat="45.89659" lon="6.11045">
        <ele>453</ele>
        <time>2021-09-11T10:02:53.221Z</time>
      </trkpt>
      <trkpt lat="45.89661" lon="6.11042">
        <ele>453</ele>
        <time>2021-09-11T10:02:54.220Z</time>
      </trkpt>
      <trkpt lat="45.89662" lon="6.11038">
        <ele>453</ele>
        <time>2021-09-11T10:02:55.221Z</time>
      </trkpt>
      <trkpt lat="45.89664" lon="6.11035">
        <ele>453</ele>
        <time>2021-09-11T10:02:56.221Z</time>
      </trkpt>
      <trkpt lat="45.89666" lon="6.11032">
        <ele>453</ele>
        <time>2021-09-11T10:02:57.220Z</time>
      </trkpt>
      <trkpt lat="45.89667" lon="6.1103">
        <ele>453</ele>
        <time>2021-09-11T10:02:58.220Z</time>
      </trkpt>
      <trkpt lat="45.89669" lon="6.11027">
        <ele>454</ele>
        <time>2021-09-11T10:02:59.221Z</time>
      </trkpt>
      <trkpt lat="45.8967" lon="6.11024">
        <ele>454</ele>
        <time>2021-09-11T10:03:00.221Z</time>
      </trkpt>
      <trkpt lat="45.89671" lon="6.11021">
        <ele>455</ele>
        <time>2021-09-11T10:03:01.221Z</time>
      </trkpt>
      <trkpt lat="45.89672" lon="6.11019">
        <ele>455</ele>
        <time>2021-09-11T10:03:02.221Z</time>
      </trkpt>
      <trkpt lat="45.89674" lon="6.11017">
        <ele>455</ele>
        <time>2021-09-11T10:03:03.220Z</time>
      </trkpt>
      <trkpt lat="45.89675" lon="6.11015">
        <ele>456</ele>
        <time>2021-09-11T10:03:04.221Z</time>
      </trkpt>
      <trkpt lat="45.89676" lon="6.11012">
        <ele>456</ele>
        <time>2021-09-11T10:03:05.220Z</time>
      </trkpt>
      <trkpt lat="45.89677" lon="6.11009">
        <ele>457</ele>
        <time>2021-09-11T10:03:06.221Z</time>
      </trkpt>
      <trkpt lat="45.89679" lon="6.11006">
        <ele>457</ele>
        <time>2021-09-11T10:03:07.221Z</time>
      </trkpt>
      <trkpt lat="45.8968" lon="6.11004">
        <ele>457</ele>
        <time>2021-09-11T10:03:08.221Z</time>
      </trkpt>
      <trkpt lat="45.89682" lon="6.11001">
        <ele>458</ele>
        <time>2021-09-11T10:03:09.221Z</time>
      </trkpt>
      <trkpt lat="45.89683" lon="6.10999">
        <ele>458</ele>
        <time>2021-09-11T10:03:10.221Z</time>
      </trkpt>
      <trkpt lat="45.89685" lon="6.10996">
        <ele>458</ele>
        <time>2021-09-11T10:03:11.221Z</time>
      </trkpt>
      <trkpt lat="45.89686" lon="6.10993">
        <ele>459</ele>
        <time>2021-09-11T10:03:12.221Z</time>
      </trkpt>
      <trkpt lat="45.89687" lon="6.1099">
        <ele>459</ele>
        <time>2021-09-11T10:03:13.221Z</time>
      </trkpt>
      <trkpt lat="45.89689" lon="6.10987">
        <ele>459</ele>
        <time>2021-09-11T10:03:14.221Z</time>
      </trkpt>
      <trkpt lat="45.8969" lon="6.10983">
        <ele>459</ele>
        <time>2021-09-11T10:03:15.221Z</time>
      </trkpt>
      <trkpt lat="45.89692" lon="6.10981">
        <ele>459</ele>
        <time>2021-09-11T10:03:16.220Z</time>
      </trkpt>
      <trkpt lat="45.89693" lon="6.10978">
        <ele>459</ele>
        <time>2021-09-11T10:03:17.221Z</time>
      </trkpt>
      <trkpt lat="45.89695" lon="6.10975">
        <ele>459</ele>
        <time>2021-09-11T10:03:18.221Z</time>
      </trkpt>
      <trkpt lat="45.89696" lon="6.10971">
        <ele>459</ele>
        <time>2021-09-11T10:03:19.221Z</time>
      </trkpt>
      <trkpt lat="45.89697" lon="6.10968">
        <ele>459</ele>
        <time>2021-09-11T10:03:20.221Z</time>
      </trkpt>
      <trkpt lat="45.89699" lon="6.10965">
        <ele>460</ele>
        <time>2021-09-11T10:03:21.221Z</time>
      </trkpt>
      <trkpt lat="45.897" lon="6.10963">
        <ele>460</ele>
        <time>2021-09-11T10:03:22.220Z</time>
      </trkpt>
      <trkpt lat="45.89701" lon="6.1096">
        <ele>460</ele>
        <time>2021-09-11T10:03:23.221Z</time>
      </trkpt>
      <trkpt lat="45.89703" lon="6.10957">
        <ele>460</ele>
        <time>2021-09-11T10:03:24.221Z</time>
      </trkpt>
      <trkpt lat="45.89704" lon="6.10954">
        <ele>460</ele>
        <time>2021-09-11T10:03:25.221Z</time>
      </trkpt>
      <trkpt lat="45.89706" lon="6.10951">
        <ele>460</ele>
        <time>2021-09-11T10:03:26.221Z</time>
      </trkpt>
      <trkpt lat="45.89707" lon="6.10948">
        <ele>460</ele>
        <time>2021-09-11T10:03:27.220Z</time>
      </trkpt>
      <trkpt lat="45.89709" lon="6.10946">
        <ele>460</ele>
        <time>2021-09-11T10:03:28.221Z</time>
      </trkpt>
      <trkpt lat="45.8971" lon="6.10943">
        <ele>460</ele>
        <time>2021-09-11T10:03:29.221Z</time>
      </trkpt>
      <trkpt lat="45.89711" lon="6.10941">
        <ele>460</ele>
        <time>2021-09-11T10:03:30.221Z</time>
      </trkpt>
      <trkpt lat="45.89712" lon="6.10939">
        <ele>460</ele>
        <time>2021-09-11T10:03:31.221Z</time>
      </trkpt>
      <trkpt lat="45.89713" lon="6.10937">
        <ele>460</ele>
        <time>2021-09-11T10:03:32.221Z</time>
      </trkpt>
      <trkpt lat="45.89715" lon="6.10934">
        <ele>460</ele>
        <time>2021-09-11T10:03:33.221Z</time>
      </trkpt>
      <trkpt lat="45.89716" lon="6.10931">
        <ele>460</ele>
        <time>2021-09-11T10:03:34.221Z</time>
      </trkpt>
      <trkpt lat="45.89717" lon="6.10929">
        <ele>460</ele>
        <time>2021-09-11T10:03:35.221Z</time>
      </trkpt>
      <trkpt lat="45.89718" lon="6.10927">
        <ele>460</ele>
        <time>2021-09-11T10:03:36.220Z</time>
      </trkpt>
      <trkpt lat="45.8972" lon="6.10924">
        <ele>460</ele>
        <time>2021-09-11T10:03:37.221Z</time>
      </trkpt>
      <trkpt lat="45.89721" lon="6.10922">
        <ele>460</ele>
        <time>2021-09-11T10:03:38.221Z</time>
      </trkpt>
      <trkpt lat="45.89723" lon="6.10919">
        <ele>461</ele>
        <time>2021-09-11T10:03:39.220Z</time>
      </trkpt>
      <trkpt lat="45.89724" lon="6.10916">
        <ele>461</ele>
        <time>2021-09-11T10:03:40.221Z</time>
      </trkpt>
      <trkpt lat="45.89725" lon="6.10914">
        <ele>462</ele>
        <time>2021-09-11T10:03:41.220Z</time>
      </trkpt>
      <trkpt lat="45.89727" lon="6.10911">
        <ele>462</ele>
        <time>2021-09-11T10:03:42.221Z</time>
      </trkpt>
      <trkpt lat="45.89728" lon="6.10909">
        <ele>463</ele>
        <time>2021-09-11T10:03:43.221Z</time>
      </trkpt>
      <trkpt lat="45.8973" lon="6.10907">
        <ele>463</ele>
        <time>2021-09-11T10:03:44.221Z</time>
      </trkpt>
      <trkpt lat="45.89731" lon="6.10904">
        <ele>463</ele>
        <time>2021-09-11T10:03:45.221Z</time>
      </trkpt>
      <trkpt lat="45.89733" lon="6.10902">
        <ele>463</ele>
        <time>2021-09-11T10:03:46.220Z</time>
      </trkpt>
      <trkpt lat="45.89735" lon="6.10899">
        <ele>463</ele>
        <time>2021-09-11T10:03:47.221Z</time>
      </trkpt>
      <trkpt lat="45.89736" lon="6.10897">
        <ele>463</ele>
        <time>2021-09-11T10:03:48.221Z</time>
      </trkpt>
      <trkpt lat="45.89738" lon="6.10894">
        <ele>463</ele>
        <time>2021-09-11T10:03:49.221Z</time>
      </trkpt>
      <trkpt lat="45.89739" lon="6.10891">
        <ele>463</ele>
        <time>2021-09-11T10:03:50.220Z</time>
      </trkpt>
      <trkpt lat="45.89741" lon="6.10888">
        <ele>463</ele>
        <time>2021-09-11T10:03:51.220Z</time>
      </trkpt>
      <trkpt lat="45.89742" lon="6.10886">
        <ele>463</ele>
        <time>2021-09-11T10:03:52.221Z</time>
      </trkpt>
      <trkpt lat="45.89744" lon="6.10883">
        <ele>463</ele>
        <time>2021-09-11T10:03:53.221Z</time>
      </trkpt>
      <trkpt lat="45.89745" lon="6.1088">
        <ele>463</ele>
        <time>2021-09-11T10:03:54.221Z</time>
      </trkpt>
      <trkpt lat="45.89746" lon="6.10878">
        <ele>463</ele>
        <time>2021-09-11T10:03:55.221Z</time>
      </trkpt>
      <trkpt lat="45.89747" lon="6.10876">
        <ele>464</ele>
        <time>2021-09-11T10:03:56.220Z</time>
      </trkpt>
      <trkpt lat="45.89749" lon="6.10873">
        <ele>464</ele>
        <time>2021-09-11T10:03:57.221Z</time>
      </trkpt>
      <trkpt lat="45.89751" lon="6.10871">
        <ele>464</ele>
        <time>2021-09-11T10:03:58.221Z</time>
      </trkpt>
      <trkpt lat="45.89754" lon="6.1087">
        <ele>463</ele>
        <time>2021-09-11T10:03:59.221Z</time>
      </trkpt>
      <trkpt lat="45.89756" lon="6.10868">
        <ele>464</ele>
        <time>2021-09-11T10:04:00.221Z</time>
      </trkpt>
      <trkpt lat="45.89757" lon="6.10867">
        <ele>464</ele>
        <time>2021-09-11T10:04:01.221Z</time>
      </trkpt>
      <trkpt lat="45.89758" lon="6.10867">
        <ele>463</ele>
        <time>2021-09-11T10:04:02.220Z</time>
      </trkpt>
      <trkpt lat="45.89758" lon="6.10867">
        <ele>463</ele>
        <time>2021-09-11T10:04:03.221Z</time>
      </trkpt>
      <trkpt lat="45.89758" lon="6.10867">
        <ele>463</ele>
        <time>2021-09-11T10:04:04.221Z</time>
      </trkpt>
      <trkpt lat="45.89757" lon="6.10867">
        <ele>461</ele>
        <time>2021-09-11T10:04:05.222Z</time>
      </trkpt>
      <trkpt lat="45.89757" lon="6.10867">
        <ele>461</ele>
        <time>2021-09-11T10:04:06.221Z</time>
      </trkpt>
      <trkpt lat="45.89757" lon="6.10867">
        <ele>461</ele>
        <time>2021-09-11T10:04:07.221Z</time>
      </trkpt>
      <trkpt lat="45.89729" lon="6.10823">
        <ele>464</ele>
        <time>2021-09-11T10:04:08.222Z</time>
      </trkpt>
      <trkpt lat="45.89729" lon="6.10827">
        <ele>464</ele>
        <time>2021-09-11T10:04:09.221Z</time>
      </trkpt>
      <trkpt lat="45.89727" lon="6.10824">
        <ele>464</ele>
        <time>2021-09-11T10:04:10.222Z</time>
      </trkpt>
      <trkpt lat="45.89724" lon="6.1082">
        <ele>464</ele>
        <time>2021-09-11T10:04:11.222Z</time>
      </trkpt>
      <trkpt lat="45.89726" lon="6.10819">
        <ele>462</ele>
        <time>2021-09-11T10:04:12.223Z</time>
      </trkpt>
      <trkpt lat="45.89727" lon="6.10816">
        <ele>462</ele>
        <time>2021-09-11T10:04:13.223Z</time>
      </trkpt>
      <trkpt lat="45.89728" lon="6.10814">
        <ele>462</ele>
        <time>2021-09-11T10:04:14.224Z</time>
      </trkpt>
      <trkpt lat="45.8973" lon="6.10811">
        <ele>462</ele>
        <time>2021-09-11T10:04:15.223Z</time>
      </trkpt>
      <trkpt lat="45.89731" lon="6.10809">
        <ele>462</ele>
        <time>2021-09-11T10:04:16.223Z</time>
      </trkpt>
      <trkpt lat="45.89732" lon="6.10807">
        <ele>463</ele>
        <time>2021-09-11T10:04:17.223Z</time>
      </trkpt>
      <trkpt lat="45.89732" lon="6.10805">
        <ele>463</ele>
        <time>2021-09-11T10:04:18.223Z</time>
      </trkpt>
      <trkpt lat="45.89733" lon="6.10804">
        <ele>463</ele>
        <time>2021-09-11T10:04:19.223Z</time>
      </trkpt>
      <trkpt lat="45.89733" lon="6.10803">
        <ele>464</ele>
        <time>2021-09-11T10:04:20.223Z</time>
      </trkpt>
      <trkpt lat="45.89732" lon="6.10802">
        <ele>465</ele>
        <time>2021-09-11T10:04:21.224Z</time>
      </trkpt>
      <trkpt lat="45.89731" lon="6.10801">
        <ele>465</ele>
        <time>2021-09-11T10:04:22.224Z</time>
      </trkpt>
      <trkpt lat="45.8973" lon="6.108">
        <ele>466</ele>
        <time>2021-09-11T10:04:23.223Z</time>
      </trkpt>
      <trkpt lat="45.89729" lon="6.108">
        <ele>466</ele>
        <time>2021-09-11T10:04:24.224Z</time>
      </trkpt>
      <trkpt lat="45.89728" lon="6.10799">
        <ele>467</ele>
        <time>2021-09-11T10:04:25.224Z</time>
      </trkpt>
      <trkpt lat="45.89727" lon="6.10798">
        <ele>468</ele>
        <time>2021-09-11T10:04:26.223Z</time>
      </trkpt>
      <trkpt lat="45.89726" lon="6.10796">
        <ele>469</ele>
        <time>2021-09-11T10:04:27.223Z</time>
      </trkpt>
      <trkpt lat="45.89725" lon="6.10795">
        <ele>470</ele>
        <time>2021-09-11T10:04:28.224Z</time>
      </trkpt>
      <trkpt lat="45.89724" lon="6.10794">
        <ele>470</ele>
        <time>2021-09-11T10:04:29.224Z</time>
      </trkpt>
      <trkpt lat="45.89723" lon="6.10792">
        <ele>470</ele>
        <time>2021-09-11T10:04:30.223Z</time>
      </trkpt>
      <trkpt lat="45.89721" lon="6.10791">
        <ele>470</ele>
        <time>2021-09-11T10:04:31.223Z</time>
      </trkpt>
      <trkpt lat="45.8972" lon="6.10789">
        <ele>470</ele>
        <time>2021-09-11T10:04:32.223Z</time>
      </trkpt>
      <trkpt lat="45.89719" lon="6.10788">
        <ele>470</ele>
        <time>2021-09-11T10:04:33.223Z</time>
      </trkpt>
      <trkpt lat="45.89717" lon="6.10787">
        <ele>470</ele>
        <time>2021-09-11T10:04:34.223Z</time>
      </trkpt>
      <trkpt lat="45.89716" lon="6.10785">
        <ele>470</ele>
        <time>2021-09-11T10:04:35.224Z</time>
      </trkpt>
      <trkpt lat="45.89715" lon="6.10784">
        <ele>470</ele>
        <time>2021-09-11T10:04:36.223Z</time>
      </trkpt>
      <trkpt lat="45.89714" lon="6.10783">
        <ele>470</ele>
        <time>2021-09-11T10:04:37.223Z</time>
      </trkpt>
      <trkpt lat="45.89712" lon="6.10781">
        <ele>470</ele>
        <time>2021-09-11T10:04:38.223Z</time>
      </trkpt>
      <trkpt lat="45.89711" lon="6.10779">
        <ele>470</ele>
        <time>2021-09-11T10:04:39.223Z</time>
      </trkpt>
      <trkpt lat="45.89709" lon="6.10776">
        <ele>470</ele>
        <time>2021-09-11T10:04:40.224Z</time>
      </trkpt>
      <trkpt lat="45.89707" lon="6.10774">
        <ele>470</ele>
        <time>2021-09-11T10:04:41.223Z</time>
      </trkpt>
      <trkpt lat="45.89706" lon="6.10772">
        <ele>470</ele>
        <time>2021-09-11T10:04:42.223Z</time>
      </trkpt>
      <trkpt lat="45.89704" lon="6.1077">
        <ele>471</ele>
        <time>2021-09-11T10:04:43.224Z</time>
      </trkpt>
      <trkpt lat="45.89703" lon="6.10769">
        <ele>471</ele>
        <time>2021-09-11T10:04:44.224Z</time>
      </trkpt>
      <trkpt lat="45.897" lon="6.10767">
        <ele>471</ele>
        <time>2021-09-11T10:04:45.224Z</time>
      </trkpt>
      <trkpt lat="45.89698" lon="6.10765">
        <ele>472</ele>
        <time>2021-09-11T10:04:46.223Z</time>
      </trkpt>
      <trkpt lat="45.89696" lon="6.10763">
        <ele>472</ele>
        <time>2021-09-11T10:04:47.223Z</time>
      </trkpt>
      <trkpt lat="45.89694" lon="6.10761">
        <ele>472</ele>
        <time>2021-09-11T10:04:48.224Z</time>
      </trkpt>
      <trkpt lat="45.89692" lon="6.10759">
        <ele>473</ele>
        <time>2021-09-11T10:04:49.223Z</time>
      </trkpt>
      <trkpt lat="45.89691" lon="6.10757">
        <ele>473</ele>
        <time>2021-09-11T10:04:50.223Z</time>
      </trkpt>
      <trkpt lat="45.8969" lon="6.10753">
        <ele>474</ele>
        <time>2021-09-11T10:04:51.224Z</time>
      </trkpt>
      <trkpt lat="45.89688" lon="6.10749">
        <ele>475</ele>
        <time>2021-09-11T10:04:52.224Z</time>
      </trkpt>
      <trkpt lat="45.89686" lon="6.10746">
        <ele>475</ele>
        <time>2021-09-11T10:04:53.223Z</time>
      </trkpt>
      <trkpt lat="45.89685" lon="6.10743">
        <ele>475</ele>
        <time>2021-09-11T10:04:54.224Z</time>
      </trkpt>
      <trkpt lat="45.89685" lon="6.1074">
        <ele>475</ele>
        <time>2021-09-11T10:04:55.223Z</time>
      </trkpt>
      <trkpt lat="45.89684" lon="6.10737">
        <ele>475</ele>
        <time>2021-09-11T10:04:56.223Z</time>
      </trkpt>
      <trkpt lat="45.89683" lon="6.10734">
        <ele>476</ele>
        <time>2021-09-11T10:04:57.223Z</time>
      </trkpt>
      <trkpt lat="45.89683" lon="6.10732">
        <ele>476</ele>
        <time>2021-09-11T10:04:58.224Z</time>
      </trkpt>
      <trkpt lat="45.89682" lon="6.1073">
        <ele>476</ele>
        <time>2021-09-11T10:04:59.224Z</time>
      </trkpt>
      <trkpt lat="45.89681" lon="6.10727">
        <ele>476</ele>
        <time>2021-09-11T10:05:00.224Z</time>
      </trkpt>
      <trkpt lat="45.8968" lon="6.10725">
        <ele>476</ele>
        <time>2021-09-11T10:05:01.223Z</time>
      </trkpt>
      <trkpt lat="45.89679" lon="6.10723">
        <ele>476</ele>
        <time>2021-09-11T10:05:02.224Z</time>
      </trkpt>
      <trkpt lat="45.89678" lon="6.1072">
        <ele>477</ele>
        <time>2021-09-11T10:05:03.224Z</time>
      </trkpt>
      <trkpt lat="45.89677" lon="6.10718">
        <ele>477</ele>
        <time>2021-09-11T10:05:04.223Z</time>
      </trkpt>
      <trkpt lat="45.89676" lon="6.10716">
        <ele>477</ele>
        <time>2021-09-11T10:05:05.223Z</time>
      </trkpt>
      <trkpt lat="45.89674" lon="6.10714">
        <ele>478</ele>
        <time>2021-09-11T10:05:06.223Z</time>
      </trkpt>
      <trkpt lat="45.89673" lon="6.10712">
        <ele>478</ele>
        <time>2021-09-11T10:05:07.224Z</time>
      </trkpt>
      <trkpt lat="45.89672" lon="6.1071">
        <ele>479</ele>
        <time>2021-09-11T10:05:08.224Z</time>
      </trkpt>
      <trkpt lat="45.89671" lon="6.10707">
        <ele>480</ele>
        <time>2021-09-11T10:05:09.224Z</time>
      </trkpt>
      <trkpt lat="45.8967" lon="6.10705">
        <ele>480</ele>
        <time>2021-09-11T10:05:10.223Z</time>
      </trkpt>
      <trkpt lat="45.8967" lon="6.10704">
        <ele>481</ele>
        <time>2021-09-11T10:05:11.223Z</time>
      </trkpt>
      <trkpt lat="45.89669" lon="6.10702">
        <ele>482</ele>
        <time>2021-09-11T10:05:12.223Z</time>
      </trkpt>
      <trkpt lat="45.89668" lon="6.10699">
        <ele>482</ele>
        <time>2021-09-11T10:05:13.224Z</time>
      </trkpt>
      <trkpt lat="45.89667" lon="6.10697">
        <ele>482</ele>
        <time>2021-09-11T10:05:14.224Z</time>
      </trkpt>
      <trkpt lat="45.89666" lon="6.10694">
        <ele>483</ele>
        <time>2021-09-11T10:05:15.223Z</time>
      </trkpt>
      <trkpt lat="45.89664" lon="6.10692">
        <ele>483</ele>
        <time>2021-09-11T10:05:16.224Z</time>
      </trkpt>
      <trkpt lat="45.89662" lon="6.10689">
        <ele>484</ele>
        <time>2021-09-11T10:05:17.223Z</time>
      </trkpt>
      <trkpt lat="45.8966" lon="6.10685">
        <ele>484</ele>
        <time>2021-09-11T10:05:18.223Z</time>
      </trkpt>
      <trkpt lat="45.89658" lon="6.10682">
        <ele>485</ele>
        <time>2021-09-11T10:05:19.223Z</time>
      </trkpt>
      <trkpt lat="45.89657" lon="6.10679">
        <ele>485</ele>
        <time>2021-09-11T10:05:20.224Z</time>
      </trkpt>
      <trkpt lat="45.89656" lon="6.10676">
        <ele>486</ele>
        <time>2021-09-11T10:05:21.223Z</time>
      </trkpt>
      <trkpt lat="45.89654" lon="6.10673">
        <ele>486</ele>
        <time>2021-09-11T10:05:22.223Z</time>
      </trkpt>
      <trkpt lat="45.89653" lon="6.10671">
        <ele>487</ele>
        <time>2021-09-11T10:05:23.223Z</time>
      </trkpt>
      <trkpt lat="45.89652" lon="6.10669">
        <ele>487</ele>
        <time>2021-09-11T10:05:24.223Z</time>
      </trkpt>
      <trkpt lat="45.89649" lon="6.10666">
        <ele>487</ele>
        <time>2021-09-11T10:05:25.223Z</time>
      </trkpt>
      <trkpt lat="45.89646" lon="6.10664">
        <ele>487</ele>
        <time>2021-09-11T10:05:26.223Z</time>
      </trkpt>
      <trkpt lat="45.89644" lon="6.10661">
        <ele>487</ele>
        <time>2021-09-11T10:05:27.223Z</time>
      </trkpt>
      <trkpt lat="45.89641" lon="6.10659">
        <ele>487</ele>
        <time>2021-09-11T10:05:28.224Z</time>
      </trkpt>
      <trkpt lat="45.8964" lon="6.10657">
        <ele>487</ele>
        <time>2021-09-11T10:05:29.224Z</time>
      </trkpt>
      <trkpt lat="45.89638" lon="6.10655">
        <ele>487</ele>
        <time>2021-09-11T10:05:30.223Z</time>
      </trkpt>
      <trkpt lat="45.89635" lon="6.10652">
        <ele>487</ele>
        <time>2021-09-11T10:05:31.223Z</time>
      </trkpt>
      <trkpt lat="45.89633" lon="6.10649">
        <ele>487</ele>
        <time>2021-09-11T10:05:32.223Z</time>
      </trkpt>
      <trkpt lat="45.89631" lon="6.10647">
        <ele>486</ele>
        <time>2021-09-11T10:05:33.223Z</time>
      </trkpt>
      <trkpt lat="45.89629" lon="6.10645">
        <ele>486</ele>
        <time>2021-09-11T10:05:34.223Z</time>
      </trkpt>
      <trkpt lat="45.89627" lon="6.10643">
        <ele>486</ele>
        <time>2021-09-11T10:05:35.223Z</time>
      </trkpt>
      <trkpt lat="45.89624" lon="6.10642">
        <ele>486</ele>
        <time>2021-09-11T10:05:36.223Z</time>
      </trkpt>
      <trkpt lat="45.89622" lon="6.10639">
        <ele>485</ele>
        <time>2021-09-11T10:05:37.223Z</time>
      </trkpt>
      <trkpt lat="45.89619" lon="6.10636">
        <ele>485</ele>
        <time>2021-09-11T10:05:38.224Z</time>
      </trkpt>
      <trkpt lat="45.89617" lon="6.10634">
        <ele>485</ele>
        <time>2021-09-11T10:05:39.224Z</time>
      </trkpt>
      <trkpt lat="45.89615" lon="6.10633">
        <ele>485</ele>
        <time>2021-09-11T10:05:40.224Z</time>
      </trkpt>
      <trkpt lat="45.89613" lon="6.10631">
        <ele>485</ele>
        <time>2021-09-11T10:05:41.223Z</time>
      </trkpt>
      <trkpt lat="45.89611" lon="6.1063">
        <ele>485</ele>
        <time>2021-09-11T10:05:42.223Z</time>
      </trkpt>
      <trkpt lat="45.89609" lon="6.10627">
        <ele>485</ele>
        <time>2021-09-11T10:05:43.224Z</time>
      </trkpt>
      <trkpt lat="45.89608" lon="6.10625">
        <ele>485</ele>
        <time>2021-09-11T10:05:44.223Z</time>
      </trkpt>
      <trkpt lat="45.89608" lon="6.10622">
        <ele>485</ele>
        <time>2021-09-11T10:05:45.223Z</time>
      </trkpt>
      <trkpt lat="45.89607" lon="6.1062">
        <ele>485</ele>
        <time>2021-09-11T10:05:46.224Z</time>
      </trkpt>
      <trkpt lat="45.89608" lon="6.10618">
        <ele>486</ele>
        <time>2021-09-11T10:05:47.223Z</time>
      </trkpt>
      <trkpt lat="45.89609" lon="6.10617">
        <ele>486</ele>
        <time>2021-09-11T10:05:48.224Z</time>
      </trkpt>
      <trkpt lat="45.89609" lon="6.10616">
        <ele>486</ele>
        <time>2021-09-11T10:05:49.223Z</time>
      </trkpt>
      <trkpt lat="45.8961" lon="6.10615">
        <ele>486</ele>
        <time>2021-09-11T10:05:50.224Z</time>
      </trkpt>
      <trkpt lat="45.89611" lon="6.10615">
        <ele>487</ele>
        <time>2021-09-11T10:05:51.223Z</time>
      </trkpt>
      <trkpt lat="45.89611" lon="6.10614">
        <ele>487</ele>
        <time>2021-09-11T10:05:52.223Z</time>
      </trkpt>
      <trkpt lat="45.89611" lon="6.10614">
        <ele>488</ele>
        <time>2021-09-11T10:05:53.224Z</time>
      </trkpt>
      <trkpt lat="45.89618" lon="6.10609">
        <ele>486</ele>
        <time>2021-09-11T10:05:54.224Z</time>
      </trkpt>
      <trkpt lat="45.89621" lon="6.10606">
        <ele>486</ele>
        <time>2021-09-11T10:05:55.225Z</time>
      </trkpt>
      <trkpt lat="45.89623" lon="6.10603">
        <ele>487</ele>
        <time>2021-09-11T10:05:56.224Z</time>
      </trkpt>
      <trkpt lat="45.89625" lon="6.106">
        <ele>487</ele>
        <time>2021-09-11T10:05:57.225Z</time>
      </trkpt>
      <trkpt lat="45.89627" lon="6.10596">
        <ele>488</ele>
        <time>2021-09-11T10:05:58.225Z</time>
      </trkpt>
      <trkpt lat="45.89629" lon="6.10593">
        <ele>488</ele>
        <time>2021-09-11T10:05:59.225Z</time>
      </trkpt>
      <trkpt lat="45.8963" lon="6.1059">
        <ele>489</ele>
        <time>2021-09-11T10:06:00.224Z</time>
      </trkpt>
      <trkpt lat="45.89631" lon="6.10586">
        <ele>489</ele>
        <time>2021-09-11T10:06:01.225Z</time>
      </trkpt>
      <trkpt lat="45.89632" lon="6.10582">
        <ele>490</ele>
        <time>2021-09-11T10:06:02.225Z</time>
      </trkpt>
      <trkpt lat="45.89632" lon="6.10579">
        <ele>490</ele>
        <time>2021-09-11T10:06:03.225Z</time>
      </trkpt>
      <trkpt lat="45.89633" lon="6.10576">
        <ele>491</ele>
        <time>2021-09-11T10:06:04.225Z</time>
      </trkpt>
      <trkpt lat="45.89633" lon="6.10573">
        <ele>491</ele>
        <time>2021-09-11T10:06:05.225Z</time>
      </trkpt>
      <trkpt lat="45.89632" lon="6.1057">
        <ele>491</ele>
        <time>2021-09-11T10:06:06.225Z</time>
      </trkpt>
      <trkpt lat="45.89632" lon="6.10566">
        <ele>492</ele>
        <time>2021-09-11T10:06:07.225Z</time>
      </trkpt>
      <trkpt lat="45.89631" lon="6.10563">
        <ele>492</ele>
        <time>2021-09-11T10:06:08.225Z</time>
      </trkpt>
      <trkpt lat="45.89631" lon="6.1056">
        <ele>492</ele>
        <time>2021-09-11T10:06:09.225Z</time>
      </trkpt>
      <trkpt lat="45.8963" lon="6.10556">
        <ele>492</ele>
        <time>2021-09-11T10:06:10.225Z</time>
      </trkpt>
      <trkpt lat="45.8963" lon="6.10553">
        <ele>492</ele>
        <time>2021-09-11T10:06:11.224Z</time>
      </trkpt>
      <trkpt lat="45.89629" lon="6.10549">
        <ele>492</ele>
        <time>2021-09-11T10:06:12.225Z</time>
      </trkpt>
      <trkpt lat="45.89629" lon="6.10546">
        <ele>492</ele>
        <time>2021-09-11T10:06:13.225Z</time>
      </trkpt>
      <trkpt lat="45.89629" lon="6.10543">
        <ele>492</ele>
        <time>2021-09-11T10:06:14.225Z</time>
      </trkpt>
      <trkpt lat="45.89628" lon="6.10539">
        <ele>492</ele>
        <time>2021-09-11T10:06:15.225Z</time>
      </trkpt>
      <trkpt lat="45.89628" lon="6.10536">
        <ele>493</ele>
        <time>2021-09-11T10:06:16.224Z</time>
      </trkpt>
      <trkpt lat="45.89628" lon="6.10533">
        <ele>493</ele>
        <time>2021-09-11T10:06:17.224Z</time>
      </trkpt>
      <trkpt lat="45.89628" lon="6.1053">
        <ele>493</ele>
        <time>2021-09-11T10:06:18.225Z</time>
      </trkpt>
      <trkpt lat="45.89627" lon="6.10527">
        <ele>493</ele>
        <time>2021-09-11T10:06:19.225Z</time>
      </trkpt>
      <trkpt lat="45.89627" lon="6.10524">
        <ele>493</ele>
        <time>2021-09-11T10:06:20.225Z</time>
      </trkpt>
      <trkpt lat="45.89626" lon="6.10521">
        <ele>494</ele>
        <time>2021-09-11T10:06:21.225Z</time>
      </trkpt>
      <trkpt lat="45.89626" lon="6.10517">
        <ele>494</ele>
        <time>2021-09-11T10:06:22.225Z</time>
      </trkpt>
      <trkpt lat="45.89625" lon="6.10514">
        <ele>494</ele>
        <time>2021-09-11T10:06:23.224Z</time>
      </trkpt>
      <trkpt lat="45.89625" lon="6.10511">
        <ele>494</ele>
        <time>2021-09-11T10:06:24.224Z</time>
      </trkpt>
      <trkpt lat="45.89625" lon="6.10508">
        <ele>494</ele>
        <time>2021-09-11T10:06:25.225Z</time>
      </trkpt>
      <trkpt lat="45.89624" lon="6.10505">
        <ele>494</ele>
        <time>2021-09-11T10:06:26.225Z</time>
      </trkpt>
      <trkpt lat="45.89624" lon="6.10502">
        <ele>495</ele>
        <time>2021-09-11T10:06:27.224Z</time>
      </trkpt>
      <trkpt lat="45.89624" lon="6.10499">
        <ele>495</ele>
        <time>2021-09-11T10:06:28.225Z</time>
      </trkpt>
      <trkpt lat="45.89624" lon="6.10496">
        <ele>496</ele>
        <time>2021-09-11T10:06:29.224Z</time>
      </trkpt>
      <trkpt lat="45.89623" lon="6.10492">
        <ele>496</ele>
        <time>2021-09-11T10:06:30.225Z</time>
      </trkpt>
      <trkpt lat="45.89623" lon="6.10489">
        <ele>496</ele>
        <time>2021-09-11T10:06:31.225Z</time>
      </trkpt>
      <trkpt lat="45.89623" lon="6.10487">
        <ele>495</ele>
        <time>2021-09-11T10:06:32.224Z</time>
      </trkpt>
      <trkpt lat="45.89623" lon="6.10483">
        <ele>495</ele>
        <time>2021-09-11T10:06:33.225Z</time>
      </trkpt>
      <trkpt lat="45.89623" lon="6.1048">
        <ele>495</ele>
        <time>2021-09-11T10:06:34.224Z</time>
      </trkpt>
      <trkpt lat="45.89623" lon="6.10478">
        <ele>496</ele>
        <time>2021-09-11T10:06:35.225Z</time>
      </trkpt>
      <trkpt lat="45.89623" lon="6.10475">
        <ele>496</ele>
        <time>2021-09-11T10:06:36.225Z</time>
      </trkpt>
      <trkpt lat="45.89622" lon="6.10472">
        <ele>496</ele>
        <time>2021-09-11T10:06:37.225Z</time>
      </trkpt>
      <trkpt lat="45.89622" lon="6.10468">
        <ele>497</ele>
        <time>2021-09-11T10:06:38.225Z</time>
      </trkpt>
      <trkpt lat="45.89622" lon="6.10465">
        <ele>497</ele>
        <time>2021-09-11T10:06:39.225Z</time>
      </trkpt>
      <trkpt lat="45.89622" lon="6.10463">
        <ele>497</ele>
        <time>2021-09-11T10:06:40.225Z</time>
      </trkpt>
      <trkpt lat="45.89622" lon="6.1046">
        <ele>497</ele>
        <time>2021-09-11T10:06:41.225Z</time>
      </trkpt>
      <trkpt lat="45.89621" lon="6.10457">
        <ele>498</ele>
        <time>2021-09-11T10:06:42.225Z</time>
      </trkpt>
      <trkpt lat="45.89622" lon="6.10454">
        <ele>498</ele>
        <time>2021-09-11T10:06:43.225Z</time>
      </trkpt>
      <trkpt lat="45.89621" lon="6.10451">
        <ele>499</ele>
        <time>2021-09-11T10:06:44.224Z</time>
      </trkpt>
      <trkpt lat="45.89621" lon="6.10448">
        <ele>499</ele>
        <time>2021-09-11T10:06:45.225Z</time>
      </trkpt>
      <trkpt lat="45.8962" lon="6.10445">
        <ele>500</ele>
        <time>2021-09-11T10:06:46.225Z</time>
      </trkpt>
      <trkpt lat="45.89619" lon="6.10442">
        <ele>501</ele>
        <time>2021-09-11T10:06:47.225Z</time>
      </trkpt>
      <trkpt lat="45.89618" lon="6.10438">
        <ele>501</ele>
        <time>2021-09-11T10:06:48.224Z</time>
      </trkpt>
      <trkpt lat="45.89618" lon="6.10435">
        <ele>501</ele>
        <time>2021-09-11T10:06:49.224Z</time>
      </trkpt>
      <trkpt lat="45.89617" lon="6.10432">
        <ele>501</ele>
        <time>2021-09-11T10:06:50.225Z</time>
      </trkpt>
      <trkpt lat="45.89615" lon="6.10428">
        <ele>501</ele>
        <time>2021-09-11T10:06:51.225Z</time>
      </trkpt>
      <trkpt lat="45.89615" lon="6.10425">
        <ele>500</ele>
        <time>2021-09-11T10:06:52.225Z</time>
      </trkpt>
      <trkpt lat="45.89614" lon="6.10423">
        <ele>500</ele>
        <time>2021-09-11T10:06:53.225Z</time>
      </trkpt>
      <trkpt lat="45.89613" lon="6.10421">
        <ele>499</ele>
        <time>2021-09-11T10:06:54.225Z</time>
      </trkpt>
      <trkpt lat="45.89612" lon="6.10418">
        <ele>499</ele>
        <time>2021-09-11T10:06:55.225Z</time>
      </trkpt>
      <trkpt lat="45.8961" lon="6.10416">
        <ele>499</ele>
        <time>2021-09-11T10:06:56.225Z</time>
      </trkpt>
      <trkpt lat="45.89609" lon="6.10413">
        <ele>499</ele>
        <time>2021-09-11T10:06:57.225Z</time>
      </trkpt>
      <trkpt lat="45.89608" lon="6.1041">
        <ele>499</ele>
        <time>2021-09-11T10:06:58.225Z</time>
      </trkpt>
      <trkpt lat="45.89607" lon="6.10408">
        <ele>498</ele>
        <time>2021-09-11T10:06:59.224Z</time>
      </trkpt>
      <trkpt lat="45.89606" lon="6.10404">
        <ele>498</ele>
        <time>2021-09-11T10:07:00.225Z</time>
      </trkpt>
      <trkpt lat="45.89604" lon="6.10402">
        <ele>498</ele>
        <time>2021-09-11T10:07:01.225Z</time>
      </trkpt>
      <trkpt lat="45.89603" lon="6.10399">
        <ele>498</ele>
        <time>2021-09-11T10:07:02.224Z</time>
      </trkpt>
      <trkpt lat="45.89602" lon="6.10397">
        <ele>498</ele>
        <time>2021-09-11T10:07:03.225Z</time>
      </trkpt>
      <trkpt lat="45.89601" lon="6.10395">
        <ele>498</ele>
        <time>2021-09-11T10:07:04.225Z</time>
      </trkpt>
      <trkpt lat="45.896" lon="6.10392">
        <ele>498</ele>
        <time>2021-09-11T10:07:05.225Z</time>
      </trkpt>
      <trkpt lat="45.89598" lon="6.1039">
        <ele>498</ele>
        <time>2021-09-11T10:07:06.225Z</time>
      </trkpt>
      <trkpt lat="45.89596" lon="6.10387">
        <ele>499</ele>
        <time>2021-09-11T10:07:07.225Z</time>
      </trkpt>
      <trkpt lat="45.89595" lon="6.10385">
        <ele>499</ele>
        <time>2021-09-11T10:07:08.225Z</time>
      </trkpt>
      <trkpt lat="45.89594" lon="6.10383">
        <ele>499</ele>
        <time>2021-09-11T10:07:09.224Z</time>
      </trkpt>
      <trkpt lat="45.89593" lon="6.1038">
        <ele>500</ele>
        <time>2021-09-11T10:07:10.224Z</time>
      </trkpt>
      <trkpt lat="45.89592" lon="6.10378">
        <ele>500</ele>
        <time>2021-09-11T10:07:11.225Z</time>
      </trkpt>
      <trkpt lat="45.89591" lon="6.10376">
        <ele>501</ele>
        <time>2021-09-11T10:07:12.225Z</time>
      </trkpt>
      <trkpt lat="45.89589" lon="6.10373">
        <ele>502</ele>
        <time>2021-09-11T10:07:13.224Z</time>
      </trkpt>
      <trkpt lat="45.89588" lon="6.1037">
        <ele>502</ele>
        <time>2021-09-11T10:07:14.225Z</time>
      </trkpt>
      <trkpt lat="45.89587" lon="6.10368">
        <ele>503</ele>
        <time>2021-09-11T10:07:15.225Z</time>
      </trkpt>
      <trkpt lat="45.89586" lon="6.10366">
        <ele>504</ele>
        <time>2021-09-11T10:07:16.224Z</time>
      </trkpt>
      <trkpt lat="45.89585" lon="6.10364">
        <ele>504</ele>
        <time>2021-09-11T10:07:17.224Z</time>
      </trkpt>
      <trkpt lat="45.89583" lon="6.10361">
        <ele>505</ele>
        <time>2021-09-11T10:07:18.225Z</time>
      </trkpt>
      <trkpt lat="45.89582" lon="6.10358">
        <ele>505</ele>
        <time>2021-09-11T10:07:19.225Z</time>
      </trkpt>
      <trkpt lat="45.89581" lon="6.10356">
        <ele>505</ele>
        <time>2021-09-11T10:07:20.225Z</time>
      </trkpt>
      <trkpt lat="45.8958" lon="6.10354">
        <ele>505</ele>
        <time>2021-09-11T10:07:21.225Z</time>
      </trkpt>
      <trkpt lat="45.89578" lon="6.10351">
        <ele>505</ele>
        <time>2021-09-11T10:07:22.224Z</time>
      </trkpt>
      <trkpt lat="45.89577" lon="6.10349">
        <ele>505</ele>
        <time>2021-09-11T10:07:23.224Z</time>
      </trkpt>
      <trkpt lat="45.89576" lon="6.10347">
        <ele>505</ele>
        <time>2021-09-11T10:07:24.224Z</time>
      </trkpt>
      <trkpt lat="45.89575" lon="6.10345">
        <ele>505</ele>
        <time>2021-09-11T10:07:25.225Z</time>
      </trkpt>
      <trkpt lat="45.89574" lon="6.10343">
        <ele>505</ele>
        <time>2021-09-11T10:07:26.225Z</time>
      </trkpt>
      <trkpt lat="45.89572" lon="6.10341">
        <ele>505</ele>
        <time>2021-09-11T10:07:27.224Z</time>
      </trkpt>
      <trkpt lat="45.89571" lon="6.10339">
        <ele>504</ele>
        <time>2021-09-11T10:07:28.224Z</time>
      </trkpt>
      <trkpt lat="45.89569" lon="6.10337">
        <ele>505</ele>
        <time>2021-09-11T10:07:29.224Z</time>
      </trkpt>
      <trkpt lat="45.89568" lon="6.10335">
        <ele>505</ele>
        <time>2021-09-11T10:07:30.225Z</time>
      </trkpt>
      <trkpt lat="45.89566" lon="6.10332">
        <ele>505</ele>
        <time>2021-09-11T10:07:31.224Z</time>
      </trkpt>
      <trkpt lat="45.89565" lon="6.1033">
        <ele>506</ele>
        <time>2021-09-11T10:07:32.225Z</time>
      </trkpt>
      <trkpt lat="45.89563" lon="6.10327">
        <ele>506</ele>
        <time>2021-09-11T10:07:33.224Z</time>
      </trkpt>
      <trkpt lat="45.89563" lon="6.10325">
        <ele>507</ele>
        <time>2021-09-11T10:07:34.224Z</time>
      </trkpt>
      <trkpt lat="45.89561" lon="6.10323">
        <ele>507</ele>
        <time>2021-09-11T10:07:35.225Z</time>
      </trkpt>
      <trkpt lat="45.8956" lon="6.10319">
        <ele>508</ele>
        <time>2021-09-11T10:07:36.225Z</time>
      </trkpt>
      <trkpt lat="45.89559" lon="6.10317">
        <ele>508</ele>
        <time>2021-09-11T10:07:37.224Z</time>
      </trkpt>
      <trkpt lat="45.89557" lon="6.10315">
        <ele>508</ele>
        <time>2021-09-11T10:07:38.224Z</time>
      </trkpt>
      <trkpt lat="45.89556" lon="6.10313">
        <ele>509</ele>
        <time>2021-09-11T10:07:39.224Z</time>
      </trkpt>
      <trkpt lat="45.89554" lon="6.1031">
        <ele>509</ele>
        <time>2021-09-11T10:07:40.225Z</time>
      </trkpt>
      <trkpt lat="45.89553" lon="6.10307">
        <ele>509</ele>
        <time>2021-09-11T10:07:41.225Z</time>
      </trkpt>
      <trkpt lat="45.89552" lon="6.10304">
        <ele>509</ele>
        <time>2021-09-11T10:07:42.224Z</time>
      </trkpt>
      <trkpt lat="45.89552" lon="6.10302">
        <ele>508</ele>
        <time>2021-09-11T10:07:43.224Z</time>
      </trkpt>
      <trkpt lat="45.89551" lon="6.103">
        <ele>508</ele>
        <time>2021-09-11T10:07:44.225Z</time>
      </trkpt>
      <trkpt lat="45.8955" lon="6.10298">
        <ele>508</ele>
        <time>2021-09-11T10:07:45.225Z</time>
      </trkpt>
      <trkpt lat="45.89549" lon="6.10295">
        <ele>507</ele>
        <time>2021-09-11T10:07:46.225Z</time>
      </trkpt>
      <trkpt lat="45.89548" lon="6.10293">
        <ele>507</ele>
        <time>2021-09-11T10:07:47.224Z</time>
      </trkpt>
      <trkpt lat="45.89547" lon="6.10291">
        <ele>506</ele>
        <time>2021-09-11T10:07:48.224Z</time>
      </trkpt>
      <trkpt lat="45.89545" lon="6.10288">
        <ele>506</ele>
        <time>2021-09-11T10:07:49.224Z</time>
      </trkpt>
      <trkpt lat="45.89544" lon="6.10286">
        <ele>506</ele>
        <time>2021-09-11T10:07:50.225Z</time>
      </trkpt>
      <trkpt lat="45.89543" lon="6.10283">
        <ele>506</ele>
        <time>2021-09-11T10:07:51.224Z</time>
      </trkpt>
      <trkpt lat="45.89542" lon="6.10281">
        <ele>506</ele>
        <time>2021-09-11T10:07:52.224Z</time>
      </trkpt>
      <trkpt lat="45.89541" lon="6.10278">
        <ele>507</ele>
        <time>2021-09-11T10:07:53.224Z</time>
      </trkpt>
      <trkpt lat="45.8954" lon="6.10275">
        <ele>507</ele>
        <time>2021-09-11T10:07:54.224Z</time>
      </trkpt>
      <trkpt lat="45.89538" lon="6.10273">
        <ele>507</ele>
        <time>2021-09-11T10:07:55.225Z</time>
      </trkpt>
      <trkpt lat="45.89537" lon="6.10271">
        <ele>507</ele>
        <time>2021-09-11T10:07:56.224Z</time>
      </trkpt>
      <trkpt lat="45.89536" lon="6.10269">
        <ele>508</ele>
        <time>2021-09-11T10:07:57.224Z</time>
      </trkpt>
      <trkpt lat="45.89534" lon="6.10266">
        <ele>508</ele>
        <time>2021-09-11T10:07:58.224Z</time>
      </trkpt>
      <trkpt lat="45.89533" lon="6.10263">
        <ele>508</ele>
        <time>2021-09-11T10:07:59.224Z</time>
      </trkpt>
      <trkpt lat="45.89532" lon="6.10261">
        <ele>508</ele>
        <time>2021-09-11T10:08:00.225Z</time>
      </trkpt>
      <trkpt lat="45.89531" lon="6.10258">
        <ele>508</ele>
        <time>2021-09-11T10:08:01.225Z</time>
      </trkpt>
      <trkpt lat="45.8953" lon="6.10256">
        <ele>508</ele>
        <time>2021-09-11T10:08:02.224Z</time>
      </trkpt>
      <trkpt lat="45.89528" lon="6.10253">
        <ele>509</ele>
        <time>2021-09-11T10:08:03.224Z</time>
      </trkpt>
      <trkpt lat="45.89527" lon="6.1025">
        <ele>509</ele>
        <time>2021-09-11T10:08:04.224Z</time>
      </trkpt>
      <trkpt lat="45.89526" lon="6.10248">
        <ele>509</ele>
        <time>2021-09-11T10:08:05.225Z</time>
      </trkpt>
      <trkpt lat="45.89525" lon="6.10245">
        <ele>510</ele>
        <time>2021-09-11T10:08:06.225Z</time>
      </trkpt>
      <trkpt lat="45.89523" lon="6.10242">
        <ele>510</ele>
        <time>2021-09-11T10:08:07.225Z</time>
      </trkpt>
      <trkpt lat="45.89522" lon="6.1024">
        <ele>510</ele>
        <time>2021-09-11T10:08:08.224Z</time>
      </trkpt>
      <trkpt lat="45.8952" lon="6.10237">
        <ele>510</ele>
        <time>2021-09-11T10:08:09.224Z</time>
      </trkpt>
      <trkpt lat="45.89519" lon="6.10235">
        <ele>510</ele>
        <time>2021-09-11T10:08:10.224Z</time>
      </trkpt>
      <trkpt lat="45.89518" lon="6.10231">
        <ele>511</ele>
        <time>2021-09-11T10:08:11.224Z</time>
      </trkpt>
      <trkpt lat="45.89517" lon="6.10229">
        <ele>511</ele>
        <time>2021-09-11T10:08:12.224Z</time>
      </trkpt>
      <trkpt lat="45.89515" lon="6.10227">
        <ele>512</ele>
        <time>2021-09-11T10:08:13.224Z</time>
      </trkpt>
      <trkpt lat="45.89514" lon="6.10226">
        <ele>512</ele>
        <time>2021-09-11T10:08:14.224Z</time>
      </trkpt>
      <trkpt lat="45.89512" lon="6.10223">
        <ele>512</ele>
        <time>2021-09-11T10:08:15.224Z</time>
      </trkpt>
      <trkpt lat="45.89511" lon="6.10222">
        <ele>512</ele>
        <time>2021-09-11T10:08:16.225Z</time>
      </trkpt>
      <trkpt lat="45.8951" lon="6.1022">
        <ele>512</ele>
        <time>2021-09-11T10:08:17.225Z</time>
      </trkpt>
      <trkpt lat="45.8951" lon="6.10219">
        <ele>512</ele>
        <time>2021-09-11T10:08:18.225Z</time>
      </trkpt>
      <trkpt lat="45.89511" lon="6.10218">
        <ele>513</ele>
        <time>2021-09-11T10:08:19.224Z</time>
      </trkpt>
      <trkpt lat="45.89512" lon="6.10218">
        <ele>513</ele>
        <time>2021-09-11T10:08:20.225Z</time>
      </trkpt>
      <trkpt lat="45.89513" lon="6.10219">
        <ele>513</ele>
        <time>2021-09-11T10:08:21.225Z</time>
      </trkpt>
      <trkpt lat="45.89513" lon="6.10221">
        <ele>513</ele>
        <time>2021-09-11T10:08:22.225Z</time>
      </trkpt>
      <trkpt lat="45.89514" lon="6.10222">
        <ele>514</ele>
        <time>2021-09-11T10:08:23.225Z</time>
      </trkpt>
      <trkpt lat="45.89514" lon="6.10223">
        <ele>514</ele>
        <time>2021-09-11T10:08:24.225Z</time>
      </trkpt>
      <trkpt lat="45.89514" lon="6.10225">
        <ele>513</ele>
        <time>2021-09-11T10:08:25.225Z</time>
      </trkpt>
      <trkpt lat="45.89515" lon="6.10226">
        <ele>514</ele>
        <time>2021-09-11T10:08:26.225Z</time>
      </trkpt>
      <trkpt lat="45.89516" lon="6.10227">
        <ele>514</ele>
        <time>2021-09-11T10:08:27.225Z</time>
      </trkpt>
      <trkpt lat="45.89517" lon="6.10227">
        <ele>514</ele>
        <time>2021-09-11T10:08:28.225Z</time>
      </trkpt>
      <trkpt lat="45.89518" lon="6.10228">
        <ele>514</ele>
        <time>2021-09-11T10:08:29.224Z</time>
      </trkpt>
      <trkpt lat="45.89518" lon="6.10227">
        <ele>514</ele>
        <time>2021-09-11T10:08:30.224Z</time>
      </trkpt>
      <trkpt lat="45.89518" lon="6.10227">
        <ele>514</ele>
        <time>2021-09-11T10:08:31.224Z</time>
      </trkpt>
      <trkpt lat="45.89519" lon="6.10227">
        <ele>514</ele>
        <time>2021-09-11T10:08:32.224Z</time>
      </trkpt>
      <trkpt lat="45.89519" lon="6.10226">
        <ele>514</ele>
        <time>2021-09-11T10:08:33.224Z</time>
      </trkpt>
      <trkpt lat="45.89519" lon="6.10226">
        <ele>515</ele>
        <time>2021-09-11T10:08:34.225Z</time>
      </trkpt>
      <trkpt lat="45.89518" lon="6.10226">
        <ele>515</ele>
        <time>2021-09-11T10:08:35.224Z</time>
      </trkpt>
      <trkpt lat="45.89515" lon="6.10218">
        <ele>522</ele>
        <time>2021-09-11T10:08:36.226Z</time>
      </trkpt>
      <trkpt lat="45.89514" lon="6.10215">
        <ele>522</ele>
        <time>2021-09-11T10:08:37.227Z</time>
      </trkpt>
      <trkpt lat="45.89513" lon="6.10211">
        <ele>522</ele>
        <time>2021-09-11T10:08:38.226Z</time>
      </trkpt>
      <trkpt lat="45.89512" lon="6.10208">
        <ele>522</ele>
        <time>2021-09-11T10:08:39.226Z</time>
      </trkpt>
      <trkpt lat="45.8951" lon="6.10203">
        <ele>521</ele>
        <time>2021-09-11T10:08:40.227Z</time>
      </trkpt>
      <trkpt lat="45.89509" lon="6.10199">
        <ele>521</ele>
        <time>2021-09-11T10:08:41.227Z</time>
      </trkpt>
      <trkpt lat="45.89508" lon="6.10196">
        <ele>521</ele>
        <time>2021-09-11T10:08:42.226Z</time>
      </trkpt>
      <trkpt lat="45.89507" lon="6.10192">
        <ele>520</ele>
        <time>2021-09-11T10:08:43.226Z</time>
      </trkpt>
      <trkpt lat="45.89507" lon="6.1019">
        <ele>520</ele>
        <time>2021-09-11T10:08:44.226Z</time>
      </trkpt>
      <trkpt lat="45.89506" lon="6.10187">
        <ele>520</ele>
        <time>2021-09-11T10:08:45.226Z</time>
      </trkpt>
      <trkpt lat="45.89505" lon="6.10182">
        <ele>520</ele>
        <time>2021-09-11T10:08:46.227Z</time>
      </trkpt>
      <trkpt lat="45.89505" lon="6.10179">
        <ele>520</ele>
        <time>2021-09-11T10:08:47.226Z</time>
      </trkpt>
      <trkpt lat="45.89504" lon="6.10176">
        <ele>520</ele>
        <time>2021-09-11T10:08:48.227Z</time>
      </trkpt>
      <trkpt lat="45.89504" lon="6.10172">
        <ele>520</ele>
        <time>2021-09-11T10:08:49.227Z</time>
      </trkpt>
      <trkpt lat="45.89503" lon="6.10168">
        <ele>520</ele>
        <time>2021-09-11T10:08:50.226Z</time>
      </trkpt>
      <trkpt lat="45.89503" lon="6.10166">
        <ele>520</ele>
        <time>2021-09-11T10:08:51.226Z</time>
      </trkpt>
      <trkpt lat="45.89502" lon="6.10163">
        <ele>520</ele>
        <time>2021-09-11T10:08:52.227Z</time>
      </trkpt>
      <trkpt lat="45.89501" lon="6.1016">
        <ele>520</ele>
        <time>2021-09-11T10:08:53.227Z</time>
      </trkpt>
      <trkpt lat="45.89501" lon="6.10157">
        <ele>520</ele>
        <time>2021-09-11T10:08:54.227Z</time>
      </trkpt>
      <trkpt lat="45.895" lon="6.10155">
        <ele>519</ele>
        <time>2021-09-11T10:08:55.227Z</time>
      </trkpt>
      <trkpt lat="45.895" lon="6.10154">
        <ele>519</ele>
        <time>2021-09-11T10:08:56.227Z</time>
      </trkpt>
      <trkpt lat="45.895" lon="6.10153">
        <ele>519</ele>
        <time>2021-09-11T10:08:57.226Z</time>
      </trkpt>
      <trkpt lat="45.89501" lon="6.10152">
        <ele>519</ele>
        <time>2021-09-11T10:08:58.226Z</time>
      </trkpt>
      <trkpt lat="45.895" lon="6.10152">
        <ele>519</ele>
        <time>2021-09-11T10:08:59.227Z</time>
      </trkpt>
      <trkpt lat="45.895" lon="6.10151">
        <ele>519</ele>
        <time>2021-09-11T10:09:00.227Z</time>
      </trkpt>
      <trkpt lat="45.895" lon="6.1015">
        <ele>518</ele>
        <time>2021-09-11T10:09:01.226Z</time>
      </trkpt>
      <trkpt lat="45.89499" lon="6.1015">
        <ele>518</ele>
        <time>2021-09-11T10:09:02.226Z</time>
      </trkpt>
      <trkpt lat="45.89499" lon="6.10149">
        <ele>518</ele>
        <time>2021-09-11T10:09:03.227Z</time>
      </trkpt>
      <trkpt lat="45.89498" lon="6.10149">
        <ele>518</ele>
        <time>2021-09-11T10:09:04.226Z</time>
      </trkpt>
      <trkpt lat="45.89493" lon="6.10149">
        <ele>516</ele>
        <time>2021-09-11T10:09:05.228Z</time>
      </trkpt>
      <trkpt lat="45.89491" lon="6.10149">
        <ele>516</ele>
        <time>2021-09-11T10:09:06.228Z</time>
      </trkpt>
      <trkpt lat="45.8949" lon="6.10149">
        <ele>516</ele>
        <time>2021-09-11T10:09:07.227Z</time>
      </trkpt>
      <trkpt lat="45.89488" lon="6.10149">
        <ele>516</ele>
        <time>2021-09-11T10:09:08.228Z</time>
      </trkpt>
      <trkpt lat="45.89488" lon="6.10149">
        <ele>516</ele>
        <time>2021-09-11T10:09:09.228Z</time>
      </trkpt>
      <trkpt lat="45.89487" lon="6.10148">
        <ele>516</ele>
        <time>2021-09-11T10:09:10.228Z</time>
      </trkpt>
      <trkpt lat="45.89486" lon="6.10148">
        <ele>516</ele>
        <time>2021-09-11T10:09:11.228Z</time>
      </trkpt>
      <trkpt lat="45.89486" lon="6.10146">
        <ele>516</ele>
        <time>2021-09-11T10:09:12.228Z</time>
      </trkpt>
      <trkpt lat="45.89486" lon="6.10143">
        <ele>516</ele>
        <time>2021-09-11T10:09:13.228Z</time>
      </trkpt>
      <trkpt lat="45.89485" lon="6.1014">
        <ele>516</ele>
        <time>2021-09-11T10:09:14.228Z</time>
      </trkpt>
      <trkpt lat="45.89485" lon="6.10137">
        <ele>517</ele>
        <time>2021-09-11T10:09:15.228Z</time>
      </trkpt>
      <trkpt lat="45.89484" lon="6.10133">
        <ele>517</ele>
        <time>2021-09-11T10:09:16.228Z</time>
      </trkpt>
      <trkpt lat="45.89482" lon="6.1013">
        <ele>517</ele>
        <time>2021-09-11T10:09:17.228Z</time>
      </trkpt>
      <trkpt lat="45.8948" lon="6.10125">
        <ele>518</ele>
        <time>2021-09-11T10:09:18.228Z</time>
      </trkpt>
      <trkpt lat="45.89478" lon="6.10121">
        <ele>518</ele>
        <time>2021-09-11T10:09:19.228Z</time>
      </trkpt>
      <trkpt lat="45.89478" lon="6.10117">
        <ele>518</ele>
        <time>2021-09-11T10:09:20.228Z</time>
      </trkpt>
      <trkpt lat="45.89477" lon="6.10112">
        <ele>518</ele>
        <time>2021-09-11T10:09:21.228Z</time>
      </trkpt>
      <trkpt lat="45.89476" lon="6.10107">
        <ele>518</ele>
        <time>2021-09-11T10:09:22.228Z</time>
      </trkpt>
      <trkpt lat="45.89476" lon="6.10103">
        <ele>518</ele>
        <time>2021-09-11T10:09:23.228Z</time>
      </trkpt>
      <trkpt lat="45.89476" lon="6.10098">
        <ele>519</ele>
        <time>2021-09-11T10:09:24.228Z</time>
      </trkpt>
      <trkpt lat="45.89476" lon="6.10093">
        <ele>519</ele>
        <time>2021-09-11T10:09:25.228Z</time>
      </trkpt>
      <trkpt lat="45.89476" lon="6.10088">
        <ele>520</ele>
        <time>2021-09-11T10:09:26.228Z</time>
      </trkpt>
      <trkpt lat="45.89476" lon="6.10083">
        <ele>520</ele>
        <time>2021-09-11T10:09:27.227Z</time>
      </trkpt>
      <trkpt lat="45.89477" lon="6.10076">
        <ele>521</ele>
        <time>2021-09-11T10:09:28.228Z</time>
      </trkpt>
      <trkpt lat="45.89477" lon="6.10072">
        <ele>521</ele>
        <time>2021-09-11T10:09:29.228Z</time>
      </trkpt>
      <trkpt lat="45.89478" lon="6.10067">
        <ele>521</ele>
        <time>2021-09-11T10:09:30.228Z</time>
      </trkpt>
      <trkpt lat="45.89478" lon="6.10061">
        <ele>522</ele>
        <time>2021-09-11T10:09:31.228Z</time>
      </trkpt>
      <trkpt lat="45.89479" lon="6.10056">
        <ele>522</ele>
        <time>2021-09-11T10:09:32.228Z</time>
      </trkpt>
      <trkpt lat="45.89479" lon="6.10051">
        <ele>522</ele>
        <time>2021-09-11T10:09:33.228Z</time>
      </trkpt>
      <trkpt lat="45.8948" lon="6.10045">
        <ele>522</ele>
        <time>2021-09-11T10:09:34.228Z</time>
      </trkpt>
      <trkpt lat="45.8948" lon="6.1004">
        <ele>522</ele>
        <time>2021-09-11T10:09:35.228Z</time>
      </trkpt>
      <trkpt lat="45.89481" lon="6.10034">
        <ele>521</ele>
        <time>2021-09-11T10:09:36.228Z</time>
      </trkpt>
      <trkpt lat="45.89481" lon="6.10029">
        <ele>521</ele>
        <time>2021-09-11T10:09:37.228Z</time>
      </trkpt>
      <trkpt lat="45.89481" lon="6.10025">
        <ele>521</ele>
        <time>2021-09-11T10:09:38.228Z</time>
      </trkpt>
      <trkpt lat="45.89482" lon="6.10019">
        <ele>520</ele>
        <time>2021-09-11T10:09:39.228Z</time>
      </trkpt>
      <trkpt lat="45.89482" lon="6.10014">
        <ele>520</ele>
        <time>2021-09-11T10:09:40.228Z</time>
      </trkpt>
      <trkpt lat="45.89483" lon="6.10008">
        <ele>519</ele>
        <time>2021-09-11T10:09:41.228Z</time>
      </trkpt>
      <trkpt lat="45.89484" lon="6.10003">
        <ele>519</ele>
        <time>2021-09-11T10:09:42.228Z</time>
      </trkpt>
      <trkpt lat="45.89484" lon="6.09997">
        <ele>519</ele>
        <time>2021-09-11T10:09:43.228Z</time>
      </trkpt>
      <trkpt lat="45.89484" lon="6.09991">
        <ele>519</ele>
        <time>2021-09-11T10:09:44.228Z</time>
      </trkpt>
      <trkpt lat="45.89484" lon="6.09985">
        <ele>519</ele>
        <time>2021-09-11T10:09:45.228Z</time>
      </trkpt>
      <trkpt lat="45.89485" lon="6.09979">
        <ele>520</ele>
        <time>2021-09-11T10:09:46.228Z</time>
      </trkpt>
      <trkpt lat="45.89485" lon="6.09973">
        <ele>520</ele>
        <time>2021-09-11T10:09:47.228Z</time>
      </trkpt>
      <trkpt lat="45.89486" lon="6.09967">
        <ele>520</ele>
        <time>2021-09-11T10:09:48.228Z</time>
      </trkpt>
      <trkpt lat="45.89487" lon="6.09961">
        <ele>520</ele>
        <time>2021-09-11T10:09:49.228Z</time>
      </trkpt>
      <trkpt lat="45.89488" lon="6.09956">
        <ele>520</ele>
        <time>2021-09-11T10:09:50.227Z</time>
      </trkpt>
      <trkpt lat="45.89489" lon="6.0995">
        <ele>520</ele>
        <time>2021-09-11T10:09:51.228Z</time>
      </trkpt>
      <trkpt lat="45.8949" lon="6.09944">
        <ele>519</ele>
        <time>2021-09-11T10:09:52.227Z</time>
      </trkpt>
      <trkpt lat="45.89491" lon="6.09938">
        <ele>519</ele>
        <time>2021-09-11T10:09:53.227Z</time>
      </trkpt>
      <trkpt lat="45.89493" lon="6.0993">
        <ele>519</ele>
        <time>2021-09-11T10:09:54.228Z</time>
      </trkpt>
      <trkpt lat="45.89494" lon="6.09924">
        <ele>518</ele>
        <time>2021-09-11T10:09:55.227Z</time>
      </trkpt>
      <trkpt lat="45.89496" lon="6.09919">
        <ele>518</ele>
        <time>2021-09-11T10:09:56.228Z</time>
      </trkpt>
      <trkpt lat="45.89498" lon="6.09913">
        <ele>518</ele>
        <time>2021-09-11T10:09:57.228Z</time>
      </trkpt>
      <trkpt lat="45.895" lon="6.09907">
        <ele>518</ele>
        <time>2021-09-11T10:09:58.228Z</time>
      </trkpt>
      <trkpt lat="45.89502" lon="6.09901">
        <ele>517</ele>
        <time>2021-09-11T10:09:59.228Z</time>
      </trkpt>
      <trkpt lat="45.89504" lon="6.09895">
        <ele>517</ele>
        <time>2021-09-11T10:10:00.228Z</time>
      </trkpt>
      <trkpt lat="45.89507" lon="6.09889">
        <ele>517</ele>
        <time>2021-09-11T10:10:01.228Z</time>
      </trkpt>
      <trkpt lat="45.89509" lon="6.09883">
        <ele>517</ele>
        <time>2021-09-11T10:10:02.228Z</time>
      </trkpt>
      <trkpt lat="45.89512" lon="6.09877">
        <ele>517</ele>
        <time>2021-09-11T10:10:03.228Z</time>
      </trkpt>
      <trkpt lat="45.89514" lon="6.09871">
        <ele>517</ele>
        <time>2021-09-11T10:10:04.228Z</time>
      </trkpt>
      <trkpt lat="45.89517" lon="6.09866">
        <ele>517</ele>
        <time>2021-09-11T10:10:05.228Z</time>
      </trkpt>
      <trkpt lat="45.8952" lon="6.0986">
        <ele>517</ele>
        <time>2021-09-11T10:10:06.228Z</time>
      </trkpt>
      <trkpt lat="45.89523" lon="6.09854">
        <ele>517</ele>
        <time>2021-09-11T10:10:07.228Z</time>
      </trkpt>
      <trkpt lat="45.89525" lon="6.09849">
        <ele>517</ele>
        <time>2021-09-11T10:10:08.228Z</time>
      </trkpt>
      <trkpt lat="45.89528" lon="6.09843">
        <ele>517</ele>
        <time>2021-09-11T10:10:09.228Z</time>
      </trkpt>
      <trkpt lat="45.89531" lon="6.09838">
        <ele>516</ele>
        <time>2021-09-11T10:10:10.228Z</time>
      </trkpt>
      <trkpt lat="45.89534" lon="6.09833">
        <ele>516</ele>
        <time>2021-09-11T10:10:11.228Z</time>
      </trkpt>
      <trkpt lat="45.89537" lon="6.09828">
        <ele>516</ele>
        <time>2021-09-11T10:10:12.227Z</time>
      </trkpt>
      <trkpt lat="45.8954" lon="6.09822">
        <ele>516</ele>
        <time>2021-09-11T10:10:13.228Z</time>
      </trkpt>
      <trkpt lat="45.89543" lon="6.09816">
        <ele>516</ele>
        <time>2021-09-11T10:10:14.228Z</time>
      </trkpt>
      <trkpt lat="45.89546" lon="6.0981">
        <ele>515</ele>
        <time>2021-09-11T10:10:15.228Z</time>
      </trkpt>
      <trkpt lat="45.89549" lon="6.09804">
        <ele>515</ele>
        <time>2021-09-11T10:10:16.227Z</time>
      </trkpt>
      <trkpt lat="45.89552" lon="6.09799">
        <ele>515</ele>
        <time>2021-09-11T10:10:17.228Z</time>
      </trkpt>
      <trkpt lat="45.89556" lon="6.09793">
        <ele>515</ele>
        <time>2021-09-11T10:10:18.227Z</time>
      </trkpt>
      <trkpt lat="45.89559" lon="6.09787">
        <ele>515</ele>
        <time>2021-09-11T10:10:19.227Z</time>
      </trkpt>
      <trkpt lat="45.89562" lon="6.09781">
        <ele>515</ele>
        <time>2021-09-11T10:10:20.228Z</time>
      </trkpt>
      <trkpt lat="45.89565" lon="6.09775">
        <ele>515</ele>
        <time>2021-09-11T10:10:21.228Z</time>
      </trkpt>
      <trkpt lat="45.89568" lon="6.09769">
        <ele>515</ele>
        <time>2021-09-11T10:10:22.228Z</time>
      </trkpt>
      <trkpt lat="45.89571" lon="6.09763">
        <ele>515</ele>
        <time>2021-09-11T10:10:23.227Z</time>
      </trkpt>
      <trkpt lat="45.89575" lon="6.09757">
        <ele>515</ele>
        <time>2021-09-11T10:10:24.227Z</time>
      </trkpt>
      <trkpt lat="45.89578" lon="6.09752">
        <ele>515</ele>
        <time>2021-09-11T10:10:25.228Z</time>
      </trkpt>
      <trkpt lat="45.89581" lon="6.09746">
        <ele>515</ele>
        <time>2021-09-11T10:10:26.227Z</time>
      </trkpt>
      <trkpt lat="45.89584" lon="6.0974">
        <ele>514</ele>
        <time>2021-09-11T10:10:27.228Z</time>
      </trkpt>
      <trkpt lat="45.89586" lon="6.09734">
        <ele>514</ele>
        <time>2021-09-11T10:10:28.228Z</time>
      </trkpt>
      <trkpt lat="45.89589" lon="6.09728">
        <ele>514</ele>
        <time>2021-09-11T10:10:29.228Z</time>
      </trkpt>
      <trkpt lat="45.89591" lon="6.09722">
        <ele>514</ele>
        <time>2021-09-11T10:10:30.228Z</time>
      </trkpt>
      <trkpt lat="45.89593" lon="6.09716">
        <ele>514</ele>
        <time>2021-09-11T10:10:31.228Z</time>
      </trkpt>
      <trkpt lat="45.89595" lon="6.09712">
        <ele>514</ele>
        <time>2021-09-11T10:10:32.228Z</time>
      </trkpt>
      <trkpt lat="45.89596" lon="6.09708">
        <ele>514</ele>
        <time>2021-09-11T10:10:33.228Z</time>
      </trkpt>
      <trkpt lat="45.89598" lon="6.09704">
        <ele>513</ele>
        <time>2021-09-11T10:10:34.228Z</time>
      </trkpt>
      <trkpt lat="45.89599" lon="6.09701">
        <ele>513</ele>
        <time>2021-09-11T10:10:35.228Z</time>
      </trkpt>
      <trkpt lat="45.89601" lon="6.09696">
        <ele>513</ele>
        <time>2021-09-11T10:10:36.228Z</time>
      </trkpt>
      <trkpt lat="45.89602" lon="6.09692">
        <ele>514</ele>
        <time>2021-09-11T10:10:37.227Z</time>
      </trkpt>
      <trkpt lat="45.89603" lon="6.09687">
        <ele>513</ele>
        <time>2021-09-11T10:10:38.228Z</time>
      </trkpt>
      <trkpt lat="45.89605" lon="6.09681">
        <ele>513</ele>
        <time>2021-09-11T10:10:39.227Z</time>
      </trkpt>
      <trkpt lat="45.89606" lon="6.09673">
        <ele>512</ele>
        <time>2021-09-11T10:10:40.228Z</time>
      </trkpt>
      <trkpt lat="45.89607" lon="6.09669">
        <ele>512</ele>
        <time>2021-09-11T10:10:41.228Z</time>
      </trkpt>
      <trkpt lat="45.89608" lon="6.09663">
        <ele>512</ele>
        <time>2021-09-11T10:10:42.227Z</time>
      </trkpt>
      <trkpt lat="45.89609" lon="6.09656">
        <ele>513</ele>
        <time>2021-09-11T10:10:43.227Z</time>
      </trkpt>
      <trkpt lat="45.8961" lon="6.09651">
        <ele>513</ele>
        <time>2021-09-11T10:10:44.228Z</time>
      </trkpt>
      <trkpt lat="45.89611" lon="6.09644">
        <ele>513</ele>
        <time>2021-09-11T10:10:45.228Z</time>
      </trkpt>
      <trkpt lat="45.89612" lon="6.09637">
        <ele>513</ele>
        <time>2021-09-11T10:10:46.228Z</time>
      </trkpt>
      <trkpt lat="45.89613" lon="6.0963">
        <ele>513</ele>
        <time>2021-09-11T10:10:47.228Z</time>
      </trkpt>
      <trkpt lat="45.89613" lon="6.09624">
        <ele>513</ele>
        <time>2021-09-11T10:10:48.228Z</time>
      </trkpt>
      <trkpt lat="45.89614" lon="6.09617">
        <ele>513</ele>
        <time>2021-09-11T10:10:49.228Z</time>
      </trkpt>
      <trkpt lat="45.89614" lon="6.0961">
        <ele>513</ele>
        <time>2021-09-11T10:10:50.228Z</time>
      </trkpt>
      <trkpt lat="45.89613" lon="6.09603">
        <ele>513</ele>
        <time>2021-09-11T10:10:51.227Z</time>
      </trkpt>
      <trkpt lat="45.89613" lon="6.09597">
        <ele>513</ele>
        <time>2021-09-11T10:10:52.228Z</time>
      </trkpt>
      <trkpt lat="45.89613" lon="6.0959">
        <ele>513</ele>
        <time>2021-09-11T10:10:53.228Z</time>
      </trkpt>
      <trkpt lat="45.89613" lon="6.09584">
        <ele>514</ele>
        <time>2021-09-11T10:10:54.228Z</time>
      </trkpt>
      <trkpt lat="45.89612" lon="6.09577">
        <ele>514</ele>
        <time>2021-09-11T10:10:55.228Z</time>
      </trkpt>
      <trkpt lat="45.89612" lon="6.09571">
        <ele>514</ele>
        <time>2021-09-11T10:10:56.228Z</time>
      </trkpt>
      <trkpt lat="45.89611" lon="6.09564">
        <ele>514</ele>
        <time>2021-09-11T10:10:57.228Z</time>
      </trkpt>
      <trkpt lat="45.8961" lon="6.09558">
        <ele>514</ele>
        <time>2021-09-11T10:10:58.227Z</time>
      </trkpt>
      <trkpt lat="45.89609" lon="6.09552">
        <ele>514</ele>
        <time>2021-09-11T10:10:59.227Z</time>
      </trkpt>
      <trkpt lat="45.89608" lon="6.09546">
        <ele>514</ele>
        <time>2021-09-11T10:11:00.228Z</time>
      </trkpt>
      <trkpt lat="45.89607" lon="6.0954">
        <ele>514</ele>
        <time>2021-09-11T10:11:01.228Z</time>
      </trkpt>
      <trkpt lat="45.89606" lon="6.09535">
        <ele>514</ele>
        <time>2021-09-11T10:11:02.228Z</time>
      </trkpt>
      <trkpt lat="45.89605" lon="6.09529">
        <ele>514</ele>
        <time>2021-09-11T10:11:03.228Z</time>
      </trkpt>
      <trkpt lat="45.89604" lon="6.09523">
        <ele>514</ele>
        <time>2021-09-11T10:11:04.228Z</time>
      </trkpt>
      <trkpt lat="45.89603" lon="6.09517">
        <ele>515</ele>
        <time>2021-09-11T10:11:05.228Z</time>
      </trkpt>
      <trkpt lat="45.89602" lon="6.0951">
        <ele>515</ele>
        <time>2021-09-11T10:11:06.227Z</time>
      </trkpt>
      <trkpt lat="45.89601" lon="6.09504">
        <ele>515</ele>
        <time>2021-09-11T10:11:07.228Z</time>
      </trkpt>
      <trkpt lat="45.896" lon="6.09497">
        <ele>515</ele>
        <time>2021-09-11T10:11:08.227Z</time>
      </trkpt>
      <trkpt lat="45.89599" lon="6.0949">
        <ele>515</ele>
        <time>2021-09-11T10:11:09.228Z</time>
      </trkpt>
      <trkpt lat="45.89598" lon="6.09484">
        <ele>515</ele>
        <time>2021-09-11T10:11:10.228Z</time>
      </trkpt>
      <trkpt lat="45.89597" lon="6.09477">
        <ele>515</ele>
        <time>2021-09-11T10:11:11.227Z</time>
      </trkpt>
      <trkpt lat="45.89596" lon="6.09471">
        <ele>516</ele>
        <time>2021-09-11T10:11:12.228Z</time>
      </trkpt>
      <trkpt lat="45.89595" lon="6.09465">
        <ele>516</ele>
        <time>2021-09-11T10:11:13.228Z</time>
      </trkpt>
      <trkpt lat="45.89594" lon="6.09458">
        <ele>516</ele>
        <time>2021-09-11T10:11:14.227Z</time>
      </trkpt>
      <trkpt lat="45.89593" lon="6.09452">
        <ele>516</ele>
        <time>2021-09-11T10:11:15.228Z</time>
      </trkpt>
      <trkpt lat="45.89592" lon="6.09445">
        <ele>516</ele>
        <time>2021-09-11T10:11:16.227Z</time>
      </trkpt>
      <trkpt lat="45.89591" lon="6.09439">
        <ele>515</ele>
        <time>2021-09-11T10:11:17.227Z</time>
      </trkpt>
      <trkpt lat="45.89591" lon="6.09432">
        <ele>514</ele>
        <time>2021-09-11T10:11:18.227Z</time>
      </trkpt>
      <trkpt lat="45.8959" lon="6.09425">
        <ele>514</ele>
        <time>2021-09-11T10:11:19.228Z</time>
      </trkpt>
      <trkpt lat="45.8959" lon="6.09418">
        <ele>513</ele>
        <time>2021-09-11T10:11:20.228Z</time>
      </trkpt>
      <trkpt lat="45.89589" lon="6.09411">
        <ele>513</ele>
        <time>2021-09-11T10:11:21.228Z</time>
      </trkpt>
      <trkpt lat="45.89589" lon="6.09404">
        <ele>513</ele>
        <time>2021-09-11T10:11:22.228Z</time>
      </trkpt>
      <trkpt lat="45.89588" lon="6.09397">
        <ele>513</ele>
        <time>2021-09-11T10:11:23.227Z</time>
      </trkpt>
      <trkpt lat="45.89588" lon="6.0939">
        <ele>513</ele>
        <time>2021-09-11T10:11:24.228Z</time>
      </trkpt>
      <trkpt lat="45.89587" lon="6.09382">
        <ele>513</ele>
        <time>2021-09-11T10:11:25.227Z</time>
      </trkpt>
      <trkpt lat="45.89586" lon="6.09375">
        <ele>513</ele>
        <time>2021-09-11T10:11:26.228Z</time>
      </trkpt>
      <trkpt lat="45.89586" lon="6.09367">
        <ele>513</ele>
        <time>2021-09-11T10:11:27.228Z</time>
      </trkpt>
      <trkpt lat="45.89585" lon="6.0936">
        <ele>513</ele>
        <time>2021-09-11T10:11:28.228Z</time>
      </trkpt>
      <trkpt lat="45.89584" lon="6.09352">
        <ele>513</ele>
        <time>2021-09-11T10:11:29.228Z</time>
      </trkpt>
      <trkpt lat="45.89583" lon="6.09345">
        <ele>513</ele>
        <time>2021-09-11T10:11:30.227Z</time>
      </trkpt>
      <trkpt lat="45.89582" lon="6.09337">
        <ele>513</ele>
        <time>2021-09-11T10:11:31.227Z</time>
      </trkpt>
      <trkpt lat="45.89581" lon="6.09329">
        <ele>513</ele>
        <time>2021-09-11T10:11:32.228Z</time>
      </trkpt>
      <trkpt lat="45.89581" lon="6.09321">
        <ele>513</ele>
        <time>2021-09-11T10:11:33.228Z</time>
      </trkpt>
      <trkpt lat="45.8958" lon="6.09314">
        <ele>513</ele>
        <time>2021-09-11T10:11:34.228Z</time>
      </trkpt>
      <trkpt lat="45.89578" lon="6.09306">
        <ele>513</ele>
        <time>2021-09-11T10:11:35.228Z</time>
      </trkpt>
      <trkpt lat="45.89577" lon="6.09298">
        <ele>513</ele>
        <time>2021-09-11T10:11:36.228Z</time>
      </trkpt>
      <trkpt lat="45.89576" lon="6.0929">
        <ele>513</ele>
        <time>2021-09-11T10:11:37.228Z</time>
      </trkpt>
      <trkpt lat="45.89576" lon="6.09282">
        <ele>512</ele>
        <time>2021-09-11T10:11:38.228Z</time>
      </trkpt>
      <trkpt lat="45.89575" lon="6.09274">
        <ele>512</ele>
        <time>2021-09-11T10:11:39.228Z</time>
      </trkpt>
      <trkpt lat="45.89574" lon="6.09265">
        <ele>512</ele>
        <time>2021-09-11T10:11:40.227Z</time>
      </trkpt>
      <trkpt lat="45.89573" lon="6.09257">
        <ele>512</ele>
        <time>2021-09-11T10:11:41.227Z</time>
      </trkpt>
      <trkpt lat="45.89572" lon="6.09248">
        <ele>512</ele>
        <time>2021-09-11T10:11:42.228Z</time>
      </trkpt>
      <trkpt lat="45.8957" lon="6.09238">
        <ele>512</ele>
        <time>2021-09-11T10:11:43.228Z</time>
      </trkpt>
      <trkpt lat="45.8957" lon="6.09231">
        <ele>512</ele>
        <time>2021-09-11T10:11:44.227Z</time>
      </trkpt>
      <trkpt lat="45.89569" lon="6.09223">
        <ele>512</ele>
        <time>2021-09-11T10:11:45.228Z</time>
      </trkpt>
      <trkpt lat="45.89568" lon="6.09215">
        <ele>512</ele>
        <time>2021-09-11T10:11:46.228Z</time>
      </trkpt>
      <trkpt lat="45.89568" lon="6.09208">
        <ele>511</ele>
        <time>2021-09-11T10:11:47.228Z</time>
      </trkpt>
      <trkpt lat="45.89568" lon="6.092">
        <ele>511</ele>
        <time>2021-09-11T10:11:48.228Z</time>
      </trkpt>
      <trkpt lat="45.89569" lon="6.09193">
        <ele>511</ele>
        <time>2021-09-11T10:11:49.228Z</time>
      </trkpt>
      <trkpt lat="45.8957" lon="6.09186">
        <ele>511</ele>
        <time>2021-09-11T10:11:50.228Z</time>
      </trkpt>
      <trkpt lat="45.89573" lon="6.0918">
        <ele>511</ele>
        <time>2021-09-11T10:11:51.228Z</time>
      </trkpt>
      <trkpt lat="45.89576" lon="6.09174">
        <ele>511</ele>
        <time>2021-09-11T10:11:52.227Z</time>
      </trkpt>
      <trkpt lat="45.89579" lon="6.09168">
        <ele>510</ele>
        <time>2021-09-11T10:11:53.227Z</time>
      </trkpt>
      <trkpt lat="45.89582" lon="6.09161">
        <ele>510</ele>
        <time>2021-09-11T10:11:54.228Z</time>
      </trkpt>
      <trkpt lat="45.89584" lon="6.09155">
        <ele>510</ele>
        <time>2021-09-11T10:11:55.227Z</time>
      </trkpt>
      <trkpt lat="45.89584" lon="6.09149">
        <ele>510</ele>
        <time>2021-09-11T10:11:56.228Z</time>
      </trkpt>
      <trkpt lat="45.89584" lon="6.09142">
        <ele>510</ele>
        <time>2021-09-11T10:11:57.228Z</time>
      </trkpt>
      <trkpt lat="45.89583" lon="6.09136">
        <ele>509</ele>
        <time>2021-09-11T10:11:58.227Z</time>
      </trkpt>
      <trkpt lat="45.8958" lon="6.09131">
        <ele>509</ele>
        <time>2021-09-11T10:11:59.228Z</time>
      </trkpt>
      <trkpt lat="45.89576" lon="6.09126">
        <ele>509</ele>
        <time>2021-09-11T10:12:00.227Z</time>
      </trkpt>
      <trkpt lat="45.89571" lon="6.09122">
        <ele>508</ele>
        <time>2021-09-11T10:12:01.228Z</time>
      </trkpt>
      <trkpt lat="45.89566" lon="6.09117">
        <ele>508</ele>
        <time>2021-09-11T10:12:02.228Z</time>
      </trkpt>
      <trkpt lat="45.89562" lon="6.09111">
        <ele>507</ele>
        <time>2021-09-11T10:12:03.227Z</time>
      </trkpt>
      <trkpt lat="45.89558" lon="6.09104">
        <ele>507</ele>
        <time>2021-09-11T10:12:04.227Z</time>
      </trkpt>
      <trkpt lat="45.89555" lon="6.09097">
        <ele>507</ele>
        <time>2021-09-11T10:12:05.227Z</time>
      </trkpt>
      <trkpt lat="45.89552" lon="6.09089">
        <ele>507</ele>
        <time>2021-09-11T10:12:06.228Z</time>
      </trkpt>
      <trkpt lat="45.89551" lon="6.09081">
        <ele>506</ele>
        <time>2021-09-11T10:12:07.228Z</time>
      </trkpt>
      <trkpt lat="45.89549" lon="6.09071">
        <ele>505</ele>
        <time>2021-09-11T10:12:08.227Z</time>
      </trkpt>
      <trkpt lat="45.89548" lon="6.09062">
        <ele>505</ele>
        <time>2021-09-11T10:12:09.228Z</time>
      </trkpt>
      <trkpt lat="45.89547" lon="6.09053">
        <ele>504</ele>
        <time>2021-09-11T10:12:10.228Z</time>
      </trkpt>
      <trkpt lat="45.89546" lon="6.09044">
        <ele>504</ele>
        <time>2021-09-11T10:12:11.227Z</time>
      </trkpt>
      <trkpt lat="45.89545" lon="6.09035">
        <ele>504</ele>
        <time>2021-09-11T10:12:12.228Z</time>
      </trkpt>
      <trkpt lat="45.89544" lon="6.09026">
        <ele>504</ele>
        <time>2021-09-11T10:12:13.228Z</time>
      </trkpt>
      <trkpt lat="45.89543" lon="6.09016">
        <ele>505</ele>
        <time>2021-09-11T10:12:14.227Z</time>
      </trkpt>
      <trkpt lat="45.89542" lon="6.09007">
        <ele>505</ele>
        <time>2021-09-11T10:12:15.227Z</time>
      </trkpt>
      <trkpt lat="45.8954" lon="6.08998">
        <ele>505</ele>
        <time>2021-09-11T10:12:16.228Z</time>
      </trkpt>
      <trkpt lat="45.89539" lon="6.08988">
        <ele>506</ele>
        <time>2021-09-11T10:12:17.228Z</time>
      </trkpt>
      <trkpt lat="45.89538" lon="6.08979">
        <ele>506</ele>
        <time>2021-09-11T10:12:18.228Z</time>
      </trkpt>
      <trkpt lat="45.89537" lon="6.0897">
        <ele>506</ele>
        <time>2021-09-11T10:12:19.228Z</time>
      </trkpt>
      <trkpt lat="45.89536" lon="6.0896">
        <ele>505</ele>
        <time>2021-09-11T10:12:20.227Z</time>
      </trkpt>
      <trkpt lat="45.89535" lon="6.08951">
        <ele>505</ele>
        <time>2021-09-11T10:12:21.228Z</time>
      </trkpt>
      <trkpt lat="45.89534" lon="6.08942">
        <ele>505</ele>
        <time>2021-09-11T10:12:22.228Z</time>
      </trkpt>
      <trkpt lat="45.89532" lon="6.08933">
        <ele>505</ele>
        <time>2021-09-11T10:12:23.228Z</time>
      </trkpt>
      <trkpt lat="45.89531" lon="6.08922">
        <ele>505</ele>
        <time>2021-09-11T10:12:24.228Z</time>
      </trkpt>
      <trkpt lat="45.8953" lon="6.08916">
        <ele>506</ele>
        <time>2021-09-11T10:12:25.228Z</time>
      </trkpt>
      <trkpt lat="45.89529" lon="6.08908">
        <ele>506</ele>
        <time>2021-09-11T10:12:26.227Z</time>
      </trkpt>
      <trkpt lat="45.89528" lon="6.08901">
        <ele>506</ele>
        <time>2021-09-11T10:12:27.228Z</time>
      </trkpt>
      <trkpt lat="45.89527" lon="6.08894">
        <ele>506</ele>
        <time>2021-09-11T10:12:28.228Z</time>
      </trkpt>
      <trkpt lat="45.89525" lon="6.08887">
        <ele>506</ele>
        <time>2021-09-11T10:12:29.228Z</time>
      </trkpt>
      <trkpt lat="45.89524" lon="6.0888">
        <ele>506</ele>
        <time>2021-09-11T10:12:30.228Z</time>
      </trkpt>
      <trkpt lat="45.89523" lon="6.08873">
        <ele>507</ele>
        <time>2021-09-11T10:12:31.227Z</time>
      </trkpt>
      <trkpt lat="45.89521" lon="6.08866">
        <ele>507</ele>
        <time>2021-09-11T10:12:32.228Z</time>
      </trkpt>
      <trkpt lat="45.8952" lon="6.08859">
        <ele>507</ele>
        <time>2021-09-11T10:12:33.228Z</time>
      </trkpt>
      <trkpt lat="45.8952" lon="6.08852">
        <ele>507</ele>
        <time>2021-09-11T10:12:34.227Z</time>
      </trkpt>
      <trkpt lat="45.8952" lon="6.08846">
        <ele>507</ele>
        <time>2021-09-11T10:12:35.227Z</time>
      </trkpt>
      <trkpt lat="45.8952" lon="6.08839">
        <ele>507</ele>
        <time>2021-09-11T10:12:36.227Z</time>
      </trkpt>
      <trkpt lat="45.89521" lon="6.08832">
        <ele>506</ele>
        <time>2021-09-11T10:12:37.228Z</time>
      </trkpt>
      <trkpt lat="45.89522" lon="6.08825">
        <ele>505</ele>
        <time>2021-09-11T10:12:38.227Z</time>
      </trkpt>
      <trkpt lat="45.89523" lon="6.08817">
        <ele>505</ele>
        <time>2021-09-11T10:12:39.228Z</time>
      </trkpt>
      <trkpt lat="45.89524" lon="6.0881">
        <ele>504</ele>
        <time>2021-09-11T10:12:40.227Z</time>
      </trkpt>
      <trkpt lat="45.89526" lon="6.08803">
        <ele>504</ele>
        <time>2021-09-11T10:12:41.228Z</time>
      </trkpt>
      <trkpt lat="45.89528" lon="6.08796">
        <ele>503</ele>
        <time>2021-09-11T10:12:42.228Z</time>
      </trkpt>
      <trkpt lat="45.89529" lon="6.08789">
        <ele>503</ele>
        <time>2021-09-11T10:12:43.227Z</time>
      </trkpt>
      <trkpt lat="45.89531" lon="6.08782">
        <ele>503</ele>
        <time>2021-09-11T10:12:44.228Z</time>
      </trkpt>
      <trkpt lat="45.89533" lon="6.08775">
        <ele>503</ele>
        <time>2021-09-11T10:12:45.227Z</time>
      </trkpt>
      <trkpt lat="45.89535" lon="6.08767">
        <ele>503</ele>
        <time>2021-09-11T10:12:46.228Z</time>
      </trkpt>
      <trkpt lat="45.89537" lon="6.08759">
        <ele>502</ele>
        <time>2021-09-11T10:12:47.227Z</time>
      </trkpt>
      <trkpt lat="45.89539" lon="6.08752">
        <ele>502</ele>
        <time>2021-09-11T10:12:48.227Z</time>
      </trkpt>
      <trkpt lat="45.89541" lon="6.08744">
        <ele>501</ele>
        <time>2021-09-11T10:12:49.228Z</time>
      </trkpt>
      <trkpt lat="45.89542" lon="6.08736">
        <ele>501</ele>
        <time>2021-09-11T10:12:50.227Z</time>
      </trkpt>
      <trkpt lat="45.89544" lon="6.0873">
        <ele>501</ele>
        <time>2021-09-11T10:12:51.227Z</time>
      </trkpt>
      <trkpt lat="45.89545" lon="6.08723">
        <ele>500</ele>
        <time>2021-09-11T10:12:52.228Z</time>
      </trkpt>
      <trkpt lat="45.89547" lon="6.08716">
        <ele>500</ele>
        <time>2021-09-11T10:12:53.228Z</time>
      </trkpt>
      <trkpt lat="45.89549" lon="6.08709">
        <ele>499</ele>
        <time>2021-09-11T10:12:54.227Z</time>
      </trkpt>
      <trkpt lat="45.8955" lon="6.08702">
        <ele>499</ele>
        <time>2021-09-11T10:12:55.228Z</time>
      </trkpt>
      <trkpt lat="45.89552" lon="6.08695">
        <ele>498</ele>
        <time>2021-09-11T10:12:56.227Z</time>
      </trkpt>
      <trkpt lat="45.89553" lon="6.08688">
        <ele>498</ele>
        <time>2021-09-11T10:12:57.227Z</time>
      </trkpt>
      <trkpt lat="45.89555" lon="6.08681">
        <ele>498</ele>
        <time>2021-09-11T10:12:58.228Z</time>
      </trkpt>
      <trkpt lat="45.89556" lon="6.08675">
        <ele>498</ele>
        <time>2021-09-11T10:12:59.227Z</time>
      </trkpt>
      <trkpt lat="45.89558" lon="6.08668">
        <ele>497</ele>
        <time>2021-09-11T10:13:00.227Z</time>
      </trkpt>
      <trkpt lat="45.8956" lon="6.08661">
        <ele>497</ele>
        <time>2021-09-11T10:13:01.227Z</time>
      </trkpt>
      <trkpt lat="45.89561" lon="6.08655">
        <ele>497</ele>
        <time>2021-09-11T10:13:02.227Z</time>
      </trkpt>
      <trkpt lat="45.89562" lon="6.08648">
        <ele>497</ele>
        <time>2021-09-11T10:13:03.228Z</time>
      </trkpt>
      <trkpt lat="45.89563" lon="6.08642">
        <ele>497</ele>
        <time>2021-09-11T10:13:04.227Z</time>
      </trkpt>
      <trkpt lat="45.89563" lon="6.08635">
        <ele>497</ele>
        <time>2021-09-11T10:13:05.228Z</time>
      </trkpt>
      <trkpt lat="45.89563" lon="6.08628">
        <ele>497</ele>
        <time>2021-09-11T10:13:06.227Z</time>
      </trkpt>
      <trkpt lat="45.89563" lon="6.08621">
        <ele>497</ele>
        <time>2021-09-11T10:13:07.227Z</time>
      </trkpt>
      <trkpt lat="45.89562" lon="6.08614">
        <ele>496</ele>
        <time>2021-09-11T10:13:08.227Z</time>
      </trkpt>
      <trkpt lat="45.89561" lon="6.08607">
        <ele>496</ele>
        <time>2021-09-11T10:13:09.227Z</time>
      </trkpt>
      <trkpt lat="45.89559" lon="6.086">
        <ele>496</ele>
        <time>2021-09-11T10:13:10.227Z</time>
      </trkpt>
      <trkpt lat="45.89557" lon="6.08593">
        <ele>496</ele>
        <time>2021-09-11T10:13:11.227Z</time>
      </trkpt>
      <trkpt lat="45.89555" lon="6.08586">
        <ele>497</ele>
        <time>2021-09-11T10:13:12.227Z</time>
      </trkpt>
      <trkpt lat="45.89552" lon="6.08579">
        <ele>497</ele>
        <time>2021-09-11T10:13:13.227Z</time>
      </trkpt>
      <trkpt lat="45.8955" lon="6.08571">
        <ele>498</ele>
        <time>2021-09-11T10:13:14.228Z</time>
      </trkpt>
      <trkpt lat="45.89547" lon="6.08563">
        <ele>498</ele>
        <time>2021-09-11T10:13:15.227Z</time>
      </trkpt>
      <trkpt lat="45.89544" lon="6.08556">
        <ele>498</ele>
        <time>2021-09-11T10:13:16.228Z</time>
      </trkpt>
      <trkpt lat="45.89541" lon="6.08547">
        <ele>497</ele>
        <time>2021-09-11T10:13:17.227Z</time>
      </trkpt>
      <trkpt lat="45.89538" lon="6.08538">
        <ele>497</ele>
        <time>2021-09-11T10:13:18.228Z</time>
      </trkpt>
      <trkpt lat="45.89536" lon="6.08529">
        <ele>497</ele>
        <time>2021-09-11T10:13:19.228Z</time>
      </trkpt>
      <trkpt lat="45.89533" lon="6.08518">
        <ele>497</ele>
        <time>2021-09-11T10:13:20.228Z</time>
      </trkpt>
      <trkpt lat="45.8953" lon="6.08507">
        <ele>496</ele>
        <time>2021-09-11T10:13:21.228Z</time>
      </trkpt>
      <trkpt lat="45.89527" lon="6.08495">
        <ele>496</ele>
        <time>2021-09-11T10:13:22.227Z</time>
      </trkpt>
      <trkpt lat="45.89525" lon="6.08483">
        <ele>495</ele>
        <time>2021-09-11T10:13:23.228Z</time>
      </trkpt>
      <trkpt lat="45.89523" lon="6.08471">
        <ele>495</ele>
        <time>2021-09-11T10:13:24.228Z</time>
      </trkpt>
      <trkpt lat="45.89521" lon="6.08458">
        <ele>495</ele>
        <time>2021-09-11T10:13:25.228Z</time>
      </trkpt>
      <trkpt lat="45.89519" lon="6.08446">
        <ele>495</ele>
        <time>2021-09-11T10:13:26.228Z</time>
      </trkpt>
      <trkpt lat="45.89518" lon="6.08434">
        <ele>494</ele>
        <time>2021-09-11T10:13:27.228Z</time>
      </trkpt>
      <trkpt lat="45.89516" lon="6.08423">
        <ele>494</ele>
        <time>2021-09-11T10:13:28.228Z</time>
      </trkpt>
      <trkpt lat="45.89516" lon="6.08413">
        <ele>494</ele>
        <time>2021-09-11T10:13:29.228Z</time>
      </trkpt>
      <trkpt lat="45.89514" lon="6.08403">
        <ele>494</ele>
        <time>2021-09-11T10:13:30.228Z</time>
      </trkpt>
      <trkpt lat="45.89513" lon="6.08394">
        <ele>493</ele>
        <time>2021-09-11T10:13:31.228Z</time>
      </trkpt>
      <trkpt lat="45.89511" lon="6.08385">
        <ele>493</ele>
        <time>2021-09-11T10:13:32.228Z</time>
      </trkpt>
      <trkpt lat="45.89508" lon="6.08377">
        <ele>493</ele>
        <time>2021-09-11T10:13:33.228Z</time>
      </trkpt>
      <trkpt lat="45.89505" lon="6.08368">
        <ele>492</ele>
        <time>2021-09-11T10:13:34.228Z</time>
      </trkpt>
      <trkpt lat="45.89501" lon="6.08359">
        <ele>492</ele>
        <time>2021-09-11T10:13:35.227Z</time>
      </trkpt>
      <trkpt lat="45.89496" lon="6.08351">
        <ele>491</ele>
        <time>2021-09-11T10:13:36.228Z</time>
      </trkpt>
      <trkpt lat="45.89491" lon="6.08339">
        <ele>491</ele>
        <time>2021-09-11T10:13:37.228Z</time>
      </trkpt>
      <trkpt lat="45.89486" lon="6.08331">
        <ele>490</ele>
        <time>2021-09-11T10:13:38.228Z</time>
      </trkpt>
      <trkpt lat="45.89481" lon="6.0832">
        <ele>489</ele>
        <time>2021-09-11T10:13:39.227Z</time>
      </trkpt>
      <trkpt lat="45.89477" lon="6.08309">
        <ele>489</ele>
        <time>2021-09-11T10:13:40.227Z</time>
      </trkpt>
      <trkpt lat="45.89473" lon="6.08297">
        <ele>488</ele>
        <time>2021-09-11T10:13:41.228Z</time>
      </trkpt>
      <trkpt lat="45.8947" lon="6.08284">
        <ele>487</ele>
        <time>2021-09-11T10:13:42.227Z</time>
      </trkpt>
      <trkpt lat="45.89468" lon="6.08273">
        <ele>487</ele>
        <time>2021-09-11T10:13:43.228Z</time>
      </trkpt>
      <trkpt lat="45.89467" lon="6.08262">
        <ele>487</ele>
        <time>2021-09-11T10:13:44.227Z</time>
      </trkpt>
      <trkpt lat="45.89466" lon="6.08251">
        <ele>486</ele>
        <time>2021-09-11T10:13:45.228Z</time>
      </trkpt>
      <trkpt lat="45.89466" lon="6.08241">
        <ele>486</ele>
        <time>2021-09-11T10:13:46.228Z</time>
      </trkpt>
      <trkpt lat="45.89466" lon="6.08233">
        <ele>485</ele>
        <time>2021-09-11T10:13:47.227Z</time>
      </trkpt>
      <trkpt lat="45.89467" lon="6.08225">
        <ele>485</ele>
        <time>2021-09-11T10:13:48.228Z</time>
      </trkpt>
      <trkpt lat="45.89467" lon="6.08218">
        <ele>484</ele>
        <time>2021-09-11T10:13:49.228Z</time>
      </trkpt>
      <trkpt lat="45.89468" lon="6.08212">
        <ele>484</ele>
        <time>2021-09-11T10:13:50.228Z</time>
      </trkpt>
      <trkpt lat="45.89472" lon="6.08207">
        <ele>484</ele>
        <time>2021-09-11T10:13:51.228Z</time>
      </trkpt>
      <trkpt lat="45.89474" lon="6.08201">
        <ele>484</ele>
        <time>2021-09-11T10:13:52.228Z</time>
      </trkpt>
      <trkpt lat="45.89477" lon="6.08197">
        <ele>484</ele>
        <time>2021-09-11T10:13:53.227Z</time>
      </trkpt>
      <trkpt lat="45.89478" lon="6.08193">
        <ele>484</ele>
        <time>2021-09-11T10:13:54.228Z</time>
      </trkpt>
      <trkpt lat="45.89479" lon="6.08189">
        <ele>484</ele>
        <time>2021-09-11T10:13:55.228Z</time>
      </trkpt>
      <trkpt lat="45.8948" lon="6.08185">
        <ele>484</ele>
        <time>2021-09-11T10:13:56.228Z</time>
      </trkpt>
      <trkpt lat="45.89482" lon="6.08181">
        <ele>485</ele>
        <time>2021-09-11T10:13:57.228Z</time>
      </trkpt>
      <trkpt lat="45.89484" lon="6.08176">
        <ele>485</ele>
        <time>2021-09-11T10:13:58.228Z</time>
      </trkpt>
      <trkpt lat="45.89486" lon="6.08172">
        <ele>485</ele>
        <time>2021-09-11T10:13:59.228Z</time>
      </trkpt>
      <trkpt lat="45.89488" lon="6.08167">
        <ele>486</ele>
        <time>2021-09-11T10:14:00.228Z</time>
      </trkpt>
      <trkpt lat="45.8949" lon="6.08164">
        <ele>487</ele>
        <time>2021-09-11T10:14:01.227Z</time>
      </trkpt>
      <trkpt lat="45.89491" lon="6.08161">
        <ele>487</ele>
        <time>2021-09-11T10:14:02.228Z</time>
      </trkpt>
      <trkpt lat="45.89493" lon="6.08157">
        <ele>487</ele>
        <time>2021-09-11T10:14:03.228Z</time>
      </trkpt>
      <trkpt lat="45.89496" lon="6.08153">
        <ele>487</ele>
        <time>2021-09-11T10:14:04.227Z</time>
      </trkpt>
      <trkpt lat="45.89499" lon="6.0815">
        <ele>486</ele>
        <time>2021-09-11T10:14:05.228Z</time>
      </trkpt>
      <trkpt lat="45.89502" lon="6.08147">
        <ele>486</ele>
        <time>2021-09-11T10:14:06.228Z</time>
      </trkpt>
      <trkpt lat="45.89505" lon="6.08145">
        <ele>486</ele>
        <time>2021-09-11T10:14:07.228Z</time>
      </trkpt>
      <trkpt lat="45.89508" lon="6.08142">
        <ele>486</ele>
        <time>2021-09-11T10:14:08.228Z</time>
      </trkpt>
      <trkpt lat="45.89511" lon="6.0814">
        <ele>486</ele>
        <time>2021-09-11T10:14:09.227Z</time>
      </trkpt>
      <trkpt lat="45.89514" lon="6.08136">
        <ele>486</ele>
        <time>2021-09-11T10:14:10.228Z</time>
      </trkpt>
      <trkpt lat="45.89517" lon="6.08132">
        <ele>486</ele>
        <time>2021-09-11T10:14:11.228Z</time>
      </trkpt>
      <trkpt lat="45.89519" lon="6.08127">
        <ele>487</ele>
        <time>2021-09-11T10:14:12.228Z</time>
      </trkpt>
      <trkpt lat="45.89521" lon="6.08123">
        <ele>487</ele>
        <time>2021-09-11T10:14:13.228Z</time>
      </trkpt>
      <trkpt lat="45.89522" lon="6.08118">
        <ele>487</ele>
        <time>2021-09-11T10:14:14.228Z</time>
      </trkpt>
      <trkpt lat="45.89522" lon="6.08112">
        <ele>487</ele>
        <time>2021-09-11T10:14:15.228Z</time>
      </trkpt>
      <trkpt lat="45.89522" lon="6.08108">
        <ele>488</ele>
        <time>2021-09-11T10:14:16.228Z</time>
      </trkpt>
      <trkpt lat="45.89522" lon="6.08103">
        <ele>487</ele>
        <time>2021-09-11T10:14:17.227Z</time>
      </trkpt>
      <trkpt lat="45.89522" lon="6.08098">
        <ele>487</ele>
        <time>2021-09-11T10:14:18.228Z</time>
      </trkpt>
      <trkpt lat="45.89521" lon="6.08093">
        <ele>487</ele>
        <time>2021-09-11T10:14:19.228Z</time>
      </trkpt>
      <trkpt lat="45.89521" lon="6.08088">
        <ele>486</ele>
        <time>2021-09-11T10:14:20.228Z</time>
      </trkpt>
      <trkpt lat="45.89522" lon="6.08083">
        <ele>487</ele>
        <time>2021-09-11T10:14:21.228Z</time>
      </trkpt>
      <trkpt lat="45.89522" lon="6.08079">
        <ele>487</ele>
        <time>2021-09-11T10:14:22.228Z</time>
      </trkpt>
      <trkpt lat="45.89524" lon="6.08075">
        <ele>487</ele>
        <time>2021-09-11T10:14:23.228Z</time>
      </trkpt>
      <trkpt lat="45.89525" lon="6.0807">
        <ele>487</ele>
        <time>2021-09-11T10:14:24.227Z</time>
      </trkpt>
      <trkpt lat="45.89527" lon="6.08066">
        <ele>488</ele>
        <time>2021-09-11T10:14:25.228Z</time>
      </trkpt>
      <trkpt lat="45.89528" lon="6.08062">
        <ele>488</ele>
        <time>2021-09-11T10:14:26.228Z</time>
      </trkpt>
      <trkpt lat="45.89529" lon="6.08058">
        <ele>488</ele>
        <time>2021-09-11T10:14:27.228Z</time>
      </trkpt>
      <trkpt lat="45.89531" lon="6.08055">
        <ele>488</ele>
        <time>2021-09-11T10:14:28.228Z</time>
      </trkpt>
      <trkpt lat="45.89532" lon="6.08051">
        <ele>489</ele>
        <time>2021-09-11T10:14:29.228Z</time>
      </trkpt>
      <trkpt lat="45.89533" lon="6.08047">
        <ele>489</ele>
        <time>2021-09-11T10:14:30.228Z</time>
      </trkpt>
      <trkpt lat="45.89534" lon="6.08043">
        <ele>489</ele>
        <time>2021-09-11T10:14:31.228Z</time>
      </trkpt>
      <trkpt lat="45.89536" lon="6.08038">
        <ele>489</ele>
        <time>2021-09-11T10:14:32.228Z</time>
      </trkpt>
      <trkpt lat="45.89536" lon="6.08036">
        <ele>490</ele>
        <time>2021-09-11T10:14:33.228Z</time>
      </trkpt>
      <trkpt lat="45.89537" lon="6.08032">
        <ele>490</ele>
        <time>2021-09-11T10:14:34.227Z</time>
      </trkpt>
      <trkpt lat="45.89538" lon="6.08028">
        <ele>490</ele>
        <time>2021-09-11T10:14:35.228Z</time>
      </trkpt>
      <trkpt lat="45.89539" lon="6.08024">
        <ele>490</ele>
        <time>2021-09-11T10:14:36.228Z</time>
      </trkpt>
      <trkpt lat="45.89539" lon="6.0802">
        <ele>491</ele>
        <time>2021-09-11T10:14:37.228Z</time>
      </trkpt>
      <trkpt lat="45.8954" lon="6.08016">
        <ele>491</ele>
        <time>2021-09-11T10:14:38.227Z</time>
      </trkpt>
      <trkpt lat="45.89541" lon="6.08012">
        <ele>491</ele>
        <time>2021-09-11T10:14:39.227Z</time>
      </trkpt>
      <trkpt lat="45.89543" lon="6.08008">
        <ele>491</ele>
        <time>2021-09-11T10:14:40.228Z</time>
      </trkpt>
      <trkpt lat="45.89544" lon="6.08005">
        <ele>491</ele>
        <time>2021-09-11T10:14:41.227Z</time>
      </trkpt>
      <trkpt lat="45.89545" lon="6.08">
        <ele>491</ele>
        <time>2021-09-11T10:14:42.228Z</time>
      </trkpt>
      <trkpt lat="45.89546" lon="6.07996">
        <ele>491</ele>
        <time>2021-09-11T10:14:43.228Z</time>
      </trkpt>
      <trkpt lat="45.89547" lon="6.07993">
        <ele>492</ele>
        <time>2021-09-11T10:14:44.227Z</time>
      </trkpt>
      <trkpt lat="45.89548" lon="6.07989">
        <ele>492</ele>
        <time>2021-09-11T10:14:45.228Z</time>
      </trkpt>
      <trkpt lat="45.8955" lon="6.07985">
        <ele>492</ele>
        <time>2021-09-11T10:14:46.228Z</time>
      </trkpt>
      <trkpt lat="45.89551" lon="6.0798">
        <ele>492</ele>
        <time>2021-09-11T10:14:47.227Z</time>
      </trkpt>
      <trkpt lat="45.89552" lon="6.07976">
        <ele>492</ele>
        <time>2021-09-11T10:14:48.228Z</time>
      </trkpt>
      <trkpt lat="45.89552" lon="6.07972">
        <ele>492</ele>
        <time>2021-09-11T10:14:49.228Z</time>
      </trkpt>
      <trkpt lat="45.89553" lon="6.07967">
        <ele>492</ele>
        <time>2021-09-11T10:14:50.227Z</time>
      </trkpt>
      <trkpt lat="45.89554" lon="6.07963">
        <ele>492</ele>
        <time>2021-09-11T10:14:51.228Z</time>
      </trkpt>
      <trkpt lat="45.89555" lon="6.07958">
        <ele>492</ele>
        <time>2021-09-11T10:14:52.228Z</time>
      </trkpt>
      <trkpt lat="45.89556" lon="6.07954">
        <ele>492</ele>
        <time>2021-09-11T10:14:53.228Z</time>
      </trkpt>
      <trkpt lat="45.89557" lon="6.0795">
        <ele>492</ele>
        <time>2021-09-11T10:14:54.227Z</time>
      </trkpt>
      <trkpt lat="45.89558" lon="6.07946">
        <ele>492</ele>
        <time>2021-09-11T10:14:55.228Z</time>
      </trkpt>
      <trkpt lat="45.89559" lon="6.07941">
        <ele>492</ele>
        <time>2021-09-11T10:14:56.228Z</time>
      </trkpt>
      <trkpt lat="45.89559" lon="6.07937">
        <ele>492</ele>
        <time>2021-09-11T10:14:57.227Z</time>
      </trkpt>
      <trkpt lat="45.8956" lon="6.07933">
        <ele>492</ele>
        <time>2021-09-11T10:14:58.228Z</time>
      </trkpt>
      <trkpt lat="45.89561" lon="6.0793">
        <ele>492</ele>
        <time>2021-09-11T10:14:59.227Z</time>
      </trkpt>
      <trkpt lat="45.89561" lon="6.07927">
        <ele>492</ele>
        <time>2021-09-11T10:15:00.228Z</time>
      </trkpt>
      <trkpt lat="45.89562" lon="6.07924">
        <ele>492</ele>
        <time>2021-09-11T10:15:01.227Z</time>
      </trkpt>
      <trkpt lat="45.89562" lon="6.0792">
        <ele>492</ele>
        <time>2021-09-11T10:15:02.228Z</time>
      </trkpt>
      <trkpt lat="45.89563" lon="6.07916">
        <ele>492</ele>
        <time>2021-09-11T10:15:03.228Z</time>
      </trkpt>
      <trkpt lat="45.89564" lon="6.07912">
        <ele>491</ele>
        <time>2021-09-11T10:15:04.228Z</time>
      </trkpt>
      <trkpt lat="45.89566" lon="6.07907">
        <ele>491</ele>
        <time>2021-09-11T10:15:05.228Z</time>
      </trkpt>
      <trkpt lat="45.89567" lon="6.07903">
        <ele>491</ele>
        <time>2021-09-11T10:15:06.228Z</time>
      </trkpt>
      <trkpt lat="45.89568" lon="6.07898">
        <ele>491</ele>
        <time>2021-09-11T10:15:07.228Z</time>
      </trkpt>
      <trkpt lat="45.89569" lon="6.07893">
        <ele>491</ele>
        <time>2021-09-11T10:15:08.228Z</time>
      </trkpt>
      <trkpt lat="45.8957" lon="6.07889">
        <ele>491</ele>
        <time>2021-09-11T10:15:09.228Z</time>
      </trkpt>
      <trkpt lat="45.89572" lon="6.07885">
        <ele>492</ele>
        <time>2021-09-11T10:15:10.227Z</time>
      </trkpt>
      <trkpt lat="45.89573" lon="6.0788">
        <ele>492</ele>
        <time>2021-09-11T10:15:11.228Z</time>
      </trkpt>
      <trkpt lat="45.89574" lon="6.07876">
        <ele>492</ele>
        <time>2021-09-11T10:15:12.228Z</time>
      </trkpt>
      <trkpt lat="45.89575" lon="6.07872">
        <ele>492</ele>
        <time>2021-09-11T10:15:13.228Z</time>
      </trkpt>
      <trkpt lat="45.89576" lon="6.07867">
        <ele>492</ele>
        <time>2021-09-11T10:15:14.227Z</time>
      </trkpt>
      <trkpt lat="45.89577" lon="6.07862">
        <ele>492</ele>
        <time>2021-09-11T10:15:15.228Z</time>
      </trkpt>
      <trkpt lat="45.89578" lon="6.07858">
        <ele>492</ele>
        <time>2021-09-11T10:15:16.227Z</time>
      </trkpt>
      <trkpt lat="45.89579" lon="6.07854">
        <ele>492</ele>
        <time>2021-09-11T10:15:17.228Z</time>
      </trkpt>
      <trkpt lat="45.8958" lon="6.07849">
        <ele>492</ele>
        <time>2021-09-11T10:15:18.227Z</time>
      </trkpt>
      <trkpt lat="45.89581" lon="6.07845">
        <ele>493</ele>
        <time>2021-09-11T10:15:19.227Z</time>
      </trkpt>
      <trkpt lat="45.89582" lon="6.07841">
        <ele>493</ele>
        <time>2021-09-11T10:15:20.227Z</time>
      </trkpt>
      <trkpt lat="45.89583" lon="6.07836">
        <ele>493</ele>
        <time>2021-09-11T10:15:21.227Z</time>
      </trkpt>
      <trkpt lat="45.89584" lon="6.07832">
        <ele>493</ele>
        <time>2021-09-11T10:15:22.227Z</time>
      </trkpt>
      <trkpt lat="45.89585" lon="6.07828">
        <ele>493</ele>
        <time>2021-09-11T10:15:23.227Z</time>
      </trkpt>
      <trkpt lat="45.89586" lon="6.07824">
        <ele>493</ele>
        <time>2021-09-11T10:15:24.227Z</time>
      </trkpt>
      <trkpt lat="45.89587" lon="6.0782">
        <ele>493</ele>
        <time>2021-09-11T10:15:25.228Z</time>
      </trkpt>
      <trkpt lat="45.89587" lon="6.07816">
        <ele>493</ele>
        <time>2021-09-11T10:15:26.227Z</time>
      </trkpt>
      <trkpt lat="45.89588" lon="6.07812">
        <ele>493</ele>
        <time>2021-09-11T10:15:27.228Z</time>
      </trkpt>
      <trkpt lat="45.89589" lon="6.07808">
        <ele>493</ele>
        <time>2021-09-11T10:15:28.228Z</time>
      </trkpt>
      <trkpt lat="45.8959" lon="6.07805">
        <ele>493</ele>
        <time>2021-09-11T10:15:29.228Z</time>
      </trkpt>
      <trkpt lat="45.8959" lon="6.07801">
        <ele>492</ele>
        <time>2021-09-11T10:15:30.228Z</time>
      </trkpt>
      <trkpt lat="45.89591" lon="6.07798">
        <ele>492</ele>
        <time>2021-09-11T10:15:31.228Z</time>
      </trkpt>
      <trkpt lat="45.89592" lon="6.07795">
        <ele>492</ele>
        <time>2021-09-11T10:15:32.228Z</time>
      </trkpt>
      <trkpt lat="45.89593" lon="6.07791">
        <ele>493</ele>
        <time>2021-09-11T10:15:33.228Z</time>
      </trkpt>
      <trkpt lat="45.89593" lon="6.07787">
        <ele>493</ele>
        <time>2021-09-11T10:15:34.228Z</time>
      </trkpt>
      <trkpt lat="45.89594" lon="6.07784">
        <ele>493</ele>
        <time>2021-09-11T10:15:35.228Z</time>
      </trkpt>
      <trkpt lat="45.89594" lon="6.07781">
        <ele>494</ele>
        <time>2021-09-11T10:15:36.228Z</time>
      </trkpt>
      <trkpt lat="45.89594" lon="6.07777">
        <ele>494</ele>
        <time>2021-09-11T10:15:37.228Z</time>
      </trkpt>
      <trkpt lat="45.89595" lon="6.07774">
        <ele>494</ele>
        <time>2021-09-11T10:15:38.228Z</time>
      </trkpt>
      <trkpt lat="45.89595" lon="6.07771">
        <ele>494</ele>
        <time>2021-09-11T10:15:39.228Z</time>
      </trkpt>
      <trkpt lat="45.89596" lon="6.07768">
        <ele>494</ele>
        <time>2021-09-11T10:15:40.227Z</time>
      </trkpt>
      <trkpt lat="45.89595" lon="6.07764">
        <ele>494</ele>
        <time>2021-09-11T10:15:41.228Z</time>
      </trkpt>
      <trkpt lat="45.89595" lon="6.07761">
        <ele>495</ele>
        <time>2021-09-11T10:15:42.227Z</time>
      </trkpt>
      <trkpt lat="45.89595" lon="6.07758">
        <ele>495</ele>
        <time>2021-09-11T10:15:43.228Z</time>
      </trkpt>
      <trkpt lat="45.89595" lon="6.07755">
        <ele>496</ele>
        <time>2021-09-11T10:15:44.227Z</time>
      </trkpt>
      <trkpt lat="45.89594" lon="6.07752">
        <ele>497</ele>
        <time>2021-09-11T10:15:45.228Z</time>
      </trkpt>
      <trkpt lat="45.89594" lon="6.07749">
        <ele>498</ele>
        <time>2021-09-11T10:15:46.228Z</time>
      </trkpt>
      <trkpt lat="45.89595" lon="6.07746">
        <ele>498</ele>
        <time>2021-09-11T10:15:47.228Z</time>
      </trkpt>
      <trkpt lat="45.89594" lon="6.07742">
        <ele>498</ele>
        <time>2021-09-11T10:15:48.227Z</time>
      </trkpt>
      <trkpt lat="45.89594" lon="6.0774">
        <ele>499</ele>
        <time>2021-09-11T10:15:49.228Z</time>
      </trkpt>
      <trkpt lat="45.89594" lon="6.07737">
        <ele>499</ele>
        <time>2021-09-11T10:15:50.228Z</time>
      </trkpt>
      <trkpt lat="45.89594" lon="6.07734">
        <ele>499</ele>
        <time>2021-09-11T10:15:51.228Z</time>
      </trkpt>
      <trkpt lat="45.89594" lon="6.07731">
        <ele>500</ele>
        <time>2021-09-11T10:15:52.228Z</time>
      </trkpt>
      <trkpt lat="45.89593" lon="6.07728">
        <ele>500</ele>
        <time>2021-09-11T10:15:53.227Z</time>
      </trkpt>
      <trkpt lat="45.89593" lon="6.07725">
        <ele>501</ele>
        <time>2021-09-11T10:15:54.228Z</time>
      </trkpt>
      <trkpt lat="45.89593" lon="6.07722">
        <ele>502</ele>
        <time>2021-09-11T10:15:55.228Z</time>
      </trkpt>
      <trkpt lat="45.89593" lon="6.07719">
        <ele>502</ele>
        <time>2021-09-11T10:15:56.227Z</time>
      </trkpt>
      <trkpt lat="45.89593" lon="6.07715">
        <ele>502</ele>
        <time>2021-09-11T10:15:57.228Z</time>
      </trkpt>
      <trkpt lat="45.89593" lon="6.07713">
        <ele>502</ele>
        <time>2021-09-11T10:15:58.228Z</time>
      </trkpt>
      <trkpt lat="45.89593" lon="6.07709">
        <ele>501</ele>
        <time>2021-09-11T10:15:59.228Z</time>
      </trkpt>
      <trkpt lat="45.89592" lon="6.07705">
        <ele>501</ele>
        <time>2021-09-11T10:16:00.228Z</time>
      </trkpt>
      <trkpt lat="45.89592" lon="6.07702">
        <ele>501</ele>
        <time>2021-09-11T10:16:01.228Z</time>
      </trkpt>
      <trkpt lat="45.89592" lon="6.07698">
        <ele>501</ele>
        <time>2021-09-11T10:16:02.228Z</time>
      </trkpt>
      <trkpt lat="45.89592" lon="6.07694">
        <ele>500</ele>
        <time>2021-09-11T10:16:03.228Z</time>
      </trkpt>
      <trkpt lat="45.89592" lon="6.07691">
        <ele>501</ele>
        <time>2021-09-11T10:16:04.227Z</time>
      </trkpt>
      <trkpt lat="45.89591" lon="6.07687">
        <ele>501</ele>
        <time>2021-09-11T10:16:05.227Z</time>
      </trkpt>
      <trkpt lat="45.89591" lon="6.07683">
        <ele>501</ele>
        <time>2021-09-11T10:16:06.227Z</time>
      </trkpt>
      <trkpt lat="45.89591" lon="6.07679">
        <ele>502</ele>
        <time>2021-09-11T10:16:07.227Z</time>
      </trkpt>
      <trkpt lat="45.8959" lon="6.07675">
        <ele>502</ele>
        <time>2021-09-11T10:16:08.227Z</time>
      </trkpt>
      <trkpt lat="45.8959" lon="6.07671">
        <ele>502</ele>
        <time>2021-09-11T10:16:09.228Z</time>
      </trkpt>
      <trkpt lat="45.8959" lon="6.07668">
        <ele>502</ele>
        <time>2021-09-11T10:16:10.228Z</time>
      </trkpt>
      <trkpt lat="45.8959" lon="6.07663">
        <ele>502</ele>
        <time>2021-09-11T10:16:11.228Z</time>
      </trkpt>
      <trkpt lat="45.8959" lon="6.07659">
        <ele>502</ele>
        <time>2021-09-11T10:16:12.228Z</time>
      </trkpt>
      <trkpt lat="45.8959" lon="6.07655">
        <ele>501</ele>
        <time>2021-09-11T10:16:13.228Z</time>
      </trkpt>
      <trkpt lat="45.8959" lon="6.0765">
        <ele>501</ele>
        <time>2021-09-11T10:16:14.227Z</time>
      </trkpt>
      <trkpt lat="45.8959" lon="6.07646">
        <ele>500</ele>
        <time>2021-09-11T10:16:15.227Z</time>
      </trkpt>
      <trkpt lat="45.8959" lon="6.07641">
        <ele>500</ele>
        <time>2021-09-11T10:16:16.228Z</time>
      </trkpt>
      <trkpt lat="45.89589" lon="6.07636">
        <ele>501</ele>
        <time>2021-09-11T10:16:17.228Z</time>
      </trkpt>
      <trkpt lat="45.89589" lon="6.07631">
        <ele>501</ele>
        <time>2021-09-11T10:16:18.228Z</time>
      </trkpt>
      <trkpt lat="45.89589" lon="6.07626">
        <ele>501</ele>
        <time>2021-09-11T10:16:19.228Z</time>
      </trkpt>
      <trkpt lat="45.89589" lon="6.07621">
        <ele>501</ele>
        <time>2021-09-11T10:16:20.228Z</time>
      </trkpt>
      <trkpt lat="45.89589" lon="6.07615">
        <ele>501</ele>
        <time>2021-09-11T10:16:21.227Z</time>
      </trkpt>
      <trkpt lat="45.89589" lon="6.0761">
        <ele>501</ele>
        <time>2021-09-11T10:16:22.228Z</time>
      </trkpt>
      <trkpt lat="45.89589" lon="6.07605">
        <ele>501</ele>
        <time>2021-09-11T10:16:23.228Z</time>
      </trkpt>
      <trkpt lat="45.8959" lon="6.07599">
        <ele>501</ele>
        <time>2021-09-11T10:16:24.228Z</time>
      </trkpt>
      <trkpt lat="45.8959" lon="6.07593">
        <ele>501</ele>
        <time>2021-09-11T10:16:25.228Z</time>
      </trkpt>
      <trkpt lat="45.89591" lon="6.07587">
        <ele>501</ele>
        <time>2021-09-11T10:16:26.228Z</time>
      </trkpt>
      <trkpt lat="45.89592" lon="6.07582">
        <ele>501</ele>
        <time>2021-09-11T10:16:27.228Z</time>
      </trkpt>
      <trkpt lat="45.89593" lon="6.07575">
        <ele>501</ele>
        <time>2021-09-11T10:16:28.228Z</time>
      </trkpt>
      <trkpt lat="45.89594" lon="6.07569">
        <ele>501</ele>
        <time>2021-09-11T10:16:29.227Z</time>
      </trkpt>
      <trkpt lat="45.89595" lon="6.07562">
        <ele>500</ele>
        <time>2021-09-11T10:16:30.228Z</time>
      </trkpt>
      <trkpt lat="45.89596" lon="6.07556">
        <ele>501</ele>
        <time>2021-09-11T10:16:31.228Z</time>
      </trkpt>
      <trkpt lat="45.89597" lon="6.0755">
        <ele>501</ele>
        <time>2021-09-11T10:16:32.228Z</time>
      </trkpt>
      <trkpt lat="45.89598" lon="6.07543">
        <ele>501</ele>
        <time>2021-09-11T10:16:33.227Z</time>
      </trkpt>
      <trkpt lat="45.89599" lon="6.07537">
        <ele>501</ele>
        <time>2021-09-11T10:16:34.228Z</time>
      </trkpt>
      <trkpt lat="45.896" lon="6.07531">
        <ele>501</ele>
        <time>2021-09-11T10:16:35.228Z</time>
      </trkpt>
      <trkpt lat="45.89601" lon="6.07525">
        <ele>501</ele>
        <time>2021-09-11T10:16:36.227Z</time>
      </trkpt>
      <trkpt lat="45.89603" lon="6.07519">
        <ele>501</ele>
        <time>2021-09-11T10:16:37.228Z</time>
      </trkpt>
      <trkpt lat="45.89604" lon="6.07513">
        <ele>500</ele>
        <time>2021-09-11T10:16:38.228Z</time>
      </trkpt>
      <trkpt lat="45.89605" lon="6.07506">
        <ele>500</ele>
        <time>2021-09-11T10:16:39.227Z</time>
      </trkpt>
      <trkpt lat="45.89606" lon="6.075">
        <ele>500</ele>
        <time>2021-09-11T10:16:40.227Z</time>
      </trkpt>
      <trkpt lat="45.89607" lon="6.07494">
        <ele>499</ele>
        <time>2021-09-11T10:16:41.227Z</time>
      </trkpt>
      <trkpt lat="45.89608" lon="6.07487">
        <ele>499</ele>
        <time>2021-09-11T10:16:42.228Z</time>
      </trkpt>
      <trkpt lat="45.89609" lon="6.0748">
        <ele>499</ele>
        <time>2021-09-11T10:16:43.228Z</time>
      </trkpt>
      <trkpt lat="45.89611" lon="6.07474">
        <ele>499</ele>
        <time>2021-09-11T10:16:44.228Z</time>
      </trkpt>
      <trkpt lat="45.89612" lon="6.07467">
        <ele>499</ele>
        <time>2021-09-11T10:16:45.228Z</time>
      </trkpt>
      <trkpt lat="45.89613" lon="6.0746">
        <ele>499</ele>
        <time>2021-09-11T10:16:46.228Z</time>
      </trkpt>
      <trkpt lat="45.89614" lon="6.07454">
        <ele>499</ele>
        <time>2021-09-11T10:16:47.228Z</time>
      </trkpt>
      <trkpt lat="45.89614" lon="6.07447">
        <ele>499</ele>
        <time>2021-09-11T10:16:48.228Z</time>
      </trkpt>
      <trkpt lat="45.89614" lon="6.07441">
        <ele>499</ele>
        <time>2021-09-11T10:16:49.228Z</time>
      </trkpt>
      <trkpt lat="45.89614" lon="6.07434">
        <ele>499</ele>
        <time>2021-09-11T10:16:50.228Z</time>
      </trkpt>
      <trkpt lat="45.89614" lon="6.07428">
        <ele>500</ele>
        <time>2021-09-11T10:16:51.228Z</time>
      </trkpt>
      <trkpt lat="45.89614" lon="6.07422">
        <ele>500</ele>
        <time>2021-09-11T10:16:52.228Z</time>
      </trkpt>
      <trkpt lat="45.89614" lon="6.07415">
        <ele>500</ele>
        <time>2021-09-11T10:16:53.228Z</time>
      </trkpt>
      <trkpt lat="45.89613" lon="6.07409">
        <ele>500</ele>
        <time>2021-09-11T10:16:54.228Z</time>
      </trkpt>
      <trkpt lat="45.89613" lon="6.07403">
        <ele>500</ele>
        <time>2021-09-11T10:16:55.228Z</time>
      </trkpt>
      <trkpt lat="45.89612" lon="6.07397">
        <ele>500</ele>
        <time>2021-09-11T10:16:56.228Z</time>
      </trkpt>
      <trkpt lat="45.89612" lon="6.07391">
        <ele>500</ele>
        <time>2021-09-11T10:16:57.228Z</time>
      </trkpt>
      <trkpt lat="45.89612" lon="6.07385">
        <ele>500</ele>
        <time>2021-09-11T10:16:58.227Z</time>
      </trkpt>
      <trkpt lat="45.89611" lon="6.0738">
        <ele>500</ele>
        <time>2021-09-11T10:16:59.228Z</time>
      </trkpt>
      <trkpt lat="45.89611" lon="6.07375">
        <ele>500</ele>
        <time>2021-09-11T10:17:00.228Z</time>
      </trkpt>
      <trkpt lat="45.89611" lon="6.07369">
        <ele>500</ele>
        <time>2021-09-11T10:17:01.227Z</time>
      </trkpt>
      <trkpt lat="45.8961" lon="6.07364">
        <ele>499</ele>
        <time>2021-09-11T10:17:02.228Z</time>
      </trkpt>
      <trkpt lat="45.8961" lon="6.07358">
        <ele>500</ele>
        <time>2021-09-11T10:17:03.228Z</time>
      </trkpt>
      <trkpt lat="45.89609" lon="6.07353">
        <ele>500</ele>
        <time>2021-09-11T10:17:04.228Z</time>
      </trkpt>
      <trkpt lat="45.89608" lon="6.07347">
        <ele>500</ele>
        <time>2021-09-11T10:17:05.228Z</time>
      </trkpt>
      <trkpt lat="45.89608" lon="6.07341">
        <ele>500</ele>
        <time>2021-09-11T10:17:06.227Z</time>
      </trkpt>
      <trkpt lat="45.89607" lon="6.07336">
        <ele>500</ele>
        <time>2021-09-11T10:17:07.228Z</time>
      </trkpt>
      <trkpt lat="45.89607" lon="6.0733">
        <ele>500</ele>
        <time>2021-09-11T10:17:08.228Z</time>
      </trkpt>
      <trkpt lat="45.89607" lon="6.07325">
        <ele>500</ele>
        <time>2021-09-11T10:17:09.228Z</time>
      </trkpt>
      <trkpt lat="45.89607" lon="6.07319">
        <ele>499</ele>
        <time>2021-09-11T10:17:10.228Z</time>
      </trkpt>
      <trkpt lat="45.89607" lon="6.07314">
        <ele>499</ele>
        <time>2021-09-11T10:17:11.228Z</time>
      </trkpt>
      <trkpt lat="45.89606" lon="6.07309">
        <ele>499</ele>
        <time>2021-09-11T10:17:12.228Z</time>
      </trkpt>
      <trkpt lat="45.89606" lon="6.07304">
        <ele>499</ele>
        <time>2021-09-11T10:17:13.228Z</time>
      </trkpt>
      <trkpt lat="45.89606" lon="6.07298">
        <ele>499</ele>
        <time>2021-09-11T10:17:14.227Z</time>
      </trkpt>
      <trkpt lat="45.89606" lon="6.07293">
        <ele>499</ele>
        <time>2021-09-11T10:17:15.228Z</time>
      </trkpt>
      <trkpt lat="45.89606" lon="6.07288">
        <ele>499</ele>
        <time>2021-09-11T10:17:16.228Z</time>
      </trkpt>
      <trkpt lat="45.89605" lon="6.07282">
        <ele>499</ele>
        <time>2021-09-11T10:17:17.227Z</time>
      </trkpt>
      <trkpt lat="45.89604" lon="6.07277">
        <ele>499</ele>
        <time>2021-09-11T10:17:18.228Z</time>
      </trkpt>
      <trkpt lat="45.89604" lon="6.07271">
        <ele>499</ele>
        <time>2021-09-11T10:17:19.228Z</time>
      </trkpt>
      <trkpt lat="45.89603" lon="6.07265">
        <ele>499</ele>
        <time>2021-09-11T10:17:20.227Z</time>
      </trkpt>
      <trkpt lat="45.89603" lon="6.07259">
        <ele>499</ele>
        <time>2021-09-11T10:17:21.228Z</time>
      </trkpt>
      <trkpt lat="45.89602" lon="6.07253">
        <ele>499</ele>
        <time>2021-09-11T10:17:22.227Z</time>
      </trkpt>
      <trkpt lat="45.89601" lon="6.07247">
        <ele>499</ele>
        <time>2021-09-11T10:17:23.227Z</time>
      </trkpt>
      <trkpt lat="45.896" lon="6.0724">
        <ele>499</ele>
        <time>2021-09-11T10:17:24.228Z</time>
      </trkpt>
      <trkpt lat="45.89598" lon="6.07233">
        <ele>499</ele>
        <time>2021-09-11T10:17:25.228Z</time>
      </trkpt>
      <trkpt lat="45.89597" lon="6.07226">
        <ele>499</ele>
        <time>2021-09-11T10:17:26.228Z</time>
      </trkpt>
      <trkpt lat="45.89595" lon="6.07219">
        <ele>499</ele>
        <time>2021-09-11T10:17:27.227Z</time>
      </trkpt>
      <trkpt lat="45.89592" lon="6.07211">
        <ele>499</ele>
        <time>2021-09-11T10:17:28.228Z</time>
      </trkpt>
      <trkpt lat="45.8959" lon="6.07203">
        <ele>499</ele>
        <time>2021-09-11T10:17:29.228Z</time>
      </trkpt>
      <trkpt lat="45.89587" lon="6.07195">
        <ele>499</ele>
        <time>2021-09-11T10:17:30.228Z</time>
      </trkpt>
      <trkpt lat="45.89585" lon="6.07186">
        <ele>499</ele>
        <time>2021-09-11T10:17:31.228Z</time>
      </trkpt>
      <trkpt lat="45.89582" lon="6.07178">
        <ele>499</ele>
        <time>2021-09-11T10:17:32.228Z</time>
      </trkpt>
      <trkpt lat="45.8958" lon="6.07169">
        <ele>499</ele>
        <time>2021-09-11T10:17:33.228Z</time>
      </trkpt>
      <trkpt lat="45.89579" lon="6.07159">
        <ele>498</ele>
        <time>2021-09-11T10:17:34.228Z</time>
      </trkpt>
      <trkpt lat="45.89577" lon="6.0715">
        <ele>498</ele>
        <time>2021-09-11T10:17:35.228Z</time>
      </trkpt>
      <trkpt lat="45.89576" lon="6.0714">
        <ele>498</ele>
        <time>2021-09-11T10:17:36.228Z</time>
      </trkpt>
      <trkpt lat="45.89574" lon="6.0713">
        <ele>498</ele>
        <time>2021-09-11T10:17:37.228Z</time>
      </trkpt>
      <trkpt lat="45.89573" lon="6.0712">
        <ele>497</ele>
        <time>2021-09-11T10:17:38.228Z</time>
      </trkpt>
      <trkpt lat="45.89572" lon="6.0711">
        <ele>497</ele>
        <time>2021-09-11T10:17:39.228Z</time>
      </trkpt>
      <trkpt lat="45.89571" lon="6.071">
        <ele>497</ele>
        <time>2021-09-11T10:17:40.227Z</time>
      </trkpt>
      <trkpt lat="45.8957" lon="6.0709">
        <ele>497</ele>
        <time>2021-09-11T10:17:41.228Z</time>
      </trkpt>
      <trkpt lat="45.89569" lon="6.0708">
        <ele>496</ele>
        <time>2021-09-11T10:17:42.228Z</time>
      </trkpt>
      <trkpt lat="45.89568" lon="6.07069">
        <ele>496</ele>
        <time>2021-09-11T10:17:43.228Z</time>
      </trkpt>
      <trkpt lat="45.89567" lon="6.07058">
        <ele>496</ele>
        <time>2021-09-11T10:17:44.228Z</time>
      </trkpt>
      <trkpt lat="45.89567" lon="6.07047">
        <ele>496</ele>
        <time>2021-09-11T10:17:45.228Z</time>
      </trkpt>
      <trkpt lat="45.89566" lon="6.07036">
        <ele>496</ele>
        <time>2021-09-11T10:17:46.228Z</time>
      </trkpt>
      <trkpt lat="45.89566" lon="6.07024">
        <ele>496</ele>
        <time>2021-09-11T10:17:47.228Z</time>
      </trkpt>
      <trkpt lat="45.89566" lon="6.07013">
        <ele>496</ele>
        <time>2021-09-11T10:17:48.228Z</time>
      </trkpt>
      <trkpt lat="45.89566" lon="6.07002">
        <ele>496</ele>
        <time>2021-09-11T10:17:49.228Z</time>
      </trkpt>
      <trkpt lat="45.89566" lon="6.06991">
        <ele>495</ele>
        <time>2021-09-11T10:17:50.228Z</time>
      </trkpt>
      <trkpt lat="45.89567" lon="6.0698">
        <ele>495</ele>
        <time>2021-09-11T10:17:51.227Z</time>
      </trkpt>
      <trkpt lat="45.89568" lon="6.0697">
        <ele>495</ele>
        <time>2021-09-11T10:17:52.228Z</time>
      </trkpt>
      <trkpt lat="45.89569" lon="6.06961">
        <ele>495</ele>
        <time>2021-09-11T10:17:53.228Z</time>
      </trkpt>
      <trkpt lat="45.8957" lon="6.06952">
        <ele>494</ele>
        <time>2021-09-11T10:17:54.228Z</time>
      </trkpt>
      <trkpt lat="45.89572" lon="6.06944">
        <ele>494</ele>
        <time>2021-09-11T10:17:55.227Z</time>
      </trkpt>
      <trkpt lat="45.89573" lon="6.06936">
        <ele>494</ele>
        <time>2021-09-11T10:17:56.227Z</time>
      </trkpt>
      <trkpt lat="45.89575" lon="6.06929">
        <ele>494</ele>
        <time>2021-09-11T10:17:57.228Z</time>
      </trkpt>
      <trkpt lat="45.89577" lon="6.06923">
        <ele>495</ele>
        <time>2021-09-11T10:17:58.228Z</time>
      </trkpt>
      <trkpt lat="45.8958" lon="6.06918">
        <ele>495</ele>
        <time>2021-09-11T10:17:59.228Z</time>
      </trkpt>
      <trkpt lat="45.89582" lon="6.06913">
        <ele>495</ele>
        <time>2021-09-11T10:18:00.228Z</time>
      </trkpt>
      <trkpt lat="45.89585" lon="6.06909">
        <ele>495</ele>
        <time>2021-09-11T10:18:01.228Z</time>
      </trkpt>
      <trkpt lat="45.89587" lon="6.06905">
        <ele>495</ele>
        <time>2021-09-11T10:18:02.227Z</time>
      </trkpt>
      <trkpt lat="45.8959" lon="6.06901">
        <ele>495</ele>
        <time>2021-09-11T10:18:03.227Z</time>
      </trkpt>
      <trkpt lat="45.89592" lon="6.06897">
        <ele>494</ele>
        <time>2021-09-11T10:18:04.228Z</time>
      </trkpt>
      <trkpt lat="45.89594" lon="6.06894">
        <ele>494</ele>
        <time>2021-09-11T10:18:05.228Z</time>
      </trkpt>
      <trkpt lat="45.89597" lon="6.06891">
        <ele>494</ele>
        <time>2021-09-11T10:18:06.227Z</time>
      </trkpt>
      <trkpt lat="45.89599" lon="6.06888">
        <ele>493</ele>
        <time>2021-09-11T10:18:07.228Z</time>
      </trkpt>
      <trkpt lat="45.89601" lon="6.06885">
        <ele>493</ele>
        <time>2021-09-11T10:18:08.227Z</time>
      </trkpt>
      <trkpt lat="45.89603" lon="6.06883">
        <ele>493</ele>
        <time>2021-09-11T10:18:09.228Z</time>
      </trkpt>
      <trkpt lat="45.89605" lon="6.0688">
        <ele>493</ele>
        <time>2021-09-11T10:18:10.228Z</time>
      </trkpt>
      <trkpt lat="45.89607" lon="6.06877">
        <ele>493</ele>
        <time>2021-09-11T10:18:11.228Z</time>
      </trkpt>
      <trkpt lat="45.89608" lon="6.06874">
        <ele>493</ele>
        <time>2021-09-11T10:18:12.227Z</time>
      </trkpt>
      <trkpt lat="45.8961" lon="6.06872">
        <ele>493</ele>
        <time>2021-09-11T10:18:13.228Z</time>
      </trkpt>
      <trkpt lat="45.89611" lon="6.0687">
        <ele>493</ele>
        <time>2021-09-11T10:18:14.227Z</time>
      </trkpt>
      <trkpt lat="45.89613" lon="6.06868">
        <ele>492</ele>
        <time>2021-09-11T10:18:15.228Z</time>
      </trkpt>
      <trkpt lat="45.89614" lon="6.06866">
        <ele>492</ele>
        <time>2021-09-11T10:18:16.228Z</time>
      </trkpt>
      <trkpt lat="45.89616" lon="6.06864">
        <ele>492</ele>
        <time>2021-09-11T10:18:17.227Z</time>
      </trkpt>
      <trkpt lat="45.89618" lon="6.06863">
        <ele>492</ele>
        <time>2021-09-11T10:18:18.228Z</time>
      </trkpt>
      <trkpt lat="45.89619" lon="6.06861">
        <ele>492</ele>
        <time>2021-09-11T10:18:19.228Z</time>
      </trkpt>
      <trkpt lat="45.89621" lon="6.06859">
        <ele>492</ele>
        <time>2021-09-11T10:18:20.228Z</time>
      </trkpt>
      <trkpt lat="45.89622" lon="6.06857">
        <ele>493</ele>
        <time>2021-09-11T10:18:21.228Z</time>
      </trkpt>
      <trkpt lat="45.89624" lon="6.06855">
        <ele>493</ele>
        <time>2021-09-11T10:18:22.227Z</time>
      </trkpt>
      <trkpt lat="45.89625" lon="6.06853">
        <ele>493</ele>
        <time>2021-09-11T10:18:23.228Z</time>
      </trkpt>
      <trkpt lat="45.89627" lon="6.06851">
        <ele>494</ele>
        <time>2021-09-11T10:18:24.227Z</time>
      </trkpt>
      <trkpt lat="45.89628" lon="6.06849">
        <ele>494</ele>
        <time>2021-09-11T10:18:25.228Z</time>
      </trkpt>
      <trkpt lat="45.8963" lon="6.06847">
        <ele>495</ele>
        <time>2021-09-11T10:18:26.228Z</time>
      </trkpt>
      <trkpt lat="45.89632" lon="6.06845">
        <ele>495</ele>
        <time>2021-09-11T10:18:27.228Z</time>
      </trkpt>
      <trkpt lat="45.89633" lon="6.06842">
        <ele>496</ele>
        <time>2021-09-11T10:18:28.228Z</time>
      </trkpt>
      <trkpt lat="45.89636" lon="6.0684">
        <ele>497</ele>
        <time>2021-09-11T10:18:29.227Z</time>
      </trkpt>
      <trkpt lat="45.89637" lon="6.06838">
        <ele>497</ele>
        <time>2021-09-11T10:18:30.228Z</time>
      </trkpt>
      <trkpt lat="45.89639" lon="6.06836">
        <ele>498</ele>
        <time>2021-09-11T10:18:31.228Z</time>
      </trkpt>
      <trkpt lat="45.89641" lon="6.06834">
        <ele>498</ele>
        <time>2021-09-11T10:18:32.228Z</time>
      </trkpt>
      <trkpt lat="45.89642" lon="6.06833">
        <ele>498</ele>
        <time>2021-09-11T10:18:33.228Z</time>
      </trkpt>
      <trkpt lat="45.89644" lon="6.06831">
        <ele>498</ele>
        <time>2021-09-11T10:18:34.228Z</time>
      </trkpt>
      <trkpt lat="45.89646" lon="6.06829">
        <ele>499</ele>
        <time>2021-09-11T10:18:35.228Z</time>
      </trkpt>
      <trkpt lat="45.89647" lon="6.06827">
        <ele>499</ele>
        <time>2021-09-11T10:18:36.228Z</time>
      </trkpt>
      <trkpt lat="45.89649" lon="6.06825">
        <ele>499</ele>
        <time>2021-09-11T10:18:37.228Z</time>
      </trkpt>
      <trkpt lat="45.89651" lon="6.06823">
        <ele>500</ele>
        <time>2021-09-11T10:18:38.228Z</time>
      </trkpt>
      <trkpt lat="45.89652" lon="6.06822">
        <ele>500</ele>
        <time>2021-09-11T10:18:39.228Z</time>
      </trkpt>
      <trkpt lat="45.89653" lon="6.0682">
        <ele>500</ele>
        <time>2021-09-11T10:18:40.228Z</time>
      </trkpt>
      <trkpt lat="45.89655" lon="6.06818">
        <ele>500</ele>
        <time>2021-09-11T10:18:41.228Z</time>
      </trkpt>
      <trkpt lat="45.89656" lon="6.06816">
        <ele>501</ele>
        <time>2021-09-11T10:18:42.228Z</time>
      </trkpt>
      <trkpt lat="45.89657" lon="6.06814">
        <ele>501</ele>
        <time>2021-09-11T10:18:43.227Z</time>
      </trkpt>
      <trkpt lat="45.89659" lon="6.06812">
        <ele>501</ele>
        <time>2021-09-11T10:18:44.228Z</time>
      </trkpt>
      <trkpt lat="45.8966" lon="6.06811">
        <ele>501</ele>
        <time>2021-09-11T10:18:45.228Z</time>
      </trkpt>
      <trkpt lat="45.89662" lon="6.06809">
        <ele>501</ele>
        <time>2021-09-11T10:18:46.228Z</time>
      </trkpt>
      <trkpt lat="45.89663" lon="6.06806">
        <ele>502</ele>
        <time>2021-09-11T10:18:47.228Z</time>
      </trkpt>
      <trkpt lat="45.89665" lon="6.06804">
        <ele>502</ele>
        <time>2021-09-11T10:18:48.228Z</time>
      </trkpt>
      <trkpt lat="45.89665" lon="6.06801">
        <ele>502</ele>
        <time>2021-09-11T10:18:49.228Z</time>
      </trkpt>
      <trkpt lat="45.89666" lon="6.06799">
        <ele>502</ele>
        <time>2021-09-11T10:18:50.228Z</time>
      </trkpt>
      <trkpt lat="45.89667" lon="6.06796">
        <ele>502</ele>
        <time>2021-09-11T10:18:51.228Z</time>
      </trkpt>
      <trkpt lat="45.89667" lon="6.06794">
        <ele>503</ele>
        <time>2021-09-11T10:18:52.227Z</time>
      </trkpt>
      <trkpt lat="45.89667" lon="6.0679">
        <ele>503</ele>
        <time>2021-09-11T10:18:53.228Z</time>
      </trkpt>
      <trkpt lat="45.89666" lon="6.06788">
        <ele>503</ele>
        <time>2021-09-11T10:18:54.227Z</time>
      </trkpt>
      <trkpt lat="45.89666" lon="6.06785">
        <ele>504</ele>
        <time>2021-09-11T10:18:55.228Z</time>
      </trkpt>
      <trkpt lat="45.89664" lon="6.06783">
        <ele>504</ele>
        <time>2021-09-11T10:18:56.228Z</time>
      </trkpt>
      <trkpt lat="45.89663" lon="6.06781">
        <ele>504</ele>
        <time>2021-09-11T10:18:57.228Z</time>
      </trkpt>
      <trkpt lat="45.89661" lon="6.06779">
        <ele>504</ele>
        <time>2021-09-11T10:18:58.227Z</time>
      </trkpt>
      <trkpt lat="45.8966" lon="6.06778">
        <ele>504</ele>
        <time>2021-09-11T10:18:59.228Z</time>
      </trkpt>
      <trkpt lat="45.89658" lon="6.06777">
        <ele>504</ele>
        <time>2021-09-11T10:19:00.228Z</time>
      </trkpt>
      <trkpt lat="45.89656" lon="6.06777">
        <ele>505</ele>
        <time>2021-09-11T10:19:01.228Z</time>
      </trkpt>
      <trkpt lat="45.89654" lon="6.06776">
        <ele>505</ele>
        <time>2021-09-11T10:19:02.228Z</time>
      </trkpt>
      <trkpt lat="45.89652" lon="6.06775">
        <ele>505</ele>
        <time>2021-09-11T10:19:03.228Z</time>
      </trkpt>
      <trkpt lat="45.8965" lon="6.06773">
        <ele>505</ele>
        <time>2021-09-11T10:19:04.227Z</time>
      </trkpt>
      <trkpt lat="45.89649" lon="6.06772">
        <ele>504</ele>
        <time>2021-09-11T10:19:05.228Z</time>
      </trkpt>
      <trkpt lat="45.89647" lon="6.0677">
        <ele>504</ele>
        <time>2021-09-11T10:19:06.228Z</time>
      </trkpt>
      <trkpt lat="45.89645" lon="6.06769">
        <ele>504</ele>
        <time>2021-09-11T10:19:07.228Z</time>
      </trkpt>
      <trkpt lat="45.89643" lon="6.06768">
        <ele>503</ele>
        <time>2021-09-11T10:19:08.227Z</time>
      </trkpt>
      <trkpt lat="45.89641" lon="6.06766">
        <ele>503</ele>
        <time>2021-09-11T10:19:09.228Z</time>
      </trkpt>
      <trkpt lat="45.89639" lon="6.06765">
        <ele>504</ele>
        <time>2021-09-11T10:19:10.228Z</time>
      </trkpt>
      <trkpt lat="45.89637" lon="6.06764">
        <ele>504</ele>
        <time>2021-09-11T10:19:11.228Z</time>
      </trkpt>
      <trkpt lat="45.89636" lon="6.06762">
        <ele>504</ele>
        <time>2021-09-11T10:19:12.228Z</time>
      </trkpt>
      <trkpt lat="45.89634" lon="6.06761">
        <ele>504</ele>
        <time>2021-09-11T10:19:13.227Z</time>
      </trkpt>
      <trkpt lat="45.89632" lon="6.06759">
        <ele>504</ele>
        <time>2021-09-11T10:19:14.227Z</time>
      </trkpt>
      <trkpt lat="45.8963" lon="6.06757">
        <ele>504</ele>
        <time>2021-09-11T10:19:15.228Z</time>
      </trkpt>
      <trkpt lat="45.89629" lon="6.06756">
        <ele>504</ele>
        <time>2021-09-11T10:19:16.228Z</time>
      </trkpt>
      <trkpt lat="45.89627" lon="6.06754">
        <ele>505</ele>
        <time>2021-09-11T10:19:17.228Z</time>
      </trkpt>
      <trkpt lat="45.89625" lon="6.06752">
        <ele>504</ele>
        <time>2021-09-11T10:19:18.228Z</time>
      </trkpt>
      <trkpt lat="45.89624" lon="6.0675">
        <ele>504</ele>
        <time>2021-09-11T10:19:19.228Z</time>
      </trkpt>
      <trkpt lat="45.89622" lon="6.06748">
        <ele>504</ele>
        <time>2021-09-11T10:19:20.228Z</time>
      </trkpt>
      <trkpt lat="45.8962" lon="6.06747">
        <ele>504</ele>
        <time>2021-09-11T10:19:21.227Z</time>
      </trkpt>
      <trkpt lat="45.89618" lon="6.06745">
        <ele>504</ele>
        <time>2021-09-11T10:19:22.227Z</time>
      </trkpt>
      <trkpt lat="45.89616" lon="6.06744">
        <ele>505</ele>
        <time>2021-09-11T10:19:23.228Z</time>
      </trkpt>
      <trkpt lat="45.89615" lon="6.06743">
        <ele>505</ele>
        <time>2021-09-11T10:19:24.228Z</time>
      </trkpt>
      <trkpt lat="45.89613" lon="6.06741">
        <ele>505</ele>
        <time>2021-09-11T10:19:25.228Z</time>
      </trkpt>
      <trkpt lat="45.89612" lon="6.06739">
        <ele>506</ele>
        <time>2021-09-11T10:19:26.228Z</time>
      </trkpt>
      <trkpt lat="45.8961" lon="6.06737">
        <ele>506</ele>
        <time>2021-09-11T10:19:27.228Z</time>
      </trkpt>
      <trkpt lat="45.89609" lon="6.06735">
        <ele>506</ele>
        <time>2021-09-11T10:19:28.228Z</time>
      </trkpt>
      <trkpt lat="45.89608" lon="6.06733">
        <ele>507</ele>
        <time>2021-09-11T10:19:29.227Z</time>
      </trkpt>
      <trkpt lat="45.89606" lon="6.06731">
        <ele>507</ele>
        <time>2021-09-11T10:19:30.227Z</time>
      </trkpt>
      <trkpt lat="45.89605" lon="6.06729">
        <ele>508</ele>
        <time>2021-09-11T10:19:31.227Z</time>
      </trkpt>
      <trkpt lat="45.89604" lon="6.06727">
        <ele>508</ele>
        <time>2021-09-11T10:19:32.228Z</time>
      </trkpt>
      <trkpt lat="45.89602" lon="6.06725">
        <ele>508</ele>
        <time>2021-09-11T10:19:33.228Z</time>
      </trkpt>
      <trkpt lat="45.89601" lon="6.06723">
        <ele>508</ele>
        <time>2021-09-11T10:19:34.228Z</time>
      </trkpt>
      <trkpt lat="45.896" lon="6.0672">
        <ele>509</ele>
        <time>2021-09-11T10:19:35.228Z</time>
      </trkpt>
      <trkpt lat="45.89599" lon="6.06718">
        <ele>509</ele>
        <time>2021-09-11T10:19:36.228Z</time>
      </trkpt>
      <trkpt lat="45.89597" lon="6.06716">
        <ele>510</ele>
        <time>2021-09-11T10:19:37.228Z</time>
      </trkpt>
      <trkpt lat="45.89596" lon="6.06714">
        <ele>510</ele>
        <time>2021-09-11T10:19:38.227Z</time>
      </trkpt>
      <trkpt lat="45.89595" lon="6.06712">
        <ele>510</ele>
        <time>2021-09-11T10:19:39.228Z</time>
      </trkpt>
      <trkpt lat="45.89593" lon="6.0671">
        <ele>511</ele>
        <time>2021-09-11T10:19:40.228Z</time>
      </trkpt>
      <trkpt lat="45.89592" lon="6.06708">
        <ele>511</ele>
        <time>2021-09-11T10:19:41.227Z</time>
      </trkpt>
      <trkpt lat="45.89591" lon="6.06706">
        <ele>512</ele>
        <time>2021-09-11T10:19:42.227Z</time>
      </trkpt>
      <trkpt lat="45.8959" lon="6.06704">
        <ele>512</ele>
        <time>2021-09-11T10:19:43.228Z</time>
      </trkpt>
      <trkpt lat="45.89589" lon="6.06701">
        <ele>512</ele>
        <time>2021-09-11T10:19:44.228Z</time>
      </trkpt>
      <trkpt lat="45.89588" lon="6.06699">
        <ele>513</ele>
        <time>2021-09-11T10:19:45.228Z</time>
      </trkpt>
      <trkpt lat="45.89587" lon="6.06697">
        <ele>513</ele>
        <time>2021-09-11T10:19:46.228Z</time>
      </trkpt>
      <trkpt lat="45.89586" lon="6.06694">
        <ele>513</ele>
        <time>2021-09-11T10:19:47.228Z</time>
      </trkpt>
      <trkpt lat="45.89585" lon="6.06692">
        <ele>513</ele>
        <time>2021-09-11T10:19:48.227Z</time>
      </trkpt>
      <trkpt lat="45.89585" lon="6.06689">
        <ele>514</ele>
        <time>2021-09-11T10:19:49.228Z</time>
      </trkpt>
      <trkpt lat="45.89585" lon="6.06687">
        <ele>514</ele>
        <time>2021-09-11T10:19:50.228Z</time>
      </trkpt>
      <trkpt lat="45.89585" lon="6.06685">
        <ele>514</ele>
        <time>2021-09-11T10:19:51.228Z</time>
      </trkpt>
      <trkpt lat="45.89585" lon="6.06684">
        <ele>514</ele>
        <time>2021-09-11T10:19:52.227Z</time>
      </trkpt>
      <trkpt lat="45.89586" lon="6.06684">
        <ele>514</ele>
        <time>2021-09-11T10:19:53.228Z</time>
      </trkpt>
      <trkpt lat="45.89586" lon="6.06684">
        <ele>515</ele>
        <time>2021-09-11T10:19:54.228Z</time>
      </trkpt>
      <trkpt lat="45.89584" lon="6.06678">
        <ele>518</ele>
        <time>2021-09-11T10:19:55.229Z</time>
      </trkpt>
      <trkpt lat="45.89584" lon="6.06674">
        <ele>518</ele>
        <time>2021-09-11T10:19:56.229Z</time>
      </trkpt>
      <trkpt lat="45.89583" lon="6.06671">
        <ele>518</ele>
        <time>2021-09-11T10:19:57.228Z</time>
      </trkpt>
      <trkpt lat="45.89582" lon="6.06667">
        <ele>517</ele>
        <time>2021-09-11T10:19:58.228Z</time>
      </trkpt>
      <trkpt lat="45.89582" lon="6.06663">
        <ele>517</ele>
        <time>2021-09-11T10:19:59.229Z</time>
      </trkpt>
      <trkpt lat="45.89581" lon="6.0666">
        <ele>517</ele>
        <time>2021-09-11T10:20:00.229Z</time>
      </trkpt>
      <trkpt lat="45.8958" lon="6.06656">
        <ele>516</ele>
        <time>2021-09-11T10:20:01.228Z</time>
      </trkpt>
      <trkpt lat="45.8958" lon="6.06652">
        <ele>516</ele>
        <time>2021-09-11T10:20:02.229Z</time>
      </trkpt>
      <trkpt lat="45.8958" lon="6.06648">
        <ele>516</ele>
        <time>2021-09-11T10:20:03.229Z</time>
      </trkpt>
      <trkpt lat="45.8958" lon="6.06645">
        <ele>517</ele>
        <time>2021-09-11T10:20:04.228Z</time>
      </trkpt>
      <trkpt lat="45.89579" lon="6.06641">
        <ele>517</ele>
        <time>2021-09-11T10:20:05.228Z</time>
      </trkpt>
      <trkpt lat="45.89579" lon="6.06638">
        <ele>517</ele>
        <time>2021-09-11T10:20:06.229Z</time>
      </trkpt>
      <trkpt lat="45.89579" lon="6.06635">
        <ele>517</ele>
        <time>2021-09-11T10:20:07.229Z</time>
      </trkpt>
      <trkpt lat="45.89578" lon="6.06631">
        <ele>517</ele>
        <time>2021-09-11T10:20:08.229Z</time>
      </trkpt>
      <trkpt lat="45.89577" lon="6.06628">
        <ele>516</ele>
        <time>2021-09-11T10:20:09.228Z</time>
      </trkpt>
      <trkpt lat="45.89577" lon="6.06624">
        <ele>517</ele>
        <time>2021-09-11T10:20:10.229Z</time>
      </trkpt>
      <trkpt lat="45.89576" lon="6.06621">
        <ele>516</ele>
        <time>2021-09-11T10:20:11.229Z</time>
      </trkpt>
      <trkpt lat="45.89576" lon="6.06617">
        <ele>516</ele>
        <time>2021-09-11T10:20:12.228Z</time>
      </trkpt>
      <trkpt lat="45.89575" lon="6.06614">
        <ele>516</ele>
        <time>2021-09-11T10:20:13.228Z</time>
      </trkpt>
      <trkpt lat="45.89575" lon="6.0661">
        <ele>516</ele>
        <time>2021-09-11T10:20:14.229Z</time>
      </trkpt>
      <trkpt lat="45.89575" lon="6.06606">
        <ele>516</ele>
        <time>2021-09-11T10:20:15.229Z</time>
      </trkpt>
      <trkpt lat="45.89574" lon="6.06603">
        <ele>516</ele>
        <time>2021-09-11T10:20:16.229Z</time>
      </trkpt>
      <trkpt lat="45.89574" lon="6.06599">
        <ele>517</ele>
        <time>2021-09-11T10:20:17.229Z</time>
      </trkpt>
      <trkpt lat="45.89574" lon="6.06596">
        <ele>517</ele>
        <time>2021-09-11T10:20:18.229Z</time>
      </trkpt>
      <trkpt lat="45.89574" lon="6.06592">
        <ele>517</ele>
        <time>2021-09-11T10:20:19.229Z</time>
      </trkpt>
      <trkpt lat="45.89573" lon="6.06589">
        <ele>518</ele>
        <time>2021-09-11T10:20:20.228Z</time>
      </trkpt>
      <trkpt lat="45.89573" lon="6.06586">
        <ele>518</ele>
        <time>2021-09-11T10:20:21.228Z</time>
      </trkpt>
      <trkpt lat="45.89572" lon="6.06582">
        <ele>518</ele>
        <time>2021-09-11T10:20:22.229Z</time>
      </trkpt>
      <trkpt lat="45.89571" lon="6.06579">
        <ele>519</ele>
        <time>2021-09-11T10:20:23.229Z</time>
      </trkpt>
      <trkpt lat="45.89569" lon="6.06576">
        <ele>519</ele>
        <time>2021-09-11T10:20:24.229Z</time>
      </trkpt>
      <trkpt lat="45.89568" lon="6.06574">
        <ele>519</ele>
        <time>2021-09-11T10:20:25.228Z</time>
      </trkpt>
      <trkpt lat="45.89566" lon="6.06571">
        <ele>519</ele>
        <time>2021-09-11T10:20:26.229Z</time>
      </trkpt>
      <trkpt lat="45.89564" lon="6.06569">
        <ele>520</ele>
        <time>2021-09-11T10:20:27.229Z</time>
      </trkpt>
      <trkpt lat="45.89563" lon="6.06567">
        <ele>520</ele>
        <time>2021-09-11T10:20:28.228Z</time>
      </trkpt>
      <trkpt lat="45.89561" lon="6.06564">
        <ele>520</ele>
        <time>2021-09-11T10:20:29.229Z</time>
      </trkpt>
      <trkpt lat="45.89559" lon="6.06562">
        <ele>521</ele>
        <time>2021-09-11T10:20:30.229Z</time>
      </trkpt>
      <trkpt lat="45.89557" lon="6.0656">
        <ele>521</ele>
        <time>2021-09-11T10:20:31.228Z</time>
      </trkpt>
      <trkpt lat="45.89555" lon="6.06558">
        <ele>522</ele>
        <time>2021-09-11T10:20:32.229Z</time>
      </trkpt>
      <trkpt lat="45.89553" lon="6.06556">
        <ele>522</ele>
        <time>2021-09-11T10:20:33.229Z</time>
      </trkpt>
      <trkpt lat="45.89551" lon="6.06553">
        <ele>522</ele>
        <time>2021-09-11T10:20:34.229Z</time>
      </trkpt>
      <trkpt lat="45.8955" lon="6.0655">
        <ele>522</ele>
        <time>2021-09-11T10:20:35.229Z</time>
      </trkpt>
      <trkpt lat="45.89548" lon="6.06548">
        <ele>522</ele>
        <time>2021-09-11T10:20:36.229Z</time>
      </trkpt>
      <trkpt lat="45.89547" lon="6.06545">
        <ele>522</ele>
        <time>2021-09-11T10:20:37.228Z</time>
      </trkpt>
      <trkpt lat="45.89545" lon="6.06543">
        <ele>522</ele>
        <time>2021-09-11T10:20:38.229Z</time>
      </trkpt>
      <trkpt lat="45.89543" lon="6.06541">
        <ele>522</ele>
        <time>2021-09-11T10:20:39.228Z</time>
      </trkpt>
      <trkpt lat="45.89542" lon="6.06539">
        <ele>522</ele>
        <time>2021-09-11T10:20:40.229Z</time>
      </trkpt>
      <trkpt lat="45.89539" lon="6.06537">
        <ele>522</ele>
        <time>2021-09-11T10:20:41.228Z</time>
      </trkpt>
      <trkpt lat="45.89537" lon="6.06535">
        <ele>522</ele>
        <time>2021-09-11T10:20:42.229Z</time>
      </trkpt>
      <trkpt lat="45.89535" lon="6.06533">
        <ele>522</ele>
        <time>2021-09-11T10:20:43.229Z</time>
      </trkpt>
      <trkpt lat="45.89534" lon="6.06532">
        <ele>522</ele>
        <time>2021-09-11T10:20:44.229Z</time>
      </trkpt>
      <trkpt lat="45.89532" lon="6.0653">
        <ele>522</ele>
        <time>2021-09-11T10:20:45.229Z</time>
      </trkpt>
      <trkpt lat="45.8953" lon="6.06528">
        <ele>521</ele>
        <time>2021-09-11T10:20:46.228Z</time>
      </trkpt>
      <trkpt lat="45.89528" lon="6.06526">
        <ele>521</ele>
        <time>2021-09-11T10:20:47.229Z</time>
      </trkpt>
      <trkpt lat="45.89526" lon="6.06524">
        <ele>521</ele>
        <time>2021-09-11T10:20:48.228Z</time>
      </trkpt>
      <trkpt lat="45.89524" lon="6.06523">
        <ele>521</ele>
        <time>2021-09-11T10:20:49.229Z</time>
      </trkpt>
      <trkpt lat="45.89522" lon="6.06521">
        <ele>521</ele>
        <time>2021-09-11T10:20:50.228Z</time>
      </trkpt>
      <trkpt lat="45.8952" lon="6.06519">
        <ele>521</ele>
        <time>2021-09-11T10:20:51.228Z</time>
      </trkpt>
      <trkpt lat="45.89517" lon="6.06517">
        <ele>521</ele>
        <time>2021-09-11T10:20:52.229Z</time>
      </trkpt>
      <trkpt lat="45.89515" lon="6.06514">
        <ele>521</ele>
        <time>2021-09-11T10:20:53.229Z</time>
      </trkpt>
      <trkpt lat="45.89512" lon="6.06512">
        <ele>521</ele>
        <time>2021-09-11T10:20:54.228Z</time>
      </trkpt>
      <trkpt lat="45.89509" lon="6.06509">
        <ele>520</ele>
        <time>2021-09-11T10:20:55.229Z</time>
      </trkpt>
      <trkpt lat="45.89506" lon="6.06506">
        <ele>520</ele>
        <time>2021-09-11T10:20:56.229Z</time>
      </trkpt>
      <trkpt lat="45.89503" lon="6.06503">
        <ele>520</ele>
        <time>2021-09-11T10:20:57.229Z</time>
      </trkpt>
      <trkpt lat="45.89499" lon="6.065">
        <ele>520</ele>
        <time>2021-09-11T10:20:58.228Z</time>
      </trkpt>
      <trkpt lat="45.89496" lon="6.06497">
        <ele>520</ele>
        <time>2021-09-11T10:20:59.229Z</time>
      </trkpt>
      <trkpt lat="45.89493" lon="6.06494">
        <ele>520</ele>
        <time>2021-09-11T10:21:00.228Z</time>
      </trkpt>
      <trkpt lat="45.89491" lon="6.06492">
        <ele>521</ele>
        <time>2021-09-11T10:21:01.229Z</time>
      </trkpt>
      <trkpt lat="45.89489" lon="6.06489">
        <ele>521</ele>
        <time>2021-09-11T10:21:02.229Z</time>
      </trkpt>
      <trkpt lat="45.89486" lon="6.06487">
        <ele>521</ele>
        <time>2021-09-11T10:21:03.229Z</time>
      </trkpt>
      <trkpt lat="45.89485" lon="6.06485">
        <ele>521</ele>
        <time>2021-09-11T10:21:04.229Z</time>
      </trkpt>
      <trkpt lat="45.89483" lon="6.06484">
        <ele>521</ele>
        <time>2021-09-11T10:21:05.229Z</time>
      </trkpt>
      <trkpt lat="45.89483" lon="6.06483">
        <ele>520</ele>
        <time>2021-09-11T10:21:06.228Z</time>
      </trkpt>
      <trkpt lat="45.89483" lon="6.06483">
        <ele>520</ele>
        <time>2021-09-11T10:21:07.229Z</time>
      </trkpt>
      <trkpt lat="45.89483" lon="6.06483">
        <ele>519</ele>
        <time>2021-09-11T10:21:08.229Z</time>
      </trkpt>
      <trkpt lat="45.89483" lon="6.06483">
        <ele>518</ele>
        <time>2021-09-11T10:21:09.229Z</time>
      </trkpt>
      <trkpt lat="45.89483" lon="6.06483">
        <ele>518</ele>
        <time>2021-09-11T10:21:10.229Z</time>
      </trkpt>
      <trkpt lat="45.89483" lon="6.06483">
        <ele>517</ele>
        <time>2021-09-11T10:21:11.229Z</time>
      </trkpt>
      <trkpt lat="45.89483" lon="6.06479">
        <ele>507</ele>
        <time>2021-09-11T10:21:12.230Z</time>
      </trkpt>
      <trkpt lat="45.89478" lon="6.06476">
        <ele>508</ele>
        <time>2021-09-11T10:21:13.231Z</time>
      </trkpt>
      <trkpt lat="45.89474" lon="6.06473">
        <ele>508</ele>
        <time>2021-09-11T10:21:14.230Z</time>
      </trkpt>
      <trkpt lat="45.89468" lon="6.0647">
        <ele>508</ele>
        <time>2021-09-11T10:21:15.230Z</time>
      </trkpt>
      <trkpt lat="45.89462" lon="6.06466">
        <ele>508</ele>
        <time>2021-09-11T10:21:16.231Z</time>
      </trkpt>
      <trkpt lat="45.89456" lon="6.06463">
        <ele>508</ele>
        <time>2021-09-11T10:21:17.231Z</time>
      </trkpt>
      <trkpt lat="45.8945" lon="6.06459">
        <ele>508</ele>
        <time>2021-09-11T10:21:18.231Z</time>
      </trkpt>
      <trkpt lat="45.89444" lon="6.06455">
        <ele>508</ele>
        <time>2021-09-11T10:21:19.231Z</time>
      </trkpt>
      <trkpt lat="45.89438" lon="6.0645">
        <ele>508</ele>
        <time>2021-09-11T10:21:20.231Z</time>
      </trkpt>
      <trkpt lat="45.89432" lon="6.06446">
        <ele>508</ele>
        <time>2021-09-11T10:21:21.230Z</time>
      </trkpt>
      <trkpt lat="45.89425" lon="6.06441">
        <ele>508</ele>
        <time>2021-09-11T10:21:22.230Z</time>
      </trkpt>
      <trkpt lat="45.89419" lon="6.06437">
        <ele>508</ele>
        <time>2021-09-11T10:21:23.231Z</time>
      </trkpt>
      <trkpt lat="45.89412" lon="6.06432">
        <ele>508</ele>
        <time>2021-09-11T10:21:24.230Z</time>
      </trkpt>
      <trkpt lat="45.89405" lon="6.06427">
        <ele>508</ele>
        <time>2021-09-11T10:21:25.231Z</time>
      </trkpt>
      <trkpt lat="45.89399" lon="6.06422">
        <ele>508</ele>
        <time>2021-09-11T10:21:26.230Z</time>
      </trkpt>
      <trkpt lat="45.89393" lon="6.06417">
        <ele>508</ele>
        <time>2021-09-11T10:21:27.230Z</time>
      </trkpt>
      <trkpt lat="45.89387" lon="6.06414">
        <ele>507</ele>
        <time>2021-09-11T10:21:28.231Z</time>
      </trkpt>
      <trkpt lat="45.89382" lon="6.0641">
        <ele>507</ele>
        <time>2021-09-11T10:21:29.231Z</time>
      </trkpt>
      <trkpt lat="45.89377" lon="6.06407">
        <ele>507</ele>
        <time>2021-09-11T10:21:30.231Z</time>
      </trkpt>
      <trkpt lat="45.89373" lon="6.06405">
        <ele>507</ele>
        <time>2021-09-11T10:21:31.231Z</time>
      </trkpt>
      <trkpt lat="45.89369" lon="6.06403">
        <ele>507</ele>
        <time>2021-09-11T10:21:32.231Z</time>
      </trkpt>
      <trkpt lat="45.89366" lon="6.06402">
        <ele>507</ele>
        <time>2021-09-11T10:21:33.231Z</time>
      </trkpt>
      <trkpt lat="45.89364" lon="6.06402">
        <ele>506</ele>
        <time>2021-09-11T10:21:34.230Z</time>
      </trkpt>
      <trkpt lat="45.89363" lon="6.06401">
        <ele>506</ele>
        <time>2021-09-11T10:21:35.231Z</time>
      </trkpt>
      <trkpt lat="45.89363" lon="6.06402">
        <ele>506</ele>
        <time>2021-09-11T10:21:36.231Z</time>
      </trkpt>
      <trkpt lat="45.89362" lon="6.06402">
        <ele>506</ele>
        <time>2021-09-11T10:21:37.231Z</time>
      </trkpt>
      <trkpt lat="45.89356" lon="6.06411">
        <ele>500</ele>
        <time>2021-09-11T10:21:38.232Z</time>
      </trkpt>
      <trkpt lat="45.89352" lon="6.06412">
        <ele>500</ele>
        <time>2021-09-11T10:21:39.232Z</time>
      </trkpt>
      <trkpt lat="45.89348" lon="6.06413">
        <ele>500</ele>
        <time>2021-09-11T10:21:40.231Z</time>
      </trkpt>
      <trkpt lat="45.89343" lon="6.06414">
        <ele>501</ele>
        <time>2021-09-11T10:21:41.232Z</time>
      </trkpt>
      <trkpt lat="45.89339" lon="6.06416">
        <ele>501</ele>
        <time>2021-09-11T10:21:42.232Z</time>
      </trkpt>
      <trkpt lat="45.89334" lon="6.06418">
        <ele>502</ele>
        <time>2021-09-11T10:21:43.231Z</time>
      </trkpt>
      <trkpt lat="45.8933" lon="6.06419">
        <ele>502</ele>
        <time>2021-09-11T10:21:44.232Z</time>
      </trkpt>
      <trkpt lat="45.89325" lon="6.06421">
        <ele>503</ele>
        <time>2021-09-11T10:21:45.232Z</time>
      </trkpt>
      <trkpt lat="45.89321" lon="6.06423">
        <ele>503</ele>
        <time>2021-09-11T10:21:46.231Z</time>
      </trkpt>
      <trkpt lat="45.89317" lon="6.06425">
        <ele>503</ele>
        <time>2021-09-11T10:21:47.232Z</time>
      </trkpt>
      <trkpt lat="45.89314" lon="6.06427">
        <ele>503</ele>
        <time>2021-09-11T10:21:48.231Z</time>
      </trkpt>
      <trkpt lat="45.8931" lon="6.06429">
        <ele>503</ele>
        <time>2021-09-11T10:21:49.231Z</time>
      </trkpt>
      <trkpt lat="45.89307" lon="6.06431">
        <ele>503</ele>
        <time>2021-09-11T10:21:50.232Z</time>
      </trkpt>
      <trkpt lat="45.89303" lon="6.06432">
        <ele>503</ele>
        <time>2021-09-11T10:21:51.232Z</time>
      </trkpt>
      <trkpt lat="45.893" lon="6.06431">
        <ele>504</ele>
        <time>2021-09-11T10:21:52.232Z</time>
      </trkpt>
      <trkpt lat="45.89296" lon="6.06429">
        <ele>504</ele>
        <time>2021-09-11T10:21:53.232Z</time>
      </trkpt>
      <trkpt lat="45.89294" lon="6.06427">
        <ele>504</ele>
        <time>2021-09-11T10:21:54.232Z</time>
      </trkpt>
      <trkpt lat="45.89291" lon="6.06424">
        <ele>504</ele>
        <time>2021-09-11T10:21:55.231Z</time>
      </trkpt>
      <trkpt lat="45.89289" lon="6.0642">
        <ele>504</ele>
        <time>2021-09-11T10:21:56.231Z</time>
      </trkpt>
      <trkpt lat="45.89287" lon="6.06415">
        <ele>504</ele>
        <time>2021-09-11T10:21:57.231Z</time>
      </trkpt>
      <trkpt lat="45.89286" lon="6.06409">
        <ele>504</ele>
        <time>2021-09-11T10:21:58.232Z</time>
      </trkpt>
      <trkpt lat="45.89285" lon="6.06403">
        <ele>504</ele>
        <time>2021-09-11T10:21:59.231Z</time>
      </trkpt>
      <trkpt lat="45.89283" lon="6.06397">
        <ele>504</ele>
        <time>2021-09-11T10:22:00.232Z</time>
      </trkpt>
      <trkpt lat="45.89282" lon="6.06391">
        <ele>504</ele>
        <time>2021-09-11T10:22:01.232Z</time>
      </trkpt>
      <trkpt lat="45.89281" lon="6.06385">
        <ele>504</ele>
        <time>2021-09-11T10:22:02.232Z</time>
      </trkpt>
      <trkpt lat="45.89279" lon="6.06378">
        <ele>504</ele>
        <time>2021-09-11T10:22:03.231Z</time>
      </trkpt>
      <trkpt lat="45.89279" lon="6.0637">
        <ele>504</ele>
        <time>2021-09-11T10:22:04.231Z</time>
      </trkpt>
      <trkpt lat="45.89278" lon="6.06363">
        <ele>504</ele>
        <time>2021-09-11T10:22:05.231Z</time>
      </trkpt>
      <trkpt lat="45.89278" lon="6.06355">
        <ele>504</ele>
        <time>2021-09-11T10:22:06.232Z</time>
      </trkpt>
      <trkpt lat="45.89278" lon="6.06348">
        <ele>504</ele>
        <time>2021-09-11T10:22:07.232Z</time>
      </trkpt>
      <trkpt lat="45.89278" lon="6.06342">
        <ele>504</ele>
        <time>2021-09-11T10:22:08.232Z</time>
      </trkpt>
      <trkpt lat="45.89278" lon="6.06335">
        <ele>504</ele>
        <time>2021-09-11T10:22:09.232Z</time>
      </trkpt>
      <trkpt lat="45.89278" lon="6.06327">
        <ele>505</ele>
        <time>2021-09-11T10:22:10.232Z</time>
      </trkpt>
      <trkpt lat="45.89278" lon="6.0632">
        <ele>505</ele>
        <time>2021-09-11T10:22:11.232Z</time>
      </trkpt>
      <trkpt lat="45.89278" lon="6.06313">
        <ele>504</ele>
        <time>2021-09-11T10:22:12.232Z</time>
      </trkpt>
      <trkpt lat="45.89278" lon="6.06305">
        <ele>504</ele>
        <time>2021-09-11T10:22:13.232Z</time>
      </trkpt>
      <trkpt lat="45.89277" lon="6.06298">
        <ele>504</ele>
        <time>2021-09-11T10:22:14.232Z</time>
      </trkpt>
      <trkpt lat="45.89277" lon="6.0629">
        <ele>503</ele>
        <time>2021-09-11T10:22:15.232Z</time>
      </trkpt>
      <trkpt lat="45.89277" lon="6.06283">
        <ele>503</ele>
        <time>2021-09-11T10:22:16.232Z</time>
      </trkpt>
      <trkpt lat="45.89276" lon="6.06275">
        <ele>502</ele>
        <time>2021-09-11T10:22:17.231Z</time>
      </trkpt>
      <trkpt lat="45.89276" lon="6.06266">
        <ele>502</ele>
        <time>2021-09-11T10:22:18.231Z</time>
      </trkpt>
      <trkpt lat="45.89275" lon="6.06258">
        <ele>501</ele>
        <time>2021-09-11T10:22:19.232Z</time>
      </trkpt>
      <trkpt lat="45.89274" lon="6.0625">
        <ele>501</ele>
        <time>2021-09-11T10:22:20.232Z</time>
      </trkpt>
      <trkpt lat="45.89274" lon="6.06243">
        <ele>500</ele>
        <time>2021-09-11T10:22:21.231Z</time>
      </trkpt>
      <trkpt lat="45.89273" lon="6.06236">
        <ele>500</ele>
        <time>2021-09-11T10:22:22.232Z</time>
      </trkpt>
      <trkpt lat="45.89272" lon="6.0623">
        <ele>500</ele>
        <time>2021-09-11T10:22:23.232Z</time>
      </trkpt>
      <trkpt lat="45.8927" lon="6.06224">
        <ele>500</ele>
        <time>2021-09-11T10:22:24.232Z</time>
      </trkpt>
      <trkpt lat="45.89269" lon="6.06218">
        <ele>500</ele>
        <time>2021-09-11T10:22:25.232Z</time>
      </trkpt>
      <trkpt lat="45.89267" lon="6.06212">
        <ele>500</ele>
        <time>2021-09-11T10:22:26.232Z</time>
      </trkpt>
      <trkpt lat="45.89266" lon="6.06205">
        <ele>500</ele>
        <time>2021-09-11T10:22:27.231Z</time>
      </trkpt>
      <trkpt lat="45.89264" lon="6.06199">
        <ele>499</ele>
        <time>2021-09-11T10:22:28.232Z</time>
      </trkpt>
      <trkpt lat="45.89262" lon="6.06192">
        <ele>500</ele>
        <time>2021-09-11T10:22:29.231Z</time>
      </trkpt>
      <trkpt lat="45.89261" lon="6.06185">
        <ele>500</ele>
        <time>2021-09-11T10:22:30.232Z</time>
      </trkpt>
      <trkpt lat="45.89259" lon="6.06178">
        <ele>500</ele>
        <time>2021-09-11T10:22:31.232Z</time>
      </trkpt>
      <trkpt lat="45.89257" lon="6.06171">
        <ele>500</ele>
        <time>2021-09-11T10:22:32.231Z</time>
      </trkpt>
      <trkpt lat="45.89256" lon="6.06164">
        <ele>500</ele>
        <time>2021-09-11T10:22:33.232Z</time>
      </trkpt>
      <trkpt lat="45.89254" lon="6.06156">
        <ele>500</ele>
        <time>2021-09-11T10:22:34.232Z</time>
      </trkpt>
      <trkpt lat="45.89253" lon="6.06147">
        <ele>500</ele>
        <time>2021-09-11T10:22:35.232Z</time>
      </trkpt>
      <trkpt lat="45.89252" lon="6.06139">
        <ele>500</ele>
        <time>2021-09-11T10:22:36.232Z</time>
      </trkpt>
      <trkpt lat="45.89251" lon="6.06132">
        <ele>500</ele>
        <time>2021-09-11T10:22:37.232Z</time>
      </trkpt>
      <trkpt lat="45.89251" lon="6.06123">
        <ele>499</ele>
        <time>2021-09-11T10:22:38.232Z</time>
      </trkpt>
      <trkpt lat="45.89249" lon="6.06115">
        <ele>499</ele>
        <time>2021-09-11T10:22:39.231Z</time>
      </trkpt>
      <trkpt lat="45.89248" lon="6.06106">
        <ele>499</ele>
        <time>2021-09-11T10:22:40.232Z</time>
      </trkpt>
      <trkpt lat="45.89247" lon="6.06097">
        <ele>499</ele>
        <time>2021-09-11T10:22:41.232Z</time>
      </trkpt>
      <trkpt lat="45.89246" lon="6.06088">
        <ele>499</ele>
        <time>2021-09-11T10:22:42.232Z</time>
      </trkpt>
      <trkpt lat="45.89245" lon="6.06079">
        <ele>499</ele>
        <time>2021-09-11T10:22:43.231Z</time>
      </trkpt>
      <trkpt lat="45.89244" lon="6.0607">
        <ele>498</ele>
        <time>2021-09-11T10:22:44.231Z</time>
      </trkpt>
      <trkpt lat="45.89243" lon="6.06061">
        <ele>498</ele>
        <time>2021-09-11T10:22:45.232Z</time>
      </trkpt>
      <trkpt lat="45.89241" lon="6.06053">
        <ele>497</ele>
        <time>2021-09-11T10:22:46.232Z</time>
      </trkpt>
      <trkpt lat="45.8924" lon="6.06044">
        <ele>497</ele>
        <time>2021-09-11T10:22:47.232Z</time>
      </trkpt>
      <trkpt lat="45.89239" lon="6.06035">
        <ele>497</ele>
        <time>2021-09-11T10:22:48.231Z</time>
      </trkpt>
      <trkpt lat="45.89238" lon="6.06026">
        <ele>497</ele>
        <time>2021-09-11T10:22:49.232Z</time>
      </trkpt>
      <trkpt lat="45.89237" lon="6.06017">
        <ele>497</ele>
        <time>2021-09-11T10:22:50.232Z</time>
      </trkpt>
      <trkpt lat="45.89235" lon="6.06007">
        <ele>498</ele>
        <time>2021-09-11T10:22:51.232Z</time>
      </trkpt>
      <trkpt lat="45.89234" lon="6.06">
        <ele>498</ele>
        <time>2021-09-11T10:22:52.232Z</time>
      </trkpt>
      <trkpt lat="45.89232" lon="6.05991">
        <ele>497</ele>
        <time>2021-09-11T10:22:53.232Z</time>
      </trkpt>
      <trkpt lat="45.8923" lon="6.05983">
        <ele>497</ele>
        <time>2021-09-11T10:22:54.232Z</time>
      </trkpt>
      <trkpt lat="45.89228" lon="6.05974">
        <ele>496</ele>
        <time>2021-09-11T10:22:55.232Z</time>
      </trkpt>
      <trkpt lat="45.89225" lon="6.05966">
        <ele>496</ele>
        <time>2021-09-11T10:22:56.232Z</time>
      </trkpt>
      <trkpt lat="45.89223" lon="6.05958">
        <ele>495</ele>
        <time>2021-09-11T10:22:57.231Z</time>
      </trkpt>
      <trkpt lat="45.8922" lon="6.05949">
        <ele>494</ele>
        <time>2021-09-11T10:22:58.232Z</time>
      </trkpt>
      <trkpt lat="45.89216" lon="6.0594">
        <ele>493</ele>
        <time>2021-09-11T10:22:59.231Z</time>
      </trkpt>
      <trkpt lat="45.89212" lon="6.05931">
        <ele>492</ele>
        <time>2021-09-11T10:23:00.231Z</time>
      </trkpt>
      <trkpt lat="45.89207" lon="6.05922">
        <ele>492</ele>
        <time>2021-09-11T10:23:01.231Z</time>
      </trkpt>
      <trkpt lat="45.89203" lon="6.05914">
        <ele>491</ele>
        <time>2021-09-11T10:23:02.231Z</time>
      </trkpt>
      <trkpt lat="45.89198" lon="6.05905">
        <ele>490</ele>
        <time>2021-09-11T10:23:03.231Z</time>
      </trkpt>
      <trkpt lat="45.89193" lon="6.05897">
        <ele>490</ele>
        <time>2021-09-11T10:23:04.232Z</time>
      </trkpt>
      <trkpt lat="45.89188" lon="6.05889">
        <ele>489</ele>
        <time>2021-09-11T10:23:05.232Z</time>
      </trkpt>
      <trkpt lat="45.89183" lon="6.05883">
        <ele>489</ele>
        <time>2021-09-11T10:23:06.231Z</time>
      </trkpt>
      <trkpt lat="45.89177" lon="6.05879">
        <ele>488</ele>
        <time>2021-09-11T10:23:07.232Z</time>
      </trkpt>
      <trkpt lat="45.8917" lon="6.05876">
        <ele>488</ele>
        <time>2021-09-11T10:23:08.231Z</time>
      </trkpt>
      <trkpt lat="45.89163" lon="6.05875">
        <ele>487</ele>
        <time>2021-09-11T10:23:09.231Z</time>
      </trkpt>
      <trkpt lat="45.89156" lon="6.05876">
        <ele>487</ele>
        <time>2021-09-11T10:23:10.231Z</time>
      </trkpt>
      <trkpt lat="45.89149" lon="6.05878">
        <ele>486</ele>
        <time>2021-09-11T10:23:11.231Z</time>
      </trkpt>
      <trkpt lat="45.89141" lon="6.05881">
        <ele>486</ele>
        <time>2021-09-11T10:23:12.232Z</time>
      </trkpt>
      <trkpt lat="45.89133" lon="6.05884">
        <ele>485</ele>
        <time>2021-09-11T10:23:13.232Z</time>
      </trkpt>
      <trkpt lat="45.89124" lon="6.05889">
        <ele>485</ele>
        <time>2021-09-11T10:23:14.232Z</time>
      </trkpt>
      <trkpt lat="45.89116" lon="6.05894">
        <ele>484</ele>
        <time>2021-09-11T10:23:15.232Z</time>
      </trkpt>
      <trkpt lat="45.89109" lon="6.059">
        <ele>484</ele>
        <time>2021-09-11T10:23:16.232Z</time>
      </trkpt>
      <trkpt lat="45.89102" lon="6.05907">
        <ele>483</ele>
        <time>2021-09-11T10:23:17.231Z</time>
      </trkpt>
      <trkpt lat="45.89097" lon="6.05914">
        <ele>483</ele>
        <time>2021-09-11T10:23:18.232Z</time>
      </trkpt>
      <trkpt lat="45.89091" lon="6.05921">
        <ele>482</ele>
        <time>2021-09-11T10:23:19.232Z</time>
      </trkpt>
      <trkpt lat="45.89086" lon="6.05926">
        <ele>482</ele>
        <time>2021-09-11T10:23:20.232Z</time>
      </trkpt>
      <trkpt lat="45.8908" lon="6.05931">
        <ele>482</ele>
        <time>2021-09-11T10:23:21.232Z</time>
      </trkpt>
      <trkpt lat="45.89074" lon="6.05933">
        <ele>482</ele>
        <time>2021-09-11T10:23:22.232Z</time>
      </trkpt>
      <trkpt lat="45.89067" lon="6.05934">
        <ele>482</ele>
        <time>2021-09-11T10:23:23.232Z</time>
      </trkpt>
      <trkpt lat="45.89061" lon="6.05934">
        <ele>482</ele>
        <time>2021-09-11T10:23:24.231Z</time>
      </trkpt>
      <trkpt lat="45.89055" lon="6.0593">
        <ele>482</ele>
        <time>2021-09-11T10:23:25.232Z</time>
      </trkpt>
      <trkpt lat="45.89051" lon="6.05925">
        <ele>482</ele>
        <time>2021-09-11T10:23:26.232Z</time>
      </trkpt>
      <trkpt lat="45.89047" lon="6.05918">
        <ele>482</ele>
        <time>2021-09-11T10:23:27.231Z</time>
      </trkpt>
      <trkpt lat="45.89046" lon="6.05911">
        <ele>482</ele>
        <time>2021-09-11T10:23:28.231Z</time>
      </trkpt>
      <trkpt lat="45.89045" lon="6.05905">
        <ele>482</ele>
        <time>2021-09-11T10:23:29.231Z</time>
      </trkpt>
      <trkpt lat="45.89045" lon="6.05898">
        <ele>482</ele>
        <time>2021-09-11T10:23:30.232Z</time>
      </trkpt>
      <trkpt lat="45.89045" lon="6.05893">
        <ele>482</ele>
        <time>2021-09-11T10:23:31.231Z</time>
      </trkpt>
      <trkpt lat="45.89044" lon="6.05887">
        <ele>482</ele>
        <time>2021-09-11T10:23:32.232Z</time>
      </trkpt>
      <trkpt lat="45.89044" lon="6.05882">
        <ele>482</ele>
        <time>2021-09-11T10:23:33.231Z</time>
      </trkpt>
      <trkpt lat="45.89045" lon="6.05878">
        <ele>482</ele>
        <time>2021-09-11T10:23:34.231Z</time>
      </trkpt>
      <trkpt lat="45.89046" lon="6.05872">
        <ele>483</ele>
        <time>2021-09-11T10:23:35.232Z</time>
      </trkpt>
      <trkpt lat="45.89048" lon="6.05868">
        <ele>483</ele>
        <time>2021-09-11T10:23:36.232Z</time>
      </trkpt>
      <trkpt lat="45.89049" lon="6.05863">
        <ele>483</ele>
        <time>2021-09-11T10:23:37.232Z</time>
      </trkpt>
      <trkpt lat="45.8905" lon="6.05859">
        <ele>483</ele>
        <time>2021-09-11T10:23:38.232Z</time>
      </trkpt>
      <trkpt lat="45.89052" lon="6.05854">
        <ele>483</ele>
        <time>2021-09-11T10:23:39.232Z</time>
      </trkpt>
      <trkpt lat="45.89053" lon="6.0585">
        <ele>484</ele>
        <time>2021-09-11T10:23:40.232Z</time>
      </trkpt>
      <trkpt lat="45.89054" lon="6.05846">
        <ele>484</ele>
        <time>2021-09-11T10:23:41.231Z</time>
      </trkpt>
      <trkpt lat="45.89054" lon="6.05842">
        <ele>484</ele>
        <time>2021-09-11T10:23:42.231Z</time>
      </trkpt>
      <trkpt lat="45.89055" lon="6.05838">
        <ele>485</ele>
        <time>2021-09-11T10:23:43.232Z</time>
      </trkpt>
      <trkpt lat="45.89056" lon="6.05835">
        <ele>485</ele>
        <time>2021-09-11T10:23:44.232Z</time>
      </trkpt>
      <trkpt lat="45.89057" lon="6.05831">
        <ele>486</ele>
        <time>2021-09-11T10:23:45.232Z</time>
      </trkpt>
      <trkpt lat="45.89058" lon="6.05827">
        <ele>487</ele>
        <time>2021-09-11T10:23:46.232Z</time>
      </trkpt>
      <trkpt lat="45.8906" lon="6.05824">
        <ele>487</ele>
        <time>2021-09-11T10:23:47.232Z</time>
      </trkpt>
      <trkpt lat="45.89061" lon="6.0582">
        <ele>487</ele>
        <time>2021-09-11T10:23:48.232Z</time>
      </trkpt>
      <trkpt lat="45.89063" lon="6.05817">
        <ele>488</ele>
        <time>2021-09-11T10:23:49.232Z</time>
      </trkpt>
      <trkpt lat="45.89064" lon="6.05813">
        <ele>489</ele>
        <time>2021-09-11T10:23:50.231Z</time>
      </trkpt>
      <trkpt lat="45.89066" lon="6.0581">
        <ele>489</ele>
        <time>2021-09-11T10:23:51.232Z</time>
      </trkpt>
      <trkpt lat="45.89067" lon="6.05807">
        <ele>489</ele>
        <time>2021-09-11T10:23:52.231Z</time>
      </trkpt>
      <trkpt lat="45.89068" lon="6.05803">
        <ele>490</ele>
        <time>2021-09-11T10:23:53.232Z</time>
      </trkpt>
      <trkpt lat="45.89069" lon="6.058">
        <ele>490</ele>
        <time>2021-09-11T10:23:54.232Z</time>
      </trkpt>
      <trkpt lat="45.89071" lon="6.05797">
        <ele>491</ele>
        <time>2021-09-11T10:23:55.231Z</time>
      </trkpt>
      <trkpt lat="45.89072" lon="6.05794">
        <ele>491</ele>
        <time>2021-09-11T10:23:56.232Z</time>
      </trkpt>
      <trkpt lat="45.89072" lon="6.05792">
        <ele>492</ele>
        <time>2021-09-11T10:23:57.231Z</time>
      </trkpt>
      <trkpt lat="45.89073" lon="6.0579">
        <ele>492</ele>
        <time>2021-09-11T10:23:58.232Z</time>
      </trkpt>
      <trkpt lat="45.89075" lon="6.05788">
        <ele>492</ele>
        <time>2021-09-11T10:23:59.232Z</time>
      </trkpt>
      <trkpt lat="45.89076" lon="6.05786">
        <ele>493</ele>
        <time>2021-09-11T10:24:00.232Z</time>
      </trkpt>
      <trkpt lat="45.89078" lon="6.05785">
        <ele>493</ele>
        <time>2021-09-11T10:24:01.232Z</time>
      </trkpt>
      <trkpt lat="45.89079" lon="6.05783">
        <ele>493</ele>
        <time>2021-09-11T10:24:02.231Z</time>
      </trkpt>
      <trkpt lat="45.8908" lon="6.05782">
        <ele>494</ele>
        <time>2021-09-11T10:24:03.232Z</time>
      </trkpt>
      <trkpt lat="45.89081" lon="6.0578">
        <ele>494</ele>
        <time>2021-09-11T10:24:04.232Z</time>
      </trkpt>
      <trkpt lat="45.89082" lon="6.0578">
        <ele>494</ele>
        <time>2021-09-11T10:24:05.232Z</time>
      </trkpt>
      <trkpt lat="45.89082" lon="6.0578">
        <ele>494</ele>
        <time>2021-09-11T10:24:06.232Z</time>
      </trkpt>
      <trkpt lat="45.89082" lon="6.0578">
        <ele>495</ele>
        <time>2021-09-11T10:24:07.232Z</time>
      </trkpt>
      <trkpt lat="45.89083" lon="6.0578">
        <ele>494</ele>
        <time>2021-09-11T10:24:08.231Z</time>
      </trkpt>
      <trkpt lat="45.89083" lon="6.0578">
        <ele>494</ele>
        <time>2021-09-11T10:24:09.231Z</time>
      </trkpt>
      <trkpt lat="45.89083" lon="6.05783">
        <ele>495</ele>
        <time>2021-09-11T10:24:10.233Z</time>
      </trkpt>
      <trkpt lat="45.89083" lon="6.05783">
        <ele>494</ele>
        <time>2021-09-11T10:24:11.233Z</time>
      </trkpt>
      <trkpt lat="45.89085" lon="6.05782">
        <ele>494</ele>
        <time>2021-09-11T10:24:12.233Z</time>
      </trkpt>
      <trkpt lat="45.89086" lon="6.05781">
        <ele>493</ele>
        <time>2021-09-11T10:24:13.233Z</time>
      </trkpt>
      <trkpt lat="45.89087" lon="6.0578">
        <ele>493</ele>
        <time>2021-09-11T10:24:14.233Z</time>
      </trkpt>
      <trkpt lat="45.89087" lon="6.05779">
        <ele>492</ele>
        <time>2021-09-11T10:24:15.233Z</time>
      </trkpt>
      <trkpt lat="45.89088" lon="6.05778">
        <ele>492</ele>
        <time>2021-09-11T10:24:16.233Z</time>
      </trkpt>
      <trkpt lat="45.89088" lon="6.05778">
        <ele>492</ele>
        <time>2021-09-11T10:24:17.233Z</time>
      </trkpt>
      <trkpt lat="45.89088" lon="6.05777">
        <ele>491</ele>
        <time>2021-09-11T10:24:18.233Z</time>
      </trkpt>
      <trkpt lat="45.89088" lon="6.05777">
        <ele>491</ele>
        <time>2021-09-11T10:24:19.233Z</time>
      </trkpt>
      <trkpt lat="45.89088" lon="6.05776">
        <ele>490</ele>
        <time>2021-09-11T10:24:20.233Z</time>
      </trkpt>
      <trkpt lat="45.89091" lon="6.05773">
        <ele>492</ele>
        <time>2021-09-11T10:24:21.233Z</time>
      </trkpt>
      <trkpt lat="45.89091" lon="6.05772">
        <ele>492</ele>
        <time>2021-09-11T10:24:22.234Z</time>
      </trkpt>
      <trkpt lat="45.89092" lon="6.05771">
        <ele>493</ele>
        <time>2021-09-11T10:24:23.234Z</time>
      </trkpt>
      <trkpt lat="45.89092" lon="6.0577">
        <ele>493</ele>
        <time>2021-09-11T10:24:24.234Z</time>
      </trkpt>
      <trkpt lat="45.89089" lon="6.05796">
        <ele>502</ele>
        <time>2021-09-11T10:24:25.234Z</time>
      </trkpt>
      <trkpt lat="45.89089" lon="6.05796">
        <ele>502</ele>
        <time>2021-09-11T10:24:26.235Z</time>
      </trkpt>
      <trkpt lat="45.89089" lon="6.05796">
        <ele>502</ele>
        <time>2021-09-11T10:24:27.234Z</time>
      </trkpt>
      <trkpt lat="45.89089" lon="6.05796">
        <ele>502</ele>
        <time>2021-09-11T10:24:28.235Z</time>
      </trkpt>
      <trkpt lat="45.89089" lon="6.05796">
        <ele>502</ele>
        <time>2021-09-11T10:24:29.234Z</time>
      </trkpt>
      <trkpt lat="45.89089" lon="6.05796">
        <ele>502</ele>
        <time>2021-09-11T10:24:30.235Z</time>
      </trkpt>
      <trkpt lat="45.89089" lon="6.05796">
        <ele>502</ele>
        <time>2021-09-11T10:24:31.234Z</time>
      </trkpt>
      <trkpt lat="45.89089" lon="6.05796">
        <ele>502</ele>
        <time>2021-09-11T10:24:32.234Z</time>
      </trkpt>
      <trkpt lat="45.89088" lon="6.05796">
        <ele>502</ele>
        <time>2021-09-11T10:24:33.235Z</time>
      </trkpt>
      <trkpt lat="45.89087" lon="6.05795">
        <ele>502</ele>
        <time>2021-09-11T10:24:34.235Z</time>
      </trkpt>
      <trkpt lat="45.89086" lon="6.05793">
        <ele>502</ele>
        <time>2021-09-11T10:24:35.235Z</time>
      </trkpt>
      <trkpt lat="45.89086" lon="6.05792">
        <ele>502</ele>
        <time>2021-09-11T10:24:36.235Z</time>
      </trkpt>
      <trkpt lat="45.89085" lon="6.05791">
        <ele>502</ele>
        <time>2021-09-11T10:24:37.235Z</time>
      </trkpt>
      <trkpt lat="45.89085" lon="6.0579">
        <ele>501</ele>
        <time>2021-09-11T10:24:38.234Z</time>
      </trkpt>
      <trkpt lat="45.89084" lon="6.05789">
        <ele>501</ele>
        <time>2021-09-11T10:24:39.235Z</time>
      </trkpt>
      <trkpt lat="45.89084" lon="6.05787">
        <ele>501</ele>
        <time>2021-09-11T10:24:40.235Z</time>
      </trkpt>
      <trkpt lat="45.89083" lon="6.05785">
        <ele>501</ele>
        <time>2021-09-11T10:24:41.234Z</time>
      </trkpt>
      <trkpt lat="45.89083" lon="6.05783">
        <ele>501</ele>
        <time>2021-09-11T10:24:42.234Z</time>
      </trkpt>
      <trkpt lat="45.89084" lon="6.05781">
        <ele>500</ele>
        <time>2021-09-11T10:24:43.235Z</time>
      </trkpt>
      <trkpt lat="45.89084" lon="6.05778">
        <ele>500</ele>
        <time>2021-09-11T10:24:44.235Z</time>
      </trkpt>
      <trkpt lat="45.89084" lon="6.05775">
        <ele>499</ele>
        <time>2021-09-11T10:24:45.235Z</time>
      </trkpt>
      <trkpt lat="45.89084" lon="6.05771">
        <ele>498</ele>
        <time>2021-09-11T10:24:46.235Z</time>
      </trkpt>
      <trkpt lat="45.89085" lon="6.05767">
        <ele>498</ele>
        <time>2021-09-11T10:24:47.235Z</time>
      </trkpt>
      <trkpt lat="45.89086" lon="6.05763">
        <ele>497</ele>
        <time>2021-09-11T10:24:48.234Z</time>
      </trkpt>
      <trkpt lat="45.89086" lon="6.05758">
        <ele>496</ele>
        <time>2021-09-11T10:24:49.235Z</time>
      </trkpt>
      <trkpt lat="45.89086" lon="6.05755">
        <ele>496</ele>
        <time>2021-09-11T10:24:50.234Z</time>
      </trkpt>
      <trkpt lat="45.89085" lon="6.05751">
        <ele>496</ele>
        <time>2021-09-11T10:24:51.235Z</time>
      </trkpt>
      <trkpt lat="45.89085" lon="6.05747">
        <ele>496</ele>
        <time>2021-09-11T10:24:52.235Z</time>
      </trkpt>
      <trkpt lat="45.89084" lon="6.05743">
        <ele>496</ele>
        <time>2021-09-11T10:24:53.234Z</time>
      </trkpt>
      <trkpt lat="45.89084" lon="6.05741">
        <ele>495</ele>
        <time>2021-09-11T10:24:54.235Z</time>
      </trkpt>
      <trkpt lat="45.89084" lon="6.05739">
        <ele>495</ele>
        <time>2021-09-11T10:24:55.235Z</time>
      </trkpt>
      <trkpt lat="45.89083" lon="6.05736">
        <ele>495</ele>
        <time>2021-09-11T10:24:56.235Z</time>
      </trkpt>
      <trkpt lat="45.89083" lon="6.05733">
        <ele>495</ele>
        <time>2021-09-11T10:24:57.235Z</time>
      </trkpt>
      <trkpt lat="45.89082" lon="6.05728">
        <ele>495</ele>
        <time>2021-09-11T10:24:58.234Z</time>
      </trkpt>
      <trkpt lat="45.89081" lon="6.05724">
        <ele>495</ele>
        <time>2021-09-11T10:24:59.234Z</time>
      </trkpt>
      <trkpt lat="45.89079" lon="6.0572">
        <ele>495</ele>
        <time>2021-09-11T10:25:00.235Z</time>
      </trkpt>
      <trkpt lat="45.89078" lon="6.05716">
        <ele>494</ele>
        <time>2021-09-11T10:25:01.235Z</time>
      </trkpt>
      <trkpt lat="45.89076" lon="6.05712">
        <ele>494</ele>
        <time>2021-09-11T10:25:02.235Z</time>
      </trkpt>
      <trkpt lat="45.89075" lon="6.05708">
        <ele>493</ele>
        <time>2021-09-11T10:25:03.235Z</time>
      </trkpt>
      <trkpt lat="45.89074" lon="6.05705">
        <ele>493</ele>
        <time>2021-09-11T10:25:04.234Z</time>
      </trkpt>
      <trkpt lat="45.89073" lon="6.05701">
        <ele>492</ele>
        <time>2021-09-11T10:25:05.235Z</time>
      </trkpt>
      <trkpt lat="45.89071" lon="6.05698">
        <ele>492</ele>
        <time>2021-09-11T10:25:06.235Z</time>
      </trkpt>
      <trkpt lat="45.8907" lon="6.05694">
        <ele>491</ele>
        <time>2021-09-11T10:25:07.234Z</time>
      </trkpt>
      <trkpt lat="45.89069" lon="6.05691">
        <ele>491</ele>
        <time>2021-09-11T10:25:08.234Z</time>
      </trkpt>
      <trkpt lat="45.89067" lon="6.05688">
        <ele>490</ele>
        <time>2021-09-11T10:25:09.235Z</time>
      </trkpt>
      <trkpt lat="45.89064" lon="6.05686">
        <ele>490</ele>
        <time>2021-09-11T10:25:10.235Z</time>
      </trkpt>
      <trkpt lat="45.89062" lon="6.05683">
        <ele>490</ele>
        <time>2021-09-11T10:25:11.234Z</time>
      </trkpt>
      <trkpt lat="45.8906" lon="6.0568">
        <ele>489</ele>
        <time>2021-09-11T10:25:12.235Z</time>
      </trkpt>
      <trkpt lat="45.89058" lon="6.05677">
        <ele>489</ele>
        <time>2021-09-11T10:25:13.235Z</time>
      </trkpt>
      <trkpt lat="45.89057" lon="6.05674">
        <ele>488</ele>
        <time>2021-09-11T10:25:14.235Z</time>
      </trkpt>
      <trkpt lat="45.89054" lon="6.0567">
        <ele>488</ele>
        <time>2021-09-11T10:25:15.234Z</time>
      </trkpt>
      <trkpt lat="45.89052" lon="6.05666">
        <ele>488</ele>
        <time>2021-09-11T10:25:16.235Z</time>
      </trkpt>
      <trkpt lat="45.8905" lon="6.05663">
        <ele>487</ele>
        <time>2021-09-11T10:25:17.235Z</time>
      </trkpt>
      <trkpt lat="45.89048" lon="6.05659">
        <ele>487</ele>
        <time>2021-09-11T10:25:18.234Z</time>
      </trkpt>
      <trkpt lat="45.89046" lon="6.05655">
        <ele>487</ele>
        <time>2021-09-11T10:25:19.234Z</time>
      </trkpt>
      <trkpt lat="45.89044" lon="6.05651">
        <ele>487</ele>
        <time>2021-09-11T10:25:20.235Z</time>
      </trkpt>
      <trkpt lat="45.89042" lon="6.05646">
        <ele>487</ele>
        <time>2021-09-11T10:25:21.234Z</time>
      </trkpt>
      <trkpt lat="45.8904" lon="6.05641">
        <ele>487</ele>
        <time>2021-09-11T10:25:22.235Z</time>
      </trkpt>
      <trkpt lat="45.89037" lon="6.05636">
        <ele>486</ele>
        <time>2021-09-11T10:25:23.235Z</time>
      </trkpt>
      <trkpt lat="45.89035" lon="6.05632">
        <ele>486</ele>
        <time>2021-09-11T10:25:24.234Z</time>
      </trkpt>
      <trkpt lat="45.89033" lon="6.05627">
        <ele>486</ele>
        <time>2021-09-11T10:25:25.234Z</time>
      </trkpt>
      <trkpt lat="45.8903" lon="6.05623">
        <ele>487</ele>
        <time>2021-09-11T10:25:26.235Z</time>
      </trkpt>
      <trkpt lat="45.89028" lon="6.05618">
        <ele>487</ele>
        <time>2021-09-11T10:25:27.234Z</time>
      </trkpt>
      <trkpt lat="45.89025" lon="6.05613">
        <ele>487</ele>
        <time>2021-09-11T10:25:28.235Z</time>
      </trkpt>
      <trkpt lat="45.89023" lon="6.05609">
        <ele>486</ele>
        <time>2021-09-11T10:25:29.235Z</time>
      </trkpt>
      <trkpt lat="45.89021" lon="6.05604">
        <ele>486</ele>
        <time>2021-09-11T10:25:30.235Z</time>
      </trkpt>
      <trkpt lat="45.89018" lon="6.056">
        <ele>486</ele>
        <time>2021-09-11T10:25:31.235Z</time>
      </trkpt>
      <trkpt lat="45.89016" lon="6.05596">
        <ele>486</ele>
        <time>2021-09-11T10:25:32.235Z</time>
      </trkpt>
      <trkpt lat="45.89013" lon="6.05591">
        <ele>486</ele>
        <time>2021-09-11T10:25:33.235Z</time>
      </trkpt>
      <trkpt lat="45.89011" lon="6.05587">
        <ele>486</ele>
        <time>2021-09-11T10:25:34.235Z</time>
      </trkpt>
      <trkpt lat="45.89008" lon="6.05582">
        <ele>486</ele>
        <time>2021-09-11T10:25:35.235Z</time>
      </trkpt>
      <trkpt lat="45.89005" lon="6.05578">
        <ele>486</ele>
        <time>2021-09-11T10:25:36.234Z</time>
      </trkpt>
      <trkpt lat="45.89003" lon="6.05574">
        <ele>486</ele>
        <time>2021-09-11T10:25:37.234Z</time>
      </trkpt>
      <trkpt lat="45.89001" lon="6.0557">
        <ele>486</ele>
        <time>2021-09-11T10:25:38.234Z</time>
      </trkpt>
      <trkpt lat="45.88998" lon="6.05567">
        <ele>486</ele>
        <time>2021-09-11T10:25:39.235Z</time>
      </trkpt>
      <trkpt lat="45.88997" lon="6.05563">
        <ele>486</ele>
        <time>2021-09-11T10:25:40.234Z</time>
      </trkpt>
      <trkpt lat="45.88994" lon="6.05558">
        <ele>487</ele>
        <time>2021-09-11T10:25:41.234Z</time>
      </trkpt>
      <trkpt lat="45.88992" lon="6.05553">
        <ele>487</ele>
        <time>2021-09-11T10:25:42.234Z</time>
      </trkpt>
      <trkpt lat="45.88989" lon="6.05549">
        <ele>488</ele>
        <time>2021-09-11T10:25:43.235Z</time>
      </trkpt>
      <trkpt lat="45.88987" lon="6.05544">
        <ele>488</ele>
        <time>2021-09-11T10:25:44.235Z</time>
      </trkpt>
      <trkpt lat="45.88984" lon="6.05538">
        <ele>488</ele>
        <time>2021-09-11T10:25:45.235Z</time>
      </trkpt>
      <trkpt lat="45.88981" lon="6.05533">
        <ele>488</ele>
        <time>2021-09-11T10:25:46.235Z</time>
      </trkpt>
      <trkpt lat="45.88978" lon="6.05528">
        <ele>489</ele>
        <time>2021-09-11T10:25:47.235Z</time>
      </trkpt>
      <trkpt lat="45.88976" lon="6.05523">
        <ele>489</ele>
        <time>2021-09-11T10:25:48.234Z</time>
      </trkpt>
      <trkpt lat="45.88973" lon="6.05518">
        <ele>489</ele>
        <time>2021-09-11T10:25:49.235Z</time>
      </trkpt>
      <trkpt lat="45.8897" lon="6.05513">
        <ele>489</ele>
        <time>2021-09-11T10:25:50.234Z</time>
      </trkpt>
      <trkpt lat="45.88966" lon="6.05507">
        <ele>489</ele>
        <time>2021-09-11T10:25:51.235Z</time>
      </trkpt>
      <trkpt lat="45.88963" lon="6.05501">
        <ele>488</ele>
        <time>2021-09-11T10:25:52.235Z</time>
      </trkpt>
      <trkpt lat="45.8896" lon="6.05495">
        <ele>488</ele>
        <time>2021-09-11T10:25:53.235Z</time>
      </trkpt>
      <trkpt lat="45.88957" lon="6.05489">
        <ele>488</ele>
        <time>2021-09-11T10:25:54.235Z</time>
      </trkpt>
      <trkpt lat="45.88954" lon="6.05483">
        <ele>488</ele>
        <time>2021-09-11T10:25:55.235Z</time>
      </trkpt>
      <trkpt lat="45.88951" lon="6.05478">
        <ele>488</ele>
        <time>2021-09-11T10:25:56.234Z</time>
      </trkpt>
      <trkpt lat="45.88948" lon="6.05473">
        <ele>488</ele>
        <time>2021-09-11T10:25:57.235Z</time>
      </trkpt>
      <trkpt lat="45.88946" lon="6.05467">
        <ele>488</ele>
        <time>2021-09-11T10:25:58.235Z</time>
      </trkpt>
      <trkpt lat="45.88943" lon="6.05461">
        <ele>488</ele>
        <time>2021-09-11T10:25:59.235Z</time>
      </trkpt>
      <trkpt lat="45.8894" lon="6.05456">
        <ele>487</ele>
        <time>2021-09-11T10:26:00.235Z</time>
      </trkpt>
      <trkpt lat="45.88937" lon="6.0545">
        <ele>487</ele>
        <time>2021-09-11T10:26:01.235Z</time>
      </trkpt>
      <trkpt lat="45.88935" lon="6.05444">
        <ele>487</ele>
        <time>2021-09-11T10:26:02.235Z</time>
      </trkpt>
      <trkpt lat="45.88932" lon="6.05438">
        <ele>487</ele>
        <time>2021-09-11T10:26:03.235Z</time>
      </trkpt>
      <trkpt lat="45.8893" lon="6.05431">
        <ele>487</ele>
        <time>2021-09-11T10:26:04.234Z</time>
      </trkpt>
      <trkpt lat="45.88928" lon="6.05425">
        <ele>487</ele>
        <time>2021-09-11T10:26:05.235Z</time>
      </trkpt>
      <trkpt lat="45.88926" lon="6.05418">
        <ele>487</ele>
        <time>2021-09-11T10:26:06.234Z</time>
      </trkpt>
      <trkpt lat="45.88926" lon="6.0541">
        <ele>487</ele>
        <time>2021-09-11T10:26:07.234Z</time>
      </trkpt>
      <trkpt lat="45.88924" lon="6.05403">
        <ele>487</ele>
        <time>2021-09-11T10:26:08.235Z</time>
      </trkpt>
      <trkpt lat="45.88924" lon="6.05396">
        <ele>488</ele>
        <time>2021-09-11T10:26:09.234Z</time>
      </trkpt>
      <trkpt lat="45.88923" lon="6.05388">
        <ele>488</ele>
        <time>2021-09-11T10:26:10.235Z</time>
      </trkpt>
      <trkpt lat="45.88922" lon="6.0538">
        <ele>488</ele>
        <time>2021-09-11T10:26:11.235Z</time>
      </trkpt>
      <trkpt lat="45.88921" lon="6.05371">
        <ele>488</ele>
        <time>2021-09-11T10:26:12.235Z</time>
      </trkpt>
      <trkpt lat="45.88921" lon="6.05363">
        <ele>488</ele>
        <time>2021-09-11T10:26:13.235Z</time>
      </trkpt>
      <trkpt lat="45.88921" lon="6.05355">
        <ele>487</ele>
        <time>2021-09-11T10:26:14.234Z</time>
      </trkpt>
      <trkpt lat="45.88921" lon="6.05347">
        <ele>487</ele>
        <time>2021-09-11T10:26:15.234Z</time>
      </trkpt>
      <trkpt lat="45.88921" lon="6.05338">
        <ele>487</ele>
        <time>2021-09-11T10:26:16.235Z</time>
      </trkpt>
      <trkpt lat="45.88921" lon="6.05329">
        <ele>487</ele>
        <time>2021-09-11T10:26:17.235Z</time>
      </trkpt>
      <trkpt lat="45.88922" lon="6.05321">
        <ele>487</ele>
        <time>2021-09-11T10:26:18.234Z</time>
      </trkpt>
      <trkpt lat="45.88923" lon="6.05312">
        <ele>487</ele>
        <time>2021-09-11T10:26:19.234Z</time>
      </trkpt>
      <trkpt lat="45.88924" lon="6.05303">
        <ele>486</ele>
        <time>2021-09-11T10:26:20.234Z</time>
      </trkpt>
      <trkpt lat="45.88926" lon="6.05295">
        <ele>486</ele>
        <time>2021-09-11T10:26:21.235Z</time>
      </trkpt>
      <trkpt lat="45.88928" lon="6.05287">
        <ele>486</ele>
        <time>2021-09-11T10:26:22.235Z</time>
      </trkpt>
      <trkpt lat="45.88931" lon="6.05279">
        <ele>486</ele>
        <time>2021-09-11T10:26:23.235Z</time>
      </trkpt>
      <trkpt lat="45.88934" lon="6.05271">
        <ele>486</ele>
        <time>2021-09-11T10:26:24.235Z</time>
      </trkpt>
      <trkpt lat="45.88937" lon="6.05264">
        <ele>486</ele>
        <time>2021-09-11T10:26:25.235Z</time>
      </trkpt>
      <trkpt lat="45.8894" lon="6.05257">
        <ele>486</ele>
        <time>2021-09-11T10:26:26.235Z</time>
      </trkpt>
      <trkpt lat="45.88942" lon="6.0525">
        <ele>486</ele>
        <time>2021-09-11T10:26:27.235Z</time>
      </trkpt>
      <trkpt lat="45.88943" lon="6.05242">
        <ele>487</ele>
        <time>2021-09-11T10:26:28.235Z</time>
      </trkpt>
      <trkpt lat="45.88944" lon="6.05235">
        <ele>487</ele>
        <time>2021-09-11T10:26:29.235Z</time>
      </trkpt>
      <trkpt lat="45.88945" lon="6.05229">
        <ele>488</ele>
        <time>2021-09-11T10:26:30.235Z</time>
      </trkpt>
      <trkpt lat="45.88945" lon="6.05222">
        <ele>489</ele>
        <time>2021-09-11T10:26:31.234Z</time>
      </trkpt>
      <trkpt lat="45.88945" lon="6.05216">
        <ele>490</ele>
        <time>2021-09-11T10:26:32.235Z</time>
      </trkpt>
      <trkpt lat="45.88947" lon="6.05211">
        <ele>491</ele>
        <time>2021-09-11T10:26:33.235Z</time>
      </trkpt>
      <trkpt lat="45.88948" lon="6.05205">
        <ele>492</ele>
        <time>2021-09-11T10:26:34.235Z</time>
      </trkpt>
      <trkpt lat="45.8895" lon="6.05199">
        <ele>493</ele>
        <time>2021-09-11T10:26:35.235Z</time>
      </trkpt>
      <trkpt lat="45.88951" lon="6.05194">
        <ele>493</ele>
        <time>2021-09-11T10:26:36.235Z</time>
      </trkpt>
      <trkpt lat="45.88953" lon="6.05189">
        <ele>494</ele>
        <time>2021-09-11T10:26:37.234Z</time>
      </trkpt>
      <trkpt lat="45.88954" lon="6.05183">
        <ele>494</ele>
        <time>2021-09-11T10:26:38.234Z</time>
      </trkpt>
      <trkpt lat="45.88956" lon="6.05177">
        <ele>494</ele>
        <time>2021-09-11T10:26:39.234Z</time>
      </trkpt>
      <trkpt lat="45.88957" lon="6.05172">
        <ele>494</ele>
        <time>2021-09-11T10:26:40.235Z</time>
      </trkpt>
      <trkpt lat="45.88958" lon="6.05167">
        <ele>494</ele>
        <time>2021-09-11T10:26:41.235Z</time>
      </trkpt>
      <trkpt lat="45.88959" lon="6.05162">
        <ele>494</ele>
        <time>2021-09-11T10:26:42.234Z</time>
      </trkpt>
      <trkpt lat="45.88961" lon="6.05156">
        <ele>494</ele>
        <time>2021-09-11T10:26:43.235Z</time>
      </trkpt>
      <trkpt lat="45.88962" lon="6.05151">
        <ele>494</ele>
        <time>2021-09-11T10:26:44.235Z</time>
      </trkpt>
      <trkpt lat="45.88964" lon="6.05145">
        <ele>494</ele>
        <time>2021-09-11T10:26:45.235Z</time>
      </trkpt>
      <trkpt lat="45.88965" lon="6.0514">
        <ele>494</ele>
        <time>2021-09-11T10:26:46.234Z</time>
      </trkpt>
      <trkpt lat="45.88967" lon="6.05134">
        <ele>494</ele>
        <time>2021-09-11T10:26:47.234Z</time>
      </trkpt>
      <trkpt lat="45.88969" lon="6.05128">
        <ele>493</ele>
        <time>2021-09-11T10:26:48.235Z</time>
      </trkpt>
      <trkpt lat="45.88971" lon="6.05122">
        <ele>493</ele>
        <time>2021-09-11T10:26:49.235Z</time>
      </trkpt>
      <trkpt lat="45.88973" lon="6.05115">
        <ele>493</ele>
        <time>2021-09-11T10:26:50.235Z</time>
      </trkpt>
      <trkpt lat="45.88975" lon="6.0511">
        <ele>493</ele>
        <time>2021-09-11T10:26:51.235Z</time>
      </trkpt>
      <trkpt lat="45.88976" lon="6.05103">
        <ele>493</ele>
        <time>2021-09-11T10:26:52.235Z</time>
      </trkpt>
      <trkpt lat="45.88978" lon="6.05098">
        <ele>493</ele>
        <time>2021-09-11T10:26:53.235Z</time>
      </trkpt>
      <trkpt lat="45.8898" lon="6.05092">
        <ele>493</ele>
        <time>2021-09-11T10:26:54.235Z</time>
      </trkpt>
      <trkpt lat="45.88982" lon="6.05084">
        <ele>493</ele>
        <time>2021-09-11T10:26:55.234Z</time>
      </trkpt>
      <trkpt lat="45.88983" lon="6.05079">
        <ele>493</ele>
        <time>2021-09-11T10:26:56.235Z</time>
      </trkpt>
      <trkpt lat="45.88984" lon="6.05072">
        <ele>494</ele>
        <time>2021-09-11T10:26:57.235Z</time>
      </trkpt>
      <trkpt lat="45.88985" lon="6.05067">
        <ele>494</ele>
        <time>2021-09-11T10:26:58.234Z</time>
      </trkpt>
      <trkpt lat="45.88986" lon="6.05062">
        <ele>494</ele>
        <time>2021-09-11T10:26:59.235Z</time>
      </trkpt>
      <trkpt lat="45.88987" lon="6.05057">
        <ele>494</ele>
        <time>2021-09-11T10:27:00.235Z</time>
      </trkpt>
      <trkpt lat="45.88987" lon="6.05052">
        <ele>494</ele>
        <time>2021-09-11T10:27:01.235Z</time>
      </trkpt>
      <trkpt lat="45.88987" lon="6.05045">
        <ele>494</ele>
        <time>2021-09-11T10:27:02.235Z</time>
      </trkpt>
      <trkpt lat="45.88987" lon="6.05039">
        <ele>494</ele>
        <time>2021-09-11T10:27:03.235Z</time>
      </trkpt>
      <trkpt lat="45.88987" lon="6.05034">
        <ele>494</ele>
        <time>2021-09-11T10:27:04.235Z</time>
      </trkpt>
      <trkpt lat="45.88987" lon="6.05028">
        <ele>494</ele>
        <time>2021-09-11T10:27:05.235Z</time>
      </trkpt>
      <trkpt lat="45.88986" lon="6.05022">
        <ele>495</ele>
        <time>2021-09-11T10:27:06.235Z</time>
      </trkpt>
      <trkpt lat="45.88986" lon="6.05017">
        <ele>495</ele>
        <time>2021-09-11T10:27:07.234Z</time>
      </trkpt>
      <trkpt lat="45.88985" lon="6.05011">
        <ele>495</ele>
        <time>2021-09-11T10:27:08.235Z</time>
      </trkpt>
      <trkpt lat="45.88984" lon="6.05007">
        <ele>495</ele>
        <time>2021-09-11T10:27:09.235Z</time>
      </trkpt>
      <trkpt lat="45.88983" lon="6.05">
        <ele>495</ele>
        <time>2021-09-11T10:27:10.235Z</time>
      </trkpt>
      <trkpt lat="45.88982" lon="6.04995">
        <ele>495</ele>
        <time>2021-09-11T10:27:11.235Z</time>
      </trkpt>
      <trkpt lat="45.8898" lon="6.0499">
        <ele>495</ele>
        <time>2021-09-11T10:27:12.234Z</time>
      </trkpt>
      <trkpt lat="45.88979" lon="6.04985">
        <ele>494</ele>
        <time>2021-09-11T10:27:13.235Z</time>
      </trkpt>
      <trkpt lat="45.88978" lon="6.0498">
        <ele>495</ele>
        <time>2021-09-11T10:27:14.234Z</time>
      </trkpt>
      <trkpt lat="45.88976" lon="6.04975">
        <ele>494</ele>
        <time>2021-09-11T10:27:15.234Z</time>
      </trkpt>
      <trkpt lat="45.88975" lon="6.04969">
        <ele>494</ele>
        <time>2021-09-11T10:27:16.235Z</time>
      </trkpt>
      <trkpt lat="45.88974" lon="6.04964">
        <ele>494</ele>
        <time>2021-09-11T10:27:17.234Z</time>
      </trkpt>
      <trkpt lat="45.88972" lon="6.04959">
        <ele>494</ele>
        <time>2021-09-11T10:27:18.234Z</time>
      </trkpt>
      <trkpt lat="45.88971" lon="6.04954">
        <ele>493</ele>
        <time>2021-09-11T10:27:19.235Z</time>
      </trkpt>
      <trkpt lat="45.8897" lon="6.04949">
        <ele>493</ele>
        <time>2021-09-11T10:27:20.235Z</time>
      </trkpt>
      <trkpt lat="45.88968" lon="6.04943">
        <ele>493</ele>
        <time>2021-09-11T10:27:21.235Z</time>
      </trkpt>
      <trkpt lat="45.88967" lon="6.04938">
        <ele>492</ele>
        <time>2021-09-11T10:27:22.234Z</time>
      </trkpt>
      <trkpt lat="45.88965" lon="6.04933">
        <ele>492</ele>
        <time>2021-09-11T10:27:23.234Z</time>
      </trkpt>
      <trkpt lat="45.88964" lon="6.04928">
        <ele>492</ele>
        <time>2021-09-11T10:27:24.234Z</time>
      </trkpt>
      <trkpt lat="45.88963" lon="6.04923">
        <ele>491</ele>
        <time>2021-09-11T10:27:25.234Z</time>
      </trkpt>
      <trkpt lat="45.88961" lon="6.04918">
        <ele>491</ele>
        <time>2021-09-11T10:27:26.235Z</time>
      </trkpt>
      <trkpt lat="45.8896" lon="6.04913">
        <ele>491</ele>
        <time>2021-09-11T10:27:27.235Z</time>
      </trkpt>
      <trkpt lat="45.88958" lon="6.04909">
        <ele>491</ele>
        <time>2021-09-11T10:27:28.235Z</time>
      </trkpt>
      <trkpt lat="45.88957" lon="6.04904">
        <ele>491</ele>
        <time>2021-09-11T10:27:29.235Z</time>
      </trkpt>
      <trkpt lat="45.88955" lon="6.04898">
        <ele>491</ele>
        <time>2021-09-11T10:27:30.234Z</time>
      </trkpt>
      <trkpt lat="45.88954" lon="6.04893">
        <ele>491</ele>
        <time>2021-09-11T10:27:31.235Z</time>
      </trkpt>
      <trkpt lat="45.88954" lon="6.04889">
        <ele>492</ele>
        <time>2021-09-11T10:27:32.235Z</time>
      </trkpt>
      <trkpt lat="45.88953" lon="6.04882">
        <ele>492</ele>
        <time>2021-09-11T10:27:33.235Z</time>
      </trkpt>
      <trkpt lat="45.88953" lon="6.04876">
        <ele>492</ele>
        <time>2021-09-11T10:27:34.235Z</time>
      </trkpt>
      <trkpt lat="45.88953" lon="6.0487">
        <ele>493</ele>
        <time>2021-09-11T10:27:35.235Z</time>
      </trkpt>
      <trkpt lat="45.88952" lon="6.04865">
        <ele>493</ele>
        <time>2021-09-11T10:27:36.235Z</time>
      </trkpt>
      <trkpt lat="45.88953" lon="6.04859">
        <ele>494</ele>
        <time>2021-09-11T10:27:37.234Z</time>
      </trkpt>
      <trkpt lat="45.88953" lon="6.04852">
        <ele>494</ele>
        <time>2021-09-11T10:27:38.235Z</time>
      </trkpt>
      <trkpt lat="45.88953" lon="6.04847">
        <ele>494</ele>
        <time>2021-09-11T10:27:39.235Z</time>
      </trkpt>
      <trkpt lat="45.88954" lon="6.04841">
        <ele>494</ele>
        <time>2021-09-11T10:27:40.235Z</time>
      </trkpt>
      <trkpt lat="45.88954" lon="6.04835">
        <ele>494</ele>
        <time>2021-09-11T10:27:41.234Z</time>
      </trkpt>
      <trkpt lat="45.88955" lon="6.04828">
        <ele>494</ele>
        <time>2021-09-11T10:27:42.234Z</time>
      </trkpt>
      <trkpt lat="45.88955" lon="6.04823">
        <ele>494</ele>
        <time>2021-09-11T10:27:43.234Z</time>
      </trkpt>
      <trkpt lat="45.88956" lon="6.04817">
        <ele>493</ele>
        <time>2021-09-11T10:27:44.235Z</time>
      </trkpt>
      <trkpt lat="45.88956" lon="6.04811">
        <ele>493</ele>
        <time>2021-09-11T10:27:45.235Z</time>
      </trkpt>
      <trkpt lat="45.88956" lon="6.04807">
        <ele>493</ele>
        <time>2021-09-11T10:27:46.235Z</time>
      </trkpt>
      <trkpt lat="45.88956" lon="6.048">
        <ele>493</ele>
        <time>2021-09-11T10:27:47.234Z</time>
      </trkpt>
      <trkpt lat="45.88957" lon="6.04795">
        <ele>493</ele>
        <time>2021-09-11T10:27:48.235Z</time>
      </trkpt>
      <trkpt lat="45.88957" lon="6.04789">
        <ele>493</ele>
        <time>2021-09-11T10:27:49.235Z</time>
      </trkpt>
      <trkpt lat="45.88958" lon="6.04785">
        <ele>494</ele>
        <time>2021-09-11T10:27:50.235Z</time>
      </trkpt>
      <trkpt lat="45.88958" lon="6.04779">
        <ele>494</ele>
        <time>2021-09-11T10:27:51.235Z</time>
      </trkpt>
      <trkpt lat="45.88959" lon="6.04773">
        <ele>494</ele>
        <time>2021-09-11T10:27:52.235Z</time>
      </trkpt>
      <trkpt lat="45.8896" lon="6.04766">
        <ele>495</ele>
        <time>2021-09-11T10:27:53.234Z</time>
      </trkpt>
      <trkpt lat="45.8896" lon="6.04761">
        <ele>495</ele>
        <time>2021-09-11T10:27:54.235Z</time>
      </trkpt>
      <trkpt lat="45.88961" lon="6.04757">
        <ele>495</ele>
        <time>2021-09-11T10:27:55.235Z</time>
      </trkpt>
      <trkpt lat="45.88962" lon="6.04751">
        <ele>496</ele>
        <time>2021-09-11T10:27:56.234Z</time>
      </trkpt>
      <trkpt lat="45.88962" lon="6.04744">
        <ele>496</ele>
        <time>2021-09-11T10:27:57.235Z</time>
      </trkpt>
      <trkpt lat="45.88962" lon="6.04739">
        <ele>497</ele>
        <time>2021-09-11T10:27:58.235Z</time>
      </trkpt>
      <trkpt lat="45.88962" lon="6.04733">
        <ele>498</ele>
        <time>2021-09-11T10:27:59.234Z</time>
      </trkpt>
      <trkpt lat="45.88962" lon="6.04729">
        <ele>498</ele>
        <time>2021-09-11T10:28:00.235Z</time>
      </trkpt>
      <trkpt lat="45.88962" lon="6.04724">
        <ele>499</ele>
        <time>2021-09-11T10:28:01.235Z</time>
      </trkpt>
      <trkpt lat="45.88962" lon="6.04719">
        <ele>499</ele>
        <time>2021-09-11T10:28:02.235Z</time>
      </trkpt>
      <trkpt lat="45.88961" lon="6.04714">
        <ele>499</ele>
        <time>2021-09-11T10:28:03.235Z</time>
      </trkpt>
      <trkpt lat="45.88961" lon="6.04709">
        <ele>499</ele>
        <time>2021-09-11T10:28:04.235Z</time>
      </trkpt>
      <trkpt lat="45.8896" lon="6.04704">
        <ele>499</ele>
        <time>2021-09-11T10:28:05.235Z</time>
      </trkpt>
      <trkpt lat="45.88959" lon="6.04697">
        <ele>499</ele>
        <time>2021-09-11T10:28:06.235Z</time>
      </trkpt>
      <trkpt lat="45.88959" lon="6.04692">
        <ele>499</ele>
        <time>2021-09-11T10:28:07.235Z</time>
      </trkpt>
      <trkpt lat="45.88958" lon="6.04687">
        <ele>498</ele>
        <time>2021-09-11T10:28:08.235Z</time>
      </trkpt>
      <trkpt lat="45.88958" lon="6.04683">
        <ele>498</ele>
        <time>2021-09-11T10:28:09.234Z</time>
      </trkpt>
      <trkpt lat="45.88957" lon="6.04677">
        <ele>498</ele>
        <time>2021-09-11T10:28:10.235Z</time>
      </trkpt>
      <trkpt lat="45.88957" lon="6.0467">
        <ele>498</ele>
        <time>2021-09-11T10:28:11.235Z</time>
      </trkpt>
      <trkpt lat="45.88957" lon="6.04665">
        <ele>497</ele>
        <time>2021-09-11T10:28:12.235Z</time>
      </trkpt>
      <trkpt lat="45.88957" lon="6.04659">
        <ele>497</ele>
        <time>2021-09-11T10:28:13.235Z</time>
      </trkpt>
      <trkpt lat="45.88957" lon="6.04655">
        <ele>497</ele>
        <time>2021-09-11T10:28:14.235Z</time>
      </trkpt>
      <trkpt lat="45.88957" lon="6.04649">
        <ele>497</ele>
        <time>2021-09-11T10:28:15.234Z</time>
      </trkpt>
      <trkpt lat="45.88957" lon="6.04643">
        <ele>497</ele>
        <time>2021-09-11T10:28:16.235Z</time>
      </trkpt>
      <trkpt lat="45.88957" lon="6.04637">
        <ele>497</ele>
        <time>2021-09-11T10:28:17.235Z</time>
      </trkpt>
      <trkpt lat="45.88957" lon="6.04632">
        <ele>497</ele>
        <time>2021-09-11T10:28:18.235Z</time>
      </trkpt>
      <trkpt lat="45.88957" lon="6.04627">
        <ele>497</ele>
        <time>2021-09-11T10:28:19.234Z</time>
      </trkpt>
      <trkpt lat="45.88956" lon="6.04621">
        <ele>497</ele>
        <time>2021-09-11T10:28:20.235Z</time>
      </trkpt>
      <trkpt lat="45.88955" lon="6.04615">
        <ele>497</ele>
        <time>2021-09-11T10:28:21.235Z</time>
      </trkpt>
      <trkpt lat="45.88954" lon="6.0461">
        <ele>497</ele>
        <time>2021-09-11T10:28:22.234Z</time>
      </trkpt>
      <trkpt lat="45.88954" lon="6.04605">
        <ele>496</ele>
        <time>2021-09-11T10:28:23.235Z</time>
      </trkpt>
      <trkpt lat="45.88953" lon="6.046">
        <ele>496</ele>
        <time>2021-09-11T10:28:24.235Z</time>
      </trkpt>
      <trkpt lat="45.88952" lon="6.04595">
        <ele>496</ele>
        <time>2021-09-11T10:28:25.235Z</time>
      </trkpt>
      <trkpt lat="45.88951" lon="6.04588">
        <ele>496</ele>
        <time>2021-09-11T10:28:26.235Z</time>
      </trkpt>
      <trkpt lat="45.88951" lon="6.04583">
        <ele>496</ele>
        <time>2021-09-11T10:28:27.234Z</time>
      </trkpt>
      <trkpt lat="45.8895" lon="6.04579">
        <ele>496</ele>
        <time>2021-09-11T10:28:28.235Z</time>
      </trkpt>
      <trkpt lat="45.8895" lon="6.04572">
        <ele>497</ele>
        <time>2021-09-11T10:28:29.235Z</time>
      </trkpt>
      <trkpt lat="45.8895" lon="6.04566">
        <ele>497</ele>
        <time>2021-09-11T10:28:30.235Z</time>
      </trkpt>
      <trkpt lat="45.8895" lon="6.04562">
        <ele>497</ele>
        <time>2021-09-11T10:28:31.234Z</time>
      </trkpt>
      <trkpt lat="45.88951" lon="6.04556">
        <ele>497</ele>
        <time>2021-09-11T10:28:32.235Z</time>
      </trkpt>
      <trkpt lat="45.88952" lon="6.04551">
        <ele>497</ele>
        <time>2021-09-11T10:28:33.235Z</time>
      </trkpt>
      <trkpt lat="45.88954" lon="6.04544">
        <ele>497</ele>
        <time>2021-09-11T10:28:34.235Z</time>
      </trkpt>
      <trkpt lat="45.88955" lon="6.04539">
        <ele>497</ele>
        <time>2021-09-11T10:28:35.235Z</time>
      </trkpt>
      <trkpt lat="45.88957" lon="6.04533">
        <ele>497</ele>
        <time>2021-09-11T10:28:36.235Z</time>
      </trkpt>
      <trkpt lat="45.88958" lon="6.04528">
        <ele>497</ele>
        <time>2021-09-11T10:28:37.235Z</time>
      </trkpt>
      <trkpt lat="45.88959" lon="6.04522">
        <ele>497</ele>
        <time>2021-09-11T10:28:38.235Z</time>
      </trkpt>
      <trkpt lat="45.8896" lon="6.04516">
        <ele>498</ele>
        <time>2021-09-11T10:28:39.235Z</time>
      </trkpt>
      <trkpt lat="45.88961" lon="6.0451">
        <ele>498</ele>
        <time>2021-09-11T10:28:40.235Z</time>
      </trkpt>
      <trkpt lat="45.88961" lon="6.04505">
        <ele>498</ele>
        <time>2021-09-11T10:28:41.235Z</time>
      </trkpt>
      <trkpt lat="45.8896" lon="6.04499">
        <ele>497</ele>
        <time>2021-09-11T10:28:42.235Z</time>
      </trkpt>
      <trkpt lat="45.88959" lon="6.04493">
        <ele>497</ele>
        <time>2021-09-11T10:28:43.234Z</time>
      </trkpt>
      <trkpt lat="45.88957" lon="6.04486">
        <ele>496</ele>
        <time>2021-09-11T10:28:44.235Z</time>
      </trkpt>
      <trkpt lat="45.88955" lon="6.0448">
        <ele>496</ele>
        <time>2021-09-11T10:28:45.235Z</time>
      </trkpt>
      <trkpt lat="45.88954" lon="6.04476">
        <ele>496</ele>
        <time>2021-09-11T10:28:46.235Z</time>
      </trkpt>
      <trkpt lat="45.88952" lon="6.04469">
        <ele>496</ele>
        <time>2021-09-11T10:28:47.234Z</time>
      </trkpt>
      <trkpt lat="45.88951" lon="6.04464">
        <ele>496</ele>
        <time>2021-09-11T10:28:48.235Z</time>
      </trkpt>
      <trkpt lat="45.88949" lon="6.04459">
        <ele>496</ele>
        <time>2021-09-11T10:28:49.235Z</time>
      </trkpt>
      <trkpt lat="45.88948" lon="6.04455">
        <ele>496</ele>
        <time>2021-09-11T10:28:50.235Z</time>
      </trkpt>
      <trkpt lat="45.88946" lon="6.0445">
        <ele>496</ele>
        <time>2021-09-11T10:28:51.235Z</time>
      </trkpt>
      <trkpt lat="45.88944" lon="6.04443">
        <ele>496</ele>
        <time>2021-09-11T10:28:52.235Z</time>
      </trkpt>
      <trkpt lat="45.88943" lon="6.04438">
        <ele>496</ele>
        <time>2021-09-11T10:28:53.235Z</time>
      </trkpt>
      <trkpt lat="45.88942" lon="6.04433">
        <ele>497</ele>
        <time>2021-09-11T10:28:54.235Z</time>
      </trkpt>
      <trkpt lat="45.8894" lon="6.04428">
        <ele>497</ele>
        <time>2021-09-11T10:28:55.235Z</time>
      </trkpt>
      <trkpt lat="45.88938" lon="6.04421">
        <ele>497</ele>
        <time>2021-09-11T10:28:56.235Z</time>
      </trkpt>
      <trkpt lat="45.88937" lon="6.04415">
        <ele>497</ele>
        <time>2021-09-11T10:28:57.235Z</time>
      </trkpt>
      <trkpt lat="45.88936" lon="6.04409">
        <ele>497</ele>
        <time>2021-09-11T10:28:58.235Z</time>
      </trkpt>
      <trkpt lat="45.88935" lon="6.04404">
        <ele>498</ele>
        <time>2021-09-11T10:28:59.234Z</time>
      </trkpt>
      <trkpt lat="45.88934" lon="6.04397">
        <ele>498</ele>
        <time>2021-09-11T10:29:00.235Z</time>
      </trkpt>
      <trkpt lat="45.88933" lon="6.04391">
        <ele>498</ele>
        <time>2021-09-11T10:29:01.234Z</time>
      </trkpt>
      <trkpt lat="45.88932" lon="6.04385">
        <ele>497</ele>
        <time>2021-09-11T10:29:02.235Z</time>
      </trkpt>
      <trkpt lat="45.88931" lon="6.0438">
        <ele>497</ele>
        <time>2021-09-11T10:29:03.234Z</time>
      </trkpt>
      <trkpt lat="45.88929" lon="6.04374">
        <ele>497</ele>
        <time>2021-09-11T10:29:04.234Z</time>
      </trkpt>
      <trkpt lat="45.88928" lon="6.04368">
        <ele>496</ele>
        <time>2021-09-11T10:29:05.235Z</time>
      </trkpt>
      <trkpt lat="45.88926" lon="6.04361">
        <ele>496</ele>
        <time>2021-09-11T10:29:06.234Z</time>
      </trkpt>
      <trkpt lat="45.88926" lon="6.04357">
        <ele>496</ele>
        <time>2021-09-11T10:29:07.235Z</time>
      </trkpt>
      <trkpt lat="45.88925" lon="6.0435">
        <ele>496</ele>
        <time>2021-09-11T10:29:08.234Z</time>
      </trkpt>
      <trkpt lat="45.88925" lon="6.04344">
        <ele>496</ele>
        <time>2021-09-11T10:29:09.234Z</time>
      </trkpt>
      <trkpt lat="45.88925" lon="6.04338">
        <ele>496</ele>
        <time>2021-09-11T10:29:10.234Z</time>
      </trkpt>
      <trkpt lat="45.88926" lon="6.04332">
        <ele>496</ele>
        <time>2021-09-11T10:29:11.235Z</time>
      </trkpt>
      <trkpt lat="45.88927" lon="6.04327">
        <ele>497</ele>
        <time>2021-09-11T10:29:12.234Z</time>
      </trkpt>
      <trkpt lat="45.88928" lon="6.04321">
        <ele>497</ele>
        <time>2021-09-11T10:29:13.235Z</time>
      </trkpt>
      <trkpt lat="45.8893" lon="6.04316">
        <ele>497</ele>
        <time>2021-09-11T10:29:14.235Z</time>
      </trkpt>
      <trkpt lat="45.88932" lon="6.0431">
        <ele>497</ele>
        <time>2021-09-11T10:29:15.235Z</time>
      </trkpt>
      <trkpt lat="45.88933" lon="6.04306">
        <ele>497</ele>
        <time>2021-09-11T10:29:16.235Z</time>
      </trkpt>
      <trkpt lat="45.88935" lon="6.04301">
        <ele>497</ele>
        <time>2021-09-11T10:29:17.235Z</time>
      </trkpt>
      <trkpt lat="45.88936" lon="6.04296">
        <ele>497</ele>
        <time>2021-09-11T10:29:18.235Z</time>
      </trkpt>
      <trkpt lat="45.88937" lon="6.04291">
        <ele>497</ele>
        <time>2021-09-11T10:29:19.235Z</time>
      </trkpt>
      <trkpt lat="45.88939" lon="6.04287">
        <ele>498</ele>
        <time>2021-09-11T10:29:20.235Z</time>
      </trkpt>
      <trkpt lat="45.8894" lon="6.04283">
        <ele>498</ele>
        <time>2021-09-11T10:29:21.235Z</time>
      </trkpt>
      <trkpt lat="45.88941" lon="6.0428">
        <ele>498</ele>
        <time>2021-09-11T10:29:22.235Z</time>
      </trkpt>
      <trkpt lat="45.88942" lon="6.04275">
        <ele>498</ele>
        <time>2021-09-11T10:29:23.235Z</time>
      </trkpt>
      <trkpt lat="45.88943" lon="6.04271">
        <ele>499</ele>
        <time>2021-09-11T10:29:24.235Z</time>
      </trkpt>
      <trkpt lat="45.88944" lon="6.04268">
        <ele>499</ele>
        <time>2021-09-11T10:29:25.235Z</time>
      </trkpt>
      <trkpt lat="45.88945" lon="6.04265">
        <ele>500</ele>
        <time>2021-09-11T10:29:26.235Z</time>
      </trkpt>
      <trkpt lat="45.88946" lon="6.0426">
        <ele>500</ele>
        <time>2021-09-11T10:29:27.235Z</time>
      </trkpt>
      <trkpt lat="45.88948" lon="6.04256">
        <ele>501</ele>
        <time>2021-09-11T10:29:28.235Z</time>
      </trkpt>
      <trkpt lat="45.88949" lon="6.04252">
        <ele>501</ele>
        <time>2021-09-11T10:29:29.235Z</time>
      </trkpt>
      <trkpt lat="45.88949" lon="6.04248">
        <ele>501</ele>
        <time>2021-09-11T10:29:30.235Z</time>
      </trkpt>
      <trkpt lat="45.88949" lon="6.04244">
        <ele>501</ele>
        <time>2021-09-11T10:29:31.235Z</time>
      </trkpt>
      <trkpt lat="45.88949" lon="6.0424">
        <ele>500</ele>
        <time>2021-09-11T10:29:32.235Z</time>
      </trkpt>
      <trkpt lat="45.88948" lon="6.04237">
        <ele>500</ele>
        <time>2021-09-11T10:29:33.235Z</time>
      </trkpt>
      <trkpt lat="45.88947" lon="6.04233">
        <ele>500</ele>
        <time>2021-09-11T10:29:34.235Z</time>
      </trkpt>
      <trkpt lat="45.88947" lon="6.0423">
        <ele>499</ele>
        <time>2021-09-11T10:29:35.235Z</time>
      </trkpt>
      <trkpt lat="45.88946" lon="6.04226">
        <ele>499</ele>
        <time>2021-09-11T10:29:36.235Z</time>
      </trkpt>
      <trkpt lat="45.88944" lon="6.04222">
        <ele>498</ele>
        <time>2021-09-11T10:29:37.235Z</time>
      </trkpt>
      <trkpt lat="45.88942" lon="6.0422">
        <ele>498</ele>
        <time>2021-09-11T10:29:38.235Z</time>
      </trkpt>
      <trkpt lat="45.8894" lon="6.04217">
        <ele>498</ele>
        <time>2021-09-11T10:29:39.234Z</time>
      </trkpt>
      <trkpt lat="45.88937" lon="6.04215">
        <ele>498</ele>
        <time>2021-09-11T10:29:40.235Z</time>
      </trkpt>
      <trkpt lat="45.88935" lon="6.04213">
        <ele>497</ele>
        <time>2021-09-11T10:29:41.234Z</time>
      </trkpt>
      <trkpt lat="45.88933" lon="6.04211">
        <ele>497</ele>
        <time>2021-09-11T10:29:42.234Z</time>
      </trkpt>
      <trkpt lat="45.8893" lon="6.04209">
        <ele>497</ele>
        <time>2021-09-11T10:29:43.235Z</time>
      </trkpt>
      <trkpt lat="45.88928" lon="6.04207">
        <ele>497</ele>
        <time>2021-09-11T10:29:44.235Z</time>
      </trkpt>
      <trkpt lat="45.88925" lon="6.04205">
        <ele>497</ele>
        <time>2021-09-11T10:29:45.235Z</time>
      </trkpt>
      <trkpt lat="45.88922" lon="6.04203">
        <ele>496</ele>
        <time>2021-09-11T10:29:46.235Z</time>
      </trkpt>
      <trkpt lat="45.88919" lon="6.04202">
        <ele>496</ele>
        <time>2021-09-11T10:29:47.235Z</time>
      </trkpt>
      <trkpt lat="45.88917" lon="6.042">
        <ele>496</ele>
        <time>2021-09-11T10:29:48.235Z</time>
      </trkpt>
      <trkpt lat="45.88914" lon="6.04198">
        <ele>496</ele>
        <time>2021-09-11T10:29:49.234Z</time>
      </trkpt>
      <trkpt lat="45.88911" lon="6.04197">
        <ele>496</ele>
        <time>2021-09-11T10:29:50.235Z</time>
      </trkpt>
      <trkpt lat="45.88909" lon="6.04196">
        <ele>496</ele>
        <time>2021-09-11T10:29:51.235Z</time>
      </trkpt>
      <trkpt lat="45.88907" lon="6.04194">
        <ele>496</ele>
        <time>2021-09-11T10:29:52.235Z</time>
      </trkpt>
      <trkpt lat="45.88906" lon="6.04192">
        <ele>496</ele>
        <time>2021-09-11T10:29:53.235Z</time>
      </trkpt>
      <trkpt lat="45.88905" lon="6.0419">
        <ele>496</ele>
        <time>2021-09-11T10:29:54.235Z</time>
      </trkpt>
      <trkpt lat="45.88904" lon="6.04189">
        <ele>497</ele>
        <time>2021-09-11T10:29:55.235Z</time>
      </trkpt>
      <trkpt lat="45.88904" lon="6.04188">
        <ele>497</ele>
        <time>2021-09-11T10:29:56.235Z</time>
      </trkpt>
      <trkpt lat="45.88904" lon="6.04188">
        <ele>497</ele>
        <time>2021-09-11T10:29:57.234Z</time>
      </trkpt>
      <trkpt lat="45.88908" lon="6.04186">
        <ele>502</ele>
        <time>2021-09-11T10:29:58.236Z</time>
      </trkpt>
      <trkpt lat="45.88911" lon="6.04186">
        <ele>502</ele>
        <time>2021-09-11T10:29:59.236Z</time>
      </trkpt>
      <trkpt lat="45.88914" lon="6.04185">
        <ele>502</ele>
        <time>2021-09-11T10:30:00.236Z</time>
      </trkpt>
      <trkpt lat="45.88917" lon="6.04185">
        <ele>502</ele>
        <time>2021-09-11T10:30:01.236Z</time>
      </trkpt>
      <trkpt lat="45.8892" lon="6.04184">
        <ele>502</ele>
        <time>2021-09-11T10:30:02.236Z</time>
      </trkpt>
      <trkpt lat="45.88923" lon="6.04184">
        <ele>503</ele>
        <time>2021-09-11T10:30:03.236Z</time>
      </trkpt>
      <trkpt lat="45.88926" lon="6.04184">
        <ele>503</ele>
        <time>2021-09-11T10:30:04.236Z</time>
      </trkpt>
      <trkpt lat="45.88929" lon="6.04183">
        <ele>502</ele>
        <time>2021-09-11T10:30:05.236Z</time>
      </trkpt>
      <trkpt lat="45.88932" lon="6.04184">
        <ele>502</ele>
        <time>2021-09-11T10:30:06.236Z</time>
      </trkpt>
      <trkpt lat="45.88935" lon="6.04184">
        <ele>502</ele>
        <time>2021-09-11T10:30:07.236Z</time>
      </trkpt>
      <trkpt lat="45.88938" lon="6.04184">
        <ele>502</ele>
        <time>2021-09-11T10:30:08.236Z</time>
      </trkpt>
      <trkpt lat="45.88942" lon="6.04184">
        <ele>502</ele>
        <time>2021-09-11T10:30:09.236Z</time>
      </trkpt>
      <trkpt lat="45.88946" lon="6.04185">
        <ele>503</ele>
        <time>2021-09-11T10:30:10.237Z</time>
      </trkpt>
      <trkpt lat="45.8895" lon="6.04185">
        <ele>504</ele>
        <time>2021-09-11T10:30:11.236Z</time>
      </trkpt>
      <trkpt lat="45.88955" lon="6.04186">
        <ele>504</ele>
        <time>2021-09-11T10:30:12.237Z</time>
      </trkpt>
      <trkpt lat="45.88959" lon="6.04187">
        <ele>504</ele>
        <time>2021-09-11T10:30:13.236Z</time>
      </trkpt>
      <trkpt lat="45.88964" lon="6.04187">
        <ele>505</ele>
        <time>2021-09-11T10:30:14.236Z</time>
      </trkpt>
      <trkpt lat="45.88968" lon="6.04188">
        <ele>505</ele>
        <time>2021-09-11T10:30:15.236Z</time>
      </trkpt>
      <trkpt lat="45.88973" lon="6.04189">
        <ele>505</ele>
        <time>2021-09-11T10:30:16.237Z</time>
      </trkpt>
      <trkpt lat="45.88978" lon="6.0419">
        <ele>505</ele>
        <time>2021-09-11T10:30:17.236Z</time>
      </trkpt>
      <trkpt lat="45.88983" lon="6.04192">
        <ele>505</ele>
        <time>2021-09-11T10:30:18.237Z</time>
      </trkpt>
      <trkpt lat="45.88988" lon="6.04193">
        <ele>505</ele>
        <time>2021-09-11T10:30:19.236Z</time>
      </trkpt>
      <trkpt lat="45.88993" lon="6.04194">
        <ele>505</ele>
        <time>2021-09-11T10:30:20.237Z</time>
      </trkpt>
      <trkpt lat="45.88998" lon="6.04196">
        <ele>505</ele>
        <time>2021-09-11T10:30:21.236Z</time>
      </trkpt>
      <trkpt lat="45.89004" lon="6.04197">
        <ele>505</ele>
        <time>2021-09-11T10:30:22.236Z</time>
      </trkpt>
      <trkpt lat="45.89009" lon="6.04199">
        <ele>504</ele>
        <time>2021-09-11T10:30:23.237Z</time>
      </trkpt>
      <trkpt lat="45.89015" lon="6.042">
        <ele>504</ele>
        <time>2021-09-11T10:30:24.236Z</time>
      </trkpt>
      <trkpt lat="45.8902" lon="6.04202">
        <ele>503</ele>
        <time>2021-09-11T10:30:25.236Z</time>
      </trkpt>
      <trkpt lat="45.89027" lon="6.04203">
        <ele>503</ele>
        <time>2021-09-11T10:30:26.237Z</time>
      </trkpt>
      <trkpt lat="45.89033" lon="6.04204">
        <ele>503</ele>
        <time>2021-09-11T10:30:27.236Z</time>
      </trkpt>
      <trkpt lat="45.89039" lon="6.04206">
        <ele>502</ele>
        <time>2021-09-11T10:30:28.236Z</time>
      </trkpt>
      <trkpt lat="45.89046" lon="6.04207">
        <ele>502</ele>
        <time>2021-09-11T10:30:29.236Z</time>
      </trkpt>
      <trkpt lat="45.89052" lon="6.04209">
        <ele>502</ele>
        <time>2021-09-11T10:30:30.237Z</time>
      </trkpt>
      <trkpt lat="45.89059" lon="6.04211">
        <ele>502</ele>
        <time>2021-09-11T10:30:31.236Z</time>
      </trkpt>
      <trkpt lat="45.89065" lon="6.04212">
        <ele>502</ele>
        <time>2021-09-11T10:30:32.236Z</time>
      </trkpt>
      <trkpt lat="45.89072" lon="6.04214">
        <ele>502</ele>
        <time>2021-09-11T10:30:33.236Z</time>
      </trkpt>
      <trkpt lat="45.89079" lon="6.04215">
        <ele>502</ele>
        <time>2021-09-11T10:30:34.236Z</time>
      </trkpt>
      <trkpt lat="45.89086" lon="6.04217">
        <ele>503</ele>
        <time>2021-09-11T10:30:35.237Z</time>
      </trkpt>
      <trkpt lat="45.89092" lon="6.04219">
        <ele>503</ele>
        <time>2021-09-11T10:30:36.237Z</time>
      </trkpt>
      <trkpt lat="45.89098" lon="6.04221">
        <ele>503</ele>
        <time>2021-09-11T10:30:37.236Z</time>
      </trkpt>
      <trkpt lat="45.89104" lon="6.04224">
        <ele>503</ele>
        <time>2021-09-11T10:30:38.236Z</time>
      </trkpt>
      <trkpt lat="45.8911" lon="6.04227">
        <ele>503</ele>
        <time>2021-09-11T10:30:39.237Z</time>
      </trkpt>
      <trkpt lat="45.89116" lon="6.0423">
        <ele>503</ele>
        <time>2021-09-11T10:30:40.237Z</time>
      </trkpt>
      <trkpt lat="45.89123" lon="6.04233">
        <ele>503</ele>
        <time>2021-09-11T10:30:41.236Z</time>
      </trkpt>
      <trkpt lat="45.89129" lon="6.04237">
        <ele>502</ele>
        <time>2021-09-11T10:30:42.236Z</time>
      </trkpt>
      <trkpt lat="45.89135" lon="6.04241">
        <ele>502</ele>
        <time>2021-09-11T10:30:43.236Z</time>
      </trkpt>
      <trkpt lat="45.89142" lon="6.04245">
        <ele>502</ele>
        <time>2021-09-11T10:30:44.236Z</time>
      </trkpt>
      <trkpt lat="45.89149" lon="6.04249">
        <ele>502</ele>
        <time>2021-09-11T10:30:45.236Z</time>
      </trkpt>
      <trkpt lat="45.89156" lon="6.04253">
        <ele>501</ele>
        <time>2021-09-11T10:30:46.236Z</time>
      </trkpt>
      <trkpt lat="45.89163" lon="6.04256">
        <ele>501</ele>
        <time>2021-09-11T10:30:47.236Z</time>
      </trkpt>
      <trkpt lat="45.89171" lon="6.04259">
        <ele>500</ele>
        <time>2021-09-11T10:30:48.237Z</time>
      </trkpt>
      <trkpt lat="45.89178" lon="6.04262">
        <ele>500</ele>
        <time>2021-09-11T10:30:49.236Z</time>
      </trkpt>
      <trkpt lat="45.89186" lon="6.04263">
        <ele>499</ele>
        <time>2021-09-11T10:30:50.237Z</time>
      </trkpt>
      <trkpt lat="45.89194" lon="6.04262">
        <ele>499</ele>
        <time>2021-09-11T10:30:51.236Z</time>
      </trkpt>
      <trkpt lat="45.89202" lon="6.04259">
        <ele>498</ele>
        <time>2021-09-11T10:30:52.236Z</time>
      </trkpt>
      <trkpt lat="45.8921" lon="6.04254">
        <ele>498</ele>
        <time>2021-09-11T10:30:53.236Z</time>
      </trkpt>
      <trkpt lat="45.89217" lon="6.04247">
        <ele>498</ele>
        <time>2021-09-11T10:30:54.237Z</time>
      </trkpt>
      <trkpt lat="45.89224" lon="6.0424">
        <ele>497</ele>
        <time>2021-09-11T10:30:55.236Z</time>
      </trkpt>
      <trkpt lat="45.89231" lon="6.04231">
        <ele>496</ele>
        <time>2021-09-11T10:30:56.237Z</time>
      </trkpt>
      <trkpt lat="45.89239" lon="6.04221">
        <ele>495</ele>
        <time>2021-09-11T10:30:57.236Z</time>
      </trkpt>
      <trkpt lat="45.89246" lon="6.04211">
        <ele>495</ele>
        <time>2021-09-11T10:30:58.236Z</time>
      </trkpt>
      <trkpt lat="45.89254" lon="6.04201">
        <ele>495</ele>
        <time>2021-09-11T10:30:59.237Z</time>
      </trkpt>
      <trkpt lat="45.89262" lon="6.04191">
        <ele>494</ele>
        <time>2021-09-11T10:31:00.236Z</time>
      </trkpt>
      <trkpt lat="45.8927" lon="6.04182">
        <ele>493</ele>
        <time>2021-09-11T10:31:01.236Z</time>
      </trkpt>
      <trkpt lat="45.89277" lon="6.04172">
        <ele>492</ele>
        <time>2021-09-11T10:31:02.237Z</time>
      </trkpt>
      <trkpt lat="45.89284" lon="6.0416">
        <ele>491</ele>
        <time>2021-09-11T10:31:03.236Z</time>
      </trkpt>
      <trkpt lat="45.89291" lon="6.04149">
        <ele>490</ele>
        <time>2021-09-11T10:31:04.236Z</time>
      </trkpt>
      <trkpt lat="45.89298" lon="6.04136">
        <ele>490</ele>
        <time>2021-09-11T10:31:05.236Z</time>
      </trkpt>
      <trkpt lat="45.89305" lon="6.04123">
        <ele>489</ele>
        <time>2021-09-11T10:31:06.236Z</time>
      </trkpt>
      <trkpt lat="45.89312" lon="6.0411">
        <ele>488</ele>
        <time>2021-09-11T10:31:07.237Z</time>
      </trkpt>
      <trkpt lat="45.89319" lon="6.04097">
        <ele>488</ele>
        <time>2021-09-11T10:31:08.236Z</time>
      </trkpt>
      <trkpt lat="45.89327" lon="6.04081">
        <ele>487</ele>
        <time>2021-09-11T10:31:09.237Z</time>
      </trkpt>
      <trkpt lat="45.89333" lon="6.0407">
        <ele>487</ele>
        <time>2021-09-11T10:31:10.236Z</time>
      </trkpt>
      <trkpt lat="45.8934" lon="6.04056">
        <ele>486</ele>
        <time>2021-09-11T10:31:11.236Z</time>
      </trkpt>
      <trkpt lat="45.89347" lon="6.04043">
        <ele>485</ele>
        <time>2021-09-11T10:31:12.237Z</time>
      </trkpt>
      <trkpt lat="45.89354" lon="6.04031">
        <ele>485</ele>
        <time>2021-09-11T10:31:13.236Z</time>
      </trkpt>
      <trkpt lat="45.89361" lon="6.04019">
        <ele>484</ele>
        <time>2021-09-11T10:31:14.237Z</time>
      </trkpt>
      <trkpt lat="45.89369" lon="6.04006">
        <ele>483</ele>
        <time>2021-09-11T10:31:15.236Z</time>
      </trkpt>
      <trkpt lat="45.89373" lon="6.03997">
        <ele>482</ele>
        <time>2021-09-11T10:31:16.236Z</time>
      </trkpt>
      <trkpt lat="45.89377" lon="6.03986">
        <ele>482</ele>
        <time>2021-09-11T10:31:17.237Z</time>
      </trkpt>
      <trkpt lat="45.89379" lon="6.03972">
        <ele>481</ele>
        <time>2021-09-11T10:31:18.236Z</time>
      </trkpt>
      <trkpt lat="45.89379" lon="6.03962">
        <ele>480</ele>
        <time>2021-09-11T10:31:19.237Z</time>
      </trkpt>
      <trkpt lat="45.89378" lon="6.0395">
        <ele>478</ele>
        <time>2021-09-11T10:31:20.237Z</time>
      </trkpt>
      <trkpt lat="45.89375" lon="6.03939">
        <ele>477</ele>
        <time>2021-09-11T10:31:21.236Z</time>
      </trkpt>
      <trkpt lat="45.89373" lon="6.03928">
        <ele>476</ele>
        <time>2021-09-11T10:31:22.236Z</time>
      </trkpt>
      <trkpt lat="45.89374" lon="6.03918">
        <ele>474</ele>
        <time>2021-09-11T10:31:23.237Z</time>
      </trkpt>
      <trkpt lat="45.89377" lon="6.03909">
        <ele>474</ele>
        <time>2021-09-11T10:31:24.237Z</time>
      </trkpt>
      <trkpt lat="45.89381" lon="6.03906">
        <ele>472</ele>
        <time>2021-09-11T10:31:25.237Z</time>
      </trkpt>
      <trkpt lat="45.89387" lon="6.03906">
        <ele>472</ele>
        <time>2021-09-11T10:31:26.236Z</time>
      </trkpt>
      <trkpt lat="45.89394" lon="6.03911">
        <ele>471</ele>
        <time>2021-09-11T10:31:27.236Z</time>
      </trkpt>
      <trkpt lat="45.894" lon="6.03919">
        <ele>470</ele>
        <time>2021-09-11T10:31:28.236Z</time>
      </trkpt>
      <trkpt lat="45.89404" lon="6.03929">
        <ele>469</ele>
        <time>2021-09-11T10:31:29.236Z</time>
      </trkpt>
      <trkpt lat="45.89408" lon="6.0394">
        <ele>469</ele>
        <time>2021-09-11T10:31:30.236Z</time>
      </trkpt>
      <trkpt lat="45.8941" lon="6.03953">
        <ele>468</ele>
        <time>2021-09-11T10:31:31.236Z</time>
      </trkpt>
      <trkpt lat="45.89414" lon="6.03966">
        <ele>467</ele>
        <time>2021-09-11T10:31:32.236Z</time>
      </trkpt>
      <trkpt lat="45.89418" lon="6.03979">
        <ele>466</ele>
        <time>2021-09-11T10:31:33.236Z</time>
      </trkpt>
      <trkpt lat="45.89424" lon="6.03993">
        <ele>466</ele>
        <time>2021-09-11T10:31:34.236Z</time>
      </trkpt>
      <trkpt lat="45.8943" lon="6.04007">
        <ele>466</ele>
        <time>2021-09-11T10:31:35.236Z</time>
      </trkpt>
      <trkpt lat="45.89436" lon="6.04019">
        <ele>466</ele>
        <time>2021-09-11T10:31:36.236Z</time>
      </trkpt>
      <trkpt lat="45.89443" lon="6.04032">
        <ele>466</ele>
        <time>2021-09-11T10:31:37.236Z</time>
      </trkpt>
      <trkpt lat="45.89449" lon="6.04045">
        <ele>466</ele>
        <time>2021-09-11T10:31:38.236Z</time>
      </trkpt>
      <trkpt lat="45.89453" lon="6.04059">
        <ele>465</ele>
        <time>2021-09-11T10:31:39.236Z</time>
      </trkpt>
      <trkpt lat="45.89456" lon="6.04074">
        <ele>465</ele>
        <time>2021-09-11T10:31:40.237Z</time>
      </trkpt>
      <trkpt lat="45.89455" lon="6.04088">
        <ele>464</ele>
        <time>2021-09-11T10:31:41.237Z</time>
      </trkpt>
      <trkpt lat="45.89452" lon="6.04101">
        <ele>464</ele>
        <time>2021-09-11T10:31:42.236Z</time>
      </trkpt>
      <trkpt lat="45.89447" lon="6.04114">
        <ele>463</ele>
        <time>2021-09-11T10:31:43.236Z</time>
      </trkpt>
      <trkpt lat="45.89442" lon="6.04124">
        <ele>463</ele>
        <time>2021-09-11T10:31:44.236Z</time>
      </trkpt>
      <trkpt lat="45.89437" lon="6.04135">
        <ele>462</ele>
        <time>2021-09-11T10:31:45.237Z</time>
      </trkpt>
      <trkpt lat="45.89435" lon="6.04145">
        <ele>462</ele>
        <time>2021-09-11T10:31:46.237Z</time>
      </trkpt>
      <trkpt lat="45.89435" lon="6.04153">
        <ele>461</ele>
        <time>2021-09-11T10:31:47.237Z</time>
      </trkpt>
      <trkpt lat="45.89436" lon="6.04158">
        <ele>461</ele>
        <time>2021-09-11T10:31:48.236Z</time>
      </trkpt>
      <trkpt lat="45.8944" lon="6.04159">
        <ele>460</ele>
        <time>2021-09-11T10:31:49.236Z</time>
      </trkpt>
      <trkpt lat="45.89445" lon="6.04157">
        <ele>459</ele>
        <time>2021-09-11T10:31:50.236Z</time>
      </trkpt>
      <trkpt lat="45.8945" lon="6.04154">
        <ele>459</ele>
        <time>2021-09-11T10:31:51.237Z</time>
      </trkpt>
      <trkpt lat="45.89455" lon="6.04148">
        <ele>458</ele>
        <time>2021-09-11T10:31:52.236Z</time>
      </trkpt>
      <trkpt lat="45.89461" lon="6.04143">
        <ele>457</ele>
        <time>2021-09-11T10:31:53.236Z</time>
      </trkpt>
      <trkpt lat="45.89468" lon="6.04136">
        <ele>456</ele>
        <time>2021-09-11T10:31:54.236Z</time>
      </trkpt>
      <trkpt lat="45.89475" lon="6.04131">
        <ele>455</ele>
        <time>2021-09-11T10:31:55.236Z</time>
      </trkpt>
      <trkpt lat="45.89483" lon="6.04125">
        <ele>454</ele>
        <time>2021-09-11T10:31:56.236Z</time>
      </trkpt>
      <trkpt lat="45.89491" lon="6.04119">
        <ele>453</ele>
        <time>2021-09-11T10:31:57.236Z</time>
      </trkpt>
      <trkpt lat="45.895" lon="6.04113">
        <ele>451</ele>
        <time>2021-09-11T10:31:58.237Z</time>
      </trkpt>
      <trkpt lat="45.89508" lon="6.04105">
        <ele>451</ele>
        <time>2021-09-11T10:31:59.236Z</time>
      </trkpt>
      <trkpt lat="45.89515" lon="6.04096">
        <ele>450</ele>
        <time>2021-09-11T10:32:00.236Z</time>
      </trkpt>
      <trkpt lat="45.89522" lon="6.04086">
        <ele>449</ele>
        <time>2021-09-11T10:32:01.237Z</time>
      </trkpt>
      <trkpt lat="45.89526" lon="6.04073">
        <ele>448</ele>
        <time>2021-09-11T10:32:02.236Z</time>
      </trkpt>
      <trkpt lat="45.8953" lon="6.04056">
        <ele>447</ele>
        <time>2021-09-11T10:32:03.236Z</time>
      </trkpt>
      <trkpt lat="45.89533" lon="6.04041">
        <ele>447</ele>
        <time>2021-09-11T10:32:04.236Z</time>
      </trkpt>
      <trkpt lat="45.89532" lon="6.04024">
        <ele>447</ele>
        <time>2021-09-11T10:32:05.236Z</time>
      </trkpt>
      <trkpt lat="45.89531" lon="6.04009">
        <ele>446</ele>
        <time>2021-09-11T10:32:06.236Z</time>
      </trkpt>
      <trkpt lat="45.89528" lon="6.03992">
        <ele>446</ele>
        <time>2021-09-11T10:32:07.236Z</time>
      </trkpt>
      <trkpt lat="45.89526" lon="6.03975">
        <ele>445</ele>
        <time>2021-09-11T10:32:08.237Z</time>
      </trkpt>
      <trkpt lat="45.89522" lon="6.03956">
        <ele>445</ele>
        <time>2021-09-11T10:32:09.236Z</time>
      </trkpt>
      <trkpt lat="45.89518" lon="6.03938">
        <ele>445</ele>
        <time>2021-09-11T10:32:10.236Z</time>
      </trkpt>
      <trkpt lat="45.89513" lon="6.03919">
        <ele>444</ele>
        <time>2021-09-11T10:32:11.236Z</time>
      </trkpt>
      <trkpt lat="45.89508" lon="6.03899">
        <ele>444</ele>
        <time>2021-09-11T10:32:12.237Z</time>
      </trkpt>
      <trkpt lat="45.89503" lon="6.03881">
        <ele>443</ele>
        <time>2021-09-11T10:32:13.236Z</time>
      </trkpt>
      <trkpt lat="45.895" lon="6.03862">
        <ele>442</ele>
        <time>2021-09-11T10:32:14.237Z</time>
      </trkpt>
      <trkpt lat="45.89497" lon="6.03843">
        <ele>441</ele>
        <time>2021-09-11T10:32:15.236Z</time>
      </trkpt>
      <trkpt lat="45.89493" lon="6.03826">
        <ele>441</ele>
        <time>2021-09-11T10:32:16.237Z</time>
      </trkpt>
      <trkpt lat="45.8949" lon="6.03812">
        <ele>440</ele>
        <time>2021-09-11T10:32:17.236Z</time>
      </trkpt>
      <trkpt lat="45.89487" lon="6.03798">
        <ele>439</ele>
        <time>2021-09-11T10:32:18.237Z</time>
      </trkpt>
      <trkpt lat="45.89484" lon="6.03782">
        <ele>438</ele>
        <time>2021-09-11T10:32:19.237Z</time>
      </trkpt>
      <trkpt lat="45.89483" lon="6.0377">
        <ele>437</ele>
        <time>2021-09-11T10:32:20.237Z</time>
      </trkpt>
      <trkpt lat="45.89483" lon="6.03758">
        <ele>435</ele>
        <time>2021-09-11T10:32:21.236Z</time>
      </trkpt>
      <trkpt lat="45.89482" lon="6.03744">
        <ele>434</ele>
        <time>2021-09-11T10:32:22.236Z</time>
      </trkpt>
      <trkpt lat="45.89482" lon="6.03732">
        <ele>432</ele>
        <time>2021-09-11T10:32:23.236Z</time>
      </trkpt>
      <trkpt lat="45.89485" lon="6.03721">
        <ele>430</ele>
        <time>2021-09-11T10:32:24.236Z</time>
      </trkpt>
      <trkpt lat="45.89489" lon="6.0371">
        <ele>429</ele>
        <time>2021-09-11T10:32:25.236Z</time>
      </trkpt>
      <trkpt lat="45.89495" lon="6.03702">
        <ele>427</ele>
        <time>2021-09-11T10:32:26.236Z</time>
      </trkpt>
      <trkpt lat="45.89502" lon="6.03694">
        <ele>426</ele>
        <time>2021-09-11T10:32:27.236Z</time>
      </trkpt>
      <trkpt lat="45.89514" lon="6.03688">
        <ele>425</ele>
        <time>2021-09-11T10:32:28.237Z</time>
      </trkpt>
      <trkpt lat="45.89522" lon="6.03687">
        <ele>423</ele>
        <time>2021-09-11T10:32:29.236Z</time>
      </trkpt>
      <trkpt lat="45.89532" lon="6.03686">
        <ele>422</ele>
        <time>2021-09-11T10:32:30.236Z</time>
      </trkpt>
      <trkpt lat="45.8954" lon="6.03683">
        <ele>421</ele>
        <time>2021-09-11T10:32:31.237Z</time>
      </trkpt>
      <trkpt lat="45.89548" lon="6.03678">
        <ele>420</ele>
        <time>2021-09-11T10:32:32.236Z</time>
      </trkpt>
      <trkpt lat="45.89554" lon="6.03675">
        <ele>419</ele>
        <time>2021-09-11T10:32:33.236Z</time>
      </trkpt>
      <trkpt lat="45.8956" lon="6.0367">
        <ele>418</ele>
        <time>2021-09-11T10:32:34.236Z</time>
      </trkpt>
      <trkpt lat="45.89565" lon="6.03666">
        <ele>417</ele>
        <time>2021-09-11T10:32:35.236Z</time>
      </trkpt>
      <trkpt lat="45.89568" lon="6.03662">
        <ele>416</ele>
        <time>2021-09-11T10:32:36.236Z</time>
      </trkpt>
      <trkpt lat="45.89571" lon="6.03659">
        <ele>415</ele>
        <time>2021-09-11T10:32:37.237Z</time>
      </trkpt>
      <trkpt lat="45.89573" lon="6.03657">
        <ele>415</ele>
        <time>2021-09-11T10:32:38.236Z</time>
      </trkpt>
      <trkpt lat="45.89574" lon="6.03656">
        <ele>414</ele>
        <time>2021-09-11T10:32:39.236Z</time>
      </trkpt>
      <trkpt lat="45.89574" lon="6.03657">
        <ele>413</ele>
        <time>2021-09-11T10:32:40.236Z</time>
      </trkpt>
      <trkpt lat="45.89574" lon="6.03656">
        <ele>413</ele>
        <time>2021-09-11T10:32:41.236Z</time>
      </trkpt>
      <trkpt lat="45.89573" lon="6.03655">
        <ele>412</ele>
        <time>2021-09-11T10:32:42.236Z</time>
      </trkpt>
      <trkpt lat="45.89572" lon="6.03654">
        <ele>412</ele>
        <time>2021-09-11T10:32:43.236Z</time>
      </trkpt>
      <trkpt lat="45.89572" lon="6.03654">
        <ele>411</ele>
        <time>2021-09-11T10:32:44.236Z</time>
      </trkpt>
      <trkpt lat="45.89571" lon="6.03655">
        <ele>411</ele>
        <time>2021-09-11T10:32:45.237Z</time>
      </trkpt>
      <trkpt lat="45.8957" lon="6.03662">
        <ele>410</ele>
        <time>2021-09-11T10:32:46.237Z</time>
      </trkpt>
      <trkpt lat="45.8957" lon="6.03663">
        <ele>409</ele>
        <time>2021-09-11T10:32:47.238Z</time>
      </trkpt>
      <trkpt lat="45.89576" lon="6.03676">
        <ele>404</ele>
        <time>2021-09-11T10:32:48.238Z</time>
      </trkpt>
      <trkpt lat="45.89575" lon="6.03674">
        <ele>404</ele>
        <time>2021-09-11T10:32:49.238Z</time>
      </trkpt>
      <trkpt lat="45.89575" lon="6.03673">
        <ele>404</ele>
        <time>2021-09-11T10:32:50.237Z</time>
      </trkpt>
      <trkpt lat="45.89574" lon="6.03672">
        <ele>403</ele>
        <time>2021-09-11T10:32:51.238Z</time>
      </trkpt>
      <trkpt lat="45.89573" lon="6.03672">
        <ele>403</ele>
        <time>2021-09-11T10:32:52.238Z</time>
      </trkpt>
      <trkpt lat="45.89573" lon="6.03671">
        <ele>403</ele>
        <time>2021-09-11T10:32:53.237Z</time>
      </trkpt>
      <trkpt lat="45.89572" lon="6.03671">
        <ele>403</ele>
        <time>2021-09-11T10:32:54.238Z</time>
      </trkpt>
      <trkpt lat="45.89573" lon="6.03671">
        <ele>403</ele>
        <time>2021-09-11T10:32:55.238Z</time>
      </trkpt>
      <trkpt lat="45.89574" lon="6.03671">
        <ele>404</ele>
        <time>2021-09-11T10:32:56.237Z</time>
      </trkpt>
      <trkpt lat="45.89574" lon="6.0367">
        <ele>404</ele>
        <time>2021-09-11T10:32:57.238Z</time>
      </trkpt>
      <trkpt lat="45.89575" lon="6.03669">
        <ele>404</ele>
        <time>2021-09-11T10:32:58.238Z</time>
      </trkpt>
      <trkpt lat="45.89575" lon="6.03668">
        <ele>404</ele>
        <time>2021-09-11T10:32:59.237Z</time>
      </trkpt>
      <trkpt lat="45.89575" lon="6.03666">
        <ele>405</ele>
        <time>2021-09-11T10:33:00.238Z</time>
      </trkpt>
      <trkpt lat="45.89574" lon="6.03665">
        <ele>405</ele>
        <time>2021-09-11T10:33:01.238Z</time>
      </trkpt>
      <trkpt lat="45.89573" lon="6.03665">
        <ele>405</ele>
        <time>2021-09-11T10:33:02.238Z</time>
      </trkpt>
      <trkpt lat="45.89573" lon="6.03665">
        <ele>405</ele>
        <time>2021-09-11T10:33:03.238Z</time>
      </trkpt>
      <trkpt lat="45.89573" lon="6.03665">
        <ele>405</ele>
        <time>2021-09-11T10:33:04.237Z</time>
      </trkpt>
      <trkpt lat="45.89572" lon="6.03665">
        <ele>405</ele>
        <time>2021-09-11T10:33:05.238Z</time>
      </trkpt>
      <trkpt lat="45.89572" lon="6.03666">
        <ele>404</ele>
        <time>2021-09-11T10:33:06.237Z</time>
      </trkpt>
      <trkpt lat="45.89572" lon="6.03666">
        <ele>404</ele>
        <time>2021-09-11T10:33:07.238Z</time>
      </trkpt>
      <trkpt lat="45.89568" lon="6.03658">
        <ele>404</ele>
        <time>2021-09-11T10:33:08.239Z</time>
      </trkpt>
      <trkpt lat="45.89568" lon="6.03658">
        <ele>404</ele>
        <time>2021-09-11T10:33:09.238Z</time>
      </trkpt>
      <trkpt lat="45.89568" lon="6.03658">
        <ele>404</ele>
        <time>2021-09-11T10:33:10.238Z</time>
      </trkpt>
      <trkpt lat="45.89568" lon="6.03651">
        <ele>408</ele>
        <time>2021-09-11T10:33:11.239Z</time>
      </trkpt>
      <trkpt lat="45.89569" lon="6.03647">
        <ele>407</ele>
        <time>2021-09-11T10:33:12.239Z</time>
      </trkpt>
      <trkpt lat="45.8957" lon="6.03643">
        <ele>407</ele>
        <time>2021-09-11T10:33:13.239Z</time>
      </trkpt>
      <trkpt lat="45.89572" lon="6.03639">
        <ele>406</ele>
        <time>2021-09-11T10:33:14.240Z</time>
      </trkpt>
      <trkpt lat="45.89573" lon="6.03636">
        <ele>406</ele>
        <time>2021-09-11T10:33:15.239Z</time>
      </trkpt>
      <trkpt lat="45.89576" lon="6.03632">
        <ele>405</ele>
        <time>2021-09-11T10:33:16.240Z</time>
      </trkpt>
      <trkpt lat="45.89578" lon="6.0363">
        <ele>405</ele>
        <time>2021-09-11T10:33:17.240Z</time>
      </trkpt>
      <trkpt lat="45.89581" lon="6.03627">
        <ele>404</ele>
        <time>2021-09-11T10:33:18.240Z</time>
      </trkpt>
      <trkpt lat="45.89584" lon="6.03626">
        <ele>404</ele>
        <time>2021-09-11T10:33:19.240Z</time>
      </trkpt>
      <trkpt lat="45.89587" lon="6.03625">
        <ele>404</ele>
        <time>2021-09-11T10:33:20.240Z</time>
      </trkpt>
      <trkpt lat="45.8959" lon="6.03625">
        <ele>403</ele>
        <time>2021-09-11T10:33:21.240Z</time>
      </trkpt>
      <trkpt lat="45.89593" lon="6.03626">
        <ele>403</ele>
        <time>2021-09-11T10:33:22.240Z</time>
      </trkpt>
      <trkpt lat="45.89595" lon="6.03627">
        <ele>403</ele>
        <time>2021-09-11T10:33:23.240Z</time>
      </trkpt>
      <trkpt lat="45.89598" lon="6.03629">
        <ele>403</ele>
        <time>2021-09-11T10:33:24.240Z</time>
      </trkpt>
      <trkpt lat="45.896" lon="6.03629">
        <ele>403</ele>
        <time>2021-09-11T10:33:25.240Z</time>
      </trkpt>
      <trkpt lat="45.89604" lon="6.03631">
        <ele>403</ele>
        <time>2021-09-11T10:33:26.240Z</time>
      </trkpt>
      <trkpt lat="45.89606" lon="6.03633">
        <ele>403</ele>
        <time>2021-09-11T10:33:27.240Z</time>
      </trkpt>
      <trkpt lat="45.89609" lon="6.03634">
        <ele>403</ele>
        <time>2021-09-11T10:33:28.240Z</time>
      </trkpt>
      <trkpt lat="45.8961" lon="6.03635">
        <ele>403</ele>
        <time>2021-09-11T10:33:29.240Z</time>
      </trkpt>
      <trkpt lat="45.89612" lon="6.03636">
        <ele>403</ele>
        <time>2021-09-11T10:33:30.239Z</time>
      </trkpt>
      <trkpt lat="45.89614" lon="6.03637">
        <ele>403</ele>
        <time>2021-09-11T10:33:31.240Z</time>
      </trkpt>
      <trkpt lat="45.89615" lon="6.03639">
        <ele>403</ele>
        <time>2021-09-11T10:33:32.239Z</time>
      </trkpt>
      <trkpt lat="45.89617" lon="6.03641">
        <ele>403</ele>
        <time>2021-09-11T10:33:33.240Z</time>
      </trkpt>
      <trkpt lat="45.89619" lon="6.03642">
        <ele>403</ele>
        <time>2021-09-11T10:33:34.240Z</time>
      </trkpt>
      <trkpt lat="45.8962" lon="6.03644">
        <ele>403</ele>
        <time>2021-09-11T10:33:35.240Z</time>
      </trkpt>
      <trkpt lat="45.89622" lon="6.03646">
        <ele>403</ele>
        <time>2021-09-11T10:33:36.239Z</time>
      </trkpt>
      <trkpt lat="45.89623" lon="6.03648">
        <ele>403</ele>
        <time>2021-09-11T10:33:37.240Z</time>
      </trkpt>
      <trkpt lat="45.89625" lon="6.0365">
        <ele>404</ele>
        <time>2021-09-11T10:33:38.239Z</time>
      </trkpt>
      <trkpt lat="45.89626" lon="6.03652">
        <ele>404</ele>
        <time>2021-09-11T10:33:39.240Z</time>
      </trkpt>
      <trkpt lat="45.89628" lon="6.03654">
        <ele>404</ele>
        <time>2021-09-11T10:33:40.239Z</time>
      </trkpt>
      <trkpt lat="45.89629" lon="6.03656">
        <ele>404</ele>
        <time>2021-09-11T10:33:41.239Z</time>
      </trkpt>
      <trkpt lat="45.8963" lon="6.03658">
        <ele>405</ele>
        <time>2021-09-11T10:33:42.240Z</time>
      </trkpt>
      <trkpt lat="45.89631" lon="6.0366">
        <ele>405</ele>
        <time>2021-09-11T10:33:43.240Z</time>
      </trkpt>
      <trkpt lat="45.89632" lon="6.03662">
        <ele>405</ele>
        <time>2021-09-11T10:33:44.240Z</time>
      </trkpt>
      <trkpt lat="45.89633" lon="6.03664">
        <ele>405</ele>
        <time>2021-09-11T10:33:45.240Z</time>
      </trkpt>
      <trkpt lat="45.89634" lon="6.03667">
        <ele>405</ele>
        <time>2021-09-11T10:33:46.240Z</time>
      </trkpt>
      <trkpt lat="45.89635" lon="6.0367">
        <ele>405</ele>
        <time>2021-09-11T10:33:47.240Z</time>
      </trkpt>
      <trkpt lat="45.89637" lon="6.03672">
        <ele>405</ele>
        <time>2021-09-11T10:33:48.240Z</time>
      </trkpt>
      <trkpt lat="45.89638" lon="6.03674">
        <ele>406</ele>
        <time>2021-09-11T10:33:49.239Z</time>
      </trkpt>
      <trkpt lat="45.89639" lon="6.03677">
        <ele>406</ele>
        <time>2021-09-11T10:33:50.240Z</time>
      </trkpt>
      <trkpt lat="45.8964" lon="6.0368">
        <ele>406</ele>
        <time>2021-09-11T10:33:51.240Z</time>
      </trkpt>
      <trkpt lat="45.8964" lon="6.03682">
        <ele>406</ele>
        <time>2021-09-11T10:33:52.240Z</time>
      </trkpt>
      <trkpt lat="45.89641" lon="6.03684">
        <ele>406</ele>
        <time>2021-09-11T10:33:53.239Z</time>
      </trkpt>
      <trkpt lat="45.89641" lon="6.03686">
        <ele>407</ele>
        <time>2021-09-11T10:33:54.240Z</time>
      </trkpt>
      <trkpt lat="45.89642" lon="6.03688">
        <ele>408</ele>
        <time>2021-09-11T10:33:55.240Z</time>
      </trkpt>
      <trkpt lat="45.89642" lon="6.03691">
        <ele>408</ele>
        <time>2021-09-11T10:33:56.240Z</time>
      </trkpt>
      <trkpt lat="45.89643" lon="6.03694">
        <ele>409</ele>
        <time>2021-09-11T10:33:57.239Z</time>
      </trkpt>
      <trkpt lat="45.89644" lon="6.03697">
        <ele>409</ele>
        <time>2021-09-11T10:33:58.240Z</time>
      </trkpt>
      <trkpt lat="45.89644" lon="6.03699">
        <ele>410</ele>
        <time>2021-09-11T10:33:59.240Z</time>
      </trkpt>
      <trkpt lat="45.89645" lon="6.03702">
        <ele>411</ele>
        <time>2021-09-11T10:34:00.240Z</time>
      </trkpt>
      <trkpt lat="45.89646" lon="6.03705">
        <ele>412</ele>
        <time>2021-09-11T10:34:01.240Z</time>
      </trkpt>
      <trkpt lat="45.89647" lon="6.03708">
        <ele>412</ele>
        <time>2021-09-11T10:34:02.240Z</time>
      </trkpt>
      <trkpt lat="45.89647" lon="6.03712">
        <ele>413</ele>
        <time>2021-09-11T10:34:03.240Z</time>
      </trkpt>
      <trkpt lat="45.89649" lon="6.03715">
        <ele>413</ele>
        <time>2021-09-11T10:34:04.240Z</time>
      </trkpt>
      <trkpt lat="45.89649" lon="6.03718">
        <ele>413</ele>
        <time>2021-09-11T10:34:05.240Z</time>
      </trkpt>
      <trkpt lat="45.8965" lon="6.03722">
        <ele>413</ele>
        <time>2021-09-11T10:34:06.239Z</time>
      </trkpt>
      <trkpt lat="45.89651" lon="6.03725">
        <ele>413</ele>
        <time>2021-09-11T10:34:07.240Z</time>
      </trkpt>
      <trkpt lat="45.89651" lon="6.03727">
        <ele>414</ele>
        <time>2021-09-11T10:34:08.239Z</time>
      </trkpt>
      <trkpt lat="45.89651" lon="6.03729">
        <ele>414</ele>
        <time>2021-09-11T10:34:09.240Z</time>
      </trkpt>
      <trkpt lat="45.89652" lon="6.03732">
        <ele>414</ele>
        <time>2021-09-11T10:34:10.240Z</time>
      </trkpt>
      <trkpt lat="45.89652" lon="6.03735">
        <ele>414</ele>
        <time>2021-09-11T10:34:11.240Z</time>
      </trkpt>
      <trkpt lat="45.89653" lon="6.03739">
        <ele>414</ele>
        <time>2021-09-11T10:34:12.240Z</time>
      </trkpt>
      <trkpt lat="45.89654" lon="6.03742">
        <ele>414</ele>
        <time>2021-09-11T10:34:13.239Z</time>
      </trkpt>
      <trkpt lat="45.89654" lon="6.03745">
        <ele>414</ele>
        <time>2021-09-11T10:34:14.239Z</time>
      </trkpt>
      <trkpt lat="45.89654" lon="6.03748">
        <ele>414</ele>
        <time>2021-09-11T10:34:15.240Z</time>
      </trkpt>
      <trkpt lat="45.89654" lon="6.03751">
        <ele>414</ele>
        <time>2021-09-11T10:34:16.240Z</time>
      </trkpt>
      <trkpt lat="45.89655" lon="6.03755">
        <ele>414</ele>
        <time>2021-09-11T10:34:17.239Z</time>
      </trkpt>
      <trkpt lat="45.89655" lon="6.03757">
        <ele>413</ele>
        <time>2021-09-11T10:34:18.240Z</time>
      </trkpt>
      <trkpt lat="45.89655" lon="6.0376">
        <ele>412</ele>
        <time>2021-09-11T10:34:19.239Z</time>
      </trkpt>
      <trkpt lat="45.89656" lon="6.03763">
        <ele>412</ele>
        <time>2021-09-11T10:34:20.240Z</time>
      </trkpt>
      <trkpt lat="45.89656" lon="6.03766">
        <ele>412</ele>
        <time>2021-09-11T10:34:21.240Z</time>
      </trkpt>
      <trkpt lat="45.89657" lon="6.03768">
        <ele>412</ele>
        <time>2021-09-11T10:34:22.240Z</time>
      </trkpt>
      <trkpt lat="45.89658" lon="6.0377">
        <ele>412</ele>
        <time>2021-09-11T10:34:23.240Z</time>
      </trkpt>
      <trkpt lat="45.89659" lon="6.03773">
        <ele>412</ele>
        <time>2021-09-11T10:34:24.240Z</time>
      </trkpt>
      <trkpt lat="45.8966" lon="6.03776">
        <ele>413</ele>
        <time>2021-09-11T10:34:25.239Z</time>
      </trkpt>
      <trkpt lat="45.89661" lon="6.03778">
        <ele>412</ele>
        <time>2021-09-11T10:34:26.240Z</time>
      </trkpt>
      <trkpt lat="45.89662" lon="6.03781">
        <ele>412</ele>
        <time>2021-09-11T10:34:27.239Z</time>
      </trkpt>
      <trkpt lat="45.89664" lon="6.03784">
        <ele>412</ele>
        <time>2021-09-11T10:34:28.240Z</time>
      </trkpt>
      <trkpt lat="45.89665" lon="6.03786">
        <ele>411</ele>
        <time>2021-09-11T10:34:29.240Z</time>
      </trkpt>
      <trkpt lat="45.89667" lon="6.03788">
        <ele>411</ele>
        <time>2021-09-11T10:34:30.239Z</time>
      </trkpt>
      <trkpt lat="45.89668" lon="6.0379">
        <ele>411</ele>
        <time>2021-09-11T10:34:31.240Z</time>
      </trkpt>
      <trkpt lat="45.8967" lon="6.03791">
        <ele>411</ele>
        <time>2021-09-11T10:34:32.240Z</time>
      </trkpt>
      <trkpt lat="45.89671" lon="6.03792">
        <ele>412</ele>
        <time>2021-09-11T10:34:33.240Z</time>
      </trkpt>
      <trkpt lat="45.89673" lon="6.03794">
        <ele>412</ele>
        <time>2021-09-11T10:34:34.240Z</time>
      </trkpt>
      <trkpt lat="45.89674" lon="6.03795">
        <ele>412</ele>
        <time>2021-09-11T10:34:35.240Z</time>
      </trkpt>
      <trkpt lat="45.89676" lon="6.03796">
        <ele>413</ele>
        <time>2021-09-11T10:34:36.239Z</time>
      </trkpt>
      <trkpt lat="45.89677" lon="6.03797">
        <ele>414</ele>
        <time>2021-09-11T10:34:37.240Z</time>
      </trkpt>
      <trkpt lat="45.89678" lon="6.03798">
        <ele>414</ele>
        <time>2021-09-11T10:34:38.240Z</time>
      </trkpt>
      <trkpt lat="45.8968" lon="6.03798">
        <ele>415</ele>
        <time>2021-09-11T10:34:39.240Z</time>
      </trkpt>
      <trkpt lat="45.89681" lon="6.03798">
        <ele>416</ele>
        <time>2021-09-11T10:34:40.240Z</time>
      </trkpt>
      <trkpt lat="45.89683" lon="6.038">
        <ele>417</ele>
        <time>2021-09-11T10:34:41.239Z</time>
      </trkpt>
      <trkpt lat="45.89684" lon="6.03801">
        <ele>417</ele>
        <time>2021-09-11T10:34:42.240Z</time>
      </trkpt>
      <trkpt lat="45.89685" lon="6.03801">
        <ele>418</ele>
        <time>2021-09-11T10:34:43.240Z</time>
      </trkpt>
      <trkpt lat="45.89687" lon="6.03803">
        <ele>418</ele>
        <time>2021-09-11T10:34:44.240Z</time>
      </trkpt>
      <trkpt lat="45.89689" lon="6.03804">
        <ele>419</ele>
        <time>2021-09-11T10:34:45.240Z</time>
      </trkpt>
      <trkpt lat="45.8969" lon="6.03804">
        <ele>420</ele>
        <time>2021-09-11T10:34:46.240Z</time>
      </trkpt>
      <trkpt lat="45.89692" lon="6.03804">
        <ele>420</ele>
        <time>2021-09-11T10:34:47.239Z</time>
      </trkpt>
      <trkpt lat="45.89694" lon="6.03805">
        <ele>421</ele>
        <time>2021-09-11T10:34:48.240Z</time>
      </trkpt>
      <trkpt lat="45.89696" lon="6.03805">
        <ele>422</ele>
        <time>2021-09-11T10:34:49.240Z</time>
      </trkpt>
      <trkpt lat="45.89697" lon="6.03806">
        <ele>422</ele>
        <time>2021-09-11T10:34:50.240Z</time>
      </trkpt>
      <trkpt lat="45.89699" lon="6.03806">
        <ele>423</ele>
        <time>2021-09-11T10:34:51.240Z</time>
      </trkpt>
      <trkpt lat="45.897" lon="6.03807">
        <ele>424</ele>
        <time>2021-09-11T10:34:52.240Z</time>
      </trkpt>
      <trkpt lat="45.89702" lon="6.03809">
        <ele>424</ele>
        <time>2021-09-11T10:34:53.240Z</time>
      </trkpt>
      <trkpt lat="45.89704" lon="6.03811">
        <ele>424</ele>
        <time>2021-09-11T10:34:54.240Z</time>
      </trkpt>
      <trkpt lat="45.89706" lon="6.03813">
        <ele>425</ele>
        <time>2021-09-11T10:34:55.240Z</time>
      </trkpt>
      <trkpt lat="45.89707" lon="6.03814">
        <ele>425</ele>
        <time>2021-09-11T10:34:56.240Z</time>
      </trkpt>
      <trkpt lat="45.89708" lon="6.03815">
        <ele>425</ele>
        <time>2021-09-11T10:34:57.240Z</time>
      </trkpt>
      <trkpt lat="45.8971" lon="6.03817">
        <ele>425</ele>
        <time>2021-09-11T10:34:58.240Z</time>
      </trkpt>
      <trkpt lat="45.89711" lon="6.03819">
        <ele>425</ele>
        <time>2021-09-11T10:34:59.240Z</time>
      </trkpt>
      <trkpt lat="45.89712" lon="6.03821">
        <ele>424</ele>
        <time>2021-09-11T10:35:00.240Z</time>
      </trkpt>
      <trkpt lat="45.89713" lon="6.03823">
        <ele>424</ele>
        <time>2021-09-11T10:35:01.239Z</time>
      </trkpt>
      <trkpt lat="45.89714" lon="6.03825">
        <ele>424</ele>
        <time>2021-09-11T10:35:02.240Z</time>
      </trkpt>
      <trkpt lat="45.89715" lon="6.03826">
        <ele>424</ele>
        <time>2021-09-11T10:35:03.240Z</time>
      </trkpt>
      <trkpt lat="45.89716" lon="6.03828">
        <ele>424</ele>
        <time>2021-09-11T10:35:04.240Z</time>
      </trkpt>
      <trkpt lat="45.89717" lon="6.03831">
        <ele>424</ele>
        <time>2021-09-11T10:35:05.240Z</time>
      </trkpt>
      <trkpt lat="45.89718" lon="6.03835">
        <ele>423</ele>
        <time>2021-09-11T10:35:06.240Z</time>
      </trkpt>
      <trkpt lat="45.89719" lon="6.03838">
        <ele>423</ele>
        <time>2021-09-11T10:35:07.239Z</time>
      </trkpt>
      <trkpt lat="45.8972" lon="6.03841">
        <ele>423</ele>
        <time>2021-09-11T10:35:08.239Z</time>
      </trkpt>
      <trkpt lat="45.89721" lon="6.03843">
        <ele>423</ele>
        <time>2021-09-11T10:35:09.240Z</time>
      </trkpt>
      <trkpt lat="45.89722" lon="6.03845">
        <ele>424</ele>
        <time>2021-09-11T10:35:10.240Z</time>
      </trkpt>
      <trkpt lat="45.89723" lon="6.03847">
        <ele>424</ele>
        <time>2021-09-11T10:35:11.240Z</time>
      </trkpt>
      <trkpt lat="45.89723" lon="6.0385">
        <ele>424</ele>
        <time>2021-09-11T10:35:12.240Z</time>
      </trkpt>
      <trkpt lat="45.89724" lon="6.03853">
        <ele>424</ele>
        <time>2021-09-11T10:35:13.239Z</time>
      </trkpt>
      <trkpt lat="45.89724" lon="6.03855">
        <ele>425</ele>
        <time>2021-09-11T10:35:14.240Z</time>
      </trkpt>
      <trkpt lat="45.89724" lon="6.03858">
        <ele>426</ele>
        <time>2021-09-11T10:35:15.240Z</time>
      </trkpt>
      <trkpt lat="45.89725" lon="6.0386">
        <ele>426</ele>
        <time>2021-09-11T10:35:16.239Z</time>
      </trkpt>
      <trkpt lat="45.89725" lon="6.03863">
        <ele>427</ele>
        <time>2021-09-11T10:35:17.239Z</time>
      </trkpt>
      <trkpt lat="45.89725" lon="6.03865">
        <ele>427</ele>
        <time>2021-09-11T10:35:18.240Z</time>
      </trkpt>
      <trkpt lat="45.89726" lon="6.03868">
        <ele>428</ele>
        <time>2021-09-11T10:35:19.240Z</time>
      </trkpt>
      <trkpt lat="45.89727" lon="6.0387">
        <ele>428</ele>
        <time>2021-09-11T10:35:20.239Z</time>
      </trkpt>
      <trkpt lat="45.89728" lon="6.03873">
        <ele>428</ele>
        <time>2021-09-11T10:35:21.240Z</time>
      </trkpt>
      <trkpt lat="45.89729" lon="6.03875">
        <ele>429</ele>
        <time>2021-09-11T10:35:22.239Z</time>
      </trkpt>
      <trkpt lat="45.8973" lon="6.03878">
        <ele>429</ele>
        <time>2021-09-11T10:35:23.239Z</time>
      </trkpt>
      <trkpt lat="45.89731" lon="6.03881">
        <ele>429</ele>
        <time>2021-09-11T10:35:24.240Z</time>
      </trkpt>
      <trkpt lat="45.89732" lon="6.03885">
        <ele>429</ele>
        <time>2021-09-11T10:35:25.240Z</time>
      </trkpt>
      <trkpt lat="45.89732" lon="6.03887">
        <ele>429</ele>
        <time>2021-09-11T10:35:26.240Z</time>
      </trkpt>
      <trkpt lat="45.89733" lon="6.0389">
        <ele>429</ele>
        <time>2021-09-11T10:35:27.240Z</time>
      </trkpt>
      <trkpt lat="45.89733" lon="6.03893">
        <ele>429</ele>
        <time>2021-09-11T10:35:28.240Z</time>
      </trkpt>
      <trkpt lat="45.89734" lon="6.03896">
        <ele>429</ele>
        <time>2021-09-11T10:35:29.240Z</time>
      </trkpt>
      <trkpt lat="45.89734" lon="6.039">
        <ele>429</ele>
        <time>2021-09-11T10:35:30.240Z</time>
      </trkpt>
      <trkpt lat="45.89735" lon="6.03903">
        <ele>429</ele>
        <time>2021-09-11T10:35:31.239Z</time>
      </trkpt>
      <trkpt lat="45.89735" lon="6.03907">
        <ele>429</ele>
        <time>2021-09-11T10:35:32.239Z</time>
      </trkpt>
      <trkpt lat="45.89736" lon="6.03911">
        <ele>429</ele>
        <time>2021-09-11T10:35:33.240Z</time>
      </trkpt>
      <trkpt lat="45.89736" lon="6.03915">
        <ele>430</ele>
        <time>2021-09-11T10:35:34.240Z</time>
      </trkpt>
      <trkpt lat="45.89736" lon="6.03919">
        <ele>430</ele>
        <time>2021-09-11T10:35:35.240Z</time>
      </trkpt>
      <trkpt lat="45.89736" lon="6.03923">
        <ele>431</ele>
        <time>2021-09-11T10:35:36.240Z</time>
      </trkpt>
      <trkpt lat="45.89737" lon="6.03927">
        <ele>431</ele>
        <time>2021-09-11T10:35:37.239Z</time>
      </trkpt>
      <trkpt lat="45.89738" lon="6.03932">
        <ele>431</ele>
        <time>2021-09-11T10:35:38.239Z</time>
      </trkpt>
      <trkpt lat="45.89738" lon="6.03936">
        <ele>432</ele>
        <time>2021-09-11T10:35:39.240Z</time>
      </trkpt>
      <trkpt lat="45.89738" lon="6.0394">
        <ele>432</ele>
        <time>2021-09-11T10:35:40.240Z</time>
      </trkpt>
      <trkpt lat="45.89738" lon="6.03945">
        <ele>433</ele>
        <time>2021-09-11T10:35:41.240Z</time>
      </trkpt>
      <trkpt lat="45.89739" lon="6.03949">
        <ele>433</ele>
        <time>2021-09-11T10:35:42.240Z</time>
      </trkpt>
      <trkpt lat="45.89739" lon="6.03952">
        <ele>433</ele>
        <time>2021-09-11T10:35:43.240Z</time>
      </trkpt>
      <trkpt lat="45.89739" lon="6.03956">
        <ele>433</ele>
        <time>2021-09-11T10:35:44.240Z</time>
      </trkpt>
      <trkpt lat="45.8974" lon="6.03961">
        <ele>433</ele>
        <time>2021-09-11T10:35:45.240Z</time>
      </trkpt>
      <trkpt lat="45.8974" lon="6.03963">
        <ele>433</ele>
        <time>2021-09-11T10:35:46.239Z</time>
      </trkpt>
      <trkpt lat="45.89741" lon="6.03967">
        <ele>433</ele>
        <time>2021-09-11T10:35:47.240Z</time>
      </trkpt>
      <trkpt lat="45.89741" lon="6.03971">
        <ele>433</ele>
        <time>2021-09-11T10:35:48.239Z</time>
      </trkpt>
      <trkpt lat="45.89742" lon="6.03974">
        <ele>433</ele>
        <time>2021-09-11T10:35:49.240Z</time>
      </trkpt>
      <trkpt lat="45.89743" lon="6.03978">
        <ele>433</ele>
        <time>2021-09-11T10:35:50.240Z</time>
      </trkpt>
      <trkpt lat="45.89744" lon="6.03982">
        <ele>433</ele>
        <time>2021-09-11T10:35:51.240Z</time>
      </trkpt>
      <trkpt lat="45.89745" lon="6.03986">
        <ele>433</ele>
        <time>2021-09-11T10:35:52.240Z</time>
      </trkpt>
      <trkpt lat="45.89746" lon="6.0399">
        <ele>433</ele>
        <time>2021-09-11T10:35:53.240Z</time>
      </trkpt>
      <trkpt lat="45.89747" lon="6.03993">
        <ele>433</ele>
        <time>2021-09-11T10:35:54.239Z</time>
      </trkpt>
      <trkpt lat="45.89748" lon="6.03997">
        <ele>432</ele>
        <time>2021-09-11T10:35:55.240Z</time>
      </trkpt>
      <trkpt lat="45.89749" lon="6.04001">
        <ele>432</ele>
        <time>2021-09-11T10:35:56.240Z</time>
      </trkpt>
      <trkpt lat="45.89751" lon="6.04004">
        <ele>432</ele>
        <time>2021-09-11T10:35:57.240Z</time>
      </trkpt>
      <trkpt lat="45.89752" lon="6.04008">
        <ele>432</ele>
        <time>2021-09-11T10:35:58.240Z</time>
      </trkpt>
      <trkpt lat="45.89752" lon="6.04011">
        <ele>432</ele>
        <time>2021-09-11T10:35:59.239Z</time>
      </trkpt>
      <trkpt lat="45.89754" lon="6.04015">
        <ele>432</ele>
        <time>2021-09-11T10:36:00.239Z</time>
      </trkpt>
      <trkpt lat="45.89754" lon="6.04019">
        <ele>432</ele>
        <time>2021-09-11T10:36:01.239Z</time>
      </trkpt>
      <trkpt lat="45.89755" lon="6.04023">
        <ele>431</ele>
        <time>2021-09-11T10:36:02.240Z</time>
      </trkpt>
      <trkpt lat="45.89756" lon="6.04027">
        <ele>431</ele>
        <time>2021-09-11T10:36:03.240Z</time>
      </trkpt>
      <trkpt lat="45.89757" lon="6.04031">
        <ele>431</ele>
        <time>2021-09-11T10:36:04.240Z</time>
      </trkpt>
      <trkpt lat="45.89757" lon="6.04035">
        <ele>431</ele>
        <time>2021-09-11T10:36:05.240Z</time>
      </trkpt>
      <trkpt lat="45.89757" lon="6.04038">
        <ele>431</ele>
        <time>2021-09-11T10:36:06.240Z</time>
      </trkpt>
      <trkpt lat="45.89757" lon="6.04042">
        <ele>431</ele>
        <time>2021-09-11T10:36:07.240Z</time>
      </trkpt>
      <trkpt lat="45.89757" lon="6.04046">
        <ele>431</ele>
        <time>2021-09-11T10:36:08.240Z</time>
      </trkpt>
      <trkpt lat="45.89758" lon="6.04049">
        <ele>431</ele>
        <time>2021-09-11T10:36:09.240Z</time>
      </trkpt>
      <trkpt lat="45.89758" lon="6.04053">
        <ele>431</ele>
        <time>2021-09-11T10:36:10.239Z</time>
      </trkpt>
      <trkpt lat="45.89758" lon="6.04057">
        <ele>430</ele>
        <time>2021-09-11T10:36:11.240Z</time>
      </trkpt>
      <trkpt lat="45.89758" lon="6.0406">
        <ele>430</ele>
        <time>2021-09-11T10:36:12.240Z</time>
      </trkpt>
      <trkpt lat="45.89758" lon="6.04063">
        <ele>430</ele>
        <time>2021-09-11T10:36:13.240Z</time>
      </trkpt>
      <trkpt lat="45.89758" lon="6.04066">
        <ele>430</ele>
        <time>2021-09-11T10:36:14.239Z</time>
      </trkpt>
      <trkpt lat="45.89759" lon="6.0407">
        <ele>430</ele>
        <time>2021-09-11T10:36:15.239Z</time>
      </trkpt>
      <trkpt lat="45.89759" lon="6.04073">
        <ele>429</ele>
        <time>2021-09-11T10:36:16.240Z</time>
      </trkpt>
      <trkpt lat="45.8976" lon="6.04076">
        <ele>429</ele>
        <time>2021-09-11T10:36:17.240Z</time>
      </trkpt>
      <trkpt lat="45.8976" lon="6.04079">
        <ele>429</ele>
        <time>2021-09-11T10:36:18.240Z</time>
      </trkpt>
      <trkpt lat="45.8976" lon="6.04082">
        <ele>429</ele>
        <time>2021-09-11T10:36:19.239Z</time>
      </trkpt>
      <trkpt lat="45.8976" lon="6.04085">
        <ele>429</ele>
        <time>2021-09-11T10:36:20.240Z</time>
      </trkpt>
      <trkpt lat="45.89761" lon="6.04088">
        <ele>429</ele>
        <time>2021-09-11T10:36:21.240Z</time>
      </trkpt>
      <trkpt lat="45.89762" lon="6.04089">
        <ele>430</ele>
        <time>2021-09-11T10:36:22.240Z</time>
      </trkpt>
      <trkpt lat="45.89764" lon="6.04089">
        <ele>430</ele>
        <time>2021-09-11T10:36:23.240Z</time>
      </trkpt>
      <trkpt lat="45.89766" lon="6.04087">
        <ele>430</ele>
        <time>2021-09-11T10:36:24.240Z</time>
      </trkpt>
      <trkpt lat="45.89768" lon="6.04086">
        <ele>430</ele>
        <time>2021-09-11T10:36:25.240Z</time>
      </trkpt>
      <trkpt lat="45.8977" lon="6.04084">
        <ele>429</ele>
        <time>2021-09-11T10:36:26.240Z</time>
      </trkpt>
      <trkpt lat="45.89773" lon="6.04083">
        <ele>429</ele>
        <time>2021-09-11T10:36:27.240Z</time>
      </trkpt>
      <trkpt lat="45.89775" lon="6.04081">
        <ele>429</ele>
        <time>2021-09-11T10:36:28.240Z</time>
      </trkpt>
      <trkpt lat="45.89778" lon="6.0408">
        <ele>429</ele>
        <time>2021-09-11T10:36:29.240Z</time>
      </trkpt>
      <trkpt lat="45.8978" lon="6.04079">
        <ele>429</ele>
        <time>2021-09-11T10:36:30.239Z</time>
      </trkpt>
      <trkpt lat="45.89783" lon="6.04078">
        <ele>429</ele>
        <time>2021-09-11T10:36:31.240Z</time>
      </trkpt>
      <trkpt lat="45.89786" lon="6.04077">
        <ele>429</ele>
        <time>2021-09-11T10:36:32.240Z</time>
      </trkpt>
      <trkpt lat="45.89789" lon="6.04076">
        <ele>430</ele>
        <time>2021-09-11T10:36:33.240Z</time>
      </trkpt>
      <trkpt lat="45.89792" lon="6.04075">
        <ele>430</ele>
        <time>2021-09-11T10:36:34.239Z</time>
      </trkpt>
      <trkpt lat="45.89795" lon="6.04074">
        <ele>430</ele>
        <time>2021-09-11T10:36:35.239Z</time>
      </trkpt>
      <trkpt lat="45.89797" lon="6.04074">
        <ele>430</ele>
        <time>2021-09-11T10:36:36.240Z</time>
      </trkpt>
      <trkpt lat="45.898" lon="6.04073">
        <ele>430</ele>
        <time>2021-09-11T10:36:37.239Z</time>
      </trkpt>
      <trkpt lat="45.89803" lon="6.04072">
        <ele>430</ele>
        <time>2021-09-11T10:36:38.240Z</time>
      </trkpt>
      <trkpt lat="45.89806" lon="6.04071">
        <ele>430</ele>
        <time>2021-09-11T10:36:39.240Z</time>
      </trkpt>
      <trkpt lat="45.89809" lon="6.0407">
        <ele>430</ele>
        <time>2021-09-11T10:36:40.239Z</time>
      </trkpt>
      <trkpt lat="45.89811" lon="6.04069">
        <ele>430</ele>
        <time>2021-09-11T10:36:41.240Z</time>
      </trkpt>
      <trkpt lat="45.89813" lon="6.04068">
        <ele>430</ele>
        <time>2021-09-11T10:36:42.240Z</time>
      </trkpt>
      <trkpt lat="45.89816" lon="6.04068">
        <ele>430</ele>
        <time>2021-09-11T10:36:43.240Z</time>
      </trkpt>
      <trkpt lat="45.89817" lon="6.04067">
        <ele>430</ele>
        <time>2021-09-11T10:36:44.240Z</time>
      </trkpt>
      <trkpt lat="45.89819" lon="6.04067">
        <ele>430</ele>
        <time>2021-09-11T10:36:45.240Z</time>
      </trkpt>
      <trkpt lat="45.8982" lon="6.04067">
        <ele>430</ele>
        <time>2021-09-11T10:36:46.239Z</time>
      </trkpt>
      <trkpt lat="45.8982" lon="6.04067">
        <ele>429</ele>
        <time>2021-09-11T10:36:47.240Z</time>
      </trkpt>
      <trkpt lat="45.89821" lon="6.04067">
        <ele>428</ele>
        <time>2021-09-11T10:36:48.240Z</time>
      </trkpt>
      <trkpt lat="45.89819" lon="6.04063">
        <ele>424</ele>
        <time>2021-09-11T10:36:49.242Z</time>
      </trkpt>
      <trkpt lat="45.89818" lon="6.0406">
        <ele>424</ele>
        <time>2021-09-11T10:36:50.242Z</time>
      </trkpt>
      <trkpt lat="45.89818" lon="6.04059">
        <ele>424</ele>
        <time>2021-09-11T10:36:51.241Z</time>
      </trkpt>
      <trkpt lat="45.89817" lon="6.04057">
        <ele>425</ele>
        <time>2021-09-11T10:36:52.242Z</time>
      </trkpt>
      <trkpt lat="45.89817" lon="6.04056">
        <ele>425</ele>
        <time>2021-09-11T10:36:53.242Z</time>
      </trkpt>
      <trkpt lat="45.89816" lon="6.04055">
        <ele>426</ele>
        <time>2021-09-11T10:36:54.241Z</time>
      </trkpt>
      <trkpt lat="45.89816" lon="6.04055">
        <ele>427</ele>
        <time>2021-09-11T10:36:55.242Z</time>
      </trkpt>
      <trkpt lat="45.89819" lon="6.0406">
        <ele>430</ele>
        <time>2021-09-11T10:36:56.242Z</time>
      </trkpt>
      <trkpt lat="45.89819" lon="6.04062">
        <ele>431</ele>
        <time>2021-09-11T10:36:57.241Z</time>
      </trkpt>
      <trkpt lat="45.89819" lon="6.04064">
        <ele>431</ele>
        <time>2021-09-11T10:36:58.241Z</time>
      </trkpt>
      <trkpt lat="45.8982" lon="6.04066">
        <ele>430</ele>
        <time>2021-09-11T10:36:59.241Z</time>
      </trkpt>
      <trkpt lat="45.8982" lon="6.04068">
        <ele>430</ele>
        <time>2021-09-11T10:37:00.242Z</time>
      </trkpt>
      <trkpt lat="45.89821" lon="6.04071">
        <ele>430</ele>
        <time>2021-09-11T10:37:01.241Z</time>
      </trkpt>
      <trkpt lat="45.89821" lon="6.04073">
        <ele>430</ele>
        <time>2021-09-11T10:37:02.241Z</time>
      </trkpt>
      <trkpt lat="45.89821" lon="6.04076">
        <ele>430</ele>
        <time>2021-09-11T10:37:03.241Z</time>
      </trkpt>
      <trkpt lat="45.89822" lon="6.0408">
        <ele>430</ele>
        <time>2021-09-11T10:37:04.242Z</time>
      </trkpt>
      <trkpt lat="45.89822" lon="6.04083">
        <ele>430</ele>
        <time>2021-09-11T10:37:05.241Z</time>
      </trkpt>
      <trkpt lat="45.89821" lon="6.04086">
        <ele>430</ele>
        <time>2021-09-11T10:37:06.242Z</time>
      </trkpt>
      <trkpt lat="45.8982" lon="6.04088">
        <ele>430</ele>
        <time>2021-09-11T10:37:07.242Z</time>
      </trkpt>
      <trkpt lat="45.89819" lon="6.0409">
        <ele>430</ele>
        <time>2021-09-11T10:37:08.242Z</time>
      </trkpt>
      <trkpt lat="45.89818" lon="6.04093">
        <ele>429</ele>
        <time>2021-09-11T10:37:09.242Z</time>
      </trkpt>
      <trkpt lat="45.89817" lon="6.04096">
        <ele>429</ele>
        <time>2021-09-11T10:37:10.242Z</time>
      </trkpt>
      <trkpt lat="45.89816" lon="6.04098">
        <ele>429</ele>
        <time>2021-09-11T10:37:11.242Z</time>
      </trkpt>
      <trkpt lat="45.89816" lon="6.04101">
        <ele>430</ele>
        <time>2021-09-11T10:37:12.242Z</time>
      </trkpt>
      <trkpt lat="45.89815" lon="6.04105">
        <ele>430</ele>
        <time>2021-09-11T10:37:13.242Z</time>
      </trkpt>
      <trkpt lat="45.89814" lon="6.04107">
        <ele>430</ele>
        <time>2021-09-11T10:37:14.242Z</time>
      </trkpt>
      <trkpt lat="45.89814" lon="6.0411">
        <ele>430</ele>
        <time>2021-09-11T10:37:15.242Z</time>
      </trkpt>
      <trkpt lat="45.89814" lon="6.04112">
        <ele>430</ele>
        <time>2021-09-11T10:37:16.242Z</time>
      </trkpt>
      <trkpt lat="45.89814" lon="6.04114">
        <ele>430</ele>
        <time>2021-09-11T10:37:17.242Z</time>
      </trkpt>
      <trkpt lat="45.89814" lon="6.04117">
        <ele>430</ele>
        <time>2021-09-11T10:37:18.242Z</time>
      </trkpt>
      <trkpt lat="45.89813" lon="6.04118">
        <ele>430</ele>
        <time>2021-09-11T10:37:19.242Z</time>
      </trkpt>
      <trkpt lat="45.89813" lon="6.04119">
        <ele>431</ele>
        <time>2021-09-11T10:37:20.242Z</time>
      </trkpt>
      <trkpt lat="45.89813" lon="6.0412">
        <ele>430</ele>
        <time>2021-09-11T10:37:21.242Z</time>
      </trkpt>
      <trkpt lat="45.89814" lon="6.04122">
        <ele>430</ele>
        <time>2021-09-11T10:37:22.241Z</time>
      </trkpt>
      <trkpt lat="45.89814" lon="6.04126">
        <ele>430</ele>
        <time>2021-09-11T10:37:23.242Z</time>
      </trkpt>
      <trkpt lat="45.89813" lon="6.04129">
        <ele>430</ele>
        <time>2021-09-11T10:37:24.242Z</time>
      </trkpt>
      <trkpt lat="45.89812" lon="6.04132">
        <ele>430</ele>
        <time>2021-09-11T10:37:25.241Z</time>
      </trkpt>
      <trkpt lat="45.8981" lon="6.04135">
        <ele>431</ele>
        <time>2021-09-11T10:37:26.242Z</time>
      </trkpt>
      <trkpt lat="45.89808" lon="6.04138">
        <ele>431</ele>
        <time>2021-09-11T10:37:27.242Z</time>
      </trkpt>
      <trkpt lat="45.89805" lon="6.04141">
        <ele>432</ele>
        <time>2021-09-11T10:37:28.242Z</time>
      </trkpt>
      <trkpt lat="45.89803" lon="6.04143">
        <ele>432</ele>
        <time>2021-09-11T10:37:29.242Z</time>
      </trkpt>
      <trkpt lat="45.89802" lon="6.04145">
        <ele>433</ele>
        <time>2021-09-11T10:37:30.242Z</time>
      </trkpt>
      <trkpt lat="45.89801" lon="6.04146">
        <ele>433</ele>
        <time>2021-09-11T10:37:31.241Z</time>
      </trkpt>
      <trkpt lat="45.89801" lon="6.04147">
        <ele>434</ele>
        <time>2021-09-11T10:37:32.241Z</time>
      </trkpt>
      <trkpt lat="45.898" lon="6.04148">
        <ele>434</ele>
        <time>2021-09-11T10:37:33.242Z</time>
      </trkpt>
      <trkpt lat="45.898" lon="6.04148">
        <ele>433</ele>
        <time>2021-09-11T10:37:34.242Z</time>
      </trkpt>
      <trkpt lat="45.89792" lon="6.0415">
        <ele>425</ele>
        <time>2021-09-11T10:37:35.242Z</time>
      </trkpt>
      <trkpt lat="45.89791" lon="6.04148">
        <ele>426</ele>
        <time>2021-09-11T10:37:36.242Z</time>
      </trkpt>
      <trkpt lat="45.89791" lon="6.04147">
        <ele>426</ele>
        <time>2021-09-11T10:37:37.241Z</time>
      </trkpt>
      <trkpt lat="45.89792" lon="6.04145">
        <ele>426</ele>
        <time>2021-09-11T10:37:38.242Z</time>
      </trkpt>
      <trkpt lat="45.89793" lon="6.04143">
        <ele>425</ele>
        <time>2021-09-11T10:37:39.242Z</time>
      </trkpt>
      <trkpt lat="45.89794" lon="6.04142">
        <ele>425</ele>
        <time>2021-09-11T10:37:40.242Z</time>
      </trkpt>
      <trkpt lat="45.89795" lon="6.04141">
        <ele>425</ele>
        <time>2021-09-11T10:37:41.241Z</time>
      </trkpt>
      <trkpt lat="45.89797" lon="6.0414">
        <ele>425</ele>
        <time>2021-09-11T10:37:42.242Z</time>
      </trkpt>
      <trkpt lat="45.89798" lon="6.04139">
        <ele>425</ele>
        <time>2021-09-11T10:37:43.241Z</time>
      </trkpt>
      <trkpt lat="45.898" lon="6.04138">
        <ele>425</ele>
        <time>2021-09-11T10:37:44.241Z</time>
      </trkpt>
      <trkpt lat="45.89802" lon="6.04136">
        <ele>426</ele>
        <time>2021-09-11T10:37:45.242Z</time>
      </trkpt>
      <trkpt lat="45.89804" lon="6.04135">
        <ele>426</ele>
        <time>2021-09-11T10:37:46.242Z</time>
      </trkpt>
      <trkpt lat="45.89806" lon="6.04135">
        <ele>426</ele>
        <time>2021-09-11T10:37:47.242Z</time>
      </trkpt>
      <trkpt lat="45.89808" lon="6.04135">
        <ele>427</ele>
        <time>2021-09-11T10:37:48.242Z</time>
      </trkpt>
      <trkpt lat="45.89809" lon="6.04136">
        <ele>427</ele>
        <time>2021-09-11T10:37:49.242Z</time>
      </trkpt>
      <trkpt lat="45.89809" lon="6.04137">
        <ele>428</ele>
        <time>2021-09-11T10:37:50.242Z</time>
      </trkpt>
      <trkpt lat="45.8981" lon="6.04139">
        <ele>428</ele>
        <time>2021-09-11T10:37:51.241Z</time>
      </trkpt>
      <trkpt lat="45.89809" lon="6.04141">
        <ele>428</ele>
        <time>2021-09-11T10:37:52.242Z</time>
      </trkpt>
      <trkpt lat="45.89809" lon="6.04143">
        <ele>428</ele>
        <time>2021-09-11T10:37:53.242Z</time>
      </trkpt>
      <trkpt lat="45.89808" lon="6.04144">
        <ele>428</ele>
        <time>2021-09-11T10:37:54.242Z</time>
      </trkpt>
      <trkpt lat="45.89808" lon="6.04144">
        <ele>428</ele>
        <time>2021-09-11T10:37:55.242Z</time>
      </trkpt>
      <trkpt lat="45.89807" lon="6.04145">
        <ele>428</ele>
        <time>2021-09-11T10:37:56.242Z</time>
      </trkpt>
      <trkpt lat="45.89807" lon="6.04146">
        <ele>428</ele>
        <time>2021-09-11T10:37:57.242Z</time>
      </trkpt>
      <trkpt lat="45.89807" lon="6.04147">
        <ele>428</ele>
        <time>2021-09-11T10:37:58.242Z</time>
      </trkpt>
      <trkpt lat="45.89807" lon="6.04147">
        <ele>427</ele>
        <time>2021-09-11T10:37:59.242Z</time>
      </trkpt>
      <trkpt lat="45.89809" lon="6.04142">
        <ele>429</ele>
        <time>2021-09-11T10:38:00.243Z</time>
      </trkpt>
      <trkpt lat="45.8981" lon="6.04139">
        <ele>429</ele>
        <time>2021-09-11T10:38:01.243Z</time>
      </trkpt>
      <trkpt lat="45.89811" lon="6.04136">
        <ele>429</ele>
        <time>2021-09-11T10:38:02.243Z</time>
      </trkpt>
      <trkpt lat="45.89812" lon="6.04133">
        <ele>429</ele>
        <time>2021-09-11T10:38:03.244Z</time>
      </trkpt>
      <trkpt lat="45.89814" lon="6.04131">
        <ele>430</ele>
        <time>2021-09-11T10:38:04.244Z</time>
      </trkpt>
      <trkpt lat="45.89815" lon="6.04129">
        <ele>430</ele>
        <time>2021-09-11T10:38:05.244Z</time>
      </trkpt>
      <trkpt lat="45.89817" lon="6.04126">
        <ele>430</ele>
        <time>2021-09-11T10:38:06.244Z</time>
      </trkpt>
      <trkpt lat="45.89819" lon="6.04125">
        <ele>430</ele>
        <time>2021-09-11T10:38:07.243Z</time>
      </trkpt>
      <trkpt lat="45.89821" lon="6.04124">
        <ele>430</ele>
        <time>2021-09-11T10:38:08.243Z</time>
      </trkpt>
      <trkpt lat="45.89823" lon="6.04123">
        <ele>430</ele>
        <time>2021-09-11T10:38:09.244Z</time>
      </trkpt>
      <trkpt lat="45.89825" lon="6.04122">
        <ele>430</ele>
        <time>2021-09-11T10:38:10.243Z</time>
      </trkpt>
      <trkpt lat="45.89826" lon="6.04121">
        <ele>430</ele>
        <time>2021-09-11T10:38:11.243Z</time>
      </trkpt>
      <trkpt lat="45.89828" lon="6.0412">
        <ele>429</ele>
        <time>2021-09-11T10:38:12.244Z</time>
      </trkpt>
      <trkpt lat="45.8983" lon="6.04118">
        <ele>429</ele>
        <time>2021-09-11T10:38:13.244Z</time>
      </trkpt>
      <trkpt lat="45.89832" lon="6.04118">
        <ele>430</ele>
        <time>2021-09-11T10:38:14.244Z</time>
      </trkpt>
      <trkpt lat="45.89834" lon="6.04116">
        <ele>430</ele>
        <time>2021-09-11T10:38:15.244Z</time>
      </trkpt>
      <trkpt lat="45.89835" lon="6.04115">
        <ele>431</ele>
        <time>2021-09-11T10:38:16.243Z</time>
      </trkpt>
      <trkpt lat="45.89837" lon="6.04114">
        <ele>431</ele>
        <time>2021-09-11T10:38:17.244Z</time>
      </trkpt>
      <trkpt lat="45.89838" lon="6.04113">
        <ele>431</ele>
        <time>2021-09-11T10:38:18.244Z</time>
      </trkpt>
      <trkpt lat="45.8984" lon="6.04112">
        <ele>432</ele>
        <time>2021-09-11T10:38:19.244Z</time>
      </trkpt>
      <trkpt lat="45.89842" lon="6.04111">
        <ele>433</ele>
        <time>2021-09-11T10:38:20.244Z</time>
      </trkpt>
      <trkpt lat="45.89844" lon="6.0411">
        <ele>433</ele>
        <time>2021-09-11T10:38:21.244Z</time>
      </trkpt>
      <trkpt lat="45.89846" lon="6.04109">
        <ele>434</ele>
        <time>2021-09-11T10:38:22.244Z</time>
      </trkpt>
      <trkpt lat="45.89848" lon="6.04109">
        <ele>435</ele>
        <time>2021-09-11T10:38:23.244Z</time>
      </trkpt>
      <trkpt lat="45.8985" lon="6.04108">
        <ele>435</ele>
        <time>2021-09-11T10:38:24.244Z</time>
      </trkpt>
      <trkpt lat="45.89852" lon="6.04108">
        <ele>436</ele>
        <time>2021-09-11T10:38:25.244Z</time>
      </trkpt>
      <trkpt lat="45.89854" lon="6.04108">
        <ele>436</ele>
        <time>2021-09-11T10:38:26.244Z</time>
      </trkpt>
      <trkpt lat="45.89856" lon="6.04108">
        <ele>436</ele>
        <time>2021-09-11T10:38:27.243Z</time>
      </trkpt>
      <trkpt lat="45.89858" lon="6.04107">
        <ele>437</ele>
        <time>2021-09-11T10:38:28.244Z</time>
      </trkpt>
      <trkpt lat="45.8986" lon="6.04107">
        <ele>437</ele>
        <time>2021-09-11T10:38:29.244Z</time>
      </trkpt>
      <trkpt lat="45.89862" lon="6.04106">
        <ele>437</ele>
        <time>2021-09-11T10:38:30.244Z</time>
      </trkpt>
      <trkpt lat="45.89864" lon="6.04106">
        <ele>438</ele>
        <time>2021-09-11T10:38:31.243Z</time>
      </trkpt>
      <trkpt lat="45.89865" lon="6.04106">
        <ele>438</ele>
        <time>2021-09-11T10:38:32.244Z</time>
      </trkpt>
      <trkpt lat="45.89868" lon="6.04105">
        <ele>439</ele>
        <time>2021-09-11T10:38:33.244Z</time>
      </trkpt>
      <trkpt lat="45.89869" lon="6.04104">
        <ele>440</ele>
        <time>2021-09-11T10:38:34.243Z</time>
      </trkpt>
      <trkpt lat="45.89871" lon="6.04104">
        <ele>440</ele>
        <time>2021-09-11T10:38:35.244Z</time>
      </trkpt>
      <trkpt lat="45.89873" lon="6.04103">
        <ele>441</ele>
        <time>2021-09-11T10:38:36.244Z</time>
      </trkpt>
      <trkpt lat="45.89874" lon="6.04103">
        <ele>441</ele>
        <time>2021-09-11T10:38:37.243Z</time>
      </trkpt>
      <trkpt lat="45.89877" lon="6.04102">
        <ele>441</ele>
        <time>2021-09-11T10:38:38.244Z</time>
      </trkpt>
      <trkpt lat="45.89879" lon="6.04102">
        <ele>442</ele>
        <time>2021-09-11T10:38:39.244Z</time>
      </trkpt>
      <trkpt lat="45.8988" lon="6.04101">
        <ele>442</ele>
        <time>2021-09-11T10:38:40.243Z</time>
      </trkpt>
      <trkpt lat="45.89882" lon="6.04101">
        <ele>442</ele>
        <time>2021-09-11T10:38:41.243Z</time>
      </trkpt>
      <trkpt lat="45.89884" lon="6.041">
        <ele>442</ele>
        <time>2021-09-11T10:38:42.244Z</time>
      </trkpt>
      <trkpt lat="45.89886" lon="6.041">
        <ele>443</ele>
        <time>2021-09-11T10:38:43.244Z</time>
      </trkpt>
      <trkpt lat="45.89888" lon="6.04099">
        <ele>443</ele>
        <time>2021-09-11T10:38:44.244Z</time>
      </trkpt>
      <trkpt lat="45.89889" lon="6.04099">
        <ele>444</ele>
        <time>2021-09-11T10:38:45.244Z</time>
      </trkpt>
      <trkpt lat="45.8989" lon="6.04098">
        <ele>444</ele>
        <time>2021-09-11T10:38:46.243Z</time>
      </trkpt>
      <trkpt lat="45.89892" lon="6.04098">
        <ele>444</ele>
        <time>2021-09-11T10:38:47.244Z</time>
      </trkpt>
      <trkpt lat="45.89894" lon="6.04097">
        <ele>444</ele>
        <time>2021-09-11T10:38:48.244Z</time>
      </trkpt>
      <trkpt lat="45.89896" lon="6.04096">
        <ele>444</ele>
        <time>2021-09-11T10:38:49.244Z</time>
      </trkpt>
      <trkpt lat="45.89898" lon="6.04096">
        <ele>445</ele>
        <time>2021-09-11T10:38:50.244Z</time>
      </trkpt>
      <trkpt lat="45.89899" lon="6.04095">
        <ele>444</ele>
        <time>2021-09-11T10:38:51.244Z</time>
      </trkpt>
      <trkpt lat="45.89902" lon="6.04094">
        <ele>444</ele>
        <time>2021-09-11T10:38:52.244Z</time>
      </trkpt>
      <trkpt lat="45.89904" lon="6.04093">
        <ele>444</ele>
        <time>2021-09-11T10:38:53.243Z</time>
      </trkpt>
      <trkpt lat="45.89906" lon="6.04093">
        <ele>443</ele>
        <time>2021-09-11T10:38:54.243Z</time>
      </trkpt>
      <trkpt lat="45.89907" lon="6.04092">
        <ele>443</ele>
        <time>2021-09-11T10:38:55.244Z</time>
      </trkpt>
      <trkpt lat="45.89909" lon="6.04091">
        <ele>443</ele>
        <time>2021-09-11T10:38:56.244Z</time>
      </trkpt>
      <trkpt lat="45.89911" lon="6.0409">
        <ele>442</ele>
        <time>2021-09-11T10:38:57.244Z</time>
      </trkpt>
      <trkpt lat="45.89913" lon="6.04089">
        <ele>442</ele>
        <time>2021-09-11T10:38:58.243Z</time>
      </trkpt>
      <trkpt lat="45.89914" lon="6.04088">
        <ele>442</ele>
        <time>2021-09-11T10:38:59.243Z</time>
      </trkpt>
      <trkpt lat="45.89916" lon="6.04087">
        <ele>442</ele>
        <time>2021-09-11T10:39:00.244Z</time>
      </trkpt>
      <trkpt lat="45.89918" lon="6.04085">
        <ele>443</ele>
        <time>2021-09-11T10:39:01.243Z</time>
      </trkpt>
      <trkpt lat="45.8992" lon="6.04083">
        <ele>443</ele>
        <time>2021-09-11T10:39:02.244Z</time>
      </trkpt>
      <trkpt lat="45.89921" lon="6.04082">
        <ele>443</ele>
        <time>2021-09-11T10:39:03.244Z</time>
      </trkpt>
      <trkpt lat="45.89923" lon="6.0408">
        <ele>443</ele>
        <time>2021-09-11T10:39:04.244Z</time>
      </trkpt>
      <trkpt lat="45.89924" lon="6.04079">
        <ele>443</ele>
        <time>2021-09-11T10:39:05.243Z</time>
      </trkpt>
      <trkpt lat="45.89926" lon="6.04078">
        <ele>443</ele>
        <time>2021-09-11T10:39:06.244Z</time>
      </trkpt>
      <trkpt lat="45.89928" lon="6.04076">
        <ele>443</ele>
        <time>2021-09-11T10:39:07.244Z</time>
      </trkpt>
      <trkpt lat="45.89929" lon="6.04075">
        <ele>444</ele>
        <time>2021-09-11T10:39:08.243Z</time>
      </trkpt>
      <trkpt lat="45.89931" lon="6.04073">
        <ele>444</ele>
        <time>2021-09-11T10:39:09.243Z</time>
      </trkpt>
      <trkpt lat="45.89932" lon="6.04072">
        <ele>444</ele>
        <time>2021-09-11T10:39:10.243Z</time>
      </trkpt>
      <trkpt lat="45.89934" lon="6.04071">
        <ele>445</ele>
        <time>2021-09-11T10:39:11.244Z</time>
      </trkpt>
      <trkpt lat="45.89935" lon="6.04069">
        <ele>445</ele>
        <time>2021-09-11T10:39:12.244Z</time>
      </trkpt>
      <trkpt lat="45.89937" lon="6.04067">
        <ele>445</ele>
        <time>2021-09-11T10:39:13.244Z</time>
      </trkpt>
      <trkpt lat="45.89938" lon="6.04066">
        <ele>446</ele>
        <time>2021-09-11T10:39:14.243Z</time>
      </trkpt>
      <trkpt lat="45.89939" lon="6.04064">
        <ele>446</ele>
        <time>2021-09-11T10:39:15.244Z</time>
      </trkpt>
      <trkpt lat="45.89941" lon="6.04062">
        <ele>447</ele>
        <time>2021-09-11T10:39:16.244Z</time>
      </trkpt>
      <trkpt lat="45.89942" lon="6.0406">
        <ele>447</ele>
        <time>2021-09-11T10:39:17.244Z</time>
      </trkpt>
      <trkpt lat="45.89944" lon="6.04058">
        <ele>447</ele>
        <time>2021-09-11T10:39:18.244Z</time>
      </trkpt>
      <trkpt lat="45.89945" lon="6.04057">
        <ele>448</ele>
        <time>2021-09-11T10:39:19.244Z</time>
      </trkpt>
      <trkpt lat="45.89946" lon="6.04055">
        <ele>448</ele>
        <time>2021-09-11T10:39:20.244Z</time>
      </trkpt>
      <trkpt lat="45.89948" lon="6.04053">
        <ele>448</ele>
        <time>2021-09-11T10:39:21.244Z</time>
      </trkpt>
      <trkpt lat="45.89949" lon="6.04051">
        <ele>448</ele>
        <time>2021-09-11T10:39:22.244Z</time>
      </trkpt>
      <trkpt lat="45.89951" lon="6.0405">
        <ele>448</ele>
        <time>2021-09-11T10:39:23.244Z</time>
      </trkpt>
      <trkpt lat="45.89952" lon="6.04048">
        <ele>447</ele>
        <time>2021-09-11T10:39:24.244Z</time>
      </trkpt>
      <trkpt lat="45.89953" lon="6.04046">
        <ele>447</ele>
        <time>2021-09-11T10:39:25.244Z</time>
      </trkpt>
      <trkpt lat="45.89955" lon="6.04045">
        <ele>447</ele>
        <time>2021-09-11T10:39:26.244Z</time>
      </trkpt>
      <trkpt lat="45.89956" lon="6.04042">
        <ele>447</ele>
        <time>2021-09-11T10:39:27.244Z</time>
      </trkpt>
      <trkpt lat="45.89957" lon="6.04041">
        <ele>447</ele>
        <time>2021-09-11T10:39:28.244Z</time>
      </trkpt>
      <trkpt lat="45.89958" lon="6.04039">
        <ele>447</ele>
        <time>2021-09-11T10:39:29.244Z</time>
      </trkpt>
      <trkpt lat="45.8996" lon="6.04037">
        <ele>447</ele>
        <time>2021-09-11T10:39:30.243Z</time>
      </trkpt>
      <trkpt lat="45.89961" lon="6.04035">
        <ele>447</ele>
        <time>2021-09-11T10:39:31.244Z</time>
      </trkpt>
      <trkpt lat="45.89962" lon="6.04033">
        <ele>447</ele>
        <time>2021-09-11T10:39:32.244Z</time>
      </trkpt>
      <trkpt lat="45.89963" lon="6.04031">
        <ele>447</ele>
        <time>2021-09-11T10:39:33.244Z</time>
      </trkpt>
      <trkpt lat="45.89965" lon="6.04029">
        <ele>448</ele>
        <time>2021-09-11T10:39:34.244Z</time>
      </trkpt>
      <trkpt lat="45.89966" lon="6.04027">
        <ele>448</ele>
        <time>2021-09-11T10:39:35.243Z</time>
      </trkpt>
      <trkpt lat="45.89968" lon="6.04025">
        <ele>448</ele>
        <time>2021-09-11T10:39:36.244Z</time>
      </trkpt>
      <trkpt lat="45.89969" lon="6.04024">
        <ele>449</ele>
        <time>2021-09-11T10:39:37.244Z</time>
      </trkpt>
      <trkpt lat="45.8997" lon="6.04022">
        <ele>449</ele>
        <time>2021-09-11T10:39:38.243Z</time>
      </trkpt>
      <trkpt lat="45.89972" lon="6.0402">
        <ele>449</ele>
        <time>2021-09-11T10:39:39.243Z</time>
      </trkpt>
      <trkpt lat="45.89973" lon="6.04017">
        <ele>449</ele>
        <time>2021-09-11T10:39:40.244Z</time>
      </trkpt>
      <trkpt lat="45.89975" lon="6.04016">
        <ele>449</ele>
        <time>2021-09-11T10:39:41.244Z</time>
      </trkpt>
      <trkpt lat="45.89976" lon="6.04014">
        <ele>450</ele>
        <time>2021-09-11T10:39:42.244Z</time>
      </trkpt>
      <trkpt lat="45.89977" lon="6.04012">
        <ele>450</ele>
        <time>2021-09-11T10:39:43.244Z</time>
      </trkpt>
      <trkpt lat="45.89978" lon="6.0401">
        <ele>449</ele>
        <time>2021-09-11T10:39:44.244Z</time>
      </trkpt>
      <trkpt lat="45.8998" lon="6.04008">
        <ele>449</ele>
        <time>2021-09-11T10:39:45.244Z</time>
      </trkpt>
      <trkpt lat="45.89981" lon="6.04006">
        <ele>449</ele>
        <time>2021-09-11T10:39:46.244Z</time>
      </trkpt>
      <trkpt lat="45.89982" lon="6.04004">
        <ele>449</ele>
        <time>2021-09-11T10:39:47.244Z</time>
      </trkpt>
      <trkpt lat="45.89983" lon="6.04002">
        <ele>450</ele>
        <time>2021-09-11T10:39:48.244Z</time>
      </trkpt>
      <trkpt lat="45.89984" lon="6.04">
        <ele>450</ele>
        <time>2021-09-11T10:39:49.244Z</time>
      </trkpt>
      <trkpt lat="45.89986" lon="6.03998">
        <ele>450</ele>
        <time>2021-09-11T10:39:50.243Z</time>
      </trkpt>
      <trkpt lat="45.89987" lon="6.03996">
        <ele>451</ele>
        <time>2021-09-11T10:39:51.244Z</time>
      </trkpt>
      <trkpt lat="45.89988" lon="6.03994">
        <ele>451</ele>
        <time>2021-09-11T10:39:52.243Z</time>
      </trkpt>
      <trkpt lat="45.89988" lon="6.03992">
        <ele>451</ele>
        <time>2021-09-11T10:39:53.244Z</time>
      </trkpt>
      <trkpt lat="45.8999" lon="6.03989">
        <ele>451</ele>
        <time>2021-09-11T10:39:54.244Z</time>
      </trkpt>
      <trkpt lat="45.89991" lon="6.03987">
        <ele>451</ele>
        <time>2021-09-11T10:39:55.244Z</time>
      </trkpt>
      <trkpt lat="45.89992" lon="6.03985">
        <ele>452</ele>
        <time>2021-09-11T10:39:56.244Z</time>
      </trkpt>
      <trkpt lat="45.89993" lon="6.03984">
        <ele>453</ele>
        <time>2021-09-11T10:39:57.244Z</time>
      </trkpt>
      <trkpt lat="45.89994" lon="6.03981">
        <ele>454</ele>
        <time>2021-09-11T10:39:58.244Z</time>
      </trkpt>
      <trkpt lat="45.89995" lon="6.03979">
        <ele>454</ele>
        <time>2021-09-11T10:39:59.243Z</time>
      </trkpt>
      <trkpt lat="45.89996" lon="6.03976">
        <ele>454</ele>
        <time>2021-09-11T10:40:00.244Z</time>
      </trkpt>
      <trkpt lat="45.89996" lon="6.03974">
        <ele>455</ele>
        <time>2021-09-11T10:40:01.243Z</time>
      </trkpt>
      <trkpt lat="45.89997" lon="6.03972">
        <ele>454</ele>
        <time>2021-09-11T10:40:02.244Z</time>
      </trkpt>
      <trkpt lat="45.89998" lon="6.0397">
        <ele>454</ele>
        <time>2021-09-11T10:40:03.243Z</time>
      </trkpt>
      <trkpt lat="45.89999" lon="6.03967">
        <ele>454</ele>
        <time>2021-09-11T10:40:04.243Z</time>
      </trkpt>
      <trkpt lat="45.9" lon="6.03965">
        <ele>454</ele>
        <time>2021-09-11T10:40:05.244Z</time>
      </trkpt>
      <trkpt lat="45.90001" lon="6.03963">
        <ele>454</ele>
        <time>2021-09-11T10:40:06.244Z</time>
      </trkpt>
      <trkpt lat="45.90002" lon="6.03961">
        <ele>454</ele>
        <time>2021-09-11T10:40:07.244Z</time>
      </trkpt>
      <trkpt lat="45.90003" lon="6.03959">
        <ele>454</ele>
        <time>2021-09-11T10:40:08.244Z</time>
      </trkpt>
      <trkpt lat="45.90004" lon="6.03956">
        <ele>454</ele>
        <time>2021-09-11T10:40:09.244Z</time>
      </trkpt>
      <trkpt lat="45.90005" lon="6.03954">
        <ele>455</ele>
        <time>2021-09-11T10:40:10.244Z</time>
      </trkpt>
      <trkpt lat="45.90006" lon="6.03951">
        <ele>455</ele>
        <time>2021-09-11T10:40:11.244Z</time>
      </trkpt>
      <trkpt lat="45.90006" lon="6.03949">
        <ele>456</ele>
        <time>2021-09-11T10:40:12.244Z</time>
      </trkpt>
      <trkpt lat="45.90007" lon="6.03947">
        <ele>456</ele>
        <time>2021-09-11T10:40:13.243Z</time>
      </trkpt>
      <trkpt lat="45.90008" lon="6.03944">
        <ele>457</ele>
        <time>2021-09-11T10:40:14.244Z</time>
      </trkpt>
      <trkpt lat="45.90009" lon="6.03942">
        <ele>457</ele>
        <time>2021-09-11T10:40:15.244Z</time>
      </trkpt>
      <trkpt lat="45.9001" lon="6.03939">
        <ele>457</ele>
        <time>2021-09-11T10:40:16.244Z</time>
      </trkpt>
      <trkpt lat="45.9001" lon="6.03938">
        <ele>457</ele>
        <time>2021-09-11T10:40:17.243Z</time>
      </trkpt>
      <trkpt lat="45.90011" lon="6.03935">
        <ele>457</ele>
        <time>2021-09-11T10:40:18.244Z</time>
      </trkpt>
      <trkpt lat="45.90012" lon="6.03933">
        <ele>457</ele>
        <time>2021-09-11T10:40:19.243Z</time>
      </trkpt>
      <trkpt lat="45.90013" lon="6.0393">
        <ele>457</ele>
        <time>2021-09-11T10:40:20.243Z</time>
      </trkpt>
      <trkpt lat="45.90014" lon="6.03928">
        <ele>457</ele>
        <time>2021-09-11T10:40:21.244Z</time>
      </trkpt>
      <trkpt lat="45.90014" lon="6.03926">
        <ele>457</ele>
        <time>2021-09-11T10:40:22.243Z</time>
      </trkpt>
      <trkpt lat="45.90015" lon="6.03923">
        <ele>457</ele>
        <time>2021-09-11T10:40:23.244Z</time>
      </trkpt>
      <trkpt lat="45.90016" lon="6.0392">
        <ele>458</ele>
        <time>2021-09-11T10:40:24.244Z</time>
      </trkpt>
      <trkpt lat="45.90016" lon="6.03918">
        <ele>458</ele>
        <time>2021-09-11T10:40:25.244Z</time>
      </trkpt>
      <trkpt lat="45.90016" lon="6.03915">
        <ele>458</ele>
        <time>2021-09-11T10:40:26.243Z</time>
      </trkpt>
      <trkpt lat="45.90017" lon="6.03912">
        <ele>459</ele>
        <time>2021-09-11T10:40:27.244Z</time>
      </trkpt>
      <trkpt lat="45.90017" lon="6.0391">
        <ele>460</ele>
        <time>2021-09-11T10:40:28.244Z</time>
      </trkpt>
      <trkpt lat="45.90018" lon="6.03908">
        <ele>460</ele>
        <time>2021-09-11T10:40:29.244Z</time>
      </trkpt>
      <trkpt lat="45.90018" lon="6.03906">
        <ele>461</ele>
        <time>2021-09-11T10:40:30.244Z</time>
      </trkpt>
      <trkpt lat="45.90019" lon="6.03903">
        <ele>461</ele>
        <time>2021-09-11T10:40:31.243Z</time>
      </trkpt>
      <trkpt lat="45.90019" lon="6.039">
        <ele>462</ele>
        <time>2021-09-11T10:40:32.244Z</time>
      </trkpt>
      <trkpt lat="45.9002" lon="6.03898">
        <ele>462</ele>
        <time>2021-09-11T10:40:33.243Z</time>
      </trkpt>
      <trkpt lat="45.9002" lon="6.03895">
        <ele>462</ele>
        <time>2021-09-11T10:40:34.244Z</time>
      </trkpt>
      <trkpt lat="45.9002" lon="6.03893">
        <ele>462</ele>
        <time>2021-09-11T10:40:35.244Z</time>
      </trkpt>
      <trkpt lat="45.90021" lon="6.03891">
        <ele>462</ele>
        <time>2021-09-11T10:40:36.244Z</time>
      </trkpt>
      <trkpt lat="45.90021" lon="6.03888">
        <ele>462</ele>
        <time>2021-09-11T10:40:37.244Z</time>
      </trkpt>
      <trkpt lat="45.90022" lon="6.03885">
        <ele>462</ele>
        <time>2021-09-11T10:40:38.244Z</time>
      </trkpt>
      <trkpt lat="45.90022" lon="6.03883">
        <ele>462</ele>
        <time>2021-09-11T10:40:39.243Z</time>
      </trkpt>
      <trkpt lat="45.90023" lon="6.03881">
        <ele>462</ele>
        <time>2021-09-11T10:40:40.244Z</time>
      </trkpt>
      <trkpt lat="45.90023" lon="6.03878">
        <ele>462</ele>
        <time>2021-09-11T10:40:41.244Z</time>
      </trkpt>
      <trkpt lat="45.90024" lon="6.03875">
        <ele>463</ele>
        <time>2021-09-11T10:40:42.243Z</time>
      </trkpt>
      <trkpt lat="45.90025" lon="6.03873">
        <ele>463</ele>
        <time>2021-09-11T10:40:43.244Z</time>
      </trkpt>
      <trkpt lat="45.90025" lon="6.03871">
        <ele>463</ele>
        <time>2021-09-11T10:40:44.243Z</time>
      </trkpt>
      <trkpt lat="45.90026" lon="6.03869">
        <ele>464</ele>
        <time>2021-09-11T10:40:45.244Z</time>
      </trkpt>
      <trkpt lat="45.90027" lon="6.03866">
        <ele>464</ele>
        <time>2021-09-11T10:40:46.244Z</time>
      </trkpt>
      <trkpt lat="45.90027" lon="6.03863">
        <ele>464</ele>
        <time>2021-09-11T10:40:47.244Z</time>
      </trkpt>
      <trkpt lat="45.90027" lon="6.0386">
        <ele>465</ele>
        <time>2021-09-11T10:40:48.243Z</time>
      </trkpt>
      <trkpt lat="45.90028" lon="6.03858">
        <ele>465</ele>
        <time>2021-09-11T10:40:49.243Z</time>
      </trkpt>
      <trkpt lat="45.90028" lon="6.03856">
        <ele>465</ele>
        <time>2021-09-11T10:40:50.244Z</time>
      </trkpt>
      <trkpt lat="45.90029" lon="6.03853">
        <ele>465</ele>
        <time>2021-09-11T10:40:51.243Z</time>
      </trkpt>
      <trkpt lat="45.90029" lon="6.0385">
        <ele>465</ele>
        <time>2021-09-11T10:40:52.244Z</time>
      </trkpt>
      <trkpt lat="45.90029" lon="6.03848">
        <ele>465</ele>
        <time>2021-09-11T10:40:53.244Z</time>
      </trkpt>
      <trkpt lat="45.9003" lon="6.03846">
        <ele>465</ele>
        <time>2021-09-11T10:40:54.244Z</time>
      </trkpt>
      <trkpt lat="45.9003" lon="6.03843">
        <ele>465</ele>
        <time>2021-09-11T10:40:55.243Z</time>
      </trkpt>
      <trkpt lat="45.9003" lon="6.0384">
        <ele>465</ele>
        <time>2021-09-11T10:40:56.243Z</time>
      </trkpt>
      <trkpt lat="45.90031" lon="6.03838">
        <ele>465</ele>
        <time>2021-09-11T10:40:57.243Z</time>
      </trkpt>
      <trkpt lat="45.90031" lon="6.03836">
        <ele>465</ele>
        <time>2021-09-11T10:40:58.243Z</time>
      </trkpt>
      <trkpt lat="45.90032" lon="6.03834">
        <ele>466</ele>
        <time>2021-09-11T10:40:59.243Z</time>
      </trkpt>
      <trkpt lat="45.90032" lon="6.03831">
        <ele>466</ele>
        <time>2021-09-11T10:41:00.244Z</time>
      </trkpt>
      <trkpt lat="45.90033" lon="6.03828">
        <ele>466</ele>
        <time>2021-09-11T10:41:01.243Z</time>
      </trkpt>
      <trkpt lat="45.90033" lon="6.03826">
        <ele>466</ele>
        <time>2021-09-11T10:41:02.244Z</time>
      </trkpt>
      <trkpt lat="45.90034" lon="6.03823">
        <ele>466</ele>
        <time>2021-09-11T10:41:03.244Z</time>
      </trkpt>
      <trkpt lat="45.90034" lon="6.03822">
        <ele>466</ele>
        <time>2021-09-11T10:41:04.243Z</time>
      </trkpt>
      <trkpt lat="45.90035" lon="6.03819">
        <ele>466</ele>
        <time>2021-09-11T10:41:05.243Z</time>
      </trkpt>
      <trkpt lat="45.90035" lon="6.03817">
        <ele>466</ele>
        <time>2021-09-11T10:41:06.243Z</time>
      </trkpt>
      <trkpt lat="45.90036" lon="6.03814">
        <ele>466</ele>
        <time>2021-09-11T10:41:07.244Z</time>
      </trkpt>
      <trkpt lat="45.90037" lon="6.03812">
        <ele>466</ele>
        <time>2021-09-11T10:41:08.244Z</time>
      </trkpt>
      <trkpt lat="45.90037" lon="6.03811">
        <ele>465</ele>
        <time>2021-09-11T10:41:09.244Z</time>
      </trkpt>
      <trkpt lat="45.90038" lon="6.03808">
        <ele>465</ele>
        <time>2021-09-11T10:41:10.244Z</time>
      </trkpt>
      <trkpt lat="45.90039" lon="6.03806">
        <ele>465</ele>
        <time>2021-09-11T10:41:11.244Z</time>
      </trkpt>
      <trkpt lat="45.9004" lon="6.03803">
        <ele>465</ele>
        <time>2021-09-11T10:41:12.244Z</time>
      </trkpt>
      <trkpt lat="45.90041" lon="6.03801">
        <ele>465</ele>
        <time>2021-09-11T10:41:13.244Z</time>
      </trkpt>
      <trkpt lat="45.90041" lon="6.03799">
        <ele>465</ele>
        <time>2021-09-11T10:41:14.243Z</time>
      </trkpt>
      <trkpt lat="45.90042" lon="6.03797">
        <ele>465</ele>
        <time>2021-09-11T10:41:15.244Z</time>
      </trkpt>
      <trkpt lat="45.90043" lon="6.03794">
        <ele>465</ele>
        <time>2021-09-11T10:41:16.243Z</time>
      </trkpt>
      <trkpt lat="45.90044" lon="6.03792">
        <ele>465</ele>
        <time>2021-09-11T10:41:17.244Z</time>
      </trkpt>
      <trkpt lat="45.90045" lon="6.0379">
        <ele>465</ele>
        <time>2021-09-11T10:41:18.244Z</time>
      </trkpt>
      <trkpt lat="45.90046" lon="6.03788">
        <ele>465</ele>
        <time>2021-09-11T10:41:19.244Z</time>
      </trkpt>
      <trkpt lat="45.90047" lon="6.03786">
        <ele>465</ele>
        <time>2021-09-11T10:41:20.244Z</time>
      </trkpt>
      <trkpt lat="45.90048" lon="6.03784">
        <ele>465</ele>
        <time>2021-09-11T10:41:21.244Z</time>
      </trkpt>
      <trkpt lat="45.90049" lon="6.03781">
        <ele>465</ele>
        <time>2021-09-11T10:41:22.243Z</time>
      </trkpt>
      <trkpt lat="45.9005" lon="6.03779">
        <ele>465</ele>
        <time>2021-09-11T10:41:23.244Z</time>
      </trkpt>
      <trkpt lat="45.90051" lon="6.03777">
        <ele>465</ele>
        <time>2021-09-11T10:41:24.244Z</time>
      </trkpt>
      <trkpt lat="45.90052" lon="6.03775">
        <ele>465</ele>
        <time>2021-09-11T10:41:25.244Z</time>
      </trkpt>
      <trkpt lat="45.90053" lon="6.03773">
        <ele>465</ele>
        <time>2021-09-11T10:41:26.244Z</time>
      </trkpt>
      <trkpt lat="45.90055" lon="6.03772">
        <ele>465</ele>
        <time>2021-09-11T10:41:27.243Z</time>
      </trkpt>
      <trkpt lat="45.90056" lon="6.0377">
        <ele>465</ele>
        <time>2021-09-11T10:41:28.244Z</time>
      </trkpt>
      <trkpt lat="45.90057" lon="6.03768">
        <ele>465</ele>
        <time>2021-09-11T10:41:29.244Z</time>
      </trkpt>
      <trkpt lat="45.90058" lon="6.03766">
        <ele>465</ele>
        <time>2021-09-11T10:41:30.243Z</time>
      </trkpt>
      <trkpt lat="45.90059" lon="6.03764">
        <ele>466</ele>
        <time>2021-09-11T10:41:31.244Z</time>
      </trkpt>
      <trkpt lat="45.9006" lon="6.03761">
        <ele>467</ele>
        <time>2021-09-11T10:41:32.243Z</time>
      </trkpt>
      <trkpt lat="45.90061" lon="6.03759">
        <ele>467</ele>
        <time>2021-09-11T10:41:33.243Z</time>
      </trkpt>
      <trkpt lat="45.90062" lon="6.03757">
        <ele>468</ele>
        <time>2021-09-11T10:41:34.244Z</time>
      </trkpt>
      <trkpt lat="45.90063" lon="6.03754">
        <ele>468</ele>
        <time>2021-09-11T10:41:35.243Z</time>
      </trkpt>
      <trkpt lat="45.90064" lon="6.03752">
        <ele>469</ele>
        <time>2021-09-11T10:41:36.244Z</time>
      </trkpt>
      <trkpt lat="45.90065" lon="6.0375">
        <ele>470</ele>
        <time>2021-09-11T10:41:37.243Z</time>
      </trkpt>
      <trkpt lat="45.90067" lon="6.03748">
        <ele>470</ele>
        <time>2021-09-11T10:41:38.244Z</time>
      </trkpt>
      <trkpt lat="45.90068" lon="6.03747">
        <ele>470</ele>
        <time>2021-09-11T10:41:39.243Z</time>
      </trkpt>
      <trkpt lat="45.90069" lon="6.03745">
        <ele>470</ele>
        <time>2021-09-11T10:41:40.243Z</time>
      </trkpt>
      <trkpt lat="45.90071" lon="6.03743">
        <ele>470</ele>
        <time>2021-09-11T10:41:41.244Z</time>
      </trkpt>
      <trkpt lat="45.90072" lon="6.03741">
        <ele>470</ele>
        <time>2021-09-11T10:41:42.243Z</time>
      </trkpt>
      <trkpt lat="45.90073" lon="6.03739">
        <ele>470</ele>
        <time>2021-09-11T10:41:43.244Z</time>
      </trkpt>
      <trkpt lat="45.90074" lon="6.03737">
        <ele>471</ele>
        <time>2021-09-11T10:41:44.244Z</time>
      </trkpt>
      <trkpt lat="45.90076" lon="6.03734">
        <ele>471</ele>
        <time>2021-09-11T10:41:45.244Z</time>
      </trkpt>
      <trkpt lat="45.90076" lon="6.03733">
        <ele>471</ele>
        <time>2021-09-11T10:41:46.243Z</time>
      </trkpt>
      <trkpt lat="45.90078" lon="6.03731">
        <ele>472</ele>
        <time>2021-09-11T10:41:47.244Z</time>
      </trkpt>
      <trkpt lat="45.90079" lon="6.03728">
        <ele>472</ele>
        <time>2021-09-11T10:41:48.243Z</time>
      </trkpt>
      <trkpt lat="45.9008" lon="6.03727">
        <ele>472</ele>
        <time>2021-09-11T10:41:49.244Z</time>
      </trkpt>
      <trkpt lat="45.90081" lon="6.03724">
        <ele>472</ele>
        <time>2021-09-11T10:41:50.244Z</time>
      </trkpt>
      <trkpt lat="45.90082" lon="6.03722">
        <ele>472</ele>
        <time>2021-09-11T10:41:51.243Z</time>
      </trkpt>
      <trkpt lat="45.90083" lon="6.0372">
        <ele>472</ele>
        <time>2021-09-11T10:41:52.243Z</time>
      </trkpt>
      <trkpt lat="45.90084" lon="6.03718">
        <ele>472</ele>
        <time>2021-09-11T10:41:53.244Z</time>
      </trkpt>
      <trkpt lat="45.90086" lon="6.03716">
        <ele>472</ele>
        <time>2021-09-11T10:41:54.244Z</time>
      </trkpt>
      <trkpt lat="45.90087" lon="6.03714">
        <ele>473</ele>
        <time>2021-09-11T10:41:55.244Z</time>
      </trkpt>
      <trkpt lat="45.90088" lon="6.03712">
        <ele>473</ele>
        <time>2021-09-11T10:41:56.243Z</time>
      </trkpt>
      <trkpt lat="45.90089" lon="6.0371">
        <ele>474</ele>
        <time>2021-09-11T10:41:57.244Z</time>
      </trkpt>
      <trkpt lat="45.9009" lon="6.03708">
        <ele>474</ele>
        <time>2021-09-11T10:41:58.244Z</time>
      </trkpt>
      <trkpt lat="45.90092" lon="6.03706">
        <ele>474</ele>
        <time>2021-09-11T10:41:59.244Z</time>
      </trkpt>
      <trkpt lat="45.90093" lon="6.03704">
        <ele>474</ele>
        <time>2021-09-11T10:42:00.244Z</time>
      </trkpt>
      <trkpt lat="45.90094" lon="6.03703">
        <ele>474</ele>
        <time>2021-09-11T10:42:01.244Z</time>
      </trkpt>
      <trkpt lat="45.90095" lon="6.03701">
        <ele>475</ele>
        <time>2021-09-11T10:42:02.244Z</time>
      </trkpt>
      <trkpt lat="45.90097" lon="6.03698">
        <ele>476</ele>
        <time>2021-09-11T10:42:03.244Z</time>
      </trkpt>
      <trkpt lat="45.90098" lon="6.03697">
        <ele>477</ele>
        <time>2021-09-11T10:42:04.243Z</time>
      </trkpt>
      <trkpt lat="45.90099" lon="6.03695">
        <ele>477</ele>
        <time>2021-09-11T10:42:05.244Z</time>
      </trkpt>
      <trkpt lat="45.901" lon="6.03693">
        <ele>478</ele>
        <time>2021-09-11T10:42:06.243Z</time>
      </trkpt>
      <trkpt lat="45.90101" lon="6.0369">
        <ele>478</ele>
        <time>2021-09-11T10:42:07.244Z</time>
      </trkpt>
      <trkpt lat="45.90103" lon="6.03688">
        <ele>478</ele>
        <time>2021-09-11T10:42:08.244Z</time>
      </trkpt>
      <trkpt lat="45.90104" lon="6.03686">
        <ele>478</ele>
        <time>2021-09-11T10:42:09.243Z</time>
      </trkpt>
      <trkpt lat="45.90105" lon="6.03684">
        <ele>478</ele>
        <time>2021-09-11T10:42:10.243Z</time>
      </trkpt>
      <trkpt lat="45.90106" lon="6.03682">
        <ele>478</ele>
        <time>2021-09-11T10:42:11.244Z</time>
      </trkpt>
      <trkpt lat="45.90107" lon="6.0368">
        <ele>478</ele>
        <time>2021-09-11T10:42:12.244Z</time>
      </trkpt>
      <trkpt lat="45.90108" lon="6.03678">
        <ele>478</ele>
        <time>2021-09-11T10:42:13.244Z</time>
      </trkpt>
      <trkpt lat="45.90109" lon="6.03676">
        <ele>479</ele>
        <time>2021-09-11T10:42:14.244Z</time>
      </trkpt>
      <trkpt lat="45.90111" lon="6.03673">
        <ele>479</ele>
        <time>2021-09-11T10:42:15.244Z</time>
      </trkpt>
      <trkpt lat="45.90112" lon="6.03671">
        <ele>479</ele>
        <time>2021-09-11T10:42:16.244Z</time>
      </trkpt>
      <trkpt lat="45.90113" lon="6.03668">
        <ele>479</ele>
        <time>2021-09-11T10:42:17.243Z</time>
      </trkpt>
      <trkpt lat="45.90114" lon="6.03666">
        <ele>478</ele>
        <time>2021-09-11T10:42:18.244Z</time>
      </trkpt>
      <trkpt lat="45.90115" lon="6.03664">
        <ele>479</ele>
        <time>2021-09-11T10:42:19.243Z</time>
      </trkpt>
      <trkpt lat="45.90116" lon="6.03662">
        <ele>479</ele>
        <time>2021-09-11T10:42:20.244Z</time>
      </trkpt>
      <trkpt lat="45.90117" lon="6.0366">
        <ele>479</ele>
        <time>2021-09-11T10:42:21.244Z</time>
      </trkpt>
      <trkpt lat="45.90118" lon="6.03658">
        <ele>479</ele>
        <time>2021-09-11T10:42:22.244Z</time>
      </trkpt>
      <trkpt lat="45.9012" lon="6.03655">
        <ele>479</ele>
        <time>2021-09-11T10:42:23.244Z</time>
      </trkpt>
      <trkpt lat="45.90121" lon="6.03654">
        <ele>479</ele>
        <time>2021-09-11T10:42:24.244Z</time>
      </trkpt>
      <trkpt lat="45.90122" lon="6.03651">
        <ele>478</ele>
        <time>2021-09-11T10:42:25.243Z</time>
      </trkpt>
      <trkpt lat="45.90123" lon="6.03649">
        <ele>478</ele>
        <time>2021-09-11T10:42:26.244Z</time>
      </trkpt>
      <trkpt lat="45.90124" lon="6.03647">
        <ele>478</ele>
        <time>2021-09-11T10:42:27.244Z</time>
      </trkpt>
      <trkpt lat="45.90125" lon="6.03645">
        <ele>478</ele>
        <time>2021-09-11T10:42:28.244Z</time>
      </trkpt>
      <trkpt lat="45.90126" lon="6.03643">
        <ele>477</ele>
        <time>2021-09-11T10:42:29.244Z</time>
      </trkpt>
      <trkpt lat="45.90127" lon="6.03641">
        <ele>477</ele>
        <time>2021-09-11T10:42:30.244Z</time>
      </trkpt>
      <trkpt lat="45.90128" lon="6.03639">
        <ele>477</ele>
        <time>2021-09-11T10:42:31.244Z</time>
      </trkpt>
      <trkpt lat="45.9013" lon="6.03637">
        <ele>477</ele>
        <time>2021-09-11T10:42:32.244Z</time>
      </trkpt>
      <trkpt lat="45.90131" lon="6.03635">
        <ele>477</ele>
        <time>2021-09-11T10:42:33.244Z</time>
      </trkpt>
      <trkpt lat="45.90132" lon="6.03633">
        <ele>477</ele>
        <time>2021-09-11T10:42:34.244Z</time>
      </trkpt>
      <trkpt lat="45.90133" lon="6.03631">
        <ele>477</ele>
        <time>2021-09-11T10:42:35.244Z</time>
      </trkpt>
      <trkpt lat="45.90134" lon="6.03629">
        <ele>478</ele>
        <time>2021-09-11T10:42:36.243Z</time>
      </trkpt>
      <trkpt lat="45.90134" lon="6.03627">
        <ele>478</ele>
        <time>2021-09-11T10:42:37.244Z</time>
      </trkpt>
      <trkpt lat="45.90136" lon="6.03625">
        <ele>478</ele>
        <time>2021-09-11T10:42:38.244Z</time>
      </trkpt>
      <trkpt lat="45.90137" lon="6.03623">
        <ele>478</ele>
        <time>2021-09-11T10:42:39.243Z</time>
      </trkpt>
      <trkpt lat="45.90138" lon="6.03621">
        <ele>478</ele>
        <time>2021-09-11T10:42:40.244Z</time>
      </trkpt>
      <trkpt lat="45.90139" lon="6.03619">
        <ele>477</ele>
        <time>2021-09-11T10:42:41.244Z</time>
      </trkpt>
      <trkpt lat="45.90141" lon="6.03616">
        <ele>477</ele>
        <time>2021-09-11T10:42:42.244Z</time>
      </trkpt>
      <trkpt lat="45.90142" lon="6.03615">
        <ele>477</ele>
        <time>2021-09-11T10:42:43.243Z</time>
      </trkpt>
      <trkpt lat="45.90143" lon="6.03612">
        <ele>477</ele>
        <time>2021-09-11T10:42:44.244Z</time>
      </trkpt>
      <trkpt lat="45.90144" lon="6.0361">
        <ele>478</ele>
        <time>2021-09-11T10:42:45.244Z</time>
      </trkpt>
      <trkpt lat="45.90145" lon="6.03608">
        <ele>478</ele>
        <time>2021-09-11T10:42:46.243Z</time>
      </trkpt>
      <trkpt lat="45.90146" lon="6.03606">
        <ele>478</ele>
        <time>2021-09-11T10:42:47.244Z</time>
      </trkpt>
      <trkpt lat="45.90147" lon="6.03604">
        <ele>479</ele>
        <time>2021-09-11T10:42:48.243Z</time>
      </trkpt>
      <trkpt lat="45.90148" lon="6.03601">
        <ele>479</ele>
        <time>2021-09-11T10:42:49.244Z</time>
      </trkpt>
      <trkpt lat="45.90149" lon="6.03599">
        <ele>479</ele>
        <time>2021-09-11T10:42:50.243Z</time>
      </trkpt>
      <trkpt lat="45.9015" lon="6.03597">
        <ele>480</ele>
        <time>2021-09-11T10:42:51.244Z</time>
      </trkpt>
      <trkpt lat="45.90151" lon="6.03595">
        <ele>480</ele>
        <time>2021-09-11T10:42:52.244Z</time>
      </trkpt>
      <trkpt lat="45.90152" lon="6.03593">
        <ele>480</ele>
        <time>2021-09-11T10:42:53.244Z</time>
      </trkpt>
      <trkpt lat="45.90152" lon="6.0359">
        <ele>480</ele>
        <time>2021-09-11T10:42:54.244Z</time>
      </trkpt>
      <trkpt lat="45.90154" lon="6.03588">
        <ele>480</ele>
        <time>2021-09-11T10:42:55.244Z</time>
      </trkpt>
      <trkpt lat="45.90155" lon="6.03586">
        <ele>480</ele>
        <time>2021-09-11T10:42:56.244Z</time>
      </trkpt>
      <trkpt lat="45.90156" lon="6.03583">
        <ele>480</ele>
        <time>2021-09-11T10:42:57.244Z</time>
      </trkpt>
      <trkpt lat="45.90157" lon="6.03581">
        <ele>480</ele>
        <time>2021-09-11T10:42:58.243Z</time>
      </trkpt>
      <trkpt lat="45.90158" lon="6.03578">
        <ele>480</ele>
        <time>2021-09-11T10:42:59.244Z</time>
      </trkpt>
      <trkpt lat="45.90159" lon="6.03576">
        <ele>480</ele>
        <time>2021-09-11T10:43:00.243Z</time>
      </trkpt>
      <trkpt lat="45.9016" lon="6.03574">
        <ele>480</ele>
        <time>2021-09-11T10:43:01.243Z</time>
      </trkpt>
      <trkpt lat="45.90161" lon="6.03572">
        <ele>480</ele>
        <time>2021-09-11T10:43:02.244Z</time>
      </trkpt>
      <trkpt lat="45.90162" lon="6.03569">
        <ele>480</ele>
        <time>2021-09-11T10:43:03.243Z</time>
      </trkpt>
      <trkpt lat="45.90162" lon="6.03567">
        <ele>480</ele>
        <time>2021-09-11T10:43:04.244Z</time>
      </trkpt>
      <trkpt lat="45.90163" lon="6.03564">
        <ele>481</ele>
        <time>2021-09-11T10:43:05.243Z</time>
      </trkpt>
      <trkpt lat="45.90164" lon="6.03562">
        <ele>481</ele>
        <time>2021-09-11T10:43:06.244Z</time>
      </trkpt>
      <trkpt lat="45.90165" lon="6.03559">
        <ele>480</ele>
        <time>2021-09-11T10:43:07.243Z</time>
      </trkpt>
      <trkpt lat="45.90165" lon="6.03557">
        <ele>480</ele>
        <time>2021-09-11T10:43:08.243Z</time>
      </trkpt>
      <trkpt lat="45.90166" lon="6.03554">
        <ele>480</ele>
        <time>2021-09-11T10:43:09.244Z</time>
      </trkpt>
      <trkpt lat="45.90166" lon="6.03552">
        <ele>480</ele>
        <time>2021-09-11T10:43:10.243Z</time>
      </trkpt>
      <trkpt lat="45.90167" lon="6.03549">
        <ele>481</ele>
        <time>2021-09-11T10:43:11.244Z</time>
      </trkpt>
      <trkpt lat="45.90168" lon="6.03546">
        <ele>481</ele>
        <time>2021-09-11T10:43:12.244Z</time>
      </trkpt>
      <trkpt lat="45.90168" lon="6.03543">
        <ele>482</ele>
        <time>2021-09-11T10:43:13.244Z</time>
      </trkpt>
      <trkpt lat="45.90168" lon="6.03541">
        <ele>483</ele>
        <time>2021-09-11T10:43:14.244Z</time>
      </trkpt>
      <trkpt lat="45.90169" lon="6.03538">
        <ele>484</ele>
        <time>2021-09-11T10:43:15.244Z</time>
      </trkpt>
      <trkpt lat="45.90169" lon="6.03535">
        <ele>484</ele>
        <time>2021-09-11T10:43:16.244Z</time>
      </trkpt>
      <trkpt lat="45.90169" lon="6.03532">
        <ele>484</ele>
        <time>2021-09-11T10:43:17.244Z</time>
      </trkpt>
      <trkpt lat="45.9017" lon="6.0353">
        <ele>484</ele>
        <time>2021-09-11T10:43:18.243Z</time>
      </trkpt>
      <trkpt lat="45.9017" lon="6.03527">
        <ele>485</ele>
        <time>2021-09-11T10:43:19.243Z</time>
      </trkpt>
      <trkpt lat="45.90171" lon="6.03525">
        <ele>485</ele>
        <time>2021-09-11T10:43:20.243Z</time>
      </trkpt>
      <trkpt lat="45.90171" lon="6.03522">
        <ele>485</ele>
        <time>2021-09-11T10:43:21.244Z</time>
      </trkpt>
      <trkpt lat="45.90171" lon="6.0352">
        <ele>486</ele>
        <time>2021-09-11T10:43:22.244Z</time>
      </trkpt>
      <trkpt lat="45.90172" lon="6.03517">
        <ele>486</ele>
        <time>2021-09-11T10:43:23.243Z</time>
      </trkpt>
      <trkpt lat="45.90172" lon="6.03515">
        <ele>486</ele>
        <time>2021-09-11T10:43:24.244Z</time>
      </trkpt>
      <trkpt lat="45.90172" lon="6.03512">
        <ele>486</ele>
        <time>2021-09-11T10:43:25.244Z</time>
      </trkpt>
      <trkpt lat="45.90172" lon="6.0351">
        <ele>486</ele>
        <time>2021-09-11T10:43:26.244Z</time>
      </trkpt>
      <trkpt lat="45.90173" lon="6.03507">
        <ele>485</ele>
        <time>2021-09-11T10:43:27.244Z</time>
      </trkpt>
      <trkpt lat="45.90173" lon="6.03505">
        <ele>484</ele>
        <time>2021-09-11T10:43:28.244Z</time>
      </trkpt>
      <trkpt lat="45.90174" lon="6.03503">
        <ele>483</ele>
        <time>2021-09-11T10:43:29.243Z</time>
      </trkpt>
      <trkpt lat="45.90175" lon="6.03499">
        <ele>483</ele>
        <time>2021-09-11T10:43:30.244Z</time>
      </trkpt>
      <trkpt lat="45.90175" lon="6.03497">
        <ele>483</ele>
        <time>2021-09-11T10:43:31.244Z</time>
      </trkpt>
      <trkpt lat="45.90176" lon="6.03495">
        <ele>483</ele>
        <time>2021-09-11T10:43:32.244Z</time>
      </trkpt>
      <trkpt lat="45.90176" lon="6.03492">
        <ele>483</ele>
        <time>2021-09-11T10:43:33.244Z</time>
      </trkpt>
      <trkpt lat="45.90177" lon="6.0349">
        <ele>482</ele>
        <time>2021-09-11T10:43:34.243Z</time>
      </trkpt>
      <trkpt lat="45.90178" lon="6.03487">
        <ele>482</ele>
        <time>2021-09-11T10:43:35.243Z</time>
      </trkpt>
      <trkpt lat="45.90178" lon="6.03484">
        <ele>482</ele>
        <time>2021-09-11T10:43:36.244Z</time>
      </trkpt>
      <trkpt lat="45.90179" lon="6.03482">
        <ele>482</ele>
        <time>2021-09-11T10:43:37.243Z</time>
      </trkpt>
      <trkpt lat="45.90179" lon="6.03479">
        <ele>482</ele>
        <time>2021-09-11T10:43:38.244Z</time>
      </trkpt>
      <trkpt lat="45.90179" lon="6.03477">
        <ele>483</ele>
        <time>2021-09-11T10:43:39.244Z</time>
      </trkpt>
      <trkpt lat="45.9018" lon="6.03474">
        <ele>483</ele>
        <time>2021-09-11T10:43:40.244Z</time>
      </trkpt>
      <trkpt lat="45.9018" lon="6.03472">
        <ele>484</ele>
        <time>2021-09-11T10:43:41.244Z</time>
      </trkpt>
      <trkpt lat="45.90181" lon="6.03469">
        <ele>484</ele>
        <time>2021-09-11T10:43:42.243Z</time>
      </trkpt>
      <trkpt lat="45.90181" lon="6.03466">
        <ele>484</ele>
        <time>2021-09-11T10:43:43.244Z</time>
      </trkpt>
      <trkpt lat="45.90181" lon="6.03463">
        <ele>484</ele>
        <time>2021-09-11T10:43:44.244Z</time>
      </trkpt>
      <trkpt lat="45.90181" lon="6.03461">
        <ele>484</ele>
        <time>2021-09-11T10:43:45.244Z</time>
      </trkpt>
      <trkpt lat="45.90181" lon="6.03458">
        <ele>485</ele>
        <time>2021-09-11T10:43:46.244Z</time>
      </trkpt>
      <trkpt lat="45.90181" lon="6.03455">
        <ele>485</ele>
        <time>2021-09-11T10:43:47.244Z</time>
      </trkpt>
      <trkpt lat="45.90182" lon="6.03452">
        <ele>485</ele>
        <time>2021-09-11T10:43:48.244Z</time>
      </trkpt>
      <trkpt lat="45.90182" lon="6.0345">
        <ele>485</ele>
        <time>2021-09-11T10:43:49.244Z</time>
      </trkpt>
      <trkpt lat="45.90182" lon="6.03447">
        <ele>485</ele>
        <time>2021-09-11T10:43:50.244Z</time>
      </trkpt>
      <trkpt lat="45.90182" lon="6.03445">
        <ele>485</ele>
        <time>2021-09-11T10:43:51.244Z</time>
      </trkpt>
      <trkpt lat="45.90182" lon="6.03443">
        <ele>486</ele>
        <time>2021-09-11T10:43:52.244Z</time>
      </trkpt>
      <trkpt lat="45.90182" lon="6.0344">
        <ele>486</ele>
        <time>2021-09-11T10:43:53.244Z</time>
      </trkpt>
      <trkpt lat="45.90183" lon="6.03437">
        <ele>486</ele>
        <time>2021-09-11T10:43:54.244Z</time>
      </trkpt>
      <trkpt lat="45.90183" lon="6.03435">
        <ele>486</ele>
        <time>2021-09-11T10:43:55.244Z</time>
      </trkpt>
      <trkpt lat="45.90183" lon="6.03432">
        <ele>486</ele>
        <time>2021-09-11T10:43:56.244Z</time>
      </trkpt>
      <trkpt lat="45.90183" lon="6.0343">
        <ele>487</ele>
        <time>2021-09-11T10:43:57.244Z</time>
      </trkpt>
      <trkpt lat="45.90183" lon="6.03427">
        <ele>488</ele>
        <time>2021-09-11T10:43:58.244Z</time>
      </trkpt>
      <trkpt lat="45.90183" lon="6.03425">
        <ele>489</ele>
        <time>2021-09-11T10:43:59.244Z</time>
      </trkpt>
      <trkpt lat="45.90184" lon="6.03422">
        <ele>489</ele>
        <time>2021-09-11T10:44:00.244Z</time>
      </trkpt>
      <trkpt lat="45.90184" lon="6.03419">
        <ele>490</ele>
        <time>2021-09-11T10:44:01.244Z</time>
      </trkpt>
      <trkpt lat="45.90184" lon="6.03416">
        <ele>490</ele>
        <time>2021-09-11T10:44:02.244Z</time>
      </trkpt>
      <trkpt lat="45.90184" lon="6.03414">
        <ele>490</ele>
        <time>2021-09-11T10:44:03.243Z</time>
      </trkpt>
      <trkpt lat="45.90184" lon="6.03411">
        <ele>491</ele>
        <time>2021-09-11T10:44:04.243Z</time>
      </trkpt>
      <trkpt lat="45.90184" lon="6.03408">
        <ele>491</ele>
        <time>2021-09-11T10:44:05.244Z</time>
      </trkpt>
      <trkpt lat="45.90184" lon="6.03405">
        <ele>491</ele>
        <time>2021-09-11T10:44:06.243Z</time>
      </trkpt>
      <trkpt lat="45.90184" lon="6.03403">
        <ele>492</ele>
        <time>2021-09-11T10:44:07.243Z</time>
      </trkpt>
      <trkpt lat="45.90185" lon="6.034">
        <ele>491</ele>
        <time>2021-09-11T10:44:08.244Z</time>
      </trkpt>
      <trkpt lat="45.90185" lon="6.03397">
        <ele>491</ele>
        <time>2021-09-11T10:44:09.244Z</time>
      </trkpt>
      <trkpt lat="45.90185" lon="6.03395">
        <ele>491</ele>
        <time>2021-09-11T10:44:10.244Z</time>
      </trkpt>
      <trkpt lat="45.90186" lon="6.03392">
        <ele>491</ele>
        <time>2021-09-11T10:44:11.244Z</time>
      </trkpt>
      <trkpt lat="45.90186" lon="6.0339">
        <ele>491</ele>
        <time>2021-09-11T10:44:12.244Z</time>
      </trkpt>
      <trkpt lat="45.90186" lon="6.03387">
        <ele>492</ele>
        <time>2021-09-11T10:44:13.244Z</time>
      </trkpt>
      <trkpt lat="45.90186" lon="6.03384">
        <ele>492</ele>
        <time>2021-09-11T10:44:14.244Z</time>
      </trkpt>
      <trkpt lat="45.90186" lon="6.03381">
        <ele>493</ele>
        <time>2021-09-11T10:44:15.244Z</time>
      </trkpt>
      <trkpt lat="45.90186" lon="6.03379">
        <ele>493</ele>
        <time>2021-09-11T10:44:16.244Z</time>
      </trkpt>
      <trkpt lat="45.90186" lon="6.03376">
        <ele>493</ele>
        <time>2021-09-11T10:44:17.244Z</time>
      </trkpt>
      <trkpt lat="45.90186" lon="6.03373">
        <ele>493</ele>
        <time>2021-09-11T10:44:18.244Z</time>
      </trkpt>
      <trkpt lat="45.90186" lon="6.03371">
        <ele>494</ele>
        <time>2021-09-11T10:44:19.243Z</time>
      </trkpt>
      <trkpt lat="45.90186" lon="6.03368">
        <ele>494</ele>
        <time>2021-09-11T10:44:20.243Z</time>
      </trkpt>
      <trkpt lat="45.90186" lon="6.03365">
        <ele>494</ele>
        <time>2021-09-11T10:44:21.244Z</time>
      </trkpt>
      <trkpt lat="45.90186" lon="6.03363">
        <ele>494</ele>
        <time>2021-09-11T10:44:22.244Z</time>
      </trkpt>
      <trkpt lat="45.90186" lon="6.0336">
        <ele>493</ele>
        <time>2021-09-11T10:44:23.244Z</time>
      </trkpt>
      <trkpt lat="45.90186" lon="6.03357">
        <ele>493</ele>
        <time>2021-09-11T10:44:24.244Z</time>
      </trkpt>
      <trkpt lat="45.90186" lon="6.03355">
        <ele>493</ele>
        <time>2021-09-11T10:44:25.244Z</time>
      </trkpt>
      <trkpt lat="45.90186" lon="6.03352">
        <ele>493</ele>
        <time>2021-09-11T10:44:26.244Z</time>
      </trkpt>
      <trkpt lat="45.90186" lon="6.03349">
        <ele>494</ele>
        <time>2021-09-11T10:44:27.243Z</time>
      </trkpt>
      <trkpt lat="45.90186" lon="6.03347">
        <ele>494</ele>
        <time>2021-09-11T10:44:28.244Z</time>
      </trkpt>
      <trkpt lat="45.90186" lon="6.03344">
        <ele>494</ele>
        <time>2021-09-11T10:44:29.244Z</time>
      </trkpt>
      <trkpt lat="45.90187" lon="6.03342">
        <ele>495</ele>
        <time>2021-09-11T10:44:30.244Z</time>
      </trkpt>
      <trkpt lat="45.90187" lon="6.0334">
        <ele>495</ele>
        <time>2021-09-11T10:44:31.244Z</time>
      </trkpt>
      <trkpt lat="45.90187" lon="6.03337">
        <ele>496</ele>
        <time>2021-09-11T10:44:32.244Z</time>
      </trkpt>
      <trkpt lat="45.90187" lon="6.03334">
        <ele>496</ele>
        <time>2021-09-11T10:44:33.244Z</time>
      </trkpt>
      <trkpt lat="45.90188" lon="6.03332">
        <ele>496</ele>
        <time>2021-09-11T10:44:34.244Z</time>
      </trkpt>
      <trkpt lat="45.90188" lon="6.03329">
        <ele>496</ele>
        <time>2021-09-11T10:44:35.244Z</time>
      </trkpt>
      <trkpt lat="45.90188" lon="6.03327">
        <ele>496</ele>
        <time>2021-09-11T10:44:36.243Z</time>
      </trkpt>
      <trkpt lat="45.90187" lon="6.03324">
        <ele>496</ele>
        <time>2021-09-11T10:44:37.244Z</time>
      </trkpt>
      <trkpt lat="45.90188" lon="6.03322">
        <ele>496</ele>
        <time>2021-09-11T10:44:38.244Z</time>
      </trkpt>
      <trkpt lat="45.90188" lon="6.03319">
        <ele>496</ele>
        <time>2021-09-11T10:44:39.244Z</time>
      </trkpt>
      <trkpt lat="45.90188" lon="6.03317">
        <ele>495</ele>
        <time>2021-09-11T10:44:40.244Z</time>
      </trkpt>
      <trkpt lat="45.90188" lon="6.03314">
        <ele>495</ele>
        <time>2021-09-11T10:44:41.243Z</time>
      </trkpt>
      <trkpt lat="45.90189" lon="6.03312">
        <ele>495</ele>
        <time>2021-09-11T10:44:42.243Z</time>
      </trkpt>
      <trkpt lat="45.90189" lon="6.03309">
        <ele>495</ele>
        <time>2021-09-11T10:44:43.244Z</time>
      </trkpt>
      <trkpt lat="45.90189" lon="6.03307">
        <ele>495</ele>
        <time>2021-09-11T10:44:44.243Z</time>
      </trkpt>
      <trkpt lat="45.90189" lon="6.03304">
        <ele>495</ele>
        <time>2021-09-11T10:44:45.243Z</time>
      </trkpt>
      <trkpt lat="45.90189" lon="6.03302">
        <ele>496</ele>
        <time>2021-09-11T10:44:46.244Z</time>
      </trkpt>
      <trkpt lat="45.90189" lon="6.03299">
        <ele>496</ele>
        <time>2021-09-11T10:44:47.243Z</time>
      </trkpt>
      <trkpt lat="45.90189" lon="6.03297">
        <ele>496</ele>
        <time>2021-09-11T10:44:48.244Z</time>
      </trkpt>
      <trkpt lat="45.90189" lon="6.03294">
        <ele>497</ele>
        <time>2021-09-11T10:44:49.243Z</time>
      </trkpt>
      <trkpt lat="45.90189" lon="6.03291">
        <ele>497</ele>
        <time>2021-09-11T10:44:50.244Z</time>
      </trkpt>
      <trkpt lat="45.90189" lon="6.03289">
        <ele>498</ele>
        <time>2021-09-11T10:44:51.244Z</time>
      </trkpt>
      <trkpt lat="45.90189" lon="6.03286">
        <ele>498</ele>
        <time>2021-09-11T10:44:52.244Z</time>
      </trkpt>
      <trkpt lat="45.90189" lon="6.03284">
        <ele>499</ele>
        <time>2021-09-11T10:44:53.243Z</time>
      </trkpt>
      <trkpt lat="45.90189" lon="6.03281">
        <ele>499</ele>
        <time>2021-09-11T10:44:54.244Z</time>
      </trkpt>
      <trkpt lat="45.90189" lon="6.03278">
        <ele>500</ele>
        <time>2021-09-11T10:44:55.244Z</time>
      </trkpt>
      <trkpt lat="45.90189" lon="6.03275">
        <ele>500</ele>
        <time>2021-09-11T10:44:56.244Z</time>
      </trkpt>
      <trkpt lat="45.90189" lon="6.03273">
        <ele>500</ele>
        <time>2021-09-11T10:44:57.244Z</time>
      </trkpt>
      <trkpt lat="45.90189" lon="6.0327">
        <ele>500</ele>
        <time>2021-09-11T10:44:58.243Z</time>
      </trkpt>
      <trkpt lat="45.90189" lon="6.03268">
        <ele>500</ele>
        <time>2021-09-11T10:44:59.244Z</time>
      </trkpt>
      <trkpt lat="45.90189" lon="6.03266">
        <ele>501</ele>
        <time>2021-09-11T10:45:00.244Z</time>
      </trkpt>
      <trkpt lat="45.90189" lon="6.03263">
        <ele>501</ele>
        <time>2021-09-11T10:45:01.243Z</time>
      </trkpt>
      <trkpt lat="45.90189" lon="6.03261">
        <ele>501</ele>
        <time>2021-09-11T10:45:02.243Z</time>
      </trkpt>
      <trkpt lat="45.90189" lon="6.03259">
        <ele>501</ele>
        <time>2021-09-11T10:45:03.244Z</time>
      </trkpt>
      <trkpt lat="45.90189" lon="6.03256">
        <ele>502</ele>
        <time>2021-09-11T10:45:04.244Z</time>
      </trkpt>
      <trkpt lat="45.90189" lon="6.03253">
        <ele>502</ele>
        <time>2021-09-11T10:45:05.244Z</time>
      </trkpt>
      <trkpt lat="45.90189" lon="6.03251">
        <ele>502</ele>
        <time>2021-09-11T10:45:06.244Z</time>
      </trkpt>
      <trkpt lat="45.9019" lon="6.03248">
        <ele>502</ele>
        <time>2021-09-11T10:45:07.244Z</time>
      </trkpt>
      <trkpt lat="45.9019" lon="6.03245">
        <ele>503</ele>
        <time>2021-09-11T10:45:08.244Z</time>
      </trkpt>
      <trkpt lat="45.9019" lon="6.03243">
        <ele>503</ele>
        <time>2021-09-11T10:45:09.244Z</time>
      </trkpt>
      <trkpt lat="45.9019" lon="6.0324">
        <ele>503</ele>
        <time>2021-09-11T10:45:10.244Z</time>
      </trkpt>
      <trkpt lat="45.9019" lon="6.03237">
        <ele>503</ele>
        <time>2021-09-11T10:45:11.243Z</time>
      </trkpt>
      <trkpt lat="45.9019" lon="6.03235">
        <ele>503</ele>
        <time>2021-09-11T10:45:12.243Z</time>
      </trkpt>
      <trkpt lat="45.9019" lon="6.03232">
        <ele>503</ele>
        <time>2021-09-11T10:45:13.243Z</time>
      </trkpt>
      <trkpt lat="45.9019" lon="6.0323">
        <ele>503</ele>
        <time>2021-09-11T10:45:14.244Z</time>
      </trkpt>
      <trkpt lat="45.9019" lon="6.03227">
        <ele>502</ele>
        <time>2021-09-11T10:45:15.244Z</time>
      </trkpt>
      <trkpt lat="45.9019" lon="6.03225">
        <ele>503</ele>
        <time>2021-09-11T10:45:16.243Z</time>
      </trkpt>
      <trkpt lat="45.9019" lon="6.03221">
        <ele>503</ele>
        <time>2021-09-11T10:45:17.244Z</time>
      </trkpt>
      <trkpt lat="45.9019" lon="6.03219">
        <ele>503</ele>
        <time>2021-09-11T10:45:18.244Z</time>
      </trkpt>
      <trkpt lat="45.9019" lon="6.03216">
        <ele>503</ele>
        <time>2021-09-11T10:45:19.244Z</time>
      </trkpt>
      <trkpt lat="45.9019" lon="6.03213">
        <ele>503</ele>
        <time>2021-09-11T10:45:20.244Z</time>
      </trkpt>
      <trkpt lat="45.9019" lon="6.0321">
        <ele>503</ele>
        <time>2021-09-11T10:45:21.244Z</time>
      </trkpt>
      <trkpt lat="45.9019" lon="6.03208">
        <ele>503</ele>
        <time>2021-09-11T10:45:22.244Z</time>
      </trkpt>
      <trkpt lat="45.9019" lon="6.03206">
        <ele>503</ele>
        <time>2021-09-11T10:45:23.244Z</time>
      </trkpt>
      <trkpt lat="45.9019" lon="6.03202">
        <ele>503</ele>
        <time>2021-09-11T10:45:24.244Z</time>
      </trkpt>
      <trkpt lat="45.9019" lon="6.03201">
        <ele>503</ele>
        <time>2021-09-11T10:45:25.244Z</time>
      </trkpt>
      <trkpt lat="45.9019" lon="6.03198">
        <ele>503</ele>
        <time>2021-09-11T10:45:26.244Z</time>
      </trkpt>
      <trkpt lat="45.9019" lon="6.03195">
        <ele>504</ele>
        <time>2021-09-11T10:45:27.244Z</time>
      </trkpt>
      <trkpt lat="45.90191" lon="6.03193">
        <ele>504</ele>
        <time>2021-09-11T10:45:28.244Z</time>
      </trkpt>
      <trkpt lat="45.90191" lon="6.03189">
        <ele>504</ele>
        <time>2021-09-11T10:45:29.244Z</time>
      </trkpt>
      <trkpt lat="45.90191" lon="6.03188">
        <ele>504</ele>
        <time>2021-09-11T10:45:30.244Z</time>
      </trkpt>
      <trkpt lat="45.90191" lon="6.03185">
        <ele>504</ele>
        <time>2021-09-11T10:45:31.244Z</time>
      </trkpt>
      <trkpt lat="45.90191" lon="6.03182">
        <ele>504</ele>
        <time>2021-09-11T10:45:32.244Z</time>
      </trkpt>
      <trkpt lat="45.90191" lon="6.03179">
        <ele>504</ele>
        <time>2021-09-11T10:45:33.244Z</time>
      </trkpt>
      <trkpt lat="45.90191" lon="6.03177">
        <ele>504</ele>
        <time>2021-09-11T10:45:34.244Z</time>
      </trkpt>
      <trkpt lat="45.90191" lon="6.03174">
        <ele>505</ele>
        <time>2021-09-11T10:45:35.244Z</time>
      </trkpt>
      <trkpt lat="45.90191" lon="6.03171">
        <ele>506</ele>
        <time>2021-09-11T10:45:36.244Z</time>
      </trkpt>
      <trkpt lat="45.90191" lon="6.03168">
        <ele>506</ele>
        <time>2021-09-11T10:45:37.244Z</time>
      </trkpt>
      <trkpt lat="45.90191" lon="6.03166">
        <ele>506</ele>
        <time>2021-09-11T10:45:38.243Z</time>
      </trkpt>
      <trkpt lat="45.90192" lon="6.03162">
        <ele>507</ele>
        <time>2021-09-11T10:45:39.243Z</time>
      </trkpt>
      <trkpt lat="45.90192" lon="6.0316">
        <ele>508</ele>
        <time>2021-09-11T10:45:40.244Z</time>
      </trkpt>
      <trkpt lat="45.90192" lon="6.03157">
        <ele>508</ele>
        <time>2021-09-11T10:45:41.244Z</time>
      </trkpt>
      <trkpt lat="45.90192" lon="6.03155">
        <ele>509</ele>
        <time>2021-09-11T10:45:42.244Z</time>
      </trkpt>
      <trkpt lat="45.90192" lon="6.03152">
        <ele>509</ele>
        <time>2021-09-11T10:45:43.244Z</time>
      </trkpt>
      <trkpt lat="45.90193" lon="6.03149">
        <ele>509</ele>
        <time>2021-09-11T10:45:44.244Z</time>
      </trkpt>
      <trkpt lat="45.90193" lon="6.03147">
        <ele>510</ele>
        <time>2021-09-11T10:45:45.244Z</time>
      </trkpt>
      <trkpt lat="45.90193" lon="6.03144">
        <ele>510</ele>
        <time>2021-09-11T10:45:46.243Z</time>
      </trkpt>
      <trkpt lat="45.90194" lon="6.03141">
        <ele>510</ele>
        <time>2021-09-11T10:45:47.244Z</time>
      </trkpt>
      <trkpt lat="45.90194" lon="6.03139">
        <ele>509</ele>
        <time>2021-09-11T10:45:48.244Z</time>
      </trkpt>
      <trkpt lat="45.90195" lon="6.03136">
        <ele>509</ele>
        <time>2021-09-11T10:45:49.244Z</time>
      </trkpt>
      <trkpt lat="45.90195" lon="6.03133">
        <ele>509</ele>
        <time>2021-09-11T10:45:50.244Z</time>
      </trkpt>
      <trkpt lat="45.90196" lon="6.03131">
        <ele>509</ele>
        <time>2021-09-11T10:45:51.244Z</time>
      </trkpt>
      <trkpt lat="45.90197" lon="6.03128">
        <ele>509</ele>
        <time>2021-09-11T10:45:52.243Z</time>
      </trkpt>
      <trkpt lat="45.90197" lon="6.03126">
        <ele>510</ele>
        <time>2021-09-11T10:45:53.244Z</time>
      </trkpt>
      <trkpt lat="45.90198" lon="6.03123">
        <ele>510</ele>
        <time>2021-09-11T10:45:54.244Z</time>
      </trkpt>
      <trkpt lat="45.90199" lon="6.03121">
        <ele>510</ele>
        <time>2021-09-11T10:45:55.243Z</time>
      </trkpt>
      <trkpt lat="45.902" lon="6.03118">
        <ele>510</ele>
        <time>2021-09-11T10:45:56.244Z</time>
      </trkpt>
      <trkpt lat="45.90201" lon="6.03116">
        <ele>510</ele>
        <time>2021-09-11T10:45:57.243Z</time>
      </trkpt>
      <trkpt lat="45.90203" lon="6.03113">
        <ele>510</ele>
        <time>2021-09-11T10:45:58.244Z</time>
      </trkpt>
      <trkpt lat="45.90204" lon="6.03111">
        <ele>510</ele>
        <time>2021-09-11T10:45:59.244Z</time>
      </trkpt>
      <trkpt lat="45.90205" lon="6.0311">
        <ele>510</ele>
        <time>2021-09-11T10:46:00.244Z</time>
      </trkpt>
      <trkpt lat="45.90207" lon="6.03108">
        <ele>510</ele>
        <time>2021-09-11T10:46:01.243Z</time>
      </trkpt>
      <trkpt lat="45.90208" lon="6.03106">
        <ele>510</ele>
        <time>2021-09-11T10:46:02.244Z</time>
      </trkpt>
      <trkpt lat="45.9021" lon="6.03104">
        <ele>510</ele>
        <time>2021-09-11T10:46:03.243Z</time>
      </trkpt>
      <trkpt lat="45.90212" lon="6.03102">
        <ele>510</ele>
        <time>2021-09-11T10:46:04.244Z</time>
      </trkpt>
      <trkpt lat="45.90213" lon="6.03101">
        <ele>511</ele>
        <time>2021-09-11T10:46:05.244Z</time>
      </trkpt>
      <trkpt lat="45.90215" lon="6.031">
        <ele>511</ele>
        <time>2021-09-11T10:46:06.244Z</time>
      </trkpt>
      <trkpt lat="45.90217" lon="6.03098">
        <ele>511</ele>
        <time>2021-09-11T10:46:07.244Z</time>
      </trkpt>
      <trkpt lat="45.90219" lon="6.03097">
        <ele>511</ele>
        <time>2021-09-11T10:46:08.244Z</time>
      </trkpt>
      <trkpt lat="45.9022" lon="6.03096">
        <ele>512</ele>
        <time>2021-09-11T10:46:09.244Z</time>
      </trkpt>
      <trkpt lat="45.90222" lon="6.03095">
        <ele>512</ele>
        <time>2021-09-11T10:46:10.244Z</time>
      </trkpt>
      <trkpt lat="45.90224" lon="6.03094">
        <ele>512</ele>
        <time>2021-09-11T10:46:11.244Z</time>
      </trkpt>
      <trkpt lat="45.90225" lon="6.03093">
        <ele>512</ele>
        <time>2021-09-11T10:46:12.243Z</time>
      </trkpt>
      <trkpt lat="45.90227" lon="6.03092">
        <ele>512</ele>
        <time>2021-09-11T10:46:13.244Z</time>
      </trkpt>
      <trkpt lat="45.90229" lon="6.03091">
        <ele>512</ele>
        <time>2021-09-11T10:46:14.243Z</time>
      </trkpt>
      <trkpt lat="45.90231" lon="6.0309">
        <ele>512</ele>
        <time>2021-09-11T10:46:15.244Z</time>
      </trkpt>
      <trkpt lat="45.90233" lon="6.03089">
        <ele>512</ele>
        <time>2021-09-11T10:46:16.244Z</time>
      </trkpt>
      <trkpt lat="45.90234" lon="6.03089">
        <ele>512</ele>
        <time>2021-09-11T10:46:17.244Z</time>
      </trkpt>
      <trkpt lat="45.90236" lon="6.03089">
        <ele>512</ele>
        <time>2021-09-11T10:46:18.244Z</time>
      </trkpt>
      <trkpt lat="45.90238" lon="6.03088">
        <ele>512</ele>
        <time>2021-09-11T10:46:19.243Z</time>
      </trkpt>
      <trkpt lat="45.9024" lon="6.03088">
        <ele>512</ele>
        <time>2021-09-11T10:46:20.244Z</time>
      </trkpt>
      <trkpt lat="45.90242" lon="6.03087">
        <ele>512</ele>
        <time>2021-09-11T10:46:21.244Z</time>
      </trkpt>
      <trkpt lat="45.90243" lon="6.03087">
        <ele>512</ele>
        <time>2021-09-11T10:46:22.244Z</time>
      </trkpt>
      <trkpt lat="45.90245" lon="6.03085">
        <ele>512</ele>
        <time>2021-09-11T10:46:23.244Z</time>
      </trkpt>
      <trkpt lat="45.90246" lon="6.03084">
        <ele>513</ele>
        <time>2021-09-11T10:46:24.243Z</time>
      </trkpt>
      <trkpt lat="45.90247" lon="6.03083">
        <ele>513</ele>
        <time>2021-09-11T10:46:25.244Z</time>
      </trkpt>
      <trkpt lat="45.90248" lon="6.03081">
        <ele>513</ele>
        <time>2021-09-11T10:46:26.244Z</time>
      </trkpt>
      <trkpt lat="45.90249" lon="6.0308">
        <ele>513</ele>
        <time>2021-09-11T10:46:27.244Z</time>
      </trkpt>
      <trkpt lat="45.9025" lon="6.03079">
        <ele>514</ele>
        <time>2021-09-11T10:46:28.244Z</time>
      </trkpt>
      <trkpt lat="45.90251" lon="6.03078">
        <ele>514</ele>
        <time>2021-09-11T10:46:29.244Z</time>
      </trkpt>
      <trkpt lat="45.90251" lon="6.03077">
        <ele>514</ele>
        <time>2021-09-11T10:46:30.244Z</time>
      </trkpt>
      <trkpt lat="45.90251" lon="6.03077">
        <ele>515</ele>
        <time>2021-09-11T10:46:31.243Z</time>
      </trkpt>
      <trkpt lat="45.90251" lon="6.03077">
        <ele>515</ele>
        <time>2021-09-11T10:46:32.243Z</time>
      </trkpt>
      <trkpt lat="45.90253" lon="6.03085">
        <ele>525</ele>
        <time>2021-09-11T10:46:33.244Z</time>
      </trkpt>
      <trkpt lat="45.90253" lon="6.03087">
        <ele>524</ele>
        <time>2021-09-11T10:46:34.243Z</time>
      </trkpt>
      <trkpt lat="45.90254" lon="6.03091">
        <ele>524</ele>
        <time>2021-09-11T10:46:35.243Z</time>
      </trkpt>
      <trkpt lat="45.90255" lon="6.03095">
        <ele>524</ele>
        <time>2021-09-11T10:46:36.244Z</time>
      </trkpt>
      <trkpt lat="45.90256" lon="6.03098">
        <ele>524</ele>
        <time>2021-09-11T10:46:37.244Z</time>
      </trkpt>
      <trkpt lat="45.90256" lon="6.03101">
        <ele>524</ele>
        <time>2021-09-11T10:46:38.244Z</time>
      </trkpt>
      <trkpt lat="45.90257" lon="6.03104">
        <ele>524</ele>
        <time>2021-09-11T10:46:39.244Z</time>
      </trkpt>
      <trkpt lat="45.90258" lon="6.03107">
        <ele>523</ele>
        <time>2021-09-11T10:46:40.244Z</time>
      </trkpt>
      <trkpt lat="45.90259" lon="6.0311">
        <ele>523</ele>
        <time>2021-09-11T10:46:41.244Z</time>
      </trkpt>
      <trkpt lat="45.90261" lon="6.03114">
        <ele>523</ele>
        <time>2021-09-11T10:46:42.244Z</time>
      </trkpt>
      <trkpt lat="45.90262" lon="6.03117">
        <ele>522</ele>
        <time>2021-09-11T10:46:43.244Z</time>
      </trkpt>
      <trkpt lat="45.90263" lon="6.0312">
        <ele>521</ele>
        <time>2021-09-11T10:46:44.244Z</time>
      </trkpt>
      <trkpt lat="45.90264" lon="6.03123">
        <ele>521</ele>
        <time>2021-09-11T10:46:45.244Z</time>
      </trkpt>
      <trkpt lat="45.90266" lon="6.03126">
        <ele>520</ele>
        <time>2021-09-11T10:46:46.244Z</time>
      </trkpt>
      <trkpt lat="45.90267" lon="6.03129">
        <ele>520</ele>
        <time>2021-09-11T10:46:47.244Z</time>
      </trkpt>
      <trkpt lat="45.90268" lon="6.03132">
        <ele>520</ele>
        <time>2021-09-11T10:46:48.243Z</time>
      </trkpt>
      <trkpt lat="45.9027" lon="6.03135">
        <ele>520</ele>
        <time>2021-09-11T10:46:49.244Z</time>
      </trkpt>
      <trkpt lat="45.90271" lon="6.03138">
        <ele>520</ele>
        <time>2021-09-11T10:46:50.244Z</time>
      </trkpt>
      <trkpt lat="45.90273" lon="6.03141">
        <ele>520</ele>
        <time>2021-09-11T10:46:51.243Z</time>
      </trkpt>
      <trkpt lat="45.90274" lon="6.03145">
        <ele>520</ele>
        <time>2021-09-11T10:46:52.244Z</time>
      </trkpt>
      <trkpt lat="45.90276" lon="6.03148">
        <ele>519</ele>
        <time>2021-09-11T10:46:53.244Z</time>
      </trkpt>
      <trkpt lat="45.90277" lon="6.03151">
        <ele>520</ele>
        <time>2021-09-11T10:46:54.244Z</time>
      </trkpt>
      <trkpt lat="45.90279" lon="6.03153">
        <ele>519</ele>
        <time>2021-09-11T10:46:55.243Z</time>
      </trkpt>
      <trkpt lat="45.9028" lon="6.03156">
        <ele>519</ele>
        <time>2021-09-11T10:46:56.243Z</time>
      </trkpt>
      <trkpt lat="45.90282" lon="6.03159">
        <ele>519</ele>
        <time>2021-09-11T10:46:57.243Z</time>
      </trkpt>
      <trkpt lat="45.90284" lon="6.03161">
        <ele>520</ele>
        <time>2021-09-11T10:46:58.244Z</time>
      </trkpt>
      <trkpt lat="45.90285" lon="6.03164">
        <ele>520</ele>
        <time>2021-09-11T10:46:59.244Z</time>
      </trkpt>
      <trkpt lat="45.90287" lon="6.03166">
        <ele>520</ele>
        <time>2021-09-11T10:47:00.244Z</time>
      </trkpt>
      <trkpt lat="45.90289" lon="6.03169">
        <ele>521</ele>
        <time>2021-09-11T10:47:01.244Z</time>
      </trkpt>
      <trkpt lat="45.9029" lon="6.03172">
        <ele>521</ele>
        <time>2021-09-11T10:47:02.244Z</time>
      </trkpt>
      <trkpt lat="45.90292" lon="6.03174">
        <ele>521</ele>
        <time>2021-09-11T10:47:03.244Z</time>
      </trkpt>
      <trkpt lat="45.90294" lon="6.03176">
        <ele>521</ele>
        <time>2021-09-11T10:47:04.244Z</time>
      </trkpt>
      <trkpt lat="45.90296" lon="6.03178">
        <ele>520</ele>
        <time>2021-09-11T10:47:05.244Z</time>
      </trkpt>
      <trkpt lat="45.90297" lon="6.0318">
        <ele>520</ele>
        <time>2021-09-11T10:47:06.244Z</time>
      </trkpt>
      <trkpt lat="45.90299" lon="6.03182">
        <ele>520</ele>
        <time>2021-09-11T10:47:07.244Z</time>
      </trkpt>
      <trkpt lat="45.90301" lon="6.03184">
        <ele>520</ele>
        <time>2021-09-11T10:47:08.244Z</time>
      </trkpt>
      <trkpt lat="45.90303" lon="6.03186">
        <ele>519</ele>
        <time>2021-09-11T10:47:09.244Z</time>
      </trkpt>
      <trkpt lat="45.90305" lon="6.03189">
        <ele>519</ele>
        <time>2021-09-11T10:47:10.243Z</time>
      </trkpt>
      <trkpt lat="45.90308" lon="6.03191">
        <ele>519</ele>
        <time>2021-09-11T10:47:11.243Z</time>
      </trkpt>
      <trkpt lat="45.9031" lon="6.03193">
        <ele>519</ele>
        <time>2021-09-11T10:47:12.244Z</time>
      </trkpt>
      <trkpt lat="45.90311" lon="6.03195">
        <ele>519</ele>
        <time>2021-09-11T10:47:13.243Z</time>
      </trkpt>
      <trkpt lat="45.90313" lon="6.03197">
        <ele>519</ele>
        <time>2021-09-11T10:47:14.243Z</time>
      </trkpt>
      <trkpt lat="45.90315" lon="6.03199">
        <ele>519</ele>
        <time>2021-09-11T10:47:15.244Z</time>
      </trkpt>
      <trkpt lat="45.90316" lon="6.03201">
        <ele>519</ele>
        <time>2021-09-11T10:47:16.244Z</time>
      </trkpt>
      <trkpt lat="45.90318" lon="6.03203">
        <ele>520</ele>
        <time>2021-09-11T10:47:17.243Z</time>
      </trkpt>
      <trkpt lat="45.9032" lon="6.03205">
        <ele>520</ele>
        <time>2021-09-11T10:47:18.243Z</time>
      </trkpt>
      <trkpt lat="45.90322" lon="6.03206">
        <ele>521</ele>
        <time>2021-09-11T10:47:19.244Z</time>
      </trkpt>
      <trkpt lat="45.90324" lon="6.03208">
        <ele>521</ele>
        <time>2021-09-11T10:47:20.244Z</time>
      </trkpt>
      <trkpt lat="45.90325" lon="6.03209">
        <ele>521</ele>
        <time>2021-09-11T10:47:21.243Z</time>
      </trkpt>
      <trkpt lat="45.90327" lon="6.0321">
        <ele>520</ele>
        <time>2021-09-11T10:47:22.244Z</time>
      </trkpt>
      <trkpt lat="45.90329" lon="6.03211">
        <ele>520</ele>
        <time>2021-09-11T10:47:23.244Z</time>
      </trkpt>
      <trkpt lat="45.90331" lon="6.03212">
        <ele>520</ele>
        <time>2021-09-11T10:47:24.243Z</time>
      </trkpt>
      <trkpt lat="45.90333" lon="6.03212">
        <ele>520</ele>
        <time>2021-09-11T10:47:25.244Z</time>
      </trkpt>
      <trkpt lat="45.90335" lon="6.03213">
        <ele>520</ele>
        <time>2021-09-11T10:47:26.244Z</time>
      </trkpt>
      <trkpt lat="45.90337" lon="6.03213">
        <ele>521</ele>
        <time>2021-09-11T10:47:27.244Z</time>
      </trkpt>
      <trkpt lat="45.90339" lon="6.03213">
        <ele>521</ele>
        <time>2021-09-11T10:47:28.244Z</time>
      </trkpt>
      <trkpt lat="45.90341" lon="6.03212">
        <ele>521</ele>
        <time>2021-09-11T10:47:29.243Z</time>
      </trkpt>
      <trkpt lat="45.90342" lon="6.03212">
        <ele>521</ele>
        <time>2021-09-11T10:47:30.244Z</time>
      </trkpt>
      <trkpt lat="45.90344" lon="6.03211">
        <ele>521</ele>
        <time>2021-09-11T10:47:31.243Z</time>
      </trkpt>
      <trkpt lat="45.90346" lon="6.0321">
        <ele>522</ele>
        <time>2021-09-11T10:47:32.244Z</time>
      </trkpt>
      <trkpt lat="45.90347" lon="6.03209">
        <ele>522</ele>
        <time>2021-09-11T10:47:33.244Z</time>
      </trkpt>
      <trkpt lat="45.90348" lon="6.03207">
        <ele>522</ele>
        <time>2021-09-11T10:47:34.243Z</time>
      </trkpt>
      <trkpt lat="45.90348" lon="6.03205">
        <ele>522</ele>
        <time>2021-09-11T10:47:35.244Z</time>
      </trkpt>
      <trkpt lat="45.90347" lon="6.03204">
        <ele>523</ele>
        <time>2021-09-11T10:47:36.244Z</time>
      </trkpt>
      <trkpt lat="45.90346" lon="6.03202">
        <ele>523</ele>
        <time>2021-09-11T10:47:37.244Z</time>
      </trkpt>
      <trkpt lat="45.90345" lon="6.03201">
        <ele>524</ele>
        <time>2021-09-11T10:47:38.244Z</time>
      </trkpt>
      <trkpt lat="45.90343" lon="6.032">
        <ele>524</ele>
        <time>2021-09-11T10:47:39.244Z</time>
      </trkpt>
      <trkpt lat="45.90342" lon="6.03199">
        <ele>525</ele>
        <time>2021-09-11T10:47:40.243Z</time>
      </trkpt>
      <trkpt lat="45.90341" lon="6.03198">
        <ele>525</ele>
        <time>2021-09-11T10:47:41.244Z</time>
      </trkpt>
      <trkpt lat="45.9034" lon="6.03197">
        <ele>525</ele>
        <time>2021-09-11T10:47:42.244Z</time>
      </trkpt>
      <trkpt lat="45.90339" lon="6.03196">
        <ele>526</ele>
        <time>2021-09-11T10:47:43.243Z</time>
      </trkpt>
      <trkpt lat="45.90339" lon="6.03196">
        <ele>527</ele>
        <time>2021-09-11T10:47:44.244Z</time>
      </trkpt>
      <trkpt lat="45.90339" lon="6.03196">
        <ele>527</ele>
        <time>2021-09-11T10:47:45.244Z</time>
      </trkpt>
      <trkpt lat="45.9034" lon="6.03196">
        <ele>535</ele>
        <time>2021-09-11T10:47:46.245Z</time>
      </trkpt>
      <trkpt lat="45.90342" lon="6.03197">
        <ele>534</ele>
        <time>2021-09-11T10:47:47.244Z</time>
      </trkpt>
      <trkpt lat="45.90344" lon="6.03199">
        <ele>533</ele>
        <time>2021-09-11T10:47:48.245Z</time>
      </trkpt>
      <trkpt lat="45.90345" lon="6.03201">
        <ele>533</ele>
        <time>2021-09-11T10:47:49.244Z</time>
      </trkpt>
      <trkpt lat="45.90347" lon="6.03203">
        <ele>532</ele>
        <time>2021-09-11T10:47:50.245Z</time>
      </trkpt>
      <trkpt lat="45.90349" lon="6.03204">
        <ele>532</ele>
        <time>2021-09-11T10:47:51.244Z</time>
      </trkpt>
      <trkpt lat="45.90352" lon="6.03206">
        <ele>531</ele>
        <time>2021-09-11T10:47:52.245Z</time>
      </trkpt>
      <trkpt lat="45.90354" lon="6.03206">
        <ele>531</ele>
        <time>2021-09-11T10:47:53.244Z</time>
      </trkpt>
      <trkpt lat="45.90355" lon="6.03206">
        <ele>530</ele>
        <time>2021-09-11T10:47:54.245Z</time>
      </trkpt>
      <trkpt lat="45.90358" lon="6.03206">
        <ele>530</ele>
        <time>2021-09-11T10:47:55.244Z</time>
      </trkpt>
      <trkpt lat="45.9036" lon="6.03207">
        <ele>529</ele>
        <time>2021-09-11T10:47:56.244Z</time>
      </trkpt>
      <trkpt lat="45.90362" lon="6.03207">
        <ele>529</ele>
        <time>2021-09-11T10:47:57.245Z</time>
      </trkpt>
      <trkpt lat="45.90364" lon="6.03207">
        <ele>528</ele>
        <time>2021-09-11T10:47:58.244Z</time>
      </trkpt>
      <trkpt lat="45.90366" lon="6.03207">
        <ele>528</ele>
        <time>2021-09-11T10:47:59.245Z</time>
      </trkpt>
      <trkpt lat="45.90368" lon="6.03207">
        <ele>528</ele>
        <time>2021-09-11T10:48:00.245Z</time>
      </trkpt>
      <trkpt lat="45.90369" lon="6.03207">
        <ele>528</ele>
        <time>2021-09-11T10:48:01.245Z</time>
      </trkpt>
      <trkpt lat="45.90371" lon="6.03207">
        <ele>528</ele>
        <time>2021-09-11T10:48:02.244Z</time>
      </trkpt>
      <trkpt lat="45.90373" lon="6.03208">
        <ele>529</ele>
        <time>2021-09-11T10:48:03.245Z</time>
      </trkpt>
      <trkpt lat="45.90375" lon="6.03208">
        <ele>529</ele>
        <time>2021-09-11T10:48:04.245Z</time>
      </trkpt>
      <trkpt lat="45.90377" lon="6.03208">
        <ele>530</ele>
        <time>2021-09-11T10:48:05.245Z</time>
      </trkpt>
      <trkpt lat="45.90378" lon="6.03208">
        <ele>530</ele>
        <time>2021-09-11T10:48:06.245Z</time>
      </trkpt>
      <trkpt lat="45.9038" lon="6.03209">
        <ele>530</ele>
        <time>2021-09-11T10:48:07.245Z</time>
      </trkpt>
      <trkpt lat="45.90381" lon="6.03208">
        <ele>530</ele>
        <time>2021-09-11T10:48:08.244Z</time>
      </trkpt>
      <trkpt lat="45.90382" lon="6.03207">
        <ele>530</ele>
        <time>2021-09-11T10:48:09.245Z</time>
      </trkpt>
      <trkpt lat="45.90383" lon="6.03206">
        <ele>530</ele>
        <time>2021-09-11T10:48:10.245Z</time>
      </trkpt>
      <trkpt lat="45.90384" lon="6.03204">
        <ele>530</ele>
        <time>2021-09-11T10:48:11.245Z</time>
      </trkpt>
      <trkpt lat="45.90384" lon="6.03202">
        <ele>531</ele>
        <time>2021-09-11T10:48:12.244Z</time>
      </trkpt>
      <trkpt lat="45.90384" lon="6.032">
        <ele>532</ele>
        <time>2021-09-11T10:48:13.245Z</time>
      </trkpt>
      <trkpt lat="45.90383" lon="6.03198">
        <ele>532</ele>
        <time>2021-09-11T10:48:14.245Z</time>
      </trkpt>
      <trkpt lat="45.90383" lon="6.03196">
        <ele>532</ele>
        <time>2021-09-11T10:48:15.245Z</time>
      </trkpt>
      <trkpt lat="45.90383" lon="6.03194">
        <ele>533</ele>
        <time>2021-09-11T10:48:16.245Z</time>
      </trkpt>
      <trkpt lat="45.90383" lon="6.03192">
        <ele>533</ele>
        <time>2021-09-11T10:48:17.245Z</time>
      </trkpt>
      <trkpt lat="45.90383" lon="6.0319">
        <ele>533</ele>
        <time>2021-09-11T10:48:18.245Z</time>
      </trkpt>
      <trkpt lat="45.90383" lon="6.03189">
        <ele>533</ele>
        <time>2021-09-11T10:48:19.245Z</time>
      </trkpt>
      <trkpt lat="45.90383" lon="6.03187">
        <ele>533</ele>
        <time>2021-09-11T10:48:20.245Z</time>
      </trkpt>
      <trkpt lat="45.90383" lon="6.03187">
        <ele>533</ele>
        <time>2021-09-11T10:48:21.244Z</time>
      </trkpt>
      <trkpt lat="45.90383" lon="6.03187">
        <ele>533</ele>
        <time>2021-09-11T10:48:22.245Z</time>
      </trkpt>
      <trkpt lat="45.90377" lon="6.03192">
        <ele>544</ele>
        <time>2021-09-11T10:48:23.246Z</time>
      </trkpt>
      <trkpt lat="45.90375" lon="6.03194">
        <ele>544</ele>
        <time>2021-09-11T10:48:24.246Z</time>
      </trkpt>
      <trkpt lat="45.90372" lon="6.03197">
        <ele>544</ele>
        <time>2021-09-11T10:48:25.245Z</time>
      </trkpt>
      <trkpt lat="45.90369" lon="6.032">
        <ele>543</ele>
        <time>2021-09-11T10:48:26.246Z</time>
      </trkpt>
      <trkpt lat="45.90365" lon="6.03202">
        <ele>542</ele>
        <time>2021-09-11T10:48:27.246Z</time>
      </trkpt>
      <trkpt lat="45.90361" lon="6.03203">
        <ele>541</ele>
        <time>2021-09-11T10:48:28.246Z</time>
      </trkpt>
      <trkpt lat="45.90354" lon="6.03205">
        <ele>540</ele>
        <time>2021-09-11T10:48:29.246Z</time>
      </trkpt>
      <trkpt lat="45.90348" lon="6.03206">
        <ele>540</ele>
        <time>2021-09-11T10:48:30.246Z</time>
      </trkpt>
      <trkpt lat="45.90342" lon="6.03206">
        <ele>539</ele>
        <time>2021-09-11T10:48:31.246Z</time>
      </trkpt>
      <trkpt lat="45.90335" lon="6.03206">
        <ele>538</ele>
        <time>2021-09-11T10:48:32.245Z</time>
      </trkpt>
      <trkpt lat="45.90329" lon="6.03205">
        <ele>538</ele>
        <time>2021-09-11T10:48:33.245Z</time>
      </trkpt>
      <trkpt lat="45.90321" lon="6.03201">
        <ele>537</ele>
        <time>2021-09-11T10:48:34.246Z</time>
      </trkpt>
      <trkpt lat="45.90314" lon="6.03195">
        <ele>537</ele>
        <time>2021-09-11T10:48:35.246Z</time>
      </trkpt>
      <trkpt lat="45.90307" lon="6.0319">
        <ele>536</ele>
        <time>2021-09-11T10:48:36.246Z</time>
      </trkpt>
      <trkpt lat="45.90303" lon="6.03185">
        <ele>535</ele>
        <time>2021-09-11T10:48:37.246Z</time>
      </trkpt>
      <trkpt lat="45.90299" lon="6.03181">
        <ele>535</ele>
        <time>2021-09-11T10:48:38.246Z</time>
      </trkpt>
      <trkpt lat="45.90295" lon="6.03177">
        <ele>534</ele>
        <time>2021-09-11T10:48:39.246Z</time>
      </trkpt>
      <trkpt lat="45.90293" lon="6.03174">
        <ele>533</ele>
        <time>2021-09-11T10:48:40.245Z</time>
      </trkpt>
      <trkpt lat="45.90291" lon="6.03172">
        <ele>533</ele>
        <time>2021-09-11T10:48:41.245Z</time>
      </trkpt>
      <trkpt lat="45.9029" lon="6.03171">
        <ele>532</ele>
        <time>2021-09-11T10:48:42.246Z</time>
      </trkpt>
      <trkpt lat="45.90288" lon="6.03169">
        <ele>531</ele>
        <time>2021-09-11T10:48:43.246Z</time>
      </trkpt>
      <trkpt lat="45.90287" lon="6.03167">
        <ele>531</ele>
        <time>2021-09-11T10:48:44.246Z</time>
      </trkpt>
      <trkpt lat="45.90286" lon="6.03166">
        <ele>530</ele>
        <time>2021-09-11T10:48:45.246Z</time>
      </trkpt>
      <trkpt lat="45.90285" lon="6.03164">
        <ele>530</ele>
        <time>2021-09-11T10:48:46.246Z</time>
      </trkpt>
      <trkpt lat="45.90284" lon="6.03163">
        <ele>530</ele>
        <time>2021-09-11T10:48:47.246Z</time>
      </trkpt>
      <trkpt lat="45.90283" lon="6.03161">
        <ele>529</ele>
        <time>2021-09-11T10:48:48.246Z</time>
      </trkpt>
      <trkpt lat="45.90282" lon="6.03158">
        <ele>529</ele>
        <time>2021-09-11T10:48:49.245Z</time>
      </trkpt>
      <trkpt lat="45.90281" lon="6.03156">
        <ele>528</ele>
        <time>2021-09-11T10:48:50.246Z</time>
      </trkpt>
      <trkpt lat="45.9028" lon="6.03154">
        <ele>528</ele>
        <time>2021-09-11T10:48:51.246Z</time>
      </trkpt>
      <trkpt lat="45.90278" lon="6.03151">
        <ele>527</ele>
        <time>2021-09-11T10:48:52.246Z</time>
      </trkpt>
      <trkpt lat="45.90277" lon="6.03149">
        <ele>527</ele>
        <time>2021-09-11T10:48:53.246Z</time>
      </trkpt>
      <trkpt lat="45.90276" lon="6.03146">
        <ele>527</ele>
        <time>2021-09-11T10:48:54.246Z</time>
      </trkpt>
      <trkpt lat="45.90274" lon="6.03143">
        <ele>527</ele>
        <time>2021-09-11T10:48:55.246Z</time>
      </trkpt>
      <trkpt lat="45.90273" lon="6.03141">
        <ele>527</ele>
        <time>2021-09-11T10:48:56.245Z</time>
      </trkpt>
      <trkpt lat="45.90271" lon="6.03138">
        <ele>527</ele>
        <time>2021-09-11T10:48:57.246Z</time>
      </trkpt>
      <trkpt lat="45.90269" lon="6.03134">
        <ele>528</ele>
        <time>2021-09-11T10:48:58.246Z</time>
      </trkpt>
      <trkpt lat="45.90268" lon="6.03131">
        <ele>528</ele>
        <time>2021-09-11T10:48:59.246Z</time>
      </trkpt>
      <trkpt lat="45.90266" lon="6.03128">
        <ele>528</ele>
        <time>2021-09-11T10:49:00.246Z</time>
      </trkpt>
      <trkpt lat="45.90265" lon="6.03125">
        <ele>528</ele>
        <time>2021-09-11T10:49:01.246Z</time>
      </trkpt>
      <trkpt lat="45.90264" lon="6.03122">
        <ele>528</ele>
        <time>2021-09-11T10:49:02.245Z</time>
      </trkpt>
      <trkpt lat="45.90263" lon="6.03119">
        <ele>528</ele>
        <time>2021-09-11T10:49:03.245Z</time>
      </trkpt>
      <trkpt lat="45.90261" lon="6.03116">
        <ele>528</ele>
        <time>2021-09-11T10:49:04.245Z</time>
      </trkpt>
      <trkpt lat="45.9026" lon="6.03113">
        <ele>528</ele>
        <time>2021-09-11T10:49:05.246Z</time>
      </trkpt>
      <trkpt lat="45.90259" lon="6.0311">
        <ele>527</ele>
        <time>2021-09-11T10:49:06.245Z</time>
      </trkpt>
      <trkpt lat="45.90257" lon="6.03106">
        <ele>527</ele>
        <time>2021-09-11T10:49:07.246Z</time>
      </trkpt>
      <trkpt lat="45.90255" lon="6.03102">
        <ele>526</ele>
        <time>2021-09-11T10:49:08.246Z</time>
      </trkpt>
      <trkpt lat="45.90253" lon="6.03097">
        <ele>526</ele>
        <time>2021-09-11T10:49:09.246Z</time>
      </trkpt>
      <trkpt lat="45.90251" lon="6.03094">
        <ele>525</ele>
        <time>2021-09-11T10:49:10.246Z</time>
      </trkpt>
      <trkpt lat="45.90248" lon="6.0309">
        <ele>525</ele>
        <time>2021-09-11T10:49:11.246Z</time>
      </trkpt>
      <trkpt lat="45.90244" lon="6.03085">
        <ele>525</ele>
        <time>2021-09-11T10:49:12.245Z</time>
      </trkpt>
      <trkpt lat="45.9024" lon="6.03082">
        <ele>524</ele>
        <time>2021-09-11T10:49:13.246Z</time>
      </trkpt>
      <trkpt lat="45.90237" lon="6.03079">
        <ele>524</ele>
        <time>2021-09-11T10:49:14.246Z</time>
      </trkpt>
      <trkpt lat="45.90234" lon="6.03077">
        <ele>524</ele>
        <time>2021-09-11T10:49:15.246Z</time>
      </trkpt>
      <trkpt lat="45.9023" lon="6.03073">
        <ele>524</ele>
        <time>2021-09-11T10:49:16.245Z</time>
      </trkpt>
      <trkpt lat="45.90227" lon="6.03069">
        <ele>524</ele>
        <time>2021-09-11T10:49:17.246Z</time>
      </trkpt>
      <trkpt lat="45.90224" lon="6.03064">
        <ele>524</ele>
        <time>2021-09-11T10:49:18.246Z</time>
      </trkpt>
      <trkpt lat="45.90221" lon="6.03061">
        <ele>524</ele>
        <time>2021-09-11T10:49:19.245Z</time>
      </trkpt>
      <trkpt lat="45.90217" lon="6.03056">
        <ele>523</ele>
        <time>2021-09-11T10:49:20.246Z</time>
      </trkpt>
      <trkpt lat="45.90212" lon="6.03049">
        <ele>523</ele>
        <time>2021-09-11T10:49:21.246Z</time>
      </trkpt>
      <trkpt lat="45.90208" lon="6.03043">
        <ele>523</ele>
        <time>2021-09-11T10:49:22.246Z</time>
      </trkpt>
      <trkpt lat="45.90203" lon="6.03036">
        <ele>522</ele>
        <time>2021-09-11T10:49:23.246Z</time>
      </trkpt>
      <trkpt lat="45.90199" lon="6.0303">
        <ele>521</ele>
        <time>2021-09-11T10:49:24.245Z</time>
      </trkpt>
      <trkpt lat="45.90193" lon="6.03021">
        <ele>521</ele>
        <time>2021-09-11T10:49:25.245Z</time>
      </trkpt>
      <trkpt lat="45.90188" lon="6.03014">
        <ele>519</ele>
        <time>2021-09-11T10:49:26.246Z</time>
      </trkpt>
      <trkpt lat="45.90183" lon="6.03006">
        <ele>518</ele>
        <time>2021-09-11T10:49:27.246Z</time>
      </trkpt>
      <trkpt lat="45.90179" lon="6.02999">
        <ele>517</ele>
        <time>2021-09-11T10:49:28.246Z</time>
      </trkpt>
      <trkpt lat="45.90173" lon="6.02992">
        <ele>517</ele>
        <time>2021-09-11T10:49:29.245Z</time>
      </trkpt>
      <trkpt lat="45.90168" lon="6.02984">
        <ele>516</ele>
        <time>2021-09-11T10:49:30.246Z</time>
      </trkpt>
      <trkpt lat="45.90164" lon="6.02979">
        <ele>515</ele>
        <time>2021-09-11T10:49:31.245Z</time>
      </trkpt>
      <trkpt lat="45.90158" lon="6.02972">
        <ele>515</ele>
        <time>2021-09-11T10:49:32.245Z</time>
      </trkpt>
      <trkpt lat="45.90153" lon="6.02967">
        <ele>515</ele>
        <time>2021-09-11T10:49:33.246Z</time>
      </trkpt>
      <trkpt lat="45.90148" lon="6.0296">
        <ele>514</ele>
        <time>2021-09-11T10:49:34.246Z</time>
      </trkpt>
      <trkpt lat="45.90142" lon="6.02952">
        <ele>514</ele>
        <time>2021-09-11T10:49:35.246Z</time>
      </trkpt>
      <trkpt lat="45.90137" lon="6.02945">
        <ele>514</ele>
        <time>2021-09-11T10:49:36.246Z</time>
      </trkpt>
      <trkpt lat="45.90132" lon="6.02937">
        <ele>513</ele>
        <time>2021-09-11T10:49:37.245Z</time>
      </trkpt>
      <trkpt lat="45.90127" lon="6.02931">
        <ele>512</ele>
        <time>2021-09-11T10:49:38.246Z</time>
      </trkpt>
      <trkpt lat="45.90122" lon="6.02924">
        <ele>511</ele>
        <time>2021-09-11T10:49:39.246Z</time>
      </trkpt>
      <trkpt lat="45.90116" lon="6.02916">
        <ele>510</ele>
        <time>2021-09-11T10:49:40.246Z</time>
      </trkpt>
      <trkpt lat="45.9011" lon="6.0291">
        <ele>510</ele>
        <time>2021-09-11T10:49:41.246Z</time>
      </trkpt>
      <trkpt lat="45.90104" lon="6.02904">
        <ele>509</ele>
        <time>2021-09-11T10:49:42.246Z</time>
      </trkpt>
      <trkpt lat="45.90098" lon="6.02899">
        <ele>508</ele>
        <time>2021-09-11T10:49:43.246Z</time>
      </trkpt>
      <trkpt lat="45.9009" lon="6.02891">
        <ele>507</ele>
        <time>2021-09-11T10:49:44.246Z</time>
      </trkpt>
      <trkpt lat="45.90082" lon="6.02885">
        <ele>506</ele>
        <time>2021-09-11T10:49:45.245Z</time>
      </trkpt>
      <trkpt lat="45.90074" lon="6.02877">
        <ele>505</ele>
        <time>2021-09-11T10:49:46.246Z</time>
      </trkpt>
      <trkpt lat="45.90067" lon="6.02871">
        <ele>504</ele>
        <time>2021-09-11T10:49:47.246Z</time>
      </trkpt>
      <trkpt lat="45.90059" lon="6.02864">
        <ele>503</ele>
        <time>2021-09-11T10:49:48.246Z</time>
      </trkpt>
      <trkpt lat="45.90049" lon="6.02854">
        <ele>503</ele>
        <time>2021-09-11T10:49:49.246Z</time>
      </trkpt>
      <trkpt lat="45.90041" lon="6.02847">
        <ele>502</ele>
        <time>2021-09-11T10:49:50.246Z</time>
      </trkpt>
      <trkpt lat="45.90033" lon="6.0284">
        <ele>501</ele>
        <time>2021-09-11T10:49:51.246Z</time>
      </trkpt>
      <trkpt lat="45.90027" lon="6.02835">
        <ele>500</ele>
        <time>2021-09-11T10:49:52.245Z</time>
      </trkpt>
      <trkpt lat="45.90018" lon="6.02829">
        <ele>498</ele>
        <time>2021-09-11T10:49:53.245Z</time>
      </trkpt>
      <trkpt lat="45.90011" lon="6.02824">
        <ele>497</ele>
        <time>2021-09-11T10:49:54.246Z</time>
      </trkpt>
      <trkpt lat="45.90003" lon="6.02818">
        <ele>496</ele>
        <time>2021-09-11T10:49:55.245Z</time>
      </trkpt>
      <trkpt lat="45.89996" lon="6.02813">
        <ele>495</ele>
        <time>2021-09-11T10:49:56.246Z</time>
      </trkpt>
      <trkpt lat="45.8999" lon="6.02808">
        <ele>495</ele>
        <time>2021-09-11T10:49:57.246Z</time>
      </trkpt>
      <trkpt lat="45.89981" lon="6.02801">
        <ele>494</ele>
        <time>2021-09-11T10:49:58.246Z</time>
      </trkpt>
      <trkpt lat="45.89973" lon="6.02794">
        <ele>493</ele>
        <time>2021-09-11T10:49:59.245Z</time>
      </trkpt>
      <trkpt lat="45.89965" lon="6.02788">
        <ele>492</ele>
        <time>2021-09-11T10:50:00.246Z</time>
      </trkpt>
      <trkpt lat="45.89959" lon="6.02782">
        <ele>491</ele>
        <time>2021-09-11T10:50:01.246Z</time>
      </trkpt>
      <trkpt lat="45.89952" lon="6.02775">
        <ele>490</ele>
        <time>2021-09-11T10:50:02.246Z</time>
      </trkpt>
      <trkpt lat="45.89944" lon="6.02767">
        <ele>489</ele>
        <time>2021-09-11T10:50:03.246Z</time>
      </trkpt>
      <trkpt lat="45.89937" lon="6.02759">
        <ele>489</ele>
        <time>2021-09-11T10:50:04.246Z</time>
      </trkpt>
      <trkpt lat="45.8993" lon="6.02751">
        <ele>488</ele>
        <time>2021-09-11T10:50:05.246Z</time>
      </trkpt>
      <trkpt lat="45.89926" lon="6.02745">
        <ele>487</ele>
        <time>2021-09-11T10:50:06.245Z</time>
      </trkpt>
      <trkpt lat="45.89919" lon="6.02734">
        <ele>486</ele>
        <time>2021-09-11T10:50:07.245Z</time>
      </trkpt>
      <trkpt lat="45.89914" lon="6.02725">
        <ele>486</ele>
        <time>2021-09-11T10:50:08.246Z</time>
      </trkpt>
      <trkpt lat="45.8991" lon="6.02715">
        <ele>485</ele>
        <time>2021-09-11T10:50:09.246Z</time>
      </trkpt>
      <trkpt lat="45.89907" lon="6.02707">
        <ele>485</ele>
        <time>2021-09-11T10:50:10.246Z</time>
      </trkpt>
      <trkpt lat="45.89904" lon="6.02696">
        <ele>484</ele>
        <time>2021-09-11T10:50:11.246Z</time>
      </trkpt>
      <trkpt lat="45.899" lon="6.02683">
        <ele>483</ele>
        <time>2021-09-11T10:50:12.246Z</time>
      </trkpt>
      <trkpt lat="45.89898" lon="6.02674">
        <ele>482</ele>
        <time>2021-09-11T10:50:13.246Z</time>
      </trkpt>
      <trkpt lat="45.89894" lon="6.02661">
        <ele>481</ele>
        <time>2021-09-11T10:50:14.245Z</time>
      </trkpt>
      <trkpt lat="45.89892" lon="6.0265">
        <ele>480</ele>
        <time>2021-09-11T10:50:15.246Z</time>
      </trkpt>
      <trkpt lat="45.8989" lon="6.02641">
        <ele>479</ele>
        <time>2021-09-11T10:50:16.246Z</time>
      </trkpt>
      <trkpt lat="45.89889" lon="6.02632">
        <ele>478</ele>
        <time>2021-09-11T10:50:17.246Z</time>
      </trkpt>
      <trkpt lat="45.89888" lon="6.02623">
        <ele>478</ele>
        <time>2021-09-11T10:50:18.245Z</time>
      </trkpt>
      <trkpt lat="45.89887" lon="6.02615">
        <ele>477</ele>
        <time>2021-09-11T10:50:19.246Z</time>
      </trkpt>
      <trkpt lat="45.89888" lon="6.02609">
        <ele>477</ele>
        <time>2021-09-11T10:50:20.246Z</time>
      </trkpt>
      <trkpt lat="45.89889" lon="6.026">
        <ele>476</ele>
        <time>2021-09-11T10:50:21.245Z</time>
      </trkpt>
      <trkpt lat="45.89891" lon="6.02595">
        <ele>476</ele>
        <time>2021-09-11T10:50:22.245Z</time>
      </trkpt>
      <trkpt lat="45.89894" lon="6.0259">
        <ele>475</ele>
        <time>2021-09-11T10:50:23.246Z</time>
      </trkpt>
      <trkpt lat="45.89897" lon="6.02586">
        <ele>475</ele>
        <time>2021-09-11T10:50:24.246Z</time>
      </trkpt>
      <trkpt lat="45.89903" lon="6.02582">
        <ele>474</ele>
        <time>2021-09-11T10:50:25.246Z</time>
      </trkpt>
      <trkpt lat="45.89907" lon="6.0258">
        <ele>474</ele>
        <time>2021-09-11T10:50:26.246Z</time>
      </trkpt>
      <trkpt lat="45.89912" lon="6.02577">
        <ele>473</ele>
        <time>2021-09-11T10:50:27.246Z</time>
      </trkpt>
      <trkpt lat="45.89916" lon="6.02575">
        <ele>473</ele>
        <time>2021-09-11T10:50:28.246Z</time>
      </trkpt>
      <trkpt lat="45.89921" lon="6.02572">
        <ele>472</ele>
        <time>2021-09-11T10:50:29.245Z</time>
      </trkpt>
      <trkpt lat="45.89928" lon="6.02568">
        <ele>471</ele>
        <time>2021-09-11T10:50:30.245Z</time>
      </trkpt>
      <trkpt lat="45.89933" lon="6.02565">
        <ele>471</ele>
        <time>2021-09-11T10:50:31.245Z</time>
      </trkpt>
      <trkpt lat="45.89938" lon="6.02561">
        <ele>471</ele>
        <time>2021-09-11T10:50:32.246Z</time>
      </trkpt>
      <trkpt lat="45.89942" lon="6.02558">
        <ele>471</ele>
        <time>2021-09-11T10:50:33.246Z</time>
      </trkpt>
      <trkpt lat="45.89947" lon="6.02553">
        <ele>471</ele>
        <time>2021-09-11T10:50:34.246Z</time>
      </trkpt>
      <trkpt lat="45.89951" lon="6.02549">
        <ele>470</ele>
        <time>2021-09-11T10:50:35.246Z</time>
      </trkpt>
      <trkpt lat="45.89955" lon="6.02545">
        <ele>470</ele>
        <time>2021-09-11T10:50:36.245Z</time>
      </trkpt>
      <trkpt lat="45.89957" lon="6.02542">
        <ele>470</ele>
        <time>2021-09-11T10:50:37.246Z</time>
      </trkpt>
      <trkpt lat="45.8996" lon="6.02539">
        <ele>470</ele>
        <time>2021-09-11T10:50:38.245Z</time>
      </trkpt>
      <trkpt lat="45.89964" lon="6.02535">
        <ele>469</ele>
        <time>2021-09-11T10:50:39.246Z</time>
      </trkpt>
      <trkpt lat="45.89966" lon="6.02533">
        <ele>469</ele>
        <time>2021-09-11T10:50:40.246Z</time>
      </trkpt>
      <trkpt lat="45.89968" lon="6.02531">
        <ele>469</ele>
        <time>2021-09-11T10:50:41.246Z</time>
      </trkpt>
      <trkpt lat="45.8997" lon="6.02529">
        <ele>469</ele>
        <time>2021-09-11T10:50:42.246Z</time>
      </trkpt>
      <trkpt lat="45.89972" lon="6.02528">
        <ele>469</ele>
        <time>2021-09-11T10:50:43.246Z</time>
      </trkpt>
      <trkpt lat="45.89973" lon="6.02528">
        <ele>469</ele>
        <time>2021-09-11T10:50:44.246Z</time>
      </trkpt>
      <trkpt lat="45.89974" lon="6.02528">
        <ele>469</ele>
        <time>2021-09-11T10:50:45.246Z</time>
      </trkpt>
      <trkpt lat="45.89975" lon="6.02528">
        <ele>469</ele>
        <time>2021-09-11T10:50:46.245Z</time>
      </trkpt>
      <trkpt lat="45.89975" lon="6.02528">
        <ele>470</ele>
        <time>2021-09-11T10:50:47.246Z</time>
      </trkpt>
      <trkpt lat="45.89977" lon="6.02527">
        <ele>468</ele>
        <time>2021-09-11T10:50:48.245Z</time>
      </trkpt>
      <trkpt lat="45.89979" lon="6.02525">
        <ele>468</ele>
        <time>2021-09-11T10:50:49.246Z</time>
      </trkpt>
      <trkpt lat="45.89981" lon="6.02523">
        <ele>468</ele>
        <time>2021-09-11T10:50:50.245Z</time>
      </trkpt>
      <trkpt lat="45.89983" lon="6.02522">
        <ele>468</ele>
        <time>2021-09-11T10:50:51.246Z</time>
      </trkpt>
      <trkpt lat="45.89986" lon="6.0252">
        <ele>468</ele>
        <time>2021-09-11T10:50:52.246Z</time>
      </trkpt>
      <trkpt lat="45.89989" lon="6.02518">
        <ele>468</ele>
        <time>2021-09-11T10:50:53.246Z</time>
      </trkpt>
      <trkpt lat="45.89991" lon="6.02516">
        <ele>468</ele>
        <time>2021-09-11T10:50:54.246Z</time>
      </trkpt>
      <trkpt lat="45.89994" lon="6.02514">
        <ele>468</ele>
        <time>2021-09-11T10:50:55.246Z</time>
      </trkpt>
      <trkpt lat="45.89996" lon="6.02513">
        <ele>467</ele>
        <time>2021-09-11T10:50:56.246Z</time>
      </trkpt>
      <trkpt lat="45.89998" lon="6.02512">
        <ele>467</ele>
        <time>2021-09-11T10:50:57.245Z</time>
      </trkpt>
      <trkpt lat="45.90001" lon="6.0251">
        <ele>466</ele>
        <time>2021-09-11T10:50:58.245Z</time>
      </trkpt>
      <trkpt lat="45.90003" lon="6.02509">
        <ele>466</ele>
        <time>2021-09-11T10:50:59.245Z</time>
      </trkpt>
      <trkpt lat="45.90005" lon="6.02508">
        <ele>466</ele>
        <time>2021-09-11T10:51:00.245Z</time>
      </trkpt>
      <trkpt lat="45.90007" lon="6.02507">
        <ele>466</ele>
        <time>2021-09-11T10:51:01.246Z</time>
      </trkpt>
      <trkpt lat="45.9001" lon="6.02504">
        <ele>466</ele>
        <time>2021-09-11T10:51:02.245Z</time>
      </trkpt>
      <trkpt lat="45.90012" lon="6.02502">
        <ele>466</ele>
        <time>2021-09-11T10:51:03.245Z</time>
      </trkpt>
      <trkpt lat="45.90014" lon="6.025">
        <ele>466</ele>
        <time>2021-09-11T10:51:04.246Z</time>
      </trkpt>
      <trkpt lat="45.90016" lon="6.02499">
        <ele>466</ele>
        <time>2021-09-11T10:51:05.246Z</time>
      </trkpt>
      <trkpt lat="45.90018" lon="6.02496">
        <ele>466</ele>
        <time>2021-09-11T10:51:06.246Z</time>
      </trkpt>
      <trkpt lat="45.9002" lon="6.02494">
        <ele>467</ele>
        <time>2021-09-11T10:51:07.246Z</time>
      </trkpt>
      <trkpt lat="45.90022" lon="6.02492">
        <ele>467</ele>
        <time>2021-09-11T10:51:08.246Z</time>
      </trkpt>
      <trkpt lat="45.90024" lon="6.0249">
        <ele>467</ele>
        <time>2021-09-11T10:51:09.246Z</time>
      </trkpt>
      <trkpt lat="45.90026" lon="6.02489">
        <ele>467</ele>
        <time>2021-09-11T10:51:10.246Z</time>
      </trkpt>
      <trkpt lat="45.90028" lon="6.02486">
        <ele>467</ele>
        <time>2021-09-11T10:51:11.246Z</time>
      </trkpt>
      <trkpt lat="45.90029" lon="6.02485">
        <ele>467</ele>
        <time>2021-09-11T10:51:12.246Z</time>
      </trkpt>
      <trkpt lat="45.90031" lon="6.02483">
        <ele>467</ele>
        <time>2021-09-11T10:51:13.246Z</time>
      </trkpt>
      <trkpt lat="45.90033" lon="6.02481">
        <ele>467</ele>
        <time>2021-09-11T10:51:14.246Z</time>
      </trkpt>
      <trkpt lat="45.90035" lon="6.02479">
        <ele>467</ele>
        <time>2021-09-11T10:51:15.246Z</time>
      </trkpt>
      <trkpt lat="45.90037" lon="6.02477">
        <ele>467</ele>
        <time>2021-09-11T10:51:16.246Z</time>
      </trkpt>
      <trkpt lat="45.90039" lon="6.02475">
        <ele>467</ele>
        <time>2021-09-11T10:51:17.246Z</time>
      </trkpt>
      <trkpt lat="45.90041" lon="6.02474">
        <ele>467</ele>
        <time>2021-09-11T10:51:18.245Z</time>
      </trkpt>
      <trkpt lat="45.90043" lon="6.02473">
        <ele>467</ele>
        <time>2021-09-11T10:51:19.246Z</time>
      </trkpt>
      <trkpt lat="45.90045" lon="6.02471">
        <ele>467</ele>
        <time>2021-09-11T10:51:20.246Z</time>
      </trkpt>
      <trkpt lat="45.90047" lon="6.02469">
        <ele>467</ele>
        <time>2021-09-11T10:51:21.246Z</time>
      </trkpt>
      <trkpt lat="45.90049" lon="6.02468">
        <ele>467</ele>
        <time>2021-09-11T10:51:22.246Z</time>
      </trkpt>
      <trkpt lat="45.9005" lon="6.02466">
        <ele>467</ele>
        <time>2021-09-11T10:51:23.246Z</time>
      </trkpt>
      <trkpt lat="45.90052" lon="6.02464">
        <ele>467</ele>
        <time>2021-09-11T10:51:24.246Z</time>
      </trkpt>
      <trkpt lat="45.90054" lon="6.02463">
        <ele>467</ele>
        <time>2021-09-11T10:51:25.246Z</time>
      </trkpt>
      <trkpt lat="45.90056" lon="6.02462">
        <ele>467</ele>
        <time>2021-09-11T10:51:26.246Z</time>
      </trkpt>
      <trkpt lat="45.90057" lon="6.02462">
        <ele>467</ele>
        <time>2021-09-11T10:51:27.246Z</time>
      </trkpt>
      <trkpt lat="45.9006" lon="6.0246">
        <ele>467</ele>
        <time>2021-09-11T10:51:28.246Z</time>
      </trkpt>
      <trkpt lat="45.90061" lon="6.02458">
        <ele>467</ele>
        <time>2021-09-11T10:51:29.246Z</time>
      </trkpt>
      <trkpt lat="45.90063" lon="6.02457">
        <ele>467</ele>
        <time>2021-09-11T10:51:30.246Z</time>
      </trkpt>
      <trkpt lat="45.90065" lon="6.02456">
        <ele>467</ele>
        <time>2021-09-11T10:51:31.246Z</time>
      </trkpt>
      <trkpt lat="45.90066" lon="6.02455">
        <ele>466</ele>
        <time>2021-09-11T10:51:32.246Z</time>
      </trkpt>
      <trkpt lat="45.90069" lon="6.02454">
        <ele>466</ele>
        <time>2021-09-11T10:51:33.246Z</time>
      </trkpt>
      <trkpt lat="45.90071" lon="6.02453">
        <ele>466</ele>
        <time>2021-09-11T10:51:34.246Z</time>
      </trkpt>
      <trkpt lat="45.90073" lon="6.02452">
        <ele>465</ele>
        <time>2021-09-11T10:51:35.246Z</time>
      </trkpt>
      <trkpt lat="45.90074" lon="6.02451">
        <ele>466</ele>
        <time>2021-09-11T10:51:36.246Z</time>
      </trkpt>
      <trkpt lat="45.90076" lon="6.0245">
        <ele>466</ele>
        <time>2021-09-11T10:51:37.245Z</time>
      </trkpt>
      <trkpt lat="45.90078" lon="6.02449">
        <ele>466</ele>
        <time>2021-09-11T10:51:38.245Z</time>
      </trkpt>
      <trkpt lat="45.9008" lon="6.02448">
        <ele>467</ele>
        <time>2021-09-11T10:51:39.245Z</time>
      </trkpt>
      <trkpt lat="45.90082" lon="6.02448">
        <ele>467</ele>
        <time>2021-09-11T10:51:40.246Z</time>
      </trkpt>
      <trkpt lat="45.90084" lon="6.02447">
        <ele>468</ele>
        <time>2021-09-11T10:51:41.246Z</time>
      </trkpt>
      <trkpt lat="45.90086" lon="6.02446">
        <ele>468</ele>
        <time>2021-09-11T10:51:42.245Z</time>
      </trkpt>
      <trkpt lat="45.90089" lon="6.02446">
        <ele>468</ele>
        <time>2021-09-11T10:51:43.246Z</time>
      </trkpt>
      <trkpt lat="45.90091" lon="6.02445">
        <ele>468</ele>
        <time>2021-09-11T10:51:44.246Z</time>
      </trkpt>
      <trkpt lat="45.90093" lon="6.02445">
        <ele>468</ele>
        <time>2021-09-11T10:51:45.246Z</time>
      </trkpt>
      <trkpt lat="45.90095" lon="6.02445">
        <ele>468</ele>
        <time>2021-09-11T10:51:46.245Z</time>
      </trkpt>
      <trkpt lat="45.90097" lon="6.02445">
        <ele>468</ele>
        <time>2021-09-11T10:51:47.246Z</time>
      </trkpt>
      <trkpt lat="45.901" lon="6.02444">
        <ele>468</ele>
        <time>2021-09-11T10:51:48.246Z</time>
      </trkpt>
      <trkpt lat="45.90102" lon="6.02443">
        <ele>468</ele>
        <time>2021-09-11T10:51:49.246Z</time>
      </trkpt>
      <trkpt lat="45.90103" lon="6.02442">
        <ele>468</ele>
        <time>2021-09-11T10:51:50.245Z</time>
      </trkpt>
      <trkpt lat="45.90105" lon="6.02441">
        <ele>468</ele>
        <time>2021-09-11T10:51:51.246Z</time>
      </trkpt>
      <trkpt lat="45.90108" lon="6.0244">
        <ele>469</ele>
        <time>2021-09-11T10:51:52.245Z</time>
      </trkpt>
      <trkpt lat="45.9011" lon="6.02439">
        <ele>469</ele>
        <time>2021-09-11T10:51:53.246Z</time>
      </trkpt>
      <trkpt lat="45.90112" lon="6.02438">
        <ele>469</ele>
        <time>2021-09-11T10:51:54.246Z</time>
      </trkpt>
      <trkpt lat="45.90114" lon="6.02437">
        <ele>468</ele>
        <time>2021-09-11T10:51:55.246Z</time>
      </trkpt>
      <trkpt lat="45.90116" lon="6.02435">
        <ele>468</ele>
        <time>2021-09-11T10:51:56.246Z</time>
      </trkpt>
      <trkpt lat="45.90118" lon="6.02433">
        <ele>468</ele>
        <time>2021-09-11T10:51:57.246Z</time>
      </trkpt>
      <trkpt lat="45.9012" lon="6.02431">
        <ele>468</ele>
        <time>2021-09-11T10:51:58.246Z</time>
      </trkpt>
      <trkpt lat="45.90122" lon="6.0243">
        <ele>468</ele>
        <time>2021-09-11T10:51:59.245Z</time>
      </trkpt>
      <trkpt lat="45.90125" lon="6.02427">
        <ele>468</ele>
        <time>2021-09-11T10:52:00.246Z</time>
      </trkpt>
      <trkpt lat="45.90127" lon="6.02426">
        <ele>468</ele>
        <time>2021-09-11T10:52:01.246Z</time>
      </trkpt>
      <trkpt lat="45.90129" lon="6.02424">
        <ele>468</ele>
        <time>2021-09-11T10:52:02.246Z</time>
      </trkpt>
      <trkpt lat="45.90131" lon="6.02422">
        <ele>468</ele>
        <time>2021-09-11T10:52:03.246Z</time>
      </trkpt>
      <trkpt lat="45.90133" lon="6.0242">
        <ele>468</ele>
        <time>2021-09-11T10:52:04.245Z</time>
      </trkpt>
      <trkpt lat="45.90135" lon="6.02418">
        <ele>467</ele>
        <time>2021-09-11T10:52:05.246Z</time>
      </trkpt>
      <trkpt lat="45.90137" lon="6.02416">
        <ele>467</ele>
        <time>2021-09-11T10:52:06.245Z</time>
      </trkpt>
      <trkpt lat="45.90139" lon="6.02414">
        <ele>466</ele>
        <time>2021-09-11T10:52:07.246Z</time>
      </trkpt>
      <trkpt lat="45.9014" lon="6.02413">
        <ele>466</ele>
        <time>2021-09-11T10:52:08.246Z</time>
      </trkpt>
      <trkpt lat="45.90142" lon="6.0241">
        <ele>466</ele>
        <time>2021-09-11T10:52:09.246Z</time>
      </trkpt>
      <trkpt lat="45.90144" lon="6.02409">
        <ele>465</ele>
        <time>2021-09-11T10:52:10.246Z</time>
      </trkpt>
      <trkpt lat="45.90146" lon="6.02407">
        <ele>465</ele>
        <time>2021-09-11T10:52:11.246Z</time>
      </trkpt>
      <trkpt lat="45.90148" lon="6.02405">
        <ele>465</ele>
        <time>2021-09-11T10:52:12.245Z</time>
      </trkpt>
      <trkpt lat="45.90151" lon="6.02403">
        <ele>466</ele>
        <time>2021-09-11T10:52:13.246Z</time>
      </trkpt>
      <trkpt lat="45.90154" lon="6.02401">
        <ele>466</ele>
        <time>2021-09-11T10:52:14.245Z</time>
      </trkpt>
      <trkpt lat="45.90157" lon="6.02399">
        <ele>467</ele>
        <time>2021-09-11T10:52:15.245Z</time>
      </trkpt>
      <trkpt lat="45.90159" lon="6.02398">
        <ele>467</ele>
        <time>2021-09-11T10:52:16.245Z</time>
      </trkpt>
      <trkpt lat="45.90162" lon="6.02397">
        <ele>467</ele>
        <time>2021-09-11T10:52:17.245Z</time>
      </trkpt>
      <trkpt lat="45.90165" lon="6.02395">
        <ele>467</ele>
        <time>2021-09-11T10:52:18.245Z</time>
      </trkpt>
      <trkpt lat="45.90167" lon="6.02394">
        <ele>467</ele>
        <time>2021-09-11T10:52:19.246Z</time>
      </trkpt>
      <trkpt lat="45.90171" lon="6.02392">
        <ele>467</ele>
        <time>2021-09-11T10:52:20.246Z</time>
      </trkpt>
      <trkpt lat="45.90173" lon="6.02392">
        <ele>467</ele>
        <time>2021-09-11T10:52:21.246Z</time>
      </trkpt>
      <trkpt lat="45.90175" lon="6.02391">
        <ele>466</ele>
        <time>2021-09-11T10:52:22.246Z</time>
      </trkpt>
      <trkpt lat="45.90178" lon="6.0239">
        <ele>467</ele>
        <time>2021-09-11T10:52:23.245Z</time>
      </trkpt>
      <trkpt lat="45.9018" lon="6.02388">
        <ele>467</ele>
        <time>2021-09-11T10:52:24.246Z</time>
      </trkpt>
      <trkpt lat="45.90182" lon="6.02388">
        <ele>467</ele>
        <time>2021-09-11T10:52:25.246Z</time>
      </trkpt>
      <trkpt lat="45.90184" lon="6.02387">
        <ele>467</ele>
        <time>2021-09-11T10:52:26.245Z</time>
      </trkpt>
      <trkpt lat="45.90186" lon="6.02386">
        <ele>467</ele>
        <time>2021-09-11T10:52:27.246Z</time>
      </trkpt>
      <trkpt lat="45.90189" lon="6.02385">
        <ele>467</ele>
        <time>2021-09-11T10:52:28.246Z</time>
      </trkpt>
      <trkpt lat="45.90193" lon="6.02385">
        <ele>467</ele>
        <time>2021-09-11T10:52:29.246Z</time>
      </trkpt>
      <trkpt lat="45.90196" lon="6.02384">
        <ele>467</ele>
        <time>2021-09-11T10:52:30.245Z</time>
      </trkpt>
      <trkpt lat="45.90199" lon="6.02384">
        <ele>467</ele>
        <time>2021-09-11T10:52:31.246Z</time>
      </trkpt>
      <trkpt lat="45.90203" lon="6.02383">
        <ele>467</ele>
        <time>2021-09-11T10:52:32.246Z</time>
      </trkpt>
      <trkpt lat="45.90205" lon="6.02383">
        <ele>467</ele>
        <time>2021-09-11T10:52:33.245Z</time>
      </trkpt>
      <trkpt lat="45.90208" lon="6.02382">
        <ele>467</ele>
        <time>2021-09-11T10:52:34.246Z</time>
      </trkpt>
      <trkpt lat="45.90211" lon="6.02382">
        <ele>468</ele>
        <time>2021-09-11T10:52:35.245Z</time>
      </trkpt>
      <trkpt lat="45.90214" lon="6.02382">
        <ele>468</ele>
        <time>2021-09-11T10:52:36.246Z</time>
      </trkpt>
      <trkpt lat="45.90218" lon="6.02382">
        <ele>468</ele>
        <time>2021-09-11T10:52:37.246Z</time>
      </trkpt>
      <trkpt lat="45.90222" lon="6.02382">
        <ele>469</ele>
        <time>2021-09-11T10:52:38.245Z</time>
      </trkpt>
      <trkpt lat="45.90225" lon="6.02381">
        <ele>469</ele>
        <time>2021-09-11T10:52:39.246Z</time>
      </trkpt>
      <trkpt lat="45.90228" lon="6.02381">
        <ele>469</ele>
        <time>2021-09-11T10:52:40.246Z</time>
      </trkpt>
      <trkpt lat="45.90231" lon="6.02381">
        <ele>469</ele>
        <time>2021-09-11T10:52:41.245Z</time>
      </trkpt>
      <trkpt lat="45.90234" lon="6.02381">
        <ele>469</ele>
        <time>2021-09-11T10:52:42.246Z</time>
      </trkpt>
      <trkpt lat="45.90237" lon="6.02382">
        <ele>468</ele>
        <time>2021-09-11T10:52:43.246Z</time>
      </trkpt>
      <trkpt lat="45.9024" lon="6.02383">
        <ele>468</ele>
        <time>2021-09-11T10:52:44.245Z</time>
      </trkpt>
      <trkpt lat="45.90243" lon="6.02384">
        <ele>468</ele>
        <time>2021-09-11T10:52:45.245Z</time>
      </trkpt>
      <trkpt lat="45.90247" lon="6.02386">
        <ele>467</ele>
        <time>2021-09-11T10:52:46.246Z</time>
      </trkpt>
      <trkpt lat="45.90249" lon="6.02388">
        <ele>467</ele>
        <time>2021-09-11T10:52:47.246Z</time>
      </trkpt>
      <trkpt lat="45.90252" lon="6.0239">
        <ele>467</ele>
        <time>2021-09-11T10:52:48.246Z</time>
      </trkpt>
      <trkpt lat="45.90254" lon="6.02392">
        <ele>467</ele>
        <time>2021-09-11T10:52:49.246Z</time>
      </trkpt>
      <trkpt lat="45.90257" lon="6.02394">
        <ele>467</ele>
        <time>2021-09-11T10:52:50.246Z</time>
      </trkpt>
      <trkpt lat="45.9026" lon="6.02396">
        <ele>467</ele>
        <time>2021-09-11T10:52:51.246Z</time>
      </trkpt>
      <trkpt lat="45.90263" lon="6.02398">
        <ele>467</ele>
        <time>2021-09-11T10:52:52.246Z</time>
      </trkpt>
      <trkpt lat="45.90265" lon="6.024">
        <ele>467</ele>
        <time>2021-09-11T10:52:53.246Z</time>
      </trkpt>
      <trkpt lat="45.90268" lon="6.02402">
        <ele>466</ele>
        <time>2021-09-11T10:52:54.246Z</time>
      </trkpt>
      <trkpt lat="45.90271" lon="6.02404">
        <ele>466</ele>
        <time>2021-09-11T10:52:55.245Z</time>
      </trkpt>
      <trkpt lat="45.90274" lon="6.02405">
        <ele>466</ele>
        <time>2021-09-11T10:52:56.246Z</time>
      </trkpt>
      <trkpt lat="45.90277" lon="6.02407">
        <ele>466</ele>
        <time>2021-09-11T10:52:57.246Z</time>
      </trkpt>
      <trkpt lat="45.9028" lon="6.02408">
        <ele>466</ele>
        <time>2021-09-11T10:52:58.246Z</time>
      </trkpt>
      <trkpt lat="45.90284" lon="6.02409">
        <ele>465</ele>
        <time>2021-09-11T10:52:59.246Z</time>
      </trkpt>
      <trkpt lat="45.90287" lon="6.0241">
        <ele>465</ele>
        <time>2021-09-11T10:53:00.246Z</time>
      </trkpt>
      <trkpt lat="45.9029" lon="6.02411">
        <ele>465</ele>
        <time>2021-09-11T10:53:01.246Z</time>
      </trkpt>
      <trkpt lat="45.90293" lon="6.02412">
        <ele>465</ele>
        <time>2021-09-11T10:53:02.246Z</time>
      </trkpt>
      <trkpt lat="45.90296" lon="6.02412">
        <ele>465</ele>
        <time>2021-09-11T10:53:03.245Z</time>
      </trkpt>
      <trkpt lat="45.903" lon="6.02413">
        <ele>465</ele>
        <time>2021-09-11T10:53:04.245Z</time>
      </trkpt>
      <trkpt lat="45.90303" lon="6.02414">
        <ele>465</ele>
        <time>2021-09-11T10:53:05.246Z</time>
      </trkpt>
      <trkpt lat="45.90306" lon="6.02414">
        <ele>465</ele>
        <time>2021-09-11T10:53:06.245Z</time>
      </trkpt>
      <trkpt lat="45.90309" lon="6.02415">
        <ele>464</ele>
        <time>2021-09-11T10:53:07.246Z</time>
      </trkpt>
      <trkpt lat="45.90312" lon="6.02415">
        <ele>465</ele>
        <time>2021-09-11T10:53:08.246Z</time>
      </trkpt>
      <trkpt lat="45.90316" lon="6.02416">
        <ele>465</ele>
        <time>2021-09-11T10:53:09.246Z</time>
      </trkpt>
      <trkpt lat="45.90319" lon="6.02417">
        <ele>464</ele>
        <time>2021-09-11T10:53:10.246Z</time>
      </trkpt>
      <trkpt lat="45.90323" lon="6.02417">
        <ele>464</ele>
        <time>2021-09-11T10:53:11.246Z</time>
      </trkpt>
      <trkpt lat="45.90325" lon="6.02418">
        <ele>464</ele>
        <time>2021-09-11T10:53:12.246Z</time>
      </trkpt>
      <trkpt lat="45.90329" lon="6.02418">
        <ele>464</ele>
        <time>2021-09-11T10:53:13.246Z</time>
      </trkpt>
      <trkpt lat="45.90331" lon="6.02418">
        <ele>464</ele>
        <time>2021-09-11T10:53:14.245Z</time>
      </trkpt>
      <trkpt lat="45.90334" lon="6.02418">
        <ele>463</ele>
        <time>2021-09-11T10:53:15.245Z</time>
      </trkpt>
      <trkpt lat="45.90337" lon="6.02418">
        <ele>463</ele>
        <time>2021-09-11T10:53:16.246Z</time>
      </trkpt>
      <trkpt lat="45.9034" lon="6.02419">
        <ele>464</ele>
        <time>2021-09-11T10:53:17.246Z</time>
      </trkpt>
      <trkpt lat="45.90343" lon="6.02419">
        <ele>464</ele>
        <time>2021-09-11T10:53:18.246Z</time>
      </trkpt>
      <trkpt lat="45.90346" lon="6.02419">
        <ele>464</ele>
        <time>2021-09-11T10:53:19.245Z</time>
      </trkpt>
      <trkpt lat="45.90349" lon="6.0242">
        <ele>464</ele>
        <time>2021-09-11T10:53:20.245Z</time>
      </trkpt>
      <trkpt lat="45.90352" lon="6.02419">
        <ele>464</ele>
        <time>2021-09-11T10:53:21.246Z</time>
      </trkpt>
      <trkpt lat="45.90355" lon="6.02419">
        <ele>464</ele>
        <time>2021-09-11T10:53:22.246Z</time>
      </trkpt>
      <trkpt lat="45.90358" lon="6.02419">
        <ele>464</ele>
        <time>2021-09-11T10:53:23.246Z</time>
      </trkpt>
      <trkpt lat="45.90361" lon="6.02419">
        <ele>464</ele>
        <time>2021-09-11T10:53:24.246Z</time>
      </trkpt>
      <trkpt lat="45.90364" lon="6.02419">
        <ele>464</ele>
        <time>2021-09-11T10:53:25.245Z</time>
      </trkpt>
      <trkpt lat="45.90366" lon="6.02419">
        <ele>464</ele>
        <time>2021-09-11T10:53:26.246Z</time>
      </trkpt>
      <trkpt lat="45.9037" lon="6.02419">
        <ele>464</ele>
        <time>2021-09-11T10:53:27.246Z</time>
      </trkpt>
      <trkpt lat="45.90373" lon="6.02419">
        <ele>464</ele>
        <time>2021-09-11T10:53:28.246Z</time>
      </trkpt>
      <trkpt lat="45.90375" lon="6.02418">
        <ele>465</ele>
        <time>2021-09-11T10:53:29.246Z</time>
      </trkpt>
      <trkpt lat="45.90378" lon="6.02418">
        <ele>465</ele>
        <time>2021-09-11T10:53:30.246Z</time>
      </trkpt>
      <trkpt lat="45.9038" lon="6.02418">
        <ele>464</ele>
        <time>2021-09-11T10:53:31.246Z</time>
      </trkpt>
      <trkpt lat="45.90383" lon="6.02418">
        <ele>465</ele>
        <time>2021-09-11T10:53:32.246Z</time>
      </trkpt>
      <trkpt lat="45.90386" lon="6.02418">
        <ele>465</ele>
        <time>2021-09-11T10:53:33.246Z</time>
      </trkpt>
      <trkpt lat="45.90388" lon="6.02418">
        <ele>465</ele>
        <time>2021-09-11T10:53:34.246Z</time>
      </trkpt>
      <trkpt lat="45.90391" lon="6.02418">
        <ele>466</ele>
        <time>2021-09-11T10:53:35.246Z</time>
      </trkpt>
      <trkpt lat="45.90394" lon="6.02417">
        <ele>466</ele>
        <time>2021-09-11T10:53:36.246Z</time>
      </trkpt>
      <trkpt lat="45.90397" lon="6.02417">
        <ele>466</ele>
        <time>2021-09-11T10:53:37.246Z</time>
      </trkpt>
      <trkpt lat="45.904" lon="6.02417">
        <ele>466</ele>
        <time>2021-09-11T10:53:38.246Z</time>
      </trkpt>
      <trkpt lat="45.90403" lon="6.02416">
        <ele>467</ele>
        <time>2021-09-11T10:53:39.246Z</time>
      </trkpt>
      <trkpt lat="45.90405" lon="6.02416">
        <ele>467</ele>
        <time>2021-09-11T10:53:40.245Z</time>
      </trkpt>
      <trkpt lat="45.90408" lon="6.02416">
        <ele>467</ele>
        <time>2021-09-11T10:53:41.246Z</time>
      </trkpt>
      <trkpt lat="45.90411" lon="6.02415">
        <ele>467</ele>
        <time>2021-09-11T10:53:42.246Z</time>
      </trkpt>
      <trkpt lat="45.90414" lon="6.02415">
        <ele>467</ele>
        <time>2021-09-11T10:53:43.245Z</time>
      </trkpt>
      <trkpt lat="45.90417" lon="6.02415">
        <ele>466</ele>
        <time>2021-09-11T10:53:44.246Z</time>
      </trkpt>
      <trkpt lat="45.90419" lon="6.02416">
        <ele>465</ele>
        <time>2021-09-11T10:53:45.246Z</time>
      </trkpt>
      <trkpt lat="45.90422" lon="6.02416">
        <ele>464</ele>
        <time>2021-09-11T10:53:46.246Z</time>
      </trkpt>
      <trkpt lat="45.90424" lon="6.02416">
        <ele>464</ele>
        <time>2021-09-11T10:53:47.245Z</time>
      </trkpt>
      <trkpt lat="45.90426" lon="6.02416">
        <ele>463</ele>
        <time>2021-09-11T10:53:48.246Z</time>
      </trkpt>
      <trkpt lat="45.90429" lon="6.02416">
        <ele>463</ele>
        <time>2021-09-11T10:53:49.246Z</time>
      </trkpt>
      <trkpt lat="45.90431" lon="6.02416">
        <ele>463</ele>
        <time>2021-09-11T10:53:50.246Z</time>
      </trkpt>
      <trkpt lat="45.90434" lon="6.02417">
        <ele>463</ele>
        <time>2021-09-11T10:53:51.246Z</time>
      </trkpt>
      <trkpt lat="45.90436" lon="6.02417">
        <ele>463</ele>
        <time>2021-09-11T10:53:52.246Z</time>
      </trkpt>
      <trkpt lat="45.90438" lon="6.02417">
        <ele>464</ele>
        <time>2021-09-11T10:53:53.246Z</time>
      </trkpt>
      <trkpt lat="45.90441" lon="6.02417">
        <ele>464</ele>
        <time>2021-09-11T10:53:54.246Z</time>
      </trkpt>
      <trkpt lat="45.90443" lon="6.02418">
        <ele>464</ele>
        <time>2021-09-11T10:53:55.246Z</time>
      </trkpt>
      <trkpt lat="45.90445" lon="6.02418">
        <ele>464</ele>
        <time>2021-09-11T10:53:56.246Z</time>
      </trkpt>
      <trkpt lat="45.90447" lon="6.02419">
        <ele>464</ele>
        <time>2021-09-11T10:53:57.246Z</time>
      </trkpt>
      <trkpt lat="45.9045" lon="6.02419">
        <ele>464</ele>
        <time>2021-09-11T10:53:58.246Z</time>
      </trkpt>
      <trkpt lat="45.90452" lon="6.02419">
        <ele>463</ele>
        <time>2021-09-11T10:53:59.246Z</time>
      </trkpt>
      <trkpt lat="45.90454" lon="6.02419">
        <ele>463</ele>
        <time>2021-09-11T10:54:00.245Z</time>
      </trkpt>
      <trkpt lat="45.90456" lon="6.02418">
        <ele>462</ele>
        <time>2021-09-11T10:54:01.246Z</time>
      </trkpt>
      <trkpt lat="45.90458" lon="6.02418">
        <ele>462</ele>
        <time>2021-09-11T10:54:02.245Z</time>
      </trkpt>
      <trkpt lat="45.9046" lon="6.02417">
        <ele>462</ele>
        <time>2021-09-11T10:54:03.246Z</time>
      </trkpt>
      <trkpt lat="45.90462" lon="6.02417">
        <ele>462</ele>
        <time>2021-09-11T10:54:04.245Z</time>
      </trkpt>
      <trkpt lat="45.90464" lon="6.02417">
        <ele>461</ele>
        <time>2021-09-11T10:54:05.245Z</time>
      </trkpt>
      <trkpt lat="45.90466" lon="6.02417">
        <ele>461</ele>
        <time>2021-09-11T10:54:06.246Z</time>
      </trkpt>
      <trkpt lat="45.90468" lon="6.02417">
        <ele>461</ele>
        <time>2021-09-11T10:54:07.246Z</time>
      </trkpt>
      <trkpt lat="45.9047" lon="6.02417">
        <ele>460</ele>
        <time>2021-09-11T10:54:08.246Z</time>
      </trkpt>
      <trkpt lat="45.90472" lon="6.02417">
        <ele>460</ele>
        <time>2021-09-11T10:54:09.245Z</time>
      </trkpt>
      <trkpt lat="45.90475" lon="6.02417">
        <ele>460</ele>
        <time>2021-09-11T10:54:10.246Z</time>
      </trkpt>
      <trkpt lat="45.90477" lon="6.02417">
        <ele>459</ele>
        <time>2021-09-11T10:54:11.246Z</time>
      </trkpt>
      <trkpt lat="45.90479" lon="6.02416">
        <ele>460</ele>
        <time>2021-09-11T10:54:12.246Z</time>
      </trkpt>
      <trkpt lat="45.90481" lon="6.02416">
        <ele>460</ele>
        <time>2021-09-11T10:54:13.246Z</time>
      </trkpt>
      <trkpt lat="45.90483" lon="6.02416">
        <ele>459</ele>
        <time>2021-09-11T10:54:14.246Z</time>
      </trkpt>
      <trkpt lat="45.90485" lon="6.02415">
        <ele>459</ele>
        <time>2021-09-11T10:54:15.246Z</time>
      </trkpt>
      <trkpt lat="45.90486" lon="6.02415">
        <ele>459</ele>
        <time>2021-09-11T10:54:16.246Z</time>
      </trkpt>
      <trkpt lat="45.90488" lon="6.02414">
        <ele>459</ele>
        <time>2021-09-11T10:54:17.245Z</time>
      </trkpt>
      <trkpt lat="45.9049" lon="6.02414">
        <ele>458</ele>
        <time>2021-09-11T10:54:18.246Z</time>
      </trkpt>
      <trkpt lat="45.90492" lon="6.02414">
        <ele>458</ele>
        <time>2021-09-11T10:54:19.246Z</time>
      </trkpt>
      <trkpt lat="45.90493" lon="6.02414">
        <ele>458</ele>
        <time>2021-09-11T10:54:20.246Z</time>
      </trkpt>
      <trkpt lat="45.90495" lon="6.02414">
        <ele>458</ele>
        <time>2021-09-11T10:54:21.246Z</time>
      </trkpt>
      <trkpt lat="45.90496" lon="6.02413">
        <ele>458</ele>
        <time>2021-09-11T10:54:22.245Z</time>
      </trkpt>
      <trkpt lat="45.90498" lon="6.02413">
        <ele>457</ele>
        <time>2021-09-11T10:54:23.246Z</time>
      </trkpt>
      <trkpt lat="45.90499" lon="6.02412">
        <ele>458</ele>
        <time>2021-09-11T10:54:24.246Z</time>
      </trkpt>
      <trkpt lat="45.90501" lon="6.02411">
        <ele>458</ele>
        <time>2021-09-11T10:54:25.246Z</time>
      </trkpt>
      <trkpt lat="45.90503" lon="6.0241">
        <ele>458</ele>
        <time>2021-09-11T10:54:26.246Z</time>
      </trkpt>
      <trkpt lat="45.90504" lon="6.02409">
        <ele>458</ele>
        <time>2021-09-11T10:54:27.246Z</time>
      </trkpt>
      <trkpt lat="45.90506" lon="6.02408">
        <ele>458</ele>
        <time>2021-09-11T10:54:28.246Z</time>
      </trkpt>
      <trkpt lat="45.90508" lon="6.02407">
        <ele>459</ele>
        <time>2021-09-11T10:54:29.246Z</time>
      </trkpt>
      <trkpt lat="45.9051" lon="6.02407">
        <ele>459</ele>
        <time>2021-09-11T10:54:30.246Z</time>
      </trkpt>
      <trkpt lat="45.90512" lon="6.02406">
        <ele>459</ele>
        <time>2021-09-11T10:54:31.246Z</time>
      </trkpt>
      <trkpt lat="45.90514" lon="6.02406">
        <ele>459</ele>
        <time>2021-09-11T10:54:32.246Z</time>
      </trkpt>
      <trkpt lat="45.90517" lon="6.02406">
        <ele>459</ele>
        <time>2021-09-11T10:54:33.246Z</time>
      </trkpt>
      <trkpt lat="45.90519" lon="6.02405">
        <ele>459</ele>
        <time>2021-09-11T10:54:34.245Z</time>
      </trkpt>
      <trkpt lat="45.9052" lon="6.02405">
        <ele>459</ele>
        <time>2021-09-11T10:54:35.246Z</time>
      </trkpt>
      <trkpt lat="45.90522" lon="6.02404">
        <ele>459</ele>
        <time>2021-09-11T10:54:36.245Z</time>
      </trkpt>
      <trkpt lat="45.90523" lon="6.02403">
        <ele>458</ele>
        <time>2021-09-11T10:54:37.245Z</time>
      </trkpt>
      <trkpt lat="45.90523" lon="6.02404">
        <ele>458</ele>
        <time>2021-09-11T10:54:38.246Z</time>
      </trkpt>
      <trkpt lat="45.90524" lon="6.02406">
        <ele>458</ele>
        <time>2021-09-11T10:54:39.246Z</time>
      </trkpt>
      <trkpt lat="45.90524" lon="6.02407">
        <ele>458</ele>
        <time>2021-09-11T10:54:40.246Z</time>
      </trkpt>
      <trkpt lat="45.90525" lon="6.02408">
        <ele>457</ele>
        <time>2021-09-11T10:54:41.245Z</time>
      </trkpt>
      <trkpt lat="45.90525" lon="6.02408">
        <ele>457</ele>
        <time>2021-09-11T10:54:42.246Z</time>
      </trkpt>
      <trkpt lat="45.90525" lon="6.02407">
        <ele>457</ele>
        <time>2021-09-11T10:54:43.246Z</time>
      </trkpt>
      <trkpt lat="45.90525" lon="6.02406">
        <ele>457</ele>
        <time>2021-09-11T10:54:44.246Z</time>
      </trkpt>
      <trkpt lat="45.90526" lon="6.02405">
        <ele>458</ele>
        <time>2021-09-11T10:54:45.246Z</time>
      </trkpt>
      <trkpt lat="45.90526" lon="6.02404">
        <ele>458</ele>
        <time>2021-09-11T10:54:46.246Z</time>
      </trkpt>
      <trkpt lat="45.90527" lon="6.02404">
        <ele>458</ele>
        <time>2021-09-11T10:54:47.246Z</time>
      </trkpt>
      <trkpt lat="45.90527" lon="6.02401">
        <ele>458</ele>
        <time>2021-09-11T10:54:48.246Z</time>
      </trkpt>
      <trkpt lat="45.90528" lon="6.024">
        <ele>458</ele>
        <time>2021-09-11T10:54:49.246Z</time>
      </trkpt>
      <trkpt lat="45.90528" lon="6.02399">
        <ele>458</ele>
        <time>2021-09-11T10:54:50.245Z</time>
      </trkpt>
      <trkpt lat="45.9053" lon="6.02398">
        <ele>458</ele>
        <time>2021-09-11T10:54:51.245Z</time>
      </trkpt>
      <trkpt lat="45.90531" lon="6.02397">
        <ele>458</ele>
        <time>2021-09-11T10:54:52.246Z</time>
      </trkpt>
      <trkpt lat="45.90533" lon="6.02396">
        <ele>458</ele>
        <time>2021-09-11T10:54:53.246Z</time>
      </trkpt>
      <trkpt lat="45.90535" lon="6.02395">
        <ele>458</ele>
        <time>2021-09-11T10:54:54.246Z</time>
      </trkpt>
      <trkpt lat="45.90537" lon="6.02394">
        <ele>458</ele>
        <time>2021-09-11T10:54:55.246Z</time>
      </trkpt>
      <trkpt lat="45.90539" lon="6.02393">
        <ele>459</ele>
        <time>2021-09-11T10:54:56.246Z</time>
      </trkpt>
      <trkpt lat="45.90541" lon="6.02392">
        <ele>459</ele>
        <time>2021-09-11T10:54:57.245Z</time>
      </trkpt>
      <trkpt lat="45.90543" lon="6.02391">
        <ele>459</ele>
        <time>2021-09-11T10:54:58.246Z</time>
      </trkpt>
      <trkpt lat="45.90545" lon="6.02389">
        <ele>458</ele>
        <time>2021-09-11T10:54:59.246Z</time>
      </trkpt>
      <trkpt lat="45.90546" lon="6.02387">
        <ele>458</ele>
        <time>2021-09-11T10:55:00.245Z</time>
      </trkpt>
      <trkpt lat="45.90548" lon="6.02386">
        <ele>458</ele>
        <time>2021-09-11T10:55:01.246Z</time>
      </trkpt>
      <trkpt lat="45.9055" lon="6.02385">
        <ele>458</ele>
        <time>2021-09-11T10:55:02.246Z</time>
      </trkpt>
      <trkpt lat="45.90552" lon="6.02383">
        <ele>458</ele>
        <time>2021-09-11T10:55:03.245Z</time>
      </trkpt>
      <trkpt lat="45.90554" lon="6.02381">
        <ele>458</ele>
        <time>2021-09-11T10:55:04.246Z</time>
      </trkpt>
      <trkpt lat="45.90557" lon="6.0238">
        <ele>457</ele>
        <time>2021-09-11T10:55:05.246Z</time>
      </trkpt>
      <trkpt lat="45.90559" lon="6.02378">
        <ele>457</ele>
        <time>2021-09-11T10:55:06.246Z</time>
      </trkpt>
      <trkpt lat="45.90562" lon="6.02376">
        <ele>457</ele>
        <time>2021-09-11T10:55:07.246Z</time>
      </trkpt>
      <trkpt lat="45.90565" lon="6.02376">
        <ele>457</ele>
        <time>2021-09-11T10:55:08.246Z</time>
      </trkpt>
      <trkpt lat="45.90567" lon="6.02374">
        <ele>456</ele>
        <time>2021-09-11T10:55:09.245Z</time>
      </trkpt>
      <trkpt lat="45.90568" lon="6.02372">
        <ele>455</ele>
        <time>2021-09-11T10:55:10.246Z</time>
      </trkpt>
      <trkpt lat="45.90571" lon="6.02371">
        <ele>454</ele>
        <time>2021-09-11T10:55:11.245Z</time>
      </trkpt>
      <trkpt lat="45.90573" lon="6.02369">
        <ele>453</ele>
        <time>2021-09-11T10:55:12.245Z</time>
      </trkpt>
      <trkpt lat="45.90576" lon="6.02368">
        <ele>453</ele>
        <time>2021-09-11T10:55:13.246Z</time>
      </trkpt>
      <trkpt lat="45.90579" lon="6.02366">
        <ele>452</ele>
        <time>2021-09-11T10:55:14.246Z</time>
      </trkpt>
      <trkpt lat="45.90582" lon="6.02365">
        <ele>452</ele>
        <time>2021-09-11T10:55:15.246Z</time>
      </trkpt>
      <trkpt lat="45.90585" lon="6.02363">
        <ele>452</ele>
        <time>2021-09-11T10:55:16.246Z</time>
      </trkpt>
      <trkpt lat="45.90588" lon="6.02361">
        <ele>452</ele>
        <time>2021-09-11T10:55:17.246Z</time>
      </trkpt>
      <trkpt lat="45.90591" lon="6.02359">
        <ele>452</ele>
        <time>2021-09-11T10:55:18.246Z</time>
      </trkpt>
      <trkpt lat="45.90594" lon="6.02357">
        <ele>451</ele>
        <time>2021-09-11T10:55:19.246Z</time>
      </trkpt>
      <trkpt lat="45.90596" lon="6.02355">
        <ele>451</ele>
        <time>2021-09-11T10:55:20.246Z</time>
      </trkpt>
      <trkpt lat="45.90598" lon="6.02354">
        <ele>450</ele>
        <time>2021-09-11T10:55:21.246Z</time>
      </trkpt>
      <trkpt lat="45.90601" lon="6.02352">
        <ele>450</ele>
        <time>2021-09-11T10:55:22.246Z</time>
      </trkpt>
      <trkpt lat="45.90604" lon="6.02351">
        <ele>450</ele>
        <time>2021-09-11T10:55:23.246Z</time>
      </trkpt>
      <trkpt lat="45.90606" lon="6.02349">
        <ele>450</ele>
        <time>2021-09-11T10:55:24.246Z</time>
      </trkpt>
      <trkpt lat="45.90609" lon="6.02348">
        <ele>450</ele>
        <time>2021-09-11T10:55:25.246Z</time>
      </trkpt>
      <trkpt lat="45.90611" lon="6.02346">
        <ele>450</ele>
        <time>2021-09-11T10:55:26.246Z</time>
      </trkpt>
      <trkpt lat="45.90614" lon="6.02345">
        <ele>450</ele>
        <time>2021-09-11T10:55:27.246Z</time>
      </trkpt>
      <trkpt lat="45.90616" lon="6.02343">
        <ele>450</ele>
        <time>2021-09-11T10:55:28.246Z</time>
      </trkpt>
      <trkpt lat="45.90619" lon="6.02342">
        <ele>450</ele>
        <time>2021-09-11T10:55:29.246Z</time>
      </trkpt>
      <trkpt lat="45.90622" lon="6.0234">
        <ele>450</ele>
        <time>2021-09-11T10:55:30.245Z</time>
      </trkpt>
      <trkpt lat="45.90625" lon="6.02339">
        <ele>450</ele>
        <time>2021-09-11T10:55:31.246Z</time>
      </trkpt>
      <trkpt lat="45.90627" lon="6.02337">
        <ele>450</ele>
        <time>2021-09-11T10:55:32.246Z</time>
      </trkpt>
      <trkpt lat="45.90629" lon="6.02335">
        <ele>450</ele>
        <time>2021-09-11T10:55:33.246Z</time>
      </trkpt>
      <trkpt lat="45.90632" lon="6.02334">
        <ele>449</ele>
        <time>2021-09-11T10:55:34.246Z</time>
      </trkpt>
      <trkpt lat="45.90634" lon="6.02332">
        <ele>449</ele>
        <time>2021-09-11T10:55:35.246Z</time>
      </trkpt>
      <trkpt lat="45.90637" lon="6.02331">
        <ele>449</ele>
        <time>2021-09-11T10:55:36.246Z</time>
      </trkpt>
      <trkpt lat="45.9064" lon="6.02329">
        <ele>448</ele>
        <time>2021-09-11T10:55:37.246Z</time>
      </trkpt>
      <trkpt lat="45.90642" lon="6.02328">
        <ele>448</ele>
        <time>2021-09-11T10:55:38.245Z</time>
      </trkpt>
      <trkpt lat="45.90645" lon="6.02328">
        <ele>447</ele>
        <time>2021-09-11T10:55:39.245Z</time>
      </trkpt>
      <trkpt lat="45.90647" lon="6.02327">
        <ele>447</ele>
        <time>2021-09-11T10:55:40.246Z</time>
      </trkpt>
      <trkpt lat="45.90649" lon="6.02327">
        <ele>447</ele>
        <time>2021-09-11T10:55:41.245Z</time>
      </trkpt>
      <trkpt lat="45.90651" lon="6.02327">
        <ele>446</ele>
        <time>2021-09-11T10:55:42.245Z</time>
      </trkpt>
      <trkpt lat="45.90653" lon="6.02327">
        <ele>446</ele>
        <time>2021-09-11T10:55:43.245Z</time>
      </trkpt>
      <trkpt lat="45.90655" lon="6.02326">
        <ele>446</ele>
        <time>2021-09-11T10:55:44.246Z</time>
      </trkpt>
      <trkpt lat="45.90656" lon="6.02325">
        <ele>446</ele>
        <time>2021-09-11T10:55:45.245Z</time>
      </trkpt>
      <trkpt lat="45.90659" lon="6.02325">
        <ele>446</ele>
        <time>2021-09-11T10:55:46.246Z</time>
      </trkpt>
      <trkpt lat="45.90661" lon="6.02323">
        <ele>445</ele>
        <time>2021-09-11T10:55:47.245Z</time>
      </trkpt>
      <trkpt lat="45.90663" lon="6.02321">
        <ele>445</ele>
        <time>2021-09-11T10:55:48.246Z</time>
      </trkpt>
      <trkpt lat="45.90665" lon="6.02319">
        <ele>445</ele>
        <time>2021-09-11T10:55:49.246Z</time>
      </trkpt>
      <trkpt lat="45.90668" lon="6.02316">
        <ele>445</ele>
        <time>2021-09-11T10:55:50.246Z</time>
      </trkpt>
      <trkpt lat="45.9067" lon="6.02313">
        <ele>444</ele>
        <time>2021-09-11T10:55:51.246Z</time>
      </trkpt>
      <trkpt lat="45.90672" lon="6.02311">
        <ele>444</ele>
        <time>2021-09-11T10:55:52.246Z</time>
      </trkpt>
      <trkpt lat="45.90674" lon="6.02308">
        <ele>443</ele>
        <time>2021-09-11T10:55:53.245Z</time>
      </trkpt>
      <trkpt lat="45.90675" lon="6.02306">
        <ele>443</ele>
        <time>2021-09-11T10:55:54.245Z</time>
      </trkpt>
      <trkpt lat="45.90677" lon="6.02303">
        <ele>442</ele>
        <time>2021-09-11T10:55:55.245Z</time>
      </trkpt>
      <trkpt lat="45.90678" lon="6.02301">
        <ele>442</ele>
        <time>2021-09-11T10:55:56.246Z</time>
      </trkpt>
      <trkpt lat="45.90679" lon="6.02299">
        <ele>442</ele>
        <time>2021-09-11T10:55:57.245Z</time>
      </trkpt>
      <trkpt lat="45.9068" lon="6.02296">
        <ele>443</ele>
        <time>2021-09-11T10:55:58.246Z</time>
      </trkpt>
      <trkpt lat="45.90681" lon="6.02294">
        <ele>443</ele>
        <time>2021-09-11T10:55:59.245Z</time>
      </trkpt>
      <trkpt lat="45.90682" lon="6.02291">
        <ele>444</ele>
        <time>2021-09-11T10:56:00.246Z</time>
      </trkpt>
      <trkpt lat="45.90683" lon="6.02288">
        <ele>444</ele>
        <time>2021-09-11T10:56:01.245Z</time>
      </trkpt>
      <trkpt lat="45.90685" lon="6.02285">
        <ele>445</ele>
        <time>2021-09-11T10:56:02.246Z</time>
      </trkpt>
      <trkpt lat="45.90686" lon="6.02282">
        <ele>446</ele>
        <time>2021-09-11T10:56:03.245Z</time>
      </trkpt>
      <trkpt lat="45.90687" lon="6.02279">
        <ele>446</ele>
        <time>2021-09-11T10:56:04.246Z</time>
      </trkpt>
      <trkpt lat="45.90689" lon="6.02276">
        <ele>447</ele>
        <time>2021-09-11T10:56:05.246Z</time>
      </trkpt>
      <trkpt lat="45.9069" lon="6.02273">
        <ele>447</ele>
        <time>2021-09-11T10:56:06.246Z</time>
      </trkpt>
      <trkpt lat="45.9069" lon="6.02271">
        <ele>447</ele>
        <time>2021-09-11T10:56:07.245Z</time>
      </trkpt>
      <trkpt lat="45.90691" lon="6.02268">
        <ele>447</ele>
        <time>2021-09-11T10:56:08.246Z</time>
      </trkpt>
      <trkpt lat="45.90691" lon="6.02264">
        <ele>448</ele>
        <time>2021-09-11T10:56:09.246Z</time>
      </trkpt>
      <trkpt lat="45.90692" lon="6.02262">
        <ele>448</ele>
        <time>2021-09-11T10:56:10.245Z</time>
      </trkpt>
      <trkpt lat="45.90693" lon="6.02258">
        <ele>449</ele>
        <time>2021-09-11T10:56:11.245Z</time>
      </trkpt>
      <trkpt lat="45.90694" lon="6.02255">
        <ele>449</ele>
        <time>2021-09-11T10:56:12.246Z</time>
      </trkpt>
      <trkpt lat="45.90694" lon="6.02252">
        <ele>449</ele>
        <time>2021-09-11T10:56:13.245Z</time>
      </trkpt>
      <trkpt lat="45.90695" lon="6.02248">
        <ele>450</ele>
        <time>2021-09-11T10:56:14.246Z</time>
      </trkpt>
      <trkpt lat="45.90696" lon="6.02245">
        <ele>450</ele>
        <time>2021-09-11T10:56:15.246Z</time>
      </trkpt>
      <trkpt lat="45.90696" lon="6.02243">
        <ele>450</ele>
        <time>2021-09-11T10:56:16.245Z</time>
      </trkpt>
      <trkpt lat="45.90697" lon="6.02241">
        <ele>451</ele>
        <time>2021-09-11T10:56:17.246Z</time>
      </trkpt>
      <trkpt lat="45.90697" lon="6.02239">
        <ele>452</ele>
        <time>2021-09-11T10:56:18.246Z</time>
      </trkpt>
      <trkpt lat="45.90697" lon="6.02237">
        <ele>453</ele>
        <time>2021-09-11T10:56:19.246Z</time>
      </trkpt>
      <trkpt lat="45.90697" lon="6.02237">
        <ele>454</ele>
        <time>2021-09-11T10:56:20.245Z</time>
      </trkpt>
      <trkpt lat="45.90697" lon="6.02237">
        <ele>454</ele>
        <time>2021-09-11T10:56:21.246Z</time>
      </trkpt>
      <trkpt lat="45.90696" lon="6.02227">
        <ele>459</ele>
        <time>2021-09-11T10:56:22.246Z</time>
      </trkpt>
      <trkpt lat="45.90696" lon="6.02228">
        <ele>459</ele>
        <time>2021-09-11T10:56:23.246Z</time>
      </trkpt>
      <trkpt lat="45.90696" lon="6.02227">
        <ele>458</ele>
        <time>2021-09-11T10:56:24.246Z</time>
      </trkpt>
      <trkpt lat="45.90696" lon="6.02226">
        <ele>458</ele>
        <time>2021-09-11T10:56:25.246Z</time>
      </trkpt>
      <trkpt lat="45.90697" lon="6.02224">
        <ele>458</ele>
        <time>2021-09-11T10:56:26.246Z</time>
      </trkpt>
      <trkpt lat="45.90698" lon="6.02223">
        <ele>458</ele>
        <time>2021-09-11T10:56:27.245Z</time>
      </trkpt>
      <trkpt lat="45.90698" lon="6.02221">
        <ele>458</ele>
        <time>2021-09-11T10:56:28.246Z</time>
      </trkpt>
      <trkpt lat="45.907" lon="6.02218">
        <ele>457</ele>
        <time>2021-09-11T10:56:29.246Z</time>
      </trkpt>
      <trkpt lat="45.90701" lon="6.02216">
        <ele>457</ele>
        <time>2021-09-11T10:56:30.245Z</time>
      </trkpt>
      <trkpt lat="45.90702" lon="6.02214">
        <ele>457</ele>
        <time>2021-09-11T10:56:31.246Z</time>
      </trkpt>
      <trkpt lat="45.90703" lon="6.02212">
        <ele>457</ele>
        <time>2021-09-11T10:56:32.245Z</time>
      </trkpt>
      <trkpt lat="45.90703" lon="6.02209">
        <ele>458</ele>
        <time>2021-09-11T10:56:33.246Z</time>
      </trkpt>
      <trkpt lat="45.90704" lon="6.02206">
        <ele>458</ele>
        <time>2021-09-11T10:56:34.245Z</time>
      </trkpt>
      <trkpt lat="45.90705" lon="6.02204">
        <ele>458</ele>
        <time>2021-09-11T10:56:35.245Z</time>
      </trkpt>
      <trkpt lat="45.90707" lon="6.02202">
        <ele>458</ele>
        <time>2021-09-11T10:56:36.245Z</time>
      </trkpt>
      <trkpt lat="45.90709" lon="6.02199">
        <ele>458</ele>
        <time>2021-09-11T10:56:37.246Z</time>
      </trkpt>
      <trkpt lat="45.9071" lon="6.02197">
        <ele>457</ele>
        <time>2021-09-11T10:56:38.245Z</time>
      </trkpt>
      <trkpt lat="45.90711" lon="6.02195">
        <ele>457</ele>
        <time>2021-09-11T10:56:39.246Z</time>
      </trkpt>
      <trkpt lat="45.90712" lon="6.02192">
        <ele>456</ele>
        <time>2021-09-11T10:56:40.245Z</time>
      </trkpt>
      <trkpt lat="45.90714" lon="6.0219">
        <ele>455</ele>
        <time>2021-09-11T10:56:41.246Z</time>
      </trkpt>
      <trkpt lat="45.90715" lon="6.02188">
        <ele>455</ele>
        <time>2021-09-11T10:56:42.245Z</time>
      </trkpt>
      <trkpt lat="45.90716" lon="6.02185">
        <ele>454</ele>
        <time>2021-09-11T10:56:43.246Z</time>
      </trkpt>
      <trkpt lat="45.90717" lon="6.02182">
        <ele>453</ele>
        <time>2021-09-11T10:56:44.245Z</time>
      </trkpt>
      <trkpt lat="45.90719" lon="6.0218">
        <ele>452</ele>
        <time>2021-09-11T10:56:45.245Z</time>
      </trkpt>
      <trkpt lat="45.9072" lon="6.02178">
        <ele>451</ele>
        <time>2021-09-11T10:56:46.246Z</time>
      </trkpt>
      <trkpt lat="45.90721" lon="6.02177">
        <ele>451</ele>
        <time>2021-09-11T10:56:47.246Z</time>
      </trkpt>
      <trkpt lat="45.90722" lon="6.02175">
        <ele>450</ele>
        <time>2021-09-11T10:56:48.246Z</time>
      </trkpt>
      <trkpt lat="45.90724" lon="6.02174">
        <ele>449</ele>
        <time>2021-09-11T10:56:49.246Z</time>
      </trkpt>
      <trkpt lat="45.90725" lon="6.02173">
        <ele>449</ele>
        <time>2021-09-11T10:56:50.246Z</time>
      </trkpt>
      <trkpt lat="45.90725" lon="6.02172">
        <ele>448</ele>
        <time>2021-09-11T10:56:51.246Z</time>
      </trkpt>
      <trkpt lat="45.90727" lon="6.02171">
        <ele>448</ele>
        <time>2021-09-11T10:56:52.246Z</time>
      </trkpt>
      <trkpt lat="45.90727" lon="6.0217">
        <ele>448</ele>
        <time>2021-09-11T10:56:53.245Z</time>
      </trkpt>
      <trkpt lat="45.90729" lon="6.02168">
        <ele>448</ele>
        <time>2021-09-11T10:56:54.245Z</time>
      </trkpt>
      <trkpt lat="45.90729" lon="6.02166">
        <ele>447</ele>
        <time>2021-09-11T10:56:55.246Z</time>
      </trkpt>
      <trkpt lat="45.9073" lon="6.02165">
        <ele>447</ele>
        <time>2021-09-11T10:56:56.246Z</time>
      </trkpt>
      <trkpt lat="45.90731" lon="6.02162">
        <ele>447</ele>
        <time>2021-09-11T10:56:57.245Z</time>
      </trkpt>
      <trkpt lat="45.90732" lon="6.02161">
        <ele>447</ele>
        <time>2021-09-11T10:56:58.246Z</time>
      </trkpt>
      <trkpt lat="45.90731" lon="6.0216">
        <ele>446</ele>
        <time>2021-09-11T10:56:59.245Z</time>
      </trkpt>
      <trkpt lat="45.9073" lon="6.02158">
        <ele>446</ele>
        <time>2021-09-11T10:57:00.245Z</time>
      </trkpt>
      <trkpt lat="45.90729" lon="6.02155">
        <ele>446</ele>
        <time>2021-09-11T10:57:01.246Z</time>
      </trkpt>
      <trkpt lat="45.90728" lon="6.02152">
        <ele>446</ele>
        <time>2021-09-11T10:57:02.245Z</time>
      </trkpt>
      <trkpt lat="45.90727" lon="6.02149">
        <ele>446</ele>
        <time>2021-09-11T10:57:03.246Z</time>
      </trkpt>
      <trkpt lat="45.90726" lon="6.02146">
        <ele>446</ele>
        <time>2021-09-11T10:57:04.246Z</time>
      </trkpt>
      <trkpt lat="45.90725" lon="6.02143">
        <ele>447</ele>
        <time>2021-09-11T10:57:05.245Z</time>
      </trkpt>
      <trkpt lat="45.90724" lon="6.02141">
        <ele>447</ele>
        <time>2021-09-11T10:57:06.245Z</time>
      </trkpt>
      <trkpt lat="45.90723" lon="6.0214">
        <ele>447</ele>
        <time>2021-09-11T10:57:07.246Z</time>
      </trkpt>
      <trkpt lat="45.90722" lon="6.02137">
        <ele>447</ele>
        <time>2021-09-11T10:57:08.245Z</time>
      </trkpt>
      <trkpt lat="45.90721" lon="6.02135">
        <ele>447</ele>
        <time>2021-09-11T10:57:09.246Z</time>
      </trkpt>
      <trkpt lat="45.90719" lon="6.02133">
        <ele>447</ele>
        <time>2021-09-11T10:57:10.245Z</time>
      </trkpt>
      <trkpt lat="45.90718" lon="6.0213">
        <ele>447</ele>
        <time>2021-09-11T10:57:11.246Z</time>
      </trkpt>
      <trkpt lat="45.90716" lon="6.02128">
        <ele>446</ele>
        <time>2021-09-11T10:57:12.246Z</time>
      </trkpt>
      <trkpt lat="45.90714" lon="6.02125">
        <ele>446</ele>
        <time>2021-09-11T10:57:13.246Z</time>
      </trkpt>
      <trkpt lat="45.90713" lon="6.02123">
        <ele>445</ele>
        <time>2021-09-11T10:57:14.246Z</time>
      </trkpt>
      <trkpt lat="45.90711" lon="6.02121">
        <ele>445</ele>
        <time>2021-09-11T10:57:15.246Z</time>
      </trkpt>
      <trkpt lat="45.90709" lon="6.02119">
        <ele>445</ele>
        <time>2021-09-11T10:57:16.245Z</time>
      </trkpt>
      <trkpt lat="45.90707" lon="6.02116">
        <ele>445</ele>
        <time>2021-09-11T10:57:17.245Z</time>
      </trkpt>
      <trkpt lat="45.90706" lon="6.02113">
        <ele>444</ele>
        <time>2021-09-11T10:57:18.246Z</time>
      </trkpt>
      <trkpt lat="45.90705" lon="6.02111">
        <ele>444</ele>
        <time>2021-09-11T10:57:19.246Z</time>
      </trkpt>
      <trkpt lat="45.90703" lon="6.02108">
        <ele>443</ele>
        <time>2021-09-11T10:57:20.246Z</time>
      </trkpt>
      <trkpt lat="45.90702" lon="6.02106">
        <ele>443</ele>
        <time>2021-09-11T10:57:21.246Z</time>
      </trkpt>
      <trkpt lat="45.90701" lon="6.02103">
        <ele>443</ele>
        <time>2021-09-11T10:57:22.245Z</time>
      </trkpt>
      <trkpt lat="45.907" lon="6.02101">
        <ele>443</ele>
        <time>2021-09-11T10:57:23.245Z</time>
      </trkpt>
      <trkpt lat="45.90698" lon="6.02099">
        <ele>443</ele>
        <time>2021-09-11T10:57:24.245Z</time>
      </trkpt>
      <trkpt lat="45.90698" lon="6.02097">
        <ele>444</ele>
        <time>2021-09-11T10:57:25.245Z</time>
      </trkpt>
      <trkpt lat="45.90696" lon="6.02093">
        <ele>444</ele>
        <time>2021-09-11T10:57:26.246Z</time>
      </trkpt>
      <trkpt lat="45.90695" lon="6.0209">
        <ele>444</ele>
        <time>2021-09-11T10:57:27.246Z</time>
      </trkpt>
      <trkpt lat="45.90694" lon="6.02087">
        <ele>444</ele>
        <time>2021-09-11T10:57:28.245Z</time>
      </trkpt>
      <trkpt lat="45.90693" lon="6.02084">
        <ele>444</ele>
        <time>2021-09-11T10:57:29.246Z</time>
      </trkpt>
      <trkpt lat="45.90692" lon="6.0208">
        <ele>444</ele>
        <time>2021-09-11T10:57:30.246Z</time>
      </trkpt>
      <trkpt lat="45.90692" lon="6.02078">
        <ele>444</ele>
        <time>2021-09-11T10:57:31.246Z</time>
      </trkpt>
      <trkpt lat="45.90691" lon="6.02075">
        <ele>444</ele>
        <time>2021-09-11T10:57:32.246Z</time>
      </trkpt>
      <trkpt lat="45.9069" lon="6.02072">
        <ele>444</ele>
        <time>2021-09-11T10:57:33.246Z</time>
      </trkpt>
      <trkpt lat="45.90689" lon="6.0207">
        <ele>444</ele>
        <time>2021-09-11T10:57:34.246Z</time>
      </trkpt>
      <trkpt lat="45.90688" lon="6.02067">
        <ele>445</ele>
        <time>2021-09-11T10:57:35.246Z</time>
      </trkpt>
      <trkpt lat="45.90687" lon="6.02065">
        <ele>445</ele>
        <time>2021-09-11T10:57:36.245Z</time>
      </trkpt>
      <trkpt lat="45.90687" lon="6.02063">
        <ele>445</ele>
        <time>2021-09-11T10:57:37.246Z</time>
      </trkpt>
      <trkpt lat="45.90686" lon="6.0206">
        <ele>445</ele>
        <time>2021-09-11T10:57:38.246Z</time>
      </trkpt>
      <trkpt lat="45.90685" lon="6.02058">
        <ele>444</ele>
        <time>2021-09-11T10:57:39.246Z</time>
      </trkpt>
      <trkpt lat="45.90684" lon="6.02057">
        <ele>443</ele>
        <time>2021-09-11T10:57:40.246Z</time>
      </trkpt>
      <trkpt lat="45.90684" lon="6.02056">
        <ele>443</ele>
        <time>2021-09-11T10:57:41.246Z</time>
      </trkpt>
      <trkpt lat="45.90683" lon="6.02056">
        <ele>442</ele>
        <time>2021-09-11T10:57:42.246Z</time>
      </trkpt>
      <trkpt lat="45.90683" lon="6.02055">
        <ele>443</ele>
        <time>2021-09-11T10:57:43.245Z</time>
      </trkpt>
      <trkpt lat="45.9068" lon="6.02045">
        <ele>443</ele>
        <time>2021-09-11T10:57:44.246Z</time>
      </trkpt>
      <trkpt lat="45.90679" lon="6.02042">
        <ele>443</ele>
        <time>2021-09-11T10:57:45.246Z</time>
      </trkpt>
      <trkpt lat="45.90677" lon="6.02039">
        <ele>443</ele>
        <time>2021-09-11T10:57:46.245Z</time>
      </trkpt>
      <trkpt lat="45.90676" lon="6.02037">
        <ele>443</ele>
        <time>2021-09-11T10:57:47.245Z</time>
      </trkpt>
      <trkpt lat="45.90675" lon="6.02035">
        <ele>443</ele>
        <time>2021-09-11T10:57:48.246Z</time>
      </trkpt>
      <trkpt lat="45.90674" lon="6.02032">
        <ele>443</ele>
        <time>2021-09-11T10:57:49.246Z</time>
      </trkpt>
      <trkpt lat="45.90673" lon="6.02029">
        <ele>442</ele>
        <time>2021-09-11T10:57:50.246Z</time>
      </trkpt>
      <trkpt lat="45.90672" lon="6.02027">
        <ele>442</ele>
        <time>2021-09-11T10:57:51.246Z</time>
      </trkpt>
      <trkpt lat="45.90672" lon="6.02024">
        <ele>441</ele>
        <time>2021-09-11T10:57:52.246Z</time>
      </trkpt>
      <trkpt lat="45.90671" lon="6.02022">
        <ele>440</ele>
        <time>2021-09-11T10:57:53.246Z</time>
      </trkpt>
      <trkpt lat="45.9067" lon="6.02019">
        <ele>440</ele>
        <time>2021-09-11T10:57:54.246Z</time>
      </trkpt>
      <trkpt lat="45.90669" lon="6.02017">
        <ele>439</ele>
        <time>2021-09-11T10:57:55.245Z</time>
      </trkpt>
      <trkpt lat="45.90668" lon="6.02014">
        <ele>439</ele>
        <time>2021-09-11T10:57:56.245Z</time>
      </trkpt>
      <trkpt lat="45.90667" lon="6.02012">
        <ele>438</ele>
        <time>2021-09-11T10:57:57.245Z</time>
      </trkpt>
      <trkpt lat="45.90666" lon="6.0201">
        <ele>438</ele>
        <time>2021-09-11T10:57:58.246Z</time>
      </trkpt>
      <trkpt lat="45.90664" lon="6.02008">
        <ele>437</ele>
        <time>2021-09-11T10:57:59.246Z</time>
      </trkpt>
      <trkpt lat="45.90663" lon="6.02006">
        <ele>436</ele>
        <time>2021-09-11T10:58:00.245Z</time>
      </trkpt>
      <trkpt lat="45.90662" lon="6.02004">
        <ele>436</ele>
        <time>2021-09-11T10:58:01.246Z</time>
      </trkpt>
      <trkpt lat="45.90662" lon="6.02001">
        <ele>435</ele>
        <time>2021-09-11T10:58:02.246Z</time>
      </trkpt>
      <trkpt lat="45.90661" lon="6.01998">
        <ele>435</ele>
        <time>2021-09-11T10:58:03.246Z</time>
      </trkpt>
      <trkpt lat="45.90659" lon="6.01994">
        <ele>435</ele>
        <time>2021-09-11T10:58:04.246Z</time>
      </trkpt>
      <trkpt lat="45.90658" lon="6.01991">
        <ele>434</ele>
        <time>2021-09-11T10:58:05.246Z</time>
      </trkpt>
      <trkpt lat="45.90657" lon="6.01989">
        <ele>433</ele>
        <time>2021-09-11T10:58:06.246Z</time>
      </trkpt>
      <trkpt lat="45.90657" lon="6.01986">
        <ele>433</ele>
        <time>2021-09-11T10:58:07.245Z</time>
      </trkpt>
      <trkpt lat="45.90655" lon="6.01983">
        <ele>433</ele>
        <time>2021-09-11T10:58:08.245Z</time>
      </trkpt>
      <trkpt lat="45.90655" lon="6.01981">
        <ele>432</ele>
        <time>2021-09-11T10:58:09.245Z</time>
      </trkpt>
      <trkpt lat="45.90654" lon="6.01978">
        <ele>432</ele>
        <time>2021-09-11T10:58:10.246Z</time>
      </trkpt>
      <trkpt lat="45.90653" lon="6.01976">
        <ele>432</ele>
        <time>2021-09-11T10:58:11.245Z</time>
      </trkpt>
      <trkpt lat="45.90652" lon="6.01973">
        <ele>431</ele>
        <time>2021-09-11T10:58:12.245Z</time>
      </trkpt>
      <trkpt lat="45.90651" lon="6.0197">
        <ele>431</ele>
        <time>2021-09-11T10:58:13.246Z</time>
      </trkpt>
      <trkpt lat="45.9065" lon="6.01967">
        <ele>431</ele>
        <time>2021-09-11T10:58:14.246Z</time>
      </trkpt>
      <trkpt lat="45.9065" lon="6.01964">
        <ele>431</ele>
        <time>2021-09-11T10:58:15.246Z</time>
      </trkpt>
      <trkpt lat="45.90649" lon="6.01961">
        <ele>430</ele>
        <time>2021-09-11T10:58:16.245Z</time>
      </trkpt>
      <trkpt lat="45.90648" lon="6.01957">
        <ele>429</ele>
        <time>2021-09-11T10:58:17.246Z</time>
      </trkpt>
      <trkpt lat="45.90648" lon="6.01953">
        <ele>428</ele>
        <time>2021-09-11T10:58:18.246Z</time>
      </trkpt>
      <trkpt lat="45.90648" lon="6.0195">
        <ele>427</ele>
        <time>2021-09-11T10:58:19.246Z</time>
      </trkpt>
      <trkpt lat="45.90648" lon="6.01947">
        <ele>427</ele>
        <time>2021-09-11T10:58:20.246Z</time>
      </trkpt>
      <trkpt lat="45.90648" lon="6.01945">
        <ele>427</ele>
        <time>2021-09-11T10:58:21.245Z</time>
      </trkpt>
      <trkpt lat="45.90648" lon="6.01941">
        <ele>427</ele>
        <time>2021-09-11T10:58:22.245Z</time>
      </trkpt>
      <trkpt lat="45.90649" lon="6.01939">
        <ele>427</ele>
        <time>2021-09-11T10:58:23.246Z</time>
      </trkpt>
      <trkpt lat="45.90649" lon="6.01937">
        <ele>427</ele>
        <time>2021-09-11T10:58:24.246Z</time>
      </trkpt>
      <trkpt lat="45.90649" lon="6.01935">
        <ele>426</ele>
        <time>2021-09-11T10:58:25.246Z</time>
      </trkpt>
      <trkpt lat="45.90649" lon="6.01935">
        <ele>425</ele>
        <time>2021-09-11T10:58:26.246Z</time>
      </trkpt>
      <trkpt lat="45.90649" lon="6.01934">
        <ele>425</ele>
        <time>2021-09-11T10:58:27.246Z</time>
      </trkpt>
      <trkpt lat="45.90649" lon="6.01933">
        <ele>424</ele>
        <time>2021-09-11T10:58:28.246Z</time>
      </trkpt>
      <trkpt lat="45.90648" lon="6.01933">
        <ele>424</ele>
        <time>2021-09-11T10:58:29.246Z</time>
      </trkpt>
      <trkpt lat="45.90648" lon="6.01933">
        <ele>423</ele>
        <time>2021-09-11T10:58:30.245Z</time>
      </trkpt>
      <trkpt lat="45.90647" lon="6.01932">
        <ele>423</ele>
        <time>2021-09-11T10:58:31.246Z</time>
      </trkpt>
      <trkpt lat="45.90647" lon="6.01932">
        <ele>423</ele>
        <time>2021-09-11T10:58:32.245Z</time>
      </trkpt>
      <trkpt lat="45.90647" lon="6.01932">
        <ele>424</ele>
        <time>2021-09-11T10:58:33.246Z</time>
      </trkpt>
      <trkpt lat="45.90647" lon="6.01931">
        <ele>424</ele>
        <time>2021-09-11T10:58:34.246Z</time>
      </trkpt>
      <trkpt lat="45.90647" lon="6.01931">
        <ele>424</ele>
        <time>2021-09-11T10:58:35.246Z</time>
      </trkpt>
      <trkpt lat="45.90647" lon="6.01928">
        <ele>424</ele>
        <time>2021-09-11T10:58:36.246Z</time>
      </trkpt>
      <trkpt lat="45.90647" lon="6.01927">
        <ele>424</ele>
        <time>2021-09-11T10:58:37.245Z</time>
      </trkpt>
      <trkpt lat="45.90651" lon="6.01921">
        <ele>417</ele>
        <time>2021-09-11T10:58:38.247Z</time>
      </trkpt>
      <trkpt lat="45.90652" lon="6.0192">
        <ele>417</ele>
        <time>2021-09-11T10:58:39.247Z</time>
      </trkpt>
      <trkpt lat="45.90652" lon="6.01918">
        <ele>416</ele>
        <time>2021-09-11T10:58:40.246Z</time>
      </trkpt>
      <trkpt lat="45.90652" lon="6.01916">
        <ele>416</ele>
        <time>2021-09-11T10:58:41.247Z</time>
      </trkpt>
      <trkpt lat="45.90654" lon="6.01915">
        <ele>416</ele>
        <time>2021-09-11T10:58:42.247Z</time>
      </trkpt>
      <trkpt lat="45.90654" lon="6.01913">
        <ele>416</ele>
        <time>2021-09-11T10:58:43.247Z</time>
      </trkpt>
      <trkpt lat="45.90654" lon="6.0191">
        <ele>415</ele>
        <time>2021-09-11T10:58:44.246Z</time>
      </trkpt>
      <trkpt lat="45.90654" lon="6.01909">
        <ele>415</ele>
        <time>2021-09-11T10:58:45.246Z</time>
      </trkpt>
      <trkpt lat="45.90653" lon="6.01908">
        <ele>415</ele>
        <time>2021-09-11T10:58:46.247Z</time>
      </trkpt>
      <trkpt lat="45.90653" lon="6.01907">
        <ele>415</ele>
        <time>2021-09-11T10:58:47.246Z</time>
      </trkpt>
      <trkpt lat="45.90653" lon="6.01906">
        <ele>415</ele>
        <time>2021-09-11T10:58:48.247Z</time>
      </trkpt>
      <trkpt lat="45.90653" lon="6.01905">
        <ele>415</ele>
        <time>2021-09-11T10:58:49.246Z</time>
      </trkpt>
      <trkpt lat="45.90653" lon="6.01903">
        <ele>415</ele>
        <time>2021-09-11T10:58:50.246Z</time>
      </trkpt>
      <trkpt lat="45.90653" lon="6.01903">
        <ele>415</ele>
        <time>2021-09-11T10:58:51.247Z</time>
      </trkpt>
      <trkpt lat="45.90653" lon="6.01902">
        <ele>414</ele>
        <time>2021-09-11T10:58:52.246Z</time>
      </trkpt>
      <trkpt lat="45.90653" lon="6.01902">
        <ele>414</ele>
        <time>2021-09-11T10:58:53.247Z</time>
      </trkpt>
      <trkpt lat="45.90652" lon="6.01901">
        <ele>414</ele>
        <time>2021-09-11T10:58:54.246Z</time>
      </trkpt>
      <trkpt lat="45.90652" lon="6.01901">
        <ele>414</ele>
        <time>2021-09-11T10:58:55.247Z</time>
      </trkpt>
      <trkpt lat="45.90651" lon="6.019">
        <ele>413</ele>
        <time>2021-09-11T10:58:56.246Z</time>
      </trkpt>
      <trkpt lat="45.90651" lon="6.01898">
        <ele>413</ele>
        <time>2021-09-11T10:58:57.247Z</time>
      </trkpt>
      <trkpt lat="45.90651" lon="6.01897">
        <ele>413</ele>
        <time>2021-09-11T10:58:58.247Z</time>
      </trkpt>
      <trkpt lat="45.9065" lon="6.01896">
        <ele>412</ele>
        <time>2021-09-11T10:58:59.247Z</time>
      </trkpt>
      <trkpt lat="45.9065" lon="6.01894">
        <ele>412</ele>
        <time>2021-09-11T10:59:00.246Z</time>
      </trkpt>
      <trkpt lat="45.9065" lon="6.01893">
        <ele>412</ele>
        <time>2021-09-11T10:59:01.247Z</time>
      </trkpt>
      <trkpt lat="45.90649" lon="6.0189">
        <ele>411</ele>
        <time>2021-09-11T10:59:02.247Z</time>
      </trkpt>
      <trkpt lat="45.90648" lon="6.01888">
        <ele>411</ele>
        <time>2021-09-11T10:59:03.246Z</time>
      </trkpt>
      <trkpt lat="45.90648" lon="6.01886">
        <ele>411</ele>
        <time>2021-09-11T10:59:04.247Z</time>
      </trkpt>
      <trkpt lat="45.90648" lon="6.01884">
        <ele>410</ele>
        <time>2021-09-11T10:59:05.247Z</time>
      </trkpt>
      <trkpt lat="45.90648" lon="6.01883">
        <ele>410</ele>
        <time>2021-09-11T10:59:06.247Z</time>
      </trkpt>
      <trkpt lat="45.90647" lon="6.01882">
        <ele>410</ele>
        <time>2021-09-11T10:59:07.247Z</time>
      </trkpt>
      <trkpt lat="45.90646" lon="6.01879">
        <ele>409</ele>
        <time>2021-09-11T10:59:08.247Z</time>
      </trkpt>
      <trkpt lat="45.90645" lon="6.01876">
        <ele>409</ele>
        <time>2021-09-11T10:59:09.247Z</time>
      </trkpt>
      <trkpt lat="45.90645" lon="6.01875">
        <ele>408</ele>
        <time>2021-09-11T10:59:10.247Z</time>
      </trkpt>
      <trkpt lat="45.90645" lon="6.01873">
        <ele>408</ele>
        <time>2021-09-11T10:59:11.247Z</time>
      </trkpt>
      <trkpt lat="45.90644" lon="6.01871">
        <ele>408</ele>
        <time>2021-09-11T10:59:12.247Z</time>
      </trkpt>
      <trkpt lat="45.90644" lon="6.0187">
        <ele>408</ele>
        <time>2021-09-11T10:59:13.247Z</time>
      </trkpt>
      <trkpt lat="45.90644" lon="6.01869">
        <ele>408</ele>
        <time>2021-09-11T10:59:14.246Z</time>
      </trkpt>
      <trkpt lat="45.90644" lon="6.01867">
        <ele>408</ele>
        <time>2021-09-11T10:59:15.247Z</time>
      </trkpt>
      <trkpt lat="45.90644" lon="6.01866">
        <ele>409</ele>
        <time>2021-09-11T10:59:16.247Z</time>
      </trkpt>
      <trkpt lat="45.90644" lon="6.01864">
        <ele>409</ele>
        <time>2021-09-11T10:59:17.246Z</time>
      </trkpt>
      <trkpt lat="45.90644" lon="6.01862">
        <ele>409</ele>
        <time>2021-09-11T10:59:18.246Z</time>
      </trkpt>
      <trkpt lat="45.90644" lon="6.01861">
        <ele>409</ele>
        <time>2021-09-11T10:59:19.246Z</time>
      </trkpt>
      <trkpt lat="45.90644" lon="6.01859">
        <ele>409</ele>
        <time>2021-09-11T10:59:20.247Z</time>
      </trkpt>
      <trkpt lat="45.90644" lon="6.01858">
        <ele>409</ele>
        <time>2021-09-11T10:59:21.247Z</time>
      </trkpt>
      <trkpt lat="45.90644" lon="6.01856">
        <ele>408</ele>
        <time>2021-09-11T10:59:22.247Z</time>
      </trkpt>
      <trkpt lat="45.90644" lon="6.01855">
        <ele>408</ele>
        <time>2021-09-11T10:59:23.247Z</time>
      </trkpt>
      <trkpt lat="45.90644" lon="6.01854">
        <ele>408</ele>
        <time>2021-09-11T10:59:24.247Z</time>
      </trkpt>
      <trkpt lat="45.90643" lon="6.01852">
        <ele>408</ele>
        <time>2021-09-11T10:59:25.246Z</time>
      </trkpt>
      <trkpt lat="45.90643" lon="6.01851">
        <ele>408</ele>
        <time>2021-09-11T10:59:26.247Z</time>
      </trkpt>
      <trkpt lat="45.90643" lon="6.0185">
        <ele>408</ele>
        <time>2021-09-11T10:59:27.247Z</time>
      </trkpt>
      <trkpt lat="45.90644" lon="6.01849">
        <ele>408</ele>
        <time>2021-09-11T10:59:28.247Z</time>
      </trkpt>
      <trkpt lat="45.90644" lon="6.01847">
        <ele>408</ele>
        <time>2021-09-11T10:59:29.247Z</time>
      </trkpt>
      <trkpt lat="45.90643" lon="6.01845">
        <ele>408</ele>
        <time>2021-09-11T10:59:30.247Z</time>
      </trkpt>
      <trkpt lat="45.90644" lon="6.01844">
        <ele>408</ele>
        <time>2021-09-11T10:59:31.246Z</time>
      </trkpt>
      <trkpt lat="45.90644" lon="6.01842">
        <ele>407</ele>
        <time>2021-09-11T10:59:32.247Z</time>
      </trkpt>
      <trkpt lat="45.90643" lon="6.0184">
        <ele>407</ele>
        <time>2021-09-11T10:59:33.246Z</time>
      </trkpt>
      <trkpt lat="45.90643" lon="6.01839">
        <ele>407</ele>
        <time>2021-09-11T10:59:34.246Z</time>
      </trkpt>
      <trkpt lat="45.90643" lon="6.01838">
        <ele>407</ele>
        <time>2021-09-11T10:59:35.247Z</time>
      </trkpt>
      <trkpt lat="45.90643" lon="6.01837">
        <ele>407</ele>
        <time>2021-09-11T10:59:36.247Z</time>
      </trkpt>
      <trkpt lat="45.90643" lon="6.01836">
        <ele>407</ele>
        <time>2021-09-11T10:59:37.247Z</time>
      </trkpt>
      <trkpt lat="45.90643" lon="6.01836">
        <ele>406</ele>
        <time>2021-09-11T10:59:38.247Z</time>
      </trkpt>
      <trkpt lat="45.90641" lon="6.01834">
        <ele>399</ele>
        <time>2021-09-11T10:59:39.248Z</time>
      </trkpt>
      <trkpt lat="45.9064" lon="6.01833">
        <ele>398</ele>
        <time>2021-09-11T10:59:40.247Z</time>
      </trkpt>
      <trkpt lat="45.9064" lon="6.01833">
        <ele>398</ele>
        <time>2021-09-11T10:59:41.247Z</time>
      </trkpt>
      <trkpt lat="45.9064" lon="6.01832">
        <ele>398</ele>
        <time>2021-09-11T10:59:42.248Z</time>
      </trkpt>
      <trkpt lat="45.90637" lon="6.01822">
        <ele>410</ele>
        <time>2021-09-11T10:59:43.248Z</time>
      </trkpt>
      <trkpt lat="45.90637" lon="6.0182">
        <ele>410</ele>
        <time>2021-09-11T10:59:44.247Z</time>
      </trkpt>
      <trkpt lat="45.90637" lon="6.01817">
        <ele>410</ele>
        <time>2021-09-11T10:59:45.247Z</time>
      </trkpt>
      <trkpt lat="45.90636" lon="6.01814">
        <ele>410</ele>
        <time>2021-09-11T10:59:46.248Z</time>
      </trkpt>
      <trkpt lat="45.90635" lon="6.01811">
        <ele>410</ele>
        <time>2021-09-11T10:59:47.248Z</time>
      </trkpt>
      <trkpt lat="45.90635" lon="6.01809">
        <ele>409</ele>
        <time>2021-09-11T10:59:48.248Z</time>
      </trkpt>
      <trkpt lat="45.90635" lon="6.01807">
        <ele>409</ele>
        <time>2021-09-11T10:59:49.248Z</time>
      </trkpt>
      <trkpt lat="45.90635" lon="6.01804">
        <ele>408</ele>
        <time>2021-09-11T10:59:50.248Z</time>
      </trkpt>
      <trkpt lat="45.90635" lon="6.01803">
        <ele>408</ele>
        <time>2021-09-11T10:59:51.248Z</time>
      </trkpt>
      <trkpt lat="45.90634" lon="6.01801">
        <ele>407</ele>
        <time>2021-09-11T10:59:52.247Z</time>
      </trkpt>
      <trkpt lat="45.90634" lon="6.018">
        <ele>406</ele>
        <time>2021-09-11T10:59:53.248Z</time>
      </trkpt>
      <trkpt lat="45.90633" lon="6.01798">
        <ele>406</ele>
        <time>2021-09-11T10:59:54.248Z</time>
      </trkpt>
      <trkpt lat="45.90632" lon="6.01796">
        <ele>405</ele>
        <time>2021-09-11T10:59:55.247Z</time>
      </trkpt>
      <trkpt lat="45.90632" lon="6.01795">
        <ele>404</ele>
        <time>2021-09-11T10:59:56.248Z</time>
      </trkpt>
      <trkpt lat="45.90632" lon="6.01794">
        <ele>404</ele>
        <time>2021-09-11T10:59:57.247Z</time>
      </trkpt>
      <trkpt lat="45.90631" lon="6.01793">
        <ele>404</ele>
        <time>2021-09-11T10:59:58.247Z</time>
      </trkpt>
      <trkpt lat="45.90631" lon="6.01792">
        <ele>403</ele>
        <time>2021-09-11T10:59:59.248Z</time>
      </trkpt>
      <trkpt lat="45.90635" lon="6.01793">
        <ele>401</ele>
        <time>2021-09-11T11:00:00.248Z</time>
      </trkpt>
      <trkpt lat="45.90631" lon="6.01791">
        <ele>403</ele>
        <time>2021-09-11T11:00:01.249Z</time>
      </trkpt>
      <trkpt lat="45.90631" lon="6.0179">
        <ele>403</ele>
        <time>2021-09-11T11:00:02.248Z</time>
      </trkpt>
      <trkpt lat="45.90631" lon="6.01789">
        <ele>403</ele>
        <time>2021-09-11T11:00:03.248Z</time>
      </trkpt>
      <trkpt lat="45.90632" lon="6.01788">
        <ele>403</ele>
        <time>2021-09-11T11:00:04.249Z</time>
      </trkpt>
      <trkpt lat="45.90633" lon="6.01786">
        <ele>403</ele>
        <time>2021-09-11T11:00:05.248Z</time>
      </trkpt>
      <trkpt lat="45.90633" lon="6.01785">
        <ele>402</ele>
        <time>2021-09-11T11:00:06.249Z</time>
      </trkpt>
      <trkpt lat="45.90633" lon="6.01783">
        <ele>402</ele>
        <time>2021-09-11T11:00:07.248Z</time>
      </trkpt>
      <trkpt lat="45.90633" lon="6.01781">
        <ele>401</ele>
        <time>2021-09-11T11:00:08.249Z</time>
      </trkpt>
      <trkpt lat="45.90633" lon="6.0178">
        <ele>401</ele>
        <time>2021-09-11T11:00:09.249Z</time>
      </trkpt>
      <trkpt lat="45.90633" lon="6.01779">
        <ele>400</ele>
        <time>2021-09-11T11:00:10.249Z</time>
      </trkpt>
      <trkpt lat="45.90633" lon="6.01778">
        <ele>400</ele>
        <time>2021-09-11T11:00:11.248Z</time>
      </trkpt>
      <trkpt lat="45.90633" lon="6.01778">
        <ele>400</ele>
        <time>2021-09-11T11:00:12.248Z</time>
      </trkpt>
      <trkpt lat="45.90633" lon="6.01777">
        <ele>399</ele>
        <time>2021-09-11T11:00:13.249Z</time>
      </trkpt>
      <trkpt lat="45.90633" lon="6.01777">
        <ele>399</ele>
        <time>2021-09-11T11:00:14.249Z</time>
      </trkpt>
      <trkpt lat="45.90634" lon="6.01775">
        <ele>398</ele>
        <time>2021-09-11T11:00:15.248Z</time>
      </trkpt>
      <trkpt lat="45.90634" lon="6.01775">
        <ele>398</ele>
        <time>2021-09-11T11:00:16.249Z</time>
      </trkpt>
      <trkpt lat="45.90634" lon="6.01773">
        <ele>397</ele>
        <time>2021-09-11T11:00:17.248Z</time>
      </trkpt>
      <trkpt lat="45.90634" lon="6.01773">
        <ele>396</ele>
        <time>2021-09-11T11:00:18.248Z</time>
      </trkpt>
      <trkpt lat="45.90635" lon="6.01772">
        <ele>396</ele>
        <time>2021-09-11T11:00:19.248Z</time>
      </trkpt>
      <trkpt lat="45.90635" lon="6.01771">
        <ele>396</ele>
        <time>2021-09-11T11:00:20.249Z</time>
      </trkpt>
      <trkpt lat="45.90636" lon="6.0177">
        <ele>395</ele>
        <time>2021-09-11T11:00:21.248Z</time>
      </trkpt>
      <trkpt lat="45.90636" lon="6.01768">
        <ele>395</ele>
        <time>2021-09-11T11:00:22.249Z</time>
      </trkpt>
      <trkpt lat="45.90637" lon="6.01767">
        <ele>394</ele>
        <time>2021-09-11T11:00:23.249Z</time>
      </trkpt>
      <trkpt lat="45.90638" lon="6.01766">
        <ele>394</ele>
        <time>2021-09-11T11:00:24.248Z</time>
      </trkpt>
      <trkpt lat="45.90638" lon="6.01766">
        <ele>393</ele>
        <time>2021-09-11T11:00:25.248Z</time>
      </trkpt>
      <trkpt lat="45.90639" lon="6.01765">
        <ele>392</ele>
        <time>2021-09-11T11:00:26.248Z</time>
      </trkpt>
      <trkpt lat="45.90639" lon="6.01764">
        <ele>391</ele>
        <time>2021-09-11T11:00:27.249Z</time>
      </trkpt>
      <trkpt lat="45.9064" lon="6.01764">
        <ele>390</ele>
        <time>2021-09-11T11:00:28.249Z</time>
      </trkpt>
      <trkpt lat="45.90641" lon="6.01763">
        <ele>389</ele>
        <time>2021-09-11T11:00:29.248Z</time>
      </trkpt>
      <trkpt lat="45.90642" lon="6.01762">
        <ele>389</ele>
        <time>2021-09-11T11:00:30.248Z</time>
      </trkpt>
      <trkpt lat="45.90642" lon="6.0176">
        <ele>388</ele>
        <time>2021-09-11T11:00:31.249Z</time>
      </trkpt>
      <trkpt lat="45.90642" lon="6.01759">
        <ele>387</ele>
        <time>2021-09-11T11:00:32.249Z</time>
      </trkpt>
      <trkpt lat="45.90643" lon="6.01758">
        <ele>386</ele>
        <time>2021-09-11T11:00:33.248Z</time>
      </trkpt>
      <trkpt lat="45.90643" lon="6.01757">
        <ele>386</ele>
        <time>2021-09-11T11:00:34.248Z</time>
      </trkpt>
      <trkpt lat="45.90644" lon="6.01756">
        <ele>385</ele>
        <time>2021-09-11T11:00:35.249Z</time>
      </trkpt>
      <trkpt lat="45.90644" lon="6.01756">
        <ele>385</ele>
        <time>2021-09-11T11:00:36.249Z</time>
      </trkpt>
      <trkpt lat="45.90645" lon="6.01755">
        <ele>385</ele>
        <time>2021-09-11T11:00:37.248Z</time>
      </trkpt>
      <trkpt lat="45.90645" lon="6.01754">
        <ele>385</ele>
        <time>2021-09-11T11:00:38.249Z</time>
      </trkpt>
      <trkpt lat="45.90645" lon="6.01753">
        <ele>386</ele>
        <time>2021-09-11T11:00:39.248Z</time>
      </trkpt>
      <trkpt lat="45.90645" lon="6.01753">
        <ele>386</ele>
        <time>2021-09-11T11:00:40.249Z</time>
      </trkpt>
      <trkpt lat="45.90644" lon="6.01754">
        <ele>387</ele>
        <time>2021-09-11T11:00:41.248Z</time>
      </trkpt>
      <trkpt lat="45.90641" lon="6.0175">
        <ele>394</ele>
        <time>2021-09-11T11:00:42.249Z</time>
      </trkpt>
      <trkpt lat="45.9064" lon="6.01748">
        <ele>394</ele>
        <time>2021-09-11T11:00:43.249Z</time>
      </trkpt>
      <trkpt lat="45.90639" lon="6.01746">
        <ele>394</ele>
        <time>2021-09-11T11:00:44.248Z</time>
      </trkpt>
      <trkpt lat="45.90638" lon="6.01744">
        <ele>394</ele>
        <time>2021-09-11T11:00:45.248Z</time>
      </trkpt>
      <trkpt lat="45.90637" lon="6.01742">
        <ele>394</ele>
        <time>2021-09-11T11:00:46.248Z</time>
      </trkpt>
      <trkpt lat="45.90636" lon="6.0174">
        <ele>394</ele>
        <time>2021-09-11T11:00:47.249Z</time>
      </trkpt>
      <trkpt lat="45.90635" lon="6.01738">
        <ele>394</ele>
        <time>2021-09-11T11:00:48.249Z</time>
      </trkpt>
      <trkpt lat="45.90634" lon="6.01735">
        <ele>394</ele>
        <time>2021-09-11T11:00:49.249Z</time>
      </trkpt>
      <trkpt lat="45.90633" lon="6.01734">
        <ele>394</ele>
        <time>2021-09-11T11:00:50.248Z</time>
      </trkpt>
      <trkpt lat="45.90632" lon="6.01734">
        <ele>394</ele>
        <time>2021-09-11T11:00:51.248Z</time>
      </trkpt>
      <trkpt lat="45.90631" lon="6.01732">
        <ele>394</ele>
        <time>2021-09-11T11:00:52.248Z</time>
      </trkpt>
      <trkpt lat="45.9063" lon="6.01731">
        <ele>394</ele>
        <time>2021-09-11T11:00:53.249Z</time>
      </trkpt>
      <trkpt lat="45.90628" lon="6.0173">
        <ele>394</ele>
        <time>2021-09-11T11:00:54.249Z</time>
      </trkpt>
      <trkpt lat="45.90626" lon="6.01729">
        <ele>394</ele>
        <time>2021-09-11T11:00:55.248Z</time>
      </trkpt>
      <trkpt lat="45.90624" lon="6.01728">
        <ele>395</ele>
        <time>2021-09-11T11:00:56.249Z</time>
      </trkpt>
      <trkpt lat="45.90623" lon="6.01727">
        <ele>395</ele>
        <time>2021-09-11T11:00:57.248Z</time>
      </trkpt>
      <trkpt lat="45.90621" lon="6.01726">
        <ele>396</ele>
        <time>2021-09-11T11:00:58.248Z</time>
      </trkpt>
      <trkpt lat="45.9062" lon="6.01726">
        <ele>396</ele>
        <time>2021-09-11T11:00:59.249Z</time>
      </trkpt>
      <trkpt lat="45.90619" lon="6.01725">
        <ele>396</ele>
        <time>2021-09-11T11:01:00.248Z</time>
      </trkpt>
      <trkpt lat="45.90619" lon="6.01724">
        <ele>396</ele>
        <time>2021-09-11T11:01:01.249Z</time>
      </trkpt>
      <trkpt lat="45.90618" lon="6.01723">
        <ele>397</ele>
        <time>2021-09-11T11:01:02.248Z</time>
      </trkpt>
      <trkpt lat="45.90618" lon="6.01722">
        <ele>397</ele>
        <time>2021-09-11T11:01:03.249Z</time>
      </trkpt>
      <trkpt lat="45.90618" lon="6.01722">
        <ele>397</ele>
        <time>2021-09-11T11:01:04.248Z</time>
      </trkpt>
      <trkpt lat="45.90618" lon="6.01721">
        <ele>397</ele>
        <time>2021-09-11T11:01:05.249Z</time>
      </trkpt>
      <trkpt lat="45.90618" lon="6.01719">
        <ele>397</ele>
        <time>2021-09-11T11:01:06.248Z</time>
      </trkpt>
      <trkpt lat="45.90618" lon="6.01718">
        <ele>397</ele>
        <time>2021-09-11T11:01:07.249Z</time>
      </trkpt>
      <trkpt lat="45.90618" lon="6.01717">
        <ele>398</ele>
        <time>2021-09-11T11:01:08.248Z</time>
      </trkpt>
      <trkpt lat="45.90618" lon="6.01715">
        <ele>398</ele>
        <time>2021-09-11T11:01:09.249Z</time>
      </trkpt>
      <trkpt lat="45.90619" lon="6.01714">
        <ele>399</ele>
        <time>2021-09-11T11:01:10.249Z</time>
      </trkpt>
      <trkpt lat="45.90619" lon="6.01712">
        <ele>399</ele>
        <time>2021-09-11T11:01:11.249Z</time>
      </trkpt>
      <trkpt lat="45.90619" lon="6.01711">
        <ele>399</ele>
        <time>2021-09-11T11:01:12.249Z</time>
      </trkpt>
      <trkpt lat="45.90619" lon="6.01709">
        <ele>400</ele>
        <time>2021-09-11T11:01:13.249Z</time>
      </trkpt>
      <trkpt lat="45.90619" lon="6.01709">
        <ele>400</ele>
        <time>2021-09-11T11:01:14.249Z</time>
      </trkpt>
      <trkpt lat="45.9062" lon="6.01709">
        <ele>399</ele>
        <time>2021-09-11T11:01:15.249Z</time>
      </trkpt>
      <trkpt lat="45.9062" lon="6.01709">
        <ele>399</ele>
        <time>2021-09-11T11:01:16.248Z</time>
      </trkpt>
      <trkpt lat="45.9062" lon="6.0171">
        <ele>399</ele>
        <time>2021-09-11T11:01:17.249Z</time>
      </trkpt>
      <trkpt lat="45.90619" lon="6.0171">
        <ele>398</ele>
        <time>2021-09-11T11:01:18.250Z</time>
      </trkpt>
      <trkpt lat="45.90617" lon="6.01711">
        <ele>398</ele>
        <time>2021-09-11T11:01:19.250Z</time>
      </trkpt>
      <trkpt lat="45.90616" lon="6.01712">
        <ele>397</ele>
        <time>2021-09-11T11:01:20.249Z</time>
      </trkpt>
      <trkpt lat="45.90615" lon="6.01712">
        <ele>397</ele>
        <time>2021-09-11T11:01:21.249Z</time>
      </trkpt>
      <trkpt lat="45.90615" lon="6.01714">
        <ele>397</ele>
        <time>2021-09-11T11:01:22.250Z</time>
      </trkpt>
      <trkpt lat="45.90615" lon="6.01715">
        <ele>398</ele>
        <time>2021-09-11T11:01:23.250Z</time>
      </trkpt>
      <trkpt lat="45.90615" lon="6.01717">
        <ele>398</ele>
        <time>2021-09-11T11:01:24.250Z</time>
      </trkpt>
      <trkpt lat="45.90614" lon="6.01718">
        <ele>398</ele>
        <time>2021-09-11T11:01:25.249Z</time>
      </trkpt>
      <trkpt lat="45.90613" lon="6.01718">
        <ele>398</ele>
        <time>2021-09-11T11:01:26.250Z</time>
      </trkpt>
      <trkpt lat="45.90612" lon="6.01718">
        <ele>398</ele>
        <time>2021-09-11T11:01:27.249Z</time>
      </trkpt>
      <trkpt lat="45.90611" lon="6.01718">
        <ele>398</ele>
        <time>2021-09-11T11:01:28.250Z</time>
      </trkpt>
      <trkpt lat="45.9061" lon="6.01718">
        <ele>398</ele>
        <time>2021-09-11T11:01:29.250Z</time>
      </trkpt>
      <trkpt lat="45.90608" lon="6.01717">
        <ele>398</ele>
        <time>2021-09-11T11:01:30.250Z</time>
      </trkpt>
      <trkpt lat="45.90607" lon="6.01717">
        <ele>399</ele>
        <time>2021-09-11T11:01:31.249Z</time>
      </trkpt>
      <trkpt lat="45.90605" lon="6.01716">
        <ele>399</ele>
        <time>2021-09-11T11:01:32.250Z</time>
      </trkpt>
      <trkpt lat="45.90603" lon="6.01715">
        <ele>399</ele>
        <time>2021-09-11T11:01:33.250Z</time>
      </trkpt>
      <trkpt lat="45.90601" lon="6.01714">
        <ele>400</ele>
        <time>2021-09-11T11:01:34.250Z</time>
      </trkpt>
      <trkpt lat="45.90599" lon="6.01713">
        <ele>400</ele>
        <time>2021-09-11T11:01:35.250Z</time>
      </trkpt>
      <trkpt lat="45.90598" lon="6.01712">
        <ele>400</ele>
        <time>2021-09-11T11:01:36.250Z</time>
      </trkpt>
      <trkpt lat="45.90597" lon="6.01711">
        <ele>400</ele>
        <time>2021-09-11T11:01:37.250Z</time>
      </trkpt>
      <trkpt lat="45.90596" lon="6.0171">
        <ele>401</ele>
        <time>2021-09-11T11:01:38.249Z</time>
      </trkpt>
      <trkpt lat="45.90595" lon="6.01708">
        <ele>400</ele>
        <time>2021-09-11T11:01:39.250Z</time>
      </trkpt>
      <trkpt lat="45.90595" lon="6.01707">
        <ele>400</ele>
        <time>2021-09-11T11:01:40.250Z</time>
      </trkpt>
      <trkpt lat="45.90594" lon="6.01706">
        <ele>400</ele>
        <time>2021-09-11T11:01:41.250Z</time>
      </trkpt>
      <trkpt lat="45.90594" lon="6.01705">
        <ele>400</ele>
        <time>2021-09-11T11:01:42.250Z</time>
      </trkpt>
      <trkpt lat="45.90593" lon="6.01704">
        <ele>400</ele>
        <time>2021-09-11T11:01:43.250Z</time>
      </trkpt>
      <trkpt lat="45.90593" lon="6.01703">
        <ele>399</ele>
        <time>2021-09-11T11:01:44.250Z</time>
      </trkpt>
      <trkpt lat="45.90593" lon="6.01702">
        <ele>399</ele>
        <time>2021-09-11T11:01:45.250Z</time>
      </trkpt>
      <trkpt lat="45.90592" lon="6.017">
        <ele>398</ele>
        <time>2021-09-11T11:01:46.250Z</time>
      </trkpt>
      <trkpt lat="45.90591" lon="6.01699">
        <ele>398</ele>
        <time>2021-09-11T11:01:47.250Z</time>
      </trkpt>
      <trkpt lat="45.90591" lon="6.01698">
        <ele>398</ele>
        <time>2021-09-11T11:01:48.250Z</time>
      </trkpt>
      <trkpt lat="45.90591" lon="6.01698">
        <ele>398</ele>
        <time>2021-09-11T11:01:49.250Z</time>
      </trkpt>
      <trkpt lat="45.9059" lon="6.01698">
        <ele>398</ele>
        <time>2021-09-11T11:01:50.250Z</time>
      </trkpt>
      <trkpt lat="45.90588" lon="6.01696">
        <ele>403</ele>
        <time>2021-09-11T11:01:51.251Z</time>
      </trkpt>
      <trkpt lat="45.90588" lon="6.01695">
        <ele>401</ele>
        <time>2021-09-11T11:01:52.251Z</time>
      </trkpt>
      <trkpt lat="45.90587" lon="6.01694">
        <ele>400</ele>
        <time>2021-09-11T11:01:53.251Z</time>
      </trkpt>
      <trkpt lat="45.90587" lon="6.01693">
        <ele>399</ele>
        <time>2021-09-11T11:01:54.251Z</time>
      </trkpt>
      <trkpt lat="45.90586" lon="6.01692">
        <ele>397</ele>
        <time>2021-09-11T11:01:55.250Z</time>
      </trkpt>
      <trkpt lat="45.90585" lon="6.01692">
        <ele>396</ele>
        <time>2021-09-11T11:01:56.251Z</time>
      </trkpt>
      <trkpt lat="45.90584" lon="6.01692">
        <ele>396</ele>
        <time>2021-09-11T11:01:57.251Z</time>
      </trkpt>
      <trkpt lat="45.90583" lon="6.01691">
        <ele>395</ele>
        <time>2021-09-11T11:01:58.251Z</time>
      </trkpt>
      <trkpt lat="45.90583" lon="6.0169">
        <ele>394</ele>
        <time>2021-09-11T11:01:59.250Z</time>
      </trkpt>
      <trkpt lat="45.90583" lon="6.0169">
        <ele>393</ele>
        <time>2021-09-11T11:02:00.251Z</time>
      </trkpt>
      <trkpt lat="45.90582" lon="6.0169">
        <ele>392</ele>
        <time>2021-09-11T11:02:01.251Z</time>
      </trkpt>
      <trkpt lat="45.90582" lon="6.01689">
        <ele>392</ele>
        <time>2021-09-11T11:02:02.250Z</time>
      </trkpt>
      <trkpt lat="45.90582" lon="6.01689">
        <ele>392</ele>
        <time>2021-09-11T11:02:03.251Z</time>
      </trkpt>
      <trkpt lat="45.90581" lon="6.01689">
        <ele>391</ele>
        <time>2021-09-11T11:02:04.251Z</time>
      </trkpt>
      <trkpt lat="45.9058" lon="6.01689">
        <ele>391</ele>
        <time>2021-09-11T11:02:05.250Z</time>
      </trkpt>
      <trkpt lat="45.9058" lon="6.01689">
        <ele>390</ele>
        <time>2021-09-11T11:02:06.250Z</time>
      </trkpt>
      <trkpt lat="45.90579" lon="6.0169">
        <ele>389</ele>
        <time>2021-09-11T11:02:07.251Z</time>
      </trkpt>
      <trkpt lat="45.90578" lon="6.0169">
        <ele>389</ele>
        <time>2021-09-11T11:02:08.251Z</time>
      </trkpt>
      <trkpt lat="45.90577" lon="6.01689">
        <ele>388</ele>
        <time>2021-09-11T11:02:09.251Z</time>
      </trkpt>
      <trkpt lat="45.90576" lon="6.01689">
        <ele>387</ele>
        <time>2021-09-11T11:02:10.251Z</time>
      </trkpt>
      <trkpt lat="45.90576" lon="6.01688">
        <ele>387</ele>
        <time>2021-09-11T11:02:11.251Z</time>
      </trkpt>
      <trkpt lat="45.90575" lon="6.01688">
        <ele>387</ele>
        <time>2021-09-11T11:02:12.251Z</time>
      </trkpt>
      <trkpt lat="45.90575" lon="6.01688">
        <ele>387</ele>
        <time>2021-09-11T11:02:13.251Z</time>
      </trkpt>
      <trkpt lat="45.90575" lon="6.01686">
        <ele>386</ele>
        <time>2021-09-11T11:02:14.252Z</time>
      </trkpt>
      <trkpt lat="45.90575" lon="6.01686">
        <ele>386</ele>
        <time>2021-09-11T11:02:15.252Z</time>
      </trkpt>
      <trkpt lat="45.90573" lon="6.01684">
        <ele>386</ele>
        <time>2021-09-11T11:02:16.251Z</time>
      </trkpt>
      <trkpt lat="45.90572" lon="6.01682">
        <ele>387</ele>
        <time>2021-09-11T11:02:17.251Z</time>
      </trkpt>
      <trkpt lat="45.90572" lon="6.0168">
        <ele>387</ele>
        <time>2021-09-11T11:02:18.252Z</time>
      </trkpt>
      <trkpt lat="45.9057" lon="6.01678">
        <ele>387</ele>
        <time>2021-09-11T11:02:19.252Z</time>
      </trkpt>
      <trkpt lat="45.9057" lon="6.01676">
        <ele>388</ele>
        <time>2021-09-11T11:02:20.252Z</time>
      </trkpt>
      <trkpt lat="45.9057" lon="6.01674">
        <ele>388</ele>
        <time>2021-09-11T11:02:21.252Z</time>
      </trkpt>
      <trkpt lat="45.9057" lon="6.01673">
        <ele>388</ele>
        <time>2021-09-11T11:02:22.252Z</time>
      </trkpt>
      <trkpt lat="45.90569" lon="6.01671">
        <ele>388</ele>
        <time>2021-09-11T11:02:23.252Z</time>
      </trkpt>
      <trkpt lat="45.90568" lon="6.0167">
        <ele>388</ele>
        <time>2021-09-11T11:02:24.252Z</time>
      </trkpt>
      <trkpt lat="45.90568" lon="6.01668">
        <ele>389</ele>
        <time>2021-09-11T11:02:25.252Z</time>
      </trkpt>
      <trkpt lat="45.90568" lon="6.01667">
        <ele>389</ele>
        <time>2021-09-11T11:02:26.252Z</time>
      </trkpt>
      <trkpt lat="45.90567" lon="6.01666">
        <ele>389</ele>
        <time>2021-09-11T11:02:27.252Z</time>
      </trkpt>
      <trkpt lat="45.90567" lon="6.01665">
        <ele>389</ele>
        <time>2021-09-11T11:02:28.252Z</time>
      </trkpt>
      <trkpt lat="45.90566" lon="6.01663">
        <ele>389</ele>
        <time>2021-09-11T11:02:29.252Z</time>
      </trkpt>
      <trkpt lat="45.90565" lon="6.01661">
        <ele>389</ele>
        <time>2021-09-11T11:02:30.252Z</time>
      </trkpt>
      <trkpt lat="45.90565" lon="6.0166">
        <ele>389</ele>
        <time>2021-09-11T11:02:31.252Z</time>
      </trkpt>
      <trkpt lat="45.90564" lon="6.01658">
        <ele>389</ele>
        <time>2021-09-11T11:02:32.252Z</time>
      </trkpt>
      <trkpt lat="45.90564" lon="6.01657">
        <ele>388</ele>
        <time>2021-09-11T11:02:33.252Z</time>
      </trkpt>
      <trkpt lat="45.90564" lon="6.01656">
        <ele>388</ele>
        <time>2021-09-11T11:02:34.252Z</time>
      </trkpt>
      <trkpt lat="45.90563" lon="6.01655">
        <ele>388</ele>
        <time>2021-09-11T11:02:35.252Z</time>
      </trkpt>
      <trkpt lat="45.90563" lon="6.01653">
        <ele>387</ele>
        <time>2021-09-11T11:02:36.252Z</time>
      </trkpt>
      <trkpt lat="45.90562" lon="6.01652">
        <ele>387</ele>
        <time>2021-09-11T11:02:37.251Z</time>
      </trkpt>
      <trkpt lat="45.90562" lon="6.01651">
        <ele>388</ele>
        <time>2021-09-11T11:02:38.252Z</time>
      </trkpt>
      <trkpt lat="45.90561" lon="6.0165">
        <ele>389</ele>
        <time>2021-09-11T11:02:39.252Z</time>
      </trkpt>
      <trkpt lat="45.9056" lon="6.01649">
        <ele>390</ele>
        <time>2021-09-11T11:02:40.252Z</time>
      </trkpt>
      <trkpt lat="45.9056" lon="6.01648">
        <ele>390</ele>
        <time>2021-09-11T11:02:41.251Z</time>
      </trkpt>
      <trkpt lat="45.90559" lon="6.01646">
        <ele>391</ele>
        <time>2021-09-11T11:02:42.252Z</time>
      </trkpt>
      <trkpt lat="45.90558" lon="6.01644">
        <ele>392</ele>
        <time>2021-09-11T11:02:43.252Z</time>
      </trkpt>
      <trkpt lat="45.90557" lon="6.01643">
        <ele>392</ele>
        <time>2021-09-11T11:02:44.252Z</time>
      </trkpt>
      <trkpt lat="45.90556" lon="6.01642">
        <ele>393</ele>
        <time>2021-09-11T11:02:45.252Z</time>
      </trkpt>
      <trkpt lat="45.90556" lon="6.01641">
        <ele>393</ele>
        <time>2021-09-11T11:02:46.252Z</time>
      </trkpt>
      <trkpt lat="45.90555" lon="6.0164">
        <ele>393</ele>
        <time>2021-09-11T11:02:47.252Z</time>
      </trkpt>
      <trkpt lat="45.90554" lon="6.01639">
        <ele>393</ele>
        <time>2021-09-11T11:02:48.251Z</time>
      </trkpt>
      <trkpt lat="45.90554" lon="6.01637">
        <ele>393</ele>
        <time>2021-09-11T11:02:49.252Z</time>
      </trkpt>
      <trkpt lat="45.90553" lon="6.01636">
        <ele>393</ele>
        <time>2021-09-11T11:02:50.252Z</time>
      </trkpt>
      <trkpt lat="45.90553" lon="6.01634">
        <ele>393</ele>
        <time>2021-09-11T11:02:51.252Z</time>
      </trkpt>
      <trkpt lat="45.90553" lon="6.01632">
        <ele>393</ele>
        <time>2021-09-11T11:02:52.252Z</time>
      </trkpt>
      <trkpt lat="45.90552" lon="6.01631">
        <ele>393</ele>
        <time>2021-09-11T11:02:53.252Z</time>
      </trkpt>
      <trkpt lat="45.90552" lon="6.01629">
        <ele>393</ele>
        <time>2021-09-11T11:02:54.252Z</time>
      </trkpt>
      <trkpt lat="45.90551" lon="6.01627">
        <ele>392</ele>
        <time>2021-09-11T11:02:55.252Z</time>
      </trkpt>
      <trkpt lat="45.90551" lon="6.01626">
        <ele>392</ele>
        <time>2021-09-11T11:02:56.252Z</time>
      </trkpt>
      <trkpt lat="45.90551" lon="6.01625">
        <ele>392</ele>
        <time>2021-09-11T11:02:57.252Z</time>
      </trkpt>
      <trkpt lat="45.9055" lon="6.01623">
        <ele>392</ele>
        <time>2021-09-11T11:02:58.252Z</time>
      </trkpt>
      <trkpt lat="45.9055" lon="6.01622">
        <ele>392</ele>
        <time>2021-09-11T11:02:59.252Z</time>
      </trkpt>
      <trkpt lat="45.90549" lon="6.01621">
        <ele>392</ele>
        <time>2021-09-11T11:03:00.251Z</time>
      </trkpt>
      <trkpt lat="45.90549" lon="6.01621">
        <ele>392</ele>
        <time>2021-09-11T11:03:01.251Z</time>
      </trkpt>
      <trkpt lat="45.90549" lon="6.0162">
        <ele>392</ele>
        <time>2021-09-11T11:03:02.252Z</time>
      </trkpt>
      <trkpt lat="45.90549" lon="6.01619">
        <ele>393</ele>
        <time>2021-09-11T11:03:03.252Z</time>
      </trkpt>
      <trkpt lat="45.90548" lon="6.01618">
        <ele>393</ele>
        <time>2021-09-11T11:03:04.252Z</time>
      </trkpt>
      <trkpt lat="45.90548" lon="6.01617">
        <ele>393</ele>
        <time>2021-09-11T11:03:05.251Z</time>
      </trkpt>
      <trkpt lat="45.90547" lon="6.01616">
        <ele>393</ele>
        <time>2021-09-11T11:03:06.251Z</time>
      </trkpt>
      <trkpt lat="45.90547" lon="6.01615">
        <ele>393</ele>
        <time>2021-09-11T11:03:07.252Z</time>
      </trkpt>
      <trkpt lat="45.90547" lon="6.01614">
        <ele>393</ele>
        <time>2021-09-11T11:03:08.252Z</time>
      </trkpt>
      <trkpt lat="45.90546" lon="6.01613">
        <ele>393</ele>
        <time>2021-09-11T11:03:09.252Z</time>
      </trkpt>
      <trkpt lat="45.90546" lon="6.01612">
        <ele>393</ele>
        <time>2021-09-11T11:03:10.252Z</time>
      </trkpt>
      <trkpt lat="45.90546" lon="6.0161">
        <ele>393</ele>
        <time>2021-09-11T11:03:11.252Z</time>
      </trkpt>
      <trkpt lat="45.90545" lon="6.0161">
        <ele>393</ele>
        <time>2021-09-11T11:03:12.252Z</time>
      </trkpt>
      <trkpt lat="45.90545" lon="6.01609">
        <ele>394</ele>
        <time>2021-09-11T11:03:13.252Z</time>
      </trkpt>
      <trkpt lat="45.90545" lon="6.01608">
        <ele>394</ele>
        <time>2021-09-11T11:03:14.252Z</time>
      </trkpt>
      <trkpt lat="45.90545" lon="6.01607">
        <ele>394</ele>
        <time>2021-09-11T11:03:15.252Z</time>
      </trkpt>
      <trkpt lat="45.90545" lon="6.01606">
        <ele>395</ele>
        <time>2021-09-11T11:03:16.251Z</time>
      </trkpt>
      <trkpt lat="45.90544" lon="6.01605">
        <ele>395</ele>
        <time>2021-09-11T11:03:17.252Z</time>
      </trkpt>
      <trkpt lat="45.90544" lon="6.01604">
        <ele>395</ele>
        <time>2021-09-11T11:03:18.252Z</time>
      </trkpt>
      <trkpt lat="45.90544" lon="6.01603">
        <ele>395</ele>
        <time>2021-09-11T11:03:19.252Z</time>
      </trkpt>
      <trkpt lat="45.90544" lon="6.01601">
        <ele>395</ele>
        <time>2021-09-11T11:03:20.252Z</time>
      </trkpt>
      <trkpt lat="45.90544" lon="6.01599">
        <ele>395</ele>
        <time>2021-09-11T11:03:21.252Z</time>
      </trkpt>
      <trkpt lat="45.90544" lon="6.01598">
        <ele>395</ele>
        <time>2021-09-11T11:03:22.252Z</time>
      </trkpt>
      <trkpt lat="45.90545" lon="6.01597">
        <ele>395</ele>
        <time>2021-09-11T11:03:23.252Z</time>
      </trkpt>
      <trkpt lat="45.90545" lon="6.01596">
        <ele>396</ele>
        <time>2021-09-11T11:03:24.252Z</time>
      </trkpt>
      <trkpt lat="45.90545" lon="6.01594">
        <ele>396</ele>
        <time>2021-09-11T11:03:25.251Z</time>
      </trkpt>
      <trkpt lat="45.90545" lon="6.01593">
        <ele>397</ele>
        <time>2021-09-11T11:03:26.252Z</time>
      </trkpt>
      <trkpt lat="45.90545" lon="6.01592">
        <ele>397</ele>
        <time>2021-09-11T11:03:27.252Z</time>
      </trkpt>
      <trkpt lat="45.90545" lon="6.01591">
        <ele>397</ele>
        <time>2021-09-11T11:03:28.251Z</time>
      </trkpt>
      <trkpt lat="45.90545" lon="6.0159">
        <ele>398</ele>
        <time>2021-09-11T11:03:29.252Z</time>
      </trkpt>
      <trkpt lat="45.90544" lon="6.01589">
        <ele>398</ele>
        <time>2021-09-11T11:03:30.251Z</time>
      </trkpt>
      <trkpt lat="45.90544" lon="6.01588">
        <ele>398</ele>
        <time>2021-09-11T11:03:31.251Z</time>
      </trkpt>
      <trkpt lat="45.90544" lon="6.01588">
        <ele>399</ele>
        <time>2021-09-11T11:03:32.251Z</time>
      </trkpt>
      <trkpt lat="45.90544" lon="6.01587">
        <ele>399</ele>
        <time>2021-09-11T11:03:33.251Z</time>
      </trkpt>
      <trkpt lat="45.90543" lon="6.01586">
        <ele>399</ele>
        <time>2021-09-11T11:03:34.252Z</time>
      </trkpt>
      <trkpt lat="45.90543" lon="6.01585">
        <ele>400</ele>
        <time>2021-09-11T11:03:35.251Z</time>
      </trkpt>
      <trkpt lat="45.90543" lon="6.01584">
        <ele>399</ele>
        <time>2021-09-11T11:03:36.252Z</time>
      </trkpt>
      <trkpt lat="45.90542" lon="6.01582">
        <ele>399</ele>
        <time>2021-09-11T11:03:37.252Z</time>
      </trkpt>
      <trkpt lat="45.90542" lon="6.01581">
        <ele>399</ele>
        <time>2021-09-11T11:03:38.252Z</time>
      </trkpt>
      <trkpt lat="45.90542" lon="6.0158">
        <ele>398</ele>
        <time>2021-09-11T11:03:39.252Z</time>
      </trkpt>
      <trkpt lat="45.90541" lon="6.01579">
        <ele>398</ele>
        <time>2021-09-11T11:03:40.252Z</time>
      </trkpt>
      <trkpt lat="45.90541" lon="6.01578">
        <ele>398</ele>
        <time>2021-09-11T11:03:41.252Z</time>
      </trkpt>
      <trkpt lat="45.90541" lon="6.01577">
        <ele>398</ele>
        <time>2021-09-11T11:03:42.252Z</time>
      </trkpt>
      <trkpt lat="45.90541" lon="6.01576">
        <ele>397</ele>
        <time>2021-09-11T11:03:43.252Z</time>
      </trkpt>
      <trkpt lat="45.9054" lon="6.01574">
        <ele>397</ele>
        <time>2021-09-11T11:03:44.252Z</time>
      </trkpt>
      <trkpt lat="45.9054" lon="6.01573">
        <ele>396</ele>
        <time>2021-09-11T11:03:45.252Z</time>
      </trkpt>
      <trkpt lat="45.90539" lon="6.01572">
        <ele>395</ele>
        <time>2021-09-11T11:03:46.252Z</time>
      </trkpt>
      <trkpt lat="45.90539" lon="6.01571">
        <ele>395</ele>
        <time>2021-09-11T11:03:47.252Z</time>
      </trkpt>
      <trkpt lat="45.90539" lon="6.0157">
        <ele>395</ele>
        <time>2021-09-11T11:03:48.251Z</time>
      </trkpt>
      <trkpt lat="45.90539" lon="6.01569">
        <ele>395</ele>
        <time>2021-09-11T11:03:49.252Z</time>
      </trkpt>
      <trkpt lat="45.90538" lon="6.01568">
        <ele>395</ele>
        <time>2021-09-11T11:03:50.251Z</time>
      </trkpt>
      <trkpt lat="45.90538" lon="6.01567">
        <ele>394</ele>
        <time>2021-09-11T11:03:51.251Z</time>
      </trkpt>
      <trkpt lat="45.90538" lon="6.01565">
        <ele>394</ele>
        <time>2021-09-11T11:03:52.251Z</time>
      </trkpt>
      <trkpt lat="45.90538" lon="6.01564">
        <ele>394</ele>
        <time>2021-09-11T11:03:53.252Z</time>
      </trkpt>
      <trkpt lat="45.90537" lon="6.01563">
        <ele>394</ele>
        <time>2021-09-11T11:03:54.252Z</time>
      </trkpt>
      <trkpt lat="45.90537" lon="6.01562">
        <ele>394</ele>
        <time>2021-09-11T11:03:55.252Z</time>
      </trkpt>
      <trkpt lat="45.90537" lon="6.0156">
        <ele>394</ele>
        <time>2021-09-11T11:03:56.252Z</time>
      </trkpt>
      <trkpt lat="45.90537" lon="6.01558">
        <ele>395</ele>
        <time>2021-09-11T11:04:10.344Z</time>
      </trkpt>
      <trkpt lat="45.90536" lon="6.01555">
        <ele>395</ele>
        <time>2021-09-11T11:04:11.345Z</time>
      </trkpt>
      <trkpt lat="45.90536" lon="6.01555">
        <ele>395</ele>
        <time>2021-09-11T11:04:12.345Z</time>
      </trkpt>
      <trkpt lat="45.90536" lon="6.01553">
        <ele>395</ele>
        <time>2021-09-11T11:04:13.345Z</time>
      </trkpt>
      <trkpt lat="45.90536" lon="6.01552">
        <ele>395</ele>
        <time>2021-09-11T11:04:14.345Z</time>
      </trkpt>
      <trkpt lat="45.90536" lon="6.01551">
        <ele>395</ele>
        <time>2021-09-11T11:04:15.345Z</time>
      </trkpt>
      <trkpt lat="45.90536" lon="6.0155">
        <ele>396</ele>
        <time>2021-09-11T11:04:16.344Z</time>
      </trkpt>
      <trkpt lat="45.90535" lon="6.01548">
        <ele>396</ele>
        <time>2021-09-11T11:04:17.345Z</time>
      </trkpt>
      <trkpt lat="45.90535" lon="6.01547">
        <ele>396</ele>
        <time>2021-09-11T11:04:18.345Z</time>
      </trkpt>
      <trkpt lat="45.90535" lon="6.01546">
        <ele>396</ele>
        <time>2021-09-11T11:04:19.345Z</time>
      </trkpt>
      <trkpt lat="45.90535" lon="6.01545">
        <ele>397</ele>
        <time>2021-09-11T11:04:20.345Z</time>
      </trkpt>
      <trkpt lat="45.90535" lon="6.01544">
        <ele>397</ele>
        <time>2021-09-11T11:04:21.345Z</time>
      </trkpt>
      <trkpt lat="45.90535" lon="6.01543">
        <ele>397</ele>
        <time>2021-09-11T11:04:22.345Z</time>
      </trkpt>
      <trkpt lat="45.90535" lon="6.01542">
        <ele>397</ele>
        <time>2021-09-11T11:04:23.345Z</time>
      </trkpt>
      <trkpt lat="45.90535" lon="6.01541">
        <ele>398</ele>
        <time>2021-09-11T11:04:24.345Z</time>
      </trkpt>
      <trkpt lat="45.90535" lon="6.0154">
        <ele>398</ele>
        <time>2021-09-11T11:04:25.345Z</time>
      </trkpt>
      <trkpt lat="45.90535" lon="6.01539">
        <ele>398</ele>
        <time>2021-09-11T11:04:26.344Z</time>
      </trkpt>
      <trkpt lat="45.90535" lon="6.01538">
        <ele>399</ele>
        <time>2021-09-11T11:04:27.345Z</time>
      </trkpt>
      <trkpt lat="45.90535" lon="6.01537">
        <ele>398</ele>
        <time>2021-09-11T11:04:28.344Z</time>
      </trkpt>
      <trkpt lat="45.90535" lon="6.01536">
        <ele>398</ele>
        <time>2021-09-11T11:04:29.344Z</time>
      </trkpt>
      <trkpt lat="45.90534" lon="6.01535">
        <ele>398</ele>
        <time>2021-09-11T11:04:30.345Z</time>
      </trkpt>
      <trkpt lat="45.90534" lon="6.01534">
        <ele>398</ele>
        <time>2021-09-11T11:04:31.344Z</time>
      </trkpt>
      <trkpt lat="45.90534" lon="6.01533">
        <ele>399</ele>
        <time>2021-09-11T11:04:32.344Z</time>
      </trkpt>
      <trkpt lat="45.90534" lon="6.01532">
        <ele>399</ele>
        <time>2021-09-11T11:04:33.344Z</time>
      </trkpt>
      <trkpt lat="45.90534" lon="6.01531">
        <ele>399</ele>
        <time>2021-09-11T11:04:34.345Z</time>
      </trkpt>
      <trkpt lat="45.90533" lon="6.0153">
        <ele>399</ele>
        <time>2021-09-11T11:04:35.344Z</time>
      </trkpt>
      <trkpt lat="45.90533" lon="6.01528">
        <ele>399</ele>
        <time>2021-09-11T11:04:36.345Z</time>
      </trkpt>
      <trkpt lat="45.90533" lon="6.01527">
        <ele>399</ele>
        <time>2021-09-11T11:04:37.344Z</time>
      </trkpt>
      <trkpt lat="45.90533" lon="6.01526">
        <ele>399</ele>
        <time>2021-09-11T11:04:38.344Z</time>
      </trkpt>
      <trkpt lat="45.90533" lon="6.01525">
        <ele>399</ele>
        <time>2021-09-11T11:04:39.345Z</time>
      </trkpt>
      <trkpt lat="45.90533" lon="6.01524">
        <ele>399</ele>
        <time>2021-09-11T11:04:40.345Z</time>
      </trkpt>
      <trkpt lat="45.90533" lon="6.01523">
        <ele>400</ele>
        <time>2021-09-11T11:04:41.344Z</time>
      </trkpt>
      <trkpt lat="45.90533" lon="6.01522">
        <ele>400</ele>
        <time>2021-09-11T11:04:42.345Z</time>
      </trkpt>
      <trkpt lat="45.90532" lon="6.01521">
        <ele>400</ele>
        <time>2021-09-11T11:04:43.345Z</time>
      </trkpt>
      <trkpt lat="45.90532" lon="6.0152">
        <ele>400</ele>
        <time>2021-09-11T11:04:44.344Z</time>
      </trkpt>
      <trkpt lat="45.90532" lon="6.01519">
        <ele>400</ele>
        <time>2021-09-11T11:04:45.345Z</time>
      </trkpt>
      <trkpt lat="45.90532" lon="6.01519">
        <ele>400</ele>
        <time>2021-09-11T11:04:46.345Z</time>
      </trkpt>
      <trkpt lat="45.90532" lon="6.01518">
        <ele>400</ele>
        <time>2021-09-11T11:04:47.344Z</time>
      </trkpt>
      <trkpt lat="45.90533" lon="6.01517">
        <ele>399</ele>
        <time>2021-09-11T11:04:48.345Z</time>
      </trkpt>
      <trkpt lat="45.90534" lon="6.01514">
        <ele>399</ele>
        <time>2021-09-11T11:04:49.344Z</time>
      </trkpt>
      <trkpt lat="45.90538" lon="6.01514">
        <ele>394</ele>
        <time>2021-09-11T11:04:50.345Z</time>
      </trkpt>
      <trkpt lat="45.90538" lon="6.01514">
        <ele>394</ele>
        <time>2021-09-11T11:04:51.345Z</time>
      </trkpt>
      <trkpt lat="45.90538" lon="6.01514">
        <ele>394</ele>
        <time>2021-09-11T11:04:52.344Z</time>
      </trkpt>
      <trkpt lat="45.90536" lon="6.01508">
        <ele>399</ele>
        <time>2021-09-11T11:04:53.346Z</time>
      </trkpt>
      <trkpt lat="45.90536" lon="6.01506">
        <ele>399</ele>
        <time>2021-09-11T11:04:54.345Z</time>
      </trkpt>
      <trkpt lat="45.90535" lon="6.01504">
        <ele>399</ele>
        <time>2021-09-11T11:04:55.346Z</time>
      </trkpt>
      <trkpt lat="45.90534" lon="6.01502">
        <ele>399</ele>
        <time>2021-09-11T11:04:56.346Z</time>
      </trkpt>
      <trkpt lat="45.90534" lon="6.015">
        <ele>399</ele>
        <time>2021-09-11T11:04:57.346Z</time>
      </trkpt>
      <trkpt lat="45.90533" lon="6.01497">
        <ele>399</ele>
        <time>2021-09-11T11:04:58.345Z</time>
      </trkpt>
      <trkpt lat="45.90532" lon="6.01495">
        <ele>399</ele>
        <time>2021-09-11T11:04:59.346Z</time>
      </trkpt>
      <trkpt lat="45.90532" lon="6.01493">
        <ele>399</ele>
        <time>2021-09-11T11:05:00.346Z</time>
      </trkpt>
      <trkpt lat="45.90532" lon="6.01492">
        <ele>399</ele>
        <time>2021-09-11T11:05:01.346Z</time>
      </trkpt>
      <trkpt lat="45.90533" lon="6.01491">
        <ele>399</ele>
        <time>2021-09-11T11:05:02.345Z</time>
      </trkpt>
      <trkpt lat="45.90533" lon="6.01491">
        <ele>399</ele>
        <time>2021-09-11T11:05:03.345Z</time>
      </trkpt>
      <trkpt lat="45.90534" lon="6.01491">
        <ele>398</ele>
        <time>2021-09-11T11:05:04.345Z</time>
      </trkpt>
      <trkpt lat="45.90535" lon="6.0149">
        <ele>397</ele>
        <time>2021-09-11T11:05:05.346Z</time>
      </trkpt>
      <trkpt lat="45.90535" lon="6.0149">
        <ele>396</ele>
        <time>2021-09-11T11:05:06.346Z</time>
      </trkpt>
      <trkpt lat="45.90535" lon="6.01489">
        <ele>396</ele>
        <time>2021-09-11T11:05:07.345Z</time>
      </trkpt>
      <trkpt lat="45.90534" lon="6.01488">
        <ele>395</ele>
        <time>2021-09-11T11:05:08.345Z</time>
      </trkpt>
      <trkpt lat="45.90534" lon="6.01487">
        <ele>395</ele>
        <time>2021-09-11T11:05:09.345Z</time>
      </trkpt>
      <trkpt lat="45.90534" lon="6.01486">
        <ele>395</ele>
        <time>2021-09-11T11:05:10.346Z</time>
      </trkpt>
      <trkpt lat="45.90534" lon="6.01485">
        <ele>395</ele>
        <time>2021-09-11T11:05:11.346Z</time>
      </trkpt>
      <trkpt lat="45.90534" lon="6.01484">
        <ele>395</ele>
        <time>2021-09-11T11:05:12.345Z</time>
      </trkpt>
      <trkpt lat="45.90534" lon="6.01482">
        <ele>396</ele>
        <time>2021-09-11T11:05:13.345Z</time>
      </trkpt>
      <trkpt lat="45.90534" lon="6.01481">
        <ele>396</ele>
        <time>2021-09-11T11:05:14.345Z</time>
      </trkpt>
      <trkpt lat="45.90533" lon="6.0148">
        <ele>396</ele>
        <time>2021-09-11T11:05:15.345Z</time>
      </trkpt>
      <trkpt lat="45.90533" lon="6.01479">
        <ele>396</ele>
        <time>2021-09-11T11:05:16.346Z</time>
      </trkpt>
      <trkpt lat="45.90533" lon="6.01479">
        <ele>396</ele>
        <time>2021-09-11T11:05:17.345Z</time>
      </trkpt>
      <trkpt lat="45.90533" lon="6.01478">
        <ele>397</ele>
        <time>2021-09-11T11:05:18.345Z</time>
      </trkpt>
      <trkpt lat="45.90533" lon="6.01477">
        <ele>397</ele>
        <time>2021-09-11T11:05:19.345Z</time>
      </trkpt>
      <trkpt lat="45.90533" lon="6.01476">
        <ele>398</ele>
        <time>2021-09-11T11:05:20.346Z</time>
      </trkpt>
      <trkpt lat="45.90533" lon="6.01475">
        <ele>398</ele>
        <time>2021-09-11T11:05:21.346Z</time>
      </trkpt>
      <trkpt lat="45.90532" lon="6.01473">
        <ele>399</ele>
        <time>2021-09-11T11:05:22.345Z</time>
      </trkpt>
      <trkpt lat="45.90532" lon="6.01472">
        <ele>400</ele>
        <time>2021-09-11T11:05:23.345Z</time>
      </trkpt>
      <trkpt lat="45.90532" lon="6.01471">
        <ele>400</ele>
        <time>2021-09-11T11:05:24.345Z</time>
      </trkpt>
      <trkpt lat="45.90532" lon="6.0147">
        <ele>401</ele>
        <time>2021-09-11T11:05:25.346Z</time>
      </trkpt>
      <trkpt lat="45.90532" lon="6.01469">
        <ele>401</ele>
        <time>2021-09-11T11:05:26.345Z</time>
      </trkpt>
      <trkpt lat="45.90531" lon="6.01468">
        <ele>402</ele>
        <time>2021-09-11T11:05:27.345Z</time>
      </trkpt>
      <trkpt lat="45.90531" lon="6.01467">
        <ele>402</ele>
        <time>2021-09-11T11:05:28.345Z</time>
      </trkpt>
      <trkpt lat="45.90531" lon="6.01466">
        <ele>403</ele>
        <time>2021-09-11T11:05:29.345Z</time>
      </trkpt>
      <trkpt lat="45.90531" lon="6.01465">
        <ele>403</ele>
        <time>2021-09-11T11:05:30.345Z</time>
      </trkpt>
      <trkpt lat="45.90531" lon="6.01464">
        <ele>404</ele>
        <time>2021-09-11T11:05:31.345Z</time>
      </trkpt>
      <trkpt lat="45.90531" lon="6.01463">
        <ele>404</ele>
        <time>2021-09-11T11:05:32.345Z</time>
      </trkpt>
      <trkpt lat="45.90531" lon="6.01462">
        <ele>404</ele>
        <time>2021-09-11T11:05:33.346Z</time>
      </trkpt>
      <trkpt lat="45.90531" lon="6.01461">
        <ele>405</ele>
        <time>2021-09-11T11:05:34.345Z</time>
      </trkpt>
      <trkpt lat="45.90531" lon="6.0146">
        <ele>405</ele>
        <time>2021-09-11T11:05:35.345Z</time>
      </trkpt>
      <trkpt lat="45.90531" lon="6.01459">
        <ele>405</ele>
        <time>2021-09-11T11:05:36.345Z</time>
      </trkpt>
      <trkpt lat="45.90531" lon="6.01458">
        <ele>406</ele>
        <time>2021-09-11T11:05:37.345Z</time>
      </trkpt>
      <trkpt lat="45.90531" lon="6.01458">
        <ele>406</ele>
        <time>2021-09-11T11:05:38.345Z</time>
      </trkpt>
      <trkpt lat="45.90531" lon="6.01457">
        <ele>406</ele>
        <time>2021-09-11T11:05:39.345Z</time>
      </trkpt>
      <trkpt lat="45.90531" lon="6.01456">
        <ele>406</ele>
        <time>2021-09-11T11:05:40.345Z</time>
      </trkpt>
      <trkpt lat="45.90531" lon="6.01455">
        <ele>405</ele>
        <time>2021-09-11T11:05:41.345Z</time>
      </trkpt>
      <trkpt lat="45.90531" lon="6.01454">
        <ele>405</ele>
        <time>2021-09-11T11:05:42.346Z</time>
      </trkpt>
      <trkpt lat="45.9053" lon="6.01452">
        <ele>405</ele>
        <time>2021-09-11T11:05:43.345Z</time>
      </trkpt>
      <trkpt lat="45.90531" lon="6.01451">
        <ele>406</ele>
        <time>2021-09-11T11:05:44.345Z</time>
      </trkpt>
      <trkpt lat="45.90531" lon="6.0145">
        <ele>406</ele>
        <time>2021-09-11T11:05:45.346Z</time>
      </trkpt>
      <trkpt lat="45.9053" lon="6.01448">
        <ele>406</ele>
        <time>2021-09-11T11:05:46.345Z</time>
      </trkpt>
      <trkpt lat="45.9053" lon="6.01447">
        <ele>407</ele>
        <time>2021-09-11T11:05:47.346Z</time>
      </trkpt>
      <trkpt lat="45.9053" lon="6.01446">
        <ele>407</ele>
        <time>2021-09-11T11:05:48.346Z</time>
      </trkpt>
      <trkpt lat="45.90531" lon="6.01445">
        <ele>407</ele>
        <time>2021-09-11T11:05:49.346Z</time>
      </trkpt>
      <trkpt lat="45.90531" lon="6.01444">
        <ele>407</ele>
        <time>2021-09-11T11:05:50.346Z</time>
      </trkpt>
      <trkpt lat="45.90531" lon="6.01443">
        <ele>407</ele>
        <time>2021-09-11T11:05:51.345Z</time>
      </trkpt>
      <trkpt lat="45.9053" lon="6.01443">
        <ele>407</ele>
        <time>2021-09-11T11:05:52.345Z</time>
      </trkpt>
      <trkpt lat="45.9053" lon="6.01442">
        <ele>407</ele>
        <time>2021-09-11T11:05:53.346Z</time>
      </trkpt>
      <trkpt lat="45.9053" lon="6.01441">
        <ele>407</ele>
        <time>2021-09-11T11:05:54.346Z</time>
      </trkpt>
      <trkpt lat="45.9053" lon="6.0144">
        <ele>407</ele>
        <time>2021-09-11T11:05:55.346Z</time>
      </trkpt>
      <trkpt lat="45.9053" lon="6.0144">
        <ele>407</ele>
        <time>2021-09-11T11:05:56.345Z</time>
      </trkpt>
      <trkpt lat="45.9053" lon="6.01439">
        <ele>407</ele>
        <time>2021-09-11T11:05:57.345Z</time>
      </trkpt>
      <trkpt lat="45.9053" lon="6.01439">
        <ele>407</ele>
        <time>2021-09-11T11:05:58.346Z</time>
      </trkpt>
      <trkpt lat="45.9053" lon="6.01438">
        <ele>407</ele>
        <time>2021-09-11T11:05:59.346Z</time>
      </trkpt>
      <trkpt lat="45.9053" lon="6.01437">
        <ele>407</ele>
        <time>2021-09-11T11:06:00.346Z</time>
      </trkpt>
      <trkpt lat="45.9053" lon="6.01436">
        <ele>408</ele>
        <time>2021-09-11T11:06:01.346Z</time>
      </trkpt>
      <trkpt lat="45.90531" lon="6.01436">
        <ele>408</ele>
        <time>2021-09-11T11:06:02.345Z</time>
      </trkpt>
      <trkpt lat="45.90531" lon="6.01435">
        <ele>408</ele>
        <time>2021-09-11T11:06:03.346Z</time>
      </trkpt>
      <trkpt lat="45.90531" lon="6.01434">
        <ele>408</ele>
        <time>2021-09-11T11:06:04.346Z</time>
      </trkpt>
      <trkpt lat="45.90531" lon="6.01433">
        <ele>408</ele>
        <time>2021-09-11T11:06:05.346Z</time>
      </trkpt>
      <trkpt lat="45.9053" lon="6.01432">
        <ele>408</ele>
        <time>2021-09-11T11:06:06.346Z</time>
      </trkpt>
      <trkpt lat="45.90531" lon="6.0143">
        <ele>408</ele>
        <time>2021-09-11T11:06:07.346Z</time>
      </trkpt>
      <trkpt lat="45.90531" lon="6.01429">
        <ele>408</ele>
        <time>2021-09-11T11:06:08.345Z</time>
      </trkpt>
      <trkpt lat="45.90531" lon="6.01428">
        <ele>408</ele>
        <time>2021-09-11T11:06:09.346Z</time>
      </trkpt>
      <trkpt lat="45.90531" lon="6.01428">
        <ele>408</ele>
        <time>2021-09-11T11:06:10.346Z</time>
      </trkpt>
      <trkpt lat="45.90531" lon="6.01427">
        <ele>409</ele>
        <time>2021-09-11T11:06:11.346Z</time>
      </trkpt>
      <trkpt lat="45.90531" lon="6.01427">
        <ele>410</ele>
        <time>2021-09-11T11:06:12.346Z</time>
      </trkpt>
      <trkpt lat="45.90531" lon="6.01426">
        <ele>411</ele>
        <time>2021-09-11T11:06:13.346Z</time>
      </trkpt>
      <trkpt lat="45.90532" lon="6.01425">
        <ele>412</ele>
        <time>2021-09-11T11:06:14.346Z</time>
      </trkpt>
      <trkpt lat="45.90532" lon="6.01424">
        <ele>413</ele>
        <time>2021-09-11T11:06:15.346Z</time>
      </trkpt>
      <trkpt lat="45.90532" lon="6.01423">
        <ele>413</ele>
        <time>2021-09-11T11:06:16.347Z</time>
      </trkpt>
      <trkpt lat="45.90532" lon="6.01423">
        <ele>413</ele>
        <time>2021-09-11T11:06:17.347Z</time>
      </trkpt>
      <trkpt lat="45.90532" lon="6.01422">
        <ele>413</ele>
        <time>2021-09-11T11:06:18.347Z</time>
      </trkpt>
      <trkpt lat="45.90533" lon="6.01421">
        <ele>413</ele>
        <time>2021-09-11T11:06:19.347Z</time>
      </trkpt>
      <trkpt lat="45.90533" lon="6.01421">
        <ele>413</ele>
        <time>2021-09-11T11:06:20.347Z</time>
      </trkpt>
      <trkpt lat="45.90533" lon="6.0142">
        <ele>414</ele>
        <time>2021-09-11T11:06:21.347Z</time>
      </trkpt>
      <trkpt lat="45.90533" lon="6.01419">
        <ele>414</ele>
        <time>2021-09-11T11:06:22.347Z</time>
      </trkpt>
      <trkpt lat="45.90534" lon="6.01418">
        <ele>414</ele>
        <time>2021-09-11T11:06:23.347Z</time>
      </trkpt>
      <trkpt lat="45.90534" lon="6.01417">
        <ele>415</ele>
        <time>2021-09-11T11:06:24.347Z</time>
      </trkpt>
      <trkpt lat="45.90534" lon="6.01416">
        <ele>415</ele>
        <time>2021-09-11T11:06:25.346Z</time>
      </trkpt>
      <trkpt lat="45.90534" lon="6.01416">
        <ele>415</ele>
        <time>2021-09-11T11:06:26.347Z</time>
      </trkpt>
      <trkpt lat="45.90535" lon="6.01415">
        <ele>415</ele>
        <time>2021-09-11T11:06:27.347Z</time>
      </trkpt>
      <trkpt lat="45.90535" lon="6.01415">
        <ele>416</ele>
        <time>2021-09-11T11:06:28.347Z</time>
      </trkpt>
      <trkpt lat="45.90535" lon="6.01414">
        <ele>416</ele>
        <time>2021-09-11T11:06:29.347Z</time>
      </trkpt>
      <trkpt lat="45.90535" lon="6.01413">
        <ele>416</ele>
        <time>2021-09-11T11:06:30.346Z</time>
      </trkpt>
      <trkpt lat="45.90535" lon="6.01412">
        <ele>417</ele>
        <time>2021-09-11T11:06:31.346Z</time>
      </trkpt>
      <trkpt lat="45.90536" lon="6.01411">
        <ele>418</ele>
        <time>2021-09-11T11:06:32.347Z</time>
      </trkpt>
      <trkpt lat="45.90536" lon="6.0141">
        <ele>419</ele>
        <time>2021-09-11T11:06:33.347Z</time>
      </trkpt>
      <trkpt lat="45.90536" lon="6.01409">
        <ele>419</ele>
        <time>2021-09-11T11:06:34.346Z</time>
      </trkpt>
      <trkpt lat="45.90536" lon="6.01408">
        <ele>419</ele>
        <time>2021-09-11T11:06:35.347Z</time>
      </trkpt>
      <trkpt lat="45.90536" lon="6.01408">
        <ele>419</ele>
        <time>2021-09-11T11:06:36.347Z</time>
      </trkpt>
      <trkpt lat="45.90536" lon="6.01407">
        <ele>420</ele>
        <time>2021-09-11T11:06:37.346Z</time>
      </trkpt>
      <trkpt lat="45.90536" lon="6.01406">
        <ele>420</ele>
        <time>2021-09-11T11:06:38.347Z</time>
      </trkpt>
      <trkpt lat="45.90537" lon="6.01405">
        <ele>420</ele>
        <time>2021-09-11T11:06:39.346Z</time>
      </trkpt>
      <trkpt lat="45.90537" lon="6.01404">
        <ele>420</ele>
        <time>2021-09-11T11:06:40.347Z</time>
      </trkpt>
      <trkpt lat="45.90537" lon="6.01403">
        <ele>420</ele>
        <time>2021-09-11T11:06:41.347Z</time>
      </trkpt>
      <trkpt lat="45.90537" lon="6.01403">
        <ele>420</ele>
        <time>2021-09-11T11:06:42.347Z</time>
      </trkpt>
      <trkpt lat="45.90537" lon="6.01401">
        <ele>420</ele>
        <time>2021-09-11T11:06:43.347Z</time>
      </trkpt>
      <trkpt lat="45.90537" lon="6.014">
        <ele>420</ele>
        <time>2021-09-11T11:06:44.346Z</time>
      </trkpt>
      <trkpt lat="45.90538" lon="6.01399">
        <ele>419</ele>
        <time>2021-09-11T11:06:45.347Z</time>
      </trkpt>
      <trkpt lat="45.90538" lon="6.01397">
        <ele>419</ele>
        <time>2021-09-11T11:06:46.346Z</time>
      </trkpt>
      <trkpt lat="45.90538" lon="6.01396">
        <ele>419</ele>
        <time>2021-09-11T11:06:47.347Z</time>
      </trkpt>
      <trkpt lat="45.90538" lon="6.01395">
        <ele>419</ele>
        <time>2021-09-11T11:06:48.347Z</time>
      </trkpt>
      <trkpt lat="45.90538" lon="6.01394">
        <ele>420</ele>
        <time>2021-09-11T11:06:49.347Z</time>
      </trkpt>
      <trkpt lat="45.90538" lon="6.01393">
        <ele>420</ele>
        <time>2021-09-11T11:06:50.346Z</time>
      </trkpt>
      <trkpt lat="45.90538" lon="6.01391">
        <ele>421</ele>
        <time>2021-09-11T11:06:51.347Z</time>
      </trkpt>
      <trkpt lat="45.90538" lon="6.01391">
        <ele>421</ele>
        <time>2021-09-11T11:06:52.347Z</time>
      </trkpt>
      <trkpt lat="45.90538" lon="6.01389">
        <ele>422</ele>
        <time>2021-09-11T11:06:53.347Z</time>
      </trkpt>
      <trkpt lat="45.90538" lon="6.01387">
        <ele>422</ele>
        <time>2021-09-11T11:06:54.346Z</time>
      </trkpt>
      <trkpt lat="45.90538" lon="6.01386">
        <ele>422</ele>
        <time>2021-09-11T11:06:55.347Z</time>
      </trkpt>
      <trkpt lat="45.90537" lon="6.01384">
        <ele>422</ele>
        <time>2021-09-11T11:06:56.347Z</time>
      </trkpt>
      <trkpt lat="45.90537" lon="6.01382">
        <ele>422</ele>
        <time>2021-09-11T11:06:57.347Z</time>
      </trkpt>
      <trkpt lat="45.90537" lon="6.0138">
        <ele>423</ele>
        <time>2021-09-11T11:06:58.346Z</time>
      </trkpt>
      <trkpt lat="45.90537" lon="6.01377">
        <ele>423</ele>
        <time>2021-09-11T11:06:59.346Z</time>
      </trkpt>
      <trkpt lat="45.90537" lon="6.01375">
        <ele>424</ele>
        <time>2021-09-11T11:07:00.346Z</time>
      </trkpt>
      <trkpt lat="45.90537" lon="6.01372">
        <ele>424</ele>
        <time>2021-09-11T11:07:01.347Z</time>
      </trkpt>
      <trkpt lat="45.90537" lon="6.01371">
        <ele>424</ele>
        <time>2021-09-11T11:07:02.347Z</time>
      </trkpt>
      <trkpt lat="45.90537" lon="6.01369">
        <ele>425</ele>
        <time>2021-09-11T11:07:03.347Z</time>
      </trkpt>
      <trkpt lat="45.90538" lon="6.01368">
        <ele>425</ele>
        <time>2021-09-11T11:07:04.347Z</time>
      </trkpt>
      <trkpt lat="45.90538" lon="6.01367">
        <ele>426</ele>
        <time>2021-09-11T11:07:05.346Z</time>
      </trkpt>
      <trkpt lat="45.90538" lon="6.01365">
        <ele>426</ele>
        <time>2021-09-11T11:07:06.347Z</time>
      </trkpt>
      <trkpt lat="45.90538" lon="6.01364">
        <ele>427</ele>
        <time>2021-09-11T11:07:07.347Z</time>
      </trkpt>
      <trkpt lat="45.90539" lon="6.01362">
        <ele>427</ele>
        <time>2021-09-11T11:07:08.347Z</time>
      </trkpt>
      <trkpt lat="45.90539" lon="6.0136">
        <ele>427</ele>
        <time>2021-09-11T11:07:09.347Z</time>
      </trkpt>
      <trkpt lat="45.90539" lon="6.01358">
        <ele>427</ele>
        <time>2021-09-11T11:07:10.347Z</time>
      </trkpt>
      <trkpt lat="45.90539" lon="6.01356">
        <ele>427</ele>
        <time>2021-09-11T11:07:11.347Z</time>
      </trkpt>
      <trkpt lat="45.90539" lon="6.01355">
        <ele>427</ele>
        <time>2021-09-11T11:07:12.347Z</time>
      </trkpt>
      <trkpt lat="45.9054" lon="6.01354">
        <ele>428</ele>
        <time>2021-09-11T11:07:13.347Z</time>
      </trkpt>
      <trkpt lat="45.9054" lon="6.01353">
        <ele>428</ele>
        <time>2021-09-11T11:07:14.347Z</time>
      </trkpt>
      <trkpt lat="45.9054" lon="6.01351">
        <ele>428</ele>
        <time>2021-09-11T11:07:15.346Z</time>
      </trkpt>
      <trkpt lat="45.9054" lon="6.0135">
        <ele>427</ele>
        <time>2021-09-11T11:07:16.346Z</time>
      </trkpt>
      <trkpt lat="45.90541" lon="6.01349">
        <ele>427</ele>
        <time>2021-09-11T11:07:17.346Z</time>
      </trkpt>
      <trkpt lat="45.90541" lon="6.01348">
        <ele>427</ele>
        <time>2021-09-11T11:07:18.346Z</time>
      </trkpt>
      <trkpt lat="45.90541" lon="6.01346">
        <ele>427</ele>
        <time>2021-09-11T11:07:19.347Z</time>
      </trkpt>
      <trkpt lat="45.90541" lon="6.01344">
        <ele>426</ele>
        <time>2021-09-11T11:07:20.346Z</time>
      </trkpt>
      <trkpt lat="45.90541" lon="6.01342">
        <ele>425</ele>
        <time>2021-09-11T11:07:21.346Z</time>
      </trkpt>
      <trkpt lat="45.90541" lon="6.0134">
        <ele>425</ele>
        <time>2021-09-11T11:07:22.347Z</time>
      </trkpt>
      <trkpt lat="45.90541" lon="6.01338">
        <ele>425</ele>
        <time>2021-09-11T11:07:23.347Z</time>
      </trkpt>
      <trkpt lat="45.90541" lon="6.01337">
        <ele>425</ele>
        <time>2021-09-11T11:07:24.347Z</time>
      </trkpt>
      <trkpt lat="45.90541" lon="6.01335">
        <ele>425</ele>
        <time>2021-09-11T11:07:25.347Z</time>
      </trkpt>
      <trkpt lat="45.90541" lon="6.01333">
        <ele>424</ele>
        <time>2021-09-11T11:07:26.346Z</time>
      </trkpt>
      <trkpt lat="45.90541" lon="6.01332">
        <ele>424</ele>
        <time>2021-09-11T11:07:27.347Z</time>
      </trkpt>
      <trkpt lat="45.90541" lon="6.0133">
        <ele>424</ele>
        <time>2021-09-11T11:07:28.346Z</time>
      </trkpt>
      <trkpt lat="45.90541" lon="6.01329">
        <ele>423</ele>
        <time>2021-09-11T11:07:29.347Z</time>
      </trkpt>
      <trkpt lat="45.90541" lon="6.01327">
        <ele>423</ele>
        <time>2021-09-11T11:07:30.347Z</time>
      </trkpt>
      <trkpt lat="45.90541" lon="6.01326">
        <ele>423</ele>
        <time>2021-09-11T11:07:31.347Z</time>
      </trkpt>
      <trkpt lat="45.9054" lon="6.01325">
        <ele>423</ele>
        <time>2021-09-11T11:07:32.347Z</time>
      </trkpt>
      <trkpt lat="45.9054" lon="6.01324">
        <ele>422</ele>
        <time>2021-09-11T11:07:33.346Z</time>
      </trkpt>
      <trkpt lat="45.9054" lon="6.01322">
        <ele>422</ele>
        <time>2021-09-11T11:07:34.347Z</time>
      </trkpt>
      <trkpt lat="45.9054" lon="6.01321">
        <ele>422</ele>
        <time>2021-09-11T11:07:35.347Z</time>
      </trkpt>
      <trkpt lat="45.9054" lon="6.0132">
        <ele>422</ele>
        <time>2021-09-11T11:07:36.347Z</time>
      </trkpt>
      <trkpt lat="45.9054" lon="6.01318">
        <ele>423</ele>
        <time>2021-09-11T11:07:37.346Z</time>
      </trkpt>
      <trkpt lat="45.9054" lon="6.01317">
        <ele>423</ele>
        <time>2021-09-11T11:07:38.347Z</time>
      </trkpt>
      <trkpt lat="45.9054" lon="6.01315">
        <ele>423</ele>
        <time>2021-09-11T11:07:39.347Z</time>
      </trkpt>
      <trkpt lat="45.90541" lon="6.01314">
        <ele>423</ele>
        <time>2021-09-11T11:07:40.346Z</time>
      </trkpt>
      <trkpt lat="45.90541" lon="6.01312">
        <ele>423</ele>
        <time>2021-09-11T11:07:41.347Z</time>
      </trkpt>
      <trkpt lat="45.90541" lon="6.01311">
        <ele>424</ele>
        <time>2021-09-11T11:07:42.346Z</time>
      </trkpt>
      <trkpt lat="45.90541" lon="6.0131">
        <ele>423</ele>
        <time>2021-09-11T11:07:43.347Z</time>
      </trkpt>
      <trkpt lat="45.90542" lon="6.01309">
        <ele>423</ele>
        <time>2021-09-11T11:07:44.347Z</time>
      </trkpt>
      <trkpt lat="45.90542" lon="6.01308">
        <ele>423</ele>
        <time>2021-09-11T11:07:45.347Z</time>
      </trkpt>
      <trkpt lat="45.90542" lon="6.01307">
        <ele>423</ele>
        <time>2021-09-11T11:07:46.347Z</time>
      </trkpt>
      <trkpt lat="45.90542" lon="6.01306">
        <ele>423</ele>
        <time>2021-09-11T11:07:47.347Z</time>
      </trkpt>
      <trkpt lat="45.90543" lon="6.01305">
        <ele>423</ele>
        <time>2021-09-11T11:07:48.346Z</time>
      </trkpt>
      <trkpt lat="45.90543" lon="6.01303">
        <ele>423</ele>
        <time>2021-09-11T11:07:49.347Z</time>
      </trkpt>
      <trkpt lat="45.90543" lon="6.01302">
        <ele>423</ele>
        <time>2021-09-11T11:07:50.347Z</time>
      </trkpt>
      <trkpt lat="45.90543" lon="6.01301">
        <ele>424</ele>
        <time>2021-09-11T11:07:51.347Z</time>
      </trkpt>
      <trkpt lat="45.90543" lon="6.01299">
        <ele>424</ele>
        <time>2021-09-11T11:07:52.347Z</time>
      </trkpt>
      <trkpt lat="45.90543" lon="6.01298">
        <ele>425</ele>
        <time>2021-09-11T11:07:53.346Z</time>
      </trkpt>
      <trkpt lat="45.90544" lon="6.01296">
        <ele>425</ele>
        <time>2021-09-11T11:07:54.347Z</time>
      </trkpt>
      <trkpt lat="45.90544" lon="6.01295">
        <ele>425</ele>
        <time>2021-09-11T11:07:55.346Z</time>
      </trkpt>
      <trkpt lat="45.90544" lon="6.01294">
        <ele>425</ele>
        <time>2021-09-11T11:07:56.347Z</time>
      </trkpt>
      <trkpt lat="45.90544" lon="6.01293">
        <ele>425</ele>
        <time>2021-09-11T11:07:57.347Z</time>
      </trkpt>
      <trkpt lat="45.90544" lon="6.01292">
        <ele>425</ele>
        <time>2021-09-11T11:07:58.347Z</time>
      </trkpt>
      <trkpt lat="45.90545" lon="6.01291">
        <ele>425</ele>
        <time>2021-09-11T11:07:59.347Z</time>
      </trkpt>
      <trkpt lat="45.90545" lon="6.0129">
        <ele>425</ele>
        <time>2021-09-11T11:08:00.347Z</time>
      </trkpt>
      <trkpt lat="45.90545" lon="6.01288">
        <ele>425</ele>
        <time>2021-09-11T11:08:01.346Z</time>
      </trkpt>
      <trkpt lat="45.90546" lon="6.01287">
        <ele>425</ele>
        <time>2021-09-11T11:08:02.346Z</time>
      </trkpt>
      <trkpt lat="45.90546" lon="6.01286">
        <ele>425</ele>
        <time>2021-09-11T11:08:03.347Z</time>
      </trkpt>
      <trkpt lat="45.90547" lon="6.01285">
        <ele>425</ele>
        <time>2021-09-11T11:08:04.347Z</time>
      </trkpt>
      <trkpt lat="45.90547" lon="6.01284">
        <ele>424</ele>
        <time>2021-09-11T11:08:05.347Z</time>
      </trkpt>
      <trkpt lat="45.90548" lon="6.01283">
        <ele>424</ele>
        <time>2021-09-11T11:08:06.347Z</time>
      </trkpt>
      <trkpt lat="45.90548" lon="6.01282">
        <ele>424</ele>
        <time>2021-09-11T11:08:07.346Z</time>
      </trkpt>
      <trkpt lat="45.90549" lon="6.01281">
        <ele>424</ele>
        <time>2021-09-11T11:08:08.347Z</time>
      </trkpt>
      <trkpt lat="45.90549" lon="6.0128">
        <ele>424</ele>
        <time>2021-09-11T11:08:09.346Z</time>
      </trkpt>
      <trkpt lat="45.90549" lon="6.0128">
        <ele>423</ele>
        <time>2021-09-11T11:08:10.346Z</time>
      </trkpt>
      <trkpt lat="45.9055" lon="6.01279">
        <ele>423</ele>
        <time>2021-09-11T11:08:11.347Z</time>
      </trkpt>
      <trkpt lat="45.9055" lon="6.01278">
        <ele>423</ele>
        <time>2021-09-11T11:08:12.347Z</time>
      </trkpt>
      <trkpt lat="45.90551" lon="6.01277">
        <ele>423</ele>
        <time>2021-09-11T11:08:13.347Z</time>
      </trkpt>
      <trkpt lat="45.90551" lon="6.01277">
        <ele>422</ele>
        <time>2021-09-11T11:08:14.347Z</time>
      </trkpt>
      <trkpt lat="45.90552" lon="6.01276">
        <ele>422</ele>
        <time>2021-09-11T11:08:15.347Z</time>
      </trkpt>
      <trkpt lat="45.90552" lon="6.01275">
        <ele>422</ele>
        <time>2021-09-11T11:08:16.347Z</time>
      </trkpt>
      <trkpt lat="45.90553" lon="6.01275">
        <ele>422</ele>
        <time>2021-09-11T11:08:17.346Z</time>
      </trkpt>
      <trkpt lat="45.90553" lon="6.01274">
        <ele>422</ele>
        <time>2021-09-11T11:08:18.347Z</time>
      </trkpt>
      <trkpt lat="45.90554" lon="6.01274">
        <ele>422</ele>
        <time>2021-09-11T11:08:19.347Z</time>
      </trkpt>
      <trkpt lat="45.90554" lon="6.01273">
        <ele>422</ele>
        <time>2021-09-11T11:08:20.347Z</time>
      </trkpt>
      <trkpt lat="45.90555" lon="6.01272">
        <ele>423</ele>
        <time>2021-09-11T11:08:21.346Z</time>
      </trkpt>
      <trkpt lat="45.90555" lon="6.01272">
        <ele>424</ele>
        <time>2021-09-11T11:08:22.346Z</time>
      </trkpt>
      <trkpt lat="45.90555" lon="6.01271">
        <ele>424</ele>
        <time>2021-09-11T11:08:23.347Z</time>
      </trkpt>
      <trkpt lat="45.90555" lon="6.0127">
        <ele>425</ele>
        <time>2021-09-11T11:08:24.347Z</time>
      </trkpt>
      <trkpt lat="45.90556" lon="6.01269">
        <ele>426</ele>
        <time>2021-09-11T11:08:25.347Z</time>
      </trkpt>
      <trkpt lat="45.90556" lon="6.01268">
        <ele>427</ele>
        <time>2021-09-11T11:08:26.347Z</time>
      </trkpt>
      <trkpt lat="45.90557" lon="6.01267">
        <ele>427</ele>
        <time>2021-09-11T11:08:27.347Z</time>
      </trkpt>
      <trkpt lat="45.90557" lon="6.01266">
        <ele>428</ele>
        <time>2021-09-11T11:08:28.347Z</time>
      </trkpt>
      <trkpt lat="45.90557" lon="6.01265">
        <ele>428</ele>
        <time>2021-09-11T11:08:29.347Z</time>
      </trkpt>
      <trkpt lat="45.90557" lon="6.01265">
        <ele>428</ele>
        <time>2021-09-11T11:08:30.347Z</time>
      </trkpt>
      <trkpt lat="45.90557" lon="6.01264">
        <ele>428</ele>
        <time>2021-09-11T11:08:31.347Z</time>
      </trkpt>
      <trkpt lat="45.90558" lon="6.01263">
        <ele>428</ele>
        <time>2021-09-11T11:08:32.346Z</time>
      </trkpt>
      <trkpt lat="45.90558" lon="6.01263">
        <ele>428</ele>
        <time>2021-09-11T11:08:33.347Z</time>
      </trkpt>
      <trkpt lat="45.90559" lon="6.01262">
        <ele>428</ele>
        <time>2021-09-11T11:08:34.347Z</time>
      </trkpt>
      <trkpt lat="45.9056" lon="6.01261">
        <ele>428</ele>
        <time>2021-09-11T11:08:35.347Z</time>
      </trkpt>
      <trkpt lat="45.90561" lon="6.0126">
        <ele>428</ele>
        <time>2021-09-11T11:08:36.347Z</time>
      </trkpt>
      <trkpt lat="45.90562" lon="6.01259">
        <ele>428</ele>
        <time>2021-09-11T11:08:37.347Z</time>
      </trkpt>
      <trkpt lat="45.90563" lon="6.01259">
        <ele>427</ele>
        <time>2021-09-11T11:08:38.347Z</time>
      </trkpt>
      <trkpt lat="45.90563" lon="6.01258">
        <ele>427</ele>
        <time>2021-09-11T11:08:39.347Z</time>
      </trkpt>
      <trkpt lat="45.90564" lon="6.01257">
        <ele>427</ele>
        <time>2021-09-11T11:08:40.347Z</time>
      </trkpt>
      <trkpt lat="45.90564" lon="6.01256">
        <ele>427</ele>
        <time>2021-09-11T11:08:41.346Z</time>
      </trkpt>
      <trkpt lat="45.90564" lon="6.01255">
        <ele>427</ele>
        <time>2021-09-11T11:08:42.346Z</time>
      </trkpt>
      <trkpt lat="45.90565" lon="6.01254">
        <ele>427</ele>
        <time>2021-09-11T11:08:43.347Z</time>
      </trkpt>
      <trkpt lat="45.90565" lon="6.01253">
        <ele>427</ele>
        <time>2021-09-11T11:08:44.347Z</time>
      </trkpt>
      <trkpt lat="45.90565" lon="6.01252">
        <ele>427</ele>
        <time>2021-09-11T11:08:45.347Z</time>
      </trkpt>
      <trkpt lat="45.90566" lon="6.01251">
        <ele>427</ele>
        <time>2021-09-11T11:08:46.347Z</time>
      </trkpt>
      <trkpt lat="45.90566" lon="6.0125">
        <ele>427</ele>
        <time>2021-09-11T11:08:47.346Z</time>
      </trkpt>
      <trkpt lat="45.90567" lon="6.01249">
        <ele>428</ele>
        <time>2021-09-11T11:08:48.347Z</time>
      </trkpt>
      <trkpt lat="45.90567" lon="6.01248">
        <ele>428</ele>
        <time>2021-09-11T11:08:49.346Z</time>
      </trkpt>
      <trkpt lat="45.90568" lon="6.01246">
        <ele>428</ele>
        <time>2021-09-11T11:08:50.346Z</time>
      </trkpt>
      <trkpt lat="45.90568" lon="6.01246">
        <ele>428</ele>
        <time>2021-09-11T11:08:51.347Z</time>
      </trkpt>
      <trkpt lat="45.90568" lon="6.01245">
        <ele>429</ele>
        <time>2021-09-11T11:08:52.346Z</time>
      </trkpt>
      <trkpt lat="45.90568" lon="6.01245">
        <ele>429</ele>
        <time>2021-09-11T11:08:53.347Z</time>
      </trkpt>
      <trkpt lat="45.90568" lon="6.01245">
        <ele>429</ele>
        <time>2021-09-11T11:08:54.347Z</time>
      </trkpt>
      <trkpt lat="45.90569" lon="6.01243">
        <ele>428</ele>
        <time>2021-09-11T11:08:55.347Z</time>
      </trkpt>
      <trkpt lat="45.90569" lon="6.01242">
        <ele>428</ele>
        <time>2021-09-11T11:08:56.347Z</time>
      </trkpt>
      <trkpt lat="45.9057" lon="6.01241">
        <ele>428</ele>
        <time>2021-09-11T11:08:57.347Z</time>
      </trkpt>
      <trkpt lat="45.9057" lon="6.0124">
        <ele>428</ele>
        <time>2021-09-11T11:08:58.347Z</time>
      </trkpt>
      <trkpt lat="45.90571" lon="6.01239">
        <ele>428</ele>
        <time>2021-09-11T11:08:59.347Z</time>
      </trkpt>
      <trkpt lat="45.90571" lon="6.01238">
        <ele>428</ele>
        <time>2021-09-11T11:09:00.346Z</time>
      </trkpt>
      <trkpt lat="45.90571" lon="6.01237">
        <ele>428</ele>
        <time>2021-09-11T11:09:01.347Z</time>
      </trkpt>
      <trkpt lat="45.90572" lon="6.01236">
        <ele>428</ele>
        <time>2021-09-11T11:09:02.347Z</time>
      </trkpt>
      <trkpt lat="45.90572" lon="6.01235">
        <ele>428</ele>
        <time>2021-09-11T11:09:03.346Z</time>
      </trkpt>
      <trkpt lat="45.90572" lon="6.01234">
        <ele>428</ele>
        <time>2021-09-11T11:09:04.346Z</time>
      </trkpt>
      <trkpt lat="45.90573" lon="6.01233">
        <ele>428</ele>
        <time>2021-09-11T11:09:05.346Z</time>
      </trkpt>
      <trkpt lat="45.90573" lon="6.01233">
        <ele>428</ele>
        <time>2021-09-11T11:09:06.347Z</time>
      </trkpt>
      <trkpt lat="45.90573" lon="6.01231">
        <ele>429</ele>
        <time>2021-09-11T11:09:07.346Z</time>
      </trkpt>
      <trkpt lat="45.90574" lon="6.0123">
        <ele>429</ele>
        <time>2021-09-11T11:09:08.347Z</time>
      </trkpt>
      <trkpt lat="45.90574" lon="6.01229">
        <ele>430</ele>
        <time>2021-09-11T11:09:09.347Z</time>
      </trkpt>
      <trkpt lat="45.90574" lon="6.01228">
        <ele>430</ele>
        <time>2021-09-11T11:09:10.346Z</time>
      </trkpt>
      <trkpt lat="45.90574" lon="6.01226">
        <ele>430</ele>
        <time>2021-09-11T11:09:11.347Z</time>
      </trkpt>
      <trkpt lat="45.90574" lon="6.01225">
        <ele>431</ele>
        <time>2021-09-11T11:09:12.347Z</time>
      </trkpt>
      <trkpt lat="45.90574" lon="6.01224">
        <ele>431</ele>
        <time>2021-09-11T11:09:13.347Z</time>
      </trkpt>
      <trkpt lat="45.90575" lon="6.01223">
        <ele>431</ele>
        <time>2021-09-11T11:09:14.347Z</time>
      </trkpt>
      <trkpt lat="45.90575" lon="6.01221">
        <ele>431</ele>
        <time>2021-09-11T11:09:15.347Z</time>
      </trkpt>
      <trkpt lat="45.90575" lon="6.0122">
        <ele>432</ele>
        <time>2021-09-11T11:09:16.347Z</time>
      </trkpt>
      <trkpt lat="45.90575" lon="6.01218">
        <ele>432</ele>
        <time>2021-09-11T11:09:17.347Z</time>
      </trkpt>
      <trkpt lat="45.90575" lon="6.01216">
        <ele>432</ele>
        <time>2021-09-11T11:09:18.347Z</time>
      </trkpt>
      <trkpt lat="45.90577" lon="6.01215">
        <ele>432</ele>
        <time>2021-09-11T11:09:19.347Z</time>
      </trkpt>
      <trkpt lat="45.90577" lon="6.01213">
        <ele>432</ele>
        <time>2021-09-11T11:09:20.347Z</time>
      </trkpt>
      <trkpt lat="45.90577" lon="6.01212">
        <ele>432</ele>
        <time>2021-09-11T11:09:21.346Z</time>
      </trkpt>
      <trkpt lat="45.90577" lon="6.01211">
        <ele>432</ele>
        <time>2021-09-11T11:09:22.346Z</time>
      </trkpt>
      <trkpt lat="45.90577" lon="6.01209">
        <ele>431</ele>
        <time>2021-09-11T11:09:23.347Z</time>
      </trkpt>
      <trkpt lat="45.90577" lon="6.01208">
        <ele>431</ele>
        <time>2021-09-11T11:09:24.347Z</time>
      </trkpt>
      <trkpt lat="45.90578" lon="6.01207">
        <ele>431</ele>
        <time>2021-09-11T11:09:25.347Z</time>
      </trkpt>
      <trkpt lat="45.90578" lon="6.01206">
        <ele>431</ele>
        <time>2021-09-11T11:09:26.347Z</time>
      </trkpt>
      <trkpt lat="45.90579" lon="6.01205">
        <ele>431</ele>
        <time>2021-09-11T11:09:27.346Z</time>
      </trkpt>
      <trkpt lat="45.90579" lon="6.01204">
        <ele>431</ele>
        <time>2021-09-11T11:09:28.347Z</time>
      </trkpt>
      <trkpt lat="45.90579" lon="6.01203">
        <ele>431</ele>
        <time>2021-09-11T11:09:29.347Z</time>
      </trkpt>
      <trkpt lat="45.9058" lon="6.01202">
        <ele>431</ele>
        <time>2021-09-11T11:09:30.347Z</time>
      </trkpt>
      <trkpt lat="45.90581" lon="6.01201">
        <ele>431</ele>
        <time>2021-09-11T11:09:31.346Z</time>
      </trkpt>
      <trkpt lat="45.90581" lon="6.012">
        <ele>431</ele>
        <time>2021-09-11T11:09:32.347Z</time>
      </trkpt>
      <trkpt lat="45.90582" lon="6.01198">
        <ele>431</ele>
        <time>2021-09-11T11:09:33.346Z</time>
      </trkpt>
      <trkpt lat="45.90582" lon="6.01197">
        <ele>431</ele>
        <time>2021-09-11T11:09:34.346Z</time>
      </trkpt>
      <trkpt lat="45.90583" lon="6.01195">
        <ele>431</ele>
        <time>2021-09-11T11:09:35.347Z</time>
      </trkpt>
      <trkpt lat="45.90584" lon="6.01194">
        <ele>431</ele>
        <time>2021-09-11T11:09:36.346Z</time>
      </trkpt>
      <trkpt lat="45.90584" lon="6.01193">
        <ele>431</ele>
        <time>2021-09-11T11:09:37.347Z</time>
      </trkpt>
      <trkpt lat="45.90585" lon="6.01192">
        <ele>431</ele>
        <time>2021-09-11T11:09:38.346Z</time>
      </trkpt>
      <trkpt lat="45.90585" lon="6.0119">
        <ele>431</ele>
        <time>2021-09-11T11:09:39.347Z</time>
      </trkpt>
      <trkpt lat="45.90586" lon="6.0119">
        <ele>430</ele>
        <time>2021-09-11T11:09:40.346Z</time>
      </trkpt>
      <trkpt lat="45.90586" lon="6.01188">
        <ele>430</ele>
        <time>2021-09-11T11:09:41.347Z</time>
      </trkpt>
      <trkpt lat="45.90587" lon="6.01187">
        <ele>431</ele>
        <time>2021-09-11T11:09:42.347Z</time>
      </trkpt>
      <trkpt lat="45.90587" lon="6.01186">
        <ele>431</ele>
        <time>2021-09-11T11:09:43.347Z</time>
      </trkpt>
      <trkpt lat="45.90587" lon="6.01185">
        <ele>431</ele>
        <time>2021-09-11T11:09:44.347Z</time>
      </trkpt>
      <trkpt lat="45.90588" lon="6.01183">
        <ele>432</ele>
        <time>2021-09-11T11:09:45.347Z</time>
      </trkpt>
      <trkpt lat="45.90588" lon="6.01182">
        <ele>431</ele>
        <time>2021-09-11T11:09:46.347Z</time>
      </trkpt>
      <trkpt lat="45.90589" lon="6.0118">
        <ele>431</ele>
        <time>2021-09-11T11:09:47.347Z</time>
      </trkpt>
      <trkpt lat="45.90589" lon="6.01179">
        <ele>430</ele>
        <time>2021-09-11T11:09:48.347Z</time>
      </trkpt>
      <trkpt lat="45.90589" lon="6.01177">
        <ele>430</ele>
        <time>2021-09-11T11:09:49.347Z</time>
      </trkpt>
      <trkpt lat="45.90589" lon="6.01176">
        <ele>431</ele>
        <time>2021-09-11T11:09:50.347Z</time>
      </trkpt>
      <trkpt lat="45.9059" lon="6.01174">
        <ele>431</ele>
        <time>2021-09-11T11:09:51.347Z</time>
      </trkpt>
      <trkpt lat="45.9059" lon="6.01173">
        <ele>431</ele>
        <time>2021-09-11T11:09:52.347Z</time>
      </trkpt>
      <trkpt lat="45.9059" lon="6.01172">
        <ele>431</ele>
        <time>2021-09-11T11:09:53.347Z</time>
      </trkpt>
      <trkpt lat="45.90591" lon="6.01171">
        <ele>431</ele>
        <time>2021-09-11T11:09:54.347Z</time>
      </trkpt>
      <trkpt lat="45.90591" lon="6.0117">
        <ele>431</ele>
        <time>2021-09-11T11:09:55.346Z</time>
      </trkpt>
      <trkpt lat="45.90591" lon="6.01169">
        <ele>431</ele>
        <time>2021-09-11T11:09:56.347Z</time>
      </trkpt>
      <trkpt lat="45.90592" lon="6.01167">
        <ele>431</ele>
        <time>2021-09-11T11:09:57.346Z</time>
      </trkpt>
      <trkpt lat="45.90592" lon="6.01166">
        <ele>431</ele>
        <time>2021-09-11T11:12:21.494Z</time>
      </trkpt>
      <trkpt lat="45.90593" lon="6.01165">
        <ele>431</ele>
        <time>2021-09-11T11:12:22.495Z</time>
      </trkpt>
      <trkpt lat="45.90593" lon="6.01164">
        <ele>432</ele>
        <time>2021-09-11T11:12:23.495Z</time>
      </trkpt>
      <trkpt lat="45.90592" lon="6.01164">
        <ele>432</ele>
        <time>2021-09-11T11:12:24.495Z</time>
      </trkpt>
      <trkpt lat="45.90592" lon="6.01163">
        <ele>433</ele>
        <time>2021-09-11T11:12:25.495Z</time>
      </trkpt>
      <trkpt lat="45.90592" lon="6.01162">
        <ele>433</ele>
        <time>2021-09-11T11:12:26.494Z</time>
      </trkpt>
      <trkpt lat="45.90593" lon="6.01161">
        <ele>434</ele>
        <time>2021-09-11T11:12:27.495Z</time>
      </trkpt>
      <trkpt lat="45.90593" lon="6.01161">
        <ele>434</ele>
        <time>2021-09-11T11:12:28.495Z</time>
      </trkpt>
      <trkpt lat="45.90593" lon="6.0116">
        <ele>434</ele>
        <time>2021-09-11T11:12:29.495Z</time>
      </trkpt>
      <trkpt lat="45.90594" lon="6.0116">
        <ele>433</ele>
        <time>2021-09-11T11:12:30.494Z</time>
      </trkpt>
      <trkpt lat="45.90594" lon="6.01159">
        <ele>433</ele>
        <time>2021-09-11T11:12:31.495Z</time>
      </trkpt>
      <trkpt lat="45.90594" lon="6.01157">
        <ele>433</ele>
        <time>2021-09-11T11:12:32.494Z</time>
      </trkpt>
      <trkpt lat="45.90595" lon="6.01156">
        <ele>433</ele>
        <time>2021-09-11T11:12:33.495Z</time>
      </trkpt>
      <trkpt lat="45.90595" lon="6.01155">
        <ele>433</ele>
        <time>2021-09-11T11:12:34.495Z</time>
      </trkpt>
      <trkpt lat="45.90596" lon="6.01153">
        <ele>433</ele>
        <time>2021-09-11T11:12:35.495Z</time>
      </trkpt>
      <trkpt lat="45.90596" lon="6.01152">
        <ele>433</ele>
        <time>2021-09-11T11:12:36.494Z</time>
      </trkpt>
      <trkpt lat="45.90597" lon="6.01151">
        <ele>434</ele>
        <time>2021-09-11T11:12:37.495Z</time>
      </trkpt>
      <trkpt lat="45.90597" lon="6.01149">
        <ele>434</ele>
        <time>2021-09-11T11:12:38.495Z</time>
      </trkpt>
      <trkpt lat="45.90598" lon="6.01148">
        <ele>434</ele>
        <time>2021-09-11T11:12:39.494Z</time>
      </trkpt>
      <trkpt lat="45.90598" lon="6.01147">
        <ele>434</ele>
        <time>2021-09-11T11:12:40.495Z</time>
      </trkpt>
      <trkpt lat="45.90598" lon="6.01145">
        <ele>434</ele>
        <time>2021-09-11T11:12:41.495Z</time>
      </trkpt>
      <trkpt lat="45.90599" lon="6.01144">
        <ele>434</ele>
        <time>2021-09-11T11:12:42.495Z</time>
      </trkpt>
      <trkpt lat="45.906" lon="6.01143">
        <ele>434</ele>
        <time>2021-09-11T11:12:43.495Z</time>
      </trkpt>
      <trkpt lat="45.906" lon="6.01141">
        <ele>433</ele>
        <time>2021-09-11T11:12:44.494Z</time>
      </trkpt>
      <trkpt lat="45.90601" lon="6.0114">
        <ele>433</ele>
        <time>2021-09-11T11:12:45.495Z</time>
      </trkpt>
      <trkpt lat="45.90601" lon="6.01139">
        <ele>433</ele>
        <time>2021-09-11T11:12:46.495Z</time>
      </trkpt>
      <trkpt lat="45.90602" lon="6.01138">
        <ele>432</ele>
        <time>2021-09-11T11:12:47.495Z</time>
      </trkpt>
      <trkpt lat="45.90602" lon="6.01137">
        <ele>432</ele>
        <time>2021-09-11T11:12:48.494Z</time>
      </trkpt>
      <trkpt lat="45.90603" lon="6.01136">
        <ele>432</ele>
        <time>2021-09-11T11:12:49.494Z</time>
      </trkpt>
      <trkpt lat="45.90603" lon="6.01134">
        <ele>432</ele>
        <time>2021-09-11T11:12:50.495Z</time>
      </trkpt>
      <trkpt lat="45.90604" lon="6.01133">
        <ele>432</ele>
        <time>2021-09-11T11:12:51.495Z</time>
      </trkpt>
      <trkpt lat="45.90604" lon="6.01132">
        <ele>433</ele>
        <time>2021-09-11T11:12:52.494Z</time>
      </trkpt>
      <trkpt lat="45.90605" lon="6.01131">
        <ele>433</ele>
        <time>2021-09-11T11:12:53.494Z</time>
      </trkpt>
      <trkpt lat="45.90606" lon="6.0113">
        <ele>434</ele>
        <time>2021-09-11T11:12:54.494Z</time>
      </trkpt>
      <trkpt lat="45.90607" lon="6.01129">
        <ele>434</ele>
        <time>2021-09-11T11:12:55.495Z</time>
      </trkpt>
      <trkpt lat="45.90607" lon="6.01128">
        <ele>435</ele>
        <time>2021-09-11T11:12:56.495Z</time>
      </trkpt>
      <trkpt lat="45.90608" lon="6.01127">
        <ele>435</ele>
        <time>2021-09-11T11:12:57.495Z</time>
      </trkpt>
      <trkpt lat="45.90609" lon="6.01127">
        <ele>436</ele>
        <time>2021-09-11T11:12:58.495Z</time>
      </trkpt>
      <trkpt lat="45.90609" lon="6.01126">
        <ele>436</ele>
        <time>2021-09-11T11:12:59.495Z</time>
      </trkpt>
      <trkpt lat="45.90611" lon="6.01125">
        <ele>437</ele>
        <time>2021-09-11T11:13:00.495Z</time>
      </trkpt>
      <trkpt lat="45.90611" lon="6.01125">
        <ele>437</ele>
        <time>2021-09-11T11:13:01.495Z</time>
      </trkpt>
      <trkpt lat="45.90612" lon="6.01124">
        <ele>437</ele>
        <time>2021-09-11T11:13:02.495Z</time>
      </trkpt>
      <trkpt lat="45.90612" lon="6.01124">
        <ele>437</ele>
        <time>2021-09-11T11:13:03.495Z</time>
      </trkpt>
      <trkpt lat="45.90612" lon="6.01124">
        <ele>437</ele>
        <time>2021-09-11T11:13:04.494Z</time>
      </trkpt>
      <trkpt lat="45.90613" lon="6.01123">
        <ele>437</ele>
        <time>2021-09-11T11:13:05.495Z</time>
      </trkpt>
      <trkpt lat="45.90613" lon="6.01123">
        <ele>437</ele>
        <time>2021-09-11T11:13:06.495Z</time>
      </trkpt>
      <trkpt lat="45.90613" lon="6.01122">
        <ele>438</ele>
        <time>2021-09-11T11:13:07.495Z</time>
      </trkpt>
      <trkpt lat="45.90613" lon="6.01121">
        <ele>440</ele>
        <time>2021-09-11T11:13:08.496Z</time>
      </trkpt>
      <trkpt lat="45.90613" lon="6.01122">
        <ele>440</ele>
        <time>2021-09-11T11:13:09.495Z</time>
      </trkpt>
      <trkpt lat="45.90613" lon="6.01123">
        <ele>441</ele>
        <time>2021-09-11T11:13:10.495Z</time>
      </trkpt>
      <trkpt lat="45.90613" lon="6.01123">
        <ele>440</ele>
        <time>2021-09-11T11:13:11.496Z</time>
      </trkpt>
      <trkpt lat="45.90614" lon="6.01121">
        <ele>440</ele>
        <time>2021-09-11T11:13:12.496Z</time>
      </trkpt>
      <trkpt lat="45.90614" lon="6.0112">
        <ele>440</ele>
        <time>2021-09-11T11:13:13.497Z</time>
      </trkpt>
      <trkpt lat="45.90614" lon="6.0112">
        <ele>440</ele>
        <time>2021-09-11T11:13:14.496Z</time>
      </trkpt>
      <trkpt lat="45.90619" lon="6.01113">
        <ele>434</ele>
        <time>2021-09-11T11:13:15.497Z</time>
      </trkpt>
      <trkpt lat="45.90621" lon="6.01109">
        <ele>434</ele>
        <time>2021-09-11T11:13:16.496Z</time>
      </trkpt>
      <trkpt lat="45.90623" lon="6.01105">
        <ele>434</ele>
        <time>2021-09-11T11:13:17.497Z</time>
      </trkpt>
      <trkpt lat="45.90625" lon="6.011">
        <ele>435</ele>
        <time>2021-09-11T11:13:18.497Z</time>
      </trkpt>
      <trkpt lat="45.90628" lon="6.01097">
        <ele>435</ele>
        <time>2021-09-11T11:13:19.496Z</time>
      </trkpt>
      <trkpt lat="45.9063" lon="6.01094">
        <ele>435</ele>
        <time>2021-09-11T11:13:20.497Z</time>
      </trkpt>
      <trkpt lat="45.90633" lon="6.01091">
        <ele>435</ele>
        <time>2021-09-11T11:13:21.497Z</time>
      </trkpt>
      <trkpt lat="45.90635" lon="6.01089">
        <ele>435</ele>
        <time>2021-09-11T11:13:22.496Z</time>
      </trkpt>
      <trkpt lat="45.90637" lon="6.01087">
        <ele>435</ele>
        <time>2021-09-11T11:13:23.496Z</time>
      </trkpt>
      <trkpt lat="45.90639" lon="6.01085">
        <ele>435</ele>
        <time>2021-09-11T11:13:24.497Z</time>
      </trkpt>
      <trkpt lat="45.90642" lon="6.01083">
        <ele>435</ele>
        <time>2021-09-11T11:13:25.497Z</time>
      </trkpt>
      <trkpt lat="45.90643" lon="6.01081">
        <ele>434</ele>
        <time>2021-09-11T11:13:26.496Z</time>
      </trkpt>
      <trkpt lat="45.90645" lon="6.01079">
        <ele>434</ele>
        <time>2021-09-11T11:13:27.496Z</time>
      </trkpt>
      <trkpt lat="45.90647" lon="6.01078">
        <ele>434</ele>
        <time>2021-09-11T11:13:28.496Z</time>
      </trkpt>
      <trkpt lat="45.90649" lon="6.01076">
        <ele>434</ele>
        <time>2021-09-11T11:13:29.496Z</time>
      </trkpt>
      <trkpt lat="45.90652" lon="6.01075">
        <ele>434</ele>
        <time>2021-09-11T11:13:30.496Z</time>
      </trkpt>
      <trkpt lat="45.90654" lon="6.01074">
        <ele>434</ele>
        <time>2021-09-11T11:13:31.496Z</time>
      </trkpt>
      <trkpt lat="45.90656" lon="6.01073">
        <ele>434</ele>
        <time>2021-09-11T11:13:32.496Z</time>
      </trkpt>
      <trkpt lat="45.90658" lon="6.01071">
        <ele>434</ele>
        <time>2021-09-11T11:13:33.497Z</time>
      </trkpt>
      <trkpt lat="45.90661" lon="6.0107">
        <ele>434</ele>
        <time>2021-09-11T11:13:34.497Z</time>
      </trkpt>
      <trkpt lat="45.90663" lon="6.01069">
        <ele>434</ele>
        <time>2021-09-11T11:13:35.497Z</time>
      </trkpt>
      <trkpt lat="45.90665" lon="6.01068">
        <ele>435</ele>
        <time>2021-09-11T11:13:36.496Z</time>
      </trkpt>
      <trkpt lat="45.90667" lon="6.01067">
        <ele>435</ele>
        <time>2021-09-11T11:13:37.496Z</time>
      </trkpt>
      <trkpt lat="45.90669" lon="6.01066">
        <ele>435</ele>
        <time>2021-09-11T11:13:38.497Z</time>
      </trkpt>
      <trkpt lat="45.90671" lon="6.01065">
        <ele>435</ele>
        <time>2021-09-11T11:13:39.497Z</time>
      </trkpt>
      <trkpt lat="45.90673" lon="6.01064">
        <ele>435</ele>
        <time>2021-09-11T11:13:40.496Z</time>
      </trkpt>
      <trkpt lat="45.90675" lon="6.01063">
        <ele>434</ele>
        <time>2021-09-11T11:13:41.496Z</time>
      </trkpt>
      <trkpt lat="45.90677" lon="6.01062">
        <ele>434</ele>
        <time>2021-09-11T11:13:42.496Z</time>
      </trkpt>
      <trkpt lat="45.90679" lon="6.01061">
        <ele>434</ele>
        <time>2021-09-11T11:13:43.497Z</time>
      </trkpt>
      <trkpt lat="45.90681" lon="6.0106">
        <ele>434</ele>
        <time>2021-09-11T11:13:44.496Z</time>
      </trkpt>
      <trkpt lat="45.90683" lon="6.0106">
        <ele>433</ele>
        <time>2021-09-11T11:13:45.496Z</time>
      </trkpt>
      <trkpt lat="45.90686" lon="6.01059">
        <ele>433</ele>
        <time>2021-09-11T11:13:46.496Z</time>
      </trkpt>
      <trkpt lat="45.90688" lon="6.01058">
        <ele>432</ele>
        <time>2021-09-11T11:13:47.496Z</time>
      </trkpt>
      <trkpt lat="45.9069" lon="6.01057">
        <ele>432</ele>
        <time>2021-09-11T11:13:48.497Z</time>
      </trkpt>
      <trkpt lat="45.90692" lon="6.01056">
        <ele>431</ele>
        <time>2021-09-11T11:13:49.496Z</time>
      </trkpt>
      <trkpt lat="45.90694" lon="6.01055">
        <ele>430</ele>
        <time>2021-09-11T11:13:50.496Z</time>
      </trkpt>
      <trkpt lat="45.90696" lon="6.01054">
        <ele>430</ele>
        <time>2021-09-11T11:13:51.496Z</time>
      </trkpt>
      <trkpt lat="45.90698" lon="6.01053">
        <ele>429</ele>
        <time>2021-09-11T11:13:52.497Z</time>
      </trkpt>
      <trkpt lat="45.90699" lon="6.01051">
        <ele>429</ele>
        <time>2021-09-11T11:13:53.497Z</time>
      </trkpt>
      <trkpt lat="45.90701" lon="6.0105">
        <ele>428</ele>
        <time>2021-09-11T11:13:54.497Z</time>
      </trkpt>
      <trkpt lat="45.90702" lon="6.01048">
        <ele>428</ele>
        <time>2021-09-11T11:13:55.496Z</time>
      </trkpt>
      <trkpt lat="45.90704" lon="6.01046">
        <ele>428</ele>
        <time>2021-09-11T11:13:56.496Z</time>
      </trkpt>
      <trkpt lat="45.90705" lon="6.01044">
        <ele>428</ele>
        <time>2021-09-11T11:13:57.497Z</time>
      </trkpt>
      <trkpt lat="45.90706" lon="6.01041">
        <ele>428</ele>
        <time>2021-09-11T11:13:58.497Z</time>
      </trkpt>
      <trkpt lat="45.90707" lon="6.01039">
        <ele>428</ele>
        <time>2021-09-11T11:13:59.497Z</time>
      </trkpt>
      <trkpt lat="45.90708" lon="6.01037">
        <ele>429</ele>
        <time>2021-09-11T11:14:00.496Z</time>
      </trkpt>
      <trkpt lat="45.90708" lon="6.01035">
        <ele>429</ele>
        <time>2021-09-11T11:14:01.497Z</time>
      </trkpt>
      <trkpt lat="45.90708" lon="6.01034">
        <ele>430</ele>
        <time>2021-09-11T11:14:02.497Z</time>
      </trkpt>
      <trkpt lat="45.90708" lon="6.01032">
        <ele>430</ele>
        <time>2021-09-11T11:14:03.497Z</time>
      </trkpt>
      <trkpt lat="45.90707" lon="6.01032">
        <ele>430</ele>
        <time>2021-09-11T11:14:04.497Z</time>
      </trkpt>
      <trkpt lat="45.90707" lon="6.01032">
        <ele>431</ele>
        <time>2021-09-11T11:14:05.497Z</time>
      </trkpt>
      <trkpt lat="45.90707" lon="6.01031">
        <ele>431</ele>
        <time>2021-09-11T11:14:06.496Z</time>
      </trkpt>
      <trkpt lat="45.90707" lon="6.0103">
        <ele>432</ele>
        <time>2021-09-11T11:14:07.496Z</time>
      </trkpt>
      <trkpt lat="45.90706" lon="6.01029">
        <ele>432</ele>
        <time>2021-09-11T11:14:08.497Z</time>
      </trkpt>
      <trkpt lat="45.90706" lon="6.01029">
        <ele>433</ele>
        <time>2021-09-11T11:14:09.497Z</time>
      </trkpt>
      <trkpt lat="45.90706" lon="6.01029">
        <ele>434</ele>
        <time>2021-09-11T11:14:10.496Z</time>
      </trkpt>
      <trkpt lat="45.90706" lon="6.01029">
        <ele>434</ele>
        <time>2021-09-11T11:14:11.496Z</time>
      </trkpt>
      <trkpt lat="45.90705" lon="6.01028">
        <ele>435</ele>
        <time>2021-09-11T11:14:12.496Z</time>
      </trkpt>
      <trkpt lat="45.90705" lon="6.01027">
        <ele>439</ele>
        <time>2021-09-11T11:14:13.497Z</time>
      </trkpt>
      <trkpt lat="45.90705" lon="6.01026">
        <ele>439</ele>
        <time>2021-09-11T11:14:14.496Z</time>
      </trkpt>
      <trkpt lat="45.90705" lon="6.01025">
        <ele>439</ele>
        <time>2021-09-11T11:14:15.496Z</time>
      </trkpt>
      <trkpt lat="45.90705" lon="6.01023">
        <ele>439</ele>
        <time>2021-09-11T11:14:16.496Z</time>
      </trkpt>
      <trkpt lat="45.90705" lon="6.01021">
        <ele>439</ele>
        <time>2021-09-11T11:14:17.497Z</time>
      </trkpt>
      <trkpt lat="45.90705" lon="6.01019">
        <ele>438</ele>
        <time>2021-09-11T11:14:18.496Z</time>
      </trkpt>
      <trkpt lat="45.90706" lon="6.01017">
        <ele>438</ele>
        <time>2021-09-11T11:14:19.497Z</time>
      </trkpt>
      <trkpt lat="45.90706" lon="6.01015">
        <ele>437</ele>
        <time>2021-09-11T11:14:20.497Z</time>
      </trkpt>
      <trkpt lat="45.90707" lon="6.01013">
        <ele>437</ele>
        <time>2021-09-11T11:14:21.496Z</time>
      </trkpt>
      <trkpt lat="45.90707" lon="6.01011">
        <ele>436</ele>
        <time>2021-09-11T11:14:22.496Z</time>
      </trkpt>
      <trkpt lat="45.90707" lon="6.01007">
        <ele>436</ele>
        <time>2021-09-11T11:14:23.496Z</time>
      </trkpt>
      <trkpt lat="45.90707" lon="6.01005">
        <ele>436</ele>
        <time>2021-09-11T11:14:24.496Z</time>
      </trkpt>
      <trkpt lat="45.90708" lon="6.01002">
        <ele>435</ele>
        <time>2021-09-11T11:14:25.496Z</time>
      </trkpt>
      <trkpt lat="45.90708" lon="6.00999">
        <ele>435</ele>
        <time>2021-09-11T11:14:26.497Z</time>
      </trkpt>
      <trkpt lat="45.90708" lon="6.00996">
        <ele>435</ele>
        <time>2021-09-11T11:14:27.496Z</time>
      </trkpt>
      <trkpt lat="45.90708" lon="6.00993">
        <ele>434</ele>
        <time>2021-09-11T11:14:28.496Z</time>
      </trkpt>
      <trkpt lat="45.90709" lon="6.00991">
        <ele>434</ele>
        <time>2021-09-11T11:14:29.496Z</time>
      </trkpt>
      <trkpt lat="45.90709" lon="6.00988">
        <ele>434</ele>
        <time>2021-09-11T11:14:30.497Z</time>
      </trkpt>
      <trkpt lat="45.90709" lon="6.00986">
        <ele>434</ele>
        <time>2021-09-11T11:14:31.496Z</time>
      </trkpt>
      <trkpt lat="45.90709" lon="6.00984">
        <ele>433</ele>
        <time>2021-09-11T11:14:32.496Z</time>
      </trkpt>
      <trkpt lat="45.90709" lon="6.00982">
        <ele>433</ele>
        <time>2021-09-11T11:14:33.497Z</time>
      </trkpt>
      <trkpt lat="45.90709" lon="6.0098">
        <ele>432</ele>
        <time>2021-09-11T11:14:34.497Z</time>
      </trkpt>
      <trkpt lat="45.90709" lon="6.00978">
        <ele>431</ele>
        <time>2021-09-11T11:14:35.497Z</time>
      </trkpt>
      <trkpt lat="45.90709" lon="6.00976">
        <ele>431</ele>
        <time>2021-09-11T11:14:36.496Z</time>
      </trkpt>
      <trkpt lat="45.90709" lon="6.00973">
        <ele>431</ele>
        <time>2021-09-11T11:14:37.496Z</time>
      </trkpt>
      <trkpt lat="45.90708" lon="6.0097">
        <ele>431</ele>
        <time>2021-09-11T11:14:38.496Z</time>
      </trkpt>
      <trkpt lat="45.90708" lon="6.00967">
        <ele>431</ele>
        <time>2021-09-11T11:14:39.496Z</time>
      </trkpt>
      <trkpt lat="45.90708" lon="6.00963">
        <ele>431</ele>
        <time>2021-09-11T11:14:40.497Z</time>
      </trkpt>
      <trkpt lat="45.90708" lon="6.00959">
        <ele>432</ele>
        <time>2021-09-11T11:14:41.497Z</time>
      </trkpt>
      <trkpt lat="45.90708" lon="6.00956">
        <ele>432</ele>
        <time>2021-09-11T11:14:42.496Z</time>
      </trkpt>
      <trkpt lat="45.90708" lon="6.00953">
        <ele>432</ele>
        <time>2021-09-11T11:14:43.496Z</time>
      </trkpt>
      <trkpt lat="45.90708" lon="6.00951">
        <ele>432</ele>
        <time>2021-09-11T11:14:44.497Z</time>
      </trkpt>
      <trkpt lat="45.90708" lon="6.00949">
        <ele>432</ele>
        <time>2021-09-11T11:14:45.497Z</time>
      </trkpt>
      <trkpt lat="45.90708" lon="6.00946">
        <ele>432</ele>
        <time>2021-09-11T11:14:46.496Z</time>
      </trkpt>
      <trkpt lat="45.90708" lon="6.00944">
        <ele>432</ele>
        <time>2021-09-11T11:14:47.496Z</time>
      </trkpt>
      <trkpt lat="45.90708" lon="6.00942">
        <ele>432</ele>
        <time>2021-09-11T11:14:48.496Z</time>
      </trkpt>
      <trkpt lat="45.90708" lon="6.0094">
        <ele>432</ele>
        <time>2021-09-11T11:14:49.497Z</time>
      </trkpt>
      <trkpt lat="45.90708" lon="6.00938">
        <ele>432</ele>
        <time>2021-09-11T11:14:50.496Z</time>
      </trkpt>
      <trkpt lat="45.90708" lon="6.00935">
        <ele>431</ele>
        <time>2021-09-11T11:14:51.497Z</time>
      </trkpt>
      <trkpt lat="45.90708" lon="6.00932">
        <ele>431</ele>
        <time>2021-09-11T11:14:52.496Z</time>
      </trkpt>
      <trkpt lat="45.90708" lon="6.00929">
        <ele>431</ele>
        <time>2021-09-11T11:14:53.496Z</time>
      </trkpt>
      <trkpt lat="45.90708" lon="6.00927">
        <ele>431</ele>
        <time>2021-09-11T11:14:54.496Z</time>
      </trkpt>
      <trkpt lat="45.90708" lon="6.00925">
        <ele>432</ele>
        <time>2021-09-11T11:14:55.496Z</time>
      </trkpt>
      <trkpt lat="45.90708" lon="6.00923">
        <ele>432</ele>
        <time>2021-09-11T11:14:56.496Z</time>
      </trkpt>
      <trkpt lat="45.90708" lon="6.00921">
        <ele>432</ele>
        <time>2021-09-11T11:14:57.496Z</time>
      </trkpt>
      <trkpt lat="45.90708" lon="6.00918">
        <ele>432</ele>
        <time>2021-09-11T11:14:58.496Z</time>
      </trkpt>
      <trkpt lat="45.90708" lon="6.00916">
        <ele>432</ele>
        <time>2021-09-11T11:14:59.497Z</time>
      </trkpt>
      <trkpt lat="45.90709" lon="6.00913">
        <ele>433</ele>
        <time>2021-09-11T11:15:00.497Z</time>
      </trkpt>
      <trkpt lat="45.90709" lon="6.00911">
        <ele>433</ele>
        <time>2021-09-11T11:15:01.497Z</time>
      </trkpt>
      <trkpt lat="45.9071" lon="6.00908">
        <ele>434</ele>
        <time>2021-09-11T11:15:02.496Z</time>
      </trkpt>
      <trkpt lat="45.90711" lon="6.00906">
        <ele>434</ele>
        <time>2021-09-11T11:15:03.496Z</time>
      </trkpt>
      <trkpt lat="45.90711" lon="6.00903">
        <ele>434</ele>
        <time>2021-09-11T11:15:04.496Z</time>
      </trkpt>
      <trkpt lat="45.90711" lon="6.00901">
        <ele>434</ele>
        <time>2021-09-11T11:15:05.497Z</time>
      </trkpt>
      <trkpt lat="45.90712" lon="6.00898">
        <ele>434</ele>
        <time>2021-09-11T11:15:06.496Z</time>
      </trkpt>
      <trkpt lat="45.90712" lon="6.00895">
        <ele>434</ele>
        <time>2021-09-11T11:15:07.496Z</time>
      </trkpt>
      <trkpt lat="45.90713" lon="6.00893">
        <ele>434</ele>
        <time>2021-09-11T11:15:08.496Z</time>
      </trkpt>
      <trkpt lat="45.90714" lon="6.00891">
        <ele>434</ele>
        <time>2021-09-11T11:15:09.497Z</time>
      </trkpt>
      <trkpt lat="45.90715" lon="6.00888">
        <ele>434</ele>
        <time>2021-09-11T11:15:10.497Z</time>
      </trkpt>
      <trkpt lat="45.90716" lon="6.00886">
        <ele>435</ele>
        <time>2021-09-11T11:15:11.497Z</time>
      </trkpt>
      <trkpt lat="45.90716" lon="6.00883">
        <ele>435</ele>
        <time>2021-09-11T11:15:12.496Z</time>
      </trkpt>
      <trkpt lat="45.90717" lon="6.0088">
        <ele>435</ele>
        <time>2021-09-11T11:15:13.497Z</time>
      </trkpt>
      <trkpt lat="45.90717" lon="6.00876">
        <ele>435</ele>
        <time>2021-09-11T11:15:14.497Z</time>
      </trkpt>
      <trkpt lat="45.90718" lon="6.00872">
        <ele>435</ele>
        <time>2021-09-11T11:15:15.497Z</time>
      </trkpt>
      <trkpt lat="45.90719" lon="6.00868">
        <ele>435</ele>
        <time>2021-09-11T11:15:16.496Z</time>
      </trkpt>
      <trkpt lat="45.90719" lon="6.00862">
        <ele>436</ele>
        <time>2021-09-11T11:15:17.496Z</time>
      </trkpt>
      <trkpt lat="45.9072" lon="6.00857">
        <ele>436</ele>
        <time>2021-09-11T11:15:18.496Z</time>
      </trkpt>
      <trkpt lat="45.90722" lon="6.00852">
        <ele>435</ele>
        <time>2021-09-11T11:15:19.497Z</time>
      </trkpt>
      <trkpt lat="45.90723" lon="6.00846">
        <ele>435</ele>
        <time>2021-09-11T11:15:20.496Z</time>
      </trkpt>
      <trkpt lat="45.90725" lon="6.00841">
        <ele>435</ele>
        <time>2021-09-11T11:15:21.496Z</time>
      </trkpt>
      <trkpt lat="45.90727" lon="6.00836">
        <ele>436</ele>
        <time>2021-09-11T11:15:22.496Z</time>
      </trkpt>
      <trkpt lat="45.90729" lon="6.00832">
        <ele>435</ele>
        <time>2021-09-11T11:15:23.496Z</time>
      </trkpt>
      <trkpt lat="45.90731" lon="6.00828">
        <ele>435</ele>
        <time>2021-09-11T11:15:24.496Z</time>
      </trkpt>
      <trkpt lat="45.90733" lon="6.00825">
        <ele>435</ele>
        <time>2021-09-11T11:15:25.497Z</time>
      </trkpt>
      <trkpt lat="45.90735" lon="6.00822">
        <ele>435</ele>
        <time>2021-09-11T11:15:26.496Z</time>
      </trkpt>
      <trkpt lat="45.90736" lon="6.00819">
        <ele>435</ele>
        <time>2021-09-11T11:15:27.496Z</time>
      </trkpt>
      <trkpt lat="45.90738" lon="6.00816">
        <ele>435</ele>
        <time>2021-09-11T11:15:28.497Z</time>
      </trkpt>
      <trkpt lat="45.90739" lon="6.00813">
        <ele>435</ele>
        <time>2021-09-11T11:15:29.497Z</time>
      </trkpt>
      <trkpt lat="45.90741" lon="6.0081">
        <ele>435</ele>
        <time>2021-09-11T11:15:30.497Z</time>
      </trkpt>
      <trkpt lat="45.90742" lon="6.00807">
        <ele>434</ele>
        <time>2021-09-11T11:15:31.496Z</time>
      </trkpt>
      <trkpt lat="45.90744" lon="6.00805">
        <ele>435</ele>
        <time>2021-09-11T11:15:32.496Z</time>
      </trkpt>
      <trkpt lat="45.90745" lon="6.00802">
        <ele>435</ele>
        <time>2021-09-11T11:15:33.496Z</time>
      </trkpt>
      <trkpt lat="45.90747" lon="6.00799">
        <ele>435</ele>
        <time>2021-09-11T11:15:34.496Z</time>
      </trkpt>
      <trkpt lat="45.90749" lon="6.00796">
        <ele>435</ele>
        <time>2021-09-11T11:15:35.496Z</time>
      </trkpt>
      <trkpt lat="45.9075" lon="6.00793">
        <ele>435</ele>
        <time>2021-09-11T11:15:36.496Z</time>
      </trkpt>
      <trkpt lat="45.90752" lon="6.0079">
        <ele>435</ele>
        <time>2021-09-11T11:15:37.496Z</time>
      </trkpt>
      <trkpt lat="45.90753" lon="6.00788">
        <ele>435</ele>
        <time>2021-09-11T11:15:38.496Z</time>
      </trkpt>
      <trkpt lat="45.90754" lon="6.00785">
        <ele>435</ele>
        <time>2021-09-11T11:15:39.497Z</time>
      </trkpt>
      <trkpt lat="45.90756" lon="6.00782">
        <ele>435</ele>
        <time>2021-09-11T11:15:40.497Z</time>
      </trkpt>
      <trkpt lat="45.90757" lon="6.0078">
        <ele>435</ele>
        <time>2021-09-11T11:15:41.496Z</time>
      </trkpt>
      <trkpt lat="45.90758" lon="6.00777">
        <ele>434</ele>
        <time>2021-09-11T11:15:42.496Z</time>
      </trkpt>
      <trkpt lat="45.90759" lon="6.00774">
        <ele>434</ele>
        <time>2021-09-11T11:15:43.496Z</time>
      </trkpt>
      <trkpt lat="45.9076" lon="6.00771">
        <ele>434</ele>
        <time>2021-09-11T11:15:44.496Z</time>
      </trkpt>
      <trkpt lat="45.90761" lon="6.00769">
        <ele>434</ele>
        <time>2021-09-11T11:15:45.497Z</time>
      </trkpt>
      <trkpt lat="45.90762" lon="6.00766">
        <ele>434</ele>
        <time>2021-09-11T11:15:46.497Z</time>
      </trkpt>
      <trkpt lat="45.90763" lon="6.00763">
        <ele>434</ele>
        <time>2021-09-11T11:15:47.496Z</time>
      </trkpt>
      <trkpt lat="45.90764" lon="6.0076">
        <ele>435</ele>
        <time>2021-09-11T11:15:48.496Z</time>
      </trkpt>
      <trkpt lat="45.90765" lon="6.00757">
        <ele>434</ele>
        <time>2021-09-11T11:15:49.497Z</time>
      </trkpt>
      <trkpt lat="45.90766" lon="6.00754">
        <ele>434</ele>
        <time>2021-09-11T11:15:50.496Z</time>
      </trkpt>
      <trkpt lat="45.90767" lon="6.00752">
        <ele>434</ele>
        <time>2021-09-11T11:15:51.496Z</time>
      </trkpt>
      <trkpt lat="45.90768" lon="6.00749">
        <ele>434</ele>
        <time>2021-09-11T11:15:52.497Z</time>
      </trkpt>
      <trkpt lat="45.90769" lon="6.00746">
        <ele>434</ele>
        <time>2021-09-11T11:15:53.496Z</time>
      </trkpt>
      <trkpt lat="45.90769" lon="6.00743">
        <ele>434</ele>
        <time>2021-09-11T11:15:54.497Z</time>
      </trkpt>
      <trkpt lat="45.9077" lon="6.0074">
        <ele>434</ele>
        <time>2021-09-11T11:15:55.496Z</time>
      </trkpt>
      <trkpt lat="45.90771" lon="6.00737">
        <ele>434</ele>
        <time>2021-09-11T11:15:56.497Z</time>
      </trkpt>
      <trkpt lat="45.90771" lon="6.00734">
        <ele>434</ele>
        <time>2021-09-11T11:15:57.496Z</time>
      </trkpt>
      <trkpt lat="45.90772" lon="6.00731">
        <ele>434</ele>
        <time>2021-09-11T11:15:58.496Z</time>
      </trkpt>
      <trkpt lat="45.90772" lon="6.00728">
        <ele>434</ele>
        <time>2021-09-11T11:15:59.496Z</time>
      </trkpt>
      <trkpt lat="45.90773" lon="6.00725">
        <ele>434</ele>
        <time>2021-09-11T11:16:00.497Z</time>
      </trkpt>
      <trkpt lat="45.90774" lon="6.00722">
        <ele>434</ele>
        <time>2021-09-11T11:16:01.496Z</time>
      </trkpt>
      <trkpt lat="45.90774" lon="6.00719">
        <ele>434</ele>
        <time>2021-09-11T11:16:02.496Z</time>
      </trkpt>
      <trkpt lat="45.90775" lon="6.00715">
        <ele>434</ele>
        <time>2021-09-11T11:16:03.496Z</time>
      </trkpt>
      <trkpt lat="45.90775" lon="6.00712">
        <ele>434</ele>
        <time>2021-09-11T11:16:04.496Z</time>
      </trkpt>
      <trkpt lat="45.90776" lon="6.00708">
        <ele>434</ele>
        <time>2021-09-11T11:16:05.497Z</time>
      </trkpt>
      <trkpt lat="45.90777" lon="6.00704">
        <ele>434</ele>
        <time>2021-09-11T11:16:06.496Z</time>
      </trkpt>
      <trkpt lat="45.90778" lon="6.00701">
        <ele>435</ele>
        <time>2021-09-11T11:16:07.496Z</time>
      </trkpt>
      <trkpt lat="45.90779" lon="6.00697">
        <ele>435</ele>
        <time>2021-09-11T11:16:08.496Z</time>
      </trkpt>
      <trkpt lat="45.9078" lon="6.00694">
        <ele>435</ele>
        <time>2021-09-11T11:16:09.497Z</time>
      </trkpt>
      <trkpt lat="45.9078" lon="6.0069">
        <ele>436</ele>
        <time>2021-09-11T11:16:10.497Z</time>
      </trkpt>
      <trkpt lat="45.90781" lon="6.00687">
        <ele>436</ele>
        <time>2021-09-11T11:16:11.497Z</time>
      </trkpt>
      <trkpt lat="45.90782" lon="6.00684">
        <ele>436</ele>
        <time>2021-09-11T11:16:12.496Z</time>
      </trkpt>
      <trkpt lat="45.90782" lon="6.00681">
        <ele>436</ele>
        <time>2021-09-11T11:16:13.496Z</time>
      </trkpt>
      <trkpt lat="45.90783" lon="6.00679">
        <ele>436</ele>
        <time>2021-09-11T11:16:14.497Z</time>
      </trkpt>
      <trkpt lat="45.90784" lon="6.00676">
        <ele>436</ele>
        <time>2021-09-11T11:16:15.497Z</time>
      </trkpt>
      <trkpt lat="45.90785" lon="6.00673">
        <ele>437</ele>
        <time>2021-09-11T11:16:16.496Z</time>
      </trkpt>
      <trkpt lat="45.90785" lon="6.0067">
        <ele>436</ele>
        <time>2021-09-11T11:16:17.497Z</time>
      </trkpt>
      <trkpt lat="45.90786" lon="6.00667">
        <ele>436</ele>
        <time>2021-09-11T11:16:18.496Z</time>
      </trkpt>
      <trkpt lat="45.90787" lon="6.00663">
        <ele>436</ele>
        <time>2021-09-11T11:16:19.496Z</time>
      </trkpt>
      <trkpt lat="45.90787" lon="6.0066">
        <ele>436</ele>
        <time>2021-09-11T11:16:20.497Z</time>
      </trkpt>
      <trkpt lat="45.90788" lon="6.00657">
        <ele>436</ele>
        <time>2021-09-11T11:16:21.496Z</time>
      </trkpt>
      <trkpt lat="45.90789" lon="6.00653">
        <ele>436</ele>
        <time>2021-09-11T11:16:22.496Z</time>
      </trkpt>
      <trkpt lat="45.90789" lon="6.0065">
        <ele>436</ele>
        <time>2021-09-11T11:16:23.496Z</time>
      </trkpt>
      <trkpt lat="45.9079" lon="6.00646">
        <ele>437</ele>
        <time>2021-09-11T11:16:24.496Z</time>
      </trkpt>
      <trkpt lat="45.9079" lon="6.00643">
        <ele>437</ele>
        <time>2021-09-11T11:16:25.496Z</time>
      </trkpt>
      <trkpt lat="45.90791" lon="6.00639">
        <ele>437</ele>
        <time>2021-09-11T11:16:26.496Z</time>
      </trkpt>
      <trkpt lat="45.90792" lon="6.00636">
        <ele>437</ele>
        <time>2021-09-11T11:16:27.496Z</time>
      </trkpt>
      <trkpt lat="45.90792" lon="6.00632">
        <ele>438</ele>
        <time>2021-09-11T11:16:28.496Z</time>
      </trkpt>
      <trkpt lat="45.90793" lon="6.00629">
        <ele>438</ele>
        <time>2021-09-11T11:16:29.497Z</time>
      </trkpt>
      <trkpt lat="45.90794" lon="6.00626">
        <ele>438</ele>
        <time>2021-09-11T11:16:30.497Z</time>
      </trkpt>
      <trkpt lat="45.90795" lon="6.00622">
        <ele>438</ele>
        <time>2021-09-11T11:16:31.496Z</time>
      </trkpt>
      <trkpt lat="45.90795" lon="6.00619">
        <ele>437</ele>
        <time>2021-09-11T11:16:32.496Z</time>
      </trkpt>
      <trkpt lat="45.90795" lon="6.00616">
        <ele>437</ele>
        <time>2021-09-11T11:16:33.497Z</time>
      </trkpt>
      <trkpt lat="45.90796" lon="6.00613">
        <ele>438</ele>
        <time>2021-09-11T11:16:34.497Z</time>
      </trkpt>
      <trkpt lat="45.90797" lon="6.00611">
        <ele>437</ele>
        <time>2021-09-11T11:16:35.497Z</time>
      </trkpt>
      <trkpt lat="45.90798" lon="6.00608">
        <ele>437</ele>
        <time>2021-09-11T11:16:36.496Z</time>
      </trkpt>
      <trkpt lat="45.90799" lon="6.00605">
        <ele>437</ele>
        <time>2021-09-11T11:16:37.497Z</time>
      </trkpt>
      <trkpt lat="45.908" lon="6.00602">
        <ele>437</ele>
        <time>2021-09-11T11:16:38.496Z</time>
      </trkpt>
      <trkpt lat="45.90801" lon="6.00599">
        <ele>437</ele>
        <time>2021-09-11T11:16:39.496Z</time>
      </trkpt>
      <trkpt lat="45.90802" lon="6.00596">
        <ele>437</ele>
        <time>2021-09-11T11:16:40.497Z</time>
      </trkpt>
      <trkpt lat="45.90803" lon="6.00594">
        <ele>437</ele>
        <time>2021-09-11T11:16:41.496Z</time>
      </trkpt>
      <trkpt lat="45.90805" lon="6.00591">
        <ele>437</ele>
        <time>2021-09-11T11:16:42.496Z</time>
      </trkpt>
      <trkpt lat="45.90806" lon="6.00588">
        <ele>436</ele>
        <time>2021-09-11T11:16:43.496Z</time>
      </trkpt>
      <trkpt lat="45.90808" lon="6.00586">
        <ele>436</ele>
        <time>2021-09-11T11:16:44.497Z</time>
      </trkpt>
      <trkpt lat="45.90809" lon="6.00584">
        <ele>436</ele>
        <time>2021-09-11T11:16:45.497Z</time>
      </trkpt>
      <trkpt lat="45.90811" lon="6.00583">
        <ele>437</ele>
        <time>2021-09-11T11:16:46.496Z</time>
      </trkpt>
      <trkpt lat="45.90812" lon="6.00582">
        <ele>437</ele>
        <time>2021-09-11T11:16:47.496Z</time>
      </trkpt>
      <trkpt lat="45.90814" lon="6.00581">
        <ele>438</ele>
        <time>2021-09-11T11:16:48.496Z</time>
      </trkpt>
      <trkpt lat="45.90815" lon="6.00581">
        <ele>438</ele>
        <time>2021-09-11T11:16:49.497Z</time>
      </trkpt>
      <trkpt lat="45.90816" lon="6.0058">
        <ele>438</ele>
        <time>2021-09-11T11:16:50.496Z</time>
      </trkpt>
      <trkpt lat="45.90817" lon="6.00579">
        <ele>439</ele>
        <time>2021-09-11T11:16:51.496Z</time>
      </trkpt>
      <trkpt lat="45.90817" lon="6.00579">
        <ele>439</ele>
        <time>2021-09-11T11:16:52.497Z</time>
      </trkpt>
      <trkpt lat="45.90818" lon="6.00579">
        <ele>439</ele>
        <time>2021-09-11T11:16:53.496Z</time>
      </trkpt>
      <trkpt lat="45.90818" lon="6.00579">
        <ele>439</ele>
        <time>2021-09-11T11:16:54.497Z</time>
      </trkpt>
      <trkpt lat="45.90821" lon="6.00571">
        <ele>434</ele>
        <time>2021-09-11T11:16:55.498Z</time>
      </trkpt>
      <trkpt lat="45.90823" lon="6.00567">
        <ele>434</ele>
        <time>2021-09-11T11:16:56.498Z</time>
      </trkpt>
      <trkpt lat="45.90825" lon="6.00564">
        <ele>434</ele>
        <time>2021-09-11T11:16:57.497Z</time>
      </trkpt>
      <trkpt lat="45.90828" lon="6.00561">
        <ele>434</ele>
        <time>2021-09-11T11:16:58.497Z</time>
      </trkpt>
      <trkpt lat="45.90831" lon="6.00558">
        <ele>435</ele>
        <time>2021-09-11T11:17:43.622Z</time>
      </trkpt>
      <trkpt lat="45.90834" lon="6.00555">
        <ele>436</ele>
        <time>2021-09-11T11:17:44.621Z</time>
      </trkpt>
      <trkpt lat="45.90836" lon="6.00552">
        <ele>436</ele>
        <time>2021-09-11T11:17:45.621Z</time>
      </trkpt>
      <trkpt lat="45.90839" lon="6.00549">
        <ele>436</ele>
        <time>2021-09-11T11:17:46.622Z</time>
      </trkpt>
      <trkpt lat="45.90842" lon="6.00546">
        <ele>436</ele>
        <time>2021-09-11T11:17:47.621Z</time>
      </trkpt>
      <trkpt lat="45.90844" lon="6.00542">
        <ele>436</ele>
        <time>2021-09-11T11:17:48.622Z</time>
      </trkpt>
      <trkpt lat="45.90848" lon="6.00539">
        <ele>436</ele>
        <time>2021-09-11T11:17:49.622Z</time>
      </trkpt>
      <trkpt lat="45.90851" lon="6.00535">
        <ele>436</ele>
        <time>2021-09-11T11:17:50.622Z</time>
      </trkpt>
      <trkpt lat="45.90855" lon="6.00531">
        <ele>435</ele>
        <time>2021-09-11T11:17:51.622Z</time>
      </trkpt>
      <trkpt lat="45.90859" lon="6.00527">
        <ele>435</ele>
        <time>2021-09-11T11:17:52.622Z</time>
      </trkpt>
      <trkpt lat="45.90864" lon="6.00523">
        <ele>435</ele>
        <time>2021-09-11T11:17:53.622Z</time>
      </trkpt>
      <trkpt lat="45.90869" lon="6.00518">
        <ele>435</ele>
        <time>2021-09-11T11:17:54.622Z</time>
      </trkpt>
      <trkpt lat="45.90873" lon="6.00514">
        <ele>435</ele>
        <time>2021-09-11T11:17:55.621Z</time>
      </trkpt>
      <trkpt lat="45.90878" lon="6.00509">
        <ele>435</ele>
        <time>2021-09-11T11:17:56.622Z</time>
      </trkpt>
      <trkpt lat="45.90883" lon="6.00504">
        <ele>435</ele>
        <time>2021-09-11T11:17:57.622Z</time>
      </trkpt>
      <trkpt lat="45.90888" lon="6.00499">
        <ele>435</ele>
        <time>2021-09-11T11:17:58.621Z</time>
      </trkpt>
      <trkpt lat="45.90893" lon="6.00494">
        <ele>434</ele>
        <time>2021-09-11T11:17:59.622Z</time>
      </trkpt>
      <trkpt lat="45.90898" lon="6.00489">
        <ele>434</ele>
        <time>2021-09-11T11:18:00.622Z</time>
      </trkpt>
      <trkpt lat="45.90902" lon="6.00484">
        <ele>434</ele>
        <time>2021-09-11T11:18:01.622Z</time>
      </trkpt>
      <trkpt lat="45.90906" lon="6.00478">
        <ele>433</ele>
        <time>2021-09-11T11:18:02.621Z</time>
      </trkpt>
      <trkpt lat="45.9091" lon="6.00472">
        <ele>433</ele>
        <time>2021-09-11T11:18:03.621Z</time>
      </trkpt>
      <trkpt lat="45.90913" lon="6.00465">
        <ele>433</ele>
        <time>2021-09-11T11:18:04.622Z</time>
      </trkpt>
      <trkpt lat="45.90916" lon="6.00459">
        <ele>433</ele>
        <time>2021-09-11T11:18:05.622Z</time>
      </trkpt>
      <trkpt lat="45.90918" lon="6.00452">
        <ele>433</ele>
        <time>2021-09-11T11:18:06.622Z</time>
      </trkpt>
      <trkpt lat="45.90921" lon="6.00445">
        <ele>433</ele>
        <time>2021-09-11T11:18:07.622Z</time>
      </trkpt>
      <trkpt lat="45.90924" lon="6.00438">
        <ele>433</ele>
        <time>2021-09-11T11:18:08.621Z</time>
      </trkpt>
      <trkpt lat="45.90926" lon="6.00432">
        <ele>433</ele>
        <time>2021-09-11T11:18:09.622Z</time>
      </trkpt>
      <trkpt lat="45.90929" lon="6.00426">
        <ele>433</ele>
        <time>2021-09-11T11:18:10.622Z</time>
      </trkpt>
      <trkpt lat="45.90931" lon="6.0042">
        <ele>432</ele>
        <time>2021-09-11T11:18:11.622Z</time>
      </trkpt>
      <trkpt lat="45.90934" lon="6.00413">
        <ele>432</ele>
        <time>2021-09-11T11:18:12.621Z</time>
      </trkpt>
      <trkpt lat="45.90937" lon="6.00407">
        <ele>432</ele>
        <time>2021-09-11T11:18:13.622Z</time>
      </trkpt>
      <trkpt lat="45.90939" lon="6.00402">
        <ele>432</ele>
        <time>2021-09-11T11:18:14.622Z</time>
      </trkpt>
      <trkpt lat="45.90943" lon="6.00397">
        <ele>432</ele>
        <time>2021-09-11T11:18:15.622Z</time>
      </trkpt>
      <trkpt lat="45.90946" lon="6.00393">
        <ele>432</ele>
        <time>2021-09-11T11:18:16.622Z</time>
      </trkpt>
      <trkpt lat="45.9095" lon="6.00389">
        <ele>433</ele>
        <time>2021-09-11T11:18:17.621Z</time>
      </trkpt>
      <trkpt lat="45.90953" lon="6.00387">
        <ele>433</ele>
        <time>2021-09-11T11:18:18.622Z</time>
      </trkpt>
      <trkpt lat="45.90957" lon="6.00385">
        <ele>433</ele>
        <time>2021-09-11T11:18:19.622Z</time>
      </trkpt>
      <trkpt lat="45.90961" lon="6.00383">
        <ele>432</ele>
        <time>2021-09-11T11:18:20.622Z</time>
      </trkpt>
      <trkpt lat="45.90964" lon="6.00383">
        <ele>432</ele>
        <time>2021-09-11T11:18:21.622Z</time>
      </trkpt>
      <trkpt lat="45.90968" lon="6.00382">
        <ele>432</ele>
        <time>2021-09-11T11:18:22.622Z</time>
      </trkpt>
      <trkpt lat="45.90971" lon="6.00381">
        <ele>432</ele>
        <time>2021-09-11T11:18:23.621Z</time>
      </trkpt>
      <trkpt lat="45.90974" lon="6.00381">
        <ele>433</ele>
        <time>2021-09-11T11:18:24.622Z</time>
      </trkpt>
      <trkpt lat="45.90978" lon="6.0038">
        <ele>433</ele>
        <time>2021-09-11T11:18:25.622Z</time>
      </trkpt>
      <trkpt lat="45.90981" lon="6.00379">
        <ele>434</ele>
        <time>2021-09-11T11:18:26.622Z</time>
      </trkpt>
      <trkpt lat="45.90984" lon="6.00378">
        <ele>435</ele>
        <time>2021-09-11T11:18:27.622Z</time>
      </trkpt>
      <trkpt lat="45.90986" lon="6.00377">
        <ele>436</ele>
        <time>2021-09-11T11:18:28.621Z</time>
      </trkpt>
      <trkpt lat="45.90989" lon="6.00376">
        <ele>436</ele>
        <time>2021-09-11T11:18:29.622Z</time>
      </trkpt>
      <trkpt lat="45.90992" lon="6.00375">
        <ele>437</ele>
        <time>2021-09-11T11:18:30.622Z</time>
      </trkpt>
      <trkpt lat="45.90996" lon="6.00374">
        <ele>437</ele>
        <time>2021-09-11T11:18:31.622Z</time>
      </trkpt>
      <trkpt lat="45.90999" lon="6.00373">
        <ele>437</ele>
        <time>2021-09-11T11:18:32.622Z</time>
      </trkpt>
      <trkpt lat="45.91002" lon="6.00373">
        <ele>437</ele>
        <time>2021-09-11T11:18:33.621Z</time>
      </trkpt>
      <trkpt lat="45.91006" lon="6.00372">
        <ele>437</ele>
        <time>2021-09-11T11:18:34.622Z</time>
      </trkpt>
      <trkpt lat="45.91009" lon="6.00372">
        <ele>437</ele>
        <time>2021-09-11T11:18:35.622Z</time>
      </trkpt>
      <trkpt lat="45.91011" lon="6.00371">
        <ele>437</ele>
        <time>2021-09-11T11:18:36.622Z</time>
      </trkpt>
      <trkpt lat="45.91014" lon="6.0037">
        <ele>437</ele>
        <time>2021-09-11T11:18:37.621Z</time>
      </trkpt>
      <trkpt lat="45.91015" lon="6.00369">
        <ele>438</ele>
        <time>2021-09-11T11:18:38.621Z</time>
      </trkpt>
      <trkpt lat="45.91015" lon="6.00369">
        <ele>437</ele>
        <time>2021-09-11T11:18:39.622Z</time>
      </trkpt>
      <trkpt lat="45.91015" lon="6.00369">
        <ele>437</ele>
        <time>2021-09-11T11:18:40.621Z</time>
      </trkpt>
      <trkpt lat="45.91017" lon="6.00365">
        <ele>433</ele>
        <time>2021-09-11T11:18:41.623Z</time>
      </trkpt>
      <trkpt lat="45.91016" lon="6.0036">
        <ele>433</ele>
        <time>2021-09-11T11:18:42.623Z</time>
      </trkpt>
      <trkpt lat="45.91016" lon="6.00354">
        <ele>433</ele>
        <time>2021-09-11T11:18:43.622Z</time>
      </trkpt>
      <trkpt lat="45.91016" lon="6.00347">
        <ele>433</ele>
        <time>2021-09-11T11:18:44.623Z</time>
      </trkpt>
      <trkpt lat="45.91018" lon="6.00341">
        <ele>433</ele>
        <time>2021-09-11T11:18:45.622Z</time>
      </trkpt>
      <trkpt lat="45.9102" lon="6.00336">
        <ele>433</ele>
        <time>2021-09-11T11:18:46.622Z</time>
      </trkpt>
      <trkpt lat="45.91024" lon="6.00332">
        <ele>433</ele>
        <time>2021-09-11T11:18:47.623Z</time>
      </trkpt>
      <trkpt lat="45.91028" lon="6.0033">
        <ele>433</ele>
        <time>2021-09-11T11:18:48.622Z</time>
      </trkpt>
      <trkpt lat="45.91032" lon="6.0033">
        <ele>433</ele>
        <time>2021-09-11T11:18:49.623Z</time>
      </trkpt>
      <trkpt lat="45.91036" lon="6.00332">
        <ele>433</ele>
        <time>2021-09-11T11:18:50.622Z</time>
      </trkpt>
      <trkpt lat="45.91041" lon="6.00337">
        <ele>433</ele>
        <time>2021-09-11T11:18:51.622Z</time>
      </trkpt>
      <trkpt lat="45.91043" lon="6.00342">
        <ele>433</ele>
        <time>2021-09-11T11:18:52.623Z</time>
      </trkpt>
      <trkpt lat="45.91045" lon="6.00348">
        <ele>433</ele>
        <time>2021-09-11T11:18:53.623Z</time>
      </trkpt>
      <trkpt lat="45.91047" lon="6.00355">
        <ele>433</ele>
        <time>2021-09-11T11:18:54.623Z</time>
      </trkpt>
      <trkpt lat="45.91048" lon="6.00361">
        <ele>433</ele>
        <time>2021-09-11T11:18:55.623Z</time>
      </trkpt>
      <trkpt lat="45.9105" lon="6.00371">
        <ele>433</ele>
        <time>2021-09-11T11:18:56.622Z</time>
      </trkpt>
      <trkpt lat="45.91052" lon="6.00379">
        <ele>433</ele>
        <time>2021-09-11T11:18:57.622Z</time>
      </trkpt>
      <trkpt lat="45.91054" lon="6.00387">
        <ele>434</ele>
        <time>2021-09-11T11:18:58.623Z</time>
      </trkpt>
      <trkpt lat="45.91057" lon="6.00394">
        <ele>434</ele>
        <time>2021-09-11T11:18:59.623Z</time>
      </trkpt>
      <trkpt lat="45.9106" lon="6.00398">
        <ele>434</ele>
        <time>2021-09-11T11:19:00.622Z</time>
      </trkpt>
      <trkpt lat="45.91063" lon="6.00402">
        <ele>435</ele>
        <time>2021-09-11T11:19:01.623Z</time>
      </trkpt>
      <trkpt lat="45.91067" lon="6.00405">
        <ele>435</ele>
        <time>2021-09-11T11:19:02.622Z</time>
      </trkpt>
      <trkpt lat="45.91072" lon="6.00407">
        <ele>435</ele>
        <time>2021-09-11T11:19:03.623Z</time>
      </trkpt>
      <trkpt lat="45.91077" lon="6.00406">
        <ele>436</ele>
        <time>2021-09-11T11:19:04.623Z</time>
      </trkpt>
      <trkpt lat="45.91081" lon="6.00403">
        <ele>436</ele>
        <time>2021-09-11T11:19:05.623Z</time>
      </trkpt>
      <trkpt lat="45.91084" lon="6.00399">
        <ele>436</ele>
        <time>2021-09-11T11:19:06.623Z</time>
      </trkpt>
      <trkpt lat="45.91085" lon="6.00393">
        <ele>435</ele>
        <time>2021-09-11T11:19:07.622Z</time>
      </trkpt>
      <trkpt lat="45.91086" lon="6.00386">
        <ele>435</ele>
        <time>2021-09-11T11:19:08.623Z</time>
      </trkpt>
      <trkpt lat="45.91085" lon="6.00378">
        <ele>434</ele>
        <time>2021-09-11T11:19:09.623Z</time>
      </trkpt>
      <trkpt lat="45.91084" lon="6.00371">
        <ele>433</ele>
        <time>2021-09-11T11:19:10.622Z</time>
      </trkpt>
      <trkpt lat="45.91081" lon="6.00364">
        <ele>432</ele>
        <time>2021-09-11T11:19:11.623Z</time>
      </trkpt>
      <trkpt lat="45.91077" lon="6.00356">
        <ele>431</ele>
        <time>2021-09-11T11:19:12.623Z</time>
      </trkpt>
      <trkpt lat="45.91074" lon="6.0035">
        <ele>430</ele>
        <time>2021-09-11T11:19:13.622Z</time>
      </trkpt>
      <trkpt lat="45.91069" lon="6.00339">
        <ele>429</ele>
        <time>2021-09-11T11:19:14.622Z</time>
      </trkpt>
      <trkpt lat="45.91065" lon="6.0033">
        <ele>428</ele>
        <time>2021-09-11T11:19:15.622Z</time>
      </trkpt>
      <trkpt lat="45.91061" lon="6.00319">
        <ele>427</ele>
        <time>2021-09-11T11:19:16.622Z</time>
      </trkpt>
      <trkpt lat="45.91057" lon="6.00308">
        <ele>427</ele>
        <time>2021-09-11T11:19:17.623Z</time>
      </trkpt>
      <trkpt lat="45.91053" lon="6.00298">
        <ele>426</ele>
        <time>2021-09-11T11:19:18.623Z</time>
      </trkpt>
      <trkpt lat="45.91049" lon="6.00287">
        <ele>425</ele>
        <time>2021-09-11T11:19:19.623Z</time>
      </trkpt>
      <trkpt lat="45.91044" lon="6.00277">
        <ele>424</ele>
        <time>2021-09-11T11:19:20.623Z</time>
      </trkpt>
      <trkpt lat="45.91039" lon="6.00269">
        <ele>423</ele>
        <time>2021-09-11T11:19:21.623Z</time>
      </trkpt>
      <trkpt lat="45.91034" lon="6.00263">
        <ele>422</ele>
        <time>2021-09-11T11:19:22.622Z</time>
      </trkpt>
      <trkpt lat="45.91028" lon="6.00254">
        <ele>422</ele>
        <time>2021-09-11T11:19:23.623Z</time>
      </trkpt>
      <trkpt lat="45.91021" lon="6.00247">
        <ele>422</ele>
        <time>2021-09-11T11:19:24.622Z</time>
      </trkpt>
      <trkpt lat="45.91015" lon="6.0024">
        <ele>421</ele>
        <time>2021-09-11T11:19:25.623Z</time>
      </trkpt>
      <trkpt lat="45.91008" lon="6.00232">
        <ele>421</ele>
        <time>2021-09-11T11:19:26.622Z</time>
      </trkpt>
      <trkpt lat="45.91002" lon="6.00224">
        <ele>421</ele>
        <time>2021-09-11T11:19:27.623Z</time>
      </trkpt>
      <trkpt lat="45.90995" lon="6.00214">
        <ele>420</ele>
        <time>2021-09-11T11:19:28.623Z</time>
      </trkpt>
      <trkpt lat="45.90988" lon="6.00205">
        <ele>420</ele>
        <time>2021-09-11T11:19:29.623Z</time>
      </trkpt>
      <trkpt lat="45.90981" lon="6.00195">
        <ele>419</ele>
        <time>2021-09-11T11:19:30.622Z</time>
      </trkpt>
      <trkpt lat="45.90975" lon="6.00188">
        <ele>418</ele>
        <time>2021-09-11T11:19:31.623Z</time>
      </trkpt>
      <trkpt lat="45.90966" lon="6.00179">
        <ele>418</ele>
        <time>2021-09-11T11:19:32.623Z</time>
      </trkpt>
      <trkpt lat="45.90957" lon="6.00171">
        <ele>416</ele>
        <time>2021-09-11T11:19:33.623Z</time>
      </trkpt>
      <trkpt lat="45.90948" lon="6.00166">
        <ele>415</ele>
        <time>2021-09-11T11:19:34.623Z</time>
      </trkpt>
      <trkpt lat="45.90939" lon="6.00162">
        <ele>415</ele>
        <time>2021-09-11T11:19:35.623Z</time>
      </trkpt>
      <trkpt lat="45.9093" lon="6.00159">
        <ele>414</ele>
        <time>2021-09-11T11:19:36.622Z</time>
      </trkpt>
      <trkpt lat="45.90921" lon="6.00158">
        <ele>414</ele>
        <time>2021-09-11T11:19:37.623Z</time>
      </trkpt>
      <trkpt lat="45.90912" lon="6.00156">
        <ele>413</ele>
        <time>2021-09-11T11:19:38.623Z</time>
      </trkpt>
      <trkpt lat="45.90903" lon="6.00155">
        <ele>413</ele>
        <time>2021-09-11T11:19:39.623Z</time>
      </trkpt>
      <trkpt lat="45.90895" lon="6.00153">
        <ele>412</ele>
        <time>2021-09-11T11:19:40.623Z</time>
      </trkpt>
      <trkpt lat="45.90885" lon="6.0015">
        <ele>411</ele>
        <time>2021-09-11T11:19:41.623Z</time>
      </trkpt>
      <trkpt lat="45.90877" lon="6.00147">
        <ele>410</ele>
        <time>2021-09-11T11:19:42.622Z</time>
      </trkpt>
      <trkpt lat="45.90869" lon="6.00144">
        <ele>408</ele>
        <time>2021-09-11T11:19:43.623Z</time>
      </trkpt>
      <trkpt lat="45.90862" lon="6.00141">
        <ele>407</ele>
        <time>2021-09-11T11:19:44.623Z</time>
      </trkpt>
      <trkpt lat="45.90855" lon="6.00138">
        <ele>407</ele>
        <time>2021-09-11T11:19:45.623Z</time>
      </trkpt>
      <trkpt lat="45.90849" lon="6.00134">
        <ele>406</ele>
        <time>2021-09-11T11:19:46.622Z</time>
      </trkpt>
      <trkpt lat="45.90843" lon="6.00129">
        <ele>405</ele>
        <time>2021-09-11T11:19:47.623Z</time>
      </trkpt>
      <trkpt lat="45.90839" lon="6.00122">
        <ele>405</ele>
        <time>2021-09-11T11:19:48.623Z</time>
      </trkpt>
      <trkpt lat="45.90835" lon="6.00113">
        <ele>404</ele>
        <time>2021-09-11T11:19:49.623Z</time>
      </trkpt>
      <trkpt lat="45.90833" lon="6.00103">
        <ele>404</ele>
        <time>2021-09-11T11:19:50.623Z</time>
      </trkpt>
      <trkpt lat="45.90833" lon="6.00093">
        <ele>404</ele>
        <time>2021-09-11T11:19:51.622Z</time>
      </trkpt>
      <trkpt lat="45.90834" lon="6.00084">
        <ele>403</ele>
        <time>2021-09-11T11:19:52.623Z</time>
      </trkpt>
      <trkpt lat="45.90835" lon="6.00075">
        <ele>403</ele>
        <time>2021-09-11T11:19:53.623Z</time>
      </trkpt>
      <trkpt lat="45.90837" lon="6.00065">
        <ele>403</ele>
        <time>2021-09-11T11:19:54.623Z</time>
      </trkpt>
      <trkpt lat="45.90839" lon="6.00055">
        <ele>403</ele>
        <time>2021-09-11T11:19:55.623Z</time>
      </trkpt>
      <trkpt lat="45.90839" lon="6.00045">
        <ele>403</ele>
        <time>2021-09-11T11:19:56.623Z</time>
      </trkpt>
      <trkpt lat="45.90838" lon="6.00038">
        <ele>403</ele>
        <time>2021-09-11T11:19:57.623Z</time>
      </trkpt>
      <trkpt lat="45.90836" lon="6.00027">
        <ele>402</ele>
        <time>2021-09-11T11:19:58.623Z</time>
      </trkpt>
      <trkpt lat="45.90832" lon="6.00018">
        <ele>402</ele>
        <time>2021-09-11T11:19:59.623Z</time>
      </trkpt>
      <trkpt lat="45.90828" lon="6.00013">
        <ele>402</ele>
        <time>2021-09-11T11:20:00.623Z</time>
      </trkpt>
      <trkpt lat="45.90823" lon="6.00006">
        <ele>401</ele>
        <time>2021-09-11T11:20:01.623Z</time>
      </trkpt>
      <trkpt lat="45.90817" lon="6">
        <ele>401</ele>
        <time>2021-09-11T11:20:02.623Z</time>
      </trkpt>
      <trkpt lat="45.90811" lon="5.99994">
        <ele>400</ele>
        <time>2021-09-11T11:20:03.623Z</time>
      </trkpt>
      <trkpt lat="45.90804" lon="5.99987">
        <ele>399</ele>
        <time>2021-09-11T11:20:04.623Z</time>
      </trkpt>
      <trkpt lat="45.90798" lon="5.99981">
        <ele>399</ele>
        <time>2021-09-11T11:20:05.622Z</time>
      </trkpt>
      <trkpt lat="45.90791" lon="5.99974">
        <ele>398</ele>
        <time>2021-09-11T11:20:06.623Z</time>
      </trkpt>
      <trkpt lat="45.90784" lon="5.99968">
        <ele>398</ele>
        <time>2021-09-11T11:20:07.623Z</time>
      </trkpt>
      <trkpt lat="45.90777" lon="5.9996">
        <ele>397</ele>
        <time>2021-09-11T11:20:08.623Z</time>
      </trkpt>
      <trkpt lat="45.90771" lon="5.99951">
        <ele>397</ele>
        <time>2021-09-11T11:20:09.623Z</time>
      </trkpt>
      <trkpt lat="45.90766" lon="5.99941">
        <ele>397</ele>
        <time>2021-09-11T11:20:10.623Z</time>
      </trkpt>
      <trkpt lat="45.9076" lon="5.99928">
        <ele>397</ele>
        <time>2021-09-11T11:20:11.622Z</time>
      </trkpt>
      <trkpt lat="45.90755" lon="5.99917">
        <ele>396</ele>
        <time>2021-09-11T11:20:12.623Z</time>
      </trkpt>
      <trkpt lat="45.90751" lon="5.99906">
        <ele>395</ele>
        <time>2021-09-11T11:20:13.622Z</time>
      </trkpt>
      <trkpt lat="45.90748" lon="5.99895">
        <ele>395</ele>
        <time>2021-09-11T11:20:14.623Z</time>
      </trkpt>
      <trkpt lat="45.90744" lon="5.99886">
        <ele>394</ele>
        <time>2021-09-11T11:20:15.622Z</time>
      </trkpt>
      <trkpt lat="45.90741" lon="5.99875">
        <ele>394</ele>
        <time>2021-09-11T11:20:16.623Z</time>
      </trkpt>
      <trkpt lat="45.90738" lon="5.99864">
        <ele>393</ele>
        <time>2021-09-11T11:20:17.623Z</time>
      </trkpt>
      <trkpt lat="45.90734" lon="5.99853">
        <ele>392</ele>
        <time>2021-09-11T11:20:18.623Z</time>
      </trkpt>
      <trkpt lat="45.90731" lon="5.99843">
        <ele>392</ele>
        <time>2021-09-11T11:20:19.623Z</time>
      </trkpt>
      <trkpt lat="45.90728" lon="5.99833">
        <ele>392</ele>
        <time>2021-09-11T11:20:20.623Z</time>
      </trkpt>
      <trkpt lat="45.90724" lon="5.99821">
        <ele>391</ele>
        <time>2021-09-11T11:20:21.623Z</time>
      </trkpt>
      <trkpt lat="45.90721" lon="5.99812">
        <ele>391</ele>
        <time>2021-09-11T11:20:22.622Z</time>
      </trkpt>
      <trkpt lat="45.90718" lon="5.99803">
        <ele>391</ele>
        <time>2021-09-11T11:20:23.623Z</time>
      </trkpt>
      <trkpt lat="45.90716" lon="5.99793">
        <ele>391</ele>
        <time>2021-09-11T11:20:24.623Z</time>
      </trkpt>
      <trkpt lat="45.90714" lon="5.99783">
        <ele>391</ele>
        <time>2021-09-11T11:20:25.623Z</time>
      </trkpt>
      <trkpt lat="45.90712" lon="5.99773">
        <ele>390</ele>
        <time>2021-09-11T11:20:26.623Z</time>
      </trkpt>
      <trkpt lat="45.9071" lon="5.99762">
        <ele>390</ele>
        <time>2021-09-11T11:20:27.622Z</time>
      </trkpt>
      <trkpt lat="45.90708" lon="5.99752">
        <ele>389</ele>
        <time>2021-09-11T11:20:28.623Z</time>
      </trkpt>
      <trkpt lat="45.90706" lon="5.99744">
        <ele>389</ele>
        <time>2021-09-11T11:20:29.623Z</time>
      </trkpt>
      <trkpt lat="45.90703" lon="5.99732">
        <ele>389</ele>
        <time>2021-09-11T11:20:30.623Z</time>
      </trkpt>
      <trkpt lat="45.907" lon="5.99724">
        <ele>389</ele>
        <time>2021-09-11T11:20:31.623Z</time>
      </trkpt>
      <trkpt lat="45.90699" lon="5.99717">
        <ele>388</ele>
        <time>2021-09-11T11:20:32.623Z</time>
      </trkpt>
      <trkpt lat="45.90699" lon="5.99712">
        <ele>388</ele>
        <time>2021-09-11T11:20:33.622Z</time>
      </trkpt>
      <trkpt lat="45.90699" lon="5.99709">
        <ele>388</ele>
        <time>2021-09-11T11:20:34.623Z</time>
      </trkpt>
      <trkpt lat="45.90699" lon="5.99707">
        <ele>388</ele>
        <time>2021-09-11T11:20:35.622Z</time>
      </trkpt>
      <trkpt lat="45.90699" lon="5.99707">
        <ele>388</ele>
        <time>2021-09-11T11:20:36.623Z</time>
      </trkpt>
      <trkpt lat="45.90699" lon="5.99708">
        <ele>389</ele>
        <time>2021-09-11T11:20:37.623Z</time>
      </trkpt>
      <trkpt lat="45.90699" lon="5.99708">
        <ele>389</ele>
        <time>2021-09-11T11:20:38.622Z</time>
      </trkpt>
      <trkpt lat="45.90698" lon="5.9971">
        <ele>387</ele>
        <time>2021-09-11T11:20:39.624Z</time>
      </trkpt>
      <trkpt lat="45.90696" lon="5.99705">
        <ele>387</ele>
        <time>2021-09-11T11:20:40.623Z</time>
      </trkpt>
      <trkpt lat="45.90693" lon="5.99699">
        <ele>387</ele>
        <time>2021-09-11T11:20:41.624Z</time>
      </trkpt>
      <trkpt lat="45.90691" lon="5.99694">
        <ele>387</ele>
        <time>2021-09-11T11:20:42.624Z</time>
      </trkpt>
      <trkpt lat="45.90688" lon="5.99687">
        <ele>386</ele>
        <time>2021-09-11T11:20:43.624Z</time>
      </trkpt>
      <trkpt lat="45.90685" lon="5.9968">
        <ele>386</ele>
        <time>2021-09-11T11:20:44.624Z</time>
      </trkpt>
      <trkpt lat="45.90682" lon="5.99673">
        <ele>386</ele>
        <time>2021-09-11T11:20:45.624Z</time>
      </trkpt>
      <trkpt lat="45.90679" lon="5.99665">
        <ele>386</ele>
        <time>2021-09-11T11:20:46.624Z</time>
      </trkpt>
      <trkpt lat="45.90676" lon="5.99657">
        <ele>386</ele>
        <time>2021-09-11T11:20:47.624Z</time>
      </trkpt>
      <trkpt lat="45.90673" lon="5.99648">
        <ele>386</ele>
        <time>2021-09-11T11:20:48.624Z</time>
      </trkpt>
      <trkpt lat="45.9067" lon="5.99639">
        <ele>385</ele>
        <time>2021-09-11T11:20:49.624Z</time>
      </trkpt>
      <trkpt lat="45.90668" lon="5.99632">
        <ele>385</ele>
        <time>2021-09-11T11:20:50.624Z</time>
      </trkpt>
      <trkpt lat="45.90665" lon="5.99623">
        <ele>384</ele>
        <time>2021-09-11T11:20:51.624Z</time>
      </trkpt>
      <trkpt lat="45.90662" lon="5.99614">
        <ele>384</ele>
        <time>2021-09-11T11:20:52.624Z</time>
      </trkpt>
      <trkpt lat="45.90659" lon="5.99605">
        <ele>384</ele>
        <time>2021-09-11T11:20:53.624Z</time>
      </trkpt>
      <trkpt lat="45.90656" lon="5.99595">
        <ele>384</ele>
        <time>2021-09-11T11:20:54.624Z</time>
      </trkpt>
      <trkpt lat="45.90654" lon="5.99585">
        <ele>383</ele>
        <time>2021-09-11T11:20:55.624Z</time>
      </trkpt>
      <trkpt lat="45.90652" lon="5.99575">
        <ele>383</ele>
        <time>2021-09-11T11:20:56.624Z</time>
      </trkpt>
      <trkpt lat="45.90651" lon="5.99564">
        <ele>383</ele>
        <time>2021-09-11T11:20:57.624Z</time>
      </trkpt>
      <trkpt lat="45.90649" lon="5.99554">
        <ele>383</ele>
        <time>2021-09-11T11:20:58.624Z</time>
      </trkpt>
      <trkpt lat="45.90648" lon="5.99544">
        <ele>383</ele>
        <time>2021-09-11T11:20:59.624Z</time>
      </trkpt>
      <trkpt lat="45.90646" lon="5.99534">
        <ele>383</ele>
        <time>2021-09-11T11:21:00.624Z</time>
      </trkpt>
      <trkpt lat="45.90645" lon="5.99524">
        <ele>383</ele>
        <time>2021-09-11T11:21:01.624Z</time>
      </trkpt>
      <trkpt lat="45.90644" lon="5.99515">
        <ele>383</ele>
        <time>2021-09-11T11:21:02.624Z</time>
      </trkpt>
      <trkpt lat="45.90643" lon="5.99505">
        <ele>383</ele>
        <time>2021-09-11T11:21:03.624Z</time>
      </trkpt>
      <trkpt lat="45.90642" lon="5.99495">
        <ele>383</ele>
        <time>2021-09-11T11:21:04.624Z</time>
      </trkpt>
      <trkpt lat="45.90641" lon="5.99485">
        <ele>383</ele>
        <time>2021-09-11T11:21:05.624Z</time>
      </trkpt>
      <trkpt lat="45.9064" lon="5.99475">
        <ele>383</ele>
        <time>2021-09-11T11:21:06.624Z</time>
      </trkpt>
      <trkpt lat="45.90639" lon="5.99465">
        <ele>382</ele>
        <time>2021-09-11T11:21:07.624Z</time>
      </trkpt>
      <trkpt lat="45.90637" lon="5.99455">
        <ele>382</ele>
        <time>2021-09-11T11:21:08.624Z</time>
      </trkpt>
      <trkpt lat="45.90636" lon="5.99445">
        <ele>381</ele>
        <time>2021-09-11T11:21:09.624Z</time>
      </trkpt>
      <trkpt lat="45.90635" lon="5.99435">
        <ele>381</ele>
        <time>2021-09-11T11:21:10.623Z</time>
      </trkpt>
      <trkpt lat="45.90633" lon="5.99425">
        <ele>380</ele>
        <time>2021-09-11T11:21:11.624Z</time>
      </trkpt>
      <trkpt lat="45.90632" lon="5.99416">
        <ele>379</ele>
        <time>2021-09-11T11:21:12.624Z</time>
      </trkpt>
      <trkpt lat="45.90631" lon="5.99406">
        <ele>379</ele>
        <time>2021-09-11T11:21:13.624Z</time>
      </trkpt>
      <trkpt lat="45.9063" lon="5.99396">
        <ele>379</ele>
        <time>2021-09-11T11:21:14.624Z</time>
      </trkpt>
      <trkpt lat="45.90628" lon="5.99387">
        <ele>379</ele>
        <time>2021-09-11T11:21:15.624Z</time>
      </trkpt>
      <trkpt lat="45.90627" lon="5.99377">
        <ele>378</ele>
        <time>2021-09-11T11:21:16.624Z</time>
      </trkpt>
      <trkpt lat="45.90626" lon="5.99368">
        <ele>378</ele>
        <time>2021-09-11T11:21:17.624Z</time>
      </trkpt>
      <trkpt lat="45.90625" lon="5.99359">
        <ele>378</ele>
        <time>2021-09-11T11:21:18.624Z</time>
      </trkpt>
      <trkpt lat="45.90624" lon="5.99349">
        <ele>378</ele>
        <time>2021-09-11T11:21:19.624Z</time>
      </trkpt>
      <trkpt lat="45.90624" lon="5.9934">
        <ele>378</ele>
        <time>2021-09-11T11:21:20.624Z</time>
      </trkpt>
      <trkpt lat="45.90624" lon="5.9933">
        <ele>377</ele>
        <time>2021-09-11T11:21:21.624Z</time>
      </trkpt>
      <trkpt lat="45.90623" lon="5.9932">
        <ele>377</ele>
        <time>2021-09-11T11:21:22.624Z</time>
      </trkpt>
      <trkpt lat="45.90624" lon="5.99311">
        <ele>377</ele>
        <time>2021-09-11T11:21:23.623Z</time>
      </trkpt>
      <trkpt lat="45.90625" lon="5.99301">
        <ele>377</ele>
        <time>2021-09-11T11:21:24.624Z</time>
      </trkpt>
      <trkpt lat="45.90625" lon="5.99292">
        <ele>377</ele>
        <time>2021-09-11T11:21:25.624Z</time>
      </trkpt>
      <trkpt lat="45.90626" lon="5.99282">
        <ele>377</ele>
        <time>2021-09-11T11:21:26.624Z</time>
      </trkpt>
      <trkpt lat="45.90627" lon="5.99273">
        <ele>377</ele>
        <time>2021-09-11T11:21:27.624Z</time>
      </trkpt>
      <trkpt lat="45.90628" lon="5.99263">
        <ele>378</ele>
        <time>2021-09-11T11:21:28.623Z</time>
      </trkpt>
      <trkpt lat="45.90628" lon="5.99254">
        <ele>378</ele>
        <time>2021-09-11T11:21:29.623Z</time>
      </trkpt>
      <trkpt lat="45.90629" lon="5.99245">
        <ele>378</ele>
        <time>2021-09-11T11:21:30.624Z</time>
      </trkpt>
      <trkpt lat="45.90629" lon="5.99236">
        <ele>378</ele>
        <time>2021-09-11T11:21:31.624Z</time>
      </trkpt>
      <trkpt lat="45.90629" lon="5.99228">
        <ele>378</ele>
        <time>2021-09-11T11:21:32.624Z</time>
      </trkpt>
      <trkpt lat="45.90628" lon="5.9922">
        <ele>378</ele>
        <time>2021-09-11T11:21:33.624Z</time>
      </trkpt>
      <trkpt lat="45.90627" lon="5.99211">
        <ele>378</ele>
        <time>2021-09-11T11:21:34.624Z</time>
      </trkpt>
      <trkpt lat="45.90625" lon="5.99203">
        <ele>378</ele>
        <time>2021-09-11T11:21:35.624Z</time>
      </trkpt>
      <trkpt lat="45.90622" lon="5.99196">
        <ele>378</ele>
        <time>2021-09-11T11:21:36.624Z</time>
      </trkpt>
      <trkpt lat="45.90619" lon="5.99188">
        <ele>378</ele>
        <time>2021-09-11T11:21:37.623Z</time>
      </trkpt>
      <trkpt lat="45.90616" lon="5.99181">
        <ele>378</ele>
        <time>2021-09-11T11:21:38.624Z</time>
      </trkpt>
      <trkpt lat="45.90612" lon="5.99174">
        <ele>378</ele>
        <time>2021-09-11T11:21:39.624Z</time>
      </trkpt>
      <trkpt lat="45.90608" lon="5.99168">
        <ele>378</ele>
        <time>2021-09-11T11:21:40.624Z</time>
      </trkpt>
      <trkpt lat="45.90603" lon="5.99161">
        <ele>378</ele>
        <time>2021-09-11T11:21:41.624Z</time>
      </trkpt>
      <trkpt lat="45.90598" lon="5.99154">
        <ele>378</ele>
        <time>2021-09-11T11:21:42.624Z</time>
      </trkpt>
      <trkpt lat="45.90593" lon="5.99147">
        <ele>378</ele>
        <time>2021-09-11T11:21:43.624Z</time>
      </trkpt>
      <trkpt lat="45.90588" lon="5.9914">
        <ele>378</ele>
        <time>2021-09-11T11:21:44.623Z</time>
      </trkpt>
      <trkpt lat="45.90583" lon="5.99134">
        <ele>378</ele>
        <time>2021-09-11T11:21:45.624Z</time>
      </trkpt>
      <trkpt lat="45.90577" lon="5.99127">
        <ele>377</ele>
        <time>2021-09-11T11:21:46.624Z</time>
      </trkpt>
      <trkpt lat="45.90572" lon="5.9912">
        <ele>377</ele>
        <time>2021-09-11T11:21:47.624Z</time>
      </trkpt>
      <trkpt lat="45.90567" lon="5.99113">
        <ele>376</ele>
        <time>2021-09-11T11:21:48.624Z</time>
      </trkpt>
      <trkpt lat="45.90561" lon="5.99106">
        <ele>376</ele>
        <time>2021-09-11T11:21:49.624Z</time>
      </trkpt>
      <trkpt lat="45.90556" lon="5.99099">
        <ele>376</ele>
        <time>2021-09-11T11:21:50.624Z</time>
      </trkpt>
      <trkpt lat="45.9055" lon="5.99092">
        <ele>375</ele>
        <time>2021-09-11T11:21:51.624Z</time>
      </trkpt>
      <trkpt lat="45.90545" lon="5.99086">
        <ele>375</ele>
        <time>2021-09-11T11:21:52.624Z</time>
      </trkpt>
      <trkpt lat="45.9054" lon="5.99079">
        <ele>374</ele>
        <time>2021-09-11T11:21:53.624Z</time>
      </trkpt>
      <trkpt lat="45.90535" lon="5.99072">
        <ele>374</ele>
        <time>2021-09-11T11:21:54.624Z</time>
      </trkpt>
      <trkpt lat="45.90529" lon="5.99065">
        <ele>373</ele>
        <time>2021-09-11T11:21:55.624Z</time>
      </trkpt>
      <trkpt lat="45.90524" lon="5.99058">
        <ele>373</ele>
        <time>2021-09-11T11:21:56.624Z</time>
      </trkpt>
      <trkpt lat="45.90518" lon="5.99051">
        <ele>372</ele>
        <time>2021-09-11T11:21:57.624Z</time>
      </trkpt>
      <trkpt lat="45.90512" lon="5.99043">
        <ele>372</ele>
        <time>2021-09-11T11:21:58.623Z</time>
      </trkpt>
      <trkpt lat="45.90507" lon="5.99035">
        <ele>372</ele>
        <time>2021-09-11T11:21:59.624Z</time>
      </trkpt>
      <trkpt lat="45.90501" lon="5.99027">
        <ele>372</ele>
        <time>2021-09-11T11:22:00.624Z</time>
      </trkpt>
      <trkpt lat="45.90495" lon="5.99019">
        <ele>372</ele>
        <time>2021-09-11T11:22:01.624Z</time>
      </trkpt>
      <trkpt lat="45.90489" lon="5.99011">
        <ele>372</ele>
        <time>2021-09-11T11:22:02.623Z</time>
      </trkpt>
      <trkpt lat="45.90484" lon="5.99002">
        <ele>372</ele>
        <time>2021-09-11T11:22:03.624Z</time>
      </trkpt>
      <trkpt lat="45.90478" lon="5.98993">
        <ele>373</ele>
        <time>2021-09-11T11:22:04.624Z</time>
      </trkpt>
      <trkpt lat="45.90474" lon="5.98984">
        <ele>372</ele>
        <time>2021-09-11T11:22:05.623Z</time>
      </trkpt>
      <trkpt lat="45.90469" lon="5.98973">
        <ele>372</ele>
        <time>2021-09-11T11:22:06.623Z</time>
      </trkpt>
      <trkpt lat="45.90465" lon="5.98963">
        <ele>372</ele>
        <time>2021-09-11T11:22:07.623Z</time>
      </trkpt>
      <trkpt lat="45.90462" lon="5.98952">
        <ele>372</ele>
        <time>2021-09-11T11:22:08.623Z</time>
      </trkpt>
      <trkpt lat="45.90459" lon="5.98941">
        <ele>372</ele>
        <time>2021-09-11T11:22:09.623Z</time>
      </trkpt>
      <trkpt lat="45.90456" lon="5.9893">
        <ele>372</ele>
        <time>2021-09-11T11:22:10.624Z</time>
      </trkpt>
      <trkpt lat="45.90454" lon="5.98918">
        <ele>371</ele>
        <time>2021-09-11T11:22:11.624Z</time>
      </trkpt>
      <trkpt lat="45.90452" lon="5.98907">
        <ele>370</ele>
        <time>2021-09-11T11:22:12.624Z</time>
      </trkpt>
      <trkpt lat="45.90451" lon="5.98895">
        <ele>370</ele>
        <time>2021-09-11T11:22:13.624Z</time>
      </trkpt>
      <trkpt lat="45.90451" lon="5.98884">
        <ele>369</ele>
        <time>2021-09-11T11:22:14.624Z</time>
      </trkpt>
      <trkpt lat="45.9045" lon="5.98873">
        <ele>369</ele>
        <time>2021-09-11T11:22:15.624Z</time>
      </trkpt>
      <trkpt lat="45.9045" lon="5.98862">
        <ele>368</ele>
        <time>2021-09-11T11:22:16.624Z</time>
      </trkpt>
      <trkpt lat="45.90449" lon="5.98851">
        <ele>368</ele>
        <time>2021-09-11T11:22:17.623Z</time>
      </trkpt>
      <trkpt lat="45.90449" lon="5.9884">
        <ele>368</ele>
        <time>2021-09-11T11:22:18.623Z</time>
      </trkpt>
      <trkpt lat="45.90448" lon="5.98829">
        <ele>367</ele>
        <time>2021-09-11T11:22:19.624Z</time>
      </trkpt>
      <trkpt lat="45.90448" lon="5.98818">
        <ele>367</ele>
        <time>2021-09-11T11:22:20.624Z</time>
      </trkpt>
      <trkpt lat="45.90448" lon="5.98808">
        <ele>367</ele>
        <time>2021-09-11T11:22:21.624Z</time>
      </trkpt>
      <trkpt lat="45.90448" lon="5.98797">
        <ele>367</ele>
        <time>2021-09-11T11:22:22.624Z</time>
      </trkpt>
      <trkpt lat="45.90448" lon="5.98786">
        <ele>367</ele>
        <time>2021-09-11T11:22:23.624Z</time>
      </trkpt>
      <trkpt lat="45.90449" lon="5.98773">
        <ele>367</ele>
        <time>2021-09-11T11:22:24.624Z</time>
      </trkpt>
      <trkpt lat="45.9045" lon="5.98765">
        <ele>368</ele>
        <time>2021-09-11T11:22:25.624Z</time>
      </trkpt>
      <trkpt lat="45.90451" lon="5.98754">
        <ele>368</ele>
        <time>2021-09-11T11:22:26.623Z</time>
      </trkpt>
      <trkpt lat="45.90452" lon="5.98743">
        <ele>368</ele>
        <time>2021-09-11T11:22:27.624Z</time>
      </trkpt>
      <trkpt lat="45.90453" lon="5.98732">
        <ele>367</ele>
        <time>2021-09-11T11:22:28.623Z</time>
      </trkpt>
      <trkpt lat="45.90455" lon="5.9872">
        <ele>367</ele>
        <time>2021-09-11T11:22:29.624Z</time>
      </trkpt>
      <trkpt lat="45.90456" lon="5.98709">
        <ele>367</ele>
        <time>2021-09-11T11:22:30.624Z</time>
      </trkpt>
      <trkpt lat="45.90457" lon="5.98698">
        <ele>367</ele>
        <time>2021-09-11T11:22:31.623Z</time>
      </trkpt>
      <trkpt lat="45.90457" lon="5.98687">
        <ele>367</ele>
        <time>2021-09-11T11:22:32.624Z</time>
      </trkpt>
      <trkpt lat="45.90458" lon="5.98676">
        <ele>368</ele>
        <time>2021-09-11T11:22:33.624Z</time>
      </trkpt>
      <trkpt lat="45.90459" lon="5.98665">
        <ele>368</ele>
        <time>2021-09-11T11:22:34.624Z</time>
      </trkpt>
      <trkpt lat="45.9046" lon="5.98655">
        <ele>369</ele>
        <time>2021-09-11T11:22:35.624Z</time>
      </trkpt>
      <trkpt lat="45.90461" lon="5.98644">
        <ele>369</ele>
        <time>2021-09-11T11:22:36.623Z</time>
      </trkpt>
      <trkpt lat="45.90463" lon="5.98633">
        <ele>368</ele>
        <time>2021-09-11T11:22:37.624Z</time>
      </trkpt>
      <trkpt lat="45.90464" lon="5.98623">
        <ele>368</ele>
        <time>2021-09-11T11:22:38.624Z</time>
      </trkpt>
      <trkpt lat="45.90464" lon="5.98612">
        <ele>368</ele>
        <time>2021-09-11T11:22:39.624Z</time>
      </trkpt>
      <trkpt lat="45.90465" lon="5.98602">
        <ele>368</ele>
        <time>2021-09-11T11:22:40.623Z</time>
      </trkpt>
      <trkpt lat="45.90466" lon="5.98592">
        <ele>368</ele>
        <time>2021-09-11T11:22:41.623Z</time>
      </trkpt>
      <trkpt lat="45.90467" lon="5.98582">
        <ele>368</ele>
        <time>2021-09-11T11:22:42.624Z</time>
      </trkpt>
      <trkpt lat="45.90468" lon="5.98572">
        <ele>368</ele>
        <time>2021-09-11T11:22:43.624Z</time>
      </trkpt>
      <trkpt lat="45.90469" lon="5.98562">
        <ele>367</ele>
        <time>2021-09-11T11:22:44.624Z</time>
      </trkpt>
      <trkpt lat="45.9047" lon="5.98553">
        <ele>367</ele>
        <time>2021-09-11T11:22:45.624Z</time>
      </trkpt>
      <trkpt lat="45.90471" lon="5.98544">
        <ele>367</ele>
        <time>2021-09-11T11:22:46.624Z</time>
      </trkpt>
      <trkpt lat="45.90472" lon="5.98533">
        <ele>367</ele>
        <time>2021-09-11T11:22:47.623Z</time>
      </trkpt>
      <trkpt lat="45.90472" lon="5.98525">
        <ele>367</ele>
        <time>2021-09-11T11:22:48.623Z</time>
      </trkpt>
      <trkpt lat="45.90473" lon="5.98516">
        <ele>367</ele>
        <time>2021-09-11T11:22:49.624Z</time>
      </trkpt>
      <trkpt lat="45.90474" lon="5.98507">
        <ele>367</ele>
        <time>2021-09-11T11:22:51.720Z</time>
      </trkpt>
      <trkpt lat="45.90475" lon="5.98499">
        <ele>368</ele>
        <time>2021-09-11T11:23:00.609Z</time>
      </trkpt>
      <trkpt lat="45.90475" lon="5.9849">
        <ele>368</ele>
        <time>2021-09-11T11:23:01.610Z</time>
      </trkpt>
      <trkpt lat="45.90476" lon="5.98481">
        <ele>368</ele>
        <time>2021-09-11T11:23:02.610Z</time>
      </trkpt>
      <trkpt lat="45.90477" lon="5.98473">
        <ele>368</ele>
        <time>2021-09-11T11:24:18.756Z</time>
      </trkpt>
      <trkpt lat="45.90478" lon="5.98465">
        <ele>368</ele>
        <time>2021-09-11T11:24:19.757Z</time>
      </trkpt>
      <trkpt lat="45.90478" lon="5.98456">
        <ele>368</ele>
        <time>2021-09-11T11:24:20.756Z</time>
      </trkpt>
      <trkpt lat="45.90479" lon="5.98448">
        <ele>368</ele>
        <time>2021-09-11T11:24:21.757Z</time>
      </trkpt>
      <trkpt lat="45.9048" lon="5.9844">
        <ele>368</ele>
        <time>2021-09-11T11:24:22.757Z</time>
      </trkpt>
      <trkpt lat="45.90481" lon="5.98432">
        <ele>367</ele>
        <time>2021-09-11T11:24:23.757Z</time>
      </trkpt>
      <trkpt lat="45.90481" lon="5.98425">
        <ele>367</ele>
        <time>2021-09-11T11:24:26.843Z</time>
      </trkpt>
      <trkpt lat="45.90482" lon="5.98417">
        <ele>367</ele>
        <time>2021-09-11T11:24:27.843Z</time>
      </trkpt>
      <trkpt lat="45.90483" lon="5.98409">
        <ele>367</ele>
        <time>2021-09-11T11:24:28.843Z</time>
      </trkpt>
      <trkpt lat="45.90484" lon="5.98402">
        <ele>366</ele>
        <time>2021-09-11T11:24:29.842Z</time>
      </trkpt>
      <trkpt lat="45.90484" lon="5.98394">
        <ele>366</ele>
        <time>2021-09-11T11:24:30.842Z</time>
      </trkpt>
      <trkpt lat="45.90485" lon="5.98387">
        <ele>366</ele>
        <time>2021-09-11T11:24:31.842Z</time>
      </trkpt>
      <trkpt lat="45.90486" lon="5.9838">
        <ele>366</ele>
        <time>2021-09-11T11:24:32.843Z</time>
      </trkpt>
      <trkpt lat="45.90486" lon="5.98372">
        <ele>366</ele>
        <time>2021-09-11T11:24:33.843Z</time>
      </trkpt>
      <trkpt lat="45.90487" lon="5.98365">
        <ele>366</ele>
        <time>2021-09-11T11:24:34.843Z</time>
      </trkpt>
      <trkpt lat="45.90487" lon="5.98358">
        <ele>367</ele>
        <time>2021-09-11T11:24:35.842Z</time>
      </trkpt>
      <trkpt lat="45.90488" lon="5.9835">
        <ele>367</ele>
        <time>2021-09-11T11:24:36.842Z</time>
      </trkpt>
      <trkpt lat="45.90488" lon="5.98343">
        <ele>368</ele>
        <time>2021-09-11T11:24:37.843Z</time>
      </trkpt>
      <trkpt lat="45.90489" lon="5.98334">
        <ele>368</ele>
        <time>2021-09-11T11:24:38.843Z</time>
      </trkpt>
      <trkpt lat="45.9049" lon="5.98329">
        <ele>368</ele>
        <time>2021-09-11T11:24:39.843Z</time>
      </trkpt>
      <trkpt lat="45.9049" lon="5.98322">
        <ele>368</ele>
        <time>2021-09-11T11:24:40.843Z</time>
      </trkpt>
      <trkpt lat="45.90491" lon="5.98315">
        <ele>368</ele>
        <time>2021-09-11T11:24:41.842Z</time>
      </trkpt>
      <trkpt lat="45.90491" lon="5.98308">
        <ele>368</ele>
        <time>2021-09-11T11:24:42.843Z</time>
      </trkpt>
      <trkpt lat="45.90492" lon="5.98301">
        <ele>368</ele>
        <time>2021-09-11T11:24:43.843Z</time>
      </trkpt>
      <trkpt lat="45.90493" lon="5.98294">
        <ele>368</ele>
        <time>2021-09-11T11:24:44.843Z</time>
      </trkpt>
      <trkpt lat="45.90493" lon="5.98288">
        <ele>368</ele>
        <time>2021-09-11T11:24:45.843Z</time>
      </trkpt>
      <trkpt lat="45.90494" lon="5.98281">
        <ele>369</ele>
        <time>2021-09-11T11:24:46.843Z</time>
      </trkpt>
      <trkpt lat="45.90494" lon="5.98274">
        <ele>369</ele>
        <time>2021-09-11T11:24:47.843Z</time>
      </trkpt>
      <trkpt lat="45.90495" lon="5.98267">
        <ele>369</ele>
        <time>2021-09-11T11:24:48.843Z</time>
      </trkpt>
      <trkpt lat="45.90495" lon="5.98261">
        <ele>370</ele>
        <time>2021-09-11T11:24:49.843Z</time>
      </trkpt>
      <trkpt lat="45.90496" lon="5.98254">
        <ele>370</ele>
        <time>2021-09-11T11:24:50.843Z</time>
      </trkpt>
      <trkpt lat="45.90496" lon="5.98247">
        <ele>370</ele>
        <time>2021-09-11T11:24:51.842Z</time>
      </trkpt>
      <trkpt lat="45.90497" lon="5.9824">
        <ele>370</ele>
        <time>2021-09-11T11:24:52.843Z</time>
      </trkpt>
      <trkpt lat="45.90497" lon="5.98231">
        <ele>370</ele>
        <time>2021-09-11T11:24:53.843Z</time>
      </trkpt>
      <trkpt lat="45.90498" lon="5.98224">
        <ele>370</ele>
        <time>2021-09-11T11:24:54.843Z</time>
      </trkpt>
      <trkpt lat="45.90498" lon="5.98216">
        <ele>370</ele>
        <time>2021-09-11T11:24:55.842Z</time>
      </trkpt>
      <trkpt lat="45.90499" lon="5.9821">
        <ele>370</ele>
        <time>2021-09-11T11:24:56.842Z</time>
      </trkpt>
      <trkpt lat="45.90499" lon="5.982">
        <ele>370</ele>
        <time>2021-09-11T11:24:57.843Z</time>
      </trkpt>
      <trkpt lat="45.90499" lon="5.98192">
        <ele>370</ele>
        <time>2021-09-11T11:24:58.843Z</time>
      </trkpt>
      <trkpt lat="45.905" lon="5.98185">
        <ele>370</ele>
        <time>2021-09-11T11:24:59.843Z</time>
      </trkpt>
      <trkpt lat="45.905" lon="5.98177">
        <ele>369</ele>
        <time>2021-09-11T11:25:00.842Z</time>
      </trkpt>
      <trkpt lat="45.905" lon="5.98168">
        <ele>369</ele>
        <time>2021-09-11T11:25:01.843Z</time>
      </trkpt>
      <trkpt lat="45.905" lon="5.98158">
        <ele>369</ele>
        <time>2021-09-11T11:25:02.843Z</time>
      </trkpt>
      <trkpt lat="45.905" lon="5.98149">
        <ele>369</ele>
        <time>2021-09-11T11:25:03.842Z</time>
      </trkpt>
      <trkpt lat="45.90499" lon="5.9814">
        <ele>369</ele>
        <time>2021-09-11T11:25:04.842Z</time>
      </trkpt>
      <trkpt lat="45.90499" lon="5.98133">
        <ele>369</ele>
        <time>2021-09-11T11:25:05.842Z</time>
      </trkpt>
      <trkpt lat="45.90499" lon="5.98125">
        <ele>369</ele>
        <time>2021-09-11T11:25:06.842Z</time>
      </trkpt>
      <trkpt lat="45.90498" lon="5.98114">
        <ele>369</ele>
        <time>2021-09-11T11:25:07.842Z</time>
      </trkpt>
      <trkpt lat="45.90498" lon="5.98107">
        <ele>369</ele>
        <time>2021-09-11T11:25:08.842Z</time>
      </trkpt>
      <trkpt lat="45.90497" lon="5.98098">
        <ele>368</ele>
        <time>2021-09-11T11:25:09.843Z</time>
      </trkpt>
      <trkpt lat="45.90496" lon="5.98089">
        <ele>368</ele>
        <time>2021-09-11T11:25:10.842Z</time>
      </trkpt>
      <trkpt lat="45.90495" lon="5.98081">
        <ele>368</ele>
        <time>2021-09-11T11:25:11.842Z</time>
      </trkpt>
      <trkpt lat="45.90493" lon="5.9807">
        <ele>368</ele>
        <time>2021-09-11T11:25:12.842Z</time>
      </trkpt>
      <trkpt lat="45.90492" lon="5.98061">
        <ele>368</ele>
        <time>2021-09-11T11:25:13.843Z</time>
      </trkpt>
      <trkpt lat="45.90491" lon="5.98054">
        <ele>368</ele>
        <time>2021-09-11T11:25:14.843Z</time>
      </trkpt>
      <trkpt lat="45.9049" lon="5.98046">
        <ele>368</ele>
        <time>2021-09-11T11:25:15.842Z</time>
      </trkpt>
      <trkpt lat="45.90489" lon="5.98036">
        <ele>368</ele>
        <time>2021-09-11T11:25:16.843Z</time>
      </trkpt>
      <trkpt lat="45.90488" lon="5.98028">
        <ele>368</ele>
        <time>2021-09-11T11:25:17.843Z</time>
      </trkpt>
      <trkpt lat="45.90486" lon="5.98022">
        <ele>368</ele>
        <time>2021-09-11T11:25:18.843Z</time>
      </trkpt>
      <trkpt lat="45.90485" lon="5.98014">
        <ele>369</ele>
        <time>2021-09-11T11:25:19.842Z</time>
      </trkpt>
      <trkpt lat="45.90484" lon="5.98007">
        <ele>369</ele>
        <time>2021-09-11T11:25:20.842Z</time>
      </trkpt>
      <trkpt lat="45.90483" lon="5.97998">
        <ele>369</ele>
        <time>2021-09-11T11:25:21.843Z</time>
      </trkpt>
      <trkpt lat="45.90481" lon="5.9799">
        <ele>369</ele>
        <time>2021-09-11T11:25:22.842Z</time>
      </trkpt>
      <trkpt lat="45.9048" lon="5.97984">
        <ele>369</ele>
        <time>2021-09-11T11:25:23.842Z</time>
      </trkpt>
      <trkpt lat="45.90479" lon="5.97976">
        <ele>368</ele>
        <time>2021-09-11T11:25:24.842Z</time>
      </trkpt>
      <trkpt lat="45.90478" lon="5.97967">
        <ele>368</ele>
        <time>2021-09-11T11:25:25.842Z</time>
      </trkpt>
      <trkpt lat="45.90477" lon="5.97959">
        <ele>367</ele>
        <time>2021-09-11T11:25:26.842Z</time>
      </trkpt>
      <trkpt lat="45.90477" lon="5.97952">
        <ele>367</ele>
        <time>2021-09-11T11:25:27.842Z</time>
      </trkpt>
      <trkpt lat="45.90476" lon="5.97944">
        <ele>367</ele>
        <time>2021-09-11T11:25:28.842Z</time>
      </trkpt>
      <trkpt lat="45.90474" lon="5.97934">
        <ele>367</ele>
        <time>2021-09-11T11:25:29.842Z</time>
      </trkpt>
      <trkpt lat="45.90474" lon="5.97928">
        <ele>367</ele>
        <time>2021-09-11T11:25:30.842Z</time>
      </trkpt>
      <trkpt lat="45.90472" lon="5.97918">
        <ele>366</ele>
        <time>2021-09-11T11:25:31.843Z</time>
      </trkpt>
      <trkpt lat="45.90471" lon="5.97911">
        <ele>366</ele>
        <time>2021-09-11T11:25:32.842Z</time>
      </trkpt>
      <trkpt lat="45.9047" lon="5.97902">
        <ele>366</ele>
        <time>2021-09-11T11:25:33.842Z</time>
      </trkpt>
      <trkpt lat="45.90469" lon="5.97892">
        <ele>366</ele>
        <time>2021-09-11T11:25:34.843Z</time>
      </trkpt>
      <trkpt lat="45.90468" lon="5.97884">
        <ele>366</ele>
        <time>2021-09-11T11:25:35.843Z</time>
      </trkpt>
      <trkpt lat="45.90467" lon="5.97877">
        <ele>365</ele>
        <time>2021-09-11T11:25:36.843Z</time>
      </trkpt>
      <trkpt lat="45.90466" lon="5.97868">
        <ele>365</ele>
        <time>2021-09-11T11:25:37.843Z</time>
      </trkpt>
      <trkpt lat="45.90465" lon="5.9786">
        <ele>364</ele>
        <time>2021-09-11T11:25:38.842Z</time>
      </trkpt>
      <trkpt lat="45.90463" lon="5.97851">
        <ele>364</ele>
        <time>2021-09-11T11:25:39.843Z</time>
      </trkpt>
      <trkpt lat="45.90461" lon="5.97841">
        <ele>364</ele>
        <time>2021-09-11T11:25:40.843Z</time>
      </trkpt>
      <trkpt lat="45.9046" lon="5.97833">
        <ele>364</ele>
        <time>2021-09-11T11:25:41.843Z</time>
      </trkpt>
      <trkpt lat="45.90458" lon="5.97826">
        <ele>364</ele>
        <time>2021-09-11T11:25:42.843Z</time>
      </trkpt>
      <trkpt lat="45.90456" lon="5.97818">
        <ele>364</ele>
        <time>2021-09-11T11:25:43.842Z</time>
      </trkpt>
      <trkpt lat="45.90454" lon="5.9781">
        <ele>365</ele>
        <time>2021-09-11T11:25:44.842Z</time>
      </trkpt>
      <trkpt lat="45.90451" lon="5.97801">
        <ele>365</ele>
        <time>2021-09-11T11:25:45.843Z</time>
      </trkpt>
      <trkpt lat="45.90449" lon="5.97795">
        <ele>365</ele>
        <time>2021-09-11T11:25:46.843Z</time>
      </trkpt>
      <trkpt lat="45.90447" lon="5.97789">
        <ele>365</ele>
        <time>2021-09-11T11:25:47.843Z</time>
      </trkpt>
      <trkpt lat="45.90444" lon="5.97782">
        <ele>365</ele>
        <time>2021-09-11T11:25:48.843Z</time>
      </trkpt>
      <trkpt lat="45.90442" lon="5.97778">
        <ele>365</ele>
        <time>2021-09-11T11:25:49.843Z</time>
      </trkpt>
      <trkpt lat="45.9044" lon="5.97772">
        <ele>365</ele>
        <time>2021-09-11T11:25:50.842Z</time>
      </trkpt>
      <trkpt lat="45.90438" lon="5.97767">
        <ele>365</ele>
        <time>2021-09-11T11:25:51.843Z</time>
      </trkpt>
      <trkpt lat="45.90435" lon="5.97763">
        <ele>365</ele>
        <time>2021-09-11T11:25:52.842Z</time>
      </trkpt>
      <trkpt lat="45.90433" lon="5.97758">
        <ele>365</ele>
        <time>2021-09-11T11:25:53.843Z</time>
      </trkpt>
      <trkpt lat="45.9043" lon="5.97753">
        <ele>365</ele>
        <time>2021-09-11T11:25:54.843Z</time>
      </trkpt>
      <trkpt lat="45.90428" lon="5.97748">
        <ele>366</ele>
        <time>2021-09-11T11:25:55.842Z</time>
      </trkpt>
      <trkpt lat="45.90426" lon="5.97745">
        <ele>366</ele>
        <time>2021-09-11T11:25:56.843Z</time>
      </trkpt>
      <trkpt lat="45.90424" lon="5.97741">
        <ele>367</ele>
        <time>2021-09-11T11:25:57.843Z</time>
      </trkpt>
      <trkpt lat="45.90422" lon="5.97738">
        <ele>367</ele>
        <time>2021-09-11T11:25:58.843Z</time>
      </trkpt>
      <trkpt lat="45.90419" lon="5.97734">
        <ele>367</ele>
        <time>2021-09-11T11:25:59.843Z</time>
      </trkpt>
      <trkpt lat="45.90417" lon="5.97731">
        <ele>368</ele>
        <time>2021-09-11T11:26:00.842Z</time>
      </trkpt>
      <trkpt lat="45.90415" lon="5.97727">
        <ele>368</ele>
        <time>2021-09-11T11:26:01.843Z</time>
      </trkpt>
      <trkpt lat="45.90412" lon="5.97723">
        <ele>368</ele>
        <time>2021-09-11T11:26:02.843Z</time>
      </trkpt>
      <trkpt lat="45.9041" lon="5.9772">
        <ele>368</ele>
        <time>2021-09-11T11:26:03.843Z</time>
      </trkpt>
      <trkpt lat="45.90409" lon="5.97717">
        <ele>368</ele>
        <time>2021-09-11T11:26:04.843Z</time>
      </trkpt>
      <trkpt lat="45.90407" lon="5.97714">
        <ele>368</ele>
        <time>2021-09-11T11:26:05.843Z</time>
      </trkpt>
      <trkpt lat="45.90405" lon="5.97711">
        <ele>368</ele>
        <time>2021-09-11T11:26:06.843Z</time>
      </trkpt>
      <trkpt lat="45.90402" lon="5.97707">
        <ele>368</ele>
        <time>2021-09-11T11:26:07.843Z</time>
      </trkpt>
      <trkpt lat="45.904" lon="5.97704">
        <ele>368</ele>
        <time>2021-09-11T11:26:08.843Z</time>
      </trkpt>
      <trkpt lat="45.90398" lon="5.977">
        <ele>368</ele>
        <time>2021-09-11T11:26:09.842Z</time>
      </trkpt>
      <trkpt lat="45.90396" lon="5.97697">
        <ele>368</ele>
        <time>2021-09-11T11:26:10.843Z</time>
      </trkpt>
      <trkpt lat="45.90394" lon="5.97694">
        <ele>368</ele>
        <time>2021-09-11T11:26:11.843Z</time>
      </trkpt>
      <trkpt lat="45.90392" lon="5.9769">
        <ele>368</ele>
        <time>2021-09-11T11:26:12.843Z</time>
      </trkpt>
      <trkpt lat="45.9039" lon="5.97687">
        <ele>368</ele>
        <time>2021-09-11T11:26:13.843Z</time>
      </trkpt>
      <trkpt lat="45.90389" lon="5.97684">
        <ele>368</ele>
        <time>2021-09-11T11:26:14.843Z</time>
      </trkpt>
      <trkpt lat="45.90387" lon="5.97681">
        <ele>368</ele>
        <time>2021-09-11T11:26:15.843Z</time>
      </trkpt>
      <trkpt lat="45.90385" lon="5.97678">
        <ele>369</ele>
        <time>2021-09-11T11:26:16.843Z</time>
      </trkpt>
      <trkpt lat="45.90383" lon="5.97675">
        <ele>369</ele>
        <time>2021-09-11T11:26:17.843Z</time>
      </trkpt>
      <trkpt lat="45.90381" lon="5.97671">
        <ele>369</ele>
        <time>2021-09-11T11:26:18.842Z</time>
      </trkpt>
      <trkpt lat="45.9038" lon="5.97669">
        <ele>369</ele>
        <time>2021-09-11T11:26:19.843Z</time>
      </trkpt>
      <trkpt lat="45.90379" lon="5.97666">
        <ele>369</ele>
        <time>2021-09-11T11:26:20.842Z</time>
      </trkpt>
      <trkpt lat="45.90377" lon="5.97664">
        <ele>369</ele>
        <time>2021-09-11T11:26:21.843Z</time>
      </trkpt>
      <trkpt lat="45.90376" lon="5.97661">
        <ele>369</ele>
        <time>2021-09-11T11:26:22.842Z</time>
      </trkpt>
      <trkpt lat="45.90374" lon="5.97659">
        <ele>369</ele>
        <time>2021-09-11T11:26:23.843Z</time>
      </trkpt>
      <trkpt lat="45.90373" lon="5.97656">
        <ele>370</ele>
        <time>2021-09-11T11:26:24.842Z</time>
      </trkpt>
      <trkpt lat="45.90371" lon="5.97653">
        <ele>370</ele>
        <time>2021-09-11T11:26:25.843Z</time>
      </trkpt>
      <trkpt lat="45.90369" lon="5.9765">
        <ele>370</ele>
        <time>2021-09-11T11:26:26.843Z</time>
      </trkpt>
      <trkpt lat="45.90368" lon="5.97646">
        <ele>371</ele>
        <time>2021-09-11T11:26:27.843Z</time>
      </trkpt>
      <trkpt lat="45.90367" lon="5.97644">
        <ele>371</ele>
        <time>2021-09-11T11:26:28.842Z</time>
      </trkpt>
      <trkpt lat="45.90366" lon="5.97641">
        <ele>370</ele>
        <time>2021-09-11T11:26:29.842Z</time>
      </trkpt>
      <trkpt lat="45.90364" lon="5.97639">
        <ele>370</ele>
        <time>2021-09-11T11:26:30.843Z</time>
      </trkpt>
      <trkpt lat="45.90363" lon="5.97636">
        <ele>370</ele>
        <time>2021-09-11T11:26:31.843Z</time>
      </trkpt>
      <trkpt lat="45.90362" lon="5.97632">
        <ele>371</ele>
        <time>2021-09-11T11:26:32.843Z</time>
      </trkpt>
      <trkpt lat="45.90362" lon="5.9763">
        <ele>371</ele>
        <time>2021-09-11T11:26:33.843Z</time>
      </trkpt>
      <trkpt lat="45.90361" lon="5.97627">
        <ele>371</ele>
        <time>2021-09-11T11:26:34.843Z</time>
      </trkpt>
      <trkpt lat="45.90361" lon="5.97624">
        <ele>372</ele>
        <time>2021-09-11T11:26:35.842Z</time>
      </trkpt>
      <trkpt lat="45.90361" lon="5.97622">
        <ele>371</ele>
        <time>2021-09-11T11:26:36.843Z</time>
      </trkpt>
      <trkpt lat="45.9036" lon="5.9762">
        <ele>371</ele>
        <time>2021-09-11T11:26:37.842Z</time>
      </trkpt>
      <trkpt lat="45.9036" lon="5.97617">
        <ele>371</ele>
        <time>2021-09-11T11:26:38.843Z</time>
      </trkpt>
      <trkpt lat="45.9036" lon="5.97615">
        <ele>371</ele>
        <time>2021-09-11T11:26:39.842Z</time>
      </trkpt>
      <trkpt lat="45.9036" lon="5.97613">
        <ele>371</ele>
        <time>2021-09-11T11:26:40.842Z</time>
      </trkpt>
      <trkpt lat="45.9036" lon="5.97611">
        <ele>371</ele>
        <time>2021-09-11T11:26:41.843Z</time>
      </trkpt>
      <trkpt lat="45.9036" lon="5.97609">
        <ele>371</ele>
        <time>2021-09-11T11:26:42.843Z</time>
      </trkpt>
      <trkpt lat="45.9036" lon="5.97607">
        <ele>371</ele>
        <time>2021-09-11T11:26:43.843Z</time>
      </trkpt>
      <trkpt lat="45.90359" lon="5.97605">
        <ele>372</ele>
        <time>2021-09-11T11:26:44.843Z</time>
      </trkpt>
      <trkpt lat="45.90358" lon="5.97602">
        <ele>372</ele>
        <time>2021-09-11T11:26:45.843Z</time>
      </trkpt>
      <trkpt lat="45.90358" lon="5.976">
        <ele>372</ele>
        <time>2021-09-11T11:26:46.842Z</time>
      </trkpt>
      <trkpt lat="45.90358" lon="5.97597">
        <ele>373</ele>
        <time>2021-09-11T11:26:47.843Z</time>
      </trkpt>
      <trkpt lat="45.90358" lon="5.97594">
        <ele>373</ele>
        <time>2021-09-11T11:26:48.843Z</time>
      </trkpt>
      <trkpt lat="45.90358" lon="5.97591">
        <ele>374</ele>
        <time>2021-09-11T11:26:49.843Z</time>
      </trkpt>
      <trkpt lat="45.90358" lon="5.97587">
        <ele>374</ele>
        <time>2021-09-11T11:26:50.843Z</time>
      </trkpt>
      <trkpt lat="45.90358" lon="5.97584">
        <ele>375</ele>
        <time>2021-09-11T11:26:51.842Z</time>
      </trkpt>
      <trkpt lat="45.90358" lon="5.97581">
        <ele>375</ele>
        <time>2021-09-11T11:26:52.842Z</time>
      </trkpt>
      <trkpt lat="45.90358" lon="5.97577">
        <ele>375</ele>
        <time>2021-09-11T11:26:53.843Z</time>
      </trkpt>
      <trkpt lat="45.90358" lon="5.97574">
        <ele>375</ele>
        <time>2021-09-11T11:26:54.843Z</time>
      </trkpt>
      <trkpt lat="45.90358" lon="5.97571">
        <ele>375</ele>
        <time>2021-09-11T11:26:55.843Z</time>
      </trkpt>
      <trkpt lat="45.90357" lon="5.97568">
        <ele>375</ele>
        <time>2021-09-11T11:26:56.843Z</time>
      </trkpt>
      <trkpt lat="45.90357" lon="5.97564">
        <ele>375</ele>
        <time>2021-09-11T11:26:57.843Z</time>
      </trkpt>
      <trkpt lat="45.90357" lon="5.97561">
        <ele>375</ele>
        <time>2021-09-11T11:26:58.843Z</time>
      </trkpt>
      <trkpt lat="45.90357" lon="5.97558">
        <ele>375</ele>
        <time>2021-09-11T11:26:59.843Z</time>
      </trkpt>
      <trkpt lat="45.90357" lon="5.97555">
        <ele>375</ele>
        <time>2021-09-11T11:27:00.842Z</time>
      </trkpt>
      <trkpt lat="45.90357" lon="5.97552">
        <ele>375</ele>
        <time>2021-09-11T11:27:01.842Z</time>
      </trkpt>
      <trkpt lat="45.90357" lon="5.97549">
        <ele>376</ele>
        <time>2021-09-11T11:27:02.843Z</time>
      </trkpt>
      <trkpt lat="45.90356" lon="5.97546">
        <ele>376</ele>
        <time>2021-09-11T11:27:03.843Z</time>
      </trkpt>
      <trkpt lat="45.90356" lon="5.97544">
        <ele>376</ele>
        <time>2021-09-11T11:27:04.843Z</time>
      </trkpt>
      <trkpt lat="45.90356" lon="5.97542">
        <ele>377</ele>
        <time>2021-09-11T11:27:05.843Z</time>
      </trkpt>
      <trkpt lat="45.90356" lon="5.9754">
        <ele>378</ele>
        <time>2021-09-11T11:27:06.843Z</time>
      </trkpt>
      <trkpt lat="45.90356" lon="5.97537">
        <ele>378</ele>
        <time>2021-09-11T11:27:07.842Z</time>
      </trkpt>
      <trkpt lat="45.90356" lon="5.97535">
        <ele>379</ele>
        <time>2021-09-11T11:27:08.843Z</time>
      </trkpt>
      <trkpt lat="45.90356" lon="5.97532">
        <ele>379</ele>
        <time>2021-09-11T11:27:09.842Z</time>
      </trkpt>
      <trkpt lat="45.90356" lon="5.9753">
        <ele>379</ele>
        <time>2021-09-11T11:27:10.842Z</time>
      </trkpt>
      <trkpt lat="45.90356" lon="5.97527">
        <ele>379</ele>
        <time>2021-09-11T11:27:11.843Z</time>
      </trkpt>
      <trkpt lat="45.90356" lon="5.97524">
        <ele>379</ele>
        <time>2021-09-11T11:27:12.842Z</time>
      </trkpt>
      <trkpt lat="45.90356" lon="5.97521">
        <ele>379</ele>
        <time>2021-09-11T11:27:13.842Z</time>
      </trkpt>
      <trkpt lat="45.90357" lon="5.97518">
        <ele>379</ele>
        <time>2021-09-11T11:27:14.843Z</time>
      </trkpt>
      <trkpt lat="45.90357" lon="5.97515">
        <ele>379</ele>
        <time>2021-09-11T11:27:15.843Z</time>
      </trkpt>
      <trkpt lat="45.90357" lon="5.97513">
        <ele>380</ele>
        <time>2021-09-11T11:27:16.842Z</time>
      </trkpt>
      <trkpt lat="45.90357" lon="5.97511">
        <ele>380</ele>
        <time>2021-09-11T11:27:17.842Z</time>
      </trkpt>
      <trkpt lat="45.90357" lon="5.97509">
        <ele>380</ele>
        <time>2021-09-11T11:27:18.843Z</time>
      </trkpt>
      <trkpt lat="45.90357" lon="5.97509">
        <ele>380</ele>
        <time>2021-09-11T11:27:19.843Z</time>
      </trkpt>
      <trkpt lat="45.90357" lon="5.97509">
        <ele>380</ele>
        <time>2021-09-11T11:27:20.843Z</time>
      </trkpt>
      <trkpt lat="45.90357" lon="5.97509">
        <ele>379</ele>
        <time>2021-09-11T11:27:21.843Z</time>
      </trkpt>
      <trkpt lat="45.90357" lon="5.9751">
        <ele>379</ele>
        <time>2021-09-11T11:27:22.843Z</time>
      </trkpt>
      <trkpt lat="45.90357" lon="5.97511">
        <ele>379</ele>
        <time>2021-09-11T11:27:23.842Z</time>
      </trkpt>
      <trkpt lat="45.90357" lon="5.97511">
        <ele>379</ele>
        <time>2021-09-11T11:27:24.842Z</time>
      </trkpt>
      <trkpt lat="45.90357" lon="5.97512">
        <ele>379</ele>
        <time>2021-09-11T11:27:25.843Z</time>
      </trkpt>
      <trkpt lat="45.90358" lon="5.97512">
        <ele>379</ele>
        <time>2021-09-11T11:27:26.842Z</time>
      </trkpt>
      <trkpt lat="45.90358" lon="5.97511">
        <ele>379</ele>
        <time>2021-09-11T11:27:27.843Z</time>
      </trkpt>
      <trkpt lat="45.90356" lon="5.97502">
        <ele>378</ele>
        <time>2021-09-11T11:27:28.845Z</time>
      </trkpt>
      <trkpt lat="45.90355" lon="5.97498">
        <ele>378</ele>
        <time>2021-09-11T11:27:29.844Z</time>
      </trkpt>
      <trkpt lat="45.90354" lon="5.97492">
        <ele>378</ele>
        <time>2021-09-11T11:27:30.844Z</time>
      </trkpt>
      <trkpt lat="45.90353" lon="5.97486">
        <ele>378</ele>
        <time>2021-09-11T11:27:31.845Z</time>
      </trkpt>
      <trkpt lat="45.90352" lon="5.97479">
        <ele>378</ele>
        <time>2021-09-11T11:27:32.844Z</time>
      </trkpt>
      <trkpt lat="45.9035" lon="5.9747">
        <ele>377</ele>
        <time>2021-09-11T11:27:33.844Z</time>
      </trkpt>
      <trkpt lat="45.90349" lon="5.97463">
        <ele>377</ele>
        <time>2021-09-11T11:27:34.845Z</time>
      </trkpt>
      <trkpt lat="45.90348" lon="5.97453">
        <ele>377</ele>
        <time>2021-09-11T11:27:35.844Z</time>
      </trkpt>
      <trkpt lat="45.90347" lon="5.97444">
        <ele>377</ele>
        <time>2021-09-11T11:27:36.844Z</time>
      </trkpt>
      <trkpt lat="45.90345" lon="5.97432">
        <ele>377</ele>
        <time>2021-09-11T11:27:37.844Z</time>
      </trkpt>
      <trkpt lat="45.90344" lon="5.97424">
        <ele>376</ele>
        <time>2021-09-11T11:27:38.844Z</time>
      </trkpt>
      <trkpt lat="45.90342" lon="5.97411">
        <ele>376</ele>
        <time>2021-09-11T11:27:39.844Z</time>
      </trkpt>
      <trkpt lat="45.90342" lon="5.97402">
        <ele>375</ele>
        <time>2021-09-11T11:27:40.844Z</time>
      </trkpt>
      <trkpt lat="45.90341" lon="5.97391">
        <ele>375</ele>
        <time>2021-09-11T11:27:41.845Z</time>
      </trkpt>
      <trkpt lat="45.9034" lon="5.97383">
        <ele>375</ele>
        <time>2021-09-11T11:27:42.845Z</time>
      </trkpt>
      <trkpt lat="45.9034" lon="5.97375">
        <ele>374</ele>
        <time>2021-09-11T11:27:43.845Z</time>
      </trkpt>
      <trkpt lat="45.9034" lon="5.97373">
        <ele>374</ele>
        <time>2021-09-11T11:27:44.844Z</time>
      </trkpt>
      <trkpt lat="45.9034" lon="5.9737">
        <ele>374</ele>
        <time>2021-09-11T11:27:45.845Z</time>
      </trkpt>
      <trkpt lat="45.90341" lon="5.97368">
        <ele>373</ele>
        <time>2021-09-11T11:27:46.845Z</time>
      </trkpt>
      <trkpt lat="45.90341" lon="5.97366">
        <ele>373</ele>
        <time>2021-09-11T11:27:47.845Z</time>
      </trkpt>
      <trkpt lat="45.90341" lon="5.97364">
        <ele>372</ele>
        <time>2021-09-11T11:27:48.844Z</time>
      </trkpt>
      <trkpt lat="45.90341" lon="5.97361">
        <ele>372</ele>
        <time>2021-09-11T11:27:49.845Z</time>
      </trkpt>
      <trkpt lat="45.90341" lon="5.97357">
        <ele>372</ele>
        <time>2021-09-11T11:27:50.844Z</time>
      </trkpt>
      <trkpt lat="45.90341" lon="5.97352">
        <ele>371</ele>
        <time>2021-09-11T11:27:51.845Z</time>
      </trkpt>
      <trkpt lat="45.90342" lon="5.97347">
        <ele>371</ele>
        <time>2021-09-11T11:27:52.844Z</time>
      </trkpt>
      <trkpt lat="45.90343" lon="5.97341">
        <ele>370</ele>
        <time>2021-09-11T11:27:53.845Z</time>
      </trkpt>
      <trkpt lat="45.90345" lon="5.97334">
        <ele>371</ele>
        <time>2021-09-11T11:27:54.844Z</time>
      </trkpt>
      <trkpt lat="45.90347" lon="5.97327">
        <ele>371</ele>
        <time>2021-09-11T11:27:55.844Z</time>
      </trkpt>
      <trkpt lat="45.9035" lon="5.9732">
        <ele>371</ele>
        <time>2021-09-11T11:27:56.844Z</time>
      </trkpt>
      <trkpt lat="45.90353" lon="5.97311">
        <ele>371</ele>
        <time>2021-09-11T11:27:57.844Z</time>
      </trkpt>
      <trkpt lat="45.90356" lon="5.97304">
        <ele>371</ele>
        <time>2021-09-11T11:27:58.844Z</time>
      </trkpt>
      <trkpt lat="45.90359" lon="5.97296">
        <ele>371</ele>
        <time>2021-09-11T11:27:59.844Z</time>
      </trkpt>
      <trkpt lat="45.90362" lon="5.97288">
        <ele>370</ele>
        <time>2021-09-11T11:28:00.845Z</time>
      </trkpt>
      <trkpt lat="45.90363" lon="5.97282">
        <ele>370</ele>
        <time>2021-09-11T11:28:01.845Z</time>
      </trkpt>
      <trkpt lat="45.90365" lon="5.97275">
        <ele>370</ele>
        <time>2021-09-11T11:28:02.844Z</time>
      </trkpt>
      <trkpt lat="45.90366" lon="5.97271">
        <ele>370</ele>
        <time>2021-09-11T11:28:03.845Z</time>
      </trkpt>
      <trkpt lat="45.90366" lon="5.97265">
        <ele>369</ele>
        <time>2021-09-11T11:28:04.844Z</time>
      </trkpt>
      <trkpt lat="45.90367" lon="5.97258">
        <ele>369</ele>
        <time>2021-09-11T11:28:05.844Z</time>
      </trkpt>
      <trkpt lat="45.90367" lon="5.97253">
        <ele>368</ele>
        <time>2021-09-11T11:28:06.844Z</time>
      </trkpt>
      <trkpt lat="45.90369" lon="5.97246">
        <ele>368</ele>
        <time>2021-09-11T11:28:07.845Z</time>
      </trkpt>
      <trkpt lat="45.90371" lon="5.97239">
        <ele>368</ele>
        <time>2021-09-11T11:28:08.845Z</time>
      </trkpt>
      <trkpt lat="45.90374" lon="5.97233">
        <ele>367</ele>
        <time>2021-09-11T11:28:09.844Z</time>
      </trkpt>
      <trkpt lat="45.90378" lon="5.97226">
        <ele>367</ele>
        <time>2021-09-11T11:28:10.844Z</time>
      </trkpt>
      <trkpt lat="45.90382" lon="5.97218">
        <ele>367</ele>
        <time>2021-09-11T11:28:11.844Z</time>
      </trkpt>
      <trkpt lat="45.90387" lon="5.9721">
        <ele>366</ele>
        <time>2021-09-11T11:28:12.844Z</time>
      </trkpt>
      <trkpt lat="45.9039" lon="5.97204">
        <ele>366</ele>
        <time>2021-09-11T11:28:13.845Z</time>
      </trkpt>
      <trkpt lat="45.90394" lon="5.97196">
        <ele>365</ele>
        <time>2021-09-11T11:28:14.845Z</time>
      </trkpt>
      <trkpt lat="45.90399" lon="5.97185">
        <ele>365</ele>
        <time>2021-09-11T11:28:15.845Z</time>
      </trkpt>
      <trkpt lat="45.90403" lon="5.97179">
        <ele>364</ele>
        <time>2021-09-11T11:28:16.845Z</time>
      </trkpt>
      <trkpt lat="45.90406" lon="5.9717">
        <ele>363</ele>
        <time>2021-09-11T11:28:17.844Z</time>
      </trkpt>
      <trkpt lat="45.90409" lon="5.97161">
        <ele>362</ele>
        <time>2021-09-11T11:28:18.845Z</time>
      </trkpt>
      <trkpt lat="45.90412" lon="5.97151">
        <ele>362</ele>
        <time>2021-09-11T11:28:19.845Z</time>
      </trkpt>
      <trkpt lat="45.90414" lon="5.97139">
        <ele>361</ele>
        <time>2021-09-11T11:28:20.845Z</time>
      </trkpt>
      <trkpt lat="45.90415" lon="5.97129">
        <ele>361</ele>
        <time>2021-09-11T11:28:21.844Z</time>
      </trkpt>
      <trkpt lat="45.90415" lon="5.9712">
        <ele>361</ele>
        <time>2021-09-11T11:28:22.844Z</time>
      </trkpt>
      <trkpt lat="45.90415" lon="5.97108">
        <ele>361</ele>
        <time>2021-09-11T11:28:23.844Z</time>
      </trkpt>
      <trkpt lat="45.90414" lon="5.971">
        <ele>360</ele>
        <time>2021-09-11T11:28:24.845Z</time>
      </trkpt>
      <trkpt lat="45.90412" lon="5.9709">
        <ele>360</ele>
        <time>2021-09-11T11:28:25.844Z</time>
      </trkpt>
      <trkpt lat="45.9041" lon="5.97081">
        <ele>359</ele>
        <time>2021-09-11T11:28:26.845Z</time>
      </trkpt>
      <trkpt lat="45.90408" lon="5.9707">
        <ele>359</ele>
        <time>2021-09-11T11:28:27.844Z</time>
      </trkpt>
      <trkpt lat="45.90406" lon="5.97062">
        <ele>358</ele>
        <time>2021-09-11T11:28:28.845Z</time>
      </trkpt>
      <trkpt lat="45.90403" lon="5.97053">
        <ele>358</ele>
        <time>2021-09-11T11:28:29.844Z</time>
      </trkpt>
      <trkpt lat="45.90401" lon="5.97045">
        <ele>357</ele>
        <time>2021-09-11T11:28:30.845Z</time>
      </trkpt>
      <trkpt lat="45.90399" lon="5.97036">
        <ele>357</ele>
        <time>2021-09-11T11:28:31.844Z</time>
      </trkpt>
      <trkpt lat="45.90397" lon="5.97028">
        <ele>357</ele>
        <time>2021-09-11T11:28:32.845Z</time>
      </trkpt>
      <trkpt lat="45.90395" lon="5.97019">
        <ele>357</ele>
        <time>2021-09-11T11:28:33.845Z</time>
      </trkpt>
      <trkpt lat="45.90394" lon="5.9701">
        <ele>356</ele>
        <time>2021-09-11T11:28:34.845Z</time>
      </trkpt>
      <trkpt lat="45.90393" lon="5.97002">
        <ele>356</ele>
        <time>2021-09-11T11:28:35.844Z</time>
      </trkpt>
      <trkpt lat="45.90393" lon="5.96993">
        <ele>356</ele>
        <time>2021-09-11T11:28:36.845Z</time>
      </trkpt>
      <trkpt lat="45.90393" lon="5.96985">
        <ele>356</ele>
        <time>2021-09-11T11:28:37.845Z</time>
      </trkpt>
      <trkpt lat="45.90394" lon="5.96976">
        <ele>355</ele>
        <time>2021-09-11T11:28:38.844Z</time>
      </trkpt>
      <trkpt lat="45.90394" lon="5.96968">
        <ele>355</ele>
        <time>2021-09-11T11:28:39.845Z</time>
      </trkpt>
      <trkpt lat="45.90395" lon="5.9696">
        <ele>355</ele>
        <time>2021-09-11T11:28:40.845Z</time>
      </trkpt>
      <trkpt lat="45.90397" lon="5.96951">
        <ele>354</ele>
        <time>2021-09-11T11:28:41.845Z</time>
      </trkpt>
      <trkpt lat="45.90398" lon="5.96944">
        <ele>354</ele>
        <time>2021-09-11T11:28:42.844Z</time>
      </trkpt>
      <trkpt lat="45.904" lon="5.96935">
        <ele>353</ele>
        <time>2021-09-11T11:28:43.844Z</time>
      </trkpt>
      <trkpt lat="45.90401" lon="5.96927">
        <ele>353</ele>
        <time>2021-09-11T11:28:44.845Z</time>
      </trkpt>
      <trkpt lat="45.90403" lon="5.96919">
        <ele>353</ele>
        <time>2021-09-11T11:28:45.844Z</time>
      </trkpt>
      <trkpt lat="45.90404" lon="5.96911">
        <ele>353</ele>
        <time>2021-09-11T11:28:46.844Z</time>
      </trkpt>
      <trkpt lat="45.90405" lon="5.96903">
        <ele>353</ele>
        <time>2021-09-11T11:28:47.844Z</time>
      </trkpt>
      <trkpt lat="45.90406" lon="5.96895">
        <ele>354</ele>
        <time>2021-09-11T11:28:48.845Z</time>
      </trkpt>
      <trkpt lat="45.90407" lon="5.96887">
        <ele>354</ele>
        <time>2021-09-11T11:28:49.845Z</time>
      </trkpt>
      <trkpt lat="45.90408" lon="5.96879">
        <ele>354</ele>
        <time>2021-09-11T11:28:50.845Z</time>
      </trkpt>
      <trkpt lat="45.90409" lon="5.96872">
        <ele>354</ele>
        <time>2021-09-11T11:28:51.844Z</time>
      </trkpt>
      <trkpt lat="45.9041" lon="5.96864">
        <ele>354</ele>
        <time>2021-09-11T11:28:52.844Z</time>
      </trkpt>
      <trkpt lat="45.90411" lon="5.96857">
        <ele>354</ele>
        <time>2021-09-11T11:28:53.845Z</time>
      </trkpt>
      <trkpt lat="45.90413" lon="5.96851">
        <ele>354</ele>
        <time>2021-09-11T11:28:54.845Z</time>
      </trkpt>
      <trkpt lat="45.90415" lon="5.96845">
        <ele>353</ele>
        <time>2021-09-11T11:28:55.845Z</time>
      </trkpt>
      <trkpt lat="45.90417" lon="5.96841">
        <ele>353</ele>
        <time>2021-09-11T11:28:56.844Z</time>
      </trkpt>
      <trkpt lat="45.90419" lon="5.96837">
        <ele>352</ele>
        <time>2021-09-11T11:28:57.844Z</time>
      </trkpt>
      <trkpt lat="45.90422" lon="5.96833">
        <ele>352</ele>
        <time>2021-09-11T11:28:58.845Z</time>
      </trkpt>
      <trkpt lat="45.90424" lon="5.96829">
        <ele>351</ele>
        <time>2021-09-11T11:28:59.844Z</time>
      </trkpt>
      <trkpt lat="45.90426" lon="5.96825">
        <ele>352</ele>
        <time>2021-09-11T11:29:00.845Z</time>
      </trkpt>
      <trkpt lat="45.90427" lon="5.96821">
        <ele>352</ele>
        <time>2021-09-11T11:29:01.845Z</time>
      </trkpt>
      <trkpt lat="45.90428" lon="5.96817">
        <ele>352</ele>
        <time>2021-09-11T11:29:02.845Z</time>
      </trkpt>
      <trkpt lat="45.90428" lon="5.96814">
        <ele>353</ele>
        <time>2021-09-11T11:29:03.845Z</time>
      </trkpt>
      <trkpt lat="45.90427" lon="5.96811">
        <ele>352</ele>
        <time>2021-09-11T11:29:04.845Z</time>
      </trkpt>
      <trkpt lat="45.90427" lon="5.9681">
        <ele>352</ele>
        <time>2021-09-11T11:29:05.845Z</time>
      </trkpt>
      <trkpt lat="45.90427" lon="5.9681">
        <ele>353</ele>
        <time>2021-09-11T11:29:06.845Z</time>
      </trkpt>
      <trkpt lat="45.90427" lon="5.9681">
        <ele>353</ele>
        <time>2021-09-11T11:29:07.844Z</time>
      </trkpt>
      <trkpt lat="45.90425" lon="5.96809">
        <ele>354</ele>
        <time>2021-09-11T11:29:08.846Z</time>
      </trkpt>
      <trkpt lat="45.90424" lon="5.96807">
        <ele>354</ele>
        <time>2021-09-11T11:29:09.845Z</time>
      </trkpt>
      <trkpt lat="45.90423" lon="5.96805">
        <ele>354</ele>
        <time>2021-09-11T11:29:10.845Z</time>
      </trkpt>
      <trkpt lat="45.90423" lon="5.96802">
        <ele>354</ele>
        <time>2021-09-11T11:29:11.846Z</time>
      </trkpt>
      <trkpt lat="45.90423" lon="5.96799">
        <ele>353</ele>
        <time>2021-09-11T11:29:12.846Z</time>
      </trkpt>
      <trkpt lat="45.90422" lon="5.96795">
        <ele>353</ele>
        <time>2021-09-11T11:29:13.846Z</time>
      </trkpt>
      <trkpt lat="45.90423" lon="5.96791">
        <ele>353</ele>
        <time>2021-09-11T11:29:14.846Z</time>
      </trkpt>
      <trkpt lat="45.90423" lon="5.96787">
        <ele>352</ele>
        <time>2021-09-11T11:29:15.846Z</time>
      </trkpt>
      <trkpt lat="45.90423" lon="5.96783">
        <ele>352</ele>
        <time>2021-09-11T11:29:16.846Z</time>
      </trkpt>
      <trkpt lat="45.90424" lon="5.96778">
        <ele>351</ele>
        <time>2021-09-11T11:29:17.845Z</time>
      </trkpt>
      <trkpt lat="45.90425" lon="5.96774">
        <ele>351</ele>
        <time>2021-09-11T11:29:18.845Z</time>
      </trkpt>
      <trkpt lat="45.90425" lon="5.96769">
        <ele>351</ele>
        <time>2021-09-11T11:29:19.846Z</time>
      </trkpt>
      <trkpt lat="45.90426" lon="5.96764">
        <ele>351</ele>
        <time>2021-09-11T11:29:20.846Z</time>
      </trkpt>
      <trkpt lat="45.90427" lon="5.96759">
        <ele>351</ele>
        <time>2021-09-11T11:29:21.845Z</time>
      </trkpt>
      <trkpt lat="45.90428" lon="5.96753">
        <ele>351</ele>
        <time>2021-09-11T11:29:22.846Z</time>
      </trkpt>
      <trkpt lat="45.90429" lon="5.96746">
        <ele>351</ele>
        <time>2021-09-11T11:29:23.846Z</time>
      </trkpt>
      <trkpt lat="45.9043" lon="5.96741">
        <ele>351</ele>
        <time>2021-09-11T11:29:24.846Z</time>
      </trkpt>
      <trkpt lat="45.90431" lon="5.96735">
        <ele>351</ele>
        <time>2021-09-11T11:29:25.845Z</time>
      </trkpt>
      <trkpt lat="45.90432" lon="5.96729">
        <ele>351</ele>
        <time>2021-09-11T11:29:26.845Z</time>
      </trkpt>
      <trkpt lat="45.90434" lon="5.96722">
        <ele>351</ele>
        <time>2021-09-11T11:29:27.846Z</time>
      </trkpt>
      <trkpt lat="45.90435" lon="5.96716">
        <ele>351</ele>
        <time>2021-09-11T11:29:28.845Z</time>
      </trkpt>
      <trkpt lat="45.90436" lon="5.9671">
        <ele>351</ele>
        <time>2021-09-11T11:29:29.845Z</time>
      </trkpt>
      <trkpt lat="45.90436" lon="5.96703">
        <ele>351</ele>
        <time>2021-09-11T11:29:30.846Z</time>
      </trkpt>
      <trkpt lat="45.90437" lon="5.96697">
        <ele>352</ele>
        <time>2021-09-11T11:29:31.846Z</time>
      </trkpt>
      <trkpt lat="45.90438" lon="5.96691">
        <ele>352</ele>
        <time>2021-09-11T11:29:32.846Z</time>
      </trkpt>
      <trkpt lat="45.90439" lon="5.96684">
        <ele>352</ele>
        <time>2021-09-11T11:29:33.846Z</time>
      </trkpt>
      <trkpt lat="45.9044" lon="5.96677">
        <ele>353</ele>
        <time>2021-09-11T11:29:34.846Z</time>
      </trkpt>
      <trkpt lat="45.90441" lon="5.96671">
        <ele>353</ele>
        <time>2021-09-11T11:29:35.846Z</time>
      </trkpt>
      <trkpt lat="45.90442" lon="5.96664">
        <ele>353</ele>
        <time>2021-09-11T11:29:36.846Z</time>
      </trkpt>
      <trkpt lat="45.90443" lon="5.96657">
        <ele>352</ele>
        <time>2021-09-11T11:29:37.845Z</time>
      </trkpt>
      <trkpt lat="45.90444" lon="5.9665">
        <ele>352</ele>
        <time>2021-09-11T11:29:38.846Z</time>
      </trkpt>
      <trkpt lat="45.90445" lon="5.96642">
        <ele>352</ele>
        <time>2021-09-11T11:29:39.845Z</time>
      </trkpt>
      <trkpt lat="45.90447" lon="5.96635">
        <ele>352</ele>
        <time>2021-09-11T11:29:40.846Z</time>
      </trkpt>
      <trkpt lat="45.90448" lon="5.96628">
        <ele>352</ele>
        <time>2021-09-11T11:29:41.845Z</time>
      </trkpt>
      <trkpt lat="45.90449" lon="5.96621">
        <ele>352</ele>
        <time>2021-09-11T11:29:42.846Z</time>
      </trkpt>
      <trkpt lat="45.90451" lon="5.96614">
        <ele>352</ele>
        <time>2021-09-11T11:29:43.846Z</time>
      </trkpt>
      <trkpt lat="45.90452" lon="5.96606">
        <ele>351</ele>
        <time>2021-09-11T11:29:44.845Z</time>
      </trkpt>
      <trkpt lat="45.90454" lon="5.96599">
        <ele>351</ele>
        <time>2021-09-11T11:29:45.846Z</time>
      </trkpt>
      <trkpt lat="45.90455" lon="5.96592">
        <ele>351</ele>
        <time>2021-09-11T11:29:46.845Z</time>
      </trkpt>
      <trkpt lat="45.90457" lon="5.96585">
        <ele>351</ele>
        <time>2021-09-11T11:29:47.846Z</time>
      </trkpt>
      <trkpt lat="45.90459" lon="5.96578">
        <ele>350</ele>
        <time>2021-09-11T11:29:48.846Z</time>
      </trkpt>
      <trkpt lat="45.90461" lon="5.96571">
        <ele>350</ele>
        <time>2021-09-11T11:29:49.845Z</time>
      </trkpt>
      <trkpt lat="45.90463" lon="5.96564">
        <ele>350</ele>
        <time>2021-09-11T11:29:50.845Z</time>
      </trkpt>
      <trkpt lat="45.90465" lon="5.96558">
        <ele>350</ele>
        <time>2021-09-11T11:29:51.846Z</time>
      </trkpt>
      <trkpt lat="45.90468" lon="5.96552">
        <ele>350</ele>
        <time>2021-09-11T11:29:52.845Z</time>
      </trkpt>
      <trkpt lat="45.90471" lon="5.96546">
        <ele>349</ele>
        <time>2021-09-11T11:29:53.845Z</time>
      </trkpt>
      <trkpt lat="45.90474" lon="5.9654">
        <ele>349</ele>
        <time>2021-09-11T11:29:54.845Z</time>
      </trkpt>
      <trkpt lat="45.90477" lon="5.96532">
        <ele>349</ele>
        <time>2021-09-11T11:29:55.846Z</time>
      </trkpt>
      <trkpt lat="45.9048" lon="5.96527">
        <ele>349</ele>
        <time>2021-09-11T11:29:56.846Z</time>
      </trkpt>
      <trkpt lat="45.90483" lon="5.96521">
        <ele>348</ele>
        <time>2021-09-11T11:29:57.845Z</time>
      </trkpt>
      <trkpt lat="45.90485" lon="5.96515">
        <ele>348</ele>
        <time>2021-09-11T11:29:58.845Z</time>
      </trkpt>
      <trkpt lat="45.90489" lon="5.96507">
        <ele>348</ele>
        <time>2021-09-11T11:29:59.845Z</time>
      </trkpt>
      <trkpt lat="45.90491" lon="5.96502">
        <ele>348</ele>
        <time>2021-09-11T11:30:00.846Z</time>
      </trkpt>
      <trkpt lat="45.90494" lon="5.96495">
        <ele>348</ele>
        <time>2021-09-11T11:30:01.846Z</time>
      </trkpt>
      <trkpt lat="45.90497" lon="5.96488">
        <ele>348</ele>
        <time>2021-09-11T11:30:02.845Z</time>
      </trkpt>
      <trkpt lat="45.90499" lon="5.96481">
        <ele>348</ele>
        <time>2021-09-11T11:30:03.846Z</time>
      </trkpt>
      <trkpt lat="45.90502" lon="5.96473">
        <ele>348</ele>
        <time>2021-09-11T11:30:04.846Z</time>
      </trkpt>
      <trkpt lat="45.90504" lon="5.96468">
        <ele>348</ele>
        <time>2021-09-11T11:30:05.845Z</time>
      </trkpt>
      <trkpt lat="45.90507" lon="5.96461">
        <ele>348</ele>
        <time>2021-09-11T11:30:06.846Z</time>
      </trkpt>
      <trkpt lat="45.9051" lon="5.96454">
        <ele>348</ele>
        <time>2021-09-11T11:30:07.845Z</time>
      </trkpt>
      <trkpt lat="45.90512" lon="5.96447">
        <ele>348</ele>
        <time>2021-09-11T11:30:08.845Z</time>
      </trkpt>
      <trkpt lat="45.90515" lon="5.9644">
        <ele>348</ele>
        <time>2021-09-11T11:30:09.846Z</time>
      </trkpt>
      <trkpt lat="45.90517" lon="5.96433">
        <ele>348</ele>
        <time>2021-09-11T11:30:10.846Z</time>
      </trkpt>
      <trkpt lat="45.9052" lon="5.96426">
        <ele>348</ele>
        <time>2021-09-11T11:30:11.846Z</time>
      </trkpt>
      <trkpt lat="45.90523" lon="5.96419">
        <ele>347</ele>
        <time>2021-09-11T11:30:12.845Z</time>
      </trkpt>
      <trkpt lat="45.90526" lon="5.96412">
        <ele>347</ele>
        <time>2021-09-11T11:30:13.845Z</time>
      </trkpt>
      <trkpt lat="45.90529" lon="5.96406">
        <ele>348</ele>
        <time>2021-09-11T11:30:14.845Z</time>
      </trkpt>
      <trkpt lat="45.90533" lon="5.96399">
        <ele>347</ele>
        <time>2021-09-11T11:30:15.845Z</time>
      </trkpt>
      <trkpt lat="45.90536" lon="5.96392">
        <ele>347</ele>
        <time>2021-09-11T11:30:16.846Z</time>
      </trkpt>
      <trkpt lat="45.90539" lon="5.96386">
        <ele>347</ele>
        <time>2021-09-11T11:30:17.845Z</time>
      </trkpt>
      <trkpt lat="45.90542" lon="5.96379">
        <ele>347</ele>
        <time>2021-09-11T11:30:18.845Z</time>
      </trkpt>
      <trkpt lat="45.90546" lon="5.96373">
        <ele>347</ele>
        <time>2021-09-11T11:30:19.846Z</time>
      </trkpt>
      <trkpt lat="45.90549" lon="5.96366">
        <ele>347</ele>
        <time>2021-09-11T11:30:20.846Z</time>
      </trkpt>
      <trkpt lat="45.90552" lon="5.96359">
        <ele>347</ele>
        <time>2021-09-11T11:30:21.845Z</time>
      </trkpt>
      <trkpt lat="45.90555" lon="5.96353">
        <ele>348</ele>
        <time>2021-09-11T11:30:22.845Z</time>
      </trkpt>
      <trkpt lat="45.90558" lon="5.96346">
        <ele>348</ele>
        <time>2021-09-11T11:30:23.846Z</time>
      </trkpt>
      <trkpt lat="45.90561" lon="5.96339">
        <ele>349</ele>
        <time>2021-09-11T11:30:24.845Z</time>
      </trkpt>
      <trkpt lat="45.90564" lon="5.9633">
        <ele>349</ele>
        <time>2021-09-11T11:30:25.846Z</time>
      </trkpt>
      <trkpt lat="45.90566" lon="5.96324">
        <ele>349</ele>
        <time>2021-09-11T11:30:26.846Z</time>
      </trkpt>
      <trkpt lat="45.90568" lon="5.96317">
        <ele>349</ele>
        <time>2021-09-11T11:30:27.845Z</time>
      </trkpt>
      <trkpt lat="45.90571" lon="5.9631">
        <ele>349</ele>
        <time>2021-09-11T11:30:28.846Z</time>
      </trkpt>
      <trkpt lat="45.90573" lon="5.96302">
        <ele>349</ele>
        <time>2021-09-11T11:30:29.845Z</time>
      </trkpt>
      <trkpt lat="45.90576" lon="5.96293">
        <ele>348</ele>
        <time>2021-09-11T11:30:30.846Z</time>
      </trkpt>
      <trkpt lat="45.90579" lon="5.96286">
        <ele>348</ele>
        <time>2021-09-11T11:30:31.845Z</time>
      </trkpt>
      <trkpt lat="45.90581" lon="5.96279">
        <ele>348</ele>
        <time>2021-09-11T11:30:32.845Z</time>
      </trkpt>
      <trkpt lat="45.90584" lon="5.96271">
        <ele>348</ele>
        <time>2021-09-11T11:30:33.845Z</time>
      </trkpt>
      <trkpt lat="45.90586" lon="5.96265">
        <ele>348</ele>
        <time>2021-09-11T11:30:34.845Z</time>
      </trkpt>
      <trkpt lat="45.90588" lon="5.96257">
        <ele>348</ele>
        <time>2021-09-11T11:30:35.846Z</time>
      </trkpt>
      <trkpt lat="45.9059" lon="5.96249">
        <ele>347</ele>
        <time>2021-09-11T11:30:36.845Z</time>
      </trkpt>
      <trkpt lat="45.90592" lon="5.96242">
        <ele>348</ele>
        <time>2021-09-11T11:30:37.845Z</time>
      </trkpt>
      <trkpt lat="45.90594" lon="5.96234">
        <ele>348</ele>
        <time>2021-09-11T11:30:38.845Z</time>
      </trkpt>
      <trkpt lat="45.90596" lon="5.96227">
        <ele>348</ele>
        <time>2021-09-11T11:30:39.845Z</time>
      </trkpt>
      <trkpt lat="45.90599" lon="5.96218">
        <ele>348</ele>
        <time>2021-09-11T11:30:40.845Z</time>
      </trkpt>
      <trkpt lat="45.90601" lon="5.96212">
        <ele>348</ele>
        <time>2021-09-11T11:30:41.845Z</time>
      </trkpt>
      <trkpt lat="45.90603" lon="5.96205">
        <ele>349</ele>
        <time>2021-09-11T11:30:42.845Z</time>
      </trkpt>
      <trkpt lat="45.90605" lon="5.96198">
        <ele>349</ele>
        <time>2021-09-11T11:30:43.846Z</time>
      </trkpt>
      <trkpt lat="45.90607" lon="5.96192">
        <ele>349</ele>
        <time>2021-09-11T11:30:44.845Z</time>
      </trkpt>
      <trkpt lat="45.90609" lon="5.96185">
        <ele>350</ele>
        <time>2021-09-11T11:30:45.845Z</time>
      </trkpt>
      <trkpt lat="45.90611" lon="5.96178">
        <ele>350</ele>
        <time>2021-09-11T11:30:46.845Z</time>
      </trkpt>
      <trkpt lat="45.90613" lon="5.96171">
        <ele>350</ele>
        <time>2021-09-11T11:30:47.845Z</time>
      </trkpt>
      <trkpt lat="45.90615" lon="5.96164">
        <ele>350</ele>
        <time>2021-09-11T11:30:48.845Z</time>
      </trkpt>
      <trkpt lat="45.90618" lon="5.96155">
        <ele>350</ele>
        <time>2021-09-11T11:30:49.845Z</time>
      </trkpt>
      <trkpt lat="45.90619" lon="5.96149">
        <ele>350</ele>
        <time>2021-09-11T11:30:50.845Z</time>
      </trkpt>
      <trkpt lat="45.90622" lon="5.9614">
        <ele>350</ele>
        <time>2021-09-11T11:30:51.845Z</time>
      </trkpt>
      <trkpt lat="45.90623" lon="5.96135">
        <ele>350</ele>
        <time>2021-09-11T11:30:52.845Z</time>
      </trkpt>
      <trkpt lat="45.90625" lon="5.96127">
        <ele>350</ele>
        <time>2021-09-11T11:30:53.846Z</time>
      </trkpt>
      <trkpt lat="45.90627" lon="5.9612">
        <ele>350</ele>
        <time>2021-09-11T11:30:54.846Z</time>
      </trkpt>
      <trkpt lat="45.90629" lon="5.96112">
        <ele>351</ele>
        <time>2021-09-11T11:30:55.845Z</time>
      </trkpt>
      <trkpt lat="45.9063" lon="5.96105">
        <ele>351</ele>
        <time>2021-09-11T11:30:56.845Z</time>
      </trkpt>
      <trkpt lat="45.90632" lon="5.96097">
        <ele>351</ele>
        <time>2021-09-11T11:30:57.846Z</time>
      </trkpt>
      <trkpt lat="45.90634" lon="5.9609">
        <ele>350</ele>
        <time>2021-09-11T11:30:58.846Z</time>
      </trkpt>
      <trkpt lat="45.90636" lon="5.96082">
        <ele>350</ele>
        <time>2021-09-11T11:30:59.846Z</time>
      </trkpt>
      <trkpt lat="45.90638" lon="5.96074">
        <ele>350</ele>
        <time>2021-09-11T11:31:00.845Z</time>
      </trkpt>
      <trkpt lat="45.90639" lon="5.96067">
        <ele>350</ele>
        <time>2021-09-11T11:31:01.846Z</time>
      </trkpt>
      <trkpt lat="45.90641" lon="5.96057">
        <ele>350</ele>
        <time>2021-09-11T11:31:02.846Z</time>
      </trkpt>
      <trkpt lat="45.90642" lon="5.96051">
        <ele>350</ele>
        <time>2021-09-11T11:31:03.845Z</time>
      </trkpt>
      <trkpt lat="45.90644" lon="5.96043">
        <ele>350</ele>
        <time>2021-09-11T11:31:04.846Z</time>
      </trkpt>
      <trkpt lat="45.90647" lon="5.96034">
        <ele>350</ele>
        <time>2021-09-11T11:31:05.846Z</time>
      </trkpt>
      <trkpt lat="45.90648" lon="5.96027">
        <ele>350</ele>
        <time>2021-09-11T11:31:06.845Z</time>
      </trkpt>
      <trkpt lat="45.9065" lon="5.96018">
        <ele>350</ele>
        <time>2021-09-11T11:31:07.846Z</time>
      </trkpt>
      <trkpt lat="45.90653" lon="5.9601">
        <ele>350</ele>
        <time>2021-09-11T11:31:08.846Z</time>
      </trkpt>
      <trkpt lat="45.90655" lon="5.96">
        <ele>349</ele>
        <time>2021-09-11T11:31:09.846Z</time>
      </trkpt>
      <trkpt lat="45.90658" lon="5.95989">
        <ele>349</ele>
        <time>2021-09-11T11:31:10.845Z</time>
      </trkpt>
      <trkpt lat="45.9066" lon="5.95979">
        <ele>348</ele>
        <time>2021-09-11T11:31:11.845Z</time>
      </trkpt>
      <trkpt lat="45.90662" lon="5.95971">
        <ele>348</ele>
        <time>2021-09-11T11:31:12.846Z</time>
      </trkpt>
      <trkpt lat="45.90665" lon="5.95958">
        <ele>348</ele>
        <time>2021-09-11T11:31:13.846Z</time>
      </trkpt>
      <trkpt lat="45.90668" lon="5.95947">
        <ele>348</ele>
        <time>2021-09-11T11:31:14.845Z</time>
      </trkpt>
      <trkpt lat="45.9067" lon="5.95938">
        <ele>348</ele>
        <time>2021-09-11T11:31:15.846Z</time>
      </trkpt>
      <trkpt lat="45.90673" lon="5.95927">
        <ele>348</ele>
        <time>2021-09-11T11:31:16.846Z</time>
      </trkpt>
      <trkpt lat="45.90675" lon="5.95916">
        <ele>348</ele>
        <time>2021-09-11T11:31:17.846Z</time>
      </trkpt>
      <trkpt lat="45.90677" lon="5.95906">
        <ele>348</ele>
        <time>2021-09-11T11:31:18.846Z</time>
      </trkpt>
      <trkpt lat="45.90678" lon="5.95895">
        <ele>347</ele>
        <time>2021-09-11T11:31:19.846Z</time>
      </trkpt>
      <trkpt lat="45.90678" lon="5.95885">
        <ele>347</ele>
        <time>2021-09-11T11:31:20.845Z</time>
      </trkpt>
      <trkpt lat="45.90677" lon="5.95878">
        <ele>347</ele>
        <time>2021-09-11T11:31:21.845Z</time>
      </trkpt>
      <trkpt lat="45.90675" lon="5.95869">
        <ele>347</ele>
        <time>2021-09-11T11:31:22.845Z</time>
      </trkpt>
      <trkpt lat="45.90672" lon="5.95862">
        <ele>347</ele>
        <time>2021-09-11T11:31:23.846Z</time>
      </trkpt>
      <trkpt lat="45.90669" lon="5.95855">
        <ele>347</ele>
        <time>2021-09-11T11:31:24.846Z</time>
      </trkpt>
      <trkpt lat="45.90666" lon="5.9585">
        <ele>346</ele>
        <time>2021-09-11T11:31:25.845Z</time>
      </trkpt>
      <trkpt lat="45.90663" lon="5.95845">
        <ele>346</ele>
        <time>2021-09-11T11:31:26.845Z</time>
      </trkpt>
      <trkpt lat="45.9066" lon="5.95841">
        <ele>347</ele>
        <time>2021-09-11T11:31:27.845Z</time>
      </trkpt>
      <trkpt lat="45.90657" lon="5.95838">
        <ele>347</ele>
        <time>2021-09-11T11:31:28.846Z</time>
      </trkpt>
      <trkpt lat="45.90654" lon="5.95834">
        <ele>347</ele>
        <time>2021-09-11T11:31:29.846Z</time>
      </trkpt>
      <trkpt lat="45.90652" lon="5.95831">
        <ele>347</ele>
        <time>2021-09-11T11:31:30.845Z</time>
      </trkpt>
      <trkpt lat="45.9065" lon="5.95828">
        <ele>347</ele>
        <time>2021-09-11T11:31:31.845Z</time>
      </trkpt>
      <trkpt lat="45.90647" lon="5.95825">
        <ele>347</ele>
        <time>2021-09-11T11:31:32.846Z</time>
      </trkpt>
      <trkpt lat="45.90645" lon="5.95822">
        <ele>347</ele>
        <time>2021-09-11T11:31:33.845Z</time>
      </trkpt>
      <trkpt lat="45.90643" lon="5.9582">
        <ele>347</ele>
        <time>2021-09-11T11:31:34.846Z</time>
      </trkpt>
      <trkpt lat="45.90641" lon="5.95817">
        <ele>347</ele>
        <time>2021-09-11T11:31:35.845Z</time>
      </trkpt>
      <trkpt lat="45.90639" lon="5.95815">
        <ele>348</ele>
        <time>2021-09-11T11:31:36.845Z</time>
      </trkpt>
      <trkpt lat="45.90636" lon="5.95813">
        <ele>349</ele>
        <time>2021-09-11T11:31:37.845Z</time>
      </trkpt>
      <trkpt lat="45.90634" lon="5.95811">
        <ele>350</ele>
        <time>2021-09-11T11:31:38.846Z</time>
      </trkpt>
      <trkpt lat="45.90632" lon="5.95808">
        <ele>351</ele>
        <time>2021-09-11T11:31:39.845Z</time>
      </trkpt>
      <trkpt lat="45.9063" lon="5.95806">
        <ele>352</ele>
        <time>2021-09-11T11:31:40.845Z</time>
      </trkpt>
      <trkpt lat="45.90628" lon="5.95804">
        <ele>352</ele>
        <time>2021-09-11T11:31:41.845Z</time>
      </trkpt>
      <trkpt lat="45.90626" lon="5.95802">
        <ele>353</ele>
        <time>2021-09-11T11:31:42.846Z</time>
      </trkpt>
      <trkpt lat="45.90624" lon="5.958">
        <ele>353</ele>
        <time>2021-09-11T11:31:43.845Z</time>
      </trkpt>
      <trkpt lat="45.90622" lon="5.95797">
        <ele>354</ele>
        <time>2021-09-11T11:31:44.846Z</time>
      </trkpt>
      <trkpt lat="45.90621" lon="5.95795">
        <ele>353</ele>
        <time>2021-09-11T11:31:45.845Z</time>
      </trkpt>
      <trkpt lat="45.90619" lon="5.95793">
        <ele>353</ele>
        <time>2021-09-11T11:31:46.845Z</time>
      </trkpt>
      <trkpt lat="45.90617" lon="5.9579">
        <ele>353</ele>
        <time>2021-09-11T11:31:47.845Z</time>
      </trkpt>
      <trkpt lat="45.90615" lon="5.95789">
        <ele>353</ele>
        <time>2021-09-11T11:31:48.845Z</time>
      </trkpt>
      <trkpt lat="45.90613" lon="5.95787">
        <ele>353</ele>
        <time>2021-09-11T11:31:49.845Z</time>
      </trkpt>
      <trkpt lat="45.90612" lon="5.95784">
        <ele>353</ele>
        <time>2021-09-11T11:31:50.846Z</time>
      </trkpt>
      <trkpt lat="45.9061" lon="5.95781">
        <ele>353</ele>
        <time>2021-09-11T11:31:51.845Z</time>
      </trkpt>
      <trkpt lat="45.90608" lon="5.95779">
        <ele>353</ele>
        <time>2021-09-11T11:31:52.846Z</time>
      </trkpt>
      <trkpt lat="45.90607" lon="5.95777">
        <ele>353</ele>
        <time>2021-09-11T11:31:53.845Z</time>
      </trkpt>
      <trkpt lat="45.90605" lon="5.95775">
        <ele>353</ele>
        <time>2021-09-11T11:31:54.846Z</time>
      </trkpt>
      <trkpt lat="45.90603" lon="5.95772">
        <ele>354</ele>
        <time>2021-09-11T11:31:55.845Z</time>
      </trkpt>
      <trkpt lat="45.90601" lon="5.95769">
        <ele>354</ele>
        <time>2021-09-11T11:31:56.845Z</time>
      </trkpt>
      <trkpt lat="45.906" lon="5.95767">
        <ele>354</ele>
        <time>2021-09-11T11:31:57.845Z</time>
      </trkpt>
      <trkpt lat="45.90598" lon="5.95765">
        <ele>354</ele>
        <time>2021-09-11T11:31:58.845Z</time>
      </trkpt>
      <trkpt lat="45.90596" lon="5.95762">
        <ele>354</ele>
        <time>2021-09-11T11:31:59.845Z</time>
      </trkpt>
      <trkpt lat="45.90595" lon="5.9576">
        <ele>354</ele>
        <time>2021-09-11T11:32:00.845Z</time>
      </trkpt>
      <trkpt lat="45.90593" lon="5.95756">
        <ele>354</ele>
        <time>2021-09-11T11:32:01.845Z</time>
      </trkpt>
      <trkpt lat="45.90592" lon="5.95754">
        <ele>353</ele>
        <time>2021-09-11T11:32:02.846Z</time>
      </trkpt>
      <trkpt lat="45.90591" lon="5.95752">
        <ele>353</ele>
        <time>2021-09-11T11:32:03.846Z</time>
      </trkpt>
      <trkpt lat="45.90589" lon="5.95749">
        <ele>353</ele>
        <time>2021-09-11T11:32:04.846Z</time>
      </trkpt>
      <trkpt lat="45.90588" lon="5.95746">
        <ele>353</ele>
        <time>2021-09-11T11:32:05.846Z</time>
      </trkpt>
      <trkpt lat="45.90586" lon="5.95744">
        <ele>353</ele>
        <time>2021-09-11T11:32:06.845Z</time>
      </trkpt>
      <trkpt lat="45.90585" lon="5.95741">
        <ele>353</ele>
        <time>2021-09-11T11:32:07.846Z</time>
      </trkpt>
      <trkpt lat="45.90584" lon="5.95738">
        <ele>353</ele>
        <time>2021-09-11T11:32:08.846Z</time>
      </trkpt>
      <trkpt lat="45.90583" lon="5.95735">
        <ele>353</ele>
        <time>2021-09-11T11:32:09.846Z</time>
      </trkpt>
      <trkpt lat="45.90583" lon="5.95731">
        <ele>353</ele>
        <time>2021-09-11T11:32:10.846Z</time>
      </trkpt>
      <trkpt lat="45.90583" lon="5.95728">
        <ele>353</ele>
        <time>2021-09-11T11:32:11.846Z</time>
      </trkpt>
      <trkpt lat="45.90582" lon="5.95725">
        <ele>354</ele>
        <time>2021-09-11T11:32:12.846Z</time>
      </trkpt>
      <trkpt lat="45.90583" lon="5.95722">
        <ele>354</ele>
        <time>2021-09-11T11:32:13.846Z</time>
      </trkpt>
      <trkpt lat="45.90583" lon="5.95719">
        <ele>355</ele>
        <time>2021-09-11T11:32:14.846Z</time>
      </trkpt>
      <trkpt lat="45.90584" lon="5.95717">
        <ele>355</ele>
        <time>2021-09-11T11:32:15.846Z</time>
      </trkpt>
      <trkpt lat="45.90585" lon="5.95714">
        <ele>355</ele>
        <time>2021-09-11T11:32:16.846Z</time>
      </trkpt>
      <trkpt lat="45.90587" lon="5.95712">
        <ele>355</ele>
        <time>2021-09-11T11:32:17.846Z</time>
      </trkpt>
      <trkpt lat="45.90588" lon="5.9571">
        <ele>355</ele>
        <time>2021-09-11T11:32:18.846Z</time>
      </trkpt>
      <trkpt lat="45.9059" lon="5.95708">
        <ele>355</ele>
        <time>2021-09-11T11:32:19.845Z</time>
      </trkpt>
      <trkpt lat="45.90592" lon="5.95707">
        <ele>355</ele>
        <time>2021-09-11T11:32:20.845Z</time>
      </trkpt>
      <trkpt lat="45.90594" lon="5.95707">
        <ele>355</ele>
        <time>2021-09-11T11:32:21.845Z</time>
      </trkpt>
      <trkpt lat="45.90597" lon="5.95707">
        <ele>355</ele>
        <time>2021-09-11T11:32:22.846Z</time>
      </trkpt>
      <trkpt lat="45.90599" lon="5.95707">
        <ele>356</ele>
        <time>2021-09-11T11:32:23.846Z</time>
      </trkpt>
      <trkpt lat="45.90601" lon="5.95708">
        <ele>356</ele>
        <time>2021-09-11T11:32:24.846Z</time>
      </trkpt>
      <trkpt lat="45.90603" lon="5.95709">
        <ele>356</ele>
        <time>2021-09-11T11:32:25.846Z</time>
      </trkpt>
      <trkpt lat="45.90606" lon="5.9571">
        <ele>356</ele>
        <time>2021-09-11T11:32:26.846Z</time>
      </trkpt>
      <trkpt lat="45.90607" lon="5.95712">
        <ele>356</ele>
        <time>2021-09-11T11:32:27.846Z</time>
      </trkpt>
      <trkpt lat="45.9061" lon="5.95714">
        <ele>356</ele>
        <time>2021-09-11T11:32:28.846Z</time>
      </trkpt>
      <trkpt lat="45.90611" lon="5.95715">
        <ele>356</ele>
        <time>2021-09-11T11:32:29.846Z</time>
      </trkpt>
      <trkpt lat="45.90612" lon="5.95718">
        <ele>356</ele>
        <time>2021-09-11T11:32:30.846Z</time>
      </trkpt>
      <trkpt lat="45.90614" lon="5.95721">
        <ele>357</ele>
        <time>2021-09-11T11:32:31.846Z</time>
      </trkpt>
      <trkpt lat="45.90615" lon="5.95722">
        <ele>357</ele>
        <time>2021-09-11T11:32:32.846Z</time>
      </trkpt>
      <trkpt lat="45.90616" lon="5.95724">
        <ele>357</ele>
        <time>2021-09-11T11:32:33.845Z</time>
      </trkpt>
      <trkpt lat="45.90617" lon="5.95726">
        <ele>358</ele>
        <time>2021-09-11T11:32:34.845Z</time>
      </trkpt>
      <trkpt lat="45.90619" lon="5.95729">
        <ele>358</ele>
        <time>2021-09-11T11:32:35.845Z</time>
      </trkpt>
      <trkpt lat="45.9062" lon="5.95731">
        <ele>358</ele>
        <time>2021-09-11T11:32:36.845Z</time>
      </trkpt>
      <trkpt lat="45.90621" lon="5.95733">
        <ele>359</ele>
        <time>2021-09-11T11:32:37.846Z</time>
      </trkpt>
      <trkpt lat="45.90622" lon="5.95734">
        <ele>359</ele>
        <time>2021-09-11T11:32:38.846Z</time>
      </trkpt>
      <trkpt lat="45.90624" lon="5.95736">
        <ele>360</ele>
        <time>2021-09-11T11:32:39.845Z</time>
      </trkpt>
      <trkpt lat="45.90625" lon="5.95739">
        <ele>360</ele>
        <time>2021-09-11T11:32:40.846Z</time>
      </trkpt>
      <trkpt lat="45.90626" lon="5.95741">
        <ele>361</ele>
        <time>2021-09-11T11:32:41.846Z</time>
      </trkpt>
      <trkpt lat="45.90627" lon="5.95744">
        <ele>361</ele>
        <time>2021-09-11T11:32:42.846Z</time>
      </trkpt>
      <trkpt lat="45.90629" lon="5.95746">
        <ele>362</ele>
        <time>2021-09-11T11:32:43.846Z</time>
      </trkpt>
      <trkpt lat="45.9063" lon="5.95748">
        <ele>362</ele>
        <time>2021-09-11T11:32:44.846Z</time>
      </trkpt>
      <trkpt lat="45.90631" lon="5.9575">
        <ele>362</ele>
        <time>2021-09-11T11:32:45.846Z</time>
      </trkpt>
      <trkpt lat="45.90633" lon="5.95752">
        <ele>363</ele>
        <time>2021-09-11T11:32:46.846Z</time>
      </trkpt>
      <trkpt lat="45.90634" lon="5.95754">
        <ele>363</ele>
        <time>2021-09-11T11:32:47.846Z</time>
      </trkpt>
      <trkpt lat="45.90635" lon="5.95756">
        <ele>363</ele>
        <time>2021-09-11T11:32:48.845Z</time>
      </trkpt>
      <trkpt lat="45.90637" lon="5.95758">
        <ele>363</ele>
        <time>2021-09-11T11:32:49.846Z</time>
      </trkpt>
      <trkpt lat="45.90638" lon="5.9576">
        <ele>364</ele>
        <time>2021-09-11T11:32:50.846Z</time>
      </trkpt>
      <trkpt lat="45.90639" lon="5.95762">
        <ele>364</ele>
        <time>2021-09-11T11:32:51.845Z</time>
      </trkpt>
      <trkpt lat="45.9064" lon="5.95764">
        <ele>365</ele>
        <time>2021-09-11T11:32:52.846Z</time>
      </trkpt>
      <trkpt lat="45.90642" lon="5.95765">
        <ele>366</ele>
        <time>2021-09-11T11:32:53.845Z</time>
      </trkpt>
      <trkpt lat="45.90644" lon="5.95767">
        <ele>367</ele>
        <time>2021-09-11T11:32:54.846Z</time>
      </trkpt>
      <trkpt lat="45.90645" lon="5.95769">
        <ele>367</ele>
        <time>2021-09-11T11:32:55.846Z</time>
      </trkpt>
      <trkpt lat="45.90646" lon="5.95771">
        <ele>368</ele>
        <time>2021-09-11T11:32:56.845Z</time>
      </trkpt>
      <trkpt lat="45.90647" lon="5.95772">
        <ele>368</ele>
        <time>2021-09-11T11:32:57.846Z</time>
      </trkpt>
      <trkpt lat="45.90648" lon="5.95774">
        <ele>368</ele>
        <time>2021-09-11T11:32:58.846Z</time>
      </trkpt>
      <trkpt lat="45.9065" lon="5.95776">
        <ele>368</ele>
        <time>2021-09-11T11:32:59.845Z</time>
      </trkpt>
      <trkpt lat="45.90651" lon="5.95777">
        <ele>369</ele>
        <time>2021-09-11T11:33:00.846Z</time>
      </trkpt>
      <trkpt lat="45.90652" lon="5.95779">
        <ele>369</ele>
        <time>2021-09-11T11:33:01.846Z</time>
      </trkpt>
      <trkpt lat="45.90654" lon="5.9578">
        <ele>369</ele>
        <time>2021-09-11T11:33:02.846Z</time>
      </trkpt>
      <trkpt lat="45.90655" lon="5.95782">
        <ele>369</ele>
        <time>2021-09-11T11:33:03.846Z</time>
      </trkpt>
      <trkpt lat="45.90657" lon="5.95783">
        <ele>369</ele>
        <time>2021-09-11T11:33:04.845Z</time>
      </trkpt>
      <trkpt lat="45.90658" lon="5.95784">
        <ele>369</ele>
        <time>2021-09-11T11:33:05.846Z</time>
      </trkpt>
      <trkpt lat="45.9066" lon="5.95785">
        <ele>369</ele>
        <time>2021-09-11T11:33:06.845Z</time>
      </trkpt>
      <trkpt lat="45.90661" lon="5.95787">
        <ele>369</ele>
        <time>2021-09-11T11:33:07.845Z</time>
      </trkpt>
      <trkpt lat="45.90663" lon="5.95787">
        <ele>369</ele>
        <time>2021-09-11T11:33:08.845Z</time>
      </trkpt>
      <trkpt lat="45.90665" lon="5.95788">
        <ele>369</ele>
        <time>2021-09-11T11:33:09.845Z</time>
      </trkpt>
      <trkpt lat="45.90666" lon="5.9579">
        <ele>369</ele>
        <time>2021-09-11T11:33:10.846Z</time>
      </trkpt>
      <trkpt lat="45.90668" lon="5.95792">
        <ele>368</ele>
        <time>2021-09-11T11:33:11.846Z</time>
      </trkpt>
      <trkpt lat="45.90669" lon="5.95793">
        <ele>368</ele>
        <time>2021-09-11T11:33:12.845Z</time>
      </trkpt>
      <trkpt lat="45.90671" lon="5.95794">
        <ele>368</ele>
        <time>2021-09-11T11:33:13.846Z</time>
      </trkpt>
      <trkpt lat="45.90672" lon="5.95796">
        <ele>368</ele>
        <time>2021-09-11T11:33:14.846Z</time>
      </trkpt>
      <trkpt lat="45.90674" lon="5.95797">
        <ele>368</ele>
        <time>2021-09-11T11:33:15.846Z</time>
      </trkpt>
      <trkpt lat="45.90675" lon="5.95798">
        <ele>368</ele>
        <time>2021-09-11T11:33:16.846Z</time>
      </trkpt>
      <trkpt lat="45.90676" lon="5.95799">
        <ele>368</ele>
        <time>2021-09-11T11:33:17.846Z</time>
      </trkpt>
      <trkpt lat="45.90678" lon="5.958">
        <ele>368</ele>
        <time>2021-09-11T11:33:18.845Z</time>
      </trkpt>
      <trkpt lat="45.90679" lon="5.95801">
        <ele>368</ele>
        <time>2021-09-11T11:33:19.845Z</time>
      </trkpt>
      <trkpt lat="45.90681" lon="5.95802">
        <ele>369</ele>
        <time>2021-09-11T11:33:20.846Z</time>
      </trkpt>
      <trkpt lat="45.90682" lon="5.95803">
        <ele>369</ele>
        <time>2021-09-11T11:33:21.846Z</time>
      </trkpt>
      <trkpt lat="45.90684" lon="5.95805">
        <ele>369</ele>
        <time>2021-09-11T11:33:22.846Z</time>
      </trkpt>
      <trkpt lat="45.90685" lon="5.95806">
        <ele>370</ele>
        <time>2021-09-11T11:33:23.846Z</time>
      </trkpt>
      <trkpt lat="45.90686" lon="5.95807">
        <ele>370</ele>
        <time>2021-09-11T11:33:24.846Z</time>
      </trkpt>
      <trkpt lat="45.90688" lon="5.95807">
        <ele>371</ele>
        <time>2021-09-11T11:33:25.845Z</time>
      </trkpt>
      <trkpt lat="45.90689" lon="5.95807">
        <ele>372</ele>
        <time>2021-09-11T11:33:26.846Z</time>
      </trkpt>
      <trkpt lat="45.90691" lon="5.95808">
        <ele>372</ele>
        <time>2021-09-11T11:33:27.846Z</time>
      </trkpt>
      <trkpt lat="45.90693" lon="5.95808">
        <ele>372</ele>
        <time>2021-09-11T11:33:28.846Z</time>
      </trkpt>
      <trkpt lat="45.90695" lon="5.95808">
        <ele>372</ele>
        <time>2021-09-11T11:33:29.846Z</time>
      </trkpt>
      <trkpt lat="45.90697" lon="5.95808">
        <ele>372</ele>
        <time>2021-09-11T11:33:30.845Z</time>
      </trkpt>
      <trkpt lat="45.90699" lon="5.95808">
        <ele>372</ele>
        <time>2021-09-11T11:33:31.846Z</time>
      </trkpt>
      <trkpt lat="45.90701" lon="5.95809">
        <ele>372</ele>
        <time>2021-09-11T11:33:32.846Z</time>
      </trkpt>
      <trkpt lat="45.90703" lon="5.95809">
        <ele>372</ele>
        <time>2021-09-11T11:33:33.846Z</time>
      </trkpt>
      <trkpt lat="45.90704" lon="5.95809">
        <ele>372</ele>
        <time>2021-09-11T11:33:34.846Z</time>
      </trkpt>
      <trkpt lat="45.90706" lon="5.95809">
        <ele>372</ele>
        <time>2021-09-11T11:33:35.846Z</time>
      </trkpt>
      <trkpt lat="45.90708" lon="5.95809">
        <ele>372</ele>
        <time>2021-09-11T11:33:36.846Z</time>
      </trkpt>
      <trkpt lat="45.9071" lon="5.95809">
        <ele>373</ele>
        <time>2021-09-11T11:33:37.846Z</time>
      </trkpt>
      <trkpt lat="45.90712" lon="5.95808">
        <ele>373</ele>
        <time>2021-09-11T11:33:38.845Z</time>
      </trkpt>
      <trkpt lat="45.90714" lon="5.95808">
        <ele>373</ele>
        <time>2021-09-11T11:33:39.846Z</time>
      </trkpt>
      <trkpt lat="45.90715" lon="5.95807">
        <ele>374</ele>
        <time>2021-09-11T11:33:40.845Z</time>
      </trkpt>
      <trkpt lat="45.90717" lon="5.95806">
        <ele>375</ele>
        <time>2021-09-11T11:33:41.846Z</time>
      </trkpt>
      <trkpt lat="45.90719" lon="5.95805">
        <ele>375</ele>
        <time>2021-09-11T11:33:42.845Z</time>
      </trkpt>
      <trkpt lat="45.90721" lon="5.95804">
        <ele>376</ele>
        <time>2021-09-11T11:33:43.846Z</time>
      </trkpt>
      <trkpt lat="45.90723" lon="5.95803">
        <ele>376</ele>
        <time>2021-09-11T11:33:44.846Z</time>
      </trkpt>
      <trkpt lat="45.90725" lon="5.95803">
        <ele>377</ele>
        <time>2021-09-11T11:33:45.846Z</time>
      </trkpt>
      <trkpt lat="45.90727" lon="5.95802">
        <ele>378</ele>
        <time>2021-09-11T11:33:46.846Z</time>
      </trkpt>
      <trkpt lat="45.90728" lon="5.95802">
        <ele>378</ele>
        <time>2021-09-11T11:33:47.845Z</time>
      </trkpt>
      <trkpt lat="45.9073" lon="5.95802">
        <ele>378</ele>
        <time>2021-09-11T11:33:48.845Z</time>
      </trkpt>
      <trkpt lat="45.90732" lon="5.95802">
        <ele>379</ele>
        <time>2021-09-11T11:33:49.845Z</time>
      </trkpt>
      <trkpt lat="45.90734" lon="5.95802">
        <ele>379</ele>
        <time>2021-09-11T11:33:50.846Z</time>
      </trkpt>
      <trkpt lat="45.90736" lon="5.95801">
        <ele>379</ele>
        <time>2021-09-11T11:33:51.846Z</time>
      </trkpt>
      <trkpt lat="45.90738" lon="5.95801">
        <ele>379</ele>
        <time>2021-09-11T11:33:52.846Z</time>
      </trkpt>
      <trkpt lat="45.9074" lon="5.95801">
        <ele>380</ele>
        <time>2021-09-11T11:33:53.846Z</time>
      </trkpt>
      <trkpt lat="45.90742" lon="5.958">
        <ele>380</ele>
        <time>2021-09-11T11:33:54.845Z</time>
      </trkpt>
      <trkpt lat="45.90744" lon="5.958">
        <ele>380</ele>
        <time>2021-09-11T11:33:55.845Z</time>
      </trkpt>
      <trkpt lat="45.90746" lon="5.958">
        <ele>380</ele>
        <time>2021-09-11T11:33:56.846Z</time>
      </trkpt>
      <trkpt lat="45.90747" lon="5.958">
        <ele>380</ele>
        <time>2021-09-11T11:33:57.845Z</time>
      </trkpt>
      <trkpt lat="45.90749" lon="5.95801">
        <ele>380</ele>
        <time>2021-09-11T11:33:58.846Z</time>
      </trkpt>
      <trkpt lat="45.90751" lon="5.95801">
        <ele>380</ele>
        <time>2021-09-11T11:33:59.846Z</time>
      </trkpt>
      <trkpt lat="45.90753" lon="5.95802">
        <ele>380</ele>
        <time>2021-09-11T11:34:00.846Z</time>
      </trkpt>
      <trkpt lat="45.90754" lon="5.95802">
        <ele>381</ele>
        <time>2021-09-11T11:34:01.845Z</time>
      </trkpt>
      <trkpt lat="45.90756" lon="5.95802">
        <ele>381</ele>
        <time>2021-09-11T11:34:02.845Z</time>
      </trkpt>
      <trkpt lat="45.90758" lon="5.95802">
        <ele>381</ele>
        <time>2021-09-11T11:34:03.846Z</time>
      </trkpt>
      <trkpt lat="45.9076" lon="5.95802">
        <ele>382</ele>
        <time>2021-09-11T11:34:04.846Z</time>
      </trkpt>
      <trkpt lat="45.90762" lon="5.95802">
        <ele>382</ele>
        <time>2021-09-11T11:34:05.846Z</time>
      </trkpt>
      <trkpt lat="45.90764" lon="5.95802">
        <ele>382</ele>
        <time>2021-09-11T11:34:06.846Z</time>
      </trkpt>
      <trkpt lat="45.90766" lon="5.95803">
        <ele>382</ele>
        <time>2021-09-11T11:34:07.845Z</time>
      </trkpt>
      <trkpt lat="45.90768" lon="5.95804">
        <ele>382</ele>
        <time>2021-09-11T11:34:08.845Z</time>
      </trkpt>
      <trkpt lat="45.9077" lon="5.95805">
        <ele>381</ele>
        <time>2021-09-11T11:34:09.846Z</time>
      </trkpt>
      <trkpt lat="45.90772" lon="5.95807">
        <ele>381</ele>
        <time>2021-09-11T11:34:10.846Z</time>
      </trkpt>
      <trkpt lat="45.90774" lon="5.95807">
        <ele>381</ele>
        <time>2021-09-11T11:34:11.846Z</time>
      </trkpt>
      <trkpt lat="45.90775" lon="5.95808">
        <ele>381</ele>
        <time>2021-09-11T11:34:12.846Z</time>
      </trkpt>
      <trkpt lat="45.90777" lon="5.95808">
        <ele>381</ele>
        <time>2021-09-11T11:34:13.846Z</time>
      </trkpt>
      <trkpt lat="45.90778" lon="5.95809">
        <ele>382</ele>
        <time>2021-09-11T11:34:14.845Z</time>
      </trkpt>
      <trkpt lat="45.90781" lon="5.95809">
        <ele>382</ele>
        <time>2021-09-11T11:34:15.846Z</time>
      </trkpt>
      <trkpt lat="45.90782" lon="5.9581">
        <ele>382</ele>
        <time>2021-09-11T11:34:16.845Z</time>
      </trkpt>
      <trkpt lat="45.90785" lon="5.9581">
        <ele>382</ele>
        <time>2021-09-11T11:34:17.846Z</time>
      </trkpt>
      <trkpt lat="45.90786" lon="5.95811">
        <ele>383</ele>
        <time>2021-09-11T11:34:18.846Z</time>
      </trkpt>
      <trkpt lat="45.90788" lon="5.95811">
        <ele>383</ele>
        <time>2021-09-11T11:34:19.846Z</time>
      </trkpt>
      <trkpt lat="45.9079" lon="5.95812">
        <ele>383</ele>
        <time>2021-09-11T11:34:20.845Z</time>
      </trkpt>
      <trkpt lat="45.90792" lon="5.95812">
        <ele>384</ele>
        <time>2021-09-11T11:34:21.846Z</time>
      </trkpt>
      <trkpt lat="45.90794" lon="5.95812">
        <ele>384</ele>
        <time>2021-09-11T11:34:22.846Z</time>
      </trkpt>
      <trkpt lat="45.90796" lon="5.95813">
        <ele>384</ele>
        <time>2021-09-11T11:34:23.846Z</time>
      </trkpt>
      <trkpt lat="45.90798" lon="5.95813">
        <ele>385</ele>
        <time>2021-09-11T11:34:24.846Z</time>
      </trkpt>
      <trkpt lat="45.90799" lon="5.95813">
        <ele>385</ele>
        <time>2021-09-11T11:34:25.845Z</time>
      </trkpt>
      <trkpt lat="45.90801" lon="5.95814">
        <ele>385</ele>
        <time>2021-09-11T11:34:26.846Z</time>
      </trkpt>
      <trkpt lat="45.90803" lon="5.95814">
        <ele>385</ele>
        <time>2021-09-11T11:34:27.846Z</time>
      </trkpt>
      <trkpt lat="45.90805" lon="5.95814">
        <ele>385</ele>
        <time>2021-09-11T11:34:28.846Z</time>
      </trkpt>
      <trkpt lat="45.90807" lon="5.95814">
        <ele>384</ele>
        <time>2021-09-11T11:34:29.846Z</time>
      </trkpt>
      <trkpt lat="45.90809" lon="5.95814">
        <ele>384</ele>
        <time>2021-09-11T11:34:30.845Z</time>
      </trkpt>
      <trkpt lat="45.90811" lon="5.95814">
        <ele>384</ele>
        <time>2021-09-11T11:34:31.846Z</time>
      </trkpt>
      <trkpt lat="45.90813" lon="5.95813">
        <ele>383</ele>
        <time>2021-09-11T11:34:32.846Z</time>
      </trkpt>
      <trkpt lat="45.90815" lon="5.95813">
        <ele>383</ele>
        <time>2021-09-11T11:34:33.846Z</time>
      </trkpt>
      <trkpt lat="45.90817" lon="5.95812">
        <ele>384</ele>
        <time>2021-09-11T11:34:34.846Z</time>
      </trkpt>
      <trkpt lat="45.90819" lon="5.95812">
        <ele>384</ele>
        <time>2021-09-11T11:34:35.846Z</time>
      </trkpt>
      <trkpt lat="45.90821" lon="5.95812">
        <ele>384</ele>
        <time>2021-09-11T11:34:36.845Z</time>
      </trkpt>
      <trkpt lat="45.90823" lon="5.95812">
        <ele>383</ele>
        <time>2021-09-11T11:34:37.846Z</time>
      </trkpt>
      <trkpt lat="45.90825" lon="5.95812">
        <ele>383</ele>
        <time>2021-09-11T11:34:38.846Z</time>
      </trkpt>
      <trkpt lat="45.90828" lon="5.95811">
        <ele>383</ele>
        <time>2021-09-11T11:34:39.845Z</time>
      </trkpt>
      <trkpt lat="45.9083" lon="5.95811">
        <ele>383</ele>
        <time>2021-09-11T11:34:40.846Z</time>
      </trkpt>
      <trkpt lat="45.90832" lon="5.95811">
        <ele>384</ele>
        <time>2021-09-11T11:34:41.846Z</time>
      </trkpt>
      <trkpt lat="45.90834" lon="5.9581">
        <ele>384</ele>
        <time>2021-09-11T11:34:42.845Z</time>
      </trkpt>
      <trkpt lat="45.90837" lon="5.9581">
        <ele>385</ele>
        <time>2021-09-11T11:34:43.845Z</time>
      </trkpt>
      <trkpt lat="45.90839" lon="5.95811">
        <ele>386</ele>
        <time>2021-09-11T11:34:44.845Z</time>
      </trkpt>
      <trkpt lat="45.90842" lon="5.95811">
        <ele>387</ele>
        <time>2021-09-11T11:34:45.846Z</time>
      </trkpt>
      <trkpt lat="45.90844" lon="5.9581">
        <ele>387</ele>
        <time>2021-09-11T11:34:46.846Z</time>
      </trkpt>
      <trkpt lat="45.90846" lon="5.9581">
        <ele>388</ele>
        <time>2021-09-11T11:34:47.845Z</time>
      </trkpt>
      <trkpt lat="45.90848" lon="5.95809">
        <ele>389</ele>
        <time>2021-09-11T11:34:48.846Z</time>
      </trkpt>
      <trkpt lat="45.9085" lon="5.95809">
        <ele>389</ele>
        <time>2021-09-11T11:34:49.846Z</time>
      </trkpt>
      <trkpt lat="45.90852" lon="5.95809">
        <ele>390</ele>
        <time>2021-09-11T11:34:50.846Z</time>
      </trkpt>
      <trkpt lat="45.90853" lon="5.95809">
        <ele>390</ele>
        <time>2021-09-11T11:34:51.846Z</time>
      </trkpt>
      <trkpt lat="45.90855" lon="5.95809">
        <ele>391</ele>
        <time>2021-09-11T11:34:52.846Z</time>
      </trkpt>
      <trkpt lat="45.90857" lon="5.95809">
        <ele>391</ele>
        <time>2021-09-11T11:34:53.846Z</time>
      </trkpt>
      <trkpt lat="45.90859" lon="5.95808">
        <ele>391</ele>
        <time>2021-09-11T11:34:54.845Z</time>
      </trkpt>
      <trkpt lat="45.9086" lon="5.95808">
        <ele>391</ele>
        <time>2021-09-11T11:34:55.846Z</time>
      </trkpt>
      <trkpt lat="45.90862" lon="5.95808">
        <ele>391</ele>
        <time>2021-09-11T11:34:56.845Z</time>
      </trkpt>
      <trkpt lat="45.90864" lon="5.95807">
        <ele>391</ele>
        <time>2021-09-11T11:34:57.846Z</time>
      </trkpt>
      <trkpt lat="45.90866" lon="5.95807">
        <ele>391</ele>
        <time>2021-09-11T11:34:58.846Z</time>
      </trkpt>
      <trkpt lat="45.90868" lon="5.95807">
        <ele>391</ele>
        <time>2021-09-11T11:34:59.846Z</time>
      </trkpt>
      <trkpt lat="45.90871" lon="5.95806">
        <ele>391</ele>
        <time>2021-09-11T11:35:00.845Z</time>
      </trkpt>
      <trkpt lat="45.90873" lon="5.95806">
        <ele>390</ele>
        <time>2021-09-11T11:35:01.845Z</time>
      </trkpt>
      <trkpt lat="45.90876" lon="5.95806">
        <ele>390</ele>
        <time>2021-09-11T11:35:02.845Z</time>
      </trkpt>
      <trkpt lat="45.90877" lon="5.95807">
        <ele>389</ele>
        <time>2021-09-11T11:35:03.845Z</time>
      </trkpt>
      <trkpt lat="45.90879" lon="5.95807">
        <ele>388</ele>
        <time>2021-09-11T11:35:04.846Z</time>
      </trkpt>
      <trkpt lat="45.90882" lon="5.95807">
        <ele>387</ele>
        <time>2021-09-11T11:35:05.846Z</time>
      </trkpt>
      <trkpt lat="45.90884" lon="5.95806">
        <ele>386</ele>
        <time>2021-09-11T11:35:06.846Z</time>
      </trkpt>
      <trkpt lat="45.90885" lon="5.95806">
        <ele>385</ele>
        <time>2021-09-11T11:35:07.845Z</time>
      </trkpt>
      <trkpt lat="45.90888" lon="5.95806">
        <ele>384</ele>
        <time>2021-09-11T11:35:08.845Z</time>
      </trkpt>
      <trkpt lat="45.9089" lon="5.95806">
        <ele>383</ele>
        <time>2021-09-11T11:35:09.846Z</time>
      </trkpt>
      <trkpt lat="45.90893" lon="5.95806">
        <ele>382</ele>
        <time>2021-09-11T11:35:10.846Z</time>
      </trkpt>
      <trkpt lat="45.90895" lon="5.95806">
        <ele>382</ele>
        <time>2021-09-11T11:35:11.846Z</time>
      </trkpt>
      <trkpt lat="45.90897" lon="5.95806">
        <ele>381</ele>
        <time>2021-09-11T11:35:12.845Z</time>
      </trkpt>
      <trkpt lat="45.90899" lon="5.95806">
        <ele>381</ele>
        <time>2021-09-11T11:35:13.846Z</time>
      </trkpt>
      <trkpt lat="45.90901" lon="5.95806">
        <ele>381</ele>
        <time>2021-09-11T11:35:14.846Z</time>
      </trkpt>
      <trkpt lat="45.90903" lon="5.95805">
        <ele>381</ele>
        <time>2021-09-11T11:35:15.845Z</time>
      </trkpt>
      <trkpt lat="45.90905" lon="5.95805">
        <ele>381</ele>
        <time>2021-09-11T11:35:16.846Z</time>
      </trkpt>
      <trkpt lat="45.90907" lon="5.95805">
        <ele>381</ele>
        <time>2021-09-11T11:35:17.846Z</time>
      </trkpt>
      <trkpt lat="45.90909" lon="5.95804">
        <ele>381</ele>
        <time>2021-09-11T11:35:18.845Z</time>
      </trkpt>
      <trkpt lat="45.90911" lon="5.95804">
        <ele>381</ele>
        <time>2021-09-11T11:35:19.845Z</time>
      </trkpt>
      <trkpt lat="45.90913" lon="5.95803">
        <ele>382</ele>
        <time>2021-09-11T11:35:20.846Z</time>
      </trkpt>
      <trkpt lat="45.90915" lon="5.95803">
        <ele>382</ele>
        <time>2021-09-11T11:35:21.846Z</time>
      </trkpt>
      <trkpt lat="45.90917" lon="5.95802">
        <ele>382</ele>
        <time>2021-09-11T11:35:22.846Z</time>
      </trkpt>
      <trkpt lat="45.90919" lon="5.95802">
        <ele>383</ele>
        <time>2021-09-11T11:35:23.845Z</time>
      </trkpt>
      <trkpt lat="45.9092" lon="5.95801">
        <ele>383</ele>
        <time>2021-09-11T11:35:24.846Z</time>
      </trkpt>
      <trkpt lat="45.90922" lon="5.958">
        <ele>382</ele>
        <time>2021-09-11T11:35:25.845Z</time>
      </trkpt>
      <trkpt lat="45.90924" lon="5.95799">
        <ele>382</ele>
        <time>2021-09-11T11:35:26.845Z</time>
      </trkpt>
      <trkpt lat="45.90926" lon="5.95798">
        <ele>381</ele>
        <time>2021-09-11T11:35:27.845Z</time>
      </trkpt>
      <trkpt lat="45.90928" lon="5.95797">
        <ele>381</ele>
        <time>2021-09-11T11:35:28.846Z</time>
      </trkpt>
      <trkpt lat="45.90929" lon="5.95796">
        <ele>380</ele>
        <time>2021-09-11T11:35:29.845Z</time>
      </trkpt>
      <trkpt lat="45.90931" lon="5.95795">
        <ele>380</ele>
        <time>2021-09-11T11:35:30.845Z</time>
      </trkpt>
      <trkpt lat="45.90933" lon="5.95793">
        <ele>379</ele>
        <time>2021-09-11T11:35:31.846Z</time>
      </trkpt>
      <trkpt lat="45.90935" lon="5.95792">
        <ele>378</ele>
        <time>2021-09-11T11:35:32.846Z</time>
      </trkpt>
      <trkpt lat="45.90936" lon="5.9579">
        <ele>378</ele>
        <time>2021-09-11T11:35:33.846Z</time>
      </trkpt>
      <trkpt lat="45.90938" lon="5.95788">
        <ele>377</ele>
        <time>2021-09-11T11:35:34.845Z</time>
      </trkpt>
      <trkpt lat="45.90939" lon="5.95787">
        <ele>377</ele>
        <time>2021-09-11T11:35:35.846Z</time>
      </trkpt>
      <trkpt lat="45.90941" lon="5.95785">
        <ele>376</ele>
        <time>2021-09-11T11:35:36.846Z</time>
      </trkpt>
      <trkpt lat="45.90942" lon="5.95783">
        <ele>376</ele>
        <time>2021-09-11T11:35:37.846Z</time>
      </trkpt>
      <trkpt lat="45.90942" lon="5.9578">
        <ele>377</ele>
        <time>2021-09-11T11:35:38.846Z</time>
      </trkpt>
      <trkpt lat="45.90944" lon="5.95778">
        <ele>377</ele>
        <time>2021-09-11T11:35:39.846Z</time>
      </trkpt>
      <trkpt lat="45.90946" lon="5.95775">
        <ele>378</ele>
        <time>2021-09-11T11:35:40.846Z</time>
      </trkpt>
      <trkpt lat="45.90947" lon="5.95773">
        <ele>378</ele>
        <time>2021-09-11T11:35:41.846Z</time>
      </trkpt>
      <trkpt lat="45.90949" lon="5.95771">
        <ele>378</ele>
        <time>2021-09-11T11:35:42.846Z</time>
      </trkpt>
      <trkpt lat="45.9095" lon="5.95769">
        <ele>378</ele>
        <time>2021-09-11T11:35:43.846Z</time>
      </trkpt>
      <trkpt lat="45.90951" lon="5.95767">
        <ele>378</ele>
        <time>2021-09-11T11:35:44.846Z</time>
      </trkpt>
      <trkpt lat="45.90952" lon="5.95764">
        <ele>378</ele>
        <time>2021-09-11T11:35:45.845Z</time>
      </trkpt>
      <trkpt lat="45.90953" lon="5.95761">
        <ele>378</ele>
        <time>2021-09-11T11:35:46.846Z</time>
      </trkpt>
      <trkpt lat="45.90954" lon="5.95758">
        <ele>378</ele>
        <time>2021-09-11T11:35:47.846Z</time>
      </trkpt>
      <trkpt lat="45.90955" lon="5.95756">
        <ele>378</ele>
        <time>2021-09-11T11:35:48.846Z</time>
      </trkpt>
      <trkpt lat="45.90955" lon="5.95753">
        <ele>377</ele>
        <time>2021-09-11T11:35:49.846Z</time>
      </trkpt>
      <trkpt lat="45.90956" lon="5.9575">
        <ele>377</ele>
        <time>2021-09-11T11:35:50.846Z</time>
      </trkpt>
      <trkpt lat="45.90957" lon="5.95749">
        <ele>377</ele>
        <time>2021-09-11T11:35:51.846Z</time>
      </trkpt>
      <trkpt lat="45.90958" lon="5.95747">
        <ele>376</ele>
        <time>2021-09-11T11:35:52.846Z</time>
      </trkpt>
      <trkpt lat="45.90959" lon="5.95746">
        <ele>376</ele>
        <time>2021-09-11T11:35:53.846Z</time>
      </trkpt>
      <trkpt lat="45.90961" lon="5.95745">
        <ele>375</ele>
        <time>2021-09-11T11:35:54.846Z</time>
      </trkpt>
      <trkpt lat="45.90961" lon="5.95744">
        <ele>376</ele>
        <time>2021-09-11T11:35:55.846Z</time>
      </trkpt>
      <trkpt lat="45.90962" lon="5.95743">
        <ele>376</ele>
        <time>2021-09-11T11:35:56.846Z</time>
      </trkpt>
      <trkpt lat="45.90962" lon="5.95743">
        <ele>376</ele>
        <time>2021-09-11T11:35:57.846Z</time>
      </trkpt>
      <trkpt lat="45.90962" lon="5.95743">
        <ele>376</ele>
        <time>2021-09-11T11:35:58.845Z</time>
      </trkpt>
      <trkpt lat="45.90961" lon="5.95733">
        <ele>387</ele>
        <time>2021-09-11T11:35:59.847Z</time>
      </trkpt>
      <trkpt lat="45.90962" lon="5.95728">
        <ele>387</ele>
        <time>2021-09-11T11:36:30.898Z</time>
      </trkpt>
      <trkpt lat="45.90964" lon="5.95723">
        <ele>387</ele>
        <time>2021-09-11T11:36:31.898Z</time>
      </trkpt>
      <trkpt lat="45.90965" lon="5.95718">
        <ele>387</ele>
        <time>2021-09-11T11:36:32.899Z</time>
      </trkpt>
      <trkpt lat="45.90966" lon="5.95713">
        <ele>387</ele>
        <time>2021-09-11T11:36:33.899Z</time>
      </trkpt>
      <trkpt lat="45.90967" lon="5.95709">
        <ele>387</ele>
        <time>2021-09-11T11:36:34.898Z</time>
      </trkpt>
      <trkpt lat="45.90968" lon="5.95704">
        <ele>387</ele>
        <time>2021-09-11T11:36:35.899Z</time>
      </trkpt>
      <trkpt lat="45.90969" lon="5.95699">
        <ele>388</ele>
        <time>2021-09-11T11:36:36.898Z</time>
      </trkpt>
      <trkpt lat="45.9097" lon="5.95696">
        <ele>387</ele>
        <time>2021-09-11T11:36:37.898Z</time>
      </trkpt>
      <trkpt lat="45.90972" lon="5.95691">
        <ele>387</ele>
        <time>2021-09-11T11:36:38.898Z</time>
      </trkpt>
      <trkpt lat="45.90973" lon="5.95687">
        <ele>387</ele>
        <time>2021-09-11T11:36:39.898Z</time>
      </trkpt>
      <trkpt lat="45.90975" lon="5.95682">
        <ele>387</ele>
        <time>2021-09-11T11:36:40.899Z</time>
      </trkpt>
      <trkpt lat="45.90976" lon="5.95677">
        <ele>387</ele>
        <time>2021-09-11T11:36:41.898Z</time>
      </trkpt>
      <trkpt lat="45.90978" lon="5.95673">
        <ele>387</ele>
        <time>2021-09-11T11:36:42.899Z</time>
      </trkpt>
      <trkpt lat="45.90979" lon="5.95668">
        <ele>387</ele>
        <time>2021-09-11T11:36:43.899Z</time>
      </trkpt>
      <trkpt lat="45.90981" lon="5.95663">
        <ele>388</ele>
        <time>2021-09-11T11:36:44.899Z</time>
      </trkpt>
      <trkpt lat="45.90982" lon="5.95659">
        <ele>388</ele>
        <time>2021-09-11T11:36:45.899Z</time>
      </trkpt>
      <trkpt lat="45.90983" lon="5.95655">
        <ele>388</ele>
        <time>2021-09-11T11:36:46.899Z</time>
      </trkpt>
      <trkpt lat="45.90985" lon="5.9565">
        <ele>388</ele>
        <time>2021-09-11T11:36:47.899Z</time>
      </trkpt>
      <trkpt lat="45.90987" lon="5.95645">
        <ele>388</ele>
        <time>2021-09-11T11:36:48.898Z</time>
      </trkpt>
      <trkpt lat="45.90988" lon="5.95641">
        <ele>388</ele>
        <time>2021-09-11T11:36:49.898Z</time>
      </trkpt>
      <trkpt lat="45.90989" lon="5.95637">
        <ele>388</ele>
        <time>2021-09-11T11:36:50.898Z</time>
      </trkpt>
      <trkpt lat="45.90991" lon="5.95631">
        <ele>388</ele>
        <time>2021-09-11T11:36:51.898Z</time>
      </trkpt>
      <trkpt lat="45.90992" lon="5.95626">
        <ele>388</ele>
        <time>2021-09-11T11:36:52.898Z</time>
      </trkpt>
      <trkpt lat="45.90994" lon="5.95622">
        <ele>389</ele>
        <time>2021-09-11T11:36:53.898Z</time>
      </trkpt>
      <trkpt lat="45.90995" lon="5.95618">
        <ele>389</ele>
        <time>2021-09-11T11:36:54.899Z</time>
      </trkpt>
      <trkpt lat="45.90996" lon="5.95613">
        <ele>389</ele>
        <time>2021-09-11T11:36:55.898Z</time>
      </trkpt>
      <trkpt lat="45.90998" lon="5.95607">
        <ele>390</ele>
        <time>2021-09-11T11:36:56.899Z</time>
      </trkpt>
      <trkpt lat="45.90999" lon="5.95602">
        <ele>390</ele>
        <time>2021-09-11T11:36:57.898Z</time>
      </trkpt>
      <trkpt lat="45.91001" lon="5.95598">
        <ele>390</ele>
        <time>2021-09-11T11:36:58.898Z</time>
      </trkpt>
      <trkpt lat="45.91002" lon="5.95594">
        <ele>389</ele>
        <time>2021-09-11T11:36:59.898Z</time>
      </trkpt>
      <trkpt lat="45.91004" lon="5.95589">
        <ele>389</ele>
        <time>2021-09-11T11:37:00.899Z</time>
      </trkpt>
      <trkpt lat="45.91005" lon="5.95584">
        <ele>389</ele>
        <time>2021-09-11T11:37:01.899Z</time>
      </trkpt>
      <trkpt lat="45.91007" lon="5.95579">
        <ele>389</ele>
        <time>2021-09-11T11:37:02.898Z</time>
      </trkpt>
      <trkpt lat="45.91008" lon="5.95575">
        <ele>389</ele>
        <time>2021-09-11T11:37:03.898Z</time>
      </trkpt>
      <trkpt lat="45.9101" lon="5.9557">
        <ele>388</ele>
        <time>2021-09-11T11:37:04.898Z</time>
      </trkpt>
      <trkpt lat="45.91011" lon="5.95565">
        <ele>388</ele>
        <time>2021-09-11T11:37:05.899Z</time>
      </trkpt>
      <trkpt lat="45.91012" lon="5.95562">
        <ele>389</ele>
        <time>2021-09-11T11:37:06.898Z</time>
      </trkpt>
      <trkpt lat="45.91014" lon="5.95557">
        <ele>389</ele>
        <time>2021-09-11T11:37:07.899Z</time>
      </trkpt>
      <trkpt lat="45.91015" lon="5.95552">
        <ele>389</ele>
        <time>2021-09-11T11:37:08.899Z</time>
      </trkpt>
      <trkpt lat="45.91017" lon="5.95548">
        <ele>389</ele>
        <time>2021-09-11T11:37:09.899Z</time>
      </trkpt>
      <trkpt lat="45.91018" lon="5.95543">
        <ele>390</ele>
        <time>2021-09-11T11:37:10.899Z</time>
      </trkpt>
      <trkpt lat="45.9102" lon="5.95537">
        <ele>390</ele>
        <time>2021-09-11T11:37:11.899Z</time>
      </trkpt>
      <trkpt lat="45.91021" lon="5.95533">
        <ele>390</ele>
        <time>2021-09-11T11:37:12.899Z</time>
      </trkpt>
      <trkpt lat="45.91022" lon="5.95528">
        <ele>391</ele>
        <time>2021-09-11T11:37:13.899Z</time>
      </trkpt>
      <trkpt lat="45.91024" lon="5.95522">
        <ele>391</ele>
        <time>2021-09-11T11:37:14.899Z</time>
      </trkpt>
      <trkpt lat="45.91025" lon="5.95517">
        <ele>391</ele>
        <time>2021-09-11T11:37:15.899Z</time>
      </trkpt>
      <trkpt lat="45.91027" lon="5.95513">
        <ele>391</ele>
        <time>2021-09-11T11:37:16.898Z</time>
      </trkpt>
      <trkpt lat="45.91028" lon="5.95508">
        <ele>391</ele>
        <time>2021-09-11T11:37:17.899Z</time>
      </trkpt>
      <trkpt lat="45.9103" lon="5.95504">
        <ele>391</ele>
        <time>2021-09-11T11:37:18.899Z</time>
      </trkpt>
      <trkpt lat="45.91032" lon="5.95498">
        <ele>391</ele>
        <time>2021-09-11T11:37:19.898Z</time>
      </trkpt>
      <trkpt lat="45.91033" lon="5.95493">
        <ele>391</ele>
        <time>2021-09-11T11:37:20.899Z</time>
      </trkpt>
      <trkpt lat="45.91034" lon="5.95489">
        <ele>391</ele>
        <time>2021-09-11T11:37:21.899Z</time>
      </trkpt>
      <trkpt lat="45.91036" lon="5.95483">
        <ele>391</ele>
        <time>2021-09-11T11:37:22.899Z</time>
      </trkpt>
      <trkpt lat="45.91038" lon="5.95479">
        <ele>391</ele>
        <time>2021-09-11T11:37:23.899Z</time>
      </trkpt>
      <trkpt lat="45.91039" lon="5.95475">
        <ele>392</ele>
        <time>2021-09-11T11:37:24.899Z</time>
      </trkpt>
      <trkpt lat="45.9104" lon="5.9547">
        <ele>392</ele>
        <time>2021-09-11T11:37:25.899Z</time>
      </trkpt>
      <trkpt lat="45.91042" lon="5.95466">
        <ele>392</ele>
        <time>2021-09-11T11:37:26.898Z</time>
      </trkpt>
      <trkpt lat="45.91043" lon="5.95461">
        <ele>392</ele>
        <time>2021-09-11T11:37:27.899Z</time>
      </trkpt>
      <trkpt lat="45.91045" lon="5.95455">
        <ele>392</ele>
        <time>2021-09-11T11:37:28.898Z</time>
      </trkpt>
      <trkpt lat="45.91046" lon="5.95452">
        <ele>392</ele>
        <time>2021-09-11T11:37:29.898Z</time>
      </trkpt>
      <trkpt lat="45.91047" lon="5.95447">
        <ele>392</ele>
        <time>2021-09-11T11:37:30.899Z</time>
      </trkpt>
      <trkpt lat="45.91049" lon="5.95441">
        <ele>391</ele>
        <time>2021-09-11T11:37:31.898Z</time>
      </trkpt>
      <trkpt lat="45.9105" lon="5.95437">
        <ele>391</ele>
        <time>2021-09-11T11:37:32.899Z</time>
      </trkpt>
      <trkpt lat="45.91052" lon="5.95432">
        <ele>391</ele>
        <time>2021-09-11T11:37:33.899Z</time>
      </trkpt>
      <trkpt lat="45.91053" lon="5.95428">
        <ele>391</ele>
        <time>2021-09-11T11:37:34.898Z</time>
      </trkpt>
      <trkpt lat="45.91055" lon="5.95424">
        <ele>391</ele>
        <time>2021-09-11T11:37:35.899Z</time>
      </trkpt>
      <trkpt lat="45.91056" lon="5.95419">
        <ele>391</ele>
        <time>2021-09-11T11:37:36.898Z</time>
      </trkpt>
      <trkpt lat="45.91058" lon="5.95414">
        <ele>391</ele>
        <time>2021-09-11T11:37:37.899Z</time>
      </trkpt>
      <trkpt lat="45.91059" lon="5.9541">
        <ele>391</ele>
        <time>2021-09-11T11:37:39.861Z</time>
      </trkpt>
      <trkpt lat="45.91061" lon="5.95405">
        <ele>391</ele>
        <time>2021-09-11T11:37:40.861Z</time>
      </trkpt>
      <trkpt lat="45.91063" lon="5.954">
        <ele>390</ele>
        <time>2021-09-11T11:37:41.860Z</time>
      </trkpt>
      <trkpt lat="45.91064" lon="5.95396">
        <ele>390</ele>
        <time>2021-09-11T11:37:42.861Z</time>
      </trkpt>
      <trkpt lat="45.91065" lon="5.95392">
        <ele>390</ele>
        <time>2021-09-11T11:37:43.860Z</time>
      </trkpt>
      <trkpt lat="45.91067" lon="5.95388">
        <ele>390</ele>
        <time>2021-09-11T11:37:44.861Z</time>
      </trkpt>
      <trkpt lat="45.91068" lon="5.95382">
        <ele>390</ele>
        <time>2021-09-11T11:37:45.860Z</time>
      </trkpt>
      <trkpt lat="45.91069" lon="5.95377">
        <ele>390</ele>
        <time>2021-09-11T11:37:46.860Z</time>
      </trkpt>
      <trkpt lat="45.91071" lon="5.95372">
        <ele>390</ele>
        <time>2021-09-11T11:37:47.860Z</time>
      </trkpt>
      <trkpt lat="45.91072" lon="5.95367">
        <ele>390</ele>
        <time>2021-09-11T11:37:48.861Z</time>
      </trkpt>
      <trkpt lat="45.91073" lon="5.95361">
        <ele>390</ele>
        <time>2021-09-11T11:37:49.861Z</time>
      </trkpt>
      <trkpt lat="45.91074" lon="5.95354">
        <ele>390</ele>
        <time>2021-09-11T11:37:50.860Z</time>
      </trkpt>
      <trkpt lat="45.91075" lon="5.95348">
        <ele>390</ele>
        <time>2021-09-11T11:37:51.861Z</time>
      </trkpt>
      <trkpt lat="45.91075" lon="5.95342">
        <ele>390</ele>
        <time>2021-09-11T11:37:52.861Z</time>
      </trkpt>
      <trkpt lat="45.91075" lon="5.95336">
        <ele>390</ele>
        <time>2021-09-11T11:37:53.861Z</time>
      </trkpt>
      <trkpt lat="45.91074" lon="5.9533">
        <ele>390</ele>
        <time>2021-09-11T11:37:54.861Z</time>
      </trkpt>
      <trkpt lat="45.91073" lon="5.95322">
        <ele>390</ele>
        <time>2021-09-11T11:37:55.861Z</time>
      </trkpt>
      <trkpt lat="45.91071" lon="5.95315">
        <ele>390</ele>
        <time>2021-09-11T11:37:56.861Z</time>
      </trkpt>
      <trkpt lat="45.9107" lon="5.9531">
        <ele>391</ele>
        <time>2021-09-11T11:37:57.861Z</time>
      </trkpt>
      <trkpt lat="45.91067" lon="5.95303">
        <ele>391</ele>
        <time>2021-09-11T11:37:58.861Z</time>
      </trkpt>
      <trkpt lat="45.91064" lon="5.95294">
        <ele>392</ele>
        <time>2021-09-11T11:37:59.861Z</time>
      </trkpt>
      <trkpt lat="45.91061" lon="5.95287">
        <ele>392</ele>
        <time>2021-09-11T11:38:00.860Z</time>
      </trkpt>
      <trkpt lat="45.91057" lon="5.9528">
        <ele>392</ele>
        <time>2021-09-11T11:38:01.861Z</time>
      </trkpt>
      <trkpt lat="45.91054" lon="5.95274">
        <ele>391</ele>
        <time>2021-09-11T11:38:02.860Z</time>
      </trkpt>
      <trkpt lat="45.91049" lon="5.95265">
        <ele>391</ele>
        <time>2021-09-11T11:38:03.861Z</time>
      </trkpt>
      <trkpt lat="45.91046" lon="5.95258">
        <ele>391</ele>
        <time>2021-09-11T11:38:04.860Z</time>
      </trkpt>
      <trkpt lat="45.91042" lon="5.95251">
        <ele>390</ele>
        <time>2021-09-11T11:38:05.861Z</time>
      </trkpt>
      <trkpt lat="45.91039" lon="5.95245">
        <ele>391</ele>
        <time>2021-09-11T11:38:06.860Z</time>
      </trkpt>
      <trkpt lat="45.91035" lon="5.95237">
        <ele>391</ele>
        <time>2021-09-11T11:38:07.860Z</time>
      </trkpt>
      <trkpt lat="45.9103" lon="5.95228">
        <ele>391</ele>
        <time>2021-09-11T11:38:08.861Z</time>
      </trkpt>
      <trkpt lat="45.91026" lon="5.95221">
        <ele>391</ele>
        <time>2021-09-11T11:38:09.861Z</time>
      </trkpt>
      <trkpt lat="45.91023" lon="5.95215">
        <ele>391</ele>
        <time>2021-09-11T11:38:14.879Z</time>
      </trkpt>
      <trkpt lat="45.91019" lon="5.95207">
        <ele>391</ele>
        <time>2021-09-11T11:38:20.751Z</time>
      </trkpt>
      <trkpt lat="45.91014" lon="5.95198">
        <ele>391</ele>
        <time>2021-09-11T11:38:21.751Z</time>
      </trkpt>
      <trkpt lat="45.9101" lon="5.95191">
        <ele>391</ele>
        <time>2021-09-11T11:38:22.751Z</time>
      </trkpt>
      <trkpt lat="45.91006" lon="5.95183">
        <ele>391</ele>
        <time>2021-09-11T11:40:21.979Z</time>
      </trkpt>
      <trkpt lat="45.91003" lon="5.95177">
        <ele>391</ele>
        <time>2021-09-11T11:40:22.979Z</time>
      </trkpt>
      <trkpt lat="45.90998" lon="5.95168">
        <ele>390</ele>
        <time>2021-09-11T11:40:23.980Z</time>
      </trkpt>
      <trkpt lat="45.90995" lon="5.95162">
        <ele>390</ele>
        <time>2021-09-11T11:40:24.980Z</time>
      </trkpt>
      <trkpt lat="45.90991" lon="5.95154">
        <ele>390</ele>
        <time>2021-09-11T11:40:25.980Z</time>
      </trkpt>
      <trkpt lat="45.90986" lon="5.95146">
        <ele>390</ele>
        <time>2021-09-11T11:40:26.980Z</time>
      </trkpt>
      <trkpt lat="45.90982" lon="5.95138">
        <ele>389</ele>
        <time>2021-09-11T11:40:27.979Z</time>
      </trkpt>
      <trkpt lat="45.90978" lon="5.95128">
        <ele>389</ele>
        <time>2021-09-11T11:40:28.980Z</time>
      </trkpt>
      <trkpt lat="45.90974" lon="5.9512">
        <ele>389</ele>
        <time>2021-09-11T11:40:29.980Z</time>
      </trkpt>
      <trkpt lat="45.9097" lon="5.95112">
        <ele>389</ele>
        <time>2021-09-11T11:40:30.980Z</time>
      </trkpt>
      <trkpt lat="45.90967" lon="5.95105">
        <ele>389</ele>
        <time>2021-09-11T11:40:31.979Z</time>
      </trkpt>
      <trkpt lat="45.90963" lon="5.95094">
        <ele>389</ele>
        <time>2021-09-11T11:40:32.980Z</time>
      </trkpt>
      <trkpt lat="45.9096" lon="5.95086">
        <ele>389</ele>
        <time>2021-09-11T11:40:33.980Z</time>
      </trkpt>
      <trkpt lat="45.90959" lon="5.95079">
        <ele>389</ele>
        <time>2021-09-11T11:40:34.979Z</time>
      </trkpt>
      <trkpt lat="45.90957" lon="5.9507">
        <ele>389</ele>
        <time>2021-09-11T11:40:35.980Z</time>
      </trkpt>
      <trkpt lat="45.90955" lon="5.95061">
        <ele>389</ele>
        <time>2021-09-11T11:40:36.979Z</time>
      </trkpt>
      <trkpt lat="45.90954" lon="5.9505">
        <ele>389</ele>
        <time>2021-09-11T11:40:37.980Z</time>
      </trkpt>
      <trkpt lat="45.90953" lon="5.95042">
        <ele>389</ele>
        <time>2021-09-11T11:40:38.980Z</time>
      </trkpt>
      <trkpt lat="45.90952" lon="5.95033">
        <ele>388</ele>
        <time>2021-09-11T11:40:39.979Z</time>
      </trkpt>
      <trkpt lat="45.90952" lon="5.95027">
        <ele>388</ele>
        <time>2021-09-11T11:40:40.980Z</time>
      </trkpt>
      <trkpt lat="45.90951" lon="5.95019">
        <ele>389</ele>
        <time>2021-09-11T11:40:41.980Z</time>
      </trkpt>
      <trkpt lat="45.9095" lon="5.95009">
        <ele>390</ele>
        <time>2021-09-11T11:40:42.979Z</time>
      </trkpt>
      <trkpt lat="45.90949" lon="5.95001">
        <ele>390</ele>
        <time>2021-09-11T11:40:43.980Z</time>
      </trkpt>
      <trkpt lat="45.90949" lon="5.94994">
        <ele>391</ele>
        <time>2021-09-11T11:40:44.980Z</time>
      </trkpt>
      <trkpt lat="45.90948" lon="5.94986">
        <ele>392</ele>
        <time>2021-09-11T11:40:45.979Z</time>
      </trkpt>
      <trkpt lat="45.90948" lon="5.94978">
        <ele>392</ele>
        <time>2021-09-11T11:40:46.979Z</time>
      </trkpt>
      <trkpt lat="45.90948" lon="5.94968">
        <ele>392</ele>
        <time>2021-09-11T11:40:47.979Z</time>
      </trkpt>
      <trkpt lat="45.90947" lon="5.94959">
        <ele>392</ele>
        <time>2021-09-11T11:40:48.980Z</time>
      </trkpt>
      <trkpt lat="45.90947" lon="5.94952">
        <ele>392</ele>
        <time>2021-09-11T11:40:49.980Z</time>
      </trkpt>
      <trkpt lat="45.90946" lon="5.94941">
        <ele>391</ele>
        <time>2021-09-11T11:40:50.980Z</time>
      </trkpt>
      <trkpt lat="45.90945" lon="5.94933">
        <ele>391</ele>
        <time>2021-09-11T11:40:51.980Z</time>
      </trkpt>
      <trkpt lat="45.90944" lon="5.94924">
        <ele>391</ele>
        <time>2021-09-11T11:40:52.979Z</time>
      </trkpt>
      <trkpt lat="45.90942" lon="5.94918">
        <ele>390</ele>
        <time>2021-09-11T11:40:53.980Z</time>
      </trkpt>
      <trkpt lat="45.90941" lon="5.9491">
        <ele>390</ele>
        <time>2021-09-11T11:40:54.979Z</time>
      </trkpt>
      <trkpt lat="45.90938" lon="5.949">
        <ele>390</ele>
        <time>2021-09-11T11:40:55.980Z</time>
      </trkpt>
      <trkpt lat="45.90936" lon="5.94892">
        <ele>389</ele>
        <time>2021-09-11T11:40:56.980Z</time>
      </trkpt>
      <trkpt lat="45.90934" lon="5.94886">
        <ele>389</ele>
        <time>2021-09-11T11:40:57.980Z</time>
      </trkpt>
      <trkpt lat="45.90931" lon="5.94878">
        <ele>388</ele>
        <time>2021-09-11T11:40:58.979Z</time>
      </trkpt>
      <trkpt lat="45.90928" lon="5.94869">
        <ele>388</ele>
        <time>2021-09-11T11:40:59.980Z</time>
      </trkpt>
      <trkpt lat="45.90925" lon="5.94861">
        <ele>387</ele>
        <time>2021-09-11T11:41:00.980Z</time>
      </trkpt>
      <trkpt lat="45.90922" lon="5.94853">
        <ele>387</ele>
        <time>2021-09-11T11:41:01.980Z</time>
      </trkpt>
      <trkpt lat="45.90919" lon="5.94847">
        <ele>387</ele>
        <time>2021-09-11T11:41:02.979Z</time>
      </trkpt>
      <trkpt lat="45.90915" lon="5.94837">
        <ele>387</ele>
        <time>2021-09-11T11:41:03.980Z</time>
      </trkpt>
      <trkpt lat="45.90912" lon="5.94828">
        <ele>387</ele>
        <time>2021-09-11T11:41:04.980Z</time>
      </trkpt>
      <trkpt lat="45.90908" lon="5.9482">
        <ele>387</ele>
        <time>2021-09-11T11:41:05.980Z</time>
      </trkpt>
      <trkpt lat="45.90905" lon="5.94814">
        <ele>386</ele>
        <time>2021-09-11T11:41:06.980Z</time>
      </trkpt>
      <trkpt lat="45.90902" lon="5.94805">
        <ele>386</ele>
        <time>2021-09-11T11:41:07.980Z</time>
      </trkpt>
      <trkpt lat="45.90898" lon="5.94797">
        <ele>386</ele>
        <time>2021-09-11T11:41:08.980Z</time>
      </trkpt>
      <trkpt lat="45.90895" lon="5.94786">
        <ele>387</ele>
        <time>2021-09-11T11:41:09.980Z</time>
      </trkpt>
      <trkpt lat="45.90891" lon="5.94778">
        <ele>387</ele>
        <time>2021-09-11T11:41:10.979Z</time>
      </trkpt>
      <trkpt lat="45.90888" lon="5.94771">
        <ele>387</ele>
        <time>2021-09-11T11:41:11.980Z</time>
      </trkpt>
      <trkpt lat="45.90884" lon="5.94761">
        <ele>386</ele>
        <time>2021-09-11T11:41:12.979Z</time>
      </trkpt>
      <trkpt lat="45.9088" lon="5.94753">
        <ele>386</ele>
        <time>2021-09-11T11:41:13.980Z</time>
      </trkpt>
      <trkpt lat="45.90877" lon="5.94744">
        <ele>386</ele>
        <time>2021-09-11T11:41:14.980Z</time>
      </trkpt>
      <trkpt lat="45.90874" lon="5.94738">
        <ele>386</ele>
        <time>2021-09-11T11:41:15.979Z</time>
      </trkpt>
      <trkpt lat="45.90869" lon="5.94728">
        <ele>386</ele>
        <time>2021-09-11T11:41:16.980Z</time>
      </trkpt>
      <trkpt lat="45.90865" lon="5.94721">
        <ele>386</ele>
        <time>2021-09-11T11:41:17.979Z</time>
      </trkpt>
      <trkpt lat="45.90861" lon="5.94713">
        <ele>386</ele>
        <time>2021-09-11T11:41:18.980Z</time>
      </trkpt>
      <trkpt lat="45.90858" lon="5.94706">
        <ele>386</ele>
        <time>2021-09-11T11:41:19.980Z</time>
      </trkpt>
      <trkpt lat="45.90853" lon="5.94698">
        <ele>386</ele>
        <time>2021-09-11T11:41:20.980Z</time>
      </trkpt>
      <trkpt lat="45.90849" lon="5.94688">
        <ele>386</ele>
        <time>2021-09-11T11:41:21.980Z</time>
      </trkpt>
      <trkpt lat="45.90845" lon="5.9468">
        <ele>386</ele>
        <time>2021-09-11T11:41:22.980Z</time>
      </trkpt>
      <trkpt lat="45.90842" lon="5.94671">
        <ele>386</ele>
        <time>2021-09-11T11:41:23.980Z</time>
      </trkpt>
      <trkpt lat="45.90839" lon="5.94664">
        <ele>386</ele>
        <time>2021-09-11T11:41:24.979Z</time>
      </trkpt>
      <trkpt lat="45.90836" lon="5.94654">
        <ele>385</ele>
        <time>2021-09-11T11:41:25.979Z</time>
      </trkpt>
      <trkpt lat="45.90833" lon="5.94645">
        <ele>385</ele>
        <time>2021-09-11T11:41:26.980Z</time>
      </trkpt>
      <trkpt lat="45.90831" lon="5.94637">
        <ele>385</ele>
        <time>2021-09-11T11:41:27.979Z</time>
      </trkpt>
      <trkpt lat="45.90829" lon="5.94628">
        <ele>384</ele>
        <time>2021-09-11T11:41:28.979Z</time>
      </trkpt>
      <trkpt lat="45.90827" lon="5.94619">
        <ele>383</ele>
        <time>2021-09-11T11:41:29.980Z</time>
      </trkpt>
      <trkpt lat="45.90825" lon="5.94609">
        <ele>383</ele>
        <time>2021-09-11T11:41:30.980Z</time>
      </trkpt>
      <trkpt lat="45.90823" lon="5.94598">
        <ele>383</ele>
        <time>2021-09-11T11:41:31.979Z</time>
      </trkpt>
      <trkpt lat="45.90822" lon="5.9459">
        <ele>383</ele>
        <time>2021-09-11T11:41:32.980Z</time>
      </trkpt>
      <trkpt lat="45.9082" lon="5.94581">
        <ele>382</ele>
        <time>2021-09-11T11:41:33.979Z</time>
      </trkpt>
      <trkpt lat="45.90817" lon="5.9457">
        <ele>382</ele>
        <time>2021-09-11T11:41:34.980Z</time>
      </trkpt>
      <trkpt lat="45.90815" lon="5.94561">
        <ele>382</ele>
        <time>2021-09-11T11:41:35.980Z</time>
      </trkpt>
      <trkpt lat="45.90813" lon="5.94552">
        <ele>382</ele>
        <time>2021-09-11T11:41:36.980Z</time>
      </trkpt>
      <trkpt lat="45.90812" lon="5.94545">
        <ele>382</ele>
        <time>2021-09-11T11:41:37.979Z</time>
      </trkpt>
      <trkpt lat="45.9081" lon="5.94536">
        <ele>382</ele>
        <time>2021-09-11T11:41:38.980Z</time>
      </trkpt>
      <trkpt lat="45.90808" lon="5.94527">
        <ele>382</ele>
        <time>2021-09-11T11:41:39.980Z</time>
      </trkpt>
      <trkpt lat="45.90806" lon="5.94517">
        <ele>382</ele>
        <time>2021-09-11T11:41:40.980Z</time>
      </trkpt>
      <trkpt lat="45.90805" lon="5.9451">
        <ele>382</ele>
        <time>2021-09-11T11:41:41.979Z</time>
      </trkpt>
      <trkpt lat="45.90803" lon="5.94502">
        <ele>382</ele>
        <time>2021-09-11T11:41:42.980Z</time>
      </trkpt>
      <trkpt lat="45.90802" lon="5.94492">
        <ele>382</ele>
        <time>2021-09-11T11:41:43.979Z</time>
      </trkpt>
      <trkpt lat="45.908" lon="5.94484">
        <ele>382</ele>
        <time>2021-09-11T11:41:44.979Z</time>
      </trkpt>
      <trkpt lat="45.90799" lon="5.94476">
        <ele>382</ele>
        <time>2021-09-11T11:41:45.980Z</time>
      </trkpt>
      <trkpt lat="45.90798" lon="5.9447">
        <ele>382</ele>
        <time>2021-09-11T11:41:46.980Z</time>
      </trkpt>
      <trkpt lat="45.90797" lon="5.94461">
        <ele>382</ele>
        <time>2021-09-11T11:41:47.979Z</time>
      </trkpt>
      <trkpt lat="45.90795" lon="5.94456">
        <ele>382</ele>
        <time>2021-09-11T11:41:48.979Z</time>
      </trkpt>
      <trkpt lat="45.90794" lon="5.94451">
        <ele>383</ele>
        <time>2021-09-11T11:41:49.980Z</time>
      </trkpt>
      <trkpt lat="45.90792" lon="5.94445">
        <ele>383</ele>
        <time>2021-09-11T11:41:50.979Z</time>
      </trkpt>
      <trkpt lat="45.90791" lon="5.94441">
        <ele>383</ele>
        <time>2021-09-11T11:42:17.010Z</time>
      </trkpt>
      <trkpt lat="45.90788" lon="5.94435">
        <ele>384</ele>
        <time>2021-09-11T11:42:18.009Z</time>
      </trkpt>
      <trkpt lat="45.90785" lon="5.94431">
        <ele>384</ele>
        <time>2021-09-11T11:42:19.010Z</time>
      </trkpt>
      <trkpt lat="45.90783" lon="5.94427">
        <ele>385</ele>
        <time>2021-09-11T11:42:20.010Z</time>
      </trkpt>
      <trkpt lat="45.90781" lon="5.94424">
        <ele>385</ele>
        <time>2021-09-11T11:42:21.010Z</time>
      </trkpt>
      <trkpt lat="45.90777" lon="5.9442">
        <ele>385</ele>
        <time>2021-09-11T11:42:22.009Z</time>
      </trkpt>
      <trkpt lat="45.90774" lon="5.94417">
        <ele>384</ele>
        <time>2021-09-11T11:42:23.010Z</time>
      </trkpt>
      <trkpt lat="45.90771" lon="5.94414">
        <ele>384</ele>
        <time>2021-09-11T11:42:24.010Z</time>
      </trkpt>
      <trkpt lat="45.90768" lon="5.94413">
        <ele>384</ele>
        <time>2021-09-11T11:42:25.010Z</time>
      </trkpt>
      <trkpt lat="45.90765" lon="5.94411">
        <ele>385</ele>
        <time>2021-09-11T11:42:26.010Z</time>
      </trkpt>
      <trkpt lat="45.90761" lon="5.9441">
        <ele>385</ele>
        <time>2021-09-11T11:42:27.010Z</time>
      </trkpt>
      <trkpt lat="45.90757" lon="5.94409">
        <ele>385</ele>
        <time>2021-09-11T11:42:28.010Z</time>
      </trkpt>
      <trkpt lat="45.90754" lon="5.94408">
        <ele>386</ele>
        <time>2021-09-11T11:42:29.009Z</time>
      </trkpt>
      <trkpt lat="45.90751" lon="5.94407">
        <ele>386</ele>
        <time>2021-09-11T11:42:30.010Z</time>
      </trkpt>
      <trkpt lat="45.90746" lon="5.94406">
        <ele>386</ele>
        <time>2021-09-11T11:42:31.010Z</time>
      </trkpt>
      <trkpt lat="45.90742" lon="5.94405">
        <ele>386</ele>
        <time>2021-09-11T11:42:32.010Z</time>
      </trkpt>
      <trkpt lat="45.90738" lon="5.94405">
        <ele>386</ele>
        <time>2021-09-11T11:42:33.010Z</time>
      </trkpt>
      <trkpt lat="45.90735" lon="5.94404">
        <ele>386</ele>
        <time>2021-09-11T11:42:34.010Z</time>
      </trkpt>
      <trkpt lat="45.90731" lon="5.94403">
        <ele>386</ele>
        <time>2021-09-11T11:42:35.010Z</time>
      </trkpt>
      <trkpt lat="45.90728" lon="5.94403">
        <ele>386</ele>
        <time>2021-09-11T11:42:36.010Z</time>
      </trkpt>
      <trkpt lat="45.90723" lon="5.94401">
        <ele>386</ele>
        <time>2021-09-11T11:42:37.010Z</time>
      </trkpt>
      <trkpt lat="45.9072" lon="5.944">
        <ele>386</ele>
        <time>2021-09-11T11:42:38.009Z</time>
      </trkpt>
      <trkpt lat="45.90717" lon="5.94399">
        <ele>386</ele>
        <time>2021-09-11T11:42:39.010Z</time>
      </trkpt>
      <trkpt lat="45.90713" lon="5.94397">
        <ele>385</ele>
        <time>2021-09-11T11:42:40.010Z</time>
      </trkpt>
      <trkpt lat="45.90709" lon="5.94395">
        <ele>386</ele>
        <time>2021-09-11T11:42:41.009Z</time>
      </trkpt>
      <trkpt lat="45.90706" lon="5.94392">
        <ele>386</ele>
        <time>2021-09-11T11:42:42.009Z</time>
      </trkpt>
      <trkpt lat="45.90704" lon="5.9439">
        <ele>386</ele>
        <time>2021-09-11T11:42:43.010Z</time>
      </trkpt>
      <trkpt lat="45.907" lon="5.94387">
        <ele>386</ele>
        <time>2021-09-11T11:42:44.009Z</time>
      </trkpt>
      <trkpt lat="45.90697" lon="5.94384">
        <ele>386</ele>
        <time>2021-09-11T11:42:45.009Z</time>
      </trkpt>
      <trkpt lat="45.90695" lon="5.94381">
        <ele>386</ele>
        <time>2021-09-11T11:42:46.009Z</time>
      </trkpt>
      <trkpt lat="45.90693" lon="5.94378">
        <ele>386</ele>
        <time>2021-09-11T11:42:47.009Z</time>
      </trkpt>
      <trkpt lat="45.90691" lon="5.94374">
        <ele>386</ele>
        <time>2021-09-11T11:42:48.010Z</time>
      </trkpt>
      <trkpt lat="45.90688" lon="5.9437">
        <ele>386</ele>
        <time>2021-09-11T11:42:49.010Z</time>
      </trkpt>
      <trkpt lat="45.90686" lon="5.94365">
        <ele>386</ele>
        <time>2021-09-11T11:42:50.009Z</time>
      </trkpt>
      <trkpt lat="45.90684" lon="5.94361">
        <ele>386</ele>
        <time>2021-09-11T11:42:51.010Z</time>
      </trkpt>
      <trkpt lat="45.90683" lon="5.94358">
        <ele>386</ele>
        <time>2021-09-11T11:42:52.010Z</time>
      </trkpt>
      <trkpt lat="45.90681" lon="5.94352">
        <ele>386</ele>
        <time>2021-09-11T11:42:53.010Z</time>
      </trkpt>
      <trkpt lat="45.90679" lon="5.94348">
        <ele>386</ele>
        <time>2021-09-11T11:42:54.010Z</time>
      </trkpt>
      <trkpt lat="45.90678" lon="5.94344">
        <ele>386</ele>
        <time>2021-09-11T11:42:55.010Z</time>
      </trkpt>
      <trkpt lat="45.90676" lon="5.9434">
        <ele>387</ele>
        <time>2021-09-11T11:42:56.009Z</time>
      </trkpt>
      <trkpt lat="45.90674" lon="5.94335">
        <ele>387</ele>
        <time>2021-09-11T11:42:57.010Z</time>
      </trkpt>
      <trkpt lat="45.90672" lon="5.94331">
        <ele>387</ele>
        <time>2021-09-11T11:42:58.009Z</time>
      </trkpt>
      <trkpt lat="45.9067" lon="5.94325">
        <ele>387</ele>
        <time>2021-09-11T11:42:59.010Z</time>
      </trkpt>
      <trkpt lat="45.90668" lon="5.94321">
        <ele>387</ele>
        <time>2021-09-11T11:43:00.010Z</time>
      </trkpt>
      <trkpt lat="45.90667" lon="5.94317">
        <ele>387</ele>
        <time>2021-09-11T11:43:01.010Z</time>
      </trkpt>
      <trkpt lat="45.90665" lon="5.94312">
        <ele>387</ele>
        <time>2021-09-11T11:43:02.010Z</time>
      </trkpt>
      <trkpt lat="45.90664" lon="5.94307">
        <ele>387</ele>
        <time>2021-09-11T11:43:03.010Z</time>
      </trkpt>
      <trkpt lat="45.90662" lon="5.94303">
        <ele>387</ele>
        <time>2021-09-11T11:43:04.010Z</time>
      </trkpt>
      <trkpt lat="45.90661" lon="5.94299">
        <ele>387</ele>
        <time>2021-09-11T11:43:05.010Z</time>
      </trkpt>
      <trkpt lat="45.90659" lon="5.94295">
        <ele>387</ele>
        <time>2021-09-11T11:43:06.010Z</time>
      </trkpt>
      <trkpt lat="45.90657" lon="5.9429">
        <ele>388</ele>
        <time>2021-09-11T11:43:07.010Z</time>
      </trkpt>
      <trkpt lat="45.90656" lon="5.94286">
        <ele>388</ele>
        <time>2021-09-11T11:43:08.009Z</time>
      </trkpt>
      <trkpt lat="45.90654" lon="5.94282">
        <ele>388</ele>
        <time>2021-09-11T11:43:09.010Z</time>
      </trkpt>
      <trkpt lat="45.90652" lon="5.94278">
        <ele>388</ele>
        <time>2021-09-11T11:43:10.010Z</time>
      </trkpt>
      <trkpt lat="45.90651" lon="5.94273">
        <ele>388</ele>
        <time>2021-09-11T11:43:11.010Z</time>
      </trkpt>
      <trkpt lat="45.90649" lon="5.94269">
        <ele>388</ele>
        <time>2021-09-11T11:43:12.010Z</time>
      </trkpt>
      <trkpt lat="45.90648" lon="5.94265">
        <ele>388</ele>
        <time>2021-09-11T11:43:13.010Z</time>
      </trkpt>
      <trkpt lat="45.90646" lon="5.94262">
        <ele>388</ele>
        <time>2021-09-11T11:43:14.010Z</time>
      </trkpt>
      <trkpt lat="45.90645" lon="5.94258">
        <ele>388</ele>
        <time>2021-09-11T11:43:15.009Z</time>
      </trkpt>
      <trkpt lat="45.90643" lon="5.94255">
        <ele>387</ele>
        <time>2021-09-11T11:43:16.010Z</time>
      </trkpt>
      <trkpt lat="45.90642" lon="5.94252">
        <ele>387</ele>
        <time>2021-09-11T11:43:17.010Z</time>
      </trkpt>
      <trkpt lat="45.9064" lon="5.94249">
        <ele>387</ele>
        <time>2021-09-11T11:43:18.009Z</time>
      </trkpt>
      <trkpt lat="45.90639" lon="5.94246">
        <ele>387</ele>
        <time>2021-09-11T11:43:19.010Z</time>
      </trkpt>
      <trkpt lat="45.90637" lon="5.94242">
        <ele>387</ele>
        <time>2021-09-11T11:43:20.010Z</time>
      </trkpt>
      <trkpt lat="45.90635" lon="5.94239">
        <ele>387</ele>
        <time>2021-09-11T11:43:21.009Z</time>
      </trkpt>
      <trkpt lat="45.90634" lon="5.94235">
        <ele>387</ele>
        <time>2021-09-11T11:43:22.010Z</time>
      </trkpt>
      <trkpt lat="45.90632" lon="5.94232">
        <ele>387</ele>
        <time>2021-09-11T11:43:23.010Z</time>
      </trkpt>
      <trkpt lat="45.9063" lon="5.94228">
        <ele>387</ele>
        <time>2021-09-11T11:43:24.010Z</time>
      </trkpt>
      <trkpt lat="45.90627" lon="5.94224">
        <ele>387</ele>
        <time>2021-09-11T11:43:25.010Z</time>
      </trkpt>
      <trkpt lat="45.90625" lon="5.94221">
        <ele>387</ele>
        <time>2021-09-11T11:43:26.010Z</time>
      </trkpt>
      <trkpt lat="45.90622" lon="5.94217">
        <ele>387</ele>
        <time>2021-09-11T11:43:27.010Z</time>
      </trkpt>
      <trkpt lat="45.90619" lon="5.94213">
        <ele>387</ele>
        <time>2021-09-11T11:43:28.009Z</time>
      </trkpt>
      <trkpt lat="45.90616" lon="5.94209">
        <ele>387</ele>
        <time>2021-09-11T11:43:29.010Z</time>
      </trkpt>
      <trkpt lat="45.90611" lon="5.94204">
        <ele>387</ele>
        <time>2021-09-11T11:43:30.009Z</time>
      </trkpt>
      <trkpt lat="45.90608" lon="5.94201">
        <ele>387</ele>
        <time>2021-09-11T11:43:31.010Z</time>
      </trkpt>
      <trkpt lat="45.90604" lon="5.94197">
        <ele>387</ele>
        <time>2021-09-11T11:43:32.009Z</time>
      </trkpt>
      <trkpt lat="45.90599" lon="5.94192">
        <ele>386</ele>
        <time>2021-09-11T11:43:33.010Z</time>
      </trkpt>
      <trkpt lat="45.90595" lon="5.94187">
        <ele>386</ele>
        <time>2021-09-11T11:43:34.010Z</time>
      </trkpt>
      <trkpt lat="45.90592" lon="5.94183">
        <ele>386</ele>
        <time>2021-09-11T11:43:35.010Z</time>
      </trkpt>
      <trkpt lat="45.90587" lon="5.94177">
        <ele>386</ele>
        <time>2021-09-11T11:43:36.009Z</time>
      </trkpt>
      <trkpt lat="45.90582" lon="5.9417">
        <ele>385</ele>
        <time>2021-09-11T11:43:37.010Z</time>
      </trkpt>
      <trkpt lat="45.90579" lon="5.94164">
        <ele>385</ele>
        <time>2021-09-11T11:43:38.010Z</time>
      </trkpt>
      <trkpt lat="45.90575" lon="5.94155">
        <ele>385</ele>
        <time>2021-09-11T11:43:39.010Z</time>
      </trkpt>
      <trkpt lat="45.90572" lon="5.94148">
        <ele>384</ele>
        <time>2021-09-11T11:43:40.010Z</time>
      </trkpt>
      <trkpt lat="45.90569" lon="5.9414">
        <ele>384</ele>
        <time>2021-09-11T11:43:41.010Z</time>
      </trkpt>
      <trkpt lat="45.90565" lon="5.94132">
        <ele>384</ele>
        <time>2021-09-11T11:43:42.010Z</time>
      </trkpt>
      <trkpt lat="45.90561" lon="5.94122">
        <ele>384</ele>
        <time>2021-09-11T11:43:43.010Z</time>
      </trkpt>
      <trkpt lat="45.90558" lon="5.94113">
        <ele>383</ele>
        <time>2021-09-11T11:43:44.009Z</time>
      </trkpt>
      <trkpt lat="45.90555" lon="5.94106">
        <ele>383</ele>
        <time>2021-09-11T11:43:45.010Z</time>
      </trkpt>
      <trkpt lat="45.90551" lon="5.94095">
        <ele>383</ele>
        <time>2021-09-11T11:43:46.010Z</time>
      </trkpt>
      <trkpt lat="45.90549" lon="5.94087">
        <ele>383</ele>
        <time>2021-09-11T11:43:47.010Z</time>
      </trkpt>
      <trkpt lat="45.90544" lon="5.94076">
        <ele>383</ele>
        <time>2021-09-11T11:43:48.010Z</time>
      </trkpt>
      <trkpt lat="45.90541" lon="5.94068">
        <ele>383</ele>
        <time>2021-09-11T11:43:49.009Z</time>
      </trkpt>
      <trkpt lat="45.90538" lon="5.94059">
        <ele>382</ele>
        <time>2021-09-11T11:43:50.010Z</time>
      </trkpt>
      <trkpt lat="45.90533" lon="5.94047">
        <ele>382</ele>
        <time>2021-09-11T11:43:51.010Z</time>
      </trkpt>
      <trkpt lat="45.90529" lon="5.94037">
        <ele>382</ele>
        <time>2021-09-11T11:43:52.010Z</time>
      </trkpt>
      <trkpt lat="45.90525" lon="5.9403">
        <ele>383</ele>
        <time>2021-09-11T11:43:53.009Z</time>
      </trkpt>
      <trkpt lat="45.90521" lon="5.9402">
        <ele>383</ele>
        <time>2021-09-11T11:43:54.010Z</time>
      </trkpt>
      <trkpt lat="45.90517" lon="5.9401">
        <ele>382</ele>
        <time>2021-09-11T11:43:55.010Z</time>
      </trkpt>
      <trkpt lat="45.90512" lon="5.94001">
        <ele>382</ele>
        <time>2021-09-11T11:43:56.010Z</time>
      </trkpt>
      <trkpt lat="45.90506" lon="5.93992">
        <ele>382</ele>
        <time>2021-09-11T11:43:57.009Z</time>
      </trkpt>
      <trkpt lat="45.90501" lon="5.93983">
        <ele>382</ele>
        <time>2021-09-11T11:43:58.010Z</time>
      </trkpt>
      <trkpt lat="45.90495" lon="5.93975">
        <ele>381</ele>
        <time>2021-09-11T11:43:59.010Z</time>
      </trkpt>
      <trkpt lat="45.90488" lon="5.93966">
        <ele>381</ele>
        <time>2021-09-11T11:44:00.010Z</time>
      </trkpt>
      <trkpt lat="45.90482" lon="5.93957">
        <ele>381</ele>
        <time>2021-09-11T11:44:01.010Z</time>
      </trkpt>
      <trkpt lat="45.90475" lon="5.93949">
        <ele>380</ele>
        <time>2021-09-11T11:44:02.009Z</time>
      </trkpt>
      <trkpt lat="45.90468" lon="5.9394">
        <ele>380</ele>
        <time>2021-09-11T11:44:03.010Z</time>
      </trkpt>
      <trkpt lat="45.90461" lon="5.93931">
        <ele>380</ele>
        <time>2021-09-11T11:44:04.010Z</time>
      </trkpt>
      <trkpt lat="45.90454" lon="5.93922">
        <ele>380</ele>
        <time>2021-09-11T11:44:05.009Z</time>
      </trkpt>
      <trkpt lat="45.90447" lon="5.93913">
        <ele>379</ele>
        <time>2021-09-11T11:44:06.009Z</time>
      </trkpt>
      <trkpt lat="45.9044" lon="5.93903">
        <ele>378</ele>
        <time>2021-09-11T11:44:07.010Z</time>
      </trkpt>
      <trkpt lat="45.90434" lon="5.93894">
        <ele>377</ele>
        <time>2021-09-11T11:44:08.010Z</time>
      </trkpt>
      <trkpt lat="45.90426" lon="5.93884">
        <ele>377</ele>
        <time>2021-09-11T11:44:09.010Z</time>
      </trkpt>
      <trkpt lat="45.90419" lon="5.93875">
        <ele>376</ele>
        <time>2021-09-11T11:44:10.010Z</time>
      </trkpt>
      <trkpt lat="45.90412" lon="5.93865">
        <ele>376</ele>
        <time>2021-09-11T11:44:11.010Z</time>
      </trkpt>
      <trkpt lat="45.90405" lon="5.93855">
        <ele>375</ele>
        <time>2021-09-11T11:44:12.010Z</time>
      </trkpt>
      <trkpt lat="45.90397" lon="5.93845">
        <ele>375</ele>
        <time>2021-09-11T11:44:13.010Z</time>
      </trkpt>
      <trkpt lat="45.9039" lon="5.93835">
        <ele>375</ele>
        <time>2021-09-11T11:44:14.010Z</time>
      </trkpt>
      <trkpt lat="45.90382" lon="5.93825">
        <ele>374</ele>
        <time>2021-09-11T11:44:15.009Z</time>
      </trkpt>
      <trkpt lat="45.90375" lon="5.93815">
        <ele>373</ele>
        <time>2021-09-11T11:44:16.010Z</time>
      </trkpt>
      <trkpt lat="45.90367" lon="5.93805">
        <ele>373</ele>
        <time>2021-09-11T11:44:17.010Z</time>
      </trkpt>
      <trkpt lat="45.90359" lon="5.93794">
        <ele>372</ele>
        <time>2021-09-11T11:44:18.009Z</time>
      </trkpt>
      <trkpt lat="45.90352" lon="5.93784">
        <ele>371</ele>
        <time>2021-09-11T11:44:19.010Z</time>
      </trkpt>
      <trkpt lat="45.90344" lon="5.93775">
        <ele>370</ele>
        <time>2021-09-11T11:44:20.009Z</time>
      </trkpt>
      <trkpt lat="45.90337" lon="5.93765">
        <ele>369</ele>
        <time>2021-09-11T11:44:21.010Z</time>
      </trkpt>
      <trkpt lat="45.90329" lon="5.93757">
        <ele>369</ele>
        <time>2021-09-11T11:44:22.009Z</time>
      </trkpt>
      <trkpt lat="45.90321" lon="5.9375">
        <ele>368</ele>
        <time>2021-09-11T11:44:23.010Z</time>
      </trkpt>
      <trkpt lat="45.90312" lon="5.93745">
        <ele>367</ele>
        <time>2021-09-11T11:44:24.009Z</time>
      </trkpt>
      <trkpt lat="45.90304" lon="5.9374">
        <ele>367</ele>
        <time>2021-09-11T11:44:25.009Z</time>
      </trkpt>
      <trkpt lat="45.90295" lon="5.93738">
        <ele>366</ele>
        <time>2021-09-11T11:44:26.010Z</time>
      </trkpt>
      <trkpt lat="45.90286" lon="5.93736">
        <ele>366</ele>
        <time>2021-09-11T11:44:27.010Z</time>
      </trkpt>
      <trkpt lat="45.90277" lon="5.93733">
        <ele>366</ele>
        <time>2021-09-11T11:44:28.010Z</time>
      </trkpt>
      <trkpt lat="45.90269" lon="5.93731">
        <ele>365</ele>
        <time>2021-09-11T11:44:29.010Z</time>
      </trkpt>
      <trkpt lat="45.9026" lon="5.93729">
        <ele>365</ele>
        <time>2021-09-11T11:44:30.010Z</time>
      </trkpt>
      <trkpt lat="45.90252" lon="5.93725">
        <ele>365</ele>
        <time>2021-09-11T11:44:31.010Z</time>
      </trkpt>
      <trkpt lat="45.90245" lon="5.9372">
        <ele>365</ele>
        <time>2021-09-11T11:44:32.010Z</time>
      </trkpt>
      <trkpt lat="45.90239" lon="5.93714">
        <ele>364</ele>
        <time>2021-09-11T11:44:33.010Z</time>
      </trkpt>
      <trkpt lat="45.90233" lon="5.93706">
        <ele>364</ele>
        <time>2021-09-11T11:44:34.010Z</time>
      </trkpt>
      <trkpt lat="45.90229" lon="5.93699">
        <ele>364</ele>
        <time>2021-09-11T11:44:35.010Z</time>
      </trkpt>
      <trkpt lat="45.90226" lon="5.93691">
        <ele>364</ele>
        <time>2021-09-11T11:44:36.010Z</time>
      </trkpt>
      <trkpt lat="45.90223" lon="5.93683">
        <ele>364</ele>
        <time>2021-09-11T11:44:37.010Z</time>
      </trkpt>
      <trkpt lat="45.90221" lon="5.93674">
        <ele>364</ele>
        <time>2021-09-11T11:44:38.009Z</time>
      </trkpt>
      <trkpt lat="45.90219" lon="5.93666">
        <ele>364</ele>
        <time>2021-09-11T11:44:39.009Z</time>
      </trkpt>
      <trkpt lat="45.90218" lon="5.93659">
        <ele>363</ele>
        <time>2021-09-11T11:44:40.010Z</time>
      </trkpt>
      <trkpt lat="45.90217" lon="5.93651">
        <ele>363</ele>
        <time>2021-09-11T11:44:41.009Z</time>
      </trkpt>
      <trkpt lat="45.90217" lon="5.93644">
        <ele>363</ele>
        <time>2021-09-11T11:44:42.010Z</time>
      </trkpt>
      <trkpt lat="45.90215" lon="5.93637">
        <ele>363</ele>
        <time>2021-09-11T11:44:43.010Z</time>
      </trkpt>
      <trkpt lat="45.90215" lon="5.9363">
        <ele>363</ele>
        <time>2021-09-11T11:44:44.009Z</time>
      </trkpt>
      <trkpt lat="45.90214" lon="5.93623">
        <ele>363</ele>
        <time>2021-09-11T11:44:45.010Z</time>
      </trkpt>
      <trkpt lat="45.90213" lon="5.93617">
        <ele>363</ele>
        <time>2021-09-11T11:44:46.009Z</time>
      </trkpt>
      <trkpt lat="45.90213" lon="5.93611">
        <ele>362</ele>
        <time>2021-09-11T11:44:47.009Z</time>
      </trkpt>
      <trkpt lat="45.90212" lon="5.93605">
        <ele>362</ele>
        <time>2021-09-11T11:44:48.010Z</time>
      </trkpt>
      <trkpt lat="45.90212" lon="5.93599">
        <ele>362</ele>
        <time>2021-09-11T11:44:49.010Z</time>
      </trkpt>
      <trkpt lat="45.90211" lon="5.93593">
        <ele>362</ele>
        <time>2021-09-11T11:44:50.010Z</time>
      </trkpt>
      <trkpt lat="45.9021" lon="5.93586">
        <ele>362</ele>
        <time>2021-09-11T11:44:51.010Z</time>
      </trkpt>
      <trkpt lat="45.9021" lon="5.9358">
        <ele>363</ele>
        <time>2021-09-11T11:44:52.009Z</time>
      </trkpt>
      <trkpt lat="45.90209" lon="5.93573">
        <ele>363</ele>
        <time>2021-09-11T11:44:53.009Z</time>
      </trkpt>
      <trkpt lat="45.90208" lon="5.93566">
        <ele>363</ele>
        <time>2021-09-11T11:44:54.009Z</time>
      </trkpt>
      <trkpt lat="45.90207" lon="5.93559">
        <ele>363</ele>
        <time>2021-09-11T11:44:55.010Z</time>
      </trkpt>
      <trkpt lat="45.90207" lon="5.93552">
        <ele>363</ele>
        <time>2021-09-11T11:44:56.009Z</time>
      </trkpt>
      <trkpt lat="45.90206" lon="5.93545">
        <ele>362</ele>
        <time>2021-09-11T11:44:57.010Z</time>
      </trkpt>
      <trkpt lat="45.90206" lon="5.93538">
        <ele>362</ele>
        <time>2021-09-11T11:44:58.010Z</time>
      </trkpt>
      <trkpt lat="45.90205" lon="5.93531">
        <ele>362</ele>
        <time>2021-09-11T11:44:59.010Z</time>
      </trkpt>
      <trkpt lat="45.90204" lon="5.93524">
        <ele>362</ele>
        <time>2021-09-11T11:45:00.010Z</time>
      </trkpt>
      <trkpt lat="45.90203" lon="5.93517">
        <ele>362</ele>
        <time>2021-09-11T11:45:01.010Z</time>
      </trkpt>
      <trkpt lat="45.90203" lon="5.9351">
        <ele>362</ele>
        <time>2021-09-11T11:45:02.009Z</time>
      </trkpt>
      <trkpt lat="45.90202" lon="5.93503">
        <ele>362</ele>
        <time>2021-09-11T11:45:03.009Z</time>
      </trkpt>
      <trkpt lat="45.90201" lon="5.93497">
        <ele>362</ele>
        <time>2021-09-11T11:45:04.010Z</time>
      </trkpt>
      <trkpt lat="45.902" lon="5.93491">
        <ele>362</ele>
        <time>2021-09-11T11:45:05.009Z</time>
      </trkpt>
      <trkpt lat="45.902" lon="5.93487">
        <ele>362</ele>
        <time>2021-09-11T11:45:06.010Z</time>
      </trkpt>
      <trkpt lat="45.902" lon="5.93483">
        <ele>362</ele>
        <time>2021-09-11T11:45:07.009Z</time>
      </trkpt>
      <trkpt lat="45.902" lon="5.93481">
        <ele>362</ele>
        <time>2021-09-11T11:45:08.010Z</time>
      </trkpt>
      <trkpt lat="45.902" lon="5.93479">
        <ele>362</ele>
        <time>2021-09-11T11:45:09.010Z</time>
      </trkpt>
      <trkpt lat="45.90201" lon="5.93477">
        <ele>362</ele>
        <time>2021-09-11T11:45:10.010Z</time>
      </trkpt>
      <trkpt lat="45.90201" lon="5.93475">
        <ele>362</ele>
        <time>2021-09-11T11:45:11.009Z</time>
      </trkpt>
      <trkpt lat="45.90201" lon="5.93473">
        <ele>362</ele>
        <time>2021-09-11T11:45:12.009Z</time>
      </trkpt>
      <trkpt lat="45.90201" lon="5.93472">
        <ele>362</ele>
        <time>2021-09-11T11:45:13.010Z</time>
      </trkpt>
      <trkpt lat="45.90201" lon="5.93471">
        <ele>362</ele>
        <time>2021-09-11T11:45:14.010Z</time>
      </trkpt>
      <trkpt lat="45.90201" lon="5.93471">
        <ele>362</ele>
        <time>2021-09-11T11:45:15.010Z</time>
      </trkpt>
      <trkpt lat="45.90201" lon="5.93471">
        <ele>362</ele>
        <time>2021-09-11T11:45:16.010Z</time>
      </trkpt>
      <trkpt lat="45.902" lon="5.93467">
        <ele>359</ele>
        <time>2021-09-11T11:45:17.010Z</time>
      </trkpt>
      <trkpt lat="45.90198" lon="5.93462">
        <ele>359</ele>
        <time>2021-09-11T11:45:18.010Z</time>
      </trkpt>
      <trkpt lat="45.90196" lon="5.93458">
        <ele>359</ele>
        <time>2021-09-11T11:45:19.011Z</time>
      </trkpt>
      <trkpt lat="45.90195" lon="5.93452">
        <ele>360</ele>
        <time>2021-09-11T11:45:20.011Z</time>
      </trkpt>
      <trkpt lat="45.90193" lon="5.93447">
        <ele>360</ele>
        <time>2021-09-11T11:45:21.011Z</time>
      </trkpt>
      <trkpt lat="45.90192" lon="5.93442">
        <ele>361</ele>
        <time>2021-09-11T11:45:22.010Z</time>
      </trkpt>
      <trkpt lat="45.90191" lon="5.93436">
        <ele>361</ele>
        <time>2021-09-11T11:45:23.011Z</time>
      </trkpt>
      <trkpt lat="45.9019" lon="5.93431">
        <ele>361</ele>
        <time>2021-09-11T11:45:24.011Z</time>
      </trkpt>
      <trkpt lat="45.90189" lon="5.93427">
        <ele>360</ele>
        <time>2021-09-11T11:45:25.011Z</time>
      </trkpt>
      <trkpt lat="45.90189" lon="5.93424">
        <ele>360</ele>
        <time>2021-09-11T11:45:26.011Z</time>
      </trkpt>
      <trkpt lat="45.90188" lon="5.9342">
        <ele>360</ele>
        <time>2021-09-11T11:45:27.010Z</time>
      </trkpt>
      <trkpt lat="45.90188" lon="5.93417">
        <ele>361</ele>
        <time>2021-09-11T11:45:28.011Z</time>
      </trkpt>
      <trkpt lat="45.90188" lon="5.93414">
        <ele>361</ele>
        <time>2021-09-11T11:45:29.010Z</time>
      </trkpt>
      <trkpt lat="45.90188" lon="5.93412">
        <ele>361</ele>
        <time>2021-09-11T11:45:30.011Z</time>
      </trkpt>
      <trkpt lat="45.90188" lon="5.93411">
        <ele>360</ele>
        <time>2021-09-11T11:45:31.010Z</time>
      </trkpt>
      <trkpt lat="45.90189" lon="5.93411">
        <ele>359</ele>
        <time>2021-09-11T11:45:32.011Z</time>
      </trkpt>
      <trkpt lat="45.90188" lon="5.93411">
        <ele>359</ele>
        <time>2021-09-11T11:45:33.011Z</time>
      </trkpt>
      <trkpt lat="45.90188" lon="5.93412">
        <ele>358</ele>
        <time>2021-09-11T11:45:34.011Z</time>
      </trkpt>
      <trkpt lat="45.90192" lon="5.93406">
        <ele>360</ele>
        <time>2021-09-11T11:45:35.012Z</time>
      </trkpt>
      <trkpt lat="45.90195" lon="5.93402">
        <ele>360</ele>
        <time>2021-09-11T11:45:36.011Z</time>
      </trkpt>
      <trkpt lat="45.90199" lon="5.93399">
        <ele>360</ele>
        <time>2021-09-11T11:45:37.012Z</time>
      </trkpt>
      <trkpt lat="45.90203" lon="5.93395">
        <ele>359</ele>
        <time>2021-09-11T11:45:38.012Z</time>
      </trkpt>
      <trkpt lat="45.90207" lon="5.93392">
        <ele>359</ele>
        <time>2021-09-11T11:45:39.012Z</time>
      </trkpt>
      <trkpt lat="45.90211" lon="5.93388">
        <ele>358</ele>
        <time>2021-09-11T11:45:40.012Z</time>
      </trkpt>
      <trkpt lat="45.90215" lon="5.93384">
        <ele>358</ele>
        <time>2021-09-11T11:45:41.012Z</time>
      </trkpt>
      <trkpt lat="45.90219" lon="5.9338">
        <ele>357</ele>
        <time>2021-09-11T11:45:42.012Z</time>
      </trkpt>
      <trkpt lat="45.90223" lon="5.93377">
        <ele>357</ele>
        <time>2021-09-11T11:45:43.011Z</time>
      </trkpt>
      <trkpt lat="45.90227" lon="5.93373">
        <ele>356</ele>
        <time>2021-09-11T11:45:44.011Z</time>
      </trkpt>
      <trkpt lat="45.90231" lon="5.9337">
        <ele>355</ele>
        <time>2021-09-11T11:45:45.012Z</time>
      </trkpt>
      <trkpt lat="45.90236" lon="5.93366">
        <ele>355</ele>
        <time>2021-09-11T11:45:46.012Z</time>
      </trkpt>
      <trkpt lat="45.9024" lon="5.93362">
        <ele>354</ele>
        <time>2021-09-11T11:45:47.012Z</time>
      </trkpt>
      <trkpt lat="45.90245" lon="5.93358">
        <ele>354</ele>
        <time>2021-09-11T11:45:48.012Z</time>
      </trkpt>
      <trkpt lat="45.9025" lon="5.93354">
        <ele>354</ele>
        <time>2021-09-11T11:45:49.012Z</time>
      </trkpt>
      <trkpt lat="45.90254" lon="5.9335">
        <ele>355</ele>
        <time>2021-09-11T11:45:50.012Z</time>
      </trkpt>
      <trkpt lat="45.90259" lon="5.93345">
        <ele>355</ele>
        <time>2021-09-11T11:45:51.011Z</time>
      </trkpt>
      <trkpt lat="45.90263" lon="5.9334">
        <ele>354</ele>
        <time>2021-09-11T11:45:52.011Z</time>
      </trkpt>
      <trkpt lat="45.90268" lon="5.93334">
        <ele>354</ele>
        <time>2021-09-11T11:45:53.012Z</time>
      </trkpt>
      <trkpt lat="45.90271" lon="5.93328">
        <ele>354</ele>
        <time>2021-09-11T11:45:54.012Z</time>
      </trkpt>
      <trkpt lat="45.90275" lon="5.93321">
        <ele>354</ele>
        <time>2021-09-11T11:45:55.012Z</time>
      </trkpt>
      <trkpt lat="45.90278" lon="5.93314">
        <ele>354</ele>
        <time>2021-09-11T11:45:56.011Z</time>
      </trkpt>
      <trkpt lat="45.90281" lon="5.93306">
        <ele>354</ele>
        <time>2021-09-11T11:45:57.012Z</time>
      </trkpt>
      <trkpt lat="45.90283" lon="5.93298">
        <ele>354</ele>
        <time>2021-09-11T11:45:58.012Z</time>
      </trkpt>
      <trkpt lat="45.90284" lon="5.9329">
        <ele>354</ele>
        <time>2021-09-11T11:45:59.011Z</time>
      </trkpt>
      <trkpt lat="45.90285" lon="5.93281">
        <ele>353</ele>
        <time>2021-09-11T11:46:00.011Z</time>
      </trkpt>
      <trkpt lat="45.90285" lon="5.93273">
        <ele>353</ele>
        <time>2021-09-11T11:46:01.011Z</time>
      </trkpt>
      <trkpt lat="45.90284" lon="5.93264">
        <ele>353</ele>
        <time>2021-09-11T11:46:02.012Z</time>
      </trkpt>
      <trkpt lat="45.90283" lon="5.93256">
        <ele>354</ele>
        <time>2021-09-11T11:46:03.011Z</time>
      </trkpt>
      <trkpt lat="45.90281" lon="5.93248">
        <ele>354</ele>
        <time>2021-09-11T11:46:04.011Z</time>
      </trkpt>
      <trkpt lat="45.90278" lon="5.9324">
        <ele>354</ele>
        <time>2021-09-11T11:46:05.011Z</time>
      </trkpt>
      <trkpt lat="45.90274" lon="5.93232">
        <ele>353</ele>
        <time>2021-09-11T11:46:06.011Z</time>
      </trkpt>
      <trkpt lat="45.9027" lon="5.93225">
        <ele>353</ele>
        <time>2021-09-11T11:46:07.012Z</time>
      </trkpt>
      <trkpt lat="45.90266" lon="5.93218">
        <ele>353</ele>
        <time>2021-09-11T11:46:08.012Z</time>
      </trkpt>
      <trkpt lat="45.9026" lon="5.93211">
        <ele>353</ele>
        <time>2021-09-11T11:46:09.012Z</time>
      </trkpt>
      <trkpt lat="45.90255" lon="5.93205">
        <ele>353</ele>
        <time>2021-09-11T11:46:10.012Z</time>
      </trkpt>
      <trkpt lat="45.90249" lon="5.93199">
        <ele>353</ele>
        <time>2021-09-11T11:46:11.012Z</time>
      </trkpt>
      <trkpt lat="45.90243" lon="5.93193">
        <ele>353</ele>
        <time>2021-09-11T11:46:12.011Z</time>
      </trkpt>
      <trkpt lat="45.90237" lon="5.93187">
        <ele>353</ele>
        <time>2021-09-11T11:46:13.011Z</time>
      </trkpt>
      <trkpt lat="45.90231" lon="5.93181">
        <ele>352</ele>
        <time>2021-09-11T11:46:14.011Z</time>
      </trkpt>
      <trkpt lat="45.90225" lon="5.93176">
        <ele>352</ele>
        <time>2021-09-11T11:46:15.012Z</time>
      </trkpt>
      <trkpt lat="45.90218" lon="5.9317">
        <ele>352</ele>
        <time>2021-09-11T11:46:16.011Z</time>
      </trkpt>
      <trkpt lat="45.90212" lon="5.93164">
        <ele>352</ele>
        <time>2021-09-11T11:46:17.012Z</time>
      </trkpt>
      <trkpt lat="45.90206" lon="5.93157">
        <ele>351</ele>
        <time>2021-09-11T11:46:18.012Z</time>
      </trkpt>
      <trkpt lat="45.902" lon="5.9315">
        <ele>351</ele>
        <time>2021-09-11T11:46:19.012Z</time>
      </trkpt>
      <trkpt lat="45.90195" lon="5.93143">
        <ele>351</ele>
        <time>2021-09-11T11:46:20.012Z</time>
      </trkpt>
      <trkpt lat="45.9019" lon="5.93135">
        <ele>350</ele>
        <time>2021-09-11T11:46:21.012Z</time>
      </trkpt>
      <trkpt lat="45.90185" lon="5.93127">
        <ele>350</ele>
        <time>2021-09-11T11:46:22.012Z</time>
      </trkpt>
      <trkpt lat="45.90181" lon="5.93118">
        <ele>350</ele>
        <time>2021-09-11T11:46:23.011Z</time>
      </trkpt>
      <trkpt lat="45.90177" lon="5.93108">
        <ele>349</ele>
        <time>2021-09-11T11:46:24.012Z</time>
      </trkpt>
      <trkpt lat="45.90174" lon="5.93098">
        <ele>349</ele>
        <time>2021-09-11T11:46:25.011Z</time>
      </trkpt>
      <trkpt lat="45.90172" lon="5.93088">
        <ele>350</ele>
        <time>2021-09-11T11:46:26.011Z</time>
      </trkpt>
      <trkpt lat="45.9017" lon="5.93077">
        <ele>350</ele>
        <time>2021-09-11T11:46:27.011Z</time>
      </trkpt>
      <trkpt lat="45.90168" lon="5.93066">
        <ele>350</ele>
        <time>2021-09-11T11:46:28.012Z</time>
      </trkpt>
      <trkpt lat="45.90168" lon="5.93055">
        <ele>350</ele>
        <time>2021-09-11T11:46:29.011Z</time>
      </trkpt>
      <trkpt lat="45.90167" lon="5.93043">
        <ele>350</ele>
        <time>2021-09-11T11:46:30.012Z</time>
      </trkpt>
      <trkpt lat="45.90168" lon="5.93032">
        <ele>349</ele>
        <time>2021-09-11T11:46:31.012Z</time>
      </trkpt>
      <trkpt lat="45.90168" lon="5.93021">
        <ele>349</ele>
        <time>2021-09-11T11:46:32.012Z</time>
      </trkpt>
      <trkpt lat="45.9017" lon="5.9301">
        <ele>349</ele>
        <time>2021-09-11T11:46:33.012Z</time>
      </trkpt>
      <trkpt lat="45.90173" lon="5.92999">
        <ele>349</ele>
        <time>2021-09-11T11:46:34.011Z</time>
      </trkpt>
      <trkpt lat="45.90176" lon="5.92988">
        <ele>348</ele>
        <time>2021-09-11T11:46:35.011Z</time>
      </trkpt>
      <trkpt lat="45.9018" lon="5.92978">
        <ele>348</ele>
        <time>2021-09-11T11:46:36.011Z</time>
      </trkpt>
      <trkpt lat="45.90184" lon="5.92968">
        <ele>348</ele>
        <time>2021-09-11T11:46:37.012Z</time>
      </trkpt>
      <trkpt lat="45.90189" lon="5.92959">
        <ele>348</ele>
        <time>2021-09-11T11:46:38.012Z</time>
      </trkpt>
      <trkpt lat="45.90194" lon="5.9295">
        <ele>347</ele>
        <time>2021-09-11T11:46:39.012Z</time>
      </trkpt>
      <trkpt lat="45.902" lon="5.92941">
        <ele>346</ele>
        <time>2021-09-11T11:46:40.011Z</time>
      </trkpt>
      <trkpt lat="45.90206" lon="5.92933">
        <ele>346</ele>
        <time>2021-09-11T11:46:41.012Z</time>
      </trkpt>
      <trkpt lat="45.90212" lon="5.92926">
        <ele>345</ele>
        <time>2021-09-11T11:46:42.011Z</time>
      </trkpt>
      <trkpt lat="45.90219" lon="5.92919">
        <ele>344</ele>
        <time>2021-09-11T11:46:43.012Z</time>
      </trkpt>
      <trkpt lat="45.90225" lon="5.92912">
        <ele>344</ele>
        <time>2021-09-11T11:46:44.012Z</time>
      </trkpt>
      <trkpt lat="45.9023" lon="5.92907">
        <ele>344</ele>
        <time>2021-09-11T11:46:45.011Z</time>
      </trkpt>
      <trkpt lat="45.90235" lon="5.92903">
        <ele>344</ele>
        <time>2021-09-11T11:46:46.012Z</time>
      </trkpt>
      <trkpt lat="45.90239" lon="5.92898">
        <ele>344</ele>
        <time>2021-09-11T11:46:47.012Z</time>
      </trkpt>
      <trkpt lat="45.90244" lon="5.92893">
        <ele>344</ele>
        <time>2021-09-11T11:46:48.012Z</time>
      </trkpt>
      <trkpt lat="45.90247" lon="5.92889">
        <ele>344</ele>
        <time>2021-09-11T11:46:49.012Z</time>
      </trkpt>
      <trkpt lat="45.9025" lon="5.92885">
        <ele>344</ele>
        <time>2021-09-11T11:46:50.012Z</time>
      </trkpt>
      <trkpt lat="45.90252" lon="5.92881">
        <ele>345</ele>
        <time>2021-09-11T11:46:51.012Z</time>
      </trkpt>
      <trkpt lat="45.90254" lon="5.92877">
        <ele>345</ele>
        <time>2021-09-11T11:46:52.012Z</time>
      </trkpt>
      <trkpt lat="45.90255" lon="5.92873">
        <ele>345</ele>
        <time>2021-09-11T11:46:53.011Z</time>
      </trkpt>
      <trkpt lat="45.90255" lon="5.92869">
        <ele>345</ele>
        <time>2021-09-11T11:46:54.012Z</time>
      </trkpt>
      <trkpt lat="45.90255" lon="5.92865">
        <ele>345</ele>
        <time>2021-09-11T11:46:55.012Z</time>
      </trkpt>
      <trkpt lat="45.90254" lon="5.92862">
        <ele>344</ele>
        <time>2021-09-11T11:46:56.012Z</time>
      </trkpt>
      <trkpt lat="45.90253" lon="5.92859">
        <ele>344</ele>
        <time>2021-09-11T11:46:57.011Z</time>
      </trkpt>
      <trkpt lat="45.90253" lon="5.92856">
        <ele>344</ele>
        <time>2021-09-11T11:46:58.012Z</time>
      </trkpt>
      <trkpt lat="45.90252" lon="5.92854">
        <ele>343</ele>
        <time>2021-09-11T11:46:59.011Z</time>
      </trkpt>
      <trkpt lat="45.90251" lon="5.92851">
        <ele>343</ele>
        <time>2021-09-11T11:47:00.011Z</time>
      </trkpt>
      <trkpt lat="45.9025" lon="5.92849">
        <ele>343</ele>
        <time>2021-09-11T11:47:01.011Z</time>
      </trkpt>
      <trkpt lat="45.90249" lon="5.92847">
        <ele>343</ele>
        <time>2021-09-11T11:47:02.012Z</time>
      </trkpt>
      <trkpt lat="45.90249" lon="5.92846">
        <ele>342</ele>
        <time>2021-09-11T11:47:03.012Z</time>
      </trkpt>
      <trkpt lat="45.90249" lon="5.92844">
        <ele>343</ele>
        <time>2021-09-11T11:47:04.011Z</time>
      </trkpt>
      <trkpt lat="45.90249" lon="5.92843">
        <ele>343</ele>
        <time>2021-09-11T11:47:05.011Z</time>
      </trkpt>
      <trkpt lat="45.90249" lon="5.92842">
        <ele>344</ele>
        <time>2021-09-11T11:47:06.012Z</time>
      </trkpt>
      <trkpt lat="45.90249" lon="5.92842">
        <ele>344</ele>
        <time>2021-09-11T11:47:07.012Z</time>
      </trkpt>
      <trkpt lat="45.9025" lon="5.92842">
        <ele>344</ele>
        <time>2021-09-11T11:47:08.012Z</time>
      </trkpt>
      <trkpt lat="45.9025" lon="5.92842">
        <ele>344</ele>
        <time>2021-09-11T11:47:09.012Z</time>
      </trkpt>
      <trkpt lat="45.90251" lon="5.92843">
        <ele>344</ele>
        <time>2021-09-11T11:47:10.012Z</time>
      </trkpt>
      <trkpt lat="45.90251" lon="5.92845">
        <ele>344</ele>
        <time>2021-09-11T11:47:11.012Z</time>
      </trkpt>
      <trkpt lat="45.9025" lon="5.92847">
        <ele>344</ele>
        <time>2021-09-11T11:47:12.012Z</time>
      </trkpt>
      <trkpt lat="45.90249" lon="5.92849">
        <ele>345</ele>
        <time>2021-09-11T11:47:13.012Z</time>
      </trkpt>
      <trkpt lat="45.90248" lon="5.9285">
        <ele>345</ele>
        <time>2021-09-11T11:47:14.012Z</time>
      </trkpt>
      <trkpt lat="45.90245" lon="5.92851">
        <ele>345</ele>
        <time>2021-09-11T11:47:15.012Z</time>
      </trkpt>
      <trkpt lat="45.90243" lon="5.92852">
        <ele>345</ele>
        <time>2021-09-11T11:47:16.012Z</time>
      </trkpt>
      <trkpt lat="45.9024" lon="5.92853">
        <ele>345</ele>
        <time>2021-09-11T11:47:17.011Z</time>
      </trkpt>
      <trkpt lat="45.90237" lon="5.92853">
        <ele>345</ele>
        <time>2021-09-11T11:47:18.012Z</time>
      </trkpt>
      <trkpt lat="45.90235" lon="5.92852">
        <ele>345</ele>
        <time>2021-09-11T11:47:19.012Z</time>
      </trkpt>
      <trkpt lat="45.90232" lon="5.92851">
        <ele>345</ele>
        <time>2021-09-11T11:47:20.012Z</time>
      </trkpt>
      <trkpt lat="45.9023" lon="5.9285">
        <ele>345</ele>
        <time>2021-09-11T11:47:21.012Z</time>
      </trkpt>
      <trkpt lat="45.90228" lon="5.92847">
        <ele>344</ele>
        <time>2021-09-11T11:47:22.012Z</time>
      </trkpt>
      <trkpt lat="45.90226" lon="5.92845">
        <ele>344</ele>
        <time>2021-09-11T11:47:23.012Z</time>
      </trkpt>
      <trkpt lat="45.90225" lon="5.92843">
        <ele>344</ele>
        <time>2021-09-11T11:47:24.012Z</time>
      </trkpt>
      <trkpt lat="45.90223" lon="5.9284">
        <ele>344</ele>
        <time>2021-09-11T11:47:25.012Z</time>
      </trkpt>
      <trkpt lat="45.90222" lon="5.92838">
        <ele>344</ele>
        <time>2021-09-11T11:47:26.011Z</time>
      </trkpt>
      <trkpt lat="45.90221" lon="5.92835">
        <ele>343</ele>
        <time>2021-09-11T11:47:27.012Z</time>
      </trkpt>
      <trkpt lat="45.90221" lon="5.92833">
        <ele>343</ele>
        <time>2021-09-11T11:47:28.011Z</time>
      </trkpt>
      <trkpt lat="45.9022" lon="5.92831">
        <ele>343</ele>
        <time>2021-09-11T11:47:29.012Z</time>
      </trkpt>
      <trkpt lat="45.9022" lon="5.92829">
        <ele>343</ele>
        <time>2021-09-11T11:47:30.012Z</time>
      </trkpt>
      <trkpt lat="45.90219" lon="5.92827">
        <ele>343</ele>
        <time>2021-09-11T11:47:31.011Z</time>
      </trkpt>
      <trkpt lat="45.90219" lon="5.92826">
        <ele>343</ele>
        <time>2021-09-11T11:47:32.012Z</time>
      </trkpt>
      <trkpt lat="45.90219" lon="5.92825">
        <ele>343</ele>
        <time>2021-09-11T11:47:33.012Z</time>
      </trkpt>
      <trkpt lat="45.90219" lon="5.92823">
        <ele>343</ele>
        <time>2021-09-11T11:47:34.012Z</time>
      </trkpt>
      <trkpt lat="45.90218" lon="5.92822">
        <ele>343</ele>
        <time>2021-09-11T11:47:35.012Z</time>
      </trkpt>
      <trkpt lat="45.90218" lon="5.92821">
        <ele>343</ele>
        <time>2021-09-11T11:47:36.012Z</time>
      </trkpt>
      <trkpt lat="45.90218" lon="5.92821">
        <ele>343</ele>
        <time>2021-09-11T11:47:37.011Z</time>
      </trkpt>
      <trkpt lat="45.90218" lon="5.92821">
        <ele>343</ele>
        <time>2021-09-11T11:47:38.011Z</time>
      </trkpt>
      <trkpt lat="45.90219" lon="5.92821">
        <ele>344</ele>
        <time>2021-09-11T11:47:39.011Z</time>
      </trkpt>
      <trkpt lat="45.90219" lon="5.92821">
        <ele>344</ele>
        <time>2021-09-11T11:47:40.011Z</time>
      </trkpt>
      <trkpt lat="45.9022" lon="5.92823">
        <ele>342</ele>
        <time>2021-09-11T11:47:41.013Z</time>
      </trkpt>
      <trkpt lat="45.90221" lon="5.92823">
        <ele>342</ele>
        <time>2021-09-11T11:47:42.013Z</time>
      </trkpt>
      <trkpt lat="45.90221" lon="5.92824">
        <ele>341</ele>
        <time>2021-09-11T11:47:43.012Z</time>
      </trkpt>
      <trkpt lat="45.90221" lon="5.92825">
        <ele>341</ele>
        <time>2021-09-11T11:47:44.013Z</time>
      </trkpt>
      <trkpt lat="45.90224" lon="5.92822">
        <ele>337</ele>
        <time>2021-09-11T11:47:45.013Z</time>
      </trkpt>
      <trkpt lat="45.90225" lon="5.92821">
        <ele>337</ele>
        <time>2021-09-11T11:47:46.013Z</time>
      </trkpt>
      <trkpt lat="45.90226" lon="5.9282">
        <ele>338</ele>
        <time>2021-09-11T11:47:47.012Z</time>
      </trkpt>
      <trkpt lat="45.90227" lon="5.92819">
        <ele>339</ele>
        <time>2021-09-11T11:47:48.012Z</time>
      </trkpt>
      <trkpt lat="45.90228" lon="5.92818">
        <ele>339</ele>
        <time>2021-09-11T11:47:49.013Z</time>
      </trkpt>
      <trkpt lat="45.90228" lon="5.92817">
        <ele>339</ele>
        <time>2021-09-11T11:47:50.013Z</time>
      </trkpt>
      <trkpt lat="45.9023" lon="5.92816">
        <ele>338</ele>
        <time>2021-09-11T11:47:51.012Z</time>
      </trkpt>
      <trkpt lat="45.9023" lon="5.92816">
        <ele>338</ele>
        <time>2021-09-11T11:47:52.013Z</time>
      </trkpt>
      <trkpt lat="45.90233" lon="5.92815">
        <ele>343</ele>
        <time>2021-09-11T11:47:53.013Z</time>
      </trkpt>
      <trkpt lat="45.90235" lon="5.92815">
        <ele>344</ele>
        <time>2021-09-11T11:47:54.013Z</time>
      </trkpt>
      <trkpt lat="45.90236" lon="5.92814">
        <ele>344</ele>
        <time>2021-09-11T11:47:55.012Z</time>
      </trkpt>
      <trkpt lat="45.90237" lon="5.92814">
        <ele>344</ele>
        <time>2021-09-11T11:47:56.013Z</time>
      </trkpt>
      <trkpt lat="45.90237" lon="5.92814">
        <ele>344</ele>
        <time>2021-09-11T11:47:57.013Z</time>
      </trkpt>
      <trkpt lat="45.90238" lon="5.92814">
        <ele>345</ele>
        <time>2021-09-11T11:47:58.013Z</time>
      </trkpt>
      <trkpt lat="45.90239" lon="5.92814">
        <ele>345</ele>
        <time>2021-09-11T11:47:59.012Z</time>
      </trkpt>
      <trkpt lat="45.9024" lon="5.92815">
        <ele>344</ele>
        <time>2021-09-11T11:48:00.014Z</time>
      </trkpt>
      <trkpt lat="45.9024" lon="5.92816">
        <ele>343</ele>
        <time>2021-09-11T11:48:01.014Z</time>
      </trkpt>
      <trkpt lat="45.9024" lon="5.92816">
        <ele>342</ele>
        <time>2021-09-11T11:48:02.013Z</time>
      </trkpt>
      <trkpt lat="45.90241" lon="5.92816">
        <ele>342</ele>
        <time>2021-09-11T11:48:03.014Z</time>
      </trkpt>
      <trkpt lat="45.90241" lon="5.92816">
        <ele>342</ele>
        <time>2021-09-11T11:48:04.014Z</time>
      </trkpt>
      <trkpt lat="45.9024" lon="5.92815">
        <ele>341</ele>
        <time>2021-09-11T11:48:05.014Z</time>
      </trkpt>
      <trkpt lat="45.9024" lon="5.92814">
        <ele>340</ele>
        <time>2021-09-11T11:48:06.013Z</time>
      </trkpt>
      <trkpt lat="45.9024" lon="5.92814">
        <ele>339</ele>
        <time>2021-09-11T11:48:07.013Z</time>
      </trkpt>
      <trkpt lat="45.90229" lon="5.92815">
        <ele>347</ele>
        <time>2021-09-11T11:48:08.014Z</time>
      </trkpt>
      <trkpt lat="45.90229" lon="5.92815">
        <ele>347</ele>
        <time>2021-09-11T11:48:09.014Z</time>
      </trkpt>
      <trkpt lat="45.90229" lon="5.92815">
        <ele>347</ele>
        <time>2021-09-11T11:48:10.013Z</time>
      </trkpt>
      <trkpt lat="45.90229" lon="5.92815">
        <ele>347</ele>
        <time>2021-09-11T11:48:11.014Z</time>
      </trkpt>
      <trkpt lat="45.90229" lon="5.92815">
        <ele>347</ele>
        <time>2021-09-11T11:48:12.014Z</time>
      </trkpt>
      <trkpt lat="45.90229" lon="5.92815">
        <ele>347</ele>
        <time>2021-09-11T11:48:13.014Z</time>
      </trkpt>
      <trkpt lat="45.90229" lon="5.92815">
        <ele>347</ele>
        <time>2021-09-11T11:48:14.014Z</time>
      </trkpt>
      <trkpt lat="45.90229" lon="5.92815">
        <ele>346</ele>
        <time>2021-09-11T11:48:15.014Z</time>
      </trkpt>
      <trkpt lat="45.90229" lon="5.92815">
        <ele>346</ele>
        <time>2021-09-11T11:48:16.014Z</time>
      </trkpt>
      <trkpt lat="45.90228" lon="5.92816">
        <ele>346</ele>
        <time>2021-09-11T11:48:17.014Z</time>
      </trkpt>
      <trkpt lat="45.90227" lon="5.92817">
        <ele>346</ele>
        <time>2021-09-11T11:48:18.014Z</time>
      </trkpt>
      <trkpt lat="45.90226" lon="5.92819">
        <ele>346</ele>
        <time>2021-09-11T11:48:19.014Z</time>
      </trkpt>
      <trkpt lat="45.90225" lon="5.92821">
        <ele>346</ele>
        <time>2021-09-11T11:48:20.014Z</time>
      </trkpt>
      <trkpt lat="45.90224" lon="5.92822">
        <ele>345</ele>
        <time>2021-09-11T11:48:21.013Z</time>
      </trkpt>
      <trkpt lat="45.90222" lon="5.92823">
        <ele>345</ele>
        <time>2021-09-11T11:48:22.014Z</time>
      </trkpt>
      <trkpt lat="45.90221" lon="5.92825">
        <ele>345</ele>
        <time>2021-09-11T11:48:23.014Z</time>
      </trkpt>
      <trkpt lat="45.90221" lon="5.92826">
        <ele>345</ele>
        <time>2021-09-11T11:48:24.013Z</time>
      </trkpt>
      <trkpt lat="45.9022" lon="5.92828">
        <ele>344</ele>
        <time>2021-09-11T11:48:25.014Z</time>
      </trkpt>
      <trkpt lat="45.9022" lon="5.92828">
        <ele>344</ele>
        <time>2021-09-11T11:48:26.014Z</time>
      </trkpt>
      <trkpt lat="45.9022" lon="5.92829">
        <ele>343</ele>
        <time>2021-09-11T11:48:27.013Z</time>
      </trkpt>
      <trkpt lat="45.9022" lon="5.92829">
        <ele>343</ele>
        <time>2021-09-11T11:48:28.014Z</time>
      </trkpt>
      <trkpt lat="45.9022" lon="5.9283">
        <ele>342</ele>
        <time>2021-09-11T11:48:29.014Z</time>
      </trkpt>
      <trkpt lat="45.90221" lon="5.9283">
        <ele>341</ele>
        <time>2021-09-11T11:48:30.014Z</time>
      </trkpt>
      <trkpt lat="45.90221" lon="5.9283">
        <ele>340</ele>
        <time>2021-09-11T11:48:31.014Z</time>
      </trkpt>
      <trkpt lat="45.90221" lon="5.9283">
        <ele>340</ele>
        <time>2021-09-11T11:48:32.013Z</time>
      </trkpt>
      <trkpt lat="45.90221" lon="5.9283">
        <ele>339</ele>
        <time>2021-09-11T11:48:33.014Z</time>
      </trkpt>
      <trkpt lat="45.90221" lon="5.9283">
        <ele>339</ele>
        <time>2021-09-11T11:48:34.014Z</time>
      </trkpt>
      <trkpt lat="45.90221" lon="5.9283">
        <ele>338</ele>
        <time>2021-09-11T11:48:35.013Z</time>
      </trkpt>
      <trkpt lat="45.90221" lon="5.9283">
        <ele>338</ele>
        <time>2021-09-11T11:48:36.013Z</time>
      </trkpt>
      <trkpt lat="45.90221" lon="5.9283">
        <ele>338</ele>
        <time>2021-09-11T11:48:37.014Z</time>
      </trkpt>
      <trkpt lat="45.90221" lon="5.9283">
        <ele>337</ele>
        <time>2021-09-11T11:48:38.013Z</time>
      </trkpt>
      <trkpt lat="45.90221" lon="5.9283">
        <ele>337</ele>
        <time>2021-09-11T11:48:39.014Z</time>
      </trkpt>
      <trkpt lat="45.90221" lon="5.9283">
        <ele>338</ele>
        <time>2021-09-11T11:48:40.014Z</time>
      </trkpt>
      <trkpt lat="45.90221" lon="5.9283">
        <ele>338</ele>
        <time>2021-09-11T11:48:41.014Z</time>
      </trkpt>
      <trkpt lat="45.90221" lon="5.9283">
        <ele>338</ele>
        <time>2021-09-11T11:48:42.014Z</time>
      </trkpt>
      <trkpt lat="45.90221" lon="5.9283">
        <ele>338</ele>
        <time>2021-09-11T11:48:43.014Z</time>
      </trkpt>
      <trkpt lat="45.90221" lon="5.9283">
        <ele>338</ele>
        <time>2021-09-11T11:48:44.013Z</time>
      </trkpt>
      <trkpt lat="45.90221" lon="5.9283">
        <ele>338</ele>
        <time>2021-09-11T11:48:45.014Z</time>
      </trkpt>
      <trkpt lat="45.90221" lon="5.9283">
        <ele>338</ele>
        <time>2021-09-11T11:48:46.014Z</time>
      </trkpt>
      <trkpt lat="45.90221" lon="5.9283">
        <ele>338</ele>
        <time>2021-09-11T11:48:47.014Z</time>
      </trkpt>
      <trkpt lat="45.90221" lon="5.9283">
        <ele>338</ele>
        <time>2021-09-11T11:48:48.013Z</time>
      </trkpt>
      <trkpt lat="45.90221" lon="5.9283">
        <ele>338</ele>
        <time>2021-09-11T11:48:49.014Z</time>
      </trkpt>
      <trkpt lat="45.90221" lon="5.92829">
        <ele>338</ele>
        <time>2021-09-11T11:48:50.014Z</time>
      </trkpt>
      <trkpt lat="45.90221" lon="5.92829">
        <ele>338</ele>
        <time>2021-09-11T11:48:51.014Z</time>
      </trkpt>
      <trkpt lat="45.90221" lon="5.92829">
        <ele>338</ele>
        <time>2021-09-11T11:48:52.014Z</time>
      </trkpt>
      <trkpt lat="45.90221" lon="5.92828">
        <ele>338</ele>
        <time>2021-09-11T11:48:53.014Z</time>
      </trkpt>
      <trkpt lat="45.90221" lon="5.92828">
        <ele>338</ele>
        <time>2021-09-11T11:48:54.013Z</time>
      </trkpt>
      <trkpt lat="45.90221" lon="5.92828">
        <ele>338</ele>
        <time>2021-09-11T11:48:55.014Z</time>
      </trkpt>
      <trkpt lat="45.90221" lon="5.92828">
        <ele>338</ele>
        <time>2021-09-11T11:48:56.013Z</time>
      </trkpt>
      <trkpt lat="45.90221" lon="5.92828">
        <ele>338</ele>
        <time>2021-09-11T11:48:57.013Z</time>
      </trkpt>
      <trkpt lat="45.90221" lon="5.92828">
        <ele>338</ele>
        <time>2021-09-11T11:48:58.014Z</time>
      </trkpt>
      <trkpt lat="45.90222" lon="5.92831">
        <ele>338</ele>
        <time>2021-09-11T11:48:59.014Z</time>
      </trkpt>
      <trkpt lat="45.90223" lon="5.92834">
        <ele>338</ele>
        <time>2021-09-11T11:49:00.013Z</time>
      </trkpt>
      <trkpt lat="45.90224" lon="5.92837">
        <ele>339</ele>
        <time>2021-09-11T11:49:01.013Z</time>
      </trkpt>
      <trkpt lat="45.90225" lon="5.9284">
        <ele>339</ele>
        <time>2021-09-11T11:49:02.013Z</time>
      </trkpt>
      <trkpt lat="45.90227" lon="5.92844">
        <ele>340</ele>
        <time>2021-09-11T11:49:03.013Z</time>
      </trkpt>
      <trkpt lat="45.90228" lon="5.92847">
        <ele>340</ele>
        <time>2021-09-11T11:49:04.014Z</time>
      </trkpt>
      <trkpt lat="45.9023" lon="5.9285">
        <ele>340</ele>
        <time>2021-09-11T11:49:05.014Z</time>
      </trkpt>
      <trkpt lat="45.90232" lon="5.92853">
        <ele>340</ele>
        <time>2021-09-11T11:49:06.014Z</time>
      </trkpt>
      <trkpt lat="45.90234" lon="5.92857">
        <ele>340</ele>
        <time>2021-09-11T11:49:07.014Z</time>
      </trkpt>
      <trkpt lat="45.90237" lon="5.9286">
        <ele>340</ele>
        <time>2021-09-11T11:49:08.013Z</time>
      </trkpt>
      <trkpt lat="45.90239" lon="5.92862">
        <ele>340</ele>
        <time>2021-09-11T11:49:09.013Z</time>
      </trkpt>
      <trkpt lat="45.90241" lon="5.92864">
        <ele>340</ele>
        <time>2021-09-11T11:49:10.014Z</time>
      </trkpt>
      <trkpt lat="45.90243" lon="5.92865">
        <ele>339</ele>
        <time>2021-09-11T11:49:11.014Z</time>
      </trkpt>
      <trkpt lat="45.90245" lon="5.92864">
        <ele>340</ele>
        <time>2021-09-11T11:49:12.014Z</time>
      </trkpt>
      <trkpt lat="45.90246" lon="5.92862">
        <ele>340</ele>
        <time>2021-09-11T11:49:13.013Z</time>
      </trkpt>
      <trkpt lat="45.90246" lon="5.9286">
        <ele>340</ele>
        <time>2021-09-11T11:49:14.014Z</time>
      </trkpt>
      <trkpt lat="45.90245" lon="5.92859">
        <ele>340</ele>
        <time>2021-09-11T11:49:15.014Z</time>
      </trkpt>
      <trkpt lat="45.90243" lon="5.92859">
        <ele>340</ele>
        <time>2021-09-11T11:49:16.014Z</time>
      </trkpt>
      <trkpt lat="45.90241" lon="5.9286">
        <ele>340</ele>
        <time>2021-09-11T11:49:17.014Z</time>
      </trkpt>
      <trkpt lat="45.9024" lon="5.92861">
        <ele>341</ele>
        <time>2021-09-11T11:49:18.014Z</time>
      </trkpt>
      <trkpt lat="45.90239" lon="5.92864">
        <ele>341</ele>
        <time>2021-09-11T11:49:19.014Z</time>
      </trkpt>
      <trkpt lat="45.90238" lon="5.92866">
        <ele>340</ele>
        <time>2021-09-11T11:49:20.014Z</time>
      </trkpt>
      <trkpt lat="45.90239" lon="5.92867">
        <ele>340</ele>
        <time>2021-09-11T11:49:21.013Z</time>
      </trkpt>
      <trkpt lat="45.9024" lon="5.92866">
        <ele>340</ele>
        <time>2021-09-11T11:49:22.014Z</time>
      </trkpt>
      <trkpt lat="45.90241" lon="5.92864">
        <ele>340</ele>
        <time>2021-09-11T11:49:23.014Z</time>
      </trkpt>
      <trkpt lat="45.9024" lon="5.92863">
        <ele>340</ele>
        <time>2021-09-11T11:49:24.014Z</time>
      </trkpt>
      <trkpt lat="45.90239" lon="5.92861">
        <ele>340</ele>
        <time>2021-09-11T11:49:25.014Z</time>
      </trkpt>
      <trkpt lat="45.90239" lon="5.9286">
        <ele>339</ele>
        <time>2021-09-11T11:49:26.014Z</time>
      </trkpt>
      <trkpt lat="45.90239" lon="5.9286">
        <ele>339</ele>
        <time>2021-09-11T11:49:27.014Z</time>
      </trkpt>
      <trkpt lat="45.90239" lon="5.92859">
        <ele>339</ele>
        <time>2021-09-11T11:49:28.014Z</time>
      </trkpt>
      <trkpt lat="45.90239" lon="5.9286">
        <ele>339</ele>
        <time>2021-09-11T11:49:29.013Z</time>
      </trkpt>
      <trkpt lat="45.90243" lon="5.92861">
        <ele>339</ele>
        <time>2021-09-11T11:49:30.014Z</time>
      </trkpt>
      <trkpt lat="45.90245" lon="5.92862">
        <ele>339</ele>
        <time>2021-09-11T11:49:31.014Z</time>
      </trkpt>
      <trkpt lat="45.90247" lon="5.92865">
        <ele>339</ele>
        <time>2021-09-11T11:49:32.013Z</time>
      </trkpt>
      <trkpt lat="45.90248" lon="5.92867">
        <ele>338</ele>
        <time>2021-09-11T11:49:33.014Z</time>
      </trkpt>
      <trkpt lat="45.9025" lon="5.9287">
        <ele>338</ele>
        <time>2021-09-11T11:49:34.014Z</time>
      </trkpt>
      <trkpt lat="45.90251" lon="5.92873">
        <ele>338</ele>
        <time>2021-09-11T11:49:35.013Z</time>
      </trkpt>
      <trkpt lat="45.90252" lon="5.92875">
        <ele>337</ele>
        <time>2021-09-11T11:49:36.013Z</time>
      </trkpt>
      <trkpt lat="45.90253" lon="5.92877">
        <ele>337</ele>
        <time>2021-09-11T11:49:37.013Z</time>
      </trkpt>
      <trkpt lat="45.90254" lon="5.92878">
        <ele>337</ele>
        <time>2021-09-11T11:49:38.014Z</time>
      </trkpt>
      <trkpt lat="45.90256" lon="5.92879">
        <ele>337</ele>
        <time>2021-09-11T11:49:39.014Z</time>
      </trkpt>
      <trkpt lat="45.90258" lon="5.92879">
        <ele>337</ele>
        <time>2021-09-11T11:49:40.013Z</time>
      </trkpt>
      <trkpt lat="45.9026" lon="5.92879">
        <ele>337</ele>
        <time>2021-09-11T11:49:41.014Z</time>
      </trkpt>
      <trkpt lat="45.90263" lon="5.92878">
        <ele>338</ele>
        <time>2021-09-11T11:49:42.013Z</time>
      </trkpt>
      <trkpt lat="45.90265" lon="5.92876">
        <ele>337</ele>
        <time>2021-09-11T11:49:43.013Z</time>
      </trkpt>
      <trkpt lat="45.90268" lon="5.92874">
        <ele>338</ele>
        <time>2021-09-11T11:49:44.013Z</time>
      </trkpt>
      <trkpt lat="45.90271" lon="5.92871">
        <ele>338</ele>
        <time>2021-09-11T11:49:45.013Z</time>
      </trkpt>
      <trkpt lat="45.90274" lon="5.92868">
        <ele>338</ele>
        <time>2021-09-11T11:49:46.014Z</time>
      </trkpt>
      <trkpt lat="45.90277" lon="5.92865">
        <ele>338</ele>
        <time>2021-09-11T11:49:47.013Z</time>
      </trkpt>
      <trkpt lat="45.9028" lon="5.92862">
        <ele>338</ele>
        <time>2021-09-11T11:49:48.013Z</time>
      </trkpt>
      <trkpt lat="45.90283" lon="5.92858">
        <ele>338</ele>
        <time>2021-09-11T11:49:49.014Z</time>
      </trkpt>
      <trkpt lat="45.90286" lon="5.92854">
        <ele>338</ele>
        <time>2021-09-11T11:49:50.013Z</time>
      </trkpt>
      <trkpt lat="45.90289" lon="5.92851">
        <ele>338</ele>
        <time>2021-09-11T11:49:51.013Z</time>
      </trkpt>
      <trkpt lat="45.90292" lon="5.92848">
        <ele>337</ele>
        <time>2021-09-11T11:49:52.013Z</time>
      </trkpt>
      <trkpt lat="45.90295" lon="5.92845">
        <ele>337</ele>
        <time>2021-09-11T11:49:53.014Z</time>
      </trkpt>
      <trkpt lat="45.90299" lon="5.92842">
        <ele>337</ele>
        <time>2021-09-11T11:49:54.013Z</time>
      </trkpt>
      <trkpt lat="45.90302" lon="5.92839">
        <ele>337</ele>
        <time>2021-09-11T11:49:55.013Z</time>
      </trkpt>
      <trkpt lat="45.90306" lon="5.92836">
        <ele>337</ele>
        <time>2021-09-11T11:49:56.014Z</time>
      </trkpt>
      <trkpt lat="45.90308" lon="5.92833">
        <ele>337</ele>
        <time>2021-09-11T11:49:57.013Z</time>
      </trkpt>
      <trkpt lat="45.90313" lon="5.92829">
        <ele>337</ele>
        <time>2021-09-11T11:49:58.014Z</time>
      </trkpt>
      <trkpt lat="45.90317" lon="5.92826">
        <ele>338</ele>
        <time>2021-09-11T11:49:59.014Z</time>
      </trkpt>
      <trkpt lat="45.9032" lon="5.92823">
        <ele>338</ele>
        <time>2021-09-11T11:50:00.014Z</time>
      </trkpt>
      <trkpt lat="45.90324" lon="5.9282">
        <ele>338</ele>
        <time>2021-09-11T11:50:01.013Z</time>
      </trkpt>
      <trkpt lat="45.90327" lon="5.92817">
        <ele>338</ele>
        <time>2021-09-11T11:50:02.013Z</time>
      </trkpt>
      <trkpt lat="45.9033" lon="5.92813">
        <ele>338</ele>
        <time>2021-09-11T11:50:03.014Z</time>
      </trkpt>
      <trkpt lat="45.90334" lon="5.9281">
        <ele>338</ele>
        <time>2021-09-11T11:50:04.014Z</time>
      </trkpt>
      <trkpt lat="45.90337" lon="5.92807">
        <ele>338</ele>
        <time>2021-09-11T11:50:05.014Z</time>
      </trkpt>
      <trkpt lat="45.90341" lon="5.92803">
        <ele>338</ele>
        <time>2021-09-11T11:50:06.013Z</time>
      </trkpt>
      <trkpt lat="45.90345" lon="5.92799">
        <ele>338</ele>
        <time>2021-09-11T11:50:07.013Z</time>
      </trkpt>
      <trkpt lat="45.90349" lon="5.92795">
        <ele>338</ele>
        <time>2021-09-11T11:50:08.013Z</time>
      </trkpt>
      <trkpt lat="45.90353" lon="5.92791">
        <ele>338</ele>
        <time>2021-09-11T11:50:09.013Z</time>
      </trkpt>
      <trkpt lat="45.90357" lon="5.92787">
        <ele>338</ele>
        <time>2021-09-11T11:50:10.014Z</time>
      </trkpt>
      <trkpt lat="45.90361" lon="5.92783">
        <ele>338</ele>
        <time>2021-09-11T11:50:11.013Z</time>
      </trkpt>
      <trkpt lat="45.90365" lon="5.92779">
        <ele>338</ele>
        <time>2021-09-11T11:50:12.014Z</time>
      </trkpt>
      <trkpt lat="45.90369" lon="5.92775">
        <ele>338</ele>
        <time>2021-09-11T11:50:13.014Z</time>
      </trkpt>
      <trkpt lat="45.90374" lon="5.9277">
        <ele>338</ele>
        <time>2021-09-11T11:50:14.013Z</time>
      </trkpt>
      <trkpt lat="45.90378" lon="5.92766">
        <ele>337</ele>
        <time>2021-09-11T11:50:15.014Z</time>
      </trkpt>
      <trkpt lat="45.90382" lon="5.92762">
        <ele>337</ele>
        <time>2021-09-11T11:50:16.013Z</time>
      </trkpt>
      <trkpt lat="45.90387" lon="5.92757">
        <ele>337</ele>
        <time>2021-09-11T11:50:17.013Z</time>
      </trkpt>
      <trkpt lat="45.90391" lon="5.92752">
        <ele>337</ele>
        <time>2021-09-11T11:50:18.013Z</time>
      </trkpt>
      <trkpt lat="45.90396" lon="5.92747">
        <ele>337</ele>
        <time>2021-09-11T11:50:19.014Z</time>
      </trkpt>
      <trkpt lat="45.90401" lon="5.92742">
        <ele>337</ele>
        <time>2021-09-11T11:50:20.013Z</time>
      </trkpt>
      <trkpt lat="45.90405" lon="5.92738">
        <ele>337</ele>
        <time>2021-09-11T11:50:21.014Z</time>
      </trkpt>
      <trkpt lat="45.9041" lon="5.92733">
        <ele>337</ele>
        <time>2021-09-11T11:50:22.014Z</time>
      </trkpt>
      <trkpt lat="45.90415" lon="5.92727">
        <ele>336</ele>
        <time>2021-09-11T11:50:23.013Z</time>
      </trkpt>
      <trkpt lat="45.90421" lon="5.92722">
        <ele>336</ele>
        <time>2021-09-11T11:50:24.014Z</time>
      </trkpt>
      <trkpt lat="45.90426" lon="5.92717">
        <ele>336</ele>
        <time>2021-09-11T11:50:25.013Z</time>
      </trkpt>
      <trkpt lat="45.90431" lon="5.92712">
        <ele>336</ele>
        <time>2021-09-11T11:50:26.013Z</time>
      </trkpt>
      <trkpt lat="45.90437" lon="5.92707">
        <ele>336</ele>
        <time>2021-09-11T11:50:27.013Z</time>
      </trkpt>
      <trkpt lat="45.90442" lon="5.92701">
        <ele>336</ele>
        <time>2021-09-11T11:50:28.013Z</time>
      </trkpt>
      <trkpt lat="45.90447" lon="5.92696">
        <ele>336</ele>
        <time>2021-09-11T11:50:29.014Z</time>
      </trkpt>
      <trkpt lat="45.90453" lon="5.9269">
        <ele>336</ele>
        <time>2021-09-11T11:50:30.014Z</time>
      </trkpt>
      <trkpt lat="45.90458" lon="5.92684">
        <ele>335</ele>
        <time>2021-09-11T11:50:31.013Z</time>
      </trkpt>
      <trkpt lat="45.90464" lon="5.92679">
        <ele>335</ele>
        <time>2021-09-11T11:50:32.013Z</time>
      </trkpt>
      <trkpt lat="45.90469" lon="5.92673">
        <ele>335</ele>
        <time>2021-09-11T11:50:33.013Z</time>
      </trkpt>
      <trkpt lat="45.90475" lon="5.92668">
        <ele>335</ele>
        <time>2021-09-11T11:50:34.014Z</time>
      </trkpt>
      <trkpt lat="45.90481" lon="5.92662">
        <ele>335</ele>
        <time>2021-09-11T11:50:35.013Z</time>
      </trkpt>
      <trkpt lat="45.90487" lon="5.92656">
        <ele>335</ele>
        <time>2021-09-11T11:50:36.013Z</time>
      </trkpt>
      <trkpt lat="45.90493" lon="5.9265">
        <ele>335</ele>
        <time>2021-09-11T11:50:37.013Z</time>
      </trkpt>
      <trkpt lat="45.90499" lon="5.92644">
        <ele>335</ele>
        <time>2021-09-11T11:50:38.013Z</time>
      </trkpt>
      <trkpt lat="45.90505" lon="5.92638">
        <ele>335</ele>
        <time>2021-09-11T11:50:39.014Z</time>
      </trkpt>
      <trkpt lat="45.90511" lon="5.92632">
        <ele>334</ele>
        <time>2021-09-11T11:50:40.014Z</time>
      </trkpt>
      <trkpt lat="45.90515" lon="5.92627">
        <ele>334</ele>
        <time>2021-09-11T11:50:41.013Z</time>
      </trkpt>
      <trkpt lat="45.90523" lon="5.9262">
        <ele>334</ele>
        <time>2021-09-11T11:50:42.013Z</time>
      </trkpt>
      <trkpt lat="45.90529" lon="5.92614">
        <ele>333</ele>
        <time>2021-09-11T11:50:43.013Z</time>
      </trkpt>
      <trkpt lat="45.90535" lon="5.92608">
        <ele>333</ele>
        <time>2021-09-11T11:50:44.014Z</time>
      </trkpt>
      <trkpt lat="45.90541" lon="5.92602">
        <ele>333</ele>
        <time>2021-09-11T11:50:45.013Z</time>
      </trkpt>
      <trkpt lat="45.90547" lon="5.92596">
        <ele>332</ele>
        <time>2021-09-11T11:50:46.013Z</time>
      </trkpt>
      <trkpt lat="45.90553" lon="5.9259">
        <ele>332</ele>
        <time>2021-09-11T11:50:47.013Z</time>
      </trkpt>
      <trkpt lat="45.90559" lon="5.92584">
        <ele>332</ele>
        <time>2021-09-11T11:50:48.014Z</time>
      </trkpt>
      <trkpt lat="45.90565" lon="5.92577">
        <ele>332</ele>
        <time>2021-09-11T11:50:49.013Z</time>
      </trkpt>
      <trkpt lat="45.90571" lon="5.92571">
        <ele>332</ele>
        <time>2021-09-11T11:50:50.013Z</time>
      </trkpt>
      <trkpt lat="45.90577" lon="5.92566">
        <ele>332</ele>
        <time>2021-09-11T11:50:51.013Z</time>
      </trkpt>
      <trkpt lat="45.90583" lon="5.9256">
        <ele>332</ele>
        <time>2021-09-11T11:50:52.014Z</time>
      </trkpt>
      <trkpt lat="45.90589" lon="5.92554">
        <ele>333</ele>
        <time>2021-09-11T11:50:53.014Z</time>
      </trkpt>
      <trkpt lat="45.90594" lon="5.92548">
        <ele>333</ele>
        <time>2021-09-11T11:50:54.013Z</time>
      </trkpt>
      <trkpt lat="45.90599" lon="5.92542">
        <ele>333</ele>
        <time>2021-09-11T11:50:55.013Z</time>
      </trkpt>
      <trkpt lat="45.90605" lon="5.92537">
        <ele>333</ele>
        <time>2021-09-11T11:50:56.014Z</time>
      </trkpt>
      <trkpt lat="45.9061" lon="5.92532">
        <ele>333</ele>
        <time>2021-09-11T11:50:57.013Z</time>
      </trkpt>
      <trkpt lat="45.90616" lon="5.92527">
        <ele>333</ele>
        <time>2021-09-11T11:50:58.013Z</time>
      </trkpt>
      <trkpt lat="45.90621" lon="5.92521">
        <ele>333</ele>
        <time>2021-09-11T11:50:59.013Z</time>
      </trkpt>
      <trkpt lat="45.90627" lon="5.92516">
        <ele>332</ele>
        <time>2021-09-11T11:51:00.013Z</time>
      </trkpt>
      <trkpt lat="45.90632" lon="5.9251">
        <ele>332</ele>
        <time>2021-09-11T11:51:01.014Z</time>
      </trkpt>
      <trkpt lat="45.90637" lon="5.92504">
        <ele>332</ele>
        <time>2021-09-11T11:51:02.013Z</time>
      </trkpt>
      <trkpt lat="45.90642" lon="5.92499">
        <ele>332</ele>
        <time>2021-09-11T11:51:03.013Z</time>
      </trkpt>
      <trkpt lat="45.90647" lon="5.92493">
        <ele>331</ele>
        <time>2021-09-11T11:51:04.014Z</time>
      </trkpt>
      <trkpt lat="45.90651" lon="5.92486">
        <ele>331</ele>
        <time>2021-09-11T11:51:05.014Z</time>
      </trkpt>
      <trkpt lat="45.90656" lon="5.92479">
        <ele>331</ele>
        <time>2021-09-11T11:51:06.013Z</time>
      </trkpt>
      <trkpt lat="45.9066" lon="5.92472">
        <ele>331</ele>
        <time>2021-09-11T11:51:07.013Z</time>
      </trkpt>
      <trkpt lat="45.90664" lon="5.92465">
        <ele>331</ele>
        <time>2021-09-11T11:51:08.014Z</time>
      </trkpt>
      <trkpt lat="45.90668" lon="5.92458">
        <ele>331</ele>
        <time>2021-09-11T11:51:09.013Z</time>
      </trkpt>
      <trkpt lat="45.90672" lon="5.9245">
        <ele>331</ele>
        <time>2021-09-11T11:51:10.014Z</time>
      </trkpt>
      <trkpt lat="45.90676" lon="5.92443">
        <ele>331</ele>
        <time>2021-09-11T11:51:11.013Z</time>
      </trkpt>
      <trkpt lat="45.9068" lon="5.92435">
        <ele>331</ele>
        <time>2021-09-11T11:51:12.013Z</time>
      </trkpt>
      <trkpt lat="45.90684" lon="5.92428">
        <ele>332</ele>
        <time>2021-09-11T11:51:13.013Z</time>
      </trkpt>
      <trkpt lat="45.90689" lon="5.9242">
        <ele>332</ele>
        <time>2021-09-11T11:51:14.013Z</time>
      </trkpt>
      <trkpt lat="45.90693" lon="5.92413">
        <ele>332</ele>
        <time>2021-09-11T11:51:15.013Z</time>
      </trkpt>
      <trkpt lat="45.90697" lon="5.92405">
        <ele>332</ele>
        <time>2021-09-11T11:51:16.013Z</time>
      </trkpt>
      <trkpt lat="45.90701" lon="5.92398">
        <ele>332</ele>
        <time>2021-09-11T11:51:17.013Z</time>
      </trkpt>
      <trkpt lat="45.90706" lon="5.9239">
        <ele>332</ele>
        <time>2021-09-11T11:51:18.013Z</time>
      </trkpt>
      <trkpt lat="45.9071" lon="5.92383">
        <ele>332</ele>
        <time>2021-09-11T11:51:19.013Z</time>
      </trkpt>
      <trkpt lat="45.90715" lon="5.92376">
        <ele>331</ele>
        <time>2021-09-11T11:51:20.013Z</time>
      </trkpt>
      <trkpt lat="45.9072" lon="5.92369">
        <ele>331</ele>
        <time>2021-09-11T11:51:21.013Z</time>
      </trkpt>
      <trkpt lat="45.90725" lon="5.92363">
        <ele>331</ele>
        <time>2021-09-11T11:51:22.014Z</time>
      </trkpt>
      <trkpt lat="45.9073" lon="5.92357">
        <ele>331</ele>
        <time>2021-09-11T11:51:23.014Z</time>
      </trkpt>
      <trkpt lat="45.90736" lon="5.92352">
        <ele>331</ele>
        <time>2021-09-11T11:51:24.014Z</time>
      </trkpt>
      <trkpt lat="45.90742" lon="5.92346">
        <ele>332</ele>
        <time>2021-09-11T11:51:25.013Z</time>
      </trkpt>
      <trkpt lat="45.90747" lon="5.92341">
        <ele>331</ele>
        <time>2021-09-11T11:51:26.013Z</time>
      </trkpt>
      <trkpt lat="45.90753" lon="5.92335">
        <ele>331</ele>
        <time>2021-09-11T11:51:27.014Z</time>
      </trkpt>
      <trkpt lat="45.90759" lon="5.9233">
        <ele>331</ele>
        <time>2021-09-11T11:51:28.014Z</time>
      </trkpt>
      <trkpt lat="45.90765" lon="5.92325">
        <ele>331</ele>
        <time>2021-09-11T11:51:29.014Z</time>
      </trkpt>
      <trkpt lat="45.90771" lon="5.9232">
        <ele>331</ele>
        <time>2021-09-11T11:51:30.013Z</time>
      </trkpt>
      <trkpt lat="45.90777" lon="5.92315">
        <ele>331</ele>
        <time>2021-09-11T11:51:31.014Z</time>
      </trkpt>
      <trkpt lat="45.90783" lon="5.9231">
        <ele>331</ele>
        <time>2021-09-11T11:51:32.013Z</time>
      </trkpt>
      <trkpt lat="45.90789" lon="5.92305">
        <ele>331</ele>
        <time>2021-09-11T11:51:33.013Z</time>
      </trkpt>
      <trkpt lat="45.90795" lon="5.923">
        <ele>331</ele>
        <time>2021-09-11T11:51:34.014Z</time>
      </trkpt>
      <trkpt lat="45.90801" lon="5.92295">
        <ele>331</ele>
        <time>2021-09-11T11:51:35.013Z</time>
      </trkpt>
      <trkpt lat="45.90807" lon="5.9229">
        <ele>331</ele>
        <time>2021-09-11T11:51:36.013Z</time>
      </trkpt>
      <trkpt lat="45.90813" lon="5.92285">
        <ele>330</ele>
        <time>2021-09-11T11:51:37.013Z</time>
      </trkpt>
      <trkpt lat="45.90818" lon="5.9228">
        <ele>330</ele>
        <time>2021-09-11T11:51:38.013Z</time>
      </trkpt>
      <trkpt lat="45.90824" lon="5.92274">
        <ele>330</ele>
        <time>2021-09-11T11:51:39.014Z</time>
      </trkpt>
      <trkpt lat="45.9083" lon="5.9227">
        <ele>331</ele>
        <time>2021-09-11T11:51:40.013Z</time>
      </trkpt>
      <trkpt lat="45.90835" lon="5.92264">
        <ele>330</ele>
        <time>2021-09-11T11:51:41.013Z</time>
      </trkpt>
      <trkpt lat="45.90841" lon="5.92259">
        <ele>330</ele>
        <time>2021-09-11T11:51:42.014Z</time>
      </trkpt>
      <trkpt lat="45.90847" lon="5.92254">
        <ele>330</ele>
        <time>2021-09-11T11:51:43.014Z</time>
      </trkpt>
      <trkpt lat="45.90853" lon="5.92249">
        <ele>330</ele>
        <time>2021-09-11T11:51:44.013Z</time>
      </trkpt>
      <trkpt lat="45.90858" lon="5.92244">
        <ele>329</ele>
        <time>2021-09-11T11:51:45.014Z</time>
      </trkpt>
      <trkpt lat="45.90864" lon="5.92239">
        <ele>329</ele>
        <time>2021-09-11T11:51:46.013Z</time>
      </trkpt>
      <trkpt lat="45.9087" lon="5.92234">
        <ele>329</ele>
        <time>2021-09-11T11:51:47.013Z</time>
      </trkpt>
      <trkpt lat="45.90877" lon="5.92229">
        <ele>328</ele>
        <time>2021-09-11T11:51:48.014Z</time>
      </trkpt>
      <trkpt lat="45.90882" lon="5.92224">
        <ele>328</ele>
        <time>2021-09-11T11:51:49.013Z</time>
      </trkpt>
      <trkpt lat="45.90888" lon="5.92219">
        <ele>329</ele>
        <time>2021-09-11T11:51:50.013Z</time>
      </trkpt>
      <trkpt lat="45.90893" lon="5.92214">
        <ele>329</ele>
        <time>2021-09-11T11:51:51.014Z</time>
      </trkpt>
      <trkpt lat="45.909" lon="5.92208">
        <ele>329</ele>
        <time>2021-09-11T11:51:52.013Z</time>
      </trkpt>
      <trkpt lat="45.90906" lon="5.92203">
        <ele>328</ele>
        <time>2021-09-11T11:51:53.013Z</time>
      </trkpt>
      <trkpt lat="45.90912" lon="5.92198">
        <ele>328</ele>
        <time>2021-09-11T11:51:54.013Z</time>
      </trkpt>
      <trkpt lat="45.90917" lon="5.92193">
        <ele>328</ele>
        <time>2021-09-11T11:51:55.013Z</time>
      </trkpt>
      <trkpt lat="45.90923" lon="5.92187">
        <ele>328</ele>
        <time>2021-09-11T11:51:56.013Z</time>
      </trkpt>
      <trkpt lat="45.90929" lon="5.92182">
        <ele>328</ele>
        <time>2021-09-11T11:51:57.013Z</time>
      </trkpt>
      <trkpt lat="45.90935" lon="5.92177">
        <ele>328</ele>
        <time>2021-09-11T11:51:58.013Z</time>
      </trkpt>
      <trkpt lat="45.9094" lon="5.92173">
        <ele>328</ele>
        <time>2021-09-11T11:51:59.013Z</time>
      </trkpt>
      <trkpt lat="45.90946" lon="5.92168">
        <ele>328</ele>
        <time>2021-09-11T11:52:00.013Z</time>
      </trkpt>
      <trkpt lat="45.90952" lon="5.92163">
        <ele>328</ele>
        <time>2021-09-11T11:52:01.014Z</time>
      </trkpt>
      <trkpt lat="45.90958" lon="5.92158">
        <ele>328</ele>
        <time>2021-09-11T11:52:02.013Z</time>
      </trkpt>
      <trkpt lat="45.90964" lon="5.92154">
        <ele>328</ele>
        <time>2021-09-11T11:52:03.013Z</time>
      </trkpt>
      <trkpt lat="45.9097" lon="5.92149">
        <ele>328</ele>
        <time>2021-09-11T11:52:04.014Z</time>
      </trkpt>
      <trkpt lat="45.90976" lon="5.92144">
        <ele>328</ele>
        <time>2021-09-11T11:52:05.013Z</time>
      </trkpt>
      <trkpt lat="45.90981" lon="5.92138">
        <ele>328</ele>
        <time>2021-09-11T11:52:06.013Z</time>
      </trkpt>
      <trkpt lat="45.90987" lon="5.92133">
        <ele>328</ele>
        <time>2021-09-11T11:52:07.013Z</time>
      </trkpt>
      <trkpt lat="45.90993" lon="5.92128">
        <ele>328</ele>
        <time>2021-09-11T11:52:08.014Z</time>
      </trkpt>
      <trkpt lat="45.90999" lon="5.92123">
        <ele>328</ele>
        <time>2021-09-11T11:52:09.013Z</time>
      </trkpt>
      <trkpt lat="45.91005" lon="5.92118">
        <ele>328</ele>
        <time>2021-09-11T11:52:10.013Z</time>
      </trkpt>
      <trkpt lat="45.91011" lon="5.92113">
        <ele>328</ele>
        <time>2021-09-11T11:52:11.013Z</time>
      </trkpt>
      <trkpt lat="45.91017" lon="5.92107">
        <ele>328</ele>
        <time>2021-09-11T11:52:12.013Z</time>
      </trkpt>
      <trkpt lat="45.91023" lon="5.92102">
        <ele>328</ele>
        <time>2021-09-11T11:52:13.013Z</time>
      </trkpt>
      <trkpt lat="45.91029" lon="5.92098">
        <ele>327</ele>
        <time>2021-09-11T11:52:14.014Z</time>
      </trkpt>
      <trkpt lat="45.91035" lon="5.92093">
        <ele>327</ele>
        <time>2021-09-11T11:52:15.014Z</time>
      </trkpt>
      <trkpt lat="45.9104" lon="5.92088">
        <ele>327</ele>
        <time>2021-09-11T11:52:16.013Z</time>
      </trkpt>
      <trkpt lat="45.91046" lon="5.92082">
        <ele>327</ele>
        <time>2021-09-11T11:52:17.013Z</time>
      </trkpt>
      <trkpt lat="45.91052" lon="5.92077">
        <ele>327</ele>
        <time>2021-09-11T11:52:18.013Z</time>
      </trkpt>
      <trkpt lat="45.91056" lon="5.92073">
        <ele>327</ele>
        <time>2021-09-11T11:52:19.013Z</time>
      </trkpt>
      <trkpt lat="45.91063" lon="5.92066">
        <ele>327</ele>
        <time>2021-09-11T11:52:20.013Z</time>
      </trkpt>
      <trkpt lat="45.91069" lon="5.92061">
        <ele>327</ele>
        <time>2021-09-11T11:52:21.013Z</time>
      </trkpt>
      <trkpt lat="45.91074" lon="5.92056">
        <ele>327</ele>
        <time>2021-09-11T11:52:22.014Z</time>
      </trkpt>
      <trkpt lat="45.9108" lon="5.92051">
        <ele>327</ele>
        <time>2021-09-11T11:52:23.013Z</time>
      </trkpt>
      <trkpt lat="45.91086" lon="5.92045">
        <ele>327</ele>
        <time>2021-09-11T11:52:24.013Z</time>
      </trkpt>
      <trkpt lat="45.91091" lon="5.9204">
        <ele>327</ele>
        <time>2021-09-11T11:52:25.014Z</time>
      </trkpt>
      <trkpt lat="45.91097" lon="5.92035">
        <ele>326</ele>
        <time>2021-09-11T11:52:26.013Z</time>
      </trkpt>
      <trkpt lat="45.91103" lon="5.92029">
        <ele>326</ele>
        <time>2021-09-11T11:52:27.013Z</time>
      </trkpt>
      <trkpt lat="45.91109" lon="5.92024">
        <ele>326</ele>
        <time>2021-09-11T11:52:28.014Z</time>
      </trkpt>
      <trkpt lat="45.91115" lon="5.9202">
        <ele>326</ele>
        <time>2021-09-11T11:52:29.013Z</time>
      </trkpt>
      <trkpt lat="45.91121" lon="5.92014">
        <ele>326</ele>
        <time>2021-09-11T11:52:30.014Z</time>
      </trkpt>
      <trkpt lat="45.91126" lon="5.92009">
        <ele>326</ele>
        <time>2021-09-11T11:52:31.014Z</time>
      </trkpt>
      <trkpt lat="45.91132" lon="5.92004">
        <ele>325</ele>
        <time>2021-09-11T11:52:32.013Z</time>
      </trkpt>
      <trkpt lat="45.91138" lon="5.91999">
        <ele>325</ele>
        <time>2021-09-11T11:52:33.013Z</time>
      </trkpt>
      <trkpt lat="45.91144" lon="5.91994">
        <ele>326</ele>
        <time>2021-09-11T11:52:34.013Z</time>
      </trkpt>
      <trkpt lat="45.9115" lon="5.91989">
        <ele>325</ele>
        <time>2021-09-11T11:52:35.013Z</time>
      </trkpt>
      <trkpt lat="45.91156" lon="5.91984">
        <ele>325</ele>
        <time>2021-09-11T11:52:36.013Z</time>
      </trkpt>
      <trkpt lat="45.91161" lon="5.91979">
        <ele>325</ele>
        <time>2021-09-11T11:52:37.013Z</time>
      </trkpt>
      <trkpt lat="45.91167" lon="5.91973">
        <ele>325</ele>
        <time>2021-09-11T11:52:38.013Z</time>
      </trkpt>
      <trkpt lat="45.91173" lon="5.91968">
        <ele>325</ele>
        <time>2021-09-11T11:52:39.013Z</time>
      </trkpt>
      <trkpt lat="45.91179" lon="5.91963">
        <ele>325</ele>
        <time>2021-09-11T11:52:40.013Z</time>
      </trkpt>
      <trkpt lat="45.91185" lon="5.91957">
        <ele>325</ele>
        <time>2021-09-11T11:52:41.013Z</time>
      </trkpt>
      <trkpt lat="45.91191" lon="5.91952">
        <ele>325</ele>
        <time>2021-09-11T11:52:42.013Z</time>
      </trkpt>
      <trkpt lat="45.91197" lon="5.91947">
        <ele>325</ele>
        <time>2021-09-11T11:52:43.014Z</time>
      </trkpt>
      <trkpt lat="45.91203" lon="5.91942">
        <ele>325</ele>
        <time>2021-09-11T11:52:44.013Z</time>
      </trkpt>
      <trkpt lat="45.91209" lon="5.91937">
        <ele>325</ele>
        <time>2021-09-11T11:52:45.013Z</time>
      </trkpt>
      <trkpt lat="45.91215" lon="5.91932">
        <ele>325</ele>
        <time>2021-09-11T11:52:46.013Z</time>
      </trkpt>
      <trkpt lat="45.91221" lon="5.91927">
        <ele>325</ele>
        <time>2021-09-11T11:52:47.014Z</time>
      </trkpt>
      <trkpt lat="45.91227" lon="5.91922">
        <ele>325</ele>
        <time>2021-09-11T11:52:48.013Z</time>
      </trkpt>
      <trkpt lat="45.91232" lon="5.91916">
        <ele>325</ele>
        <time>2021-09-11T11:52:49.013Z</time>
      </trkpt>
      <trkpt lat="45.91238" lon="5.91911">
        <ele>324</ele>
        <time>2021-09-11T11:52:50.014Z</time>
      </trkpt>
      <trkpt lat="45.91244" lon="5.91906">
        <ele>324</ele>
        <time>2021-09-11T11:52:51.013Z</time>
      </trkpt>
      <trkpt lat="45.9125" lon="5.91901">
        <ele>324</ele>
        <time>2021-09-11T11:52:52.014Z</time>
      </trkpt>
      <trkpt lat="45.91255" lon="5.91896">
        <ele>324</ele>
        <time>2021-09-11T11:52:53.014Z</time>
      </trkpt>
      <trkpt lat="45.91261" lon="5.91891">
        <ele>324</ele>
        <time>2021-09-11T11:52:54.013Z</time>
      </trkpt>
      <trkpt lat="45.91267" lon="5.91886">
        <ele>323</ele>
        <time>2021-09-11T11:52:55.013Z</time>
      </trkpt>
      <trkpt lat="45.91273" lon="5.9188">
        <ele>323</ele>
        <time>2021-09-11T11:52:56.013Z</time>
      </trkpt>
      <trkpt lat="45.91278" lon="5.91876">
        <ele>323</ele>
        <time>2021-09-11T11:52:57.013Z</time>
      </trkpt>
      <trkpt lat="45.91284" lon="5.91869">
        <ele>323</ele>
        <time>2021-09-11T11:52:58.014Z</time>
      </trkpt>
      <trkpt lat="45.9129" lon="5.91863">
        <ele>323</ele>
        <time>2021-09-11T11:52:59.014Z</time>
      </trkpt>
      <trkpt lat="45.91296" lon="5.91858">
        <ele>323</ele>
        <time>2021-09-11T11:53:00.014Z</time>
      </trkpt>
      <trkpt lat="45.91302" lon="5.91852">
        <ele>323</ele>
        <time>2021-09-11T11:53:01.014Z</time>
      </trkpt>
      <trkpt lat="45.91308" lon="5.91847">
        <ele>322</ele>
        <time>2021-09-11T11:53:02.013Z</time>
      </trkpt>
      <trkpt lat="45.91313" lon="5.91842">
        <ele>322</ele>
        <time>2021-09-11T11:53:03.014Z</time>
      </trkpt>
      <trkpt lat="45.91319" lon="5.91838">
        <ele>322</ele>
        <time>2021-09-11T11:53:04.013Z</time>
      </trkpt>
      <trkpt lat="45.91325" lon="5.91833">
        <ele>322</ele>
        <time>2021-09-11T11:53:05.013Z</time>
      </trkpt>
      <trkpt lat="45.9133" lon="5.91828">
        <ele>322</ele>
        <time>2021-09-11T11:53:06.013Z</time>
      </trkpt>
      <trkpt lat="45.91335" lon="5.91824">
        <ele>323</ele>
        <time>2021-09-11T11:53:07.013Z</time>
      </trkpt>
      <trkpt lat="45.9134" lon="5.91819">
        <ele>323</ele>
        <time>2021-09-11T11:53:08.014Z</time>
      </trkpt>
      <trkpt lat="45.91345" lon="5.91815">
        <ele>323</ele>
        <time>2021-09-11T11:53:09.013Z</time>
      </trkpt>
      <trkpt lat="45.9135" lon="5.91811">
        <ele>323</ele>
        <time>2021-09-11T11:53:10.013Z</time>
      </trkpt>
      <trkpt lat="45.91355" lon="5.91807">
        <ele>323</ele>
        <time>2021-09-11T11:53:11.013Z</time>
      </trkpt>
      <trkpt lat="45.91359" lon="5.91803">
        <ele>323</ele>
        <time>2021-09-11T11:53:12.013Z</time>
      </trkpt>
      <trkpt lat="45.91364" lon="5.91798">
        <ele>323</ele>
        <time>2021-09-11T11:53:13.013Z</time>
      </trkpt>
      <trkpt lat="45.91369" lon="5.91794">
        <ele>323</ele>
        <time>2021-09-11T11:53:14.013Z</time>
      </trkpt>
      <trkpt lat="45.91373" lon="5.9179">
        <ele>323</ele>
        <time>2021-09-11T11:53:15.013Z</time>
      </trkpt>
      <trkpt lat="45.91378" lon="5.91786">
        <ele>322</ele>
        <time>2021-09-11T11:53:16.013Z</time>
      </trkpt>
      <trkpt lat="45.91382" lon="5.91782">
        <ele>322</ele>
        <time>2021-09-11T11:53:17.013Z</time>
      </trkpt>
      <trkpt lat="45.91387" lon="5.91778">
        <ele>322</ele>
        <time>2021-09-11T11:53:18.013Z</time>
      </trkpt>
      <trkpt lat="45.91391" lon="5.91774">
        <ele>323</ele>
        <time>2021-09-11T11:53:19.013Z</time>
      </trkpt>
      <trkpt lat="45.91396" lon="5.91771">
        <ele>323</ele>
        <time>2021-09-11T11:53:20.013Z</time>
      </trkpt>
      <trkpt lat="45.914" lon="5.91767">
        <ele>323</ele>
        <time>2021-09-11T11:53:21.013Z</time>
      </trkpt>
      <trkpt lat="45.91404" lon="5.91763">
        <ele>323</ele>
        <time>2021-09-11T11:53:22.014Z</time>
      </trkpt>
      <trkpt lat="45.91409" lon="5.91759">
        <ele>323</ele>
        <time>2021-09-11T11:53:23.013Z</time>
      </trkpt>
      <trkpt lat="45.91413" lon="5.91755">
        <ele>323</ele>
        <time>2021-09-11T11:53:24.013Z</time>
      </trkpt>
      <trkpt lat="45.91417" lon="5.91751">
        <ele>323</ele>
        <time>2021-09-11T11:53:25.014Z</time>
      </trkpt>
      <trkpt lat="45.91422" lon="5.91747">
        <ele>323</ele>
        <time>2021-09-11T11:53:26.013Z</time>
      </trkpt>
      <trkpt lat="45.91426" lon="5.91744">
        <ele>323</ele>
        <time>2021-09-11T11:53:27.014Z</time>
      </trkpt>
      <trkpt lat="45.91431" lon="5.9174">
        <ele>323</ele>
        <time>2021-09-11T11:53:28.014Z</time>
      </trkpt>
      <trkpt lat="45.91435" lon="5.91736">
        <ele>323</ele>
        <time>2021-09-11T11:53:29.013Z</time>
      </trkpt>
      <trkpt lat="45.91439" lon="5.91732">
        <ele>323</ele>
        <time>2021-09-11T11:53:30.013Z</time>
      </trkpt>
      <trkpt lat="45.91444" lon="5.91728">
        <ele>323</ele>
        <time>2021-09-11T11:53:31.013Z</time>
      </trkpt>
      <trkpt lat="45.91448" lon="5.91724">
        <ele>323</ele>
        <time>2021-09-11T11:53:32.014Z</time>
      </trkpt>
      <trkpt lat="45.91452" lon="5.9172">
        <ele>322</ele>
        <time>2021-09-11T11:53:33.013Z</time>
      </trkpt>
      <trkpt lat="45.91457" lon="5.91717">
        <ele>322</ele>
        <time>2021-09-11T11:53:34.013Z</time>
      </trkpt>
      <trkpt lat="45.91461" lon="5.91713">
        <ele>322</ele>
        <time>2021-09-11T11:53:35.014Z</time>
      </trkpt>
      <trkpt lat="45.91465" lon="5.91709">
        <ele>322</ele>
        <time>2021-09-11T11:53:36.013Z</time>
      </trkpt>
      <trkpt lat="45.9147" lon="5.91706">
        <ele>322</ele>
        <time>2021-09-11T11:53:37.013Z</time>
      </trkpt>
      <trkpt lat="45.91474" lon="5.91701">
        <ele>322</ele>
        <time>2021-09-11T11:53:38.013Z</time>
      </trkpt>
      <trkpt lat="45.91478" lon="5.91697">
        <ele>322</ele>
        <time>2021-09-11T11:53:39.014Z</time>
      </trkpt>
      <trkpt lat="45.91483" lon="5.91694">
        <ele>323</ele>
        <time>2021-09-11T11:53:40.013Z</time>
      </trkpt>
      <trkpt lat="45.91487" lon="5.9169">
        <ele>323</ele>
        <time>2021-09-11T11:53:41.013Z</time>
      </trkpt>
      <trkpt lat="45.91492" lon="5.91686">
        <ele>323</ele>
        <time>2021-09-11T11:53:42.013Z</time>
      </trkpt>
      <trkpt lat="45.91496" lon="5.91682">
        <ele>323</ele>
        <time>2021-09-11T11:53:43.013Z</time>
      </trkpt>
      <trkpt lat="45.915" lon="5.91678">
        <ele>322</ele>
        <time>2021-09-11T11:53:44.014Z</time>
      </trkpt>
      <trkpt lat="45.91505" lon="5.91674">
        <ele>322</ele>
        <time>2021-09-11T11:53:45.014Z</time>
      </trkpt>
      <trkpt lat="45.91509" lon="5.9167">
        <ele>322</ele>
        <time>2021-09-11T11:53:46.014Z</time>
      </trkpt>
      <trkpt lat="45.91513" lon="5.91667">
        <ele>321</ele>
        <time>2021-09-11T11:53:47.013Z</time>
      </trkpt>
      <trkpt lat="45.91517" lon="5.91663">
        <ele>321</ele>
        <time>2021-09-11T11:53:48.014Z</time>
      </trkpt>
      <trkpt lat="45.91522" lon="5.91659">
        <ele>322</ele>
        <time>2021-09-11T11:53:49.014Z</time>
      </trkpt>
      <trkpt lat="45.91526" lon="5.91655">
        <ele>321</ele>
        <time>2021-09-11T11:53:50.013Z</time>
      </trkpt>
      <trkpt lat="45.9153" lon="5.91652">
        <ele>321</ele>
        <time>2021-09-11T11:53:51.013Z</time>
      </trkpt>
      <trkpt lat="45.91534" lon="5.91648">
        <ele>321</ele>
        <time>2021-09-11T11:53:52.013Z</time>
      </trkpt>
      <trkpt lat="45.91539" lon="5.91644">
        <ele>322</ele>
        <time>2021-09-11T11:53:53.014Z</time>
      </trkpt>
      <trkpt lat="45.91543" lon="5.9164">
        <ele>322</ele>
        <time>2021-09-11T11:53:54.013Z</time>
      </trkpt>
      <trkpt lat="45.91547" lon="5.91636">
        <ele>323</ele>
        <time>2021-09-11T11:53:55.014Z</time>
      </trkpt>
      <trkpt lat="45.91551" lon="5.91632">
        <ele>322</ele>
        <time>2021-09-11T11:53:56.013Z</time>
      </trkpt>
      <trkpt lat="45.91556" lon="5.91629">
        <ele>322</ele>
        <time>2021-09-11T11:53:57.014Z</time>
      </trkpt>
      <trkpt lat="45.9156" lon="5.91625">
        <ele>322</ele>
        <time>2021-09-11T11:53:58.014Z</time>
      </trkpt>
      <trkpt lat="45.91564" lon="5.91621">
        <ele>322</ele>
        <time>2021-09-11T11:53:59.013Z</time>
      </trkpt>
      <trkpt lat="45.91569" lon="5.91618">
        <ele>321</ele>
        <time>2021-09-11T11:54:00.013Z</time>
      </trkpt>
      <trkpt lat="45.91573" lon="5.91614">
        <ele>321</ele>
        <time>2021-09-11T11:54:01.013Z</time>
      </trkpt>
      <trkpt lat="45.91577" lon="5.9161">
        <ele>321</ele>
        <time>2021-09-11T11:54:02.013Z</time>
      </trkpt>
      <trkpt lat="45.91582" lon="5.91606">
        <ele>321</ele>
        <time>2021-09-11T11:54:03.014Z</time>
      </trkpt>
      <trkpt lat="45.91586" lon="5.91603">
        <ele>322</ele>
        <time>2021-09-11T11:54:04.013Z</time>
      </trkpt>
      <trkpt lat="45.91591" lon="5.91599">
        <ele>322</ele>
        <time>2021-09-11T11:54:05.013Z</time>
      </trkpt>
      <trkpt lat="45.91595" lon="5.91595">
        <ele>322</ele>
        <time>2021-09-11T11:54:06.013Z</time>
      </trkpt>
      <trkpt lat="45.91599" lon="5.91592">
        <ele>322</ele>
        <time>2021-09-11T11:54:07.013Z</time>
      </trkpt>
      <trkpt lat="45.91603" lon="5.91588">
        <ele>322</ele>
        <time>2021-09-11T11:54:08.013Z</time>
      </trkpt>
      <trkpt lat="45.91608" lon="5.91584">
        <ele>323</ele>
        <time>2021-09-11T11:54:09.013Z</time>
      </trkpt>
      <trkpt lat="45.91612" lon="5.9158">
        <ele>323</ele>
        <time>2021-09-11T11:54:10.013Z</time>
      </trkpt>
      <trkpt lat="45.91616" lon="5.91577">
        <ele>324</ele>
        <time>2021-09-11T11:54:11.013Z</time>
      </trkpt>
      <trkpt lat="45.91621" lon="5.91573">
        <ele>324</ele>
        <time>2021-09-11T11:54:12.014Z</time>
      </trkpt>
      <trkpt lat="45.91625" lon="5.91569">
        <ele>324</ele>
        <time>2021-09-11T11:54:13.013Z</time>
      </trkpt>
      <trkpt lat="45.91629" lon="5.91565">
        <ele>323</ele>
        <time>2021-09-11T11:54:14.013Z</time>
      </trkpt>
      <trkpt lat="45.91634" lon="5.91561">
        <ele>323</ele>
        <time>2021-09-11T11:54:15.014Z</time>
      </trkpt>
      <trkpt lat="45.91634" lon="5.91561">
        <ele>323</ele>
        <time>2021-09-11T11:54:16.013Z</time>
      </trkpt>
      <trkpt lat="45.91642" lon="5.91554">
        <ele>323</ele>
        <time>2021-09-11T11:54:17.013Z</time>
      </trkpt>
      <trkpt lat="45.91646" lon="5.9155">
        <ele>323</ele>
        <time>2021-09-11T11:54:18.013Z</time>
      </trkpt>
      <trkpt lat="45.91651" lon="5.91546">
        <ele>322</ele>
        <time>2021-09-11T11:54:19.013Z</time>
      </trkpt>
      <trkpt lat="45.91655" lon="5.91543">
        <ele>322</ele>
        <time>2021-09-11T11:54:20.013Z</time>
      </trkpt>
      <trkpt lat="45.91659" lon="5.91539">
        <ele>322</ele>
        <time>2021-09-11T11:54:21.013Z</time>
      </trkpt>
      <trkpt lat="45.91664" lon="5.91535">
        <ele>322</ele>
        <time>2021-09-11T11:54:22.013Z</time>
      </trkpt>
      <trkpt lat="45.91668" lon="5.91532">
        <ele>322</ele>
        <time>2021-09-11T11:54:23.013Z</time>
      </trkpt>
      <trkpt lat="45.91673" lon="5.91528">
        <ele>321</ele>
        <time>2021-09-11T11:54:24.013Z</time>
      </trkpt>
      <trkpt lat="45.91677" lon="5.91524">
        <ele>321</ele>
        <time>2021-09-11T11:54:25.013Z</time>
      </trkpt>
      <trkpt lat="45.91681" lon="5.9152">
        <ele>322</ele>
        <time>2021-09-11T11:54:26.013Z</time>
      </trkpt>
      <trkpt lat="45.91686" lon="5.91516">
        <ele>322</ele>
        <time>2021-09-11T11:54:27.013Z</time>
      </trkpt>
      <trkpt lat="45.9169" lon="5.91511">
        <ele>322</ele>
        <time>2021-09-11T11:54:28.013Z</time>
      </trkpt>
      <trkpt lat="45.91694" lon="5.91507">
        <ele>322</ele>
        <time>2021-09-11T11:54:29.013Z</time>
      </trkpt>
      <trkpt lat="45.91699" lon="5.91504">
        <ele>322</ele>
        <time>2021-09-11T11:54:30.013Z</time>
      </trkpt>
      <trkpt lat="45.91703" lon="5.915">
        <ele>322</ele>
        <time>2021-09-11T11:54:31.013Z</time>
      </trkpt>
      <trkpt lat="45.91707" lon="5.91496">
        <ele>322</ele>
        <time>2021-09-11T11:54:32.014Z</time>
      </trkpt>
      <trkpt lat="45.91712" lon="5.91492">
        <ele>322</ele>
        <time>2021-09-11T11:54:33.013Z</time>
      </trkpt>
      <trkpt lat="45.91716" lon="5.91488">
        <ele>322</ele>
        <time>2021-09-11T11:54:34.014Z</time>
      </trkpt>
      <trkpt lat="45.9172" lon="5.91485">
        <ele>322</ele>
        <time>2021-09-11T11:54:35.014Z</time>
      </trkpt>
      <trkpt lat="45.91725" lon="5.91481">
        <ele>322</ele>
        <time>2021-09-11T11:54:36.013Z</time>
      </trkpt>
      <trkpt lat="45.91729" lon="5.91477">
        <ele>322</ele>
        <time>2021-09-11T11:54:37.013Z</time>
      </trkpt>
      <trkpt lat="45.91733" lon="5.91473">
        <ele>322</ele>
        <time>2021-09-11T11:54:38.013Z</time>
      </trkpt>
      <trkpt lat="45.91738" lon="5.91469">
        <ele>322</ele>
        <time>2021-09-11T11:54:39.013Z</time>
      </trkpt>
      <trkpt lat="45.91742" lon="5.91466">
        <ele>322</ele>
        <time>2021-09-11T11:54:40.013Z</time>
      </trkpt>
      <trkpt lat="45.91746" lon="5.91462">
        <ele>322</ele>
        <time>2021-09-11T11:54:41.014Z</time>
      </trkpt>
      <trkpt lat="45.91751" lon="5.91458">
        <ele>322</ele>
        <time>2021-09-11T11:54:42.013Z</time>
      </trkpt>
      <trkpt lat="45.91755" lon="5.91455">
        <ele>322</ele>
        <time>2021-09-11T11:54:43.013Z</time>
      </trkpt>
      <trkpt lat="45.91759" lon="5.91451">
        <ele>322</ele>
        <time>2021-09-11T11:54:44.013Z</time>
      </trkpt>
      <trkpt lat="45.91764" lon="5.91447">
        <ele>322</ele>
        <time>2021-09-11T11:54:45.013Z</time>
      </trkpt>
      <trkpt lat="45.91768" lon="5.91444">
        <ele>322</ele>
        <time>2021-09-11T11:54:46.013Z</time>
      </trkpt>
      <trkpt lat="45.91772" lon="5.9144">
        <ele>322</ele>
        <time>2021-09-11T11:54:47.013Z</time>
      </trkpt>
      <trkpt lat="45.91776" lon="5.91436">
        <ele>322</ele>
        <time>2021-09-11T11:54:48.013Z</time>
      </trkpt>
      <trkpt lat="45.9178" lon="5.91432">
        <ele>322</ele>
        <time>2021-09-11T11:54:49.013Z</time>
      </trkpt>
      <trkpt lat="45.91784" lon="5.91429">
        <ele>322</ele>
        <time>2021-09-11T11:54:50.013Z</time>
      </trkpt>
      <trkpt lat="45.91788" lon="5.91425">
        <ele>322</ele>
        <time>2021-09-11T11:54:51.013Z</time>
      </trkpt>
      <trkpt lat="45.91792" lon="5.91422">
        <ele>322</ele>
        <time>2021-09-11T11:54:52.013Z</time>
      </trkpt>
      <trkpt lat="45.91796" lon="5.91418">
        <ele>323</ele>
        <time>2021-09-11T11:54:53.013Z</time>
      </trkpt>
      <trkpt lat="45.918" lon="5.91415">
        <ele>322</ele>
        <time>2021-09-11T11:54:54.013Z</time>
      </trkpt>
      <trkpt lat="45.91804" lon="5.91412">
        <ele>322</ele>
        <time>2021-09-11T11:54:55.013Z</time>
      </trkpt>
      <trkpt lat="45.91804" lon="5.91412">
        <ele>322</ele>
        <time>2021-09-11T11:54:56.013Z</time>
      </trkpt>
      <trkpt lat="45.91811" lon="5.91405">
        <ele>322</ele>
        <time>2021-09-11T11:54:57.013Z</time>
      </trkpt>
      <trkpt lat="45.91815" lon="5.91401">
        <ele>322</ele>
        <time>2021-09-11T11:54:58.013Z</time>
      </trkpt>
      <trkpt lat="45.91819" lon="5.91398">
        <ele>322</ele>
        <time>2021-09-11T11:54:59.014Z</time>
      </trkpt>
      <trkpt lat="45.91822" lon="5.91394">
        <ele>322</ele>
        <time>2021-09-11T11:55:00.013Z</time>
      </trkpt>
      <trkpt lat="45.91826" lon="5.91391">
        <ele>322</ele>
        <time>2021-09-11T11:55:01.013Z</time>
      </trkpt>
      <trkpt lat="45.9183" lon="5.91388">
        <ele>322</ele>
        <time>2021-09-11T11:55:02.013Z</time>
      </trkpt>
      <trkpt lat="45.91833" lon="5.91385">
        <ele>322</ele>
        <time>2021-09-11T11:55:03.013Z</time>
      </trkpt>
      <trkpt lat="45.91837" lon="5.91382">
        <ele>322</ele>
        <time>2021-09-11T11:55:04.013Z</time>
      </trkpt>
      <trkpt lat="45.9184" lon="5.9138">
        <ele>322</ele>
        <time>2021-09-11T11:55:05.013Z</time>
      </trkpt>
      <trkpt lat="45.91844" lon="5.91377">
        <ele>322</ele>
        <time>2021-09-11T11:55:06.013Z</time>
      </trkpt>
      <trkpt lat="45.91847" lon="5.91375">
        <ele>323</ele>
        <time>2021-09-11T11:55:07.013Z</time>
      </trkpt>
      <trkpt lat="45.91851" lon="5.91372">
        <ele>323</ele>
        <time>2021-09-11T11:55:08.014Z</time>
      </trkpt>
      <trkpt lat="45.91854" lon="5.91369">
        <ele>323</ele>
        <time>2021-09-11T11:55:09.013Z</time>
      </trkpt>
      <trkpt lat="45.91857" lon="5.91366">
        <ele>323</ele>
        <time>2021-09-11T11:55:10.013Z</time>
      </trkpt>
      <trkpt lat="45.91861" lon="5.91362">
        <ele>322</ele>
        <time>2021-09-11T11:55:11.013Z</time>
      </trkpt>
      <trkpt lat="45.91865" lon="5.91359">
        <ele>322</ele>
        <time>2021-09-11T11:55:12.013Z</time>
      </trkpt>
      <trkpt lat="45.91869" lon="5.91356">
        <ele>322</ele>
        <time>2021-09-11T11:55:13.014Z</time>
      </trkpt>
      <trkpt lat="45.91872" lon="5.91353">
        <ele>322</ele>
        <time>2021-09-11T11:55:14.013Z</time>
      </trkpt>
      <trkpt lat="45.91876" lon="5.91349">
        <ele>322</ele>
        <time>2021-09-11T11:55:15.013Z</time>
      </trkpt>
      <trkpt lat="45.9188" lon="5.91346">
        <ele>322</ele>
        <time>2021-09-11T11:55:16.013Z</time>
      </trkpt>
      <trkpt lat="45.91884" lon="5.91343">
        <ele>323</ele>
        <time>2021-09-11T11:55:17.014Z</time>
      </trkpt>
      <trkpt lat="45.91888" lon="5.91339">
        <ele>323</ele>
        <time>2021-09-11T11:55:18.014Z</time>
      </trkpt>
      <trkpt lat="45.91892" lon="5.91335">
        <ele>323</ele>
        <time>2021-09-11T11:55:19.014Z</time>
      </trkpt>
      <trkpt lat="45.91896" lon="5.91332">
        <ele>323</ele>
        <time>2021-09-11T11:55:20.013Z</time>
      </trkpt>
      <trkpt lat="45.919" lon="5.91328">
        <ele>323</ele>
        <time>2021-09-11T11:55:21.013Z</time>
      </trkpt>
      <trkpt lat="45.91904" lon="5.91325">
        <ele>323</ele>
        <time>2021-09-11T11:55:22.013Z</time>
      </trkpt>
      <trkpt lat="45.91908" lon="5.91321">
        <ele>323</ele>
        <time>2021-09-11T11:55:23.013Z</time>
      </trkpt>
      <trkpt lat="45.91913" lon="5.91318">
        <ele>323</ele>
        <time>2021-09-11T11:55:24.013Z</time>
      </trkpt>
      <trkpt lat="45.91917" lon="5.91314">
        <ele>323</ele>
        <time>2021-09-11T11:55:25.013Z</time>
      </trkpt>
      <trkpt lat="45.91921" lon="5.9131">
        <ele>323</ele>
        <time>2021-09-11T11:55:26.013Z</time>
      </trkpt>
      <trkpt lat="45.91925" lon="5.91306">
        <ele>322</ele>
        <time>2021-09-11T11:55:27.013Z</time>
      </trkpt>
      <trkpt lat="45.9193" lon="5.91302">
        <ele>322</ele>
        <time>2021-09-11T11:55:28.013Z</time>
      </trkpt>
      <trkpt lat="45.91934" lon="5.91297">
        <ele>322</ele>
        <time>2021-09-11T11:55:29.013Z</time>
      </trkpt>
      <trkpt lat="45.91938" lon="5.91292">
        <ele>321</ele>
        <time>2021-09-11T11:55:30.013Z</time>
      </trkpt>
      <trkpt lat="45.91942" lon="5.91287">
        <ele>321</ele>
        <time>2021-09-11T11:55:31.013Z</time>
      </trkpt>
      <trkpt lat="45.91946" lon="5.91282">
        <ele>321</ele>
        <time>2021-09-11T11:55:32.013Z</time>
      </trkpt>
      <trkpt lat="45.91949" lon="5.91276">
        <ele>321</ele>
        <time>2021-09-11T11:55:33.013Z</time>
      </trkpt>
      <trkpt lat="45.91953" lon="5.9127">
        <ele>321</ele>
        <time>2021-09-11T11:55:34.013Z</time>
      </trkpt>
      <trkpt lat="45.91956" lon="5.91264">
        <ele>321</ele>
        <time>2021-09-11T11:55:35.013Z</time>
      </trkpt>
      <trkpt lat="45.9196" lon="5.91259">
        <ele>321</ele>
        <time>2021-09-11T11:55:36.013Z</time>
      </trkpt>
      <trkpt lat="45.91963" lon="5.91252">
        <ele>321</ele>
        <time>2021-09-11T11:55:37.014Z</time>
      </trkpt>
      <trkpt lat="45.91966" lon="5.91246">
        <ele>322</ele>
        <time>2021-09-11T11:55:38.013Z</time>
      </trkpt>
      <trkpt lat="45.91969" lon="5.9124">
        <ele>322</ele>
        <time>2021-09-11T11:55:39.014Z</time>
      </trkpt>
      <trkpt lat="45.91972" lon="5.91233">
        <ele>322</ele>
        <time>2021-09-11T11:55:40.013Z</time>
      </trkpt>
      <trkpt lat="45.91975" lon="5.91226">
        <ele>322</ele>
        <time>2021-09-11T11:55:41.014Z</time>
      </trkpt>
      <trkpt lat="45.91978" lon="5.91219">
        <ele>322</ele>
        <time>2021-09-11T11:55:42.013Z</time>
      </trkpt>
      <trkpt lat="45.91981" lon="5.91212">
        <ele>322</ele>
        <time>2021-09-11T11:55:43.013Z</time>
      </trkpt>
      <trkpt lat="45.91984" lon="5.91206">
        <ele>321</ele>
        <time>2021-09-11T11:55:44.013Z</time>
      </trkpt>
      <trkpt lat="45.91988" lon="5.91199">
        <ele>322</ele>
        <time>2021-09-11T11:55:45.013Z</time>
      </trkpt>
      <trkpt lat="45.91992" lon="5.91193">
        <ele>322</ele>
        <time>2021-09-11T11:55:46.013Z</time>
      </trkpt>
      <trkpt lat="45.91995" lon="5.91186">
        <ele>322</ele>
        <time>2021-09-11T11:55:47.013Z</time>
      </trkpt>
      <trkpt lat="45.91999" lon="5.9118">
        <ele>322</ele>
        <time>2021-09-11T11:55:48.013Z</time>
      </trkpt>
      <trkpt lat="45.92003" lon="5.91175">
        <ele>322</ele>
        <time>2021-09-11T11:55:49.013Z</time>
      </trkpt>
      <trkpt lat="45.92006" lon="5.91169">
        <ele>322</ele>
        <time>2021-09-11T11:55:50.014Z</time>
      </trkpt>
      <trkpt lat="45.9201" lon="5.91164">
        <ele>322</ele>
        <time>2021-09-11T11:55:51.013Z</time>
      </trkpt>
      <trkpt lat="45.92014" lon="5.91159">
        <ele>322</ele>
        <time>2021-09-11T11:55:52.013Z</time>
      </trkpt>
      <trkpt lat="45.92018" lon="5.91154">
        <ele>322</ele>
        <time>2021-09-11T11:55:53.013Z</time>
      </trkpt>
      <trkpt lat="45.92022" lon="5.91149">
        <ele>321</ele>
        <time>2021-09-11T11:55:54.013Z</time>
      </trkpt>
      <trkpt lat="45.92026" lon="5.91144">
        <ele>321</ele>
        <time>2021-09-11T11:55:55.014Z</time>
      </trkpt>
      <trkpt lat="45.92031" lon="5.9114">
        <ele>321</ele>
        <time>2021-09-11T11:55:56.013Z</time>
      </trkpt>
      <trkpt lat="45.92036" lon="5.91135">
        <ele>321</ele>
        <time>2021-09-11T11:55:57.013Z</time>
      </trkpt>
      <trkpt lat="45.92041" lon="5.91131">
        <ele>321</ele>
        <time>2021-09-11T11:55:58.013Z</time>
      </trkpt>
      <trkpt lat="45.92046" lon="5.91126">
        <ele>322</ele>
        <time>2021-09-11T11:55:59.014Z</time>
      </trkpt>
      <trkpt lat="45.92051" lon="5.91122">
        <ele>322</ele>
        <time>2021-09-11T11:56:00.014Z</time>
      </trkpt>
      <trkpt lat="45.92056" lon="5.91118">
        <ele>322</ele>
        <time>2021-09-11T11:56:01.013Z</time>
      </trkpt>
      <trkpt lat="45.92062" lon="5.91113">
        <ele>322</ele>
        <time>2021-09-11T11:56:02.013Z</time>
      </trkpt>
      <trkpt lat="45.92067" lon="5.91109">
        <ele>322</ele>
        <time>2021-09-11T11:56:03.013Z</time>
      </trkpt>
      <trkpt lat="45.92072" lon="5.91105">
        <ele>323</ele>
        <time>2021-09-11T11:56:04.013Z</time>
      </trkpt>
      <trkpt lat="45.92077" lon="5.911">
        <ele>323</ele>
        <time>2021-09-11T11:56:05.013Z</time>
      </trkpt>
      <trkpt lat="45.92082" lon="5.91096">
        <ele>323</ele>
        <time>2021-09-11T11:56:06.013Z</time>
      </trkpt>
      <trkpt lat="45.92088" lon="5.91092">
        <ele>322</ele>
        <time>2021-09-11T11:56:07.013Z</time>
      </trkpt>
      <trkpt lat="45.92093" lon="5.91087">
        <ele>322</ele>
        <time>2021-09-11T11:56:08.013Z</time>
      </trkpt>
      <trkpt lat="45.92098" lon="5.91082">
        <ele>322</ele>
        <time>2021-09-11T11:56:09.013Z</time>
      </trkpt>
      <trkpt lat="45.92103" lon="5.91078">
        <ele>322</ele>
        <time>2021-09-11T11:56:10.013Z</time>
      </trkpt>
      <trkpt lat="45.92109" lon="5.91073">
        <ele>322</ele>
        <time>2021-09-11T11:56:11.013Z</time>
      </trkpt>
      <trkpt lat="45.92114" lon="5.91069">
        <ele>322</ele>
        <time>2021-09-11T11:56:12.013Z</time>
      </trkpt>
      <trkpt lat="45.92119" lon="5.91065">
        <ele>322</ele>
        <time>2021-09-11T11:56:13.013Z</time>
      </trkpt>
      <trkpt lat="45.92124" lon="5.91061">
        <ele>322</ele>
        <time>2021-09-11T11:56:14.013Z</time>
      </trkpt>
      <trkpt lat="45.9213" lon="5.91057">
        <ele>322</ele>
        <time>2021-09-11T11:56:15.013Z</time>
      </trkpt>
      <trkpt lat="45.92135" lon="5.91054">
        <ele>322</ele>
        <time>2021-09-11T11:56:16.013Z</time>
      </trkpt>
      <trkpt lat="45.9214" lon="5.9105">
        <ele>322</ele>
        <time>2021-09-11T11:56:17.013Z</time>
      </trkpt>
      <trkpt lat="45.92145" lon="5.91047">
        <ele>322</ele>
        <time>2021-09-11T11:56:18.014Z</time>
      </trkpt>
      <trkpt lat="45.9215" lon="5.91043">
        <ele>322</ele>
        <time>2021-09-11T11:56:19.013Z</time>
      </trkpt>
      <trkpt lat="45.92155" lon="5.9104">
        <ele>322</ele>
        <time>2021-09-11T11:56:20.013Z</time>
      </trkpt>
      <trkpt lat="45.9216" lon="5.91036">
        <ele>322</ele>
        <time>2021-09-11T11:56:21.013Z</time>
      </trkpt>
      <trkpt lat="45.92164" lon="5.91031">
        <ele>322</ele>
        <time>2021-09-11T11:56:22.013Z</time>
      </trkpt>
      <trkpt lat="45.92169" lon="5.91027">
        <ele>321</ele>
        <time>2021-09-11T11:56:23.013Z</time>
      </trkpt>
      <trkpt lat="45.92174" lon="5.91022">
        <ele>321</ele>
        <time>2021-09-11T11:56:24.013Z</time>
      </trkpt>
      <trkpt lat="45.92178" lon="5.91017">
        <ele>321</ele>
        <time>2021-09-11T11:56:25.013Z</time>
      </trkpt>
      <trkpt lat="45.92183" lon="5.91012">
        <ele>321</ele>
        <time>2021-09-11T11:56:26.013Z</time>
      </trkpt>
      <trkpt lat="45.92188" lon="5.91007">
        <ele>322</ele>
        <time>2021-09-11T11:56:27.013Z</time>
      </trkpt>
      <trkpt lat="45.92193" lon="5.91002">
        <ele>322</ele>
        <time>2021-09-11T11:56:28.013Z</time>
      </trkpt>
      <trkpt lat="45.92197" lon="5.90997">
        <ele>322</ele>
        <time>2021-09-11T11:56:29.013Z</time>
      </trkpt>
      <trkpt lat="45.92201" lon="5.90991">
        <ele>322</ele>
        <time>2021-09-11T11:56:30.014Z</time>
      </trkpt>
      <trkpt lat="45.92205" lon="5.90984">
        <ele>322</ele>
        <time>2021-09-11T11:56:31.013Z</time>
      </trkpt>
      <trkpt lat="45.92209" lon="5.90977">
        <ele>322</ele>
        <time>2021-09-11T11:56:32.013Z</time>
      </trkpt>
      <trkpt lat="45.92213" lon="5.90969">
        <ele>322</ele>
        <time>2021-09-11T11:56:33.013Z</time>
      </trkpt>
      <trkpt lat="45.92216" lon="5.90962">
        <ele>322</ele>
        <time>2021-09-11T11:56:34.013Z</time>
      </trkpt>
      <trkpt lat="45.9222" lon="5.90955">
        <ele>322</ele>
        <time>2021-09-11T11:56:35.013Z</time>
      </trkpt>
      <trkpt lat="45.92223" lon="5.90948">
        <ele>322</ele>
        <time>2021-09-11T11:56:36.013Z</time>
      </trkpt>
      <trkpt lat="45.92227" lon="5.90941">
        <ele>323</ele>
        <time>2021-09-11T11:56:37.013Z</time>
      </trkpt>
      <trkpt lat="45.9223" lon="5.90933">
        <ele>322</ele>
        <time>2021-09-11T11:56:38.013Z</time>
      </trkpt>
      <trkpt lat="45.92234" lon="5.90927">
        <ele>322</ele>
        <time>2021-09-11T11:56:39.013Z</time>
      </trkpt>
      <trkpt lat="45.92238" lon="5.90921">
        <ele>322</ele>
        <time>2021-09-11T11:56:40.013Z</time>
      </trkpt>
      <trkpt lat="45.92242" lon="5.90914">
        <ele>322</ele>
        <time>2021-09-11T11:56:41.013Z</time>
      </trkpt>
      <trkpt lat="45.92245" lon="5.90908">
        <ele>322</ele>
        <time>2021-09-11T11:56:42.013Z</time>
      </trkpt>
      <trkpt lat="45.92249" lon="5.90901">
        <ele>322</ele>
        <time>2021-09-11T11:56:43.013Z</time>
      </trkpt>
      <trkpt lat="45.92253" lon="5.90894">
        <ele>322</ele>
        <time>2021-09-11T11:56:44.013Z</time>
      </trkpt>
      <trkpt lat="45.92257" lon="5.90887">
        <ele>322</ele>
        <time>2021-09-11T11:56:45.013Z</time>
      </trkpt>
      <trkpt lat="45.92261" lon="5.90881">
        <ele>322</ele>
        <time>2021-09-11T11:56:46.013Z</time>
      </trkpt>
      <trkpt lat="45.92264" lon="5.90875">
        <ele>322</ele>
        <time>2021-09-11T11:56:47.013Z</time>
      </trkpt>
      <trkpt lat="45.92268" lon="5.90869">
        <ele>321</ele>
        <time>2021-09-11T11:56:48.013Z</time>
      </trkpt>
      <trkpt lat="45.92271" lon="5.90863">
        <ele>321</ele>
        <time>2021-09-11T11:56:49.013Z</time>
      </trkpt>
      <trkpt lat="45.92275" lon="5.90857">
        <ele>321</ele>
        <time>2021-09-11T11:56:50.013Z</time>
      </trkpt>
      <trkpt lat="45.92279" lon="5.9085">
        <ele>321</ele>
        <time>2021-09-11T11:56:51.014Z</time>
      </trkpt>
      <trkpt lat="45.92283" lon="5.90844">
        <ele>321</ele>
        <time>2021-09-11T11:56:52.013Z</time>
      </trkpt>
      <trkpt lat="45.92286" lon="5.90838">
        <ele>321</ele>
        <time>2021-09-11T11:56:53.013Z</time>
      </trkpt>
      <trkpt lat="45.9229" lon="5.90831">
        <ele>321</ele>
        <time>2021-09-11T11:56:54.013Z</time>
      </trkpt>
      <trkpt lat="45.92293" lon="5.90825">
        <ele>321</ele>
        <time>2021-09-11T11:56:55.013Z</time>
      </trkpt>
      <trkpt lat="45.92297" lon="5.90818">
        <ele>322</ele>
        <time>2021-09-11T11:56:56.013Z</time>
      </trkpt>
      <trkpt lat="45.92301" lon="5.90812">
        <ele>322</ele>
        <time>2021-09-11T11:56:57.013Z</time>
      </trkpt>
      <trkpt lat="45.92304" lon="5.90806">
        <ele>322</ele>
        <time>2021-09-11T11:56:58.013Z</time>
      </trkpt>
      <trkpt lat="45.92308" lon="5.908">
        <ele>321</ele>
        <time>2021-09-11T11:56:59.013Z</time>
      </trkpt>
      <trkpt lat="45.92311" lon="5.90794">
        <ele>321</ele>
        <time>2021-09-11T11:57:00.013Z</time>
      </trkpt>
      <trkpt lat="45.92315" lon="5.90788">
        <ele>321</ele>
        <time>2021-09-11T11:57:01.013Z</time>
      </trkpt>
      <trkpt lat="45.92318" lon="5.90782">
        <ele>320</ele>
        <time>2021-09-11T11:57:02.013Z</time>
      </trkpt>
      <trkpt lat="45.92322" lon="5.90776">
        <ele>320</ele>
        <time>2021-09-11T11:57:03.013Z</time>
      </trkpt>
      <trkpt lat="45.92325" lon="5.90769">
        <ele>320</ele>
        <time>2021-09-11T11:57:04.013Z</time>
      </trkpt>
      <trkpt lat="45.92329" lon="5.90763">
        <ele>320</ele>
        <time>2021-09-11T11:57:05.014Z</time>
      </trkpt>
      <trkpt lat="45.92332" lon="5.90757">
        <ele>320</ele>
        <time>2021-09-11T11:57:06.013Z</time>
      </trkpt>
      <trkpt lat="45.92336" lon="5.9075">
        <ele>320</ele>
        <time>2021-09-11T11:57:07.013Z</time>
      </trkpt>
      <trkpt lat="45.9234" lon="5.90744">
        <ele>320</ele>
        <time>2021-09-11T11:57:08.013Z</time>
      </trkpt>
      <trkpt lat="45.92343" lon="5.90738">
        <ele>320</ele>
        <time>2021-09-11T11:57:09.013Z</time>
      </trkpt>
      <trkpt lat="45.92347" lon="5.90732">
        <ele>320</ele>
        <time>2021-09-11T11:57:10.013Z</time>
      </trkpt>
      <trkpt lat="45.9235" lon="5.90726">
        <ele>320</ele>
        <time>2021-09-11T11:57:11.014Z</time>
      </trkpt>
      <trkpt lat="45.92353" lon="5.9072">
        <ele>320</ele>
        <time>2021-09-11T11:57:12.013Z</time>
      </trkpt>
      <trkpt lat="45.92357" lon="5.90714">
        <ele>320</ele>
        <time>2021-09-11T11:57:13.013Z</time>
      </trkpt>
      <trkpt lat="45.9236" lon="5.90708">
        <ele>320</ele>
        <time>2021-09-11T11:57:14.014Z</time>
      </trkpt>
      <trkpt lat="45.92363" lon="5.90702">
        <ele>320</ele>
        <time>2021-09-11T11:57:15.013Z</time>
      </trkpt>
      <trkpt lat="45.92367" lon="5.90697">
        <ele>320</ele>
        <time>2021-09-11T11:57:16.013Z</time>
      </trkpt>
      <trkpt lat="45.9237" lon="5.90691">
        <ele>321</ele>
        <time>2021-09-11T11:57:17.013Z</time>
      </trkpt>
      <trkpt lat="45.92373" lon="5.90686">
        <ele>321</ele>
        <time>2021-09-11T11:57:18.014Z</time>
      </trkpt>
      <trkpt lat="45.92377" lon="5.9068">
        <ele>321</ele>
        <time>2021-09-11T11:57:19.013Z</time>
      </trkpt>
      <trkpt lat="45.9238" lon="5.90675">
        <ele>320</ele>
        <time>2021-09-11T11:57:20.013Z</time>
      </trkpt>
      <trkpt lat="45.92383" lon="5.90669">
        <ele>320</ele>
        <time>2021-09-11T11:57:21.013Z</time>
      </trkpt>
      <trkpt lat="45.92387" lon="5.90664">
        <ele>320</ele>
        <time>2021-09-11T11:57:22.014Z</time>
      </trkpt>
      <trkpt lat="45.9239" lon="5.90658">
        <ele>320</ele>
        <time>2021-09-11T11:57:23.013Z</time>
      </trkpt>
      <trkpt lat="45.92394" lon="5.90652">
        <ele>320</ele>
        <time>2021-09-11T11:57:24.013Z</time>
      </trkpt>
      <trkpt lat="45.92398" lon="5.90645">
        <ele>320</ele>
        <time>2021-09-11T11:57:25.013Z</time>
      </trkpt>
      <trkpt lat="45.92401" lon="5.90639">
        <ele>320</ele>
        <time>2021-09-11T11:57:26.013Z</time>
      </trkpt>
      <trkpt lat="45.92405" lon="5.90633">
        <ele>320</ele>
        <time>2021-09-11T11:57:27.013Z</time>
      </trkpt>
      <trkpt lat="45.92408" lon="5.90627">
        <ele>319</ele>
        <time>2021-09-11T11:57:28.013Z</time>
      </trkpt>
      <trkpt lat="45.92412" lon="5.90621">
        <ele>319</ele>
        <time>2021-09-11T11:57:29.013Z</time>
      </trkpt>
      <trkpt lat="45.92415" lon="5.90615">
        <ele>318</ele>
        <time>2021-09-11T11:57:30.014Z</time>
      </trkpt>
      <trkpt lat="45.92415" lon="5.90615">
        <ele>318</ele>
        <time>2021-09-11T11:57:31.013Z</time>
      </trkpt>
      <trkpt lat="45.92422" lon="5.90602">
        <ele>318</ele>
        <time>2021-09-11T11:57:32.013Z</time>
      </trkpt>
      <trkpt lat="45.92426" lon="5.90596">
        <ele>318</ele>
        <time>2021-09-11T11:57:33.013Z</time>
      </trkpt>
      <trkpt lat="45.92429" lon="5.90589">
        <ele>318</ele>
        <time>2021-09-11T11:57:34.013Z</time>
      </trkpt>
      <trkpt lat="45.92433" lon="5.90582">
        <ele>318</ele>
        <time>2021-09-11T11:57:35.014Z</time>
      </trkpt>
      <trkpt lat="45.92437" lon="5.90576">
        <ele>318</ele>
        <time>2021-09-11T11:57:36.013Z</time>
      </trkpt>
      <trkpt lat="45.9244" lon="5.90569">
        <ele>318</ele>
        <time>2021-09-11T11:57:37.013Z</time>
      </trkpt>
      <trkpt lat="45.92444" lon="5.90562">
        <ele>317</ele>
        <time>2021-09-11T11:57:38.013Z</time>
      </trkpt>
      <trkpt lat="45.92448" lon="5.90556">
        <ele>317</ele>
        <time>2021-09-11T11:57:39.013Z</time>
      </trkpt>
      <trkpt lat="45.92451" lon="5.90549">
        <ele>317</ele>
        <time>2021-09-11T11:57:40.013Z</time>
      </trkpt>
      <trkpt lat="45.92455" lon="5.90542">
        <ele>317</ele>
        <time>2021-09-11T11:57:41.013Z</time>
      </trkpt>
      <trkpt lat="45.92459" lon="5.90535">
        <ele>317</ele>
        <time>2021-09-11T11:57:42.013Z</time>
      </trkpt>
      <trkpt lat="45.92463" lon="5.90528">
        <ele>317</ele>
        <time>2021-09-11T11:57:43.013Z</time>
      </trkpt>
      <trkpt lat="45.92467" lon="5.90521">
        <ele>317</ele>
        <time>2021-09-11T11:57:44.013Z</time>
      </trkpt>
      <trkpt lat="45.92472" lon="5.90514">
        <ele>317</ele>
        <time>2021-09-11T11:57:45.013Z</time>
      </trkpt>
      <trkpt lat="45.92476" lon="5.90506">
        <ele>317</ele>
        <time>2021-09-11T11:57:46.013Z</time>
      </trkpt>
      <trkpt lat="45.9248" lon="5.90498">
        <ele>317</ele>
        <time>2021-09-11T11:57:47.014Z</time>
      </trkpt>
      <trkpt lat="45.92484" lon="5.90491">
        <ele>317</ele>
        <time>2021-09-11T11:57:48.013Z</time>
      </trkpt>
      <trkpt lat="45.92489" lon="5.90483">
        <ele>317</ele>
        <time>2021-09-11T11:57:49.013Z</time>
      </trkpt>
      <trkpt lat="45.92493" lon="5.90475">
        <ele>317</ele>
        <time>2021-09-11T11:57:50.013Z</time>
      </trkpt>
      <trkpt lat="45.92498" lon="5.90467">
        <ele>317</ele>
        <time>2021-09-11T11:57:51.013Z</time>
      </trkpt>
      <trkpt lat="45.92502" lon="5.90459">
        <ele>317</ele>
        <time>2021-09-11T11:57:52.013Z</time>
      </trkpt>
      <trkpt lat="45.92507" lon="5.90451">
        <ele>317</ele>
        <time>2021-09-11T11:57:53.013Z</time>
      </trkpt>
      <trkpt lat="45.92512" lon="5.90443">
        <ele>317</ele>
        <time>2021-09-11T11:57:54.014Z</time>
      </trkpt>
      <trkpt lat="45.92516" lon="5.90435">
        <ele>318</ele>
        <time>2021-09-11T11:57:55.013Z</time>
      </trkpt>
      <trkpt lat="45.92521" lon="5.90427">
        <ele>318</ele>
        <time>2021-09-11T11:57:56.013Z</time>
      </trkpt>
      <trkpt lat="45.92525" lon="5.90419">
        <ele>318</ele>
        <time>2021-09-11T11:57:57.013Z</time>
      </trkpt>
      <trkpt lat="45.92529" lon="5.90411">
        <ele>318</ele>
        <time>2021-09-11T11:57:58.013Z</time>
      </trkpt>
      <trkpt lat="45.92534" lon="5.90403">
        <ele>318</ele>
        <time>2021-09-11T11:57:59.013Z</time>
      </trkpt>
      <trkpt lat="45.92538" lon="5.90395">
        <ele>317</ele>
        <time>2021-09-11T11:58:00.013Z</time>
      </trkpt>
      <trkpt lat="45.92543" lon="5.90386">
        <ele>317</ele>
        <time>2021-09-11T11:58:01.013Z</time>
      </trkpt>
      <trkpt lat="45.92547" lon="5.90378">
        <ele>316</ele>
        <time>2021-09-11T11:58:02.013Z</time>
      </trkpt>
      <trkpt lat="45.92552" lon="5.9037">
        <ele>316</ele>
        <time>2021-09-11T11:58:03.013Z</time>
      </trkpt>
      <trkpt lat="45.92557" lon="5.90362">
        <ele>316</ele>
        <time>2021-09-11T11:58:04.013Z</time>
      </trkpt>
      <trkpt lat="45.92562" lon="5.90354">
        <ele>315</ele>
        <time>2021-09-11T11:58:05.013Z</time>
      </trkpt>
      <trkpt lat="45.92567" lon="5.90345">
        <ele>315</ele>
        <time>2021-09-11T11:58:06.013Z</time>
      </trkpt>
      <trkpt lat="45.92572" lon="5.90336">
        <ele>316</ele>
        <time>2021-09-11T11:58:07.013Z</time>
      </trkpt>
      <trkpt lat="45.92577" lon="5.90328">
        <ele>315</ele>
        <time>2021-09-11T11:58:08.013Z</time>
      </trkpt>
      <trkpt lat="45.92582" lon="5.90319">
        <ele>315</ele>
        <time>2021-09-11T11:58:09.013Z</time>
      </trkpt>
      <trkpt lat="45.92587" lon="5.90311">
        <ele>315</ele>
        <time>2021-09-11T11:58:10.013Z</time>
      </trkpt>
      <trkpt lat="45.92592" lon="5.90302">
        <ele>315</ele>
        <time>2021-09-11T11:58:11.013Z</time>
      </trkpt>
      <trkpt lat="45.92597" lon="5.90293">
        <ele>315</ele>
        <time>2021-09-11T11:58:12.013Z</time>
      </trkpt>
      <trkpt lat="45.92602" lon="5.90285">
        <ele>315</ele>
        <time>2021-09-11T11:58:13.013Z</time>
      </trkpt>
      <trkpt lat="45.92607" lon="5.90276">
        <ele>315</ele>
        <time>2021-09-11T11:58:14.013Z</time>
      </trkpt>
      <trkpt lat="45.92612" lon="5.90267">
        <ele>315</ele>
        <time>2021-09-11T11:58:15.013Z</time>
      </trkpt>
      <trkpt lat="45.92617" lon="5.90259">
        <ele>314</ele>
        <time>2021-09-11T11:58:16.013Z</time>
      </trkpt>
      <trkpt lat="45.92622" lon="5.9025">
        <ele>314</ele>
        <time>2021-09-11T11:58:17.014Z</time>
      </trkpt>
      <trkpt lat="45.92627" lon="5.90242">
        <ele>314</ele>
        <time>2021-09-11T11:58:18.013Z</time>
      </trkpt>
      <trkpt lat="45.92632" lon="5.90233">
        <ele>314</ele>
        <time>2021-09-11T11:58:19.013Z</time>
      </trkpt>
      <trkpt lat="45.92636" lon="5.90224">
        <ele>314</ele>
        <time>2021-09-11T11:58:20.013Z</time>
      </trkpt>
      <trkpt lat="45.92641" lon="5.90216">
        <ele>314</ele>
        <time>2021-09-11T11:58:21.013Z</time>
      </trkpt>
      <trkpt lat="45.92646" lon="5.90207">
        <ele>314</ele>
        <time>2021-09-11T11:58:22.013Z</time>
      </trkpt>
      <trkpt lat="45.92651" lon="5.90199">
        <ele>313</ele>
        <time>2021-09-11T11:58:23.013Z</time>
      </trkpt>
      <trkpt lat="45.92656" lon="5.90191">
        <ele>313</ele>
        <time>2021-09-11T11:58:24.014Z</time>
      </trkpt>
      <trkpt lat="45.92661" lon="5.90182">
        <ele>312</ele>
        <time>2021-09-11T11:58:25.013Z</time>
      </trkpt>
      <trkpt lat="45.92666" lon="5.90174">
        <ele>312</ele>
        <time>2021-09-11T11:58:26.013Z</time>
      </trkpt>
      <trkpt lat="45.92671" lon="5.90166">
        <ele>312</ele>
        <time>2021-09-11T11:58:27.013Z</time>
      </trkpt>
      <trkpt lat="45.92676" lon="5.90159">
        <ele>312</ele>
        <time>2021-09-11T11:58:28.013Z</time>
      </trkpt>
      <trkpt lat="45.92681" lon="5.90152">
        <ele>312</ele>
        <time>2021-09-11T11:58:29.013Z</time>
      </trkpt>
      <trkpt lat="45.92687" lon="5.90145">
        <ele>312</ele>
        <time>2021-09-11T11:58:30.013Z</time>
      </trkpt>
      <trkpt lat="45.92692" lon="5.90138">
        <ele>312</ele>
        <time>2021-09-11T11:58:31.013Z</time>
      </trkpt>
      <trkpt lat="45.92697" lon="5.90133">
        <ele>312</ele>
        <time>2021-09-11T11:58:32.013Z</time>
      </trkpt>
      <trkpt lat="45.92703" lon="5.90128">
        <ele>312</ele>
        <time>2021-09-11T11:58:33.013Z</time>
      </trkpt>
      <trkpt lat="45.92709" lon="5.90123">
        <ele>312</ele>
        <time>2021-09-11T11:58:34.013Z</time>
      </trkpt>
      <trkpt lat="45.92715" lon="5.90119">
        <ele>312</ele>
        <time>2021-09-11T11:58:35.013Z</time>
      </trkpt>
      <trkpt lat="45.92721" lon="5.90115">
        <ele>312</ele>
        <time>2021-09-11T11:58:36.014Z</time>
      </trkpt>
      <trkpt lat="45.92727" lon="5.90113">
        <ele>312</ele>
        <time>2021-09-11T11:58:37.013Z</time>
      </trkpt>
      <trkpt lat="45.92732" lon="5.9011">
        <ele>312</ele>
        <time>2021-09-11T11:58:38.013Z</time>
      </trkpt>
      <trkpt lat="45.92732" lon="5.9011">
        <ele>312</ele>
        <time>2021-09-11T11:58:39.013Z</time>
      </trkpt>
      <trkpt lat="45.92744" lon="5.90106">
        <ele>312</ele>
        <time>2021-09-11T11:58:40.013Z</time>
      </trkpt>
      <trkpt lat="45.92749" lon="5.90104">
        <ele>312</ele>
        <time>2021-09-11T11:58:41.013Z</time>
      </trkpt>
      <trkpt lat="45.92755" lon="5.90101">
        <ele>312</ele>
        <time>2021-09-11T11:58:42.013Z</time>
      </trkpt>
      <trkpt lat="45.92761" lon="5.90099">
        <ele>312</ele>
        <time>2021-09-11T11:58:43.013Z</time>
      </trkpt>
      <trkpt lat="45.92766" lon="5.90097">
        <ele>312</ele>
        <time>2021-09-11T11:58:44.013Z</time>
      </trkpt>
      <trkpt lat="45.92772" lon="5.90094">
        <ele>312</ele>
        <time>2021-09-11T11:58:45.013Z</time>
      </trkpt>
      <trkpt lat="45.92778" lon="5.90091">
        <ele>312</ele>
        <time>2021-09-11T11:58:46.013Z</time>
      </trkpt>
      <trkpt lat="45.92783" lon="5.90088">
        <ele>312</ele>
        <time>2021-09-11T11:58:47.014Z</time>
      </trkpt>
      <trkpt lat="45.92788" lon="5.90084">
        <ele>311</ele>
        <time>2021-09-11T11:58:48.013Z</time>
      </trkpt>
      <trkpt lat="45.92793" lon="5.90079">
        <ele>311</ele>
        <time>2021-09-11T11:58:49.013Z</time>
      </trkpt>
      <trkpt lat="45.92793" lon="5.90079">
        <ele>311</ele>
        <time>2021-09-11T11:58:50.013Z</time>
      </trkpt>
      <trkpt lat="45.92802" lon="5.9007">
        <ele>310</ele>
        <time>2021-09-11T11:58:51.013Z</time>
      </trkpt>
      <trkpt lat="45.92807" lon="5.90066">
        <ele>310</ele>
        <time>2021-09-11T11:58:52.013Z</time>
      </trkpt>
      <trkpt lat="45.92812" lon="5.90062">
        <ele>310</ele>
        <time>2021-09-11T11:58:53.013Z</time>
      </trkpt>
      <trkpt lat="45.92816" lon="5.90057">
        <ele>310</ele>
        <time>2021-09-11T11:58:54.013Z</time>
      </trkpt>
      <trkpt lat="45.92821" lon="5.90052">
        <ele>310</ele>
        <time>2021-09-11T11:58:55.013Z</time>
      </trkpt>
      <trkpt lat="45.92825" lon="5.90048">
        <ele>310</ele>
        <time>2021-09-11T11:58:56.013Z</time>
      </trkpt>
      <trkpt lat="45.92829" lon="5.90044">
        <ele>310</ele>
        <time>2021-09-11T11:58:57.013Z</time>
      </trkpt>
      <trkpt lat="45.92833" lon="5.9004">
        <ele>310</ele>
        <time>2021-09-11T11:58:58.013Z</time>
      </trkpt>
      <trkpt lat="45.92838" lon="5.90036">
        <ele>310</ele>
        <time>2021-09-11T11:58:59.013Z</time>
      </trkpt>
      <trkpt lat="45.92842" lon="5.90032">
        <ele>310</ele>
        <time>2021-09-11T11:59:00.013Z</time>
      </trkpt>
      <trkpt lat="45.92846" lon="5.90027">
        <ele>310</ele>
        <time>2021-09-11T11:59:01.013Z</time>
      </trkpt>
      <trkpt lat="45.92851" lon="5.90023">
        <ele>310</ele>
        <time>2021-09-11T11:59:02.014Z</time>
      </trkpt>
      <trkpt lat="45.92855" lon="5.90019">
        <ele>310</ele>
        <time>2021-09-11T11:59:03.014Z</time>
      </trkpt>
      <trkpt lat="45.92859" lon="5.90015">
        <ele>310</ele>
        <time>2021-09-11T11:59:04.013Z</time>
      </trkpt>
      <trkpt lat="45.92864" lon="5.9001">
        <ele>310</ele>
        <time>2021-09-11T11:59:05.013Z</time>
      </trkpt>
      <trkpt lat="45.92864" lon="5.9001">
        <ele>310</ele>
        <time>2021-09-11T11:59:06.013Z</time>
      </trkpt>
      <trkpt lat="45.92872" lon="5.90002">
        <ele>311</ele>
        <time>2021-09-11T11:59:07.014Z</time>
      </trkpt>
      <trkpt lat="45.92876" lon="5.89998">
        <ele>311</ele>
        <time>2021-09-11T11:59:08.013Z</time>
      </trkpt>
      <trkpt lat="45.92881" lon="5.89993">
        <ele>311</ele>
        <time>2021-09-11T11:59:09.014Z</time>
      </trkpt>
      <trkpt lat="45.92885" lon="5.89989">
        <ele>311</ele>
        <time>2021-09-11T11:59:10.013Z</time>
      </trkpt>
      <trkpt lat="45.92889" lon="5.89985">
        <ele>311</ele>
        <time>2021-09-11T11:59:11.014Z</time>
      </trkpt>
      <trkpt lat="45.92893" lon="5.89981">
        <ele>311</ele>
        <time>2021-09-11T11:59:12.013Z</time>
      </trkpt>
      <trkpt lat="45.92897" lon="5.89978">
        <ele>311</ele>
        <time>2021-09-11T11:59:13.013Z</time>
      </trkpt>
      <trkpt lat="45.92901" lon="5.89974">
        <ele>312</ele>
        <time>2021-09-11T11:59:14.013Z</time>
      </trkpt>
      <trkpt lat="45.92905" lon="5.8997">
        <ele>311</ele>
        <time>2021-09-11T11:59:15.013Z</time>
      </trkpt>
      <trkpt lat="45.92909" lon="5.89966">
        <ele>312</ele>
        <time>2021-09-11T11:59:16.014Z</time>
      </trkpt>
      <trkpt lat="45.92914" lon="5.89961">
        <ele>312</ele>
        <time>2021-09-11T11:59:17.013Z</time>
      </trkpt>
      <trkpt lat="45.92918" lon="5.89956">
        <ele>312</ele>
        <time>2021-09-11T11:59:18.013Z</time>
      </trkpt>
      <trkpt lat="45.92921" lon="5.89951">
        <ele>312</ele>
        <time>2021-09-11T11:59:19.014Z</time>
      </trkpt>
      <trkpt lat="45.92925" lon="5.89947">
        <ele>312</ele>
        <time>2021-09-11T11:59:20.013Z</time>
      </trkpt>
      <trkpt lat="45.92929" lon="5.89941">
        <ele>312</ele>
        <time>2021-09-11T11:59:21.013Z</time>
      </trkpt>
      <trkpt lat="45.92933" lon="5.89936">
        <ele>312</ele>
        <time>2021-09-11T11:59:22.013Z</time>
      </trkpt>
      <trkpt lat="45.92937" lon="5.89931">
        <ele>312</ele>
        <time>2021-09-11T11:59:23.013Z</time>
      </trkpt>
      <trkpt lat="45.92941" lon="5.89926">
        <ele>312</ele>
        <time>2021-09-11T11:59:24.014Z</time>
      </trkpt>
      <trkpt lat="45.92945" lon="5.89921">
        <ele>312</ele>
        <time>2021-09-11T11:59:25.013Z</time>
      </trkpt>
      <trkpt lat="45.92948" lon="5.89916">
        <ele>311</ele>
        <time>2021-09-11T12:02:04.052Z</time>
      </trkpt>
      <trkpt lat="45.92952" lon="5.89911">
        <ele>311</ele>
        <time>2021-09-11T12:02:05.052Z</time>
      </trkpt>
      <trkpt lat="45.92956" lon="5.89906">
        <ele>311</ele>
        <time>2021-09-11T12:02:06.052Z</time>
      </trkpt>
      <trkpt lat="45.92959" lon="5.899">
        <ele>311</ele>
        <time>2021-09-11T12:02:07.052Z</time>
      </trkpt>
      <trkpt lat="45.92962" lon="5.89895">
        <ele>311</ele>
        <time>2021-09-11T12:02:08.052Z</time>
      </trkpt>
      <trkpt lat="45.92965" lon="5.8989">
        <ele>312</ele>
        <time>2021-09-11T12:02:09.052Z</time>
      </trkpt>
      <trkpt lat="45.92969" lon="5.89884">
        <ele>312</ele>
        <time>2021-09-11T12:02:10.052Z</time>
      </trkpt>
      <trkpt lat="45.92972" lon="5.89879">
        <ele>312</ele>
        <time>2021-09-11T12:02:11.052Z</time>
      </trkpt>
      <trkpt lat="45.92975" lon="5.89873">
        <ele>312</ele>
        <time>2021-09-11T12:02:12.052Z</time>
      </trkpt>
      <trkpt lat="45.92978" lon="5.89867">
        <ele>312</ele>
        <time>2021-09-11T12:02:13.052Z</time>
      </trkpt>
      <trkpt lat="45.92982" lon="5.89862">
        <ele>312</ele>
        <time>2021-09-11T12:02:14.052Z</time>
      </trkpt>
      <trkpt lat="45.92985" lon="5.89856">
        <ele>312</ele>
        <time>2021-09-11T12:02:15.053Z</time>
      </trkpt>
      <trkpt lat="45.92988" lon="5.89851">
        <ele>312</ele>
        <time>2021-09-11T12:02:16.053Z</time>
      </trkpt>
      <trkpt lat="45.92992" lon="5.89846">
        <ele>312</ele>
        <time>2021-09-11T12:02:17.052Z</time>
      </trkpt>
      <trkpt lat="45.92995" lon="5.89841">
        <ele>311</ele>
        <time>2021-09-11T12:02:18.052Z</time>
      </trkpt>
      <trkpt lat="45.92998" lon="5.89835">
        <ele>311</ele>
        <time>2021-09-11T12:02:19.052Z</time>
      </trkpt>
      <trkpt lat="45.92998" lon="5.89835">
        <ele>311</ele>
        <time>2021-09-11T12:02:20.052Z</time>
      </trkpt>
      <trkpt lat="45.93004" lon="5.89824">
        <ele>311</ele>
        <time>2021-09-11T12:02:21.052Z</time>
      </trkpt>
      <trkpt lat="45.93007" lon="5.89819">
        <ele>311</ele>
        <time>2021-09-11T12:02:22.052Z</time>
      </trkpt>
      <trkpt lat="45.9301" lon="5.89813">
        <ele>311</ele>
        <time>2021-09-11T12:02:23.052Z</time>
      </trkpt>
      <trkpt lat="45.93013" lon="5.89807">
        <ele>311</ele>
        <time>2021-09-11T12:02:24.052Z</time>
      </trkpt>
      <trkpt lat="45.93016" lon="5.89801">
        <ele>311</ele>
        <time>2021-09-11T12:02:25.052Z</time>
      </trkpt>
      <trkpt lat="45.93019" lon="5.89795">
        <ele>311</ele>
        <time>2021-09-11T12:02:26.052Z</time>
      </trkpt>
      <trkpt lat="45.93022" lon="5.89789">
        <ele>311</ele>
        <time>2021-09-11T12:02:27.052Z</time>
      </trkpt>
      <trkpt lat="45.93025" lon="5.89783">
        <ele>311</ele>
        <time>2021-09-11T12:02:28.052Z</time>
      </trkpt>
      <trkpt lat="45.93028" lon="5.89777">
        <ele>311</ele>
        <time>2021-09-11T12:02:29.052Z</time>
      </trkpt>
      <trkpt lat="45.9303" lon="5.89771">
        <ele>311</ele>
        <time>2021-09-11T12:02:30.052Z</time>
      </trkpt>
      <trkpt lat="45.93033" lon="5.89765">
        <ele>311</ele>
        <time>2021-09-11T12:02:31.052Z</time>
      </trkpt>
      <trkpt lat="45.93035" lon="5.89759">
        <ele>311</ele>
        <time>2021-09-11T12:02:32.052Z</time>
      </trkpt>
      <trkpt lat="45.93037" lon="5.89754">
        <ele>311</ele>
        <time>2021-09-11T12:02:33.052Z</time>
      </trkpt>
      <trkpt lat="45.93039" lon="5.89749">
        <ele>312</ele>
        <time>2021-09-11T12:02:34.053Z</time>
      </trkpt>
      <trkpt lat="45.93041" lon="5.89744">
        <ele>312</ele>
        <time>2021-09-11T12:02:35.053Z</time>
      </trkpt>
      <trkpt lat="45.93043" lon="5.89739">
        <ele>312</ele>
        <time>2021-09-11T12:02:36.052Z</time>
      </trkpt>
      <trkpt lat="45.93044" lon="5.89734">
        <ele>312</ele>
        <time>2021-09-11T12:02:37.052Z</time>
      </trkpt>
      <trkpt lat="45.93046" lon="5.89728">
        <ele>312</ele>
        <time>2021-09-11T12:02:38.052Z</time>
      </trkpt>
      <trkpt lat="45.93047" lon="5.89723">
        <ele>313</ele>
        <time>2021-09-11T12:02:39.053Z</time>
      </trkpt>
      <trkpt lat="45.93049" lon="5.89717">
        <ele>313</ele>
        <time>2021-09-11T12:02:40.052Z</time>
      </trkpt>
      <trkpt lat="45.9305" lon="5.89711">
        <ele>313</ele>
        <time>2021-09-11T12:02:41.052Z</time>
      </trkpt>
      <trkpt lat="45.93051" lon="5.89706">
        <ele>313</ele>
        <time>2021-09-11T12:02:42.053Z</time>
      </trkpt>
      <trkpt lat="45.93052" lon="5.897">
        <ele>313</ele>
        <time>2021-09-11T12:02:43.052Z</time>
      </trkpt>
      <trkpt lat="45.93053" lon="5.89695">
        <ele>313</ele>
        <time>2021-09-11T12:02:44.052Z</time>
      </trkpt>
      <trkpt lat="45.93054" lon="5.89689">
        <ele>313</ele>
        <time>2021-09-11T12:02:45.053Z</time>
      </trkpt>
      <trkpt lat="45.93055" lon="5.89684">
        <ele>314</ele>
        <time>2021-09-11T12:02:46.052Z</time>
      </trkpt>
      <trkpt lat="45.93056" lon="5.89678">
        <ele>314</ele>
        <time>2021-09-11T12:02:47.052Z</time>
      </trkpt>
      <trkpt lat="45.93056" lon="5.89672">
        <ele>315</ele>
        <time>2021-09-11T12:02:48.052Z</time>
      </trkpt>
      <trkpt lat="45.93057" lon="5.89666">
        <ele>315</ele>
        <time>2021-09-11T12:02:49.052Z</time>
      </trkpt>
      <trkpt lat="45.93057" lon="5.8966">
        <ele>314</ele>
        <time>2021-09-11T12:02:50.052Z</time>
      </trkpt>
      <trkpt lat="45.93058" lon="5.89654">
        <ele>314</ele>
        <time>2021-09-11T12:02:51.053Z</time>
      </trkpt>
      <trkpt lat="45.93058" lon="5.89649">
        <ele>314</ele>
        <time>2021-09-11T12:02:52.052Z</time>
      </trkpt>
      <trkpt lat="45.93058" lon="5.89643">
        <ele>314</ele>
        <time>2021-09-11T12:02:53.052Z</time>
      </trkpt>
      <trkpt lat="45.93059" lon="5.89637">
        <ele>314</ele>
        <time>2021-09-11T12:02:54.052Z</time>
      </trkpt>
      <trkpt lat="45.93059" lon="5.89632">
        <ele>314</ele>
        <time>2021-09-11T12:02:55.052Z</time>
      </trkpt>
      <trkpt lat="45.93058" lon="5.89627">
        <ele>314</ele>
        <time>2021-09-11T12:02:56.052Z</time>
      </trkpt>
      <trkpt lat="45.93058" lon="5.89622">
        <ele>314</ele>
        <time>2021-09-11T12:02:57.053Z</time>
      </trkpt>
      <trkpt lat="45.93058" lon="5.89617">
        <ele>314</ele>
        <time>2021-09-11T12:02:58.053Z</time>
      </trkpt>
      <trkpt lat="45.93058" lon="5.89612">
        <ele>314</ele>
        <time>2021-09-11T12:02:59.053Z</time>
      </trkpt>
      <trkpt lat="45.93058" lon="5.89607">
        <ele>314</ele>
        <time>2021-09-11T12:03:00.052Z</time>
      </trkpt>
      <trkpt lat="45.93058" lon="5.89603">
        <ele>315</ele>
        <time>2021-09-11T12:03:01.052Z</time>
      </trkpt>
      <trkpt lat="45.93057" lon="5.89598">
        <ele>315</ele>
        <time>2021-09-11T12:03:02.052Z</time>
      </trkpt>
      <trkpt lat="45.93057" lon="5.89593">
        <ele>316</ele>
        <time>2021-09-11T12:03:03.052Z</time>
      </trkpt>
      <trkpt lat="45.93056" lon="5.89589">
        <ele>317</ele>
        <time>2021-09-11T12:03:04.053Z</time>
      </trkpt>
      <trkpt lat="45.93056" lon="5.89585">
        <ele>317</ele>
        <time>2021-09-11T12:03:05.052Z</time>
      </trkpt>
      <trkpt lat="45.93056" lon="5.8958">
        <ele>318</ele>
        <time>2021-09-11T12:03:06.053Z</time>
      </trkpt>
      <trkpt lat="45.93055" lon="5.89576">
        <ele>318</ele>
        <time>2021-09-11T12:03:07.052Z</time>
      </trkpt>
      <trkpt lat="45.93055" lon="5.89572">
        <ele>318</ele>
        <time>2021-09-11T12:03:08.052Z</time>
      </trkpt>
      <trkpt lat="45.93055" lon="5.89569">
        <ele>318</ele>
        <time>2021-09-11T12:03:09.052Z</time>
      </trkpt>
      <trkpt lat="45.93055" lon="5.89565">
        <ele>318</ele>
        <time>2021-09-11T12:03:10.052Z</time>
      </trkpt>
      <trkpt lat="45.93055" lon="5.89561">
        <ele>318</ele>
        <time>2021-09-11T12:03:11.052Z</time>
      </trkpt>
      <trkpt lat="45.93054" lon="5.89557">
        <ele>318</ele>
        <time>2021-09-11T12:03:12.052Z</time>
      </trkpt>
      <trkpt lat="45.93054" lon="5.89552">
        <ele>318</ele>
        <time>2021-09-11T12:03:13.052Z</time>
      </trkpt>
      <trkpt lat="45.93053" lon="5.89548">
        <ele>318</ele>
        <time>2021-09-11T12:03:14.052Z</time>
      </trkpt>
      <trkpt lat="45.93053" lon="5.89544">
        <ele>318</ele>
        <time>2021-09-11T12:03:15.052Z</time>
      </trkpt>
      <trkpt lat="45.93052" lon="5.8954">
        <ele>319</ele>
        <time>2021-09-11T12:03:16.052Z</time>
      </trkpt>
      <trkpt lat="45.93052" lon="5.8954">
        <ele>319</ele>
        <time>2021-09-11T12:03:17.052Z</time>
      </trkpt>
      <trkpt lat="45.9305" lon="5.89531">
        <ele>319</ele>
        <time>2021-09-11T12:03:18.052Z</time>
      </trkpt>
      <trkpt lat="45.9305" lon="5.89527">
        <ele>319</ele>
        <time>2021-09-11T12:03:19.053Z</time>
      </trkpt>
      <trkpt lat="45.93049" lon="5.89523">
        <ele>319</ele>
        <time>2021-09-11T12:03:20.052Z</time>
      </trkpt>
      <trkpt lat="45.93048" lon="5.89519">
        <ele>320</ele>
        <time>2021-09-11T12:03:21.053Z</time>
      </trkpt>
      <trkpt lat="45.93048" lon="5.89515">
        <ele>320</ele>
        <time>2021-09-11T12:03:22.052Z</time>
      </trkpt>
      <trkpt lat="45.93047" lon="5.89511">
        <ele>320</ele>
        <time>2021-09-11T12:03:23.052Z</time>
      </trkpt>
      <trkpt lat="45.93047" lon="5.89507">
        <ele>320</ele>
        <time>2021-09-11T12:03:24.052Z</time>
      </trkpt>
      <trkpt lat="45.93046" lon="5.89503">
        <ele>320</ele>
        <time>2021-09-11T12:03:25.052Z</time>
      </trkpt>
      <trkpt lat="45.93046" lon="5.89498">
        <ele>320</ele>
        <time>2021-09-11T12:03:26.052Z</time>
      </trkpt>
      <trkpt lat="45.93045" lon="5.89494">
        <ele>320</ele>
        <time>2021-09-11T12:03:27.052Z</time>
      </trkpt>
      <trkpt lat="45.93044" lon="5.89491">
        <ele>321</ele>
        <time>2021-09-11T12:03:28.053Z</time>
      </trkpt>
      <trkpt lat="45.93044" lon="5.89486">
        <ele>321</ele>
        <time>2021-09-11T12:03:29.052Z</time>
      </trkpt>
      <trkpt lat="45.93043" lon="5.89482">
        <ele>321</ele>
        <time>2021-09-11T12:03:30.052Z</time>
      </trkpt>
      <trkpt lat="45.93042" lon="5.89478">
        <ele>321</ele>
        <time>2021-09-11T12:03:31.052Z</time>
      </trkpt>
      <trkpt lat="45.93042" lon="5.89474">
        <ele>321</ele>
        <time>2021-09-11T12:03:32.052Z</time>
      </trkpt>
      <trkpt lat="45.93041" lon="5.8947">
        <ele>322</ele>
        <time>2021-09-11T12:03:33.052Z</time>
      </trkpt>
      <trkpt lat="45.9304" lon="5.89466">
        <ele>322</ele>
        <time>2021-09-11T12:03:34.053Z</time>
      </trkpt>
      <trkpt lat="45.9304" lon="5.89462">
        <ele>322</ele>
        <time>2021-09-11T12:03:35.052Z</time>
      </trkpt>
      <trkpt lat="45.93039" lon="5.89458">
        <ele>323</ele>
        <time>2021-09-11T12:03:36.053Z</time>
      </trkpt>
      <trkpt lat="45.93039" lon="5.89454">
        <ele>323</ele>
        <time>2021-09-11T12:03:37.052Z</time>
      </trkpt>
      <trkpt lat="45.93038" lon="5.8945">
        <ele>322</ele>
        <time>2021-09-11T12:03:38.052Z</time>
      </trkpt>
      <trkpt lat="45.93038" lon="5.89446">
        <ele>322</ele>
        <time>2021-09-11T12:03:39.052Z</time>
      </trkpt>
      <trkpt lat="45.93037" lon="5.89442">
        <ele>322</ele>
        <time>2021-09-11T12:03:40.052Z</time>
      </trkpt>
      <trkpt lat="45.93036" lon="5.89437">
        <ele>322</ele>
        <time>2021-09-11T12:03:41.052Z</time>
      </trkpt>
      <trkpt lat="45.93035" lon="5.89433">
        <ele>323</ele>
        <time>2021-09-11T12:03:42.052Z</time>
      </trkpt>
      <trkpt lat="45.93034" lon="5.89429">
        <ele>323</ele>
        <time>2021-09-11T12:03:43.052Z</time>
      </trkpt>
      <trkpt lat="45.93033" lon="5.89425">
        <ele>322</ele>
        <time>2021-09-11T12:03:44.052Z</time>
      </trkpt>
      <trkpt lat="45.93032" lon="5.89421">
        <ele>322</ele>
        <time>2021-09-11T12:03:45.053Z</time>
      </trkpt>
      <trkpt lat="45.9303" lon="5.89417">
        <ele>321</ele>
        <time>2021-09-11T12:03:46.052Z</time>
      </trkpt>
      <trkpt lat="45.93029" lon="5.89414">
        <ele>321</ele>
        <time>2021-09-11T12:03:47.052Z</time>
      </trkpt>
      <trkpt lat="45.93028" lon="5.89411">
        <ele>321</ele>
        <time>2021-09-11T12:03:48.052Z</time>
      </trkpt>
      <trkpt lat="45.93027" lon="5.89407">
        <ele>321</ele>
        <time>2021-09-11T12:03:49.053Z</time>
      </trkpt>
      <trkpt lat="45.93025" lon="5.89404">
        <ele>322</ele>
        <time>2021-09-11T12:03:50.052Z</time>
      </trkpt>
      <trkpt lat="45.93024" lon="5.89401">
        <ele>322</ele>
        <time>2021-09-11T12:03:51.052Z</time>
      </trkpt>
      <trkpt lat="45.93022" lon="5.89397">
        <ele>322</ele>
        <time>2021-09-11T12:03:52.052Z</time>
      </trkpt>
      <trkpt lat="45.9302" lon="5.89394">
        <ele>322</ele>
        <time>2021-09-11T12:03:53.052Z</time>
      </trkpt>
      <trkpt lat="45.93019" lon="5.8939">
        <ele>322</ele>
        <time>2021-09-11T12:03:54.052Z</time>
      </trkpt>
      <trkpt lat="45.93017" lon="5.89387">
        <ele>321</ele>
        <time>2021-09-11T12:03:55.052Z</time>
      </trkpt>
      <trkpt lat="45.93015" lon="5.89384">
        <ele>321</ele>
        <time>2021-09-11T12:03:56.052Z</time>
      </trkpt>
      <trkpt lat="45.93013" lon="5.8938">
        <ele>321</ele>
        <time>2021-09-11T12:03:57.052Z</time>
      </trkpt>
      <trkpt lat="45.93012" lon="5.89377">
        <ele>321</ele>
        <time>2021-09-11T12:03:58.052Z</time>
      </trkpt>
      <trkpt lat="45.9301" lon="5.89374">
        <ele>321</ele>
        <time>2021-09-11T12:03:59.052Z</time>
      </trkpt>
      <trkpt lat="45.93008" lon="5.8937">
        <ele>321</ele>
        <time>2021-09-11T12:04:00.052Z</time>
      </trkpt>
      <trkpt lat="45.93007" lon="5.89367">
        <ele>322</ele>
        <time>2021-09-11T12:04:01.052Z</time>
      </trkpt>
      <trkpt lat="45.93006" lon="5.89363">
        <ele>322</ele>
        <time>2021-09-11T12:04:02.052Z</time>
      </trkpt>
      <trkpt lat="45.93005" lon="5.89359">
        <ele>323</ele>
        <time>2021-09-11T12:04:03.052Z</time>
      </trkpt>
      <trkpt lat="45.93004" lon="5.89356">
        <ele>323</ele>
        <time>2021-09-11T12:04:04.052Z</time>
      </trkpt>
      <trkpt lat="45.93004" lon="5.89353">
        <ele>324</ele>
        <time>2021-09-11T12:04:05.052Z</time>
      </trkpt>
      <trkpt lat="45.93004" lon="5.8935">
        <ele>324</ele>
        <time>2021-09-11T12:04:06.052Z</time>
      </trkpt>
      <trkpt lat="45.93004" lon="5.89346">
        <ele>325</ele>
        <time>2021-09-11T12:04:07.052Z</time>
      </trkpt>
      <trkpt lat="45.93004" lon="5.89342">
        <ele>325</ele>
        <time>2021-09-11T12:04:08.052Z</time>
      </trkpt>
      <trkpt lat="45.93004" lon="5.89338">
        <ele>325</ele>
        <time>2021-09-11T12:04:09.052Z</time>
      </trkpt>
      <trkpt lat="45.93005" lon="5.89335">
        <ele>325</ele>
        <time>2021-09-11T12:04:10.052Z</time>
      </trkpt>
      <trkpt lat="45.93005" lon="5.89331">
        <ele>326</ele>
        <time>2021-09-11T12:04:11.052Z</time>
      </trkpt>
      <trkpt lat="45.93006" lon="5.89326">
        <ele>326</ele>
        <time>2021-09-11T12:04:12.053Z</time>
      </trkpt>
      <trkpt lat="45.93007" lon="5.89322">
        <ele>326</ele>
        <time>2021-09-11T12:04:13.052Z</time>
      </trkpt>
      <trkpt lat="45.93008" lon="5.89317">
        <ele>327</ele>
        <time>2021-09-11T12:04:14.052Z</time>
      </trkpt>
      <trkpt lat="45.93008" lon="5.89313">
        <ele>327</ele>
        <time>2021-09-11T12:04:35.191Z</time>
      </trkpt>
      <trkpt lat="45.93009" lon="5.89308">
        <ele>327</ele>
        <time>2021-09-11T12:04:36.192Z</time>
      </trkpt>
      <trkpt lat="45.9301" lon="5.89304">
        <ele>327</ele>
        <time>2021-09-11T12:04:37.191Z</time>
      </trkpt>
      <trkpt lat="45.93011" lon="5.893">
        <ele>327</ele>
        <time>2021-09-11T12:04:38.191Z</time>
      </trkpt>
      <trkpt lat="45.93012" lon="5.89296">
        <ele>328</ele>
        <time>2021-09-11T12:04:39.191Z</time>
      </trkpt>
      <trkpt lat="45.93013" lon="5.89291">
        <ele>328</ele>
        <time>2021-09-11T12:04:40.191Z</time>
      </trkpt>
      <trkpt lat="45.93015" lon="5.89287">
        <ele>328</ele>
        <time>2021-09-11T12:04:41.191Z</time>
      </trkpt>
      <trkpt lat="45.93015" lon="5.89283">
        <ele>328</ele>
        <time>2021-09-11T12:04:42.191Z</time>
      </trkpt>
      <trkpt lat="45.93017" lon="5.8928">
        <ele>328</ele>
        <time>2021-09-11T12:04:43.191Z</time>
      </trkpt>
      <trkpt lat="45.93018" lon="5.89276">
        <ele>328</ele>
        <time>2021-09-11T12:04:44.191Z</time>
      </trkpt>
      <trkpt lat="45.93019" lon="5.89272">
        <ele>328</ele>
        <time>2021-09-11T12:04:45.191Z</time>
      </trkpt>
      <trkpt lat="45.9302" lon="5.89268">
        <ele>328</ele>
        <time>2021-09-11T12:04:46.191Z</time>
      </trkpt>
      <trkpt lat="45.9302" lon="5.89263">
        <ele>328</ele>
        <time>2021-09-11T12:04:47.191Z</time>
      </trkpt>
      <trkpt lat="45.93021" lon="5.89259">
        <ele>328</ele>
        <time>2021-09-11T12:04:48.191Z</time>
      </trkpt>
      <trkpt lat="45.93021" lon="5.89254">
        <ele>328</ele>
        <time>2021-09-11T12:04:49.191Z</time>
      </trkpt>
      <trkpt lat="45.93021" lon="5.8925">
        <ele>328</ele>
        <time>2021-09-11T12:04:50.191Z</time>
      </trkpt>
      <trkpt lat="45.93022" lon="5.89245">
        <ele>327</ele>
        <time>2021-09-11T12:04:51.192Z</time>
      </trkpt>
      <trkpt lat="45.93022" lon="5.89241">
        <ele>327</ele>
        <time>2021-09-11T12:04:52.191Z</time>
      </trkpt>
      <trkpt lat="45.93022" lon="5.89236">
        <ele>327</ele>
        <time>2021-09-11T12:04:53.191Z</time>
      </trkpt>
      <trkpt lat="45.93023" lon="5.89232">
        <ele>327</ele>
        <time>2021-09-11T12:04:54.191Z</time>
      </trkpt>
      <trkpt lat="45.93023" lon="5.89228">
        <ele>327</ele>
        <time>2021-09-11T12:04:55.191Z</time>
      </trkpt>
      <trkpt lat="45.93023" lon="5.89223">
        <ele>327</ele>
        <time>2021-09-11T12:04:56.191Z</time>
      </trkpt>
      <trkpt lat="45.93023" lon="5.89219">
        <ele>327</ele>
        <time>2021-09-11T12:04:57.191Z</time>
      </trkpt>
      <trkpt lat="45.93024" lon="5.89215">
        <ele>328</ele>
        <time>2021-09-11T12:04:58.191Z</time>
      </trkpt>
      <trkpt lat="45.93024" lon="5.8921">
        <ele>328</ele>
        <time>2021-09-11T12:04:59.191Z</time>
      </trkpt>
      <trkpt lat="45.93025" lon="5.89206">
        <ele>329</ele>
        <time>2021-09-11T12:05:00.191Z</time>
      </trkpt>
      <trkpt lat="45.93025" lon="5.89201">
        <ele>329</ele>
        <time>2021-09-11T12:05:01.191Z</time>
      </trkpt>
      <trkpt lat="45.93026" lon="5.89197">
        <ele>330</ele>
        <time>2021-09-11T12:05:02.191Z</time>
      </trkpt>
      <trkpt lat="45.93027" lon="5.89192">
        <ele>331</ele>
        <time>2021-09-11T12:05:03.191Z</time>
      </trkpt>
      <trkpt lat="45.93029" lon="5.89188">
        <ele>331</ele>
        <time>2021-09-11T12:05:04.191Z</time>
      </trkpt>
      <trkpt lat="45.9303" lon="5.89184">
        <ele>331</ele>
        <time>2021-09-11T12:05:05.191Z</time>
      </trkpt>
      <trkpt lat="45.93032" lon="5.8918">
        <ele>331</ele>
        <time>2021-09-11T12:05:06.191Z</time>
      </trkpt>
      <trkpt lat="45.93034" lon="5.89176">
        <ele>331</ele>
        <time>2021-09-11T12:05:07.191Z</time>
      </trkpt>
      <trkpt lat="45.93036" lon="5.89172">
        <ele>331</ele>
        <time>2021-09-11T12:05:08.191Z</time>
      </trkpt>
      <trkpt lat="45.93037" lon="5.89168">
        <ele>331</ele>
        <time>2021-09-11T12:05:09.191Z</time>
      </trkpt>
      <trkpt lat="45.93039" lon="5.89165">
        <ele>331</ele>
        <time>2021-09-11T12:05:10.191Z</time>
      </trkpt>
      <trkpt lat="45.93042" lon="5.89162">
        <ele>332</ele>
        <time>2021-09-11T12:05:11.191Z</time>
      </trkpt>
      <trkpt lat="45.93044" lon="5.89158">
        <ele>332</ele>
        <time>2021-09-11T12:05:12.191Z</time>
      </trkpt>
      <trkpt lat="45.93047" lon="5.89155">
        <ele>332</ele>
        <time>2021-09-11T12:05:13.191Z</time>
      </trkpt>
      <trkpt lat="45.93049" lon="5.89151">
        <ele>332</ele>
        <time>2021-09-11T12:05:14.191Z</time>
      </trkpt>
      <trkpt lat="45.93051" lon="5.89148">
        <ele>332</ele>
        <time>2021-09-11T12:05:15.191Z</time>
      </trkpt>
      <trkpt lat="45.93053" lon="5.89143">
        <ele>333</ele>
        <time>2021-09-11T12:05:16.191Z</time>
      </trkpt>
      <trkpt lat="45.93055" lon="5.8914">
        <ele>333</ele>
        <time>2021-09-11T12:05:17.191Z</time>
      </trkpt>
      <trkpt lat="45.93057" lon="5.89136">
        <ele>333</ele>
        <time>2021-09-11T12:05:18.191Z</time>
      </trkpt>
      <trkpt lat="45.93059" lon="5.89132">
        <ele>333</ele>
        <time>2021-09-11T12:05:19.191Z</time>
      </trkpt>
      <trkpt lat="45.93062" lon="5.89129">
        <ele>333</ele>
        <time>2021-09-11T12:05:20.191Z</time>
      </trkpt>
      <trkpt lat="45.93064" lon="5.89126">
        <ele>334</ele>
        <time>2021-09-11T12:05:21.191Z</time>
      </trkpt>
      <trkpt lat="45.93067" lon="5.89122">
        <ele>334</ele>
        <time>2021-09-11T12:05:22.192Z</time>
      </trkpt>
      <trkpt lat="45.9307" lon="5.89119">
        <ele>334</ele>
        <time>2021-09-11T12:05:23.192Z</time>
      </trkpt>
      <trkpt lat="45.93073" lon="5.89114">
        <ele>334</ele>
        <time>2021-09-11T12:05:24.191Z</time>
      </trkpt>
      <trkpt lat="45.93075" lon="5.89111">
        <ele>334</ele>
        <time>2021-09-11T12:05:25.191Z</time>
      </trkpt>
      <trkpt lat="45.93078" lon="5.89107">
        <ele>334</ele>
        <time>2021-09-11T12:05:26.191Z</time>
      </trkpt>
      <trkpt lat="45.9308" lon="5.89102">
        <ele>334</ele>
        <time>2021-09-11T12:05:27.191Z</time>
      </trkpt>
      <trkpt lat="45.93083" lon="5.89098">
        <ele>334</ele>
        <time>2021-09-11T12:05:28.191Z</time>
      </trkpt>
      <trkpt lat="45.93085" lon="5.89094">
        <ele>334</ele>
        <time>2021-09-11T12:05:29.191Z</time>
      </trkpt>
      <trkpt lat="45.93088" lon="5.8909">
        <ele>334</ele>
        <time>2021-09-11T12:05:30.191Z</time>
      </trkpt>
      <trkpt lat="45.9309" lon="5.89086">
        <ele>334</ele>
        <time>2021-09-11T12:05:31.191Z</time>
      </trkpt>
      <trkpt lat="45.93093" lon="5.89081">
        <ele>334</ele>
        <time>2021-09-11T12:05:32.192Z</time>
      </trkpt>
      <trkpt lat="45.93093" lon="5.89081">
        <ele>334</ele>
        <time>2021-09-11T12:05:33.192Z</time>
      </trkpt>
      <trkpt lat="45.93098" lon="5.89073">
        <ele>334</ele>
        <time>2021-09-11T12:05:34.192Z</time>
      </trkpt>
      <trkpt lat="45.931" lon="5.89068">
        <ele>333</ele>
        <time>2021-09-11T12:05:35.191Z</time>
      </trkpt>
      <trkpt lat="45.93102" lon="5.89064">
        <ele>333</ele>
        <time>2021-09-11T12:05:36.191Z</time>
      </trkpt>
      <trkpt lat="45.93105" lon="5.89059">
        <ele>333</ele>
        <time>2021-09-11T12:05:37.191Z</time>
      </trkpt>
      <trkpt lat="45.93107" lon="5.89054">
        <ele>333</ele>
        <time>2021-09-11T12:05:38.191Z</time>
      </trkpt>
      <trkpt lat="45.9311" lon="5.89049">
        <ele>333</ele>
        <time>2021-09-11T12:05:39.191Z</time>
      </trkpt>
      <trkpt lat="45.93112" lon="5.89045">
        <ele>333</ele>
        <time>2021-09-11T12:05:40.191Z</time>
      </trkpt>
      <trkpt lat="45.93114" lon="5.8904">
        <ele>334</ele>
        <time>2021-09-11T12:05:41.191Z</time>
      </trkpt>
      <trkpt lat="45.93116" lon="5.89036">
        <ele>334</ele>
        <time>2021-09-11T12:05:42.191Z</time>
      </trkpt>
      <trkpt lat="45.93118" lon="5.89031">
        <ele>334</ele>
        <time>2021-09-11T12:05:43.191Z</time>
      </trkpt>
      <trkpt lat="45.9312" lon="5.89027">
        <ele>335</ele>
        <time>2021-09-11T12:05:44.191Z</time>
      </trkpt>
      <trkpt lat="45.93122" lon="5.89022">
        <ele>335</ele>
        <time>2021-09-11T12:05:45.191Z</time>
      </trkpt>
      <trkpt lat="45.93124" lon="5.89017">
        <ele>336</ele>
        <time>2021-09-11T12:05:46.191Z</time>
      </trkpt>
      <trkpt lat="45.93125" lon="5.89011">
        <ele>336</ele>
        <time>2021-09-11T12:05:47.191Z</time>
      </trkpt>
      <trkpt lat="45.93127" lon="5.89006">
        <ele>336</ele>
        <time>2021-09-11T12:05:48.191Z</time>
      </trkpt>
      <trkpt lat="45.93129" lon="5.89001">
        <ele>337</ele>
        <time>2021-09-11T12:05:49.191Z</time>
      </trkpt>
      <trkpt lat="45.93131" lon="5.88996">
        <ele>337</ele>
        <time>2021-09-11T12:05:50.191Z</time>
      </trkpt>
      <trkpt lat="45.93132" lon="5.8899">
        <ele>338</ele>
        <time>2021-09-11T12:05:51.191Z</time>
      </trkpt>
      <trkpt lat="45.93133" lon="5.88985">
        <ele>338</ele>
        <time>2021-09-11T12:05:52.191Z</time>
      </trkpt>
      <trkpt lat="45.93134" lon="5.88979">
        <ele>339</ele>
        <time>2021-09-11T12:05:53.192Z</time>
      </trkpt>
      <trkpt lat="45.93135" lon="5.88973">
        <ele>340</ele>
        <time>2021-09-11T12:05:54.191Z</time>
      </trkpt>
      <trkpt lat="45.93135" lon="5.88967">
        <ele>341</ele>
        <time>2021-09-11T12:05:55.191Z</time>
      </trkpt>
      <trkpt lat="45.93137" lon="5.88961">
        <ele>341</ele>
        <time>2021-09-11T12:05:56.191Z</time>
      </trkpt>
      <trkpt lat="45.93137" lon="5.88961">
        <ele>341</ele>
        <time>2021-09-11T12:05:57.192Z</time>
      </trkpt>
      <trkpt lat="45.9314" lon="5.88952">
        <ele>341</ele>
        <time>2021-09-11T12:05:58.192Z</time>
      </trkpt>
      <trkpt lat="45.93142" lon="5.88945">
        <ele>341</ele>
        <time>2021-09-11T12:05:59.191Z</time>
      </trkpt>
      <trkpt lat="45.93145" lon="5.88939">
        <ele>341</ele>
        <time>2021-09-11T12:06:00.191Z</time>
      </trkpt>
      <trkpt lat="45.93147" lon="5.88934">
        <ele>341</ele>
        <time>2021-09-11T12:06:01.191Z</time>
      </trkpt>
      <trkpt lat="45.9315" lon="5.8893">
        <ele>340</ele>
        <time>2021-09-11T12:06:02.191Z</time>
      </trkpt>
      <trkpt lat="45.93152" lon="5.88924">
        <ele>340</ele>
        <time>2021-09-11T12:06:03.192Z</time>
      </trkpt>
      <trkpt lat="45.93152" lon="5.88924">
        <ele>340</ele>
        <time>2021-09-11T12:06:04.191Z</time>
      </trkpt>
      <trkpt lat="45.93157" lon="5.88913">
        <ele>340</ele>
        <time>2021-09-11T12:06:05.191Z</time>
      </trkpt>
      <trkpt lat="45.93157" lon="5.88913">
        <ele>340</ele>
        <time>2021-09-11T12:06:06.191Z</time>
      </trkpt>
      <trkpt lat="45.93161" lon="5.88902">
        <ele>340</ele>
        <time>2021-09-11T12:06:07.191Z</time>
      </trkpt>
      <trkpt lat="45.93161" lon="5.88902">
        <ele>340</ele>
        <time>2021-09-11T12:06:08.192Z</time>
      </trkpt>
      <trkpt lat="45.93165" lon="5.8889">
        <ele>339</ele>
        <time>2021-09-11T12:06:09.191Z</time>
      </trkpt>
      <trkpt lat="45.93167" lon="5.88885">
        <ele>339</ele>
        <time>2021-09-11T12:06:10.191Z</time>
      </trkpt>
      <trkpt lat="45.93169" lon="5.8888">
        <ele>339</ele>
        <time>2021-09-11T12:06:11.192Z</time>
      </trkpt>
      <trkpt lat="45.93172" lon="5.88876">
        <ele>338</ele>
        <time>2021-09-11T12:06:12.191Z</time>
      </trkpt>
      <trkpt lat="45.93174" lon="5.88871">
        <ele>338</ele>
        <time>2021-09-11T12:06:13.191Z</time>
      </trkpt>
      <trkpt lat="45.93176" lon="5.88866">
        <ele>339</ele>
        <time>2021-09-11T12:06:14.191Z</time>
      </trkpt>
      <trkpt lat="45.9318" lon="5.8886">
        <ele>339</ele>
        <time>2021-09-11T12:06:15.191Z</time>
      </trkpt>
      <trkpt lat="45.93182" lon="5.88855">
        <ele>339</ele>
        <time>2021-09-11T12:06:16.191Z</time>
      </trkpt>
      <trkpt lat="45.93184" lon="5.88851">
        <ele>339</ele>
        <time>2021-09-11T12:06:17.192Z</time>
      </trkpt>
      <trkpt lat="45.93188" lon="5.88844">
        <ele>338</ele>
        <time>2021-09-11T12:06:18.191Z</time>
      </trkpt>
      <trkpt lat="45.9319" lon="5.88838">
        <ele>338</ele>
        <time>2021-09-11T12:06:19.191Z</time>
      </trkpt>
      <trkpt lat="45.93194" lon="5.88833">
        <ele>338</ele>
        <time>2021-09-11T12:06:20.191Z</time>
      </trkpt>
      <trkpt lat="45.93197" lon="5.88828">
        <ele>338</ele>
        <time>2021-09-11T12:06:21.191Z</time>
      </trkpt>
      <trkpt lat="45.932" lon="5.88823">
        <ele>338</ele>
        <time>2021-09-11T12:06:22.192Z</time>
      </trkpt>
      <trkpt lat="45.93204" lon="5.88818">
        <ele>338</ele>
        <time>2021-09-11T12:06:23.191Z</time>
      </trkpt>
      <trkpt lat="45.93208" lon="5.88813">
        <ele>338</ele>
        <time>2021-09-11T12:06:24.191Z</time>
      </trkpt>
      <trkpt lat="45.93212" lon="5.88809">
        <ele>337</ele>
        <time>2021-09-11T12:06:25.191Z</time>
      </trkpt>
      <trkpt lat="45.93216" lon="5.88805">
        <ele>337</ele>
        <time>2021-09-11T12:06:26.191Z</time>
      </trkpt>
      <trkpt lat="45.9322" lon="5.88801">
        <ele>337</ele>
        <time>2021-09-11T12:06:27.191Z</time>
      </trkpt>
      <trkpt lat="45.93224" lon="5.88796">
        <ele>337</ele>
        <time>2021-09-11T12:06:28.191Z</time>
      </trkpt>
      <trkpt lat="45.93228" lon="5.88792">
        <ele>337</ele>
        <time>2021-09-11T12:06:29.191Z</time>
      </trkpt>
      <trkpt lat="45.93232" lon="5.88787">
        <ele>337</ele>
        <time>2021-09-11T12:06:30.192Z</time>
      </trkpt>
      <trkpt lat="45.93235" lon="5.88782">
        <ele>337</ele>
        <time>2021-09-11T12:06:31.191Z</time>
      </trkpt>
      <trkpt lat="45.93239" lon="5.88777">
        <ele>337</ele>
        <time>2021-09-11T12:06:32.191Z</time>
      </trkpt>
      <trkpt lat="45.93243" lon="5.88772">
        <ele>337</ele>
        <time>2021-09-11T12:06:33.191Z</time>
      </trkpt>
      <trkpt lat="45.93246" lon="5.88768">
        <ele>337</ele>
        <time>2021-09-11T12:06:34.191Z</time>
      </trkpt>
      <trkpt lat="45.9325" lon="5.88763">
        <ele>337</ele>
        <time>2021-09-11T12:06:35.191Z</time>
      </trkpt>
      <trkpt lat="45.93252" lon="5.88759">
        <ele>337</ele>
        <time>2021-09-11T12:06:36.192Z</time>
      </trkpt>
      <trkpt lat="45.93256" lon="5.88754">
        <ele>337</ele>
        <time>2021-09-11T12:06:37.192Z</time>
      </trkpt>
      <trkpt lat="45.9326" lon="5.88749">
        <ele>337</ele>
        <time>2021-09-11T12:06:38.191Z</time>
      </trkpt>
      <trkpt lat="45.93263" lon="5.88744">
        <ele>337</ele>
        <time>2021-09-11T12:06:39.191Z</time>
      </trkpt>
      <trkpt lat="45.93265" lon="5.88739">
        <ele>337</ele>
        <time>2021-09-11T12:06:40.191Z</time>
      </trkpt>
      <trkpt lat="45.93268" lon="5.88733">
        <ele>337</ele>
        <time>2021-09-11T12:06:41.191Z</time>
      </trkpt>
      <trkpt lat="45.93271" lon="5.88727">
        <ele>337</ele>
        <time>2021-09-11T12:06:42.191Z</time>
      </trkpt>
      <trkpt lat="45.93273" lon="5.88722">
        <ele>337</ele>
        <time>2021-09-11T12:06:43.191Z</time>
      </trkpt>
      <trkpt lat="45.93276" lon="5.88716">
        <ele>336</ele>
        <time>2021-09-11T12:06:44.191Z</time>
      </trkpt>
      <trkpt lat="45.93279" lon="5.88709">
        <ele>336</ele>
        <time>2021-09-11T12:06:45.191Z</time>
      </trkpt>
      <trkpt lat="45.93282" lon="5.88704">
        <ele>336</ele>
        <time>2021-09-11T12:06:46.191Z</time>
      </trkpt>
      <trkpt lat="45.93285" lon="5.88697">
        <ele>336</ele>
        <time>2021-09-11T12:06:47.191Z</time>
      </trkpt>
      <trkpt lat="45.93287" lon="5.88691">
        <ele>336</ele>
        <time>2021-09-11T12:06:48.191Z</time>
      </trkpt>
      <trkpt lat="45.93287" lon="5.88691">
        <ele>336</ele>
        <time>2021-09-11T12:06:49.191Z</time>
      </trkpt>
      <trkpt lat="45.93293" lon="5.88678">
        <ele>336</ele>
        <time>2021-09-11T12:06:50.191Z</time>
      </trkpt>
      <trkpt lat="45.93296" lon="5.88672">
        <ele>336</ele>
        <time>2021-09-11T12:06:51.191Z</time>
      </trkpt>
      <trkpt lat="45.93298" lon="5.88665">
        <ele>337</ele>
        <time>2021-09-11T12:06:52.191Z</time>
      </trkpt>
      <trkpt lat="45.93301" lon="5.88659">
        <ele>337</ele>
        <time>2021-09-11T12:06:53.191Z</time>
      </trkpt>
      <trkpt lat="45.93303" lon="5.88652">
        <ele>337</ele>
        <time>2021-09-11T12:06:54.191Z</time>
      </trkpt>
      <trkpt lat="45.93305" lon="5.88644">
        <ele>337</ele>
        <time>2021-09-11T12:06:55.191Z</time>
      </trkpt>
      <trkpt lat="45.93307" lon="5.88637">
        <ele>337</ele>
        <time>2021-09-11T12:06:56.191Z</time>
      </trkpt>
      <trkpt lat="45.93309" lon="5.8863">
        <ele>338</ele>
        <time>2021-09-11T12:06:57.191Z</time>
      </trkpt>
      <trkpt lat="45.93311" lon="5.88623">
        <ele>338</ele>
        <time>2021-09-11T12:06:58.191Z</time>
      </trkpt>
      <trkpt lat="45.93314" lon="5.88616">
        <ele>338</ele>
        <time>2021-09-11T12:06:59.191Z</time>
      </trkpt>
      <trkpt lat="45.93316" lon="5.88609">
        <ele>338</ele>
        <time>2021-09-11T12:07:00.191Z</time>
      </trkpt>
      <trkpt lat="45.93318" lon="5.88601">
        <ele>337</ele>
        <time>2021-09-11T12:07:01.191Z</time>
      </trkpt>
      <trkpt lat="45.9332" lon="5.88594">
        <ele>337</ele>
        <time>2021-09-11T12:07:02.192Z</time>
      </trkpt>
      <trkpt lat="45.93322" lon="5.88586">
        <ele>337</ele>
        <time>2021-09-11T12:07:03.191Z</time>
      </trkpt>
      <trkpt lat="45.93324" lon="5.88579">
        <ele>337</ele>
        <time>2021-09-11T12:07:04.191Z</time>
      </trkpt>
      <trkpt lat="45.93327" lon="5.88571">
        <ele>337</ele>
        <time>2021-09-11T12:07:05.191Z</time>
      </trkpt>
      <trkpt lat="45.93329" lon="5.88564">
        <ele>337</ele>
        <time>2021-09-11T12:07:06.191Z</time>
      </trkpt>
      <trkpt lat="45.93331" lon="5.88557">
        <ele>337</ele>
        <time>2021-09-11T12:07:07.191Z</time>
      </trkpt>
      <trkpt lat="45.93334" lon="5.8855">
        <ele>337</ele>
        <time>2021-09-11T12:07:08.191Z</time>
      </trkpt>
      <trkpt lat="45.93336" lon="5.88544">
        <ele>336</ele>
        <time>2021-09-11T12:07:09.191Z</time>
      </trkpt>
      <trkpt lat="45.93339" lon="5.88537">
        <ele>336</ele>
        <time>2021-09-11T12:07:10.191Z</time>
      </trkpt>
      <trkpt lat="45.93341" lon="5.88531">
        <ele>336</ele>
        <time>2021-09-11T12:07:11.192Z</time>
      </trkpt>
      <trkpt lat="45.93343" lon="5.88525">
        <ele>336</ele>
        <time>2021-09-11T12:07:12.191Z</time>
      </trkpt>
      <trkpt lat="45.93345" lon="5.88518">
        <ele>336</ele>
        <time>2021-09-11T12:07:13.191Z</time>
      </trkpt>
      <trkpt lat="45.93347" lon="5.88512">
        <ele>336</ele>
        <time>2021-09-11T12:07:14.191Z</time>
      </trkpt>
      <trkpt lat="45.93349" lon="5.88505">
        <ele>336</ele>
        <time>2021-09-11T12:07:15.191Z</time>
      </trkpt>
      <trkpt lat="45.9335" lon="5.88499">
        <ele>336</ele>
        <time>2021-09-11T12:07:16.191Z</time>
      </trkpt>
      <trkpt lat="45.93352" lon="5.88493">
        <ele>337</ele>
        <time>2021-09-11T12:07:17.191Z</time>
      </trkpt>
      <trkpt lat="45.93354" lon="5.88486">
        <ele>337</ele>
        <time>2021-09-11T12:07:18.191Z</time>
      </trkpt>
      <trkpt lat="45.93355" lon="5.88479">
        <ele>337</ele>
        <time>2021-09-11T12:07:19.191Z</time>
      </trkpt>
      <trkpt lat="45.93357" lon="5.88472">
        <ele>337</ele>
        <time>2021-09-11T12:07:20.191Z</time>
      </trkpt>
      <trkpt lat="45.93358" lon="5.88465">
        <ele>338</ele>
        <time>2021-09-11T12:07:21.191Z</time>
      </trkpt>
      <trkpt lat="45.9336" lon="5.88458">
        <ele>338</ele>
        <time>2021-09-11T12:07:22.191Z</time>
      </trkpt>
      <trkpt lat="45.93361" lon="5.88451">
        <ele>338</ele>
        <time>2021-09-11T12:07:23.191Z</time>
      </trkpt>
      <trkpt lat="45.93362" lon="5.88445">
        <ele>338</ele>
        <time>2021-09-11T12:07:24.191Z</time>
      </trkpt>
      <trkpt lat="45.93364" lon="5.88438">
        <ele>339</ele>
        <time>2021-09-11T12:07:25.191Z</time>
      </trkpt>
      <trkpt lat="45.93365" lon="5.88432">
        <ele>339</ele>
        <time>2021-09-11T12:07:26.191Z</time>
      </trkpt>
      <trkpt lat="45.93367" lon="5.88426">
        <ele>338</ele>
        <time>2021-09-11T12:07:27.191Z</time>
      </trkpt>
      <trkpt lat="45.93368" lon="5.88419">
        <ele>338</ele>
        <time>2021-09-11T12:07:28.191Z</time>
      </trkpt>
      <trkpt lat="45.9337" lon="5.88413">
        <ele>338</ele>
        <time>2021-09-11T12:07:29.191Z</time>
      </trkpt>
      <trkpt lat="45.93371" lon="5.88407">
        <ele>337</ele>
        <time>2021-09-11T12:07:30.191Z</time>
      </trkpt>
      <trkpt lat="45.93372" lon="5.884">
        <ele>337</ele>
        <time>2021-09-11T12:07:31.191Z</time>
      </trkpt>
      <trkpt lat="45.93373" lon="5.88394">
        <ele>337</ele>
        <time>2021-09-11T12:07:32.191Z</time>
      </trkpt>
      <trkpt lat="45.93374" lon="5.88389">
        <ele>337</ele>
        <time>2021-09-11T12:07:33.191Z</time>
      </trkpt>
      <trkpt lat="45.93375" lon="5.88383">
        <ele>337</ele>
        <time>2021-09-11T12:07:34.191Z</time>
      </trkpt>
      <trkpt lat="45.93376" lon="5.88378">
        <ele>336</ele>
        <time>2021-09-11T12:07:35.191Z</time>
      </trkpt>
      <trkpt lat="45.93377" lon="5.88373">
        <ele>336</ele>
        <time>2021-09-11T12:07:36.192Z</time>
      </trkpt>
      <trkpt lat="45.93377" lon="5.88368">
        <ele>336</ele>
        <time>2021-09-11T12:07:37.191Z</time>
      </trkpt>
      <trkpt lat="45.93378" lon="5.88363">
        <ele>336</ele>
        <time>2021-09-11T12:07:38.191Z</time>
      </trkpt>
      <trkpt lat="45.93379" lon="5.88357">
        <ele>336</ele>
        <time>2021-09-11T12:07:39.191Z</time>
      </trkpt>
      <trkpt lat="45.93379" lon="5.88357">
        <ele>336</ele>
        <time>2021-09-11T12:07:40.191Z</time>
      </trkpt>
      <trkpt lat="45.9338" lon="5.88348">
        <ele>335</ele>
        <time>2021-09-11T12:07:41.191Z</time>
      </trkpt>
      <trkpt lat="45.93382" lon="5.88343">
        <ele>335</ele>
        <time>2021-09-11T12:07:42.191Z</time>
      </trkpt>
      <trkpt lat="45.93384" lon="5.88338">
        <ele>335</ele>
        <time>2021-09-11T12:07:43.191Z</time>
      </trkpt>
      <trkpt lat="45.93386" lon="5.88334">
        <ele>335</ele>
        <time>2021-09-11T12:07:44.191Z</time>
      </trkpt>
      <trkpt lat="45.93388" lon="5.8833">
        <ele>335</ele>
        <time>2021-09-11T12:07:45.191Z</time>
      </trkpt>
      <trkpt lat="45.93389" lon="5.88325">
        <ele>335</ele>
        <time>2021-09-11T12:07:46.191Z</time>
      </trkpt>
      <trkpt lat="45.9339" lon="5.88321">
        <ele>335</ele>
        <time>2021-09-11T12:07:47.191Z</time>
      </trkpt>
      <trkpt lat="45.93392" lon="5.88317">
        <ele>335</ele>
        <time>2021-09-11T12:07:48.192Z</time>
      </trkpt>
      <trkpt lat="45.93392" lon="5.88317">
        <ele>335</ele>
        <time>2021-09-11T12:07:49.191Z</time>
      </trkpt>
      <trkpt lat="45.93396" lon="5.88309">
        <ele>335</ele>
        <time>2021-09-11T12:07:50.191Z</time>
      </trkpt>
      <trkpt lat="45.93398" lon="5.88305">
        <ele>335</ele>
        <time>2021-09-11T12:07:51.192Z</time>
      </trkpt>
      <trkpt lat="45.93401" lon="5.883">
        <ele>335</ele>
        <time>2021-09-11T12:07:52.192Z</time>
      </trkpt>
      <trkpt lat="45.93403" lon="5.88296">
        <ele>336</ele>
        <time>2021-09-11T12:07:53.191Z</time>
      </trkpt>
      <trkpt lat="45.93405" lon="5.88292">
        <ele>336</ele>
        <time>2021-09-11T12:07:54.191Z</time>
      </trkpt>
      <trkpt lat="45.93407" lon="5.88288">
        <ele>337</ele>
        <time>2021-09-11T12:07:55.192Z</time>
      </trkpt>
      <trkpt lat="45.93409" lon="5.88284">
        <ele>337</ele>
        <time>2021-09-11T12:07:56.191Z</time>
      </trkpt>
      <trkpt lat="45.93411" lon="5.8828">
        <ele>337</ele>
        <time>2021-09-11T12:07:57.191Z</time>
      </trkpt>
      <trkpt lat="45.93413" lon="5.88276">
        <ele>338</ele>
        <time>2021-09-11T12:07:58.191Z</time>
      </trkpt>
      <trkpt lat="45.93415" lon="5.88273">
        <ele>338</ele>
        <time>2021-09-11T12:07:59.192Z</time>
      </trkpt>
      <trkpt lat="45.93417" lon="5.88269">
        <ele>339</ele>
        <time>2021-09-11T12:08:00.191Z</time>
      </trkpt>
      <trkpt lat="45.9342" lon="5.88265">
        <ele>339</ele>
        <time>2021-09-11T12:08:01.191Z</time>
      </trkpt>
      <trkpt lat="45.93422" lon="5.88261">
        <ele>340</ele>
        <time>2021-09-11T12:08:02.191Z</time>
      </trkpt>
      <trkpt lat="45.93424" lon="5.88258">
        <ele>340</ele>
        <time>2021-09-11T12:08:03.191Z</time>
      </trkpt>
      <trkpt lat="45.93425" lon="5.88254">
        <ele>340</ele>
        <time>2021-09-11T12:08:04.192Z</time>
      </trkpt>
      <trkpt lat="45.93427" lon="5.88249">
        <ele>340</ele>
        <time>2021-09-11T12:08:05.191Z</time>
      </trkpt>
      <trkpt lat="45.93428" lon="5.88245">
        <ele>340</ele>
        <time>2021-09-11T12:08:06.191Z</time>
      </trkpt>
      <trkpt lat="45.93429" lon="5.88241">
        <ele>340</ele>
        <time>2021-09-11T12:08:07.191Z</time>
      </trkpt>
      <trkpt lat="45.9343" lon="5.88236">
        <ele>341</ele>
        <time>2021-09-11T12:08:08.191Z</time>
      </trkpt>
      <trkpt lat="45.9343" lon="5.88231">
        <ele>341</ele>
        <time>2021-09-11T12:08:09.191Z</time>
      </trkpt>
      <trkpt lat="45.9343" lon="5.88226">
        <ele>342</ele>
        <time>2021-09-11T12:08:10.191Z</time>
      </trkpt>
      <trkpt lat="45.93431" lon="5.88221">
        <ele>342</ele>
        <time>2021-09-11T12:08:11.191Z</time>
      </trkpt>
      <trkpt lat="45.93431" lon="5.88216">
        <ele>343</ele>
        <time>2021-09-11T12:08:12.191Z</time>
      </trkpt>
      <trkpt lat="45.93431" lon="5.88211">
        <ele>342</ele>
        <time>2021-09-11T12:08:13.191Z</time>
      </trkpt>
      <trkpt lat="45.93432" lon="5.88205">
        <ele>342</ele>
        <time>2021-09-11T12:08:14.191Z</time>
      </trkpt>
      <trkpt lat="45.93433" lon="5.882">
        <ele>342</ele>
        <time>2021-09-11T12:08:15.191Z</time>
      </trkpt>
      <trkpt lat="45.93434" lon="5.88195">
        <ele>342</ele>
        <time>2021-09-11T12:08:16.191Z</time>
      </trkpt>
      <trkpt lat="45.93435" lon="5.8819">
        <ele>341</ele>
        <time>2021-09-11T12:08:17.192Z</time>
      </trkpt>
      <trkpt lat="45.93436" lon="5.88186">
        <ele>341</ele>
        <time>2021-09-11T12:08:18.191Z</time>
      </trkpt>
      <trkpt lat="45.93437" lon="5.88181">
        <ele>341</ele>
        <time>2021-09-11T12:08:19.191Z</time>
      </trkpt>
      <trkpt lat="45.93439" lon="5.88177">
        <ele>341</ele>
        <time>2021-09-11T12:08:20.191Z</time>
      </trkpt>
      <trkpt lat="45.9344" lon="5.88173">
        <ele>341</ele>
        <time>2021-09-11T12:08:21.192Z</time>
      </trkpt>
      <trkpt lat="45.93441" lon="5.88169">
        <ele>341</ele>
        <time>2021-09-11T12:08:22.191Z</time>
      </trkpt>
      <trkpt lat="45.93442" lon="5.88165">
        <ele>341</ele>
        <time>2021-09-11T12:08:23.191Z</time>
      </trkpt>
      <trkpt lat="45.93443" lon="5.88161">
        <ele>342</ele>
        <time>2021-09-11T12:08:24.191Z</time>
      </trkpt>
      <trkpt lat="45.93444" lon="5.88157">
        <ele>342</ele>
        <time>2021-09-11T12:08:25.192Z</time>
      </trkpt>
      <trkpt lat="45.93445" lon="5.88153">
        <ele>343</ele>
        <time>2021-09-11T12:08:26.191Z</time>
      </trkpt>
      <trkpt lat="45.93446" lon="5.88149">
        <ele>343</ele>
        <time>2021-09-11T12:08:27.191Z</time>
      </trkpt>
      <trkpt lat="45.93446" lon="5.88144">
        <ele>344</ele>
        <time>2021-09-11T12:08:28.192Z</time>
      </trkpt>
      <trkpt lat="45.93447" lon="5.8814">
        <ele>344</ele>
        <time>2021-09-11T12:08:29.191Z</time>
      </trkpt>
      <trkpt lat="45.93447" lon="5.88136">
        <ele>345</ele>
        <time>2021-09-11T12:08:30.191Z</time>
      </trkpt>
      <trkpt lat="45.93447" lon="5.88132">
        <ele>346</ele>
        <time>2021-09-11T12:08:31.191Z</time>
      </trkpt>
      <trkpt lat="45.93448" lon="5.88128">
        <ele>347</ele>
        <time>2021-09-11T12:08:32.191Z</time>
      </trkpt>
      <trkpt lat="45.93449" lon="5.88125">
        <ele>347</ele>
        <time>2021-09-11T12:08:33.192Z</time>
      </trkpt>
      <trkpt lat="45.9345" lon="5.88121">
        <ele>347</ele>
        <time>2021-09-11T12:08:34.191Z</time>
      </trkpt>
      <trkpt lat="45.9345" lon="5.88117">
        <ele>348</ele>
        <time>2021-09-11T12:08:35.191Z</time>
      </trkpt>
      <trkpt lat="45.93449" lon="5.88113">
        <ele>348</ele>
        <time>2021-09-11T12:08:37.278Z</time>
      </trkpt>
      <trkpt lat="45.93447" lon="5.88108">
        <ele>349</ele>
        <time>2021-09-11T12:08:38.278Z</time>
      </trkpt>
      <trkpt lat="45.93446" lon="5.88104">
        <ele>349</ele>
        <time>2021-09-11T12:08:39.278Z</time>
      </trkpt>
      <trkpt lat="45.93444" lon="5.881">
        <ele>350</ele>
        <time>2021-09-11T12:08:40.278Z</time>
      </trkpt>
      <trkpt lat="45.93443" lon="5.88095">
        <ele>350</ele>
        <time>2021-09-11T12:08:41.278Z</time>
      </trkpt>
      <trkpt lat="45.93441" lon="5.88091">
        <ele>350</ele>
        <time>2021-09-11T12:08:42.278Z</time>
      </trkpt>
      <trkpt lat="45.9344" lon="5.88087">
        <ele>351</ele>
        <time>2021-09-11T12:08:43.278Z</time>
      </trkpt>
      <trkpt lat="45.93439" lon="5.88083">
        <ele>351</ele>
        <time>2021-09-11T12:08:44.278Z</time>
      </trkpt>
      <trkpt lat="45.93437" lon="5.88079">
        <ele>351</ele>
        <time>2021-09-11T12:08:45.279Z</time>
      </trkpt>
      <trkpt lat="45.93436" lon="5.88074">
        <ele>351</ele>
        <time>2021-09-11T12:08:46.278Z</time>
      </trkpt>
      <trkpt lat="45.93434" lon="5.88071">
        <ele>351</ele>
        <time>2021-09-11T12:08:47.278Z</time>
      </trkpt>
      <trkpt lat="45.93433" lon="5.88067">
        <ele>351</ele>
        <time>2021-09-11T12:08:48.278Z</time>
      </trkpt>
      <trkpt lat="45.93432" lon="5.88064">
        <ele>351</ele>
        <time>2021-09-11T12:08:49.278Z</time>
      </trkpt>
      <trkpt lat="45.93431" lon="5.88061">
        <ele>350</ele>
        <time>2021-09-11T12:08:50.278Z</time>
      </trkpt>
      <trkpt lat="45.93429" lon="5.88058">
        <ele>350</ele>
        <time>2021-09-11T12:08:51.278Z</time>
      </trkpt>
      <trkpt lat="45.93428" lon="5.88055">
        <ele>350</ele>
        <time>2021-09-11T12:08:52.278Z</time>
      </trkpt>
      <trkpt lat="45.93427" lon="5.88052">
        <ele>350</ele>
        <time>2021-09-11T12:08:53.278Z</time>
      </trkpt>
      <trkpt lat="45.93427" lon="5.88048">
        <ele>351</ele>
        <time>2021-09-11T12:08:54.278Z</time>
      </trkpt>
      <trkpt lat="45.93425" lon="5.88044">
        <ele>351</ele>
        <time>2021-09-11T12:08:55.278Z</time>
      </trkpt>
      <trkpt lat="45.93424" lon="5.8804">
        <ele>351</ele>
        <time>2021-09-11T12:08:56.278Z</time>
      </trkpt>
      <trkpt lat="45.93423" lon="5.88035">
        <ele>351</ele>
        <time>2021-09-11T12:08:57.278Z</time>
      </trkpt>
      <trkpt lat="45.93422" lon="5.8803">
        <ele>352</ele>
        <time>2021-09-11T12:08:58.279Z</time>
      </trkpt>
      <trkpt lat="45.93421" lon="5.88026">
        <ele>352</ele>
        <time>2021-09-11T12:08:59.279Z</time>
      </trkpt>
      <trkpt lat="45.93419" lon="5.88021">
        <ele>353</ele>
        <time>2021-09-11T12:09:00.278Z</time>
      </trkpt>
      <trkpt lat="45.93418" lon="5.88016">
        <ele>353</ele>
        <time>2021-09-11T12:09:01.279Z</time>
      </trkpt>
      <trkpt lat="45.93417" lon="5.88011">
        <ele>353</ele>
        <time>2021-09-11T12:09:02.278Z</time>
      </trkpt>
      <trkpt lat="45.93417" lon="5.88006">
        <ele>354</ele>
        <time>2021-09-11T12:09:03.278Z</time>
      </trkpt>
      <trkpt lat="45.93416" lon="5.88001">
        <ele>354</ele>
        <time>2021-09-11T12:09:04.278Z</time>
      </trkpt>
      <trkpt lat="45.93414" lon="5.87996">
        <ele>354</ele>
        <time>2021-09-11T12:09:05.278Z</time>
      </trkpt>
      <trkpt lat="45.93413" lon="5.87991">
        <ele>354</ele>
        <time>2021-09-11T12:09:06.278Z</time>
      </trkpt>
      <trkpt lat="45.93412" lon="5.87986">
        <ele>354</ele>
        <time>2021-09-11T12:09:07.278Z</time>
      </trkpt>
      <trkpt lat="45.93411" lon="5.87981">
        <ele>355</ele>
        <time>2021-09-11T12:09:08.279Z</time>
      </trkpt>
      <trkpt lat="45.9341" lon="5.87976">
        <ele>354</ele>
        <time>2021-09-11T12:09:09.278Z</time>
      </trkpt>
      <trkpt lat="45.93409" lon="5.87971">
        <ele>354</ele>
        <time>2021-09-11T12:09:10.278Z</time>
      </trkpt>
      <trkpt lat="45.93409" lon="5.87966">
        <ele>354</ele>
        <time>2021-09-11T12:09:11.278Z</time>
      </trkpt>
      <trkpt lat="45.93408" lon="5.87961">
        <ele>354</ele>
        <time>2021-09-11T12:09:12.278Z</time>
      </trkpt>
      <trkpt lat="45.93408" lon="5.87956">
        <ele>353</ele>
        <time>2021-09-11T12:09:13.279Z</time>
      </trkpt>
      <trkpt lat="45.93407" lon="5.8795">
        <ele>353</ele>
        <time>2021-09-11T12:09:14.278Z</time>
      </trkpt>
      <trkpt lat="45.93406" lon="5.87945">
        <ele>352</ele>
        <time>2021-09-11T12:09:15.279Z</time>
      </trkpt>
      <trkpt lat="45.93405" lon="5.8794">
        <ele>352</ele>
        <time>2021-09-11T12:09:16.278Z</time>
      </trkpt>
      <trkpt lat="45.93404" lon="5.87934">
        <ele>352</ele>
        <time>2021-09-11T12:09:17.278Z</time>
      </trkpt>
      <trkpt lat="45.93403" lon="5.87929">
        <ele>352</ele>
        <time>2021-09-11T12:09:18.278Z</time>
      </trkpt>
      <trkpt lat="45.93402" lon="5.87923">
        <ele>352</ele>
        <time>2021-09-11T12:09:19.278Z</time>
      </trkpt>
      <trkpt lat="45.93399" lon="5.87916">
        <ele>352</ele>
        <time>2021-09-11T12:09:20.278Z</time>
      </trkpt>
      <trkpt lat="45.93399" lon="5.87916">
        <ele>352</ele>
        <time>2021-09-11T12:09:21.278Z</time>
      </trkpt>
      <trkpt lat="45.93395" lon="5.87903">
        <ele>352</ele>
        <time>2021-09-11T12:09:22.278Z</time>
      </trkpt>
      <trkpt lat="45.93394" lon="5.87897">
        <ele>352</ele>
        <time>2021-09-11T12:09:23.278Z</time>
      </trkpt>
      <trkpt lat="45.93392" lon="5.87892">
        <ele>352</ele>
        <time>2021-09-11T12:09:24.278Z</time>
      </trkpt>
      <trkpt lat="45.93391" lon="5.87887">
        <ele>352</ele>
        <time>2021-09-11T12:09:25.278Z</time>
      </trkpt>
      <trkpt lat="45.93389" lon="5.87881">
        <ele>352</ele>
        <time>2021-09-11T12:09:26.278Z</time>
      </trkpt>
      <trkpt lat="45.93388" lon="5.87874">
        <ele>352</ele>
        <time>2021-09-11T12:09:27.278Z</time>
      </trkpt>
      <trkpt lat="45.93386" lon="5.87868">
        <ele>351</ele>
        <time>2021-09-11T12:09:28.278Z</time>
      </trkpt>
      <trkpt lat="45.93385" lon="5.87861">
        <ele>351</ele>
        <time>2021-09-11T12:09:29.278Z</time>
      </trkpt>
      <trkpt lat="45.93384" lon="5.87855">
        <ele>351</ele>
        <time>2021-09-11T12:09:30.279Z</time>
      </trkpt>
      <trkpt lat="45.93382" lon="5.87849">
        <ele>351</ele>
        <time>2021-09-11T12:09:31.278Z</time>
      </trkpt>
      <trkpt lat="45.93381" lon="5.87843">
        <ele>351</ele>
        <time>2021-09-11T12:09:32.278Z</time>
      </trkpt>
      <trkpt lat="45.9338" lon="5.87837">
        <ele>351</ele>
        <time>2021-09-11T12:09:33.279Z</time>
      </trkpt>
      <trkpt lat="45.93378" lon="5.87831">
        <ele>351</ele>
        <time>2021-09-11T12:09:34.279Z</time>
      </trkpt>
      <trkpt lat="45.93376" lon="5.87825">
        <ele>351</ele>
        <time>2021-09-11T12:09:35.278Z</time>
      </trkpt>
      <trkpt lat="45.93375" lon="5.87819">
        <ele>351</ele>
        <time>2021-09-11T12:09:36.278Z</time>
      </trkpt>
      <trkpt lat="45.93373" lon="5.87814">
        <ele>351</ele>
        <time>2021-09-11T12:09:37.279Z</time>
      </trkpt>
      <trkpt lat="45.93372" lon="5.87809">
        <ele>351</ele>
        <time>2021-09-11T12:09:38.278Z</time>
      </trkpt>
      <trkpt lat="45.93371" lon="5.87803">
        <ele>351</ele>
        <time>2021-09-11T12:09:39.278Z</time>
      </trkpt>
      <trkpt lat="45.9337" lon="5.87797">
        <ele>351</ele>
        <time>2021-09-11T12:09:40.279Z</time>
      </trkpt>
      <trkpt lat="45.93368" lon="5.87791">
        <ele>351</ele>
        <time>2021-09-11T12:09:41.278Z</time>
      </trkpt>
      <trkpt lat="45.93367" lon="5.87785">
        <ele>351</ele>
        <time>2021-09-11T12:09:42.278Z</time>
      </trkpt>
      <trkpt lat="45.93365" lon="5.87779">
        <ele>352</ele>
        <time>2021-09-11T12:09:43.278Z</time>
      </trkpt>
      <trkpt lat="45.93364" lon="5.87773">
        <ele>352</ele>
        <time>2021-09-11T12:09:44.278Z</time>
      </trkpt>
      <trkpt lat="45.93363" lon="5.87767">
        <ele>352</ele>
        <time>2021-09-11T12:09:45.278Z</time>
      </trkpt>
      <trkpt lat="45.93361" lon="5.8776">
        <ele>353</ele>
        <time>2021-09-11T12:09:46.279Z</time>
      </trkpt>
      <trkpt lat="45.9336" lon="5.87753">
        <ele>353</ele>
        <time>2021-09-11T12:09:47.278Z</time>
      </trkpt>
      <trkpt lat="45.93359" lon="5.87746">
        <ele>353</ele>
        <time>2021-09-11T12:09:48.278Z</time>
      </trkpt>
      <trkpt lat="45.93359" lon="5.87739">
        <ele>353</ele>
        <time>2021-09-11T12:09:49.278Z</time>
      </trkpt>
      <trkpt lat="45.93358" lon="5.87732">
        <ele>353</ele>
        <time>2021-09-11T12:09:50.278Z</time>
      </trkpt>
      <trkpt lat="45.93356" lon="5.87726">
        <ele>353</ele>
        <time>2021-09-11T12:09:51.278Z</time>
      </trkpt>
      <trkpt lat="45.93355" lon="5.87719">
        <ele>354</ele>
        <time>2021-09-11T12:09:52.278Z</time>
      </trkpt>
      <trkpt lat="45.93353" lon="5.87712">
        <ele>354</ele>
        <time>2021-09-11T12:09:53.278Z</time>
      </trkpt>
      <trkpt lat="45.93352" lon="5.87706">
        <ele>354</ele>
        <time>2021-09-11T12:09:54.278Z</time>
      </trkpt>
      <trkpt lat="45.93351" lon="5.87699">
        <ele>354</ele>
        <time>2021-09-11T12:09:55.278Z</time>
      </trkpt>
      <trkpt lat="45.9335" lon="5.87692">
        <ele>354</ele>
        <time>2021-09-11T12:09:56.278Z</time>
      </trkpt>
      <trkpt lat="45.93349" lon="5.87686">
        <ele>354</ele>
        <time>2021-09-11T12:09:57.278Z</time>
      </trkpt>
      <trkpt lat="45.93347" lon="5.87679">
        <ele>354</ele>
        <time>2021-09-11T12:09:58.279Z</time>
      </trkpt>
      <trkpt lat="45.93345" lon="5.87672">
        <ele>354</ele>
        <time>2021-09-11T12:09:59.278Z</time>
      </trkpt>
      <trkpt lat="45.93343" lon="5.87663">
        <ele>354</ele>
        <time>2021-09-11T12:10:00.278Z</time>
      </trkpt>
      <trkpt lat="45.93341" lon="5.87655">
        <ele>353</ele>
        <time>2021-09-11T12:10:01.279Z</time>
      </trkpt>
      <trkpt lat="45.9334" lon="5.87648">
        <ele>353</ele>
        <time>2021-09-11T12:10:02.279Z</time>
      </trkpt>
      <trkpt lat="45.93339" lon="5.87641">
        <ele>353</ele>
        <time>2021-09-11T12:10:03.278Z</time>
      </trkpt>
      <trkpt lat="45.93339" lon="5.87641">
        <ele>353</ele>
        <time>2021-09-11T12:10:04.278Z</time>
      </trkpt>
      <trkpt lat="45.93337" lon="5.87625">
        <ele>352</ele>
        <time>2021-09-11T12:10:05.278Z</time>
      </trkpt>
      <trkpt lat="45.93337" lon="5.87625">
        <ele>352</ele>
        <time>2021-09-11T12:10:06.279Z</time>
      </trkpt>
      <trkpt lat="45.93335" lon="5.87609">
        <ele>352</ele>
        <time>2021-09-11T12:10:07.279Z</time>
      </trkpt>
      <trkpt lat="45.93333" lon="5.87602">
        <ele>351</ele>
        <time>2021-09-11T12:10:08.278Z</time>
      </trkpt>
      <trkpt lat="45.93333" lon="5.87593">
        <ele>351</ele>
        <time>2021-09-11T12:10:09.279Z</time>
      </trkpt>
      <trkpt lat="45.93332" lon="5.87585">
        <ele>351</ele>
        <time>2021-09-11T12:10:10.278Z</time>
      </trkpt>
      <trkpt lat="45.93333" lon="5.87578">
        <ele>350</ele>
        <time>2021-09-11T12:10:11.278Z</time>
      </trkpt>
      <trkpt lat="45.93332" lon="5.87571">
        <ele>350</ele>
        <time>2021-09-11T12:10:12.279Z</time>
      </trkpt>
      <trkpt lat="45.93332" lon="5.87563">
        <ele>350</ele>
        <time>2021-09-11T12:10:13.278Z</time>
      </trkpt>
      <trkpt lat="45.93332" lon="5.87555">
        <ele>349</ele>
        <time>2021-09-11T12:10:14.278Z</time>
      </trkpt>
      <trkpt lat="45.93333" lon="5.87548">
        <ele>349</ele>
        <time>2021-09-11T12:10:15.278Z</time>
      </trkpt>
      <trkpt lat="45.93333" lon="5.8754">
        <ele>349</ele>
        <time>2021-09-11T12:10:16.278Z</time>
      </trkpt>
      <trkpt lat="45.93333" lon="5.87532">
        <ele>348</ele>
        <time>2021-09-11T12:10:17.278Z</time>
      </trkpt>
      <trkpt lat="45.93333" lon="5.87525">
        <ele>348</ele>
        <time>2021-09-11T12:10:18.278Z</time>
      </trkpt>
      <trkpt lat="45.93333" lon="5.87518">
        <ele>347</ele>
        <time>2021-09-11T12:10:19.278Z</time>
      </trkpt>
      <trkpt lat="45.93332" lon="5.87511">
        <ele>347</ele>
        <time>2021-09-11T12:10:20.278Z</time>
      </trkpt>
      <trkpt lat="45.93332" lon="5.87504">
        <ele>347</ele>
        <time>2021-09-11T12:10:21.278Z</time>
      </trkpt>
      <trkpt lat="45.93332" lon="5.87497">
        <ele>346</ele>
        <time>2021-09-11T12:10:22.278Z</time>
      </trkpt>
      <trkpt lat="45.93332" lon="5.8749">
        <ele>346</ele>
        <time>2021-09-11T12:10:23.279Z</time>
      </trkpt>
      <trkpt lat="45.93333" lon="5.87483">
        <ele>346</ele>
        <time>2021-09-11T12:10:24.278Z</time>
      </trkpt>
      <trkpt lat="45.93333" lon="5.87476">
        <ele>345</ele>
        <time>2021-09-11T12:10:25.278Z</time>
      </trkpt>
      <trkpt lat="45.93334" lon="5.87469">
        <ele>345</ele>
        <time>2021-09-11T12:10:26.278Z</time>
      </trkpt>
      <trkpt lat="45.93334" lon="5.87462">
        <ele>345</ele>
        <time>2021-09-11T12:10:27.278Z</time>
      </trkpt>
      <trkpt lat="45.93334" lon="5.87455">
        <ele>344</ele>
        <time>2021-09-11T12:10:28.279Z</time>
      </trkpt>
      <trkpt lat="45.93335" lon="5.87448">
        <ele>344</ele>
        <time>2021-09-11T12:10:29.278Z</time>
      </trkpt>
      <trkpt lat="45.93335" lon="5.87442">
        <ele>344</ele>
        <time>2021-09-11T12:10:30.278Z</time>
      </trkpt>
      <trkpt lat="45.93336" lon="5.87435">
        <ele>344</ele>
        <time>2021-09-11T12:10:31.278Z</time>
      </trkpt>
      <trkpt lat="45.93337" lon="5.87427">
        <ele>344</ele>
        <time>2021-09-11T12:10:32.279Z</time>
      </trkpt>
      <trkpt lat="45.93338" lon="5.8742">
        <ele>343</ele>
        <time>2021-09-11T12:10:33.278Z</time>
      </trkpt>
      <trkpt lat="45.93339" lon="5.87413">
        <ele>343</ele>
        <time>2021-09-11T12:10:34.278Z</time>
      </trkpt>
      <trkpt lat="45.9334" lon="5.87405">
        <ele>343</ele>
        <time>2021-09-11T12:10:35.278Z</time>
      </trkpt>
      <trkpt lat="45.9334" lon="5.87405">
        <ele>343</ele>
        <time>2021-09-11T12:11:00.440Z</time>
      </trkpt>
      <trkpt lat="45.93341" lon="5.87389">
        <ele>343</ele>
        <time>2021-09-11T12:11:01.440Z</time>
      </trkpt>
      <trkpt lat="45.93342" lon="5.87381">
        <ele>343</ele>
        <time>2021-09-11T12:11:02.440Z</time>
      </trkpt>
      <trkpt lat="45.93344" lon="5.87373">
        <ele>343</ele>
        <time>2021-09-11T12:11:03.440Z</time>
      </trkpt>
      <trkpt lat="45.93345" lon="5.87365">
        <ele>343</ele>
        <time>2021-09-11T12:11:04.440Z</time>
      </trkpt>
      <trkpt lat="45.93347" lon="5.87358">
        <ele>342</ele>
        <time>2021-09-11T12:11:05.440Z</time>
      </trkpt>
      <trkpt lat="45.93349" lon="5.8735">
        <ele>342</ele>
        <time>2021-09-11T12:11:06.440Z</time>
      </trkpt>
      <trkpt lat="45.93351" lon="5.87343">
        <ele>342</ele>
        <time>2021-09-11T12:11:07.441Z</time>
      </trkpt>
      <trkpt lat="45.93353" lon="5.87335">
        <ele>342</ele>
        <time>2021-09-11T12:11:08.440Z</time>
      </trkpt>
      <trkpt lat="45.93355" lon="5.87328">
        <ele>342</ele>
        <time>2021-09-11T12:11:09.440Z</time>
      </trkpt>
      <trkpt lat="45.93357" lon="5.8732">
        <ele>342</ele>
        <time>2021-09-11T12:11:10.440Z</time>
      </trkpt>
      <trkpt lat="45.93358" lon="5.87312">
        <ele>342</ele>
        <time>2021-09-11T12:11:11.441Z</time>
      </trkpt>
      <trkpt lat="45.93359" lon="5.87305">
        <ele>342</ele>
        <time>2021-09-11T12:11:12.440Z</time>
      </trkpt>
      <trkpt lat="45.9336" lon="5.87298">
        <ele>342</ele>
        <time>2021-09-11T12:11:13.440Z</time>
      </trkpt>
      <trkpt lat="45.9336" lon="5.87291">
        <ele>342</ele>
        <time>2021-09-11T12:11:14.440Z</time>
      </trkpt>
      <trkpt lat="45.9336" lon="5.87283">
        <ele>342</ele>
        <time>2021-09-11T12:11:15.440Z</time>
      </trkpt>
      <trkpt lat="45.9336" lon="5.87276">
        <ele>342</ele>
        <time>2021-09-11T12:11:16.441Z</time>
      </trkpt>
      <trkpt lat="45.9336" lon="5.87268">
        <ele>342</ele>
        <time>2021-09-11T12:11:17.440Z</time>
      </trkpt>
      <trkpt lat="45.93359" lon="5.87261">
        <ele>342</ele>
        <time>2021-09-11T12:11:18.440Z</time>
      </trkpt>
      <trkpt lat="45.93359" lon="5.87253">
        <ele>342</ele>
        <time>2021-09-11T12:11:19.440Z</time>
      </trkpt>
      <trkpt lat="45.93358" lon="5.87246">
        <ele>342</ele>
        <time>2021-09-11T12:11:20.440Z</time>
      </trkpt>
      <trkpt lat="45.93359" lon="5.87239">
        <ele>342</ele>
        <time>2021-09-11T12:11:21.440Z</time>
      </trkpt>
      <trkpt lat="45.93359" lon="5.87231">
        <ele>342</ele>
        <time>2021-09-11T12:11:22.440Z</time>
      </trkpt>
      <trkpt lat="45.93359" lon="5.87223">
        <ele>342</ele>
        <time>2021-09-11T12:11:23.441Z</time>
      </trkpt>
      <trkpt lat="45.93359" lon="5.87216">
        <ele>341</ele>
        <time>2021-09-11T12:11:24.440Z</time>
      </trkpt>
      <trkpt lat="45.93359" lon="5.87216">
        <ele>341</ele>
        <time>2021-09-11T12:11:25.440Z</time>
      </trkpt>
      <trkpt lat="45.93358" lon="5.87199">
        <ele>341</ele>
        <time>2021-09-11T12:11:26.440Z</time>
      </trkpt>
      <trkpt lat="45.93357" lon="5.87191">
        <ele>341</ele>
        <time>2021-09-11T12:11:27.441Z</time>
      </trkpt>
      <trkpt lat="45.93356" lon="5.87182">
        <ele>341</ele>
        <time>2021-09-11T12:11:28.440Z</time>
      </trkpt>
      <trkpt lat="45.93357" lon="5.87173">
        <ele>340</ele>
        <time>2021-09-11T12:11:29.440Z</time>
      </trkpt>
      <trkpt lat="45.93357" lon="5.87173">
        <ele>340</ele>
        <time>2021-09-11T12:11:30.440Z</time>
      </trkpt>
      <trkpt lat="45.93357" lon="5.87157">
        <ele>340</ele>
        <time>2021-09-11T12:11:31.440Z</time>
      </trkpt>
      <trkpt lat="45.93356" lon="5.87149">
        <ele>340</ele>
        <time>2021-09-11T12:11:32.440Z</time>
      </trkpt>
      <trkpt lat="45.93356" lon="5.87149">
        <ele>340</ele>
        <time>2021-09-11T12:11:33.440Z</time>
      </trkpt>
      <trkpt lat="45.93355" lon="5.87131">
        <ele>340</ele>
        <time>2021-09-11T12:11:34.440Z</time>
      </trkpt>
      <trkpt lat="45.93355" lon="5.87122">
        <ele>340</ele>
        <time>2021-09-11T12:11:35.440Z</time>
      </trkpt>
      <trkpt lat="45.93355" lon="5.87113">
        <ele>339</ele>
        <time>2021-09-11T12:11:36.440Z</time>
      </trkpt>
      <trkpt lat="45.93355" lon="5.87104">
        <ele>339</ele>
        <time>2021-09-11T12:11:37.440Z</time>
      </trkpt>
      <trkpt lat="45.93355" lon="5.87095">
        <ele>339</ele>
        <time>2021-09-11T12:11:38.440Z</time>
      </trkpt>
      <trkpt lat="45.93355" lon="5.87086">
        <ele>339</ele>
        <time>2021-09-11T12:11:39.440Z</time>
      </trkpt>
      <trkpt lat="45.93356" lon="5.87077">
        <ele>339</ele>
        <time>2021-09-11T12:11:40.440Z</time>
      </trkpt>
      <trkpt lat="45.93355" lon="5.87068">
        <ele>339</ele>
        <time>2021-09-11T12:11:41.440Z</time>
      </trkpt>
      <trkpt lat="45.93354" lon="5.87059">
        <ele>339</ele>
        <time>2021-09-11T12:11:42.440Z</time>
      </trkpt>
      <trkpt lat="45.93351" lon="5.8705">
        <ele>339</ele>
        <time>2021-09-11T12:11:43.440Z</time>
      </trkpt>
      <trkpt lat="45.93348" lon="5.87041">
        <ele>339</ele>
        <time>2021-09-11T12:11:44.440Z</time>
      </trkpt>
      <trkpt lat="45.93345" lon="5.87033">
        <ele>339</ele>
        <time>2021-09-11T12:11:45.440Z</time>
      </trkpt>
      <trkpt lat="45.93341" lon="5.87025">
        <ele>339</ele>
        <time>2021-09-11T12:11:46.440Z</time>
      </trkpt>
      <trkpt lat="45.93337" lon="5.87017">
        <ele>339</ele>
        <time>2021-09-11T12:11:47.440Z</time>
      </trkpt>
      <trkpt lat="45.93333" lon="5.87008">
        <ele>340</ele>
        <time>2021-09-11T12:11:48.440Z</time>
      </trkpt>
      <trkpt lat="45.93328" lon="5.86999">
        <ele>340</ele>
        <time>2021-09-11T12:11:49.440Z</time>
      </trkpt>
      <trkpt lat="45.93324" lon="5.8699">
        <ele>339</ele>
        <time>2021-09-11T12:11:50.441Z</time>
      </trkpt>
      <trkpt lat="45.9332" lon="5.8698">
        <ele>340</ele>
        <time>2021-09-11T12:11:51.440Z</time>
      </trkpt>
      <trkpt lat="45.93317" lon="5.86971">
        <ele>340</ele>
        <time>2021-09-11T12:11:52.440Z</time>
      </trkpt>
      <trkpt lat="45.93314" lon="5.86961">
        <ele>339</ele>
        <time>2021-09-11T12:11:53.441Z</time>
      </trkpt>
      <trkpt lat="45.93311" lon="5.86951">
        <ele>339</ele>
        <time>2021-09-11T12:11:54.441Z</time>
      </trkpt>
      <trkpt lat="45.93308" lon="5.86942">
        <ele>338</ele>
        <time>2021-09-11T12:11:55.440Z</time>
      </trkpt>
      <trkpt lat="45.93306" lon="5.86932">
        <ele>338</ele>
        <time>2021-09-11T12:11:56.440Z</time>
      </trkpt>
      <trkpt lat="45.93304" lon="5.86923">
        <ele>337</ele>
        <time>2021-09-11T12:11:57.440Z</time>
      </trkpt>
      <trkpt lat="45.93302" lon="5.86913">
        <ele>337</ele>
        <time>2021-09-11T12:11:58.440Z</time>
      </trkpt>
      <trkpt lat="45.93301" lon="5.86903">
        <ele>336</ele>
        <time>2021-09-11T12:11:59.440Z</time>
      </trkpt>
      <trkpt lat="45.93299" lon="5.86893">
        <ele>336</ele>
        <time>2021-09-11T12:12:00.440Z</time>
      </trkpt>
      <trkpt lat="45.93297" lon="5.86882">
        <ele>336</ele>
        <time>2021-09-11T12:12:01.441Z</time>
      </trkpt>
      <trkpt lat="45.93296" lon="5.86872">
        <ele>335</ele>
        <time>2021-09-11T12:12:02.441Z</time>
      </trkpt>
      <trkpt lat="45.93296" lon="5.86861">
        <ele>335</ele>
        <time>2021-09-11T12:12:03.440Z</time>
      </trkpt>
      <trkpt lat="45.93296" lon="5.86851">
        <ele>335</ele>
        <time>2021-09-11T12:12:04.440Z</time>
      </trkpt>
      <trkpt lat="45.93296" lon="5.8684">
        <ele>335</ele>
        <time>2021-09-11T12:12:05.440Z</time>
      </trkpt>
      <trkpt lat="45.93297" lon="5.8683">
        <ele>335</ele>
        <time>2021-09-11T12:12:06.441Z</time>
      </trkpt>
      <trkpt lat="45.93297" lon="5.8683">
        <ele>335</ele>
        <time>2021-09-11T12:12:07.441Z</time>
      </trkpt>
      <trkpt lat="45.93298" lon="5.86809">
        <ele>335</ele>
        <time>2021-09-11T12:12:08.440Z</time>
      </trkpt>
      <trkpt lat="45.93299" lon="5.86798">
        <ele>335</ele>
        <time>2021-09-11T12:12:09.440Z</time>
      </trkpt>
      <trkpt lat="45.93299" lon="5.86798">
        <ele>335</ele>
        <time>2021-09-11T12:12:10.440Z</time>
      </trkpt>
      <trkpt lat="45.93301" lon="5.86778">
        <ele>334</ele>
        <time>2021-09-11T12:12:11.440Z</time>
      </trkpt>
      <trkpt lat="45.93301" lon="5.86767">
        <ele>334</ele>
        <time>2021-09-11T12:12:12.440Z</time>
      </trkpt>
      <trkpt lat="45.933" lon="5.86757">
        <ele>334</ele>
        <time>2021-09-11T12:12:13.440Z</time>
      </trkpt>
      <trkpt lat="45.93299" lon="5.86746">
        <ele>334</ele>
        <time>2021-09-11T12:12:14.440Z</time>
      </trkpt>
      <trkpt lat="45.93299" lon="5.86735">
        <ele>334</ele>
        <time>2021-09-11T12:12:15.440Z</time>
      </trkpt>
      <trkpt lat="45.93298" lon="5.86725">
        <ele>333</ele>
        <time>2021-09-11T12:12:16.441Z</time>
      </trkpt>
      <trkpt lat="45.93297" lon="5.86714">
        <ele>333</ele>
        <time>2021-09-11T12:12:17.440Z</time>
      </trkpt>
      <trkpt lat="45.93297" lon="5.86703">
        <ele>333</ele>
        <time>2021-09-11T12:12:18.440Z</time>
      </trkpt>
      <trkpt lat="45.93297" lon="5.86693">
        <ele>332</ele>
        <time>2021-09-11T12:12:19.440Z</time>
      </trkpt>
      <trkpt lat="45.93296" lon="5.86682">
        <ele>332</ele>
        <time>2021-09-11T12:12:20.440Z</time>
      </trkpt>
      <trkpt lat="45.93295" lon="5.86672">
        <ele>332</ele>
        <time>2021-09-11T12:12:25.547Z</time>
      </trkpt>
      <trkpt lat="45.93293" lon="5.86661">
        <ele>331</ele>
        <time>2021-09-11T12:12:26.547Z</time>
      </trkpt>
      <trkpt lat="45.93291" lon="5.8665">
        <ele>331</ele>
        <time>2021-09-11T12:12:27.547Z</time>
      </trkpt>
      <trkpt lat="45.93289" lon="5.8664">
        <ele>331</ele>
        <time>2021-09-11T12:12:28.547Z</time>
      </trkpt>
      <trkpt lat="45.93288" lon="5.86629">
        <ele>330</ele>
        <time>2021-09-11T12:12:29.547Z</time>
      </trkpt>
      <trkpt lat="45.93287" lon="5.86618">
        <ele>330</ele>
        <time>2021-09-11T12:12:30.547Z</time>
      </trkpt>
      <trkpt lat="45.93286" lon="5.86607">
        <ele>330</ele>
        <time>2021-09-11T12:12:31.547Z</time>
      </trkpt>
      <trkpt lat="45.93285" lon="5.86596">
        <ele>329</ele>
        <time>2021-09-11T12:12:32.547Z</time>
      </trkpt>
      <trkpt lat="45.93284" lon="5.86585">
        <ele>328</ele>
        <time>2021-09-11T12:12:33.547Z</time>
      </trkpt>
      <trkpt lat="45.93284" lon="5.86573">
        <ele>328</ele>
        <time>2021-09-11T12:12:34.547Z</time>
      </trkpt>
      <trkpt lat="45.93283" lon="5.86562">
        <ele>327</ele>
        <time>2021-09-11T12:12:35.547Z</time>
      </trkpt>
      <trkpt lat="45.93282" lon="5.86551">
        <ele>326</ele>
        <time>2021-09-11T12:12:36.547Z</time>
      </trkpt>
      <trkpt lat="45.9328" lon="5.86541">
        <ele>326</ele>
        <time>2021-09-11T12:12:37.547Z</time>
      </trkpt>
      <trkpt lat="45.93277" lon="5.86532">
        <ele>325</ele>
        <time>2021-09-11T12:12:38.547Z</time>
      </trkpt>
      <trkpt lat="45.93275" lon="5.86524">
        <ele>325</ele>
        <time>2021-09-11T12:12:39.547Z</time>
      </trkpt>
      <trkpt lat="45.93273" lon="5.86516">
        <ele>325</ele>
        <time>2021-09-11T12:12:40.547Z</time>
      </trkpt>
      <trkpt lat="45.93271" lon="5.8651">
        <ele>325</ele>
        <time>2021-09-11T12:12:41.547Z</time>
      </trkpt>
      <trkpt lat="45.93269" lon="5.86506">
        <ele>325</ele>
        <time>2021-09-11T12:12:42.547Z</time>
      </trkpt>
      <trkpt lat="45.93268" lon="5.86503">
        <ele>325</ele>
        <time>2021-09-11T12:12:43.548Z</time>
      </trkpt>
      <trkpt lat="45.93267" lon="5.865">
        <ele>326</ele>
        <time>2021-09-11T12:12:44.547Z</time>
      </trkpt>
      <trkpt lat="45.93266" lon="5.86498">
        <ele>327</ele>
        <time>2021-09-11T12:12:45.548Z</time>
      </trkpt>
      <trkpt lat="45.93265" lon="5.86496">
        <ele>327</ele>
        <time>2021-09-11T12:12:46.548Z</time>
      </trkpt>
      <trkpt lat="45.93264" lon="5.86494">
        <ele>328</ele>
        <time>2021-09-11T12:12:47.547Z</time>
      </trkpt>
      <trkpt lat="45.93263" lon="5.86492">
        <ele>328</ele>
        <time>2021-09-11T12:12:48.548Z</time>
      </trkpt>
      <trkpt lat="45.93263" lon="5.8649">
        <ele>329</ele>
        <time>2021-09-11T12:12:49.547Z</time>
      </trkpt>
      <trkpt lat="45.93263" lon="5.8649">
        <ele>329</ele>
        <time>2021-09-11T12:12:50.547Z</time>
      </trkpt>
      <trkpt lat="45.93263" lon="5.8649">
        <ele>329</ele>
        <time>2021-09-11T12:12:51.548Z</time>
      </trkpt>
      <trkpt lat="45.93264" lon="5.8649">
        <ele>330</ele>
        <time>2021-09-11T12:12:52.547Z</time>
      </trkpt>
      <trkpt lat="45.93264" lon="5.8649">
        <ele>330</ele>
        <time>2021-09-11T12:12:53.548Z</time>
      </trkpt>
      <trkpt lat="45.93264" lon="5.86491">
        <ele>331</ele>
        <time>2021-09-11T12:12:54.547Z</time>
      </trkpt>
      <trkpt lat="45.93264" lon="5.86491">
        <ele>331</ele>
        <time>2021-09-11T12:12:55.547Z</time>
      </trkpt>
      <trkpt lat="45.93264" lon="5.86492">
        <ele>331</ele>
        <time>2021-09-11T12:12:56.547Z</time>
      </trkpt>
      <trkpt lat="45.93262" lon="5.86496">
        <ele>332</ele>
        <time>2021-09-11T12:12:57.547Z</time>
      </trkpt>
      <trkpt lat="45.93262" lon="5.86498">
        <ele>332</ele>
        <time>2021-09-11T12:12:58.547Z</time>
      </trkpt>
      <trkpt lat="45.93261" lon="5.86499">
        <ele>332</ele>
        <time>2021-09-11T12:12:59.547Z</time>
      </trkpt>
      <trkpt lat="45.93262" lon="5.865">
        <ele>332</ele>
        <time>2021-09-11T12:13:00.547Z</time>
      </trkpt>
      <trkpt lat="45.93261" lon="5.86502">
        <ele>332</ele>
        <time>2021-09-11T12:13:01.548Z</time>
      </trkpt>
      <trkpt lat="45.93262" lon="5.86502">
        <ele>333</ele>
        <time>2021-09-11T12:13:02.547Z</time>
      </trkpt>
      <trkpt lat="45.93262" lon="5.86503">
        <ele>333</ele>
        <time>2021-09-11T12:13:03.548Z</time>
      </trkpt>
      <trkpt lat="45.93262" lon="5.86504">
        <ele>333</ele>
        <time>2021-09-11T12:13:04.547Z</time>
      </trkpt>
      <trkpt lat="45.93262" lon="5.86505">
        <ele>334</ele>
        <time>2021-09-11T12:13:05.547Z</time>
      </trkpt>
      <trkpt lat="45.93261" lon="5.86505">
        <ele>335</ele>
        <time>2021-09-11T12:13:06.548Z</time>
      </trkpt>
      <trkpt lat="45.93261" lon="5.86506">
        <ele>336</ele>
        <time>2021-09-11T12:13:07.548Z</time>
      </trkpt>
      <trkpt lat="45.93261" lon="5.86506">
        <ele>337</ele>
        <time>2021-09-11T12:13:08.548Z</time>
      </trkpt>
      <trkpt lat="45.93261" lon="5.86508">
        <ele>339</ele>
        <time>2021-09-11T12:13:09.548Z</time>
      </trkpt>
      <trkpt lat="45.93261" lon="5.86508">
        <ele>340</ele>
        <time>2021-09-11T12:13:10.548Z</time>
      </trkpt>
      <trkpt lat="45.93261" lon="5.86507">
        <ele>340</ele>
        <time>2021-09-11T12:13:11.547Z</time>
      </trkpt>
      <trkpt lat="45.93261" lon="5.86507">
        <ele>341</ele>
        <time>2021-09-11T12:13:12.547Z</time>
      </trkpt>
      <trkpt lat="45.93261" lon="5.86506">
        <ele>341</ele>
        <time>2021-09-11T12:13:13.548Z</time>
      </trkpt>
      <trkpt lat="45.93257" lon="5.86505">
        <ele>351</ele>
        <time>2021-09-11T12:13:14.549Z</time>
      </trkpt>
      <trkpt lat="45.93256" lon="5.86501">
        <ele>351</ele>
        <time>2021-09-11T12:13:15.549Z</time>
      </trkpt>
      <trkpt lat="45.93254" lon="5.86496">
        <ele>351</ele>
        <time>2021-09-11T12:13:16.548Z</time>
      </trkpt>
      <trkpt lat="45.93252" lon="5.86491">
        <ele>351</ele>
        <time>2021-09-11T12:13:17.549Z</time>
      </trkpt>
      <trkpt lat="45.9325" lon="5.86485">
        <ele>350</ele>
        <time>2021-09-11T12:13:18.549Z</time>
      </trkpt>
      <trkpt lat="45.93249" lon="5.86477">
        <ele>350</ele>
        <time>2021-09-11T12:13:19.549Z</time>
      </trkpt>
      <trkpt lat="45.93248" lon="5.8647">
        <ele>349</ele>
        <time>2021-09-11T12:13:20.549Z</time>
      </trkpt>
      <trkpt lat="45.93247" lon="5.86461">
        <ele>349</ele>
        <time>2021-09-11T12:13:21.549Z</time>
      </trkpt>
      <trkpt lat="45.93247" lon="5.86453">
        <ele>348</ele>
        <time>2021-09-11T12:13:22.548Z</time>
      </trkpt>
      <trkpt lat="45.93246" lon="5.86444">
        <ele>347</ele>
        <time>2021-09-11T12:13:23.549Z</time>
      </trkpt>
      <trkpt lat="45.93246" lon="5.86435">
        <ele>347</ele>
        <time>2021-09-11T12:13:24.548Z</time>
      </trkpt>
      <trkpt lat="45.93246" lon="5.86426">
        <ele>346</ele>
        <time>2021-09-11T12:13:25.549Z</time>
      </trkpt>
      <trkpt lat="45.93246" lon="5.86417">
        <ele>345</ele>
        <time>2021-09-11T12:13:26.549Z</time>
      </trkpt>
      <trkpt lat="45.93246" lon="5.86407">
        <ele>344</ele>
        <time>2021-09-11T12:13:27.549Z</time>
      </trkpt>
      <trkpt lat="45.93247" lon="5.86396">
        <ele>343</ele>
        <time>2021-09-11T12:13:28.549Z</time>
      </trkpt>
      <trkpt lat="45.93246" lon="5.86384">
        <ele>343</ele>
        <time>2021-09-11T12:13:29.549Z</time>
      </trkpt>
      <trkpt lat="45.93247" lon="5.86372">
        <ele>342</ele>
        <time>2021-09-11T12:13:30.549Z</time>
      </trkpt>
      <trkpt lat="45.93249" lon="5.8636">
        <ele>341</ele>
        <time>2021-09-11T12:13:31.548Z</time>
      </trkpt>
      <trkpt lat="45.93252" lon="5.86348">
        <ele>341</ele>
        <time>2021-09-11T12:13:32.549Z</time>
      </trkpt>
      <trkpt lat="45.93257" lon="5.86337">
        <ele>340</ele>
        <time>2021-09-11T12:13:33.549Z</time>
      </trkpt>
      <trkpt lat="45.93262" lon="5.86326">
        <ele>339</ele>
        <time>2021-09-11T12:13:34.549Z</time>
      </trkpt>
      <trkpt lat="45.93267" lon="5.86315">
        <ele>338</ele>
        <time>2021-09-11T12:13:35.549Z</time>
      </trkpt>
      <trkpt lat="45.93271" lon="5.86304">
        <ele>337</ele>
        <time>2021-09-11T12:13:36.549Z</time>
      </trkpt>
      <trkpt lat="45.93275" lon="5.86293">
        <ele>336</ele>
        <time>2021-09-11T12:13:37.548Z</time>
      </trkpt>
      <trkpt lat="45.93281" lon="5.86282">
        <ele>335</ele>
        <time>2021-09-11T12:13:38.548Z</time>
      </trkpt>
      <trkpt lat="45.93286" lon="5.86273">
        <ele>334</ele>
        <time>2021-09-11T12:13:39.549Z</time>
      </trkpt>
      <trkpt lat="45.93291" lon="5.86264">
        <ele>333</ele>
        <time>2021-09-11T12:13:40.549Z</time>
      </trkpt>
      <trkpt lat="45.93297" lon="5.86255">
        <ele>333</ele>
        <time>2021-09-11T12:13:41.549Z</time>
      </trkpt>
      <trkpt lat="45.93296" lon="5.86247">
        <ele>332</ele>
        <time>2021-09-11T12:13:42.549Z</time>
      </trkpt>
      <trkpt lat="45.93293" lon="5.8624">
        <ele>331</ele>
        <time>2021-09-11T12:13:43.549Z</time>
      </trkpt>
      <trkpt lat="45.93291" lon="5.86232">
        <ele>331</ele>
        <time>2021-09-11T12:13:44.548Z</time>
      </trkpt>
      <trkpt lat="45.93292" lon="5.86225">
        <ele>330</ele>
        <time>2021-09-11T12:13:45.549Z</time>
      </trkpt>
      <trkpt lat="45.93291" lon="5.86216">
        <ele>330</ele>
        <time>2021-09-11T12:13:46.548Z</time>
      </trkpt>
      <trkpt lat="45.9329" lon="5.86208">
        <ele>330</ele>
        <time>2021-09-11T12:13:47.548Z</time>
      </trkpt>
      <trkpt lat="45.93288" lon="5.86199">
        <ele>329</ele>
        <time>2021-09-11T12:13:48.549Z</time>
      </trkpt>
      <trkpt lat="45.93288" lon="5.86189">
        <ele>329</ele>
        <time>2021-09-11T12:13:49.548Z</time>
      </trkpt>
      <trkpt lat="45.93288" lon="5.8618">
        <ele>328</ele>
        <time>2021-09-11T12:13:50.549Z</time>
      </trkpt>
      <trkpt lat="45.93289" lon="5.8617">
        <ele>328</ele>
        <time>2021-09-11T12:13:51.549Z</time>
      </trkpt>
      <trkpt lat="45.9329" lon="5.8616">
        <ele>327</ele>
        <time>2021-09-11T12:13:52.549Z</time>
      </trkpt>
      <trkpt lat="45.93291" lon="5.86151">
        <ele>327</ele>
        <time>2021-09-11T12:13:53.549Z</time>
      </trkpt>
      <trkpt lat="45.93294" lon="5.86142">
        <ele>327</ele>
        <time>2021-09-11T12:13:54.549Z</time>
      </trkpt>
      <trkpt lat="45.93296" lon="5.86133">
        <ele>326</ele>
        <time>2021-09-11T12:13:55.549Z</time>
      </trkpt>
      <trkpt lat="45.93297" lon="5.86124">
        <ele>326</ele>
        <time>2021-09-11T12:13:56.549Z</time>
      </trkpt>
      <trkpt lat="45.93298" lon="5.86114">
        <ele>326</ele>
        <time>2021-09-11T12:13:57.548Z</time>
      </trkpt>
      <trkpt lat="45.93298" lon="5.86103">
        <ele>326</ele>
        <time>2021-09-11T12:13:58.548Z</time>
      </trkpt>
      <trkpt lat="45.93298" lon="5.86093">
        <ele>326</ele>
        <time>2021-09-11T12:13:59.549Z</time>
      </trkpt>
      <trkpt lat="45.93298" lon="5.86082">
        <ele>326</ele>
        <time>2021-09-11T12:14:00.549Z</time>
      </trkpt>
      <trkpt lat="45.93297" lon="5.8607">
        <ele>327</ele>
        <time>2021-09-11T12:14:01.549Z</time>
      </trkpt>
      <trkpt lat="45.93297" lon="5.86059">
        <ele>327</ele>
        <time>2021-09-11T12:14:02.549Z</time>
      </trkpt>
      <trkpt lat="45.93297" lon="5.86046">
        <ele>327</ele>
        <time>2021-09-11T12:14:03.549Z</time>
      </trkpt>
      <trkpt lat="45.93297" lon="5.86034">
        <ele>327</ele>
        <time>2021-09-11T12:14:04.549Z</time>
      </trkpt>
      <trkpt lat="45.93299" lon="5.86021">
        <ele>327</ele>
        <time>2021-09-11T12:14:05.549Z</time>
      </trkpt>
      <trkpt lat="45.93302" lon="5.86009">
        <ele>328</ele>
        <time>2021-09-11T12:14:06.549Z</time>
      </trkpt>
      <trkpt lat="45.93305" lon="5.85996">
        <ele>328</ele>
        <time>2021-09-11T12:14:07.549Z</time>
      </trkpt>
      <trkpt lat="45.93308" lon="5.85983">
        <ele>328</ele>
        <time>2021-09-11T12:14:08.549Z</time>
      </trkpt>
      <trkpt lat="45.9331" lon="5.85971">
        <ele>328</ele>
        <time>2021-09-11T12:14:09.549Z</time>
      </trkpt>
      <trkpt lat="45.93312" lon="5.8596">
        <ele>328</ele>
        <time>2021-09-11T12:14:10.549Z</time>
      </trkpt>
      <trkpt lat="45.93314" lon="5.8595">
        <ele>328</ele>
        <time>2021-09-11T12:14:11.548Z</time>
      </trkpt>
      <trkpt lat="45.93316" lon="5.8594">
        <ele>328</ele>
        <time>2021-09-11T12:14:12.549Z</time>
      </trkpt>
      <trkpt lat="45.93319" lon="5.85931">
        <ele>328</ele>
        <time>2021-09-11T12:14:13.549Z</time>
      </trkpt>
      <trkpt lat="45.93322" lon="5.85922">
        <ele>328</ele>
        <time>2021-09-11T12:14:14.548Z</time>
      </trkpt>
      <trkpt lat="45.93325" lon="5.85914">
        <ele>328</ele>
        <time>2021-09-11T12:14:15.549Z</time>
      </trkpt>
      <trkpt lat="45.93328" lon="5.85906">
        <ele>328</ele>
        <time>2021-09-11T12:14:16.549Z</time>
      </trkpt>
      <trkpt lat="45.93329" lon="5.85898">
        <ele>328</ele>
        <time>2021-09-11T12:14:17.549Z</time>
      </trkpt>
      <trkpt lat="45.93329" lon="5.8589">
        <ele>328</ele>
        <time>2021-09-11T12:14:18.549Z</time>
      </trkpt>
      <trkpt lat="45.93328" lon="5.85883">
        <ele>329</ele>
        <time>2021-09-11T12:14:19.549Z</time>
      </trkpt>
      <trkpt lat="45.93327" lon="5.85875">
        <ele>330</ele>
        <time>2021-09-11T12:14:20.549Z</time>
      </trkpt>
      <trkpt lat="45.93327" lon="5.85867">
        <ele>330</ele>
        <time>2021-09-11T12:14:21.549Z</time>
      </trkpt>
      <trkpt lat="45.93327" lon="5.8586">
        <ele>330</ele>
        <time>2021-09-11T12:14:22.548Z</time>
      </trkpt>
      <trkpt lat="45.93327" lon="5.85852">
        <ele>330</ele>
        <time>2021-09-11T12:14:23.549Z</time>
      </trkpt>
      <trkpt lat="45.93329" lon="5.85845">
        <ele>329</ele>
        <time>2021-09-11T12:14:24.549Z</time>
      </trkpt>
      <trkpt lat="45.9333" lon="5.85839">
        <ele>327</ele>
        <time>2021-09-11T12:14:25.549Z</time>
      </trkpt>
      <trkpt lat="45.93332" lon="5.85832">
        <ele>326</ele>
        <time>2021-09-11T12:14:26.549Z</time>
      </trkpt>
      <trkpt lat="45.93333" lon="5.85826">
        <ele>325</ele>
        <time>2021-09-11T12:14:27.548Z</time>
      </trkpt>
      <trkpt lat="45.93335" lon="5.85821">
        <ele>324</ele>
        <time>2021-09-11T12:14:28.549Z</time>
      </trkpt>
      <trkpt lat="45.93336" lon="5.85815">
        <ele>323</ele>
        <time>2021-09-11T12:14:29.548Z</time>
      </trkpt>
      <trkpt lat="45.93338" lon="5.85809">
        <ele>321</ele>
        <time>2021-09-11T12:14:30.549Z</time>
      </trkpt>
      <trkpt lat="45.93339" lon="5.85804">
        <ele>319</ele>
        <time>2021-09-11T12:14:31.549Z</time>
      </trkpt>
      <trkpt lat="45.9334" lon="5.85799">
        <ele>318</ele>
        <time>2021-09-11T12:14:32.548Z</time>
      </trkpt>
      <trkpt lat="45.93341" lon="5.85794">
        <ele>316</ele>
        <time>2021-09-11T12:14:33.549Z</time>
      </trkpt>
      <trkpt lat="45.93342" lon="5.85789">
        <ele>315</ele>
        <time>2021-09-11T12:14:34.549Z</time>
      </trkpt>
      <trkpt lat="45.93342" lon="5.85784">
        <ele>313</ele>
        <time>2021-09-11T12:14:35.548Z</time>
      </trkpt>
      <trkpt lat="45.93341" lon="5.85778">
        <ele>312</ele>
        <time>2021-09-11T12:14:36.548Z</time>
      </trkpt>
      <trkpt lat="45.93341" lon="5.85772">
        <ele>311</ele>
        <time>2021-09-11T12:14:37.548Z</time>
      </trkpt>
      <trkpt lat="45.9334" lon="5.85765">
        <ele>310</ele>
        <time>2021-09-11T12:14:38.548Z</time>
      </trkpt>
      <trkpt lat="45.93339" lon="5.85758">
        <ele>309</ele>
        <time>2021-09-11T12:14:39.548Z</time>
      </trkpt>
      <trkpt lat="45.93338" lon="5.85751">
        <ele>308</ele>
        <time>2021-09-11T12:14:40.549Z</time>
      </trkpt>
      <trkpt lat="45.93338" lon="5.85744">
        <ele>307</ele>
        <time>2021-09-11T12:14:41.548Z</time>
      </trkpt>
      <trkpt lat="45.93338" lon="5.8574">
        <ele>307</ele>
        <time>2021-09-11T12:14:42.549Z</time>
      </trkpt>
      <trkpt lat="45.93337" lon="5.85737">
        <ele>306</ele>
        <time>2021-09-11T12:14:43.549Z</time>
      </trkpt>
      <trkpt lat="45.93337" lon="5.85734">
        <ele>305</ele>
        <time>2021-09-11T12:14:44.549Z</time>
      </trkpt>
      <trkpt lat="45.93336" lon="5.85733">
        <ele>305</ele>
        <time>2021-09-11T12:14:45.548Z</time>
      </trkpt>
      <trkpt lat="45.93337" lon="5.85734">
        <ele>304</ele>
        <time>2021-09-11T12:14:46.549Z</time>
      </trkpt>
      <trkpt lat="45.93336" lon="5.85733">
        <ele>304</ele>
        <time>2021-09-11T12:14:47.549Z</time>
      </trkpt>
      <trkpt lat="45.93334" lon="5.85733">
        <ele>304</ele>
        <time>2021-09-11T12:14:48.549Z</time>
      </trkpt>
      <trkpt lat="45.9333" lon="5.85731">
        <ele>302</ele>
        <time>2021-09-11T12:14:49.550Z</time>
      </trkpt>
      <trkpt lat="45.9333" lon="5.85729">
        <ele>302</ele>
        <time>2021-09-11T12:14:50.550Z</time>
      </trkpt>
      <trkpt lat="45.9333" lon="5.85729">
        <ele>302</ele>
        <time>2021-09-11T12:14:51.549Z</time>
      </trkpt>
      <trkpt lat="45.93333" lon="5.85724">
        <ele>308</ele>
        <time>2021-09-11T12:14:52.551Z</time>
      </trkpt>
      <trkpt lat="45.93334" lon="5.8572">
        <ele>308</ele>
        <time>2021-09-11T12:14:53.550Z</time>
      </trkpt>
      <trkpt lat="45.93335" lon="5.85715">
        <ele>308</ele>
        <time>2021-09-11T12:14:54.550Z</time>
      </trkpt>
      <trkpt lat="45.93336" lon="5.85709">
        <ele>308</ele>
        <time>2021-09-11T12:14:55.550Z</time>
      </trkpt>
      <trkpt lat="45.93337" lon="5.85703">
        <ele>308</ele>
        <time>2021-09-11T12:14:56.550Z</time>
      </trkpt>
      <trkpt lat="45.93338" lon="5.85697">
        <ele>308</ele>
        <time>2021-09-11T12:14:57.551Z</time>
      </trkpt>
      <trkpt lat="45.93339" lon="5.85691">
        <ele>308</ele>
        <time>2021-09-11T12:14:58.551Z</time>
      </trkpt>
      <trkpt lat="45.93341" lon="5.85686">
        <ele>307</ele>
        <time>2021-09-11T12:14:59.551Z</time>
      </trkpt>
      <trkpt lat="45.93343" lon="5.85679">
        <ele>307</ele>
        <time>2021-09-11T12:15:00.551Z</time>
      </trkpt>
      <trkpt lat="45.93343" lon="5.85672">
        <ele>307</ele>
        <time>2021-09-11T12:15:01.551Z</time>
      </trkpt>
      <trkpt lat="45.93342" lon="5.85664">
        <ele>307</ele>
        <time>2021-09-11T12:15:02.551Z</time>
      </trkpt>
      <trkpt lat="45.9334" lon="5.85656">
        <ele>306</ele>
        <time>2021-09-11T12:15:03.551Z</time>
      </trkpt>
      <trkpt lat="45.93339" lon="5.85647">
        <ele>306</ele>
        <time>2021-09-11T12:15:04.550Z</time>
      </trkpt>
      <trkpt lat="45.93339" lon="5.85638">
        <ele>305</ele>
        <time>2021-09-11T12:15:05.551Z</time>
      </trkpt>
      <trkpt lat="45.93339" lon="5.85629">
        <ele>305</ele>
        <time>2021-09-11T12:15:06.551Z</time>
      </trkpt>
      <trkpt lat="45.93341" lon="5.8562">
        <ele>304</ele>
        <time>2021-09-11T12:15:07.550Z</time>
      </trkpt>
      <trkpt lat="45.93344" lon="5.85611">
        <ele>304</ele>
        <time>2021-09-11T12:15:08.551Z</time>
      </trkpt>
      <trkpt lat="45.93347" lon="5.85603">
        <ele>303</ele>
        <time>2021-09-11T12:15:09.550Z</time>
      </trkpt>
      <trkpt lat="45.93351" lon="5.85596">
        <ele>303</ele>
        <time>2021-09-11T12:15:10.550Z</time>
      </trkpt>
      <trkpt lat="45.93354" lon="5.85589">
        <ele>302</ele>
        <time>2021-09-11T12:15:11.550Z</time>
      </trkpt>
      <trkpt lat="45.93356" lon="5.85583">
        <ele>302</ele>
        <time>2021-09-11T12:15:12.550Z</time>
      </trkpt>
      <trkpt lat="45.93357" lon="5.85578">
        <ele>301</ele>
        <time>2021-09-11T12:15:13.551Z</time>
      </trkpt>
      <trkpt lat="45.93358" lon="5.85573">
        <ele>301</ele>
        <time>2021-09-11T12:15:14.550Z</time>
      </trkpt>
      <trkpt lat="45.93359" lon="5.85569">
        <ele>301</ele>
        <time>2021-09-11T12:15:15.550Z</time>
      </trkpt>
      <trkpt lat="45.93359" lon="5.85564">
        <ele>301</ele>
        <time>2021-09-11T12:15:16.550Z</time>
      </trkpt>
      <trkpt lat="45.93359" lon="5.85559">
        <ele>301</ele>
        <time>2021-09-11T12:15:17.550Z</time>
      </trkpt>
      <trkpt lat="45.93359" lon="5.85553">
        <ele>300</ele>
        <time>2021-09-11T12:15:18.550Z</time>
      </trkpt>
      <trkpt lat="45.93358" lon="5.85546">
        <ele>300</ele>
        <time>2021-09-11T12:15:19.551Z</time>
      </trkpt>
      <trkpt lat="45.93358" lon="5.85539">
        <ele>300</ele>
        <time>2021-09-11T12:15:20.550Z</time>
      </trkpt>
      <trkpt lat="45.93357" lon="5.85531">
        <ele>300</ele>
        <time>2021-09-11T12:15:21.551Z</time>
      </trkpt>
      <trkpt lat="45.93356" lon="5.85523">
        <ele>300</ele>
        <time>2021-09-11T12:15:25.576Z</time>
      </trkpt>
      <trkpt lat="45.93356" lon="5.85515">
        <ele>300</ele>
        <time>2021-09-11T12:15:27.435Z</time>
      </trkpt>
      <trkpt lat="45.93357" lon="5.85507">
        <ele>300</ele>
        <time>2021-09-11T12:15:28.436Z</time>
      </trkpt>
      <trkpt lat="45.93357" lon="5.855">
        <ele>300</ele>
        <time>2021-09-11T12:16:20.329Z</time>
      </trkpt>
      <trkpt lat="45.93356" lon="5.85492">
        <ele>299</ele>
        <time>2021-09-11T12:16:21.328Z</time>
      </trkpt>
      <trkpt lat="45.93361" lon="5.85475">
        <ele>299</ele>
        <time>2021-09-11T12:16:27.449Z</time>
      </trkpt>
      <trkpt lat="45.93365" lon="5.85467">
        <ele>298</ele>
        <time>2021-09-11T12:16:28.450Z</time>
      </trkpt>
      <trkpt lat="45.93368" lon="5.85459">
        <ele>297</ele>
        <time>2021-09-11T12:16:29.449Z</time>
      </trkpt>
      <trkpt lat="45.93373" lon="5.8545">
        <ele>296</ele>
        <time>2021-09-11T12:16:30.449Z</time>
      </trkpt>
      <trkpt lat="45.93376" lon="5.85441">
        <ele>295</ele>
        <time>2021-09-11T12:16:31.450Z</time>
      </trkpt>
      <trkpt lat="45.93379" lon="5.85432">
        <ele>294</ele>
        <time>2021-09-11T12:16:32.450Z</time>
      </trkpt>
      <trkpt lat="45.93381" lon="5.85421">
        <ele>294</ele>
        <time>2021-09-11T12:16:33.449Z</time>
      </trkpt>
      <trkpt lat="45.9338" lon="5.85411">
        <ele>293</ele>
        <time>2021-09-11T12:16:34.449Z</time>
      </trkpt>
      <trkpt lat="45.93378" lon="5.854">
        <ele>292</ele>
        <time>2021-09-11T12:16:35.450Z</time>
      </trkpt>
      <trkpt lat="45.93375" lon="5.85388">
        <ele>292</ele>
        <time>2021-09-11T12:16:36.450Z</time>
      </trkpt>
      <trkpt lat="45.93371" lon="5.85378">
        <ele>291</ele>
        <time>2021-09-11T12:16:37.450Z</time>
      </trkpt>
      <trkpt lat="45.93366" lon="5.85368">
        <ele>291</ele>
        <time>2021-09-11T12:16:38.449Z</time>
      </trkpt>
      <trkpt lat="45.93361" lon="5.85358">
        <ele>291</ele>
        <time>2021-09-11T12:16:39.449Z</time>
      </trkpt>
      <trkpt lat="45.93357" lon="5.8535">
        <ele>290</ele>
        <time>2021-09-11T12:16:40.449Z</time>
      </trkpt>
      <trkpt lat="45.93352" lon="5.85341">
        <ele>290</ele>
        <time>2021-09-11T12:16:41.449Z</time>
      </trkpt>
      <trkpt lat="45.93347" lon="5.8533">
        <ele>290</ele>
        <time>2021-09-11T12:16:42.449Z</time>
      </trkpt>
      <trkpt lat="45.93343" lon="5.85319">
        <ele>290</ele>
        <time>2021-09-11T12:16:43.449Z</time>
      </trkpt>
      <trkpt lat="45.9334" lon="5.85309">
        <ele>290</ele>
        <time>2021-09-11T12:16:44.449Z</time>
      </trkpt>
      <trkpt lat="45.93337" lon="5.853">
        <ele>289</ele>
        <time>2021-09-11T12:16:45.449Z</time>
      </trkpt>
      <trkpt lat="45.93369" lon="5.85056">
        <ele>290</ele>
        <time>2021-09-11T12:17:07.450Z</time>
      </trkpt>
      <trkpt lat="45.93367" lon="5.85045">
        <ele>290</ele>
        <time>2021-09-11T12:17:08.451Z</time>
      </trkpt>
      <trkpt lat="45.93363" lon="5.85028">
        <ele>290</ele>
        <time>2021-09-11T12:17:09.451Z</time>
      </trkpt>
      <trkpt lat="45.93361" lon="5.85016">
        <ele>290</ele>
        <time>2021-09-11T12:17:10.451Z</time>
      </trkpt>
      <trkpt lat="45.93358" lon="5.84998">
        <ele>290</ele>
        <time>2021-09-11T12:17:11.451Z</time>
      </trkpt>
      <trkpt lat="45.93356" lon="5.84984">
        <ele>290</ele>
        <time>2021-09-11T12:17:12.451Z</time>
      </trkpt>
      <trkpt lat="45.93357" lon="5.84974">
        <ele>291</ele>
        <time>2021-09-11T12:17:13.451Z</time>
      </trkpt>
      <trkpt lat="45.93359" lon="5.84962">
        <ele>290</ele>
        <time>2021-09-11T12:17:14.451Z</time>
      </trkpt>
      <trkpt lat="45.93363" lon="5.84949">
        <ele>290</ele>
        <time>2021-09-11T12:17:15.451Z</time>
      </trkpt>
      <trkpt lat="45.93367" lon="5.84937">
        <ele>289</ele>
        <time>2021-09-11T12:17:16.451Z</time>
      </trkpt>
      <trkpt lat="45.93373" lon="5.84924">
        <ele>289</ele>
        <time>2021-09-11T12:17:17.451Z</time>
      </trkpt>
      <trkpt lat="45.93379" lon="5.84915">
        <ele>288</ele>
        <time>2021-09-11T12:17:18.451Z</time>
      </trkpt>
      <trkpt lat="45.93385" lon="5.84903">
        <ele>287</ele>
        <time>2021-09-11T12:17:19.451Z</time>
      </trkpt>
      <trkpt lat="45.93392" lon="5.84893">
        <ele>286</ele>
        <time>2021-09-11T12:17:20.451Z</time>
      </trkpt>
      <trkpt lat="45.934" lon="5.84882">
        <ele>285</ele>
        <time>2021-09-11T12:17:21.451Z</time>
      </trkpt>
      <trkpt lat="45.93406" lon="5.84872">
        <ele>284</ele>
        <time>2021-09-11T12:17:22.451Z</time>
      </trkpt>
      <trkpt lat="45.93413" lon="5.84861">
        <ele>284</ele>
        <time>2021-09-11T12:17:23.450Z</time>
      </trkpt>
      <trkpt lat="45.93419" lon="5.8485">
        <ele>283</ele>
        <time>2021-09-11T12:17:24.451Z</time>
      </trkpt>
      <trkpt lat="45.93425" lon="5.84838">
        <ele>282</ele>
        <time>2021-09-11T12:17:25.451Z</time>
      </trkpt>
      <trkpt lat="45.9343" lon="5.84827">
        <ele>281</ele>
        <time>2021-09-11T12:17:26.451Z</time>
      </trkpt>
      <trkpt lat="45.93436" lon="5.84816">
        <ele>280</ele>
        <time>2021-09-11T12:17:27.450Z</time>
      </trkpt>
      <trkpt lat="45.93442" lon="5.84806">
        <ele>279</ele>
        <time>2021-09-11T12:17:28.450Z</time>
      </trkpt>
      <trkpt lat="45.93447" lon="5.84796">
        <ele>279</ele>
        <time>2021-09-11T12:17:29.451Z</time>
      </trkpt>
      <trkpt lat="45.93452" lon="5.84786">
        <ele>278</ele>
        <time>2021-09-11T12:17:30.450Z</time>
      </trkpt>
      <trkpt lat="45.93457" lon="5.84776">
        <ele>278</ele>
        <time>2021-09-11T12:17:31.451Z</time>
      </trkpt>
      <trkpt lat="45.93463" lon="5.84764">
        <ele>277</ele>
        <time>2021-09-11T12:17:32.451Z</time>
      </trkpt>
      <trkpt lat="45.93469" lon="5.84753">
        <ele>276</ele>
        <time>2021-09-11T12:17:33.451Z</time>
      </trkpt>
      <trkpt lat="45.93473" lon="5.84741">
        <ele>276</ele>
        <time>2021-09-11T12:17:34.451Z</time>
      </trkpt>
      <trkpt lat="45.93478" lon="5.84729">
        <ele>275</ele>
        <time>2021-09-11T12:17:35.450Z</time>
      </trkpt>
      <trkpt lat="45.93483" lon="5.84717">
        <ele>275</ele>
        <time>2021-09-11T12:17:36.450Z</time>
      </trkpt>
      <trkpt lat="45.93487" lon="5.84705">
        <ele>275</ele>
        <time>2021-09-11T12:17:37.451Z</time>
      </trkpt>
      <trkpt lat="45.93491" lon="5.84693">
        <ele>274</ele>
        <time>2021-09-11T12:17:38.450Z</time>
      </trkpt>
      <trkpt lat="45.93494" lon="5.84681">
        <ele>273</ele>
        <time>2021-09-11T12:17:39.451Z</time>
      </trkpt>
      <trkpt lat="45.93497" lon="5.8467">
        <ele>273</ele>
        <time>2021-09-11T12:17:40.451Z</time>
      </trkpt>
      <trkpt lat="45.93499" lon="5.84658">
        <ele>272</ele>
        <time>2021-09-11T12:17:41.450Z</time>
      </trkpt>
      <trkpt lat="45.935" lon="5.84645">
        <ele>271</ele>
        <time>2021-09-11T12:17:42.451Z</time>
      </trkpt>
      <trkpt lat="45.93501" lon="5.84631">
        <ele>271</ele>
        <time>2021-09-11T12:17:43.450Z</time>
      </trkpt>
      <trkpt lat="45.93501" lon="5.84619">
        <ele>270</ele>
        <time>2021-09-11T12:17:44.450Z</time>
      </trkpt>
      <trkpt lat="45.935" lon="5.84606">
        <ele>270</ele>
        <time>2021-09-11T12:17:45.451Z</time>
      </trkpt>
      <trkpt lat="45.93499" lon="5.84596">
        <ele>271</ele>
        <time>2021-09-11T12:17:46.451Z</time>
      </trkpt>
      <trkpt lat="45.93499" lon="5.84584">
        <ele>271</ele>
        <time>2021-09-11T12:17:47.451Z</time>
      </trkpt>
      <trkpt lat="45.93499" lon="5.84574">
        <ele>271</ele>
        <time>2021-09-11T12:17:48.451Z</time>
      </trkpt>
      <trkpt lat="45.935" lon="5.84564">
        <ele>271</ele>
        <time>2021-09-11T12:17:49.451Z</time>
      </trkpt>
      <trkpt lat="45.935" lon="5.84554">
        <ele>271</ele>
        <time>2021-09-11T12:17:50.451Z</time>
      </trkpt>
      <trkpt lat="45.935" lon="5.84544">
        <ele>271</ele>
        <time>2021-09-11T12:17:51.450Z</time>
      </trkpt>
      <trkpt lat="45.935" lon="5.84535">
        <ele>271</ele>
        <time>2021-09-11T12:17:52.450Z</time>
      </trkpt>
      <trkpt lat="45.93502" lon="5.84524">
        <ele>271</ele>
        <time>2021-09-11T12:17:53.450Z</time>
      </trkpt>
      <trkpt lat="45.93503" lon="5.84515">
        <ele>270</ele>
        <time>2021-09-11T12:17:54.450Z</time>
      </trkpt>
      <trkpt lat="45.93503" lon="5.84505">
        <ele>270</ele>
        <time>2021-09-11T12:17:55.451Z</time>
      </trkpt>
      <trkpt lat="45.93504" lon="5.84496">
        <ele>270</ele>
        <time>2021-09-11T12:17:56.451Z</time>
      </trkpt>
      <trkpt lat="45.93504" lon="5.84487">
        <ele>269</ele>
        <time>2021-09-11T12:17:57.451Z</time>
      </trkpt>
      <trkpt lat="45.93503" lon="5.84478">
        <ele>269</ele>
        <time>2021-09-11T12:17:58.450Z</time>
      </trkpt>
      <trkpt lat="45.93502" lon="5.8447">
        <ele>269</ele>
        <time>2021-09-11T12:17:59.451Z</time>
      </trkpt>
      <trkpt lat="45.935" lon="5.84461">
        <ele>269</ele>
        <time>2021-09-11T12:18:00.450Z</time>
      </trkpt>
      <trkpt lat="45.93498" lon="5.84452">
        <ele>269</ele>
        <time>2021-09-11T12:18:01.451Z</time>
      </trkpt>
      <trkpt lat="45.93496" lon="5.84443">
        <ele>269</ele>
        <time>2021-09-11T12:18:02.450Z</time>
      </trkpt>
      <trkpt lat="45.93494" lon="5.84435">
        <ele>269</ele>
        <time>2021-09-11T12:18:03.450Z</time>
      </trkpt>
      <trkpt lat="45.93491" lon="5.84427">
        <ele>269</ele>
        <time>2021-09-11T12:18:04.450Z</time>
      </trkpt>
      <trkpt lat="45.93488" lon="5.84419">
        <ele>270</ele>
        <time>2021-09-11T12:18:05.450Z</time>
      </trkpt>
      <trkpt lat="45.93485" lon="5.84411">
        <ele>270</ele>
        <time>2021-09-11T12:18:06.451Z</time>
      </trkpt>
      <trkpt lat="45.93481" lon="5.84403">
        <ele>270</ele>
        <time>2021-09-11T12:18:07.451Z</time>
      </trkpt>
      <trkpt lat="45.93479" lon="5.84395">
        <ele>270</ele>
        <time>2021-09-11T12:18:08.450Z</time>
      </trkpt>
      <trkpt lat="45.93476" lon="5.84387">
        <ele>270</ele>
        <time>2021-09-11T12:18:09.450Z</time>
      </trkpt>
      <trkpt lat="45.93473" lon="5.8438">
        <ele>270</ele>
        <time>2021-09-11T12:19:43.587Z</time>
      </trkpt>
      <trkpt lat="45.9347" lon="5.84373">
        <ele>270</ele>
        <time>2021-09-11T12:19:44.587Z</time>
      </trkpt>
      <trkpt lat="45.93467" lon="5.84366">
        <ele>270</ele>
        <time>2021-09-11T12:19:45.586Z</time>
      </trkpt>
      <trkpt lat="45.93464" lon="5.84358">
        <ele>269</ele>
        <time>2021-09-11T12:19:46.586Z</time>
      </trkpt>
      <trkpt lat="45.93461" lon="5.84351">
        <ele>269</ele>
        <time>2021-09-11T12:19:47.587Z</time>
      </trkpt>
      <trkpt lat="45.93458" lon="5.84344">
        <ele>269</ele>
        <time>2021-09-11T12:19:48.587Z</time>
      </trkpt>
      <trkpt lat="45.93455" lon="5.84335">
        <ele>269</ele>
        <time>2021-09-11T12:19:49.587Z</time>
      </trkpt>
      <trkpt lat="45.93452" lon="5.84328">
        <ele>269</ele>
        <time>2021-09-11T12:19:50.586Z</time>
      </trkpt>
      <trkpt lat="45.9345" lon="5.84321">
        <ele>268</ele>
        <time>2021-09-11T12:19:51.586Z</time>
      </trkpt>
      <trkpt lat="45.93447" lon="5.84314">
        <ele>267</ele>
        <time>2021-09-11T12:19:52.586Z</time>
      </trkpt>
      <trkpt lat="45.93445" lon="5.84306">
        <ele>267</ele>
        <time>2021-09-11T12:19:53.587Z</time>
      </trkpt>
      <trkpt lat="45.93442" lon="5.843">
        <ele>266</ele>
        <time>2021-09-11T12:19:54.587Z</time>
      </trkpt>
      <trkpt lat="45.9344" lon="5.84294">
        <ele>266</ele>
        <time>2021-09-11T12:19:55.587Z</time>
      </trkpt>
      <trkpt lat="45.93437" lon="5.84287">
        <ele>266</ele>
        <time>2021-09-11T12:19:56.587Z</time>
      </trkpt>
      <trkpt lat="45.93434" lon="5.84281">
        <ele>266</ele>
        <time>2021-09-11T12:19:57.587Z</time>
      </trkpt>
      <trkpt lat="45.93431" lon="5.84274">
        <ele>266</ele>
        <time>2021-09-11T12:19:58.587Z</time>
      </trkpt>
      <trkpt lat="45.93429" lon="5.84267">
        <ele>266</ele>
        <time>2021-09-11T12:19:59.587Z</time>
      </trkpt>
      <trkpt lat="45.93426" lon="5.8426">
        <ele>266</ele>
        <time>2021-09-11T12:20:00.586Z</time>
      </trkpt>
      <trkpt lat="45.93423" lon="5.84253">
        <ele>266</ele>
        <time>2021-09-11T12:20:01.586Z</time>
      </trkpt>
      <trkpt lat="45.93421" lon="5.84247">
        <ele>266</ele>
        <time>2021-09-11T12:20:02.586Z</time>
      </trkpt>
      <trkpt lat="45.93418" lon="5.8424">
        <ele>266</ele>
        <time>2021-09-11T12:20:03.587Z</time>
      </trkpt>
      <trkpt lat="45.93415" lon="5.84233">
        <ele>266</ele>
        <time>2021-09-11T12:20:04.587Z</time>
      </trkpt>
      <trkpt lat="45.93412" lon="5.84227">
        <ele>266</ele>
        <time>2021-09-11T12:20:05.587Z</time>
      </trkpt>
      <trkpt lat="45.93409" lon="5.84221">
        <ele>265</ele>
        <time>2021-09-11T12:20:06.586Z</time>
      </trkpt>
      <trkpt lat="45.93407" lon="5.84216">
        <ele>265</ele>
        <time>2021-09-11T12:20:07.586Z</time>
      </trkpt>
      <trkpt lat="45.93404" lon="5.8421">
        <ele>265</ele>
        <time>2021-09-11T12:20:08.587Z</time>
      </trkpt>
      <trkpt lat="45.93401" lon="5.84203">
        <ele>265</ele>
        <time>2021-09-11T12:20:09.587Z</time>
      </trkpt>
      <trkpt lat="45.93399" lon="5.84197">
        <ele>265</ele>
        <time>2021-09-11T12:20:10.586Z</time>
      </trkpt>
      <trkpt lat="45.93396" lon="5.84191">
        <ele>264</ele>
        <time>2021-09-11T12:20:11.587Z</time>
      </trkpt>
      <trkpt lat="45.93393" lon="5.84186">
        <ele>264</ele>
        <time>2021-09-11T12:20:12.586Z</time>
      </trkpt>
      <trkpt lat="45.9339" lon="5.84181">
        <ele>264</ele>
        <time>2021-09-11T12:20:13.586Z</time>
      </trkpt>
      <trkpt lat="45.93387" lon="5.84175">
        <ele>263</ele>
        <time>2021-09-11T12:20:14.586Z</time>
      </trkpt>
      <trkpt lat="45.93384" lon="5.84169">
        <ele>262</ele>
        <time>2021-09-11T12:20:15.587Z</time>
      </trkpt>
      <trkpt lat="45.93382" lon="5.84163">
        <ele>262</ele>
        <time>2021-09-11T12:20:16.586Z</time>
      </trkpt>
      <trkpt lat="45.93379" lon="5.84158">
        <ele>261</ele>
        <time>2021-09-11T12:20:17.587Z</time>
      </trkpt>
      <trkpt lat="45.93376" lon="5.84152">
        <ele>261</ele>
        <time>2021-09-11T12:20:18.587Z</time>
      </trkpt>
      <trkpt lat="45.93373" lon="5.84146">
        <ele>260</ele>
        <time>2021-09-11T12:20:19.587Z</time>
      </trkpt>
      <trkpt lat="45.93371" lon="5.84141">
        <ele>260</ele>
        <time>2021-09-11T12:20:20.586Z</time>
      </trkpt>
      <trkpt lat="45.93368" lon="5.84135">
        <ele>260</ele>
        <time>2021-09-11T12:20:21.586Z</time>
      </trkpt>
      <trkpt lat="45.93365" lon="5.84129">
        <ele>260</ele>
        <time>2021-09-11T12:20:22.586Z</time>
      </trkpt>
      <trkpt lat="45.93362" lon="5.84123">
        <ele>260</ele>
        <time>2021-09-11T12:20:23.586Z</time>
      </trkpt>
      <trkpt lat="45.93359" lon="5.84118">
        <ele>260</ele>
        <time>2021-09-11T12:20:24.587Z</time>
      </trkpt>
      <trkpt lat="45.93356" lon="5.84112">
        <ele>260</ele>
        <time>2021-09-11T12:20:25.586Z</time>
      </trkpt>
      <trkpt lat="45.93353" lon="5.84107">
        <ele>261</ele>
        <time>2021-09-11T12:20:26.586Z</time>
      </trkpt>
      <trkpt lat="45.93349" lon="5.84101">
        <ele>261</ele>
        <time>2021-09-11T12:20:27.586Z</time>
      </trkpt>
      <trkpt lat="45.93346" lon="5.84095">
        <ele>262</ele>
        <time>2021-09-11T12:20:28.586Z</time>
      </trkpt>
      <trkpt lat="45.93343" lon="5.84089">
        <ele>263</ele>
        <time>2021-09-11T12:20:29.587Z</time>
      </trkpt>
      <trkpt lat="45.93341" lon="5.84084">
        <ele>264</ele>
        <time>2021-09-11T12:20:30.586Z</time>
      </trkpt>
      <trkpt lat="45.93338" lon="5.84078">
        <ele>264</ele>
        <time>2021-09-11T12:20:31.586Z</time>
      </trkpt>
      <trkpt lat="45.93334" lon="5.84072">
        <ele>265</ele>
        <time>2021-09-11T12:20:32.587Z</time>
      </trkpt>
      <trkpt lat="45.93331" lon="5.84066">
        <ele>265</ele>
        <time>2021-09-11T12:20:33.586Z</time>
      </trkpt>
      <trkpt lat="45.93328" lon="5.8406">
        <ele>265</ele>
        <time>2021-09-11T12:20:34.587Z</time>
      </trkpt>
      <trkpt lat="45.93325" lon="5.84053">
        <ele>265</ele>
        <time>2021-09-11T12:20:35.586Z</time>
      </trkpt>
      <trkpt lat="45.93322" lon="5.84046">
        <ele>265</ele>
        <time>2021-09-11T12:20:36.586Z</time>
      </trkpt>
      <trkpt lat="45.93319" lon="5.84039">
        <ele>264</ele>
        <time>2021-09-11T12:20:37.587Z</time>
      </trkpt>
      <trkpt lat="45.93316" lon="5.84032">
        <ele>264</ele>
        <time>2021-09-11T12:20:38.587Z</time>
      </trkpt>
      <trkpt lat="45.93313" lon="5.84026">
        <ele>264</ele>
        <time>2021-09-11T12:20:39.587Z</time>
      </trkpt>
      <trkpt lat="45.9331" lon="5.8402">
        <ele>263</ele>
        <time>2021-09-11T12:20:40.586Z</time>
      </trkpt>
      <trkpt lat="45.93307" lon="5.84013">
        <ele>264</ele>
        <time>2021-09-11T12:20:41.586Z</time>
      </trkpt>
      <trkpt lat="45.93303" lon="5.84006">
        <ele>264</ele>
        <time>2021-09-11T12:20:42.587Z</time>
      </trkpt>
      <trkpt lat="45.933" lon="5.83999">
        <ele>264</ele>
        <time>2021-09-11T12:20:43.587Z</time>
      </trkpt>
      <trkpt lat="45.93297" lon="5.83991">
        <ele>265</ele>
        <time>2021-09-11T12:20:44.586Z</time>
      </trkpt>
      <trkpt lat="45.93295" lon="5.83983">
        <ele>265</ele>
        <time>2021-09-11T12:20:45.586Z</time>
      </trkpt>
      <trkpt lat="45.93293" lon="5.83976">
        <ele>265</ele>
        <time>2021-09-11T12:20:46.586Z</time>
      </trkpt>
      <trkpt lat="45.93291" lon="5.83968">
        <ele>266</ele>
        <time>2021-09-11T12:20:47.586Z</time>
      </trkpt>
      <trkpt lat="45.9329" lon="5.83959">
        <ele>266</ele>
        <time>2021-09-11T12:20:48.586Z</time>
      </trkpt>
      <trkpt lat="45.9329" lon="5.83951">
        <ele>266</ele>
        <time>2021-09-11T12:20:49.587Z</time>
      </trkpt>
      <trkpt lat="45.9329" lon="5.83942">
        <ele>265</ele>
        <time>2021-09-11T12:20:50.586Z</time>
      </trkpt>
      <trkpt lat="45.9329" lon="5.83934">
        <ele>265</ele>
        <time>2021-09-11T12:20:51.586Z</time>
      </trkpt>
      <trkpt lat="45.93291" lon="5.83925">
        <ele>264</ele>
        <time>2021-09-11T12:20:52.586Z</time>
      </trkpt>
      <trkpt lat="45.93292" lon="5.83917">
        <ele>264</ele>
        <time>2021-09-11T12:20:53.587Z</time>
      </trkpt>
      <trkpt lat="45.93294" lon="5.83908">
        <ele>263</ele>
        <time>2021-09-11T12:20:54.586Z</time>
      </trkpt>
      <trkpt lat="45.93296" lon="5.83901">
        <ele>262</ele>
        <time>2021-09-11T12:20:55.586Z</time>
      </trkpt>
      <trkpt lat="45.93298" lon="5.83893">
        <ele>261</ele>
        <time>2021-09-11T12:20:56.586Z</time>
      </trkpt>
      <trkpt lat="45.933" lon="5.83885">
        <ele>260</ele>
        <time>2021-09-11T12:20:57.586Z</time>
      </trkpt>
      <trkpt lat="45.93303" lon="5.83878">
        <ele>259</ele>
        <time>2021-09-11T12:20:58.586Z</time>
      </trkpt>
      <trkpt lat="45.93305" lon="5.8387">
        <ele>259</ele>
        <time>2021-09-11T12:20:59.586Z</time>
      </trkpt>
      <trkpt lat="45.93307" lon="5.83863">
        <ele>259</ele>
        <time>2021-09-11T12:21:00.586Z</time>
      </trkpt>
      <trkpt lat="45.9331" lon="5.83855">
        <ele>258</ele>
        <time>2021-09-11T12:21:01.586Z</time>
      </trkpt>
      <trkpt lat="45.93312" lon="5.83848">
        <ele>258</ele>
        <time>2021-09-11T12:21:02.586Z</time>
      </trkpt>
      <trkpt lat="45.93315" lon="5.83841">
        <ele>258</ele>
        <time>2021-09-11T12:21:03.587Z</time>
      </trkpt>
      <trkpt lat="45.93317" lon="5.83833">
        <ele>258</ele>
        <time>2021-09-11T12:21:04.587Z</time>
      </trkpt>
      <trkpt lat="45.93319" lon="5.83826">
        <ele>258</ele>
        <time>2021-09-11T12:21:05.587Z</time>
      </trkpt>
      <trkpt lat="45.93322" lon="5.83818">
        <ele>258</ele>
        <time>2021-09-11T12:21:06.587Z</time>
      </trkpt>
      <trkpt lat="45.93324" lon="5.83811">
        <ele>258</ele>
        <time>2021-09-11T12:21:07.586Z</time>
      </trkpt>
      <trkpt lat="45.93326" lon="5.83803">
        <ele>258</ele>
        <time>2021-09-11T12:21:08.587Z</time>
      </trkpt>
      <trkpt lat="45.93328" lon="5.83797">
        <ele>258</ele>
        <time>2021-09-11T12:21:09.587Z</time>
      </trkpt>
      <trkpt lat="45.93331" lon="5.83788">
        <ele>259</ele>
        <time>2021-09-11T12:21:10.586Z</time>
      </trkpt>
      <trkpt lat="45.93334" lon="5.8378">
        <ele>259</ele>
        <time>2021-09-11T12:21:11.587Z</time>
      </trkpt>
      <trkpt lat="45.93336" lon="5.83773">
        <ele>259</ele>
        <time>2021-09-11T12:21:12.587Z</time>
      </trkpt>
      <trkpt lat="45.93338" lon="5.83767">
        <ele>259</ele>
        <time>2021-09-11T12:21:13.587Z</time>
      </trkpt>
      <trkpt lat="45.9334" lon="5.83758">
        <ele>258</ele>
        <time>2021-09-11T12:21:14.587Z</time>
      </trkpt>
      <trkpt lat="45.93343" lon="5.83751">
        <ele>258</ele>
        <time>2021-09-11T12:21:15.587Z</time>
      </trkpt>
      <trkpt lat="45.93345" lon="5.83743">
        <ele>257</ele>
        <time>2021-09-11T12:21:16.587Z</time>
      </trkpt>
      <trkpt lat="45.93347" lon="5.83736">
        <ele>257</ele>
        <time>2021-09-11T12:21:17.587Z</time>
      </trkpt>
      <trkpt lat="45.93348" lon="5.8373">
        <ele>257</ele>
        <time>2021-09-11T12:21:18.587Z</time>
      </trkpt>
      <trkpt lat="45.9335" lon="5.83722">
        <ele>257</ele>
        <time>2021-09-11T12:21:19.587Z</time>
      </trkpt>
      <trkpt lat="45.93352" lon="5.83715">
        <ele>257</ele>
        <time>2021-09-11T12:21:20.587Z</time>
      </trkpt>
      <trkpt lat="45.93353" lon="5.83708">
        <ele>257</ele>
        <time>2021-09-11T12:21:21.586Z</time>
      </trkpt>
      <trkpt lat="45.93355" lon="5.83701">
        <ele>257</ele>
        <time>2021-09-11T12:21:22.586Z</time>
      </trkpt>
      <trkpt lat="45.93358" lon="5.83696">
        <ele>257</ele>
        <time>2021-09-11T12:21:23.587Z</time>
      </trkpt>
      <trkpt lat="45.9336" lon="5.8369">
        <ele>257</ele>
        <time>2021-09-11T12:21:24.587Z</time>
      </trkpt>
      <trkpt lat="45.93361" lon="5.83684">
        <ele>257</ele>
        <time>2021-09-11T12:21:25.587Z</time>
      </trkpt>
      <trkpt lat="45.93362" lon="5.83681">
        <ele>257</ele>
        <time>2021-09-11T12:21:26.587Z</time>
      </trkpt>
      <trkpt lat="45.93362" lon="5.83678">
        <ele>257</ele>
        <time>2021-09-11T12:21:27.586Z</time>
      </trkpt>
      <trkpt lat="45.93361" lon="5.83675">
        <ele>257</ele>
        <time>2021-09-11T12:21:28.587Z</time>
      </trkpt>
      <trkpt lat="45.9336" lon="5.83672">
        <ele>258</ele>
        <time>2021-09-11T12:21:29.587Z</time>
      </trkpt>
      <trkpt lat="45.93357" lon="5.8367">
        <ele>258</ele>
        <time>2021-09-11T12:21:30.587Z</time>
      </trkpt>
      <trkpt lat="45.93354" lon="5.83669">
        <ele>259</ele>
        <time>2021-09-11T12:21:31.587Z</time>
      </trkpt>
      <trkpt lat="45.93351" lon="5.83669">
        <ele>259</ele>
        <time>2021-09-11T12:21:32.587Z</time>
      </trkpt>
      <trkpt lat="45.93347" lon="5.83669">
        <ele>259</ele>
        <time>2021-09-11T12:21:33.587Z</time>
      </trkpt>
      <trkpt lat="45.93344" lon="5.8367">
        <ele>260</ele>
        <time>2021-09-11T12:21:34.587Z</time>
      </trkpt>
      <trkpt lat="45.9334" lon="5.8367">
        <ele>260</ele>
        <time>2021-09-11T12:21:35.587Z</time>
      </trkpt>
      <trkpt lat="45.93337" lon="5.8367">
        <ele>260</ele>
        <time>2021-09-11T12:21:36.586Z</time>
      </trkpt>
      <trkpt lat="45.93333" lon="5.83671">
        <ele>259</ele>
        <time>2021-09-11T12:21:37.587Z</time>
      </trkpt>
      <trkpt lat="45.9333" lon="5.83671">
        <ele>259</ele>
        <time>2021-09-11T12:21:38.587Z</time>
      </trkpt>
      <trkpt lat="45.93326" lon="5.83671">
        <ele>259</ele>
        <time>2021-09-11T12:21:39.587Z</time>
      </trkpt>
      <trkpt lat="45.93323" lon="5.83671">
        <ele>260</ele>
        <time>2021-09-11T12:21:40.587Z</time>
      </trkpt>
      <trkpt lat="45.93319" lon="5.83671">
        <ele>260</ele>
        <time>2021-09-11T12:21:41.587Z</time>
      </trkpt>
      <trkpt lat="45.93316" lon="5.83671">
        <ele>260</ele>
        <time>2021-09-11T12:21:42.587Z</time>
      </trkpt>
      <trkpt lat="45.93313" lon="5.8367">
        <ele>261</ele>
        <time>2021-09-11T12:21:43.587Z</time>
      </trkpt>
      <trkpt lat="45.93309" lon="5.83669">
        <ele>261</ele>
        <time>2021-09-11T12:21:44.586Z</time>
      </trkpt>
      <trkpt lat="45.93306" lon="5.83668">
        <ele>262</ele>
        <time>2021-09-11T12:21:45.587Z</time>
      </trkpt>
      <trkpt lat="45.93302" lon="5.83666">
        <ele>262</ele>
        <time>2021-09-11T12:21:46.587Z</time>
      </trkpt>
      <trkpt lat="45.933" lon="5.83666">
        <ele>262</ele>
        <time>2021-09-11T12:21:47.587Z</time>
      </trkpt>
      <trkpt lat="45.93296" lon="5.83664">
        <ele>262</ele>
        <time>2021-09-11T12:21:48.587Z</time>
      </trkpt>
      <trkpt lat="45.93292" lon="5.83662">
        <ele>262</ele>
        <time>2021-09-11T12:21:49.586Z</time>
      </trkpt>
      <trkpt lat="45.93289" lon="5.83661">
        <ele>262</ele>
        <time>2021-09-11T12:21:50.586Z</time>
      </trkpt>
      <trkpt lat="45.93286" lon="5.83659">
        <ele>262</ele>
        <time>2021-09-11T12:21:51.587Z</time>
      </trkpt>
      <trkpt lat="45.93283" lon="5.83657">
        <ele>262</ele>
        <time>2021-09-11T12:21:52.587Z</time>
      </trkpt>
      <trkpt lat="45.93279" lon="5.83655">
        <ele>262</ele>
        <time>2021-09-11T12:21:53.587Z</time>
      </trkpt>
      <trkpt lat="45.93276" lon="5.83653">
        <ele>262</ele>
        <time>2021-09-11T12:21:54.586Z</time>
      </trkpt>
      <trkpt lat="45.93272" lon="5.83651">
        <ele>263</ele>
        <time>2021-09-11T12:21:55.587Z</time>
      </trkpt>
      <trkpt lat="45.93269" lon="5.8365">
        <ele>263</ele>
        <time>2021-09-11T12:21:56.587Z</time>
      </trkpt>
      <trkpt lat="45.93266" lon="5.83648">
        <ele>263</ele>
        <time>2021-09-11T12:21:57.587Z</time>
      </trkpt>
      <trkpt lat="45.93262" lon="5.83646">
        <ele>263</ele>
        <time>2021-09-11T12:21:58.586Z</time>
      </trkpt>
      <trkpt lat="45.93258" lon="5.83644">
        <ele>263</ele>
        <time>2021-09-11T12:21:59.586Z</time>
      </trkpt>
      <trkpt lat="45.93254" lon="5.83642">
        <ele>263</ele>
        <time>2021-09-11T12:22:00.587Z</time>
      </trkpt>
      <trkpt lat="45.93251" lon="5.8364">
        <ele>263</ele>
        <time>2021-09-11T12:22:01.587Z</time>
      </trkpt>
      <trkpt lat="45.93247" lon="5.83637">
        <ele>263</ele>
        <time>2021-09-11T12:22:02.586Z</time>
      </trkpt>
      <trkpt lat="45.93243" lon="5.83635">
        <ele>263</ele>
        <time>2021-09-11T12:22:03.586Z</time>
      </trkpt>
      <trkpt lat="45.93239" lon="5.83633">
        <ele>264</ele>
        <time>2021-09-11T12:22:04.586Z</time>
      </trkpt>
      <trkpt lat="45.93235" lon="5.83631">
        <ele>264</ele>
        <time>2021-09-11T12:22:05.587Z</time>
      </trkpt>
      <trkpt lat="45.93232" lon="5.83629">
        <ele>264</ele>
        <time>2021-09-11T12:22:06.587Z</time>
      </trkpt>
      <trkpt lat="45.93228" lon="5.83627">
        <ele>264</ele>
        <time>2021-09-11T12:22:07.587Z</time>
      </trkpt>
      <trkpt lat="45.93224" lon="5.83625">
        <ele>264</ele>
        <time>2021-09-11T12:22:08.586Z</time>
      </trkpt>
      <trkpt lat="45.9322" lon="5.83622">
        <ele>264</ele>
        <time>2021-09-11T12:22:09.587Z</time>
      </trkpt>
      <trkpt lat="45.93216" lon="5.8362">
        <ele>264</ele>
        <time>2021-09-11T12:22:10.587Z</time>
      </trkpt>
      <trkpt lat="45.93212" lon="5.83618">
        <ele>264</ele>
        <time>2021-09-11T12:22:11.587Z</time>
      </trkpt>
      <trkpt lat="45.93208" lon="5.83614">
        <ele>264</ele>
        <time>2021-09-11T12:22:12.587Z</time>
      </trkpt>
      <trkpt lat="45.93205" lon="5.8361">
        <ele>264</ele>
        <time>2021-09-11T12:22:13.587Z</time>
      </trkpt>
      <trkpt lat="45.93202" lon="5.83606">
        <ele>264</ele>
        <time>2021-09-11T12:22:14.587Z</time>
      </trkpt>
      <trkpt lat="45.932" lon="5.83602">
        <ele>265</ele>
        <time>2021-09-11T12:22:15.586Z</time>
      </trkpt>
      <trkpt lat="45.93198" lon="5.83597">
        <ele>265</ele>
        <time>2021-09-11T12:22:16.587Z</time>
      </trkpt>
      <trkpt lat="45.93196" lon="5.83593">
        <ele>266</ele>
        <time>2021-09-11T12:22:17.587Z</time>
      </trkpt>
      <trkpt lat="45.93195" lon="5.83588">
        <ele>267</ele>
        <time>2021-09-11T12:22:18.587Z</time>
      </trkpt>
      <trkpt lat="45.93194" lon="5.83583">
        <ele>268</ele>
        <time>2021-09-11T12:22:19.587Z</time>
      </trkpt>
      <trkpt lat="45.93193" lon="5.83579">
        <ele>268</ele>
        <time>2021-09-11T12:22:20.587Z</time>
      </trkpt>
      <trkpt lat="45.93193" lon="5.83574">
        <ele>269</ele>
        <time>2021-09-11T12:22:21.587Z</time>
      </trkpt>
      <trkpt lat="45.93192" lon="5.8357">
        <ele>270</ele>
        <time>2021-09-11T12:22:22.586Z</time>
      </trkpt>
      <trkpt lat="45.93192" lon="5.83565">
        <ele>270</ele>
        <time>2021-09-11T12:22:23.587Z</time>
      </trkpt>
      <trkpt lat="45.93192" lon="5.83562">
        <ele>271</ele>
        <time>2021-09-11T12:22:24.587Z</time>
      </trkpt>
      <trkpt lat="45.93192" lon="5.83559">
        <ele>272</ele>
        <time>2021-09-11T12:22:41.687Z</time>
      </trkpt>
      <trkpt lat="45.93192" lon="5.83554">
        <ele>272</ele>
        <time>2021-09-11T12:22:42.688Z</time>
      </trkpt>
      <trkpt lat="45.93192" lon="5.83551">
        <ele>272</ele>
        <time>2021-09-11T12:22:43.687Z</time>
      </trkpt>
      <trkpt lat="45.93192" lon="5.83548">
        <ele>272</ele>
        <time>2021-09-11T12:22:44.687Z</time>
      </trkpt>
      <trkpt lat="45.93192" lon="5.83546">
        <ele>272</ele>
        <time>2021-09-11T12:22:45.687Z</time>
      </trkpt>
      <trkpt lat="45.93192" lon="5.83543">
        <ele>272</ele>
        <time>2021-09-11T12:22:46.687Z</time>
      </trkpt>
      <trkpt lat="45.93192" lon="5.83538">
        <ele>272</ele>
        <time>2021-09-11T12:22:47.688Z</time>
      </trkpt>
      <trkpt lat="45.93192" lon="5.83535">
        <ele>272</ele>
        <time>2021-09-11T12:22:48.687Z</time>
      </trkpt>
      <trkpt lat="45.93192" lon="5.83531">
        <ele>272</ele>
        <time>2021-09-11T12:22:49.688Z</time>
      </trkpt>
      <trkpt lat="45.93192" lon="5.83528">
        <ele>272</ele>
        <time>2021-09-11T12:22:50.688Z</time>
      </trkpt>
      <trkpt lat="45.93192" lon="5.83525">
        <ele>272</ele>
        <time>2021-09-11T12:22:51.687Z</time>
      </trkpt>
      <trkpt lat="45.93192" lon="5.83522">
        <ele>272</ele>
        <time>2021-09-11T12:22:52.688Z</time>
      </trkpt>
      <trkpt lat="45.93192" lon="5.83518">
        <ele>272</ele>
        <time>2021-09-11T12:22:53.688Z</time>
      </trkpt>
      <trkpt lat="45.93192" lon="5.83515">
        <ele>272</ele>
        <time>2021-09-11T12:22:54.688Z</time>
      </trkpt>
      <trkpt lat="45.93192" lon="5.83513">
        <ele>272</ele>
        <time>2021-09-11T12:22:55.688Z</time>
      </trkpt>
      <trkpt lat="45.93192" lon="5.83509">
        <ele>272</ele>
        <time>2021-09-11T12:22:56.687Z</time>
      </trkpt>
      <trkpt lat="45.93192" lon="5.83507">
        <ele>272</ele>
        <time>2021-09-11T12:22:57.688Z</time>
      </trkpt>
      <trkpt lat="45.93192" lon="5.83503">
        <ele>272</ele>
        <time>2021-09-11T12:22:58.688Z</time>
      </trkpt>
      <trkpt lat="45.93192" lon="5.83499">
        <ele>273</ele>
        <time>2021-09-11T12:22:59.688Z</time>
      </trkpt>
      <trkpt lat="45.93191" lon="5.83497">
        <ele>273</ele>
        <time>2021-09-11T12:23:00.687Z</time>
      </trkpt>
      <trkpt lat="45.93191" lon="5.83494">
        <ele>274</ele>
        <time>2021-09-11T12:23:01.688Z</time>
      </trkpt>
      <trkpt lat="45.93191" lon="5.8349">
        <ele>274</ele>
        <time>2021-09-11T12:23:02.688Z</time>
      </trkpt>
      <trkpt lat="45.9319" lon="5.83487">
        <ele>275</ele>
        <time>2021-09-11T12:23:03.688Z</time>
      </trkpt>
      <trkpt lat="45.9319" lon="5.83484">
        <ele>276</ele>
        <time>2021-09-11T12:23:04.688Z</time>
      </trkpt>
      <trkpt lat="45.93189" lon="5.83481">
        <ele>277</ele>
        <time>2021-09-11T12:23:05.688Z</time>
      </trkpt>
      <trkpt lat="45.93189" lon="5.83478">
        <ele>278</ele>
        <time>2021-09-11T12:23:06.688Z</time>
      </trkpt>
      <trkpt lat="45.93189" lon="5.83474">
        <ele>278</ele>
        <time>2021-09-11T12:23:07.688Z</time>
      </trkpt>
      <trkpt lat="45.93189" lon="5.83471">
        <ele>279</ele>
        <time>2021-09-11T12:23:08.687Z</time>
      </trkpt>
      <trkpt lat="45.93189" lon="5.83468">
        <ele>280</ele>
        <time>2021-09-11T12:23:09.688Z</time>
      </trkpt>
      <trkpt lat="45.93189" lon="5.83465">
        <ele>281</ele>
        <time>2021-09-11T12:23:27.832Z</time>
      </trkpt>
      <trkpt lat="45.93189" lon="5.83462">
        <ele>281</ele>
        <time>2021-09-11T12:23:28.831Z</time>
      </trkpt>
      <trkpt lat="45.93189" lon="5.83459">
        <ele>281</ele>
        <time>2021-09-11T12:23:29.832Z</time>
      </trkpt>
      <trkpt lat="45.93189" lon="5.83455">
        <ele>281</ele>
        <time>2021-09-11T12:23:30.831Z</time>
      </trkpt>
      <trkpt lat="45.9319" lon="5.83451">
        <ele>281</ele>
        <time>2021-09-11T12:23:31.832Z</time>
      </trkpt>
      <trkpt lat="45.93191" lon="5.83448">
        <ele>281</ele>
        <time>2021-09-11T12:23:32.832Z</time>
      </trkpt>
      <trkpt lat="45.93191" lon="5.83443">
        <ele>281</ele>
        <time>2021-09-11T12:23:33.831Z</time>
      </trkpt>
      <trkpt lat="45.93191" lon="5.83439">
        <ele>281</ele>
        <time>2021-09-11T12:23:34.832Z</time>
      </trkpt>
      <trkpt lat="45.93192" lon="5.83436">
        <ele>281</ele>
        <time>2021-09-11T12:23:35.831Z</time>
      </trkpt>
      <trkpt lat="45.93192" lon="5.83432">
        <ele>280</ele>
        <time>2021-09-11T12:23:36.831Z</time>
      </trkpt>
      <trkpt lat="45.93193" lon="5.83429">
        <ele>280</ele>
        <time>2021-09-11T12:23:37.832Z</time>
      </trkpt>
      <trkpt lat="45.93194" lon="5.83425">
        <ele>279</ele>
        <time>2021-09-11T12:23:38.831Z</time>
      </trkpt>
      <trkpt lat="45.93194" lon="5.83422">
        <ele>279</ele>
        <time>2021-09-11T12:23:39.832Z</time>
      </trkpt>
      <trkpt lat="45.93194" lon="5.83419">
        <ele>278</ele>
        <time>2021-09-11T12:23:40.832Z</time>
      </trkpt>
      <trkpt lat="45.93195" lon="5.83416">
        <ele>278</ele>
        <time>2021-09-11T12:23:41.832Z</time>
      </trkpt>
      <trkpt lat="45.93195" lon="5.83413">
        <ele>278</ele>
        <time>2021-09-11T12:23:42.832Z</time>
      </trkpt>
      <trkpt lat="45.93195" lon="5.8341">
        <ele>277</ele>
        <time>2021-09-11T12:23:43.831Z</time>
      </trkpt>
      <trkpt lat="45.93195" lon="5.83407">
        <ele>277</ele>
        <time>2021-09-11T12:23:44.832Z</time>
      </trkpt>
      <trkpt lat="45.93195" lon="5.83403">
        <ele>277</ele>
        <time>2021-09-11T12:23:45.832Z</time>
      </trkpt>
      <trkpt lat="45.93196" lon="5.83401">
        <ele>278</ele>
        <time>2021-09-11T12:23:46.831Z</time>
      </trkpt>
      <trkpt lat="45.93196" lon="5.83396">
        <ele>278</ele>
        <time>2021-09-11T12:23:47.832Z</time>
      </trkpt>
      <trkpt lat="45.93197" lon="5.83392">
        <ele>278</ele>
        <time>2021-09-11T12:23:48.832Z</time>
      </trkpt>
      <trkpt lat="45.93197" lon="5.83389">
        <ele>279</ele>
        <time>2021-09-11T12:23:49.832Z</time>
      </trkpt>
      <trkpt lat="45.93198" lon="5.83385">
        <ele>280</ele>
        <time>2021-09-11T12:23:50.831Z</time>
      </trkpt>
      <trkpt lat="45.93198" lon="5.83382">
        <ele>281</ele>
        <time>2021-09-11T12:23:51.832Z</time>
      </trkpt>
      <trkpt lat="45.93198" lon="5.83379">
        <ele>281</ele>
        <time>2021-09-11T12:23:52.832Z</time>
      </trkpt>
      <trkpt lat="45.93198" lon="5.83377">
        <ele>282</ele>
        <time>2021-09-11T12:23:53.832Z</time>
      </trkpt>
      <trkpt lat="45.93199" lon="5.83373">
        <ele>283</ele>
        <time>2021-09-11T12:23:54.832Z</time>
      </trkpt>
      <trkpt lat="45.932" lon="5.8337">
        <ele>283</ele>
        <time>2021-09-11T12:23:55.832Z</time>
      </trkpt>
      <trkpt lat="45.93199" lon="5.83367">
        <ele>283</ele>
        <time>2021-09-11T12:23:56.832Z</time>
      </trkpt>
      <trkpt lat="45.93199" lon="5.83365">
        <ele>283</ele>
        <time>2021-09-11T12:23:57.832Z</time>
      </trkpt>
      <trkpt lat="45.932" lon="5.83362">
        <ele>283</ele>
        <time>2021-09-11T12:23:58.832Z</time>
      </trkpt>
      <trkpt lat="45.932" lon="5.83359">
        <ele>283</ele>
        <time>2021-09-11T12:23:59.832Z</time>
      </trkpt>
      <trkpt lat="45.93199" lon="5.83355">
        <ele>283</ele>
        <time>2021-09-11T12:24:00.831Z</time>
      </trkpt>
      <trkpt lat="45.93199" lon="5.83353">
        <ele>283</ele>
        <time>2021-09-11T12:24:01.832Z</time>
      </trkpt>
      <trkpt lat="45.93199" lon="5.83349">
        <ele>283</ele>
        <time>2021-09-11T12:24:02.832Z</time>
      </trkpt>
      <trkpt lat="45.932" lon="5.83346">
        <ele>283</ele>
        <time>2021-09-11T12:24:03.831Z</time>
      </trkpt>
      <trkpt lat="45.932" lon="5.83342">
        <ele>283</ele>
        <time>2021-09-11T12:24:04.831Z</time>
      </trkpt>
      <trkpt lat="45.932" lon="5.83339">
        <ele>283</ele>
        <time>2021-09-11T12:24:05.832Z</time>
      </trkpt>
      <trkpt lat="45.93201" lon="5.83334">
        <ele>284</ele>
        <time>2021-09-11T12:24:06.832Z</time>
      </trkpt>
      <trkpt lat="45.93202" lon="5.8333">
        <ele>284</ele>
        <time>2021-09-11T12:24:07.832Z</time>
      </trkpt>
      <trkpt lat="45.93202" lon="5.83326">
        <ele>284</ele>
        <time>2021-09-11T12:24:08.832Z</time>
      </trkpt>
      <trkpt lat="45.93203" lon="5.83323">
        <ele>285</ele>
        <time>2021-09-11T12:24:09.832Z</time>
      </trkpt>
      <trkpt lat="45.93203" lon="5.83319">
        <ele>285</ele>
        <time>2021-09-11T12:24:10.832Z</time>
      </trkpt>
      <trkpt lat="45.93204" lon="5.83316">
        <ele>286</ele>
        <time>2021-09-11T12:24:11.832Z</time>
      </trkpt>
      <trkpt lat="45.93204" lon="5.83313">
        <ele>286</ele>
        <time>2021-09-11T12:24:12.832Z</time>
      </trkpt>
      <trkpt lat="45.93204" lon="5.8331">
        <ele>286</ele>
        <time>2021-09-11T12:24:13.832Z</time>
      </trkpt>
      <trkpt lat="45.93204" lon="5.83307">
        <ele>286</ele>
        <time>2021-09-11T12:24:14.832Z</time>
      </trkpt>
      <trkpt lat="45.93205" lon="5.83304">
        <ele>286</ele>
        <time>2021-09-11T12:24:15.832Z</time>
      </trkpt>
      <trkpt lat="45.93205" lon="5.833">
        <ele>285</ele>
        <time>2021-09-11T12:24:16.832Z</time>
      </trkpt>
      <trkpt lat="45.93206" lon="5.83297">
        <ele>285</ele>
        <time>2021-09-11T12:24:17.832Z</time>
      </trkpt>
      <trkpt lat="45.93206" lon="5.83294">
        <ele>285</ele>
        <time>2021-09-11T12:24:18.832Z</time>
      </trkpt>
      <trkpt lat="45.93207" lon="5.83291">
        <ele>285</ele>
        <time>2021-09-11T12:24:19.831Z</time>
      </trkpt>
      <trkpt lat="45.93208" lon="5.83288">
        <ele>285</ele>
        <time>2021-09-11T12:24:20.832Z</time>
      </trkpt>
      <trkpt lat="45.93209" lon="5.83285">
        <ele>285</ele>
        <time>2021-09-11T12:24:21.832Z</time>
      </trkpt>
      <trkpt lat="45.9321" lon="5.83282">
        <ele>285</ele>
        <time>2021-09-11T12:24:22.831Z</time>
      </trkpt>
      <trkpt lat="45.93211" lon="5.83279">
        <ele>285</ele>
        <time>2021-09-11T12:24:23.831Z</time>
      </trkpt>
      <trkpt lat="45.93212" lon="5.83277">
        <ele>285</ele>
        <time>2021-09-11T12:24:24.832Z</time>
      </trkpt>
      <trkpt lat="45.93214" lon="5.83274">
        <ele>284</ele>
        <time>2021-09-11T12:24:25.831Z</time>
      </trkpt>
      <trkpt lat="45.93215" lon="5.83272">
        <ele>284</ele>
        <time>2021-09-11T12:24:26.832Z</time>
      </trkpt>
      <trkpt lat="45.93217" lon="5.83269">
        <ele>284</ele>
        <time>2021-09-11T12:24:27.832Z</time>
      </trkpt>
      <trkpt lat="45.93218" lon="5.83266">
        <ele>285</ele>
        <time>2021-09-11T12:24:28.831Z</time>
      </trkpt>
      <trkpt lat="45.93219" lon="5.83263">
        <ele>285</ele>
        <time>2021-09-11T12:24:29.832Z</time>
      </trkpt>
      <trkpt lat="45.93221" lon="5.8326">
        <ele>285</ele>
        <time>2021-09-11T12:24:30.832Z</time>
      </trkpt>
      <trkpt lat="45.93223" lon="5.83257">
        <ele>284</ele>
        <time>2021-09-11T12:24:31.832Z</time>
      </trkpt>
      <trkpt lat="45.93224" lon="5.83254">
        <ele>284</ele>
        <time>2021-09-11T12:24:32.831Z</time>
      </trkpt>
      <trkpt lat="45.93225" lon="5.83252">
        <ele>284</ele>
        <time>2021-09-11T12:24:33.831Z</time>
      </trkpt>
      <trkpt lat="45.93227" lon="5.8325">
        <ele>284</ele>
        <time>2021-09-11T12:24:34.832Z</time>
      </trkpt>
      <trkpt lat="45.93228" lon="5.83247">
        <ele>283</ele>
        <time>2021-09-11T12:24:35.832Z</time>
      </trkpt>
      <trkpt lat="45.9323" lon="5.83245">
        <ele>282</ele>
        <time>2021-09-11T12:24:36.831Z</time>
      </trkpt>
      <trkpt lat="45.93232" lon="5.83242">
        <ele>282</ele>
        <time>2021-09-11T12:24:37.832Z</time>
      </trkpt>
      <trkpt lat="45.93235" lon="5.8324">
        <ele>282</ele>
        <time>2021-09-11T12:24:38.832Z</time>
      </trkpt>
      <trkpt lat="45.93236" lon="5.83238">
        <ele>282</ele>
        <time>2021-09-11T12:24:39.832Z</time>
      </trkpt>
      <trkpt lat="45.93238" lon="5.83235">
        <ele>282</ele>
        <time>2021-09-11T12:24:40.832Z</time>
      </trkpt>
      <trkpt lat="45.93239" lon="5.83234">
        <ele>282</ele>
        <time>2021-09-11T12:24:41.832Z</time>
      </trkpt>
      <trkpt lat="45.9324" lon="5.83231">
        <ele>282</ele>
        <time>2021-09-11T12:24:42.832Z</time>
      </trkpt>
      <trkpt lat="45.93241" lon="5.83229">
        <ele>282</ele>
        <time>2021-09-11T12:24:43.832Z</time>
      </trkpt>
      <trkpt lat="45.93243" lon="5.83226">
        <ele>281</ele>
        <time>2021-09-11T12:24:44.832Z</time>
      </trkpt>
      <trkpt lat="45.93244" lon="5.83224">
        <ele>281</ele>
        <time>2021-09-11T12:24:45.831Z</time>
      </trkpt>
      <trkpt lat="45.93246" lon="5.83222">
        <ele>280</ele>
        <time>2021-09-11T12:24:46.831Z</time>
      </trkpt>
      <trkpt lat="45.93247" lon="5.8322">
        <ele>280</ele>
        <time>2021-09-11T12:24:47.832Z</time>
      </trkpt>
      <trkpt lat="45.93249" lon="5.83218">
        <ele>279</ele>
        <time>2021-09-11T12:24:48.832Z</time>
      </trkpt>
      <trkpt lat="45.9325" lon="5.83216">
        <ele>279</ele>
        <time>2021-09-11T12:24:49.832Z</time>
      </trkpt>
      <trkpt lat="45.93252" lon="5.83213">
        <ele>279</ele>
        <time>2021-09-11T12:24:50.832Z</time>
      </trkpt>
      <trkpt lat="45.93254" lon="5.8321">
        <ele>278</ele>
        <time>2021-09-11T12:24:51.831Z</time>
      </trkpt>
      <trkpt lat="45.93255" lon="5.83208">
        <ele>278</ele>
        <time>2021-09-11T12:24:52.832Z</time>
      </trkpt>
      <trkpt lat="45.93256" lon="5.83206">
        <ele>278</ele>
        <time>2021-09-11T12:24:53.832Z</time>
      </trkpt>
      <trkpt lat="45.93257" lon="5.83202">
        <ele>278</ele>
        <time>2021-09-11T12:24:54.832Z</time>
      </trkpt>
      <trkpt lat="45.93259" lon="5.832">
        <ele>278</ele>
        <time>2021-09-11T12:24:55.832Z</time>
      </trkpt>
      <trkpt lat="45.9326" lon="5.83198">
        <ele>278</ele>
        <time>2021-09-11T12:24:56.832Z</time>
      </trkpt>
      <trkpt lat="45.93261" lon="5.83196">
        <ele>278</ele>
        <time>2021-09-11T12:24:57.832Z</time>
      </trkpt>
      <trkpt lat="45.93263" lon="5.83193">
        <ele>278</ele>
        <time>2021-09-11T12:24:58.832Z</time>
      </trkpt>
      <trkpt lat="45.93264" lon="5.83191">
        <ele>278</ele>
        <time>2021-09-11T12:24:59.832Z</time>
      </trkpt>
      <trkpt lat="45.93266" lon="5.83189">
        <ele>278</ele>
        <time>2021-09-11T12:25:00.832Z</time>
      </trkpt>
      <trkpt lat="45.93268" lon="5.83186">
        <ele>278</ele>
        <time>2021-09-11T12:25:01.832Z</time>
      </trkpt>
      <trkpt lat="45.93269" lon="5.83184">
        <ele>279</ele>
        <time>2021-09-11T12:25:02.832Z</time>
      </trkpt>
      <trkpt lat="45.93271" lon="5.83181">
        <ele>279</ele>
        <time>2021-09-11T12:25:03.832Z</time>
      </trkpt>
      <trkpt lat="45.93273" lon="5.83179">
        <ele>280</ele>
        <time>2021-09-11T12:25:04.832Z</time>
      </trkpt>
      <trkpt lat="45.93275" lon="5.83176">
        <ele>281</ele>
        <time>2021-09-11T12:25:05.831Z</time>
      </trkpt>
      <trkpt lat="45.93277" lon="5.83172">
        <ele>281</ele>
        <time>2021-09-11T12:25:06.832Z</time>
      </trkpt>
      <trkpt lat="45.93278" lon="5.8317">
        <ele>282</ele>
        <time>2021-09-11T12:25:07.832Z</time>
      </trkpt>
      <trkpt lat="45.9328" lon="5.83167">
        <ele>282</ele>
        <time>2021-09-11T12:25:08.832Z</time>
      </trkpt>
      <trkpt lat="45.93281" lon="5.83165">
        <ele>283</ele>
        <time>2021-09-11T12:25:09.831Z</time>
      </trkpt>
      <trkpt lat="45.93283" lon="5.83161">
        <ele>283</ele>
        <time>2021-09-11T12:25:10.832Z</time>
      </trkpt>
      <trkpt lat="45.93284" lon="5.83159">
        <ele>284</ele>
        <time>2021-09-11T12:25:11.832Z</time>
      </trkpt>
      <trkpt lat="45.93286" lon="5.83156">
        <ele>285</ele>
        <time>2021-09-11T12:25:12.832Z</time>
      </trkpt>
      <trkpt lat="45.93287" lon="5.83153">
        <ele>285</ele>
        <time>2021-09-11T12:25:13.831Z</time>
      </trkpt>
      <trkpt lat="45.93289" lon="5.8315">
        <ele>285</ele>
        <time>2021-09-11T12:25:14.832Z</time>
      </trkpt>
      <trkpt lat="45.93289" lon="5.83148">
        <ele>285</ele>
        <time>2021-09-11T12:25:15.832Z</time>
      </trkpt>
      <trkpt lat="45.9329" lon="5.83144">
        <ele>285</ele>
        <time>2021-09-11T12:25:16.832Z</time>
      </trkpt>
      <trkpt lat="45.93291" lon="5.83142">
        <ele>285</ele>
        <time>2021-09-11T12:25:17.832Z</time>
      </trkpt>
      <trkpt lat="45.93291" lon="5.83138">
        <ele>286</ele>
        <time>2021-09-11T12:25:18.832Z</time>
      </trkpt>
      <trkpt lat="45.93292" lon="5.83135">
        <ele>286</ele>
        <time>2021-09-11T12:25:19.832Z</time>
      </trkpt>
      <trkpt lat="45.93292" lon="5.83132">
        <ele>287</ele>
        <time>2021-09-11T12:25:20.832Z</time>
      </trkpt>
      <trkpt lat="45.93291" lon="5.83129">
        <ele>287</ele>
        <time>2021-09-11T12:25:21.831Z</time>
      </trkpt>
      <trkpt lat="45.93291" lon="5.83126">
        <ele>287</ele>
        <time>2021-09-11T12:25:22.831Z</time>
      </trkpt>
      <trkpt lat="45.9329" lon="5.83122">
        <ele>287</ele>
        <time>2021-09-11T12:25:23.832Z</time>
      </trkpt>
      <trkpt lat="45.9329" lon="5.83119">
        <ele>286</ele>
        <time>2021-09-11T12:25:24.831Z</time>
      </trkpt>
      <trkpt lat="45.93289" lon="5.83116">
        <ele>286</ele>
        <time>2021-09-11T12:25:25.832Z</time>
      </trkpt>
      <trkpt lat="45.93287" lon="5.83112">
        <ele>286</ele>
        <time>2021-09-11T12:25:26.831Z</time>
      </trkpt>
      <trkpt lat="45.93286" lon="5.83111">
        <ele>287</ele>
        <time>2021-09-11T12:25:27.831Z</time>
      </trkpt>
      <trkpt lat="45.93284" lon="5.83108">
        <ele>287</ele>
        <time>2021-09-11T12:25:28.832Z</time>
      </trkpt>
      <trkpt lat="45.93282" lon="5.83105">
        <ele>287</ele>
        <time>2021-09-11T12:25:29.831Z</time>
      </trkpt>
      <trkpt lat="45.9328" lon="5.83103">
        <ele>288</ele>
        <time>2021-09-11T12:25:30.832Z</time>
      </trkpt>
      <trkpt lat="45.93278" lon="5.83101">
        <ele>288</ele>
        <time>2021-09-11T12:25:31.832Z</time>
      </trkpt>
      <trkpt lat="45.93276" lon="5.831">
        <ele>288</ele>
        <time>2021-09-11T12:25:32.832Z</time>
      </trkpt>
      <trkpt lat="45.93273" lon="5.83098">
        <ele>288</ele>
        <time>2021-09-11T12:25:33.831Z</time>
      </trkpt>
      <trkpt lat="45.9327" lon="5.83097">
        <ele>289</ele>
        <time>2021-09-11T12:25:34.832Z</time>
      </trkpt>
      <trkpt lat="45.93268" lon="5.83096">
        <ele>289</ele>
        <time>2021-09-11T12:25:35.832Z</time>
      </trkpt>
      <trkpt lat="45.93265" lon="5.83096">
        <ele>289</ele>
        <time>2021-09-11T12:25:36.832Z</time>
      </trkpt>
      <trkpt lat="45.93263" lon="5.83096">
        <ele>290</ele>
        <time>2021-09-11T12:25:37.832Z</time>
      </trkpt>
      <trkpt lat="45.9326" lon="5.83096">
        <ele>290</ele>
        <time>2021-09-11T12:25:38.832Z</time>
      </trkpt>
      <trkpt lat="45.93258" lon="5.83096">
        <ele>290</ele>
        <time>2021-09-11T12:25:39.832Z</time>
      </trkpt>
      <trkpt lat="45.93255" lon="5.83096">
        <ele>290</ele>
        <time>2021-09-11T12:25:40.832Z</time>
      </trkpt>
      <trkpt lat="45.93253" lon="5.83096">
        <ele>290</ele>
        <time>2021-09-11T12:25:41.832Z</time>
      </trkpt>
      <trkpt lat="45.9325" lon="5.83096">
        <ele>290</ele>
        <time>2021-09-11T12:25:42.832Z</time>
      </trkpt>
      <trkpt lat="45.93247" lon="5.83095">
        <ele>290</ele>
        <time>2021-09-11T12:25:43.831Z</time>
      </trkpt>
      <trkpt lat="45.93245" lon="5.83095">
        <ele>291</ele>
        <time>2021-09-11T12:25:44.832Z</time>
      </trkpt>
      <trkpt lat="45.93242" lon="5.83095">
        <ele>291</ele>
        <time>2021-09-11T12:25:45.831Z</time>
      </trkpt>
      <trkpt lat="45.9324" lon="5.83094">
        <ele>291</ele>
        <time>2021-09-11T12:25:46.832Z</time>
      </trkpt>
      <trkpt lat="45.93238" lon="5.83093">
        <ele>292</ele>
        <time>2021-09-11T12:25:47.832Z</time>
      </trkpt>
      <trkpt lat="45.93236" lon="5.83092">
        <ele>292</ele>
        <time>2021-09-11T12:25:48.832Z</time>
      </trkpt>
      <trkpt lat="45.93234" lon="5.83091">
        <ele>293</ele>
        <time>2021-09-11T12:25:49.832Z</time>
      </trkpt>
      <trkpt lat="45.93232" lon="5.83089">
        <ele>293</ele>
        <time>2021-09-11T12:25:50.832Z</time>
      </trkpt>
      <trkpt lat="45.9323" lon="5.83088">
        <ele>293</ele>
        <time>2021-09-11T12:25:51.832Z</time>
      </trkpt>
      <trkpt lat="45.93228" lon="5.83086">
        <ele>293</ele>
        <time>2021-09-11T12:25:52.831Z</time>
      </trkpt>
      <trkpt lat="45.93226" lon="5.83084">
        <ele>293</ele>
        <time>2021-09-11T12:25:53.832Z</time>
      </trkpt>
      <trkpt lat="45.93225" lon="5.83082">
        <ele>293</ele>
        <time>2021-09-11T12:25:54.832Z</time>
      </trkpt>
      <trkpt lat="45.93223" lon="5.83079">
        <ele>293</ele>
        <time>2021-09-11T12:25:55.832Z</time>
      </trkpt>
      <trkpt lat="45.93221" lon="5.83076">
        <ele>294</ele>
        <time>2021-09-11T12:25:56.831Z</time>
      </trkpt>
      <trkpt lat="45.93219" lon="5.83074">
        <ele>294</ele>
        <time>2021-09-11T12:25:57.832Z</time>
      </trkpt>
      <trkpt lat="45.93218" lon="5.83072">
        <ele>295</ele>
        <time>2021-09-11T12:25:58.831Z</time>
      </trkpt>
      <trkpt lat="45.93217" lon="5.83069">
        <ele>295</ele>
        <time>2021-09-11T12:25:59.832Z</time>
      </trkpt>
      <trkpt lat="45.93215" lon="5.83066">
        <ele>295</ele>
        <time>2021-09-11T12:26:00.832Z</time>
      </trkpt>
      <trkpt lat="45.93214" lon="5.83063">
        <ele>296</ele>
        <time>2021-09-11T12:26:01.831Z</time>
      </trkpt>
      <trkpt lat="45.93213" lon="5.83059">
        <ele>296</ele>
        <time>2021-09-11T12:26:02.832Z</time>
      </trkpt>
      <trkpt lat="45.93212" lon="5.83056">
        <ele>297</ele>
        <time>2021-09-11T12:26:03.832Z</time>
      </trkpt>
      <trkpt lat="45.93211" lon="5.83053">
        <ele>297</ele>
        <time>2021-09-11T12:26:04.832Z</time>
      </trkpt>
      <trkpt lat="45.9321" lon="5.83049">
        <ele>298</ele>
        <time>2021-09-11T12:26:05.831Z</time>
      </trkpt>
      <trkpt lat="45.93209" lon="5.83046">
        <ele>298</ele>
        <time>2021-09-11T12:26:06.832Z</time>
      </trkpt>
      <trkpt lat="45.93208" lon="5.83043">
        <ele>299</ele>
        <time>2021-09-11T12:26:07.832Z</time>
      </trkpt>
      <trkpt lat="45.93208" lon="5.83039">
        <ele>299</ele>
        <time>2021-09-11T12:26:08.832Z</time>
      </trkpt>
      <trkpt lat="45.93208" lon="5.83035">
        <ele>299</ele>
        <time>2021-09-11T12:26:09.831Z</time>
      </trkpt>
      <trkpt lat="45.93207" lon="5.83032">
        <ele>299</ele>
        <time>2021-09-11T12:26:10.832Z</time>
      </trkpt>
      <trkpt lat="45.93207" lon="5.83028">
        <ele>299</ele>
        <time>2021-09-11T12:26:11.832Z</time>
      </trkpt>
      <trkpt lat="45.93206" lon="5.83024">
        <ele>300</ele>
        <time>2021-09-11T12:26:12.832Z</time>
      </trkpt>
      <trkpt lat="45.93206" lon="5.83021">
        <ele>300</ele>
        <time>2021-09-11T12:26:13.831Z</time>
      </trkpt>
      <trkpt lat="45.93205" lon="5.83018">
        <ele>300</ele>
        <time>2021-09-11T12:26:14.831Z</time>
      </trkpt>
      <trkpt lat="45.93205" lon="5.83014">
        <ele>300</ele>
        <time>2021-09-11T12:26:15.831Z</time>
      </trkpt>
      <trkpt lat="45.93204" lon="5.83011">
        <ele>300</ele>
        <time>2021-09-11T12:26:16.831Z</time>
      </trkpt>
      <trkpt lat="45.93203" lon="5.83008">
        <ele>299</ele>
        <time>2021-09-11T12:26:17.831Z</time>
      </trkpt>
      <trkpt lat="45.93203" lon="5.83005">
        <ele>299</ele>
        <time>2021-09-11T12:26:18.831Z</time>
      </trkpt>
      <trkpt lat="45.93202" lon="5.83002">
        <ele>299</ele>
        <time>2021-09-11T12:26:19.832Z</time>
      </trkpt>
      <trkpt lat="45.93202" lon="5.82999">
        <ele>299</ele>
        <time>2021-09-11T12:26:20.832Z</time>
      </trkpt>
      <trkpt lat="45.93201" lon="5.82996">
        <ele>299</ele>
        <time>2021-09-11T12:26:21.832Z</time>
      </trkpt>
      <trkpt lat="45.932" lon="5.82992">
        <ele>299</ele>
        <time>2021-09-11T12:26:22.832Z</time>
      </trkpt>
      <trkpt lat="45.93199" lon="5.82989">
        <ele>299</ele>
        <time>2021-09-11T12:26:23.831Z</time>
      </trkpt>
      <trkpt lat="45.93199" lon="5.82986">
        <ele>300</ele>
        <time>2021-09-11T12:26:24.832Z</time>
      </trkpt>
      <trkpt lat="45.93198" lon="5.82983">
        <ele>300</ele>
        <time>2021-09-11T12:26:25.832Z</time>
      </trkpt>
      <trkpt lat="45.93196" lon="5.8298">
        <ele>300</ele>
        <time>2021-09-11T12:26:26.832Z</time>
      </trkpt>
      <trkpt lat="45.93195" lon="5.82977">
        <ele>300</ele>
        <time>2021-09-11T12:26:27.832Z</time>
      </trkpt>
      <trkpt lat="45.93193" lon="5.82974">
        <ele>300</ele>
        <time>2021-09-11T12:26:28.832Z</time>
      </trkpt>
      <trkpt lat="45.93192" lon="5.82971">
        <ele>300</ele>
        <time>2021-09-11T12:26:29.832Z</time>
      </trkpt>
      <trkpt lat="45.93191" lon="5.82968">
        <ele>299</ele>
        <time>2021-09-11T12:26:30.832Z</time>
      </trkpt>
      <trkpt lat="45.9319" lon="5.82966">
        <ele>299</ele>
        <time>2021-09-11T12:26:31.832Z</time>
      </trkpt>
      <trkpt lat="45.93189" lon="5.82963">
        <ele>299</ele>
        <time>2021-09-11T12:26:32.832Z</time>
      </trkpt>
      <trkpt lat="45.93188" lon="5.82961">
        <ele>298</ele>
        <time>2021-09-11T12:26:33.832Z</time>
      </trkpt>
      <trkpt lat="45.93187" lon="5.82958">
        <ele>298</ele>
        <time>2021-09-11T12:26:34.832Z</time>
      </trkpt>
      <trkpt lat="45.93186" lon="5.82956">
        <ele>298</ele>
        <time>2021-09-11T12:26:35.831Z</time>
      </trkpt>
      <trkpt lat="45.93185" lon="5.82953">
        <ele>298</ele>
        <time>2021-09-11T12:26:36.832Z</time>
      </trkpt>
      <trkpt lat="45.93183" lon="5.8295">
        <ele>297</ele>
        <time>2021-09-11T12:26:37.832Z</time>
      </trkpt>
      <trkpt lat="45.93182" lon="5.82948">
        <ele>297</ele>
        <time>2021-09-11T12:26:38.832Z</time>
      </trkpt>
      <trkpt lat="45.93181" lon="5.82945">
        <ele>297</ele>
        <time>2021-09-11T12:26:39.832Z</time>
      </trkpt>
      <trkpt lat="45.93179" lon="5.82941">
        <ele>297</ele>
        <time>2021-09-11T12:26:40.832Z</time>
      </trkpt>
      <trkpt lat="45.93178" lon="5.82939">
        <ele>297</ele>
        <time>2021-09-11T12:26:41.832Z</time>
      </trkpt>
      <trkpt lat="45.93176" lon="5.82938">
        <ele>297</ele>
        <time>2021-09-11T12:26:42.831Z</time>
      </trkpt>
      <trkpt lat="45.93175" lon="5.82936">
        <ele>297</ele>
        <time>2021-09-11T12:26:43.832Z</time>
      </trkpt>
      <trkpt lat="45.93173" lon="5.82934">
        <ele>296</ele>
        <time>2021-09-11T12:26:44.832Z</time>
      </trkpt>
      <trkpt lat="45.93172" lon="5.82932">
        <ele>296</ele>
        <time>2021-09-11T12:26:45.832Z</time>
      </trkpt>
      <trkpt lat="45.9317" lon="5.82931">
        <ele>296</ele>
        <time>2021-09-11T12:26:46.832Z</time>
      </trkpt>
      <trkpt lat="45.93169" lon="5.8293">
        <ele>295</ele>
        <time>2021-09-11T12:26:47.832Z</time>
      </trkpt>
      <trkpt lat="45.93166" lon="5.82928">
        <ele>295</ele>
        <time>2021-09-11T12:26:48.832Z</time>
      </trkpt>
      <trkpt lat="45.93164" lon="5.82927">
        <ele>295</ele>
        <time>2021-09-11T12:26:49.831Z</time>
      </trkpt>
      <trkpt lat="45.93162" lon="5.82926">
        <ele>295</ele>
        <time>2021-09-11T12:26:50.831Z</time>
      </trkpt>
      <trkpt lat="45.9316" lon="5.82925">
        <ele>295</ele>
        <time>2021-09-11T12:26:51.832Z</time>
      </trkpt>
      <trkpt lat="45.93158" lon="5.82924">
        <ele>296</ele>
        <time>2021-09-11T12:26:52.832Z</time>
      </trkpt>
      <trkpt lat="45.93156" lon="5.82924">
        <ele>296</ele>
        <time>2021-09-11T12:26:53.832Z</time>
      </trkpt>
      <trkpt lat="45.93153" lon="5.82923">
        <ele>296</ele>
        <time>2021-09-11T12:26:54.832Z</time>
      </trkpt>
      <trkpt lat="45.9315" lon="5.82923">
        <ele>296</ele>
        <time>2021-09-11T12:26:55.832Z</time>
      </trkpt>
      <trkpt lat="45.93148" lon="5.82923">
        <ele>295</ele>
        <time>2021-09-11T12:26:56.831Z</time>
      </trkpt>
      <trkpt lat="45.93146" lon="5.82923">
        <ele>295</ele>
        <time>2021-09-11T12:26:57.832Z</time>
      </trkpt>
      <trkpt lat="45.93143" lon="5.82924">
        <ele>294</ele>
        <time>2021-09-11T12:26:58.832Z</time>
      </trkpt>
      <trkpt lat="45.9314" lon="5.82925">
        <ele>294</ele>
        <time>2021-09-11T12:26:59.832Z</time>
      </trkpt>
      <trkpt lat="45.93138" lon="5.82925">
        <ele>294</ele>
        <time>2021-09-11T12:27:00.832Z</time>
      </trkpt>
      <trkpt lat="45.93136" lon="5.82926">
        <ele>294</ele>
        <time>2021-09-11T12:27:01.832Z</time>
      </trkpt>
      <trkpt lat="45.93133" lon="5.82927">
        <ele>294</ele>
        <time>2021-09-11T12:27:02.832Z</time>
      </trkpt>
      <trkpt lat="45.93131" lon="5.82929">
        <ele>294</ele>
        <time>2021-09-11T12:27:03.832Z</time>
      </trkpt>
      <trkpt lat="45.93129" lon="5.8293">
        <ele>294</ele>
        <time>2021-09-11T12:27:04.832Z</time>
      </trkpt>
      <trkpt lat="45.93127" lon="5.82931">
        <ele>294</ele>
        <time>2021-09-11T12:27:05.832Z</time>
      </trkpt>
      <trkpt lat="45.93125" lon="5.82933">
        <ele>294</ele>
        <time>2021-09-11T12:27:06.832Z</time>
      </trkpt>
      <trkpt lat="45.93123" lon="5.82935">
        <ele>294</ele>
        <time>2021-09-11T12:27:07.832Z</time>
      </trkpt>
      <trkpt lat="45.9312" lon="5.82936">
        <ele>294</ele>
        <time>2021-09-11T12:27:08.832Z</time>
      </trkpt>
      <trkpt lat="45.93118" lon="5.82938">
        <ele>295</ele>
        <time>2021-09-11T12:27:09.832Z</time>
      </trkpt>
      <trkpt lat="45.93116" lon="5.82939">
        <ele>295</ele>
        <time>2021-09-11T12:27:10.832Z</time>
      </trkpt>
      <trkpt lat="45.93113" lon="5.82941">
        <ele>295</ele>
        <time>2021-09-11T12:27:11.832Z</time>
      </trkpt>
      <trkpt lat="45.93111" lon="5.82943">
        <ele>295</ele>
        <time>2021-09-11T12:27:12.831Z</time>
      </trkpt>
      <trkpt lat="45.93108" lon="5.82945">
        <ele>295</ele>
        <time>2021-09-11T12:27:13.831Z</time>
      </trkpt>
      <trkpt lat="45.93106" lon="5.82947">
        <ele>296</ele>
        <time>2021-09-11T12:27:14.832Z</time>
      </trkpt>
      <trkpt lat="45.93103" lon="5.82948">
        <ele>296</ele>
        <time>2021-09-11T12:27:15.832Z</time>
      </trkpt>
      <trkpt lat="45.93101" lon="5.8295">
        <ele>296</ele>
        <time>2021-09-11T12:27:16.832Z</time>
      </trkpt>
      <trkpt lat="45.93098" lon="5.82952">
        <ele>296</ele>
        <time>2021-09-11T12:27:17.832Z</time>
      </trkpt>
      <trkpt lat="45.93096" lon="5.82954">
        <ele>296</ele>
        <time>2021-09-11T12:27:18.831Z</time>
      </trkpt>
      <trkpt lat="45.93093" lon="5.82956">
        <ele>296</ele>
        <time>2021-09-11T12:27:19.832Z</time>
      </trkpt>
      <trkpt lat="45.93091" lon="5.82958">
        <ele>296</ele>
        <time>2021-09-11T12:27:20.832Z</time>
      </trkpt>
      <trkpt lat="45.93088" lon="5.8296">
        <ele>296</ele>
        <time>2021-09-11T12:27:21.832Z</time>
      </trkpt>
      <trkpt lat="45.93086" lon="5.82962">
        <ele>297</ele>
        <time>2021-09-11T12:27:22.832Z</time>
      </trkpt>
      <trkpt lat="45.93083" lon="5.82963">
        <ele>297</ele>
        <time>2021-09-11T12:27:23.832Z</time>
      </trkpt>
      <trkpt lat="45.93081" lon="5.82965">
        <ele>297</ele>
        <time>2021-09-11T12:27:24.831Z</time>
      </trkpt>
      <trkpt lat="45.93078" lon="5.82967">
        <ele>297</ele>
        <time>2021-09-11T12:27:25.832Z</time>
      </trkpt>
      <trkpt lat="45.93076" lon="5.82969">
        <ele>297</ele>
        <time>2021-09-11T12:27:26.832Z</time>
      </trkpt>
      <trkpt lat="45.93073" lon="5.82971">
        <ele>298</ele>
        <time>2021-09-11T12:27:27.832Z</time>
      </trkpt>
      <trkpt lat="45.9307" lon="5.82973">
        <ele>298</ele>
        <time>2021-09-11T12:27:28.832Z</time>
      </trkpt>
      <trkpt lat="45.93068" lon="5.82974">
        <ele>298</ele>
        <time>2021-09-11T12:27:29.831Z</time>
      </trkpt>
      <trkpt lat="45.93065" lon="5.82976">
        <ele>299</ele>
        <time>2021-09-11T12:27:30.832Z</time>
      </trkpt>
      <trkpt lat="45.93063" lon="5.82978">
        <ele>298</ele>
        <time>2021-09-11T12:27:31.832Z</time>
      </trkpt>
      <trkpt lat="45.9306" lon="5.8298">
        <ele>298</ele>
        <time>2021-09-11T12:27:32.832Z</time>
      </trkpt>
      <trkpt lat="45.93058" lon="5.82982">
        <ele>297</ele>
        <time>2021-09-11T12:27:33.832Z</time>
      </trkpt>
      <trkpt lat="45.93055" lon="5.82984">
        <ele>297</ele>
        <time>2021-09-11T12:27:34.832Z</time>
      </trkpt>
      <trkpt lat="45.93052" lon="5.82986">
        <ele>297</ele>
        <time>2021-09-11T12:27:35.831Z</time>
      </trkpt>
      <trkpt lat="45.93049" lon="5.82988">
        <ele>296</ele>
        <time>2021-09-11T12:27:36.831Z</time>
      </trkpt>
      <trkpt lat="45.93046" lon="5.8299">
        <ele>296</ele>
        <time>2021-09-11T12:27:37.832Z</time>
      </trkpt>
      <trkpt lat="45.93043" lon="5.82992">
        <ele>296</ele>
        <time>2021-09-11T12:27:38.832Z</time>
      </trkpt>
      <trkpt lat="45.9304" lon="5.82994">
        <ele>296</ele>
        <time>2021-09-11T12:27:39.831Z</time>
      </trkpt>
      <trkpt lat="45.93037" lon="5.82997">
        <ele>296</ele>
        <time>2021-09-11T12:27:40.831Z</time>
      </trkpt>
      <trkpt lat="45.93034" lon="5.82999">
        <ele>296</ele>
        <time>2021-09-11T12:27:41.832Z</time>
      </trkpt>
      <trkpt lat="45.93032" lon="5.83001">
        <ele>296</ele>
        <time>2021-09-11T12:27:42.832Z</time>
      </trkpt>
      <trkpt lat="45.93029" lon="5.83003">
        <ele>296</ele>
        <time>2021-09-11T12:27:43.832Z</time>
      </trkpt>
      <trkpt lat="45.93026" lon="5.83004">
        <ele>296</ele>
        <time>2021-09-11T12:27:44.832Z</time>
      </trkpt>
      <trkpt lat="45.93023" lon="5.83007">
        <ele>296</ele>
        <time>2021-09-11T12:27:45.832Z</time>
      </trkpt>
      <trkpt lat="45.93021" lon="5.83009">
        <ele>297</ele>
        <time>2021-09-11T12:27:46.832Z</time>
      </trkpt>
      <trkpt lat="45.93018" lon="5.83011">
        <ele>297</ele>
        <time>2021-09-11T12:27:47.832Z</time>
      </trkpt>
      <trkpt lat="45.93015" lon="5.83013">
        <ele>297</ele>
        <time>2021-09-11T12:27:48.832Z</time>
      </trkpt>
      <trkpt lat="45.93013" lon="5.83015">
        <ele>296</ele>
        <time>2021-09-11T12:27:49.832Z</time>
      </trkpt>
      <trkpt lat="45.9301" lon="5.83017">
        <ele>296</ele>
        <time>2021-09-11T12:27:50.831Z</time>
      </trkpt>
      <trkpt lat="45.93008" lon="5.83019">
        <ele>296</ele>
        <time>2021-09-11T12:27:51.832Z</time>
      </trkpt>
      <trkpt lat="45.93006" lon="5.83022">
        <ele>296</ele>
        <time>2021-09-11T12:27:52.832Z</time>
      </trkpt>
      <trkpt lat="45.93004" lon="5.83025">
        <ele>295</ele>
        <time>2021-09-11T12:27:53.831Z</time>
      </trkpt>
      <trkpt lat="45.93002" lon="5.83028">
        <ele>294</ele>
        <time>2021-09-11T12:27:54.832Z</time>
      </trkpt>
      <trkpt lat="45.93001" lon="5.83032">
        <ele>294</ele>
        <time>2021-09-11T12:27:55.831Z</time>
      </trkpt>
      <trkpt lat="45.93001" lon="5.83036">
        <ele>293</ele>
        <time>2021-09-11T12:27:56.832Z</time>
      </trkpt>
      <trkpt lat="45.93" lon="5.83039">
        <ele>293</ele>
        <time>2021-09-11T12:27:57.832Z</time>
      </trkpt>
      <trkpt lat="45.93001" lon="5.83043">
        <ele>292</ele>
        <time>2021-09-11T12:27:58.832Z</time>
      </trkpt>
      <trkpt lat="45.93001" lon="5.83047">
        <ele>292</ele>
        <time>2021-09-11T12:27:59.831Z</time>
      </trkpt>
      <trkpt lat="45.93002" lon="5.8305">
        <ele>292</ele>
        <time>2021-09-11T12:28:00.832Z</time>
      </trkpt>
      <trkpt lat="45.93001" lon="5.83054">
        <ele>292</ele>
        <time>2021-09-11T12:28:01.832Z</time>
      </trkpt>
      <trkpt lat="45.93001" lon="5.83057">
        <ele>293</ele>
        <time>2021-09-11T12:28:02.832Z</time>
      </trkpt>
      <trkpt lat="45.93002" lon="5.83061">
        <ele>293</ele>
        <time>2021-09-11T12:28:03.832Z</time>
      </trkpt>
      <trkpt lat="45.93002" lon="5.83064">
        <ele>293</ele>
        <time>2021-09-11T12:28:04.832Z</time>
      </trkpt>
      <trkpt lat="45.93002" lon="5.83068">
        <ele>293</ele>
        <time>2021-09-11T12:28:05.832Z</time>
      </trkpt>
      <trkpt lat="45.93002" lon="5.83071">
        <ele>293</ele>
        <time>2021-09-11T12:28:06.832Z</time>
      </trkpt>
      <trkpt lat="45.93002" lon="5.83074">
        <ele>293</ele>
        <time>2021-09-11T12:28:07.832Z</time>
      </trkpt>
      <trkpt lat="45.93002" lon="5.83078">
        <ele>293</ele>
        <time>2021-09-11T12:28:08.831Z</time>
      </trkpt>
      <trkpt lat="45.93003" lon="5.83081">
        <ele>294</ele>
        <time>2021-09-11T12:28:09.832Z</time>
      </trkpt>
      <trkpt lat="45.93003" lon="5.83084">
        <ele>294</ele>
        <time>2021-09-11T12:28:10.832Z</time>
      </trkpt>
      <trkpt lat="45.93003" lon="5.83087">
        <ele>294</ele>
        <time>2021-09-11T12:28:11.831Z</time>
      </trkpt>
      <trkpt lat="45.93003" lon="5.83091">
        <ele>294</ele>
        <time>2021-09-11T12:28:12.832Z</time>
      </trkpt>
      <trkpt lat="45.93003" lon="5.83094">
        <ele>294</ele>
        <time>2021-09-11T12:28:13.832Z</time>
      </trkpt>
      <trkpt lat="45.93003" lon="5.83097">
        <ele>295</ele>
        <time>2021-09-11T12:28:14.831Z</time>
      </trkpt>
      <trkpt lat="45.93004" lon="5.831">
        <ele>295</ele>
        <time>2021-09-11T12:28:15.832Z</time>
      </trkpt>
      <trkpt lat="45.93004" lon="5.83103">
        <ele>296</ele>
        <time>2021-09-11T12:28:16.832Z</time>
      </trkpt>
      <trkpt lat="45.93004" lon="5.83106">
        <ele>296</ele>
        <time>2021-09-11T12:28:17.832Z</time>
      </trkpt>
      <trkpt lat="45.93004" lon="5.8311">
        <ele>296</ele>
        <time>2021-09-11T12:28:18.831Z</time>
      </trkpt>
      <trkpt lat="45.93004" lon="5.83113">
        <ele>296</ele>
        <time>2021-09-11T12:28:19.832Z</time>
      </trkpt>
      <trkpt lat="45.93004" lon="5.83116">
        <ele>296</ele>
        <time>2021-09-11T12:28:20.832Z</time>
      </trkpt>
      <trkpt lat="45.93004" lon="5.83119">
        <ele>297</ele>
        <time>2021-09-11T12:28:21.832Z</time>
      </trkpt>
      <trkpt lat="45.93003" lon="5.83122">
        <ele>297</ele>
        <time>2021-09-11T12:28:22.832Z</time>
      </trkpt>
      <trkpt lat="45.93003" lon="5.83125">
        <ele>297</ele>
        <time>2021-09-11T12:28:23.832Z</time>
      </trkpt>
      <trkpt lat="45.93003" lon="5.83128">
        <ele>298</ele>
        <time>2021-09-11T12:28:24.832Z</time>
      </trkpt>
      <trkpt lat="45.93003" lon="5.83131">
        <ele>299</ele>
        <time>2021-09-11T12:28:25.832Z</time>
      </trkpt>
      <trkpt lat="45.93003" lon="5.83134">
        <ele>299</ele>
        <time>2021-09-11T12:28:26.832Z</time>
      </trkpt>
      <trkpt lat="45.93003" lon="5.83137">
        <ele>300</ele>
        <time>2021-09-11T12:28:27.832Z</time>
      </trkpt>
      <trkpt lat="45.93003" lon="5.8314">
        <ele>300</ele>
        <time>2021-09-11T12:28:28.832Z</time>
      </trkpt>
      <trkpt lat="45.93003" lon="5.83143">
        <ele>300</ele>
        <time>2021-09-11T12:28:29.831Z</time>
      </trkpt>
      <trkpt lat="45.93003" lon="5.83146">
        <ele>301</ele>
        <time>2021-09-11T12:28:30.831Z</time>
      </trkpt>
      <trkpt lat="45.93003" lon="5.83149">
        <ele>301</ele>
        <time>2021-09-11T12:28:31.832Z</time>
      </trkpt>
      <trkpt lat="45.93003" lon="5.83152">
        <ele>302</ele>
        <time>2021-09-11T12:28:32.831Z</time>
      </trkpt>
      <trkpt lat="45.93003" lon="5.83155">
        <ele>302</ele>
        <time>2021-09-11T12:28:33.832Z</time>
      </trkpt>
      <trkpt lat="45.93003" lon="5.83158">
        <ele>303</ele>
        <time>2021-09-11T12:28:34.832Z</time>
      </trkpt>
      <trkpt lat="45.93003" lon="5.83161">
        <ele>303</ele>
        <time>2021-09-11T12:28:35.832Z</time>
      </trkpt>
      <trkpt lat="45.93003" lon="5.83164">
        <ele>303</ele>
        <time>2021-09-11T12:28:36.831Z</time>
      </trkpt>
      <trkpt lat="45.93002" lon="5.83167">
        <ele>304</ele>
        <time>2021-09-11T12:28:37.832Z</time>
      </trkpt>
      <trkpt lat="45.93002" lon="5.8317">
        <ele>304</ele>
        <time>2021-09-11T12:28:38.832Z</time>
      </trkpt>
      <trkpt lat="45.93002" lon="5.83173">
        <ele>305</ele>
        <time>2021-09-11T12:28:39.832Z</time>
      </trkpt>
      <trkpt lat="45.93002" lon="5.83176">
        <ele>306</ele>
        <time>2021-09-11T12:28:40.832Z</time>
      </trkpt>
      <trkpt lat="45.93002" lon="5.83179">
        <ele>306</ele>
        <time>2021-09-11T12:28:41.832Z</time>
      </trkpt>
      <trkpt lat="45.93002" lon="5.83182">
        <ele>307</ele>
        <time>2021-09-11T12:28:42.832Z</time>
      </trkpt>
      <trkpt lat="45.93002" lon="5.83185">
        <ele>307</ele>
        <time>2021-09-11T12:28:43.832Z</time>
      </trkpt>
      <trkpt lat="45.93002" lon="5.83187">
        <ele>307</ele>
        <time>2021-09-11T12:28:44.832Z</time>
      </trkpt>
      <trkpt lat="45.93002" lon="5.8319">
        <ele>307</ele>
        <time>2021-09-11T12:28:45.832Z</time>
      </trkpt>
      <trkpt lat="45.93002" lon="5.83193">
        <ele>308</ele>
        <time>2021-09-11T12:28:46.832Z</time>
      </trkpt>
      <trkpt lat="45.93002" lon="5.83196">
        <ele>308</ele>
        <time>2021-09-11T12:28:47.831Z</time>
      </trkpt>
      <trkpt lat="45.93001" lon="5.83199">
        <ele>308</ele>
        <time>2021-09-11T12:28:48.832Z</time>
      </trkpt>
      <trkpt lat="45.93001" lon="5.83203">
        <ele>309</ele>
        <time>2021-09-11T12:28:49.832Z</time>
      </trkpt>
      <trkpt lat="45.93001" lon="5.83206">
        <ele>308</ele>
        <time>2021-09-11T12:28:50.832Z</time>
      </trkpt>
      <trkpt lat="45.93001" lon="5.83209">
        <ele>308</ele>
        <time>2021-09-11T12:28:51.832Z</time>
      </trkpt>
      <trkpt lat="45.93001" lon="5.83213">
        <ele>308</ele>
        <time>2021-09-11T12:28:52.832Z</time>
      </trkpt>
      <trkpt lat="45.93001" lon="5.83216">
        <ele>308</ele>
        <time>2021-09-11T12:28:53.832Z</time>
      </trkpt>
      <trkpt lat="45.93" lon="5.83219">
        <ele>308</ele>
        <time>2021-09-11T12:28:54.832Z</time>
      </trkpt>
      <trkpt lat="45.93" lon="5.83223">
        <ele>308</ele>
        <time>2021-09-11T12:28:55.832Z</time>
      </trkpt>
      <trkpt lat="45.93" lon="5.83226">
        <ele>307</ele>
        <time>2021-09-11T12:28:56.832Z</time>
      </trkpt>
      <trkpt lat="45.93" lon="5.83229">
        <ele>307</ele>
        <time>2021-09-11T12:28:57.832Z</time>
      </trkpt>
      <trkpt lat="45.93" lon="5.83233">
        <ele>306</ele>
        <time>2021-09-11T12:28:58.832Z</time>
      </trkpt>
      <trkpt lat="45.93001" lon="5.83236">
        <ele>306</ele>
        <time>2021-09-11T12:28:59.831Z</time>
      </trkpt>
      <trkpt lat="45.93001" lon="5.83239">
        <ele>306</ele>
        <time>2021-09-11T12:29:00.832Z</time>
      </trkpt>
      <trkpt lat="45.93002" lon="5.83242">
        <ele>306</ele>
        <time>2021-09-11T12:29:01.832Z</time>
      </trkpt>
      <trkpt lat="45.93004" lon="5.83245">
        <ele>305</ele>
        <time>2021-09-11T12:29:02.831Z</time>
      </trkpt>
      <trkpt lat="45.93005" lon="5.83247">
        <ele>305</ele>
        <time>2021-09-11T12:29:03.832Z</time>
      </trkpt>
      <trkpt lat="45.93007" lon="5.8325">
        <ele>305</ele>
        <time>2021-09-11T12:29:04.832Z</time>
      </trkpt>
      <trkpt lat="45.93008" lon="5.83252">
        <ele>305</ele>
        <time>2021-09-11T12:29:05.832Z</time>
      </trkpt>
      <trkpt lat="45.9301" lon="5.83254">
        <ele>305</ele>
        <time>2021-09-11T12:29:06.832Z</time>
      </trkpt>
      <trkpt lat="45.93012" lon="5.83256">
        <ele>305</ele>
        <time>2021-09-11T12:29:07.832Z</time>
      </trkpt>
      <trkpt lat="45.93015" lon="5.83258">
        <ele>306</ele>
        <time>2021-09-11T12:29:08.832Z</time>
      </trkpt>
      <trkpt lat="45.93017" lon="5.8326">
        <ele>306</ele>
        <time>2021-09-11T12:29:09.831Z</time>
      </trkpt>
      <trkpt lat="45.93019" lon="5.83262">
        <ele>307</ele>
        <time>2021-09-11T12:29:10.831Z</time>
      </trkpt>
      <trkpt lat="45.93021" lon="5.83264">
        <ele>307</ele>
        <time>2021-09-11T12:29:11.832Z</time>
      </trkpt>
      <trkpt lat="45.93022" lon="5.83266">
        <ele>308</ele>
        <time>2021-09-11T12:29:12.832Z</time>
      </trkpt>
      <trkpt lat="45.93024" lon="5.83268">
        <ele>309</ele>
        <time>2021-09-11T12:29:13.831Z</time>
      </trkpt>
      <trkpt lat="45.93026" lon="5.83271">
        <ele>309</ele>
        <time>2021-09-11T12:29:14.831Z</time>
      </trkpt>
      <trkpt lat="45.93028" lon="5.83273">
        <ele>309</ele>
        <time>2021-09-11T12:29:15.832Z</time>
      </trkpt>
      <trkpt lat="45.93029" lon="5.83276">
        <ele>308</ele>
        <time>2021-09-11T12:29:16.832Z</time>
      </trkpt>
      <trkpt lat="45.9303" lon="5.83279">
        <ele>308</ele>
        <time>2021-09-11T12:29:17.832Z</time>
      </trkpt>
      <trkpt lat="45.93031" lon="5.83281">
        <ele>308</ele>
        <time>2021-09-11T12:29:18.831Z</time>
      </trkpt>
      <trkpt lat="45.93033" lon="5.83284">
        <ele>308</ele>
        <time>2021-09-11T12:29:19.832Z</time>
      </trkpt>
      <trkpt lat="45.93034" lon="5.83287">
        <ele>307</ele>
        <time>2021-09-11T12:29:20.832Z</time>
      </trkpt>
      <trkpt lat="45.93034" lon="5.8329">
        <ele>307</ele>
        <time>2021-09-11T12:29:21.832Z</time>
      </trkpt>
      <trkpt lat="45.93036" lon="5.83293">
        <ele>307</ele>
        <time>2021-09-11T12:29:22.832Z</time>
      </trkpt>
      <trkpt lat="45.93036" lon="5.83296">
        <ele>307</ele>
        <time>2021-09-11T12:29:23.832Z</time>
      </trkpt>
      <trkpt lat="45.93037" lon="5.833">
        <ele>307</ele>
        <time>2021-09-11T12:29:24.832Z</time>
      </trkpt>
      <trkpt lat="45.93038" lon="5.83303">
        <ele>307</ele>
        <time>2021-09-11T12:29:25.832Z</time>
      </trkpt>
      <trkpt lat="45.93039" lon="5.83306">
        <ele>307</ele>
        <time>2021-09-11T12:29:26.832Z</time>
      </trkpt>
      <trkpt lat="45.9304" lon="5.83309">
        <ele>307</ele>
        <time>2021-09-11T12:29:27.832Z</time>
      </trkpt>
      <trkpt lat="45.9304" lon="5.83312">
        <ele>307</ele>
        <time>2021-09-11T12:29:28.832Z</time>
      </trkpt>
      <trkpt lat="45.93041" lon="5.83316">
        <ele>307</ele>
        <time>2021-09-11T12:29:29.831Z</time>
      </trkpt>
      <trkpt lat="45.93042" lon="5.83319">
        <ele>307</ele>
        <time>2021-09-11T12:29:30.831Z</time>
      </trkpt>
      <trkpt lat="45.93042" lon="5.83322">
        <ele>307</ele>
        <time>2021-09-11T12:29:31.832Z</time>
      </trkpt>
      <trkpt lat="45.93043" lon="5.83325">
        <ele>307</ele>
        <time>2021-09-11T12:29:32.832Z</time>
      </trkpt>
      <trkpt lat="45.93044" lon="5.83328">
        <ele>307</ele>
        <time>2021-09-11T12:29:33.832Z</time>
      </trkpt>
      <trkpt lat="45.93044" lon="5.83331">
        <ele>307</ele>
        <time>2021-09-11T12:29:34.832Z</time>
      </trkpt>
      <trkpt lat="45.93045" lon="5.83335">
        <ele>308</ele>
        <time>2021-09-11T12:29:35.831Z</time>
      </trkpt>
      <trkpt lat="45.93045" lon="5.83338">
        <ele>308</ele>
        <time>2021-09-11T12:29:36.832Z</time>
      </trkpt>
      <trkpt lat="45.93046" lon="5.83341">
        <ele>309</ele>
        <time>2021-09-11T12:29:37.832Z</time>
      </trkpt>
      <trkpt lat="45.93046" lon="5.83344">
        <ele>309</ele>
        <time>2021-09-11T12:29:38.832Z</time>
      </trkpt>
      <trkpt lat="45.93047" lon="5.83347">
        <ele>309</ele>
        <time>2021-09-11T12:29:39.832Z</time>
      </trkpt>
      <trkpt lat="45.93048" lon="5.8335">
        <ele>309</ele>
        <time>2021-09-11T12:29:40.832Z</time>
      </trkpt>
      <trkpt lat="45.93048" lon="5.83354">
        <ele>310</ele>
        <time>2021-09-11T12:29:41.832Z</time>
      </trkpt>
      <trkpt lat="45.93049" lon="5.83357">
        <ele>310</ele>
        <time>2021-09-11T12:29:42.832Z</time>
      </trkpt>
      <trkpt lat="45.93049" lon="5.8336">
        <ele>310</ele>
        <time>2021-09-11T12:29:43.831Z</time>
      </trkpt>
      <trkpt lat="45.9305" lon="5.83362">
        <ele>311</ele>
        <time>2021-09-11T12:29:44.832Z</time>
      </trkpt>
      <trkpt lat="45.9305" lon="5.83365">
        <ele>311</ele>
        <time>2021-09-11T12:29:45.832Z</time>
      </trkpt>
      <trkpt lat="45.93051" lon="5.83369">
        <ele>311</ele>
        <time>2021-09-11T12:29:46.832Z</time>
      </trkpt>
      <trkpt lat="45.93051" lon="5.83372">
        <ele>311</ele>
        <time>2021-09-11T12:29:47.832Z</time>
      </trkpt>
      <trkpt lat="45.93052" lon="5.83375">
        <ele>311</ele>
        <time>2021-09-11T12:29:48.832Z</time>
      </trkpt>
      <trkpt lat="45.93053" lon="5.83378">
        <ele>311</ele>
        <time>2021-09-11T12:29:49.831Z</time>
      </trkpt>
      <trkpt lat="45.93053" lon="5.83381">
        <ele>311</ele>
        <time>2021-09-11T12:29:50.832Z</time>
      </trkpt>
      <trkpt lat="45.93054" lon="5.83385">
        <ele>311</ele>
        <time>2021-09-11T12:29:51.831Z</time>
      </trkpt>
      <trkpt lat="45.93054" lon="5.83388">
        <ele>311</ele>
        <time>2021-09-11T12:29:52.832Z</time>
      </trkpt>
      <trkpt lat="45.93055" lon="5.83391">
        <ele>311</ele>
        <time>2021-09-11T12:29:53.832Z</time>
      </trkpt>
      <trkpt lat="45.93055" lon="5.83394">
        <ele>311</ele>
        <time>2021-09-11T12:29:54.832Z</time>
      </trkpt>
      <trkpt lat="45.93055" lon="5.83397">
        <ele>310</ele>
        <time>2021-09-11T12:29:55.832Z</time>
      </trkpt>
      <trkpt lat="45.93056" lon="5.834">
        <ele>310</ele>
        <time>2021-09-11T12:29:56.832Z</time>
      </trkpt>
      <trkpt lat="45.93056" lon="5.83404">
        <ele>310</ele>
        <time>2021-09-11T12:29:57.832Z</time>
      </trkpt>
      <trkpt lat="45.93057" lon="5.83406">
        <ele>310</ele>
        <time>2021-09-11T12:29:58.831Z</time>
      </trkpt>
      <trkpt lat="45.93057" lon="5.8341">
        <ele>310</ele>
        <time>2021-09-11T12:29:59.832Z</time>
      </trkpt>
      <trkpt lat="45.93058" lon="5.83413">
        <ele>311</ele>
        <time>2021-09-11T12:30:00.832Z</time>
      </trkpt>
      <trkpt lat="45.93059" lon="5.83416">
        <ele>311</ele>
        <time>2021-09-11T12:30:01.832Z</time>
      </trkpt>
      <trkpt lat="45.93059" lon="5.83418">
        <ele>311</ele>
        <time>2021-09-11T12:30:02.831Z</time>
      </trkpt>
      <trkpt lat="45.9306" lon="5.83422">
        <ele>311</ele>
        <time>2021-09-11T12:30:03.832Z</time>
      </trkpt>
      <trkpt lat="45.93061" lon="5.83425">
        <ele>311</ele>
        <time>2021-09-11T12:30:04.831Z</time>
      </trkpt>
      <trkpt lat="45.93061" lon="5.83428">
        <ele>311</ele>
        <time>2021-09-11T12:30:05.832Z</time>
      </trkpt>
      <trkpt lat="45.93061" lon="5.83431">
        <ele>311</ele>
        <time>2021-09-11T12:30:06.831Z</time>
      </trkpt>
      <trkpt lat="45.93062" lon="5.83433">
        <ele>311</ele>
        <time>2021-09-11T12:30:07.832Z</time>
      </trkpt>
      <trkpt lat="45.93063" lon="5.83436">
        <ele>311</ele>
        <time>2021-09-11T12:30:08.832Z</time>
      </trkpt>
      <trkpt lat="45.93063" lon="5.83438">
        <ele>311</ele>
        <time>2021-09-11T12:30:09.832Z</time>
      </trkpt>
      <trkpt lat="45.93064" lon="5.83441">
        <ele>311</ele>
        <time>2021-09-11T12:30:10.832Z</time>
      </trkpt>
      <trkpt lat="45.93066" lon="5.83444">
        <ele>312</ele>
        <time>2021-09-11T12:30:11.832Z</time>
      </trkpt>
      <trkpt lat="45.93066" lon="5.83446">
        <ele>312</ele>
        <time>2021-09-11T12:30:12.832Z</time>
      </trkpt>
      <trkpt lat="45.93067" lon="5.83449">
        <ele>312</ele>
        <time>2021-09-11T12:30:13.832Z</time>
      </trkpt>
      <trkpt lat="45.93067" lon="5.83452">
        <ele>313</ele>
        <time>2021-09-11T12:30:14.832Z</time>
      </trkpt>
      <trkpt lat="45.93068" lon="5.83455">
        <ele>313</ele>
        <time>2021-09-11T12:30:15.832Z</time>
      </trkpt>
      <trkpt lat="45.93068" lon="5.83458">
        <ele>313</ele>
        <time>2021-09-11T12:30:16.831Z</time>
      </trkpt>
      <trkpt lat="45.93068" lon="5.8346">
        <ele>313</ele>
        <time>2021-09-11T12:30:17.832Z</time>
      </trkpt>
      <trkpt lat="45.93069" lon="5.83463">
        <ele>313</ele>
        <time>2021-09-11T12:30:18.832Z</time>
      </trkpt>
      <trkpt lat="45.9307" lon="5.83466">
        <ele>314</ele>
        <time>2021-09-11T12:30:19.832Z</time>
      </trkpt>
      <trkpt lat="45.9307" lon="5.83469">
        <ele>314</ele>
        <time>2021-09-11T12:30:20.832Z</time>
      </trkpt>
      <trkpt lat="45.93071" lon="5.83473">
        <ele>314</ele>
        <time>2021-09-11T12:30:21.832Z</time>
      </trkpt>
      <trkpt lat="45.93072" lon="5.83476">
        <ele>314</ele>
        <time>2021-09-11T12:30:22.832Z</time>
      </trkpt>
      <trkpt lat="45.93072" lon="5.83479">
        <ele>314</ele>
        <time>2021-09-11T12:30:23.831Z</time>
      </trkpt>
      <trkpt lat="45.93072" lon="5.83482">
        <ele>314</ele>
        <time>2021-09-11T12:30:24.832Z</time>
      </trkpt>
      <trkpt lat="45.93072" lon="5.83484">
        <ele>314</ele>
        <time>2021-09-11T12:30:25.832Z</time>
      </trkpt>
      <trkpt lat="45.93072" lon="5.83487">
        <ele>315</ele>
        <time>2021-09-11T12:30:26.832Z</time>
      </trkpt>
      <trkpt lat="45.93072" lon="5.8349">
        <ele>315</ele>
        <time>2021-09-11T12:30:27.832Z</time>
      </trkpt>
      <trkpt lat="45.93072" lon="5.83493">
        <ele>315</ele>
        <time>2021-09-11T12:30:28.832Z</time>
      </trkpt>
      <trkpt lat="45.93072" lon="5.83495">
        <ele>316</ele>
        <time>2021-09-11T12:30:29.831Z</time>
      </trkpt>
      <trkpt lat="45.93073" lon="5.83498">
        <ele>316</ele>
        <time>2021-09-11T12:30:30.832Z</time>
      </trkpt>
      <trkpt lat="45.93073" lon="5.83501">
        <ele>316</ele>
        <time>2021-09-11T12:30:31.832Z</time>
      </trkpt>
      <trkpt lat="45.93073" lon="5.83505">
        <ele>317</ele>
        <time>2021-09-11T12:30:32.831Z</time>
      </trkpt>
      <trkpt lat="45.93073" lon="5.83508">
        <ele>317</ele>
        <time>2021-09-11T12:30:33.831Z</time>
      </trkpt>
      <trkpt lat="45.93072" lon="5.83511">
        <ele>317</ele>
        <time>2021-09-11T12:30:34.832Z</time>
      </trkpt>
      <trkpt lat="45.93071" lon="5.83514">
        <ele>318</ele>
        <time>2021-09-11T12:30:35.832Z</time>
      </trkpt>
      <trkpt lat="45.9307" lon="5.83517">
        <ele>318</ele>
        <time>2021-09-11T12:30:36.832Z</time>
      </trkpt>
      <trkpt lat="45.93069" lon="5.8352">
        <ele>317</ele>
        <time>2021-09-11T12:30:37.831Z</time>
      </trkpt>
      <trkpt lat="45.93068" lon="5.83523">
        <ele>317</ele>
        <time>2021-09-11T12:30:38.832Z</time>
      </trkpt>
      <trkpt lat="45.93067" lon="5.83528">
        <ele>317</ele>
        <time>2021-09-11T12:30:39.832Z</time>
      </trkpt>
      <trkpt lat="45.93066" lon="5.83533">
        <ele>316</ele>
        <time>2021-09-11T12:30:40.831Z</time>
      </trkpt>
      <trkpt lat="45.93065" lon="5.83539">
        <ele>316</ele>
        <time>2021-09-11T12:30:41.832Z</time>
      </trkpt>
      <trkpt lat="45.93063" lon="5.83544">
        <ele>316</ele>
        <time>2021-09-11T12:30:42.832Z</time>
      </trkpt>
      <trkpt lat="45.93062" lon="5.83548">
        <ele>316</ele>
        <time>2021-09-11T12:30:43.832Z</time>
      </trkpt>
      <trkpt lat="45.93062" lon="5.83553">
        <ele>315</ele>
        <time>2021-09-11T12:30:44.831Z</time>
      </trkpt>
      <trkpt lat="45.93061" lon="5.83558">
        <ele>315</ele>
        <time>2021-09-11T12:30:45.831Z</time>
      </trkpt>
      <trkpt lat="45.9306" lon="5.83564">
        <ele>315</ele>
        <time>2021-09-11T12:30:46.831Z</time>
      </trkpt>
      <trkpt lat="45.93059" lon="5.8357">
        <ele>315</ele>
        <time>2021-09-11T12:30:47.831Z</time>
      </trkpt>
      <trkpt lat="45.93058" lon="5.83576">
        <ele>314</ele>
        <time>2021-09-11T12:30:48.831Z</time>
      </trkpt>
      <trkpt lat="45.93058" lon="5.83582">
        <ele>314</ele>
        <time>2021-09-11T12:30:49.832Z</time>
      </trkpt>
      <trkpt lat="45.93057" lon="5.83588">
        <ele>315</ele>
        <time>2021-09-11T12:30:50.831Z</time>
      </trkpt>
      <trkpt lat="45.93056" lon="5.83594">
        <ele>315</ele>
        <time>2021-09-11T12:30:51.832Z</time>
      </trkpt>
      <trkpt lat="45.93055" lon="5.836">
        <ele>315</ele>
        <time>2021-09-11T12:30:52.831Z</time>
      </trkpt>
      <trkpt lat="45.93055" lon="5.83606">
        <ele>315</ele>
        <time>2021-09-11T12:30:53.832Z</time>
      </trkpt>
      <trkpt lat="45.93053" lon="5.83612">
        <ele>315</ele>
        <time>2021-09-11T12:30:54.832Z</time>
      </trkpt>
      <trkpt lat="45.93052" lon="5.83618">
        <ele>315</ele>
        <time>2021-09-11T12:30:55.831Z</time>
      </trkpt>
      <trkpt lat="45.93051" lon="5.83624">
        <ele>315</ele>
        <time>2021-09-11T12:30:56.832Z</time>
      </trkpt>
      <trkpt lat="45.9305" lon="5.8363">
        <ele>316</ele>
        <time>2021-09-11T12:30:57.832Z</time>
      </trkpt>
      <trkpt lat="45.93049" lon="5.83636">
        <ele>316</ele>
        <time>2021-09-11T12:30:58.832Z</time>
      </trkpt>
      <trkpt lat="45.93048" lon="5.83641">
        <ele>315</ele>
        <time>2021-09-11T12:30:59.832Z</time>
      </trkpt>
      <trkpt lat="45.93047" lon="5.83647">
        <ele>315</ele>
        <time>2021-09-11T12:31:00.832Z</time>
      </trkpt>
      <trkpt lat="45.93046" lon="5.83652">
        <ele>314</ele>
        <time>2021-09-11T12:31:01.831Z</time>
      </trkpt>
      <trkpt lat="45.93045" lon="5.83658">
        <ele>314</ele>
        <time>2021-09-11T12:31:02.832Z</time>
      </trkpt>
      <trkpt lat="45.93044" lon="5.83662">
        <ele>314</ele>
        <time>2021-09-11T12:31:03.831Z</time>
      </trkpt>
      <trkpt lat="45.93043" lon="5.83667">
        <ele>313</ele>
        <time>2021-09-11T12:31:04.832Z</time>
      </trkpt>
      <trkpt lat="45.93042" lon="5.83671">
        <ele>313</ele>
        <time>2021-09-11T12:31:05.832Z</time>
      </trkpt>
      <trkpt lat="45.93041" lon="5.83676">
        <ele>313</ele>
        <time>2021-09-11T12:31:06.832Z</time>
      </trkpt>
      <trkpt lat="45.9304" lon="5.83679">
        <ele>313</ele>
        <time>2021-09-11T12:31:07.832Z</time>
      </trkpt>
      <trkpt lat="45.93039" lon="5.83683">
        <ele>313</ele>
        <time>2021-09-11T12:31:08.832Z</time>
      </trkpt>
      <trkpt lat="45.93039" lon="5.83687">
        <ele>313</ele>
        <time>2021-09-11T12:31:09.832Z</time>
      </trkpt>
      <trkpt lat="45.93038" lon="5.8369">
        <ele>314</ele>
        <time>2021-09-11T12:31:10.832Z</time>
      </trkpt>
      <trkpt lat="45.93037" lon="5.83694">
        <ele>314</ele>
        <time>2021-09-11T12:31:11.832Z</time>
      </trkpt>
      <trkpt lat="45.93036" lon="5.83697">
        <ele>314</ele>
        <time>2021-09-11T12:31:12.832Z</time>
      </trkpt>
      <trkpt lat="45.93036" lon="5.83701">
        <ele>314</ele>
        <time>2021-09-11T12:31:13.831Z</time>
      </trkpt>
      <trkpt lat="45.93035" lon="5.83705">
        <ele>315</ele>
        <time>2021-09-11T12:31:14.832Z</time>
      </trkpt>
      <trkpt lat="45.93034" lon="5.83709">
        <ele>315</ele>
        <time>2021-09-11T12:31:15.832Z</time>
      </trkpt>
      <trkpt lat="45.93034" lon="5.83713">
        <ele>315</ele>
        <time>2021-09-11T12:31:16.832Z</time>
      </trkpt>
      <trkpt lat="45.93033" lon="5.83717">
        <ele>315</ele>
        <time>2021-09-11T12:31:17.832Z</time>
      </trkpt>
      <trkpt lat="45.93033" lon="5.83721">
        <ele>315</ele>
        <time>2021-09-11T12:31:18.832Z</time>
      </trkpt>
      <trkpt lat="45.93032" lon="5.83724">
        <ele>315</ele>
        <time>2021-09-11T12:31:19.832Z</time>
      </trkpt>
      <trkpt lat="45.93032" lon="5.83728">
        <ele>315</ele>
        <time>2021-09-11T12:31:20.832Z</time>
      </trkpt>
      <trkpt lat="45.93033" lon="5.83732">
        <ele>315</ele>
        <time>2021-09-11T12:31:21.831Z</time>
      </trkpt>
      <trkpt lat="45.93033" lon="5.83735">
        <ele>315</ele>
        <time>2021-09-11T12:31:22.831Z</time>
      </trkpt>
      <trkpt lat="45.93034" lon="5.83739">
        <ele>315</ele>
        <time>2021-09-11T12:31:23.832Z</time>
      </trkpt>
      <trkpt lat="45.93035" lon="5.83742">
        <ele>315</ele>
        <time>2021-09-11T12:31:24.832Z</time>
      </trkpt>
      <trkpt lat="45.93036" lon="5.83745">
        <ele>315</ele>
        <time>2021-09-11T12:31:25.832Z</time>
      </trkpt>
      <trkpt lat="45.93037" lon="5.83748">
        <ele>316</ele>
        <time>2021-09-11T12:31:26.832Z</time>
      </trkpt>
      <trkpt lat="45.93038" lon="5.83752">
        <ele>316</ele>
        <time>2021-09-11T12:31:27.832Z</time>
      </trkpt>
      <trkpt lat="45.9304" lon="5.83755">
        <ele>316</ele>
        <time>2021-09-11T12:31:28.832Z</time>
      </trkpt>
      <trkpt lat="45.93041" lon="5.83757">
        <ele>316</ele>
        <time>2021-09-11T12:31:29.832Z</time>
      </trkpt>
      <trkpt lat="45.93043" lon="5.8376">
        <ele>316</ele>
        <time>2021-09-11T12:31:30.831Z</time>
      </trkpt>
      <trkpt lat="45.93044" lon="5.83763">
        <ele>317</ele>
        <time>2021-09-11T12:31:31.832Z</time>
      </trkpt>
      <trkpt lat="45.93045" lon="5.83766">
        <ele>317</ele>
        <time>2021-09-11T12:31:32.832Z</time>
      </trkpt>
      <trkpt lat="45.93047" lon="5.83768">
        <ele>318</ele>
        <time>2021-09-11T12:31:33.832Z</time>
      </trkpt>
      <trkpt lat="45.93048" lon="5.83771">
        <ele>318</ele>
        <time>2021-09-11T12:31:34.832Z</time>
      </trkpt>
      <trkpt lat="45.93049" lon="5.83774">
        <ele>318</ele>
        <time>2021-09-11T12:31:35.832Z</time>
      </trkpt>
      <trkpt lat="45.93051" lon="5.83776">
        <ele>318</ele>
        <time>2021-09-11T12:31:36.831Z</time>
      </trkpt>
      <trkpt lat="45.93052" lon="5.83779">
        <ele>318</ele>
        <time>2021-09-11T12:31:37.832Z</time>
      </trkpt>
      <trkpt lat="45.93053" lon="5.83782">
        <ele>318</ele>
        <time>2021-09-11T12:31:38.832Z</time>
      </trkpt>
      <trkpt lat="45.93054" lon="5.83785">
        <ele>318</ele>
        <time>2021-09-11T12:31:39.832Z</time>
      </trkpt>
      <trkpt lat="45.93055" lon="5.83787">
        <ele>319</ele>
        <time>2021-09-11T12:31:40.832Z</time>
      </trkpt>
      <trkpt lat="45.93056" lon="5.8379">
        <ele>319</ele>
        <time>2021-09-11T12:31:41.832Z</time>
      </trkpt>
      <trkpt lat="45.93057" lon="5.83792">
        <ele>320</ele>
        <time>2021-09-11T12:31:42.832Z</time>
      </trkpt>
      <trkpt lat="45.93059" lon="5.83795">
        <ele>320</ele>
        <time>2021-09-11T12:31:43.832Z</time>
      </trkpt>
      <trkpt lat="45.9306" lon="5.83797">
        <ele>321</ele>
        <time>2021-09-11T12:31:44.832Z</time>
      </trkpt>
      <trkpt lat="45.93061" lon="5.83799">
        <ele>321</ele>
        <time>2021-09-11T12:31:45.832Z</time>
      </trkpt>
      <trkpt lat="45.93063" lon="5.83802">
        <ele>322</ele>
        <time>2021-09-11T12:31:46.832Z</time>
      </trkpt>
      <trkpt lat="45.93064" lon="5.83805">
        <ele>322</ele>
        <time>2021-09-11T12:31:47.832Z</time>
      </trkpt>
      <trkpt lat="45.93066" lon="5.83807">
        <ele>322</ele>
        <time>2021-09-11T12:31:48.832Z</time>
      </trkpt>
      <trkpt lat="45.93068" lon="5.8381">
        <ele>323</ele>
        <time>2021-09-11T12:31:49.832Z</time>
      </trkpt>
      <trkpt lat="45.93069" lon="5.83812">
        <ele>323</ele>
        <time>2021-09-11T12:31:50.831Z</time>
      </trkpt>
      <trkpt lat="45.93071" lon="5.83815">
        <ele>323</ele>
        <time>2021-09-11T12:31:51.832Z</time>
      </trkpt>
      <trkpt lat="45.93073" lon="5.83817">
        <ele>324</ele>
        <time>2021-09-11T12:31:52.831Z</time>
      </trkpt>
      <trkpt lat="45.93075" lon="5.8382">
        <ele>324</ele>
        <time>2021-09-11T12:31:53.831Z</time>
      </trkpt>
      <trkpt lat="45.93077" lon="5.83822">
        <ele>325</ele>
        <time>2021-09-11T12:31:54.831Z</time>
      </trkpt>
      <trkpt lat="45.93079" lon="5.83824">
        <ele>325</ele>
        <time>2021-09-11T12:31:55.832Z</time>
      </trkpt>
      <trkpt lat="45.93081" lon="5.83826">
        <ele>325</ele>
        <time>2021-09-11T12:31:56.832Z</time>
      </trkpt>
      <trkpt lat="45.93083" lon="5.83828">
        <ele>326</ele>
        <time>2021-09-11T12:31:57.832Z</time>
      </trkpt>
      <trkpt lat="45.93085" lon="5.8383">
        <ele>326</ele>
        <time>2021-09-11T12:31:58.832Z</time>
      </trkpt>
      <trkpt lat="45.93087" lon="5.83833">
        <ele>326</ele>
        <time>2021-09-11T12:31:59.832Z</time>
      </trkpt>
      <trkpt lat="45.93089" lon="5.83835">
        <ele>326</ele>
        <time>2021-09-11T12:32:00.831Z</time>
      </trkpt>
      <trkpt lat="45.93091" lon="5.83838">
        <ele>326</ele>
        <time>2021-09-11T12:32:01.832Z</time>
      </trkpt>
      <trkpt lat="45.93092" lon="5.8384">
        <ele>326</ele>
        <time>2021-09-11T12:32:02.831Z</time>
      </trkpt>
      <trkpt lat="45.93093" lon="5.83843">
        <ele>326</ele>
        <time>2021-09-11T12:32:03.831Z</time>
      </trkpt>
      <trkpt lat="45.93095" lon="5.83845">
        <ele>326</ele>
        <time>2021-09-11T12:32:04.832Z</time>
      </trkpt>
      <trkpt lat="45.93095" lon="5.83848">
        <ele>326</ele>
        <time>2021-09-11T12:32:05.832Z</time>
      </trkpt>
      <trkpt lat="45.93096" lon="5.83851">
        <ele>326</ele>
        <time>2021-09-11T12:32:06.832Z</time>
      </trkpt>
      <trkpt lat="45.93096" lon="5.83854">
        <ele>327</ele>
        <time>2021-09-11T12:32:07.831Z</time>
      </trkpt>
      <trkpt lat="45.93097" lon="5.83857">
        <ele>327</ele>
        <time>2021-09-11T12:32:08.832Z</time>
      </trkpt>
      <trkpt lat="45.93098" lon="5.8386">
        <ele>327</ele>
        <time>2021-09-11T12:32:09.832Z</time>
      </trkpt>
      <trkpt lat="45.93098" lon="5.83863">
        <ele>327</ele>
        <time>2021-09-11T12:32:10.832Z</time>
      </trkpt>
      <trkpt lat="45.93098" lon="5.83867">
        <ele>327</ele>
        <time>2021-09-11T12:32:11.832Z</time>
      </trkpt>
      <trkpt lat="45.93099" lon="5.8387">
        <ele>327</ele>
        <time>2021-09-11T12:32:12.832Z</time>
      </trkpt>
      <trkpt lat="45.93099" lon="5.83873">
        <ele>327</ele>
        <time>2021-09-11T12:32:13.831Z</time>
      </trkpt>
      <trkpt lat="45.93099" lon="5.83876">
        <ele>326</ele>
        <time>2021-09-11T12:32:14.832Z</time>
      </trkpt>
      <trkpt lat="45.93099" lon="5.83879">
        <ele>326</ele>
        <time>2021-09-11T12:32:15.832Z</time>
      </trkpt>
      <trkpt lat="45.93099" lon="5.83882">
        <ele>326</ele>
        <time>2021-09-11T12:32:16.832Z</time>
      </trkpt>
      <trkpt lat="45.93099" lon="5.83885">
        <ele>326</ele>
        <time>2021-09-11T12:32:17.832Z</time>
      </trkpt>
      <trkpt lat="45.931" lon="5.83888">
        <ele>326</ele>
        <time>2021-09-11T12:32:18.832Z</time>
      </trkpt>
      <trkpt lat="45.931" lon="5.83892">
        <ele>325</ele>
        <time>2021-09-11T12:32:19.832Z</time>
      </trkpt>
      <trkpt lat="45.93099" lon="5.83895">
        <ele>325</ele>
        <time>2021-09-11T12:32:20.832Z</time>
      </trkpt>
      <trkpt lat="45.93099" lon="5.83898">
        <ele>326</ele>
        <time>2021-09-11T12:32:21.832Z</time>
      </trkpt>
      <trkpt lat="45.93099" lon="5.83901">
        <ele>326</ele>
        <time>2021-09-11T12:32:22.831Z</time>
      </trkpt>
      <trkpt lat="45.93099" lon="5.83905">
        <ele>326</ele>
        <time>2021-09-11T12:32:23.832Z</time>
      </trkpt>
      <trkpt lat="45.93099" lon="5.83908">
        <ele>327</ele>
        <time>2021-09-11T12:32:24.832Z</time>
      </trkpt>
      <trkpt lat="45.93098" lon="5.83911">
        <ele>327</ele>
        <time>2021-09-11T12:32:25.832Z</time>
      </trkpt>
      <trkpt lat="45.93098" lon="5.83914">
        <ele>327</ele>
        <time>2021-09-11T12:32:26.831Z</time>
      </trkpt>
      <trkpt lat="45.93097" lon="5.83917">
        <ele>327</ele>
        <time>2021-09-11T12:32:27.831Z</time>
      </trkpt>
      <trkpt lat="45.93096" lon="5.8392">
        <ele>328</ele>
        <time>2021-09-11T12:32:28.832Z</time>
      </trkpt>
      <trkpt lat="45.93095" lon="5.83923">
        <ele>328</ele>
        <time>2021-09-11T12:32:29.832Z</time>
      </trkpt>
      <trkpt lat="45.93094" lon="5.83926">
        <ele>328</ele>
        <time>2021-09-11T12:32:30.832Z</time>
      </trkpt>
      <trkpt lat="45.93094" lon="5.8393">
        <ele>329</ele>
        <time>2021-09-11T12:32:31.832Z</time>
      </trkpt>
      <trkpt lat="45.93093" lon="5.83933">
        <ele>330</ele>
        <time>2021-09-11T12:32:32.832Z</time>
      </trkpt>
      <trkpt lat="45.93092" lon="5.83936">
        <ele>330</ele>
        <time>2021-09-11T12:32:33.832Z</time>
      </trkpt>
      <trkpt lat="45.9309" lon="5.83939">
        <ele>331</ele>
        <time>2021-09-11T12:32:34.832Z</time>
      </trkpt>
      <trkpt lat="45.93089" lon="5.83942">
        <ele>331</ele>
        <time>2021-09-11T12:32:35.832Z</time>
      </trkpt>
      <trkpt lat="45.93088" lon="5.83945">
        <ele>331</ele>
        <time>2021-09-11T12:32:36.832Z</time>
      </trkpt>
      <trkpt lat="45.93087" lon="5.83948">
        <ele>331</ele>
        <time>2021-09-11T12:32:37.832Z</time>
      </trkpt>
      <trkpt lat="45.93085" lon="5.8395">
        <ele>332</ele>
        <time>2021-09-11T12:32:38.831Z</time>
      </trkpt>
      <trkpt lat="45.93084" lon="5.83953">
        <ele>332</ele>
        <time>2021-09-11T12:32:39.831Z</time>
      </trkpt>
      <trkpt lat="45.93083" lon="5.83956">
        <ele>332</ele>
        <time>2021-09-11T12:32:40.832Z</time>
      </trkpt>
      <trkpt lat="45.93082" lon="5.83959">
        <ele>333</ele>
        <time>2021-09-11T12:32:41.831Z</time>
      </trkpt>
      <trkpt lat="45.9308" lon="5.83962">
        <ele>333</ele>
        <time>2021-09-11T12:32:42.832Z</time>
      </trkpt>
      <trkpt lat="45.93079" lon="5.83965">
        <ele>333</ele>
        <time>2021-09-11T12:32:43.831Z</time>
      </trkpt>
      <trkpt lat="45.93077" lon="5.83968">
        <ele>334</ele>
        <time>2021-09-11T12:32:44.831Z</time>
      </trkpt>
      <trkpt lat="45.93076" lon="5.83971">
        <ele>334</ele>
        <time>2021-09-11T12:32:45.832Z</time>
      </trkpt>
      <trkpt lat="45.93075" lon="5.83974">
        <ele>335</ele>
        <time>2021-09-11T12:32:46.832Z</time>
      </trkpt>
      <trkpt lat="45.93074" lon="5.83977">
        <ele>335</ele>
        <time>2021-09-11T12:32:47.831Z</time>
      </trkpt>
      <trkpt lat="45.93072" lon="5.83979">
        <ele>335</ele>
        <time>2021-09-11T12:32:48.832Z</time>
      </trkpt>
      <trkpt lat="45.9307" lon="5.83982">
        <ele>335</ele>
        <time>2021-09-11T12:32:49.831Z</time>
      </trkpt>
      <trkpt lat="45.93068" lon="5.83985">
        <ele>335</ele>
        <time>2021-09-11T12:32:50.832Z</time>
      </trkpt>
      <trkpt lat="45.93066" lon="5.83987">
        <ele>336</ele>
        <time>2021-09-11T12:32:51.832Z</time>
      </trkpt>
      <trkpt lat="45.93065" lon="5.8399">
        <ele>336</ele>
        <time>2021-09-11T12:32:52.832Z</time>
      </trkpt>
      <trkpt lat="45.93063" lon="5.83992">
        <ele>336</ele>
        <time>2021-09-11T12:32:53.832Z</time>
      </trkpt>
      <trkpt lat="45.93061" lon="5.83994">
        <ele>336</ele>
        <time>2021-09-11T12:32:54.832Z</time>
      </trkpt>
      <trkpt lat="45.9306" lon="5.83996">
        <ele>336</ele>
        <time>2021-09-11T12:32:55.832Z</time>
      </trkpt>
      <trkpt lat="45.93058" lon="5.83998">
        <ele>336</ele>
        <time>2021-09-11T12:32:56.832Z</time>
      </trkpt>
      <trkpt lat="45.93056" lon="5.84">
        <ele>337</ele>
        <time>2021-09-11T12:32:57.832Z</time>
      </trkpt>
      <trkpt lat="45.93054" lon="5.84002">
        <ele>337</ele>
        <time>2021-09-11T12:32:58.832Z</time>
      </trkpt>
      <trkpt lat="45.93051" lon="5.84004">
        <ele>337</ele>
        <time>2021-09-11T12:32:59.832Z</time>
      </trkpt>
      <trkpt lat="45.93049" lon="5.84006">
        <ele>337</ele>
        <time>2021-09-11T12:33:00.832Z</time>
      </trkpt>
      <trkpt lat="45.93047" lon="5.84008">
        <ele>337</ele>
        <time>2021-09-11T12:33:01.832Z</time>
      </trkpt>
      <trkpt lat="45.93045" lon="5.84009">
        <ele>337</ele>
        <time>2021-09-11T12:33:02.832Z</time>
      </trkpt>
      <trkpt lat="45.93043" lon="5.84011">
        <ele>337</ele>
        <time>2021-09-11T12:33:03.831Z</time>
      </trkpt>
      <trkpt lat="45.93041" lon="5.84012">
        <ele>337</ele>
        <time>2021-09-11T12:33:04.831Z</time>
      </trkpt>
      <trkpt lat="45.93039" lon="5.84013">
        <ele>337</ele>
        <time>2021-09-11T12:33:05.832Z</time>
      </trkpt>
      <trkpt lat="45.93037" lon="5.84014">
        <ele>337</ele>
        <time>2021-09-11T12:33:06.832Z</time>
      </trkpt>
      <trkpt lat="45.93035" lon="5.84015">
        <ele>337</ele>
        <time>2021-09-11T12:33:07.832Z</time>
      </trkpt>
      <trkpt lat="45.93033" lon="5.84016">
        <ele>337</ele>
        <time>2021-09-11T12:33:08.831Z</time>
      </trkpt>
      <trkpt lat="45.93031" lon="5.84017">
        <ele>337</ele>
        <time>2021-09-11T12:33:09.831Z</time>
      </trkpt>
      <trkpt lat="45.93028" lon="5.84018">
        <ele>337</ele>
        <time>2021-09-11T12:33:10.832Z</time>
      </trkpt>
      <trkpt lat="45.93026" lon="5.84019">
        <ele>337</ele>
        <time>2021-09-11T12:33:11.831Z</time>
      </trkpt>
      <trkpt lat="45.93024" lon="5.8402">
        <ele>337</ele>
        <time>2021-09-11T12:33:12.832Z</time>
      </trkpt>
      <trkpt lat="45.93021" lon="5.84022">
        <ele>337</ele>
        <time>2021-09-11T12:33:13.832Z</time>
      </trkpt>
      <trkpt lat="45.93019" lon="5.84023">
        <ele>337</ele>
        <time>2021-09-11T12:33:14.832Z</time>
      </trkpt>
      <trkpt lat="45.93017" lon="5.84025">
        <ele>337</ele>
        <time>2021-09-11T12:33:15.832Z</time>
      </trkpt>
      <trkpt lat="45.93015" lon="5.84027">
        <ele>338</ele>
        <time>2021-09-11T12:33:16.832Z</time>
      </trkpt>
      <trkpt lat="45.93013" lon="5.84028">
        <ele>338</ele>
        <time>2021-09-11T12:33:17.831Z</time>
      </trkpt>
      <trkpt lat="45.93011" lon="5.8403">
        <ele>338</ele>
        <time>2021-09-11T12:33:18.832Z</time>
      </trkpt>
      <trkpt lat="45.93009" lon="5.84032">
        <ele>338</ele>
        <time>2021-09-11T12:33:19.832Z</time>
      </trkpt>
      <trkpt lat="45.93008" lon="5.84034">
        <ele>338</ele>
        <time>2021-09-11T12:33:20.832Z</time>
      </trkpt>
      <trkpt lat="45.93006" lon="5.84036">
        <ele>339</ele>
        <time>2021-09-11T12:33:21.832Z</time>
      </trkpt>
      <trkpt lat="45.93005" lon="5.84038">
        <ele>339</ele>
        <time>2021-09-11T12:33:22.832Z</time>
      </trkpt>
      <trkpt lat="45.93004" lon="5.84041">
        <ele>338</ele>
        <time>2021-09-11T12:33:23.832Z</time>
      </trkpt>
      <trkpt lat="45.93003" lon="5.84043">
        <ele>338</ele>
        <time>2021-09-11T12:33:24.832Z</time>
      </trkpt>
      <trkpt lat="45.93002" lon="5.84046">
        <ele>337</ele>
        <time>2021-09-11T12:33:25.832Z</time>
      </trkpt>
      <trkpt lat="45.93" lon="5.84048">
        <ele>336</ele>
        <time>2021-09-11T12:33:26.832Z</time>
      </trkpt>
      <trkpt lat="45.92999" lon="5.84051">
        <ele>336</ele>
        <time>2021-09-11T12:33:27.832Z</time>
      </trkpt>
      <trkpt lat="45.92998" lon="5.84054">
        <ele>336</ele>
        <time>2021-09-11T12:33:28.831Z</time>
      </trkpt>
      <trkpt lat="45.92997" lon="5.84057">
        <ele>336</ele>
        <time>2021-09-11T12:33:29.831Z</time>
      </trkpt>
      <trkpt lat="45.92996" lon="5.84059">
        <ele>336</ele>
        <time>2021-09-11T12:33:30.832Z</time>
      </trkpt>
      <trkpt lat="45.92995" lon="5.84062">
        <ele>336</ele>
        <time>2021-09-11T12:33:31.832Z</time>
      </trkpt>
      <trkpt lat="45.92994" lon="5.84065">
        <ele>336</ele>
        <time>2021-09-11T12:33:32.832Z</time>
      </trkpt>
      <trkpt lat="45.92993" lon="5.84068">
        <ele>336</ele>
        <time>2021-09-11T12:33:33.832Z</time>
      </trkpt>
      <trkpt lat="45.92992" lon="5.84071">
        <ele>336</ele>
        <time>2021-09-11T12:33:34.832Z</time>
      </trkpt>
      <trkpt lat="45.92991" lon="5.84073">
        <ele>336</ele>
        <time>2021-09-11T12:33:35.832Z</time>
      </trkpt>
      <trkpt lat="45.9299" lon="5.84076">
        <ele>336</ele>
        <time>2021-09-11T12:33:36.832Z</time>
      </trkpt>
      <trkpt lat="45.92988" lon="5.84078">
        <ele>337</ele>
        <time>2021-09-11T12:33:37.832Z</time>
      </trkpt>
      <trkpt lat="45.92986" lon="5.8408">
        <ele>337</ele>
        <time>2021-09-11T12:33:38.832Z</time>
      </trkpt>
      <trkpt lat="45.92984" lon="5.84082">
        <ele>338</ele>
        <time>2021-09-11T12:33:39.831Z</time>
      </trkpt>
      <trkpt lat="45.92982" lon="5.84083">
        <ele>339</ele>
        <time>2021-09-11T12:33:40.832Z</time>
      </trkpt>
      <trkpt lat="45.9298" lon="5.84084">
        <ele>339</ele>
        <time>2021-09-11T12:33:41.832Z</time>
      </trkpt>
      <trkpt lat="45.92978" lon="5.84084">
        <ele>340</ele>
        <time>2021-09-11T12:33:42.832Z</time>
      </trkpt>
      <trkpt lat="45.92976" lon="5.84084">
        <ele>341</ele>
        <time>2021-09-11T12:33:43.831Z</time>
      </trkpt>
      <trkpt lat="45.92974" lon="5.84083">
        <ele>341</ele>
        <time>2021-09-11T12:33:44.832Z</time>
      </trkpt>
      <trkpt lat="45.92972" lon="5.84081">
        <ele>340</ele>
        <time>2021-09-11T12:33:45.832Z</time>
      </trkpt>
      <trkpt lat="45.9297" lon="5.8408">
        <ele>340</ele>
        <time>2021-09-11T12:33:46.832Z</time>
      </trkpt>
      <trkpt lat="45.92968" lon="5.84078">
        <ele>340</ele>
        <time>2021-09-11T12:33:47.832Z</time>
      </trkpt>
      <trkpt lat="45.92967" lon="5.84076">
        <ele>341</ele>
        <time>2021-09-11T12:33:48.832Z</time>
      </trkpt>
      <trkpt lat="45.92965" lon="5.84074">
        <ele>341</ele>
        <time>2021-09-11T12:33:49.832Z</time>
      </trkpt>
      <trkpt lat="45.92964" lon="5.84071">
        <ele>342</ele>
        <time>2021-09-11T12:33:50.832Z</time>
      </trkpt>
      <trkpt lat="45.92962" lon="5.84068">
        <ele>342</ele>
        <time>2021-09-11T12:33:51.832Z</time>
      </trkpt>
      <trkpt lat="45.92961" lon="5.84066">
        <ele>342</ele>
        <time>2021-09-11T12:33:52.832Z</time>
      </trkpt>
      <trkpt lat="45.9296" lon="5.84063">
        <ele>342</ele>
        <time>2021-09-11T12:33:53.831Z</time>
      </trkpt>
      <trkpt lat="45.92959" lon="5.84061">
        <ele>342</ele>
        <time>2021-09-11T12:33:54.832Z</time>
      </trkpt>
      <trkpt lat="45.92958" lon="5.84058">
        <ele>342</ele>
        <time>2021-09-11T12:33:55.831Z</time>
      </trkpt>
      <trkpt lat="45.92957" lon="5.84055">
        <ele>342</ele>
        <time>2021-09-11T12:33:56.832Z</time>
      </trkpt>
      <trkpt lat="45.92956" lon="5.84052">
        <ele>342</ele>
        <time>2021-09-11T12:33:57.832Z</time>
      </trkpt>
      <trkpt lat="45.92955" lon="5.8405">
        <ele>342</ele>
        <time>2021-09-11T12:33:58.831Z</time>
      </trkpt>
      <trkpt lat="45.92954" lon="5.84047">
        <ele>342</ele>
        <time>2021-09-11T12:33:59.832Z</time>
      </trkpt>
      <trkpt lat="45.92953" lon="5.84045">
        <ele>342</ele>
        <time>2021-09-11T12:34:00.832Z</time>
      </trkpt>
      <trkpt lat="45.92952" lon="5.84042">
        <ele>342</ele>
        <time>2021-09-11T12:34:01.831Z</time>
      </trkpt>
      <trkpt lat="45.92951" lon="5.8404">
        <ele>343</ele>
        <time>2021-09-11T12:34:02.832Z</time>
      </trkpt>
      <trkpt lat="45.9295" lon="5.84037">
        <ele>343</ele>
        <time>2021-09-11T12:34:03.831Z</time>
      </trkpt>
      <trkpt lat="45.92949" lon="5.84035">
        <ele>343</ele>
        <time>2021-09-11T12:34:04.832Z</time>
      </trkpt>
      <trkpt lat="45.92948" lon="5.84032">
        <ele>343</ele>
        <time>2021-09-11T12:34:05.832Z</time>
      </trkpt>
      <trkpt lat="45.92947" lon="5.84029">
        <ele>343</ele>
        <time>2021-09-11T12:34:06.831Z</time>
      </trkpt>
      <trkpt lat="45.92946" lon="5.84026">
        <ele>344</ele>
        <time>2021-09-11T12:34:07.832Z</time>
      </trkpt>
      <trkpt lat="45.92945" lon="5.84023">
        <ele>344</ele>
        <time>2021-09-11T12:34:08.832Z</time>
      </trkpt>
      <trkpt lat="45.92944" lon="5.8402">
        <ele>344</ele>
        <time>2021-09-11T12:34:09.832Z</time>
      </trkpt>
      <trkpt lat="45.92944" lon="5.84017">
        <ele>343</ele>
        <time>2021-09-11T12:34:10.832Z</time>
      </trkpt>
      <trkpt lat="45.92943" lon="5.84013">
        <ele>343</ele>
        <time>2021-09-11T12:34:11.832Z</time>
      </trkpt>
      <trkpt lat="45.92943" lon="5.8401">
        <ele>343</ele>
        <time>2021-09-11T12:34:12.832Z</time>
      </trkpt>
      <trkpt lat="45.92942" lon="5.84007">
        <ele>344</ele>
        <time>2021-09-11T12:34:13.831Z</time>
      </trkpt>
      <trkpt lat="45.92942" lon="5.84004">
        <ele>344</ele>
        <time>2021-09-11T12:34:14.832Z</time>
      </trkpt>
      <trkpt lat="45.92941" lon="5.84002">
        <ele>345</ele>
        <time>2021-09-11T12:34:15.832Z</time>
      </trkpt>
      <trkpt lat="45.9294" lon="5.83999">
        <ele>345</ele>
        <time>2021-09-11T12:34:16.832Z</time>
      </trkpt>
      <trkpt lat="45.92939" lon="5.83996">
        <ele>346</ele>
        <time>2021-09-11T12:34:57.982Z</time>
      </trkpt>
      <trkpt lat="45.92938" lon="5.83994">
        <ele>346</ele>
        <time>2021-09-11T12:34:58.982Z</time>
      </trkpt>
      <trkpt lat="45.92936" lon="5.83991">
        <ele>347</ele>
        <time>2021-09-11T12:34:59.981Z</time>
      </trkpt>
      <trkpt lat="45.92935" lon="5.8399">
        <ele>347</ele>
        <time>2021-09-11T12:35:00.982Z</time>
      </trkpt>
      <trkpt lat="45.92933" lon="5.83989">
        <ele>347</ele>
        <time>2021-09-11T12:35:01.982Z</time>
      </trkpt>
      <trkpt lat="45.9293" lon="5.83989">
        <ele>348</ele>
        <time>2021-09-11T12:35:02.982Z</time>
      </trkpt>
      <trkpt lat="45.92928" lon="5.83989">
        <ele>348</ele>
        <time>2021-09-11T12:35:03.981Z</time>
      </trkpt>
      <trkpt lat="45.92926" lon="5.8399">
        <ele>349</ele>
        <time>2021-09-11T12:35:04.981Z</time>
      </trkpt>
      <trkpt lat="45.92924" lon="5.83992">
        <ele>349</ele>
        <time>2021-09-11T12:35:05.982Z</time>
      </trkpt>
      <trkpt lat="45.92923" lon="5.83994">
        <ele>350</ele>
        <time>2021-09-11T12:35:06.982Z</time>
      </trkpt>
      <trkpt lat="45.92922" lon="5.83996">
        <ele>350</ele>
        <time>2021-09-11T12:35:07.982Z</time>
      </trkpt>
      <trkpt lat="45.92921" lon="5.83998">
        <ele>350</ele>
        <time>2021-09-11T12:35:08.982Z</time>
      </trkpt>
      <trkpt lat="45.9292" lon="5.84001">
        <ele>350</ele>
        <time>2021-09-11T12:35:09.982Z</time>
      </trkpt>
      <trkpt lat="45.92919" lon="5.84004">
        <ele>350</ele>
        <time>2021-09-11T12:35:10.982Z</time>
      </trkpt>
      <trkpt lat="45.92918" lon="5.84007">
        <ele>350</ele>
        <time>2021-09-11T12:35:11.981Z</time>
      </trkpt>
      <trkpt lat="45.92917" lon="5.8401">
        <ele>350</ele>
        <time>2021-09-11T12:35:12.982Z</time>
      </trkpt>
      <trkpt lat="45.92917" lon="5.84013">
        <ele>350</ele>
        <time>2021-09-11T12:35:13.982Z</time>
      </trkpt>
      <trkpt lat="45.92916" lon="5.84015">
        <ele>349</ele>
        <time>2021-09-11T12:35:14.982Z</time>
      </trkpt>
      <trkpt lat="45.92916" lon="5.84018">
        <ele>349</ele>
        <time>2021-09-11T12:35:15.981Z</time>
      </trkpt>
      <trkpt lat="45.92915" lon="5.84021">
        <ele>349</ele>
        <time>2021-09-11T12:35:16.982Z</time>
      </trkpt>
      <trkpt lat="45.92915" lon="5.84024">
        <ele>349</ele>
        <time>2021-09-11T12:35:17.982Z</time>
      </trkpt>
      <trkpt lat="45.92914" lon="5.84027">
        <ele>350</ele>
        <time>2021-09-11T12:35:18.981Z</time>
      </trkpt>
      <trkpt lat="45.92914" lon="5.8403">
        <ele>350</ele>
        <time>2021-09-11T12:35:19.982Z</time>
      </trkpt>
      <trkpt lat="45.92913" lon="5.84032">
        <ele>350</ele>
        <time>2021-09-11T12:35:20.982Z</time>
      </trkpt>
      <trkpt lat="45.92913" lon="5.84035">
        <ele>350</ele>
        <time>2021-09-11T12:35:21.982Z</time>
      </trkpt>
      <trkpt lat="45.92912" lon="5.84038">
        <ele>350</ele>
        <time>2021-09-11T12:35:22.982Z</time>
      </trkpt>
      <trkpt lat="45.92911" lon="5.84041">
        <ele>350</ele>
        <time>2021-09-11T12:35:23.982Z</time>
      </trkpt>
      <trkpt lat="45.92911" lon="5.84043">
        <ele>350</ele>
        <time>2021-09-11T12:35:24.981Z</time>
      </trkpt>
      <trkpt lat="45.9291" lon="5.84046">
        <ele>351</ele>
        <time>2021-09-11T12:35:25.981Z</time>
      </trkpt>
      <trkpt lat="45.9291" lon="5.84048">
        <ele>351</ele>
        <time>2021-09-11T12:35:26.982Z</time>
      </trkpt>
      <trkpt lat="45.92909" lon="5.84051">
        <ele>351</ele>
        <time>2021-09-11T12:35:27.982Z</time>
      </trkpt>
      <trkpt lat="45.92909" lon="5.84054">
        <ele>352</ele>
        <time>2021-09-11T12:35:28.981Z</time>
      </trkpt>
      <trkpt lat="45.92908" lon="5.84057">
        <ele>352</ele>
        <time>2021-09-11T12:35:29.982Z</time>
      </trkpt>
      <trkpt lat="45.92907" lon="5.84059">
        <ele>352</ele>
        <time>2021-09-11T12:35:30.982Z</time>
      </trkpt>
      <trkpt lat="45.92906" lon="5.84061">
        <ele>352</ele>
        <time>2021-09-11T12:35:31.981Z</time>
      </trkpt>
      <trkpt lat="45.92905" lon="5.84064">
        <ele>352</ele>
        <time>2021-09-11T12:35:32.981Z</time>
      </trkpt>
      <trkpt lat="45.92904" lon="5.84067">
        <ele>352</ele>
        <time>2021-09-11T12:35:33.981Z</time>
      </trkpt>
      <trkpt lat="45.92903" lon="5.84069">
        <ele>353</ele>
        <time>2021-09-11T12:35:34.982Z</time>
      </trkpt>
      <trkpt lat="45.92903" lon="5.84072">
        <ele>353</ele>
        <time>2021-09-11T12:35:35.982Z</time>
      </trkpt>
      <trkpt lat="45.92902" lon="5.84074">
        <ele>353</ele>
        <time>2021-09-11T12:35:36.982Z</time>
      </trkpt>
      <trkpt lat="45.92901" lon="5.84077">
        <ele>353</ele>
        <time>2021-09-11T12:35:37.982Z</time>
      </trkpt>
      <trkpt lat="45.929" lon="5.84079">
        <ele>353</ele>
        <time>2021-09-11T12:35:38.982Z</time>
      </trkpt>
      <trkpt lat="45.92899" lon="5.84081">
        <ele>353</ele>
        <time>2021-09-11T12:35:39.982Z</time>
      </trkpt>
      <trkpt lat="45.92899" lon="5.84084">
        <ele>352</ele>
        <time>2021-09-11T12:35:40.981Z</time>
      </trkpt>
      <trkpt lat="45.92898" lon="5.84086">
        <ele>352</ele>
        <time>2021-09-11T12:35:41.982Z</time>
      </trkpt>
      <trkpt lat="45.92897" lon="5.84088">
        <ele>352</ele>
        <time>2021-09-11T12:35:42.981Z</time>
      </trkpt>
      <trkpt lat="45.92896" lon="5.84091">
        <ele>353</ele>
        <time>2021-09-11T12:35:43.982Z</time>
      </trkpt>
      <trkpt lat="45.92895" lon="5.84093">
        <ele>353</ele>
        <time>2021-09-11T12:35:44.982Z</time>
      </trkpt>
      <trkpt lat="45.92894" lon="5.84095">
        <ele>353</ele>
        <time>2021-09-11T12:35:45.982Z</time>
      </trkpt>
      <trkpt lat="45.92893" lon="5.84098">
        <ele>353</ele>
        <time>2021-09-11T12:35:46.982Z</time>
      </trkpt>
      <trkpt lat="45.92892" lon="5.84101">
        <ele>354</ele>
        <time>2021-09-11T12:35:47.981Z</time>
      </trkpt>
      <trkpt lat="45.92891" lon="5.84103">
        <ele>353</ele>
        <time>2021-09-11T12:35:48.981Z</time>
      </trkpt>
      <trkpt lat="45.9289" lon="5.84105">
        <ele>353</ele>
        <time>2021-09-11T12:35:49.982Z</time>
      </trkpt>
      <trkpt lat="45.92889" lon="5.84107">
        <ele>353</ele>
        <time>2021-09-11T12:35:50.982Z</time>
      </trkpt>
      <trkpt lat="45.92888" lon="5.8411">
        <ele>352</ele>
        <time>2021-09-11T12:35:51.982Z</time>
      </trkpt>
      <trkpt lat="45.92886" lon="5.84112">
        <ele>352</ele>
        <time>2021-09-11T12:35:52.982Z</time>
      </trkpt>
      <trkpt lat="45.92885" lon="5.84114">
        <ele>352</ele>
        <time>2021-09-11T12:35:53.981Z</time>
      </trkpt>
      <trkpt lat="45.92884" lon="5.84116">
        <ele>352</ele>
        <time>2021-09-11T12:35:54.982Z</time>
      </trkpt>
      <trkpt lat="45.92883" lon="5.84118">
        <ele>352</ele>
        <time>2021-09-11T12:35:55.982Z</time>
      </trkpt>
      <trkpt lat="45.92882" lon="5.8412">
        <ele>352</ele>
        <time>2021-09-11T12:35:56.981Z</time>
      </trkpt>
      <trkpt lat="45.9288" lon="5.84122">
        <ele>352</ele>
        <time>2021-09-11T12:35:57.982Z</time>
      </trkpt>
      <trkpt lat="45.92879" lon="5.84125">
        <ele>352</ele>
        <time>2021-09-11T12:35:58.982Z</time>
      </trkpt>
      <trkpt lat="45.92878" lon="5.84127">
        <ele>352</ele>
        <time>2021-09-11T12:35:59.982Z</time>
      </trkpt>
      <trkpt lat="45.92877" lon="5.84129">
        <ele>352</ele>
        <time>2021-09-11T12:36:00.982Z</time>
      </trkpt>
      <trkpt lat="45.92875" lon="5.84131">
        <ele>352</ele>
        <time>2021-09-11T12:36:01.982Z</time>
      </trkpt>
      <trkpt lat="45.92874" lon="5.84133">
        <ele>352</ele>
        <time>2021-09-11T12:36:02.982Z</time>
      </trkpt>
      <trkpt lat="45.92872" lon="5.84135">
        <ele>353</ele>
        <time>2021-09-11T12:36:03.981Z</time>
      </trkpt>
      <trkpt lat="45.92871" lon="5.84136">
        <ele>353</ele>
        <time>2021-09-11T12:36:04.982Z</time>
      </trkpt>
      <trkpt lat="45.92869" lon="5.84138">
        <ele>354</ele>
        <time>2021-09-11T12:36:05.982Z</time>
      </trkpt>
      <trkpt lat="45.92868" lon="5.8414">
        <ele>354</ele>
        <time>2021-09-11T12:36:06.982Z</time>
      </trkpt>
      <trkpt lat="45.92866" lon="5.84143">
        <ele>355</ele>
        <time>2021-09-11T12:36:07.981Z</time>
      </trkpt>
      <trkpt lat="45.92865" lon="5.84145">
        <ele>356</ele>
        <time>2021-09-11T12:36:08.982Z</time>
      </trkpt>
      <trkpt lat="45.92864" lon="5.84148">
        <ele>356</ele>
        <time>2021-09-11T12:36:09.981Z</time>
      </trkpt>
      <trkpt lat="45.92864" lon="5.8415">
        <ele>356</ele>
        <time>2021-09-11T12:36:10.982Z</time>
      </trkpt>
      <trkpt lat="45.92863" lon="5.84152">
        <ele>356</ele>
        <time>2021-09-11T12:36:11.982Z</time>
      </trkpt>
      <trkpt lat="45.92862" lon="5.84155">
        <ele>356</ele>
        <time>2021-09-11T12:36:12.982Z</time>
      </trkpt>
      <trkpt lat="45.92861" lon="5.84157">
        <ele>356</ele>
        <time>2021-09-11T12:36:13.982Z</time>
      </trkpt>
      <trkpt lat="45.9286" lon="5.8416">
        <ele>356</ele>
        <time>2021-09-11T12:37:31.105Z</time>
      </trkpt>
      <trkpt lat="45.92859" lon="5.84163">
        <ele>357</ele>
        <time>2021-09-11T12:37:32.105Z</time>
      </trkpt>
      <trkpt lat="45.92859" lon="5.84165">
        <ele>357</ele>
        <time>2021-09-11T12:37:33.105Z</time>
      </trkpt>
      <trkpt lat="45.92858" lon="5.84168">
        <ele>357</ele>
        <time>2021-09-11T12:37:34.105Z</time>
      </trkpt>
      <trkpt lat="45.92857" lon="5.84171">
        <ele>357</ele>
        <time>2021-09-11T12:37:35.105Z</time>
      </trkpt>
      <trkpt lat="45.92857" lon="5.84174">
        <ele>358</ele>
        <time>2021-09-11T12:37:36.105Z</time>
      </trkpt>
      <trkpt lat="45.92856" lon="5.84177">
        <ele>358</ele>
        <time>2021-09-11T12:37:37.105Z</time>
      </trkpt>
      <trkpt lat="45.92855" lon="5.84179">
        <ele>357</ele>
        <time>2021-09-11T12:37:38.104Z</time>
      </trkpt>
      <trkpt lat="45.92855" lon="5.84182">
        <ele>357</ele>
        <time>2021-09-11T12:37:39.105Z</time>
      </trkpt>
      <trkpt lat="45.92854" lon="5.84185">
        <ele>357</ele>
        <time>2021-09-11T12:37:40.105Z</time>
      </trkpt>
      <trkpt lat="45.92853" lon="5.84188">
        <ele>358</ele>
        <time>2021-09-11T12:37:41.105Z</time>
      </trkpt>
      <trkpt lat="45.92853" lon="5.84191">
        <ele>358</ele>
        <time>2021-09-11T12:37:42.105Z</time>
      </trkpt>
      <trkpt lat="45.92852" lon="5.84194">
        <ele>358</ele>
        <time>2021-09-11T12:37:43.104Z</time>
      </trkpt>
      <trkpt lat="45.92852" lon="5.84197">
        <ele>358</ele>
        <time>2021-09-11T12:37:44.105Z</time>
      </trkpt>
      <trkpt lat="45.92851" lon="5.842">
        <ele>359</ele>
        <time>2021-09-11T12:37:45.104Z</time>
      </trkpt>
      <trkpt lat="45.9285" lon="5.84203">
        <ele>359</ele>
        <time>2021-09-11T12:37:46.105Z</time>
      </trkpt>
      <trkpt lat="45.9285" lon="5.84206">
        <ele>359</ele>
        <time>2021-09-11T12:37:47.104Z</time>
      </trkpt>
      <trkpt lat="45.92849" lon="5.84209">
        <ele>360</ele>
        <time>2021-09-11T12:37:48.105Z</time>
      </trkpt>
      <trkpt lat="45.92848" lon="5.84212">
        <ele>360</ele>
        <time>2021-09-11T12:37:49.105Z</time>
      </trkpt>
      <trkpt lat="45.92847" lon="5.84215">
        <ele>360</ele>
        <time>2021-09-11T12:37:50.105Z</time>
      </trkpt>
      <trkpt lat="45.92846" lon="5.84218">
        <ele>360</ele>
        <time>2021-09-11T12:37:51.105Z</time>
      </trkpt>
      <trkpt lat="45.92846" lon="5.84221">
        <ele>360</ele>
        <time>2021-09-11T12:37:52.105Z</time>
      </trkpt>
      <trkpt lat="45.92845" lon="5.84224">
        <ele>360</ele>
        <time>2021-09-11T12:37:53.104Z</time>
      </trkpt>
      <trkpt lat="45.92845" lon="5.84227">
        <ele>359</ele>
        <time>2021-09-11T12:37:54.105Z</time>
      </trkpt>
      <trkpt lat="45.92844" lon="5.8423">
        <ele>359</ele>
        <time>2021-09-11T12:37:55.104Z</time>
      </trkpt>
      <trkpt lat="45.92843" lon="5.84233">
        <ele>359</ele>
        <time>2021-09-11T12:37:56.105Z</time>
      </trkpt>
      <trkpt lat="45.92843" lon="5.84236">
        <ele>360</ele>
        <time>2021-09-11T12:40:30.107Z</time>
      </trkpt>
      <trkpt lat="45.92842" lon="5.8424">
        <ele>360</ele>
        <time>2021-09-11T12:40:31.107Z</time>
      </trkpt>
      <trkpt lat="45.92842" lon="5.84243">
        <ele>360</ele>
        <time>2021-09-11T12:40:32.106Z</time>
      </trkpt>
      <trkpt lat="45.92841" lon="5.84246">
        <ele>361</ele>
        <time>2021-09-11T12:40:33.107Z</time>
      </trkpt>
      <trkpt lat="45.92841" lon="5.84249">
        <ele>362</ele>
        <time>2021-09-11T12:40:34.107Z</time>
      </trkpt>
      <trkpt lat="45.92841" lon="5.84252">
        <ele>362</ele>
        <time>2021-09-11T12:40:35.107Z</time>
      </trkpt>
      <trkpt lat="45.9284" lon="5.84255">
        <ele>363</ele>
        <time>2021-09-11T12:40:36.107Z</time>
      </trkpt>
      <trkpt lat="45.9284" lon="5.84258">
        <ele>363</ele>
        <time>2021-09-11T12:40:37.107Z</time>
      </trkpt>
      <trkpt lat="45.92839" lon="5.84261">
        <ele>363</ele>
        <time>2021-09-11T12:40:38.107Z</time>
      </trkpt>
      <trkpt lat="45.92839" lon="5.84265">
        <ele>363</ele>
        <time>2021-09-11T12:40:39.106Z</time>
      </trkpt>
      <trkpt lat="45.92839" lon="5.84268">
        <ele>363</ele>
        <time>2021-09-11T12:40:40.106Z</time>
      </trkpt>
      <trkpt lat="45.92839" lon="5.84271">
        <ele>364</ele>
        <time>2021-09-11T12:40:41.107Z</time>
      </trkpt>
      <trkpt lat="45.9284" lon="5.84274">
        <ele>364</ele>
        <time>2021-09-11T12:40:42.106Z</time>
      </trkpt>
      <trkpt lat="45.9284" lon="5.84277">
        <ele>364</ele>
        <time>2021-09-11T12:40:43.107Z</time>
      </trkpt>
      <trkpt lat="45.9284" lon="5.84279">
        <ele>364</ele>
        <time>2021-09-11T12:40:44.107Z</time>
      </trkpt>
      <trkpt lat="45.92841" lon="5.84282">
        <ele>364</ele>
        <time>2021-09-11T12:40:45.107Z</time>
      </trkpt>
      <trkpt lat="45.92842" lon="5.84285">
        <ele>364</ele>
        <time>2021-09-11T12:40:46.106Z</time>
      </trkpt>
      <trkpt lat="45.92843" lon="5.84288">
        <ele>364</ele>
        <time>2021-09-11T12:40:47.107Z</time>
      </trkpt>
      <trkpt lat="45.92843" lon="5.84291">
        <ele>365</ele>
        <time>2021-09-11T12:40:48.107Z</time>
      </trkpt>
      <trkpt lat="45.92844" lon="5.84294">
        <ele>365</ele>
        <time>2021-09-11T12:40:49.107Z</time>
      </trkpt>
      <trkpt lat="45.92845" lon="5.84296">
        <ele>365</ele>
        <time>2021-09-11T12:40:50.107Z</time>
      </trkpt>
      <trkpt lat="45.92846" lon="5.843">
        <ele>365</ele>
        <time>2021-09-11T12:40:51.107Z</time>
      </trkpt>
      <trkpt lat="45.92847" lon="5.84303">
        <ele>365</ele>
        <time>2021-09-11T12:40:52.107Z</time>
      </trkpt>
      <trkpt lat="45.92848" lon="5.84306">
        <ele>365</ele>
        <time>2021-09-11T12:40:53.106Z</time>
      </trkpt>
      <trkpt lat="45.92849" lon="5.84309">
        <ele>365</ele>
        <time>2021-09-11T12:40:54.107Z</time>
      </trkpt>
      <trkpt lat="45.9285" lon="5.84312">
        <ele>365</ele>
        <time>2021-09-11T12:40:55.107Z</time>
      </trkpt>
      <trkpt lat="45.92851" lon="5.84315">
        <ele>365</ele>
        <time>2021-09-11T12:40:56.107Z</time>
      </trkpt>
      <trkpt lat="45.92852" lon="5.84317">
        <ele>365</ele>
        <time>2021-09-11T12:40:57.106Z</time>
      </trkpt>
      <trkpt lat="45.92853" lon="5.8432">
        <ele>365</ele>
        <time>2021-09-11T12:40:58.106Z</time>
      </trkpt>
      <trkpt lat="45.92854" lon="5.84323">
        <ele>365</ele>
        <time>2021-09-11T12:40:59.107Z</time>
      </trkpt>
      <trkpt lat="45.92855" lon="5.84326">
        <ele>365</ele>
        <time>2021-09-11T12:41:00.106Z</time>
      </trkpt>
      <trkpt lat="45.92856" lon="5.84329">
        <ele>365</ele>
        <time>2021-09-11T12:41:01.107Z</time>
      </trkpt>
      <trkpt lat="45.92857" lon="5.84332">
        <ele>365</ele>
        <time>2021-09-11T12:41:02.107Z</time>
      </trkpt>
      <trkpt lat="45.92858" lon="5.84335">
        <ele>365</ele>
        <time>2021-09-11T12:41:03.107Z</time>
      </trkpt>
      <trkpt lat="45.92859" lon="5.84338">
        <ele>365</ele>
        <time>2021-09-11T12:41:04.107Z</time>
      </trkpt>
      <trkpt lat="45.9286" lon="5.8434">
        <ele>366</ele>
        <time>2021-09-11T12:41:05.107Z</time>
      </trkpt>
      <trkpt lat="45.92861" lon="5.84343">
        <ele>366</ele>
        <time>2021-09-11T12:41:06.107Z</time>
      </trkpt>
      <trkpt lat="45.92861" lon="5.84347">
        <ele>365</ele>
        <time>2021-09-11T12:41:07.107Z</time>
      </trkpt>
      <trkpt lat="45.92862" lon="5.8435">
        <ele>365</ele>
        <time>2021-09-11T12:41:08.106Z</time>
      </trkpt>
      <trkpt lat="45.92862" lon="5.84353">
        <ele>366</ele>
        <time>2021-09-11T12:41:09.107Z</time>
      </trkpt>
      <trkpt lat="45.92863" lon="5.84356">
        <ele>366</ele>
        <time>2021-09-11T12:41:10.107Z</time>
      </trkpt>
      <trkpt lat="45.92864" lon="5.8436">
        <ele>366</ele>
        <time>2021-09-11T12:41:11.106Z</time>
      </trkpt>
      <trkpt lat="45.92864" lon="5.84363">
        <ele>366</ele>
        <time>2021-09-11T12:41:12.107Z</time>
      </trkpt>
      <trkpt lat="45.92865" lon="5.84366">
        <ele>366</ele>
        <time>2021-09-11T12:41:13.106Z</time>
      </trkpt>
      <trkpt lat="45.92865" lon="5.84368">
        <ele>366</ele>
        <time>2021-09-11T12:41:14.107Z</time>
      </trkpt>
      <trkpt lat="45.92866" lon="5.84372">
        <ele>366</ele>
        <time>2021-09-11T12:41:15.107Z</time>
      </trkpt>
      <trkpt lat="45.92866" lon="5.84376">
        <ele>366</ele>
        <time>2021-09-11T12:41:16.107Z</time>
      </trkpt>
      <trkpt lat="45.92867" lon="5.84379">
        <ele>366</ele>
        <time>2021-09-11T12:41:17.106Z</time>
      </trkpt>
      <trkpt lat="45.92868" lon="5.84382">
        <ele>366</ele>
        <time>2021-09-11T12:41:18.107Z</time>
      </trkpt>
      <trkpt lat="45.92869" lon="5.84385">
        <ele>366</ele>
        <time>2021-09-11T12:41:19.107Z</time>
      </trkpt>
      <trkpt lat="45.9287" lon="5.84388">
        <ele>366</ele>
        <time>2021-09-11T12:41:20.107Z</time>
      </trkpt>
      <trkpt lat="45.9287" lon="5.84391">
        <ele>367</ele>
        <time>2021-09-11T12:41:21.107Z</time>
      </trkpt>
      <trkpt lat="45.92871" lon="5.84394">
        <ele>367</ele>
        <time>2021-09-11T12:41:22.107Z</time>
      </trkpt>
      <trkpt lat="45.92872" lon="5.84396">
        <ele>367</ele>
        <time>2021-09-11T12:41:23.107Z</time>
      </trkpt>
      <trkpt lat="45.92873" lon="5.844">
        <ele>367</ele>
        <time>2021-09-11T12:41:24.107Z</time>
      </trkpt>
      <trkpt lat="45.92873" lon="5.84403">
        <ele>367</ele>
        <time>2021-09-11T12:41:25.107Z</time>
      </trkpt>
      <trkpt lat="45.92874" lon="5.84406">
        <ele>367</ele>
        <time>2021-09-11T12:41:26.106Z</time>
      </trkpt>
      <trkpt lat="45.92875" lon="5.84409">
        <ele>368</ele>
        <time>2021-09-11T12:41:27.106Z</time>
      </trkpt>
      <trkpt lat="45.92876" lon="5.84412">
        <ele>368</ele>
        <time>2021-09-11T12:41:28.107Z</time>
      </trkpt>
      <trkpt lat="45.92877" lon="5.84416">
        <ele>369</ele>
        <time>2021-09-11T12:41:29.107Z</time>
      </trkpt>
      <trkpt lat="45.92877" lon="5.84419">
        <ele>369</ele>
        <time>2021-09-11T12:41:30.107Z</time>
      </trkpt>
      <trkpt lat="45.92878" lon="5.84422">
        <ele>369</ele>
        <time>2021-09-11T12:41:31.107Z</time>
      </trkpt>
      <trkpt lat="45.92879" lon="5.84425">
        <ele>369</ele>
        <time>2021-09-11T12:41:32.107Z</time>
      </trkpt>
      <trkpt lat="45.92879" lon="5.84428">
        <ele>369</ele>
        <time>2021-09-11T12:41:33.107Z</time>
      </trkpt>
      <trkpt lat="45.9288" lon="5.84431">
        <ele>370</ele>
        <time>2021-09-11T12:41:34.107Z</time>
      </trkpt>
      <trkpt lat="45.92881" lon="5.84434">
        <ele>370</ele>
        <time>2021-09-11T12:41:35.107Z</time>
      </trkpt>
      <trkpt lat="45.92882" lon="5.84437">
        <ele>370</ele>
        <time>2021-09-11T12:41:36.107Z</time>
      </trkpt>
      <trkpt lat="45.92883" lon="5.8444">
        <ele>370</ele>
        <time>2021-09-11T12:41:37.107Z</time>
      </trkpt>
      <trkpt lat="45.92883" lon="5.84443">
        <ele>370</ele>
        <time>2021-09-11T12:41:38.107Z</time>
      </trkpt>
      <trkpt lat="45.92884" lon="5.84446">
        <ele>369</ele>
        <time>2021-09-11T12:41:39.106Z</time>
      </trkpt>
      <trkpt lat="45.92884" lon="5.84449">
        <ele>369</ele>
        <time>2021-09-11T12:41:40.106Z</time>
      </trkpt>
      <trkpt lat="45.92885" lon="5.84452">
        <ele>370</ele>
        <time>2021-09-11T12:41:41.106Z</time>
      </trkpt>
      <trkpt lat="45.92885" lon="5.84455">
        <ele>370</ele>
        <time>2021-09-11T12:41:42.107Z</time>
      </trkpt>
      <trkpt lat="45.92885" lon="5.84458">
        <ele>370</ele>
        <time>2021-09-11T12:41:43.107Z</time>
      </trkpt>
      <trkpt lat="45.92886" lon="5.84461">
        <ele>370</ele>
        <time>2021-09-11T12:41:44.107Z</time>
      </trkpt>
      <trkpt lat="45.92886" lon="5.84465">
        <ele>370</ele>
        <time>2021-09-11T12:41:45.107Z</time>
      </trkpt>
      <trkpt lat="45.92886" lon="5.84468">
        <ele>370</ele>
        <time>2021-09-11T12:41:46.107Z</time>
      </trkpt>
      <trkpt lat="45.92886" lon="5.84471">
        <ele>371</ele>
        <time>2021-09-11T12:41:47.107Z</time>
      </trkpt>
      <trkpt lat="45.92886" lon="5.84475">
        <ele>371</ele>
        <time>2021-09-11T12:41:48.106Z</time>
      </trkpt>
      <trkpt lat="45.92886" lon="5.84477">
        <ele>371</ele>
        <time>2021-09-11T12:41:49.106Z</time>
      </trkpt>
      <trkpt lat="45.92886" lon="5.8448">
        <ele>371</ele>
        <time>2021-09-11T12:41:50.107Z</time>
      </trkpt>
      <trkpt lat="45.92886" lon="5.84483">
        <ele>371</ele>
        <time>2021-09-11T12:41:51.107Z</time>
      </trkpt>
      <trkpt lat="45.92885" lon="5.84486">
        <ele>371</ele>
        <time>2021-09-11T12:41:52.107Z</time>
      </trkpt>
      <trkpt lat="45.92885" lon="5.84489">
        <ele>371</ele>
        <time>2021-09-11T12:41:53.107Z</time>
      </trkpt>
      <trkpt lat="45.92885" lon="5.84493">
        <ele>371</ele>
        <time>2021-09-11T12:41:54.107Z</time>
      </trkpt>
      <trkpt lat="45.92884" lon="5.84496">
        <ele>371</ele>
        <time>2021-09-11T12:41:55.107Z</time>
      </trkpt>
      <trkpt lat="45.92884" lon="5.84499">
        <ele>371</ele>
        <time>2021-09-11T12:41:56.107Z</time>
      </trkpt>
      <trkpt lat="45.92883" lon="5.84502">
        <ele>371</ele>
        <time>2021-09-11T12:41:57.107Z</time>
      </trkpt>
      <trkpt lat="45.92882" lon="5.84505">
        <ele>371</ele>
        <time>2021-09-11T12:41:58.106Z</time>
      </trkpt>
      <trkpt lat="45.92882" lon="5.84508">
        <ele>371</ele>
        <time>2021-09-11T12:41:59.107Z</time>
      </trkpt>
      <trkpt lat="45.92882" lon="5.84511">
        <ele>371</ele>
        <time>2021-09-11T12:42:00.107Z</time>
      </trkpt>
      <trkpt lat="45.92881" lon="5.84514">
        <ele>371</ele>
        <time>2021-09-11T12:42:01.107Z</time>
      </trkpt>
      <trkpt lat="45.9288" lon="5.84517">
        <ele>372</ele>
        <time>2021-09-11T12:42:02.107Z</time>
      </trkpt>
      <trkpt lat="45.92879" lon="5.84521">
        <ele>372</ele>
        <time>2021-09-11T12:42:03.106Z</time>
      </trkpt>
      <trkpt lat="45.92879" lon="5.84524">
        <ele>373</ele>
        <time>2021-09-11T12:42:04.107Z</time>
      </trkpt>
      <trkpt lat="45.92878" lon="5.84527">
        <ele>373</ele>
        <time>2021-09-11T12:42:05.107Z</time>
      </trkpt>
      <trkpt lat="45.92878" lon="5.8453">
        <ele>374</ele>
        <time>2021-09-11T12:42:06.107Z</time>
      </trkpt>
      <trkpt lat="45.92877" lon="5.84533">
        <ele>374</ele>
        <time>2021-09-11T12:42:07.107Z</time>
      </trkpt>
      <trkpt lat="45.92876" lon="5.84536">
        <ele>374</ele>
        <time>2021-09-11T12:42:08.107Z</time>
      </trkpt>
      <trkpt lat="45.92876" lon="5.84539">
        <ele>374</ele>
        <time>2021-09-11T12:42:09.107Z</time>
      </trkpt>
      <trkpt lat="45.92875" lon="5.84542">
        <ele>374</ele>
        <time>2021-09-11T12:42:10.106Z</time>
      </trkpt>
      <trkpt lat="45.92873" lon="5.84546">
        <ele>374</ele>
        <time>2021-09-11T12:42:11.107Z</time>
      </trkpt>
      <trkpt lat="45.92873" lon="5.84549">
        <ele>374</ele>
        <time>2021-09-11T12:42:12.106Z</time>
      </trkpt>
      <trkpt lat="45.92872" lon="5.84552">
        <ele>375</ele>
        <time>2021-09-11T12:42:13.107Z</time>
      </trkpt>
      <trkpt lat="45.92872" lon="5.84555">
        <ele>375</ele>
        <time>2021-09-11T12:42:14.107Z</time>
      </trkpt>
      <trkpt lat="45.92871" lon="5.84557">
        <ele>375</ele>
        <time>2021-09-11T12:42:15.106Z</time>
      </trkpt>
      <trkpt lat="45.92871" lon="5.8456">
        <ele>374</ele>
        <time>2021-09-11T12:42:16.107Z</time>
      </trkpt>
      <trkpt lat="45.9287" lon="5.84563">
        <ele>374</ele>
        <time>2021-09-11T12:42:17.107Z</time>
      </trkpt>
      <trkpt lat="45.92869" lon="5.84566">
        <ele>374</ele>
        <time>2021-09-11T12:42:18.106Z</time>
      </trkpt>
      <trkpt lat="45.92868" lon="5.84569">
        <ele>374</ele>
        <time>2021-09-11T12:42:19.107Z</time>
      </trkpt>
      <trkpt lat="45.92867" lon="5.84572">
        <ele>375</ele>
        <time>2021-09-11T12:42:20.107Z</time>
      </trkpt>
      <trkpt lat="45.92867" lon="5.84575">
        <ele>375</ele>
        <time>2021-09-11T12:42:21.107Z</time>
      </trkpt>
      <trkpt lat="45.92866" lon="5.84578">
        <ele>375</ele>
        <time>2021-09-11T12:42:22.107Z</time>
      </trkpt>
      <trkpt lat="45.92865" lon="5.84581">
        <ele>375</ele>
        <time>2021-09-11T12:42:23.107Z</time>
      </trkpt>
      <trkpt lat="45.92864" lon="5.84584">
        <ele>375</ele>
        <time>2021-09-11T12:42:24.107Z</time>
      </trkpt>
      <trkpt lat="45.92864" lon="5.84587">
        <ele>375</ele>
        <time>2021-09-11T12:42:25.106Z</time>
      </trkpt>
      <trkpt lat="45.92863" lon="5.84589">
        <ele>375</ele>
        <time>2021-09-11T12:42:26.107Z</time>
      </trkpt>
      <trkpt lat="45.92863" lon="5.84593">
        <ele>375</ele>
        <time>2021-09-11T12:42:27.107Z</time>
      </trkpt>
      <trkpt lat="45.92862" lon="5.84596">
        <ele>375</ele>
        <time>2021-09-11T12:42:28.106Z</time>
      </trkpt>
      <trkpt lat="45.92862" lon="5.84599">
        <ele>375</ele>
        <time>2021-09-11T12:42:29.107Z</time>
      </trkpt>
      <trkpt lat="45.92861" lon="5.84602">
        <ele>376</ele>
        <time>2021-09-11T12:42:30.107Z</time>
      </trkpt>
      <trkpt lat="45.92861" lon="5.84605">
        <ele>376</ele>
        <time>2021-09-11T12:42:31.107Z</time>
      </trkpt>
      <trkpt lat="45.9286" lon="5.84608">
        <ele>376</ele>
        <time>2021-09-11T12:42:32.107Z</time>
      </trkpt>
      <trkpt lat="45.9286" lon="5.84611">
        <ele>376</ele>
        <time>2021-09-11T12:42:33.107Z</time>
      </trkpt>
      <trkpt lat="45.92859" lon="5.84614">
        <ele>376</ele>
        <time>2021-09-11T12:42:34.107Z</time>
      </trkpt>
      <trkpt lat="45.92859" lon="5.84617">
        <ele>376</ele>
        <time>2021-09-11T12:42:35.107Z</time>
      </trkpt>
      <trkpt lat="45.92859" lon="5.8462">
        <ele>376</ele>
        <time>2021-09-11T12:42:36.107Z</time>
      </trkpt>
      <trkpt lat="45.92858" lon="5.84623">
        <ele>376</ele>
        <time>2021-09-11T12:42:37.107Z</time>
      </trkpt>
      <trkpt lat="45.92858" lon="5.84626">
        <ele>376</ele>
        <time>2021-09-11T12:42:38.106Z</time>
      </trkpt>
      <trkpt lat="45.92858" lon="5.84629">
        <ele>377</ele>
        <time>2021-09-11T12:42:39.107Z</time>
      </trkpt>
      <trkpt lat="45.92858" lon="5.84632">
        <ele>377</ele>
        <time>2021-09-11T12:42:40.106Z</time>
      </trkpt>
      <trkpt lat="45.92858" lon="5.84636">
        <ele>377</ele>
        <time>2021-09-11T12:42:41.107Z</time>
      </trkpt>
      <trkpt lat="45.92858" lon="5.84639">
        <ele>377</ele>
        <time>2021-09-11T12:42:42.107Z</time>
      </trkpt>
      <trkpt lat="45.92858" lon="5.84642">
        <ele>377</ele>
        <time>2021-09-11T12:42:43.106Z</time>
      </trkpt>
      <trkpt lat="45.92858" lon="5.84645">
        <ele>377</ele>
        <time>2021-09-11T12:42:44.107Z</time>
      </trkpt>
      <trkpt lat="45.92858" lon="5.84648">
        <ele>377</ele>
        <time>2021-09-11T12:42:45.107Z</time>
      </trkpt>
      <trkpt lat="45.92858" lon="5.84652">
        <ele>377</ele>
        <time>2021-09-11T12:42:46.107Z</time>
      </trkpt>
      <trkpt lat="45.92858" lon="5.84655">
        <ele>377</ele>
        <time>2021-09-11T12:42:47.107Z</time>
      </trkpt>
      <trkpt lat="45.92858" lon="5.84658">
        <ele>377</ele>
        <time>2021-09-11T12:42:48.107Z</time>
      </trkpt>
      <trkpt lat="45.92858" lon="5.84661">
        <ele>377</ele>
        <time>2021-09-11T12:42:49.107Z</time>
      </trkpt>
      <trkpt lat="45.92859" lon="5.84664">
        <ele>378</ele>
        <time>2021-09-11T12:42:50.107Z</time>
      </trkpt>
      <trkpt lat="45.92859" lon="5.84667">
        <ele>378</ele>
        <time>2021-09-11T12:42:51.107Z</time>
      </trkpt>
      <trkpt lat="45.9286" lon="5.8467">
        <ele>378</ele>
        <time>2021-09-11T12:42:52.106Z</time>
      </trkpt>
      <trkpt lat="45.9286" lon="5.84673">
        <ele>378</ele>
        <time>2021-09-11T12:42:53.107Z</time>
      </trkpt>
      <trkpt lat="45.92861" lon="5.84676">
        <ele>378</ele>
        <time>2021-09-11T12:42:54.107Z</time>
      </trkpt>
      <trkpt lat="45.92861" lon="5.84679">
        <ele>378</ele>
        <time>2021-09-11T12:42:55.107Z</time>
      </trkpt>
      <trkpt lat="45.92862" lon="5.84682">
        <ele>378</ele>
        <time>2021-09-11T12:42:56.106Z</time>
      </trkpt>
      <trkpt lat="45.92862" lon="5.84685">
        <ele>379</ele>
        <time>2021-09-11T12:42:57.107Z</time>
      </trkpt>
      <trkpt lat="45.92862" lon="5.84688">
        <ele>379</ele>
        <time>2021-09-11T12:42:58.106Z</time>
      </trkpt>
      <trkpt lat="45.92863" lon="5.84691">
        <ele>379</ele>
        <time>2021-09-11T12:42:59.107Z</time>
      </trkpt>
      <trkpt lat="45.92863" lon="5.84694">
        <ele>379</ele>
        <time>2021-09-11T12:43:00.107Z</time>
      </trkpt>
      <trkpt lat="45.92864" lon="5.84697">
        <ele>380</ele>
        <time>2021-09-11T12:43:01.107Z</time>
      </trkpt>
      <trkpt lat="45.92865" lon="5.847">
        <ele>380</ele>
        <time>2021-09-11T12:43:06.229Z</time>
      </trkpt>
      <trkpt lat="45.92865" lon="5.84703">
        <ele>381</ele>
        <time>2021-09-11T12:43:07.229Z</time>
      </trkpt>
      <trkpt lat="45.92865" lon="5.84706">
        <ele>381</ele>
        <time>2021-09-11T12:43:08.229Z</time>
      </trkpt>
      <trkpt lat="45.92865" lon="5.84709">
        <ele>381</ele>
        <time>2021-09-11T12:43:09.228Z</time>
      </trkpt>
      <trkpt lat="45.92864" lon="5.84712">
        <ele>382</ele>
        <time>2021-09-11T12:43:10.229Z</time>
      </trkpt>
      <trkpt lat="45.92863" lon="5.84714">
        <ele>382</ele>
        <time>2021-09-11T12:43:11.228Z</time>
      </trkpt>
      <trkpt lat="45.92861" lon="5.84715">
        <ele>382</ele>
        <time>2021-09-11T12:43:12.228Z</time>
      </trkpt>
      <trkpt lat="45.92859" lon="5.84716">
        <ele>382</ele>
        <time>2021-09-11T12:43:13.229Z</time>
      </trkpt>
      <trkpt lat="45.92857" lon="5.84716">
        <ele>382</ele>
        <time>2021-09-11T12:43:14.229Z</time>
      </trkpt>
      <trkpt lat="45.92855" lon="5.84715">
        <ele>382</ele>
        <time>2021-09-11T12:43:15.229Z</time>
      </trkpt>
      <trkpt lat="45.92853" lon="5.84713">
        <ele>382</ele>
        <time>2021-09-11T12:43:16.229Z</time>
      </trkpt>
      <trkpt lat="45.92851" lon="5.84711">
        <ele>383</ele>
        <time>2021-09-11T12:43:29.375Z</time>
      </trkpt>
      <trkpt lat="45.9285" lon="5.84709">
        <ele>383</ele>
        <time>2021-09-11T12:43:30.375Z</time>
      </trkpt>
      <trkpt lat="45.92849" lon="5.84706">
        <ele>384</ele>
        <time>2021-09-11T12:43:31.375Z</time>
      </trkpt>
      <trkpt lat="45.92848" lon="5.84703">
        <ele>384</ele>
        <time>2021-09-11T12:43:32.375Z</time>
      </trkpt>
      <trkpt lat="45.92847" lon="5.847">
        <ele>385</ele>
        <time>2021-09-11T12:47:09.305Z</time>
      </trkpt>
      <trkpt lat="45.92846" lon="5.84697">
        <ele>385</ele>
        <time>2021-09-11T12:47:10.305Z</time>
      </trkpt>
      <trkpt lat="45.92845" lon="5.84693">
        <ele>386</ele>
        <time>2021-09-11T12:47:11.304Z</time>
      </trkpt>
      <trkpt lat="45.92844" lon="5.8469">
        <ele>386</ele>
        <time>2021-09-11T12:47:12.305Z</time>
      </trkpt>
      <trkpt lat="45.92843" lon="5.84687">
        <ele>387</ele>
        <time>2021-09-11T12:47:13.305Z</time>
      </trkpt>
      <trkpt lat="45.92842" lon="5.84684">
        <ele>387</ele>
        <time>2021-09-11T12:47:14.304Z</time>
      </trkpt>
      <trkpt lat="45.92841" lon="5.84681">
        <ele>387</ele>
        <time>2021-09-11T12:47:15.304Z</time>
      </trkpt>
      <trkpt lat="45.9284" lon="5.84678">
        <ele>387</ele>
        <time>2021-09-11T12:47:16.304Z</time>
      </trkpt>
      <trkpt lat="45.92839" lon="5.84675">
        <ele>387</ele>
        <time>2021-09-11T12:47:17.305Z</time>
      </trkpt>
      <trkpt lat="45.92838" lon="5.84672">
        <ele>387</ele>
        <time>2021-09-11T12:47:18.305Z</time>
      </trkpt>
      <trkpt lat="45.92837" lon="5.8467">
        <ele>387</ele>
        <time>2021-09-11T12:47:19.304Z</time>
      </trkpt>
      <trkpt lat="45.92836" lon="5.84667">
        <ele>387</ele>
        <time>2021-09-11T12:47:20.305Z</time>
      </trkpt>
      <trkpt lat="45.92834" lon="5.84665">
        <ele>387</ele>
        <time>2021-09-11T12:47:21.304Z</time>
      </trkpt>
      <trkpt lat="45.92833" lon="5.84662">
        <ele>387</ele>
        <time>2021-09-11T12:47:22.305Z</time>
      </trkpt>
      <trkpt lat="45.92832" lon="5.8466">
        <ele>388</ele>
        <time>2021-09-11T12:47:23.305Z</time>
      </trkpt>
      <trkpt lat="45.9283" lon="5.84658">
        <ele>387</ele>
        <time>2021-09-11T12:47:24.304Z</time>
      </trkpt>
      <trkpt lat="45.92829" lon="5.84655">
        <ele>387</ele>
        <time>2021-09-11T12:47:25.305Z</time>
      </trkpt>
      <trkpt lat="45.92827" lon="5.84653">
        <ele>387</ele>
        <time>2021-09-11T12:47:26.305Z</time>
      </trkpt>
      <trkpt lat="45.92826" lon="5.84651">
        <ele>387</ele>
        <time>2021-09-11T12:47:27.304Z</time>
      </trkpt>
      <trkpt lat="45.92824" lon="5.84649">
        <ele>387</ele>
        <time>2021-09-11T12:47:28.305Z</time>
      </trkpt>
      <trkpt lat="45.92823" lon="5.84647">
        <ele>386</ele>
        <time>2021-09-11T12:47:29.304Z</time>
      </trkpt>
      <trkpt lat="45.92821" lon="5.84645">
        <ele>386</ele>
        <time>2021-09-11T12:47:30.305Z</time>
      </trkpt>
      <trkpt lat="45.92819" lon="5.84644">
        <ele>387</ele>
        <time>2021-09-11T12:47:31.304Z</time>
      </trkpt>
      <trkpt lat="45.92818" lon="5.84642">
        <ele>387</ele>
        <time>2021-09-11T12:47:32.305Z</time>
      </trkpt>
      <trkpt lat="45.92816" lon="5.8464">
        <ele>387</ele>
        <time>2021-09-11T12:47:33.304Z</time>
      </trkpt>
      <trkpt lat="45.92814" lon="5.84638">
        <ele>388</ele>
        <time>2021-09-11T12:47:34.305Z</time>
      </trkpt>
      <trkpt lat="45.92812" lon="5.84637">
        <ele>388</ele>
        <time>2021-09-11T12:47:35.305Z</time>
      </trkpt>
      <trkpt lat="45.9281" lon="5.84636">
        <ele>388</ele>
        <time>2021-09-11T12:47:36.304Z</time>
      </trkpt>
      <trkpt lat="45.92808" lon="5.84635">
        <ele>389</ele>
        <time>2021-09-11T12:47:37.305Z</time>
      </trkpt>
      <trkpt lat="45.92806" lon="5.84634">
        <ele>389</ele>
        <time>2021-09-11T12:47:38.304Z</time>
      </trkpt>
      <trkpt lat="45.92804" lon="5.84633">
        <ele>389</ele>
        <time>2021-09-11T12:47:39.304Z</time>
      </trkpt>
      <trkpt lat="45.92802" lon="5.84632">
        <ele>389</ele>
        <time>2021-09-11T12:47:40.305Z</time>
      </trkpt>
      <trkpt lat="45.928" lon="5.84631">
        <ele>389</ele>
        <time>2021-09-11T12:47:41.305Z</time>
      </trkpt>
      <trkpt lat="45.92798" lon="5.84631">
        <ele>389</ele>
        <time>2021-09-11T12:47:42.305Z</time>
      </trkpt>
      <trkpt lat="45.92796" lon="5.8463">
        <ele>389</ele>
        <time>2021-09-11T12:47:43.305Z</time>
      </trkpt>
      <trkpt lat="45.92794" lon="5.84629">
        <ele>389</ele>
        <time>2021-09-11T12:47:44.305Z</time>
      </trkpt>
      <trkpt lat="45.92792" lon="5.84628">
        <ele>389</ele>
        <time>2021-09-11T12:47:45.305Z</time>
      </trkpt>
      <trkpt lat="45.9279" lon="5.84628">
        <ele>389</ele>
        <time>2021-09-11T12:47:46.305Z</time>
      </trkpt>
      <trkpt lat="45.92788" lon="5.84627">
        <ele>389</ele>
        <time>2021-09-11T12:47:47.304Z</time>
      </trkpt>
      <trkpt lat="45.92786" lon="5.84627">
        <ele>390</ele>
        <time>2021-09-11T12:47:48.304Z</time>
      </trkpt>
      <trkpt lat="45.92784" lon="5.84626">
        <ele>390</ele>
        <time>2021-09-11T12:47:49.304Z</time>
      </trkpt>
      <trkpt lat="45.92782" lon="5.84626">
        <ele>390</ele>
        <time>2021-09-11T12:47:50.305Z</time>
      </trkpt>
      <trkpt lat="45.92779" lon="5.84625">
        <ele>390</ele>
        <time>2021-09-11T12:47:51.305Z</time>
      </trkpt>
      <trkpt lat="45.92777" lon="5.84624">
        <ele>390</ele>
        <time>2021-09-11T12:47:52.305Z</time>
      </trkpt>
      <trkpt lat="45.92775" lon="5.84623">
        <ele>390</ele>
        <time>2021-09-11T12:47:53.305Z</time>
      </trkpt>
      <trkpt lat="45.92773" lon="5.84623">
        <ele>390</ele>
        <time>2021-09-11T12:47:54.305Z</time>
      </trkpt>
      <trkpt lat="45.92771" lon="5.84622">
        <ele>390</ele>
        <time>2021-09-11T12:47:55.305Z</time>
      </trkpt>
      <trkpt lat="45.92769" lon="5.84621">
        <ele>390</ele>
        <time>2021-09-11T12:47:56.305Z</time>
      </trkpt>
      <trkpt lat="45.92766" lon="5.8462">
        <ele>391</ele>
        <time>2021-09-11T12:47:57.305Z</time>
      </trkpt>
      <trkpt lat="45.92764" lon="5.8462">
        <ele>391</ele>
        <time>2021-09-11T12:47:58.304Z</time>
      </trkpt>
      <trkpt lat="45.92762" lon="5.84619">
        <ele>391</ele>
        <time>2021-09-11T12:47:59.305Z</time>
      </trkpt>
      <trkpt lat="45.9276" lon="5.84619">
        <ele>391</ele>
        <time>2021-09-11T12:48:00.305Z</time>
      </trkpt>
      <trkpt lat="45.92758" lon="5.84618">
        <ele>391</ele>
        <time>2021-09-11T12:48:01.305Z</time>
      </trkpt>
      <trkpt lat="45.92756" lon="5.84618">
        <ele>391</ele>
        <time>2021-09-11T12:48:02.305Z</time>
      </trkpt>
      <trkpt lat="45.92754" lon="5.84617">
        <ele>391</ele>
        <time>2021-09-11T12:48:03.305Z</time>
      </trkpt>
      <trkpt lat="45.92752" lon="5.84616">
        <ele>392</ele>
        <time>2021-09-11T12:48:04.305Z</time>
      </trkpt>
      <trkpt lat="45.9275" lon="5.84616">
        <ele>392</ele>
        <time>2021-09-11T12:48:05.304Z</time>
      </trkpt>
      <trkpt lat="45.92747" lon="5.84615">
        <ele>392</ele>
        <time>2021-09-11T12:48:06.305Z</time>
      </trkpt>
      <trkpt lat="45.92745" lon="5.84614">
        <ele>393</ele>
        <time>2021-09-11T12:48:07.305Z</time>
      </trkpt>
      <trkpt lat="45.92743" lon="5.84614">
        <ele>393</ele>
        <time>2021-09-11T12:48:08.304Z</time>
      </trkpt>
      <trkpt lat="45.92741" lon="5.84613">
        <ele>393</ele>
        <time>2021-09-11T12:48:09.305Z</time>
      </trkpt>
      <trkpt lat="45.92739" lon="5.84613">
        <ele>394</ele>
        <time>2021-09-11T12:48:10.305Z</time>
      </trkpt>
      <trkpt lat="45.92737" lon="5.84612">
        <ele>394</ele>
        <time>2021-09-11T12:48:11.304Z</time>
      </trkpt>
      <trkpt lat="45.92734" lon="5.84612">
        <ele>394</ele>
        <time>2021-09-11T12:48:12.304Z</time>
      </trkpt>
      <trkpt lat="45.92732" lon="5.84611">
        <ele>394</ele>
        <time>2021-09-11T12:48:13.304Z</time>
      </trkpt>
      <trkpt lat="45.9273" lon="5.84611">
        <ele>394</ele>
        <time>2021-09-11T12:48:14.304Z</time>
      </trkpt>
      <trkpt lat="45.92728" lon="5.8461">
        <ele>394</ele>
        <time>2021-09-11T12:48:15.304Z</time>
      </trkpt>
      <trkpt lat="45.92726" lon="5.8461">
        <ele>394</ele>
        <time>2021-09-11T12:48:16.305Z</time>
      </trkpt>
      <trkpt lat="45.92724" lon="5.84609">
        <ele>394</ele>
        <time>2021-09-11T12:48:17.305Z</time>
      </trkpt>
      <trkpt lat="45.92722" lon="5.84608">
        <ele>394</ele>
        <time>2021-09-11T12:48:18.304Z</time>
      </trkpt>
      <trkpt lat="45.9272" lon="5.84607">
        <ele>394</ele>
        <time>2021-09-11T12:48:19.305Z</time>
      </trkpt>
      <trkpt lat="45.92718" lon="5.84606">
        <ele>394</ele>
        <time>2021-09-11T12:48:20.305Z</time>
      </trkpt>
      <trkpt lat="45.92716" lon="5.84606">
        <ele>394</ele>
        <time>2021-09-11T12:48:21.305Z</time>
      </trkpt>
      <trkpt lat="45.92714" lon="5.84605">
        <ele>394</ele>
        <time>2021-09-11T12:48:22.305Z</time>
      </trkpt>
      <trkpt lat="45.92712" lon="5.84604">
        <ele>394</ele>
        <time>2021-09-11T12:48:23.304Z</time>
      </trkpt>
      <trkpt lat="45.9271" lon="5.84603">
        <ele>393</ele>
        <time>2021-09-11T12:48:24.305Z</time>
      </trkpt>
      <trkpt lat="45.92708" lon="5.84602">
        <ele>393</ele>
        <time>2021-09-11T12:48:25.305Z</time>
      </trkpt>
      <trkpt lat="45.92706" lon="5.84601">
        <ele>393</ele>
        <time>2021-09-11T12:48:26.305Z</time>
      </trkpt>
      <trkpt lat="45.92704" lon="5.84601">
        <ele>394</ele>
        <time>2021-09-11T12:48:27.304Z</time>
      </trkpt>
      <trkpt lat="45.92702" lon="5.846">
        <ele>394</ele>
        <time>2021-09-11T12:48:28.305Z</time>
      </trkpt>
      <trkpt lat="45.927" lon="5.84599">
        <ele>394</ele>
        <time>2021-09-11T12:48:29.305Z</time>
      </trkpt>
      <trkpt lat="45.92698" lon="5.84598">
        <ele>395</ele>
        <time>2021-09-11T12:48:30.305Z</time>
      </trkpt>
      <trkpt lat="45.92696" lon="5.84597">
        <ele>395</ele>
        <time>2021-09-11T12:48:31.304Z</time>
      </trkpt>
      <trkpt lat="45.92694" lon="5.84596">
        <ele>396</ele>
        <time>2021-09-11T12:48:32.305Z</time>
      </trkpt>
      <trkpt lat="45.92692" lon="5.84595">
        <ele>396</ele>
        <time>2021-09-11T12:48:33.305Z</time>
      </trkpt>
      <trkpt lat="45.9269" lon="5.84594">
        <ele>396</ele>
        <time>2021-09-11T12:48:34.305Z</time>
      </trkpt>
      <trkpt lat="45.92688" lon="5.84594">
        <ele>396</ele>
        <time>2021-09-11T12:48:35.305Z</time>
      </trkpt>
      <trkpt lat="45.92686" lon="5.84593">
        <ele>396</ele>
        <time>2021-09-11T12:48:36.305Z</time>
      </trkpt>
      <trkpt lat="45.92683" lon="5.84592">
        <ele>396</ele>
        <time>2021-09-11T12:48:37.305Z</time>
      </trkpt>
      <trkpt lat="45.92681" lon="5.84592">
        <ele>396</ele>
        <time>2021-09-11T12:48:38.305Z</time>
      </trkpt>
      <trkpt lat="45.92679" lon="5.84592">
        <ele>396</ele>
        <time>2021-09-11T12:48:39.305Z</time>
      </trkpt>
      <trkpt lat="45.92677" lon="5.84591">
        <ele>396</ele>
        <time>2021-09-11T12:48:40.304Z</time>
      </trkpt>
      <trkpt lat="45.92675" lon="5.84591">
        <ele>397</ele>
        <time>2021-09-11T12:48:41.305Z</time>
      </trkpt>
      <trkpt lat="45.92673" lon="5.84591">
        <ele>397</ele>
        <time>2021-09-11T12:48:42.305Z</time>
      </trkpt>
      <trkpt lat="45.92671" lon="5.84591">
        <ele>397</ele>
        <time>2021-09-11T12:48:43.305Z</time>
      </trkpt>
      <trkpt lat="45.92669" lon="5.84591">
        <ele>397</ele>
        <time>2021-09-11T12:48:44.305Z</time>
      </trkpt>
      <trkpt lat="45.92666" lon="5.84591">
        <ele>398</ele>
        <time>2021-09-11T12:48:45.305Z</time>
      </trkpt>
      <trkpt lat="45.92665" lon="5.84591">
        <ele>398</ele>
        <time>2021-09-11T12:48:46.304Z</time>
      </trkpt>
      <trkpt lat="45.92662" lon="5.84591">
        <ele>398</ele>
        <time>2021-09-11T12:48:47.304Z</time>
      </trkpt>
      <trkpt lat="45.9266" lon="5.84591">
        <ele>398</ele>
        <time>2021-09-11T12:48:48.305Z</time>
      </trkpt>
      <trkpt lat="45.92658" lon="5.84592">
        <ele>398</ele>
        <time>2021-09-11T12:48:49.304Z</time>
      </trkpt>
      <trkpt lat="45.92656" lon="5.84592">
        <ele>398</ele>
        <time>2021-09-11T12:48:50.305Z</time>
      </trkpt>
      <trkpt lat="45.92654" lon="5.84592">
        <ele>398</ele>
        <time>2021-09-11T12:48:51.305Z</time>
      </trkpt>
      <trkpt lat="45.92652" lon="5.84593">
        <ele>399</ele>
        <time>2021-09-11T12:48:52.305Z</time>
      </trkpt>
      <trkpt lat="45.92649" lon="5.84593">
        <ele>399</ele>
        <time>2021-09-11T12:48:53.305Z</time>
      </trkpt>
      <trkpt lat="45.92647" lon="5.84594">
        <ele>399</ele>
        <time>2021-09-11T12:48:54.305Z</time>
      </trkpt>
      <trkpt lat="45.92645" lon="5.84595">
        <ele>400</ele>
        <time>2021-09-11T12:48:55.305Z</time>
      </trkpt>
      <trkpt lat="45.92643" lon="5.84596">
        <ele>400</ele>
        <time>2021-09-11T12:48:56.305Z</time>
      </trkpt>
      <trkpt lat="45.92641" lon="5.84596">
        <ele>401</ele>
        <time>2021-09-11T12:48:57.305Z</time>
      </trkpt>
      <trkpt lat="45.92639" lon="5.84596">
        <ele>402</ele>
        <time>2021-09-11T12:48:58.305Z</time>
      </trkpt>
      <trkpt lat="45.92637" lon="5.84596">
        <ele>402</ele>
        <time>2021-09-11T12:48:59.304Z</time>
      </trkpt>
      <trkpt lat="45.92635" lon="5.84597">
        <ele>402</ele>
        <time>2021-09-11T12:49:00.305Z</time>
      </trkpt>
      <trkpt lat="45.92632" lon="5.84597">
        <ele>403</ele>
        <time>2021-09-11T12:49:01.305Z</time>
      </trkpt>
      <trkpt lat="45.9263" lon="5.84598">
        <ele>403</ele>
        <time>2021-09-11T12:49:02.304Z</time>
      </trkpt>
      <trkpt lat="45.92628" lon="5.84598">
        <ele>403</ele>
        <time>2021-09-11T12:49:03.305Z</time>
      </trkpt>
      <trkpt lat="45.92626" lon="5.84599">
        <ele>403</ele>
        <time>2021-09-11T12:49:04.305Z</time>
      </trkpt>
      <trkpt lat="45.92624" lon="5.846">
        <ele>403</ele>
        <time>2021-09-11T12:49:05.305Z</time>
      </trkpt>
      <trkpt lat="45.92622" lon="5.846">
        <ele>402</ele>
        <time>2021-09-11T12:49:06.305Z</time>
      </trkpt>
      <trkpt lat="45.9262" lon="5.846">
        <ele>403</ele>
        <time>2021-09-11T12:49:07.305Z</time>
      </trkpt>
      <trkpt lat="45.92618" lon="5.84601">
        <ele>403</ele>
        <time>2021-09-11T12:49:08.305Z</time>
      </trkpt>
      <trkpt lat="45.92616" lon="5.84601">
        <ele>403</ele>
        <time>2021-09-11T12:49:09.305Z</time>
      </trkpt>
      <trkpt lat="45.92613" lon="5.84601">
        <ele>404</ele>
        <time>2021-09-11T12:49:10.305Z</time>
      </trkpt>
      <trkpt lat="45.92611" lon="5.84601">
        <ele>404</ele>
        <time>2021-09-11T12:49:11.305Z</time>
      </trkpt>
      <trkpt lat="45.92609" lon="5.84602">
        <ele>404</ele>
        <time>2021-09-11T12:49:12.305Z</time>
      </trkpt>
      <trkpt lat="45.92607" lon="5.84601">
        <ele>405</ele>
        <time>2021-09-11T12:49:13.305Z</time>
      </trkpt>
      <trkpt lat="45.92605" lon="5.84602">
        <ele>405</ele>
        <time>2021-09-11T12:49:14.305Z</time>
      </trkpt>
      <trkpt lat="45.92603" lon="5.84602">
        <ele>405</ele>
        <time>2021-09-11T12:49:15.305Z</time>
      </trkpt>
      <trkpt lat="45.92601" lon="5.84603">
        <ele>405</ele>
        <time>2021-09-11T12:49:16.305Z</time>
      </trkpt>
      <trkpt lat="45.92599" lon="5.84603">
        <ele>405</ele>
        <time>2021-09-11T12:49:17.305Z</time>
      </trkpt>
      <trkpt lat="45.92596" lon="5.84604">
        <ele>405</ele>
        <time>2021-09-11T12:49:18.305Z</time>
      </trkpt>
      <trkpt lat="45.92594" lon="5.84604">
        <ele>405</ele>
        <time>2021-09-11T12:49:19.305Z</time>
      </trkpt>
      <trkpt lat="45.92592" lon="5.84604">
        <ele>404</ele>
        <time>2021-09-11T12:49:20.304Z</time>
      </trkpt>
      <trkpt lat="45.9259" lon="5.84604">
        <ele>404</ele>
        <time>2021-09-11T12:49:21.305Z</time>
      </trkpt>
      <trkpt lat="45.92588" lon="5.84604">
        <ele>404</ele>
        <time>2021-09-11T12:49:22.304Z</time>
      </trkpt>
      <trkpt lat="45.92586" lon="5.84605">
        <ele>403</ele>
        <time>2021-09-11T12:49:23.305Z</time>
      </trkpt>
      <trkpt lat="45.92584" lon="5.84605">
        <ele>403</ele>
        <time>2021-09-11T12:49:24.305Z</time>
      </trkpt>
      <trkpt lat="45.92582" lon="5.84605">
        <ele>403</ele>
        <time>2021-09-11T12:49:25.305Z</time>
      </trkpt>
      <trkpt lat="45.92581" lon="5.84604">
        <ele>403</ele>
        <time>2021-09-11T12:49:26.305Z</time>
      </trkpt>
      <trkpt lat="45.92579" lon="5.84604">
        <ele>403</ele>
        <time>2021-09-11T12:49:27.304Z</time>
      </trkpt>
      <trkpt lat="45.92577" lon="5.84604">
        <ele>404</ele>
        <time>2021-09-11T12:49:28.304Z</time>
      </trkpt>
      <trkpt lat="45.92575" lon="5.84604">
        <ele>404</ele>
        <time>2021-09-11T12:49:29.304Z</time>
      </trkpt>
      <trkpt lat="45.92573" lon="5.84604">
        <ele>404</ele>
        <time>2021-09-11T12:49:30.305Z</time>
      </trkpt>
      <trkpt lat="45.9257" lon="5.84605">
        <ele>405</ele>
        <time>2021-09-11T12:49:31.305Z</time>
      </trkpt>
      <trkpt lat="45.92568" lon="5.84605">
        <ele>405</ele>
        <time>2021-09-11T12:49:32.305Z</time>
      </trkpt>
      <trkpt lat="45.92566" lon="5.84606">
        <ele>406</ele>
        <time>2021-09-11T12:49:33.304Z</time>
      </trkpt>
      <trkpt lat="45.92564" lon="5.84606">
        <ele>406</ele>
        <time>2021-09-11T12:49:34.305Z</time>
      </trkpt>
      <trkpt lat="45.92562" lon="5.84606">
        <ele>406</ele>
        <time>2021-09-11T12:49:35.305Z</time>
      </trkpt>
      <trkpt lat="45.9256" lon="5.84606">
        <ele>407</ele>
        <time>2021-09-11T12:49:36.304Z</time>
      </trkpt>
      <trkpt lat="45.92558" lon="5.84607">
        <ele>407</ele>
        <time>2021-09-11T12:49:37.305Z</time>
      </trkpt>
      <trkpt lat="45.92555" lon="5.84607">
        <ele>407</ele>
        <time>2021-09-11T12:49:38.305Z</time>
      </trkpt>
      <trkpt lat="45.92553" lon="5.84607">
        <ele>407</ele>
        <time>2021-09-11T12:49:39.305Z</time>
      </trkpt>
      <trkpt lat="45.92551" lon="5.84608">
        <ele>407</ele>
        <time>2021-09-11T12:49:40.305Z</time>
      </trkpt>
      <trkpt lat="45.92549" lon="5.84608">
        <ele>406</ele>
        <time>2021-09-11T12:49:41.304Z</time>
      </trkpt>
      <trkpt lat="45.92547" lon="5.84608">
        <ele>406</ele>
        <time>2021-09-11T12:49:42.305Z</time>
      </trkpt>
      <trkpt lat="45.92545" lon="5.84609">
        <ele>406</ele>
        <time>2021-09-11T12:49:43.305Z</time>
      </trkpt>
      <trkpt lat="45.92543" lon="5.84609">
        <ele>405</ele>
        <time>2021-09-11T12:49:44.305Z</time>
      </trkpt>
      <trkpt lat="45.92541" lon="5.8461">
        <ele>405</ele>
        <time>2021-09-11T12:49:45.305Z</time>
      </trkpt>
      <trkpt lat="45.92539" lon="5.8461">
        <ele>405</ele>
        <time>2021-09-11T12:49:46.305Z</time>
      </trkpt>
      <trkpt lat="45.92537" lon="5.8461">
        <ele>405</ele>
        <time>2021-09-11T12:49:47.305Z</time>
      </trkpt>
      <trkpt lat="45.92535" lon="5.84611">
        <ele>405</ele>
        <time>2021-09-11T12:49:48.304Z</time>
      </trkpt>
      <trkpt lat="45.92533" lon="5.84611">
        <ele>405</ele>
        <time>2021-09-11T12:49:49.305Z</time>
      </trkpt>
      <trkpt lat="45.9253" lon="5.84612">
        <ele>405</ele>
        <time>2021-09-11T12:49:50.304Z</time>
      </trkpt>
      <trkpt lat="45.92528" lon="5.84612">
        <ele>405</ele>
        <time>2021-09-11T12:49:51.305Z</time>
      </trkpt>
      <trkpt lat="45.92526" lon="5.84613">
        <ele>406</ele>
        <time>2021-09-11T12:49:52.305Z</time>
      </trkpt>
      <trkpt lat="45.92524" lon="5.84613">
        <ele>406</ele>
        <time>2021-09-11T12:49:53.305Z</time>
      </trkpt>
      <trkpt lat="45.92522" lon="5.84613">
        <ele>406</ele>
        <time>2021-09-11T12:49:54.305Z</time>
      </trkpt>
      <trkpt lat="45.92519" lon="5.84613">
        <ele>406</ele>
        <time>2021-09-11T12:49:55.305Z</time>
      </trkpt>
      <trkpt lat="45.92517" lon="5.84613">
        <ele>407</ele>
        <time>2021-09-11T12:49:56.305Z</time>
      </trkpt>
      <trkpt lat="45.92515" lon="5.84614">
        <ele>407</ele>
        <time>2021-09-11T12:49:57.305Z</time>
      </trkpt>
      <trkpt lat="45.92513" lon="5.84614">
        <ele>408</ele>
        <time>2021-09-11T12:49:58.305Z</time>
      </trkpt>
      <trkpt lat="45.92511" lon="5.84615">
        <ele>408</ele>
        <time>2021-09-11T12:49:59.305Z</time>
      </trkpt>
      <trkpt lat="45.92508" lon="5.84616">
        <ele>409</ele>
        <time>2021-09-11T12:50:00.305Z</time>
      </trkpt>
      <trkpt lat="45.92506" lon="5.84616">
        <ele>409</ele>
        <time>2021-09-11T12:50:01.305Z</time>
      </trkpt>
      <trkpt lat="45.92504" lon="5.84617">
        <ele>410</ele>
        <time>2021-09-11T12:50:02.305Z</time>
      </trkpt>
      <trkpt lat="45.92502" lon="5.84617">
        <ele>410</ele>
        <time>2021-09-11T12:50:03.305Z</time>
      </trkpt>
      <trkpt lat="45.925" lon="5.84617">
        <ele>410</ele>
        <time>2021-09-11T12:50:04.305Z</time>
      </trkpt>
      <trkpt lat="45.92498" lon="5.84617">
        <ele>410</ele>
        <time>2021-09-11T12:50:05.304Z</time>
      </trkpt>
      <trkpt lat="45.92496" lon="5.84618">
        <ele>410</ele>
        <time>2021-09-11T12:50:06.305Z</time>
      </trkpt>
      <trkpt lat="45.92494" lon="5.84618">
        <ele>411</ele>
        <time>2021-09-11T12:50:07.305Z</time>
      </trkpt>
      <trkpt lat="45.92492" lon="5.84617">
        <ele>411</ele>
        <time>2021-09-11T12:50:08.304Z</time>
      </trkpt>
      <trkpt lat="45.92489" lon="5.84617">
        <ele>412</ele>
        <time>2021-09-11T12:50:09.305Z</time>
      </trkpt>
      <trkpt lat="45.92487" lon="5.84618">
        <ele>412</ele>
        <time>2021-09-11T12:50:10.305Z</time>
      </trkpt>
      <trkpt lat="45.92485" lon="5.84618">
        <ele>412</ele>
        <time>2021-09-11T12:50:11.305Z</time>
      </trkpt>
      <trkpt lat="45.92483" lon="5.84619">
        <ele>412</ele>
        <time>2021-09-11T12:50:12.305Z</time>
      </trkpt>
      <trkpt lat="45.9248" lon="5.84619">
        <ele>412</ele>
        <time>2021-09-11T12:50:13.305Z</time>
      </trkpt>
      <trkpt lat="45.92478" lon="5.84619">
        <ele>412</ele>
        <time>2021-09-11T12:50:14.304Z</time>
      </trkpt>
      <trkpt lat="45.92476" lon="5.8462">
        <ele>411</ele>
        <time>2021-09-11T12:50:15.305Z</time>
      </trkpt>
      <trkpt lat="45.92473" lon="5.8462">
        <ele>411</ele>
        <time>2021-09-11T12:50:16.305Z</time>
      </trkpt>
      <trkpt lat="45.92471" lon="5.8462">
        <ele>411</ele>
        <time>2021-09-11T12:50:17.305Z</time>
      </trkpt>
      <trkpt lat="45.92469" lon="5.8462">
        <ele>411</ele>
        <time>2021-09-11T12:50:18.305Z</time>
      </trkpt>
      <trkpt lat="45.92466" lon="5.8462">
        <ele>411</ele>
        <time>2021-09-11T12:50:19.305Z</time>
      </trkpt>
      <trkpt lat="45.92464" lon="5.8462">
        <ele>411</ele>
        <time>2021-09-11T12:50:20.305Z</time>
      </trkpt>
      <trkpt lat="45.92462" lon="5.84621">
        <ele>410</ele>
        <time>2021-09-11T12:50:21.304Z</time>
      </trkpt>
      <trkpt lat="45.9246" lon="5.84621">
        <ele>410</ele>
        <time>2021-09-11T12:50:22.305Z</time>
      </trkpt>
      <trkpt lat="45.92457" lon="5.84621">
        <ele>410</ele>
        <time>2021-09-11T12:50:23.305Z</time>
      </trkpt>
      <trkpt lat="45.92455" lon="5.84622">
        <ele>410</ele>
        <time>2021-09-11T12:50:24.305Z</time>
      </trkpt>
      <trkpt lat="45.92453" lon="5.84622">
        <ele>411</ele>
        <time>2021-09-11T12:50:25.305Z</time>
      </trkpt>
      <trkpt lat="45.9245" lon="5.84622">
        <ele>411</ele>
        <time>2021-09-11T12:50:26.305Z</time>
      </trkpt>
      <trkpt lat="45.92448" lon="5.84622">
        <ele>411</ele>
        <time>2021-09-11T12:50:27.305Z</time>
      </trkpt>
      <trkpt lat="45.92446" lon="5.84623">
        <ele>412</ele>
        <time>2021-09-11T12:50:28.304Z</time>
      </trkpt>
      <trkpt lat="45.92443" lon="5.84623">
        <ele>412</ele>
        <time>2021-09-11T12:50:29.305Z</time>
      </trkpt>
      <trkpt lat="45.92441" lon="5.84623">
        <ele>412</ele>
        <time>2021-09-11T12:50:30.305Z</time>
      </trkpt>
      <trkpt lat="45.92439" lon="5.84624">
        <ele>412</ele>
        <time>2021-09-11T12:50:31.304Z</time>
      </trkpt>
      <trkpt lat="45.92437" lon="5.84624">
        <ele>412</ele>
        <time>2021-09-11T12:50:32.304Z</time>
      </trkpt>
      <trkpt lat="45.92434" lon="5.84624">
        <ele>412</ele>
        <time>2021-09-11T12:50:33.305Z</time>
      </trkpt>
      <trkpt lat="45.92432" lon="5.84624">
        <ele>413</ele>
        <time>2021-09-11T12:50:34.305Z</time>
      </trkpt>
      <trkpt lat="45.9243" lon="5.84625">
        <ele>413</ele>
        <time>2021-09-11T12:50:35.304Z</time>
      </trkpt>
      <trkpt lat="45.92427" lon="5.84625">
        <ele>412</ele>
        <time>2021-09-11T12:50:36.304Z</time>
      </trkpt>
      <trkpt lat="45.92425" lon="5.84624">
        <ele>412</ele>
        <time>2021-09-11T12:50:37.305Z</time>
      </trkpt>
      <trkpt lat="45.92422" lon="5.84624">
        <ele>412</ele>
        <time>2021-09-11T12:50:38.305Z</time>
      </trkpt>
      <trkpt lat="45.9242" lon="5.84625">
        <ele>412</ele>
        <time>2021-09-11T12:50:39.305Z</time>
      </trkpt>
      <trkpt lat="45.92417" lon="5.84625">
        <ele>412</ele>
        <time>2021-09-11T12:50:40.305Z</time>
      </trkpt>
      <trkpt lat="45.92415" lon="5.84625">
        <ele>413</ele>
        <time>2021-09-11T12:50:41.305Z</time>
      </trkpt>
      <trkpt lat="45.92412" lon="5.84625">
        <ele>413</ele>
        <time>2021-09-11T12:50:42.305Z</time>
      </trkpt>
      <trkpt lat="45.9241" lon="5.84625">
        <ele>414</ele>
        <time>2021-09-11T12:50:43.305Z</time>
      </trkpt>
      <trkpt lat="45.92407" lon="5.84626">
        <ele>414</ele>
        <time>2021-09-11T12:50:44.305Z</time>
      </trkpt>
      <trkpt lat="45.92405" lon="5.84626">
        <ele>414</ele>
        <time>2021-09-11T12:50:45.305Z</time>
      </trkpt>
      <trkpt lat="45.92403" lon="5.84627">
        <ele>414</ele>
        <time>2021-09-11T12:50:46.305Z</time>
      </trkpt>
      <trkpt lat="45.924" lon="5.84627">
        <ele>415</ele>
        <time>2021-09-11T12:50:47.304Z</time>
      </trkpt>
      <trkpt lat="45.92398" lon="5.84628">
        <ele>415</ele>
        <time>2021-09-11T12:50:48.305Z</time>
      </trkpt>
      <trkpt lat="45.92395" lon="5.84628">
        <ele>415</ele>
        <time>2021-09-11T12:50:49.305Z</time>
      </trkpt>
      <trkpt lat="45.92393" lon="5.84628">
        <ele>415</ele>
        <time>2021-09-11T12:50:50.305Z</time>
      </trkpt>
      <trkpt lat="45.92391" lon="5.84628">
        <ele>415</ele>
        <time>2021-09-11T12:50:51.305Z</time>
      </trkpt>
      <trkpt lat="45.92388" lon="5.84628">
        <ele>415</ele>
        <time>2021-09-11T12:50:52.305Z</time>
      </trkpt>
      <trkpt lat="45.92386" lon="5.84629">
        <ele>415</ele>
        <time>2021-09-11T12:50:53.305Z</time>
      </trkpt>
      <trkpt lat="45.92384" lon="5.84629">
        <ele>416</ele>
        <time>2021-09-11T12:50:54.305Z</time>
      </trkpt>
      <trkpt lat="45.92382" lon="5.84629">
        <ele>416</ele>
        <time>2021-09-11T12:50:55.305Z</time>
      </trkpt>
      <trkpt lat="45.92379" lon="5.84629">
        <ele>416</ele>
        <time>2021-09-11T12:50:56.304Z</time>
      </trkpt>
      <trkpt lat="45.92377" lon="5.8463">
        <ele>416</ele>
        <time>2021-09-11T12:50:57.304Z</time>
      </trkpt>
      <trkpt lat="45.92375" lon="5.8463">
        <ele>417</ele>
        <time>2021-09-11T12:50:58.304Z</time>
      </trkpt>
      <trkpt lat="45.92373" lon="5.8463">
        <ele>417</ele>
        <time>2021-09-11T12:50:59.305Z</time>
      </trkpt>
      <trkpt lat="45.92371" lon="5.8463">
        <ele>417</ele>
        <time>2021-09-11T12:51:00.305Z</time>
      </trkpt>
      <trkpt lat="45.92368" lon="5.8463">
        <ele>417</ele>
        <time>2021-09-11T12:51:01.305Z</time>
      </trkpt>
      <trkpt lat="45.92366" lon="5.84631">
        <ele>418</ele>
        <time>2021-09-11T12:51:02.305Z</time>
      </trkpt>
      <trkpt lat="45.92364" lon="5.84631">
        <ele>418</ele>
        <time>2021-09-11T12:51:03.305Z</time>
      </trkpt>
      <trkpt lat="45.92362" lon="5.84631">
        <ele>419</ele>
        <time>2021-09-11T12:51:04.305Z</time>
      </trkpt>
      <trkpt lat="45.92359" lon="5.8463">
        <ele>419</ele>
        <time>2021-09-11T12:51:05.305Z</time>
      </trkpt>
      <trkpt lat="45.92357" lon="5.8463">
        <ele>420</ele>
        <time>2021-09-11T12:51:06.305Z</time>
      </trkpt>
      <trkpt lat="45.92355" lon="5.8463">
        <ele>420</ele>
        <time>2021-09-11T12:51:07.305Z</time>
      </trkpt>
      <trkpt lat="45.92352" lon="5.8463">
        <ele>420</ele>
        <time>2021-09-11T12:51:08.305Z</time>
      </trkpt>
      <trkpt lat="45.9235" lon="5.8463">
        <ele>421</ele>
        <time>2021-09-11T12:51:09.304Z</time>
      </trkpt>
      <trkpt lat="45.92347" lon="5.84629">
        <ele>421</ele>
        <time>2021-09-11T12:51:10.304Z</time>
      </trkpt>
      <trkpt lat="45.92345" lon="5.84628">
        <ele>421</ele>
        <time>2021-09-11T12:51:11.305Z</time>
      </trkpt>
      <trkpt lat="45.92343" lon="5.84628">
        <ele>421</ele>
        <time>2021-09-11T12:51:12.305Z</time>
      </trkpt>
      <trkpt lat="45.92341" lon="5.84627">
        <ele>422</ele>
        <time>2021-09-11T12:51:13.305Z</time>
      </trkpt>
      <trkpt lat="45.92339" lon="5.84627">
        <ele>422</ele>
        <time>2021-09-11T12:51:14.305Z</time>
      </trkpt>
      <trkpt lat="45.92336" lon="5.84626">
        <ele>422</ele>
        <time>2021-09-11T12:51:15.304Z</time>
      </trkpt>
      <trkpt lat="45.92334" lon="5.84626">
        <ele>423</ele>
        <time>2021-09-11T12:51:16.305Z</time>
      </trkpt>
      <trkpt lat="45.92332" lon="5.84625">
        <ele>423</ele>
        <time>2021-09-11T12:51:17.305Z</time>
      </trkpt>
      <trkpt lat="45.92329" lon="5.84624">
        <ele>423</ele>
        <time>2021-09-11T12:51:18.305Z</time>
      </trkpt>
      <trkpt lat="45.92327" lon="5.84623">
        <ele>423</ele>
        <time>2021-09-11T12:51:19.305Z</time>
      </trkpt>
      <trkpt lat="45.92325" lon="5.84623">
        <ele>422</ele>
        <time>2021-09-11T12:51:20.305Z</time>
      </trkpt>
      <trkpt lat="45.92323" lon="5.84622">
        <ele>422</ele>
        <time>2021-09-11T12:51:21.305Z</time>
      </trkpt>
      <trkpt lat="45.92321" lon="5.84621">
        <ele>422</ele>
        <time>2021-09-11T12:51:22.305Z</time>
      </trkpt>
      <trkpt lat="45.92319" lon="5.8462">
        <ele>421</ele>
        <time>2021-09-11T12:51:23.305Z</time>
      </trkpt>
      <trkpt lat="45.92317" lon="5.84619">
        <ele>421</ele>
        <time>2021-09-11T12:51:24.304Z</time>
      </trkpt>
      <trkpt lat="45.92314" lon="5.84618">
        <ele>421</ele>
        <time>2021-09-11T12:51:25.305Z</time>
      </trkpt>
      <trkpt lat="45.92312" lon="5.84617">
        <ele>422</ele>
        <time>2021-09-11T12:51:26.304Z</time>
      </trkpt>
      <trkpt lat="45.9231" lon="5.84616">
        <ele>422</ele>
        <time>2021-09-11T12:51:27.305Z</time>
      </trkpt>
      <trkpt lat="45.92308" lon="5.84615">
        <ele>422</ele>
        <time>2021-09-11T12:51:28.305Z</time>
      </trkpt>
      <trkpt lat="45.92306" lon="5.84615">
        <ele>422</ele>
        <time>2021-09-11T12:51:29.305Z</time>
      </trkpt>
      <trkpt lat="45.92304" lon="5.84614">
        <ele>422</ele>
        <time>2021-09-11T12:51:30.305Z</time>
      </trkpt>
      <trkpt lat="45.92302" lon="5.84613">
        <ele>422</ele>
        <time>2021-09-11T12:51:31.305Z</time>
      </trkpt>
      <trkpt lat="45.923" lon="5.84612">
        <ele>423</ele>
        <time>2021-09-11T12:51:32.305Z</time>
      </trkpt>
      <trkpt lat="45.92298" lon="5.84611">
        <ele>423</ele>
        <time>2021-09-11T12:51:33.305Z</time>
      </trkpt>
      <trkpt lat="45.92296" lon="5.84609">
        <ele>423</ele>
        <time>2021-09-11T12:51:34.305Z</time>
      </trkpt>
      <trkpt lat="45.92294" lon="5.84608">
        <ele>423</ele>
        <time>2021-09-11T12:51:35.304Z</time>
      </trkpt>
      <trkpt lat="45.92292" lon="5.84607">
        <ele>423</ele>
        <time>2021-09-11T12:51:36.304Z</time>
      </trkpt>
      <trkpt lat="45.9229" lon="5.84606">
        <ele>424</ele>
        <time>2021-09-11T12:51:37.305Z</time>
      </trkpt>
      <trkpt lat="45.92288" lon="5.84605">
        <ele>424</ele>
        <time>2021-09-11T12:51:38.305Z</time>
      </trkpt>
      <trkpt lat="45.92286" lon="5.84604">
        <ele>423</ele>
        <time>2021-09-11T12:51:39.304Z</time>
      </trkpt>
      <trkpt lat="45.92284" lon="5.84603">
        <ele>423</ele>
        <time>2021-09-11T12:51:40.304Z</time>
      </trkpt>
      <trkpt lat="45.92282" lon="5.84602">
        <ele>423</ele>
        <time>2021-09-11T12:51:41.305Z</time>
      </trkpt>
      <trkpt lat="45.9228" lon="5.84601">
        <ele>422</ele>
        <time>2021-09-11T12:51:42.305Z</time>
      </trkpt>
      <trkpt lat="45.92278" lon="5.84601">
        <ele>422</ele>
        <time>2021-09-11T12:51:43.304Z</time>
      </trkpt>
      <trkpt lat="45.92275" lon="5.846">
        <ele>422</ele>
        <time>2021-09-11T12:51:44.305Z</time>
      </trkpt>
      <trkpt lat="45.92273" lon="5.84599">
        <ele>422</ele>
        <time>2021-09-11T12:51:45.305Z</time>
      </trkpt>
      <trkpt lat="45.92271" lon="5.84599">
        <ele>422</ele>
        <time>2021-09-11T12:51:46.305Z</time>
      </trkpt>
      <trkpt lat="45.92269" lon="5.84599">
        <ele>422</ele>
        <time>2021-09-11T12:51:47.305Z</time>
      </trkpt>
      <trkpt lat="45.92266" lon="5.84599">
        <ele>422</ele>
        <time>2021-09-11T12:51:48.305Z</time>
      </trkpt>
      <trkpt lat="45.92264" lon="5.84599">
        <ele>422</ele>
        <time>2021-09-11T12:51:49.305Z</time>
      </trkpt>
      <trkpt lat="45.92262" lon="5.84599">
        <ele>423</ele>
        <time>2021-09-11T12:51:50.305Z</time>
      </trkpt>
      <trkpt lat="45.9226" lon="5.84599">
        <ele>423</ele>
        <time>2021-09-11T12:51:51.305Z</time>
      </trkpt>
      <trkpt lat="45.92258" lon="5.84599">
        <ele>424</ele>
        <time>2021-09-11T12:51:52.305Z</time>
      </trkpt>
      <trkpt lat="45.92256" lon="5.84599">
        <ele>424</ele>
        <time>2021-09-11T12:51:53.305Z</time>
      </trkpt>
      <trkpt lat="45.92253" lon="5.84599">
        <ele>424</ele>
        <time>2021-09-11T12:51:54.305Z</time>
      </trkpt>
      <trkpt lat="45.92251" lon="5.84599">
        <ele>425</ele>
        <time>2021-09-11T12:51:55.305Z</time>
      </trkpt>
      <trkpt lat="45.92249" lon="5.84599">
        <ele>425</ele>
        <time>2021-09-11T12:51:56.305Z</time>
      </trkpt>
      <trkpt lat="45.92247" lon="5.846">
        <ele>426</ele>
        <time>2021-09-11T12:51:57.305Z</time>
      </trkpt>
      <trkpt lat="45.92245" lon="5.846">
        <ele>426</ele>
        <time>2021-09-11T12:51:58.304Z</time>
      </trkpt>
      <trkpt lat="45.92242" lon="5.846">
        <ele>426</ele>
        <time>2021-09-11T12:51:59.304Z</time>
      </trkpt>
      <trkpt lat="45.9224" lon="5.846">
        <ele>425</ele>
        <time>2021-09-11T12:52:00.305Z</time>
      </trkpt>
      <trkpt lat="45.92238" lon="5.84601">
        <ele>425</ele>
        <time>2021-09-11T12:52:01.305Z</time>
      </trkpt>
      <trkpt lat="45.92236" lon="5.84601">
        <ele>426</ele>
        <time>2021-09-11T12:52:02.305Z</time>
      </trkpt>
      <trkpt lat="45.92233" lon="5.84602">
        <ele>426</ele>
        <time>2021-09-11T12:52:03.304Z</time>
      </trkpt>
      <trkpt lat="45.92231" lon="5.84602">
        <ele>426</ele>
        <time>2021-09-11T12:52:04.305Z</time>
      </trkpt>
      <trkpt lat="45.92229" lon="5.84602">
        <ele>426</ele>
        <time>2021-09-11T12:52:05.305Z</time>
      </trkpt>
      <trkpt lat="45.92227" lon="5.84603">
        <ele>426</ele>
        <time>2021-09-11T12:52:06.305Z</time>
      </trkpt>
      <trkpt lat="45.92225" lon="5.84603">
        <ele>426</ele>
        <time>2021-09-11T12:52:07.304Z</time>
      </trkpt>
      <trkpt lat="45.92223" lon="5.84604">
        <ele>427</ele>
        <time>2021-09-11T12:52:08.305Z</time>
      </trkpt>
      <trkpt lat="45.92221" lon="5.84604">
        <ele>427</ele>
        <time>2021-09-11T12:52:09.304Z</time>
      </trkpt>
      <trkpt lat="45.92219" lon="5.84605">
        <ele>427</ele>
        <time>2021-09-11T12:52:10.305Z</time>
      </trkpt>
      <trkpt lat="45.92218" lon="5.84605">
        <ele>428</ele>
        <time>2021-09-11T12:52:11.305Z</time>
      </trkpt>
      <trkpt lat="45.92215" lon="5.84605">
        <ele>428</ele>
        <time>2021-09-11T12:52:12.305Z</time>
      </trkpt>
      <trkpt lat="45.92213" lon="5.84606">
        <ele>429</ele>
        <time>2021-09-11T12:52:13.305Z</time>
      </trkpt>
      <trkpt lat="45.92211" lon="5.84606">
        <ele>429</ele>
        <time>2021-09-11T12:52:14.305Z</time>
      </trkpt>
      <trkpt lat="45.92209" lon="5.84606">
        <ele>429</ele>
        <time>2021-09-11T12:52:15.305Z</time>
      </trkpt>
      <trkpt lat="45.92207" lon="5.84606">
        <ele>429</ele>
        <time>2021-09-11T12:52:16.305Z</time>
      </trkpt>
      <trkpt lat="45.92205" lon="5.84606">
        <ele>430</ele>
        <time>2021-09-11T12:52:17.305Z</time>
      </trkpt>
      <trkpt lat="45.92203" lon="5.84607">
        <ele>430</ele>
        <time>2021-09-11T12:52:18.305Z</time>
      </trkpt>
      <trkpt lat="45.922" lon="5.84607">
        <ele>430</ele>
        <time>2021-09-11T12:52:19.305Z</time>
      </trkpt>
      <trkpt lat="45.92198" lon="5.84608">
        <ele>430</ele>
        <time>2021-09-11T12:52:20.305Z</time>
      </trkpt>
      <trkpt lat="45.92196" lon="5.84608">
        <ele>431</ele>
        <time>2021-09-11T12:52:21.305Z</time>
      </trkpt>
      <trkpt lat="45.92194" lon="5.84608">
        <ele>431</ele>
        <time>2021-09-11T12:52:22.305Z</time>
      </trkpt>
      <trkpt lat="45.92192" lon="5.84609">
        <ele>431</ele>
        <time>2021-09-11T12:52:23.305Z</time>
      </trkpt>
      <trkpt lat="45.92189" lon="5.84609">
        <ele>431</ele>
        <time>2021-09-11T12:52:24.305Z</time>
      </trkpt>
      <trkpt lat="45.92187" lon="5.8461">
        <ele>430</ele>
        <time>2021-09-11T12:52:25.305Z</time>
      </trkpt>
      <trkpt lat="45.92185" lon="5.84611">
        <ele>430</ele>
        <time>2021-09-11T12:52:26.304Z</time>
      </trkpt>
      <trkpt lat="45.92183" lon="5.84611">
        <ele>430</ele>
        <time>2021-09-11T12:52:27.305Z</time>
      </trkpt>
      <trkpt lat="45.92181" lon="5.84611">
        <ele>429</ele>
        <time>2021-09-11T12:52:28.305Z</time>
      </trkpt>
      <trkpt lat="45.92179" lon="5.84612">
        <ele>429</ele>
        <time>2021-09-11T12:52:29.304Z</time>
      </trkpt>
      <trkpt lat="45.92176" lon="5.84612">
        <ele>430</ele>
        <time>2021-09-11T12:52:30.304Z</time>
      </trkpt>
      <trkpt lat="45.92174" lon="5.84612">
        <ele>430</ele>
        <time>2021-09-11T12:52:31.305Z</time>
      </trkpt>
      <trkpt lat="45.92172" lon="5.84612">
        <ele>431</ele>
        <time>2021-09-11T12:52:32.305Z</time>
      </trkpt>
      <trkpt lat="45.9217" lon="5.84613">
        <ele>431</ele>
        <time>2021-09-11T12:52:33.305Z</time>
      </trkpt>
      <trkpt lat="45.92168" lon="5.84613">
        <ele>431</ele>
        <time>2021-09-11T12:52:34.305Z</time>
      </trkpt>
      <trkpt lat="45.92165" lon="5.84613">
        <ele>431</ele>
        <time>2021-09-11T12:52:35.304Z</time>
      </trkpt>
      <trkpt lat="45.92163" lon="5.84613">
        <ele>431</ele>
        <time>2021-09-11T12:52:36.305Z</time>
      </trkpt>
      <trkpt lat="45.92161" lon="5.84613">
        <ele>431</ele>
        <time>2021-09-11T12:52:37.304Z</time>
      </trkpt>
      <trkpt lat="45.92159" lon="5.84614">
        <ele>432</ele>
        <time>2021-09-11T12:52:38.305Z</time>
      </trkpt>
      <trkpt lat="45.92157" lon="5.84614">
        <ele>432</ele>
        <time>2021-09-11T12:52:39.305Z</time>
      </trkpt>
      <trkpt lat="45.92155" lon="5.84615">
        <ele>432</ele>
        <time>2021-09-11T12:52:40.305Z</time>
      </trkpt>
      <trkpt lat="45.92153" lon="5.84616">
        <ele>432</ele>
        <time>2021-09-11T12:52:41.305Z</time>
      </trkpt>
      <trkpt lat="45.9215" lon="5.84616">
        <ele>432</ele>
        <time>2021-09-11T12:53:02.383Z</time>
      </trkpt>
      <trkpt lat="45.92148" lon="5.84617">
        <ele>432</ele>
        <time>2021-09-11T12:53:03.383Z</time>
      </trkpt>
      <trkpt lat="45.92146" lon="5.84617">
        <ele>432</ele>
        <time>2021-09-11T12:53:04.383Z</time>
      </trkpt>
      <trkpt lat="45.92144" lon="5.84618">
        <ele>432</ele>
        <time>2021-09-11T12:53:05.383Z</time>
      </trkpt>
      <trkpt lat="45.92142" lon="5.84619">
        <ele>433</ele>
        <time>2021-09-11T12:53:06.383Z</time>
      </trkpt>
      <trkpt lat="45.9214" lon="5.8462">
        <ele>433</ele>
        <time>2021-09-11T12:53:07.382Z</time>
      </trkpt>
      <trkpt lat="45.92137" lon="5.84621">
        <ele>433</ele>
        <time>2021-09-11T12:53:08.383Z</time>
      </trkpt>
      <trkpt lat="45.92135" lon="5.84622">
        <ele>433</ele>
        <time>2021-09-11T12:53:09.383Z</time>
      </trkpt>
      <trkpt lat="45.92133" lon="5.84622">
        <ele>434</ele>
        <time>2021-09-11T12:53:10.383Z</time>
      </trkpt>
      <trkpt lat="45.92131" lon="5.84623">
        <ele>434</ele>
        <time>2021-09-11T12:53:11.382Z</time>
      </trkpt>
      <trkpt lat="45.92129" lon="5.84625">
        <ele>434</ele>
        <time>2021-09-11T12:53:12.383Z</time>
      </trkpt>
      <trkpt lat="45.92127" lon="5.84626">
        <ele>435</ele>
        <time>2021-09-11T12:53:13.383Z</time>
      </trkpt>
      <trkpt lat="45.92125" lon="5.84627">
        <ele>435</ele>
        <time>2021-09-11T12:53:14.382Z</time>
      </trkpt>
      <trkpt lat="45.92123" lon="5.84628">
        <ele>434</ele>
        <time>2021-09-11T12:53:15.383Z</time>
      </trkpt>
      <trkpt lat="45.92121" lon="5.8463">
        <ele>434</ele>
        <time>2021-09-11T12:53:16.383Z</time>
      </trkpt>
      <trkpt lat="45.92119" lon="5.84631">
        <ele>435</ele>
        <time>2021-09-11T12:53:17.383Z</time>
      </trkpt>
      <trkpt lat="45.92117" lon="5.84632">
        <ele>435</ele>
        <time>2021-09-11T12:53:18.383Z</time>
      </trkpt>
      <trkpt lat="45.92115" lon="5.84633">
        <ele>436</ele>
        <time>2021-09-11T12:53:19.382Z</time>
      </trkpt>
      <trkpt lat="45.92113" lon="5.84635">
        <ele>436</ele>
        <time>2021-09-11T12:53:20.383Z</time>
      </trkpt>
      <trkpt lat="45.92111" lon="5.84636">
        <ele>436</ele>
        <time>2021-09-11T12:53:21.383Z</time>
      </trkpt>
      <trkpt lat="45.92109" lon="5.84637">
        <ele>437</ele>
        <time>2021-09-11T12:53:22.383Z</time>
      </trkpt>
      <trkpt lat="45.92107" lon="5.84639">
        <ele>437</ele>
        <time>2021-09-11T12:53:23.383Z</time>
      </trkpt>
      <trkpt lat="45.92105" lon="5.8464">
        <ele>437</ele>
        <time>2021-09-11T12:53:24.383Z</time>
      </trkpt>
      <trkpt lat="45.92103" lon="5.84642">
        <ele>437</ele>
        <time>2021-09-11T12:53:25.382Z</time>
      </trkpt>
      <trkpt lat="45.92101" lon="5.84643">
        <ele>437</ele>
        <time>2021-09-11T12:53:26.383Z</time>
      </trkpt>
      <trkpt lat="45.92099" lon="5.84644">
        <ele>437</ele>
        <time>2021-09-11T12:53:27.383Z</time>
      </trkpt>
      <trkpt lat="45.92098" lon="5.84645">
        <ele>437</ele>
        <time>2021-09-11T12:53:28.382Z</time>
      </trkpt>
      <trkpt lat="45.92096" lon="5.84647">
        <ele>437</ele>
        <time>2021-09-11T12:53:29.383Z</time>
      </trkpt>
      <trkpt lat="45.92094" lon="5.84649">
        <ele>438</ele>
        <time>2021-09-11T12:53:30.382Z</time>
      </trkpt>
      <trkpt lat="45.92093" lon="5.8465">
        <ele>438</ele>
        <time>2021-09-11T12:53:31.383Z</time>
      </trkpt>
      <trkpt lat="45.92091" lon="5.84651">
        <ele>438</ele>
        <time>2021-09-11T12:53:32.383Z</time>
      </trkpt>
      <trkpt lat="45.9209" lon="5.84653">
        <ele>438</ele>
        <time>2021-09-11T12:53:33.383Z</time>
      </trkpt>
      <trkpt lat="45.92088" lon="5.84654">
        <ele>439</ele>
        <time>2021-09-11T12:53:34.383Z</time>
      </trkpt>
      <trkpt lat="45.92086" lon="5.84656">
        <ele>439</ele>
        <time>2021-09-11T12:53:35.383Z</time>
      </trkpt>
      <trkpt lat="45.92085" lon="5.84657">
        <ele>439</ele>
        <time>2021-09-11T12:53:36.382Z</time>
      </trkpt>
      <trkpt lat="45.92083" lon="5.84659">
        <ele>439</ele>
        <time>2021-09-11T12:53:37.383Z</time>
      </trkpt>
      <trkpt lat="45.92081" lon="5.8466">
        <ele>438</ele>
        <time>2021-09-11T12:53:38.383Z</time>
      </trkpt>
      <trkpt lat="45.9208" lon="5.84662">
        <ele>438</ele>
        <time>2021-09-11T12:53:39.383Z</time>
      </trkpt>
      <trkpt lat="45.92078" lon="5.84664">
        <ele>438</ele>
        <time>2021-09-11T12:53:40.382Z</time>
      </trkpt>
      <trkpt lat="45.92077" lon="5.84665">
        <ele>438</ele>
        <time>2021-09-11T12:53:41.383Z</time>
      </trkpt>
      <trkpt lat="45.92075" lon="5.84667">
        <ele>438</ele>
        <time>2021-09-11T12:53:42.383Z</time>
      </trkpt>
      <trkpt lat="45.92074" lon="5.84669">
        <ele>438</ele>
        <time>2021-09-11T12:53:43.383Z</time>
      </trkpt>
      <trkpt lat="45.92072" lon="5.8467">
        <ele>438</ele>
        <time>2021-09-11T12:53:44.383Z</time>
      </trkpt>
      <trkpt lat="45.9207" lon="5.84671">
        <ele>438</ele>
        <time>2021-09-11T12:53:45.383Z</time>
      </trkpt>
      <trkpt lat="45.92068" lon="5.84673">
        <ele>438</ele>
        <time>2021-09-11T12:53:46.383Z</time>
      </trkpt>
      <trkpt lat="45.92067" lon="5.84675">
        <ele>439</ele>
        <time>2021-09-11T12:53:47.382Z</time>
      </trkpt>
      <trkpt lat="45.92065" lon="5.84677">
        <ele>439</ele>
        <time>2021-09-11T12:53:48.382Z</time>
      </trkpt>
      <trkpt lat="45.92063" lon="5.84678">
        <ele>440</ele>
        <time>2021-09-11T12:53:49.383Z</time>
      </trkpt>
      <trkpt lat="45.92062" lon="5.84679">
        <ele>440</ele>
        <time>2021-09-11T12:53:50.382Z</time>
      </trkpt>
      <trkpt lat="45.9206" lon="5.84681">
        <ele>440</ele>
        <time>2021-09-11T12:53:51.382Z</time>
      </trkpt>
      <trkpt lat="45.92058" lon="5.84682">
        <ele>440</ele>
        <time>2021-09-11T12:53:52.383Z</time>
      </trkpt>
      <trkpt lat="45.92056" lon="5.84683">
        <ele>440</ele>
        <time>2021-09-11T12:53:53.383Z</time>
      </trkpt>
      <trkpt lat="45.92055" lon="5.84685">
        <ele>440</ele>
        <time>2021-09-11T12:53:54.382Z</time>
      </trkpt>
      <trkpt lat="45.92053" lon="5.84686">
        <ele>440</ele>
        <time>2021-09-11T12:53:55.383Z</time>
      </trkpt>
      <trkpt lat="45.92052" lon="5.84688">
        <ele>440</ele>
        <time>2021-09-11T12:53:56.382Z</time>
      </trkpt>
      <trkpt lat="45.9205" lon="5.84689">
        <ele>440</ele>
        <time>2021-09-11T12:53:57.383Z</time>
      </trkpt>
      <trkpt lat="45.92048" lon="5.8469">
        <ele>441</ele>
        <time>2021-09-11T12:53:58.383Z</time>
      </trkpt>
      <trkpt lat="45.92047" lon="5.84692">
        <ele>440</ele>
        <time>2021-09-11T12:53:59.383Z</time>
      </trkpt>
      <trkpt lat="45.92045" lon="5.84693">
        <ele>440</ele>
        <time>2021-09-11T12:54:00.382Z</time>
      </trkpt>
      <trkpt lat="45.92044" lon="5.84695">
        <ele>440</ele>
        <time>2021-09-11T12:54:01.383Z</time>
      </trkpt>
      <trkpt lat="45.92043" lon="5.84696">
        <ele>441</ele>
        <time>2021-09-11T12:54:02.383Z</time>
      </trkpt>
      <trkpt lat="45.92042" lon="5.84697">
        <ele>441</ele>
        <time>2021-09-11T12:54:03.383Z</time>
      </trkpt>
      <trkpt lat="45.92041" lon="5.84698">
        <ele>442</ele>
        <time>2021-09-11T12:54:04.382Z</time>
      </trkpt>
      <trkpt lat="45.92039" lon="5.84699">
        <ele>442</ele>
        <time>2021-09-11T12:54:05.382Z</time>
      </trkpt>
      <trkpt lat="45.92037" lon="5.84699">
        <ele>442</ele>
        <time>2021-09-11T12:54:06.383Z</time>
      </trkpt>
      <trkpt lat="45.92035" lon="5.84701">
        <ele>443</ele>
        <time>2021-09-11T12:54:07.383Z</time>
      </trkpt>
      <trkpt lat="45.92033" lon="5.84702">
        <ele>443</ele>
        <time>2021-09-11T12:54:08.383Z</time>
      </trkpt>
      <trkpt lat="45.9203" lon="5.84703">
        <ele>444</ele>
        <time>2021-09-11T12:54:09.383Z</time>
      </trkpt>
      <trkpt lat="45.92028" lon="5.84704">
        <ele>445</ele>
        <time>2021-09-11T12:54:10.383Z</time>
      </trkpt>
      <trkpt lat="45.92026" lon="5.84705">
        <ele>445</ele>
        <time>2021-09-11T12:54:11.383Z</time>
      </trkpt>
      <trkpt lat="45.92023" lon="5.84707">
        <ele>445</ele>
        <time>2021-09-11T12:54:12.382Z</time>
      </trkpt>
      <trkpt lat="45.92021" lon="5.84708">
        <ele>445</ele>
        <time>2021-09-11T12:54:13.382Z</time>
      </trkpt>
      <trkpt lat="45.92018" lon="5.8471">
        <ele>445</ele>
        <time>2021-09-11T12:54:14.383Z</time>
      </trkpt>
      <trkpt lat="45.92016" lon="5.84711">
        <ele>445</ele>
        <time>2021-09-11T12:54:15.383Z</time>
      </trkpt>
      <trkpt lat="45.92013" lon="5.84713">
        <ele>445</ele>
        <time>2021-09-11T12:54:16.382Z</time>
      </trkpt>
      <trkpt lat="45.9201" lon="5.84714">
        <ele>445</ele>
        <time>2021-09-11T12:54:17.383Z</time>
      </trkpt>
      <trkpt lat="45.92007" lon="5.84715">
        <ele>445</ele>
        <time>2021-09-11T12:54:18.382Z</time>
      </trkpt>
      <trkpt lat="45.92004" lon="5.84717">
        <ele>446</ele>
        <time>2021-09-11T12:54:19.382Z</time>
      </trkpt>
      <trkpt lat="45.92001" lon="5.84719">
        <ele>446</ele>
        <time>2021-09-11T12:54:20.383Z</time>
      </trkpt>
      <trkpt lat="45.91999" lon="5.8472">
        <ele>446</ele>
        <time>2021-09-11T12:54:21.383Z</time>
      </trkpt>
      <trkpt lat="45.91995" lon="5.84722">
        <ele>445</ele>
        <time>2021-09-11T12:54:22.383Z</time>
      </trkpt>
      <trkpt lat="45.91992" lon="5.84723">
        <ele>445</ele>
        <time>2021-09-11T12:54:23.383Z</time>
      </trkpt>
      <trkpt lat="45.9199" lon="5.84725">
        <ele>445</ele>
        <time>2021-09-11T12:54:24.383Z</time>
      </trkpt>
      <trkpt lat="45.91987" lon="5.84727">
        <ele>445</ele>
        <time>2021-09-11T12:54:25.383Z</time>
      </trkpt>
      <trkpt lat="45.91985" lon="5.84728">
        <ele>445</ele>
        <time>2021-09-11T12:54:26.382Z</time>
      </trkpt>
      <trkpt lat="45.91982" lon="5.8473">
        <ele>445</ele>
        <time>2021-09-11T12:54:27.383Z</time>
      </trkpt>
      <trkpt lat="45.91979" lon="5.84732">
        <ele>445</ele>
        <time>2021-09-11T12:54:28.383Z</time>
      </trkpt>
      <trkpt lat="45.91977" lon="5.84734">
        <ele>445</ele>
        <time>2021-09-11T12:54:29.383Z</time>
      </trkpt>
      <trkpt lat="45.91974" lon="5.84736">
        <ele>445</ele>
        <time>2021-09-11T12:54:30.383Z</time>
      </trkpt>
      <trkpt lat="45.91972" lon="5.84738">
        <ele>445</ele>
        <time>2021-09-11T12:54:31.383Z</time>
      </trkpt>
      <trkpt lat="45.9197" lon="5.8474">
        <ele>445</ele>
        <time>2021-09-11T12:54:32.382Z</time>
      </trkpt>
      <trkpt lat="45.91968" lon="5.84741">
        <ele>445</ele>
        <time>2021-09-11T12:54:33.383Z</time>
      </trkpt>
      <trkpt lat="45.91965" lon="5.84742">
        <ele>445</ele>
        <time>2021-09-11T12:54:34.382Z</time>
      </trkpt>
      <trkpt lat="45.91963" lon="5.84744">
        <ele>446</ele>
        <time>2021-09-11T12:54:35.382Z</time>
      </trkpt>
      <trkpt lat="45.91961" lon="5.84745">
        <ele>446</ele>
        <time>2021-09-11T12:54:36.383Z</time>
      </trkpt>
      <trkpt lat="45.91959" lon="5.84747">
        <ele>446</ele>
        <time>2021-09-11T12:54:37.382Z</time>
      </trkpt>
      <trkpt lat="45.91956" lon="5.84749">
        <ele>445</ele>
        <time>2021-09-11T12:54:38.383Z</time>
      </trkpt>
      <trkpt lat="45.91954" lon="5.84751">
        <ele>446</ele>
        <time>2021-09-11T12:54:39.383Z</time>
      </trkpt>
      <trkpt lat="45.91952" lon="5.84752">
        <ele>446</ele>
        <time>2021-09-11T12:54:40.383Z</time>
      </trkpt>
      <trkpt lat="45.9195" lon="5.84754">
        <ele>446</ele>
        <time>2021-09-11T12:54:41.383Z</time>
      </trkpt>
      <trkpt lat="45.91948" lon="5.84755">
        <ele>446</ele>
        <time>2021-09-11T12:54:42.383Z</time>
      </trkpt>
      <trkpt lat="45.91946" lon="5.84756">
        <ele>447</ele>
        <time>2021-09-11T12:54:43.383Z</time>
      </trkpt>
      <trkpt lat="45.91944" lon="5.84757">
        <ele>447</ele>
        <time>2021-09-11T12:54:44.382Z</time>
      </trkpt>
      <trkpt lat="45.91942" lon="5.84757">
        <ele>447</ele>
        <time>2021-09-11T12:54:45.383Z</time>
      </trkpt>
      <trkpt lat="45.9194" lon="5.84757">
        <ele>447</ele>
        <time>2021-09-11T12:54:46.383Z</time>
      </trkpt>
      <trkpt lat="45.91939" lon="5.84756">
        <ele>447</ele>
        <time>2021-09-11T12:54:47.383Z</time>
      </trkpt>
      <trkpt lat="45.91939" lon="5.84756">
        <ele>447</ele>
        <time>2021-09-11T12:54:48.383Z</time>
      </trkpt>
      <trkpt lat="45.91939" lon="5.84756">
        <ele>448</ele>
        <time>2021-09-11T12:54:49.383Z</time>
      </trkpt>
      <trkpt lat="45.91939" lon="5.84756">
        <ele>448</ele>
        <time>2021-09-11T12:54:50.382Z</time>
      </trkpt>
      <trkpt lat="45.91939" lon="5.84755">
        <ele>448</ele>
        <time>2021-09-11T12:54:51.383Z</time>
      </trkpt>
      <trkpt lat="45.91939" lon="5.84755">
        <ele>447</ele>
        <time>2021-09-11T12:54:52.383Z</time>
      </trkpt>
      <trkpt lat="45.91938" lon="5.84755">
        <ele>447</ele>
        <time>2021-09-11T12:54:53.382Z</time>
      </trkpt>
      <trkpt lat="45.91938" lon="5.84755">
        <ele>446</ele>
        <time>2021-09-11T12:54:54.383Z</time>
      </trkpt>
      <trkpt lat="45.91938" lon="5.84756">
        <ele>446</ele>
        <time>2021-09-11T12:54:55.383Z</time>
      </trkpt>
      <trkpt lat="45.91936" lon="5.84759">
        <ele>444</ele>
        <time>2021-09-11T12:54:56.384Z</time>
      </trkpt>
      <trkpt lat="45.91934" lon="5.84761">
        <ele>444</ele>
        <time>2021-09-11T12:54:57.384Z</time>
      </trkpt>
      <trkpt lat="45.91933" lon="5.84763">
        <ele>445</ele>
        <time>2021-09-11T12:54:58.384Z</time>
      </trkpt>
      <trkpt lat="45.91931" lon="5.84765">
        <ele>445</ele>
        <time>2021-09-11T12:54:59.383Z</time>
      </trkpt>
      <trkpt lat="45.91929" lon="5.84766">
        <ele>445</ele>
        <time>2021-09-11T12:55:00.384Z</time>
      </trkpt>
      <trkpt lat="45.91928" lon="5.84767">
        <ele>446</ele>
        <time>2021-09-11T12:55:01.384Z</time>
      </trkpt>
      <trkpt lat="45.91926" lon="5.84768">
        <ele>446</ele>
        <time>2021-09-11T12:55:02.384Z</time>
      </trkpt>
      <trkpt lat="45.91924" lon="5.84769">
        <ele>446</ele>
        <time>2021-09-11T12:55:03.384Z</time>
      </trkpt>
      <trkpt lat="45.91923" lon="5.84769">
        <ele>446</ele>
        <time>2021-09-11T12:55:04.384Z</time>
      </trkpt>
      <trkpt lat="45.91921" lon="5.8477">
        <ele>446</ele>
        <time>2021-09-11T12:55:05.383Z</time>
      </trkpt>
      <trkpt lat="45.91919" lon="5.84771">
        <ele>446</ele>
        <time>2021-09-11T12:55:06.384Z</time>
      </trkpt>
      <trkpt lat="45.91918" lon="5.84771">
        <ele>446</ele>
        <time>2021-09-11T12:55:07.383Z</time>
      </trkpt>
      <trkpt lat="45.91916" lon="5.84772">
        <ele>446</ele>
        <time>2021-09-11T12:55:08.383Z</time>
      </trkpt>
      <trkpt lat="45.91914" lon="5.84773">
        <ele>446</ele>
        <time>2021-09-11T12:55:09.384Z</time>
      </trkpt>
      <trkpt lat="45.91912" lon="5.84773">
        <ele>446</ele>
        <time>2021-09-11T12:55:10.384Z</time>
      </trkpt>
      <trkpt lat="45.9191" lon="5.84773">
        <ele>446</ele>
        <time>2021-09-11T12:55:11.384Z</time>
      </trkpt>
      <trkpt lat="45.91909" lon="5.84773">
        <ele>446</ele>
        <time>2021-09-11T12:55:12.384Z</time>
      </trkpt>
      <trkpt lat="45.91907" lon="5.84774">
        <ele>446</ele>
        <time>2021-09-11T12:55:13.384Z</time>
      </trkpt>
      <trkpt lat="45.91906" lon="5.84774">
        <ele>446</ele>
        <time>2021-09-11T12:55:14.384Z</time>
      </trkpt>
      <trkpt lat="45.91904" lon="5.84774">
        <ele>447</ele>
        <time>2021-09-11T12:55:15.384Z</time>
      </trkpt>
      <trkpt lat="45.91902" lon="5.84774">
        <ele>447</ele>
        <time>2021-09-11T12:55:16.384Z</time>
      </trkpt>
      <trkpt lat="45.919" lon="5.84774">
        <ele>447</ele>
        <time>2021-09-11T12:55:17.384Z</time>
      </trkpt>
      <trkpt lat="45.91898" lon="5.84774">
        <ele>448</ele>
        <time>2021-09-11T12:55:18.384Z</time>
      </trkpt>
      <trkpt lat="45.91896" lon="5.84773">
        <ele>448</ele>
        <time>2021-09-11T12:55:19.384Z</time>
      </trkpt>
      <trkpt lat="45.91895" lon="5.84771">
        <ele>448</ele>
        <time>2021-09-11T12:55:20.384Z</time>
      </trkpt>
      <trkpt lat="45.91894" lon="5.84768">
        <ele>448</ele>
        <time>2021-09-11T12:55:21.384Z</time>
      </trkpt>
      <trkpt lat="45.91894" lon="5.84765">
        <ele>448</ele>
        <time>2021-09-11T12:55:22.384Z</time>
      </trkpt>
      <trkpt lat="45.91894" lon="5.84762">
        <ele>448</ele>
        <time>2021-09-11T12:55:23.384Z</time>
      </trkpt>
      <trkpt lat="45.91895" lon="5.84759">
        <ele>448</ele>
        <time>2021-09-11T12:55:24.384Z</time>
      </trkpt>
      <trkpt lat="45.91895" lon="5.84756">
        <ele>448</ele>
        <time>2021-09-11T12:55:25.384Z</time>
      </trkpt>
      <trkpt lat="45.91896" lon="5.84753">
        <ele>447</ele>
        <time>2021-09-11T12:55:26.384Z</time>
      </trkpt>
      <trkpt lat="45.91897" lon="5.84751">
        <ele>447</ele>
        <time>2021-09-11T12:55:27.383Z</time>
      </trkpt>
      <trkpt lat="45.91899" lon="5.8475">
        <ele>446</ele>
        <time>2021-09-11T12:55:28.383Z</time>
      </trkpt>
      <trkpt lat="45.919" lon="5.8475">
        <ele>446</ele>
        <time>2021-09-11T12:55:29.384Z</time>
      </trkpt>
      <trkpt lat="45.91901" lon="5.84749">
        <ele>445</ele>
        <time>2021-09-11T12:55:30.384Z</time>
      </trkpt>
      <trkpt lat="45.91902" lon="5.84749">
        <ele>446</ele>
        <time>2021-09-11T12:55:31.384Z</time>
      </trkpt>
      <trkpt lat="45.91903" lon="5.84749">
        <ele>446</ele>
        <time>2021-09-11T12:55:32.384Z</time>
      </trkpt>
      <trkpt lat="45.91903" lon="5.84748">
        <ele>447</ele>
        <time>2021-09-11T12:55:33.384Z</time>
      </trkpt>
      <trkpt lat="45.91903" lon="5.84748">
        <ele>447</ele>
        <time>2021-09-11T12:55:34.383Z</time>
      </trkpt>
      <trkpt lat="45.91912" lon="5.84757">
        <ele>444</ele>
        <time>2021-09-12T07:06:36.796Z</time>
      </trkpt>
      <trkpt lat="45.91912" lon="5.84757">
        <ele>444</ele>
        <time>2021-09-12T07:06:36.796Z</time>
      </trkpt>
      <trkpt lat="45.91912" lon="5.84757">
        <ele>444</ele>
        <time>2021-09-12T07:06:37.797Z</time>
      </trkpt>
      <trkpt lat="45.91912" lon="5.84756">
        <ele>444</ele>
        <time>2021-09-12T07:06:38.798Z</time>
      </trkpt>
      <trkpt lat="45.91913" lon="5.84756">
        <ele>444</ele>
        <time>2021-09-12T07:06:39.797Z</time>
      </trkpt>
      <trkpt lat="45.91913" lon="5.84756">
        <ele>444</ele>
        <time>2021-09-12T07:06:40.797Z</time>
      </trkpt>
      <trkpt lat="45.91912" lon="5.84755">
        <ele>445</ele>
        <time>2021-09-12T07:06:41.797Z</time>
      </trkpt>
      <trkpt lat="45.91911" lon="5.84755">
        <ele>446</ele>
        <time>2021-09-12T07:06:42.797Z</time>
      </trkpt>
      <trkpt lat="45.91911" lon="5.84754">
        <ele>447</ele>
        <time>2021-09-12T07:06:43.797Z</time>
      </trkpt>
      <trkpt lat="45.9191" lon="5.84754">
        <ele>447</ele>
        <time>2021-09-12T07:06:44.797Z</time>
      </trkpt>
      <trkpt lat="45.9191" lon="5.84754">
        <ele>448</ele>
        <time>2021-09-12T07:06:45.797Z</time>
      </trkpt>
      <trkpt lat="45.91909" lon="5.84753">
        <ele>447</ele>
        <time>2021-09-12T07:06:46.797Z</time>
      </trkpt>
      <trkpt lat="45.91909" lon="5.84753">
        <ele>446</ele>
        <time>2021-09-12T07:06:47.798Z</time>
      </trkpt>
      <trkpt lat="45.91909" lon="5.84752">
        <ele>446</ele>
        <time>2021-09-12T07:06:48.798Z</time>
      </trkpt>
      <trkpt lat="45.91909" lon="5.84752">
        <ele>446</ele>
        <time>2021-09-12T07:06:49.797Z</time>
      </trkpt>
      <trkpt lat="45.91908" lon="5.84752">
        <ele>446</ele>
        <time>2021-09-12T07:06:50.797Z</time>
      </trkpt>
      <trkpt lat="45.91907" lon="5.84752">
        <ele>446</ele>
        <time>2021-09-12T07:06:51.798Z</time>
      </trkpt>
      <trkpt lat="45.91907" lon="5.84753">
        <ele>445</ele>
        <time>2021-09-12T07:06:52.797Z</time>
      </trkpt>
      <trkpt lat="45.91906" lon="5.84754">
        <ele>445</ele>
        <time>2021-09-12T07:06:53.798Z</time>
      </trkpt>
      <trkpt lat="45.91905" lon="5.84754">
        <ele>444</ele>
        <time>2021-09-12T07:06:54.798Z</time>
      </trkpt>
      <trkpt lat="45.91905" lon="5.84754">
        <ele>445</ele>
        <time>2021-09-12T07:06:55.798Z</time>
      </trkpt>
      <trkpt lat="45.91905" lon="5.84754">
        <ele>445</ele>
        <time>2021-09-12T07:06:56.798Z</time>
      </trkpt>
      <trkpt lat="45.91905" lon="5.84754">
        <ele>445</ele>
        <time>2021-09-12T07:06:57.797Z</time>
      </trkpt>
      <trkpt lat="45.91905" lon="5.84755">
        <ele>445</ele>
        <time>2021-09-12T07:06:58.798Z</time>
      </trkpt>
      <trkpt lat="45.91905" lon="5.84755">
        <ele>445</ele>
        <time>2021-09-12T07:06:59.798Z</time>
      </trkpt>
      <trkpt lat="45.91905" lon="5.84755">
        <ele>445</ele>
        <time>2021-09-12T07:07:00.798Z</time>
      </trkpt>
      <trkpt lat="45.91905" lon="5.84754">
        <ele>444</ele>
        <time>2021-09-12T07:07:01.798Z</time>
      </trkpt>
      <trkpt lat="45.91906" lon="5.84754">
        <ele>443</ele>
        <time>2021-09-12T07:07:02.798Z</time>
      </trkpt>
      <trkpt lat="45.91906" lon="5.84755">
        <ele>443</ele>
        <time>2021-09-12T07:07:03.797Z</time>
      </trkpt>
      <trkpt lat="45.91906" lon="5.84755">
        <ele>442</ele>
        <time>2021-09-12T07:07:04.798Z</time>
      </trkpt>
      <trkpt lat="45.91906" lon="5.84755">
        <ele>441</ele>
        <time>2021-09-12T07:07:05.798Z</time>
      </trkpt>
      <trkpt lat="45.91906" lon="5.84755">
        <ele>440</ele>
        <time>2021-09-12T07:07:06.798Z</time>
      </trkpt>
      <trkpt lat="45.91906" lon="5.84755">
        <ele>440</ele>
        <time>2021-09-12T07:07:07.797Z</time>
      </trkpt>
      <trkpt lat="45.91906" lon="5.84755">
        <ele>440</ele>
        <time>2021-09-12T07:07:08.798Z</time>
      </trkpt>
      <trkpt lat="45.91906" lon="5.84755">
        <ele>440</ele>
        <time>2021-09-12T07:07:09.798Z</time>
      </trkpt>
      <trkpt lat="45.91906" lon="5.84755">
        <ele>440</ele>
        <time>2021-09-12T07:07:10.798Z</time>
      </trkpt>
      <trkpt lat="45.91906" lon="5.84755">
        <ele>440</ele>
        <time>2021-09-12T07:07:11.798Z</time>
      </trkpt>
      <trkpt lat="45.91906" lon="5.84755">
        <ele>440</ele>
        <time>2021-09-12T07:07:12.798Z</time>
      </trkpt>
      <trkpt lat="45.91906" lon="5.84755">
        <ele>440</ele>
        <time>2021-09-12T07:07:13.797Z</time>
      </trkpt>
      <trkpt lat="45.91906" lon="5.84755">
        <ele>440</ele>
        <time>2021-09-12T07:07:14.798Z</time>
      </trkpt>
      <trkpt lat="45.91906" lon="5.84755">
        <ele>440</ele>
        <time>2021-09-12T07:07:15.798Z</time>
      </trkpt>
      <trkpt lat="45.91906" lon="5.84755">
        <ele>441</ele>
        <time>2021-09-12T07:07:16.798Z</time>
      </trkpt>
      <trkpt lat="45.91906" lon="5.84755">
        <ele>441</ele>
        <time>2021-09-12T07:07:17.798Z</time>
      </trkpt>
      <trkpt lat="45.91906" lon="5.84755">
        <ele>441</ele>
        <time>2021-09-12T07:07:18.798Z</time>
      </trkpt>
      <trkpt lat="45.91906" lon="5.84755">
        <ele>441</ele>
        <time>2021-09-12T07:07:19.798Z</time>
      </trkpt>
      <trkpt lat="45.91906" lon="5.84755">
        <ele>441</ele>
        <time>2021-09-12T07:07:20.797Z</time>
      </trkpt>
      <trkpt lat="45.91906" lon="5.84755">
        <ele>442</ele>
        <time>2021-09-12T07:07:21.798Z</time>
      </trkpt>
      <trkpt lat="45.91906" lon="5.84754">
        <ele>442</ele>
        <time>2021-09-12T07:07:22.798Z</time>
      </trkpt>
      <trkpt lat="45.91906" lon="5.84754">
        <ele>442</ele>
        <time>2021-09-12T07:07:23.797Z</time>
      </trkpt>
      <trkpt lat="45.91905" lon="5.84754">
        <ele>442</ele>
        <time>2021-09-12T07:07:24.798Z</time>
      </trkpt>
      <trkpt lat="45.91902" lon="5.84755">
        <ele>442</ele>
        <time>2021-09-12T07:07:25.797Z</time>
      </trkpt>
      <trkpt lat="45.919" lon="5.84757">
        <ele>442</ele>
        <time>2021-09-12T07:07:26.798Z</time>
      </trkpt>
      <trkpt lat="45.91898" lon="5.84759">
        <ele>442</ele>
        <time>2021-09-12T07:07:27.798Z</time>
      </trkpt>
      <trkpt lat="45.91897" lon="5.84761">
        <ele>443</ele>
        <time>2021-09-12T07:07:28.798Z</time>
      </trkpt>
      <trkpt lat="45.91895" lon="5.84764">
        <ele>443</ele>
        <time>2021-09-12T07:07:29.798Z</time>
      </trkpt>
      <trkpt lat="45.91894" lon="5.84766">
        <ele>443</ele>
        <time>2021-09-12T07:07:30.798Z</time>
      </trkpt>
      <trkpt lat="45.91894" lon="5.84769">
        <ele>444</ele>
        <time>2021-09-12T07:07:31.798Z</time>
      </trkpt>
      <trkpt lat="45.91894" lon="5.84771">
        <ele>444</ele>
        <time>2021-09-12T07:07:32.798Z</time>
      </trkpt>
      <trkpt lat="45.91894" lon="5.84773">
        <ele>444</ele>
        <time>2021-09-12T07:07:33.797Z</time>
      </trkpt>
      <trkpt lat="45.91894" lon="5.84774">
        <ele>444</ele>
        <time>2021-09-12T07:07:34.797Z</time>
      </trkpt>
      <trkpt lat="45.91895" lon="5.84775">
        <ele>445</ele>
        <time>2021-09-12T07:07:35.797Z</time>
      </trkpt>
      <trkpt lat="45.91897" lon="5.84776">
        <ele>445</ele>
        <time>2021-09-12T07:07:36.798Z</time>
      </trkpt>
      <trkpt lat="45.91898" lon="5.84776">
        <ele>445</ele>
        <time>2021-09-12T07:07:37.798Z</time>
      </trkpt>
      <trkpt lat="45.91901" lon="5.84776">
        <ele>445</ele>
        <time>2021-09-12T07:07:38.797Z</time>
      </trkpt>
      <trkpt lat="45.91903" lon="5.84776">
        <ele>445</ele>
        <time>2021-09-12T07:07:39.798Z</time>
      </trkpt>
      <trkpt lat="45.91906" lon="5.84777">
        <ele>445</ele>
        <time>2021-09-12T07:07:40.797Z</time>
      </trkpt>
      <trkpt lat="45.91908" lon="5.84778">
        <ele>445</ele>
        <time>2021-09-12T07:07:41.798Z</time>
      </trkpt>
      <trkpt lat="45.9191" lon="5.84779">
        <ele>446</ele>
        <time>2021-09-12T07:07:42.797Z</time>
      </trkpt>
      <trkpt lat="45.91913" lon="5.84779">
        <ele>446</ele>
        <time>2021-09-12T07:07:43.798Z</time>
      </trkpt>
      <trkpt lat="45.91915" lon="5.84778">
        <ele>447</ele>
        <time>2021-09-12T07:07:44.798Z</time>
      </trkpt>
      <trkpt lat="45.91917" lon="5.84776">
        <ele>447</ele>
        <time>2021-09-12T07:07:45.797Z</time>
      </trkpt>
      <trkpt lat="45.9192" lon="5.84775">
        <ele>447</ele>
        <time>2021-09-12T07:07:46.798Z</time>
      </trkpt>
      <trkpt lat="45.91922" lon="5.84774">
        <ele>447</ele>
        <time>2021-09-12T07:07:47.798Z</time>
      </trkpt>
      <trkpt lat="45.91924" lon="5.84773">
        <ele>447</ele>
        <time>2021-09-12T07:07:48.798Z</time>
      </trkpt>
      <trkpt lat="45.91927" lon="5.84772">
        <ele>447</ele>
        <time>2021-09-12T07:07:49.798Z</time>
      </trkpt>
      <trkpt lat="45.91929" lon="5.84771">
        <ele>447</ele>
        <time>2021-09-12T07:07:50.798Z</time>
      </trkpt>
      <trkpt lat="45.91932" lon="5.8477">
        <ele>447</ele>
        <time>2021-09-12T07:07:51.798Z</time>
      </trkpt>
      <trkpt lat="45.91935" lon="5.84769">
        <ele>447</ele>
        <time>2021-09-12T07:07:52.797Z</time>
      </trkpt>
      <trkpt lat="45.91939" lon="5.84766">
        <ele>447</ele>
        <time>2021-09-12T07:07:53.798Z</time>
      </trkpt>
      <trkpt lat="45.91942" lon="5.84763">
        <ele>447</ele>
        <time>2021-09-12T07:07:54.798Z</time>
      </trkpt>
      <trkpt lat="45.91946" lon="5.84761">
        <ele>447</ele>
        <time>2021-09-12T07:07:55.798Z</time>
      </trkpt>
      <trkpt lat="45.91949" lon="5.84758">
        <ele>447</ele>
        <time>2021-09-12T07:07:56.797Z</time>
      </trkpt>
      <trkpt lat="45.91954" lon="5.84755">
        <ele>447</ele>
        <time>2021-09-12T07:07:57.797Z</time>
      </trkpt>
      <trkpt lat="45.91958" lon="5.84753">
        <ele>446</ele>
        <time>2021-09-12T07:07:58.798Z</time>
      </trkpt>
      <trkpt lat="45.91961" lon="5.84751">
        <ele>446</ele>
        <time>2021-09-12T07:07:59.798Z</time>
      </trkpt>
      <trkpt lat="45.91964" lon="5.84749">
        <ele>445</ele>
        <time>2021-09-12T07:08:00.797Z</time>
      </trkpt>
      <trkpt lat="45.91968" lon="5.84746">
        <ele>445</ele>
        <time>2021-09-12T07:08:01.797Z</time>
      </trkpt>
      <trkpt lat="45.91972" lon="5.84744">
        <ele>445</ele>
        <time>2021-09-12T07:08:02.798Z</time>
      </trkpt>
      <trkpt lat="45.91975" lon="5.84742">
        <ele>445</ele>
        <time>2021-09-12T07:08:03.798Z</time>
      </trkpt>
      <trkpt lat="45.91978" lon="5.8474">
        <ele>444</ele>
        <time>2021-09-12T07:08:04.798Z</time>
      </trkpt>
      <trkpt lat="45.9198" lon="5.84738">
        <ele>444</ele>
        <time>2021-09-12T07:08:05.798Z</time>
      </trkpt>
      <trkpt lat="45.91983" lon="5.84736">
        <ele>444</ele>
        <time>2021-09-12T07:08:06.798Z</time>
      </trkpt>
      <trkpt lat="45.91986" lon="5.84733">
        <ele>444</ele>
        <time>2021-09-12T07:08:07.798Z</time>
      </trkpt>
      <trkpt lat="45.91989" lon="5.84731">
        <ele>444</ele>
        <time>2021-09-12T07:08:08.797Z</time>
      </trkpt>
      <trkpt lat="45.91992" lon="5.84729">
        <ele>445</ele>
        <time>2021-09-12T07:08:09.798Z</time>
      </trkpt>
      <trkpt lat="45.91994" lon="5.84728">
        <ele>445</ele>
        <time>2021-09-12T07:08:10.798Z</time>
      </trkpt>
      <trkpt lat="45.91997" lon="5.84726">
        <ele>445</ele>
        <time>2021-09-12T07:08:11.797Z</time>
      </trkpt>
      <trkpt lat="45.91999" lon="5.84724">
        <ele>445</ele>
        <time>2021-09-12T07:08:12.798Z</time>
      </trkpt>
      <trkpt lat="45.92002" lon="5.84722">
        <ele>446</ele>
        <time>2021-09-12T07:08:13.798Z</time>
      </trkpt>
      <trkpt lat="45.92004" lon="5.8472">
        <ele>446</ele>
        <time>2021-09-12T07:08:14.797Z</time>
      </trkpt>
      <trkpt lat="45.92007" lon="5.84718">
        <ele>447</ele>
        <time>2021-09-12T07:08:15.798Z</time>
      </trkpt>
      <trkpt lat="45.92011" lon="5.84715">
        <ele>447</ele>
        <time>2021-09-12T07:08:16.797Z</time>
      </trkpt>
      <trkpt lat="45.92014" lon="5.84714">
        <ele>448</ele>
        <time>2021-09-12T07:08:17.798Z</time>
      </trkpt>
      <trkpt lat="45.92017" lon="5.84713">
        <ele>448</ele>
        <time>2021-09-12T07:08:18.797Z</time>
      </trkpt>
      <trkpt lat="45.9202" lon="5.84711">
        <ele>449</ele>
        <time>2021-09-12T07:08:19.797Z</time>
      </trkpt>
      <trkpt lat="45.92023" lon="5.8471">
        <ele>448</ele>
        <time>2021-09-12T07:08:20.797Z</time>
      </trkpt>
      <trkpt lat="45.92025" lon="5.84708">
        <ele>448</ele>
        <time>2021-09-12T07:08:21.798Z</time>
      </trkpt>
      <trkpt lat="45.92028" lon="5.84706">
        <ele>448</ele>
        <time>2021-09-12T07:08:22.798Z</time>
      </trkpt>
      <trkpt lat="45.9203" lon="5.84705">
        <ele>448</ele>
        <time>2021-09-12T07:08:23.797Z</time>
      </trkpt>
      <trkpt lat="45.92033" lon="5.84703">
        <ele>448</ele>
        <time>2021-09-12T07:08:24.797Z</time>
      </trkpt>
      <trkpt lat="45.92037" lon="5.84701">
        <ele>448</ele>
        <time>2021-09-12T07:08:25.797Z</time>
      </trkpt>
      <trkpt lat="45.92039" lon="5.847">
        <ele>448</ele>
        <time>2021-09-12T07:08:26.798Z</time>
      </trkpt>
      <trkpt lat="45.92042" lon="5.84698">
        <ele>449</ele>
        <time>2021-09-12T07:08:27.797Z</time>
      </trkpt>
      <trkpt lat="45.92044" lon="5.84697">
        <ele>450</ele>
        <time>2021-09-12T07:08:28.798Z</time>
      </trkpt>
      <trkpt lat="45.92047" lon="5.84695">
        <ele>450</ele>
        <time>2021-09-12T07:08:29.798Z</time>
      </trkpt>
      <trkpt lat="45.92049" lon="5.84694">
        <ele>449</ele>
        <time>2021-09-12T07:08:30.798Z</time>
      </trkpt>
      <trkpt lat="45.92051" lon="5.84692">
        <ele>449</ele>
        <time>2021-09-12T07:08:31.798Z</time>
      </trkpt>
      <trkpt lat="45.92053" lon="5.8469">
        <ele>448</ele>
        <time>2021-09-12T07:08:32.798Z</time>
      </trkpt>
      <trkpt lat="45.92056" lon="5.84688">
        <ele>448</ele>
        <time>2021-09-12T07:08:33.797Z</time>
      </trkpt>
      <trkpt lat="45.9206" lon="5.84685">
        <ele>447</ele>
        <time>2021-09-12T07:08:34.798Z</time>
      </trkpt>
      <trkpt lat="45.92064" lon="5.84681">
        <ele>447</ele>
        <time>2021-09-12T07:08:35.797Z</time>
      </trkpt>
      <trkpt lat="45.92069" lon="5.84676">
        <ele>447</ele>
        <time>2021-09-12T07:08:36.798Z</time>
      </trkpt>
      <trkpt lat="45.92074" lon="5.84671">
        <ele>446</ele>
        <time>2021-09-12T07:08:37.797Z</time>
      </trkpt>
      <trkpt lat="45.92079" lon="5.84666">
        <ele>446</ele>
        <time>2021-09-12T07:08:38.798Z</time>
      </trkpt>
      <trkpt lat="45.92085" lon="5.84661">
        <ele>446</ele>
        <time>2021-09-12T07:08:39.797Z</time>
      </trkpt>
      <trkpt lat="45.92091" lon="5.84655">
        <ele>446</ele>
        <time>2021-09-12T07:08:40.798Z</time>
      </trkpt>
      <trkpt lat="45.92098" lon="5.84649">
        <ele>445</ele>
        <time>2021-09-12T07:08:41.798Z</time>
      </trkpt>
      <trkpt lat="45.92105" lon="5.84642">
        <ele>445</ele>
        <time>2021-09-12T07:08:42.798Z</time>
      </trkpt>
      <trkpt lat="45.92111" lon="5.84637">
        <ele>444</ele>
        <time>2021-09-12T07:08:43.798Z</time>
      </trkpt>
      <trkpt lat="45.92121" lon="5.8463">
        <ele>443</ele>
        <time>2021-09-12T07:08:44.797Z</time>
      </trkpt>
      <trkpt lat="45.9213" lon="5.84624">
        <ele>443</ele>
        <time>2021-09-12T07:08:45.798Z</time>
      </trkpt>
      <trkpt lat="45.92138" lon="5.8462">
        <ele>442</ele>
        <time>2021-09-12T07:08:46.798Z</time>
      </trkpt>
      <trkpt lat="45.92147" lon="5.84616">
        <ele>441</ele>
        <time>2021-09-12T07:08:47.798Z</time>
      </trkpt>
      <trkpt lat="45.92155" lon="5.84614">
        <ele>440</ele>
        <time>2021-09-12T07:08:48.798Z</time>
      </trkpt>
      <trkpt lat="45.92164" lon="5.84612">
        <ele>440</ele>
        <time>2021-09-12T07:08:49.797Z</time>
      </trkpt>
      <trkpt lat="45.92173" lon="5.8461">
        <ele>439</ele>
        <time>2021-09-12T07:08:50.797Z</time>
      </trkpt>
      <trkpt lat="45.92181" lon="5.84609">
        <ele>438</ele>
        <time>2021-09-12T07:08:51.797Z</time>
      </trkpt>
      <trkpt lat="45.9219" lon="5.84608">
        <ele>437</ele>
        <time>2021-09-12T07:08:52.798Z</time>
      </trkpt>
      <trkpt lat="45.922" lon="5.84607">
        <ele>436</ele>
        <time>2021-09-12T07:08:53.798Z</time>
      </trkpt>
      <trkpt lat="45.92209" lon="5.84605">
        <ele>436</ele>
        <time>2021-09-12T07:08:54.798Z</time>
      </trkpt>
      <trkpt lat="45.9222" lon="5.84603">
        <ele>434</ele>
        <time>2021-09-12T07:08:55.798Z</time>
      </trkpt>
      <trkpt lat="45.9223" lon="5.84602">
        <ele>433</ele>
        <time>2021-09-12T07:08:56.798Z</time>
      </trkpt>
      <trkpt lat="45.92239" lon="5.846">
        <ele>432</ele>
        <time>2021-09-12T07:08:57.798Z</time>
      </trkpt>
      <trkpt lat="45.92248" lon="5.84599">
        <ele>432</ele>
        <time>2021-09-12T07:08:58.798Z</time>
      </trkpt>
      <trkpt lat="45.92256" lon="5.84598">
        <ele>432</ele>
        <time>2021-09-12T07:08:59.797Z</time>
      </trkpt>
      <trkpt lat="45.92265" lon="5.84597">
        <ele>431</ele>
        <time>2021-09-12T07:09:00.797Z</time>
      </trkpt>
      <trkpt lat="45.92272" lon="5.84598">
        <ele>430</ele>
        <time>2021-09-12T07:09:01.797Z</time>
      </trkpt>
      <trkpt lat="45.92281" lon="5.84599">
        <ele>429</ele>
        <time>2021-09-12T07:09:02.798Z</time>
      </trkpt>
      <trkpt lat="45.92291" lon="5.84602">
        <ele>429</ele>
        <time>2021-09-12T07:09:03.798Z</time>
      </trkpt>
      <trkpt lat="45.92299" lon="5.84605">
        <ele>428</ele>
        <time>2021-09-12T07:09:04.797Z</time>
      </trkpt>
      <trkpt lat="45.92307" lon="5.84609">
        <ele>428</ele>
        <time>2021-09-12T07:09:05.797Z</time>
      </trkpt>
      <trkpt lat="45.92314" lon="5.84613">
        <ele>428</ele>
        <time>2021-09-12T07:09:06.798Z</time>
      </trkpt>
      <trkpt lat="45.92322" lon="5.84617">
        <ele>427</ele>
        <time>2021-09-12T07:09:07.798Z</time>
      </trkpt>
      <trkpt lat="45.92332" lon="5.84621">
        <ele>426</ele>
        <time>2021-09-12T07:09:08.798Z</time>
      </trkpt>
      <trkpt lat="45.9234" lon="5.84624">
        <ele>425</ele>
        <time>2021-09-12T07:09:09.798Z</time>
      </trkpt>
      <trkpt lat="45.92349" lon="5.84626">
        <ele>425</ele>
        <time>2021-09-12T07:09:10.797Z</time>
      </trkpt>
      <trkpt lat="45.92355" lon="5.84627">
        <ele>425</ele>
        <time>2021-09-12T07:09:11.798Z</time>
      </trkpt>
      <trkpt lat="45.92366" lon="5.84628">
        <ele>425</ele>
        <time>2021-09-12T07:09:12.798Z</time>
      </trkpt>
      <trkpt lat="45.92374" lon="5.84628">
        <ele>424</ele>
        <time>2021-09-12T07:09:13.798Z</time>
      </trkpt>
      <trkpt lat="45.92383" lon="5.84628">
        <ele>424</ele>
        <time>2021-09-12T07:09:14.798Z</time>
      </trkpt>
      <trkpt lat="45.92392" lon="5.84627">
        <ele>423</ele>
        <time>2021-09-12T07:09:15.798Z</time>
      </trkpt>
      <trkpt lat="45.92403" lon="5.84626">
        <ele>423</ele>
        <time>2021-09-12T07:09:16.797Z</time>
      </trkpt>
      <trkpt lat="45.92413" lon="5.84625">
        <ele>423</ele>
        <time>2021-09-12T07:09:17.798Z</time>
      </trkpt>
      <trkpt lat="45.92422" lon="5.84624">
        <ele>422</ele>
        <time>2021-09-12T07:09:18.797Z</time>
      </trkpt>
      <trkpt lat="45.92432" lon="5.84624">
        <ele>421</ele>
        <time>2021-09-12T07:09:19.797Z</time>
      </trkpt>
      <trkpt lat="45.9244" lon="5.84623">
        <ele>420</ele>
        <time>2021-09-12T07:09:20.798Z</time>
      </trkpt>
      <trkpt lat="45.9245" lon="5.84623">
        <ele>419</ele>
        <time>2021-09-12T07:09:21.797Z</time>
      </trkpt>
      <trkpt lat="45.92461" lon="5.84622">
        <ele>419</ele>
        <time>2021-09-12T07:09:22.798Z</time>
      </trkpt>
      <trkpt lat="45.92471" lon="5.84621">
        <ele>418</ele>
        <time>2021-09-12T07:09:23.798Z</time>
      </trkpt>
      <trkpt lat="45.9248" lon="5.8462">
        <ele>417</ele>
        <time>2021-09-12T07:09:24.798Z</time>
      </trkpt>
      <trkpt lat="45.92489" lon="5.84619">
        <ele>417</ele>
        <time>2021-09-12T07:09:25.798Z</time>
      </trkpt>
      <trkpt lat="45.92499" lon="5.84618">
        <ele>417</ele>
        <time>2021-09-12T07:09:26.798Z</time>
      </trkpt>
      <trkpt lat="45.92508" lon="5.84617">
        <ele>416</ele>
        <time>2021-09-12T07:09:27.798Z</time>
      </trkpt>
      <trkpt lat="45.92517" lon="5.84616">
        <ele>415</ele>
        <time>2021-09-12T07:09:28.798Z</time>
      </trkpt>
      <trkpt lat="45.92526" lon="5.84614">
        <ele>415</ele>
        <time>2021-09-12T07:09:29.797Z</time>
      </trkpt>
      <trkpt lat="45.92533" lon="5.84613">
        <ele>414</ele>
        <time>2021-09-12T07:09:30.797Z</time>
      </trkpt>
      <trkpt lat="45.92543" lon="5.84611">
        <ele>413</ele>
        <time>2021-09-12T07:09:31.798Z</time>
      </trkpt>
      <trkpt lat="45.92552" lon="5.8461">
        <ele>413</ele>
        <time>2021-09-12T07:09:32.798Z</time>
      </trkpt>
      <trkpt lat="45.92561" lon="5.84608">
        <ele>413</ele>
        <time>2021-09-12T07:09:33.798Z</time>
      </trkpt>
      <trkpt lat="45.9257" lon="5.84607">
        <ele>412</ele>
        <time>2021-09-12T07:09:34.797Z</time>
      </trkpt>
      <trkpt lat="45.92577" lon="5.84606">
        <ele>412</ele>
        <time>2021-09-12T07:09:35.798Z</time>
      </trkpt>
      <trkpt lat="45.92588" lon="5.84605">
        <ele>411</ele>
        <time>2021-09-12T07:09:36.798Z</time>
      </trkpt>
      <trkpt lat="45.92597" lon="5.84603">
        <ele>410</ele>
        <time>2021-09-12T07:09:37.798Z</time>
      </trkpt>
      <trkpt lat="45.92606" lon="5.84602">
        <ele>410</ele>
        <time>2021-09-12T07:09:38.798Z</time>
      </trkpt>
      <trkpt lat="45.92615" lon="5.84601">
        <ele>410</ele>
        <time>2021-09-12T07:09:39.798Z</time>
      </trkpt>
      <trkpt lat="45.92624" lon="5.846">
        <ele>410</ele>
        <time>2021-09-12T07:09:40.797Z</time>
      </trkpt>
      <trkpt lat="45.92633" lon="5.84599">
        <ele>409</ele>
        <time>2021-09-12T07:09:41.798Z</time>
      </trkpt>
      <trkpt lat="45.92642" lon="5.84598">
        <ele>408</ele>
        <time>2021-09-12T07:09:42.798Z</time>
      </trkpt>
      <trkpt lat="45.92651" lon="5.84597">
        <ele>407</ele>
        <time>2021-09-12T07:09:43.797Z</time>
      </trkpt>
      <trkpt lat="45.9266" lon="5.84595">
        <ele>407</ele>
        <time>2021-09-12T07:09:44.798Z</time>
      </trkpt>
      <trkpt lat="45.92669" lon="5.84594">
        <ele>406</ele>
        <time>2021-09-12T07:09:45.798Z</time>
      </trkpt>
      <trkpt lat="45.92678" lon="5.84594">
        <ele>405</ele>
        <time>2021-09-12T07:09:46.797Z</time>
      </trkpt>
      <trkpt lat="45.92686" lon="5.84595">
        <ele>404</ele>
        <time>2021-09-12T07:09:47.798Z</time>
      </trkpt>
      <trkpt lat="45.92695" lon="5.84597">
        <ele>404</ele>
        <time>2021-09-12T07:09:48.798Z</time>
      </trkpt>
      <trkpt lat="45.92703" lon="5.84599">
        <ele>404</ele>
        <time>2021-09-12T07:09:49.798Z</time>
      </trkpt>
      <trkpt lat="45.92712" lon="5.84602">
        <ele>403</ele>
        <time>2021-09-12T07:09:50.797Z</time>
      </trkpt>
      <trkpt lat="45.9272" lon="5.84605">
        <ele>403</ele>
        <time>2021-09-12T07:09:51.798Z</time>
      </trkpt>
      <trkpt lat="45.92729" lon="5.84608">
        <ele>403</ele>
        <time>2021-09-12T07:09:52.798Z</time>
      </trkpt>
      <trkpt lat="45.92738" lon="5.84611">
        <ele>402</ele>
        <time>2021-09-12T07:09:53.798Z</time>
      </trkpt>
      <trkpt lat="45.92747" lon="5.84614">
        <ele>401</ele>
        <time>2021-09-12T07:09:54.798Z</time>
      </trkpt>
      <trkpt lat="45.92757" lon="5.84617">
        <ele>401</ele>
        <time>2021-09-12T07:09:55.798Z</time>
      </trkpt>
      <trkpt lat="45.92766" lon="5.8462">
        <ele>400</ele>
        <time>2021-09-12T07:09:56.797Z</time>
      </trkpt>
      <trkpt lat="45.92775" lon="5.84623">
        <ele>400</ele>
        <time>2021-09-12T07:09:57.798Z</time>
      </trkpt>
      <trkpt lat="45.92784" lon="5.84626">
        <ele>399</ele>
        <time>2021-09-12T07:09:58.798Z</time>
      </trkpt>
      <trkpt lat="45.92793" lon="5.84629">
        <ele>398</ele>
        <time>2021-09-12T07:09:59.797Z</time>
      </trkpt>
      <trkpt lat="45.92802" lon="5.84633">
        <ele>398</ele>
        <time>2021-09-12T07:10:00.797Z</time>
      </trkpt>
      <trkpt lat="45.9281" lon="5.84636">
        <ele>397</ele>
        <time>2021-09-12T07:10:01.798Z</time>
      </trkpt>
      <trkpt lat="45.92817" lon="5.84639">
        <ele>396</ele>
        <time>2021-09-12T07:10:02.798Z</time>
      </trkpt>
      <trkpt lat="45.92822" lon="5.84643">
        <ele>395</ele>
        <time>2021-09-12T07:10:03.798Z</time>
      </trkpt>
      <trkpt lat="45.92828" lon="5.84649">
        <ele>395</ele>
        <time>2021-09-12T07:10:04.798Z</time>
      </trkpt>
      <trkpt lat="45.92834" lon="5.84656">
        <ele>395</ele>
        <time>2021-09-12T07:10:05.798Z</time>
      </trkpt>
      <trkpt lat="45.92839" lon="5.84664">
        <ele>395</ele>
        <time>2021-09-12T07:10:06.797Z</time>
      </trkpt>
      <trkpt lat="45.92843" lon="5.84673">
        <ele>394</ele>
        <time>2021-09-12T07:10:07.798Z</time>
      </trkpt>
      <trkpt lat="45.92846" lon="5.84681">
        <ele>394</ele>
        <time>2021-09-12T07:10:08.798Z</time>
      </trkpt>
      <trkpt lat="45.92849" lon="5.84691">
        <ele>393</ele>
        <time>2021-09-12T07:10:09.798Z</time>
      </trkpt>
      <trkpt lat="45.92852" lon="5.84699">
        <ele>393</ele>
        <time>2021-09-12T07:10:10.798Z</time>
      </trkpt>
      <trkpt lat="45.92854" lon="5.84707">
        <ele>393</ele>
        <time>2021-09-12T07:10:11.798Z</time>
      </trkpt>
      <trkpt lat="45.92858" lon="5.84714">
        <ele>392</ele>
        <time>2021-09-12T07:10:12.798Z</time>
      </trkpt>
      <trkpt lat="45.92861" lon="5.84718">
        <ele>391</ele>
        <time>2021-09-12T07:10:13.797Z</time>
      </trkpt>
      <trkpt lat="45.92864" lon="5.8472">
        <ele>390</ele>
        <time>2021-09-12T07:10:14.798Z</time>
      </trkpt>
      <trkpt lat="45.92867" lon="5.84721">
        <ele>389</ele>
        <time>2021-09-12T07:10:15.798Z</time>
      </trkpt>
      <trkpt lat="45.92871" lon="5.84719">
        <ele>389</ele>
        <time>2021-09-12T07:10:16.798Z</time>
      </trkpt>
      <trkpt lat="45.92873" lon="5.84716">
        <ele>389</ele>
        <time>2021-09-12T07:10:17.798Z</time>
      </trkpt>
      <trkpt lat="45.92873" lon="5.84711">
        <ele>389</ele>
        <time>2021-09-12T07:10:18.797Z</time>
      </trkpt>
      <trkpt lat="45.92873" lon="5.84705">
        <ele>389</ele>
        <time>2021-09-12T07:10:19.798Z</time>
      </trkpt>
      <trkpt lat="45.92871" lon="5.84696">
        <ele>389</ele>
        <time>2021-09-12T07:10:20.798Z</time>
      </trkpt>
      <trkpt lat="45.9287" lon="5.84688">
        <ele>389</ele>
        <time>2021-09-12T07:10:21.797Z</time>
      </trkpt>
      <trkpt lat="45.92868" lon="5.84679">
        <ele>389</ele>
        <time>2021-09-12T07:10:22.798Z</time>
      </trkpt>
      <trkpt lat="45.92867" lon="5.8467">
        <ele>389</ele>
        <time>2021-09-12T07:10:23.797Z</time>
      </trkpt>
      <trkpt lat="45.92865" lon="5.8466">
        <ele>388</ele>
        <time>2021-09-12T07:10:24.797Z</time>
      </trkpt>
      <trkpt lat="45.92865" lon="5.8465">
        <ele>388</ele>
        <time>2021-09-12T07:10:25.797Z</time>
      </trkpt>
      <trkpt lat="45.92864" lon="5.84642">
        <ele>388</ele>
        <time>2021-09-12T07:10:26.798Z</time>
      </trkpt>
      <trkpt lat="45.92864" lon="5.84629">
        <ele>387</ele>
        <time>2021-09-12T07:10:27.798Z</time>
      </trkpt>
      <trkpt lat="45.92865" lon="5.84618">
        <ele>387</ele>
        <time>2021-09-12T07:10:28.797Z</time>
      </trkpt>
      <trkpt lat="45.92865" lon="5.84606">
        <ele>386</ele>
        <time>2021-09-12T07:10:29.797Z</time>
      </trkpt>
      <trkpt lat="45.92866" lon="5.84597">
        <ele>386</ele>
        <time>2021-09-12T07:10:30.797Z</time>
      </trkpt>
      <trkpt lat="45.92868" lon="5.84586">
        <ele>385</ele>
        <time>2021-09-12T07:10:31.798Z</time>
      </trkpt>
      <trkpt lat="45.9287" lon="5.84572">
        <ele>385</ele>
        <time>2021-09-12T07:10:32.797Z</time>
      </trkpt>
      <trkpt lat="45.92873" lon="5.84559">
        <ele>385</ele>
        <time>2021-09-12T07:10:33.798Z</time>
      </trkpt>
      <trkpt lat="45.92875" lon="5.84547">
        <ele>384</ele>
        <time>2021-09-12T07:10:34.797Z</time>
      </trkpt>
      <trkpt lat="45.92878" lon="5.84535">
        <ele>384</ele>
        <time>2021-09-12T07:10:35.797Z</time>
      </trkpt>
      <trkpt lat="45.92881" lon="5.84522">
        <ele>384</ele>
        <time>2021-09-12T07:10:36.798Z</time>
      </trkpt>
      <trkpt lat="45.92883" lon="5.84508">
        <ele>384</ele>
        <time>2021-09-12T07:10:37.798Z</time>
      </trkpt>
      <trkpt lat="45.92886" lon="5.84495">
        <ele>384</ele>
        <time>2021-09-12T07:10:38.798Z</time>
      </trkpt>
      <trkpt lat="45.92887" lon="5.84481">
        <ele>384</ele>
        <time>2021-09-12T07:10:39.798Z</time>
      </trkpt>
      <trkpt lat="45.92889" lon="5.84468">
        <ele>383</ele>
        <time>2021-09-12T07:10:40.797Z</time>
      </trkpt>
      <trkpt lat="45.92889" lon="5.84454">
        <ele>383</ele>
        <time>2021-09-12T07:10:41.798Z</time>
      </trkpt>
      <trkpt lat="45.92888" lon="5.84441">
        <ele>382</ele>
        <time>2021-09-12T07:10:42.798Z</time>
      </trkpt>
      <trkpt lat="45.92886" lon="5.84427">
        <ele>382</ele>
        <time>2021-09-12T07:10:43.797Z</time>
      </trkpt>
      <trkpt lat="45.92883" lon="5.84414">
        <ele>381</ele>
        <time>2021-09-12T07:10:44.798Z</time>
      </trkpt>
      <trkpt lat="45.9288" lon="5.84403">
        <ele>380</ele>
        <time>2021-09-12T07:10:45.798Z</time>
      </trkpt>
      <trkpt lat="45.92876" lon="5.8439">
        <ele>379</ele>
        <time>2021-09-12T07:10:46.798Z</time>
      </trkpt>
      <trkpt lat="45.92872" lon="5.84373">
        <ele>378</ele>
        <time>2021-09-12T07:10:47.798Z</time>
      </trkpt>
      <trkpt lat="45.92869" lon="5.8436">
        <ele>377</ele>
        <time>2021-09-12T07:10:48.798Z</time>
      </trkpt>
      <trkpt lat="45.92865" lon="5.84345">
        <ele>376</ele>
        <time>2021-09-12T07:10:49.797Z</time>
      </trkpt>
      <trkpt lat="45.92862" lon="5.84334">
        <ele>375</ele>
        <time>2021-09-12T07:10:50.798Z</time>
      </trkpt>
      <trkpt lat="45.92858" lon="5.84317">
        <ele>375</ele>
        <time>2021-09-12T07:10:51.798Z</time>
      </trkpt>
      <trkpt lat="45.92854" lon="5.84303">
        <ele>374</ele>
        <time>2021-09-12T07:10:52.798Z</time>
      </trkpt>
      <trkpt lat="45.92851" lon="5.84292">
        <ele>374</ele>
        <time>2021-09-12T07:10:53.797Z</time>
      </trkpt>
      <trkpt lat="45.92847" lon="5.8428">
        <ele>374</ele>
        <time>2021-09-12T07:10:54.798Z</time>
      </trkpt>
      <trkpt lat="45.92844" lon="5.84267">
        <ele>373</ele>
        <time>2021-09-12T07:10:55.798Z</time>
      </trkpt>
      <trkpt lat="45.92842" lon="5.84251">
        <ele>372</ele>
        <time>2021-09-12T07:10:56.798Z</time>
      </trkpt>
      <trkpt lat="45.92843" lon="5.84241">
        <ele>372</ele>
        <time>2021-09-12T07:10:57.798Z</time>
      </trkpt>
      <trkpt lat="45.92844" lon="5.84226">
        <ele>371</ele>
        <time>2021-09-12T07:10:58.798Z</time>
      </trkpt>
      <trkpt lat="45.92846" lon="5.84215">
        <ele>370</ele>
        <time>2021-09-12T07:10:59.798Z</time>
      </trkpt>
      <trkpt lat="45.92849" lon="5.84202">
        <ele>369</ele>
        <time>2021-09-12T07:11:00.797Z</time>
      </trkpt>
      <trkpt lat="45.92852" lon="5.84188">
        <ele>369</ele>
        <time>2021-09-12T07:11:01.797Z</time>
      </trkpt>
      <trkpt lat="45.92856" lon="5.84173">
        <ele>368</ele>
        <time>2021-09-12T07:11:02.798Z</time>
      </trkpt>
      <trkpt lat="45.92859" lon="5.8416">
        <ele>367</ele>
        <time>2021-09-12T07:11:03.797Z</time>
      </trkpt>
      <trkpt lat="45.92863" lon="5.84149">
        <ele>366</ele>
        <time>2021-09-12T07:11:04.798Z</time>
      </trkpt>
      <trkpt lat="45.92869" lon="5.84137">
        <ele>366</ele>
        <time>2021-09-12T07:11:05.798Z</time>
      </trkpt>
      <trkpt lat="45.92876" lon="5.84123">
        <ele>365</ele>
        <time>2021-09-12T07:11:06.798Z</time>
      </trkpt>
      <trkpt lat="45.92883" lon="5.84111">
        <ele>364</ele>
        <time>2021-09-12T07:11:07.797Z</time>
      </trkpt>
      <trkpt lat="45.9289" lon="5.84099">
        <ele>363</ele>
        <time>2021-09-12T07:11:08.798Z</time>
      </trkpt>
      <trkpt lat="45.92897" lon="5.84087">
        <ele>362</ele>
        <time>2021-09-12T07:11:09.797Z</time>
      </trkpt>
      <trkpt lat="45.92903" lon="5.84073">
        <ele>361</ele>
        <time>2021-09-12T07:11:10.798Z</time>
      </trkpt>
      <trkpt lat="45.92908" lon="5.8406">
        <ele>360</ele>
        <time>2021-09-12T07:11:11.797Z</time>
      </trkpt>
      <trkpt lat="45.92913" lon="5.84045">
        <ele>360</ele>
        <time>2021-09-12T07:11:12.797Z</time>
      </trkpt>
      <trkpt lat="45.92918" lon="5.84031">
        <ele>359</ele>
        <time>2021-09-12T07:11:13.798Z</time>
      </trkpt>
      <trkpt lat="45.92921" lon="5.8402">
        <ele>358</ele>
        <time>2021-09-12T07:11:14.798Z</time>
      </trkpt>
      <trkpt lat="45.92925" lon="5.84005">
        <ele>357</ele>
        <time>2021-09-12T07:11:15.798Z</time>
      </trkpt>
      <trkpt lat="45.92928" lon="5.83995">
        <ele>356</ele>
        <time>2021-09-12T07:11:16.798Z</time>
      </trkpt>
      <trkpt lat="45.92931" lon="5.8399">
        <ele>355</ele>
        <time>2021-09-12T07:11:17.797Z</time>
      </trkpt>
      <trkpt lat="45.92936" lon="5.83988">
        <ele>354</ele>
        <time>2021-09-12T07:11:18.797Z</time>
      </trkpt>
      <trkpt lat="45.92941" lon="5.8399">
        <ele>353</ele>
        <time>2021-09-12T07:11:19.798Z</time>
      </trkpt>
      <trkpt lat="45.92944" lon="5.83997">
        <ele>353</ele>
        <time>2021-09-12T07:11:20.798Z</time>
      </trkpt>
      <trkpt lat="45.92946" lon="5.84005">
        <ele>352</ele>
        <time>2021-09-12T07:11:21.797Z</time>
      </trkpt>
      <trkpt lat="45.92949" lon="5.84013">
        <ele>352</ele>
        <time>2021-09-12T07:11:22.797Z</time>
      </trkpt>
      <trkpt lat="45.9295" lon="5.84021">
        <ele>351</ele>
        <time>2021-09-12T07:11:23.798Z</time>
      </trkpt>
      <trkpt lat="45.92954" lon="5.84035">
        <ele>351</ele>
        <time>2021-09-12T07:11:24.797Z</time>
      </trkpt>
      <trkpt lat="45.92957" lon="5.84045">
        <ele>350</ele>
        <time>2021-09-12T07:11:25.797Z</time>
      </trkpt>
      <trkpt lat="45.92959" lon="5.84056">
        <ele>350</ele>
        <time>2021-09-12T07:11:26.798Z</time>
      </trkpt>
      <trkpt lat="45.92962" lon="5.84064">
        <ele>349</ele>
        <time>2021-09-12T07:11:27.798Z</time>
      </trkpt>
      <trkpt lat="45.92968" lon="5.84075">
        <ele>349</ele>
        <time>2021-09-12T07:11:28.797Z</time>
      </trkpt>
      <trkpt lat="45.92973" lon="5.84083">
        <ele>349</ele>
        <time>2021-09-12T07:11:29.798Z</time>
      </trkpt>
      <trkpt lat="45.92979" lon="5.84088">
        <ele>349</ele>
        <time>2021-09-12T07:11:30.798Z</time>
      </trkpt>
      <trkpt lat="45.92986" lon="5.8409">
        <ele>348</ele>
        <time>2021-09-12T07:11:31.798Z</time>
      </trkpt>
      <trkpt lat="45.92991" lon="5.84088">
        <ele>348</ele>
        <time>2021-09-12T07:11:32.797Z</time>
      </trkpt>
      <trkpt lat="45.92996" lon="5.84081">
        <ele>347</ele>
        <time>2021-09-12T07:11:33.798Z</time>
      </trkpt>
      <trkpt lat="45.93" lon="5.84071">
        <ele>346</ele>
        <time>2021-09-12T07:11:34.798Z</time>
      </trkpt>
      <trkpt lat="45.93004" lon="5.8406">
        <ele>346</ele>
        <time>2021-09-12T07:11:35.798Z</time>
      </trkpt>
      <trkpt lat="45.93007" lon="5.84052">
        <ele>345</ele>
        <time>2021-09-12T07:11:36.798Z</time>
      </trkpt>
      <trkpt lat="45.93012" lon="5.84041">
        <ele>345</ele>
        <time>2021-09-12T07:11:37.797Z</time>
      </trkpt>
      <trkpt lat="45.93019" lon="5.8403">
        <ele>345</ele>
        <time>2021-09-12T07:11:38.798Z</time>
      </trkpt>
      <trkpt lat="45.93026" lon="5.84023">
        <ele>344</ele>
        <time>2021-09-12T07:11:39.798Z</time>
      </trkpt>
      <trkpt lat="45.93033" lon="5.84018">
        <ele>344</ele>
        <time>2021-09-12T07:11:40.798Z</time>
      </trkpt>
      <trkpt lat="45.93041" lon="5.84014">
        <ele>343</ele>
        <time>2021-09-12T07:11:41.798Z</time>
      </trkpt>
      <trkpt lat="45.93049" lon="5.84009">
        <ele>343</ele>
        <time>2021-09-12T07:11:42.798Z</time>
      </trkpt>
      <trkpt lat="45.93058" lon="5.84003">
        <ele>342</ele>
        <time>2021-09-12T07:11:43.798Z</time>
      </trkpt>
      <trkpt lat="45.93065" lon="5.83995">
        <ele>341</ele>
        <time>2021-09-12T07:11:44.798Z</time>
      </trkpt>
      <trkpt lat="45.93071" lon="5.83987">
        <ele>340</ele>
        <time>2021-09-12T07:11:45.797Z</time>
      </trkpt>
      <trkpt lat="45.93077" lon="5.83978">
        <ele>340</ele>
        <time>2021-09-12T07:11:46.798Z</time>
      </trkpt>
      <trkpt lat="45.93083" lon="5.83969">
        <ele>340</ele>
        <time>2021-09-12T07:11:47.798Z</time>
      </trkpt>
      <trkpt lat="45.93088" lon="5.83959">
        <ele>339</ele>
        <time>2021-09-12T07:11:48.798Z</time>
      </trkpt>
      <trkpt lat="45.93094" lon="5.83946">
        <ele>339</ele>
        <time>2021-09-12T07:11:49.797Z</time>
      </trkpt>
      <trkpt lat="45.93097" lon="5.83936">
        <ele>339</ele>
        <time>2021-09-12T07:11:50.797Z</time>
      </trkpt>
      <trkpt lat="45.931" lon="5.83924">
        <ele>339</ele>
        <time>2021-09-12T07:11:51.797Z</time>
      </trkpt>
      <trkpt lat="45.93103" lon="5.83911">
        <ele>339</ele>
        <time>2021-09-12T07:11:52.797Z</time>
      </trkpt>
      <trkpt lat="45.93105" lon="5.83895">
        <ele>339</ele>
        <time>2021-09-12T07:11:53.798Z</time>
      </trkpt>
      <trkpt lat="45.93105" lon="5.83882">
        <ele>338</ele>
        <time>2021-09-12T07:11:54.797Z</time>
      </trkpt>
      <trkpt lat="45.93104" lon="5.83868">
        <ele>338</ele>
        <time>2021-09-12T07:11:55.797Z</time>
      </trkpt>
      <trkpt lat="45.93102" lon="5.83857">
        <ele>337</ele>
        <time>2021-09-12T07:11:56.798Z</time>
      </trkpt>
      <trkpt lat="45.93098" lon="5.83842">
        <ele>336</ele>
        <time>2021-09-12T07:11:57.798Z</time>
      </trkpt>
      <trkpt lat="45.93094" lon="5.83833">
        <ele>336</ele>
        <time>2021-09-12T07:11:58.798Z</time>
      </trkpt>
      <trkpt lat="45.93086" lon="5.8382">
        <ele>335</ele>
        <time>2021-09-12T07:11:59.797Z</time>
      </trkpt>
      <trkpt lat="45.93081" lon="5.83812">
        <ele>334</ele>
        <time>2021-09-12T07:12:00.798Z</time>
      </trkpt>
      <trkpt lat="45.93074" lon="5.83802">
        <ele>333</ele>
        <time>2021-09-12T07:12:01.798Z</time>
      </trkpt>
      <trkpt lat="45.93067" lon="5.83791">
        <ele>332</ele>
        <time>2021-09-12T07:12:02.797Z</time>
      </trkpt>
      <trkpt lat="45.9306" lon="5.83779">
        <ele>331</ele>
        <time>2021-09-12T07:12:03.798Z</time>
      </trkpt>
      <trkpt lat="45.93054" lon="5.83767">
        <ele>330</ele>
        <time>2021-09-12T07:12:04.798Z</time>
      </trkpt>
      <trkpt lat="45.93047" lon="5.83755">
        <ele>329</ele>
        <time>2021-09-12T07:12:05.798Z</time>
      </trkpt>
      <trkpt lat="45.93042" lon="5.83743">
        <ele>329</ele>
        <time>2021-09-12T07:12:06.797Z</time>
      </trkpt>
      <trkpt lat="45.93037" lon="5.83733">
        <ele>328</ele>
        <time>2021-09-12T07:12:07.798Z</time>
      </trkpt>
      <trkpt lat="45.93034" lon="5.83719">
        <ele>328</ele>
        <time>2021-09-12T07:12:08.797Z</time>
      </trkpt>
      <trkpt lat="45.93034" lon="5.83708">
        <ele>328</ele>
        <time>2021-09-12T07:12:09.798Z</time>
      </trkpt>
      <trkpt lat="45.93035" lon="5.83696">
        <ele>328</ele>
        <time>2021-09-12T07:12:10.797Z</time>
      </trkpt>
      <trkpt lat="45.93037" lon="5.83687">
        <ele>328</ele>
        <time>2021-09-12T07:12:11.798Z</time>
      </trkpt>
      <trkpt lat="45.93039" lon="5.83674">
        <ele>327</ele>
        <time>2021-09-12T07:12:12.798Z</time>
      </trkpt>
      <trkpt lat="45.93042" lon="5.83663">
        <ele>326</ele>
        <time>2021-09-12T07:12:13.798Z</time>
      </trkpt>
      <trkpt lat="45.93045" lon="5.83651">
        <ele>326</ele>
        <time>2021-09-12T07:12:14.798Z</time>
      </trkpt>
      <trkpt lat="45.93046" lon="5.83643">
        <ele>325</ele>
        <time>2021-09-12T07:12:15.797Z</time>
      </trkpt>
      <trkpt lat="45.93048" lon="5.83632">
        <ele>324</ele>
        <time>2021-09-12T07:12:16.798Z</time>
      </trkpt>
      <trkpt lat="45.93051" lon="5.83619">
        <ele>324</ele>
        <time>2021-09-12T07:12:17.798Z</time>
      </trkpt>
      <trkpt lat="45.93052" lon="5.83609">
        <ele>323</ele>
        <time>2021-09-12T07:12:18.797Z</time>
      </trkpt>
      <trkpt lat="45.93054" lon="5.83601">
        <ele>323</ele>
        <time>2021-09-12T07:12:19.798Z</time>
      </trkpt>
      <trkpt lat="45.93055" lon="5.83591">
        <ele>323</ele>
        <time>2021-09-12T07:12:20.797Z</time>
      </trkpt>
      <trkpt lat="45.93057" lon="5.83582">
        <ele>323</ele>
        <time>2021-09-12T07:12:21.798Z</time>
      </trkpt>
      <trkpt lat="45.93058" lon="5.83571">
        <ele>323</ele>
        <time>2021-09-12T07:12:22.798Z</time>
      </trkpt>
      <trkpt lat="45.93059" lon="5.83563">
        <ele>323</ele>
        <time>2021-09-12T07:12:23.797Z</time>
      </trkpt>
      <trkpt lat="45.9306" lon="5.83557">
        <ele>323</ele>
        <time>2021-09-12T07:12:24.798Z</time>
      </trkpt>
      <trkpt lat="45.93061" lon="5.8355">
        <ele>323</ele>
        <time>2021-09-12T07:12:25.798Z</time>
      </trkpt>
      <trkpt lat="45.93063" lon="5.83543">
        <ele>323</ele>
        <time>2021-09-12T07:12:26.798Z</time>
      </trkpt>
      <trkpt lat="45.93065" lon="5.83537">
        <ele>323</ele>
        <time>2021-09-12T07:12:27.797Z</time>
      </trkpt>
      <trkpt lat="45.93066" lon="5.83532">
        <ele>322</ele>
        <time>2021-09-12T07:12:28.798Z</time>
      </trkpt>
      <trkpt lat="45.93067" lon="5.83529">
        <ele>322</ele>
        <time>2021-09-12T07:12:29.798Z</time>
      </trkpt>
      <trkpt lat="45.93068" lon="5.83524">
        <ele>321</ele>
        <time>2021-09-12T07:12:30.798Z</time>
      </trkpt>
      <trkpt lat="45.93068" lon="5.8352">
        <ele>321</ele>
        <time>2021-09-12T07:12:31.797Z</time>
      </trkpt>
      <trkpt lat="45.93069" lon="5.83516">
        <ele>321</ele>
        <time>2021-09-12T07:12:32.798Z</time>
      </trkpt>
      <trkpt lat="45.9307" lon="5.83513">
        <ele>320</ele>
        <time>2021-09-12T07:12:33.798Z</time>
      </trkpt>
      <trkpt lat="45.9307" lon="5.83509">
        <ele>320</ele>
        <time>2021-09-12T07:12:34.798Z</time>
      </trkpt>
      <trkpt lat="45.93071" lon="5.83505">
        <ele>320</ele>
        <time>2021-09-12T07:12:35.798Z</time>
      </trkpt>
      <trkpt lat="45.93071" lon="5.83503">
        <ele>321</ele>
        <time>2021-09-12T07:12:36.797Z</time>
      </trkpt>
      <trkpt lat="45.93071" lon="5.835">
        <ele>321</ele>
        <time>2021-09-12T07:12:37.798Z</time>
      </trkpt>
      <trkpt lat="45.93071" lon="5.83496">
        <ele>321</ele>
        <time>2021-09-12T07:12:38.797Z</time>
      </trkpt>
      <trkpt lat="45.93071" lon="5.83492">
        <ele>322</ele>
        <time>2021-09-12T07:12:39.798Z</time>
      </trkpt>
      <trkpt lat="45.93071" lon="5.83487">
        <ele>322</ele>
        <time>2021-09-12T07:12:40.797Z</time>
      </trkpt>
      <trkpt lat="45.9307" lon="5.83481">
        <ele>322</ele>
        <time>2021-09-12T07:12:41.797Z</time>
      </trkpt>
      <trkpt lat="45.93071" lon="5.83477">
        <ele>321</ele>
        <time>2021-09-12T07:12:42.798Z</time>
      </trkpt>
      <trkpt lat="45.93071" lon="5.83473">
        <ele>321</ele>
        <time>2021-09-12T07:12:43.797Z</time>
      </trkpt>
      <trkpt lat="45.93071" lon="5.83469">
        <ele>321</ele>
        <time>2021-09-12T07:12:44.797Z</time>
      </trkpt>
      <trkpt lat="45.93071" lon="5.83465">
        <ele>320</ele>
        <time>2021-09-12T07:12:45.798Z</time>
      </trkpt>
      <trkpt lat="45.93071" lon="5.83461">
        <ele>320</ele>
        <time>2021-09-12T07:12:46.798Z</time>
      </trkpt>
      <trkpt lat="45.9307" lon="5.83457">
        <ele>319</ele>
        <time>2021-09-12T07:12:47.798Z</time>
      </trkpt>
      <trkpt lat="45.9307" lon="5.83453">
        <ele>317</ele>
        <time>2021-09-12T07:12:48.798Z</time>
      </trkpt>
      <trkpt lat="45.93069" lon="5.83449">
        <ele>317</ele>
        <time>2021-09-12T07:12:49.798Z</time>
      </trkpt>
      <trkpt lat="45.93068" lon="5.83444">
        <ele>316</ele>
        <time>2021-09-12T07:12:50.798Z</time>
      </trkpt>
      <trkpt lat="45.93068" lon="5.83441">
        <ele>315</ele>
        <time>2021-09-12T07:12:51.798Z</time>
      </trkpt>
      <trkpt lat="45.93067" lon="5.83437">
        <ele>315</ele>
        <time>2021-09-12T07:12:52.798Z</time>
      </trkpt>
      <trkpt lat="45.93066" lon="5.83434">
        <ele>314</ele>
        <time>2021-09-12T07:12:53.798Z</time>
      </trkpt>
      <trkpt lat="45.93065" lon="5.83429">
        <ele>313</ele>
        <time>2021-09-12T07:12:54.798Z</time>
      </trkpt>
      <trkpt lat="45.93064" lon="5.83424">
        <ele>313</ele>
        <time>2021-09-12T07:12:55.798Z</time>
      </trkpt>
      <trkpt lat="45.93063" lon="5.83418">
        <ele>313</ele>
        <time>2021-09-12T07:12:56.798Z</time>
      </trkpt>
      <trkpt lat="45.93061" lon="5.83413">
        <ele>313</ele>
        <time>2021-09-12T07:12:57.797Z</time>
      </trkpt>
      <trkpt lat="45.9306" lon="5.83408">
        <ele>313</ele>
        <time>2021-09-12T07:12:58.797Z</time>
      </trkpt>
      <trkpt lat="45.93059" lon="5.83401">
        <ele>312</ele>
        <time>2021-09-12T07:12:59.798Z</time>
      </trkpt>
      <trkpt lat="45.93057" lon="5.83394">
        <ele>312</ele>
        <time>2021-09-12T07:13:00.798Z</time>
      </trkpt>
      <trkpt lat="45.93056" lon="5.83385">
        <ele>312</ele>
        <time>2021-09-12T07:13:01.798Z</time>
      </trkpt>
      <trkpt lat="45.93055" lon="5.83379">
        <ele>312</ele>
        <time>2021-09-12T07:13:02.798Z</time>
      </trkpt>
      <trkpt lat="45.93054" lon="5.83371">
        <ele>312</ele>
        <time>2021-09-12T07:13:03.797Z</time>
      </trkpt>
      <trkpt lat="45.93052" lon="5.83362">
        <ele>312</ele>
        <time>2021-09-12T07:13:04.797Z</time>
      </trkpt>
      <trkpt lat="45.9305" lon="5.83353">
        <ele>312</ele>
        <time>2021-09-12T07:13:05.798Z</time>
      </trkpt>
      <trkpt lat="45.93049" lon="5.83345">
        <ele>312</ele>
        <time>2021-09-12T07:13:06.797Z</time>
      </trkpt>
      <trkpt lat="45.93047" lon="5.83334">
        <ele>312</ele>
        <time>2021-09-12T07:13:07.798Z</time>
      </trkpt>
      <trkpt lat="45.93045" lon="5.83327">
        <ele>313</ele>
        <time>2021-09-12T07:13:08.798Z</time>
      </trkpt>
      <trkpt lat="45.93044" lon="5.83318">
        <ele>313</ele>
        <time>2021-09-12T07:13:09.798Z</time>
      </trkpt>
      <trkpt lat="45.93042" lon="5.8331">
        <ele>313</ele>
        <time>2021-09-12T07:13:10.798Z</time>
      </trkpt>
      <trkpt lat="45.9304" lon="5.83299">
        <ele>313</ele>
        <time>2021-09-12T07:13:11.798Z</time>
      </trkpt>
      <trkpt lat="45.93038" lon="5.83292">
        <ele>313</ele>
        <time>2021-09-12T07:13:12.798Z</time>
      </trkpt>
      <trkpt lat="45.93036" lon="5.83284">
        <ele>313</ele>
        <time>2021-09-12T07:13:13.798Z</time>
      </trkpt>
      <trkpt lat="45.93032" lon="5.83275">
        <ele>313</ele>
        <time>2021-09-12T07:13:14.798Z</time>
      </trkpt>
      <trkpt lat="45.93028" lon="5.83268">
        <ele>314</ele>
        <time>2021-09-12T07:13:15.798Z</time>
      </trkpt>
      <trkpt lat="45.93025" lon="5.83262">
        <ele>314</ele>
        <time>2021-09-12T07:13:16.797Z</time>
      </trkpt>
      <trkpt lat="45.93021" lon="5.83257">
        <ele>314</ele>
        <time>2021-09-12T07:13:17.798Z</time>
      </trkpt>
      <trkpt lat="45.93017" lon="5.83252">
        <ele>313</ele>
        <time>2021-09-12T07:13:18.797Z</time>
      </trkpt>
      <trkpt lat="45.93012" lon="5.83245">
        <ele>313</ele>
        <time>2021-09-12T07:13:19.798Z</time>
      </trkpt>
      <trkpt lat="45.93008" lon="5.83239">
        <ele>312</ele>
        <time>2021-09-12T07:13:20.798Z</time>
      </trkpt>
      <trkpt lat="45.93005" lon="5.83233">
        <ele>311</ele>
        <time>2021-09-12T07:13:21.797Z</time>
      </trkpt>
      <trkpt lat="45.93003" lon="5.83225">
        <ele>311</ele>
        <time>2021-09-12T07:13:22.798Z</time>
      </trkpt>
      <trkpt lat="45.93001" lon="5.83215">
        <ele>311</ele>
        <time>2021-09-12T07:13:23.797Z</time>
      </trkpt>
      <trkpt lat="45.93001" lon="5.83204">
        <ele>310</ele>
        <time>2021-09-12T07:13:24.797Z</time>
      </trkpt>
      <trkpt lat="45.93001" lon="5.83196">
        <ele>309</ele>
        <time>2021-09-12T07:13:25.797Z</time>
      </trkpt>
      <trkpt lat="45.93002" lon="5.83185">
        <ele>309</ele>
        <time>2021-09-12T07:13:26.798Z</time>
      </trkpt>
      <trkpt lat="45.93002" lon="5.83175">
        <ele>309</ele>
        <time>2021-09-12T07:13:27.798Z</time>
      </trkpt>
      <trkpt lat="45.93003" lon="5.83163">
        <ele>308</ele>
        <time>2021-09-12T07:13:28.797Z</time>
      </trkpt>
      <trkpt lat="45.93003" lon="5.83152">
        <ele>307</ele>
        <time>2021-09-12T07:13:29.798Z</time>
      </trkpt>
      <trkpt lat="45.93004" lon="5.83137">
        <ele>307</ele>
        <time>2021-09-12T07:13:30.798Z</time>
      </trkpt>
      <trkpt lat="45.93004" lon="5.83127">
        <ele>306</ele>
        <time>2021-09-12T07:13:31.798Z</time>
      </trkpt>
      <trkpt lat="45.93005" lon="5.83115">
        <ele>305</ele>
        <time>2021-09-12T07:13:32.798Z</time>
      </trkpt>
      <trkpt lat="45.93005" lon="5.83103">
        <ele>305</ele>
        <time>2021-09-12T07:13:33.798Z</time>
      </trkpt>
      <trkpt lat="45.93005" lon="5.83091">
        <ele>304</ele>
        <time>2021-09-12T07:13:34.798Z</time>
      </trkpt>
      <trkpt lat="45.93005" lon="5.83079">
        <ele>304</ele>
        <time>2021-09-12T07:13:35.798Z</time>
      </trkpt>
      <trkpt lat="45.93006" lon="5.83068">
        <ele>303</ele>
        <time>2021-09-12T07:13:36.798Z</time>
      </trkpt>
      <trkpt lat="45.93006" lon="5.83058">
        <ele>303</ele>
        <time>2021-09-12T07:13:37.797Z</time>
      </trkpt>
      <trkpt lat="45.93006" lon="5.83047">
        <ele>302</ele>
        <time>2021-09-12T07:13:38.798Z</time>
      </trkpt>
      <trkpt lat="45.93007" lon="5.83041">
        <ele>301</ele>
        <time>2021-09-12T07:13:39.798Z</time>
      </trkpt>
      <trkpt lat="45.93007" lon="5.83035">
        <ele>300</ele>
        <time>2021-09-12T07:13:40.798Z</time>
      </trkpt>
      <trkpt lat="45.93007" lon="5.83028">
        <ele>300</ele>
        <time>2021-09-12T07:13:41.798Z</time>
      </trkpt>
      <trkpt lat="45.93007" lon="5.83023">
        <ele>300</ele>
        <time>2021-09-12T07:13:42.798Z</time>
      </trkpt>
      <trkpt lat="45.93007" lon="5.83022">
        <ele>300</ele>
        <time>2021-09-12T07:13:43.797Z</time>
      </trkpt>
      <trkpt lat="45.93007" lon="5.83021">
        <ele>299</ele>
        <time>2021-09-12T07:13:44.797Z</time>
      </trkpt>
      <trkpt lat="45.93007" lon="5.8302">
        <ele>299</ele>
        <time>2021-09-12T07:13:45.798Z</time>
      </trkpt>
      <trkpt lat="45.93007" lon="5.83021">
        <ele>300</ele>
        <time>2021-09-12T07:13:46.797Z</time>
      </trkpt>
      <trkpt lat="45.93008" lon="5.8302">
        <ele>300</ele>
        <time>2021-09-12T07:13:47.798Z</time>
      </trkpt>
      <trkpt lat="45.93007" lon="5.83024">
        <ele>300</ele>
        <time>2021-09-12T07:13:48.798Z</time>
      </trkpt>
      <trkpt lat="45.93013" lon="5.83017">
        <ele>301</ele>
        <time>2021-09-12T07:13:49.799Z</time>
      </trkpt>
      <trkpt lat="45.93016" lon="5.83015">
        <ele>301</ele>
        <time>2021-09-12T07:13:50.799Z</time>
      </trkpt>
      <trkpt lat="45.9302" lon="5.83012">
        <ele>300</ele>
        <time>2021-09-12T07:13:51.798Z</time>
      </trkpt>
      <trkpt lat="45.93025" lon="5.83008">
        <ele>300</ele>
        <time>2021-09-12T07:13:52.799Z</time>
      </trkpt>
      <trkpt lat="45.9303" lon="5.83004">
        <ele>300</ele>
        <time>2021-09-12T07:13:53.798Z</time>
      </trkpt>
      <trkpt lat="45.93035" lon="5.83">
        <ele>300</ele>
        <time>2021-09-12T07:13:54.799Z</time>
      </trkpt>
      <trkpt lat="45.9304" lon="5.82997">
        <ele>299</ele>
        <time>2021-09-12T07:13:55.798Z</time>
      </trkpt>
      <trkpt lat="45.93046" lon="5.82994">
        <ele>299</ele>
        <time>2021-09-12T07:13:56.799Z</time>
      </trkpt>
      <trkpt lat="45.93051" lon="5.8299">
        <ele>299</ele>
        <time>2021-09-12T07:13:57.799Z</time>
      </trkpt>
      <trkpt lat="45.93056" lon="5.82987">
        <ele>298</ele>
        <time>2021-09-12T07:13:58.798Z</time>
      </trkpt>
      <trkpt lat="45.9306" lon="5.82985">
        <ele>298</ele>
        <time>2021-09-12T07:13:59.798Z</time>
      </trkpt>
      <trkpt lat="45.93065" lon="5.82981">
        <ele>298</ele>
        <time>2021-09-12T07:14:00.799Z</time>
      </trkpt>
      <trkpt lat="45.93071" lon="5.82977">
        <ele>297</ele>
        <time>2021-09-12T07:14:01.799Z</time>
      </trkpt>
      <trkpt lat="45.93076" lon="5.82974">
        <ele>297</ele>
        <time>2021-09-12T07:14:02.799Z</time>
      </trkpt>
      <trkpt lat="45.93081" lon="5.82971">
        <ele>297</ele>
        <time>2021-09-12T07:14:03.799Z</time>
      </trkpt>
      <trkpt lat="45.93086" lon="5.82968">
        <ele>297</ele>
        <time>2021-09-12T07:14:04.798Z</time>
      </trkpt>
      <trkpt lat="45.93092" lon="5.82964">
        <ele>297</ele>
        <time>2021-09-12T07:14:05.798Z</time>
      </trkpt>
      <trkpt lat="45.93097" lon="5.8296">
        <ele>297</ele>
        <time>2021-09-12T07:14:06.799Z</time>
      </trkpt>
      <trkpt lat="45.93102" lon="5.82957">
        <ele>297</ele>
        <time>2021-09-12T07:14:07.799Z</time>
      </trkpt>
      <trkpt lat="45.93106" lon="5.82954">
        <ele>297</ele>
        <time>2021-09-12T07:14:08.798Z</time>
      </trkpt>
      <trkpt lat="45.93111" lon="5.82951">
        <ele>296</ele>
        <time>2021-09-12T07:14:09.799Z</time>
      </trkpt>
      <trkpt lat="45.93118" lon="5.82946">
        <ele>297</ele>
        <time>2021-09-12T07:14:10.799Z</time>
      </trkpt>
      <trkpt lat="45.93123" lon="5.82943">
        <ele>297</ele>
        <time>2021-09-12T07:14:11.799Z</time>
      </trkpt>
      <trkpt lat="45.93129" lon="5.8294">
        <ele>297</ele>
        <time>2021-09-12T07:14:12.799Z</time>
      </trkpt>
      <trkpt lat="45.93133" lon="5.82937">
        <ele>296</ele>
        <time>2021-09-12T07:14:13.799Z</time>
      </trkpt>
      <trkpt lat="45.93139" lon="5.82934">
        <ele>296</ele>
        <time>2021-09-12T07:14:14.799Z</time>
      </trkpt>
      <trkpt lat="45.93147" lon="5.82931">
        <ele>297</ele>
        <time>2021-09-12T07:14:15.799Z</time>
      </trkpt>
      <trkpt lat="45.93153" lon="5.82931">
        <ele>297</ele>
        <time>2021-09-12T07:14:16.799Z</time>
      </trkpt>
      <trkpt lat="45.9316" lon="5.82932">
        <ele>297</ele>
        <time>2021-09-12T07:14:17.799Z</time>
      </trkpt>
      <trkpt lat="45.93167" lon="5.82935">
        <ele>296</ele>
        <time>2021-09-12T07:14:18.798Z</time>
      </trkpt>
      <trkpt lat="45.93173" lon="5.82939">
        <ele>296</ele>
        <time>2021-09-12T07:14:19.799Z</time>
      </trkpt>
      <trkpt lat="45.9318" lon="5.82947">
        <ele>296</ele>
        <time>2021-09-12T07:14:20.798Z</time>
      </trkpt>
      <trkpt lat="45.93185" lon="5.82955">
        <ele>295</ele>
        <time>2021-09-12T07:14:21.799Z</time>
      </trkpt>
      <trkpt lat="45.93189" lon="5.82963">
        <ele>296</ele>
        <time>2021-09-12T07:14:22.799Z</time>
      </trkpt>
      <trkpt lat="45.93193" lon="5.82971">
        <ele>296</ele>
        <time>2021-09-12T07:14:23.799Z</time>
      </trkpt>
      <trkpt lat="45.93196" lon="5.8298">
        <ele>296</ele>
        <time>2021-09-12T07:14:24.799Z</time>
      </trkpt>
      <trkpt lat="45.932" lon="5.82992">
        <ele>296</ele>
        <time>2021-09-12T07:14:25.799Z</time>
      </trkpt>
      <trkpt lat="45.93203" lon="5.83">
        <ele>296</ele>
        <time>2021-09-12T07:14:26.798Z</time>
      </trkpt>
      <trkpt lat="45.93205" lon="5.83011">
        <ele>295</ele>
        <time>2021-09-12T07:14:27.798Z</time>
      </trkpt>
      <trkpt lat="45.93207" lon="5.83022">
        <ele>295</ele>
        <time>2021-09-12T07:14:28.799Z</time>
      </trkpt>
      <trkpt lat="45.93209" lon="5.83033">
        <ele>295</ele>
        <time>2021-09-12T07:14:29.799Z</time>
      </trkpt>
      <trkpt lat="45.93212" lon="5.83047">
        <ele>294</ele>
        <time>2021-09-12T07:14:30.799Z</time>
      </trkpt>
      <trkpt lat="45.93214" lon="5.83058">
        <ele>294</ele>
        <time>2021-09-12T07:14:31.798Z</time>
      </trkpt>
      <trkpt lat="45.93216" lon="5.83068">
        <ele>294</ele>
        <time>2021-09-12T07:14:32.798Z</time>
      </trkpt>
      <trkpt lat="45.93219" lon="5.83076">
        <ele>294</ele>
        <time>2021-09-12T07:14:33.799Z</time>
      </trkpt>
      <trkpt lat="45.93222" lon="5.83084">
        <ele>294</ele>
        <time>2021-09-12T07:14:34.799Z</time>
      </trkpt>
      <trkpt lat="45.93227" lon="5.83093">
        <ele>293</ele>
        <time>2021-09-12T07:14:35.799Z</time>
      </trkpt>
      <trkpt lat="45.93231" lon="5.83099">
        <ele>293</ele>
        <time>2021-09-12T07:14:36.799Z</time>
      </trkpt>
      <trkpt lat="45.93237" lon="5.83103">
        <ele>292</ele>
        <time>2021-09-12T07:14:37.798Z</time>
      </trkpt>
      <trkpt lat="45.93242" lon="5.83105">
        <ele>292</ele>
        <time>2021-09-12T07:14:38.798Z</time>
      </trkpt>
      <trkpt lat="45.93249" lon="5.83107">
        <ele>292</ele>
        <time>2021-09-12T07:14:39.798Z</time>
      </trkpt>
      <trkpt lat="45.93254" lon="5.83107">
        <ele>292</ele>
        <time>2021-09-12T07:14:40.799Z</time>
      </trkpt>
      <trkpt lat="45.93263" lon="5.83108">
        <ele>292</ele>
        <time>2021-09-12T07:14:41.799Z</time>
      </trkpt>
      <trkpt lat="45.93268" lon="5.83109">
        <ele>291</ele>
        <time>2021-09-12T07:14:42.799Z</time>
      </trkpt>
      <trkpt lat="45.93274" lon="5.83111">
        <ele>291</ele>
        <time>2021-09-12T07:14:43.799Z</time>
      </trkpt>
      <trkpt lat="45.93279" lon="5.83115">
        <ele>290</ele>
        <time>2021-09-12T07:14:44.799Z</time>
      </trkpt>
      <trkpt lat="45.93285" lon="5.83121">
        <ele>290</ele>
        <time>2021-09-12T07:14:45.799Z</time>
      </trkpt>
      <trkpt lat="45.93288" lon="5.83128">
        <ele>290</ele>
        <time>2021-09-12T07:14:46.798Z</time>
      </trkpt>
      <trkpt lat="45.93289" lon="5.83134">
        <ele>290</ele>
        <time>2021-09-12T07:14:47.799Z</time>
      </trkpt>
      <trkpt lat="45.93289" lon="5.83144">
        <ele>290</ele>
        <time>2021-09-12T07:14:48.799Z</time>
      </trkpt>
      <trkpt lat="45.93288" lon="5.83153">
        <ele>290</ele>
        <time>2021-09-12T07:14:49.798Z</time>
      </trkpt>
      <trkpt lat="45.93286" lon="5.83162">
        <ele>290</ele>
        <time>2021-09-12T07:14:50.799Z</time>
      </trkpt>
      <trkpt lat="45.93282" lon="5.8317">
        <ele>290</ele>
        <time>2021-09-12T07:14:51.799Z</time>
      </trkpt>
      <trkpt lat="45.93278" lon="5.83177">
        <ele>290</ele>
        <time>2021-09-12T07:14:52.798Z</time>
      </trkpt>
      <trkpt lat="45.93272" lon="5.83188">
        <ele>290</ele>
        <time>2021-09-12T07:14:53.799Z</time>
      </trkpt>
      <trkpt lat="45.93268" lon="5.83196">
        <ele>290</ele>
        <time>2021-09-12T07:14:54.799Z</time>
      </trkpt>
      <trkpt lat="45.93263" lon="5.83204">
        <ele>290</ele>
        <time>2021-09-12T07:14:55.799Z</time>
      </trkpt>
      <trkpt lat="45.93257" lon="5.83213">
        <ele>291</ele>
        <time>2021-09-12T07:14:56.798Z</time>
      </trkpt>
      <trkpt lat="45.93253" lon="5.83219">
        <ele>291</ele>
        <time>2021-09-12T07:14:57.798Z</time>
      </trkpt>
      <trkpt lat="45.93245" lon="5.83229">
        <ele>291</ele>
        <time>2021-09-12T07:14:58.799Z</time>
      </trkpt>
      <trkpt lat="45.93239" lon="5.83237">
        <ele>290</ele>
        <time>2021-09-12T07:14:59.799Z</time>
      </trkpt>
      <trkpt lat="45.93233" lon="5.83245">
        <ele>290</ele>
        <time>2021-09-12T07:15:00.799Z</time>
      </trkpt>
      <trkpt lat="45.93228" lon="5.83252">
        <ele>289</ele>
        <time>2021-09-12T07:15:01.798Z</time>
      </trkpt>
      <trkpt lat="45.93221" lon="5.83262">
        <ele>288</ele>
        <time>2021-09-12T07:15:02.799Z</time>
      </trkpt>
      <trkpt lat="45.93215" lon="5.83272">
        <ele>288</ele>
        <time>2021-09-12T07:15:03.799Z</time>
      </trkpt>
      <trkpt lat="45.9321" lon="5.83283">
        <ele>287</ele>
        <time>2021-09-12T07:15:04.798Z</time>
      </trkpt>
      <trkpt lat="45.93206" lon="5.83295">
        <ele>287</ele>
        <time>2021-09-12T07:15:05.799Z</time>
      </trkpt>
      <trkpt lat="45.93203" lon="5.83308">
        <ele>287</ele>
        <time>2021-09-12T07:15:06.799Z</time>
      </trkpt>
      <trkpt lat="45.93202" lon="5.83321">
        <ele>287</ele>
        <time>2021-09-12T07:15:07.799Z</time>
      </trkpt>
      <trkpt lat="45.93201" lon="5.83333">
        <ele>287</ele>
        <time>2021-09-12T07:15:08.799Z</time>
      </trkpt>
      <trkpt lat="45.932" lon="5.83347">
        <ele>287</ele>
        <time>2021-09-12T07:15:09.798Z</time>
      </trkpt>
      <trkpt lat="45.932" lon="5.8336">
        <ele>287</ele>
        <time>2021-09-12T07:15:10.799Z</time>
      </trkpt>
      <trkpt lat="45.93199" lon="5.83373">
        <ele>287</ele>
        <time>2021-09-12T07:15:11.798Z</time>
      </trkpt>
      <trkpt lat="45.93198" lon="5.83386">
        <ele>286</ele>
        <time>2021-09-12T07:15:12.799Z</time>
      </trkpt>
      <trkpt lat="45.93197" lon="5.834">
        <ele>286</ele>
        <time>2021-09-12T07:15:13.798Z</time>
      </trkpt>
      <trkpt lat="45.93197" lon="5.83413">
        <ele>285</ele>
        <time>2021-09-12T07:15:14.799Z</time>
      </trkpt>
      <trkpt lat="45.93196" lon="5.83427">
        <ele>285</ele>
        <time>2021-09-12T07:15:15.799Z</time>
      </trkpt>
      <trkpt lat="45.93195" lon="5.83442">
        <ele>284</ele>
        <time>2021-09-12T07:15:16.798Z</time>
      </trkpt>
      <trkpt lat="45.93194" lon="5.83455">
        <ele>283</ele>
        <time>2021-09-12T07:15:17.798Z</time>
      </trkpt>
      <trkpt lat="45.93194" lon="5.83469">
        <ele>283</ele>
        <time>2021-09-12T07:15:18.798Z</time>
      </trkpt>
      <trkpt lat="45.93194" lon="5.83483">
        <ele>282</ele>
        <time>2021-09-12T07:15:19.798Z</time>
      </trkpt>
      <trkpt lat="45.93194" lon="5.83497">
        <ele>282</ele>
        <time>2021-09-12T07:15:20.798Z</time>
      </trkpt>
      <trkpt lat="45.93195" lon="5.83511">
        <ele>281</ele>
        <time>2021-09-12T07:15:21.798Z</time>
      </trkpt>
      <trkpt lat="45.93196" lon="5.83526">
        <ele>281</ele>
        <time>2021-09-12T07:15:22.799Z</time>
      </trkpt>
      <trkpt lat="45.93196" lon="5.8354">
        <ele>280</ele>
        <time>2021-09-12T07:15:23.799Z</time>
      </trkpt>
      <trkpt lat="45.93197" lon="5.83555">
        <ele>280</ele>
        <time>2021-09-12T07:15:24.799Z</time>
      </trkpt>
      <trkpt lat="45.93197" lon="5.8357">
        <ele>279</ele>
        <time>2021-09-12T07:15:25.798Z</time>
      </trkpt>
      <trkpt lat="45.93198" lon="5.83584">
        <ele>278</ele>
        <time>2021-09-12T07:15:26.799Z</time>
      </trkpt>
      <trkpt lat="45.93199" lon="5.83597">
        <ele>277</ele>
        <time>2021-09-12T07:15:27.799Z</time>
      </trkpt>
      <trkpt lat="45.932" lon="5.83608">
        <ele>275</ele>
        <time>2021-09-12T07:15:28.799Z</time>
      </trkpt>
      <trkpt lat="45.93202" lon="5.83619">
        <ele>274</ele>
        <time>2021-09-12T07:15:29.799Z</time>
      </trkpt>
      <trkpt lat="45.93207" lon="5.83627">
        <ele>272</ele>
        <time>2021-09-12T07:15:30.798Z</time>
      </trkpt>
      <trkpt lat="45.93212" lon="5.83633">
        <ele>271</ele>
        <time>2021-09-12T07:15:31.799Z</time>
      </trkpt>
      <trkpt lat="45.93218" lon="5.83637">
        <ele>270</ele>
        <time>2021-09-12T07:15:32.798Z</time>
      </trkpt>
      <trkpt lat="45.93224" lon="5.8364">
        <ele>270</ele>
        <time>2021-09-12T07:15:33.798Z</time>
      </trkpt>
      <trkpt lat="45.93232" lon="5.83641">
        <ele>269</ele>
        <time>2021-09-12T07:15:34.799Z</time>
      </trkpt>
      <trkpt lat="45.93238" lon="5.83645">
        <ele>269</ele>
        <time>2021-09-12T07:15:35.799Z</time>
      </trkpt>
      <trkpt lat="45.93246" lon="5.83648">
        <ele>268</ele>
        <time>2021-09-12T07:15:36.799Z</time>
      </trkpt>
      <trkpt lat="45.93253" lon="5.83651">
        <ele>268</ele>
        <time>2021-09-12T07:15:37.798Z</time>
      </trkpt>
      <trkpt lat="45.93259" lon="5.83654">
        <ele>267</ele>
        <time>2021-09-12T07:15:38.799Z</time>
      </trkpt>
      <trkpt lat="45.93265" lon="5.83657">
        <ele>267</ele>
        <time>2021-09-12T07:15:39.798Z</time>
      </trkpt>
      <trkpt lat="45.93272" lon="5.83659">
        <ele>267</ele>
        <time>2021-09-12T07:15:40.798Z</time>
      </trkpt>
      <trkpt lat="45.93279" lon="5.83662">
        <ele>266</ele>
        <time>2021-09-12T07:15:41.799Z</time>
      </trkpt>
      <trkpt lat="45.93285" lon="5.83665">
        <ele>266</ele>
        <time>2021-09-12T07:15:42.798Z</time>
      </trkpt>
      <trkpt lat="45.93291" lon="5.83668">
        <ele>265</ele>
        <time>2021-09-12T07:15:43.799Z</time>
      </trkpt>
      <trkpt lat="45.93297" lon="5.83672">
        <ele>265</ele>
        <time>2021-09-12T07:15:44.799Z</time>
      </trkpt>
      <trkpt lat="45.93303" lon="5.83674">
        <ele>265</ele>
        <time>2021-09-12T07:15:45.799Z</time>
      </trkpt>
      <trkpt lat="45.93309" lon="5.83677">
        <ele>265</ele>
        <time>2021-09-12T07:15:46.798Z</time>
      </trkpt>
      <trkpt lat="45.93315" lon="5.8368">
        <ele>265</ele>
        <time>2021-09-12T07:15:47.799Z</time>
      </trkpt>
      <trkpt lat="45.93321" lon="5.83683">
        <ele>265</ele>
        <time>2021-09-12T07:15:48.799Z</time>
      </trkpt>
      <trkpt lat="45.93328" lon="5.83684">
        <ele>265</ele>
        <time>2021-09-12T07:15:49.799Z</time>
      </trkpt>
      <trkpt lat="45.93335" lon="5.83685">
        <ele>266</ele>
        <time>2021-09-12T07:15:50.798Z</time>
      </trkpt>
      <trkpt lat="45.93341" lon="5.83686">
        <ele>266</ele>
        <time>2021-09-12T07:15:51.799Z</time>
      </trkpt>
      <trkpt lat="45.93349" lon="5.83686">
        <ele>266</ele>
        <time>2021-09-12T07:15:52.799Z</time>
      </trkpt>
      <trkpt lat="45.93356" lon="5.83685">
        <ele>266</ele>
        <time>2021-09-12T07:15:53.799Z</time>
      </trkpt>
      <trkpt lat="45.93364" lon="5.83685">
        <ele>265</ele>
        <time>2021-09-12T07:15:54.799Z</time>
      </trkpt>
      <trkpt lat="45.93372" lon="5.83683">
        <ele>265</ele>
        <time>2021-09-12T07:15:55.798Z</time>
      </trkpt>
      <trkpt lat="45.93379" lon="5.83682">
        <ele>265</ele>
        <time>2021-09-12T07:15:56.799Z</time>
      </trkpt>
      <trkpt lat="45.93387" lon="5.8368">
        <ele>264</ele>
        <time>2021-09-12T07:15:57.798Z</time>
      </trkpt>
      <trkpt lat="45.93395" lon="5.8368">
        <ele>264</ele>
        <time>2021-09-12T07:15:58.798Z</time>
      </trkpt>
      <trkpt lat="45.93403" lon="5.8368">
        <ele>264</ele>
        <time>2021-09-12T07:15:59.798Z</time>
      </trkpt>
      <trkpt lat="45.93411" lon="5.83679">
        <ele>264</ele>
        <time>2021-09-12T07:16:00.799Z</time>
      </trkpt>
      <trkpt lat="45.93419" lon="5.83679">
        <ele>263</ele>
        <time>2021-09-12T07:16:01.799Z</time>
      </trkpt>
      <trkpt lat="45.93426" lon="5.83678">
        <ele>263</ele>
        <time>2021-09-12T07:16:02.799Z</time>
      </trkpt>
      <trkpt lat="45.93435" lon="5.83677">
        <ele>263</ele>
        <time>2021-09-12T07:16:03.798Z</time>
      </trkpt>
      <trkpt lat="45.93443" lon="5.83676">
        <ele>262</ele>
        <time>2021-09-12T07:16:04.799Z</time>
      </trkpt>
      <trkpt lat="45.93451" lon="5.83676">
        <ele>262</ele>
        <time>2021-09-12T07:16:05.799Z</time>
      </trkpt>
      <trkpt lat="45.93459" lon="5.83675">
        <ele>262</ele>
        <time>2021-09-12T07:16:06.798Z</time>
      </trkpt>
      <trkpt lat="45.93467" lon="5.83674">
        <ele>261</ele>
        <time>2021-09-12T07:16:07.799Z</time>
      </trkpt>
      <trkpt lat="45.93474" lon="5.83673">
        <ele>261</ele>
        <time>2021-09-12T07:16:08.798Z</time>
      </trkpt>
      <trkpt lat="45.93481" lon="5.83672">
        <ele>261</ele>
        <time>2021-09-12T07:16:09.798Z</time>
      </trkpt>
      <trkpt lat="45.93488" lon="5.83672">
        <ele>261</ele>
        <time>2021-09-12T07:16:10.798Z</time>
      </trkpt>
      <trkpt lat="45.93493" lon="5.83671">
        <ele>261</ele>
        <time>2021-09-12T07:16:11.798Z</time>
      </trkpt>
      <trkpt lat="45.93501" lon="5.83671">
        <ele>261</ele>
        <time>2021-09-12T07:16:12.798Z</time>
      </trkpt>
      <trkpt lat="45.93507" lon="5.8367">
        <ele>260</ele>
        <time>2021-09-12T07:16:13.798Z</time>
      </trkpt>
      <trkpt lat="45.93512" lon="5.8367">
        <ele>260</ele>
        <time>2021-09-12T07:16:14.798Z</time>
      </trkpt>
      <trkpt lat="45.93517" lon="5.83669">
        <ele>260</ele>
        <time>2021-09-12T07:16:15.798Z</time>
      </trkpt>
      <trkpt lat="45.93523" lon="5.83668">
        <ele>260</ele>
        <time>2021-09-12T07:16:16.799Z</time>
      </trkpt>
      <trkpt lat="45.93527" lon="5.83667">
        <ele>260</ele>
        <time>2021-09-12T07:16:17.799Z</time>
      </trkpt>
      <trkpt lat="45.93533" lon="5.83667">
        <ele>260</ele>
        <time>2021-09-12T07:16:18.799Z</time>
      </trkpt>
      <trkpt lat="45.93539" lon="5.83666">
        <ele>259</ele>
        <time>2021-09-12T07:16:19.799Z</time>
      </trkpt>
      <trkpt lat="45.93544" lon="5.83666">
        <ele>259</ele>
        <time>2021-09-12T07:16:20.798Z</time>
      </trkpt>
      <trkpt lat="45.93549" lon="5.83665">
        <ele>259</ele>
        <time>2021-09-12T07:16:21.799Z</time>
      </trkpt>
      <trkpt lat="45.93553" lon="5.83664">
        <ele>259</ele>
        <time>2021-09-12T07:16:22.799Z</time>
      </trkpt>
      <trkpt lat="45.9356" lon="5.83662">
        <ele>259</ele>
        <time>2021-09-12T07:16:23.798Z</time>
      </trkpt>
      <trkpt lat="45.93566" lon="5.83662">
        <ele>259</ele>
        <time>2021-09-12T07:16:24.798Z</time>
      </trkpt>
      <trkpt lat="45.93571" lon="5.83661">
        <ele>260</ele>
        <time>2021-09-12T07:16:25.798Z</time>
      </trkpt>
      <trkpt lat="45.93576" lon="5.83661">
        <ele>260</ele>
        <time>2021-09-12T07:16:26.798Z</time>
      </trkpt>
      <trkpt lat="45.93581" lon="5.83661">
        <ele>260</ele>
        <time>2021-09-12T07:16:27.798Z</time>
      </trkpt>
      <trkpt lat="45.93586" lon="5.83661">
        <ele>260</ele>
        <time>2021-09-12T07:16:28.798Z</time>
      </trkpt>
      <trkpt lat="45.9359" lon="5.83661">
        <ele>259</ele>
        <time>2021-09-12T07:16:29.798Z</time>
      </trkpt>
      <trkpt lat="45.93594" lon="5.83661">
        <ele>259</ele>
        <time>2021-09-12T07:16:30.798Z</time>
      </trkpt>
      <trkpt lat="45.93599" lon="5.8366">
        <ele>259</ele>
        <time>2021-09-12T07:16:31.799Z</time>
      </trkpt>
      <trkpt lat="45.93604" lon="5.83659">
        <ele>259</ele>
        <time>2021-09-12T07:16:32.798Z</time>
      </trkpt>
      <trkpt lat="45.93609" lon="5.83658">
        <ele>260</ele>
        <time>2021-09-12T07:16:33.799Z</time>
      </trkpt>
      <trkpt lat="45.93614" lon="5.83657">
        <ele>260</ele>
        <time>2021-09-12T07:16:34.798Z</time>
      </trkpt>
      <trkpt lat="45.93619" lon="5.83656">
        <ele>260</ele>
        <time>2021-09-12T07:16:35.799Z</time>
      </trkpt>
      <trkpt lat="45.93624" lon="5.83656">
        <ele>260</ele>
        <time>2021-09-12T07:16:36.799Z</time>
      </trkpt>
      <trkpt lat="45.9363" lon="5.83655">
        <ele>260</ele>
        <time>2021-09-12T07:16:37.798Z</time>
      </trkpt>
      <trkpt lat="45.93636" lon="5.83654">
        <ele>260</ele>
        <time>2021-09-12T07:16:38.798Z</time>
      </trkpt>
      <trkpt lat="45.93642" lon="5.83654">
        <ele>259</ele>
        <time>2021-09-12T07:16:39.799Z</time>
      </trkpt>
      <trkpt lat="45.93647" lon="5.83654">
        <ele>259</ele>
        <time>2021-09-12T07:16:40.798Z</time>
      </trkpt>
      <trkpt lat="45.93653" lon="5.83653">
        <ele>259</ele>
        <time>2021-09-12T07:16:41.798Z</time>
      </trkpt>
      <trkpt lat="45.93658" lon="5.83653">
        <ele>259</ele>
        <time>2021-09-12T07:16:42.798Z</time>
      </trkpt>
      <trkpt lat="45.93665" lon="5.83652">
        <ele>259</ele>
        <time>2021-09-12T07:16:43.799Z</time>
      </trkpt>
      <trkpt lat="45.93671" lon="5.83652">
        <ele>258</ele>
        <time>2021-09-12T07:16:44.799Z</time>
      </trkpt>
      <trkpt lat="45.93677" lon="5.83652">
        <ele>258</ele>
        <time>2021-09-12T07:16:45.798Z</time>
      </trkpt>
      <trkpt lat="45.93682" lon="5.83651">
        <ele>258</ele>
        <time>2021-09-12T07:16:46.798Z</time>
      </trkpt>
      <trkpt lat="45.93688" lon="5.83651">
        <ele>258</ele>
        <time>2021-09-12T07:16:47.799Z</time>
      </trkpt>
      <trkpt lat="45.93694" lon="5.8365">
        <ele>258</ele>
        <time>2021-09-12T07:16:48.799Z</time>
      </trkpt>
      <trkpt lat="45.937" lon="5.8365">
        <ele>258</ele>
        <time>2021-09-12T07:16:49.798Z</time>
      </trkpt>
      <trkpt lat="45.93706" lon="5.83649">
        <ele>258</ele>
        <time>2021-09-12T07:16:50.799Z</time>
      </trkpt>
      <trkpt lat="45.93711" lon="5.83649">
        <ele>258</ele>
        <time>2021-09-12T07:16:51.798Z</time>
      </trkpt>
      <trkpt lat="45.93717" lon="5.83649">
        <ele>258</ele>
        <time>2021-09-12T07:16:52.798Z</time>
      </trkpt>
      <trkpt lat="45.93722" lon="5.83648">
        <ele>257</ele>
        <time>2021-09-12T07:16:53.799Z</time>
      </trkpt>
      <trkpt lat="45.93728" lon="5.83647">
        <ele>257</ele>
        <time>2021-09-12T07:16:54.798Z</time>
      </trkpt>
      <trkpt lat="45.93733" lon="5.83647">
        <ele>257</ele>
        <time>2021-09-12T07:16:55.798Z</time>
      </trkpt>
      <trkpt lat="45.93738" lon="5.83646">
        <ele>257</ele>
        <time>2021-09-12T07:16:56.798Z</time>
      </trkpt>
      <trkpt lat="45.93745" lon="5.83646">
        <ele>257</ele>
        <time>2021-09-12T07:16:57.798Z</time>
      </trkpt>
      <trkpt lat="45.9375" lon="5.83645">
        <ele>258</ele>
        <time>2021-09-12T07:16:58.799Z</time>
      </trkpt>
      <trkpt lat="45.93756" lon="5.83644">
        <ele>257</ele>
        <time>2021-09-12T07:16:59.798Z</time>
      </trkpt>
      <trkpt lat="45.93761" lon="5.83644">
        <ele>257</ele>
        <time>2021-09-12T07:17:00.798Z</time>
      </trkpt>
      <trkpt lat="45.93767" lon="5.83643">
        <ele>257</ele>
        <time>2021-09-12T07:17:01.799Z</time>
      </trkpt>
      <trkpt lat="45.93773" lon="5.83642">
        <ele>257</ele>
        <time>2021-09-12T07:17:02.799Z</time>
      </trkpt>
      <trkpt lat="45.93779" lon="5.83642">
        <ele>256</ele>
        <time>2021-09-12T07:17:03.799Z</time>
      </trkpt>
      <trkpt lat="45.93784" lon="5.83641">
        <ele>257</ele>
        <time>2021-09-12T07:17:04.798Z</time>
      </trkpt>
      <trkpt lat="45.93789" lon="5.8364">
        <ele>257</ele>
        <time>2021-09-12T07:17:05.798Z</time>
      </trkpt>
      <trkpt lat="45.93795" lon="5.8364">
        <ele>257</ele>
        <time>2021-09-12T07:17:06.799Z</time>
      </trkpt>
      <trkpt lat="45.93801" lon="5.83639">
        <ele>257</ele>
        <time>2021-09-12T07:17:07.799Z</time>
      </trkpt>
      <trkpt lat="45.93807" lon="5.83638">
        <ele>256</ele>
        <time>2021-09-12T07:17:08.799Z</time>
      </trkpt>
      <trkpt lat="45.93813" lon="5.83636">
        <ele>256</ele>
        <time>2021-09-12T07:17:09.799Z</time>
      </trkpt>
      <trkpt lat="45.93818" lon="5.83635">
        <ele>257</ele>
        <time>2021-09-12T07:17:10.798Z</time>
      </trkpt>
      <trkpt lat="45.93823" lon="5.83635">
        <ele>257</ele>
        <time>2021-09-12T07:17:11.799Z</time>
      </trkpt>
      <trkpt lat="45.93827" lon="5.83635">
        <ele>257</ele>
        <time>2021-09-12T07:17:12.799Z</time>
      </trkpt>
      <trkpt lat="45.93831" lon="5.83636">
        <ele>257</ele>
        <time>2021-09-12T07:17:13.798Z</time>
      </trkpt>
      <trkpt lat="45.93833" lon="5.83637">
        <ele>258</ele>
        <time>2021-09-12T07:17:14.798Z</time>
      </trkpt>
      <trkpt lat="45.93835" lon="5.83637">
        <ele>258</ele>
        <time>2021-09-12T07:17:15.798Z</time>
      </trkpt>
      <trkpt lat="45.93835" lon="5.83637">
        <ele>258</ele>
        <time>2021-09-12T07:17:16.798Z</time>
      </trkpt>
      <trkpt lat="45.93836" lon="5.83637">
        <ele>258</ele>
        <time>2021-09-12T07:17:17.798Z</time>
      </trkpt>
      <trkpt lat="45.93836" lon="5.83637">
        <ele>258</ele>
        <time>2021-09-12T07:17:18.799Z</time>
      </trkpt>
      <trkpt lat="45.93837" lon="5.83634">
        <ele>260</ele>
        <time>2021-09-12T07:17:19.799Z</time>
      </trkpt>
      <trkpt lat="45.9384" lon="5.83633">
        <ele>260</ele>
        <time>2021-09-12T07:17:20.800Z</time>
      </trkpt>
      <trkpt lat="45.93843" lon="5.83633">
        <ele>260</ele>
        <time>2021-09-12T07:17:21.800Z</time>
      </trkpt>
      <trkpt lat="45.93846" lon="5.83632">
        <ele>260</ele>
        <time>2021-09-12T07:17:22.800Z</time>
      </trkpt>
      <trkpt lat="45.9385" lon="5.83631">
        <ele>260</ele>
        <time>2021-09-12T07:17:23.799Z</time>
      </trkpt>
      <trkpt lat="45.93854" lon="5.83631">
        <ele>260</ele>
        <time>2021-09-12T07:17:24.800Z</time>
      </trkpt>
      <trkpt lat="45.93858" lon="5.8363">
        <ele>260</ele>
        <time>2021-09-12T07:17:25.800Z</time>
      </trkpt>
      <trkpt lat="45.93862" lon="5.83629">
        <ele>260</ele>
        <time>2021-09-12T07:17:26.800Z</time>
      </trkpt>
      <trkpt lat="45.93866" lon="5.83629">
        <ele>259</ele>
        <time>2021-09-12T07:17:27.799Z</time>
      </trkpt>
      <trkpt lat="45.9387" lon="5.83628">
        <ele>259</ele>
        <time>2021-09-12T07:17:28.800Z</time>
      </trkpt>
      <trkpt lat="45.93874" lon="5.83628">
        <ele>259</ele>
        <time>2021-09-12T07:17:29.799Z</time>
      </trkpt>
      <trkpt lat="45.93877" lon="5.83628">
        <ele>259</ele>
        <time>2021-09-12T07:17:30.800Z</time>
      </trkpt>
      <trkpt lat="45.93881" lon="5.83628">
        <ele>259</ele>
        <time>2021-09-12T07:17:31.799Z</time>
      </trkpt>
      <trkpt lat="45.93885" lon="5.83628">
        <ele>258</ele>
        <time>2021-09-12T07:17:32.799Z</time>
      </trkpt>
      <trkpt lat="45.93889" lon="5.83628">
        <ele>258</ele>
        <time>2021-09-12T07:17:33.800Z</time>
      </trkpt>
      <trkpt lat="45.93893" lon="5.83628">
        <ele>257</ele>
        <time>2021-09-12T07:17:34.800Z</time>
      </trkpt>
      <trkpt lat="45.93897" lon="5.83628">
        <ele>257</ele>
        <time>2021-09-12T07:17:35.800Z</time>
      </trkpt>
      <trkpt lat="45.93902" lon="5.83628">
        <ele>257</ele>
        <time>2021-09-12T07:17:36.800Z</time>
      </trkpt>
      <trkpt lat="45.93906" lon="5.83627">
        <ele>257</ele>
        <time>2021-09-12T07:17:37.800Z</time>
      </trkpt>
      <trkpt lat="45.9391" lon="5.83627">
        <ele>257</ele>
        <time>2021-09-12T07:17:38.800Z</time>
      </trkpt>
      <trkpt lat="45.93915" lon="5.83627">
        <ele>257</ele>
        <time>2021-09-12T07:17:39.800Z</time>
      </trkpt>
      <trkpt lat="45.93919" lon="5.83626">
        <ele>257</ele>
        <time>2021-09-12T07:17:40.799Z</time>
      </trkpt>
      <trkpt lat="45.93923" lon="5.83626">
        <ele>257</ele>
        <time>2021-09-12T07:17:41.799Z</time>
      </trkpt>
      <trkpt lat="45.93928" lon="5.83625">
        <ele>257</ele>
        <time>2021-09-12T07:17:42.800Z</time>
      </trkpt>
      <trkpt lat="45.93932" lon="5.83624">
        <ele>258</ele>
        <time>2021-09-12T07:17:43.799Z</time>
      </trkpt>
      <trkpt lat="45.93936" lon="5.83624">
        <ele>258</ele>
        <time>2021-09-12T07:17:44.799Z</time>
      </trkpt>
      <trkpt lat="45.93941" lon="5.83624">
        <ele>257</ele>
        <time>2021-09-12T07:17:45.800Z</time>
      </trkpt>
      <trkpt lat="45.93946" lon="5.83623">
        <ele>257</ele>
        <time>2021-09-12T07:17:46.800Z</time>
      </trkpt>
      <trkpt lat="45.93951" lon="5.83623">
        <ele>257</ele>
        <time>2021-09-12T07:17:47.800Z</time>
      </trkpt>
      <trkpt lat="45.93955" lon="5.83623">
        <ele>258</ele>
        <time>2021-09-12T07:17:48.799Z</time>
      </trkpt>
      <trkpt lat="45.9396" lon="5.83622">
        <ele>258</ele>
        <time>2021-09-12T07:17:49.799Z</time>
      </trkpt>
      <trkpt lat="45.93965" lon="5.83622">
        <ele>258</ele>
        <time>2021-09-12T07:17:50.799Z</time>
      </trkpt>
      <trkpt lat="45.9397" lon="5.83621">
        <ele>258</ele>
        <time>2021-09-12T07:17:51.800Z</time>
      </trkpt>
      <trkpt lat="45.93975" lon="5.8362">
        <ele>258</ele>
        <time>2021-09-12T07:17:52.799Z</time>
      </trkpt>
      <trkpt lat="45.9398" lon="5.8362">
        <ele>258</ele>
        <time>2021-09-12T07:17:53.800Z</time>
      </trkpt>
      <trkpt lat="45.93985" lon="5.83619">
        <ele>258</ele>
        <time>2021-09-12T07:17:54.800Z</time>
      </trkpt>
      <trkpt lat="45.9399" lon="5.83619">
        <ele>258</ele>
        <time>2021-09-12T07:17:55.800Z</time>
      </trkpt>
      <trkpt lat="45.93995" lon="5.83618">
        <ele>258</ele>
        <time>2021-09-12T07:17:56.799Z</time>
      </trkpt>
      <trkpt lat="45.94001" lon="5.83618">
        <ele>259</ele>
        <time>2021-09-12T07:17:57.800Z</time>
      </trkpt>
      <trkpt lat="45.94006" lon="5.83618">
        <ele>259</ele>
        <time>2021-09-12T07:17:58.800Z</time>
      </trkpt>
      <trkpt lat="45.94011" lon="5.83618">
        <ele>259</ele>
        <time>2021-09-12T07:17:59.800Z</time>
      </trkpt>
      <trkpt lat="45.94017" lon="5.83618">
        <ele>258</ele>
        <time>2021-09-12T07:18:00.799Z</time>
      </trkpt>
      <trkpt lat="45.94022" lon="5.83619">
        <ele>257</ele>
        <time>2021-09-12T07:18:01.800Z</time>
      </trkpt>
      <trkpt lat="45.94028" lon="5.83619">
        <ele>257</ele>
        <time>2021-09-12T07:18:02.800Z</time>
      </trkpt>
      <trkpt lat="45.94034" lon="5.83619">
        <ele>256</ele>
        <time>2021-09-12T07:18:03.800Z</time>
      </trkpt>
      <trkpt lat="45.94039" lon="5.83619">
        <ele>256</ele>
        <time>2021-09-12T07:18:04.800Z</time>
      </trkpt>
      <trkpt lat="45.94045" lon="5.83619">
        <ele>256</ele>
        <time>2021-09-12T07:18:05.800Z</time>
      </trkpt>
      <trkpt lat="45.9405" lon="5.83618">
        <ele>256</ele>
        <time>2021-09-12T07:18:06.800Z</time>
      </trkpt>
      <trkpt lat="45.94056" lon="5.83619">
        <ele>256</ele>
        <time>2021-09-12T07:18:07.800Z</time>
      </trkpt>
      <trkpt lat="45.94061" lon="5.83619">
        <ele>256</ele>
        <time>2021-09-12T07:18:08.799Z</time>
      </trkpt>
      <trkpt lat="45.94067" lon="5.8362">
        <ele>255</ele>
        <time>2021-09-12T07:18:09.800Z</time>
      </trkpt>
      <trkpt lat="45.94072" lon="5.8362">
        <ele>255</ele>
        <time>2021-09-12T07:18:10.800Z</time>
      </trkpt>
      <trkpt lat="45.94078" lon="5.8362">
        <ele>254</ele>
        <time>2021-09-12T07:18:11.800Z</time>
      </trkpt>
      <trkpt lat="45.94083" lon="5.83621">
        <ele>254</ele>
        <time>2021-09-12T07:18:12.800Z</time>
      </trkpt>
      <trkpt lat="45.94089" lon="5.83621">
        <ele>253</ele>
        <time>2021-09-12T07:18:13.800Z</time>
      </trkpt>
      <trkpt lat="45.94095" lon="5.83621">
        <ele>253</ele>
        <time>2021-09-12T07:18:14.800Z</time>
      </trkpt>
      <trkpt lat="45.941" lon="5.83622">
        <ele>253</ele>
        <time>2021-09-12T07:18:15.800Z</time>
      </trkpt>
      <trkpt lat="45.94105" lon="5.83622">
        <ele>254</ele>
        <time>2021-09-12T07:18:16.799Z</time>
      </trkpt>
      <trkpt lat="45.94111" lon="5.83623">
        <ele>255</ele>
        <time>2021-09-12T07:18:17.799Z</time>
      </trkpt>
      <trkpt lat="45.94116" lon="5.83624">
        <ele>255</ele>
        <time>2021-09-12T07:18:18.800Z</time>
      </trkpt>
      <trkpt lat="45.94122" lon="5.83624">
        <ele>256</ele>
        <time>2021-09-12T07:18:19.800Z</time>
      </trkpt>
      <trkpt lat="45.94128" lon="5.83625">
        <ele>256</ele>
        <time>2021-09-12T07:18:20.800Z</time>
      </trkpt>
      <trkpt lat="45.94133" lon="5.83626">
        <ele>256</ele>
        <time>2021-09-12T07:18:21.799Z</time>
      </trkpt>
      <trkpt lat="45.94139" lon="5.83627">
        <ele>257</ele>
        <time>2021-09-12T07:18:22.800Z</time>
      </trkpt>
      <trkpt lat="45.94145" lon="5.83628">
        <ele>257</ele>
        <time>2021-09-12T07:18:23.800Z</time>
      </trkpt>
      <trkpt lat="45.9415" lon="5.83628">
        <ele>257</ele>
        <time>2021-09-12T07:18:24.799Z</time>
      </trkpt>
      <trkpt lat="45.94156" lon="5.83629">
        <ele>257</ele>
        <time>2021-09-12T07:18:25.799Z</time>
      </trkpt>
      <trkpt lat="45.94161" lon="5.8363">
        <ele>257</ele>
        <time>2021-09-12T07:18:26.800Z</time>
      </trkpt>
      <trkpt lat="45.94166" lon="5.8363">
        <ele>257</ele>
        <time>2021-09-12T07:18:27.800Z</time>
      </trkpt>
      <trkpt lat="45.94172" lon="5.83631">
        <ele>257</ele>
        <time>2021-09-12T07:18:28.800Z</time>
      </trkpt>
      <trkpt lat="45.94178" lon="5.83632">
        <ele>257</ele>
        <time>2021-09-12T07:18:29.800Z</time>
      </trkpt>
      <trkpt lat="45.94184" lon="5.83633">
        <ele>257</ele>
        <time>2021-09-12T07:18:30.799Z</time>
      </trkpt>
      <trkpt lat="45.94189" lon="5.83634">
        <ele>256</ele>
        <time>2021-09-12T07:18:31.799Z</time>
      </trkpt>
      <trkpt lat="45.94195" lon="5.83635">
        <ele>257</ele>
        <time>2021-09-12T07:18:32.800Z</time>
      </trkpt>
      <trkpt lat="45.94201" lon="5.83636">
        <ele>257</ele>
        <time>2021-09-12T07:18:33.799Z</time>
      </trkpt>
      <trkpt lat="45.94206" lon="5.83637">
        <ele>257</ele>
        <time>2021-09-12T07:18:34.800Z</time>
      </trkpt>
      <trkpt lat="45.94212" lon="5.83638">
        <ele>258</ele>
        <time>2021-09-12T07:18:35.800Z</time>
      </trkpt>
      <trkpt lat="45.94217" lon="5.83639">
        <ele>259</ele>
        <time>2021-09-12T07:18:36.800Z</time>
      </trkpt>
      <trkpt lat="45.94223" lon="5.8364">
        <ele>261</ele>
        <time>2021-09-12T07:18:37.800Z</time>
      </trkpt>
      <trkpt lat="45.94228" lon="5.83641">
        <ele>262</ele>
        <time>2021-09-12T07:18:38.800Z</time>
      </trkpt>
      <trkpt lat="45.94234" lon="5.83642">
        <ele>263</ele>
        <time>2021-09-12T07:18:39.799Z</time>
      </trkpt>
      <trkpt lat="45.94239" lon="5.83643">
        <ele>264</ele>
        <time>2021-09-12T07:18:40.800Z</time>
      </trkpt>
      <trkpt lat="45.94245" lon="5.83645">
        <ele>265</ele>
        <time>2021-09-12T07:18:41.799Z</time>
      </trkpt>
      <trkpt lat="45.9425" lon="5.83646">
        <ele>266</ele>
        <time>2021-09-12T07:18:42.800Z</time>
      </trkpt>
      <trkpt lat="45.94256" lon="5.83647">
        <ele>267</ele>
        <time>2021-09-12T07:18:43.800Z</time>
      </trkpt>
      <trkpt lat="45.94261" lon="5.83649">
        <ele>268</ele>
        <time>2021-09-12T07:18:44.800Z</time>
      </trkpt>
      <trkpt lat="45.94267" lon="5.8365">
        <ele>268</ele>
        <time>2021-09-12T07:18:45.800Z</time>
      </trkpt>
      <trkpt lat="45.94273" lon="5.83652">
        <ele>269</ele>
        <time>2021-09-12T07:18:46.799Z</time>
      </trkpt>
      <trkpt lat="45.94278" lon="5.83654">
        <ele>269</ele>
        <time>2021-09-12T07:18:47.800Z</time>
      </trkpt>
      <trkpt lat="45.94283" lon="5.83655">
        <ele>269</ele>
        <time>2021-09-12T07:18:48.799Z</time>
      </trkpt>
      <trkpt lat="45.94288" lon="5.83657">
        <ele>269</ele>
        <time>2021-09-12T07:18:49.799Z</time>
      </trkpt>
      <trkpt lat="45.94295" lon="5.8366">
        <ele>269</ele>
        <time>2021-09-12T07:18:50.800Z</time>
      </trkpt>
      <trkpt lat="45.94301" lon="5.83662">
        <ele>268</ele>
        <time>2021-09-12T07:18:51.800Z</time>
      </trkpt>
      <trkpt lat="45.94306" lon="5.83664">
        <ele>268</ele>
        <time>2021-09-12T07:18:52.799Z</time>
      </trkpt>
      <trkpt lat="45.94312" lon="5.83666">
        <ele>267</ele>
        <time>2021-09-12T07:18:53.799Z</time>
      </trkpt>
      <trkpt lat="45.94317" lon="5.83668">
        <ele>267</ele>
        <time>2021-09-12T07:18:54.799Z</time>
      </trkpt>
      <trkpt lat="45.94323" lon="5.83671">
        <ele>267</ele>
        <time>2021-09-12T07:18:55.800Z</time>
      </trkpt>
      <trkpt lat="45.94329" lon="5.83673">
        <ele>266</ele>
        <time>2021-09-12T07:18:56.800Z</time>
      </trkpt>
      <trkpt lat="45.94335" lon="5.83675">
        <ele>266</ele>
        <time>2021-09-12T07:18:57.800Z</time>
      </trkpt>
      <trkpt lat="45.94341" lon="5.83678">
        <ele>265</ele>
        <time>2021-09-12T07:18:58.799Z</time>
      </trkpt>
      <trkpt lat="45.94346" lon="5.8368">
        <ele>265</ele>
        <time>2021-09-12T07:18:59.800Z</time>
      </trkpt>
      <trkpt lat="45.94352" lon="5.83682">
        <ele>265</ele>
        <time>2021-09-12T07:19:00.800Z</time>
      </trkpt>
      <trkpt lat="45.94357" lon="5.83685">
        <ele>264</ele>
        <time>2021-09-12T07:19:01.800Z</time>
      </trkpt>
      <trkpt lat="45.94363" lon="5.83688">
        <ele>264</ele>
        <time>2021-09-12T07:19:02.800Z</time>
      </trkpt>
      <trkpt lat="45.94368" lon="5.8369">
        <ele>264</ele>
        <time>2021-09-12T07:19:03.800Z</time>
      </trkpt>
      <trkpt lat="45.94374" lon="5.83693">
        <ele>264</ele>
        <time>2021-09-12T07:19:04.799Z</time>
      </trkpt>
      <trkpt lat="45.9438" lon="5.83696">
        <ele>263</ele>
        <time>2021-09-12T07:19:05.799Z</time>
      </trkpt>
      <trkpt lat="45.94386" lon="5.83699">
        <ele>262</ele>
        <time>2021-09-12T07:19:06.799Z</time>
      </trkpt>
      <trkpt lat="45.94391" lon="5.83702">
        <ele>262</ele>
        <time>2021-09-12T07:19:07.800Z</time>
      </trkpt>
      <trkpt lat="45.94397" lon="5.83705">
        <ele>261</ele>
        <time>2021-09-12T07:19:08.799Z</time>
      </trkpt>
      <trkpt lat="45.94402" lon="5.83708">
        <ele>261</ele>
        <time>2021-09-12T07:19:09.799Z</time>
      </trkpt>
      <trkpt lat="45.94408" lon="5.83711">
        <ele>260</ele>
        <time>2021-09-12T07:19:10.800Z</time>
      </trkpt>
      <trkpt lat="45.94413" lon="5.83714">
        <ele>260</ele>
        <time>2021-09-12T07:19:11.800Z</time>
      </trkpt>
      <trkpt lat="45.94419" lon="5.83717">
        <ele>259</ele>
        <time>2021-09-12T07:19:12.800Z</time>
      </trkpt>
      <trkpt lat="45.94424" lon="5.8372">
        <ele>259</ele>
        <time>2021-09-12T07:19:13.799Z</time>
      </trkpt>
      <trkpt lat="45.94429" lon="5.83723">
        <ele>259</ele>
        <time>2021-09-12T07:19:14.799Z</time>
      </trkpt>
      <trkpt lat="45.94435" lon="5.83726">
        <ele>259</ele>
        <time>2021-09-12T07:19:15.800Z</time>
      </trkpt>
      <trkpt lat="45.9444" lon="5.8373">
        <ele>259</ele>
        <time>2021-09-12T07:19:16.800Z</time>
      </trkpt>
      <trkpt lat="45.94445" lon="5.83733">
        <ele>260</ele>
        <time>2021-09-12T07:19:17.800Z</time>
      </trkpt>
      <trkpt lat="45.9445" lon="5.83736">
        <ele>260</ele>
        <time>2021-09-12T07:19:18.799Z</time>
      </trkpt>
      <trkpt lat="45.94455" lon="5.83739">
        <ele>260</ele>
        <time>2021-09-12T07:19:19.800Z</time>
      </trkpt>
      <trkpt lat="45.9446" lon="5.83743">
        <ele>261</ele>
        <time>2021-09-12T07:19:20.800Z</time>
      </trkpt>
      <trkpt lat="45.94465" lon="5.83746">
        <ele>261</ele>
        <time>2021-09-12T07:19:21.800Z</time>
      </trkpt>
      <trkpt lat="45.9447" lon="5.83749">
        <ele>261</ele>
        <time>2021-09-12T07:19:22.800Z</time>
      </trkpt>
      <trkpt lat="45.94475" lon="5.83752">
        <ele>261</ele>
        <time>2021-09-12T07:19:23.799Z</time>
      </trkpt>
      <trkpt lat="45.9448" lon="5.83756">
        <ele>261</ele>
        <time>2021-09-12T07:19:24.800Z</time>
      </trkpt>
      <trkpt lat="45.94485" lon="5.83759">
        <ele>261</ele>
        <time>2021-09-12T07:19:25.799Z</time>
      </trkpt>
      <trkpt lat="45.94491" lon="5.83763">
        <ele>262</ele>
        <time>2021-09-12T07:19:26.800Z</time>
      </trkpt>
      <trkpt lat="45.94496" lon="5.83766">
        <ele>262</ele>
        <time>2021-09-12T07:19:27.799Z</time>
      </trkpt>
      <trkpt lat="45.94501" lon="5.83769">
        <ele>263</ele>
        <time>2021-09-12T07:19:28.799Z</time>
      </trkpt>
      <trkpt lat="45.94506" lon="5.83773">
        <ele>264</ele>
        <time>2021-09-12T07:19:29.800Z</time>
      </trkpt>
      <trkpt lat="45.94512" lon="5.83776">
        <ele>265</ele>
        <time>2021-09-12T07:19:30.799Z</time>
      </trkpt>
      <trkpt lat="45.94517" lon="5.83779">
        <ele>266</ele>
        <time>2021-09-12T07:19:31.800Z</time>
      </trkpt>
      <trkpt lat="45.94523" lon="5.83783">
        <ele>266</ele>
        <time>2021-09-12T07:19:32.800Z</time>
      </trkpt>
      <trkpt lat="45.94528" lon="5.83787">
        <ele>266</ele>
        <time>2021-09-12T07:19:33.799Z</time>
      </trkpt>
      <trkpt lat="45.94533" lon="5.83791">
        <ele>266</ele>
        <time>2021-09-12T07:19:34.800Z</time>
      </trkpt>
      <trkpt lat="45.94538" lon="5.83795">
        <ele>266</ele>
        <time>2021-09-12T07:19:35.799Z</time>
      </trkpt>
      <trkpt lat="45.94543" lon="5.83799">
        <ele>265</ele>
        <time>2021-09-12T07:19:36.800Z</time>
      </trkpt>
      <trkpt lat="45.94549" lon="5.83802">
        <ele>265</ele>
        <time>2021-09-12T07:19:37.800Z</time>
      </trkpt>
      <trkpt lat="45.94554" lon="5.83806">
        <ele>265</ele>
        <time>2021-09-12T07:19:38.799Z</time>
      </trkpt>
      <trkpt lat="45.94559" lon="5.8381">
        <ele>264</ele>
        <time>2021-09-12T07:19:39.800Z</time>
      </trkpt>
      <trkpt lat="45.94565" lon="5.83813">
        <ele>264</ele>
        <time>2021-09-12T07:19:40.800Z</time>
      </trkpt>
      <trkpt lat="45.9457" lon="5.83817">
        <ele>263</ele>
        <time>2021-09-12T07:19:41.800Z</time>
      </trkpt>
      <trkpt lat="45.94576" lon="5.8382">
        <ele>264</ele>
        <time>2021-09-12T07:19:42.799Z</time>
      </trkpt>
      <trkpt lat="45.94581" lon="5.83823">
        <ele>264</ele>
        <time>2021-09-12T07:19:43.799Z</time>
      </trkpt>
      <trkpt lat="45.94586" lon="5.83827">
        <ele>264</ele>
        <time>2021-09-12T07:19:44.799Z</time>
      </trkpt>
      <trkpt lat="45.94592" lon="5.83831">
        <ele>263</ele>
        <time>2021-09-12T07:19:45.799Z</time>
      </trkpt>
      <trkpt lat="45.94597" lon="5.83834">
        <ele>263</ele>
        <time>2021-09-12T07:19:46.799Z</time>
      </trkpt>
      <trkpt lat="45.94602" lon="5.83838">
        <ele>262</ele>
        <time>2021-09-12T07:19:47.799Z</time>
      </trkpt>
      <trkpt lat="45.94608" lon="5.83841">
        <ele>262</ele>
        <time>2021-09-12T07:19:48.799Z</time>
      </trkpt>
      <trkpt lat="45.94613" lon="5.83845">
        <ele>262</ele>
        <time>2021-09-12T07:19:49.799Z</time>
      </trkpt>
      <trkpt lat="45.94618" lon="5.83848">
        <ele>261</ele>
        <time>2021-09-12T07:19:50.799Z</time>
      </trkpt>
      <trkpt lat="45.94623" lon="5.83852">
        <ele>261</ele>
        <time>2021-09-12T07:19:51.799Z</time>
      </trkpt>
      <trkpt lat="45.94629" lon="5.83855">
        <ele>261</ele>
        <time>2021-09-12T07:19:52.799Z</time>
      </trkpt>
      <trkpt lat="45.94634" lon="5.83859">
        <ele>260</ele>
        <time>2021-09-12T07:19:53.799Z</time>
      </trkpt>
      <trkpt lat="45.94639" lon="5.83863">
        <ele>259</ele>
        <time>2021-09-12T07:19:54.799Z</time>
      </trkpt>
      <trkpt lat="45.94644" lon="5.83866">
        <ele>259</ele>
        <time>2021-09-12T07:19:55.799Z</time>
      </trkpt>
      <trkpt lat="45.9465" lon="5.8387">
        <ele>259</ele>
        <time>2021-09-12T07:19:56.799Z</time>
      </trkpt>
      <trkpt lat="45.94654" lon="5.83873">
        <ele>258</ele>
        <time>2021-09-12T07:19:57.799Z</time>
      </trkpt>
      <trkpt lat="45.9466" lon="5.83877">
        <ele>258</ele>
        <time>2021-09-12T07:19:58.800Z</time>
      </trkpt>
      <trkpt lat="45.94665" lon="5.8388">
        <ele>258</ele>
        <time>2021-09-12T07:19:59.800Z</time>
      </trkpt>
      <trkpt lat="45.9467" lon="5.83884">
        <ele>258</ele>
        <time>2021-09-12T07:20:00.799Z</time>
      </trkpt>
      <trkpt lat="45.94675" lon="5.83887">
        <ele>258</ele>
        <time>2021-09-12T07:20:01.800Z</time>
      </trkpt>
      <trkpt lat="45.9468" lon="5.8389">
        <ele>258</ele>
        <time>2021-09-12T07:20:02.799Z</time>
      </trkpt>
      <trkpt lat="45.94686" lon="5.83894">
        <ele>258</ele>
        <time>2021-09-12T07:20:03.799Z</time>
      </trkpt>
      <trkpt lat="45.94691" lon="5.83897">
        <ele>258</ele>
        <time>2021-09-12T07:20:04.800Z</time>
      </trkpt>
      <trkpt lat="45.94696" lon="5.83901">
        <ele>257</ele>
        <time>2021-09-12T07:20:05.800Z</time>
      </trkpt>
      <trkpt lat="45.94702" lon="5.83905">
        <ele>257</ele>
        <time>2021-09-12T07:20:06.799Z</time>
      </trkpt>
      <trkpt lat="45.94706" lon="5.83908">
        <ele>257</ele>
        <time>2021-09-12T07:20:07.800Z</time>
      </trkpt>
      <trkpt lat="45.94712" lon="5.83912">
        <ele>257</ele>
        <time>2021-09-12T07:20:08.799Z</time>
      </trkpt>
      <trkpt lat="45.94717" lon="5.83915">
        <ele>256</ele>
        <time>2021-09-12T07:20:09.800Z</time>
      </trkpt>
      <trkpt lat="45.94722" lon="5.83919">
        <ele>256</ele>
        <time>2021-09-12T07:20:10.800Z</time>
      </trkpt>
      <trkpt lat="45.94727" lon="5.83922">
        <ele>255</ele>
        <time>2021-09-12T07:20:11.799Z</time>
      </trkpt>
      <trkpt lat="45.94732" lon="5.83926">
        <ele>255</ele>
        <time>2021-09-12T07:20:12.800Z</time>
      </trkpt>
      <trkpt lat="45.94737" lon="5.83929">
        <ele>255</ele>
        <time>2021-09-12T07:20:13.800Z</time>
      </trkpt>
      <trkpt lat="45.94742" lon="5.83933">
        <ele>255</ele>
        <time>2021-09-12T07:20:14.800Z</time>
      </trkpt>
      <trkpt lat="45.94747" lon="5.83936">
        <ele>254</ele>
        <time>2021-09-12T07:20:15.800Z</time>
      </trkpt>
      <trkpt lat="45.94751" lon="5.8394">
        <ele>254</ele>
        <time>2021-09-12T07:20:16.799Z</time>
      </trkpt>
      <trkpt lat="45.94756" lon="5.83943">
        <ele>254</ele>
        <time>2021-09-12T07:20:17.800Z</time>
      </trkpt>
      <trkpt lat="45.94761" lon="5.83946">
        <ele>254</ele>
        <time>2021-09-12T07:20:18.800Z</time>
      </trkpt>
      <trkpt lat="45.94766" lon="5.83949">
        <ele>255</ele>
        <time>2021-09-12T07:20:19.800Z</time>
      </trkpt>
      <trkpt lat="45.9477" lon="5.83951">
        <ele>255</ele>
        <time>2021-09-12T07:20:20.800Z</time>
      </trkpt>
      <trkpt lat="45.94775" lon="5.83954">
        <ele>255</ele>
        <time>2021-09-12T07:20:21.799Z</time>
      </trkpt>
      <trkpt lat="45.94779" lon="5.83957">
        <ele>255</ele>
        <time>2021-09-12T07:20:22.800Z</time>
      </trkpt>
      <trkpt lat="45.94784" lon="5.8396">
        <ele>255</ele>
        <time>2021-09-12T07:20:23.799Z</time>
      </trkpt>
      <trkpt lat="45.94789" lon="5.83963">
        <ele>255</ele>
        <time>2021-09-12T07:20:24.800Z</time>
      </trkpt>
      <trkpt lat="45.94794" lon="5.83965">
        <ele>255</ele>
        <time>2021-09-12T07:20:25.799Z</time>
      </trkpt>
      <trkpt lat="45.94799" lon="5.83967">
        <ele>256</ele>
        <time>2021-09-12T07:20:26.800Z</time>
      </trkpt>
      <trkpt lat="45.94804" lon="5.83969">
        <ele>256</ele>
        <time>2021-09-12T07:20:27.799Z</time>
      </trkpt>
      <trkpt lat="45.94809" lon="5.83972">
        <ele>256</ele>
        <time>2021-09-12T07:20:28.800Z</time>
      </trkpt>
      <trkpt lat="45.94814" lon="5.83973">
        <ele>256</ele>
        <time>2021-09-12T07:20:29.800Z</time>
      </trkpt>
      <trkpt lat="45.94819" lon="5.83975">
        <ele>256</ele>
        <time>2021-09-12T07:20:30.799Z</time>
      </trkpt>
      <trkpt lat="45.94824" lon="5.83977">
        <ele>257</ele>
        <time>2021-09-12T07:20:31.799Z</time>
      </trkpt>
      <trkpt lat="45.9483" lon="5.83979">
        <ele>257</ele>
        <time>2021-09-12T07:20:32.799Z</time>
      </trkpt>
      <trkpt lat="45.94835" lon="5.8398">
        <ele>258</ele>
        <time>2021-09-12T07:20:33.800Z</time>
      </trkpt>
      <trkpt lat="45.94841" lon="5.83981">
        <ele>258</ele>
        <time>2021-09-12T07:20:34.800Z</time>
      </trkpt>
      <trkpt lat="45.94846" lon="5.83982">
        <ele>259</ele>
        <time>2021-09-12T07:20:35.800Z</time>
      </trkpt>
      <trkpt lat="45.94852" lon="5.83983">
        <ele>259</ele>
        <time>2021-09-12T07:20:36.800Z</time>
      </trkpt>
      <trkpt lat="45.94857" lon="5.83985">
        <ele>259</ele>
        <time>2021-09-12T07:20:37.799Z</time>
      </trkpt>
      <trkpt lat="45.94863" lon="5.83986">
        <ele>258</ele>
        <time>2021-09-12T07:20:38.799Z</time>
      </trkpt>
      <trkpt lat="45.94869" lon="5.83987">
        <ele>257</ele>
        <time>2021-09-12T07:20:39.800Z</time>
      </trkpt>
      <trkpt lat="45.94874" lon="5.83987">
        <ele>257</ele>
        <time>2021-09-12T07:20:40.800Z</time>
      </trkpt>
      <trkpt lat="45.9488" lon="5.83988">
        <ele>256</ele>
        <time>2021-09-12T07:20:41.799Z</time>
      </trkpt>
      <trkpt lat="45.94886" lon="5.83988">
        <ele>256</ele>
        <time>2021-09-12T07:20:42.800Z</time>
      </trkpt>
      <trkpt lat="45.94891" lon="5.83989">
        <ele>255</ele>
        <time>2021-09-12T07:20:43.799Z</time>
      </trkpt>
      <trkpt lat="45.94897" lon="5.83989">
        <ele>255</ele>
        <time>2021-09-12T07:20:44.800Z</time>
      </trkpt>
      <trkpt lat="45.94902" lon="5.83989">
        <ele>254</ele>
        <time>2021-09-12T07:20:45.799Z</time>
      </trkpt>
      <trkpt lat="45.94908" lon="5.83988">
        <ele>254</ele>
        <time>2021-09-12T07:20:46.800Z</time>
      </trkpt>
      <trkpt lat="45.94914" lon="5.83988">
        <ele>253</ele>
        <time>2021-09-12T07:20:47.800Z</time>
      </trkpt>
      <trkpt lat="45.9492" lon="5.83987">
        <ele>253</ele>
        <time>2021-09-12T07:20:48.800Z</time>
      </trkpt>
      <trkpt lat="45.94926" lon="5.83987">
        <ele>252</ele>
        <time>2021-09-12T07:20:49.800Z</time>
      </trkpt>
      <trkpt lat="45.94932" lon="5.83986">
        <ele>252</ele>
        <time>2021-09-12T07:20:50.800Z</time>
      </trkpt>
      <trkpt lat="45.94937" lon="5.83985">
        <ele>252</ele>
        <time>2021-09-12T07:20:51.800Z</time>
      </trkpt>
      <trkpt lat="45.94943" lon="5.83983">
        <ele>251</ele>
        <time>2021-09-12T07:20:52.799Z</time>
      </trkpt>
      <trkpt lat="45.94948" lon="5.83982">
        <ele>252</ele>
        <time>2021-09-12T07:20:53.800Z</time>
      </trkpt>
      <trkpt lat="45.94954" lon="5.8398">
        <ele>252</ele>
        <time>2021-09-12T07:20:54.800Z</time>
      </trkpt>
      <trkpt lat="45.94959" lon="5.83979">
        <ele>252</ele>
        <time>2021-09-12T07:20:55.799Z</time>
      </trkpt>
      <trkpt lat="45.94965" lon="5.83976">
        <ele>252</ele>
        <time>2021-09-12T07:20:56.799Z</time>
      </trkpt>
      <trkpt lat="45.94971" lon="5.83974">
        <ele>252</ele>
        <time>2021-09-12T07:20:57.799Z</time>
      </trkpt>
      <trkpt lat="45.94976" lon="5.83972">
        <ele>252</ele>
        <time>2021-09-12T07:20:58.800Z</time>
      </trkpt>
      <trkpt lat="45.94982" lon="5.8397">
        <ele>253</ele>
        <time>2021-09-12T07:20:59.800Z</time>
      </trkpt>
      <trkpt lat="45.94987" lon="5.83967">
        <ele>253</ele>
        <time>2021-09-12T07:21:00.800Z</time>
      </trkpt>
      <trkpt lat="45.94993" lon="5.83965">
        <ele>253</ele>
        <time>2021-09-12T07:21:01.799Z</time>
      </trkpt>
      <trkpt lat="45.94998" lon="5.83962">
        <ele>253</ele>
        <time>2021-09-12T07:21:02.800Z</time>
      </trkpt>
      <trkpt lat="45.95004" lon="5.8396">
        <ele>253</ele>
        <time>2021-09-12T07:21:03.800Z</time>
      </trkpt>
      <trkpt lat="45.95008" lon="5.83958">
        <ele>253</ele>
        <time>2021-09-12T07:21:04.799Z</time>
      </trkpt>
      <trkpt lat="45.95014" lon="5.83955">
        <ele>254</ele>
        <time>2021-09-12T07:21:05.799Z</time>
      </trkpt>
      <trkpt lat="45.9502" lon="5.83953">
        <ele>254</ele>
        <time>2021-09-12T07:21:06.799Z</time>
      </trkpt>
      <trkpt lat="45.95025" lon="5.83951">
        <ele>254</ele>
        <time>2021-09-12T07:21:07.800Z</time>
      </trkpt>
      <trkpt lat="45.9503" lon="5.83948">
        <ele>254</ele>
        <time>2021-09-12T07:21:08.799Z</time>
      </trkpt>
      <trkpt lat="45.95035" lon="5.83947">
        <ele>254</ele>
        <time>2021-09-12T07:21:09.800Z</time>
      </trkpt>
      <trkpt lat="45.95041" lon="5.83944">
        <ele>253</ele>
        <time>2021-09-12T07:21:10.800Z</time>
      </trkpt>
      <trkpt lat="45.95046" lon="5.83942">
        <ele>254</ele>
        <time>2021-09-12T07:21:11.799Z</time>
      </trkpt>
      <trkpt lat="45.95051" lon="5.8394">
        <ele>254</ele>
        <time>2021-09-12T07:21:12.799Z</time>
      </trkpt>
      <trkpt lat="45.95056" lon="5.83938">
        <ele>254</ele>
        <time>2021-09-12T07:21:13.799Z</time>
      </trkpt>
      <trkpt lat="45.9506" lon="5.83936">
        <ele>253</ele>
        <time>2021-09-12T07:21:14.799Z</time>
      </trkpt>
      <trkpt lat="45.95066" lon="5.83933">
        <ele>253</ele>
        <time>2021-09-12T07:21:15.800Z</time>
      </trkpt>
      <trkpt lat="45.95072" lon="5.83931">
        <ele>253</ele>
        <time>2021-09-12T07:21:16.800Z</time>
      </trkpt>
      <trkpt lat="45.95077" lon="5.83929">
        <ele>252</ele>
        <time>2021-09-12T07:21:17.799Z</time>
      </trkpt>
      <trkpt lat="45.95082" lon="5.83926">
        <ele>252</ele>
        <time>2021-09-12T07:21:18.800Z</time>
      </trkpt>
      <trkpt lat="45.95087" lon="5.83924">
        <ele>253</ele>
        <time>2021-09-12T07:21:19.799Z</time>
      </trkpt>
      <trkpt lat="45.95092" lon="5.83922">
        <ele>253</ele>
        <time>2021-09-12T07:21:20.800Z</time>
      </trkpt>
      <trkpt lat="45.95097" lon="5.8392">
        <ele>253</ele>
        <time>2021-09-12T07:21:21.800Z</time>
      </trkpt>
      <trkpt lat="45.95102" lon="5.83917">
        <ele>254</ele>
        <time>2021-09-12T07:21:22.799Z</time>
      </trkpt>
      <trkpt lat="45.95107" lon="5.83915">
        <ele>254</ele>
        <time>2021-09-12T07:21:23.799Z</time>
      </trkpt>
      <trkpt lat="45.95112" lon="5.83913">
        <ele>254</ele>
        <time>2021-09-12T07:21:24.800Z</time>
      </trkpt>
      <trkpt lat="45.95117" lon="5.83911">
        <ele>255</ele>
        <time>2021-09-12T07:21:25.799Z</time>
      </trkpt>
      <trkpt lat="45.95122" lon="5.83909">
        <ele>255</ele>
        <time>2021-09-12T07:21:26.799Z</time>
      </trkpt>
      <trkpt lat="45.95126" lon="5.83907">
        <ele>255</ele>
        <time>2021-09-12T07:21:27.799Z</time>
      </trkpt>
      <trkpt lat="45.95131" lon="5.83906">
        <ele>255</ele>
        <time>2021-09-12T07:21:28.799Z</time>
      </trkpt>
      <trkpt lat="45.95137" lon="5.83903">
        <ele>255</ele>
        <time>2021-09-12T07:21:29.800Z</time>
      </trkpt>
      <trkpt lat="45.95141" lon="5.83901">
        <ele>254</ele>
        <time>2021-09-12T07:21:30.800Z</time>
      </trkpt>
      <trkpt lat="45.95146" lon="5.83899">
        <ele>254</ele>
        <time>2021-09-12T07:21:31.800Z</time>
      </trkpt>
      <trkpt lat="45.95151" lon="5.83897">
        <ele>255</ele>
        <time>2021-09-12T07:21:32.800Z</time>
      </trkpt>
      <trkpt lat="45.95156" lon="5.83895">
        <ele>255</ele>
        <time>2021-09-12T07:21:33.800Z</time>
      </trkpt>
      <trkpt lat="45.95163" lon="5.83892">
        <ele>255</ele>
        <time>2021-09-12T07:21:34.800Z</time>
      </trkpt>
      <trkpt lat="45.95168" lon="5.8389">
        <ele>255</ele>
        <time>2021-09-12T07:21:35.800Z</time>
      </trkpt>
      <trkpt lat="45.95172" lon="5.83888">
        <ele>255</ele>
        <time>2021-09-12T07:21:36.800Z</time>
      </trkpt>
      <trkpt lat="45.95178" lon="5.83886">
        <ele>254</ele>
        <time>2021-09-12T07:21:37.799Z</time>
      </trkpt>
      <trkpt lat="45.95185" lon="5.83883">
        <ele>254</ele>
        <time>2021-09-12T07:21:38.800Z</time>
      </trkpt>
      <trkpt lat="45.9519" lon="5.83881">
        <ele>254</ele>
        <time>2021-09-12T07:21:39.800Z</time>
      </trkpt>
      <trkpt lat="45.95195" lon="5.83879">
        <ele>254</ele>
        <time>2021-09-12T07:21:40.800Z</time>
      </trkpt>
      <trkpt lat="45.952" lon="5.83877">
        <ele>255</ele>
        <time>2021-09-12T07:21:41.799Z</time>
      </trkpt>
      <trkpt lat="45.95204" lon="5.83875">
        <ele>255</ele>
        <time>2021-09-12T07:21:42.800Z</time>
      </trkpt>
      <trkpt lat="45.9521" lon="5.83872">
        <ele>255</ele>
        <time>2021-09-12T07:21:43.800Z</time>
      </trkpt>
      <trkpt lat="45.95216" lon="5.8387">
        <ele>255</ele>
        <time>2021-09-12T07:21:44.800Z</time>
      </trkpt>
      <trkpt lat="45.9522" lon="5.83868">
        <ele>255</ele>
        <time>2021-09-12T07:21:45.800Z</time>
      </trkpt>
      <trkpt lat="45.95226" lon="5.83866">
        <ele>255</ele>
        <time>2021-09-12T07:21:46.799Z</time>
      </trkpt>
      <trkpt lat="45.95232" lon="5.83864">
        <ele>255</ele>
        <time>2021-09-12T07:21:47.799Z</time>
      </trkpt>
      <trkpt lat="45.95238" lon="5.83861">
        <ele>255</ele>
        <time>2021-09-12T07:21:48.800Z</time>
      </trkpt>
      <trkpt lat="45.95242" lon="5.8386">
        <ele>255</ele>
        <time>2021-09-12T07:21:49.800Z</time>
      </trkpt>
      <trkpt lat="45.95248" lon="5.83857">
        <ele>255</ele>
        <time>2021-09-12T07:21:50.800Z</time>
      </trkpt>
      <trkpt lat="45.95253" lon="5.83855">
        <ele>255</ele>
        <time>2021-09-12T07:21:51.800Z</time>
      </trkpt>
      <trkpt lat="45.9526" lon="5.83852">
        <ele>255</ele>
        <time>2021-09-12T07:21:52.800Z</time>
      </trkpt>
      <trkpt lat="45.95265" lon="5.83849">
        <ele>255</ele>
        <time>2021-09-12T07:21:53.800Z</time>
      </trkpt>
      <trkpt lat="45.9527" lon="5.83847">
        <ele>255</ele>
        <time>2021-09-12T07:21:54.799Z</time>
      </trkpt>
      <trkpt lat="45.95274" lon="5.83844">
        <ele>255</ele>
        <time>2021-09-12T07:21:55.799Z</time>
      </trkpt>
      <trkpt lat="45.95279" lon="5.83841">
        <ele>255</ele>
        <time>2021-09-12T07:21:56.799Z</time>
      </trkpt>
      <trkpt lat="45.95286" lon="5.83838">
        <ele>255</ele>
        <time>2021-09-12T07:21:57.800Z</time>
      </trkpt>
      <trkpt lat="45.95291" lon="5.83835">
        <ele>255</ele>
        <time>2021-09-12T07:21:58.800Z</time>
      </trkpt>
      <trkpt lat="45.95295" lon="5.83832">
        <ele>255</ele>
        <time>2021-09-12T07:21:59.800Z</time>
      </trkpt>
      <trkpt lat="45.953" lon="5.83829">
        <ele>255</ele>
        <time>2021-09-12T07:22:00.800Z</time>
      </trkpt>
      <trkpt lat="45.95305" lon="5.83825">
        <ele>255</ele>
        <time>2021-09-12T07:22:01.800Z</time>
      </trkpt>
      <trkpt lat="45.95311" lon="5.83821">
        <ele>255</ele>
        <time>2021-09-12T07:22:02.800Z</time>
      </trkpt>
      <trkpt lat="45.95316" lon="5.83817">
        <ele>255</ele>
        <time>2021-09-12T07:22:03.800Z</time>
      </trkpt>
      <trkpt lat="45.95321" lon="5.83813">
        <ele>255</ele>
        <time>2021-09-12T07:22:04.800Z</time>
      </trkpt>
      <trkpt lat="45.95326" lon="5.8381">
        <ele>255</ele>
        <time>2021-09-12T07:22:05.799Z</time>
      </trkpt>
      <trkpt lat="45.95331" lon="5.83806">
        <ele>255</ele>
        <time>2021-09-12T07:22:06.800Z</time>
      </trkpt>
      <trkpt lat="45.95337" lon="5.83801">
        <ele>254</ele>
        <time>2021-09-12T07:22:07.800Z</time>
      </trkpt>
      <trkpt lat="45.95342" lon="5.83797">
        <ele>254</ele>
        <time>2021-09-12T07:22:08.799Z</time>
      </trkpt>
      <trkpt lat="45.95347" lon="5.83794">
        <ele>254</ele>
        <time>2021-09-12T07:22:09.800Z</time>
      </trkpt>
      <trkpt lat="45.95351" lon="5.8379">
        <ele>255</ele>
        <time>2021-09-12T07:22:10.800Z</time>
      </trkpt>
      <trkpt lat="45.95357" lon="5.83786">
        <ele>255</ele>
        <time>2021-09-12T07:22:11.799Z</time>
      </trkpt>
      <trkpt lat="45.95362" lon="5.83782">
        <ele>255</ele>
        <time>2021-09-12T07:22:12.800Z</time>
      </trkpt>
      <trkpt lat="45.95367" lon="5.83779">
        <ele>255</ele>
        <time>2021-09-12T07:22:13.799Z</time>
      </trkpt>
      <trkpt lat="45.95372" lon="5.83775">
        <ele>254</ele>
        <time>2021-09-12T07:22:14.800Z</time>
      </trkpt>
      <trkpt lat="45.95378" lon="5.83773">
        <ele>255</ele>
        <time>2021-09-12T07:22:15.800Z</time>
      </trkpt>
      <trkpt lat="45.95383" lon="5.83771">
        <ele>255</ele>
        <time>2021-09-12T07:22:16.800Z</time>
      </trkpt>
      <trkpt lat="45.9539" lon="5.83771">
        <ele>254</ele>
        <time>2021-09-12T07:22:17.799Z</time>
      </trkpt>
      <trkpt lat="45.95395" lon="5.83772">
        <ele>254</ele>
        <time>2021-09-12T07:22:18.799Z</time>
      </trkpt>
      <trkpt lat="45.95401" lon="5.83773">
        <ele>254</ele>
        <time>2021-09-12T07:22:19.800Z</time>
      </trkpt>
      <trkpt lat="45.95405" lon="5.83774">
        <ele>254</ele>
        <time>2021-09-12T07:22:20.800Z</time>
      </trkpt>
      <trkpt lat="45.9541" lon="5.83774">
        <ele>254</ele>
        <time>2021-09-12T07:22:21.799Z</time>
      </trkpt>
      <trkpt lat="45.95416" lon="5.83773">
        <ele>254</ele>
        <time>2021-09-12T07:22:22.799Z</time>
      </trkpt>
      <trkpt lat="45.9542" lon="5.83771">
        <ele>254</ele>
        <time>2021-09-12T07:22:23.800Z</time>
      </trkpt>
      <trkpt lat="45.95424" lon="5.83768">
        <ele>254</ele>
        <time>2021-09-12T07:22:24.799Z</time>
      </trkpt>
      <trkpt lat="45.95428" lon="5.83763">
        <ele>254</ele>
        <time>2021-09-12T07:22:25.799Z</time>
      </trkpt>
      <trkpt lat="45.9543" lon="5.83756">
        <ele>254</ele>
        <time>2021-09-12T07:22:26.799Z</time>
      </trkpt>
      <trkpt lat="45.95432" lon="5.8375">
        <ele>254</ele>
        <time>2021-09-12T07:22:27.800Z</time>
      </trkpt>
      <trkpt lat="45.95433" lon="5.83741">
        <ele>255</ele>
        <time>2021-09-12T07:22:28.800Z</time>
      </trkpt>
      <trkpt lat="45.95434" lon="5.83735">
        <ele>255</ele>
        <time>2021-09-12T07:22:29.800Z</time>
      </trkpt>
      <trkpt lat="45.95435" lon="5.83728">
        <ele>255</ele>
        <time>2021-09-12T07:22:30.800Z</time>
      </trkpt>
      <trkpt lat="45.95437" lon="5.83719">
        <ele>255</ele>
        <time>2021-09-12T07:22:31.800Z</time>
      </trkpt>
      <trkpt lat="45.95439" lon="5.83713">
        <ele>256</ele>
        <time>2021-09-12T07:22:32.800Z</time>
      </trkpt>
      <trkpt lat="45.95442" lon="5.83706">
        <ele>256</ele>
        <time>2021-09-12T07:22:33.799Z</time>
      </trkpt>
      <trkpt lat="45.95444" lon="5.83702">
        <ele>256</ele>
        <time>2021-09-12T07:22:34.800Z</time>
      </trkpt>
      <trkpt lat="45.95447" lon="5.83696">
        <ele>256</ele>
        <time>2021-09-12T07:22:35.799Z</time>
      </trkpt>
      <trkpt lat="45.95451" lon="5.8369">
        <ele>256</ele>
        <time>2021-09-12T07:22:36.800Z</time>
      </trkpt>
      <trkpt lat="45.95455" lon="5.83685">
        <ele>256</ele>
        <time>2021-09-12T07:22:37.799Z</time>
      </trkpt>
      <trkpt lat="45.95459" lon="5.8368">
        <ele>256</ele>
        <time>2021-09-12T07:22:38.799Z</time>
      </trkpt>
      <trkpt lat="45.95462" lon="5.83675">
        <ele>255</ele>
        <time>2021-09-12T07:22:39.799Z</time>
      </trkpt>
      <trkpt lat="45.95466" lon="5.8367">
        <ele>255</ele>
        <time>2021-09-12T07:22:40.800Z</time>
      </trkpt>
      <trkpt lat="45.95471" lon="5.83665">
        <ele>255</ele>
        <time>2021-09-12T07:22:41.800Z</time>
      </trkpt>
      <trkpt lat="45.95475" lon="5.8366">
        <ele>255</ele>
        <time>2021-09-12T07:22:42.800Z</time>
      </trkpt>
      <trkpt lat="45.95479" lon="5.83657">
        <ele>254</ele>
        <time>2021-09-12T07:22:43.799Z</time>
      </trkpt>
      <trkpt lat="45.95483" lon="5.83653">
        <ele>254</ele>
        <time>2021-09-12T07:22:44.800Z</time>
      </trkpt>
      <trkpt lat="45.95487" lon="5.83648">
        <ele>255</ele>
        <time>2021-09-12T07:22:45.800Z</time>
      </trkpt>
      <trkpt lat="45.95491" lon="5.83644">
        <ele>255</ele>
        <time>2021-09-12T07:22:46.800Z</time>
      </trkpt>
      <trkpt lat="45.95495" lon="5.83641">
        <ele>255</ele>
        <time>2021-09-12T07:22:47.799Z</time>
      </trkpt>
      <trkpt lat="45.955" lon="5.83637">
        <ele>255</ele>
        <time>2021-09-12T07:22:48.800Z</time>
      </trkpt>
      <trkpt lat="45.95504" lon="5.83633">
        <ele>255</ele>
        <time>2021-09-12T07:22:49.800Z</time>
      </trkpt>
      <trkpt lat="45.95509" lon="5.8363">
        <ele>255</ele>
        <time>2021-09-12T07:22:50.799Z</time>
      </trkpt>
      <trkpt lat="45.95514" lon="5.83626">
        <ele>255</ele>
        <time>2021-09-12T07:22:51.799Z</time>
      </trkpt>
      <trkpt lat="45.95518" lon="5.83622">
        <ele>255</ele>
        <time>2021-09-12T07:22:52.800Z</time>
      </trkpt>
      <trkpt lat="45.95523" lon="5.83618">
        <ele>255</ele>
        <time>2021-09-12T07:22:53.800Z</time>
      </trkpt>
      <trkpt lat="45.95527" lon="5.83614">
        <ele>255</ele>
        <time>2021-09-12T07:22:54.800Z</time>
      </trkpt>
      <trkpt lat="45.95531" lon="5.83609">
        <ele>255</ele>
        <time>2021-09-12T07:22:55.800Z</time>
      </trkpt>
      <trkpt lat="45.95536" lon="5.83605">
        <ele>255</ele>
        <time>2021-09-12T07:22:56.799Z</time>
      </trkpt>
      <trkpt lat="45.95541" lon="5.836">
        <ele>255</ele>
        <time>2021-09-12T07:22:57.800Z</time>
      </trkpt>
      <trkpt lat="45.95544" lon="5.83597">
        <ele>255</ele>
        <time>2021-09-12T07:22:58.800Z</time>
      </trkpt>
      <trkpt lat="45.95549" lon="5.83593">
        <ele>255</ele>
        <time>2021-09-12T07:22:59.800Z</time>
      </trkpt>
      <trkpt lat="45.95554" lon="5.83588">
        <ele>255</ele>
        <time>2021-09-12T07:23:00.800Z</time>
      </trkpt>
      <trkpt lat="45.95558" lon="5.83584">
        <ele>256</ele>
        <time>2021-09-12T07:23:01.800Z</time>
      </trkpt>
      <trkpt lat="45.95562" lon="5.8358">
        <ele>256</ele>
        <time>2021-09-12T07:23:02.800Z</time>
      </trkpt>
      <trkpt lat="45.95566" lon="5.83576">
        <ele>255</ele>
        <time>2021-09-12T07:23:03.799Z</time>
      </trkpt>
      <trkpt lat="45.95571" lon="5.83572">
        <ele>255</ele>
        <time>2021-09-12T07:23:04.800Z</time>
      </trkpt>
      <trkpt lat="45.95576" lon="5.83567">
        <ele>255</ele>
        <time>2021-09-12T07:23:05.800Z</time>
      </trkpt>
      <trkpt lat="45.95581" lon="5.83564">
        <ele>255</ele>
        <time>2021-09-12T07:23:06.799Z</time>
      </trkpt>
      <trkpt lat="45.95585" lon="5.8356">
        <ele>255</ele>
        <time>2021-09-12T07:23:07.800Z</time>
      </trkpt>
      <trkpt lat="45.95589" lon="5.83556">
        <ele>255</ele>
        <time>2021-09-12T07:23:08.799Z</time>
      </trkpt>
      <trkpt lat="45.95594" lon="5.83552">
        <ele>255</ele>
        <time>2021-09-12T07:23:09.800Z</time>
      </trkpt>
      <trkpt lat="45.95598" lon="5.83548">
        <ele>255</ele>
        <time>2021-09-12T07:23:10.800Z</time>
      </trkpt>
      <trkpt lat="45.95603" lon="5.83545">
        <ele>255</ele>
        <time>2021-09-12T07:23:11.799Z</time>
      </trkpt>
      <trkpt lat="45.95608" lon="5.8354">
        <ele>255</ele>
        <time>2021-09-12T07:23:12.800Z</time>
      </trkpt>
      <trkpt lat="45.95612" lon="5.83537">
        <ele>255</ele>
        <time>2021-09-12T07:23:13.799Z</time>
      </trkpt>
      <trkpt lat="45.95617" lon="5.83533">
        <ele>255</ele>
        <time>2021-09-12T07:23:14.800Z</time>
      </trkpt>
      <trkpt lat="45.95622" lon="5.83528">
        <ele>255</ele>
        <time>2021-09-12T07:23:15.800Z</time>
      </trkpt>
      <trkpt lat="45.95626" lon="5.83525">
        <ele>254</ele>
        <time>2021-09-12T07:23:16.800Z</time>
      </trkpt>
      <trkpt lat="45.9563" lon="5.8352">
        <ele>255</ele>
        <time>2021-09-12T07:23:17.800Z</time>
      </trkpt>
      <trkpt lat="45.95634" lon="5.83516">
        <ele>255</ele>
        <time>2021-09-12T07:23:18.799Z</time>
      </trkpt>
      <trkpt lat="45.95639" lon="5.83512">
        <ele>255</ele>
        <time>2021-09-12T07:23:19.799Z</time>
      </trkpt>
      <trkpt lat="45.95644" lon="5.83507">
        <ele>255</ele>
        <time>2021-09-12T07:23:20.800Z</time>
      </trkpt>
      <trkpt lat="45.95648" lon="5.83502">
        <ele>255</ele>
        <time>2021-09-12T07:23:21.800Z</time>
      </trkpt>
      <trkpt lat="45.95653" lon="5.83499">
        <ele>255</ele>
        <time>2021-09-12T07:23:22.799Z</time>
      </trkpt>
      <trkpt lat="45.95657" lon="5.83495">
        <ele>255</ele>
        <time>2021-09-12T07:23:23.800Z</time>
      </trkpt>
      <trkpt lat="45.95661" lon="5.83491">
        <ele>254</ele>
        <time>2021-09-12T07:23:24.800Z</time>
      </trkpt>
      <trkpt lat="45.95666" lon="5.83486">
        <ele>254</ele>
        <time>2021-09-12T07:23:25.800Z</time>
      </trkpt>
      <trkpt lat="45.95671" lon="5.83482">
        <ele>254</ele>
        <time>2021-09-12T07:23:26.800Z</time>
      </trkpt>
      <trkpt lat="45.95675" lon="5.83478">
        <ele>254</ele>
        <time>2021-09-12T07:23:27.800Z</time>
      </trkpt>
      <trkpt lat="45.95678" lon="5.83475">
        <ele>254</ele>
        <time>2021-09-12T07:23:28.800Z</time>
      </trkpt>
      <trkpt lat="45.95683" lon="5.8347">
        <ele>254</ele>
        <time>2021-09-12T07:23:29.799Z</time>
      </trkpt>
      <trkpt lat="45.95687" lon="5.83467">
        <ele>254</ele>
        <time>2021-09-12T07:23:30.800Z</time>
      </trkpt>
      <trkpt lat="45.95691" lon="5.83464">
        <ele>253</ele>
        <time>2021-09-12T07:23:31.800Z</time>
      </trkpt>
      <trkpt lat="45.95695" lon="5.8346">
        <ele>253</ele>
        <time>2021-09-12T07:23:32.799Z</time>
      </trkpt>
      <trkpt lat="45.95698" lon="5.83458">
        <ele>253</ele>
        <time>2021-09-12T07:23:33.800Z</time>
      </trkpt>
      <trkpt lat="45.95702" lon="5.83455">
        <ele>253</ele>
        <time>2021-09-12T07:23:34.800Z</time>
      </trkpt>
      <trkpt lat="45.95706" lon="5.83451">
        <ele>253</ele>
        <time>2021-09-12T07:23:35.800Z</time>
      </trkpt>
      <trkpt lat="45.95709" lon="5.83448">
        <ele>253</ele>
        <time>2021-09-12T07:23:36.800Z</time>
      </trkpt>
      <trkpt lat="45.95711" lon="5.83445">
        <ele>253</ele>
        <time>2021-09-12T07:23:37.800Z</time>
      </trkpt>
      <trkpt lat="45.95714" lon="5.83443">
        <ele>254</ele>
        <time>2021-09-12T07:23:38.800Z</time>
      </trkpt>
      <trkpt lat="45.95717" lon="5.8344">
        <ele>254</ele>
        <time>2021-09-12T07:23:39.799Z</time>
      </trkpt>
      <trkpt lat="45.95721" lon="5.83437">
        <ele>255</ele>
        <time>2021-09-12T07:23:40.800Z</time>
      </trkpt>
      <trkpt lat="45.95724" lon="5.83434">
        <ele>255</ele>
        <time>2021-09-12T07:23:41.800Z</time>
      </trkpt>
      <trkpt lat="45.95726" lon="5.83432">
        <ele>255</ele>
        <time>2021-09-12T07:23:42.800Z</time>
      </trkpt>
      <trkpt lat="45.9573" lon="5.83429">
        <ele>255</ele>
        <time>2021-09-12T07:23:43.800Z</time>
      </trkpt>
      <trkpt lat="45.95732" lon="5.83426">
        <ele>256</ele>
        <time>2021-09-12T07:23:44.800Z</time>
      </trkpt>
      <trkpt lat="45.95735" lon="5.83423">
        <ele>256</ele>
        <time>2021-09-12T07:23:45.800Z</time>
      </trkpt>
      <trkpt lat="45.95737" lon="5.8342">
        <ele>257</ele>
        <time>2021-09-12T07:23:46.800Z</time>
      </trkpt>
      <trkpt lat="45.9574" lon="5.83417">
        <ele>257</ele>
        <time>2021-09-12T07:23:47.800Z</time>
      </trkpt>
      <trkpt lat="45.95743" lon="5.83413">
        <ele>257</ele>
        <time>2021-09-12T07:23:48.800Z</time>
      </trkpt>
      <trkpt lat="45.95745" lon="5.83411">
        <ele>257</ele>
        <time>2021-09-12T07:23:49.799Z</time>
      </trkpt>
      <trkpt lat="45.95748" lon="5.83407">
        <ele>257</ele>
        <time>2021-09-12T07:23:50.799Z</time>
      </trkpt>
      <trkpt lat="45.95749" lon="5.83404">
        <ele>256</ele>
        <time>2021-09-12T07:23:51.799Z</time>
      </trkpt>
      <trkpt lat="45.9575" lon="5.834">
        <ele>256</ele>
        <time>2021-09-12T07:23:52.800Z</time>
      </trkpt>
      <trkpt lat="45.95751" lon="5.83396">
        <ele>256</ele>
        <time>2021-09-12T07:23:53.800Z</time>
      </trkpt>
      <trkpt lat="45.95753" lon="5.83391">
        <ele>256</ele>
        <time>2021-09-12T07:23:54.799Z</time>
      </trkpt>
      <trkpt lat="45.95753" lon="5.83387">
        <ele>256</ele>
        <time>2021-09-12T07:23:55.800Z</time>
      </trkpt>
      <trkpt lat="45.95755" lon="5.83383">
        <ele>256</ele>
        <time>2021-09-12T07:23:56.799Z</time>
      </trkpt>
      <trkpt lat="45.95757" lon="5.83379">
        <ele>257</ele>
        <time>2021-09-12T07:23:57.800Z</time>
      </trkpt>
      <trkpt lat="45.95759" lon="5.83375">
        <ele>257</ele>
        <time>2021-09-12T07:23:58.800Z</time>
      </trkpt>
      <trkpt lat="45.95761" lon="5.83372">
        <ele>258</ele>
        <time>2021-09-12T07:23:59.800Z</time>
      </trkpt>
      <trkpt lat="45.95762" lon="5.83368">
        <ele>258</ele>
        <time>2021-09-12T07:24:00.800Z</time>
      </trkpt>
      <trkpt lat="45.95765" lon="5.83366">
        <ele>259</ele>
        <time>2021-09-12T07:24:01.799Z</time>
      </trkpt>
      <trkpt lat="45.95767" lon="5.83364">
        <ele>259</ele>
        <time>2021-09-12T07:24:02.800Z</time>
      </trkpt>
      <trkpt lat="45.9577" lon="5.83362">
        <ele>260</ele>
        <time>2021-09-12T07:24:03.800Z</time>
      </trkpt>
      <trkpt lat="45.95773" lon="5.8336">
        <ele>260</ele>
        <time>2021-09-12T07:24:04.800Z</time>
      </trkpt>
      <trkpt lat="45.95776" lon="5.83358">
        <ele>261</ele>
        <time>2021-09-12T07:24:05.800Z</time>
      </trkpt>
      <trkpt lat="45.95779" lon="5.83357">
        <ele>261</ele>
        <time>2021-09-12T07:24:06.799Z</time>
      </trkpt>
      <trkpt lat="45.95781" lon="5.83355">
        <ele>262</ele>
        <time>2021-09-12T07:24:07.800Z</time>
      </trkpt>
      <trkpt lat="45.95785" lon="5.83353">
        <ele>263</ele>
        <time>2021-09-12T07:24:08.800Z</time>
      </trkpt>
      <trkpt lat="45.95787" lon="5.8335">
        <ele>263</ele>
        <time>2021-09-12T07:24:09.800Z</time>
      </trkpt>
      <trkpt lat="45.9579" lon="5.83348">
        <ele>263</ele>
        <time>2021-09-12T07:24:10.800Z</time>
      </trkpt>
      <trkpt lat="45.95792" lon="5.83346">
        <ele>263</ele>
        <time>2021-09-12T07:24:11.799Z</time>
      </trkpt>
      <trkpt lat="45.95794" lon="5.83343">
        <ele>264</ele>
        <time>2021-09-12T07:24:12.800Z</time>
      </trkpt>
      <trkpt lat="45.95798" lon="5.8334">
        <ele>264</ele>
        <time>2021-09-12T07:24:13.800Z</time>
      </trkpt>
      <trkpt lat="45.958" lon="5.83338">
        <ele>265</ele>
        <time>2021-09-12T07:24:14.799Z</time>
      </trkpt>
      <trkpt lat="45.95803" lon="5.83336">
        <ele>264</ele>
        <time>2021-09-12T07:24:15.800Z</time>
      </trkpt>
      <trkpt lat="45.95806" lon="5.83335">
        <ele>264</ele>
        <time>2021-09-12T07:24:16.800Z</time>
      </trkpt>
      <trkpt lat="45.9581" lon="5.83333">
        <ele>264</ele>
        <time>2021-09-12T07:24:17.800Z</time>
      </trkpt>
      <trkpt lat="45.95813" lon="5.83331">
        <ele>263</ele>
        <time>2021-09-12T07:24:18.800Z</time>
      </trkpt>
      <trkpt lat="45.95817" lon="5.83331">
        <ele>263</ele>
        <time>2021-09-12T07:24:19.799Z</time>
      </trkpt>
      <trkpt lat="45.9582" lon="5.8333">
        <ele>263</ele>
        <time>2021-09-12T07:24:20.800Z</time>
      </trkpt>
      <trkpt lat="45.95823" lon="5.83331">
        <ele>263</ele>
        <time>2021-09-12T07:24:21.800Z</time>
      </trkpt>
      <trkpt lat="45.95827" lon="5.83332">
        <ele>263</ele>
        <time>2021-09-12T07:24:22.800Z</time>
      </trkpt>
      <trkpt lat="45.9583" lon="5.83334">
        <ele>263</ele>
        <time>2021-09-12T07:24:23.800Z</time>
      </trkpt>
      <trkpt lat="45.95833" lon="5.83337">
        <ele>262</ele>
        <time>2021-09-12T07:24:24.799Z</time>
      </trkpt>
      <trkpt lat="45.95835" lon="5.83337">
        <ele>263</ele>
        <time>2021-09-12T07:24:25.800Z</time>
      </trkpt>
      <trkpt lat="45.95838" lon="5.83339">
        <ele>263</ele>
        <time>2021-09-12T07:24:26.800Z</time>
      </trkpt>
      <trkpt lat="45.95841" lon="5.8334">
        <ele>263</ele>
        <time>2021-09-12T07:24:27.800Z</time>
      </trkpt>
      <trkpt lat="45.95843" lon="5.83341">
        <ele>263</ele>
        <time>2021-09-12T07:24:28.800Z</time>
      </trkpt>
      <trkpt lat="45.95844" lon="5.83342">
        <ele>262</ele>
        <time>2021-09-12T07:24:29.800Z</time>
      </trkpt>
      <trkpt lat="45.95845" lon="5.83342">
        <ele>262</ele>
        <time>2021-09-12T07:24:30.800Z</time>
      </trkpt>
      <trkpt lat="45.95846" lon="5.83343">
        <ele>262</ele>
        <time>2021-09-12T07:24:31.799Z</time>
      </trkpt>
      <trkpt lat="45.95846" lon="5.83343">
        <ele>261</ele>
        <time>2021-09-12T07:24:32.800Z</time>
      </trkpt>
      <trkpt lat="45.95846" lon="5.83343">
        <ele>260</ele>
        <time>2021-09-12T07:24:33.800Z</time>
      </trkpt>
      <trkpt lat="45.95847" lon="5.83343">
        <ele>260</ele>
        <time>2021-09-12T07:24:34.800Z</time>
      </trkpt>
      <trkpt lat="45.95848" lon="5.83343">
        <ele>260</ele>
        <time>2021-09-12T07:24:35.799Z</time>
      </trkpt>
      <trkpt lat="45.95849" lon="5.83342">
        <ele>259</ele>
        <time>2021-09-12T07:24:36.799Z</time>
      </trkpt>
      <trkpt lat="45.9585" lon="5.83341">
        <ele>259</ele>
        <time>2021-09-12T07:24:37.799Z</time>
      </trkpt>
      <trkpt lat="45.95851" lon="5.83339">
        <ele>259</ele>
        <time>2021-09-12T07:24:38.800Z</time>
      </trkpt>
      <trkpt lat="45.95852" lon="5.83338">
        <ele>259</ele>
        <time>2021-09-12T07:24:39.800Z</time>
      </trkpt>
      <trkpt lat="45.95852" lon="5.83336">
        <ele>259</ele>
        <time>2021-09-12T07:24:40.800Z</time>
      </trkpt>
      <trkpt lat="45.95853" lon="5.83333">
        <ele>259</ele>
        <time>2021-09-12T07:24:41.799Z</time>
      </trkpt>
      <trkpt lat="45.95853" lon="5.8333">
        <ele>260</ele>
        <time>2021-09-12T07:24:42.799Z</time>
      </trkpt>
      <trkpt lat="45.95853" lon="5.83326">
        <ele>260</ele>
        <time>2021-09-12T07:24:43.800Z</time>
      </trkpt>
      <trkpt lat="45.95854" lon="5.83323">
        <ele>260</ele>
        <time>2021-09-12T07:24:44.799Z</time>
      </trkpt>
      <trkpt lat="45.95854" lon="5.83319">
        <ele>260</ele>
        <time>2021-09-12T07:24:45.799Z</time>
      </trkpt>
      <trkpt lat="45.95855" lon="5.83314">
        <ele>260</ele>
        <time>2021-09-12T07:24:46.800Z</time>
      </trkpt>
      <trkpt lat="45.95855" lon="5.8331">
        <ele>260</ele>
        <time>2021-09-12T07:24:47.800Z</time>
      </trkpt>
      <trkpt lat="45.95855" lon="5.83305">
        <ele>261</ele>
        <time>2021-09-12T07:24:48.800Z</time>
      </trkpt>
      <trkpt lat="45.95855" lon="5.83301">
        <ele>261</ele>
        <time>2021-09-12T07:24:49.800Z</time>
      </trkpt>
      <trkpt lat="45.95856" lon="5.83297">
        <ele>262</ele>
        <time>2021-09-12T07:24:50.800Z</time>
      </trkpt>
      <trkpt lat="45.95856" lon="5.83293">
        <ele>262</ele>
        <time>2021-09-12T07:24:51.799Z</time>
      </trkpt>
      <trkpt lat="45.95856" lon="5.83289">
        <ele>263</ele>
        <time>2021-09-12T07:24:52.800Z</time>
      </trkpt>
      <trkpt lat="45.95857" lon="5.83286">
        <ele>262</ele>
        <time>2021-09-12T07:24:53.800Z</time>
      </trkpt>
      <trkpt lat="45.95857" lon="5.83281">
        <ele>262</ele>
        <time>2021-09-12T07:24:54.800Z</time>
      </trkpt>
      <trkpt lat="45.95857" lon="5.83277">
        <ele>263</ele>
        <time>2021-09-12T07:24:55.800Z</time>
      </trkpt>
      <trkpt lat="45.95858" lon="5.83272">
        <ele>263</ele>
        <time>2021-09-12T07:24:56.800Z</time>
      </trkpt>
      <trkpt lat="45.95858" lon="5.83267">
        <ele>263</ele>
        <time>2021-09-12T07:24:57.800Z</time>
      </trkpt>
      <trkpt lat="45.95859" lon="5.83263">
        <ele>263</ele>
        <time>2021-09-12T07:24:58.799Z</time>
      </trkpt>
      <trkpt lat="45.95859" lon="5.83259">
        <ele>263</ele>
        <time>2021-09-12T07:24:59.800Z</time>
      </trkpt>
      <trkpt lat="45.95859" lon="5.83254">
        <ele>263</ele>
        <time>2021-09-12T07:25:00.800Z</time>
      </trkpt>
      <trkpt lat="45.9586" lon="5.83249">
        <ele>263</ele>
        <time>2021-09-12T07:25:01.800Z</time>
      </trkpt>
      <trkpt lat="45.95861" lon="5.83244">
        <ele>263</ele>
        <time>2021-09-12T07:25:02.800Z</time>
      </trkpt>
      <trkpt lat="45.95861" lon="5.83239">
        <ele>263</ele>
        <time>2021-09-12T07:25:03.799Z</time>
      </trkpt>
      <trkpt lat="45.95862" lon="5.83235">
        <ele>263</ele>
        <time>2021-09-12T07:25:04.799Z</time>
      </trkpt>
      <trkpt lat="45.95862" lon="5.8323">
        <ele>263</ele>
        <time>2021-09-12T07:25:05.800Z</time>
      </trkpt>
      <trkpt lat="45.95862" lon="5.83226">
        <ele>263</ele>
        <time>2021-09-12T07:25:06.800Z</time>
      </trkpt>
      <trkpt lat="45.95862" lon="5.83223">
        <ele>264</ele>
        <time>2021-09-12T07:25:07.799Z</time>
      </trkpt>
      <trkpt lat="45.9586" lon="5.83219">
        <ele>264</ele>
        <time>2021-09-12T07:25:08.799Z</time>
      </trkpt>
      <trkpt lat="45.95859" lon="5.83216">
        <ele>264</ele>
        <time>2021-09-12T07:25:09.800Z</time>
      </trkpt>
      <trkpt lat="45.95858" lon="5.83213">
        <ele>264</ele>
        <time>2021-09-12T07:25:10.800Z</time>
      </trkpt>
      <trkpt lat="45.95857" lon="5.8321">
        <ele>264</ele>
        <time>2021-09-12T07:25:11.800Z</time>
      </trkpt>
      <trkpt lat="45.95857" lon="5.83209">
        <ele>264</ele>
        <time>2021-09-12T07:25:12.800Z</time>
      </trkpt>
      <trkpt lat="45.95857" lon="5.83209">
        <ele>264</ele>
        <time>2021-09-12T07:25:13.800Z</time>
      </trkpt>
      <trkpt lat="45.95858" lon="5.83209">
        <ele>265</ele>
        <time>2021-09-12T07:25:14.800Z</time>
      </trkpt>
      <trkpt lat="45.95859" lon="5.83209">
        <ele>265</ele>
        <time>2021-09-12T07:25:15.800Z</time>
      </trkpt>
      <trkpt lat="45.9586" lon="5.83208">
        <ele>266</ele>
        <time>2021-09-12T07:25:16.799Z</time>
      </trkpt>
      <trkpt lat="45.95861" lon="5.83209">
        <ele>267</ele>
        <time>2021-09-12T07:25:17.800Z</time>
      </trkpt>
      <trkpt lat="45.95872" lon="5.83214">
        <ele>270</ele>
        <time>2021-09-12T07:25:18.801Z</time>
      </trkpt>
      <trkpt lat="45.95872" lon="5.83214">
        <ele>270</ele>
        <time>2021-09-12T07:25:19.801Z</time>
      </trkpt>
      <trkpt lat="45.95872" lon="5.83214">
        <ele>269</ele>
        <time>2021-09-12T07:25:20.801Z</time>
      </trkpt>
      <trkpt lat="45.95873" lon="5.83214">
        <ele>269</ele>
        <time>2021-09-12T07:25:21.801Z</time>
      </trkpt>
      <trkpt lat="45.95872" lon="5.83214">
        <ele>269</ele>
        <time>2021-09-12T07:25:22.801Z</time>
      </trkpt>
      <trkpt lat="45.95872" lon="5.83214">
        <ele>269</ele>
        <time>2021-09-12T07:25:23.801Z</time>
      </trkpt>
      <trkpt lat="45.95871" lon="5.83216">
        <ele>271</ele>
        <time>2021-09-12T07:25:24.801Z</time>
      </trkpt>
      <trkpt lat="45.9587" lon="5.83218">
        <ele>271</ele>
        <time>2021-09-12T07:25:25.801Z</time>
      </trkpt>
      <trkpt lat="45.95869" lon="5.83219">
        <ele>271</ele>
        <time>2021-09-12T07:25:26.801Z</time>
      </trkpt>
      <trkpt lat="45.95866" lon="5.8322">
        <ele>270</ele>
        <time>2021-09-12T07:25:27.801Z</time>
      </trkpt>
      <trkpt lat="45.95864" lon="5.83222">
        <ele>269</ele>
        <time>2021-09-12T07:25:28.800Z</time>
      </trkpt>
      <trkpt lat="45.95864" lon="5.83223">
        <ele>268</ele>
        <time>2021-09-12T07:25:29.801Z</time>
      </trkpt>
      <trkpt lat="45.95864" lon="5.83224">
        <ele>267</ele>
        <time>2021-09-12T07:25:30.800Z</time>
      </trkpt>
      <trkpt lat="45.95863" lon="5.83225">
        <ele>266</ele>
        <time>2021-09-12T07:25:31.800Z</time>
      </trkpt>
      <trkpt lat="45.95864" lon="5.83225">
        <ele>265</ele>
        <time>2021-09-12T07:25:32.801Z</time>
      </trkpt>
      <trkpt lat="45.95863" lon="5.83225">
        <ele>265</ele>
        <time>2021-09-12T07:25:33.801Z</time>
      </trkpt>
      <trkpt lat="45.95862" lon="5.83232">
        <ele>260</ele>
        <time>2021-09-12T07:25:34.801Z</time>
      </trkpt>
      <trkpt lat="45.95862" lon="5.83235">
        <ele>260</ele>
        <time>2021-09-12T07:25:35.801Z</time>
      </trkpt>
      <trkpt lat="45.95862" lon="5.83239">
        <ele>260</ele>
        <time>2021-09-12T07:25:36.802Z</time>
      </trkpt>
      <trkpt lat="45.95861" lon="5.83243">
        <ele>260</ele>
        <time>2021-09-12T07:25:37.801Z</time>
      </trkpt>
      <trkpt lat="45.95861" lon="5.83246">
        <ele>260</ele>
        <time>2021-09-12T07:25:38.801Z</time>
      </trkpt>
      <trkpt lat="45.9586" lon="5.8325">
        <ele>259</ele>
        <time>2021-09-12T07:25:39.802Z</time>
      </trkpt>
      <trkpt lat="45.9586" lon="5.83254">
        <ele>259</ele>
        <time>2021-09-12T07:25:40.801Z</time>
      </trkpt>
      <trkpt lat="45.9586" lon="5.83258">
        <ele>259</ele>
        <time>2021-09-12T07:25:41.801Z</time>
      </trkpt>
      <trkpt lat="45.9586" lon="5.83261">
        <ele>259</ele>
        <time>2021-09-12T07:25:42.801Z</time>
      </trkpt>
      <trkpt lat="45.95859" lon="5.83265">
        <ele>260</ele>
        <time>2021-09-12T07:25:43.802Z</time>
      </trkpt>
      <trkpt lat="45.95858" lon="5.8327">
        <ele>260</ele>
        <time>2021-09-12T07:25:44.801Z</time>
      </trkpt>
      <trkpt lat="45.95857" lon="5.83275">
        <ele>260</ele>
        <time>2021-09-12T07:25:45.801Z</time>
      </trkpt>
      <trkpt lat="45.95857" lon="5.8328">
        <ele>261</ele>
        <time>2021-09-12T07:25:46.801Z</time>
      </trkpt>
      <trkpt lat="45.95856" lon="5.83285">
        <ele>261</ele>
        <time>2021-09-12T07:25:47.802Z</time>
      </trkpt>
      <trkpt lat="45.95855" lon="5.83289">
        <ele>261</ele>
        <time>2021-09-12T07:25:48.801Z</time>
      </trkpt>
      <trkpt lat="45.95855" lon="5.83293">
        <ele>262</ele>
        <time>2021-09-12T07:25:49.801Z</time>
      </trkpt>
      <trkpt lat="45.95854" lon="5.83297">
        <ele>262</ele>
        <time>2021-09-12T07:25:50.802Z</time>
      </trkpt>
      <trkpt lat="45.95854" lon="5.83302">
        <ele>263</ele>
        <time>2021-09-12T07:25:51.801Z</time>
      </trkpt>
      <trkpt lat="45.95853" lon="5.83308">
        <ele>263</ele>
        <time>2021-09-12T07:25:52.801Z</time>
      </trkpt>
      <trkpt lat="45.95853" lon="5.83312">
        <ele>263</ele>
        <time>2021-09-12T07:25:53.801Z</time>
      </trkpt>
      <trkpt lat="45.95852" lon="5.83317">
        <ele>262</ele>
        <time>2021-09-12T07:25:54.802Z</time>
      </trkpt>
      <trkpt lat="45.95851" lon="5.83322">
        <ele>261</ele>
        <time>2021-09-12T07:25:55.802Z</time>
      </trkpt>
      <trkpt lat="45.9585" lon="5.83326">
        <ele>261</ele>
        <time>2021-09-12T07:25:56.802Z</time>
      </trkpt>
      <trkpt lat="45.95849" lon="5.83332">
        <ele>260</ele>
        <time>2021-09-12T07:25:57.801Z</time>
      </trkpt>
      <trkpt lat="45.95848" lon="5.83335">
        <ele>260</ele>
        <time>2021-09-12T07:25:58.801Z</time>
      </trkpt>
      <trkpt lat="45.95848" lon="5.83338">
        <ele>259</ele>
        <time>2021-09-12T07:25:59.801Z</time>
      </trkpt>
      <trkpt lat="45.95848" lon="5.83342">
        <ele>259</ele>
        <time>2021-09-12T07:26:00.802Z</time>
      </trkpt>
      <trkpt lat="45.95848" lon="5.83345">
        <ele>259</ele>
        <time>2021-09-12T07:26:01.801Z</time>
      </trkpt>
      <trkpt lat="45.95848" lon="5.83348">
        <ele>259</ele>
        <time>2021-09-12T07:26:02.802Z</time>
      </trkpt>
      <trkpt lat="45.95848" lon="5.8335">
        <ele>259</ele>
        <time>2021-09-12T07:26:03.801Z</time>
      </trkpt>
      <trkpt lat="45.95848" lon="5.83353">
        <ele>260</ele>
        <time>2021-09-12T07:26:04.801Z</time>
      </trkpt>
      <trkpt lat="45.95848" lon="5.83355">
        <ele>260</ele>
        <time>2021-09-12T07:26:05.801Z</time>
      </trkpt>
      <trkpt lat="45.95848" lon="5.83358">
        <ele>260</ele>
        <time>2021-09-12T07:26:06.801Z</time>
      </trkpt>
      <trkpt lat="45.95849" lon="5.83361">
        <ele>260</ele>
        <time>2021-09-12T07:26:07.801Z</time>
      </trkpt>
      <trkpt lat="45.95849" lon="5.83364">
        <ele>260</ele>
        <time>2021-09-12T07:26:08.801Z</time>
      </trkpt>
      <trkpt lat="45.9585" lon="5.83368">
        <ele>260</ele>
        <time>2021-09-12T07:26:09.801Z</time>
      </trkpt>
      <trkpt lat="45.95851" lon="5.83371">
        <ele>261</ele>
        <time>2021-09-12T07:26:10.801Z</time>
      </trkpt>
      <trkpt lat="45.95852" lon="5.83374">
        <ele>261</ele>
        <time>2021-09-12T07:26:11.802Z</time>
      </trkpt>
      <trkpt lat="45.95852" lon="5.83378">
        <ele>262</ele>
        <time>2021-09-12T07:26:12.801Z</time>
      </trkpt>
      <trkpt lat="45.95851" lon="5.83381">
        <ele>262</ele>
        <time>2021-09-12T07:26:13.801Z</time>
      </trkpt>
      <trkpt lat="45.95851" lon="5.83384">
        <ele>263</ele>
        <time>2021-09-12T07:26:14.801Z</time>
      </trkpt>
      <trkpt lat="45.9585" lon="5.83388">
        <ele>264</ele>
        <time>2021-09-12T07:26:15.801Z</time>
      </trkpt>
      <trkpt lat="45.9585" lon="5.83391">
        <ele>265</ele>
        <time>2021-09-12T07:26:16.801Z</time>
      </trkpt>
      <trkpt lat="45.9585" lon="5.83394">
        <ele>266</ele>
        <time>2021-09-12T07:26:17.801Z</time>
      </trkpt>
      <trkpt lat="45.9585" lon="5.83396">
        <ele>267</ele>
        <time>2021-09-12T07:26:18.801Z</time>
      </trkpt>
      <trkpt lat="45.9585" lon="5.834">
        <ele>268</ele>
        <time>2021-09-12T07:26:19.802Z</time>
      </trkpt>
      <trkpt lat="45.9585" lon="5.83404">
        <ele>268</ele>
        <time>2021-09-12T07:26:20.802Z</time>
      </trkpt>
      <trkpt lat="45.95849" lon="5.83408">
        <ele>269</ele>
        <time>2021-09-12T07:26:21.801Z</time>
      </trkpt>
      <trkpt lat="45.95849" lon="5.8341">
        <ele>269</ele>
        <time>2021-09-12T07:26:22.801Z</time>
      </trkpt>
      <trkpt lat="45.95849" lon="5.83412">
        <ele>269</ele>
        <time>2021-09-12T07:26:23.801Z</time>
      </trkpt>
      <trkpt lat="45.9585" lon="5.83415">
        <ele>269</ele>
        <time>2021-09-12T07:26:24.802Z</time>
      </trkpt>
      <trkpt lat="45.9585" lon="5.83417">
        <ele>269</ele>
        <time>2021-09-12T07:26:25.801Z</time>
      </trkpt>
      <trkpt lat="45.95851" lon="5.83419">
        <ele>269</ele>
        <time>2021-09-12T07:26:26.801Z</time>
      </trkpt>
      <trkpt lat="45.95852" lon="5.8342">
        <ele>268</ele>
        <time>2021-09-12T07:26:27.801Z</time>
      </trkpt>
      <trkpt lat="45.95853" lon="5.83423">
        <ele>268</ele>
        <time>2021-09-12T07:26:28.801Z</time>
      </trkpt>
      <trkpt lat="45.95853" lon="5.83424">
        <ele>268</ele>
        <time>2021-09-12T07:26:29.802Z</time>
      </trkpt>
      <trkpt lat="45.95854" lon="5.83426">
        <ele>268</ele>
        <time>2021-09-12T07:26:30.801Z</time>
      </trkpt>
      <trkpt lat="45.95856" lon="5.83427">
        <ele>268</ele>
        <time>2021-09-12T07:26:31.801Z</time>
      </trkpt>
      <trkpt lat="45.95857" lon="5.83429">
        <ele>268</ele>
        <time>2021-09-12T07:26:32.802Z</time>
      </trkpt>
      <trkpt lat="45.95858" lon="5.83431">
        <ele>268</ele>
        <time>2021-09-12T07:26:33.802Z</time>
      </trkpt>
      <trkpt lat="45.95859" lon="5.83433">
        <ele>268</ele>
        <time>2021-09-12T07:26:34.801Z</time>
      </trkpt>
      <trkpt lat="45.9586" lon="5.83435">
        <ele>268</ele>
        <time>2021-09-12T07:26:35.802Z</time>
      </trkpt>
      <trkpt lat="45.95861" lon="5.83437">
        <ele>268</ele>
        <time>2021-09-12T07:26:36.801Z</time>
      </trkpt>
      <trkpt lat="45.95862" lon="5.83438">
        <ele>269</ele>
        <time>2021-09-12T07:26:37.801Z</time>
      </trkpt>
      <trkpt lat="45.95863" lon="5.8344">
        <ele>269</ele>
        <time>2021-09-12T07:26:38.801Z</time>
      </trkpt>
      <trkpt lat="45.95863" lon="5.83442">
        <ele>269</ele>
        <time>2021-09-12T07:26:39.802Z</time>
      </trkpt>
      <trkpt lat="45.95864" lon="5.83445">
        <ele>269</ele>
        <time>2021-09-12T07:26:40.801Z</time>
      </trkpt>
      <trkpt lat="45.95865" lon="5.83447">
        <ele>270</ele>
        <time>2021-09-12T07:26:41.802Z</time>
      </trkpt>
      <trkpt lat="45.95866" lon="5.8345">
        <ele>270</ele>
        <time>2021-09-12T07:26:42.801Z</time>
      </trkpt>
      <trkpt lat="45.95867" lon="5.83453">
        <ele>270</ele>
        <time>2021-09-12T07:26:43.802Z</time>
      </trkpt>
      <trkpt lat="45.95868" lon="5.83455">
        <ele>270</ele>
        <time>2021-09-12T07:26:44.801Z</time>
      </trkpt>
      <trkpt lat="45.95869" lon="5.83459">
        <ele>270</ele>
        <time>2021-09-12T07:26:45.802Z</time>
      </trkpt>
      <trkpt lat="45.9587" lon="5.83462">
        <ele>270</ele>
        <time>2021-09-12T07:26:46.801Z</time>
      </trkpt>
      <trkpt lat="45.95871" lon="5.83465">
        <ele>270</ele>
        <time>2021-09-12T07:26:47.801Z</time>
      </trkpt>
      <trkpt lat="45.95872" lon="5.83468">
        <ele>270</ele>
        <time>2021-09-12T07:26:48.801Z</time>
      </trkpt>
      <trkpt lat="45.95873" lon="5.8347">
        <ele>270</ele>
        <time>2021-09-12T07:26:49.802Z</time>
      </trkpt>
      <trkpt lat="45.95873" lon="5.83473">
        <ele>270</ele>
        <time>2021-09-12T07:26:50.801Z</time>
      </trkpt>
      <trkpt lat="45.95874" lon="5.83476">
        <ele>270</ele>
        <time>2021-09-12T07:26:51.802Z</time>
      </trkpt>
      <trkpt lat="45.95875" lon="5.83478">
        <ele>270</ele>
        <time>2021-09-12T07:26:52.801Z</time>
      </trkpt>
      <trkpt lat="45.95877" lon="5.83481">
        <ele>270</ele>
        <time>2021-09-12T07:26:53.801Z</time>
      </trkpt>
      <trkpt lat="45.95879" lon="5.83484">
        <ele>270</ele>
        <time>2021-09-12T07:26:54.802Z</time>
      </trkpt>
      <trkpt lat="45.95879" lon="5.83486">
        <ele>270</ele>
        <time>2021-09-12T07:26:55.801Z</time>
      </trkpt>
      <trkpt lat="45.9588" lon="5.83488">
        <ele>271</ele>
        <time>2021-09-12T07:26:56.802Z</time>
      </trkpt>
      <trkpt lat="45.95881" lon="5.8349">
        <ele>271</ele>
        <time>2021-09-12T07:26:57.801Z</time>
      </trkpt>
      <trkpt lat="45.95883" lon="5.83491">
        <ele>271</ele>
        <time>2021-09-12T07:26:58.802Z</time>
      </trkpt>
      <trkpt lat="45.95884" lon="5.83493">
        <ele>272</ele>
        <time>2021-09-12T07:26:59.801Z</time>
      </trkpt>
      <trkpt lat="45.95885" lon="5.83495">
        <ele>272</ele>
        <time>2021-09-12T07:27:00.801Z</time>
      </trkpt>
      <trkpt lat="45.95887" lon="5.83496">
        <ele>272</ele>
        <time>2021-09-12T07:27:01.801Z</time>
      </trkpt>
      <trkpt lat="45.95888" lon="5.83497">
        <ele>272</ele>
        <time>2021-09-12T07:27:02.801Z</time>
      </trkpt>
      <trkpt lat="45.95889" lon="5.83497">
        <ele>272</ele>
        <time>2021-09-12T07:27:03.802Z</time>
      </trkpt>
      <trkpt lat="45.95891" lon="5.83498">
        <ele>272</ele>
        <time>2021-09-12T07:27:04.801Z</time>
      </trkpt>
      <trkpt lat="45.95892" lon="5.83499">
        <ele>272</ele>
        <time>2021-09-12T07:27:05.801Z</time>
      </trkpt>
      <trkpt lat="45.95893" lon="5.835">
        <ele>273</ele>
        <time>2021-09-12T07:27:06.801Z</time>
      </trkpt>
      <trkpt lat="45.95894" lon="5.83502">
        <ele>272</ele>
        <time>2021-09-12T07:27:07.801Z</time>
      </trkpt>
      <trkpt lat="45.95899" lon="5.83504">
        <ele>272</ele>
        <time>2021-09-12T07:27:08.802Z</time>
      </trkpt>
      <trkpt lat="45.95902" lon="5.83507">
        <ele>272</ele>
        <time>2021-09-12T07:27:09.801Z</time>
      </trkpt>
      <trkpt lat="45.95904" lon="5.8351">
        <ele>272</ele>
        <time>2021-09-12T07:27:10.801Z</time>
      </trkpt>
      <trkpt lat="45.95906" lon="5.83513">
        <ele>272</ele>
        <time>2021-09-12T07:27:11.801Z</time>
      </trkpt>
      <trkpt lat="45.95907" lon="5.83515">
        <ele>272</ele>
        <time>2021-09-12T07:27:12.801Z</time>
      </trkpt>
      <trkpt lat="45.95908" lon="5.83517">
        <ele>271</ele>
        <time>2021-09-12T07:27:13.802Z</time>
      </trkpt>
      <trkpt lat="45.95909" lon="5.83519">
        <ele>271</ele>
        <time>2021-09-12T07:27:14.801Z</time>
      </trkpt>
      <trkpt lat="45.95909" lon="5.8352">
        <ele>270</ele>
        <time>2021-09-12T07:27:15.801Z</time>
      </trkpt>
      <trkpt lat="45.9591" lon="5.83522">
        <ele>269</ele>
        <time>2021-09-12T07:27:16.801Z</time>
      </trkpt>
      <trkpt lat="45.95911" lon="5.83524">
        <ele>268</ele>
        <time>2021-09-12T07:27:17.802Z</time>
      </trkpt>
      <trkpt lat="45.95913" lon="5.83526">
        <ele>268</ele>
        <time>2021-09-12T07:27:18.801Z</time>
      </trkpt>
      <trkpt lat="45.95914" lon="5.83528">
        <ele>267</ele>
        <time>2021-09-12T07:27:19.802Z</time>
      </trkpt>
      <trkpt lat="45.95915" lon="5.8353">
        <ele>267</ele>
        <time>2021-09-12T07:27:20.801Z</time>
      </trkpt>
      <trkpt lat="45.95917" lon="5.83531">
        <ele>267</ele>
        <time>2021-09-12T07:27:21.801Z</time>
      </trkpt>
      <trkpt lat="45.95918" lon="5.83532">
        <ele>268</ele>
        <time>2021-09-12T07:27:22.801Z</time>
      </trkpt>
      <trkpt lat="45.9592" lon="5.83533">
        <ele>268</ele>
        <time>2021-09-12T07:27:23.802Z</time>
      </trkpt>
      <trkpt lat="45.95921" lon="5.83533">
        <ele>268</ele>
        <time>2021-09-12T07:27:24.801Z</time>
      </trkpt>
      <trkpt lat="45.95922" lon="5.83534">
        <ele>268</ele>
        <time>2021-09-12T07:27:25.801Z</time>
      </trkpt>
      <trkpt lat="45.95922" lon="5.83536">
        <ele>268</ele>
        <time>2021-09-12T07:27:26.802Z</time>
      </trkpt>
      <trkpt lat="45.95924" lon="5.83536">
        <ele>268</ele>
        <time>2021-09-12T07:27:27.801Z</time>
      </trkpt>
      <trkpt lat="45.95924" lon="5.83536">
        <ele>268</ele>
        <time>2021-09-12T07:27:28.801Z</time>
      </trkpt>
      <trkpt lat="45.95925" lon="5.83536">
        <ele>268</ele>
        <time>2021-09-12T07:27:29.802Z</time>
      </trkpt>
      <trkpt lat="45.95925" lon="5.83536">
        <ele>268</ele>
        <time>2021-09-12T07:27:30.801Z</time>
      </trkpt>
      <trkpt lat="45.95925" lon="5.83537">
        <ele>268</ele>
        <time>2021-09-12T07:27:31.801Z</time>
      </trkpt>
      <trkpt lat="45.95921" lon="5.83542">
        <ele>269</ele>
        <time>2021-09-12T07:27:32.801Z</time>
      </trkpt>
      <trkpt lat="45.9592" lon="5.83542">
        <ele>274</ele>
        <time>2021-09-12T07:27:33.801Z</time>
      </trkpt>
      <trkpt lat="45.9592" lon="5.83543">
        <ele>275</ele>
        <time>2021-09-12T07:27:34.801Z</time>
      </trkpt>
      <trkpt lat="45.95916" lon="5.83552">
        <ele>275</ele>
        <time>2021-09-12T07:27:35.802Z</time>
      </trkpt>
      <trkpt lat="45.95916" lon="5.83552">
        <ele>275</ele>
        <time>2021-09-12T07:27:36.803Z</time>
      </trkpt>
      <trkpt lat="45.95916" lon="5.83551">
        <ele>275</ele>
        <time>2021-09-12T07:27:37.802Z</time>
      </trkpt>
      <trkpt lat="45.95916" lon="5.8355">
        <ele>275</ele>
        <time>2021-09-12T07:27:38.803Z</time>
      </trkpt>
      <trkpt lat="45.95923" lon="5.83546">
        <ele>276</ele>
        <time>2021-09-12T07:27:39.802Z</time>
      </trkpt>
      <trkpt lat="45.95923" lon="5.83546">
        <ele>276</ele>
        <time>2021-09-12T07:27:40.802Z</time>
      </trkpt>
      <trkpt lat="45.95923" lon="5.83546">
        <ele>276</ele>
        <time>2021-09-12T07:27:41.802Z</time>
      </trkpt>
      <trkpt lat="45.95923" lon="5.83546">
        <ele>276</ele>
        <time>2021-09-12T07:27:42.803Z</time>
      </trkpt>
      <trkpt lat="45.95923" lon="5.83546">
        <ele>276</ele>
        <time>2021-09-12T07:27:43.803Z</time>
      </trkpt>
      <trkpt lat="45.95923" lon="5.83546">
        <ele>276</ele>
        <time>2021-09-12T07:27:44.802Z</time>
      </trkpt>
      <trkpt lat="45.95923" lon="5.83546">
        <ele>276</ele>
        <time>2021-09-12T07:27:45.803Z</time>
      </trkpt>
      <trkpt lat="45.95923" lon="5.83546">
        <ele>277</ele>
        <time>2021-09-12T07:27:46.803Z</time>
      </trkpt>
      <trkpt lat="45.95924" lon="5.83546">
        <ele>277</ele>
        <time>2021-09-12T07:27:47.803Z</time>
      </trkpt>
      <trkpt lat="45.95924" lon="5.83547">
        <ele>277</ele>
        <time>2021-09-12T07:27:48.803Z</time>
      </trkpt>
      <trkpt lat="45.95924" lon="5.83547">
        <ele>277</ele>
        <time>2021-09-12T07:27:49.803Z</time>
      </trkpt>
      <trkpt lat="45.95924" lon="5.83547">
        <ele>277</ele>
        <time>2021-09-12T07:27:50.803Z</time>
      </trkpt>
      <trkpt lat="45.95924" lon="5.83547">
        <ele>277</ele>
        <time>2021-09-12T07:27:51.803Z</time>
      </trkpt>
      <trkpt lat="45.95925" lon="5.83547">
        <ele>277</ele>
        <time>2021-09-12T07:27:52.803Z</time>
      </trkpt>
      <trkpt lat="45.95926" lon="5.83547">
        <ele>277</ele>
        <time>2021-09-12T07:27:53.803Z</time>
      </trkpt>
      <trkpt lat="45.95926" lon="5.83547">
        <ele>277</ele>
        <time>2021-09-12T07:27:54.803Z</time>
      </trkpt>
      <trkpt lat="45.95926" lon="5.83547">
        <ele>277</ele>
        <time>2021-09-12T07:27:55.803Z</time>
      </trkpt>
      <trkpt lat="45.95924" lon="5.83545">
        <ele>277</ele>
        <time>2021-09-12T07:27:56.803Z</time>
      </trkpt>
      <trkpt lat="45.95922" lon="5.83543">
        <ele>277</ele>
        <time>2021-09-12T07:27:57.802Z</time>
      </trkpt>
      <trkpt lat="45.95921" lon="5.83539">
        <ele>276</ele>
        <time>2021-09-12T07:27:58.803Z</time>
      </trkpt>
      <trkpt lat="45.95919" lon="5.83536">
        <ele>276</ele>
        <time>2021-09-12T07:27:59.803Z</time>
      </trkpt>
      <trkpt lat="45.95916" lon="5.83531">
        <ele>276</ele>
        <time>2021-09-12T07:28:00.803Z</time>
      </trkpt>
      <trkpt lat="45.95914" lon="5.83527">
        <ele>275</ele>
        <time>2021-09-12T07:28:01.803Z</time>
      </trkpt>
      <trkpt lat="45.95912" lon="5.83526">
        <ele>274</ele>
        <time>2021-09-12T07:28:02.802Z</time>
      </trkpt>
      <trkpt lat="45.95909" lon="5.83526">
        <ele>274</ele>
        <time>2021-09-12T07:28:03.802Z</time>
      </trkpt>
      <trkpt lat="45.95906" lon="5.83527">
        <ele>273</ele>
        <time>2021-09-12T07:28:04.802Z</time>
      </trkpt>
      <trkpt lat="45.95904" lon="5.83529">
        <ele>273</ele>
        <time>2021-09-12T07:28:05.803Z</time>
      </trkpt>
      <trkpt lat="45.95902" lon="5.8353">
        <ele>272</ele>
        <time>2021-09-12T07:28:06.803Z</time>
      </trkpt>
      <trkpt lat="45.95901" lon="5.8353">
        <ele>272</ele>
        <time>2021-09-12T07:28:07.802Z</time>
      </trkpt>
      <trkpt lat="45.95899" lon="5.8353">
        <ele>272</ele>
        <time>2021-09-12T07:28:08.803Z</time>
      </trkpt>
      <trkpt lat="45.95898" lon="5.8353">
        <ele>272</ele>
        <time>2021-09-12T07:28:09.802Z</time>
      </trkpt>
      <trkpt lat="45.95897" lon="5.83529">
        <ele>271</ele>
        <time>2021-09-12T07:28:10.803Z</time>
      </trkpt>
      <trkpt lat="45.95897" lon="5.8353">
        <ele>271</ele>
        <time>2021-09-12T07:28:11.803Z</time>
      </trkpt>
      <trkpt lat="45.95896" lon="5.83534">
        <ele>271</ele>
        <time>2021-09-12T07:28:12.802Z</time>
      </trkpt>
      <trkpt lat="45.95895" lon="5.83538">
        <ele>271</ele>
        <time>2021-09-12T07:28:13.803Z</time>
      </trkpt>
      <trkpt lat="45.95894" lon="5.83541">
        <ele>271</ele>
        <time>2021-09-12T07:28:14.802Z</time>
      </trkpt>
      <trkpt lat="45.95892" lon="5.83544">
        <ele>272</ele>
        <time>2021-09-12T07:28:15.803Z</time>
      </trkpt>
      <trkpt lat="45.9589" lon="5.83547">
        <ele>272</ele>
        <time>2021-09-12T07:28:16.803Z</time>
      </trkpt>
      <trkpt lat="45.95888" lon="5.83549">
        <ele>272</ele>
        <time>2021-09-12T07:28:17.803Z</time>
      </trkpt>
      <trkpt lat="45.95887" lon="5.83552">
        <ele>272</ele>
        <time>2021-09-12T07:28:18.803Z</time>
      </trkpt>
      <trkpt lat="45.95885" lon="5.83555">
        <ele>272</ele>
        <time>2021-09-12T07:28:19.803Z</time>
      </trkpt>
      <trkpt lat="45.95883" lon="5.83558">
        <ele>271</ele>
        <time>2021-09-12T07:28:20.802Z</time>
      </trkpt>
      <trkpt lat="45.95882" lon="5.83561">
        <ele>272</ele>
        <time>2021-09-12T07:28:21.803Z</time>
      </trkpt>
      <trkpt lat="45.9588" lon="5.83562">
        <ele>272</ele>
        <time>2021-09-12T07:28:22.803Z</time>
      </trkpt>
      <trkpt lat="45.95879" lon="5.83564">
        <ele>272</ele>
        <time>2021-09-12T07:28:23.803Z</time>
      </trkpt>
      <trkpt lat="45.95878" lon="5.83566">
        <ele>271</ele>
        <time>2021-09-12T07:28:24.803Z</time>
      </trkpt>
      <trkpt lat="45.95877" lon="5.83568">
        <ele>271</ele>
        <time>2021-09-12T07:28:25.802Z</time>
      </trkpt>
      <trkpt lat="45.95876" lon="5.83569">
        <ele>271</ele>
        <time>2021-09-12T07:28:26.803Z</time>
      </trkpt>
      <trkpt lat="45.95875" lon="5.83571">
        <ele>270</ele>
        <time>2021-09-12T07:28:27.803Z</time>
      </trkpt>
      <trkpt lat="45.95874" lon="5.83574">
        <ele>270</ele>
        <time>2021-09-12T07:28:28.803Z</time>
      </trkpt>
      <trkpt lat="45.95873" lon="5.83577">
        <ele>269</ele>
        <time>2021-09-12T07:28:29.803Z</time>
      </trkpt>
      <trkpt lat="45.95871" lon="5.83581">
        <ele>269</ele>
        <time>2021-09-12T07:28:30.803Z</time>
      </trkpt>
      <trkpt lat="45.95869" lon="5.83586">
        <ele>268</ele>
        <time>2021-09-12T07:28:31.803Z</time>
      </trkpt>
      <trkpt lat="45.95866" lon="5.83592">
        <ele>268</ele>
        <time>2021-09-12T07:28:32.803Z</time>
      </trkpt>
      <trkpt lat="45.95864" lon="5.83597">
        <ele>267</ele>
        <time>2021-09-12T07:28:33.802Z</time>
      </trkpt>
      <trkpt lat="45.95864" lon="5.83603">
        <ele>267</ele>
        <time>2021-09-12T07:28:34.802Z</time>
      </trkpt>
      <trkpt lat="45.95865" lon="5.83608">
        <ele>266</ele>
        <time>2021-09-12T07:28:35.802Z</time>
      </trkpt>
      <trkpt lat="45.95868" lon="5.83613">
        <ele>266</ele>
        <time>2021-09-12T07:28:36.802Z</time>
      </trkpt>
      <trkpt lat="45.95871" lon="5.83618">
        <ele>266</ele>
        <time>2021-09-12T07:28:37.803Z</time>
      </trkpt>
      <trkpt lat="45.95874" lon="5.83622">
        <ele>265</ele>
        <time>2021-09-12T07:28:38.803Z</time>
      </trkpt>
      <trkpt lat="45.95876" lon="5.83625">
        <ele>265</ele>
        <time>2021-09-12T07:28:39.803Z</time>
      </trkpt>
      <trkpt lat="45.95878" lon="5.83628">
        <ele>265</ele>
        <time>2021-09-12T07:28:40.803Z</time>
      </trkpt>
      <trkpt lat="45.95878" lon="5.8363">
        <ele>266</ele>
        <time>2021-09-12T07:28:41.803Z</time>
      </trkpt>
      <trkpt lat="45.95878" lon="5.83633">
        <ele>266</ele>
        <time>2021-09-12T07:28:42.802Z</time>
      </trkpt>
      <trkpt lat="45.95879" lon="5.83634">
        <ele>266</ele>
        <time>2021-09-12T07:28:43.803Z</time>
      </trkpt>
      <trkpt lat="45.95879" lon="5.83636">
        <ele>266</ele>
        <time>2021-09-12T07:28:44.803Z</time>
      </trkpt>
      <trkpt lat="45.9588" lon="5.83637">
        <ele>266</ele>
        <time>2021-09-12T07:28:45.803Z</time>
      </trkpt>
      <trkpt lat="45.9588" lon="5.83639">
        <ele>266</ele>
        <time>2021-09-12T07:28:46.803Z</time>
      </trkpt>
      <trkpt lat="45.9588" lon="5.83641">
        <ele>266</ele>
        <time>2021-09-12T07:28:47.803Z</time>
      </trkpt>
      <trkpt lat="45.95879" lon="5.83641">
        <ele>266</ele>
        <time>2021-09-12T07:28:48.803Z</time>
      </trkpt>
      <trkpt lat="45.95879" lon="5.83641">
        <ele>266</ele>
        <time>2021-09-12T07:28:49.803Z</time>
      </trkpt>
      <trkpt lat="45.95879" lon="5.83641">
        <ele>267</ele>
        <time>2021-09-12T07:28:50.802Z</time>
      </trkpt>
      <trkpt lat="45.95877" lon="5.83643">
        <ele>266</ele>
        <time>2021-09-12T07:28:51.803Z</time>
      </trkpt>
      <trkpt lat="45.95875" lon="5.83644">
        <ele>266</ele>
        <time>2021-09-12T07:28:52.804Z</time>
      </trkpt>
      <trkpt lat="45.95872" lon="5.83644">
        <ele>265</ele>
        <time>2021-09-12T07:28:53.803Z</time>
      </trkpt>
      <trkpt lat="45.95869" lon="5.83644">
        <ele>265</ele>
        <time>2021-09-12T07:28:54.804Z</time>
      </trkpt>
      <trkpt lat="45.95865" lon="5.83644">
        <ele>264</ele>
        <time>2021-09-12T07:28:55.803Z</time>
      </trkpt>
      <trkpt lat="45.9586" lon="5.83643">
        <ele>264</ele>
        <time>2021-09-12T07:28:56.803Z</time>
      </trkpt>
      <trkpt lat="45.95856" lon="5.83642">
        <ele>263</ele>
        <time>2021-09-12T07:28:57.804Z</time>
      </trkpt>
      <trkpt lat="45.95851" lon="5.83641">
        <ele>263</ele>
        <time>2021-09-12T07:28:58.804Z</time>
      </trkpt>
      <trkpt lat="45.95845" lon="5.8364">
        <ele>262</ele>
        <time>2021-09-12T07:28:59.804Z</time>
      </trkpt>
      <trkpt lat="45.95839" lon="5.83638">
        <ele>262</ele>
        <time>2021-09-12T07:29:00.804Z</time>
      </trkpt>
      <trkpt lat="45.95833" lon="5.83637">
        <ele>262</ele>
        <time>2021-09-12T07:29:01.803Z</time>
      </trkpt>
      <trkpt lat="45.95827" lon="5.83636">
        <ele>261</ele>
        <time>2021-09-12T07:29:02.804Z</time>
      </trkpt>
      <trkpt lat="45.9582" lon="5.83635">
        <ele>260</ele>
        <time>2021-09-12T07:29:03.804Z</time>
      </trkpt>
      <trkpt lat="45.95814" lon="5.83634">
        <ele>260</ele>
        <time>2021-09-12T07:29:04.804Z</time>
      </trkpt>
      <trkpt lat="45.95807" lon="5.83633">
        <ele>260</ele>
        <time>2021-09-12T07:29:05.804Z</time>
      </trkpt>
      <trkpt lat="45.95801" lon="5.83633">
        <ele>260</ele>
        <time>2021-09-12T07:29:06.804Z</time>
      </trkpt>
      <trkpt lat="45.95795" lon="5.83633">
        <ele>259</ele>
        <time>2021-09-12T07:29:07.804Z</time>
      </trkpt>
      <trkpt lat="45.95788" lon="5.83634">
        <ele>259</ele>
        <time>2021-09-12T07:29:08.804Z</time>
      </trkpt>
      <trkpt lat="45.95782" lon="5.83635">
        <ele>259</ele>
        <time>2021-09-12T07:29:09.804Z</time>
      </trkpt>
      <trkpt lat="45.95775" lon="5.83636">
        <ele>258</ele>
        <time>2021-09-12T07:29:10.804Z</time>
      </trkpt>
      <trkpt lat="45.95769" lon="5.83638">
        <ele>258</ele>
        <time>2021-09-12T07:29:11.804Z</time>
      </trkpt>
      <trkpt lat="45.95762" lon="5.83639">
        <ele>258</ele>
        <time>2021-09-12T07:29:12.803Z</time>
      </trkpt>
      <trkpt lat="45.95756" lon="5.83641">
        <ele>258</ele>
        <time>2021-09-12T07:29:13.804Z</time>
      </trkpt>
      <trkpt lat="45.95749" lon="5.83642">
        <ele>258</ele>
        <time>2021-09-12T07:29:14.804Z</time>
      </trkpt>
      <trkpt lat="45.95743" lon="5.83644">
        <ele>258</ele>
        <time>2021-09-12T07:29:15.804Z</time>
      </trkpt>
      <trkpt lat="45.95737" lon="5.83645">
        <ele>258</ele>
        <time>2021-09-12T07:29:16.804Z</time>
      </trkpt>
      <trkpt lat="45.95732" lon="5.83643">
        <ele>258</ele>
        <time>2021-09-12T07:29:17.804Z</time>
      </trkpt>
      <trkpt lat="45.95729" lon="5.8364">
        <ele>258</ele>
        <time>2021-09-12T07:29:18.804Z</time>
      </trkpt>
      <trkpt lat="45.95726" lon="5.83636">
        <ele>257</ele>
        <time>2021-09-12T07:29:19.804Z</time>
      </trkpt>
      <trkpt lat="45.95724" lon="5.83632">
        <ele>257</ele>
        <time>2021-09-12T07:29:20.804Z</time>
      </trkpt>
      <trkpt lat="45.95723" lon="5.83627">
        <ele>257</ele>
        <time>2021-09-12T07:29:21.804Z</time>
      </trkpt>
      <trkpt lat="45.95721" lon="5.83623">
        <ele>257</ele>
        <time>2021-09-12T07:29:22.804Z</time>
      </trkpt>
      <trkpt lat="45.9572" lon="5.83619">
        <ele>257</ele>
        <time>2021-09-12T07:29:23.804Z</time>
      </trkpt>
      <trkpt lat="45.95719" lon="5.83615">
        <ele>257</ele>
        <time>2021-09-12T07:29:24.804Z</time>
      </trkpt>
      <trkpt lat="45.95718" lon="5.83611">
        <ele>257</ele>
        <time>2021-09-12T07:29:25.804Z</time>
      </trkpt>
      <trkpt lat="45.95717" lon="5.83608">
        <ele>257</ele>
        <time>2021-09-12T07:29:26.804Z</time>
      </trkpt>
      <trkpt lat="45.95716" lon="5.83604">
        <ele>257</ele>
        <time>2021-09-12T07:29:27.804Z</time>
      </trkpt>
      <trkpt lat="45.95715" lon="5.83601">
        <ele>257</ele>
        <time>2021-09-12T07:29:28.804Z</time>
      </trkpt>
      <trkpt lat="45.95714" lon="5.83596">
        <ele>257</ele>
        <time>2021-09-12T07:29:29.804Z</time>
      </trkpt>
      <trkpt lat="45.95714" lon="5.83592">
        <ele>257</ele>
        <time>2021-09-12T07:29:30.804Z</time>
      </trkpt>
      <trkpt lat="45.95713" lon="5.83588">
        <ele>257</ele>
        <time>2021-09-12T07:29:31.804Z</time>
      </trkpt>
      <trkpt lat="45.95712" lon="5.83583">
        <ele>257</ele>
        <time>2021-09-12T07:29:32.804Z</time>
      </trkpt>
      <trkpt lat="45.95711" lon="5.83579">
        <ele>257</ele>
        <time>2021-09-12T07:29:33.804Z</time>
      </trkpt>
      <trkpt lat="45.9571" lon="5.83574">
        <ele>257</ele>
        <time>2021-09-12T07:29:34.804Z</time>
      </trkpt>
      <trkpt lat="45.95708" lon="5.8357">
        <ele>257</ele>
        <time>2021-09-12T07:29:35.804Z</time>
      </trkpt>
      <trkpt lat="45.95707" lon="5.83565">
        <ele>256</ele>
        <time>2021-09-12T07:29:36.803Z</time>
      </trkpt>
      <trkpt lat="45.95705" lon="5.83559">
        <ele>256</ele>
        <time>2021-09-12T07:29:37.803Z</time>
      </trkpt>
      <trkpt lat="45.95704" lon="5.83553">
        <ele>256</ele>
        <time>2021-09-12T07:29:38.804Z</time>
      </trkpt>
      <trkpt lat="45.95702" lon="5.83548">
        <ele>256</ele>
        <time>2021-09-12T07:29:39.804Z</time>
      </trkpt>
      <trkpt lat="45.957" lon="5.83542">
        <ele>256</ele>
        <time>2021-09-12T07:29:40.804Z</time>
      </trkpt>
      <trkpt lat="45.95699" lon="5.83537">
        <ele>256</ele>
        <time>2021-09-12T07:29:41.804Z</time>
      </trkpt>
      <trkpt lat="45.95697" lon="5.83531">
        <ele>256</ele>
        <time>2021-09-12T07:29:42.804Z</time>
      </trkpt>
      <trkpt lat="45.95695" lon="5.83526">
        <ele>256</ele>
        <time>2021-09-12T07:29:43.804Z</time>
      </trkpt>
      <trkpt lat="45.95693" lon="5.8352">
        <ele>255</ele>
        <time>2021-09-12T07:29:44.804Z</time>
      </trkpt>
      <trkpt lat="45.95692" lon="5.83514">
        <ele>255</ele>
        <time>2021-09-12T07:29:45.803Z</time>
      </trkpt>
      <trkpt lat="45.9569" lon="5.83508">
        <ele>256</ele>
        <time>2021-09-12T07:29:46.804Z</time>
      </trkpt>
      <trkpt lat="45.95689" lon="5.83503">
        <ele>256</ele>
        <time>2021-09-12T07:29:47.804Z</time>
      </trkpt>
      <trkpt lat="45.95687" lon="5.83497">
        <ele>256</ele>
        <time>2021-09-12T07:29:48.804Z</time>
      </trkpt>
      <trkpt lat="45.95685" lon="5.8349">
        <ele>256</ele>
        <time>2021-09-12T07:29:49.804Z</time>
      </trkpt>
      <trkpt lat="45.95684" lon="5.83485">
        <ele>256</ele>
        <time>2021-09-12T07:29:50.804Z</time>
      </trkpt>
      <trkpt lat="45.95682" lon="5.83479">
        <ele>257</ele>
        <time>2021-09-12T07:29:51.804Z</time>
      </trkpt>
      <trkpt lat="45.9568" lon="5.83474">
        <ele>257</ele>
        <time>2021-09-12T07:29:52.803Z</time>
      </trkpt>
      <trkpt lat="45.95678" lon="5.83471">
        <ele>257</ele>
        <time>2021-09-12T07:29:53.803Z</time>
      </trkpt>
      <trkpt lat="45.95675" lon="5.83469">
        <ele>257</ele>
        <time>2021-09-12T07:29:54.804Z</time>
      </trkpt>
      <trkpt lat="45.95672" lon="5.8347">
        <ele>257</ele>
        <time>2021-09-12T07:29:55.803Z</time>
      </trkpt>
      <trkpt lat="45.95669" lon="5.83472">
        <ele>257</ele>
        <time>2021-09-12T07:29:56.803Z</time>
      </trkpt>
      <trkpt lat="45.95666" lon="5.83475">
        <ele>257</ele>
        <time>2021-09-12T07:29:57.804Z</time>
      </trkpt>
      <trkpt lat="45.95664" lon="5.83478">
        <ele>257</ele>
        <time>2021-09-12T07:29:58.803Z</time>
      </trkpt>
      <trkpt lat="45.95661" lon="5.83481">
        <ele>258</ele>
        <time>2021-09-12T07:29:59.804Z</time>
      </trkpt>
      <trkpt lat="45.95658" lon="5.83484">
        <ele>258</ele>
        <time>2021-09-12T07:30:00.804Z</time>
      </trkpt>
      <trkpt lat="45.95655" lon="5.83487">
        <ele>258</ele>
        <time>2021-09-12T07:30:01.804Z</time>
      </trkpt>
      <trkpt lat="45.95652" lon="5.8349">
        <ele>258</ele>
        <time>2021-09-12T07:30:02.803Z</time>
      </trkpt>
      <trkpt lat="45.9565" lon="5.83493">
        <ele>258</ele>
        <time>2021-09-12T07:30:03.804Z</time>
      </trkpt>
      <trkpt lat="45.95647" lon="5.83496">
        <ele>258</ele>
        <time>2021-09-12T07:30:04.804Z</time>
      </trkpt>
      <trkpt lat="45.95644" lon="5.83499">
        <ele>257</ele>
        <time>2021-09-12T07:30:05.803Z</time>
      </trkpt>
      <trkpt lat="45.9564" lon="5.83502">
        <ele>257</ele>
        <time>2021-09-12T07:30:06.804Z</time>
      </trkpt>
      <trkpt lat="45.95637" lon="5.83505">
        <ele>257</ele>
        <time>2021-09-12T07:30:07.804Z</time>
      </trkpt>
      <trkpt lat="45.95634" lon="5.83508">
        <ele>257</ele>
        <time>2021-09-12T07:30:08.804Z</time>
      </trkpt>
      <trkpt lat="45.95631" lon="5.83512">
        <ele>256</ele>
        <time>2021-09-12T07:30:09.804Z</time>
      </trkpt>
      <trkpt lat="45.95627" lon="5.83516">
        <ele>256</ele>
        <time>2021-09-12T07:30:10.804Z</time>
      </trkpt>
      <trkpt lat="45.95624" lon="5.83519">
        <ele>256</ele>
        <time>2021-09-12T07:30:11.804Z</time>
      </trkpt>
      <trkpt lat="45.9562" lon="5.83522">
        <ele>256</ele>
        <time>2021-09-12T07:30:12.804Z</time>
      </trkpt>
      <trkpt lat="45.95617" lon="5.83525">
        <ele>256</ele>
        <time>2021-09-12T07:30:13.804Z</time>
      </trkpt>
      <trkpt lat="45.95613" lon="5.83529">
        <ele>256</ele>
        <time>2021-09-12T07:30:14.804Z</time>
      </trkpt>
      <trkpt lat="45.9561" lon="5.83532">
        <ele>256</ele>
        <time>2021-09-12T07:30:15.804Z</time>
      </trkpt>
      <trkpt lat="45.95606" lon="5.83535">
        <ele>256</ele>
        <time>2021-09-12T07:30:16.804Z</time>
      </trkpt>
      <trkpt lat="45.95602" lon="5.83539">
        <ele>255</ele>
        <time>2021-09-12T07:30:17.804Z</time>
      </trkpt>
      <trkpt lat="45.95598" lon="5.83542">
        <ele>255</ele>
        <time>2021-09-12T07:30:18.803Z</time>
      </trkpt>
      <trkpt lat="45.95595" lon="5.83546">
        <ele>256</ele>
        <time>2021-09-12T07:30:19.804Z</time>
      </trkpt>
      <trkpt lat="45.95591" lon="5.83549">
        <ele>256</ele>
        <time>2021-09-12T07:30:20.804Z</time>
      </trkpt>
      <trkpt lat="45.95588" lon="5.83553">
        <ele>256</ele>
        <time>2021-09-12T07:30:21.804Z</time>
      </trkpt>
      <trkpt lat="45.95584" lon="5.83556">
        <ele>257</ele>
        <time>2021-09-12T07:30:22.804Z</time>
      </trkpt>
      <trkpt lat="45.95581" lon="5.83559">
        <ele>257</ele>
        <time>2021-09-12T07:30:23.804Z</time>
      </trkpt>
      <trkpt lat="45.95577" lon="5.83563">
        <ele>257</ele>
        <time>2021-09-12T07:30:24.803Z</time>
      </trkpt>
      <trkpt lat="45.95574" lon="5.83566">
        <ele>257</ele>
        <time>2021-09-12T07:30:25.803Z</time>
      </trkpt>
      <trkpt lat="45.9557" lon="5.83569">
        <ele>257</ele>
        <time>2021-09-12T07:30:26.804Z</time>
      </trkpt>
      <trkpt lat="45.95567" lon="5.83572">
        <ele>258</ele>
        <time>2021-09-12T07:30:27.804Z</time>
      </trkpt>
      <trkpt lat="45.95564" lon="5.83576">
        <ele>258</ele>
        <time>2021-09-12T07:30:28.804Z</time>
      </trkpt>
      <trkpt lat="45.9556" lon="5.83579">
        <ele>258</ele>
        <time>2021-09-12T07:30:29.804Z</time>
      </trkpt>
      <trkpt lat="45.95557" lon="5.83583">
        <ele>259</ele>
        <time>2021-09-12T07:30:30.804Z</time>
      </trkpt>
      <trkpt lat="45.95553" lon="5.83586">
        <ele>259</ele>
        <time>2021-09-12T07:30:31.804Z</time>
      </trkpt>
      <trkpt lat="45.9555" lon="5.8359">
        <ele>259</ele>
        <time>2021-09-12T07:30:32.804Z</time>
      </trkpt>
      <trkpt lat="45.95546" lon="5.83593">
        <ele>259</ele>
        <time>2021-09-12T07:30:33.804Z</time>
      </trkpt>
      <trkpt lat="45.95543" lon="5.83596">
        <ele>260</ele>
        <time>2021-09-12T07:30:34.804Z</time>
      </trkpt>
      <trkpt lat="45.95539" lon="5.836">
        <ele>260</ele>
        <time>2021-09-12T07:30:35.804Z</time>
      </trkpt>
      <trkpt lat="45.95536" lon="5.83603">
        <ele>260</ele>
        <time>2021-09-12T07:30:36.803Z</time>
      </trkpt>
      <trkpt lat="45.95533" lon="5.83606">
        <ele>260</ele>
        <time>2021-09-12T07:30:37.804Z</time>
      </trkpt>
      <trkpt lat="45.9553" lon="5.83609">
        <ele>261</ele>
        <time>2021-09-12T07:30:38.804Z</time>
      </trkpt>
      <trkpt lat="45.95527" lon="5.83612">
        <ele>261</ele>
        <time>2021-09-12T07:30:39.803Z</time>
      </trkpt>
      <trkpt lat="45.95523" lon="5.83615">
        <ele>261</ele>
        <time>2021-09-12T07:30:40.804Z</time>
      </trkpt>
      <trkpt lat="45.95519" lon="5.83618">
        <ele>261</ele>
        <time>2021-09-12T07:30:41.803Z</time>
      </trkpt>
      <trkpt lat="45.95515" lon="5.83622">
        <ele>261</ele>
        <time>2021-09-12T07:30:42.803Z</time>
      </trkpt>
      <trkpt lat="45.95511" lon="5.83625">
        <ele>261</ele>
        <time>2021-09-12T07:30:43.803Z</time>
      </trkpt>
      <trkpt lat="45.95507" lon="5.83629">
        <ele>261</ele>
        <time>2021-09-12T07:30:44.804Z</time>
      </trkpt>
      <trkpt lat="45.95503" lon="5.83632">
        <ele>261</ele>
        <time>2021-09-12T07:30:45.804Z</time>
      </trkpt>
      <trkpt lat="45.95499" lon="5.83636">
        <ele>260</ele>
        <time>2021-09-12T07:30:46.804Z</time>
      </trkpt>
      <trkpt lat="45.95495" lon="5.8364">
        <ele>260</ele>
        <time>2021-09-12T07:30:47.804Z</time>
      </trkpt>
      <trkpt lat="45.95491" lon="5.83643">
        <ele>260</ele>
        <time>2021-09-12T07:30:48.804Z</time>
      </trkpt>
      <trkpt lat="45.95487" lon="5.83647">
        <ele>260</ele>
        <time>2021-09-12T07:30:49.804Z</time>
      </trkpt>
      <trkpt lat="45.95483" lon="5.83651">
        <ele>260</ele>
        <time>2021-09-12T07:30:50.804Z</time>
      </trkpt>
      <trkpt lat="45.9548" lon="5.83653">
        <ele>260</ele>
        <time>2021-09-12T07:30:51.804Z</time>
      </trkpt>
      <trkpt lat="45.95476" lon="5.83655">
        <ele>260</ele>
        <time>2021-09-12T07:30:52.804Z</time>
      </trkpt>
      <trkpt lat="45.95474" lon="5.83655">
        <ele>260</ele>
        <time>2021-09-12T07:30:53.804Z</time>
      </trkpt>
      <trkpt lat="45.95471" lon="5.83655">
        <ele>260</ele>
        <time>2021-09-12T07:30:54.804Z</time>
      </trkpt>
      <trkpt lat="45.95468" lon="5.83654">
        <ele>260</ele>
        <time>2021-09-12T07:30:55.804Z</time>
      </trkpt>
      <trkpt lat="45.95465" lon="5.83653">
        <ele>259</ele>
        <time>2021-09-12T07:30:56.804Z</time>
      </trkpt>
      <trkpt lat="45.95463" lon="5.83652">
        <ele>259</ele>
        <time>2021-09-12T07:30:57.803Z</time>
      </trkpt>
      <trkpt lat="45.9546" lon="5.83651">
        <ele>259</ele>
        <time>2021-09-12T07:30:58.804Z</time>
      </trkpt>
      <trkpt lat="45.95457" lon="5.8365">
        <ele>258</ele>
        <time>2021-09-12T07:30:59.804Z</time>
      </trkpt>
      <trkpt lat="45.95453" lon="5.83649">
        <ele>258</ele>
        <time>2021-09-12T07:31:00.804Z</time>
      </trkpt>
      <trkpt lat="45.9545" lon="5.83648">
        <ele>258</ele>
        <time>2021-09-12T07:31:01.803Z</time>
      </trkpt>
      <trkpt lat="45.95446" lon="5.83647">
        <ele>258</ele>
        <time>2021-09-12T07:31:02.804Z</time>
      </trkpt>
      <trkpt lat="45.95442" lon="5.83646">
        <ele>258</ele>
        <time>2021-09-12T07:31:03.804Z</time>
      </trkpt>
      <trkpt lat="45.95439" lon="5.83645">
        <ele>257</ele>
        <time>2021-09-12T07:31:04.804Z</time>
      </trkpt>
      <trkpt lat="45.95435" lon="5.83643">
        <ele>257</ele>
        <time>2021-09-12T07:31:05.803Z</time>
      </trkpt>
      <trkpt lat="45.95432" lon="5.83642">
        <ele>257</ele>
        <time>2021-09-12T07:31:06.804Z</time>
      </trkpt>
      <trkpt lat="45.95429" lon="5.8364">
        <ele>257</ele>
        <time>2021-09-12T07:31:07.804Z</time>
      </trkpt>
      <trkpt lat="45.95427" lon="5.83638">
        <ele>256</ele>
        <time>2021-09-12T07:31:08.804Z</time>
      </trkpt>
      <trkpt lat="45.95425" lon="5.83636">
        <ele>256</ele>
        <time>2021-09-12T07:31:09.804Z</time>
      </trkpt>
      <trkpt lat="45.95423" lon="5.83633">
        <ele>256</ele>
        <time>2021-09-12T07:31:10.803Z</time>
      </trkpt>
      <trkpt lat="45.95421" lon="5.83629">
        <ele>256</ele>
        <time>2021-09-12T07:31:11.804Z</time>
      </trkpt>
      <trkpt lat="45.9542" lon="5.83625">
        <ele>255</ele>
        <time>2021-09-12T07:31:12.803Z</time>
      </trkpt>
      <trkpt lat="45.9542" lon="5.83621">
        <ele>255</ele>
        <time>2021-09-12T07:31:13.804Z</time>
      </trkpt>
      <trkpt lat="45.95419" lon="5.83617">
        <ele>255</ele>
        <time>2021-09-12T07:31:14.804Z</time>
      </trkpt>
      <trkpt lat="45.95418" lon="5.83613">
        <ele>255</ele>
        <time>2021-09-12T07:31:15.803Z</time>
      </trkpt>
      <trkpt lat="45.95417" lon="5.83608">
        <ele>255</ele>
        <time>2021-09-12T07:31:16.803Z</time>
      </trkpt>
      <trkpt lat="45.95417" lon="5.83604">
        <ele>255</ele>
        <time>2021-09-12T07:31:17.803Z</time>
      </trkpt>
      <trkpt lat="45.95416" lon="5.83599">
        <ele>256</ele>
        <time>2021-09-12T07:31:18.804Z</time>
      </trkpt>
      <trkpt lat="45.95416" lon="5.83595">
        <ele>256</ele>
        <time>2021-09-12T07:31:19.804Z</time>
      </trkpt>
      <trkpt lat="45.95416" lon="5.8359">
        <ele>256</ele>
        <time>2021-09-12T07:31:20.804Z</time>
      </trkpt>
      <trkpt lat="45.95415" lon="5.83586">
        <ele>256</ele>
        <time>2021-09-12T07:31:21.804Z</time>
      </trkpt>
      <trkpt lat="45.95415" lon="5.83582">
        <ele>257</ele>
        <time>2021-09-12T07:31:22.804Z</time>
      </trkpt>
      <trkpt lat="45.95414" lon="5.83578">
        <ele>257</ele>
        <time>2021-09-12T07:31:23.803Z</time>
      </trkpt>
      <trkpt lat="45.95413" lon="5.83574">
        <ele>257</ele>
        <time>2021-09-12T07:31:24.804Z</time>
      </trkpt>
      <trkpt lat="45.95412" lon="5.8357">
        <ele>257</ele>
        <time>2021-09-12T07:31:25.803Z</time>
      </trkpt>
      <trkpt lat="45.95411" lon="5.83566">
        <ele>257</ele>
        <time>2021-09-12T07:31:26.804Z</time>
      </trkpt>
      <trkpt lat="45.9541" lon="5.83563">
        <ele>257</ele>
        <time>2021-09-12T07:31:27.803Z</time>
      </trkpt>
      <trkpt lat="45.9541" lon="5.8356">
        <ele>257</ele>
        <time>2021-09-12T07:31:28.804Z</time>
      </trkpt>
      <trkpt lat="45.95408" lon="5.83556">
        <ele>257</ele>
        <time>2021-09-12T07:31:29.804Z</time>
      </trkpt>
      <trkpt lat="45.95407" lon="5.83553">
        <ele>257</ele>
        <time>2021-09-12T07:31:30.803Z</time>
      </trkpt>
      <trkpt lat="45.95406" lon="5.8355">
        <ele>257</ele>
        <time>2021-09-12T07:31:31.804Z</time>
      </trkpt>
      <trkpt lat="45.95405" lon="5.83547">
        <ele>257</ele>
        <time>2021-09-12T07:31:32.803Z</time>
      </trkpt>
      <trkpt lat="45.95403" lon="5.83545">
        <ele>258</ele>
        <time>2021-09-12T07:31:33.804Z</time>
      </trkpt>
      <trkpt lat="45.95402" lon="5.83543">
        <ele>258</ele>
        <time>2021-09-12T07:31:34.804Z</time>
      </trkpt>
      <trkpt lat="45.954" lon="5.83541">
        <ele>258</ele>
        <time>2021-09-12T07:31:35.803Z</time>
      </trkpt>
      <trkpt lat="45.95398" lon="5.8354">
        <ele>258</ele>
        <time>2021-09-12T07:31:36.804Z</time>
      </trkpt>
      <trkpt lat="45.95396" lon="5.83539">
        <ele>258</ele>
        <time>2021-09-12T07:31:37.804Z</time>
      </trkpt>
      <trkpt lat="45.95394" lon="5.83538">
        <ele>258</ele>
        <time>2021-09-12T07:31:38.804Z</time>
      </trkpt>
      <trkpt lat="45.95393" lon="5.83537">
        <ele>258</ele>
        <time>2021-09-12T07:31:39.804Z</time>
      </trkpt>
      <trkpt lat="45.95392" lon="5.83538">
        <ele>258</ele>
        <time>2021-09-12T07:31:40.804Z</time>
      </trkpt>
      <trkpt lat="45.95392" lon="5.83539">
        <ele>258</ele>
        <time>2021-09-12T07:31:41.804Z</time>
      </trkpt>
      <trkpt lat="45.95392" lon="5.8354">
        <ele>259</ele>
        <time>2021-09-12T07:31:42.803Z</time>
      </trkpt>
      <trkpt lat="45.95392" lon="5.8354">
        <ele>259</ele>
        <time>2021-09-12T07:31:43.804Z</time>
      </trkpt>
      <trkpt lat="45.95394" lon="5.8354">
        <ele>258</ele>
        <time>2021-09-12T07:31:44.803Z</time>
      </trkpt>
      <trkpt lat="45.95395" lon="5.8354">
        <ele>258</ele>
        <time>2021-09-12T07:31:45.804Z</time>
      </trkpt>
      <trkpt lat="45.95397" lon="5.8354">
        <ele>258</ele>
        <time>2021-09-12T07:31:46.804Z</time>
      </trkpt>
      <trkpt lat="45.95399" lon="5.83541">
        <ele>257</ele>
        <time>2021-09-12T07:31:47.804Z</time>
      </trkpt>
      <trkpt lat="45.95401" lon="5.83541">
        <ele>257</ele>
        <time>2021-09-12T07:31:48.804Z</time>
      </trkpt>
      <trkpt lat="45.95402" lon="5.83541">
        <ele>257</ele>
        <time>2021-09-12T07:31:49.804Z</time>
      </trkpt>
      <trkpt lat="45.95403" lon="5.83541">
        <ele>256</ele>
        <time>2021-09-12T07:31:50.804Z</time>
      </trkpt>
      <trkpt lat="45.95403" lon="5.83541">
        <ele>256</ele>
        <time>2021-09-12T07:31:51.804Z</time>
      </trkpt>
      <trkpt lat="45.95404" lon="5.83541">
        <ele>255</ele>
        <time>2021-09-12T07:31:52.804Z</time>
      </trkpt>
      <trkpt lat="45.95398" lon="5.83539">
        <ele>254</ele>
        <time>2021-09-12T07:31:53.806Z</time>
      </trkpt>
      <trkpt lat="45.95396" lon="5.83539">
        <ele>254</ele>
        <time>2021-09-12T07:31:54.806Z</time>
      </trkpt>
      <trkpt lat="45.95393" lon="5.83539">
        <ele>255</ele>
        <time>2021-09-12T07:31:55.805Z</time>
      </trkpt>
      <trkpt lat="45.95391" lon="5.83539">
        <ele>255</ele>
        <time>2021-09-12T07:31:56.805Z</time>
      </trkpt>
      <trkpt lat="45.95387" lon="5.83539">
        <ele>256</ele>
        <time>2021-09-12T07:31:57.806Z</time>
      </trkpt>
      <trkpt lat="45.95384" lon="5.83539">
        <ele>256</ele>
        <time>2021-09-12T07:31:58.805Z</time>
      </trkpt>
      <trkpt lat="45.95381" lon="5.8354">
        <ele>257</ele>
        <time>2021-09-12T07:31:59.805Z</time>
      </trkpt>
      <trkpt lat="45.95377" lon="5.83542">
        <ele>257</ele>
        <time>2021-09-12T07:32:00.806Z</time>
      </trkpt>
      <trkpt lat="45.95375" lon="5.83543">
        <ele>258</ele>
        <time>2021-09-12T07:32:01.806Z</time>
      </trkpt>
      <trkpt lat="45.95372" lon="5.83545">
        <ele>258</ele>
        <time>2021-09-12T07:32:02.806Z</time>
      </trkpt>
      <trkpt lat="45.95368" lon="5.83546">
        <ele>258</ele>
        <time>2021-09-12T07:32:03.806Z</time>
      </trkpt>
      <trkpt lat="45.95365" lon="5.83548">
        <ele>258</ele>
        <time>2021-09-12T07:32:04.806Z</time>
      </trkpt>
      <trkpt lat="45.95362" lon="5.83549">
        <ele>259</ele>
        <time>2021-09-12T07:32:05.806Z</time>
      </trkpt>
      <trkpt lat="45.95358" lon="5.83551">
        <ele>259</ele>
        <time>2021-09-12T07:32:06.806Z</time>
      </trkpt>
      <trkpt lat="45.95355" lon="5.83552">
        <ele>259</ele>
        <time>2021-09-12T07:32:07.806Z</time>
      </trkpt>
      <trkpt lat="45.95351" lon="5.83554">
        <ele>258</ele>
        <time>2021-09-12T07:32:08.806Z</time>
      </trkpt>
      <trkpt lat="45.95348" lon="5.83555">
        <ele>258</ele>
        <time>2021-09-12T07:32:09.805Z</time>
      </trkpt>
      <trkpt lat="45.95344" lon="5.83557">
        <ele>258</ele>
        <time>2021-09-12T07:32:10.805Z</time>
      </trkpt>
      <trkpt lat="45.9534" lon="5.83558">
        <ele>258</ele>
        <time>2021-09-12T07:32:11.805Z</time>
      </trkpt>
      <trkpt lat="45.95337" lon="5.83559">
        <ele>257</ele>
        <time>2021-09-12T07:32:12.806Z</time>
      </trkpt>
      <trkpt lat="45.95333" lon="5.83561">
        <ele>257</ele>
        <time>2021-09-12T07:32:13.806Z</time>
      </trkpt>
      <trkpt lat="45.95329" lon="5.83562">
        <ele>257</ele>
        <time>2021-09-12T07:32:14.806Z</time>
      </trkpt>
      <trkpt lat="45.95326" lon="5.83564">
        <ele>257</ele>
        <time>2021-09-12T07:32:15.805Z</time>
      </trkpt>
      <trkpt lat="45.95322" lon="5.83566">
        <ele>257</ele>
        <time>2021-09-12T07:32:16.806Z</time>
      </trkpt>
      <trkpt lat="45.95318" lon="5.83568">
        <ele>257</ele>
        <time>2021-09-12T07:32:17.806Z</time>
      </trkpt>
      <trkpt lat="45.95314" lon="5.8357">
        <ele>257</ele>
        <time>2021-09-12T07:32:18.806Z</time>
      </trkpt>
      <trkpt lat="45.9531" lon="5.83572">
        <ele>257</ele>
        <time>2021-09-12T07:32:19.805Z</time>
      </trkpt>
      <trkpt lat="45.95306" lon="5.83574">
        <ele>257</ele>
        <time>2021-09-12T07:32:20.805Z</time>
      </trkpt>
      <trkpt lat="45.95301" lon="5.83575">
        <ele>257</ele>
        <time>2021-09-12T07:32:21.806Z</time>
      </trkpt>
      <trkpt lat="45.95296" lon="5.83576">
        <ele>257</ele>
        <time>2021-09-12T07:32:22.806Z</time>
      </trkpt>
      <trkpt lat="45.95291" lon="5.83579">
        <ele>257</ele>
        <time>2021-09-12T07:32:23.806Z</time>
      </trkpt>
      <trkpt lat="45.95287" lon="5.8358">
        <ele>257</ele>
        <time>2021-09-12T07:32:24.806Z</time>
      </trkpt>
      <trkpt lat="45.95282" lon="5.83582">
        <ele>257</ele>
        <time>2021-09-12T07:32:25.806Z</time>
      </trkpt>
      <trkpt lat="45.95278" lon="5.83584">
        <ele>256</ele>
        <time>2021-09-12T07:32:26.806Z</time>
      </trkpt>
      <trkpt lat="45.95273" lon="5.83586">
        <ele>256</ele>
        <time>2021-09-12T07:32:27.806Z</time>
      </trkpt>
      <trkpt lat="45.95268" lon="5.83587">
        <ele>256</ele>
        <time>2021-09-12T07:32:28.806Z</time>
      </trkpt>
      <trkpt lat="45.95263" lon="5.8359">
        <ele>256</ele>
        <time>2021-09-12T07:32:29.805Z</time>
      </trkpt>
      <trkpt lat="45.95259" lon="5.83592">
        <ele>256</ele>
        <time>2021-09-12T07:32:30.806Z</time>
      </trkpt>
      <trkpt lat="45.95255" lon="5.83594">
        <ele>256</ele>
        <time>2021-09-12T07:32:31.806Z</time>
      </trkpt>
      <trkpt lat="45.9525" lon="5.83596">
        <ele>256</ele>
        <time>2021-09-12T07:32:32.806Z</time>
      </trkpt>
      <trkpt lat="45.95246" lon="5.83598">
        <ele>256</ele>
        <time>2021-09-12T07:32:33.805Z</time>
      </trkpt>
      <trkpt lat="45.95242" lon="5.836">
        <ele>255</ele>
        <time>2021-09-12T07:32:34.806Z</time>
      </trkpt>
      <trkpt lat="45.95237" lon="5.83602">
        <ele>255</ele>
        <time>2021-09-12T07:32:35.806Z</time>
      </trkpt>
      <trkpt lat="45.95233" lon="5.83604">
        <ele>255</ele>
        <time>2021-09-12T07:32:36.805Z</time>
      </trkpt>
      <trkpt lat="45.95229" lon="5.83606">
        <ele>255</ele>
        <time>2021-09-12T07:32:37.806Z</time>
      </trkpt>
      <trkpt lat="45.95224" lon="5.83608">
        <ele>255</ele>
        <time>2021-09-12T07:32:38.806Z</time>
      </trkpt>
      <trkpt lat="45.9522" lon="5.8361">
        <ele>255</ele>
        <time>2021-09-12T07:32:39.806Z</time>
      </trkpt>
      <trkpt lat="45.95216" lon="5.83612">
        <ele>255</ele>
        <time>2021-09-12T07:32:40.806Z</time>
      </trkpt>
      <trkpt lat="45.95211" lon="5.83614">
        <ele>255</ele>
        <time>2021-09-12T07:32:41.806Z</time>
      </trkpt>
      <trkpt lat="45.95207" lon="5.83616">
        <ele>255</ele>
        <time>2021-09-12T07:32:42.805Z</time>
      </trkpt>
      <trkpt lat="45.95202" lon="5.83618">
        <ele>255</ele>
        <time>2021-09-12T07:32:43.806Z</time>
      </trkpt>
      <trkpt lat="45.95198" lon="5.8362">
        <ele>255</ele>
        <time>2021-09-12T07:32:44.806Z</time>
      </trkpt>
      <trkpt lat="45.95194" lon="5.83623">
        <ele>256</ele>
        <time>2021-09-12T07:32:45.806Z</time>
      </trkpt>
      <trkpt lat="45.95189" lon="5.83625">
        <ele>256</ele>
        <time>2021-09-12T07:32:46.806Z</time>
      </trkpt>
      <trkpt lat="45.95185" lon="5.83627">
        <ele>256</ele>
        <time>2021-09-12T07:32:47.805Z</time>
      </trkpt>
      <trkpt lat="45.9518" lon="5.83629">
        <ele>256</ele>
        <time>2021-09-12T07:32:48.806Z</time>
      </trkpt>
      <trkpt lat="45.95175" lon="5.83631">
        <ele>256</ele>
        <time>2021-09-12T07:32:49.806Z</time>
      </trkpt>
      <trkpt lat="45.95171" lon="5.83633">
        <ele>256</ele>
        <time>2021-09-12T07:32:50.806Z</time>
      </trkpt>
      <trkpt lat="45.95167" lon="5.83636">
        <ele>257</ele>
        <time>2021-09-12T07:32:51.806Z</time>
      </trkpt>
      <trkpt lat="45.95162" lon="5.83638">
        <ele>256</ele>
        <time>2021-09-12T07:32:52.806Z</time>
      </trkpt>
      <trkpt lat="45.95158" lon="5.8364">
        <ele>256</ele>
        <time>2021-09-12T07:32:53.806Z</time>
      </trkpt>
      <trkpt lat="45.95153" lon="5.83642">
        <ele>256</ele>
        <time>2021-09-12T07:32:54.805Z</time>
      </trkpt>
      <trkpt lat="45.95149" lon="5.83644">
        <ele>256</ele>
        <time>2021-09-12T07:32:55.806Z</time>
      </trkpt>
      <trkpt lat="45.95144" lon="5.83647">
        <ele>255</ele>
        <time>2021-09-12T07:32:56.806Z</time>
      </trkpt>
      <trkpt lat="45.9514" lon="5.83649">
        <ele>255</ele>
        <time>2021-09-12T07:32:57.806Z</time>
      </trkpt>
      <trkpt lat="45.95135" lon="5.83651">
        <ele>255</ele>
        <time>2021-09-12T07:32:58.805Z</time>
      </trkpt>
      <trkpt lat="45.95131" lon="5.83653">
        <ele>255</ele>
        <time>2021-09-12T07:32:59.806Z</time>
      </trkpt>
      <trkpt lat="45.95126" lon="5.83655">
        <ele>255</ele>
        <time>2021-09-12T07:33:00.806Z</time>
      </trkpt>
      <trkpt lat="45.95122" lon="5.83657">
        <ele>255</ele>
        <time>2021-09-12T07:33:01.806Z</time>
      </trkpt>
      <trkpt lat="45.95118" lon="5.83659">
        <ele>255</ele>
        <time>2021-09-12T07:33:02.806Z</time>
      </trkpt>
      <trkpt lat="45.95113" lon="5.83661">
        <ele>255</ele>
        <time>2021-09-12T07:33:03.806Z</time>
      </trkpt>
      <trkpt lat="45.95108" lon="5.83663">
        <ele>255</ele>
        <time>2021-09-12T07:33:04.805Z</time>
      </trkpt>
      <trkpt lat="45.95104" lon="5.83665">
        <ele>255</ele>
        <time>2021-09-12T07:33:05.806Z</time>
      </trkpt>
      <trkpt lat="45.951" lon="5.83667">
        <ele>255</ele>
        <time>2021-09-12T07:33:06.806Z</time>
      </trkpt>
      <trkpt lat="45.95096" lon="5.83669">
        <ele>255</ele>
        <time>2021-09-12T07:33:07.806Z</time>
      </trkpt>
      <trkpt lat="45.95091" lon="5.83671">
        <ele>255</ele>
        <time>2021-09-12T07:33:08.806Z</time>
      </trkpt>
      <trkpt lat="45.95087" lon="5.83673">
        <ele>255</ele>
        <time>2021-09-12T07:33:09.805Z</time>
      </trkpt>
      <trkpt lat="45.95082" lon="5.83675">
        <ele>256</ele>
        <time>2021-09-12T07:33:10.806Z</time>
      </trkpt>
      <trkpt lat="45.95078" lon="5.83676">
        <ele>256</ele>
        <time>2021-09-12T07:33:11.806Z</time>
      </trkpt>
      <trkpt lat="45.95072" lon="5.83678">
        <ele>256</ele>
        <time>2021-09-12T07:33:12.806Z</time>
      </trkpt>
      <trkpt lat="45.95068" lon="5.83679">
        <ele>257</ele>
        <time>2021-09-12T07:33:13.806Z</time>
      </trkpt>
      <trkpt lat="45.95064" lon="5.83681">
        <ele>257</ele>
        <time>2021-09-12T07:33:14.805Z</time>
      </trkpt>
      <trkpt lat="45.9506" lon="5.83683">
        <ele>257</ele>
        <time>2021-09-12T07:33:15.806Z</time>
      </trkpt>
      <trkpt lat="45.95055" lon="5.83684">
        <ele>257</ele>
        <time>2021-09-12T07:33:16.806Z</time>
      </trkpt>
      <trkpt lat="45.95051" lon="5.83686">
        <ele>256</ele>
        <time>2021-09-12T07:33:17.806Z</time>
      </trkpt>
      <trkpt lat="45.95047" lon="5.83687">
        <ele>256</ele>
        <time>2021-09-12T07:33:18.805Z</time>
      </trkpt>
      <trkpt lat="45.95043" lon="5.83689">
        <ele>256</ele>
        <time>2021-09-12T07:33:19.806Z</time>
      </trkpt>
      <trkpt lat="45.95039" lon="5.8369">
        <ele>255</ele>
        <time>2021-09-12T07:33:20.806Z</time>
      </trkpt>
      <trkpt lat="45.95035" lon="5.83691">
        <ele>256</ele>
        <time>2021-09-12T07:33:21.805Z</time>
      </trkpt>
      <trkpt lat="45.9503" lon="5.83692">
        <ele>256</ele>
        <time>2021-09-12T07:33:22.806Z</time>
      </trkpt>
      <trkpt lat="45.95026" lon="5.83693">
        <ele>256</ele>
        <time>2021-09-12T07:33:23.805Z</time>
      </trkpt>
      <trkpt lat="45.95022" lon="5.83696">
        <ele>256</ele>
        <time>2021-09-12T07:33:24.806Z</time>
      </trkpt>
      <trkpt lat="45.95018" lon="5.83697">
        <ele>256</ele>
        <time>2021-09-12T07:33:25.805Z</time>
      </trkpt>
      <trkpt lat="45.95014" lon="5.83699">
        <ele>256</ele>
        <time>2021-09-12T07:33:26.806Z</time>
      </trkpt>
      <trkpt lat="45.9501" lon="5.837">
        <ele>256</ele>
        <time>2021-09-12T07:33:27.806Z</time>
      </trkpt>
      <trkpt lat="45.95006" lon="5.83701">
        <ele>256</ele>
        <time>2021-09-12T07:33:28.806Z</time>
      </trkpt>
      <trkpt lat="45.95002" lon="5.83702">
        <ele>256</ele>
        <time>2021-09-12T07:33:29.806Z</time>
      </trkpt>
      <trkpt lat="45.94998" lon="5.83704">
        <ele>256</ele>
        <time>2021-09-12T07:33:30.805Z</time>
      </trkpt>
      <trkpt lat="45.94994" lon="5.83705">
        <ele>256</ele>
        <time>2021-09-12T07:33:31.806Z</time>
      </trkpt>
      <trkpt lat="45.94989" lon="5.83706">
        <ele>255</ele>
        <time>2021-09-12T07:33:32.806Z</time>
      </trkpt>
      <trkpt lat="45.94985" lon="5.83708">
        <ele>255</ele>
        <time>2021-09-12T07:33:33.806Z</time>
      </trkpt>
      <trkpt lat="45.94981" lon="5.83709">
        <ele>255</ele>
        <time>2021-09-12T07:33:34.806Z</time>
      </trkpt>
      <trkpt lat="45.94977" lon="5.8371">
        <ele>255</ele>
        <time>2021-09-12T07:33:35.806Z</time>
      </trkpt>
      <trkpt lat="45.94973" lon="5.83711">
        <ele>255</ele>
        <time>2021-09-12T07:33:36.805Z</time>
      </trkpt>
      <trkpt lat="45.94969" lon="5.83711">
        <ele>256</ele>
        <time>2021-09-12T07:33:37.805Z</time>
      </trkpt>
      <trkpt lat="45.94966" lon="5.83711">
        <ele>255</ele>
        <time>2021-09-12T07:33:38.805Z</time>
      </trkpt>
      <trkpt lat="45.94962" lon="5.83712">
        <ele>255</ele>
        <time>2021-09-12T07:33:39.805Z</time>
      </trkpt>
      <trkpt lat="45.94958" lon="5.83713">
        <ele>255</ele>
        <time>2021-09-12T07:33:40.806Z</time>
      </trkpt>
      <trkpt lat="45.94954" lon="5.83714">
        <ele>255</ele>
        <time>2021-09-12T07:33:41.805Z</time>
      </trkpt>
      <trkpt lat="45.94951" lon="5.83714">
        <ele>255</ele>
        <time>2021-09-12T07:33:42.806Z</time>
      </trkpt>
      <trkpt lat="45.94947" lon="5.83715">
        <ele>255</ele>
        <time>2021-09-12T07:33:43.805Z</time>
      </trkpt>
      <trkpt lat="45.94943" lon="5.83716">
        <ele>255</ele>
        <time>2021-09-12T07:33:44.805Z</time>
      </trkpt>
      <trkpt lat="45.94939" lon="5.83717">
        <ele>256</ele>
        <time>2021-09-12T07:33:45.806Z</time>
      </trkpt>
      <trkpt lat="45.94935" lon="5.83718">
        <ele>256</ele>
        <time>2021-09-12T07:33:46.806Z</time>
      </trkpt>
      <trkpt lat="45.94931" lon="5.83719">
        <ele>256</ele>
        <time>2021-09-12T07:33:47.806Z</time>
      </trkpt>
      <trkpt lat="45.94926" lon="5.8372">
        <ele>256</ele>
        <time>2021-09-12T07:33:48.806Z</time>
      </trkpt>
      <trkpt lat="45.94922" lon="5.83721">
        <ele>256</ele>
        <time>2021-09-12T07:33:49.806Z</time>
      </trkpt>
      <trkpt lat="45.94917" lon="5.83722">
        <ele>256</ele>
        <time>2021-09-12T07:33:50.805Z</time>
      </trkpt>
      <trkpt lat="45.94912" lon="5.83723">
        <ele>256</ele>
        <time>2021-09-12T07:33:51.806Z</time>
      </trkpt>
      <trkpt lat="45.94908" lon="5.83724">
        <ele>256</ele>
        <time>2021-09-12T07:33:52.806Z</time>
      </trkpt>
      <trkpt lat="45.94903" lon="5.83725">
        <ele>256</ele>
        <time>2021-09-12T07:33:53.806Z</time>
      </trkpt>
      <trkpt lat="45.94898" lon="5.83726">
        <ele>255</ele>
        <time>2021-09-12T07:33:54.806Z</time>
      </trkpt>
      <trkpt lat="45.94893" lon="5.83727">
        <ele>255</ele>
        <time>2021-09-12T07:33:55.806Z</time>
      </trkpt>
      <trkpt lat="45.94889" lon="5.83728">
        <ele>255</ele>
        <time>2021-09-12T07:33:56.806Z</time>
      </trkpt>
      <trkpt lat="45.94884" lon="5.83729">
        <ele>255</ele>
        <time>2021-09-12T07:33:57.806Z</time>
      </trkpt>
      <trkpt lat="45.94879" lon="5.8373">
        <ele>255</ele>
        <time>2021-09-12T07:33:58.806Z</time>
      </trkpt>
      <trkpt lat="45.94875" lon="5.8373">
        <ele>255</ele>
        <time>2021-09-12T07:33:59.806Z</time>
      </trkpt>
      <trkpt lat="45.9487" lon="5.83731">
        <ele>255</ele>
        <time>2021-09-12T07:34:00.806Z</time>
      </trkpt>
      <trkpt lat="45.94866" lon="5.83732">
        <ele>255</ele>
        <time>2021-09-12T07:34:01.806Z</time>
      </trkpt>
      <trkpt lat="45.94862" lon="5.83733">
        <ele>255</ele>
        <time>2021-09-12T07:34:02.806Z</time>
      </trkpt>
      <trkpt lat="45.94859" lon="5.83734">
        <ele>255</ele>
        <time>2021-09-12T07:34:03.806Z</time>
      </trkpt>
      <trkpt lat="45.94856" lon="5.83734">
        <ele>255</ele>
        <time>2021-09-12T07:34:04.806Z</time>
      </trkpt>
      <trkpt lat="45.94853" lon="5.83735">
        <ele>255</ele>
        <time>2021-09-12T07:34:05.806Z</time>
      </trkpt>
      <trkpt lat="45.94849" lon="5.83735">
        <ele>255</ele>
        <time>2021-09-12T07:34:06.806Z</time>
      </trkpt>
      <trkpt lat="45.94846" lon="5.83735">
        <ele>255</ele>
        <time>2021-09-12T07:34:07.806Z</time>
      </trkpt>
      <trkpt lat="45.94843" lon="5.83735">
        <ele>254</ele>
        <time>2021-09-12T07:34:08.805Z</time>
      </trkpt>
      <trkpt lat="45.94841" lon="5.83735">
        <ele>254</ele>
        <time>2021-09-12T07:34:09.806Z</time>
      </trkpt>
      <trkpt lat="45.94839" lon="5.83734">
        <ele>254</ele>
        <time>2021-09-12T07:34:10.805Z</time>
      </trkpt>
      <trkpt lat="45.94836" lon="5.83734">
        <ele>253</ele>
        <time>2021-09-12T07:34:11.806Z</time>
      </trkpt>
      <trkpt lat="45.94833" lon="5.83735">
        <ele>253</ele>
        <time>2021-09-12T07:34:12.806Z</time>
      </trkpt>
      <trkpt lat="45.94831" lon="5.83735">
        <ele>253</ele>
        <time>2021-09-12T07:34:13.806Z</time>
      </trkpt>
      <trkpt lat="45.94828" lon="5.83735">
        <ele>253</ele>
        <time>2021-09-12T07:34:14.806Z</time>
      </trkpt>
      <trkpt lat="45.94826" lon="5.83735">
        <ele>253</ele>
        <time>2021-09-12T07:34:15.806Z</time>
      </trkpt>
      <trkpt lat="45.94824" lon="5.83734">
        <ele>253</ele>
        <time>2021-09-12T07:34:16.806Z</time>
      </trkpt>
      <trkpt lat="45.94823" lon="5.83734">
        <ele>253</ele>
        <time>2021-09-12T07:34:17.805Z</time>
      </trkpt>
      <trkpt lat="45.94822" lon="5.83734">
        <ele>253</ele>
        <time>2021-09-12T07:34:18.806Z</time>
      </trkpt>
      <trkpt lat="45.94822" lon="5.83734">
        <ele>253</ele>
        <time>2021-09-12T07:34:19.806Z</time>
      </trkpt>
      <trkpt lat="45.94822" lon="5.83734">
        <ele>254</ele>
        <time>2021-09-12T07:34:20.806Z</time>
      </trkpt>
      <trkpt lat="45.94822" lon="5.83734">
        <ele>254</ele>
        <time>2021-09-12T07:34:21.806Z</time>
      </trkpt>
      <trkpt lat="45.94819" lon="5.83734">
        <ele>255</ele>
        <time>2021-09-12T07:34:22.807Z</time>
      </trkpt>
      <trkpt lat="45.94816" lon="5.83735">
        <ele>255</ele>
        <time>2021-09-12T07:34:23.807Z</time>
      </trkpt>
      <trkpt lat="45.94813" lon="5.83736">
        <ele>256</ele>
        <time>2021-09-12T07:34:24.806Z</time>
      </trkpt>
      <trkpt lat="45.94809" lon="5.83736">
        <ele>256</ele>
        <time>2021-09-12T07:34:25.807Z</time>
      </trkpt>
      <trkpt lat="45.94805" lon="5.83737">
        <ele>255</ele>
        <time>2021-09-12T07:34:26.806Z</time>
      </trkpt>
      <trkpt lat="45.94801" lon="5.83737">
        <ele>255</ele>
        <time>2021-09-12T07:34:27.807Z</time>
      </trkpt>
      <trkpt lat="45.94797" lon="5.83737">
        <ele>255</ele>
        <time>2021-09-12T07:34:28.807Z</time>
      </trkpt>
      <trkpt lat="45.94793" lon="5.83738">
        <ele>255</ele>
        <time>2021-09-12T07:34:29.806Z</time>
      </trkpt>
      <trkpt lat="45.94789" lon="5.83739">
        <ele>255</ele>
        <time>2021-09-12T07:34:30.807Z</time>
      </trkpt>
      <trkpt lat="45.94785" lon="5.8374">
        <ele>255</ele>
        <time>2021-09-12T07:34:31.807Z</time>
      </trkpt>
      <trkpt lat="45.94781" lon="5.83741">
        <ele>256</ele>
        <time>2021-09-12T07:34:32.807Z</time>
      </trkpt>
      <trkpt lat="45.94777" lon="5.83742">
        <ele>256</ele>
        <time>2021-09-12T07:34:33.807Z</time>
      </trkpt>
      <trkpt lat="45.94773" lon="5.83743">
        <ele>256</ele>
        <time>2021-09-12T07:34:34.806Z</time>
      </trkpt>
      <trkpt lat="45.94769" lon="5.83744">
        <ele>256</ele>
        <time>2021-09-12T07:34:35.806Z</time>
      </trkpt>
      <trkpt lat="45.94764" lon="5.83744">
        <ele>256</ele>
        <time>2021-09-12T07:34:36.807Z</time>
      </trkpt>
      <trkpt lat="45.9476" lon="5.83745">
        <ele>256</ele>
        <time>2021-09-12T07:34:37.807Z</time>
      </trkpt>
      <trkpt lat="45.94756" lon="5.83745">
        <ele>256</ele>
        <time>2021-09-12T07:34:38.807Z</time>
      </trkpt>
      <trkpt lat="45.94752" lon="5.83746">
        <ele>256</ele>
        <time>2021-09-12T07:34:39.807Z</time>
      </trkpt>
      <trkpt lat="45.94748" lon="5.83746">
        <ele>256</ele>
        <time>2021-09-12T07:34:40.807Z</time>
      </trkpt>
      <trkpt lat="45.94744" lon="5.83747">
        <ele>256</ele>
        <time>2021-09-12T07:34:41.807Z</time>
      </trkpt>
      <trkpt lat="45.94739" lon="5.83747">
        <ele>256</ele>
        <time>2021-09-12T07:34:42.807Z</time>
      </trkpt>
      <trkpt lat="45.94735" lon="5.83748">
        <ele>256</ele>
        <time>2021-09-12T07:34:43.806Z</time>
      </trkpt>
      <trkpt lat="45.94731" lon="5.83748">
        <ele>255</ele>
        <time>2021-09-12T07:34:44.806Z</time>
      </trkpt>
      <trkpt lat="45.94727" lon="5.83749">
        <ele>255</ele>
        <time>2021-09-12T07:34:45.806Z</time>
      </trkpt>
      <trkpt lat="45.94723" lon="5.83749">
        <ele>255</ele>
        <time>2021-09-12T07:34:46.806Z</time>
      </trkpt>
      <trkpt lat="45.94718" lon="5.8375">
        <ele>255</ele>
        <time>2021-09-12T07:34:47.807Z</time>
      </trkpt>
      <trkpt lat="45.94714" lon="5.8375">
        <ele>255</ele>
        <time>2021-09-12T07:34:48.806Z</time>
      </trkpt>
      <trkpt lat="45.9471" lon="5.83751">
        <ele>255</ele>
        <time>2021-09-12T07:34:49.807Z</time>
      </trkpt>
      <trkpt lat="45.94706" lon="5.83751">
        <ele>255</ele>
        <time>2021-09-12T07:34:50.807Z</time>
      </trkpt>
      <trkpt lat="45.94702" lon="5.83751">
        <ele>255</ele>
        <time>2021-09-12T07:34:51.807Z</time>
      </trkpt>
      <trkpt lat="45.94697" lon="5.83752">
        <ele>255</ele>
        <time>2021-09-12T07:34:52.806Z</time>
      </trkpt>
      <trkpt lat="45.94693" lon="5.83752">
        <ele>256</ele>
        <time>2021-09-12T07:34:53.806Z</time>
      </trkpt>
      <trkpt lat="45.94689" lon="5.83752">
        <ele>256</ele>
        <time>2021-09-12T07:34:54.807Z</time>
      </trkpt>
      <trkpt lat="45.94684" lon="5.83753">
        <ele>256</ele>
        <time>2021-09-12T07:34:55.806Z</time>
      </trkpt>
      <trkpt lat="45.9468" lon="5.83753">
        <ele>255</ele>
        <time>2021-09-12T07:34:56.807Z</time>
      </trkpt>
      <trkpt lat="45.94676" lon="5.83753">
        <ele>255</ele>
        <time>2021-09-12T07:34:57.807Z</time>
      </trkpt>
      <trkpt lat="45.94671" lon="5.83753">
        <ele>255</ele>
        <time>2021-09-12T07:34:58.807Z</time>
      </trkpt>
      <trkpt lat="45.94667" lon="5.83753">
        <ele>255</ele>
        <time>2021-09-12T07:34:59.806Z</time>
      </trkpt>
      <trkpt lat="45.94663" lon="5.83753">
        <ele>255</ele>
        <time>2021-09-12T07:35:00.807Z</time>
      </trkpt>
      <trkpt lat="45.94659" lon="5.83753">
        <ele>255</ele>
        <time>2021-09-12T07:35:01.806Z</time>
      </trkpt>
      <trkpt lat="45.94655" lon="5.83753">
        <ele>256</ele>
        <time>2021-09-12T07:35:02.806Z</time>
      </trkpt>
      <trkpt lat="45.94651" lon="5.83753">
        <ele>256</ele>
        <time>2021-09-12T07:35:03.806Z</time>
      </trkpt>
      <trkpt lat="45.94646" lon="5.83753">
        <ele>256</ele>
        <time>2021-09-12T07:35:04.807Z</time>
      </trkpt>
      <trkpt lat="45.94642" lon="5.83753">
        <ele>256</ele>
        <time>2021-09-12T07:35:05.807Z</time>
      </trkpt>
      <trkpt lat="45.94638" lon="5.83753">
        <ele>256</ele>
        <time>2021-09-12T07:35:06.807Z</time>
      </trkpt>
      <trkpt lat="45.94634" lon="5.83753">
        <ele>256</ele>
        <time>2021-09-12T07:35:07.807Z</time>
      </trkpt>
      <trkpt lat="45.94629" lon="5.83753">
        <ele>256</ele>
        <time>2021-09-12T07:35:08.807Z</time>
      </trkpt>
      <trkpt lat="45.94625" lon="5.83753">
        <ele>255</ele>
        <time>2021-09-12T07:35:09.806Z</time>
      </trkpt>
      <trkpt lat="45.9462" lon="5.83752">
        <ele>255</ele>
        <time>2021-09-12T07:35:10.807Z</time>
      </trkpt>
      <trkpt lat="45.94616" lon="5.83752">
        <ele>255</ele>
        <time>2021-09-12T07:35:11.807Z</time>
      </trkpt>
      <trkpt lat="45.94612" lon="5.83752">
        <ele>255</ele>
        <time>2021-09-12T07:35:12.807Z</time>
      </trkpt>
      <trkpt lat="45.94607" lon="5.83752">
        <ele>255</ele>
        <time>2021-09-12T07:35:13.807Z</time>
      </trkpt>
      <trkpt lat="45.94603" lon="5.83751">
        <ele>255</ele>
        <time>2021-09-12T07:35:14.807Z</time>
      </trkpt>
      <trkpt lat="45.94599" lon="5.83751">
        <ele>255</ele>
        <time>2021-09-12T07:35:15.806Z</time>
      </trkpt>
      <trkpt lat="45.94594" lon="5.83751">
        <ele>255</ele>
        <time>2021-09-12T07:35:16.807Z</time>
      </trkpt>
      <trkpt lat="45.9459" lon="5.8375">
        <ele>255</ele>
        <time>2021-09-12T07:35:17.807Z</time>
      </trkpt>
      <trkpt lat="45.94585" lon="5.83749">
        <ele>255</ele>
        <time>2021-09-12T07:35:18.807Z</time>
      </trkpt>
      <trkpt lat="45.9458" lon="5.83749">
        <ele>254</ele>
        <time>2021-09-12T07:35:19.807Z</time>
      </trkpt>
      <trkpt lat="45.94576" lon="5.83748">
        <ele>254</ele>
        <time>2021-09-12T07:35:20.807Z</time>
      </trkpt>
      <trkpt lat="45.94571" lon="5.83747">
        <ele>254</ele>
        <time>2021-09-12T07:35:21.807Z</time>
      </trkpt>
      <trkpt lat="45.94567" lon="5.83747">
        <ele>254</ele>
        <time>2021-09-12T07:35:22.806Z</time>
      </trkpt>
      <trkpt lat="45.94562" lon="5.83746">
        <ele>255</ele>
        <time>2021-09-12T07:35:23.807Z</time>
      </trkpt>
      <trkpt lat="45.94557" lon="5.83746">
        <ele>255</ele>
        <time>2021-09-12T07:35:24.807Z</time>
      </trkpt>
      <trkpt lat="45.94552" lon="5.83745">
        <ele>255</ele>
        <time>2021-09-12T07:35:25.807Z</time>
      </trkpt>
      <trkpt lat="45.94548" lon="5.83744">
        <ele>255</ele>
        <time>2021-09-12T07:35:26.806Z</time>
      </trkpt>
      <trkpt lat="45.94544" lon="5.83744">
        <ele>255</ele>
        <time>2021-09-12T07:35:27.806Z</time>
      </trkpt>
      <trkpt lat="45.94539" lon="5.83743">
        <ele>254</ele>
        <time>2021-09-12T07:35:28.807Z</time>
      </trkpt>
      <trkpt lat="45.94535" lon="5.83742">
        <ele>254</ele>
        <time>2021-09-12T07:35:29.806Z</time>
      </trkpt>
      <trkpt lat="45.94531" lon="5.83742">
        <ele>254</ele>
        <time>2021-09-12T07:35:30.807Z</time>
      </trkpt>
      <trkpt lat="45.94526" lon="5.83741">
        <ele>254</ele>
        <time>2021-09-12T07:35:31.807Z</time>
      </trkpt>
      <trkpt lat="45.94521" lon="5.83741">
        <ele>253</ele>
        <time>2021-09-12T07:35:32.807Z</time>
      </trkpt>
      <trkpt lat="45.94517" lon="5.8374">
        <ele>253</ele>
        <time>2021-09-12T07:35:33.807Z</time>
      </trkpt>
      <trkpt lat="45.94512" lon="5.8374">
        <ele>253</ele>
        <time>2021-09-12T07:35:34.807Z</time>
      </trkpt>
      <trkpt lat="45.94508" lon="5.83739">
        <ele>254</ele>
        <time>2021-09-12T07:35:35.806Z</time>
      </trkpt>
      <trkpt lat="45.94503" lon="5.83739">
        <ele>254</ele>
        <time>2021-09-12T07:35:36.807Z</time>
      </trkpt>
      <trkpt lat="45.94499" lon="5.83738">
        <ele>255</ele>
        <time>2021-09-12T07:35:37.807Z</time>
      </trkpt>
      <trkpt lat="45.94494" lon="5.83737">
        <ele>255</ele>
        <time>2021-09-12T07:35:38.807Z</time>
      </trkpt>
      <trkpt lat="45.9449" lon="5.83736">
        <ele>256</ele>
        <time>2021-09-12T07:35:39.807Z</time>
      </trkpt>
      <trkpt lat="45.94485" lon="5.83735">
        <ele>256</ele>
        <time>2021-09-12T07:35:40.806Z</time>
      </trkpt>
      <trkpt lat="45.9448" lon="5.83734">
        <ele>256</ele>
        <time>2021-09-12T07:35:41.806Z</time>
      </trkpt>
      <trkpt lat="45.94477" lon="5.83733">
        <ele>256</ele>
        <time>2021-09-12T07:35:42.807Z</time>
      </trkpt>
      <trkpt lat="45.94472" lon="5.83731">
        <ele>256</ele>
        <time>2021-09-12T07:35:43.807Z</time>
      </trkpt>
      <trkpt lat="45.94467" lon="5.83729">
        <ele>256</ele>
        <time>2021-09-12T07:35:44.806Z</time>
      </trkpt>
      <trkpt lat="45.94463" lon="5.83727">
        <ele>255</ele>
        <time>2021-09-12T07:35:45.806Z</time>
      </trkpt>
      <trkpt lat="45.94459" lon="5.83725">
        <ele>255</ele>
        <time>2021-09-12T07:35:46.806Z</time>
      </trkpt>
      <trkpt lat="45.94454" lon="5.83723">
        <ele>255</ele>
        <time>2021-09-12T07:35:47.807Z</time>
      </trkpt>
      <trkpt lat="45.9445" lon="5.83721">
        <ele>255</ele>
        <time>2021-09-12T07:35:48.806Z</time>
      </trkpt>
      <trkpt lat="45.94446" lon="5.83718">
        <ele>255</ele>
        <time>2021-09-12T07:35:49.807Z</time>
      </trkpt>
      <trkpt lat="45.94441" lon="5.83716">
        <ele>255</ele>
        <time>2021-09-12T07:35:50.807Z</time>
      </trkpt>
      <trkpt lat="45.94437" lon="5.83714">
        <ele>255</ele>
        <time>2021-09-12T07:35:51.807Z</time>
      </trkpt>
      <trkpt lat="45.94433" lon="5.83712">
        <ele>256</ele>
        <time>2021-09-12T07:35:52.806Z</time>
      </trkpt>
      <trkpt lat="45.94428" lon="5.8371">
        <ele>256</ele>
        <time>2021-09-12T07:35:53.806Z</time>
      </trkpt>
      <trkpt lat="45.94424" lon="5.83707">
        <ele>255</ele>
        <time>2021-09-12T07:35:54.807Z</time>
      </trkpt>
      <trkpt lat="45.9442" lon="5.83705">
        <ele>255</ele>
        <time>2021-09-12T07:35:55.806Z</time>
      </trkpt>
      <trkpt lat="45.94415" lon="5.83702">
        <ele>255</ele>
        <time>2021-09-12T07:35:56.807Z</time>
      </trkpt>
      <trkpt lat="45.94412" lon="5.837">
        <ele>255</ele>
        <time>2021-09-12T07:35:57.807Z</time>
      </trkpt>
      <trkpt lat="45.94407" lon="5.83697">
        <ele>255</ele>
        <time>2021-09-12T07:35:58.807Z</time>
      </trkpt>
      <trkpt lat="45.94403" lon="5.83695">
        <ele>255</ele>
        <time>2021-09-12T07:35:59.807Z</time>
      </trkpt>
      <trkpt lat="45.94398" lon="5.83693">
        <ele>255</ele>
        <time>2021-09-12T07:36:00.807Z</time>
      </trkpt>
      <trkpt lat="45.94394" lon="5.8369">
        <ele>255</ele>
        <time>2021-09-12T07:36:01.807Z</time>
      </trkpt>
      <trkpt lat="45.9439" lon="5.83688">
        <ele>254</ele>
        <time>2021-09-12T07:36:02.807Z</time>
      </trkpt>
      <trkpt lat="45.94386" lon="5.83686">
        <ele>255</ele>
        <time>2021-09-12T07:36:03.807Z</time>
      </trkpt>
      <trkpt lat="45.94381" lon="5.83683">
        <ele>255</ele>
        <time>2021-09-12T07:36:04.807Z</time>
      </trkpt>
      <trkpt lat="45.94377" lon="5.83681">
        <ele>255</ele>
        <time>2021-09-12T07:36:05.806Z</time>
      </trkpt>
      <trkpt lat="45.94373" lon="5.83678">
        <ele>255</ele>
        <time>2021-09-12T07:36:06.807Z</time>
      </trkpt>
      <trkpt lat="45.94368" lon="5.83675">
        <ele>255</ele>
        <time>2021-09-12T07:36:07.807Z</time>
      </trkpt>
      <trkpt lat="45.94364" lon="5.83673">
        <ele>255</ele>
        <time>2021-09-12T07:36:08.807Z</time>
      </trkpt>
      <trkpt lat="45.9436" lon="5.8367">
        <ele>255</ele>
        <time>2021-09-12T07:36:09.807Z</time>
      </trkpt>
      <trkpt lat="45.94355" lon="5.83667">
        <ele>255</ele>
        <time>2021-09-12T07:36:10.807Z</time>
      </trkpt>
      <trkpt lat="45.94351" lon="5.83663">
        <ele>255</ele>
        <time>2021-09-12T07:36:11.807Z</time>
      </trkpt>
      <trkpt lat="45.94347" lon="5.8366">
        <ele>255</ele>
        <time>2021-09-12T07:36:12.806Z</time>
      </trkpt>
      <trkpt lat="45.94344" lon="5.83656">
        <ele>256</ele>
        <time>2021-09-12T07:36:13.807Z</time>
      </trkpt>
      <trkpt lat="45.9434" lon="5.83653">
        <ele>256</ele>
        <time>2021-09-12T07:36:14.807Z</time>
      </trkpt>
      <trkpt lat="45.94336" lon="5.83649">
        <ele>255</ele>
        <time>2021-09-12T07:36:15.807Z</time>
      </trkpt>
      <trkpt lat="45.94332" lon="5.83645">
        <ele>255</ele>
        <time>2021-09-12T07:36:16.807Z</time>
      </trkpt>
      <trkpt lat="45.94328" lon="5.83641">
        <ele>255</ele>
        <time>2021-09-12T07:36:17.807Z</time>
      </trkpt>
      <trkpt lat="45.94324" lon="5.83637">
        <ele>255</ele>
        <time>2021-09-12T07:36:18.807Z</time>
      </trkpt>
      <trkpt lat="45.94321" lon="5.83632">
        <ele>255</ele>
        <time>2021-09-12T07:36:19.806Z</time>
      </trkpt>
      <trkpt lat="45.94317" lon="5.83628">
        <ele>255</ele>
        <time>2021-09-12T07:36:20.807Z</time>
      </trkpt>
      <trkpt lat="45.94313" lon="5.83624">
        <ele>255</ele>
        <time>2021-09-12T07:36:21.807Z</time>
      </trkpt>
      <trkpt lat="45.94309" lon="5.83619">
        <ele>255</ele>
        <time>2021-09-12T07:36:22.806Z</time>
      </trkpt>
      <trkpt lat="45.94305" lon="5.83615">
        <ele>254</ele>
        <time>2021-09-12T07:36:23.807Z</time>
      </trkpt>
      <trkpt lat="45.94302" lon="5.83611">
        <ele>254</ele>
        <time>2021-09-12T07:36:24.806Z</time>
      </trkpt>
      <trkpt lat="45.94298" lon="5.83607">
        <ele>254</ele>
        <time>2021-09-12T07:36:25.806Z</time>
      </trkpt>
      <trkpt lat="45.94294" lon="5.83602">
        <ele>254</ele>
        <time>2021-09-12T07:36:26.807Z</time>
      </trkpt>
      <trkpt lat="45.9429" lon="5.83598">
        <ele>254</ele>
        <time>2021-09-12T07:36:27.807Z</time>
      </trkpt>
      <trkpt lat="45.94285" lon="5.83595">
        <ele>255</ele>
        <time>2021-09-12T07:36:28.806Z</time>
      </trkpt>
      <trkpt lat="45.94282" lon="5.83591">
        <ele>255</ele>
        <time>2021-09-12T07:36:29.807Z</time>
      </trkpt>
      <trkpt lat="45.94277" lon="5.83587">
        <ele>255</ele>
        <time>2021-09-12T07:36:30.806Z</time>
      </trkpt>
      <trkpt lat="45.94274" lon="5.83584">
        <ele>255</ele>
        <time>2021-09-12T07:36:31.806Z</time>
      </trkpt>
      <trkpt lat="45.9427" lon="5.8358">
        <ele>255</ele>
        <time>2021-09-12T07:36:32.807Z</time>
      </trkpt>
      <trkpt lat="45.94265" lon="5.83575">
        <ele>255</ele>
        <time>2021-09-12T07:36:33.807Z</time>
      </trkpt>
      <trkpt lat="45.9426" lon="5.83571">
        <ele>255</ele>
        <time>2021-09-12T07:36:34.806Z</time>
      </trkpt>
      <trkpt lat="45.94256" lon="5.83567">
        <ele>255</ele>
        <time>2021-09-12T07:36:35.807Z</time>
      </trkpt>
      <trkpt lat="45.94252" lon="5.83564">
        <ele>254</ele>
        <time>2021-09-12T07:36:36.807Z</time>
      </trkpt>
      <trkpt lat="45.94248" lon="5.8356">
        <ele>254</ele>
        <time>2021-09-12T07:36:37.807Z</time>
      </trkpt>
      <trkpt lat="45.94243" lon="5.83557">
        <ele>254</ele>
        <time>2021-09-12T07:36:38.806Z</time>
      </trkpt>
      <trkpt lat="45.94239" lon="5.83553">
        <ele>254</ele>
        <time>2021-09-12T07:36:39.807Z</time>
      </trkpt>
      <trkpt lat="45.94235" lon="5.8355">
        <ele>254</ele>
        <time>2021-09-12T07:36:40.807Z</time>
      </trkpt>
      <trkpt lat="45.9423" lon="5.83547">
        <ele>254</ele>
        <time>2021-09-12T07:36:41.807Z</time>
      </trkpt>
      <trkpt lat="45.94226" lon="5.83543">
        <ele>254</ele>
        <time>2021-09-12T07:36:42.806Z</time>
      </trkpt>
      <trkpt lat="45.94222" lon="5.8354">
        <ele>254</ele>
        <time>2021-09-12T07:36:43.807Z</time>
      </trkpt>
      <trkpt lat="45.94217" lon="5.83537">
        <ele>254</ele>
        <time>2021-09-12T07:36:44.807Z</time>
      </trkpt>
      <trkpt lat="45.94213" lon="5.83534">
        <ele>254</ele>
        <time>2021-09-12T07:36:45.806Z</time>
      </trkpt>
      <trkpt lat="45.94209" lon="5.83531">
        <ele>254</ele>
        <time>2021-09-12T07:36:46.807Z</time>
      </trkpt>
      <trkpt lat="45.94204" lon="5.83528">
        <ele>253</ele>
        <time>2021-09-12T07:36:47.806Z</time>
      </trkpt>
      <trkpt lat="45.942" lon="5.83526">
        <ele>253</ele>
        <time>2021-09-12T07:36:48.807Z</time>
      </trkpt>
      <trkpt lat="45.94196" lon="5.83523">
        <ele>253</ele>
        <time>2021-09-12T07:36:49.806Z</time>
      </trkpt>
      <trkpt lat="45.94191" lon="5.8352">
        <ele>253</ele>
        <time>2021-09-12T07:36:50.807Z</time>
      </trkpt>
      <trkpt lat="45.94187" lon="5.83517">
        <ele>252</ele>
        <time>2021-09-12T07:36:51.807Z</time>
      </trkpt>
      <trkpt lat="45.94183" lon="5.83515">
        <ele>252</ele>
        <time>2021-09-12T07:36:52.807Z</time>
      </trkpt>
      <trkpt lat="45.94179" lon="5.83512">
        <ele>252</ele>
        <time>2021-09-12T07:36:53.806Z</time>
      </trkpt>
      <trkpt lat="45.94174" lon="5.83509">
        <ele>252</ele>
        <time>2021-09-12T07:36:54.807Z</time>
      </trkpt>
      <trkpt lat="45.9417" lon="5.83507">
        <ele>252</ele>
        <time>2021-09-12T07:36:55.807Z</time>
      </trkpt>
      <trkpt lat="45.94166" lon="5.83504">
        <ele>253</ele>
        <time>2021-09-12T07:36:56.807Z</time>
      </trkpt>
      <trkpt lat="45.94162" lon="5.83501">
        <ele>253</ele>
        <time>2021-09-12T07:36:57.807Z</time>
      </trkpt>
      <trkpt lat="45.94157" lon="5.83499">
        <ele>253</ele>
        <time>2021-09-12T07:36:58.806Z</time>
      </trkpt>
      <trkpt lat="45.94153" lon="5.83496">
        <ele>253</ele>
        <time>2021-09-12T07:36:59.806Z</time>
      </trkpt>
      <trkpt lat="45.94148" lon="5.83494">
        <ele>254</ele>
        <time>2021-09-12T07:37:00.807Z</time>
      </trkpt>
      <trkpt lat="45.94144" lon="5.83491">
        <ele>254</ele>
        <time>2021-09-12T07:37:01.806Z</time>
      </trkpt>
      <trkpt lat="45.94139" lon="5.83488">
        <ele>254</ele>
        <time>2021-09-12T07:37:02.807Z</time>
      </trkpt>
      <trkpt lat="45.94134" lon="5.83486">
        <ele>254</ele>
        <time>2021-09-12T07:37:03.807Z</time>
      </trkpt>
      <trkpt lat="45.9413" lon="5.83483">
        <ele>254</ele>
        <time>2021-09-12T07:37:04.807Z</time>
      </trkpt>
      <trkpt lat="45.94125" lon="5.83481">
        <ele>254</ele>
        <time>2021-09-12T07:37:05.807Z</time>
      </trkpt>
      <trkpt lat="45.94121" lon="5.83478">
        <ele>254</ele>
        <time>2021-09-12T07:37:06.807Z</time>
      </trkpt>
      <trkpt lat="45.94116" lon="5.83475">
        <ele>254</ele>
        <time>2021-09-12T07:37:07.807Z</time>
      </trkpt>
      <trkpt lat="45.94111" lon="5.83473">
        <ele>255</ele>
        <time>2021-09-12T07:37:08.807Z</time>
      </trkpt>
      <trkpt lat="45.94107" lon="5.8347">
        <ele>255</ele>
        <time>2021-09-12T07:37:09.807Z</time>
      </trkpt>
      <trkpt lat="45.94102" lon="5.83468">
        <ele>255</ele>
        <time>2021-09-12T07:37:10.807Z</time>
      </trkpt>
      <trkpt lat="45.94097" lon="5.83466">
        <ele>256</ele>
        <time>2021-09-12T07:37:11.807Z</time>
      </trkpt>
      <trkpt lat="45.94093" lon="5.83464">
        <ele>256</ele>
        <time>2021-09-12T07:37:12.806Z</time>
      </trkpt>
      <trkpt lat="45.94088" lon="5.83461">
        <ele>256</ele>
        <time>2021-09-12T07:37:13.807Z</time>
      </trkpt>
      <trkpt lat="45.94083" lon="5.83459">
        <ele>256</ele>
        <time>2021-09-12T07:37:14.807Z</time>
      </trkpt>
      <trkpt lat="45.94078" lon="5.83457">
        <ele>256</ele>
        <time>2021-09-12T07:37:15.807Z</time>
      </trkpt>
      <trkpt lat="45.94074" lon="5.83455">
        <ele>256</ele>
        <time>2021-09-12T07:37:16.807Z</time>
      </trkpt>
      <trkpt lat="45.9407" lon="5.83453">
        <ele>256</ele>
        <time>2021-09-12T07:37:17.807Z</time>
      </trkpt>
      <trkpt lat="45.94065" lon="5.8345">
        <ele>256</ele>
        <time>2021-09-12T07:37:18.807Z</time>
      </trkpt>
      <trkpt lat="45.94059" lon="5.83447">
        <ele>256</ele>
        <time>2021-09-12T07:37:19.807Z</time>
      </trkpt>
      <trkpt lat="45.94055" lon="5.83444">
        <ele>256</ele>
        <time>2021-09-12T07:37:20.807Z</time>
      </trkpt>
      <trkpt lat="45.9405" lon="5.83441">
        <ele>256</ele>
        <time>2021-09-12T07:37:21.807Z</time>
      </trkpt>
      <trkpt lat="45.94047" lon="5.83439">
        <ele>256</ele>
        <time>2021-09-12T07:37:22.807Z</time>
      </trkpt>
      <trkpt lat="45.94042" lon="5.83437">
        <ele>256</ele>
        <time>2021-09-12T07:37:23.806Z</time>
      </trkpt>
      <trkpt lat="45.94037" lon="5.83434">
        <ele>256</ele>
        <time>2021-09-12T07:37:24.807Z</time>
      </trkpt>
      <trkpt lat="45.94033" lon="5.83432">
        <ele>255</ele>
        <time>2021-09-12T07:37:25.807Z</time>
      </trkpt>
      <trkpt lat="45.94028" lon="5.8343">
        <ele>255</ele>
        <time>2021-09-12T07:37:26.807Z</time>
      </trkpt>
      <trkpt lat="45.94024" lon="5.83428">
        <ele>255</ele>
        <time>2021-09-12T07:37:27.806Z</time>
      </trkpt>
      <trkpt lat="45.94019" lon="5.83426">
        <ele>255</ele>
        <time>2021-09-12T07:37:28.806Z</time>
      </trkpt>
      <trkpt lat="45.94015" lon="5.83424">
        <ele>255</ele>
        <time>2021-09-12T07:37:29.806Z</time>
      </trkpt>
      <trkpt lat="45.94011" lon="5.83421">
        <ele>254</ele>
        <time>2021-09-12T07:37:30.807Z</time>
      </trkpt>
      <trkpt lat="45.94006" lon="5.8342">
        <ele>255</ele>
        <time>2021-09-12T07:37:31.807Z</time>
      </trkpt>
      <trkpt lat="45.94003" lon="5.83418">
        <ele>255</ele>
        <time>2021-09-12T07:37:32.807Z</time>
      </trkpt>
      <trkpt lat="45.93998" lon="5.83416">
        <ele>255</ele>
        <time>2021-09-12T07:37:33.807Z</time>
      </trkpt>
      <trkpt lat="45.93993" lon="5.83414">
        <ele>255</ele>
        <time>2021-09-12T07:37:34.807Z</time>
      </trkpt>
      <trkpt lat="45.93988" lon="5.83412">
        <ele>255</ele>
        <time>2021-09-12T07:37:35.807Z</time>
      </trkpt>
      <trkpt lat="45.93984" lon="5.8341">
        <ele>255</ele>
        <time>2021-09-12T07:37:36.807Z</time>
      </trkpt>
      <trkpt lat="45.93979" lon="5.83408">
        <ele>255</ele>
        <time>2021-09-12T07:37:37.807Z</time>
      </trkpt>
      <trkpt lat="45.93976" lon="5.83406">
        <ele>255</ele>
        <time>2021-09-12T07:37:38.806Z</time>
      </trkpt>
      <trkpt lat="45.9397" lon="5.83404">
        <ele>255</ele>
        <time>2021-09-12T07:37:39.806Z</time>
      </trkpt>
      <trkpt lat="45.93966" lon="5.83402">
        <ele>255</ele>
        <time>2021-09-12T07:37:40.806Z</time>
      </trkpt>
      <trkpt lat="45.93961" lon="5.834">
        <ele>255</ele>
        <time>2021-09-12T07:37:41.807Z</time>
      </trkpt>
      <trkpt lat="45.93957" lon="5.83398">
        <ele>255</ele>
        <time>2021-09-12T07:37:42.807Z</time>
      </trkpt>
      <trkpt lat="45.93952" lon="5.83396">
        <ele>255</ele>
        <time>2021-09-12T07:37:43.807Z</time>
      </trkpt>
      <trkpt lat="45.93947" lon="5.83394">
        <ele>255</ele>
        <time>2021-09-12T07:37:44.806Z</time>
      </trkpt>
      <trkpt lat="45.93942" lon="5.83392">
        <ele>255</ele>
        <time>2021-09-12T07:37:45.807Z</time>
      </trkpt>
      <trkpt lat="45.93937" lon="5.8339">
        <ele>255</ele>
        <time>2021-09-12T07:37:46.807Z</time>
      </trkpt>
      <trkpt lat="45.93934" lon="5.83389">
        <ele>255</ele>
        <time>2021-09-12T07:37:47.807Z</time>
      </trkpt>
      <trkpt lat="45.93929" lon="5.83387">
        <ele>255</ele>
        <time>2021-09-12T07:37:48.806Z</time>
      </trkpt>
      <trkpt lat="45.93923" lon="5.83385">
        <ele>255</ele>
        <time>2021-09-12T07:37:49.807Z</time>
      </trkpt>
      <trkpt lat="45.93919" lon="5.83383">
        <ele>255</ele>
        <time>2021-09-12T07:37:50.807Z</time>
      </trkpt>
      <trkpt lat="45.93914" lon="5.83382">
        <ele>255</ele>
        <time>2021-09-12T07:37:51.807Z</time>
      </trkpt>
      <trkpt lat="45.9391" lon="5.8338">
        <ele>255</ele>
        <time>2021-09-12T07:37:52.806Z</time>
      </trkpt>
      <trkpt lat="45.93906" lon="5.83378">
        <ele>255</ele>
        <time>2021-09-12T07:37:53.807Z</time>
      </trkpt>
      <trkpt lat="45.93901" lon="5.83377">
        <ele>255</ele>
        <time>2021-09-12T07:37:54.807Z</time>
      </trkpt>
      <trkpt lat="45.93895" lon="5.83374">
        <ele>255</ele>
        <time>2021-09-12T07:37:55.806Z</time>
      </trkpt>
      <trkpt lat="45.9389" lon="5.83372">
        <ele>254</ele>
        <time>2021-09-12T07:37:56.807Z</time>
      </trkpt>
      <trkpt lat="45.93886" lon="5.83371">
        <ele>254</ele>
        <time>2021-09-12T07:37:57.807Z</time>
      </trkpt>
      <trkpt lat="45.93882" lon="5.83369">
        <ele>254</ele>
        <time>2021-09-12T07:37:58.807Z</time>
      </trkpt>
      <trkpt lat="45.93877" lon="5.83368">
        <ele>254</ele>
        <time>2021-09-12T07:37:59.806Z</time>
      </trkpt>
      <trkpt lat="45.93871" lon="5.83366">
        <ele>253</ele>
        <time>2021-09-12T07:38:00.806Z</time>
      </trkpt>
      <trkpt lat="45.93866" lon="5.83364">
        <ele>253</ele>
        <time>2021-09-12T07:38:01.806Z</time>
      </trkpt>
      <trkpt lat="45.93861" lon="5.83362">
        <ele>253</ele>
        <time>2021-09-12T07:38:02.807Z</time>
      </trkpt>
      <trkpt lat="45.93857" lon="5.83361">
        <ele>253</ele>
        <time>2021-09-12T07:38:03.806Z</time>
      </trkpt>
      <trkpt lat="45.93852" lon="5.83359">
        <ele>253</ele>
        <time>2021-09-12T07:38:04.807Z</time>
      </trkpt>
      <trkpt lat="45.93846" lon="5.83357">
        <ele>253</ele>
        <time>2021-09-12T07:38:05.806Z</time>
      </trkpt>
      <trkpt lat="45.93841" lon="5.83356">
        <ele>253</ele>
        <time>2021-09-12T07:38:06.807Z</time>
      </trkpt>
      <trkpt lat="45.93836" lon="5.83354">
        <ele>253</ele>
        <time>2021-09-12T07:38:07.807Z</time>
      </trkpt>
      <trkpt lat="45.93832" lon="5.83353">
        <ele>254</ele>
        <time>2021-09-12T07:38:08.806Z</time>
      </trkpt>
      <trkpt lat="45.93827" lon="5.83351">
        <ele>254</ele>
        <time>2021-09-12T07:38:09.806Z</time>
      </trkpt>
      <trkpt lat="45.93822" lon="5.8335">
        <ele>254</ele>
        <time>2021-09-12T07:38:10.806Z</time>
      </trkpt>
      <trkpt lat="45.93817" lon="5.83348">
        <ele>254</ele>
        <time>2021-09-12T07:38:11.807Z</time>
      </trkpt>
      <trkpt lat="45.93812" lon="5.83347">
        <ele>254</ele>
        <time>2021-09-12T07:38:12.807Z</time>
      </trkpt>
      <trkpt lat="45.93807" lon="5.83345">
        <ele>254</ele>
        <time>2021-09-12T07:38:13.807Z</time>
      </trkpt>
      <trkpt lat="45.93803" lon="5.83344">
        <ele>254</ele>
        <time>2021-09-12T07:38:14.807Z</time>
      </trkpt>
      <trkpt lat="45.93797" lon="5.83342">
        <ele>254</ele>
        <time>2021-09-12T07:38:15.806Z</time>
      </trkpt>
      <trkpt lat="45.93793" lon="5.83341">
        <ele>254</ele>
        <time>2021-09-12T07:38:16.807Z</time>
      </trkpt>
      <trkpt lat="45.93788" lon="5.8334">
        <ele>254</ele>
        <time>2021-09-12T07:38:17.806Z</time>
      </trkpt>
      <trkpt lat="45.93784" lon="5.83339">
        <ele>254</ele>
        <time>2021-09-12T07:38:18.806Z</time>
      </trkpt>
      <trkpt lat="45.93779" lon="5.83338">
        <ele>254</ele>
        <time>2021-09-12T07:38:19.806Z</time>
      </trkpt>
      <trkpt lat="45.93773" lon="5.83336">
        <ele>255</ele>
        <time>2021-09-12T07:38:20.807Z</time>
      </trkpt>
      <trkpt lat="45.93768" lon="5.83334">
        <ele>254</ele>
        <time>2021-09-12T07:38:21.807Z</time>
      </trkpt>
      <trkpt lat="45.93764" lon="5.83333">
        <ele>254</ele>
        <time>2021-09-12T07:38:22.806Z</time>
      </trkpt>
      <trkpt lat="45.9376" lon="5.83332">
        <ele>255</ele>
        <time>2021-09-12T07:38:23.807Z</time>
      </trkpt>
      <trkpt lat="45.93755" lon="5.83331">
        <ele>255</ele>
        <time>2021-09-12T07:38:24.807Z</time>
      </trkpt>
      <trkpt lat="45.93749" lon="5.83329">
        <ele>255</ele>
        <time>2021-09-12T07:38:25.806Z</time>
      </trkpt>
      <trkpt lat="45.93745" lon="5.83328">
        <ele>255</ele>
        <time>2021-09-12T07:38:26.806Z</time>
      </trkpt>
      <trkpt lat="45.9374" lon="5.83327">
        <ele>255</ele>
        <time>2021-09-12T07:38:27.807Z</time>
      </trkpt>
      <trkpt lat="45.93735" lon="5.83327">
        <ele>255</ele>
        <time>2021-09-12T07:38:28.807Z</time>
      </trkpt>
      <trkpt lat="45.93731" lon="5.83326">
        <ele>256</ele>
        <time>2021-09-12T07:38:29.807Z</time>
      </trkpt>
      <trkpt lat="45.93725" lon="5.83325">
        <ele>256</ele>
        <time>2021-09-12T07:38:30.806Z</time>
      </trkpt>
      <trkpt lat="45.9372" lon="5.83325">
        <ele>256</ele>
        <time>2021-09-12T07:38:31.807Z</time>
      </trkpt>
      <trkpt lat="45.93715" lon="5.83325">
        <ele>257</ele>
        <time>2021-09-12T07:38:32.807Z</time>
      </trkpt>
      <trkpt lat="45.93711" lon="5.83325">
        <ele>258</ele>
        <time>2021-09-12T07:38:33.807Z</time>
      </trkpt>
      <trkpt lat="45.93706" lon="5.83325">
        <ele>258</ele>
        <time>2021-09-12T07:38:34.806Z</time>
      </trkpt>
      <trkpt lat="45.937" lon="5.83325">
        <ele>258</ele>
        <time>2021-09-12T07:38:35.807Z</time>
      </trkpt>
      <trkpt lat="45.93696" lon="5.83325">
        <ele>258</ele>
        <time>2021-09-12T07:38:36.807Z</time>
      </trkpt>
      <trkpt lat="45.93691" lon="5.83325">
        <ele>258</ele>
        <time>2021-09-12T07:38:37.806Z</time>
      </trkpt>
      <trkpt lat="45.93687" lon="5.83326">
        <ele>258</ele>
        <time>2021-09-12T07:38:38.806Z</time>
      </trkpt>
      <trkpt lat="45.93682" lon="5.83327">
        <ele>258</ele>
        <time>2021-09-12T07:38:39.807Z</time>
      </trkpt>
      <trkpt lat="45.93676" lon="5.83329">
        <ele>258</ele>
        <time>2021-09-12T07:38:40.806Z</time>
      </trkpt>
      <trkpt lat="45.93671" lon="5.8333">
        <ele>258</ele>
        <time>2021-09-12T07:38:41.807Z</time>
      </trkpt>
      <trkpt lat="45.93666" lon="5.83332">
        <ele>258</ele>
        <time>2021-09-12T07:38:42.807Z</time>
      </trkpt>
      <trkpt lat="45.93662" lon="5.83333">
        <ele>259</ele>
        <time>2021-09-12T07:38:43.807Z</time>
      </trkpt>
      <trkpt lat="45.93657" lon="5.83335">
        <ele>259</ele>
        <time>2021-09-12T07:38:44.807Z</time>
      </trkpt>
      <trkpt lat="45.93652" lon="5.83337">
        <ele>259</ele>
        <time>2021-09-12T07:38:45.806Z</time>
      </trkpt>
      <trkpt lat="45.93646" lon="5.8334">
        <ele>259</ele>
        <time>2021-09-12T07:38:46.807Z</time>
      </trkpt>
      <trkpt lat="45.93642" lon="5.83342">
        <ele>259</ele>
        <time>2021-09-12T07:38:47.807Z</time>
      </trkpt>
      <trkpt lat="45.93638" lon="5.83345">
        <ele>259</ele>
        <time>2021-09-12T07:38:48.807Z</time>
      </trkpt>
      <trkpt lat="45.93633" lon="5.83347">
        <ele>259</ele>
        <time>2021-09-12T07:38:49.807Z</time>
      </trkpt>
      <trkpt lat="45.93629" lon="5.8335">
        <ele>259</ele>
        <time>2021-09-12T07:38:50.807Z</time>
      </trkpt>
      <trkpt lat="45.93623" lon="5.83354">
        <ele>259</ele>
        <time>2021-09-12T07:38:51.806Z</time>
      </trkpt>
      <trkpt lat="45.93618" lon="5.83357">
        <ele>259</ele>
        <time>2021-09-12T07:38:52.807Z</time>
      </trkpt>
      <trkpt lat="45.93614" lon="5.83361">
        <ele>259</ele>
        <time>2021-09-12T07:38:53.807Z</time>
      </trkpt>
      <trkpt lat="45.9361" lon="5.83363">
        <ele>260</ele>
        <time>2021-09-12T07:38:54.806Z</time>
      </trkpt>
      <trkpt lat="45.93606" lon="5.83367">
        <ele>260</ele>
        <time>2021-09-12T07:38:55.807Z</time>
      </trkpt>
      <trkpt lat="45.936" lon="5.8337">
        <ele>260</ele>
        <time>2021-09-12T07:38:56.807Z</time>
      </trkpt>
      <trkpt lat="45.93596" lon="5.83374">
        <ele>259</ele>
        <time>2021-09-12T07:38:57.807Z</time>
      </trkpt>
      <trkpt lat="45.93592" lon="5.83376">
        <ele>259</ele>
        <time>2021-09-12T07:38:58.807Z</time>
      </trkpt>
      <trkpt lat="45.93588" lon="5.83379">
        <ele>259</ele>
        <time>2021-09-12T07:38:59.807Z</time>
      </trkpt>
      <trkpt lat="45.93583" lon="5.83382">
        <ele>258</ele>
        <time>2021-09-12T07:39:00.807Z</time>
      </trkpt>
      <trkpt lat="45.93578" lon="5.83386">
        <ele>258</ele>
        <time>2021-09-12T07:39:01.807Z</time>
      </trkpt>
      <trkpt lat="45.93574" lon="5.83389">
        <ele>259</ele>
        <time>2021-09-12T07:39:02.806Z</time>
      </trkpt>
      <trkpt lat="45.9357" lon="5.83392">
        <ele>259</ele>
        <time>2021-09-12T07:39:03.806Z</time>
      </trkpt>
      <trkpt lat="45.93567" lon="5.83395">
        <ele>259</ele>
        <time>2021-09-12T07:39:04.807Z</time>
      </trkpt>
      <trkpt lat="45.93563" lon="5.83398">
        <ele>259</ele>
        <time>2021-09-12T07:39:05.807Z</time>
      </trkpt>
      <trkpt lat="45.93558" lon="5.83402">
        <ele>260</ele>
        <time>2021-09-12T07:39:06.807Z</time>
      </trkpt>
      <trkpt lat="45.93554" lon="5.83406">
        <ele>260</ele>
        <time>2021-09-12T07:39:07.807Z</time>
      </trkpt>
      <trkpt lat="45.9355" lon="5.8341">
        <ele>260</ele>
        <time>2021-09-12T07:39:08.806Z</time>
      </trkpt>
      <trkpt lat="45.93547" lon="5.83413">
        <ele>260</ele>
        <time>2021-09-12T07:39:09.806Z</time>
      </trkpt>
      <trkpt lat="45.93543" lon="5.83417">
        <ele>260</ele>
        <time>2021-09-12T07:39:10.807Z</time>
      </trkpt>
      <trkpt lat="45.93539" lon="5.83422">
        <ele>260</ele>
        <time>2021-09-12T07:39:11.806Z</time>
      </trkpt>
      <trkpt lat="45.93535" lon="5.83426">
        <ele>260</ele>
        <time>2021-09-12T07:39:12.807Z</time>
      </trkpt>
      <trkpt lat="45.93531" lon="5.8343">
        <ele>259</ele>
        <time>2021-09-12T07:39:13.807Z</time>
      </trkpt>
      <trkpt lat="45.93528" lon="5.83433">
        <ele>260</ele>
        <time>2021-09-12T07:39:14.806Z</time>
      </trkpt>
      <trkpt lat="45.93525" lon="5.83437">
        <ele>260</ele>
        <time>2021-09-12T07:39:15.807Z</time>
      </trkpt>
      <trkpt lat="45.9352" lon="5.83441">
        <ele>259</ele>
        <time>2021-09-12T07:39:16.807Z</time>
      </trkpt>
      <trkpt lat="45.93517" lon="5.83445">
        <ele>259</ele>
        <time>2021-09-12T07:39:17.807Z</time>
      </trkpt>
      <trkpt lat="45.93513" lon="5.83448">
        <ele>259</ele>
        <time>2021-09-12T07:39:18.807Z</time>
      </trkpt>
      <trkpt lat="45.93509" lon="5.83452">
        <ele>259</ele>
        <time>2021-09-12T07:39:19.807Z</time>
      </trkpt>
      <trkpt lat="45.93506" lon="5.83455">
        <ele>260</ele>
        <time>2021-09-12T07:39:20.807Z</time>
      </trkpt>
      <trkpt lat="45.93503" lon="5.8346">
        <ele>260</ele>
        <time>2021-09-12T07:39:21.807Z</time>
      </trkpt>
      <trkpt lat="45.935" lon="5.83466">
        <ele>259</ele>
        <time>2021-09-12T07:39:22.807Z</time>
      </trkpt>
      <trkpt lat="45.93498" lon="5.83471">
        <ele>259</ele>
        <time>2021-09-12T07:39:23.807Z</time>
      </trkpt>
      <trkpt lat="45.93496" lon="5.83477">
        <ele>258</ele>
        <time>2021-09-12T07:39:24.807Z</time>
      </trkpt>
      <trkpt lat="45.93495" lon="5.83482">
        <ele>258</ele>
        <time>2021-09-12T07:39:25.807Z</time>
      </trkpt>
      <trkpt lat="45.93492" lon="5.83489">
        <ele>258</ele>
        <time>2021-09-12T07:39:26.806Z</time>
      </trkpt>
      <trkpt lat="45.9349" lon="5.83494">
        <ele>258</ele>
        <time>2021-09-12T07:39:27.807Z</time>
      </trkpt>
      <trkpt lat="45.93487" lon="5.83499">
        <ele>258</ele>
        <time>2021-09-12T07:39:28.807Z</time>
      </trkpt>
      <trkpt lat="45.93484" lon="5.83504">
        <ele>258</ele>
        <time>2021-09-12T07:39:29.807Z</time>
      </trkpt>
      <trkpt lat="45.93481" lon="5.83508">
        <ele>258</ele>
        <time>2021-09-12T07:39:30.806Z</time>
      </trkpt>
      <trkpt lat="45.93477" lon="5.83512">
        <ele>257</ele>
        <time>2021-09-12T07:39:31.806Z</time>
      </trkpt>
      <trkpt lat="45.93473" lon="5.83515">
        <ele>257</ele>
        <time>2021-09-12T07:39:32.807Z</time>
      </trkpt>
      <trkpt lat="45.93469" lon="5.83517">
        <ele>257</ele>
        <time>2021-09-12T07:39:33.807Z</time>
      </trkpt>
      <trkpt lat="45.93464" lon="5.83518">
        <ele>257</ele>
        <time>2021-09-12T07:39:34.807Z</time>
      </trkpt>
      <trkpt lat="45.9346" lon="5.83519">
        <ele>256</ele>
        <time>2021-09-12T07:39:35.807Z</time>
      </trkpt>
      <trkpt lat="45.93455" lon="5.8352">
        <ele>256</ele>
        <time>2021-09-12T07:39:36.806Z</time>
      </trkpt>
      <trkpt lat="45.93451" lon="5.83523">
        <ele>256</ele>
        <time>2021-09-12T07:39:37.807Z</time>
      </trkpt>
      <trkpt lat="45.93449" lon="5.83526">
        <ele>256</ele>
        <time>2021-09-12T07:39:38.807Z</time>
      </trkpt>
      <trkpt lat="45.93448" lon="5.8353">
        <ele>256</ele>
        <time>2021-09-12T07:39:39.807Z</time>
      </trkpt>
      <trkpt lat="45.93448" lon="5.83535">
        <ele>256</ele>
        <time>2021-09-12T07:39:40.807Z</time>
      </trkpt>
      <trkpt lat="45.93448" lon="5.83541">
        <ele>256</ele>
        <time>2021-09-12T07:39:41.807Z</time>
      </trkpt>
      <trkpt lat="45.93448" lon="5.83548">
        <ele>256</ele>
        <time>2021-09-12T07:39:42.807Z</time>
      </trkpt>
      <trkpt lat="45.93449" lon="5.83553">
        <ele>257</ele>
        <time>2021-09-12T07:39:43.807Z</time>
      </trkpt>
      <trkpt lat="45.93449" lon="5.83558">
        <ele>257</ele>
        <time>2021-09-12T07:39:44.806Z</time>
      </trkpt>
      <trkpt lat="45.93449" lon="5.83563">
        <ele>257</ele>
        <time>2021-09-12T07:39:45.807Z</time>
      </trkpt>
      <trkpt lat="45.93449" lon="5.83568">
        <ele>257</ele>
        <time>2021-09-12T07:39:46.807Z</time>
      </trkpt>
      <trkpt lat="45.93449" lon="5.83574">
        <ele>257</ele>
        <time>2021-09-12T07:39:47.807Z</time>
      </trkpt>
      <trkpt lat="45.9345" lon="5.8358">
        <ele>258</ele>
        <time>2021-09-12T07:39:48.807Z</time>
      </trkpt>
      <trkpt lat="45.9345" lon="5.83584">
        <ele>258</ele>
        <time>2021-09-12T07:39:49.807Z</time>
      </trkpt>
      <trkpt lat="45.9345" lon="5.83589">
        <ele>259</ele>
        <time>2021-09-12T07:39:50.807Z</time>
      </trkpt>
      <trkpt lat="45.93451" lon="5.83594">
        <ele>259</ele>
        <time>2021-09-12T07:39:51.807Z</time>
      </trkpt>
      <trkpt lat="45.93451" lon="5.836">
        <ele>259</ele>
        <time>2021-09-12T07:39:52.807Z</time>
      </trkpt>
      <trkpt lat="45.93451" lon="5.83606">
        <ele>259</ele>
        <time>2021-09-12T07:39:53.807Z</time>
      </trkpt>
      <trkpt lat="45.93452" lon="5.8361">
        <ele>259</ele>
        <time>2021-09-12T07:39:54.807Z</time>
      </trkpt>
      <trkpt lat="45.93452" lon="5.83615">
        <ele>259</ele>
        <time>2021-09-12T07:39:55.806Z</time>
      </trkpt>
      <trkpt lat="45.93453" lon="5.8362">
        <ele>259</ele>
        <time>2021-09-12T07:39:56.806Z</time>
      </trkpt>
      <trkpt lat="45.93453" lon="5.83627">
        <ele>259</ele>
        <time>2021-09-12T07:39:57.806Z</time>
      </trkpt>
      <trkpt lat="45.93453" lon="5.83632">
        <ele>259</ele>
        <time>2021-09-12T07:39:58.806Z</time>
      </trkpt>
      <trkpt lat="45.93453" lon="5.83635">
        <ele>258</ele>
        <time>2021-09-12T07:39:59.807Z</time>
      </trkpt>
      <trkpt lat="45.93453" lon="5.8364">
        <ele>259</ele>
        <time>2021-09-12T07:40:00.807Z</time>
      </trkpt>
      <trkpt lat="45.93453" lon="5.83645">
        <ele>259</ele>
        <time>2021-09-12T07:40:01.807Z</time>
      </trkpt>
      <trkpt lat="45.93453" lon="5.8365">
        <ele>259</ele>
        <time>2021-09-12T07:40:02.807Z</time>
      </trkpt>
      <trkpt lat="45.93453" lon="5.83655">
        <ele>259</ele>
        <time>2021-09-12T07:40:03.807Z</time>
      </trkpt>
      <trkpt lat="45.93453" lon="5.83659">
        <ele>259</ele>
        <time>2021-09-12T07:40:04.807Z</time>
      </trkpt>
      <trkpt lat="45.93452" lon="5.83662">
        <ele>259</ele>
        <time>2021-09-12T07:40:05.806Z</time>
      </trkpt>
      <trkpt lat="45.93452" lon="5.83665">
        <ele>259</ele>
        <time>2021-09-12T07:40:06.807Z</time>
      </trkpt>
      <trkpt lat="45.9345" lon="5.83668">
        <ele>259</ele>
        <time>2021-09-12T07:40:07.807Z</time>
      </trkpt>
      <trkpt lat="45.93448" lon="5.8367">
        <ele>259</ele>
        <time>2021-09-12T07:40:08.806Z</time>
      </trkpt>
      <trkpt lat="45.93446" lon="5.83671">
        <ele>258</ele>
        <time>2021-09-12T07:40:09.807Z</time>
      </trkpt>
      <trkpt lat="45.93444" lon="5.83672">
        <ele>258</ele>
        <time>2021-09-12T07:40:10.807Z</time>
      </trkpt>
      <trkpt lat="45.93441" lon="5.83672">
        <ele>258</ele>
        <time>2021-09-12T07:40:11.807Z</time>
      </trkpt>
      <trkpt lat="45.93437" lon="5.83672">
        <ele>257</ele>
        <time>2021-09-12T07:40:12.807Z</time>
      </trkpt>
      <trkpt lat="45.93434" lon="5.83673">
        <ele>257</ele>
        <time>2021-09-12T07:40:13.807Z</time>
      </trkpt>
      <trkpt lat="45.9343" lon="5.83673">
        <ele>257</ele>
        <time>2021-09-12T07:40:14.806Z</time>
      </trkpt>
      <trkpt lat="45.93427" lon="5.83673">
        <ele>257</ele>
        <time>2021-09-12T07:40:15.807Z</time>
      </trkpt>
      <trkpt lat="45.93424" lon="5.83673">
        <ele>257</ele>
        <time>2021-09-12T07:40:16.807Z</time>
      </trkpt>
      <trkpt lat="45.9342" lon="5.83673">
        <ele>257</ele>
        <time>2021-09-12T07:40:17.807Z</time>
      </trkpt>
      <trkpt lat="45.93416" lon="5.83674">
        <ele>256</ele>
        <time>2021-09-12T07:40:18.807Z</time>
      </trkpt>
      <trkpt lat="45.93412" lon="5.83674">
        <ele>256</ele>
        <time>2021-09-12T07:40:19.806Z</time>
      </trkpt>
      <trkpt lat="45.9341" lon="5.83674">
        <ele>256</ele>
        <time>2021-09-12T07:40:20.807Z</time>
      </trkpt>
      <trkpt lat="45.93406" lon="5.83674">
        <ele>256</ele>
        <time>2021-09-12T07:40:21.807Z</time>
      </trkpt>
      <trkpt lat="45.93402" lon="5.83674">
        <ele>256</ele>
        <time>2021-09-12T07:40:22.807Z</time>
      </trkpt>
      <trkpt lat="45.93399" lon="5.83674">
        <ele>256</ele>
        <time>2021-09-12T07:40:23.806Z</time>
      </trkpt>
      <trkpt lat="45.93395" lon="5.83674">
        <ele>255</ele>
        <time>2021-09-12T07:40:24.806Z</time>
      </trkpt>
      <trkpt lat="45.93392" lon="5.83674">
        <ele>255</ele>
        <time>2021-09-12T07:40:25.807Z</time>
      </trkpt>
      <trkpt lat="45.93389" lon="5.83674">
        <ele>255</ele>
        <time>2021-09-12T07:40:26.806Z</time>
      </trkpt>
      <trkpt lat="45.93386" lon="5.83675">
        <ele>255</ele>
        <time>2021-09-12T07:40:27.806Z</time>
      </trkpt>
      <trkpt lat="45.93383" lon="5.83675">
        <ele>255</ele>
        <time>2021-09-12T07:40:28.807Z</time>
      </trkpt>
      <trkpt lat="45.93379" lon="5.83675">
        <ele>255</ele>
        <time>2021-09-12T07:40:29.807Z</time>
      </trkpt>
      <trkpt lat="45.93376" lon="5.83675">
        <ele>255</ele>
        <time>2021-09-12T07:40:30.807Z</time>
      </trkpt>
      <trkpt lat="45.93373" lon="5.83675">
        <ele>255</ele>
        <time>2021-09-12T07:40:31.807Z</time>
      </trkpt>
      <trkpt lat="45.93369" lon="5.83676">
        <ele>255</ele>
        <time>2021-09-12T07:40:32.807Z</time>
      </trkpt>
      <trkpt lat="45.93366" lon="5.83676">
        <ele>255</ele>
        <time>2021-09-12T07:40:33.807Z</time>
      </trkpt>
      <trkpt lat="45.93363" lon="5.83676">
        <ele>256</ele>
        <time>2021-09-12T07:40:34.807Z</time>
      </trkpt>
      <trkpt lat="45.9336" lon="5.83676">
        <ele>256</ele>
        <time>2021-09-12T07:40:35.807Z</time>
      </trkpt>
      <trkpt lat="45.93357" lon="5.83677">
        <ele>256</ele>
        <time>2021-09-12T07:40:36.807Z</time>
      </trkpt>
      <trkpt lat="45.93353" lon="5.83677">
        <ele>257</ele>
        <time>2021-09-12T07:40:37.807Z</time>
      </trkpt>
      <trkpt lat="45.9335" lon="5.83677">
        <ele>257</ele>
        <time>2021-09-12T07:40:38.807Z</time>
      </trkpt>
      <trkpt lat="45.93346" lon="5.83677">
        <ele>257</ele>
        <time>2021-09-12T07:40:39.807Z</time>
      </trkpt>
      <trkpt lat="45.93343" lon="5.83677">
        <ele>257</ele>
        <time>2021-09-12T07:40:40.807Z</time>
      </trkpt>
      <trkpt lat="45.9334" lon="5.83678">
        <ele>257</ele>
        <time>2021-09-12T07:40:41.806Z</time>
      </trkpt>
      <trkpt lat="45.93337" lon="5.83678">
        <ele>258</ele>
        <time>2021-09-12T07:40:42.806Z</time>
      </trkpt>
      <trkpt lat="45.93333" lon="5.83678">
        <ele>258</ele>
        <time>2021-09-12T07:40:43.807Z</time>
      </trkpt>
      <trkpt lat="45.9333" lon="5.83678">
        <ele>258</ele>
        <time>2021-09-12T07:40:44.807Z</time>
      </trkpt>
      <trkpt lat="45.93327" lon="5.83678">
        <ele>258</ele>
        <time>2021-09-12T07:40:45.806Z</time>
      </trkpt>
      <trkpt lat="45.93324" lon="5.83678">
        <ele>258</ele>
        <time>2021-09-12T07:40:46.807Z</time>
      </trkpt>
      <trkpt lat="45.93321" lon="5.83677">
        <ele>259</ele>
        <time>2021-09-12T07:40:47.806Z</time>
      </trkpt>
      <trkpt lat="45.93318" lon="5.83677">
        <ele>259</ele>
        <time>2021-09-12T07:40:48.807Z</time>
      </trkpt>
      <trkpt lat="45.93315" lon="5.83676">
        <ele>259</ele>
        <time>2021-09-12T07:40:49.806Z</time>
      </trkpt>
      <trkpt lat="45.93312" lon="5.83675">
        <ele>259</ele>
        <time>2021-09-12T07:40:50.807Z</time>
      </trkpt>
      <trkpt lat="45.93309" lon="5.83674">
        <ele>260</ele>
        <time>2021-09-12T07:40:51.806Z</time>
      </trkpt>
      <trkpt lat="45.93305" lon="5.83673">
        <ele>260</ele>
        <time>2021-09-12T07:40:52.807Z</time>
      </trkpt>
      <trkpt lat="45.93302" lon="5.83672">
        <ele>260</ele>
        <time>2021-09-12T07:40:53.807Z</time>
      </trkpt>
      <trkpt lat="45.93299" lon="5.8367">
        <ele>260</ele>
        <time>2021-09-12T07:40:54.807Z</time>
      </trkpt>
      <trkpt lat="45.93296" lon="5.83669">
        <ele>260</ele>
        <time>2021-09-12T07:40:55.807Z</time>
      </trkpt>
      <trkpt lat="45.93294" lon="5.83668">
        <ele>260</ele>
        <time>2021-09-12T07:40:56.806Z</time>
      </trkpt>
      <trkpt lat="45.93291" lon="5.83666">
        <ele>260</ele>
        <time>2021-09-12T07:40:57.807Z</time>
      </trkpt>
      <trkpt lat="45.93287" lon="5.83664">
        <ele>260</ele>
        <time>2021-09-12T07:40:58.807Z</time>
      </trkpt>
      <trkpt lat="45.93285" lon="5.83662">
        <ele>261</ele>
        <time>2021-09-12T07:40:59.807Z</time>
      </trkpt>
      <trkpt lat="45.93282" lon="5.8366">
        <ele>261</ele>
        <time>2021-09-12T07:41:00.806Z</time>
      </trkpt>
      <trkpt lat="45.93279" lon="5.83659">
        <ele>261</ele>
        <time>2021-09-12T07:41:01.807Z</time>
      </trkpt>
      <trkpt lat="45.93276" lon="5.83657">
        <ele>260</ele>
        <time>2021-09-12T07:41:02.807Z</time>
      </trkpt>
      <trkpt lat="45.93273" lon="5.83655">
        <ele>260</ele>
        <time>2021-09-12T07:41:03.807Z</time>
      </trkpt>
      <trkpt lat="45.93269" lon="5.83653">
        <ele>260</ele>
        <time>2021-09-12T07:41:04.806Z</time>
      </trkpt>
      <trkpt lat="45.93266" lon="5.83651">
        <ele>260</ele>
        <time>2021-09-12T07:41:05.807Z</time>
      </trkpt>
      <trkpt lat="45.93263" lon="5.83649">
        <ele>260</ele>
        <time>2021-09-12T07:41:06.806Z</time>
      </trkpt>
      <trkpt lat="45.9326" lon="5.83647">
        <ele>260</ele>
        <time>2021-09-12T07:41:07.807Z</time>
      </trkpt>
      <trkpt lat="45.93258" lon="5.83646">
        <ele>260</ele>
        <time>2021-09-12T07:41:08.806Z</time>
      </trkpt>
      <trkpt lat="45.93254" lon="5.83644">
        <ele>260</ele>
        <time>2021-09-12T07:41:09.807Z</time>
      </trkpt>
      <trkpt lat="45.93251" lon="5.83642">
        <ele>260</ele>
        <time>2021-09-12T07:41:10.807Z</time>
      </trkpt>
      <trkpt lat="45.93248" lon="5.8364">
        <ele>260</ele>
        <time>2021-09-12T07:41:11.807Z</time>
      </trkpt>
      <trkpt lat="45.93245" lon="5.83639">
        <ele>260</ele>
        <time>2021-09-12T07:41:12.807Z</time>
      </trkpt>
      <trkpt lat="45.93242" lon="5.83637">
        <ele>260</ele>
        <time>2021-09-12T07:41:13.807Z</time>
      </trkpt>
      <trkpt lat="45.93238" lon="5.83634">
        <ele>260</ele>
        <time>2021-09-12T07:41:14.806Z</time>
      </trkpt>
      <trkpt lat="45.93235" lon="5.83633">
        <ele>260</ele>
        <time>2021-09-12T07:41:15.807Z</time>
      </trkpt>
      <trkpt lat="45.93232" lon="5.83631">
        <ele>260</ele>
        <time>2021-09-12T07:41:16.806Z</time>
      </trkpt>
      <trkpt lat="45.93228" lon="5.83629">
        <ele>260</ele>
        <time>2021-09-12T07:41:17.807Z</time>
      </trkpt>
      <trkpt lat="45.93225" lon="5.83627">
        <ele>260</ele>
        <time>2021-09-12T07:41:18.806Z</time>
      </trkpt>
      <trkpt lat="45.93221" lon="5.83625">
        <ele>260</ele>
        <time>2021-09-12T07:41:19.807Z</time>
      </trkpt>
      <trkpt lat="45.93218" lon="5.83623">
        <ele>259</ele>
        <time>2021-09-12T07:41:20.807Z</time>
      </trkpt>
      <trkpt lat="45.93214" lon="5.83621">
        <ele>259</ele>
        <time>2021-09-12T07:41:21.806Z</time>
      </trkpt>
      <trkpt lat="45.93211" lon="5.83618">
        <ele>260</ele>
        <time>2021-09-12T07:41:22.807Z</time>
      </trkpt>
      <trkpt lat="45.93208" lon="5.83616">
        <ele>260</ele>
        <time>2021-09-12T07:41:23.806Z</time>
      </trkpt>
      <trkpt lat="45.93205" lon="5.83613">
        <ele>261</ele>
        <time>2021-09-12T07:41:24.806Z</time>
      </trkpt>
      <trkpt lat="45.93203" lon="5.83609">
        <ele>261</ele>
        <time>2021-09-12T07:41:25.806Z</time>
      </trkpt>
      <trkpt lat="45.93202" lon="5.83605">
        <ele>261</ele>
        <time>2021-09-12T07:41:26.806Z</time>
      </trkpt>
      <trkpt lat="45.93202" lon="5.83601">
        <ele>262</ele>
        <time>2021-09-12T07:41:27.806Z</time>
      </trkpt>
      <trkpt lat="45.93201" lon="5.83597">
        <ele>262</ele>
        <time>2021-09-12T07:41:28.806Z</time>
      </trkpt>
      <trkpt lat="45.932" lon="5.83591">
        <ele>261</ele>
        <time>2021-09-12T07:41:29.806Z</time>
      </trkpt>
      <trkpt lat="45.932" lon="5.83587">
        <ele>260</ele>
        <time>2021-09-12T07:41:30.806Z</time>
      </trkpt>
      <trkpt lat="45.93199" lon="5.83583">
        <ele>259</ele>
        <time>2021-09-12T07:41:31.807Z</time>
      </trkpt>
      <trkpt lat="45.93199" lon="5.83579">
        <ele>258</ele>
        <time>2021-09-12T07:41:32.807Z</time>
      </trkpt>
      <trkpt lat="45.93199" lon="5.83575">
        <ele>258</ele>
        <time>2021-09-12T07:41:33.807Z</time>
      </trkpt>
      <trkpt lat="45.93198" lon="5.83571">
        <ele>257</ele>
        <time>2021-09-12T07:41:34.807Z</time>
      </trkpt>
      <trkpt lat="45.93198" lon="5.83567">
        <ele>257</ele>
        <time>2021-09-12T07:41:35.807Z</time>
      </trkpt>
      <trkpt lat="45.93198" lon="5.83564">
        <ele>257</ele>
        <time>2021-09-12T07:41:36.807Z</time>
      </trkpt>
      <trkpt lat="45.93198" lon="5.8356">
        <ele>257</ele>
        <time>2021-09-12T07:41:37.807Z</time>
      </trkpt>
      <trkpt lat="45.93198" lon="5.83557">
        <ele>257</ele>
        <time>2021-09-12T07:41:38.807Z</time>
      </trkpt>
      <trkpt lat="45.93197" lon="5.83553">
        <ele>257</ele>
        <time>2021-09-12T07:41:39.807Z</time>
      </trkpt>
      <trkpt lat="45.93197" lon="5.83549">
        <ele>257</ele>
        <time>2021-09-12T07:41:40.806Z</time>
      </trkpt>
      <trkpt lat="45.93197" lon="5.83546">
        <ele>257</ele>
        <time>2021-09-12T07:41:41.807Z</time>
      </trkpt>
      <trkpt lat="45.93197" lon="5.83542">
        <ele>258</ele>
        <time>2021-09-12T07:41:42.807Z</time>
      </trkpt>
      <trkpt lat="45.93197" lon="5.83538">
        <ele>258</ele>
        <time>2021-09-12T07:41:43.806Z</time>
      </trkpt>
      <trkpt lat="45.93197" lon="5.83535">
        <ele>258</ele>
        <time>2021-09-12T07:41:44.807Z</time>
      </trkpt>
      <trkpt lat="45.93196" lon="5.83532">
        <ele>258</ele>
        <time>2021-09-12T07:41:45.807Z</time>
      </trkpt>
      <trkpt lat="45.93196" lon="5.83528">
        <ele>258</ele>
        <time>2021-09-12T07:41:46.806Z</time>
      </trkpt>
      <trkpt lat="45.93196" lon="5.83525">
        <ele>259</ele>
        <time>2021-09-12T07:41:47.807Z</time>
      </trkpt>
      <trkpt lat="45.93195" lon="5.83521">
        <ele>259</ele>
        <time>2021-09-12T07:41:48.807Z</time>
      </trkpt>
      <trkpt lat="45.93195" lon="5.83517">
        <ele>259</ele>
        <time>2021-09-12T07:41:49.807Z</time>
      </trkpt>
      <trkpt lat="45.93194" lon="5.83514">
        <ele>259</ele>
        <time>2021-09-12T07:41:50.807Z</time>
      </trkpt>
      <trkpt lat="45.93194" lon="5.8351">
        <ele>259</ele>
        <time>2021-09-12T07:41:51.807Z</time>
      </trkpt>
      <trkpt lat="45.93194" lon="5.83507">
        <ele>260</ele>
        <time>2021-09-12T07:41:52.807Z</time>
      </trkpt>
      <trkpt lat="45.93194" lon="5.83503">
        <ele>261</ele>
        <time>2021-09-12T07:41:53.807Z</time>
      </trkpt>
      <trkpt lat="45.93194" lon="5.835">
        <ele>261</ele>
        <time>2021-09-12T07:41:54.806Z</time>
      </trkpt>
      <trkpt lat="45.93194" lon="5.83496">
        <ele>261</ele>
        <time>2021-09-12T07:41:55.807Z</time>
      </trkpt>
      <trkpt lat="45.93194" lon="5.83493">
        <ele>261</ele>
        <time>2021-09-12T07:41:56.806Z</time>
      </trkpt>
      <trkpt lat="45.93194" lon="5.8349">
        <ele>261</ele>
        <time>2021-09-12T07:41:57.807Z</time>
      </trkpt>
      <trkpt lat="45.93194" lon="5.83486">
        <ele>262</ele>
        <time>2021-09-12T07:41:58.807Z</time>
      </trkpt>
      <trkpt lat="45.93193" lon="5.83483">
        <ele>263</ele>
        <time>2021-09-12T07:41:59.807Z</time>
      </trkpt>
      <trkpt lat="45.93193" lon="5.83479">
        <ele>263</ele>
        <time>2021-09-12T07:42:00.807Z</time>
      </trkpt>
      <trkpt lat="45.93193" lon="5.83476">
        <ele>264</ele>
        <time>2021-09-12T07:42:01.806Z</time>
      </trkpt>
      <trkpt lat="45.93193" lon="5.83472">
        <ele>264</ele>
        <time>2021-09-12T07:42:02.807Z</time>
      </trkpt>
      <trkpt lat="45.93193" lon="5.83468">
        <ele>264</ele>
        <time>2021-09-12T07:42:03.807Z</time>
      </trkpt>
      <trkpt lat="45.93193" lon="5.83465">
        <ele>265</ele>
        <time>2021-09-12T07:42:04.807Z</time>
      </trkpt>
      <trkpt lat="45.93193" lon="5.83461">
        <ele>265</ele>
        <time>2021-09-12T07:42:05.807Z</time>
      </trkpt>
      <trkpt lat="45.93193" lon="5.83457">
        <ele>266</ele>
        <time>2021-09-12T07:42:06.807Z</time>
      </trkpt>
      <trkpt lat="45.93193" lon="5.83453">
        <ele>266</ele>
        <time>2021-09-12T07:42:07.807Z</time>
      </trkpt>
      <trkpt lat="45.93193" lon="5.83449">
        <ele>267</ele>
        <time>2021-09-12T07:42:08.807Z</time>
      </trkpt>
      <trkpt lat="45.93193" lon="5.83445">
        <ele>267</ele>
        <time>2021-09-12T07:42:09.807Z</time>
      </trkpt>
      <trkpt lat="45.93193" lon="5.83441">
        <ele>267</ele>
        <time>2021-09-12T07:42:10.807Z</time>
      </trkpt>
      <trkpt lat="45.93193" lon="5.83437">
        <ele>268</ele>
        <time>2021-09-12T07:42:11.807Z</time>
      </trkpt>
      <trkpt lat="45.93193" lon="5.83433">
        <ele>268</ele>
        <time>2021-09-12T07:42:12.807Z</time>
      </trkpt>
      <trkpt lat="45.93194" lon="5.83429">
        <ele>268</ele>
        <time>2021-09-12T07:42:13.807Z</time>
      </trkpt>
      <trkpt lat="45.93194" lon="5.83426">
        <ele>269</ele>
        <time>2021-09-12T07:42:14.807Z</time>
      </trkpt>
      <trkpt lat="45.93195" lon="5.83422">
        <ele>269</ele>
        <time>2021-09-12T07:42:15.807Z</time>
      </trkpt>
      <trkpt lat="45.93195" lon="5.83419">
        <ele>269</ele>
        <time>2021-09-12T07:42:16.807Z</time>
      </trkpt>
      <trkpt lat="45.93196" lon="5.83416">
        <ele>269</ele>
        <time>2021-09-12T07:42:17.807Z</time>
      </trkpt>
      <trkpt lat="45.93197" lon="5.83413">
        <ele>269</ele>
        <time>2021-09-12T07:42:18.807Z</time>
      </trkpt>
      <trkpt lat="45.93198" lon="5.8341">
        <ele>269</ele>
        <time>2021-09-12T07:42:19.807Z</time>
      </trkpt>
      <trkpt lat="45.93198" lon="5.83406">
        <ele>269</ele>
        <time>2021-09-12T07:42:20.806Z</time>
      </trkpt>
      <trkpt lat="45.93199" lon="5.83403">
        <ele>270</ele>
        <time>2021-09-12T07:42:21.807Z</time>
      </trkpt>
      <trkpt lat="45.93199" lon="5.834">
        <ele>270</ele>
        <time>2021-09-12T07:42:22.807Z</time>
      </trkpt>
      <trkpt lat="45.93199" lon="5.83397">
        <ele>270</ele>
        <time>2021-09-12T07:42:23.806Z</time>
      </trkpt>
      <trkpt lat="45.932" lon="5.83394">
        <ele>271</ele>
        <time>2021-09-12T07:42:24.807Z</time>
      </trkpt>
      <trkpt lat="45.93201" lon="5.8339">
        <ele>271</ele>
        <time>2021-09-12T07:42:25.807Z</time>
      </trkpt>
      <trkpt lat="45.93201" lon="5.83387">
        <ele>272</ele>
        <time>2021-09-12T07:42:26.806Z</time>
      </trkpt>
      <trkpt lat="45.93201" lon="5.83384">
        <ele>272</ele>
        <time>2021-09-12T07:42:27.807Z</time>
      </trkpt>
      <trkpt lat="45.93201" lon="5.8338">
        <ele>272</ele>
        <time>2021-09-12T07:42:28.807Z</time>
      </trkpt>
      <trkpt lat="45.93202" lon="5.83376">
        <ele>272</ele>
        <time>2021-09-12T07:42:29.807Z</time>
      </trkpt>
      <trkpt lat="45.93202" lon="5.83373">
        <ele>272</ele>
        <time>2021-09-12T07:42:30.807Z</time>
      </trkpt>
      <trkpt lat="45.93201" lon="5.83369">
        <ele>272</ele>
        <time>2021-09-12T07:42:31.807Z</time>
      </trkpt>
      <trkpt lat="45.93202" lon="5.83365">
        <ele>273</ele>
        <time>2021-09-12T07:42:32.806Z</time>
      </trkpt>
      <trkpt lat="45.93202" lon="5.83361">
        <ele>273</ele>
        <time>2021-09-12T07:42:33.807Z</time>
      </trkpt>
      <trkpt lat="45.93202" lon="5.83357">
        <ele>273</ele>
        <time>2021-09-12T07:42:34.807Z</time>
      </trkpt>
      <trkpt lat="45.93202" lon="5.83353">
        <ele>274</ele>
        <time>2021-09-12T07:42:35.807Z</time>
      </trkpt>
      <trkpt lat="45.93203" lon="5.8335">
        <ele>274</ele>
        <time>2021-09-12T07:42:36.807Z</time>
      </trkpt>
      <trkpt lat="45.93204" lon="5.83346">
        <ele>274</ele>
        <time>2021-09-12T07:42:37.806Z</time>
      </trkpt>
      <trkpt lat="45.93205" lon="5.83342">
        <ele>275</ele>
        <time>2021-09-12T07:42:38.807Z</time>
      </trkpt>
      <trkpt lat="45.93205" lon="5.83339">
        <ele>275</ele>
        <time>2021-09-12T07:42:39.806Z</time>
      </trkpt>
      <trkpt lat="45.93206" lon="5.83336">
        <ele>276</ele>
        <time>2021-09-12T07:42:40.806Z</time>
      </trkpt>
      <trkpt lat="45.93207" lon="5.83333">
        <ele>276</ele>
        <time>2021-09-12T07:42:41.806Z</time>
      </trkpt>
      <trkpt lat="45.93207" lon="5.8333">
        <ele>276</ele>
        <time>2021-09-12T07:42:42.807Z</time>
      </trkpt>
      <trkpt lat="45.93208" lon="5.83326">
        <ele>277</ele>
        <time>2021-09-12T07:42:43.807Z</time>
      </trkpt>
      <trkpt lat="45.93209" lon="5.83323">
        <ele>277</ele>
        <time>2021-09-12T07:42:44.806Z</time>
      </trkpt>
      <trkpt lat="45.9321" lon="5.8332">
        <ele>278</ele>
        <time>2021-09-12T07:42:45.807Z</time>
      </trkpt>
      <trkpt lat="45.93211" lon="5.83317">
        <ele>278</ele>
        <time>2021-09-12T07:42:46.807Z</time>
      </trkpt>
      <trkpt lat="45.93212" lon="5.83314">
        <ele>279</ele>
        <time>2021-09-12T07:42:47.807Z</time>
      </trkpt>
      <trkpt lat="45.93212" lon="5.8331">
        <ele>279</ele>
        <time>2021-09-12T07:42:48.807Z</time>
      </trkpt>
      <trkpt lat="45.93213" lon="5.83307">
        <ele>279</ele>
        <time>2021-09-12T07:42:49.807Z</time>
      </trkpt>
      <trkpt lat="45.93214" lon="5.83303">
        <ele>279</ele>
        <time>2021-09-12T07:42:50.807Z</time>
      </trkpt>
      <trkpt lat="45.93215" lon="5.833">
        <ele>279</ele>
        <time>2021-09-12T07:42:51.806Z</time>
      </trkpt>
      <trkpt lat="45.93216" lon="5.83296">
        <ele>278</ele>
        <time>2021-09-12T07:42:52.807Z</time>
      </trkpt>
      <trkpt lat="45.93217" lon="5.83293">
        <ele>278</ele>
        <time>2021-09-12T07:42:53.807Z</time>
      </trkpt>
      <trkpt lat="45.93219" lon="5.83289">
        <ele>278</ele>
        <time>2021-09-12T07:42:54.807Z</time>
      </trkpt>
      <trkpt lat="45.9322" lon="5.83286">
        <ele>278</ele>
        <time>2021-09-12T07:42:55.807Z</time>
      </trkpt>
      <trkpt lat="45.93221" lon="5.83283">
        <ele>278</ele>
        <time>2021-09-12T07:42:56.807Z</time>
      </trkpt>
      <trkpt lat="45.93223" lon="5.8328">
        <ele>278</ele>
        <time>2021-09-12T07:42:57.807Z</time>
      </trkpt>
      <trkpt lat="45.93224" lon="5.83277">
        <ele>278</ele>
        <time>2021-09-12T07:42:58.807Z</time>
      </trkpt>
      <trkpt lat="45.93226" lon="5.83274">
        <ele>278</ele>
        <time>2021-09-12T07:42:59.807Z</time>
      </trkpt>
      <trkpt lat="45.93227" lon="5.83271">
        <ele>278</ele>
        <time>2021-09-12T07:43:00.806Z</time>
      </trkpt>
      <trkpt lat="45.93229" lon="5.83268">
        <ele>278</ele>
        <time>2021-09-12T07:43:01.807Z</time>
      </trkpt>
      <trkpt lat="45.9323" lon="5.83265">
        <ele>279</ele>
        <time>2021-09-12T07:43:02.807Z</time>
      </trkpt>
      <trkpt lat="45.93232" lon="5.83263">
        <ele>279</ele>
        <time>2021-09-12T07:43:03.807Z</time>
      </trkpt>
      <trkpt lat="45.93233" lon="5.8326">
        <ele>279</ele>
        <time>2021-09-12T07:43:04.807Z</time>
      </trkpt>
      <trkpt lat="45.93234" lon="5.83257">
        <ele>279</ele>
        <time>2021-09-12T07:43:05.807Z</time>
      </trkpt>
      <trkpt lat="45.93236" lon="5.83254">
        <ele>280</ele>
        <time>2021-09-12T07:43:06.807Z</time>
      </trkpt>
      <trkpt lat="45.93237" lon="5.83251">
        <ele>280</ele>
        <time>2021-09-12T07:43:07.806Z</time>
      </trkpt>
      <trkpt lat="45.93238" lon="5.83248">
        <ele>280</ele>
        <time>2021-09-12T07:43:08.807Z</time>
      </trkpt>
      <trkpt lat="45.9324" lon="5.83246">
        <ele>280</ele>
        <time>2021-09-12T07:43:09.807Z</time>
      </trkpt>
      <trkpt lat="45.93241" lon="5.83243">
        <ele>280</ele>
        <time>2021-09-12T07:43:10.807Z</time>
      </trkpt>
      <trkpt lat="45.93243" lon="5.83241">
        <ele>281</ele>
        <time>2021-09-12T07:43:11.807Z</time>
      </trkpt>
      <trkpt lat="45.93245" lon="5.83238">
        <ele>281</ele>
        <time>2021-09-12T07:43:12.807Z</time>
      </trkpt>
      <trkpt lat="45.93247" lon="5.83235">
        <ele>281</ele>
        <time>2021-09-12T07:43:13.807Z</time>
      </trkpt>
      <trkpt lat="45.93248" lon="5.83232">
        <ele>281</ele>
        <time>2021-09-12T07:43:14.807Z</time>
      </trkpt>
      <trkpt lat="45.9325" lon="5.8323">
        <ele>282</ele>
        <time>2021-09-12T07:43:15.806Z</time>
      </trkpt>
      <trkpt lat="45.93251" lon="5.83227">
        <ele>282</ele>
        <time>2021-09-12T07:43:16.807Z</time>
      </trkpt>
      <trkpt lat="45.93253" lon="5.83224">
        <ele>282</ele>
        <time>2021-09-12T07:43:17.807Z</time>
      </trkpt>
      <trkpt lat="45.93255" lon="5.83221">
        <ele>282</ele>
        <time>2021-09-12T07:43:18.806Z</time>
      </trkpt>
      <trkpt lat="45.93256" lon="5.83218">
        <ele>283</ele>
        <time>2021-09-12T07:43:19.807Z</time>
      </trkpt>
      <trkpt lat="45.93258" lon="5.83216">
        <ele>283</ele>
        <time>2021-09-12T07:43:20.807Z</time>
      </trkpt>
      <trkpt lat="45.9326" lon="5.83213">
        <ele>283</ele>
        <time>2021-09-12T07:43:21.807Z</time>
      </trkpt>
      <trkpt lat="45.93261" lon="5.8321">
        <ele>283</ele>
        <time>2021-09-12T07:43:22.807Z</time>
      </trkpt>
      <trkpt lat="45.93262" lon="5.83206">
        <ele>283</ele>
        <time>2021-09-12T07:43:23.807Z</time>
      </trkpt>
      <trkpt lat="45.93263" lon="5.83203">
        <ele>284</ele>
        <time>2021-09-12T07:43:24.806Z</time>
      </trkpt>
      <trkpt lat="45.93264" lon="5.832">
        <ele>283</ele>
        <time>2021-09-12T07:43:25.807Z</time>
      </trkpt>
      <trkpt lat="45.93265" lon="5.83197">
        <ele>283</ele>
        <time>2021-09-12T07:43:26.807Z</time>
      </trkpt>
      <trkpt lat="45.93268" lon="5.83194">
        <ele>283</ele>
        <time>2021-09-12T07:43:27.807Z</time>
      </trkpt>
      <trkpt lat="45.93269" lon="5.8319">
        <ele>283</ele>
        <time>2021-09-12T07:43:28.807Z</time>
      </trkpt>
      <trkpt lat="45.93271" lon="5.83187">
        <ele>283</ele>
        <time>2021-09-12T07:43:29.807Z</time>
      </trkpt>
      <trkpt lat="45.93273" lon="5.83185">
        <ele>283</ele>
        <time>2021-09-12T07:43:30.807Z</time>
      </trkpt>
      <trkpt lat="45.93275" lon="5.83183">
        <ele>283</ele>
        <time>2021-09-12T07:43:31.806Z</time>
      </trkpt>
      <trkpt lat="45.93277" lon="5.8318">
        <ele>284</ele>
        <time>2021-09-12T07:43:32.807Z</time>
      </trkpt>
      <trkpt lat="45.93278" lon="5.83178">
        <ele>284</ele>
        <time>2021-09-12T07:43:33.807Z</time>
      </trkpt>
      <trkpt lat="45.9328" lon="5.83175">
        <ele>284</ele>
        <time>2021-09-12T07:43:34.807Z</time>
      </trkpt>
      <trkpt lat="45.93282" lon="5.83172">
        <ele>284</ele>
        <time>2021-09-12T07:43:35.807Z</time>
      </trkpt>
      <trkpt lat="45.93284" lon="5.83169">
        <ele>284</ele>
        <time>2021-09-12T07:43:36.807Z</time>
      </trkpt>
      <trkpt lat="45.93286" lon="5.83166">
        <ele>285</ele>
        <time>2021-09-12T07:43:37.807Z</time>
      </trkpt>
      <trkpt lat="45.93287" lon="5.83164">
        <ele>285</ele>
        <time>2021-09-12T07:43:38.806Z</time>
      </trkpt>
      <trkpt lat="45.93288" lon="5.83159">
        <ele>285</ele>
        <time>2021-09-12T07:43:39.807Z</time>
      </trkpt>
      <trkpt lat="45.93289" lon="5.83156">
        <ele>285</ele>
        <time>2021-09-12T07:43:40.807Z</time>
      </trkpt>
      <trkpt lat="45.9329" lon="5.83153">
        <ele>285</ele>
        <time>2021-09-12T07:43:41.806Z</time>
      </trkpt>
      <trkpt lat="45.93291" lon="5.8315">
        <ele>285</ele>
        <time>2021-09-12T07:43:42.807Z</time>
      </trkpt>
      <trkpt lat="45.93292" lon="5.83147">
        <ele>285</ele>
        <time>2021-09-12T07:43:43.807Z</time>
      </trkpt>
      <trkpt lat="45.93293" lon="5.83144">
        <ele>285</ele>
        <time>2021-09-12T07:43:44.806Z</time>
      </trkpt>
      <trkpt lat="45.93294" lon="5.83141">
        <ele>285</ele>
        <time>2021-09-12T07:43:45.807Z</time>
      </trkpt>
      <trkpt lat="45.93295" lon="5.83137">
        <ele>285</ele>
        <time>2021-09-12T07:43:46.807Z</time>
      </trkpt>
      <trkpt lat="45.93295" lon="5.83134">
        <ele>286</ele>
        <time>2021-09-12T07:43:47.806Z</time>
      </trkpt>
      <trkpt lat="45.93294" lon="5.83131">
        <ele>286</ele>
        <time>2021-09-12T07:43:48.806Z</time>
      </trkpt>
      <trkpt lat="45.93294" lon="5.83127">
        <ele>286</ele>
        <time>2021-09-12T07:43:49.806Z</time>
      </trkpt>
      <trkpt lat="45.93292" lon="5.83124">
        <ele>286</ele>
        <time>2021-09-12T07:43:50.807Z</time>
      </trkpt>
      <trkpt lat="45.93291" lon="5.8312">
        <ele>287</ele>
        <time>2021-09-12T07:43:51.806Z</time>
      </trkpt>
      <trkpt lat="45.9329" lon="5.83117">
        <ele>287</ele>
        <time>2021-09-12T07:43:52.807Z</time>
      </trkpt>
      <trkpt lat="45.93288" lon="5.83114">
        <ele>287</ele>
        <time>2021-09-12T07:43:53.806Z</time>
      </trkpt>
      <trkpt lat="45.93286" lon="5.83111">
        <ele>287</ele>
        <time>2021-09-12T07:43:54.806Z</time>
      </trkpt>
      <trkpt lat="45.93285" lon="5.8311">
        <ele>287</ele>
        <time>2021-09-12T07:43:55.806Z</time>
      </trkpt>
      <trkpt lat="45.93282" lon="5.83107">
        <ele>287</ele>
        <time>2021-09-12T07:43:56.807Z</time>
      </trkpt>
      <trkpt lat="45.9328" lon="5.83105">
        <ele>287</ele>
        <time>2021-09-12T07:43:57.807Z</time>
      </trkpt>
      <trkpt lat="45.93277" lon="5.83104">
        <ele>287</ele>
        <time>2021-09-12T07:43:58.807Z</time>
      </trkpt>
      <trkpt lat="45.93274" lon="5.83103">
        <ele>288</ele>
        <time>2021-09-12T07:43:59.807Z</time>
      </trkpt>
      <trkpt lat="45.93272" lon="5.83103">
        <ele>288</ele>
        <time>2021-09-12T07:44:00.807Z</time>
      </trkpt>
      <trkpt lat="45.93269" lon="5.83102">
        <ele>289</ele>
        <time>2021-09-12T07:44:01.806Z</time>
      </trkpt>
      <trkpt lat="45.93266" lon="5.83102">
        <ele>289</ele>
        <time>2021-09-12T07:44:02.807Z</time>
      </trkpt>
      <trkpt lat="45.93264" lon="5.83102">
        <ele>289</ele>
        <time>2021-09-12T07:44:03.807Z</time>
      </trkpt>
      <trkpt lat="45.9326" lon="5.83102">
        <ele>289</ele>
        <time>2021-09-12T07:44:04.807Z</time>
      </trkpt>
      <trkpt lat="45.93258" lon="5.83102">
        <ele>289</ele>
        <time>2021-09-12T07:44:05.806Z</time>
      </trkpt>
      <trkpt lat="45.93255" lon="5.83102">
        <ele>289</ele>
        <time>2021-09-12T07:44:06.807Z</time>
      </trkpt>
      <trkpt lat="45.93252" lon="5.83102">
        <ele>289</ele>
        <time>2021-09-12T07:44:07.807Z</time>
      </trkpt>
      <trkpt lat="45.9325" lon="5.83102">
        <ele>289</ele>
        <time>2021-09-12T07:44:08.806Z</time>
      </trkpt>
      <trkpt lat="45.93247" lon="5.83102">
        <ele>289</ele>
        <time>2021-09-12T07:44:09.807Z</time>
      </trkpt>
      <trkpt lat="45.93245" lon="5.83102">
        <ele>290</ele>
        <time>2021-09-12T07:44:10.807Z</time>
      </trkpt>
      <trkpt lat="45.93242" lon="5.83101">
        <ele>290</ele>
        <time>2021-09-12T07:44:11.807Z</time>
      </trkpt>
      <trkpt lat="45.9324" lon="5.831">
        <ele>291</ele>
        <time>2021-09-12T07:44:12.807Z</time>
      </trkpt>
      <trkpt lat="45.93237" lon="5.83099">
        <ele>291</ele>
        <time>2021-09-12T07:44:13.807Z</time>
      </trkpt>
      <trkpt lat="45.93235" lon="5.83097">
        <ele>291</ele>
        <time>2021-09-12T07:44:14.806Z</time>
      </trkpt>
      <trkpt lat="45.93233" lon="5.83095">
        <ele>292</ele>
        <time>2021-09-12T07:44:15.806Z</time>
      </trkpt>
      <trkpt lat="45.9323" lon="5.83094">
        <ele>292</ele>
        <time>2021-09-12T07:44:16.806Z</time>
      </trkpt>
      <trkpt lat="45.93228" lon="5.83092">
        <ele>292</ele>
        <time>2021-09-12T07:44:17.807Z</time>
      </trkpt>
      <trkpt lat="45.93226" lon="5.8309">
        <ele>293</ele>
        <time>2021-09-12T07:44:18.807Z</time>
      </trkpt>
      <trkpt lat="45.93224" lon="5.83088">
        <ele>293</ele>
        <time>2021-09-12T07:44:19.807Z</time>
      </trkpt>
      <trkpt lat="45.93222" lon="5.83085">
        <ele>293</ele>
        <time>2021-09-12T07:44:20.807Z</time>
      </trkpt>
      <trkpt lat="45.9322" lon="5.83082">
        <ele>294</ele>
        <time>2021-09-12T07:44:21.807Z</time>
      </trkpt>
      <trkpt lat="45.93218" lon="5.8308">
        <ele>294</ele>
        <time>2021-09-12T07:44:22.807Z</time>
      </trkpt>
      <trkpt lat="45.93217" lon="5.83077">
        <ele>294</ele>
        <time>2021-09-12T07:44:23.807Z</time>
      </trkpt>
      <trkpt lat="45.93216" lon="5.83074">
        <ele>294</ele>
        <time>2021-09-12T07:44:24.807Z</time>
      </trkpt>
      <trkpt lat="45.93214" lon="5.83071">
        <ele>294</ele>
        <time>2021-09-12T07:44:25.807Z</time>
      </trkpt>
      <trkpt lat="45.93213" lon="5.83068">
        <ele>294</ele>
        <time>2021-09-12T07:44:26.807Z</time>
      </trkpt>
      <trkpt lat="45.93212" lon="5.83064">
        <ele>294</ele>
        <time>2021-09-12T07:44:27.807Z</time>
      </trkpt>
      <trkpt lat="45.93212" lon="5.83061">
        <ele>295</ele>
        <time>2021-09-12T07:44:28.807Z</time>
      </trkpt>
      <trkpt lat="45.93211" lon="5.83059">
        <ele>295</ele>
        <time>2021-09-12T07:44:29.807Z</time>
      </trkpt>
      <trkpt lat="45.93209" lon="5.83055">
        <ele>296</ele>
        <time>2021-09-12T07:44:30.806Z</time>
      </trkpt>
      <trkpt lat="45.93208" lon="5.83052">
        <ele>297</ele>
        <time>2021-09-12T07:44:31.807Z</time>
      </trkpt>
      <trkpt lat="45.93208" lon="5.83048">
        <ele>297</ele>
        <time>2021-09-12T07:44:32.807Z</time>
      </trkpt>
      <trkpt lat="45.93208" lon="5.83044">
        <ele>298</ele>
        <time>2021-09-12T07:44:33.807Z</time>
      </trkpt>
      <trkpt lat="45.93208" lon="5.83041">
        <ele>298</ele>
        <time>2021-09-12T07:44:34.807Z</time>
      </trkpt>
      <trkpt lat="45.93208" lon="5.83037">
        <ele>299</ele>
        <time>2021-09-12T07:44:35.807Z</time>
      </trkpt>
      <trkpt lat="45.93208" lon="5.83034">
        <ele>299</ele>
        <time>2021-09-12T07:44:36.806Z</time>
      </trkpt>
      <trkpt lat="45.93209" lon="5.8303">
        <ele>299</ele>
        <time>2021-09-12T07:44:37.807Z</time>
      </trkpt>
      <trkpt lat="45.93208" lon="5.83026">
        <ele>300</ele>
        <time>2021-09-12T07:44:38.806Z</time>
      </trkpt>
      <trkpt lat="45.93207" lon="5.83022">
        <ele>300</ele>
        <time>2021-09-12T07:44:39.806Z</time>
      </trkpt>
      <trkpt lat="45.93206" lon="5.83018">
        <ele>300</ele>
        <time>2021-09-12T07:44:40.807Z</time>
      </trkpt>
      <trkpt lat="45.93206" lon="5.83014">
        <ele>300</ele>
        <time>2021-09-12T07:44:41.807Z</time>
      </trkpt>
      <trkpt lat="45.93205" lon="5.8301">
        <ele>300</ele>
        <time>2021-09-12T07:44:42.807Z</time>
      </trkpt>
      <trkpt lat="45.93205" lon="5.83007">
        <ele>300</ele>
        <time>2021-09-12T07:44:43.807Z</time>
      </trkpt>
      <trkpt lat="45.93204" lon="5.83003">
        <ele>299</ele>
        <time>2021-09-12T07:44:44.806Z</time>
      </trkpt>
      <trkpt lat="45.93203" lon="5.83">
        <ele>299</ele>
        <time>2021-09-12T07:44:45.807Z</time>
      </trkpt>
      <trkpt lat="45.93201" lon="5.82996">
        <ele>299</ele>
        <time>2021-09-12T07:44:46.807Z</time>
      </trkpt>
      <trkpt lat="45.932" lon="5.82993">
        <ele>299</ele>
        <time>2021-09-12T07:44:47.807Z</time>
      </trkpt>
      <trkpt lat="45.93198" lon="5.82989">
        <ele>299</ele>
        <time>2021-09-12T07:44:48.807Z</time>
      </trkpt>
      <trkpt lat="45.93197" lon="5.82986">
        <ele>299</ele>
        <time>2021-09-12T07:44:49.806Z</time>
      </trkpt>
      <trkpt lat="45.93196" lon="5.82982">
        <ele>299</ele>
        <time>2021-09-12T07:44:50.806Z</time>
      </trkpt>
      <trkpt lat="45.93194" lon="5.82979">
        <ele>298</ele>
        <time>2021-09-12T07:44:51.807Z</time>
      </trkpt>
      <trkpt lat="45.93193" lon="5.82975">
        <ele>297</ele>
        <time>2021-09-12T07:44:52.807Z</time>
      </trkpt>
      <trkpt lat="45.93191" lon="5.82971">
        <ele>297</ele>
        <time>2021-09-12T07:44:53.806Z</time>
      </trkpt>
      <trkpt lat="45.93189" lon="5.82968">
        <ele>296</ele>
        <time>2021-09-12T07:44:54.807Z</time>
      </trkpt>
      <trkpt lat="45.93188" lon="5.82966">
        <ele>295</ele>
        <time>2021-09-12T07:44:55.806Z</time>
      </trkpt>
      <trkpt lat="45.93186" lon="5.82962">
        <ele>295</ele>
        <time>2021-09-12T07:44:56.807Z</time>
      </trkpt>
      <trkpt lat="45.93184" lon="5.82959">
        <ele>295</ele>
        <time>2021-09-12T07:44:57.807Z</time>
      </trkpt>
      <trkpt lat="45.93182" lon="5.82956">
        <ele>294</ele>
        <time>2021-09-12T07:44:58.807Z</time>
      </trkpt>
      <trkpt lat="45.93181" lon="5.82953">
        <ele>294</ele>
        <time>2021-09-12T07:44:59.807Z</time>
      </trkpt>
      <trkpt lat="45.93179" lon="5.8295">
        <ele>294</ele>
        <time>2021-09-12T07:45:00.807Z</time>
      </trkpt>
      <trkpt lat="45.93177" lon="5.82948">
        <ele>294</ele>
        <time>2021-09-12T07:45:01.807Z</time>
      </trkpt>
      <trkpt lat="45.93175" lon="5.82945">
        <ele>294</ele>
        <time>2021-09-12T07:45:02.806Z</time>
      </trkpt>
      <trkpt lat="45.93173" lon="5.82943">
        <ele>294</ele>
        <time>2021-09-12T07:45:03.807Z</time>
      </trkpt>
      <trkpt lat="45.93171" lon="5.82941">
        <ele>294</ele>
        <time>2021-09-12T07:45:04.807Z</time>
      </trkpt>
      <trkpt lat="45.93169" lon="5.82939">
        <ele>293</ele>
        <time>2021-09-12T07:45:05.807Z</time>
      </trkpt>
      <trkpt lat="45.93166" lon="5.82937">
        <ele>293</ele>
        <time>2021-09-12T07:45:06.807Z</time>
      </trkpt>
      <trkpt lat="45.93164" lon="5.82935">
        <ele>293</ele>
        <time>2021-09-12T07:45:07.807Z</time>
      </trkpt>
      <trkpt lat="45.93162" lon="5.82933">
        <ele>292</ele>
        <time>2021-09-12T07:45:08.806Z</time>
      </trkpt>
      <trkpt lat="45.93159" lon="5.82932">
        <ele>292</ele>
        <time>2021-09-12T07:45:09.807Z</time>
      </trkpt>
      <trkpt lat="45.93157" lon="5.82931">
        <ele>292</ele>
        <time>2021-09-12T07:45:10.807Z</time>
      </trkpt>
      <trkpt lat="45.93154" lon="5.8293">
        <ele>292</ele>
        <time>2021-09-12T07:45:11.807Z</time>
      </trkpt>
      <trkpt lat="45.93151" lon="5.8293">
        <ele>292</ele>
        <time>2021-09-12T07:45:12.807Z</time>
      </trkpt>
      <trkpt lat="45.93149" lon="5.82929">
        <ele>292</ele>
        <time>2021-09-12T07:45:13.807Z</time>
      </trkpt>
      <trkpt lat="45.93146" lon="5.82929">
        <ele>292</ele>
        <time>2021-09-12T07:45:14.806Z</time>
      </trkpt>
      <trkpt lat="45.93143" lon="5.8293">
        <ele>291</ele>
        <time>2021-09-12T07:45:15.807Z</time>
      </trkpt>
      <trkpt lat="45.9314" lon="5.8293">
        <ele>292</ele>
        <time>2021-09-12T07:45:16.807Z</time>
      </trkpt>
      <trkpt lat="45.93138" lon="5.82931">
        <ele>292</ele>
        <time>2021-09-12T07:45:17.807Z</time>
      </trkpt>
      <trkpt lat="45.93135" lon="5.82932">
        <ele>292</ele>
        <time>2021-09-12T07:45:18.807Z</time>
      </trkpt>
      <trkpt lat="45.93133" lon="5.82933">
        <ele>292</ele>
        <time>2021-09-12T07:45:19.807Z</time>
      </trkpt>
      <trkpt lat="45.9313" lon="5.82934">
        <ele>292</ele>
        <time>2021-09-12T07:45:20.807Z</time>
      </trkpt>
      <trkpt lat="45.93128" lon="5.82935">
        <ele>292</ele>
        <time>2021-09-12T07:45:21.807Z</time>
      </trkpt>
      <trkpt lat="45.93125" lon="5.82937">
        <ele>292</ele>
        <time>2021-09-12T07:45:22.807Z</time>
      </trkpt>
      <trkpt lat="45.93124" lon="5.82938">
        <ele>292</ele>
        <time>2021-09-12T07:45:23.807Z</time>
      </trkpt>
      <trkpt lat="45.93121" lon="5.8294">
        <ele>292</ele>
        <time>2021-09-12T07:45:24.807Z</time>
      </trkpt>
      <trkpt lat="45.93118" lon="5.82942">
        <ele>292</ele>
        <time>2021-09-12T07:45:25.806Z</time>
      </trkpt>
      <trkpt lat="45.93116" lon="5.82943">
        <ele>293</ele>
        <time>2021-09-12T07:45:26.807Z</time>
      </trkpt>
      <trkpt lat="45.93114" lon="5.82945">
        <ele>293</ele>
        <time>2021-09-12T07:45:27.807Z</time>
      </trkpt>
      <trkpt lat="45.93111" lon="5.82947">
        <ele>293</ele>
        <time>2021-09-12T07:45:28.807Z</time>
      </trkpt>
      <trkpt lat="45.93108" lon="5.82948">
        <ele>292</ele>
        <time>2021-09-12T07:45:29.807Z</time>
      </trkpt>
      <trkpt lat="45.93106" lon="5.8295">
        <ele>292</ele>
        <time>2021-09-12T07:45:30.807Z</time>
      </trkpt>
      <trkpt lat="45.93104" lon="5.82952">
        <ele>292</ele>
        <time>2021-09-12T07:45:31.806Z</time>
      </trkpt>
      <trkpt lat="45.93102" lon="5.82953">
        <ele>292</ele>
        <time>2021-09-12T07:45:32.807Z</time>
      </trkpt>
      <trkpt lat="45.93099" lon="5.82955">
        <ele>292</ele>
        <time>2021-09-12T07:45:33.807Z</time>
      </trkpt>
      <trkpt lat="45.93097" lon="5.82956">
        <ele>292</ele>
        <time>2021-09-12T07:45:34.806Z</time>
      </trkpt>
      <trkpt lat="45.93094" lon="5.82958">
        <ele>292</ele>
        <time>2021-09-12T07:45:35.806Z</time>
      </trkpt>
      <trkpt lat="45.93092" lon="5.8296">
        <ele>292</ele>
        <time>2021-09-12T07:45:36.807Z</time>
      </trkpt>
      <trkpt lat="45.93089" lon="5.82962">
        <ele>292</ele>
        <time>2021-09-12T07:45:37.807Z</time>
      </trkpt>
      <trkpt lat="45.93087" lon="5.82963">
        <ele>292</ele>
        <time>2021-09-12T07:45:38.807Z</time>
      </trkpt>
      <trkpt lat="45.93084" lon="5.82965">
        <ele>292</ele>
        <time>2021-09-12T07:45:39.807Z</time>
      </trkpt>
      <trkpt lat="45.93082" lon="5.82966">
        <ele>292</ele>
        <time>2021-09-12T07:45:40.806Z</time>
      </trkpt>
      <trkpt lat="45.9308" lon="5.82968">
        <ele>292</ele>
        <time>2021-09-12T07:45:41.807Z</time>
      </trkpt>
      <trkpt lat="45.93077" lon="5.8297">
        <ele>292</ele>
        <time>2021-09-12T07:45:42.807Z</time>
      </trkpt>
      <trkpt lat="45.93074" lon="5.82972">
        <ele>292</ele>
        <time>2021-09-12T07:45:43.807Z</time>
      </trkpt>
      <trkpt lat="45.93072" lon="5.82973">
        <ele>292</ele>
        <time>2021-09-12T07:45:44.806Z</time>
      </trkpt>
      <trkpt lat="45.93069" lon="5.82975">
        <ele>293</ele>
        <time>2021-09-12T07:45:45.807Z</time>
      </trkpt>
      <trkpt lat="45.93067" lon="5.82976">
        <ele>293</ele>
        <time>2021-09-12T07:45:46.807Z</time>
      </trkpt>
      <trkpt lat="45.93064" lon="5.82978">
        <ele>293</ele>
        <time>2021-09-12T07:45:47.807Z</time>
      </trkpt>
      <trkpt lat="45.93062" lon="5.8298">
        <ele>293</ele>
        <time>2021-09-12T07:45:48.807Z</time>
      </trkpt>
      <trkpt lat="45.93059" lon="5.82981">
        <ele>292</ele>
        <time>2021-09-12T07:45:49.807Z</time>
      </trkpt>
      <trkpt lat="45.93057" lon="5.82983">
        <ele>292</ele>
        <time>2021-09-12T07:45:50.807Z</time>
      </trkpt>
      <trkpt lat="45.93055" lon="5.82984">
        <ele>292</ele>
        <time>2021-09-12T07:45:51.807Z</time>
      </trkpt>
      <trkpt lat="45.93052" lon="5.82986">
        <ele>292</ele>
        <time>2021-09-12T07:45:52.807Z</time>
      </trkpt>
      <trkpt lat="45.93049" lon="5.82988">
        <ele>293</ele>
        <time>2021-09-12T07:45:53.807Z</time>
      </trkpt>
      <trkpt lat="45.93047" lon="5.8299">
        <ele>293</ele>
        <time>2021-09-12T07:45:54.806Z</time>
      </trkpt>
      <trkpt lat="45.93044" lon="5.82991">
        <ele>293</ele>
        <time>2021-09-12T07:45:55.807Z</time>
      </trkpt>
      <trkpt lat="45.93042" lon="5.82993">
        <ele>293</ele>
        <time>2021-09-12T07:45:56.807Z</time>
      </trkpt>
      <trkpt lat="45.93039" lon="5.82995">
        <ele>293</ele>
        <time>2021-09-12T07:45:57.807Z</time>
      </trkpt>
      <trkpt lat="45.93036" lon="5.82997">
        <ele>294</ele>
        <time>2021-09-12T07:45:58.807Z</time>
      </trkpt>
      <trkpt lat="45.93034" lon="5.82998">
        <ele>293</ele>
        <time>2021-09-12T07:45:59.806Z</time>
      </trkpt>
      <trkpt lat="45.93032" lon="5.83">
        <ele>294</ele>
        <time>2021-09-12T07:46:00.806Z</time>
      </trkpt>
      <trkpt lat="45.93029" lon="5.83002">
        <ele>294</ele>
        <time>2021-09-12T07:46:01.806Z</time>
      </trkpt>
      <trkpt lat="45.93026" lon="5.83004">
        <ele>294</ele>
        <time>2021-09-12T07:46:02.807Z</time>
      </trkpt>
      <trkpt lat="45.93024" lon="5.83006">
        <ele>294</ele>
        <time>2021-09-12T07:46:03.806Z</time>
      </trkpt>
      <trkpt lat="45.93022" lon="5.83007">
        <ele>294</ele>
        <time>2021-09-12T07:46:04.806Z</time>
      </trkpt>
      <trkpt lat="45.93019" lon="5.83009">
        <ele>294</ele>
        <time>2021-09-12T07:46:05.807Z</time>
      </trkpt>
      <trkpt lat="45.93017" lon="5.83011">
        <ele>293</ele>
        <time>2021-09-12T07:46:06.806Z</time>
      </trkpt>
      <trkpt lat="45.93014" lon="5.83013">
        <ele>293</ele>
        <time>2021-09-12T07:46:07.806Z</time>
      </trkpt>
      <trkpt lat="45.93011" lon="5.83015">
        <ele>293</ele>
        <time>2021-09-12T07:46:08.806Z</time>
      </trkpt>
      <trkpt lat="45.93009" lon="5.83017">
        <ele>293</ele>
        <time>2021-09-12T07:46:09.807Z</time>
      </trkpt>
      <trkpt lat="45.93007" lon="5.83018">
        <ele>293</ele>
        <time>2021-09-12T07:46:10.807Z</time>
      </trkpt>
      <trkpt lat="45.93004" lon="5.83019">
        <ele>293</ele>
        <time>2021-09-12T07:46:11.807Z</time>
      </trkpt>
      <trkpt lat="45.93002" lon="5.83021">
        <ele>293</ele>
        <time>2021-09-12T07:46:12.807Z</time>
      </trkpt>
      <trkpt lat="45.92999" lon="5.83023">
        <ele>294</ele>
        <time>2021-09-12T07:46:13.807Z</time>
      </trkpt>
      <trkpt lat="45.92997" lon="5.83024">
        <ele>294</ele>
        <time>2021-09-12T07:46:14.807Z</time>
      </trkpt>
      <trkpt lat="45.92995" lon="5.83026">
        <ele>294</ele>
        <time>2021-09-12T07:46:15.807Z</time>
      </trkpt>
      <trkpt lat="45.92992" lon="5.83028">
        <ele>294</ele>
        <time>2021-09-12T07:46:16.806Z</time>
      </trkpt>
      <trkpt lat="45.92991" lon="5.83029">
        <ele>295</ele>
        <time>2021-09-12T07:46:17.807Z</time>
      </trkpt>
      <trkpt lat="45.92988" lon="5.83031">
        <ele>295</ele>
        <time>2021-09-12T07:46:18.806Z</time>
      </trkpt>
      <trkpt lat="45.92987" lon="5.83033">
        <ele>295</ele>
        <time>2021-09-12T07:46:19.806Z</time>
      </trkpt>
      <trkpt lat="45.92984" lon="5.83035">
        <ele>296</ele>
        <time>2021-09-12T07:46:20.807Z</time>
      </trkpt>
      <trkpt lat="45.92982" lon="5.83036">
        <ele>296</ele>
        <time>2021-09-12T07:46:21.807Z</time>
      </trkpt>
      <trkpt lat="45.92979" lon="5.83038">
        <ele>296</ele>
        <time>2021-09-12T07:46:22.807Z</time>
      </trkpt>
      <trkpt lat="45.92977" lon="5.83039">
        <ele>296</ele>
        <time>2021-09-12T07:46:23.807Z</time>
      </trkpt>
      <trkpt lat="45.92975" lon="5.83039">
        <ele>296</ele>
        <time>2021-09-12T07:46:24.807Z</time>
      </trkpt>
      <trkpt lat="45.92972" lon="5.83041">
        <ele>296</ele>
        <time>2021-09-12T07:46:25.807Z</time>
      </trkpt>
      <trkpt lat="45.92969" lon="5.83043">
        <ele>295</ele>
        <time>2021-09-12T07:46:26.807Z</time>
      </trkpt>
      <trkpt lat="45.92967" lon="5.83044">
        <ele>295</ele>
        <time>2021-09-12T07:46:27.806Z</time>
      </trkpt>
      <trkpt lat="45.92965" lon="5.83045">
        <ele>296</ele>
        <time>2021-09-12T07:46:28.807Z</time>
      </trkpt>
      <trkpt lat="45.92962" lon="5.83047">
        <ele>296</ele>
        <time>2021-09-12T07:46:29.806Z</time>
      </trkpt>
      <trkpt lat="45.92959" lon="5.83049">
        <ele>295</ele>
        <time>2021-09-12T07:46:30.807Z</time>
      </trkpt>
      <trkpt lat="45.92957" lon="5.83051">
        <ele>295</ele>
        <time>2021-09-12T07:46:31.806Z</time>
      </trkpt>
      <trkpt lat="45.92955" lon="5.83052">
        <ele>295</ele>
        <time>2021-09-12T07:46:32.807Z</time>
      </trkpt>
      <trkpt lat="45.92953" lon="5.83054">
        <ele>295</ele>
        <time>2021-09-12T07:46:33.806Z</time>
      </trkpt>
      <trkpt lat="45.92949" lon="5.83056">
        <ele>295</ele>
        <time>2021-09-12T07:46:34.807Z</time>
      </trkpt>
      <trkpt lat="45.92947" lon="5.83057">
        <ele>295</ele>
        <time>2021-09-12T07:46:35.807Z</time>
      </trkpt>
      <trkpt lat="45.92945" lon="5.83059">
        <ele>295</ele>
        <time>2021-09-12T07:46:36.806Z</time>
      </trkpt>
      <trkpt lat="45.92943" lon="5.83061">
        <ele>294</ele>
        <time>2021-09-12T07:46:37.807Z</time>
      </trkpt>
      <trkpt lat="45.9294" lon="5.83063">
        <ele>294</ele>
        <time>2021-09-12T07:46:38.807Z</time>
      </trkpt>
      <trkpt lat="45.92937" lon="5.83065">
        <ele>294</ele>
        <time>2021-09-12T07:46:39.806Z</time>
      </trkpt>
      <trkpt lat="45.92934" lon="5.83067">
        <ele>294</ele>
        <time>2021-09-12T07:46:40.806Z</time>
      </trkpt>
      <trkpt lat="45.92932" lon="5.83068">
        <ele>294</ele>
        <time>2021-09-12T07:46:41.807Z</time>
      </trkpt>
      <trkpt lat="45.92929" lon="5.8307">
        <ele>294</ele>
        <time>2021-09-12T07:46:42.807Z</time>
      </trkpt>
      <trkpt lat="45.92925" lon="5.83072">
        <ele>294</ele>
        <time>2021-09-12T07:46:43.807Z</time>
      </trkpt>
      <trkpt lat="45.92922" lon="5.83074">
        <ele>294</ele>
        <time>2021-09-12T07:46:44.806Z</time>
      </trkpt>
      <trkpt lat="45.92919" lon="5.83076">
        <ele>294</ele>
        <time>2021-09-12T07:46:45.806Z</time>
      </trkpt>
      <trkpt lat="45.92917" lon="5.83078">
        <ele>294</ele>
        <time>2021-09-12T07:46:46.806Z</time>
      </trkpt>
      <trkpt lat="45.92914" lon="5.8308">
        <ele>294</ele>
        <time>2021-09-12T07:46:47.807Z</time>
      </trkpt>
      <trkpt lat="45.9291" lon="5.83083">
        <ele>294</ele>
        <time>2021-09-12T07:46:48.806Z</time>
      </trkpt>
      <trkpt lat="45.92906" lon="5.83085">
        <ele>294</ele>
        <time>2021-09-12T07:46:49.806Z</time>
      </trkpt>
      <trkpt lat="45.92903" lon="5.83088">
        <ele>295</ele>
        <time>2021-09-12T07:46:50.806Z</time>
      </trkpt>
      <trkpt lat="45.929" lon="5.8309">
        <ele>295</ele>
        <time>2021-09-12T07:46:51.807Z</time>
      </trkpt>
      <trkpt lat="45.92897" lon="5.83092">
        <ele>295</ele>
        <time>2021-09-12T07:46:52.807Z</time>
      </trkpt>
      <trkpt lat="45.92893" lon="5.83094">
        <ele>295</ele>
        <time>2021-09-12T07:46:53.806Z</time>
      </trkpt>
      <trkpt lat="45.9289" lon="5.83096">
        <ele>294</ele>
        <time>2021-09-12T07:46:54.807Z</time>
      </trkpt>
      <trkpt lat="45.92887" lon="5.83098">
        <ele>294</ele>
        <time>2021-09-12T07:46:55.807Z</time>
      </trkpt>
      <trkpt lat="45.92884" lon="5.831">
        <ele>294</ele>
        <time>2021-09-12T07:46:56.806Z</time>
      </trkpt>
      <trkpt lat="45.9288" lon="5.83103">
        <ele>294</ele>
        <time>2021-09-12T07:46:57.807Z</time>
      </trkpt>
      <trkpt lat="45.92876" lon="5.83106">
        <ele>294</ele>
        <time>2021-09-12T07:46:58.807Z</time>
      </trkpt>
      <trkpt lat="45.92873" lon="5.83108">
        <ele>294</ele>
        <time>2021-09-12T07:46:59.807Z</time>
      </trkpt>
      <trkpt lat="45.92871" lon="5.83111">
        <ele>294</ele>
        <time>2021-09-12T07:47:00.806Z</time>
      </trkpt>
      <trkpt lat="45.92867" lon="5.83114">
        <ele>295</ele>
        <time>2021-09-12T07:47:01.807Z</time>
      </trkpt>
      <trkpt lat="45.92864" lon="5.83117">
        <ele>296</ele>
        <time>2021-09-12T07:47:02.807Z</time>
      </trkpt>
      <trkpt lat="45.9286" lon="5.8312">
        <ele>296</ele>
        <time>2021-09-12T07:47:03.806Z</time>
      </trkpt>
      <trkpt lat="45.92857" lon="5.83124">
        <ele>297</ele>
        <time>2021-09-12T07:47:04.807Z</time>
      </trkpt>
      <trkpt lat="45.92854" lon="5.83128">
        <ele>297</ele>
        <time>2021-09-12T07:47:05.806Z</time>
      </trkpt>
      <trkpt lat="45.92852" lon="5.83131">
        <ele>298</ele>
        <time>2021-09-12T07:47:06.806Z</time>
      </trkpt>
      <trkpt lat="45.92848" lon="5.83135">
        <ele>298</ele>
        <time>2021-09-12T07:47:07.807Z</time>
      </trkpt>
      <trkpt lat="45.92845" lon="5.8314">
        <ele>298</ele>
        <time>2021-09-12T07:47:08.807Z</time>
      </trkpt>
      <trkpt lat="45.92843" lon="5.83143">
        <ele>297</ele>
        <time>2021-09-12T07:47:09.807Z</time>
      </trkpt>
      <trkpt lat="45.9284" lon="5.83147">
        <ele>297</ele>
        <time>2021-09-12T07:47:10.806Z</time>
      </trkpt>
      <trkpt lat="45.92837" lon="5.83152">
        <ele>297</ele>
        <time>2021-09-12T07:47:11.807Z</time>
      </trkpt>
      <trkpt lat="45.92835" lon="5.83157">
        <ele>297</ele>
        <time>2021-09-12T07:47:12.807Z</time>
      </trkpt>
      <trkpt lat="45.92832" lon="5.83162">
        <ele>296</ele>
        <time>2021-09-12T07:47:13.807Z</time>
      </trkpt>
      <trkpt lat="45.9283" lon="5.83168">
        <ele>296</ele>
        <time>2021-09-12T07:47:14.806Z</time>
      </trkpt>
      <trkpt lat="45.92827" lon="5.83173">
        <ele>296</ele>
        <time>2021-09-12T07:47:15.807Z</time>
      </trkpt>
      <trkpt lat="45.92824" lon="5.8318">
        <ele>296</ele>
        <time>2021-09-12T07:47:16.807Z</time>
      </trkpt>
      <trkpt lat="45.92822" lon="5.83185">
        <ele>296</ele>
        <time>2021-09-12T07:47:17.807Z</time>
      </trkpt>
      <trkpt lat="45.92819" lon="5.8319">
        <ele>296</ele>
        <time>2021-09-12T07:47:18.807Z</time>
      </trkpt>
      <trkpt lat="45.92817" lon="5.83195">
        <ele>296</ele>
        <time>2021-09-12T07:47:19.807Z</time>
      </trkpt>
      <trkpt lat="45.92815" lon="5.832">
        <ele>295</ele>
        <time>2021-09-12T07:47:20.807Z</time>
      </trkpt>
      <trkpt lat="45.92812" lon="5.83206">
        <ele>295</ele>
        <time>2021-09-12T07:47:21.806Z</time>
      </trkpt>
      <trkpt lat="45.9281" lon="5.83212">
        <ele>295</ele>
        <time>2021-09-12T07:47:22.807Z</time>
      </trkpt>
      <trkpt lat="45.92808" lon="5.83217">
        <ele>295</ele>
        <time>2021-09-12T07:47:23.806Z</time>
      </trkpt>
      <trkpt lat="45.92805" lon="5.83223">
        <ele>295</ele>
        <time>2021-09-12T07:47:24.806Z</time>
      </trkpt>
      <trkpt lat="45.92802" lon="5.8323">
        <ele>295</ele>
        <time>2021-09-12T07:47:25.807Z</time>
      </trkpt>
      <trkpt lat="45.928" lon="5.83236">
        <ele>296</ele>
        <time>2021-09-12T07:47:26.807Z</time>
      </trkpt>
      <trkpt lat="45.92797" lon="5.83242">
        <ele>296</ele>
        <time>2021-09-12T07:47:27.806Z</time>
      </trkpt>
      <trkpt lat="45.92794" lon="5.83247">
        <ele>296</ele>
        <time>2021-09-12T07:47:28.806Z</time>
      </trkpt>
      <trkpt lat="45.92791" lon="5.83252">
        <ele>296</ele>
        <time>2021-09-12T07:47:29.807Z</time>
      </trkpt>
      <trkpt lat="45.92788" lon="5.83258">
        <ele>296</ele>
        <time>2021-09-12T07:47:30.807Z</time>
      </trkpt>
      <trkpt lat="45.92786" lon="5.83264">
        <ele>296</ele>
        <time>2021-09-12T07:47:31.807Z</time>
      </trkpt>
      <trkpt lat="45.92783" lon="5.83269">
        <ele>297</ele>
        <time>2021-09-12T07:47:32.807Z</time>
      </trkpt>
      <trkpt lat="45.92781" lon="5.83275">
        <ele>297</ele>
        <time>2021-09-12T07:47:33.807Z</time>
      </trkpt>
      <trkpt lat="45.92779" lon="5.8328">
        <ele>297</ele>
        <time>2021-09-12T07:47:34.807Z</time>
      </trkpt>
      <trkpt lat="45.92776" lon="5.83286">
        <ele>297</ele>
        <time>2021-09-12T07:47:35.807Z</time>
      </trkpt>
      <trkpt lat="45.92774" lon="5.83292">
        <ele>297</ele>
        <time>2021-09-12T07:47:36.806Z</time>
      </trkpt>
      <trkpt lat="45.92772" lon="5.83297">
        <ele>297</ele>
        <time>2021-09-12T07:47:37.806Z</time>
      </trkpt>
      <trkpt lat="45.9277" lon="5.83303">
        <ele>297</ele>
        <time>2021-09-12T07:47:38.806Z</time>
      </trkpt>
      <trkpt lat="45.92768" lon="5.8331">
        <ele>297</ele>
        <time>2021-09-12T07:47:39.806Z</time>
      </trkpt>
      <trkpt lat="45.92766" lon="5.83316">
        <ele>296</ele>
        <time>2021-09-12T07:47:40.806Z</time>
      </trkpt>
      <trkpt lat="45.92763" lon="5.83322">
        <ele>296</ele>
        <time>2021-09-12T07:47:41.806Z</time>
      </trkpt>
      <trkpt lat="45.9276" lon="5.83328">
        <ele>296</ele>
        <time>2021-09-12T07:47:42.807Z</time>
      </trkpt>
      <trkpt lat="45.92757" lon="5.83334">
        <ele>296</ele>
        <time>2021-09-12T07:47:43.806Z</time>
      </trkpt>
      <trkpt lat="45.92754" lon="5.83342">
        <ele>295</ele>
        <time>2021-09-12T07:47:44.807Z</time>
      </trkpt>
      <trkpt lat="45.92752" lon="5.83347">
        <ele>295</ele>
        <time>2021-09-12T07:47:45.806Z</time>
      </trkpt>
      <trkpt lat="45.92749" lon="5.83354">
        <ele>295</ele>
        <time>2021-09-12T07:47:46.806Z</time>
      </trkpt>
      <trkpt lat="45.92745" lon="5.83362">
        <ele>295</ele>
        <time>2021-09-12T07:47:47.807Z</time>
      </trkpt>
      <trkpt lat="45.92742" lon="5.83368">
        <ele>295</ele>
        <time>2021-09-12T07:47:48.807Z</time>
      </trkpt>
      <trkpt lat="45.92739" lon="5.83375">
        <ele>295</ele>
        <time>2021-09-12T07:47:49.807Z</time>
      </trkpt>
      <trkpt lat="45.92736" lon="5.83381">
        <ele>295</ele>
        <time>2021-09-12T07:47:50.807Z</time>
      </trkpt>
      <trkpt lat="45.92734" lon="5.83386">
        <ele>295</ele>
        <time>2021-09-12T07:47:51.807Z</time>
      </trkpt>
      <trkpt lat="45.9273" lon="5.83394">
        <ele>295</ele>
        <time>2021-09-12T07:47:52.806Z</time>
      </trkpt>
      <trkpt lat="45.92726" lon="5.834">
        <ele>294</ele>
        <time>2021-09-12T07:47:53.806Z</time>
      </trkpt>
      <trkpt lat="45.92722" lon="5.83406">
        <ele>294</ele>
        <time>2021-09-12T07:47:54.807Z</time>
      </trkpt>
      <trkpt lat="45.92718" lon="5.83412">
        <ele>294</ele>
        <time>2021-09-12T07:47:55.806Z</time>
      </trkpt>
      <trkpt lat="45.92714" lon="5.83417">
        <ele>293</ele>
        <time>2021-09-12T07:47:56.807Z</time>
      </trkpt>
      <trkpt lat="45.92708" lon="5.83422">
        <ele>293</ele>
        <time>2021-09-12T07:47:57.806Z</time>
      </trkpt>
      <trkpt lat="45.92703" lon="5.83426">
        <ele>293</ele>
        <time>2021-09-12T07:47:58.807Z</time>
      </trkpt>
      <trkpt lat="45.92697" lon="5.83429">
        <ele>293</ele>
        <time>2021-09-12T07:47:59.807Z</time>
      </trkpt>
      <trkpt lat="45.92692" lon="5.83431">
        <ele>293</ele>
        <time>2021-09-12T07:48:00.807Z</time>
      </trkpt>
      <trkpt lat="45.92685" lon="5.83432">
        <ele>293</ele>
        <time>2021-09-12T07:48:01.806Z</time>
      </trkpt>
      <trkpt lat="45.92679" lon="5.83433">
        <ele>293</ele>
        <time>2021-09-12T07:48:02.807Z</time>
      </trkpt>
      <trkpt lat="45.92673" lon="5.83432">
        <ele>293</ele>
        <time>2021-09-12T07:48:03.807Z</time>
      </trkpt>
      <trkpt lat="45.92667" lon="5.83431">
        <ele>293</ele>
        <time>2021-09-12T07:48:04.807Z</time>
      </trkpt>
      <trkpt lat="45.92661" lon="5.8343">
        <ele>293</ele>
        <time>2021-09-12T07:48:05.807Z</time>
      </trkpt>
      <trkpt lat="45.92654" lon="5.83429">
        <ele>293</ele>
        <time>2021-09-12T07:48:06.807Z</time>
      </trkpt>
      <trkpt lat="45.92648" lon="5.83428">
        <ele>293</ele>
        <time>2021-09-12T07:48:07.806Z</time>
      </trkpt>
      <trkpt lat="45.92642" lon="5.83426">
        <ele>293</ele>
        <time>2021-09-12T07:48:08.807Z</time>
      </trkpt>
      <trkpt lat="45.92637" lon="5.83425">
        <ele>293</ele>
        <time>2021-09-12T07:48:09.807Z</time>
      </trkpt>
      <trkpt lat="45.92629" lon="5.83423">
        <ele>293</ele>
        <time>2021-09-12T07:48:10.807Z</time>
      </trkpt>
      <trkpt lat="45.92623" lon="5.83422">
        <ele>292</ele>
        <time>2021-09-12T07:48:11.807Z</time>
      </trkpt>
      <trkpt lat="45.92617" lon="5.83421">
        <ele>292</ele>
        <time>2021-09-12T07:48:12.807Z</time>
      </trkpt>
      <trkpt lat="45.9261" lon="5.8342">
        <ele>291</ele>
        <time>2021-09-12T07:48:13.806Z</time>
      </trkpt>
      <trkpt lat="45.92604" lon="5.83419">
        <ele>291</ele>
        <time>2021-09-12T07:48:14.807Z</time>
      </trkpt>
      <trkpt lat="45.92597" lon="5.83418">
        <ele>291</ele>
        <time>2021-09-12T07:48:15.807Z</time>
      </trkpt>
      <trkpt lat="45.92591" lon="5.83417">
        <ele>291</ele>
        <time>2021-09-12T07:48:16.807Z</time>
      </trkpt>
      <trkpt lat="45.92585" lon="5.83416">
        <ele>291</ele>
        <time>2021-09-12T07:48:17.806Z</time>
      </trkpt>
      <trkpt lat="45.92578" lon="5.83415">
        <ele>290</ele>
        <time>2021-09-12T07:48:18.806Z</time>
      </trkpt>
      <trkpt lat="45.92573" lon="5.83415">
        <ele>290</ele>
        <time>2021-09-12T07:48:19.807Z</time>
      </trkpt>
      <trkpt lat="45.92566" lon="5.83416">
        <ele>290</ele>
        <time>2021-09-12T07:48:20.807Z</time>
      </trkpt>
      <trkpt lat="45.92559" lon="5.83417">
        <ele>290</ele>
        <time>2021-09-12T07:48:21.807Z</time>
      </trkpt>
      <trkpt lat="45.92553" lon="5.83419">
        <ele>289</ele>
        <time>2021-09-12T07:48:22.806Z</time>
      </trkpt>
      <trkpt lat="45.92548" lon="5.8342">
        <ele>289</ele>
        <time>2021-09-12T07:48:23.806Z</time>
      </trkpt>
      <trkpt lat="45.92542" lon="5.83423">
        <ele>289</ele>
        <time>2021-09-12T07:48:24.806Z</time>
      </trkpt>
      <trkpt lat="45.92534" lon="5.83425">
        <ele>289</ele>
        <time>2021-09-12T07:48:25.807Z</time>
      </trkpt>
      <trkpt lat="45.92528" lon="5.83428">
        <ele>289</ele>
        <time>2021-09-12T07:48:26.807Z</time>
      </trkpt>
      <trkpt lat="45.92523" lon="5.8343">
        <ele>289</ele>
        <time>2021-09-12T07:48:27.806Z</time>
      </trkpt>
      <trkpt lat="45.92517" lon="5.83432">
        <ele>289</ele>
        <time>2021-09-12T07:48:28.807Z</time>
      </trkpt>
      <trkpt lat="45.9251" lon="5.83434">
        <ele>289</ele>
        <time>2021-09-12T07:48:29.807Z</time>
      </trkpt>
      <trkpt lat="45.92504" lon="5.83437">
        <ele>290</ele>
        <time>2021-09-12T07:48:30.807Z</time>
      </trkpt>
      <trkpt lat="45.92498" lon="5.83439">
        <ele>290</ele>
        <time>2021-09-12T07:48:31.806Z</time>
      </trkpt>
      <trkpt lat="45.92493" lon="5.83441">
        <ele>291</ele>
        <time>2021-09-12T07:48:32.806Z</time>
      </trkpt>
      <trkpt lat="45.92486" lon="5.83444">
        <ele>291</ele>
        <time>2021-09-12T07:48:33.806Z</time>
      </trkpt>
      <trkpt lat="45.92481" lon="5.83446">
        <ele>291</ele>
        <time>2021-09-12T07:48:34.807Z</time>
      </trkpt>
      <trkpt lat="45.92475" lon="5.83448">
        <ele>291</ele>
        <time>2021-09-12T07:48:35.806Z</time>
      </trkpt>
      <trkpt lat="45.9247" lon="5.8345">
        <ele>290</ele>
        <time>2021-09-12T07:48:36.807Z</time>
      </trkpt>
      <trkpt lat="45.92463" lon="5.83453">
        <ele>290</ele>
        <time>2021-09-12T07:48:37.806Z</time>
      </trkpt>
      <trkpt lat="45.92457" lon="5.83455">
        <ele>290</ele>
        <time>2021-09-12T07:48:38.807Z</time>
      </trkpt>
      <trkpt lat="45.92452" lon="5.83457">
        <ele>290</ele>
        <time>2021-09-12T07:48:39.806Z</time>
      </trkpt>
      <trkpt lat="45.92446" lon="5.8346">
        <ele>290</ele>
        <time>2021-09-12T07:48:40.807Z</time>
      </trkpt>
      <trkpt lat="45.9244" lon="5.83462">
        <ele>289</ele>
        <time>2021-09-12T07:48:41.807Z</time>
      </trkpt>
      <trkpt lat="45.92435" lon="5.83464">
        <ele>289</ele>
        <time>2021-09-12T07:48:42.807Z</time>
      </trkpt>
      <trkpt lat="45.92429" lon="5.83466">
        <ele>288</ele>
        <time>2021-09-12T07:48:43.807Z</time>
      </trkpt>
      <trkpt lat="45.92423" lon="5.83468">
        <ele>288</ele>
        <time>2021-09-12T07:48:44.807Z</time>
      </trkpt>
      <trkpt lat="45.92418" lon="5.8347">
        <ele>288</ele>
        <time>2021-09-12T07:48:45.806Z</time>
      </trkpt>
      <trkpt lat="45.92412" lon="5.83472">
        <ele>287</ele>
        <time>2021-09-12T07:48:46.807Z</time>
      </trkpt>
      <trkpt lat="45.92406" lon="5.83474">
        <ele>287</ele>
        <time>2021-09-12T07:48:47.807Z</time>
      </trkpt>
      <trkpt lat="45.92401" lon="5.83476">
        <ele>287</ele>
        <time>2021-09-12T07:48:48.806Z</time>
      </trkpt>
      <trkpt lat="45.92395" lon="5.83478">
        <ele>287</ele>
        <time>2021-09-12T07:48:49.806Z</time>
      </trkpt>
      <trkpt lat="45.92389" lon="5.8348">
        <ele>287</ele>
        <time>2021-09-12T07:48:50.806Z</time>
      </trkpt>
      <trkpt lat="45.92384" lon="5.83482">
        <ele>287</ele>
        <time>2021-09-12T07:48:51.807Z</time>
      </trkpt>
      <trkpt lat="45.92378" lon="5.83485">
        <ele>287</ele>
        <time>2021-09-12T07:48:52.807Z</time>
      </trkpt>
      <trkpt lat="45.92373" lon="5.83487">
        <ele>287</ele>
        <time>2021-09-12T07:48:53.807Z</time>
      </trkpt>
      <trkpt lat="45.92367" lon="5.83489">
        <ele>287</ele>
        <time>2021-09-12T07:48:54.806Z</time>
      </trkpt>
      <trkpt lat="45.92361" lon="5.83492">
        <ele>287</ele>
        <time>2021-09-12T07:48:55.806Z</time>
      </trkpt>
      <trkpt lat="45.92356" lon="5.83495">
        <ele>287</ele>
        <time>2021-09-12T07:48:56.807Z</time>
      </trkpt>
      <trkpt lat="45.92351" lon="5.83499">
        <ele>287</ele>
        <time>2021-09-12T07:48:57.807Z</time>
      </trkpt>
      <trkpt lat="45.92346" lon="5.83503">
        <ele>287</ele>
        <time>2021-09-12T07:48:58.807Z</time>
      </trkpt>
      <trkpt lat="45.92341" lon="5.83507">
        <ele>287</ele>
        <time>2021-09-12T07:48:59.807Z</time>
      </trkpt>
      <trkpt lat="45.92337" lon="5.83513">
        <ele>287</ele>
        <time>2021-09-12T07:49:00.806Z</time>
      </trkpt>
      <trkpt lat="45.92332" lon="5.83519">
        <ele>288</ele>
        <time>2021-09-12T07:49:01.807Z</time>
      </trkpt>
      <trkpt lat="45.92329" lon="5.83527">
        <ele>288</ele>
        <time>2021-09-12T07:49:02.807Z</time>
      </trkpt>
      <trkpt lat="45.92326" lon="5.83533">
        <ele>288</ele>
        <time>2021-09-12T07:49:03.807Z</time>
      </trkpt>
      <trkpt lat="45.92323" lon="5.8354">
        <ele>289</ele>
        <time>2021-09-12T07:49:04.807Z</time>
      </trkpt>
      <trkpt lat="45.9232" lon="5.83549">
        <ele>289</ele>
        <time>2021-09-12T07:49:05.807Z</time>
      </trkpt>
      <trkpt lat="45.92318" lon="5.83557">
        <ele>289</ele>
        <time>2021-09-12T07:49:06.807Z</time>
      </trkpt>
      <trkpt lat="45.92316" lon="5.83567">
        <ele>289</ele>
        <time>2021-09-12T07:49:07.807Z</time>
      </trkpt>
      <trkpt lat="45.92315" lon="5.83576">
        <ele>289</ele>
        <time>2021-09-12T07:49:08.807Z</time>
      </trkpt>
      <trkpt lat="45.92313" lon="5.83585">
        <ele>289</ele>
        <time>2021-09-12T07:49:09.807Z</time>
      </trkpt>
      <trkpt lat="45.92312" lon="5.83595">
        <ele>289</ele>
        <time>2021-09-12T07:49:10.807Z</time>
      </trkpt>
      <trkpt lat="45.9231" lon="5.83604">
        <ele>289</ele>
        <time>2021-09-12T07:49:11.807Z</time>
      </trkpt>
      <trkpt lat="45.92309" lon="5.83614">
        <ele>289</ele>
        <time>2021-09-12T07:49:12.807Z</time>
      </trkpt>
      <trkpt lat="45.92307" lon="5.83623">
        <ele>289</ele>
        <time>2021-09-12T07:49:13.806Z</time>
      </trkpt>
      <trkpt lat="45.92305" lon="5.83634">
        <ele>289</ele>
        <time>2021-09-12T07:49:14.807Z</time>
      </trkpt>
      <trkpt lat="45.92303" lon="5.83644">
        <ele>288</ele>
        <time>2021-09-12T07:49:15.807Z</time>
      </trkpt>
      <trkpt lat="45.92302" lon="5.83651">
        <ele>288</ele>
        <time>2021-09-12T07:49:16.807Z</time>
      </trkpt>
      <trkpt lat="45.923" lon="5.83663">
        <ele>288</ele>
        <time>2021-09-12T07:49:17.807Z</time>
      </trkpt>
      <trkpt lat="45.92298" lon="5.83671">
        <ele>287</ele>
        <time>2021-09-12T07:49:18.807Z</time>
      </trkpt>
      <trkpt lat="45.92296" lon="5.83682">
        <ele>287</ele>
        <time>2021-09-12T07:49:19.807Z</time>
      </trkpt>
      <trkpt lat="45.92293" lon="5.8369">
        <ele>286</ele>
        <time>2021-09-12T07:49:20.807Z</time>
      </trkpt>
      <trkpt lat="45.92289" lon="5.83701">
        <ele>286</ele>
        <time>2021-09-12T07:49:21.806Z</time>
      </trkpt>
      <trkpt lat="45.92285" lon="5.8371">
        <ele>286</ele>
        <time>2021-09-12T07:49:22.807Z</time>
      </trkpt>
      <trkpt lat="45.92281" lon="5.83718">
        <ele>286</ele>
        <time>2021-09-12T07:49:23.807Z</time>
      </trkpt>
      <trkpt lat="45.92277" lon="5.83724">
        <ele>286</ele>
        <time>2021-09-12T07:49:24.807Z</time>
      </trkpt>
      <trkpt lat="45.92272" lon="5.83732">
        <ele>285</ele>
        <time>2021-09-12T07:49:25.807Z</time>
      </trkpt>
      <trkpt lat="45.92265" lon="5.83741">
        <ele>285</ele>
        <time>2021-09-12T07:49:26.807Z</time>
      </trkpt>
      <trkpt lat="45.92259" lon="5.83747">
        <ele>286</ele>
        <time>2021-09-12T07:49:27.807Z</time>
      </trkpt>
      <trkpt lat="45.92253" lon="5.83752">
        <ele>286</ele>
        <time>2021-09-12T07:49:28.807Z</time>
      </trkpt>
      <trkpt lat="45.92247" lon="5.83757">
        <ele>286</ele>
        <time>2021-09-12T07:49:29.806Z</time>
      </trkpt>
      <trkpt lat="45.9224" lon="5.83761">
        <ele>285</ele>
        <time>2021-09-12T07:49:30.807Z</time>
      </trkpt>
      <trkpt lat="45.92233" lon="5.83765">
        <ele>285</ele>
        <time>2021-09-12T07:49:31.807Z</time>
      </trkpt>
      <trkpt lat="45.92226" lon="5.83768">
        <ele>285</ele>
        <time>2021-09-12T07:49:32.807Z</time>
      </trkpt>
      <trkpt lat="45.9222" lon="5.83769">
        <ele>285</ele>
        <time>2021-09-12T07:49:33.807Z</time>
      </trkpt>
      <trkpt lat="45.92212" lon="5.83772">
        <ele>284</ele>
        <time>2021-09-12T07:49:34.807Z</time>
      </trkpt>
      <trkpt lat="45.92205" lon="5.83773">
        <ele>284</ele>
        <time>2021-09-12T07:49:35.807Z</time>
      </trkpt>
      <trkpt lat="45.92197" lon="5.83774">
        <ele>283</ele>
        <time>2021-09-12T07:49:36.807Z</time>
      </trkpt>
      <trkpt lat="45.9219" lon="5.83776">
        <ele>282</ele>
        <time>2021-09-12T07:49:37.806Z</time>
      </trkpt>
      <trkpt lat="45.92183" lon="5.83777">
        <ele>282</ele>
        <time>2021-09-12T07:49:38.807Z</time>
      </trkpt>
      <trkpt lat="45.92176" lon="5.83778">
        <ele>281</ele>
        <time>2021-09-12T07:49:39.807Z</time>
      </trkpt>
      <trkpt lat="45.92169" lon="5.8378">
        <ele>281</ele>
        <time>2021-09-12T07:49:40.807Z</time>
      </trkpt>
      <trkpt lat="45.92162" lon="5.83781">
        <ele>280</ele>
        <time>2021-09-12T07:49:41.807Z</time>
      </trkpt>
      <trkpt lat="45.92155" lon="5.83783">
        <ele>280</ele>
        <time>2021-09-12T07:49:42.807Z</time>
      </trkpt>
      <trkpt lat="45.92148" lon="5.83784">
        <ele>280</ele>
        <time>2021-09-12T07:49:43.807Z</time>
      </trkpt>
      <trkpt lat="45.9214" lon="5.83785">
        <ele>279</ele>
        <time>2021-09-12T07:49:44.807Z</time>
      </trkpt>
      <trkpt lat="45.92133" lon="5.83787">
        <ele>279</ele>
        <time>2021-09-12T07:49:45.806Z</time>
      </trkpt>
      <trkpt lat="45.92126" lon="5.83789">
        <ele>279</ele>
        <time>2021-09-12T07:49:46.807Z</time>
      </trkpt>
      <trkpt lat="45.9212" lon="5.8379">
        <ele>279</ele>
        <time>2021-09-12T07:49:47.807Z</time>
      </trkpt>
      <trkpt lat="45.92112" lon="5.83793">
        <ele>279</ele>
        <time>2021-09-12T07:49:48.807Z</time>
      </trkpt>
      <trkpt lat="45.92104" lon="5.83794">
        <ele>279</ele>
        <time>2021-09-12T07:49:49.807Z</time>
      </trkpt>
      <trkpt lat="45.92097" lon="5.83796">
        <ele>279</ele>
        <time>2021-09-12T07:49:50.807Z</time>
      </trkpt>
      <trkpt lat="45.9209" lon="5.83797">
        <ele>279</ele>
        <time>2021-09-12T07:49:51.807Z</time>
      </trkpt>
      <trkpt lat="45.92083" lon="5.83799">
        <ele>279</ele>
        <time>2021-09-12T07:49:52.807Z</time>
      </trkpt>
      <trkpt lat="45.92078" lon="5.838">
        <ele>279</ele>
        <time>2021-09-12T07:49:53.807Z</time>
      </trkpt>
      <trkpt lat="45.92071" lon="5.83802">
        <ele>278</ele>
        <time>2021-09-12T07:49:54.807Z</time>
      </trkpt>
      <trkpt lat="45.92062" lon="5.83804">
        <ele>278</ele>
        <time>2021-09-12T07:49:55.806Z</time>
      </trkpt>
      <trkpt lat="45.92055" lon="5.83805">
        <ele>278</ele>
        <time>2021-09-12T07:49:56.807Z</time>
      </trkpt>
      <trkpt lat="45.92049" lon="5.83807">
        <ele>278</ele>
        <time>2021-09-12T07:49:57.807Z</time>
      </trkpt>
      <trkpt lat="45.92041" lon="5.83809">
        <ele>278</ele>
        <time>2021-09-12T07:49:58.807Z</time>
      </trkpt>
      <trkpt lat="45.92034" lon="5.8381">
        <ele>277</ele>
        <time>2021-09-12T07:49:59.806Z</time>
      </trkpt>
      <trkpt lat="45.92027" lon="5.83812">
        <ele>277</ele>
        <time>2021-09-12T07:50:00.807Z</time>
      </trkpt>
      <trkpt lat="45.92021" lon="5.83813">
        <ele>277</ele>
        <time>2021-09-12T07:50:01.807Z</time>
      </trkpt>
      <trkpt lat="45.92014" lon="5.83815">
        <ele>278</ele>
        <time>2021-09-12T07:50:02.807Z</time>
      </trkpt>
      <trkpt lat="45.92006" lon="5.83817">
        <ele>277</ele>
        <time>2021-09-12T07:50:03.807Z</time>
      </trkpt>
      <trkpt lat="45.91999" lon="5.83819">
        <ele>277</ele>
        <time>2021-09-12T07:50:04.807Z</time>
      </trkpt>
      <trkpt lat="45.91993" lon="5.8382">
        <ele>277</ele>
        <time>2021-09-12T07:50:05.807Z</time>
      </trkpt>
      <trkpt lat="45.91987" lon="5.83821">
        <ele>276</ele>
        <time>2021-09-12T07:50:06.807Z</time>
      </trkpt>
      <trkpt lat="45.91981" lon="5.83823">
        <ele>276</ele>
        <time>2021-09-12T07:50:07.806Z</time>
      </trkpt>
      <trkpt lat="45.91973" lon="5.83825">
        <ele>276</ele>
        <time>2021-09-12T07:50:08.806Z</time>
      </trkpt>
      <trkpt lat="45.91967" lon="5.83827">
        <ele>276</ele>
        <time>2021-09-12T07:50:09.807Z</time>
      </trkpt>
      <trkpt lat="45.91961" lon="5.83828">
        <ele>276</ele>
        <time>2021-09-12T07:50:10.807Z</time>
      </trkpt>
      <trkpt lat="45.91956" lon="5.83829">
        <ele>276</ele>
        <time>2021-09-12T07:50:11.807Z</time>
      </trkpt>
      <trkpt lat="45.91951" lon="5.83831">
        <ele>276</ele>
        <time>2021-09-12T07:50:12.807Z</time>
      </trkpt>
      <trkpt lat="45.91945" lon="5.83832">
        <ele>276</ele>
        <time>2021-09-12T07:50:13.807Z</time>
      </trkpt>
      <trkpt lat="45.91939" lon="5.83833">
        <ele>275</ele>
        <time>2021-09-12T07:50:14.807Z</time>
      </trkpt>
      <trkpt lat="45.91933" lon="5.83835">
        <ele>275</ele>
        <time>2021-09-12T07:50:15.806Z</time>
      </trkpt>
      <trkpt lat="45.91927" lon="5.83836">
        <ele>275</ele>
        <time>2021-09-12T07:50:16.807Z</time>
      </trkpt>
      <trkpt lat="45.91921" lon="5.83837">
        <ele>275</ele>
        <time>2021-09-12T07:50:17.807Z</time>
      </trkpt>
      <trkpt lat="45.91916" lon="5.83839">
        <ele>275</ele>
        <time>2021-09-12T07:50:18.807Z</time>
      </trkpt>
      <trkpt lat="45.9191" lon="5.8384">
        <ele>274</ele>
        <time>2021-09-12T07:50:19.807Z</time>
      </trkpt>
      <trkpt lat="45.91906" lon="5.83842">
        <ele>274</ele>
        <time>2021-09-12T07:50:20.806Z</time>
      </trkpt>
      <trkpt lat="45.91899" lon="5.83845">
        <ele>274</ele>
        <time>2021-09-12T07:50:21.807Z</time>
      </trkpt>
      <trkpt lat="45.91894" lon="5.83848">
        <ele>274</ele>
        <time>2021-09-12T07:50:22.807Z</time>
      </trkpt>
      <trkpt lat="45.91888" lon="5.83851">
        <ele>275</ele>
        <time>2021-09-12T07:50:23.806Z</time>
      </trkpt>
      <trkpt lat="45.91883" lon="5.83855">
        <ele>275</ele>
        <time>2021-09-12T07:50:24.807Z</time>
      </trkpt>
      <trkpt lat="45.91879" lon="5.83858">
        <ele>276</ele>
        <time>2021-09-12T07:50:25.806Z</time>
      </trkpt>
      <trkpt lat="45.91873" lon="5.83862">
        <ele>277</ele>
        <time>2021-09-12T07:50:26.806Z</time>
      </trkpt>
      <trkpt lat="45.91867" lon="5.83865">
        <ele>277</ele>
        <time>2021-09-12T07:50:27.806Z</time>
      </trkpt>
      <trkpt lat="45.91862" lon="5.83868">
        <ele>277</ele>
        <time>2021-09-12T07:50:28.807Z</time>
      </trkpt>
      <trkpt lat="45.91857" lon="5.83872">
        <ele>277</ele>
        <time>2021-09-12T07:50:29.807Z</time>
      </trkpt>
      <trkpt lat="45.91852" lon="5.83874">
        <ele>277</ele>
        <time>2021-09-12T07:50:30.807Z</time>
      </trkpt>
      <trkpt lat="45.91846" lon="5.83876">
        <ele>277</ele>
        <time>2021-09-12T07:50:31.807Z</time>
      </trkpt>
      <trkpt lat="45.91841" lon="5.83878">
        <ele>277</ele>
        <time>2021-09-12T07:50:32.806Z</time>
      </trkpt>
      <trkpt lat="45.91835" lon="5.8388">
        <ele>277</ele>
        <time>2021-09-12T07:50:33.806Z</time>
      </trkpt>
      <trkpt lat="45.91831" lon="5.83881">
        <ele>278</ele>
        <time>2021-09-12T07:50:34.806Z</time>
      </trkpt>
      <trkpt lat="45.91826" lon="5.83882">
        <ele>278</ele>
        <time>2021-09-12T07:50:35.807Z</time>
      </trkpt>
      <trkpt lat="45.91821" lon="5.83883">
        <ele>279</ele>
        <time>2021-09-12T07:50:36.807Z</time>
      </trkpt>
      <trkpt lat="45.91815" lon="5.83883">
        <ele>280</ele>
        <time>2021-09-12T07:50:37.807Z</time>
      </trkpt>
      <trkpt lat="45.91811" lon="5.83884">
        <ele>280</ele>
        <time>2021-09-12T07:50:38.807Z</time>
      </trkpt>
      <trkpt lat="45.91807" lon="5.83884">
        <ele>280</ele>
        <time>2021-09-12T07:50:39.806Z</time>
      </trkpt>
      <trkpt lat="45.91803" lon="5.83885">
        <ele>280</ele>
        <time>2021-09-12T07:50:40.806Z</time>
      </trkpt>
      <trkpt lat="45.91798" lon="5.83886">
        <ele>280</ele>
        <time>2021-09-12T07:50:41.807Z</time>
      </trkpt>
      <trkpt lat="45.91794" lon="5.83886">
        <ele>281</ele>
        <time>2021-09-12T07:50:42.806Z</time>
      </trkpt>
      <trkpt lat="45.9179" lon="5.83886">
        <ele>281</ele>
        <time>2021-09-12T07:50:43.807Z</time>
      </trkpt>
      <trkpt lat="45.91788" lon="5.83887">
        <ele>282</ele>
        <time>2021-09-12T07:50:44.807Z</time>
      </trkpt>
      <trkpt lat="45.91783" lon="5.83888">
        <ele>282</ele>
        <time>2021-09-12T07:50:45.806Z</time>
      </trkpt>
      <trkpt lat="45.9178" lon="5.83888">
        <ele>283</ele>
        <time>2021-09-12T07:50:46.807Z</time>
      </trkpt>
      <trkpt lat="45.91777" lon="5.83889">
        <ele>283</ele>
        <time>2021-09-12T07:50:47.807Z</time>
      </trkpt>
      <trkpt lat="45.91773" lon="5.83889">
        <ele>283</ele>
        <time>2021-09-12T07:50:48.807Z</time>
      </trkpt>
      <trkpt lat="45.9177" lon="5.8389">
        <ele>283</ele>
        <time>2021-09-12T07:50:49.806Z</time>
      </trkpt>
      <trkpt lat="45.91765" lon="5.8389">
        <ele>282</ele>
        <time>2021-09-12T07:50:50.807Z</time>
      </trkpt>
      <trkpt lat="45.91763" lon="5.83891">
        <ele>282</ele>
        <time>2021-09-12T07:50:51.807Z</time>
      </trkpt>
      <trkpt lat="45.91759" lon="5.83892">
        <ele>282</ele>
        <time>2021-09-12T07:50:52.807Z</time>
      </trkpt>
      <trkpt lat="45.91755" lon="5.83892">
        <ele>282</ele>
        <time>2021-09-12T07:50:53.806Z</time>
      </trkpt>
      <trkpt lat="45.91752" lon="5.83893">
        <ele>282</ele>
        <time>2021-09-12T07:50:54.807Z</time>
      </trkpt>
      <trkpt lat="45.91747" lon="5.83894">
        <ele>282</ele>
        <time>2021-09-12T07:50:55.806Z</time>
      </trkpt>
      <trkpt lat="45.91743" lon="5.83894">
        <ele>282</ele>
        <time>2021-09-12T07:50:56.806Z</time>
      </trkpt>
      <trkpt lat="45.9174" lon="5.83895">
        <ele>281</ele>
        <time>2021-09-12T07:50:57.806Z</time>
      </trkpt>
      <trkpt lat="45.91737" lon="5.83896">
        <ele>281</ele>
        <time>2021-09-12T07:50:58.806Z</time>
      </trkpt>
      <trkpt lat="45.91732" lon="5.83896">
        <ele>281</ele>
        <time>2021-09-12T07:50:59.807Z</time>
      </trkpt>
      <trkpt lat="45.91729" lon="5.83897">
        <ele>280</ele>
        <time>2021-09-12T07:51:00.806Z</time>
      </trkpt>
      <trkpt lat="45.91725" lon="5.83897">
        <ele>280</ele>
        <time>2021-09-12T07:51:01.807Z</time>
      </trkpt>
      <trkpt lat="45.91722" lon="5.83898">
        <ele>280</ele>
        <time>2021-09-12T07:51:02.807Z</time>
      </trkpt>
      <trkpt lat="45.91719" lon="5.83899">
        <ele>280</ele>
        <time>2021-09-12T07:51:03.806Z</time>
      </trkpt>
      <trkpt lat="45.91714" lon="5.839">
        <ele>280</ele>
        <time>2021-09-12T07:51:04.806Z</time>
      </trkpt>
      <trkpt lat="45.91711" lon="5.839">
        <ele>280</ele>
        <time>2021-09-12T07:51:05.807Z</time>
      </trkpt>
      <trkpt lat="45.91708" lon="5.83901">
        <ele>280</ele>
        <time>2021-09-12T07:51:06.807Z</time>
      </trkpt>
      <trkpt lat="45.91704" lon="5.83901">
        <ele>280</ele>
        <time>2021-09-12T07:51:07.807Z</time>
      </trkpt>
      <trkpt lat="45.91701" lon="5.83902">
        <ele>280</ele>
        <time>2021-09-12T07:51:08.807Z</time>
      </trkpt>
      <trkpt lat="45.91698" lon="5.83903">
        <ele>281</ele>
        <time>2021-09-12T07:51:09.807Z</time>
      </trkpt>
      <trkpt lat="45.91694" lon="5.83903">
        <ele>281</ele>
        <time>2021-09-12T07:51:10.807Z</time>
      </trkpt>
      <trkpt lat="45.91691" lon="5.83903">
        <ele>281</ele>
        <time>2021-09-12T07:51:11.807Z</time>
      </trkpt>
      <trkpt lat="45.91688" lon="5.83904">
        <ele>280</ele>
        <time>2021-09-12T07:51:12.807Z</time>
      </trkpt>
      <trkpt lat="45.91684" lon="5.83905">
        <ele>280</ele>
        <time>2021-09-12T07:51:13.807Z</time>
      </trkpt>
      <trkpt lat="45.91681" lon="5.83905">
        <ele>280</ele>
        <time>2021-09-12T07:51:14.807Z</time>
      </trkpt>
      <trkpt lat="45.91678" lon="5.83906">
        <ele>280</ele>
        <time>2021-09-12T07:51:15.807Z</time>
      </trkpt>
      <trkpt lat="45.91674" lon="5.83907">
        <ele>280</ele>
        <time>2021-09-12T07:51:16.807Z</time>
      </trkpt>
      <trkpt lat="45.91672" lon="5.83907">
        <ele>280</ele>
        <time>2021-09-12T07:51:17.807Z</time>
      </trkpt>
      <trkpt lat="45.91668" lon="5.83908">
        <ele>279</ele>
        <time>2021-09-12T07:51:18.807Z</time>
      </trkpt>
      <trkpt lat="45.91664" lon="5.83908">
        <ele>279</ele>
        <time>2021-09-12T07:51:19.806Z</time>
      </trkpt>
      <trkpt lat="45.91661" lon="5.83909">
        <ele>279</ele>
        <time>2021-09-12T07:51:20.807Z</time>
      </trkpt>
      <trkpt lat="45.91657" lon="5.83909">
        <ele>279</ele>
        <time>2021-09-12T07:51:21.807Z</time>
      </trkpt>
      <trkpt lat="45.91654" lon="5.8391">
        <ele>279</ele>
        <time>2021-09-12T07:51:22.807Z</time>
      </trkpt>
      <trkpt lat="45.9165" lon="5.8391">
        <ele>279</ele>
        <time>2021-09-12T07:51:23.807Z</time>
      </trkpt>
      <trkpt lat="45.91647" lon="5.83911">
        <ele>279</ele>
        <time>2021-09-12T07:51:24.807Z</time>
      </trkpt>
      <trkpt lat="45.91644" lon="5.83912">
        <ele>279</ele>
        <time>2021-09-12T07:51:25.806Z</time>
      </trkpt>
      <trkpt lat="45.91641" lon="5.83912">
        <ele>279</ele>
        <time>2021-09-12T07:51:26.807Z</time>
      </trkpt>
      <trkpt lat="45.91637" lon="5.83913">
        <ele>279</ele>
        <time>2021-09-12T07:51:27.806Z</time>
      </trkpt>
      <trkpt lat="45.91633" lon="5.83914">
        <ele>279</ele>
        <time>2021-09-12T07:51:28.806Z</time>
      </trkpt>
      <trkpt lat="45.9163" lon="5.83914">
        <ele>279</ele>
        <time>2021-09-12T07:51:29.807Z</time>
      </trkpt>
      <trkpt lat="45.91627" lon="5.83914">
        <ele>279</ele>
        <time>2021-09-12T07:51:30.806Z</time>
      </trkpt>
      <trkpt lat="45.91624" lon="5.83915">
        <ele>279</ele>
        <time>2021-09-12T07:51:31.807Z</time>
      </trkpt>
      <trkpt lat="45.9162" lon="5.83916">
        <ele>279</ele>
        <time>2021-09-12T07:51:32.807Z</time>
      </trkpt>
      <trkpt lat="45.91616" lon="5.83916">
        <ele>279</ele>
        <time>2021-09-12T07:51:33.806Z</time>
      </trkpt>
      <trkpt lat="45.91613" lon="5.83917">
        <ele>279</ele>
        <time>2021-09-12T07:51:34.807Z</time>
      </trkpt>
      <trkpt lat="45.91611" lon="5.83917">
        <ele>279</ele>
        <time>2021-09-12T07:51:35.806Z</time>
      </trkpt>
      <trkpt lat="45.91607" lon="5.83918">
        <ele>279</ele>
        <time>2021-09-12T07:51:36.807Z</time>
      </trkpt>
      <trkpt lat="45.91603" lon="5.83919">
        <ele>279</ele>
        <time>2021-09-12T07:51:37.807Z</time>
      </trkpt>
      <trkpt lat="45.916" lon="5.83919">
        <ele>279</ele>
        <time>2021-09-12T07:51:38.807Z</time>
      </trkpt>
      <trkpt lat="45.91596" lon="5.8392">
        <ele>279</ele>
        <time>2021-09-12T07:51:39.807Z</time>
      </trkpt>
      <trkpt lat="45.91594" lon="5.83921">
        <ele>279</ele>
        <time>2021-09-12T07:51:40.807Z</time>
      </trkpt>
      <trkpt lat="45.91589" lon="5.83921">
        <ele>279</ele>
        <time>2021-09-12T07:51:41.807Z</time>
      </trkpt>
      <trkpt lat="45.91586" lon="5.83922">
        <ele>279</ele>
        <time>2021-09-12T07:51:42.806Z</time>
      </trkpt>
      <trkpt lat="45.91583" lon="5.83923">
        <ele>279</ele>
        <time>2021-09-12T07:51:43.807Z</time>
      </trkpt>
      <trkpt lat="45.91579" lon="5.83923">
        <ele>279</ele>
        <time>2021-09-12T07:51:44.807Z</time>
      </trkpt>
      <trkpt lat="45.91577" lon="5.83924">
        <ele>279</ele>
        <time>2021-09-12T07:51:45.807Z</time>
      </trkpt>
      <trkpt lat="45.91573" lon="5.83925">
        <ele>280</ele>
        <time>2021-09-12T07:51:46.807Z</time>
      </trkpt>
      <trkpt lat="45.91569" lon="5.83926">
        <ele>280</ele>
        <time>2021-09-12T07:51:47.807Z</time>
      </trkpt>
      <trkpt lat="45.91566" lon="5.83927">
        <ele>280</ele>
        <time>2021-09-12T07:51:48.807Z</time>
      </trkpt>
      <trkpt lat="45.91562" lon="5.83928">
        <ele>280</ele>
        <time>2021-09-12T07:51:49.807Z</time>
      </trkpt>
      <trkpt lat="45.91558" lon="5.83928">
        <ele>280</ele>
        <time>2021-09-12T07:51:50.807Z</time>
      </trkpt>
      <trkpt lat="45.91555" lon="5.83929">
        <ele>280</ele>
        <time>2021-09-12T07:51:51.806Z</time>
      </trkpt>
      <trkpt lat="45.91551" lon="5.8393">
        <ele>280</ele>
        <time>2021-09-12T07:51:52.806Z</time>
      </trkpt>
      <trkpt lat="45.91547" lon="5.8393">
        <ele>280</ele>
        <time>2021-09-12T07:51:53.807Z</time>
      </trkpt>
      <trkpt lat="45.91544" lon="5.8393">
        <ele>280</ele>
        <time>2021-09-12T07:51:54.806Z</time>
      </trkpt>
      <trkpt lat="45.9154" lon="5.83931">
        <ele>280</ele>
        <time>2021-09-12T07:51:55.807Z</time>
      </trkpt>
      <trkpt lat="45.91537" lon="5.83931">
        <ele>280</ele>
        <time>2021-09-12T07:51:56.807Z</time>
      </trkpt>
      <trkpt lat="45.91533" lon="5.83932">
        <ele>280</ele>
        <time>2021-09-12T07:51:57.806Z</time>
      </trkpt>
      <trkpt lat="45.9153" lon="5.83932">
        <ele>280</ele>
        <time>2021-09-12T07:51:58.807Z</time>
      </trkpt>
      <trkpt lat="45.91527" lon="5.83933">
        <ele>280</ele>
        <time>2021-09-12T07:51:59.806Z</time>
      </trkpt>
      <trkpt lat="45.91523" lon="5.83934">
        <ele>280</ele>
        <time>2021-09-12T07:52:00.807Z</time>
      </trkpt>
      <trkpt lat="45.91519" lon="5.83934">
        <ele>280</ele>
        <time>2021-09-12T07:52:01.807Z</time>
      </trkpt>
      <trkpt lat="45.91516" lon="5.83935">
        <ele>279</ele>
        <time>2021-09-12T07:52:02.806Z</time>
      </trkpt>
      <trkpt lat="45.91512" lon="5.83935">
        <ele>279</ele>
        <time>2021-09-12T07:52:03.806Z</time>
      </trkpt>
      <trkpt lat="45.91508" lon="5.83936">
        <ele>279</ele>
        <time>2021-09-12T07:52:04.807Z</time>
      </trkpt>
      <trkpt lat="45.91504" lon="5.83937">
        <ele>279</ele>
        <time>2021-09-12T07:52:05.807Z</time>
      </trkpt>
      <trkpt lat="45.91501" lon="5.83938">
        <ele>280</ele>
        <time>2021-09-12T07:52:06.806Z</time>
      </trkpt>
      <trkpt lat="45.91497" lon="5.83939">
        <ele>280</ele>
        <time>2021-09-12T07:52:07.807Z</time>
      </trkpt>
      <trkpt lat="45.91494" lon="5.83939">
        <ele>280</ele>
        <time>2021-09-12T07:52:08.807Z</time>
      </trkpt>
      <trkpt lat="45.91491" lon="5.8394">
        <ele>280</ele>
        <time>2021-09-12T07:52:09.807Z</time>
      </trkpt>
      <trkpt lat="45.91486" lon="5.83941">
        <ele>280</ele>
        <time>2021-09-12T07:52:10.807Z</time>
      </trkpt>
      <trkpt lat="45.91483" lon="5.83941">
        <ele>280</ele>
        <time>2021-09-12T07:52:11.806Z</time>
      </trkpt>
      <trkpt lat="45.91479" lon="5.83942">
        <ele>280</ele>
        <time>2021-09-12T07:52:12.807Z</time>
      </trkpt>
      <trkpt lat="45.91476" lon="5.83943">
        <ele>281</ele>
        <time>2021-09-12T07:52:13.807Z</time>
      </trkpt>
      <trkpt lat="45.91472" lon="5.83944">
        <ele>281</ele>
        <time>2021-09-12T07:52:14.806Z</time>
      </trkpt>
      <trkpt lat="45.91468" lon="5.83945">
        <ele>281</ele>
        <time>2021-09-12T07:52:15.807Z</time>
      </trkpt>
      <trkpt lat="45.91464" lon="5.83945">
        <ele>281</ele>
        <time>2021-09-12T07:52:16.806Z</time>
      </trkpt>
      <trkpt lat="45.91461" lon="5.83946">
        <ele>281</ele>
        <time>2021-09-12T07:52:17.807Z</time>
      </trkpt>
      <trkpt lat="45.91457" lon="5.83947">
        <ele>281</ele>
        <time>2021-09-12T07:52:18.806Z</time>
      </trkpt>
      <trkpt lat="45.91454" lon="5.83947">
        <ele>281</ele>
        <time>2021-09-12T07:52:19.807Z</time>
      </trkpt>
      <trkpt lat="45.9145" lon="5.83948">
        <ele>281</ele>
        <time>2021-09-12T07:52:20.807Z</time>
      </trkpt>
      <trkpt lat="45.91447" lon="5.83949">
        <ele>281</ele>
        <time>2021-09-12T07:52:21.807Z</time>
      </trkpt>
      <trkpt lat="45.91443" lon="5.8395">
        <ele>281</ele>
        <time>2021-09-12T07:52:22.807Z</time>
      </trkpt>
      <trkpt lat="45.91439" lon="5.8395">
        <ele>281</ele>
        <time>2021-09-12T07:52:23.807Z</time>
      </trkpt>
      <trkpt lat="45.91435" lon="5.83951">
        <ele>281</ele>
        <time>2021-09-12T07:52:24.807Z</time>
      </trkpt>
      <trkpt lat="45.91431" lon="5.83951">
        <ele>282</ele>
        <time>2021-09-12T07:52:25.807Z</time>
      </trkpt>
      <trkpt lat="45.91428" lon="5.83951">
        <ele>282</ele>
        <time>2021-09-12T07:52:26.806Z</time>
      </trkpt>
      <trkpt lat="45.91424" lon="5.83952">
        <ele>282</ele>
        <time>2021-09-12T07:52:27.807Z</time>
      </trkpt>
      <trkpt lat="45.9142" lon="5.83952">
        <ele>283</ele>
        <time>2021-09-12T07:52:28.807Z</time>
      </trkpt>
      <trkpt lat="45.91416" lon="5.83952">
        <ele>283</ele>
        <time>2021-09-12T07:52:29.806Z</time>
      </trkpt>
      <trkpt lat="45.91412" lon="5.83952">
        <ele>283</ele>
        <time>2021-09-12T07:52:30.807Z</time>
      </trkpt>
      <trkpt lat="45.91408" lon="5.83952">
        <ele>283</ele>
        <time>2021-09-12T07:52:31.807Z</time>
      </trkpt>
      <trkpt lat="45.91405" lon="5.83952">
        <ele>284</ele>
        <time>2021-09-12T07:52:32.807Z</time>
      </trkpt>
      <trkpt lat="45.91401" lon="5.83952">
        <ele>284</ele>
        <time>2021-09-12T07:52:33.807Z</time>
      </trkpt>
      <trkpt lat="45.91397" lon="5.83952">
        <ele>284</ele>
        <time>2021-09-12T07:52:34.806Z</time>
      </trkpt>
      <trkpt lat="45.91393" lon="5.83952">
        <ele>284</ele>
        <time>2021-09-12T07:52:35.806Z</time>
      </trkpt>
      <trkpt lat="45.9139" lon="5.83952">
        <ele>284</ele>
        <time>2021-09-12T07:52:36.807Z</time>
      </trkpt>
      <trkpt lat="45.91386" lon="5.83952">
        <ele>285</ele>
        <time>2021-09-12T07:52:37.806Z</time>
      </trkpt>
      <trkpt lat="45.91382" lon="5.83951">
        <ele>285</ele>
        <time>2021-09-12T07:52:38.807Z</time>
      </trkpt>
      <trkpt lat="45.91378" lon="5.83951">
        <ele>285</ele>
        <time>2021-09-12T07:52:39.807Z</time>
      </trkpt>
      <trkpt lat="45.91374" lon="5.8395">
        <ele>285</ele>
        <time>2021-09-12T07:52:40.807Z</time>
      </trkpt>
      <trkpt lat="45.91371" lon="5.83949">
        <ele>285</ele>
        <time>2021-09-12T07:52:41.806Z</time>
      </trkpt>
      <trkpt lat="45.91367" lon="5.83949">
        <ele>285</ele>
        <time>2021-09-12T07:52:42.807Z</time>
      </trkpt>
      <trkpt lat="45.91364" lon="5.83948">
        <ele>285</ele>
        <time>2021-09-12T07:52:43.806Z</time>
      </trkpt>
      <trkpt lat="45.9136" lon="5.83948">
        <ele>284</ele>
        <time>2021-09-12T07:52:44.806Z</time>
      </trkpt>
      <trkpt lat="45.91356" lon="5.83947">
        <ele>284</ele>
        <time>2021-09-12T07:52:45.807Z</time>
      </trkpt>
      <trkpt lat="45.91353" lon="5.83947">
        <ele>284</ele>
        <time>2021-09-12T07:52:46.806Z</time>
      </trkpt>
      <trkpt lat="45.91349" lon="5.83947">
        <ele>285</ele>
        <time>2021-09-12T07:52:47.806Z</time>
      </trkpt>
      <trkpt lat="45.91345" lon="5.83946">
        <ele>285</ele>
        <time>2021-09-12T07:52:48.806Z</time>
      </trkpt>
      <trkpt lat="45.91342" lon="5.83946">
        <ele>284</ele>
        <time>2021-09-12T07:52:49.807Z</time>
      </trkpt>
      <trkpt lat="45.91339" lon="5.83945">
        <ele>284</ele>
        <time>2021-09-12T07:52:50.806Z</time>
      </trkpt>
      <trkpt lat="45.91335" lon="5.83945">
        <ele>285</ele>
        <time>2021-09-12T07:52:51.806Z</time>
      </trkpt>
      <trkpt lat="45.91332" lon="5.83944">
        <ele>285</ele>
        <time>2021-09-12T07:52:52.807Z</time>
      </trkpt>
      <trkpt lat="45.91329" lon="5.83944">
        <ele>285</ele>
        <time>2021-09-12T07:52:53.807Z</time>
      </trkpt>
      <trkpt lat="45.91325" lon="5.83943">
        <ele>286</ele>
        <time>2021-09-12T07:52:54.807Z</time>
      </trkpt>
      <trkpt lat="45.91322" lon="5.83943">
        <ele>286</ele>
        <time>2021-09-12T07:52:55.807Z</time>
      </trkpt>
      <trkpt lat="45.91319" lon="5.83942">
        <ele>286</ele>
        <time>2021-09-12T07:52:56.807Z</time>
      </trkpt>
      <trkpt lat="45.91315" lon="5.83941">
        <ele>286</ele>
        <time>2021-09-12T07:52:57.807Z</time>
      </trkpt>
      <trkpt lat="45.91313" lon="5.83941">
        <ele>287</ele>
        <time>2021-09-12T07:52:58.806Z</time>
      </trkpt>
      <trkpt lat="45.91308" lon="5.83941">
        <ele>287</ele>
        <time>2021-09-12T07:52:59.807Z</time>
      </trkpt>
      <trkpt lat="45.91306" lon="5.8394">
        <ele>287</ele>
        <time>2021-09-12T07:53:00.807Z</time>
      </trkpt>
      <trkpt lat="45.91302" lon="5.8394">
        <ele>287</ele>
        <time>2021-09-12T07:53:01.807Z</time>
      </trkpt>
      <trkpt lat="45.91298" lon="5.83939">
        <ele>287</ele>
        <time>2021-09-12T07:53:02.807Z</time>
      </trkpt>
      <trkpt lat="45.91295" lon="5.83939">
        <ele>287</ele>
        <time>2021-09-12T07:53:03.807Z</time>
      </trkpt>
      <trkpt lat="45.91292" lon="5.83938">
        <ele>287</ele>
        <time>2021-09-12T07:53:04.807Z</time>
      </trkpt>
      <trkpt lat="45.91289" lon="5.83938">
        <ele>287</ele>
        <time>2021-09-12T07:53:05.807Z</time>
      </trkpt>
      <trkpt lat="45.91285" lon="5.83937">
        <ele>286</ele>
        <time>2021-09-12T07:53:06.807Z</time>
      </trkpt>
      <trkpt lat="45.91281" lon="5.83937">
        <ele>286</ele>
        <time>2021-09-12T07:53:07.807Z</time>
      </trkpt>
      <trkpt lat="45.91277" lon="5.83936">
        <ele>286</ele>
        <time>2021-09-12T07:53:08.807Z</time>
      </trkpt>
      <trkpt lat="45.91274" lon="5.83935">
        <ele>285</ele>
        <time>2021-09-12T07:53:09.806Z</time>
      </trkpt>
      <trkpt lat="45.91271" lon="5.83935">
        <ele>285</ele>
        <time>2021-09-12T07:53:10.807Z</time>
      </trkpt>
      <trkpt lat="45.91267" lon="5.83934">
        <ele>285</ele>
        <time>2021-09-12T07:53:11.807Z</time>
      </trkpt>
      <trkpt lat="45.91264" lon="5.83934">
        <ele>285</ele>
        <time>2021-09-12T07:53:12.806Z</time>
      </trkpt>
      <trkpt lat="45.91259" lon="5.83933">
        <ele>285</ele>
        <time>2021-09-12T07:53:13.806Z</time>
      </trkpt>
      <trkpt lat="45.91255" lon="5.83933">
        <ele>285</ele>
        <time>2021-09-12T07:53:14.807Z</time>
      </trkpt>
      <trkpt lat="45.91252" lon="5.83932">
        <ele>285</ele>
        <time>2021-09-12T07:53:15.807Z</time>
      </trkpt>
      <trkpt lat="45.91248" lon="5.83931">
        <ele>285</ele>
        <time>2021-09-12T07:53:16.806Z</time>
      </trkpt>
      <trkpt lat="45.91242" lon="5.83931">
        <ele>285</ele>
        <time>2021-09-12T07:53:17.806Z</time>
      </trkpt>
      <trkpt lat="45.91237" lon="5.8393">
        <ele>284</ele>
        <time>2021-09-12T07:53:18.806Z</time>
      </trkpt>
      <trkpt lat="45.91233" lon="5.8393">
        <ele>284</ele>
        <time>2021-09-12T07:53:19.806Z</time>
      </trkpt>
      <trkpt lat="45.91228" lon="5.83929">
        <ele>284</ele>
        <time>2021-09-12T07:53:20.806Z</time>
      </trkpt>
      <trkpt lat="45.91223" lon="5.83929">
        <ele>283</ele>
        <time>2021-09-12T07:53:21.807Z</time>
      </trkpt>
      <trkpt lat="45.91217" lon="5.8393">
        <ele>283</ele>
        <time>2021-09-12T07:53:22.807Z</time>
      </trkpt>
      <trkpt lat="45.91211" lon="5.83931">
        <ele>283</ele>
        <time>2021-09-12T07:53:23.807Z</time>
      </trkpt>
      <trkpt lat="45.91204" lon="5.83932">
        <ele>282</ele>
        <time>2021-09-12T07:53:24.807Z</time>
      </trkpt>
      <trkpt lat="45.91198" lon="5.83934">
        <ele>282</ele>
        <time>2021-09-12T07:53:25.807Z</time>
      </trkpt>
      <trkpt lat="45.91191" lon="5.83936">
        <ele>282</ele>
        <time>2021-09-12T07:53:26.806Z</time>
      </trkpt>
      <trkpt lat="45.91183" lon="5.8394">
        <ele>281</ele>
        <time>2021-09-12T07:53:27.807Z</time>
      </trkpt>
      <trkpt lat="45.91176" lon="5.83944">
        <ele>281</ele>
        <time>2021-09-12T07:53:28.807Z</time>
      </trkpt>
      <trkpt lat="45.9117" lon="5.83948">
        <ele>281</ele>
        <time>2021-09-12T07:53:29.807Z</time>
      </trkpt>
      <trkpt lat="45.91163" lon="5.83953">
        <ele>281</ele>
        <time>2021-09-12T07:53:30.806Z</time>
      </trkpt>
      <trkpt lat="45.91154" lon="5.8396">
        <ele>281</ele>
        <time>2021-09-12T07:53:31.806Z</time>
      </trkpt>
      <trkpt lat="45.91147" lon="5.83965">
        <ele>281</ele>
        <time>2021-09-12T07:53:32.806Z</time>
      </trkpt>
      <trkpt lat="45.9114" lon="5.83969">
        <ele>281</ele>
        <time>2021-09-12T07:53:33.807Z</time>
      </trkpt>
      <trkpt lat="45.91132" lon="5.83973">
        <ele>282</ele>
        <time>2021-09-12T07:53:34.807Z</time>
      </trkpt>
      <trkpt lat="45.91121" lon="5.83975">
        <ele>282</ele>
        <time>2021-09-12T07:53:35.807Z</time>
      </trkpt>
      <trkpt lat="45.91112" lon="5.83976">
        <ele>283</ele>
        <time>2021-09-12T07:53:36.806Z</time>
      </trkpt>
      <trkpt lat="45.91103" lon="5.83976">
        <ele>282</ele>
        <time>2021-09-12T07:53:37.807Z</time>
      </trkpt>
      <trkpt lat="45.91096" lon="5.83975">
        <ele>282</ele>
        <time>2021-09-12T07:53:38.806Z</time>
      </trkpt>
      <trkpt lat="45.91086" lon="5.83974">
        <ele>282</ele>
        <time>2021-09-12T07:53:39.807Z</time>
      </trkpt>
      <trkpt lat="45.91077" lon="5.83973">
        <ele>281</ele>
        <time>2021-09-12T07:53:40.807Z</time>
      </trkpt>
      <trkpt lat="45.91065" lon="5.83972">
        <ele>281</ele>
        <time>2021-09-12T07:53:41.806Z</time>
      </trkpt>
      <trkpt lat="45.91056" lon="5.83971">
        <ele>280</ele>
        <time>2021-09-12T07:53:42.807Z</time>
      </trkpt>
      <trkpt lat="45.91048" lon="5.8397">
        <ele>279</ele>
        <time>2021-09-12T07:53:43.807Z</time>
      </trkpt>
      <trkpt lat="45.91036" lon="5.83968">
        <ele>278</ele>
        <time>2021-09-12T07:53:44.807Z</time>
      </trkpt>
      <trkpt lat="45.91028" lon="5.83967">
        <ele>277</ele>
        <time>2021-09-12T07:53:45.807Z</time>
      </trkpt>
      <trkpt lat="45.91016" lon="5.83965">
        <ele>276</ele>
        <time>2021-09-12T07:53:46.807Z</time>
      </trkpt>
      <trkpt lat="45.91008" lon="5.83965">
        <ele>276</ele>
        <time>2021-09-12T07:53:47.807Z</time>
      </trkpt>
      <trkpt lat="45.90997" lon="5.83963">
        <ele>275</ele>
        <time>2021-09-12T07:53:48.806Z</time>
      </trkpt>
      <trkpt lat="45.90985" lon="5.83961">
        <ele>275</ele>
        <time>2021-09-12T07:53:49.807Z</time>
      </trkpt>
      <trkpt lat="45.90976" lon="5.8396">
        <ele>274</ele>
        <time>2021-09-12T07:53:50.807Z</time>
      </trkpt>
      <trkpt lat="45.90964" lon="5.83958">
        <ele>274</ele>
        <time>2021-09-12T07:53:51.807Z</time>
      </trkpt>
      <trkpt lat="45.90956" lon="5.83956">
        <ele>273</ele>
        <time>2021-09-12T07:53:52.806Z</time>
      </trkpt>
      <trkpt lat="45.90946" lon="5.83954">
        <ele>273</ele>
        <time>2021-09-12T07:53:53.807Z</time>
      </trkpt>
      <trkpt lat="45.90934" lon="5.83952">
        <ele>272</ele>
        <time>2021-09-12T07:53:54.806Z</time>
      </trkpt>
      <trkpt lat="45.90923" lon="5.8395">
        <ele>271</ele>
        <time>2021-09-12T07:53:55.807Z</time>
      </trkpt>
      <trkpt lat="45.90915" lon="5.83949">
        <ele>271</ele>
        <time>2021-09-12T07:53:56.807Z</time>
      </trkpt>
      <trkpt lat="45.90905" lon="5.83948">
        <ele>270</ele>
        <time>2021-09-12T07:53:57.806Z</time>
      </trkpt>
      <trkpt lat="45.90894" lon="5.83947">
        <ele>270</ele>
        <time>2021-09-12T07:53:58.807Z</time>
      </trkpt>
      <trkpt lat="45.90884" lon="5.83947">
        <ele>269</ele>
        <time>2021-09-12T07:53:59.807Z</time>
      </trkpt>
      <trkpt lat="45.90872" lon="5.83947">
        <ele>269</ele>
        <time>2021-09-12T07:54:00.807Z</time>
      </trkpt>
      <trkpt lat="45.90864" lon="5.83947">
        <ele>268</ele>
        <time>2021-09-12T07:54:01.807Z</time>
      </trkpt>
      <trkpt lat="45.90853" lon="5.83948">
        <ele>268</ele>
        <time>2021-09-12T07:54:02.807Z</time>
      </trkpt>
      <trkpt lat="45.90841" lon="5.83949">
        <ele>268</ele>
        <time>2021-09-12T07:54:03.807Z</time>
      </trkpt>
      <trkpt lat="45.90832" lon="5.8395">
        <ele>268</ele>
        <time>2021-09-12T07:54:04.807Z</time>
      </trkpt>
      <trkpt lat="45.90822" lon="5.83951">
        <ele>267</ele>
        <time>2021-09-12T07:54:05.807Z</time>
      </trkpt>
      <trkpt lat="45.90812" lon="5.83952">
        <ele>267</ele>
        <time>2021-09-12T07:54:06.807Z</time>
      </trkpt>
      <trkpt lat="45.90802" lon="5.83953">
        <ele>267</ele>
        <time>2021-09-12T07:54:07.807Z</time>
      </trkpt>
      <trkpt lat="45.90791" lon="5.83954">
        <ele>266</ele>
        <time>2021-09-12T07:54:08.806Z</time>
      </trkpt>
      <trkpt lat="45.90781" lon="5.83955">
        <ele>265</ele>
        <time>2021-09-12T07:54:09.807Z</time>
      </trkpt>
      <trkpt lat="45.90771" lon="5.83956">
        <ele>265</ele>
        <time>2021-09-12T07:54:10.807Z</time>
      </trkpt>
      <trkpt lat="45.90762" lon="5.83957">
        <ele>264</ele>
        <time>2021-09-12T07:54:11.807Z</time>
      </trkpt>
      <trkpt lat="45.90752" lon="5.83958">
        <ele>263</ele>
        <time>2021-09-12T07:54:12.806Z</time>
      </trkpt>
      <trkpt lat="45.9074" lon="5.83959">
        <ele>263</ele>
        <time>2021-09-12T07:54:13.807Z</time>
      </trkpt>
      <trkpt lat="45.9073" lon="5.83959">
        <ele>262</ele>
        <time>2021-09-12T07:54:14.807Z</time>
      </trkpt>
      <trkpt lat="45.9072" lon="5.8396">
        <ele>262</ele>
        <time>2021-09-12T07:54:15.806Z</time>
      </trkpt>
      <trkpt lat="45.90713" lon="5.83961">
        <ele>261</ele>
        <time>2021-09-12T07:54:16.807Z</time>
      </trkpt>
      <trkpt lat="45.90703" lon="5.83961">
        <ele>261</ele>
        <time>2021-09-12T07:54:17.806Z</time>
      </trkpt>
      <trkpt lat="45.90692" lon="5.83963">
        <ele>261</ele>
        <time>2021-09-12T07:54:18.807Z</time>
      </trkpt>
      <trkpt lat="45.90683" lon="5.83964">
        <ele>261</ele>
        <time>2021-09-12T07:54:19.807Z</time>
      </trkpt>
      <trkpt lat="45.90675" lon="5.83965">
        <ele>261</ele>
        <time>2021-09-12T07:54:20.807Z</time>
      </trkpt>
      <trkpt lat="45.90666" lon="5.83966">
        <ele>261</ele>
        <time>2021-09-12T07:54:21.807Z</time>
      </trkpt>
      <trkpt lat="45.90655" lon="5.83967">
        <ele>261</ele>
        <time>2021-09-12T07:54:22.807Z</time>
      </trkpt>
      <trkpt lat="45.90647" lon="5.83968">
        <ele>261</ele>
        <time>2021-09-12T07:54:23.807Z</time>
      </trkpt>
      <trkpt lat="45.90638" lon="5.83968">
        <ele>260</ele>
        <time>2021-09-12T07:54:24.807Z</time>
      </trkpt>
      <trkpt lat="45.90629" lon="5.83969">
        <ele>260</ele>
        <time>2021-09-12T07:54:25.807Z</time>
      </trkpt>
      <trkpt lat="45.9062" lon="5.8397">
        <ele>259</ele>
        <time>2021-09-12T07:54:26.806Z</time>
      </trkpt>
      <trkpt lat="45.90612" lon="5.8397">
        <ele>259</ele>
        <time>2021-09-12T07:54:27.807Z</time>
      </trkpt>
      <trkpt lat="45.90603" lon="5.83971">
        <ele>258</ele>
        <time>2021-09-12T07:54:28.807Z</time>
      </trkpt>
      <trkpt lat="45.90594" lon="5.83972">
        <ele>258</ele>
        <time>2021-09-12T07:54:29.807Z</time>
      </trkpt>
      <trkpt lat="45.90585" lon="5.83973">
        <ele>257</ele>
        <time>2021-09-12T07:54:30.807Z</time>
      </trkpt>
      <trkpt lat="45.90577" lon="5.83973">
        <ele>256</ele>
        <time>2021-09-12T07:54:31.807Z</time>
      </trkpt>
      <trkpt lat="45.90568" lon="5.83974">
        <ele>255</ele>
        <time>2021-09-12T07:54:32.806Z</time>
      </trkpt>
      <trkpt lat="45.90558" lon="5.83975">
        <ele>255</ele>
        <time>2021-09-12T07:54:33.807Z</time>
      </trkpt>
      <trkpt lat="45.90551" lon="5.83975">
        <ele>254</ele>
        <time>2021-09-12T07:54:34.807Z</time>
      </trkpt>
      <trkpt lat="45.90543" lon="5.83976">
        <ele>253</ele>
        <time>2021-09-12T07:54:35.806Z</time>
      </trkpt>
      <trkpt lat="45.90533" lon="5.83977">
        <ele>252</ele>
        <time>2021-09-12T07:54:36.807Z</time>
      </trkpt>
      <trkpt lat="45.90527" lon="5.83977">
        <ele>252</ele>
        <time>2021-09-12T07:54:37.807Z</time>
      </trkpt>
      <trkpt lat="45.90519" lon="5.83978">
        <ele>251</ele>
        <time>2021-09-12T07:54:38.807Z</time>
      </trkpt>
      <trkpt lat="45.90511" lon="5.83978">
        <ele>251</ele>
        <time>2021-09-12T07:54:39.807Z</time>
      </trkpt>
      <trkpt lat="45.90503" lon="5.83978">
        <ele>250</ele>
        <time>2021-09-12T07:54:40.806Z</time>
      </trkpt>
      <trkpt lat="45.90495" lon="5.83979">
        <ele>249</ele>
        <time>2021-09-12T07:54:41.807Z</time>
      </trkpt>
      <trkpt lat="45.90486" lon="5.8398">
        <ele>249</ele>
        <time>2021-09-12T07:54:42.807Z</time>
      </trkpt>
      <trkpt lat="45.9048" lon="5.8398">
        <ele>248</ele>
        <time>2021-09-12T07:54:43.807Z</time>
      </trkpt>
      <trkpt lat="45.90473" lon="5.8398">
        <ele>248</ele>
        <time>2021-09-12T07:54:44.807Z</time>
      </trkpt>
      <trkpt lat="45.90466" lon="5.83981">
        <ele>247</ele>
        <time>2021-09-12T07:54:45.806Z</time>
      </trkpt>
      <trkpt lat="45.90459" lon="5.83981">
        <ele>246</ele>
        <time>2021-09-12T07:54:46.807Z</time>
      </trkpt>
      <trkpt lat="45.90452" lon="5.83982">
        <ele>246</ele>
        <time>2021-09-12T07:54:47.807Z</time>
      </trkpt>
      <trkpt lat="45.90445" lon="5.83982">
        <ele>245</ele>
        <time>2021-09-12T07:54:48.807Z</time>
      </trkpt>
      <trkpt lat="45.90438" lon="5.83983">
        <ele>245</ele>
        <time>2021-09-12T07:54:49.807Z</time>
      </trkpt>
      <trkpt lat="45.90431" lon="5.83984">
        <ele>245</ele>
        <time>2021-09-12T07:54:50.807Z</time>
      </trkpt>
      <trkpt lat="45.90424" lon="5.83985">
        <ele>245</ele>
        <time>2021-09-12T07:54:51.807Z</time>
      </trkpt>
      <trkpt lat="45.90416" lon="5.83987">
        <ele>244</ele>
        <time>2021-09-12T07:54:52.807Z</time>
      </trkpt>
      <trkpt lat="45.90409" lon="5.83988">
        <ele>244</ele>
        <time>2021-09-12T07:54:53.807Z</time>
      </trkpt>
      <trkpt lat="45.90404" lon="5.8399">
        <ele>244</ele>
        <time>2021-09-12T07:54:54.807Z</time>
      </trkpt>
      <trkpt lat="45.90397" lon="5.83991">
        <ele>244</ele>
        <time>2021-09-12T07:54:55.807Z</time>
      </trkpt>
      <trkpt lat="45.9039" lon="5.83993">
        <ele>243</ele>
        <time>2021-09-12T07:54:56.807Z</time>
      </trkpt>
      <trkpt lat="45.90384" lon="5.83995">
        <ele>243</ele>
        <time>2021-09-12T07:54:57.807Z</time>
      </trkpt>
      <trkpt lat="45.90377" lon="5.83997">
        <ele>243</ele>
        <time>2021-09-12T07:54:58.806Z</time>
      </trkpt>
      <trkpt lat="45.90371" lon="5.83999">
        <ele>243</ele>
        <time>2021-09-12T07:54:59.806Z</time>
      </trkpt>
      <trkpt lat="45.90364" lon="5.84001">
        <ele>243</ele>
        <time>2021-09-12T07:55:00.807Z</time>
      </trkpt>
      <trkpt lat="45.90358" lon="5.84003">
        <ele>243</ele>
        <time>2021-09-12T07:55:01.807Z</time>
      </trkpt>
      <trkpt lat="45.90351" lon="5.84005">
        <ele>243</ele>
        <time>2021-09-12T07:55:02.806Z</time>
      </trkpt>
      <trkpt lat="45.90345" lon="5.84006">
        <ele>243</ele>
        <time>2021-09-12T07:55:03.806Z</time>
      </trkpt>
      <trkpt lat="45.90339" lon="5.84008">
        <ele>243</ele>
        <time>2021-09-12T07:55:04.806Z</time>
      </trkpt>
      <trkpt lat="45.90332" lon="5.8401">
        <ele>243</ele>
        <time>2021-09-12T07:55:05.807Z</time>
      </trkpt>
      <trkpt lat="45.90325" lon="5.84012">
        <ele>243</ele>
        <time>2021-09-12T07:55:06.807Z</time>
      </trkpt>
      <trkpt lat="45.90318" lon="5.84014">
        <ele>244</ele>
        <time>2021-09-12T07:55:07.807Z</time>
      </trkpt>
      <trkpt lat="45.90313" lon="5.84016">
        <ele>244</ele>
        <time>2021-09-12T07:55:08.806Z</time>
      </trkpt>
      <trkpt lat="45.90307" lon="5.84018">
        <ele>244</ele>
        <time>2021-09-12T07:55:09.807Z</time>
      </trkpt>
      <trkpt lat="45.90301" lon="5.84019">
        <ele>244</ele>
        <time>2021-09-12T07:55:10.807Z</time>
      </trkpt>
      <trkpt lat="45.90294" lon="5.84021">
        <ele>244</ele>
        <time>2021-09-12T07:55:11.807Z</time>
      </trkpt>
      <trkpt lat="45.90287" lon="5.84023">
        <ele>244</ele>
        <time>2021-09-12T07:55:12.807Z</time>
      </trkpt>
      <trkpt lat="45.90282" lon="5.84024">
        <ele>244</ele>
        <time>2021-09-12T07:55:13.807Z</time>
      </trkpt>
      <trkpt lat="45.90276" lon="5.84026">
        <ele>244</ele>
        <time>2021-09-12T07:55:14.807Z</time>
      </trkpt>
      <trkpt lat="45.9027" lon="5.84027">
        <ele>243</ele>
        <time>2021-09-12T07:55:15.807Z</time>
      </trkpt>
      <trkpt lat="45.90262" lon="5.84029">
        <ele>243</ele>
        <time>2021-09-12T07:55:16.807Z</time>
      </trkpt>
      <trkpt lat="45.90257" lon="5.8403">
        <ele>243</ele>
        <time>2021-09-12T07:55:17.807Z</time>
      </trkpt>
      <trkpt lat="45.90252" lon="5.84031">
        <ele>243</ele>
        <time>2021-09-12T07:55:18.806Z</time>
      </trkpt>
      <trkpt lat="45.90245" lon="5.84033">
        <ele>243</ele>
        <time>2021-09-12T07:55:19.806Z</time>
      </trkpt>
      <trkpt lat="45.90239" lon="5.84034">
        <ele>243</ele>
        <time>2021-09-12T07:55:20.807Z</time>
      </trkpt>
      <trkpt lat="45.90234" lon="5.84036">
        <ele>243</ele>
        <time>2021-09-12T07:55:21.807Z</time>
      </trkpt>
      <trkpt lat="45.90228" lon="5.84037">
        <ele>243</ele>
        <time>2021-09-12T07:55:22.807Z</time>
      </trkpt>
      <trkpt lat="45.90222" lon="5.84039">
        <ele>243</ele>
        <time>2021-09-12T07:55:23.807Z</time>
      </trkpt>
      <trkpt lat="45.90217" lon="5.8404">
        <ele>243</ele>
        <time>2021-09-12T07:55:24.807Z</time>
      </trkpt>
      <trkpt lat="45.90211" lon="5.8404">
        <ele>244</ele>
        <time>2021-09-12T07:55:25.806Z</time>
      </trkpt>
      <trkpt lat="45.90206" lon="5.84039">
        <ele>244</ele>
        <time>2021-09-12T07:55:26.807Z</time>
      </trkpt>
      <trkpt lat="45.90202" lon="5.84037">
        <ele>244</ele>
        <time>2021-09-12T07:55:27.806Z</time>
      </trkpt>
      <trkpt lat="45.90198" lon="5.84033">
        <ele>244</ele>
        <time>2021-09-12T07:55:28.807Z</time>
      </trkpt>
      <trkpt lat="45.90194" lon="5.84026">
        <ele>244</ele>
        <time>2021-09-12T07:55:29.807Z</time>
      </trkpt>
      <trkpt lat="45.90192" lon="5.84019">
        <ele>244</ele>
        <time>2021-09-12T07:55:30.806Z</time>
      </trkpt>
      <trkpt lat="45.90191" lon="5.84013">
        <ele>244</ele>
        <time>2021-09-12T07:55:31.807Z</time>
      </trkpt>
      <trkpt lat="45.9019" lon="5.84006">
        <ele>244</ele>
        <time>2021-09-12T07:55:32.806Z</time>
      </trkpt>
      <trkpt lat="45.90189" lon="5.83996">
        <ele>244</ele>
        <time>2021-09-12T07:55:33.807Z</time>
      </trkpt>
      <trkpt lat="45.90189" lon="5.8399">
        <ele>244</ele>
        <time>2021-09-12T07:55:34.807Z</time>
      </trkpt>
      <trkpt lat="45.90189" lon="5.83981">
        <ele>243</ele>
        <time>2021-09-12T07:55:35.807Z</time>
      </trkpt>
      <trkpt lat="45.90189" lon="5.83975">
        <ele>243</ele>
        <time>2021-09-12T07:55:36.807Z</time>
      </trkpt>
      <trkpt lat="45.90189" lon="5.83967">
        <ele>243</ele>
        <time>2021-09-12T07:55:37.807Z</time>
      </trkpt>
      <trkpt lat="45.90189" lon="5.8396">
        <ele>243</ele>
        <time>2021-09-12T07:55:38.807Z</time>
      </trkpt>
      <trkpt lat="45.90188" lon="5.83951">
        <ele>243</ele>
        <time>2021-09-12T07:55:39.807Z</time>
      </trkpt>
      <trkpt lat="45.90188" lon="5.83943">
        <ele>243</ele>
        <time>2021-09-12T07:55:40.807Z</time>
      </trkpt>
      <trkpt lat="45.90188" lon="5.83937">
        <ele>243</ele>
        <time>2021-09-12T07:55:41.807Z</time>
      </trkpt>
      <trkpt lat="45.90188" lon="5.83929">
        <ele>242</ele>
        <time>2021-09-12T07:55:42.807Z</time>
      </trkpt>
      <trkpt lat="45.90188" lon="5.83921">
        <ele>242</ele>
        <time>2021-09-12T07:55:43.807Z</time>
      </trkpt>
      <trkpt lat="45.90187" lon="5.83912">
        <ele>242</ele>
        <time>2021-09-12T07:55:44.807Z</time>
      </trkpt>
      <trkpt lat="45.90187" lon="5.83905">
        <ele>242</ele>
        <time>2021-09-12T07:55:45.807Z</time>
      </trkpt>
      <trkpt lat="45.90187" lon="5.83899">
        <ele>242</ele>
        <time>2021-09-12T07:55:46.807Z</time>
      </trkpt>
      <trkpt lat="45.90186" lon="5.83891">
        <ele>242</ele>
        <time>2021-09-12T07:55:47.807Z</time>
      </trkpt>
      <trkpt lat="45.90186" lon="5.83884">
        <ele>243</ele>
        <time>2021-09-12T07:55:48.807Z</time>
      </trkpt>
      <trkpt lat="45.90186" lon="5.83875">
        <ele>243</ele>
        <time>2021-09-12T07:55:49.806Z</time>
      </trkpt>
      <trkpt lat="45.90185" lon="5.83868">
        <ele>243</ele>
        <time>2021-09-12T07:55:50.806Z</time>
      </trkpt>
      <trkpt lat="45.90185" lon="5.83862">
        <ele>243</ele>
        <time>2021-09-12T07:55:51.807Z</time>
      </trkpt>
      <trkpt lat="45.90185" lon="5.83855">
        <ele>243</ele>
        <time>2021-09-12T07:55:52.807Z</time>
      </trkpt>
      <trkpt lat="45.90184" lon="5.83848">
        <ele>243</ele>
        <time>2021-09-12T07:55:53.806Z</time>
      </trkpt>
      <trkpt lat="45.90182" lon="5.83843">
        <ele>242</ele>
        <time>2021-09-12T07:55:54.807Z</time>
      </trkpt>
      <trkpt lat="45.90179" lon="5.8384">
        <ele>242</ele>
        <time>2021-09-12T07:55:55.806Z</time>
      </trkpt>
      <trkpt lat="45.90175" lon="5.83839">
        <ele>242</ele>
        <time>2021-09-12T07:55:56.807Z</time>
      </trkpt>
      <trkpt lat="45.90171" lon="5.83839">
        <ele>241</ele>
        <time>2021-09-12T07:55:57.806Z</time>
      </trkpt>
      <trkpt lat="45.90167" lon="5.83841">
        <ele>241</ele>
        <time>2021-09-12T07:55:58.806Z</time>
      </trkpt>
      <trkpt lat="45.90162" lon="5.83843">
        <ele>241</ele>
        <time>2021-09-12T07:55:59.807Z</time>
      </trkpt>
      <trkpt lat="45.90159" lon="5.83844">
        <ele>241</ele>
        <time>2021-09-12T07:56:00.806Z</time>
      </trkpt>
      <trkpt lat="45.90154" lon="5.83848">
        <ele>242</ele>
        <time>2021-09-12T07:56:01.807Z</time>
      </trkpt>
      <trkpt lat="45.9015" lon="5.8385">
        <ele>241</ele>
        <time>2021-09-12T07:56:02.807Z</time>
      </trkpt>
      <trkpt lat="45.90144" lon="5.83853">
        <ele>241</ele>
        <time>2021-09-12T07:56:03.807Z</time>
      </trkpt>
      <trkpt lat="45.90141" lon="5.83856">
        <ele>241</ele>
        <time>2021-09-12T07:56:04.807Z</time>
      </trkpt>
      <trkpt lat="45.90137" lon="5.83858">
        <ele>242</ele>
        <time>2021-09-12T07:56:05.807Z</time>
      </trkpt>
      <trkpt lat="45.90132" lon="5.83861">
        <ele>242</ele>
        <time>2021-09-12T07:56:06.807Z</time>
      </trkpt>
      <trkpt lat="45.90127" lon="5.83863">
        <ele>242</ele>
        <time>2021-09-12T07:56:07.807Z</time>
      </trkpt>
      <trkpt lat="45.90123" lon="5.83866">
        <ele>242</ele>
        <time>2021-09-12T07:56:08.806Z</time>
      </trkpt>
      <trkpt lat="45.90118" lon="5.83868">
        <ele>242</ele>
        <time>2021-09-12T07:56:09.806Z</time>
      </trkpt>
      <trkpt lat="45.90114" lon="5.8387">
        <ele>242</ele>
        <time>2021-09-12T07:56:10.807Z</time>
      </trkpt>
      <trkpt lat="45.90109" lon="5.83873">
        <ele>242</ele>
        <time>2021-09-12T07:56:11.807Z</time>
      </trkpt>
      <trkpt lat="45.90106" lon="5.83875">
        <ele>242</ele>
        <time>2021-09-12T07:56:12.807Z</time>
      </trkpt>
      <trkpt lat="45.90101" lon="5.83877">
        <ele>242</ele>
        <time>2021-09-12T07:56:13.806Z</time>
      </trkpt>
      <trkpt lat="45.90097" lon="5.8388">
        <ele>242</ele>
        <time>2021-09-12T07:56:14.807Z</time>
      </trkpt>
      <trkpt lat="45.90093" lon="5.83882">
        <ele>242</ele>
        <time>2021-09-12T07:56:15.807Z</time>
      </trkpt>
      <trkpt lat="45.90088" lon="5.83885">
        <ele>242</ele>
        <time>2021-09-12T07:56:16.807Z</time>
      </trkpt>
      <trkpt lat="45.90084" lon="5.83888">
        <ele>242</ele>
        <time>2021-09-12T07:56:17.806Z</time>
      </trkpt>
      <trkpt lat="45.9008" lon="5.8389">
        <ele>242</ele>
        <time>2021-09-12T07:56:18.807Z</time>
      </trkpt>
      <trkpt lat="45.90076" lon="5.83892">
        <ele>242</ele>
        <time>2021-09-12T07:56:19.807Z</time>
      </trkpt>
      <trkpt lat="45.90072" lon="5.83894">
        <ele>242</ele>
        <time>2021-09-12T07:56:20.807Z</time>
      </trkpt>
      <trkpt lat="45.90068" lon="5.83897">
        <ele>242</ele>
        <time>2021-09-12T07:56:21.807Z</time>
      </trkpt>
      <trkpt lat="45.90063" lon="5.83899">
        <ele>242</ele>
        <time>2021-09-12T07:56:22.807Z</time>
      </trkpt>
      <trkpt lat="45.90059" lon="5.83902">
        <ele>241</ele>
        <time>2021-09-12T07:56:23.806Z</time>
      </trkpt>
      <trkpt lat="45.90055" lon="5.83903">
        <ele>241</ele>
        <time>2021-09-12T07:56:24.806Z</time>
      </trkpt>
      <trkpt lat="45.90051" lon="5.83905">
        <ele>241</ele>
        <time>2021-09-12T07:56:25.807Z</time>
      </trkpt>
      <trkpt lat="45.90047" lon="5.83906">
        <ele>241</ele>
        <time>2021-09-12T07:56:26.807Z</time>
      </trkpt>
      <trkpt lat="45.90041" lon="5.83908">
        <ele>242</ele>
        <time>2021-09-12T07:56:27.807Z</time>
      </trkpt>
      <trkpt lat="45.90038" lon="5.8391">
        <ele>242</ele>
        <time>2021-09-12T07:56:28.806Z</time>
      </trkpt>
      <trkpt lat="45.90034" lon="5.83912">
        <ele>243</ele>
        <time>2021-09-12T07:56:29.807Z</time>
      </trkpt>
      <trkpt lat="45.90029" lon="5.83914">
        <ele>243</ele>
        <time>2021-09-12T07:56:30.807Z</time>
      </trkpt>
      <trkpt lat="45.90024" lon="5.83915">
        <ele>243</ele>
        <time>2021-09-12T07:56:31.807Z</time>
      </trkpt>
      <trkpt lat="45.9002" lon="5.83916">
        <ele>243</ele>
        <time>2021-09-12T07:56:32.807Z</time>
      </trkpt>
      <trkpt lat="45.90017" lon="5.83917">
        <ele>243</ele>
        <time>2021-09-12T07:56:33.806Z</time>
      </trkpt>
      <trkpt lat="45.90013" lon="5.83918">
        <ele>243</ele>
        <time>2021-09-12T07:56:34.806Z</time>
      </trkpt>
      <trkpt lat="45.90009" lon="5.83919">
        <ele>243</ele>
        <time>2021-09-12T07:56:35.807Z</time>
      </trkpt>
      <trkpt lat="45.90005" lon="5.83921">
        <ele>242</ele>
        <time>2021-09-12T07:56:36.807Z</time>
      </trkpt>
      <trkpt lat="45.90001" lon="5.83922">
        <ele>242</ele>
        <time>2021-09-12T07:56:37.807Z</time>
      </trkpt>
      <trkpt lat="45.89996" lon="5.83923">
        <ele>242</ele>
        <time>2021-09-12T07:56:38.806Z</time>
      </trkpt>
      <trkpt lat="45.89992" lon="5.83924">
        <ele>242</ele>
        <time>2021-09-12T07:56:39.806Z</time>
      </trkpt>
      <trkpt lat="45.89988" lon="5.83926">
        <ele>242</ele>
        <time>2021-09-12T07:56:40.806Z</time>
      </trkpt>
      <trkpt lat="45.89983" lon="5.83927">
        <ele>242</ele>
        <time>2021-09-12T07:56:41.807Z</time>
      </trkpt>
      <trkpt lat="45.8998" lon="5.83928">
        <ele>242</ele>
        <time>2021-09-12T07:56:42.806Z</time>
      </trkpt>
      <trkpt lat="45.89976" lon="5.8393">
        <ele>242</ele>
        <time>2021-09-12T07:56:43.807Z</time>
      </trkpt>
      <trkpt lat="45.89972" lon="5.83931">
        <ele>243</ele>
        <time>2021-09-12T07:56:44.806Z</time>
      </trkpt>
      <trkpt lat="45.89967" lon="5.83934">
        <ele>243</ele>
        <time>2021-09-12T07:56:45.806Z</time>
      </trkpt>
      <trkpt lat="45.89963" lon="5.83936">
        <ele>243</ele>
        <time>2021-09-12T07:56:46.807Z</time>
      </trkpt>
      <trkpt lat="45.8996" lon="5.83938">
        <ele>244</ele>
        <time>2021-09-12T07:56:47.807Z</time>
      </trkpt>
      <trkpt lat="45.89956" lon="5.8394">
        <ele>245</ele>
        <time>2021-09-12T07:56:48.806Z</time>
      </trkpt>
      <trkpt lat="45.89951" lon="5.83943">
        <ele>245</ele>
        <time>2021-09-12T07:56:49.806Z</time>
      </trkpt>
      <trkpt lat="45.89948" lon="5.83945">
        <ele>246</ele>
        <time>2021-09-12T07:56:50.806Z</time>
      </trkpt>
      <trkpt lat="45.89945" lon="5.83947">
        <ele>247</ele>
        <time>2021-09-12T07:56:51.806Z</time>
      </trkpt>
      <trkpt lat="45.89941" lon="5.83948">
        <ele>247</ele>
        <time>2021-09-12T07:56:52.807Z</time>
      </trkpt>
      <trkpt lat="45.89936" lon="5.8395">
        <ele>247</ele>
        <time>2021-09-12T07:56:53.807Z</time>
      </trkpt>
      <trkpt lat="45.89933" lon="5.83952">
        <ele>247</ele>
        <time>2021-09-12T07:56:54.807Z</time>
      </trkpt>
      <trkpt lat="45.89929" lon="5.83954">
        <ele>247</ele>
        <time>2021-09-12T07:56:55.807Z</time>
      </trkpt>
      <trkpt lat="45.89925" lon="5.83955">
        <ele>246</ele>
        <time>2021-09-12T07:56:56.807Z</time>
      </trkpt>
      <trkpt lat="45.89921" lon="5.83957">
        <ele>245</ele>
        <time>2021-09-12T07:56:57.807Z</time>
      </trkpt>
      <trkpt lat="45.89916" lon="5.83958">
        <ele>245</ele>
        <time>2021-09-12T07:56:58.806Z</time>
      </trkpt>
      <trkpt lat="45.89913" lon="5.83959">
        <ele>245</ele>
        <time>2021-09-12T07:56:59.806Z</time>
      </trkpt>
      <trkpt lat="45.89909" lon="5.8396">
        <ele>245</ele>
        <time>2021-09-12T07:57:00.807Z</time>
      </trkpt>
      <trkpt lat="45.89905" lon="5.83961">
        <ele>245</ele>
        <time>2021-09-12T07:57:01.806Z</time>
      </trkpt>
      <trkpt lat="45.899" lon="5.83962">
        <ele>245</ele>
        <time>2021-09-12T07:57:02.806Z</time>
      </trkpt>
      <trkpt lat="45.89896" lon="5.83962">
        <ele>245</ele>
        <time>2021-09-12T07:57:03.806Z</time>
      </trkpt>
      <trkpt lat="45.89891" lon="5.83962">
        <ele>245</ele>
        <time>2021-09-12T07:57:04.806Z</time>
      </trkpt>
      <trkpt lat="45.89887" lon="5.83963">
        <ele>244</ele>
        <time>2021-09-12T07:57:05.807Z</time>
      </trkpt>
      <trkpt lat="45.89883" lon="5.83963">
        <ele>244</ele>
        <time>2021-09-12T07:57:06.806Z</time>
      </trkpt>
      <trkpt lat="45.89878" lon="5.83963">
        <ele>244</ele>
        <time>2021-09-12T07:57:07.806Z</time>
      </trkpt>
      <trkpt lat="45.89874" lon="5.83963">
        <ele>244</ele>
        <time>2021-09-12T07:57:08.807Z</time>
      </trkpt>
      <trkpt lat="45.89868" lon="5.83963">
        <ele>244</ele>
        <time>2021-09-12T07:57:09.806Z</time>
      </trkpt>
      <trkpt lat="45.89864" lon="5.83964">
        <ele>244</ele>
        <time>2021-09-12T07:57:10.806Z</time>
      </trkpt>
      <trkpt lat="45.8986" lon="5.83964">
        <ele>244</ele>
        <time>2021-09-12T07:57:11.807Z</time>
      </trkpt>
      <trkpt lat="45.89856" lon="5.83964">
        <ele>244</ele>
        <time>2021-09-12T07:57:12.807Z</time>
      </trkpt>
      <trkpt lat="45.89851" lon="5.83964">
        <ele>244</ele>
        <time>2021-09-12T07:57:13.806Z</time>
      </trkpt>
      <trkpt lat="45.89846" lon="5.83964">
        <ele>244</ele>
        <time>2021-09-12T07:57:14.807Z</time>
      </trkpt>
      <trkpt lat="45.89842" lon="5.83964">
        <ele>244</ele>
        <time>2021-09-12T07:57:15.807Z</time>
      </trkpt>
      <trkpt lat="45.89838" lon="5.83965">
        <ele>244</ele>
        <time>2021-09-12T07:57:16.806Z</time>
      </trkpt>
      <trkpt lat="45.89834" lon="5.83966">
        <ele>244</ele>
        <time>2021-09-12T07:57:17.807Z</time>
      </trkpt>
      <trkpt lat="45.89829" lon="5.83967">
        <ele>244</ele>
        <time>2021-09-12T07:57:18.806Z</time>
      </trkpt>
      <trkpt lat="45.89824" lon="5.83968">
        <ele>243</ele>
        <time>2021-09-12T07:57:19.806Z</time>
      </trkpt>
      <trkpt lat="45.89821" lon="5.83968">
        <ele>243</ele>
        <time>2021-09-12T07:57:20.806Z</time>
      </trkpt>
      <trkpt lat="45.89816" lon="5.83968">
        <ele>244</ele>
        <time>2021-09-12T07:57:21.806Z</time>
      </trkpt>
      <trkpt lat="45.89811" lon="5.83969">
        <ele>244</ele>
        <time>2021-09-12T07:57:22.807Z</time>
      </trkpt>
      <trkpt lat="45.89806" lon="5.83969">
        <ele>244</ele>
        <time>2021-09-12T07:57:23.806Z</time>
      </trkpt>
      <trkpt lat="45.89802" lon="5.83969">
        <ele>244</ele>
        <time>2021-09-12T07:57:24.806Z</time>
      </trkpt>
      <trkpt lat="45.89798" lon="5.83969">
        <ele>244</ele>
        <time>2021-09-12T07:57:25.807Z</time>
      </trkpt>
      <trkpt lat="45.89793" lon="5.83969">
        <ele>244</ele>
        <time>2021-09-12T07:57:26.806Z</time>
      </trkpt>
      <trkpt lat="45.89789" lon="5.83969">
        <ele>243</ele>
        <time>2021-09-12T07:57:27.806Z</time>
      </trkpt>
      <trkpt lat="45.89785" lon="5.83969">
        <ele>243</ele>
        <time>2021-09-12T07:57:28.806Z</time>
      </trkpt>
      <trkpt lat="45.89781" lon="5.83969">
        <ele>243</ele>
        <time>2021-09-12T07:57:29.806Z</time>
      </trkpt>
      <trkpt lat="45.89776" lon="5.83969">
        <ele>243</ele>
        <time>2021-09-12T07:57:30.806Z</time>
      </trkpt>
      <trkpt lat="45.89771" lon="5.83969">
        <ele>243</ele>
        <time>2021-09-12T07:57:31.806Z</time>
      </trkpt>
      <trkpt lat="45.89766" lon="5.83969">
        <ele>243</ele>
        <time>2021-09-12T07:57:32.806Z</time>
      </trkpt>
      <trkpt lat="45.89762" lon="5.83969">
        <ele>243</ele>
        <time>2021-09-12T07:57:33.806Z</time>
      </trkpt>
      <trkpt lat="45.89758" lon="5.83969">
        <ele>243</ele>
        <time>2021-09-12T07:57:34.807Z</time>
      </trkpt>
      <trkpt lat="45.89753" lon="5.83969">
        <ele>243</ele>
        <time>2021-09-12T07:57:35.806Z</time>
      </trkpt>
      <trkpt lat="45.89749" lon="5.83969">
        <ele>244</ele>
        <time>2021-09-12T07:57:36.806Z</time>
      </trkpt>
      <trkpt lat="45.89744" lon="5.83969">
        <ele>244</ele>
        <time>2021-09-12T07:57:37.806Z</time>
      </trkpt>
      <trkpt lat="45.89741" lon="5.83969">
        <ele>244</ele>
        <time>2021-09-12T07:57:38.806Z</time>
      </trkpt>
      <trkpt lat="45.89736" lon="5.83969">
        <ele>244</ele>
        <time>2021-09-12T07:57:39.807Z</time>
      </trkpt>
      <trkpt lat="45.89731" lon="5.83969">
        <ele>244</ele>
        <time>2021-09-12T07:57:40.807Z</time>
      </trkpt>
      <trkpt lat="45.89726" lon="5.83969">
        <ele>244</ele>
        <time>2021-09-12T07:57:41.806Z</time>
      </trkpt>
      <trkpt lat="45.89722" lon="5.83968">
        <ele>243</ele>
        <time>2021-09-12T07:57:42.807Z</time>
      </trkpt>
      <trkpt lat="45.89718" lon="5.83968">
        <ele>243</ele>
        <time>2021-09-12T07:57:43.807Z</time>
      </trkpt>
      <trkpt lat="45.89713" lon="5.83968">
        <ele>243</ele>
        <time>2021-09-12T07:57:44.807Z</time>
      </trkpt>
      <trkpt lat="45.8971" lon="5.83967">
        <ele>243</ele>
        <time>2021-09-12T07:57:45.807Z</time>
      </trkpt>
      <trkpt lat="45.89706" lon="5.83967">
        <ele>243</ele>
        <time>2021-09-12T07:57:46.806Z</time>
      </trkpt>
      <trkpt lat="45.89702" lon="5.83967">
        <ele>243</ele>
        <time>2021-09-12T07:57:47.807Z</time>
      </trkpt>
      <trkpt lat="45.89698" lon="5.83967">
        <ele>243</ele>
        <time>2021-09-12T07:57:48.807Z</time>
      </trkpt>
      <trkpt lat="45.89694" lon="5.83966">
        <ele>243</ele>
        <time>2021-09-12T07:57:49.807Z</time>
      </trkpt>
      <trkpt lat="45.8969" lon="5.83966">
        <ele>242</ele>
        <time>2021-09-12T07:57:50.807Z</time>
      </trkpt>
      <trkpt lat="45.89686" lon="5.83966">
        <ele>242</ele>
        <time>2021-09-12T07:57:51.807Z</time>
      </trkpt>
      <trkpt lat="45.89682" lon="5.83966">
        <ele>242</ele>
        <time>2021-09-12T07:57:52.806Z</time>
      </trkpt>
      <trkpt lat="45.89678" lon="5.83966">
        <ele>242</ele>
        <time>2021-09-12T07:57:53.807Z</time>
      </trkpt>
      <trkpt lat="45.89674" lon="5.83966">
        <ele>242</ele>
        <time>2021-09-12T07:57:54.807Z</time>
      </trkpt>
      <trkpt lat="45.8967" lon="5.83965">
        <ele>242</ele>
        <time>2021-09-12T07:57:55.807Z</time>
      </trkpt>
      <trkpt lat="45.89667" lon="5.83964">
        <ele>242</ele>
        <time>2021-09-12T07:57:56.807Z</time>
      </trkpt>
      <trkpt lat="45.89662" lon="5.83963">
        <ele>242</ele>
        <time>2021-09-12T07:57:57.807Z</time>
      </trkpt>
      <trkpt lat="45.89658" lon="5.83963">
        <ele>242</ele>
        <time>2021-09-12T07:57:58.806Z</time>
      </trkpt>
      <trkpt lat="45.89654" lon="5.83963">
        <ele>243</ele>
        <time>2021-09-12T07:57:59.806Z</time>
      </trkpt>
      <trkpt lat="45.89651" lon="5.83962">
        <ele>243</ele>
        <time>2021-09-12T07:58:00.807Z</time>
      </trkpt>
      <trkpt lat="45.89647" lon="5.83961">
        <ele>243</ele>
        <time>2021-09-12T07:58:01.807Z</time>
      </trkpt>
      <trkpt lat="45.89642" lon="5.8396">
        <ele>243</ele>
        <time>2021-09-12T07:58:02.807Z</time>
      </trkpt>
      <trkpt lat="45.89639" lon="5.83959">
        <ele>243</ele>
        <time>2021-09-12T07:58:03.806Z</time>
      </trkpt>
      <trkpt lat="45.89635" lon="5.83959">
        <ele>242</ele>
        <time>2021-09-12T07:58:04.807Z</time>
      </trkpt>
      <trkpt lat="45.89631" lon="5.83958">
        <ele>242</ele>
        <time>2021-09-12T07:58:05.807Z</time>
      </trkpt>
      <trkpt lat="45.89627" lon="5.83958">
        <ele>242</ele>
        <time>2021-09-12T07:58:06.806Z</time>
      </trkpt>
      <trkpt lat="45.89623" lon="5.83958">
        <ele>242</ele>
        <time>2021-09-12T07:58:07.806Z</time>
      </trkpt>
      <trkpt lat="45.89619" lon="5.83958">
        <ele>242</ele>
        <time>2021-09-12T07:58:08.807Z</time>
      </trkpt>
      <trkpt lat="45.89615" lon="5.83959">
        <ele>242</ele>
        <time>2021-09-12T07:58:09.807Z</time>
      </trkpt>
      <trkpt lat="45.89611" lon="5.83959">
        <ele>241</ele>
        <time>2021-09-12T07:58:10.807Z</time>
      </trkpt>
      <trkpt lat="45.89608" lon="5.83959">
        <ele>241</ele>
        <time>2021-09-12T07:58:11.807Z</time>
      </trkpt>
      <trkpt lat="45.89604" lon="5.83959">
        <ele>241</ele>
        <time>2021-09-12T07:58:12.807Z</time>
      </trkpt>
      <trkpt lat="45.896" lon="5.8396">
        <ele>241</ele>
        <time>2021-09-12T07:58:13.807Z</time>
      </trkpt>
      <trkpt lat="45.89596" lon="5.8396">
        <ele>241</ele>
        <time>2021-09-12T07:58:14.806Z</time>
      </trkpt>
      <trkpt lat="45.89592" lon="5.83961">
        <ele>241</ele>
        <time>2021-09-12T07:58:15.807Z</time>
      </trkpt>
      <trkpt lat="45.89588" lon="5.83961">
        <ele>241</ele>
        <time>2021-09-12T07:58:16.806Z</time>
      </trkpt>
      <trkpt lat="45.89584" lon="5.8396">
        <ele>241</ele>
        <time>2021-09-12T07:58:17.807Z</time>
      </trkpt>
      <trkpt lat="45.8958" lon="5.8396">
        <ele>241</ele>
        <time>2021-09-12T07:58:18.807Z</time>
      </trkpt>
      <trkpt lat="45.89576" lon="5.8396">
        <ele>241</ele>
        <time>2021-09-12T07:58:19.807Z</time>
      </trkpt>
      <trkpt lat="45.89572" lon="5.83958">
        <ele>242</ele>
        <time>2021-09-12T07:58:20.806Z</time>
      </trkpt>
      <trkpt lat="45.89569" lon="5.83956">
        <ele>242</ele>
        <time>2021-09-12T07:58:21.807Z</time>
      </trkpt>
      <trkpt lat="45.89565" lon="5.83953">
        <ele>242</ele>
        <time>2021-09-12T07:58:22.807Z</time>
      </trkpt>
      <trkpt lat="45.89562" lon="5.8395">
        <ele>242</ele>
        <time>2021-09-12T07:58:23.807Z</time>
      </trkpt>
      <trkpt lat="45.89559" lon="5.83946">
        <ele>241</ele>
        <time>2021-09-12T07:58:24.806Z</time>
      </trkpt>
      <trkpt lat="45.89556" lon="5.83941">
        <ele>241</ele>
        <time>2021-09-12T07:58:25.807Z</time>
      </trkpt>
      <trkpt lat="45.89553" lon="5.83938">
        <ele>241</ele>
        <time>2021-09-12T07:58:26.806Z</time>
      </trkpt>
      <trkpt lat="45.8955" lon="5.83934">
        <ele>240</ele>
        <time>2021-09-12T07:58:27.806Z</time>
      </trkpt>
      <trkpt lat="45.89546" lon="5.8393">
        <ele>240</ele>
        <time>2021-09-12T07:58:28.807Z</time>
      </trkpt>
      <trkpt lat="45.89543" lon="5.83928">
        <ele>240</ele>
        <time>2021-09-12T07:58:29.806Z</time>
      </trkpt>
      <trkpt lat="45.89539" lon="5.83927">
        <ele>240</ele>
        <time>2021-09-12T07:58:30.806Z</time>
      </trkpt>
      <trkpt lat="45.89535" lon="5.83926">
        <ele>240</ele>
        <time>2021-09-12T07:58:31.806Z</time>
      </trkpt>
      <trkpt lat="45.8953" lon="5.83926">
        <ele>240</ele>
        <time>2021-09-12T07:58:32.807Z</time>
      </trkpt>
      <trkpt lat="45.89526" lon="5.83927">
        <ele>240</ele>
        <time>2021-09-12T07:58:33.807Z</time>
      </trkpt>
      <trkpt lat="45.89522" lon="5.83928">
        <ele>240</ele>
        <time>2021-09-12T07:58:34.807Z</time>
      </trkpt>
      <trkpt lat="45.89518" lon="5.83929">
        <ele>240</ele>
        <time>2021-09-12T07:58:35.807Z</time>
      </trkpt>
      <trkpt lat="45.89515" lon="5.8393">
        <ele>240</ele>
        <time>2021-09-12T07:58:36.806Z</time>
      </trkpt>
      <trkpt lat="45.89511" lon="5.83931">
        <ele>240</ele>
        <time>2021-09-12T07:58:37.807Z</time>
      </trkpt>
      <trkpt lat="45.89507" lon="5.83933">
        <ele>240</ele>
        <time>2021-09-12T07:58:38.806Z</time>
      </trkpt>
      <trkpt lat="45.89504" lon="5.83935">
        <ele>240</ele>
        <time>2021-09-12T07:58:39.806Z</time>
      </trkpt>
      <trkpt lat="45.895" lon="5.83938">
        <ele>240</ele>
        <time>2021-09-12T07:58:40.807Z</time>
      </trkpt>
      <trkpt lat="45.89496" lon="5.83942">
        <ele>240</ele>
        <time>2021-09-12T07:58:41.807Z</time>
      </trkpt>
      <trkpt lat="45.89492" lon="5.83946">
        <ele>240</ele>
        <time>2021-09-12T07:58:42.806Z</time>
      </trkpt>
      <trkpt lat="45.89489" lon="5.8395">
        <ele>241</ele>
        <time>2021-09-12T07:58:43.807Z</time>
      </trkpt>
      <trkpt lat="45.89486" lon="5.83953">
        <ele>241</ele>
        <time>2021-09-12T07:58:44.807Z</time>
      </trkpt>
      <trkpt lat="45.89483" lon="5.83958">
        <ele>241</ele>
        <time>2021-09-12T07:58:45.806Z</time>
      </trkpt>
      <trkpt lat="45.8948" lon="5.83962">
        <ele>242</ele>
        <time>2021-09-12T07:58:46.806Z</time>
      </trkpt>
      <trkpt lat="45.89476" lon="5.83966">
        <ele>242</ele>
        <time>2021-09-12T07:58:47.806Z</time>
      </trkpt>
      <trkpt lat="45.89473" lon="5.8397">
        <ele>243</ele>
        <time>2021-09-12T07:58:48.807Z</time>
      </trkpt>
      <trkpt lat="45.89469" lon="5.83973">
        <ele>243</ele>
        <time>2021-09-12T07:58:49.807Z</time>
      </trkpt>
      <trkpt lat="45.89465" lon="5.83976">
        <ele>243</ele>
        <time>2021-09-12T07:58:50.807Z</time>
      </trkpt>
      <trkpt lat="45.89461" lon="5.83978">
        <ele>242</ele>
        <time>2021-09-12T07:58:51.806Z</time>
      </trkpt>
      <trkpt lat="45.89457" lon="5.8398">
        <ele>242</ele>
        <time>2021-09-12T07:58:52.807Z</time>
      </trkpt>
      <trkpt lat="45.89452" lon="5.83981">
        <ele>243</ele>
        <time>2021-09-12T07:58:53.807Z</time>
      </trkpt>
      <trkpt lat="45.89448" lon="5.83982">
        <ele>243</ele>
        <time>2021-09-12T07:58:54.807Z</time>
      </trkpt>
      <trkpt lat="45.89444" lon="5.83983">
        <ele>243</ele>
        <time>2021-09-12T07:58:55.807Z</time>
      </trkpt>
      <trkpt lat="45.89439" lon="5.83984">
        <ele>243</ele>
        <time>2021-09-12T07:58:56.807Z</time>
      </trkpt>
      <trkpt lat="45.89435" lon="5.83985">
        <ele>243</ele>
        <time>2021-09-12T07:58:57.807Z</time>
      </trkpt>
      <trkpt lat="45.89431" lon="5.83986">
        <ele>243</ele>
        <time>2021-09-12T07:58:58.806Z</time>
      </trkpt>
      <trkpt lat="45.89427" lon="5.83987">
        <ele>242</ele>
        <time>2021-09-12T07:58:59.806Z</time>
      </trkpt>
      <trkpt lat="45.89423" lon="5.83989">
        <ele>242</ele>
        <time>2021-09-12T07:59:00.807Z</time>
      </trkpt>
      <trkpt lat="45.89419" lon="5.83991">
        <ele>242</ele>
        <time>2021-09-12T07:59:01.807Z</time>
      </trkpt>
      <trkpt lat="45.89415" lon="5.83994">
        <ele>242</ele>
        <time>2021-09-12T07:59:02.807Z</time>
      </trkpt>
      <trkpt lat="45.89412" lon="5.83997">
        <ele>242</ele>
        <time>2021-09-12T07:59:03.807Z</time>
      </trkpt>
      <trkpt lat="45.89408" lon="5.84">
        <ele>241</ele>
        <time>2021-09-12T07:59:04.806Z</time>
      </trkpt>
      <trkpt lat="45.89405" lon="5.84004">
        <ele>241</ele>
        <time>2021-09-12T07:59:05.806Z</time>
      </trkpt>
      <trkpt lat="45.89402" lon="5.84007">
        <ele>241</ele>
        <time>2021-09-12T07:59:06.806Z</time>
      </trkpt>
      <trkpt lat="45.89399" lon="5.84011">
        <ele>241</ele>
        <time>2021-09-12T07:59:07.806Z</time>
      </trkpt>
      <trkpt lat="45.89395" lon="5.84014">
        <ele>241</ele>
        <time>2021-09-12T07:59:08.806Z</time>
      </trkpt>
      <trkpt lat="45.89392" lon="5.84017">
        <ele>240</ele>
        <time>2021-09-12T07:59:09.807Z</time>
      </trkpt>
      <trkpt lat="45.89388" lon="5.84019">
        <ele>240</ele>
        <time>2021-09-12T07:59:10.807Z</time>
      </trkpt>
      <trkpt lat="45.89384" lon="5.84021">
        <ele>240</ele>
        <time>2021-09-12T07:59:11.807Z</time>
      </trkpt>
      <trkpt lat="45.8938" lon="5.84023">
        <ele>240</ele>
        <time>2021-09-12T07:59:12.807Z</time>
      </trkpt>
      <trkpt lat="45.89376" lon="5.84024">
        <ele>240</ele>
        <time>2021-09-12T07:59:13.807Z</time>
      </trkpt>
      <trkpt lat="45.89371" lon="5.84026">
        <ele>240</ele>
        <time>2021-09-12T07:59:14.807Z</time>
      </trkpt>
      <trkpt lat="45.89367" lon="5.84027">
        <ele>240</ele>
        <time>2021-09-12T07:59:15.807Z</time>
      </trkpt>
      <trkpt lat="45.89363" lon="5.84029">
        <ele>241</ele>
        <time>2021-09-12T07:59:16.807Z</time>
      </trkpt>
      <trkpt lat="45.89359" lon="5.84031">
        <ele>241</ele>
        <time>2021-09-12T07:59:17.806Z</time>
      </trkpt>
      <trkpt lat="45.89355" lon="5.84033">
        <ele>242</ele>
        <time>2021-09-12T07:59:18.807Z</time>
      </trkpt>
      <trkpt lat="45.89351" lon="5.84036">
        <ele>242</ele>
        <time>2021-09-12T07:59:19.806Z</time>
      </trkpt>
      <trkpt lat="45.89348" lon="5.84039">
        <ele>243</ele>
        <time>2021-09-12T07:59:20.806Z</time>
      </trkpt>
      <trkpt lat="45.89345" lon="5.84043">
        <ele>243</ele>
        <time>2021-09-12T07:59:21.807Z</time>
      </trkpt>
      <trkpt lat="45.89343" lon="5.84047">
        <ele>243</ele>
        <time>2021-09-12T07:59:22.807Z</time>
      </trkpt>
      <trkpt lat="45.89341" lon="5.84052">
        <ele>243</ele>
        <time>2021-09-12T07:59:23.806Z</time>
      </trkpt>
      <trkpt lat="45.89338" lon="5.84056">
        <ele>243</ele>
        <time>2021-09-12T07:59:24.807Z</time>
      </trkpt>
      <trkpt lat="45.89336" lon="5.84061">
        <ele>242</ele>
        <time>2021-09-12T07:59:25.807Z</time>
      </trkpt>
      <trkpt lat="45.89335" lon="5.84065">
        <ele>242</ele>
        <time>2021-09-12T07:59:26.806Z</time>
      </trkpt>
      <trkpt lat="45.89333" lon="5.8407">
        <ele>242</ele>
        <time>2021-09-12T07:59:27.807Z</time>
      </trkpt>
      <trkpt lat="45.89332" lon="5.84075">
        <ele>242</ele>
        <time>2021-09-12T07:59:28.807Z</time>
      </trkpt>
      <trkpt lat="45.8933" lon="5.84079">
        <ele>242</ele>
        <time>2021-09-12T07:59:29.807Z</time>
      </trkpt>
      <trkpt lat="45.89328" lon="5.84083">
        <ele>242</ele>
        <time>2021-09-12T07:59:30.806Z</time>
      </trkpt>
      <trkpt lat="45.89326" lon="5.84087">
        <ele>242</ele>
        <time>2021-09-12T07:59:31.807Z</time>
      </trkpt>
      <trkpt lat="45.89323" lon="5.8409">
        <ele>242</ele>
        <time>2021-09-12T07:59:32.807Z</time>
      </trkpt>
      <trkpt lat="45.8932" lon="5.84093">
        <ele>242</ele>
        <time>2021-09-12T07:59:33.806Z</time>
      </trkpt>
      <trkpt lat="45.89317" lon="5.84095">
        <ele>242</ele>
        <time>2021-09-12T07:59:34.807Z</time>
      </trkpt>
      <trkpt lat="45.89315" lon="5.84095">
        <ele>242</ele>
        <time>2021-09-12T07:59:35.807Z</time>
      </trkpt>
      <trkpt lat="45.89312" lon="5.84093">
        <ele>242</ele>
        <time>2021-09-12T07:59:36.806Z</time>
      </trkpt>
      <trkpt lat="45.8931" lon="5.8409">
        <ele>242</ele>
        <time>2021-09-12T07:59:37.807Z</time>
      </trkpt>
      <trkpt lat="45.89308" lon="5.84087">
        <ele>243</ele>
        <time>2021-09-12T07:59:38.807Z</time>
      </trkpt>
      <trkpt lat="45.89305" lon="5.84084">
        <ele>243</ele>
        <time>2021-09-12T07:59:39.806Z</time>
      </trkpt>
      <trkpt lat="45.89303" lon="5.8408">
        <ele>243</ele>
        <time>2021-09-12T07:59:40.806Z</time>
      </trkpt>
      <trkpt lat="45.89301" lon="5.84077">
        <ele>244</ele>
        <time>2021-09-12T07:59:41.807Z</time>
      </trkpt>
      <trkpt lat="45.89299" lon="5.84073">
        <ele>244</ele>
        <time>2021-09-12T07:59:42.807Z</time>
      </trkpt>
      <trkpt lat="45.89297" lon="5.8407">
        <ele>244</ele>
        <time>2021-09-12T07:59:43.807Z</time>
      </trkpt>
      <trkpt lat="45.89294" lon="5.84066">
        <ele>244</ele>
        <time>2021-09-12T07:59:44.807Z</time>
      </trkpt>
      <trkpt lat="45.89292" lon="5.84063">
        <ele>244</ele>
        <time>2021-09-12T07:59:45.806Z</time>
      </trkpt>
      <trkpt lat="45.8929" lon="5.84059">
        <ele>244</ele>
        <time>2021-09-12T07:59:46.807Z</time>
      </trkpt>
      <trkpt lat="45.89287" lon="5.84055">
        <ele>244</ele>
        <time>2021-09-12T07:59:47.806Z</time>
      </trkpt>
      <trkpt lat="45.89285" lon="5.84052">
        <ele>244</ele>
        <time>2021-09-12T07:59:48.807Z</time>
      </trkpt>
      <trkpt lat="45.89283" lon="5.84048">
        <ele>244</ele>
        <time>2021-09-12T07:59:49.807Z</time>
      </trkpt>
      <trkpt lat="45.89281" lon="5.84044">
        <ele>244</ele>
        <time>2021-09-12T07:59:50.807Z</time>
      </trkpt>
      <trkpt lat="45.89278" lon="5.8404">
        <ele>244</ele>
        <time>2021-09-12T07:59:51.806Z</time>
      </trkpt>
      <trkpt lat="45.89276" lon="5.84036">
        <ele>244</ele>
        <time>2021-09-12T07:59:52.807Z</time>
      </trkpt>
      <trkpt lat="45.89273" lon="5.84032">
        <ele>244</ele>
        <time>2021-09-12T07:59:53.807Z</time>
      </trkpt>
      <trkpt lat="45.8927" lon="5.84027">
        <ele>244</ele>
        <time>2021-09-12T07:59:54.807Z</time>
      </trkpt>
      <trkpt lat="45.89268" lon="5.84023">
        <ele>244</ele>
        <time>2021-09-12T07:59:55.807Z</time>
      </trkpt>
      <trkpt lat="45.89265" lon="5.84019">
        <ele>244</ele>
        <time>2021-09-12T07:59:56.807Z</time>
      </trkpt>
      <trkpt lat="45.89263" lon="5.84015">
        <ele>243</ele>
        <time>2021-09-12T07:59:57.807Z</time>
      </trkpt>
      <trkpt lat="45.8926" lon="5.84012">
        <ele>244</ele>
        <time>2021-09-12T07:59:58.807Z</time>
      </trkpt>
      <trkpt lat="45.89259" lon="5.84009">
        <ele>243</ele>
        <time>2021-09-12T07:59:59.807Z</time>
      </trkpt>
      <trkpt lat="45.89256" lon="5.84004">
        <ele>243</ele>
        <time>2021-09-12T08:00:00.807Z</time>
      </trkpt>
      <trkpt lat="45.89254" lon="5.84001">
        <ele>243</ele>
        <time>2021-09-12T08:00:01.807Z</time>
      </trkpt>
      <trkpt lat="45.89251" lon="5.83997">
        <ele>243</ele>
        <time>2021-09-12T08:00:02.806Z</time>
      </trkpt>
      <trkpt lat="45.89249" lon="5.83993">
        <ele>242</ele>
        <time>2021-09-12T08:00:03.807Z</time>
      </trkpt>
      <trkpt lat="45.89247" lon="5.8399">
        <ele>242</ele>
        <time>2021-09-12T08:00:04.807Z</time>
      </trkpt>
      <trkpt lat="45.89244" lon="5.83986">
        <ele>242</ele>
        <time>2021-09-12T08:00:05.807Z</time>
      </trkpt>
      <trkpt lat="45.89242" lon="5.83982">
        <ele>241</ele>
        <time>2021-09-12T08:00:06.807Z</time>
      </trkpt>
      <trkpt lat="45.89239" lon="5.83979">
        <ele>242</ele>
        <time>2021-09-12T08:00:07.807Z</time>
      </trkpt>
      <trkpt lat="45.89236" lon="5.83975">
        <ele>242</ele>
        <time>2021-09-12T08:00:08.806Z</time>
      </trkpt>
      <trkpt lat="45.89233" lon="5.83971">
        <ele>242</ele>
        <time>2021-09-12T08:00:09.807Z</time>
      </trkpt>
      <trkpt lat="45.8923" lon="5.83967">
        <ele>243</ele>
        <time>2021-09-12T08:00:10.806Z</time>
      </trkpt>
      <trkpt lat="45.89227" lon="5.83963">
        <ele>243</ele>
        <time>2021-09-12T08:00:11.807Z</time>
      </trkpt>
      <trkpt lat="45.89224" lon="5.83959">
        <ele>243</ele>
        <time>2021-09-12T08:00:12.807Z</time>
      </trkpt>
      <trkpt lat="45.89221" lon="5.83954">
        <ele>243</ele>
        <time>2021-09-12T08:00:13.806Z</time>
      </trkpt>
      <trkpt lat="45.89218" lon="5.8395">
        <ele>243</ele>
        <time>2021-09-12T08:00:14.807Z</time>
      </trkpt>
      <trkpt lat="45.89215" lon="5.83945">
        <ele>243</ele>
        <time>2021-09-12T08:00:15.807Z</time>
      </trkpt>
      <trkpt lat="45.89213" lon="5.83941">
        <ele>243</ele>
        <time>2021-09-12T08:00:16.807Z</time>
      </trkpt>
      <trkpt lat="45.89209" lon="5.83936">
        <ele>244</ele>
        <time>2021-09-12T08:00:17.807Z</time>
      </trkpt>
      <trkpt lat="45.89206" lon="5.83932">
        <ele>245</ele>
        <time>2021-09-12T08:00:18.807Z</time>
      </trkpt>
      <trkpt lat="45.89203" lon="5.83928">
        <ele>245</ele>
        <time>2021-09-12T08:00:19.807Z</time>
      </trkpt>
      <trkpt lat="45.892" lon="5.83923">
        <ele>245</ele>
        <time>2021-09-12T08:00:20.807Z</time>
      </trkpt>
      <trkpt lat="45.89196" lon="5.83919">
        <ele>246</ele>
        <time>2021-09-12T08:00:21.807Z</time>
      </trkpt>
      <trkpt lat="45.89193" lon="5.83915">
        <ele>246</ele>
        <time>2021-09-12T08:00:22.807Z</time>
      </trkpt>
      <trkpt lat="45.89191" lon="5.83911">
        <ele>246</ele>
        <time>2021-09-12T08:00:23.807Z</time>
      </trkpt>
      <trkpt lat="45.89187" lon="5.83905">
        <ele>247</ele>
        <time>2021-09-12T08:00:24.807Z</time>
      </trkpt>
      <trkpt lat="45.89184" lon="5.839">
        <ele>247</ele>
        <time>2021-09-12T08:00:25.807Z</time>
      </trkpt>
      <trkpt lat="45.89181" lon="5.83895">
        <ele>246</ele>
        <time>2021-09-12T08:00:26.806Z</time>
      </trkpt>
      <trkpt lat="45.89178" lon="5.83891">
        <ele>246</ele>
        <time>2021-09-12T08:00:27.807Z</time>
      </trkpt>
      <trkpt lat="45.89174" lon="5.83886">
        <ele>245</ele>
        <time>2021-09-12T08:00:28.807Z</time>
      </trkpt>
      <trkpt lat="45.89171" lon="5.83881">
        <ele>245</ele>
        <time>2021-09-12T08:00:29.806Z</time>
      </trkpt>
      <trkpt lat="45.89168" lon="5.83876">
        <ele>244</ele>
        <time>2021-09-12T08:00:30.807Z</time>
      </trkpt>
      <trkpt lat="45.89165" lon="5.83871">
        <ele>244</ele>
        <time>2021-09-12T08:00:31.807Z</time>
      </trkpt>
      <trkpt lat="45.89162" lon="5.83866">
        <ele>244</ele>
        <time>2021-09-12T08:00:32.806Z</time>
      </trkpt>
      <trkpt lat="45.89159" lon="5.83861">
        <ele>244</ele>
        <time>2021-09-12T08:00:33.807Z</time>
      </trkpt>
      <trkpt lat="45.89156" lon="5.83857">
        <ele>244</ele>
        <time>2021-09-12T08:00:34.807Z</time>
      </trkpt>
      <trkpt lat="45.89153" lon="5.83853">
        <ele>244</ele>
        <time>2021-09-12T08:00:35.807Z</time>
      </trkpt>
      <trkpt lat="45.8915" lon="5.83849">
        <ele>244</ele>
        <time>2021-09-12T08:00:36.806Z</time>
      </trkpt>
      <trkpt lat="45.89146" lon="5.83843">
        <ele>245</ele>
        <time>2021-09-12T08:00:37.807Z</time>
      </trkpt>
      <trkpt lat="45.89144" lon="5.8384">
        <ele>245</ele>
        <time>2021-09-12T08:00:38.807Z</time>
      </trkpt>
      <trkpt lat="45.89141" lon="5.83836">
        <ele>245</ele>
        <time>2021-09-12T08:00:39.807Z</time>
      </trkpt>
      <trkpt lat="45.89137" lon="5.8383">
        <ele>245</ele>
        <time>2021-09-12T08:00:40.807Z</time>
      </trkpt>
      <trkpt lat="45.89134" lon="5.83826">
        <ele>245</ele>
        <time>2021-09-12T08:00:41.807Z</time>
      </trkpt>
      <trkpt lat="45.89132" lon="5.83822">
        <ele>245</ele>
        <time>2021-09-12T08:00:42.807Z</time>
      </trkpt>
      <trkpt lat="45.89129" lon="5.83818">
        <ele>245</ele>
        <time>2021-09-12T08:00:43.807Z</time>
      </trkpt>
      <trkpt lat="45.89126" lon="5.83813">
        <ele>245</ele>
        <time>2021-09-12T08:00:44.807Z</time>
      </trkpt>
      <trkpt lat="45.89122" lon="5.83809">
        <ele>245</ele>
        <time>2021-09-12T08:00:45.807Z</time>
      </trkpt>
      <trkpt lat="45.89119" lon="5.83805">
        <ele>245</ele>
        <time>2021-09-12T08:00:46.807Z</time>
      </trkpt>
      <trkpt lat="45.89116" lon="5.838">
        <ele>246</ele>
        <time>2021-09-12T08:00:47.807Z</time>
      </trkpt>
      <trkpt lat="45.89112" lon="5.83796">
        <ele>246</ele>
        <time>2021-09-12T08:00:48.807Z</time>
      </trkpt>
      <trkpt lat="45.89109" lon="5.83791">
        <ele>246</ele>
        <time>2021-09-12T08:00:49.806Z</time>
      </trkpt>
      <trkpt lat="45.89106" lon="5.83786">
        <ele>246</ele>
        <time>2021-09-12T08:00:50.807Z</time>
      </trkpt>
      <trkpt lat="45.89102" lon="5.83782">
        <ele>246</ele>
        <time>2021-09-12T08:00:51.807Z</time>
      </trkpt>
      <trkpt lat="45.89098" lon="5.83777">
        <ele>246</ele>
        <time>2021-09-12T08:00:52.807Z</time>
      </trkpt>
      <trkpt lat="45.89095" lon="5.83772">
        <ele>246</ele>
        <time>2021-09-12T08:00:53.807Z</time>
      </trkpt>
      <trkpt lat="45.89091" lon="5.83767">
        <ele>246</ele>
        <time>2021-09-12T08:00:54.807Z</time>
      </trkpt>
      <trkpt lat="45.89087" lon="5.83762">
        <ele>246</ele>
        <time>2021-09-12T08:00:55.807Z</time>
      </trkpt>
      <trkpt lat="45.89083" lon="5.83757">
        <ele>245</ele>
        <time>2021-09-12T08:00:56.807Z</time>
      </trkpt>
      <trkpt lat="45.8908" lon="5.83752">
        <ele>245</ele>
        <time>2021-09-12T08:00:57.807Z</time>
      </trkpt>
      <trkpt lat="45.89076" lon="5.83747">
        <ele>245</ele>
        <time>2021-09-12T08:00:58.807Z</time>
      </trkpt>
      <trkpt lat="45.89073" lon="5.83741">
        <ele>244</ele>
        <time>2021-09-12T08:00:59.806Z</time>
      </trkpt>
      <trkpt lat="45.8907" lon="5.83736">
        <ele>244</ele>
        <time>2021-09-12T08:01:00.807Z</time>
      </trkpt>
      <trkpt lat="45.89067" lon="5.83731">
        <ele>244</ele>
        <time>2021-09-12T08:01:01.806Z</time>
      </trkpt>
      <trkpt lat="45.89062" lon="5.83724">
        <ele>244</ele>
        <time>2021-09-12T08:01:02.807Z</time>
      </trkpt>
      <trkpt lat="45.8906" lon="5.83721">
        <ele>244</ele>
        <time>2021-09-12T08:01:03.807Z</time>
      </trkpt>
      <trkpt lat="45.89056" lon="5.83715">
        <ele>244</ele>
        <time>2021-09-12T08:01:04.807Z</time>
      </trkpt>
      <trkpt lat="45.89053" lon="5.83711">
        <ele>244</ele>
        <time>2021-09-12T08:01:05.807Z</time>
      </trkpt>
      <trkpt lat="45.8905" lon="5.83705">
        <ele>244</ele>
        <time>2021-09-12T08:01:06.807Z</time>
      </trkpt>
      <trkpt lat="45.89046" lon="5.83701">
        <ele>244</ele>
        <time>2021-09-12T08:01:07.807Z</time>
      </trkpt>
      <trkpt lat="45.89043" lon="5.83696">
        <ele>244</ele>
        <time>2021-09-12T08:01:08.806Z</time>
      </trkpt>
      <trkpt lat="45.8904" lon="5.83691">
        <ele>244</ele>
        <time>2021-09-12T08:01:09.807Z</time>
      </trkpt>
      <trkpt lat="45.89036" lon="5.83686">
        <ele>244</ele>
        <time>2021-09-12T08:01:10.807Z</time>
      </trkpt>
      <trkpt lat="45.89033" lon="5.83681">
        <ele>244</ele>
        <time>2021-09-12T08:01:11.807Z</time>
      </trkpt>
      <trkpt lat="45.8903" lon="5.83676">
        <ele>245</ele>
        <time>2021-09-12T08:01:12.807Z</time>
      </trkpt>
      <trkpt lat="45.89027" lon="5.83671">
        <ele>245</ele>
        <time>2021-09-12T08:01:13.807Z</time>
      </trkpt>
      <trkpt lat="45.89023" lon="5.83666">
        <ele>246</ele>
        <time>2021-09-12T08:01:14.807Z</time>
      </trkpt>
      <trkpt lat="45.8902" lon="5.83661">
        <ele>246</ele>
        <time>2021-09-12T08:01:15.807Z</time>
      </trkpt>
      <trkpt lat="45.89017" lon="5.83656">
        <ele>245</ele>
        <time>2021-09-12T08:01:16.807Z</time>
      </trkpt>
      <trkpt lat="45.89013" lon="5.83651">
        <ele>245</ele>
        <time>2021-09-12T08:01:17.807Z</time>
      </trkpt>
      <trkpt lat="45.89009" lon="5.83645">
        <ele>245</ele>
        <time>2021-09-12T08:01:18.807Z</time>
      </trkpt>
      <trkpt lat="45.89007" lon="5.83641">
        <ele>245</ele>
        <time>2021-09-12T08:01:19.807Z</time>
      </trkpt>
      <trkpt lat="45.89003" lon="5.83636">
        <ele>244</ele>
        <time>2021-09-12T08:01:20.807Z</time>
      </trkpt>
      <trkpt lat="45.88999" lon="5.83631">
        <ele>244</ele>
        <time>2021-09-12T08:01:21.807Z</time>
      </trkpt>
      <trkpt lat="45.88996" lon="5.83626">
        <ele>243</ele>
        <time>2021-09-12T08:01:22.807Z</time>
      </trkpt>
      <trkpt lat="45.88994" lon="5.83623">
        <ele>243</ele>
        <time>2021-09-12T08:01:23.807Z</time>
      </trkpt>
      <trkpt lat="45.88991" lon="5.83619">
        <ele>243</ele>
        <time>2021-09-12T08:01:24.806Z</time>
      </trkpt>
      <trkpt lat="45.88988" lon="5.83614">
        <ele>243</ele>
        <time>2021-09-12T08:01:25.806Z</time>
      </trkpt>
      <trkpt lat="45.88984" lon="5.83609">
        <ele>243</ele>
        <time>2021-09-12T08:01:26.807Z</time>
      </trkpt>
      <trkpt lat="45.88981" lon="5.83605">
        <ele>243</ele>
        <time>2021-09-12T08:01:27.807Z</time>
      </trkpt>
      <trkpt lat="45.88978" lon="5.83602">
        <ele>243</ele>
        <time>2021-09-12T08:01:28.807Z</time>
      </trkpt>
      <trkpt lat="45.88975" lon="5.83598">
        <ele>243</ele>
        <time>2021-09-12T08:01:29.806Z</time>
      </trkpt>
      <trkpt lat="45.88971" lon="5.83592">
        <ele>243</ele>
        <time>2021-09-12T08:01:30.807Z</time>
      </trkpt>
      <trkpt lat="45.88968" lon="5.83588">
        <ele>243</ele>
        <time>2021-09-12T08:01:31.807Z</time>
      </trkpt>
      <trkpt lat="45.88965" lon="5.83583">
        <ele>243</ele>
        <time>2021-09-12T08:01:32.806Z</time>
      </trkpt>
      <trkpt lat="45.88963" lon="5.83579">
        <ele>243</ele>
        <time>2021-09-12T08:01:33.807Z</time>
      </trkpt>
      <trkpt lat="45.8896" lon="5.83574">
        <ele>243</ele>
        <time>2021-09-12T08:01:34.807Z</time>
      </trkpt>
      <trkpt lat="45.88957" lon="5.83569">
        <ele>243</ele>
        <time>2021-09-12T08:01:35.806Z</time>
      </trkpt>
      <trkpt lat="45.88955" lon="5.83564">
        <ele>243</ele>
        <time>2021-09-12T08:01:36.807Z</time>
      </trkpt>
      <trkpt lat="45.88952" lon="5.83559">
        <ele>243</ele>
        <time>2021-09-12T08:01:37.807Z</time>
      </trkpt>
      <trkpt lat="45.88949" lon="5.83555">
        <ele>243</ele>
        <time>2021-09-12T08:01:38.806Z</time>
      </trkpt>
      <trkpt lat="45.88947" lon="5.8355">
        <ele>243</ele>
        <time>2021-09-12T08:01:39.807Z</time>
      </trkpt>
      <trkpt lat="45.88944" lon="5.83546">
        <ele>242</ele>
        <time>2021-09-12T08:01:40.807Z</time>
      </trkpt>
      <trkpt lat="45.88942" lon="5.83541">
        <ele>242</ele>
        <time>2021-09-12T08:01:41.807Z</time>
      </trkpt>
      <trkpt lat="45.88939" lon="5.83536">
        <ele>242</ele>
        <time>2021-09-12T08:01:42.806Z</time>
      </trkpt>
      <trkpt lat="45.88936" lon="5.83532">
        <ele>242</ele>
        <time>2021-09-12T08:01:43.807Z</time>
      </trkpt>
      <trkpt lat="45.88933" lon="5.83527">
        <ele>242</ele>
        <time>2021-09-12T08:01:44.807Z</time>
      </trkpt>
      <trkpt lat="45.88931" lon="5.83522">
        <ele>242</ele>
        <time>2021-09-12T08:01:45.807Z</time>
      </trkpt>
      <trkpt lat="45.88928" lon="5.83518">
        <ele>242</ele>
        <time>2021-09-12T08:01:46.807Z</time>
      </trkpt>
      <trkpt lat="45.88925" lon="5.83513">
        <ele>242</ele>
        <time>2021-09-12T08:01:47.807Z</time>
      </trkpt>
      <trkpt lat="45.88922" lon="5.83509">
        <ele>242</ele>
        <time>2021-09-12T08:01:48.807Z</time>
      </trkpt>
      <trkpt lat="45.8892" lon="5.83505">
        <ele>242</ele>
        <time>2021-09-12T08:01:49.807Z</time>
      </trkpt>
      <trkpt lat="45.88916" lon="5.83502">
        <ele>242</ele>
        <time>2021-09-12T08:01:50.807Z</time>
      </trkpt>
      <trkpt lat="45.88913" lon="5.83502">
        <ele>242</ele>
        <time>2021-09-12T08:01:51.807Z</time>
      </trkpt>
      <trkpt lat="45.88911" lon="5.83505">
        <ele>242</ele>
        <time>2021-09-12T08:01:52.807Z</time>
      </trkpt>
      <trkpt lat="45.8891" lon="5.83509">
        <ele>242</ele>
        <time>2021-09-12T08:01:53.807Z</time>
      </trkpt>
      <trkpt lat="45.8891" lon="5.83514">
        <ele>242</ele>
        <time>2021-09-12T08:01:54.806Z</time>
      </trkpt>
      <trkpt lat="45.8891" lon="5.83519">
        <ele>242</ele>
        <time>2021-09-12T08:01:55.806Z</time>
      </trkpt>
      <trkpt lat="45.88911" lon="5.83526">
        <ele>242</ele>
        <time>2021-09-12T08:01:56.807Z</time>
      </trkpt>
      <trkpt lat="45.88911" lon="5.83533">
        <ele>242</ele>
        <time>2021-09-12T08:01:57.807Z</time>
      </trkpt>
      <trkpt lat="45.88911" lon="5.8354">
        <ele>241</ele>
        <time>2021-09-12T08:01:58.807Z</time>
      </trkpt>
      <trkpt lat="45.88911" lon="5.83547">
        <ele>241</ele>
        <time>2021-09-12T08:01:59.807Z</time>
      </trkpt>
      <trkpt lat="45.88911" lon="5.83554">
        <ele>241</ele>
        <time>2021-09-12T08:02:00.807Z</time>
      </trkpt>
      <trkpt lat="45.88911" lon="5.83561">
        <ele>241</ele>
        <time>2021-09-12T08:02:01.807Z</time>
      </trkpt>
      <trkpt lat="45.88912" lon="5.83568">
        <ele>241</ele>
        <time>2021-09-12T08:02:02.807Z</time>
      </trkpt>
      <trkpt lat="45.88912" lon="5.83575">
        <ele>241</ele>
        <time>2021-09-12T08:02:03.806Z</time>
      </trkpt>
      <trkpt lat="45.88914" lon="5.83581">
        <ele>241</ele>
        <time>2021-09-12T08:02:04.807Z</time>
      </trkpt>
      <trkpt lat="45.88916" lon="5.83586">
        <ele>241</ele>
        <time>2021-09-12T08:02:05.806Z</time>
      </trkpt>
      <trkpt lat="45.88918" lon="5.83592">
        <ele>241</ele>
        <time>2021-09-12T08:02:06.806Z</time>
      </trkpt>
      <trkpt lat="45.88921" lon="5.83596">
        <ele>241</ele>
        <time>2021-09-12T08:02:07.807Z</time>
      </trkpt>
      <trkpt lat="45.88923" lon="5.83601">
        <ele>241</ele>
        <time>2021-09-12T08:02:08.806Z</time>
      </trkpt>
      <trkpt lat="45.88926" lon="5.83605">
        <ele>241</ele>
        <time>2021-09-12T08:02:09.807Z</time>
      </trkpt>
      <trkpt lat="45.8893" lon="5.83609">
        <ele>241</ele>
        <time>2021-09-12T08:02:10.807Z</time>
      </trkpt>
      <trkpt lat="45.88933" lon="5.83612">
        <ele>241</ele>
        <time>2021-09-12T08:02:11.807Z</time>
      </trkpt>
      <trkpt lat="45.88936" lon="5.83616">
        <ele>241</ele>
        <time>2021-09-12T08:02:12.807Z</time>
      </trkpt>
      <trkpt lat="45.8894" lon="5.83618">
        <ele>241</ele>
        <time>2021-09-12T08:02:13.807Z</time>
      </trkpt>
      <trkpt lat="45.88943" lon="5.83621">
        <ele>241</ele>
        <time>2021-09-12T08:02:14.806Z</time>
      </trkpt>
      <trkpt lat="45.88947" lon="5.83624">
        <ele>241</ele>
        <time>2021-09-12T08:02:15.807Z</time>
      </trkpt>
      <trkpt lat="45.8895" lon="5.83627">
        <ele>241</ele>
        <time>2021-09-12T08:02:16.807Z</time>
      </trkpt>
      <trkpt lat="45.88954" lon="5.8363">
        <ele>240</ele>
        <time>2021-09-12T08:02:17.807Z</time>
      </trkpt>
      <trkpt lat="45.88957" lon="5.83632">
        <ele>240</ele>
        <time>2021-09-12T08:02:18.807Z</time>
      </trkpt>
      <trkpt lat="45.88961" lon="5.83635">
        <ele>240</ele>
        <time>2021-09-12T08:02:19.807Z</time>
      </trkpt>
      <trkpt lat="45.88964" lon="5.83638">
        <ele>240</ele>
        <time>2021-09-12T08:02:20.807Z</time>
      </trkpt>
      <trkpt lat="45.88967" lon="5.83641">
        <ele>241</ele>
        <time>2021-09-12T08:02:21.807Z</time>
      </trkpt>
      <trkpt lat="45.8897" lon="5.83645">
        <ele>240</ele>
        <time>2021-09-12T08:02:22.807Z</time>
      </trkpt>
      <trkpt lat="45.88972" lon="5.83649">
        <ele>240</ele>
        <time>2021-09-12T08:02:23.807Z</time>
      </trkpt>
      <trkpt lat="45.88974" lon="5.83654">
        <ele>241</ele>
        <time>2021-09-12T08:02:24.806Z</time>
      </trkpt>
      <trkpt lat="45.88976" lon="5.83658">
        <ele>241</ele>
        <time>2021-09-12T08:02:25.807Z</time>
      </trkpt>
      <trkpt lat="45.88977" lon="5.83662">
        <ele>241</ele>
        <time>2021-09-12T08:02:26.807Z</time>
      </trkpt>
      <trkpt lat="45.88977" lon="5.83665">
        <ele>241</ele>
        <time>2021-09-12T08:02:27.807Z</time>
      </trkpt>
      <trkpt lat="45.88978" lon="5.83669">
        <ele>242</ele>
        <time>2021-09-12T08:02:28.806Z</time>
      </trkpt>
      <trkpt lat="45.88979" lon="5.83674">
        <ele>242</ele>
        <time>2021-09-12T08:02:29.807Z</time>
      </trkpt>
      <trkpt lat="45.8898" lon="5.83679">
        <ele>242</ele>
        <time>2021-09-12T08:02:30.807Z</time>
      </trkpt>
      <trkpt lat="45.88981" lon="5.83685">
        <ele>242</ele>
        <time>2021-09-12T08:02:31.806Z</time>
      </trkpt>
      <trkpt lat="45.88982" lon="5.83692">
        <ele>242</ele>
        <time>2021-09-12T08:02:32.807Z</time>
      </trkpt>
      <trkpt lat="45.88982" lon="5.83698">
        <ele>241</ele>
        <time>2021-09-12T08:02:33.807Z</time>
      </trkpt>
      <trkpt lat="45.88983" lon="5.83705">
        <ele>241</ele>
        <time>2021-09-12T08:02:34.807Z</time>
      </trkpt>
      <trkpt lat="45.88984" lon="5.83711">
        <ele>241</ele>
        <time>2021-09-12T08:02:35.807Z</time>
      </trkpt>
      <trkpt lat="45.88984" lon="5.83717">
        <ele>241</ele>
        <time>2021-09-12T08:02:36.806Z</time>
      </trkpt>
      <trkpt lat="45.88985" lon="5.83723">
        <ele>240</ele>
        <time>2021-09-12T08:02:37.807Z</time>
      </trkpt>
      <trkpt lat="45.88985" lon="5.8373">
        <ele>240</ele>
        <time>2021-09-12T08:02:38.807Z</time>
      </trkpt>
      <trkpt lat="45.88985" lon="5.83736">
        <ele>240</ele>
        <time>2021-09-12T08:02:39.807Z</time>
      </trkpt>
      <trkpt lat="45.88985" lon="5.83743">
        <ele>240</ele>
        <time>2021-09-12T08:02:40.806Z</time>
      </trkpt>
      <trkpt lat="45.88986" lon="5.8375">
        <ele>240</ele>
        <time>2021-09-12T08:02:41.807Z</time>
      </trkpt>
      <trkpt lat="45.88986" lon="5.83757">
        <ele>240</ele>
        <time>2021-09-12T08:02:42.806Z</time>
      </trkpt>
      <trkpt lat="45.88986" lon="5.83764">
        <ele>241</ele>
        <time>2021-09-12T08:02:43.806Z</time>
      </trkpt>
      <trkpt lat="45.88986" lon="5.83771">
        <ele>241</ele>
        <time>2021-09-12T08:02:44.806Z</time>
      </trkpt>
      <trkpt lat="45.88986" lon="5.83778">
        <ele>241</ele>
        <time>2021-09-12T08:02:45.807Z</time>
      </trkpt>
      <trkpt lat="45.88986" lon="5.83785">
        <ele>242</ele>
        <time>2021-09-12T08:02:46.807Z</time>
      </trkpt>
      <trkpt lat="45.88986" lon="5.83791">
        <ele>242</ele>
        <time>2021-09-12T08:02:47.807Z</time>
      </trkpt>
      <trkpt lat="45.88986" lon="5.83798">
        <ele>242</ele>
        <time>2021-09-12T08:02:48.807Z</time>
      </trkpt>
      <trkpt lat="45.88986" lon="5.83805">
        <ele>241</ele>
        <time>2021-09-12T08:02:49.807Z</time>
      </trkpt>
      <trkpt lat="45.88986" lon="5.83812">
        <ele>241</ele>
        <time>2021-09-12T08:02:50.807Z</time>
      </trkpt>
      <trkpt lat="45.88986" lon="5.83818">
        <ele>241</ele>
        <time>2021-09-12T08:02:51.807Z</time>
      </trkpt>
      <trkpt lat="45.88987" lon="5.83825">
        <ele>241</ele>
        <time>2021-09-12T08:02:52.806Z</time>
      </trkpt>
      <trkpt lat="45.88987" lon="5.83832">
        <ele>241</ele>
        <time>2021-09-12T08:02:53.807Z</time>
      </trkpt>
      <trkpt lat="45.88987" lon="5.83838">
        <ele>241</ele>
        <time>2021-09-12T08:02:54.807Z</time>
      </trkpt>
      <trkpt lat="45.88987" lon="5.83844">
        <ele>240</ele>
        <time>2021-09-12T08:02:55.807Z</time>
      </trkpt>
      <trkpt lat="45.88987" lon="5.83851">
        <ele>240</ele>
        <time>2021-09-12T08:02:56.807Z</time>
      </trkpt>
      <trkpt lat="45.88987" lon="5.83857">
        <ele>240</ele>
        <time>2021-09-12T08:02:57.807Z</time>
      </trkpt>
      <trkpt lat="45.88986" lon="5.83864">
        <ele>240</ele>
        <time>2021-09-12T08:02:58.806Z</time>
      </trkpt>
      <trkpt lat="45.88986" lon="5.83872">
        <ele>240</ele>
        <time>2021-09-12T08:02:59.807Z</time>
      </trkpt>
      <trkpt lat="45.88986" lon="5.83879">
        <ele>240</ele>
        <time>2021-09-12T08:03:00.806Z</time>
      </trkpt>
      <trkpt lat="45.88985" lon="5.83886">
        <ele>240</ele>
        <time>2021-09-12T08:03:01.807Z</time>
      </trkpt>
      <trkpt lat="45.88985" lon="5.83894">
        <ele>240</ele>
        <time>2021-09-12T08:03:02.807Z</time>
      </trkpt>
      <trkpt lat="45.88985" lon="5.83901">
        <ele>240</ele>
        <time>2021-09-12T08:03:03.807Z</time>
      </trkpt>
      <trkpt lat="45.88985" lon="5.83909">
        <ele>240</ele>
        <time>2021-09-12T08:03:04.807Z</time>
      </trkpt>
      <trkpt lat="45.88985" lon="5.83916">
        <ele>240</ele>
        <time>2021-09-12T08:03:05.806Z</time>
      </trkpt>
      <trkpt lat="45.88984" lon="5.83924">
        <ele>240</ele>
        <time>2021-09-12T08:03:06.807Z</time>
      </trkpt>
      <trkpt lat="45.88984" lon="5.83931">
        <ele>239</ele>
        <time>2021-09-12T08:03:07.807Z</time>
      </trkpt>
      <trkpt lat="45.88983" lon="5.83939">
        <ele>239</ele>
        <time>2021-09-12T08:03:08.807Z</time>
      </trkpt>
      <trkpt lat="45.88983" lon="5.83946">
        <ele>238</ele>
        <time>2021-09-12T08:03:09.807Z</time>
      </trkpt>
      <trkpt lat="45.88982" lon="5.83953">
        <ele>238</ele>
        <time>2021-09-12T08:03:10.807Z</time>
      </trkpt>
      <trkpt lat="45.88982" lon="5.8396">
        <ele>238</ele>
        <time>2021-09-12T08:03:11.806Z</time>
      </trkpt>
      <trkpt lat="45.88982" lon="5.83967">
        <ele>237</ele>
        <time>2021-09-12T08:03:12.807Z</time>
      </trkpt>
      <trkpt lat="45.88981" lon="5.83974">
        <ele>237</ele>
        <time>2021-09-12T08:03:13.807Z</time>
      </trkpt>
      <trkpt lat="45.8898" lon="5.83981">
        <ele>237</ele>
        <time>2021-09-12T08:03:14.807Z</time>
      </trkpt>
      <trkpt lat="45.8898" lon="5.83987">
        <ele>238</ele>
        <time>2021-09-12T08:03:15.807Z</time>
      </trkpt>
      <trkpt lat="45.88978" lon="5.83994">
        <ele>238</ele>
        <time>2021-09-12T08:03:16.806Z</time>
      </trkpt>
      <trkpt lat="45.88978" lon="5.84001">
        <ele>238</ele>
        <time>2021-09-12T08:03:17.807Z</time>
      </trkpt>
      <trkpt lat="45.88977" lon="5.84007">
        <ele>238</ele>
        <time>2021-09-12T08:03:18.807Z</time>
      </trkpt>
      <trkpt lat="45.88977" lon="5.84012">
        <ele>238</ele>
        <time>2021-09-12T08:03:19.806Z</time>
      </trkpt>
      <trkpt lat="45.88976" lon="5.84018">
        <ele>238</ele>
        <time>2021-09-12T08:03:20.807Z</time>
      </trkpt>
      <trkpt lat="45.88976" lon="5.84023">
        <ele>238</ele>
        <time>2021-09-12T08:03:21.807Z</time>
      </trkpt>
      <trkpt lat="45.88975" lon="5.84028">
        <ele>238</ele>
        <time>2021-09-12T08:03:22.807Z</time>
      </trkpt>
      <trkpt lat="45.88974" lon="5.84032">
        <ele>238</ele>
        <time>2021-09-12T08:03:23.807Z</time>
      </trkpt>
      <trkpt lat="45.88972" lon="5.84036">
        <ele>238</ele>
        <time>2021-09-12T08:03:24.807Z</time>
      </trkpt>
      <trkpt lat="45.88969" lon="5.84038">
        <ele>239</ele>
        <time>2021-09-12T08:03:25.806Z</time>
      </trkpt>
      <trkpt lat="45.88965" lon="5.84039">
        <ele>239</ele>
        <time>2021-09-12T08:03:26.807Z</time>
      </trkpt>
      <trkpt lat="45.88962" lon="5.84039">
        <ele>239</ele>
        <time>2021-09-12T08:03:27.807Z</time>
      </trkpt>
      <trkpt lat="45.88958" lon="5.84039">
        <ele>239</ele>
        <time>2021-09-12T08:03:28.806Z</time>
      </trkpt>
      <trkpt lat="45.88955" lon="5.84038">
        <ele>240</ele>
        <time>2021-09-12T08:03:29.807Z</time>
      </trkpt>
      <trkpt lat="45.88951" lon="5.84038">
        <ele>241</ele>
        <time>2021-09-12T08:03:30.806Z</time>
      </trkpt>
      <trkpt lat="45.88946" lon="5.84038">
        <ele>241</ele>
        <time>2021-09-12T08:03:31.806Z</time>
      </trkpt>
      <trkpt lat="45.88941" lon="5.84039">
        <ele>242</ele>
        <time>2021-09-12T08:03:32.806Z</time>
      </trkpt>
      <trkpt lat="45.88936" lon="5.84039">
        <ele>242</ele>
        <time>2021-09-12T08:03:33.807Z</time>
      </trkpt>
      <trkpt lat="45.88931" lon="5.84039">
        <ele>242</ele>
        <time>2021-09-12T08:03:34.807Z</time>
      </trkpt>
      <trkpt lat="45.88926" lon="5.84039">
        <ele>242</ele>
        <time>2021-09-12T08:03:35.807Z</time>
      </trkpt>
      <trkpt lat="45.88921" lon="5.84039">
        <ele>242</ele>
        <time>2021-09-12T08:03:36.807Z</time>
      </trkpt>
      <trkpt lat="45.88916" lon="5.84038">
        <ele>242</ele>
        <time>2021-09-12T08:03:37.806Z</time>
      </trkpt>
      <trkpt lat="45.88911" lon="5.84038">
        <ele>242</ele>
        <time>2021-09-12T08:03:38.807Z</time>
      </trkpt>
      <trkpt lat="45.88907" lon="5.84038">
        <ele>242</ele>
        <time>2021-09-12T08:03:39.807Z</time>
      </trkpt>
      <trkpt lat="45.88903" lon="5.84038">
        <ele>242</ele>
        <time>2021-09-12T08:03:40.807Z</time>
      </trkpt>
      <trkpt lat="45.88899" lon="5.84038">
        <ele>242</ele>
        <time>2021-09-12T08:03:41.807Z</time>
      </trkpt>
      <trkpt lat="45.88894" lon="5.84037">
        <ele>242</ele>
        <time>2021-09-12T08:03:42.807Z</time>
      </trkpt>
      <trkpt lat="45.8889" lon="5.84037">
        <ele>242</ele>
        <time>2021-09-12T08:03:43.806Z</time>
      </trkpt>
      <trkpt lat="45.88886" lon="5.84037">
        <ele>242</ele>
        <time>2021-09-12T08:03:44.807Z</time>
      </trkpt>
      <trkpt lat="45.88882" lon="5.84037">
        <ele>242</ele>
        <time>2021-09-12T08:03:45.807Z</time>
      </trkpt>
      <trkpt lat="45.88879" lon="5.84037">
        <ele>242</ele>
        <time>2021-09-12T08:03:46.807Z</time>
      </trkpt>
      <trkpt lat="45.88875" lon="5.84036">
        <ele>241</ele>
        <time>2021-09-12T08:03:47.807Z</time>
      </trkpt>
      <trkpt lat="45.88871" lon="5.84036">
        <ele>241</ele>
        <time>2021-09-12T08:03:48.806Z</time>
      </trkpt>
      <trkpt lat="45.88866" lon="5.84036">
        <ele>241</ele>
        <time>2021-09-12T08:03:49.806Z</time>
      </trkpt>
      <trkpt lat="45.88862" lon="5.84036">
        <ele>241</ele>
        <time>2021-09-12T08:03:50.807Z</time>
      </trkpt>
      <trkpt lat="45.88858" lon="5.84035">
        <ele>241</ele>
        <time>2021-09-12T08:03:51.807Z</time>
      </trkpt>
      <trkpt lat="45.88854" lon="5.84035">
        <ele>241</ele>
        <time>2021-09-12T08:03:52.806Z</time>
      </trkpt>
      <trkpt lat="45.8885" lon="5.84035">
        <ele>241</ele>
        <time>2021-09-12T08:03:53.807Z</time>
      </trkpt>
      <trkpt lat="45.88845" lon="5.84035">
        <ele>241</ele>
        <time>2021-09-12T08:03:54.807Z</time>
      </trkpt>
      <trkpt lat="45.88841" lon="5.84035">
        <ele>242</ele>
        <time>2021-09-12T08:03:55.807Z</time>
      </trkpt>
      <trkpt lat="45.88836" lon="5.84034">
        <ele>242</ele>
        <time>2021-09-12T08:03:56.807Z</time>
      </trkpt>
      <trkpt lat="45.88832" lon="5.84034">
        <ele>242</ele>
        <time>2021-09-12T08:03:57.807Z</time>
      </trkpt>
      <trkpt lat="45.88827" lon="5.84034">
        <ele>242</ele>
        <time>2021-09-12T08:03:58.806Z</time>
      </trkpt>
      <trkpt lat="45.88823" lon="5.84033">
        <ele>242</ele>
        <time>2021-09-12T08:03:59.807Z</time>
      </trkpt>
      <trkpt lat="45.88819" lon="5.84033">
        <ele>242</ele>
        <time>2021-09-12T08:04:00.807Z</time>
      </trkpt>
      <trkpt lat="45.88814" lon="5.84033">
        <ele>242</ele>
        <time>2021-09-12T08:04:01.807Z</time>
      </trkpt>
      <trkpt lat="45.8881" lon="5.84033">
        <ele>242</ele>
        <time>2021-09-12T08:04:02.807Z</time>
      </trkpt>
      <trkpt lat="45.88805" lon="5.84033">
        <ele>242</ele>
        <time>2021-09-12T08:04:03.807Z</time>
      </trkpt>
      <trkpt lat="45.88801" lon="5.84033">
        <ele>242</ele>
        <time>2021-09-12T08:04:04.806Z</time>
      </trkpt>
      <trkpt lat="45.88796" lon="5.84033">
        <ele>242</ele>
        <time>2021-09-12T08:04:05.806Z</time>
      </trkpt>
      <trkpt lat="45.88791" lon="5.84032">
        <ele>242</ele>
        <time>2021-09-12T08:04:06.807Z</time>
      </trkpt>
      <trkpt lat="45.88787" lon="5.84032">
        <ele>242</ele>
        <time>2021-09-12T08:04:07.806Z</time>
      </trkpt>
      <trkpt lat="45.88782" lon="5.84032">
        <ele>242</ele>
        <time>2021-09-12T08:04:08.807Z</time>
      </trkpt>
      <trkpt lat="45.88777" lon="5.84032">
        <ele>241</ele>
        <time>2021-09-12T08:04:09.807Z</time>
      </trkpt>
      <trkpt lat="45.88773" lon="5.84032">
        <ele>241</ele>
        <time>2021-09-12T08:04:10.806Z</time>
      </trkpt>
      <trkpt lat="45.88768" lon="5.84031">
        <ele>241</ele>
        <time>2021-09-12T08:04:11.807Z</time>
      </trkpt>
      <trkpt lat="45.88764" lon="5.84031">
        <ele>241</ele>
        <time>2021-09-12T08:04:12.807Z</time>
      </trkpt>
      <trkpt lat="45.88759" lon="5.84031">
        <ele>241</ele>
        <time>2021-09-12T08:04:13.806Z</time>
      </trkpt>
      <trkpt lat="45.88754" lon="5.84031">
        <ele>241</ele>
        <time>2021-09-12T08:04:14.807Z</time>
      </trkpt>
      <trkpt lat="45.88749" lon="5.8403">
        <ele>241</ele>
        <time>2021-09-12T08:04:15.807Z</time>
      </trkpt>
      <trkpt lat="45.88745" lon="5.84029">
        <ele>241</ele>
        <time>2021-09-12T08:04:16.807Z</time>
      </trkpt>
      <trkpt lat="45.8874" lon="5.84029">
        <ele>242</ele>
        <time>2021-09-12T08:04:17.807Z</time>
      </trkpt>
      <trkpt lat="45.88735" lon="5.84029">
        <ele>242</ele>
        <time>2021-09-12T08:04:18.806Z</time>
      </trkpt>
      <trkpt lat="45.8873" lon="5.84029">
        <ele>242</ele>
        <time>2021-09-12T08:04:19.807Z</time>
      </trkpt>
      <trkpt lat="45.88725" lon="5.84028">
        <ele>242</ele>
        <time>2021-09-12T08:04:20.806Z</time>
      </trkpt>
      <trkpt lat="45.8872" lon="5.84028">
        <ele>242</ele>
        <time>2021-09-12T08:04:21.807Z</time>
      </trkpt>
      <trkpt lat="45.88715" lon="5.84028">
        <ele>242</ele>
        <time>2021-09-12T08:04:22.806Z</time>
      </trkpt>
      <trkpt lat="45.8871" lon="5.84027">
        <ele>241</ele>
        <time>2021-09-12T08:04:23.807Z</time>
      </trkpt>
      <trkpt lat="45.88705" lon="5.84027">
        <ele>241</ele>
        <time>2021-09-12T08:04:24.807Z</time>
      </trkpt>
      <trkpt lat="45.887" lon="5.84026">
        <ele>241</ele>
        <time>2021-09-12T08:04:25.806Z</time>
      </trkpt>
      <trkpt lat="45.88696" lon="5.84027">
        <ele>241</ele>
        <time>2021-09-12T08:04:26.806Z</time>
      </trkpt>
      <trkpt lat="45.88692" lon="5.84029">
        <ele>242</ele>
        <time>2021-09-12T08:04:27.807Z</time>
      </trkpt>
      <trkpt lat="45.88688" lon="5.84032">
        <ele>242</ele>
        <time>2021-09-12T08:04:28.807Z</time>
      </trkpt>
      <trkpt lat="45.88684" lon="5.84036">
        <ele>242</ele>
        <time>2021-09-12T08:04:29.807Z</time>
      </trkpt>
      <trkpt lat="45.8868" lon="5.84038">
        <ele>242</ele>
        <time>2021-09-12T08:04:30.806Z</time>
      </trkpt>
      <trkpt lat="45.88676" lon="5.84039">
        <ele>242</ele>
        <time>2021-09-12T08:04:31.807Z</time>
      </trkpt>
      <trkpt lat="45.88672" lon="5.8404">
        <ele>242</ele>
        <time>2021-09-12T08:04:32.807Z</time>
      </trkpt>
      <trkpt lat="45.88668" lon="5.8404">
        <ele>242</ele>
        <time>2021-09-12T08:04:33.807Z</time>
      </trkpt>
      <trkpt lat="45.88663" lon="5.8404">
        <ele>242</ele>
        <time>2021-09-12T08:04:34.806Z</time>
      </trkpt>
      <trkpt lat="45.88659" lon="5.8404">
        <ele>242</ele>
        <time>2021-09-12T08:04:35.807Z</time>
      </trkpt>
      <trkpt lat="45.88655" lon="5.84041">
        <ele>242</ele>
        <time>2021-09-12T08:04:36.806Z</time>
      </trkpt>
      <trkpt lat="45.88652" lon="5.84041">
        <ele>242</ele>
        <time>2021-09-12T08:04:37.806Z</time>
      </trkpt>
      <trkpt lat="45.88648" lon="5.8404">
        <ele>242</ele>
        <time>2021-09-12T08:04:38.807Z</time>
      </trkpt>
      <trkpt lat="45.88646" lon="5.84038">
        <ele>242</ele>
        <time>2021-09-12T08:04:39.807Z</time>
      </trkpt>
      <trkpt lat="45.88643" lon="5.84035">
        <ele>242</ele>
        <time>2021-09-12T08:04:40.807Z</time>
      </trkpt>
      <trkpt lat="45.88641" lon="5.84032">
        <ele>242</ele>
        <time>2021-09-12T08:04:41.807Z</time>
      </trkpt>
      <trkpt lat="45.8864" lon="5.84029">
        <ele>242</ele>
        <time>2021-09-12T08:04:42.806Z</time>
      </trkpt>
      <trkpt lat="45.88638" lon="5.84026">
        <ele>242</ele>
        <time>2021-09-12T08:04:43.807Z</time>
      </trkpt>
      <trkpt lat="45.88637" lon="5.84023">
        <ele>242</ele>
        <time>2021-09-12T08:04:44.807Z</time>
      </trkpt>
      <trkpt lat="45.88636" lon="5.84019">
        <ele>242</ele>
        <time>2021-09-12T08:04:45.807Z</time>
      </trkpt>
      <trkpt lat="45.88634" lon="5.84015">
        <ele>242</ele>
        <time>2021-09-12T08:04:46.806Z</time>
      </trkpt>
      <trkpt lat="45.88632" lon="5.8401">
        <ele>242</ele>
        <time>2021-09-12T08:04:47.806Z</time>
      </trkpt>
      <trkpt lat="45.88631" lon="5.84005">
        <ele>243</ele>
        <time>2021-09-12T08:04:48.807Z</time>
      </trkpt>
      <trkpt lat="45.88629" lon="5.84">
        <ele>243</ele>
        <time>2021-09-12T08:04:49.807Z</time>
      </trkpt>
      <trkpt lat="45.88627" lon="5.83996">
        <ele>243</ele>
        <time>2021-09-12T08:04:50.806Z</time>
      </trkpt>
      <trkpt lat="45.88624" lon="5.83991">
        <ele>243</ele>
        <time>2021-09-12T08:04:51.807Z</time>
      </trkpt>
      <trkpt lat="45.88621" lon="5.83987">
        <ele>243</ele>
        <time>2021-09-12T08:04:52.807Z</time>
      </trkpt>
      <trkpt lat="45.88618" lon="5.83983">
        <ele>243</ele>
        <time>2021-09-12T08:04:53.807Z</time>
      </trkpt>
      <trkpt lat="45.88614" lon="5.83979">
        <ele>242</ele>
        <time>2021-09-12T08:04:54.807Z</time>
      </trkpt>
      <trkpt lat="45.8861" lon="5.83976">
        <ele>242</ele>
        <time>2021-09-12T08:04:55.807Z</time>
      </trkpt>
      <trkpt lat="45.88606" lon="5.83974">
        <ele>243</ele>
        <time>2021-09-12T08:04:56.806Z</time>
      </trkpt>
      <trkpt lat="45.88602" lon="5.83972">
        <ele>243</ele>
        <time>2021-09-12T08:04:57.806Z</time>
      </trkpt>
      <trkpt lat="45.88597" lon="5.83969">
        <ele>243</ele>
        <time>2021-09-12T08:04:58.807Z</time>
      </trkpt>
      <trkpt lat="45.88593" lon="5.83968">
        <ele>243</ele>
        <time>2021-09-12T08:04:59.806Z</time>
      </trkpt>
      <trkpt lat="45.88588" lon="5.83966">
        <ele>243</ele>
        <time>2021-09-12T08:05:00.807Z</time>
      </trkpt>
      <trkpt lat="45.88583" lon="5.83964">
        <ele>243</ele>
        <time>2021-09-12T08:05:01.807Z</time>
      </trkpt>
      <trkpt lat="45.88578" lon="5.83963">
        <ele>243</ele>
        <time>2021-09-12T08:05:02.806Z</time>
      </trkpt>
      <trkpt lat="45.88574" lon="5.8396">
        <ele>243</ele>
        <time>2021-09-12T08:05:03.807Z</time>
      </trkpt>
      <trkpt lat="45.88569" lon="5.83958">
        <ele>242</ele>
        <time>2021-09-12T08:05:04.806Z</time>
      </trkpt>
      <trkpt lat="45.88564" lon="5.83956">
        <ele>242</ele>
        <time>2021-09-12T08:05:05.807Z</time>
      </trkpt>
      <trkpt lat="45.8856" lon="5.83954">
        <ele>242</ele>
        <time>2021-09-12T08:05:06.807Z</time>
      </trkpt>
      <trkpt lat="45.88555" lon="5.83951">
        <ele>242</ele>
        <time>2021-09-12T08:05:07.807Z</time>
      </trkpt>
      <trkpt lat="45.88551" lon="5.83948">
        <ele>241</ele>
        <time>2021-09-12T08:05:08.807Z</time>
      </trkpt>
      <trkpt lat="45.88547" lon="5.83945">
        <ele>241</ele>
        <time>2021-09-12T08:05:09.807Z</time>
      </trkpt>
      <trkpt lat="45.88544" lon="5.83943">
        <ele>241</ele>
        <time>2021-09-12T08:05:10.806Z</time>
      </trkpt>
      <trkpt lat="45.88542" lon="5.8394">
        <ele>241</ele>
        <time>2021-09-12T08:05:11.806Z</time>
      </trkpt>
      <trkpt lat="45.88539" lon="5.83937">
        <ele>241</ele>
        <time>2021-09-12T08:05:12.806Z</time>
      </trkpt>
      <trkpt lat="45.88537" lon="5.83934">
        <ele>241</ele>
        <time>2021-09-12T08:05:13.807Z</time>
      </trkpt>
      <trkpt lat="45.88535" lon="5.83929">
        <ele>241</ele>
        <time>2021-09-12T08:05:14.807Z</time>
      </trkpt>
      <trkpt lat="45.88533" lon="5.83924">
        <ele>241</ele>
        <time>2021-09-12T08:05:15.807Z</time>
      </trkpt>
      <trkpt lat="45.88531" lon="5.83918">
        <ele>240</ele>
        <time>2021-09-12T08:05:16.806Z</time>
      </trkpt>
      <trkpt lat="45.8853" lon="5.83913">
        <ele>240</ele>
        <time>2021-09-12T08:05:17.807Z</time>
      </trkpt>
      <trkpt lat="45.88529" lon="5.83907">
        <ele>240</ele>
        <time>2021-09-12T08:05:18.807Z</time>
      </trkpt>
      <trkpt lat="45.88528" lon="5.83901">
        <ele>240</ele>
        <time>2021-09-12T08:05:19.807Z</time>
      </trkpt>
      <trkpt lat="45.88526" lon="5.83895">
        <ele>241</ele>
        <time>2021-09-12T08:05:20.806Z</time>
      </trkpt>
      <trkpt lat="45.88526" lon="5.83888">
        <ele>241</ele>
        <time>2021-09-12T08:05:21.807Z</time>
      </trkpt>
      <trkpt lat="45.88524" lon="5.83882">
        <ele>241</ele>
        <time>2021-09-12T08:05:22.807Z</time>
      </trkpt>
      <trkpt lat="45.88524" lon="5.83876">
        <ele>240</ele>
        <time>2021-09-12T08:05:23.807Z</time>
      </trkpt>
      <trkpt lat="45.88523" lon="5.8387">
        <ele>240</ele>
        <time>2021-09-12T08:05:24.806Z</time>
      </trkpt>
      <trkpt lat="45.88522" lon="5.83864">
        <ele>240</ele>
        <time>2021-09-12T08:05:25.807Z</time>
      </trkpt>
      <trkpt lat="45.88521" lon="5.83858">
        <ele>240</ele>
        <time>2021-09-12T08:05:26.807Z</time>
      </trkpt>
      <trkpt lat="45.88521" lon="5.83852">
        <ele>240</ele>
        <time>2021-09-12T08:05:27.807Z</time>
      </trkpt>
      <trkpt lat="45.8852" lon="5.83846">
        <ele>240</ele>
        <time>2021-09-12T08:05:28.807Z</time>
      </trkpt>
      <trkpt lat="45.8852" lon="5.83841">
        <ele>240</ele>
        <time>2021-09-12T08:05:29.807Z</time>
      </trkpt>
      <trkpt lat="45.8852" lon="5.83835">
        <ele>240</ele>
        <time>2021-09-12T08:05:30.806Z</time>
      </trkpt>
      <trkpt lat="45.8852" lon="5.83829">
        <ele>240</ele>
        <time>2021-09-12T08:05:31.806Z</time>
      </trkpt>
      <trkpt lat="45.88519" lon="5.83823">
        <ele>240</ele>
        <time>2021-09-12T08:05:32.807Z</time>
      </trkpt>
      <trkpt lat="45.88519" lon="5.83816">
        <ele>240</ele>
        <time>2021-09-12T08:05:33.806Z</time>
      </trkpt>
      <trkpt lat="45.88518" lon="5.83809">
        <ele>240</ele>
        <time>2021-09-12T08:05:34.807Z</time>
      </trkpt>
      <trkpt lat="45.88518" lon="5.83802">
        <ele>239</ele>
        <time>2021-09-12T08:05:35.807Z</time>
      </trkpt>
      <trkpt lat="45.88517" lon="5.83796">
        <ele>239</ele>
        <time>2021-09-12T08:05:36.806Z</time>
      </trkpt>
      <trkpt lat="45.88516" lon="5.83789">
        <ele>239</ele>
        <time>2021-09-12T08:05:37.807Z</time>
      </trkpt>
      <trkpt lat="45.88515" lon="5.83783">
        <ele>239</ele>
        <time>2021-09-12T08:05:38.806Z</time>
      </trkpt>
      <trkpt lat="45.88515" lon="5.83776">
        <ele>239</ele>
        <time>2021-09-12T08:05:39.807Z</time>
      </trkpt>
      <trkpt lat="45.88514" lon="5.8377">
        <ele>239</ele>
        <time>2021-09-12T08:05:40.807Z</time>
      </trkpt>
      <trkpt lat="45.88514" lon="5.83763">
        <ele>239</ele>
        <time>2021-09-12T08:05:41.807Z</time>
      </trkpt>
      <trkpt lat="45.88513" lon="5.83756">
        <ele>239</ele>
        <time>2021-09-12T08:05:42.807Z</time>
      </trkpt>
      <trkpt lat="45.88513" lon="5.8375">
        <ele>239</ele>
        <time>2021-09-12T08:05:43.807Z</time>
      </trkpt>
      <trkpt lat="45.88512" lon="5.83743">
        <ele>239</ele>
        <time>2021-09-12T08:05:44.807Z</time>
      </trkpt>
      <trkpt lat="45.88511" lon="5.83736">
        <ele>240</ele>
        <time>2021-09-12T08:05:45.807Z</time>
      </trkpt>
      <trkpt lat="45.88511" lon="5.8373">
        <ele>240</ele>
        <time>2021-09-12T08:05:46.807Z</time>
      </trkpt>
      <trkpt lat="45.8851" lon="5.83723">
        <ele>239</ele>
        <time>2021-09-12T08:05:47.807Z</time>
      </trkpt>
      <trkpt lat="45.8851" lon="5.83717">
        <ele>239</ele>
        <time>2021-09-12T08:05:48.807Z</time>
      </trkpt>
      <trkpt lat="45.88509" lon="5.83711">
        <ele>239</ele>
        <time>2021-09-12T08:05:49.807Z</time>
      </trkpt>
      <trkpt lat="45.88508" lon="5.83705">
        <ele>239</ele>
        <time>2021-09-12T08:05:50.807Z</time>
      </trkpt>
      <trkpt lat="45.88507" lon="5.83699">
        <ele>239</ele>
        <time>2021-09-12T08:05:51.807Z</time>
      </trkpt>
      <trkpt lat="45.88505" lon="5.83694">
        <ele>239</ele>
        <time>2021-09-12T08:05:52.807Z</time>
      </trkpt>
      <trkpt lat="45.88503" lon="5.83688">
        <ele>240</ele>
        <time>2021-09-12T08:05:53.807Z</time>
      </trkpt>
      <trkpt lat="45.88501" lon="5.83683">
        <ele>240</ele>
        <time>2021-09-12T08:05:54.807Z</time>
      </trkpt>
      <trkpt lat="45.88498" lon="5.83678">
        <ele>240</ele>
        <time>2021-09-12T08:05:55.806Z</time>
      </trkpt>
      <trkpt lat="45.88496" lon="5.83674">
        <ele>240</ele>
        <time>2021-09-12T08:05:56.807Z</time>
      </trkpt>
      <trkpt lat="45.88492" lon="5.8367">
        <ele>241</ele>
        <time>2021-09-12T08:05:57.807Z</time>
      </trkpt>
      <trkpt lat="45.88488" lon="5.83667">
        <ele>241</ele>
        <time>2021-09-12T08:05:58.807Z</time>
      </trkpt>
      <trkpt lat="45.88484" lon="5.83664">
        <ele>241</ele>
        <time>2021-09-12T08:05:59.807Z</time>
      </trkpt>
      <trkpt lat="45.8848" lon="5.83662">
        <ele>240</ele>
        <time>2021-09-12T08:06:00.806Z</time>
      </trkpt>
      <trkpt lat="45.88475" lon="5.83661">
        <ele>241</ele>
        <time>2021-09-12T08:06:01.807Z</time>
      </trkpt>
      <trkpt lat="45.88471" lon="5.8366">
        <ele>241</ele>
        <time>2021-09-12T08:06:02.806Z</time>
      </trkpt>
      <trkpt lat="45.88466" lon="5.83659">
        <ele>241</ele>
        <time>2021-09-12T08:06:03.807Z</time>
      </trkpt>
      <trkpt lat="45.88461" lon="5.83659">
        <ele>242</ele>
        <time>2021-09-12T08:06:04.807Z</time>
      </trkpt>
      <trkpt lat="45.88456" lon="5.83658">
        <ele>241</ele>
        <time>2021-09-12T08:06:05.807Z</time>
      </trkpt>
      <trkpt lat="45.88451" lon="5.83658">
        <ele>242</ele>
        <time>2021-09-12T08:06:06.807Z</time>
      </trkpt>
      <trkpt lat="45.88446" lon="5.83658">
        <ele>241</ele>
        <time>2021-09-12T08:06:07.807Z</time>
      </trkpt>
      <trkpt lat="45.88441" lon="5.83658">
        <ele>241</ele>
        <time>2021-09-12T08:06:08.806Z</time>
      </trkpt>
      <trkpt lat="45.88437" lon="5.83657">
        <ele>241</ele>
        <time>2021-09-12T08:06:09.807Z</time>
      </trkpt>
      <trkpt lat="45.88432" lon="5.83655">
        <ele>241</ele>
        <time>2021-09-12T08:06:10.806Z</time>
      </trkpt>
      <trkpt lat="45.88428" lon="5.83654">
        <ele>240</ele>
        <time>2021-09-12T08:06:11.807Z</time>
      </trkpt>
      <trkpt lat="45.88423" lon="5.83651">
        <ele>240</ele>
        <time>2021-09-12T08:06:12.807Z</time>
      </trkpt>
      <trkpt lat="45.88419" lon="5.83648">
        <ele>240</ele>
        <time>2021-09-12T08:06:13.807Z</time>
      </trkpt>
      <trkpt lat="45.88416" lon="5.83645">
        <ele>240</ele>
        <time>2021-09-12T08:06:14.807Z</time>
      </trkpt>
      <trkpt lat="45.88412" lon="5.83641">
        <ele>240</ele>
        <time>2021-09-12T08:06:15.807Z</time>
      </trkpt>
      <trkpt lat="45.8841" lon="5.83636">
        <ele>240</ele>
        <time>2021-09-12T08:06:16.807Z</time>
      </trkpt>
      <trkpt lat="45.88408" lon="5.8363">
        <ele>241</ele>
        <time>2021-09-12T08:06:17.806Z</time>
      </trkpt>
      <trkpt lat="45.88405" lon="5.83624">
        <ele>241</ele>
        <time>2021-09-12T08:06:18.807Z</time>
      </trkpt>
      <trkpt lat="45.88403" lon="5.83619">
        <ele>241</ele>
        <time>2021-09-12T08:06:19.807Z</time>
      </trkpt>
      <trkpt lat="45.88401" lon="5.83613">
        <ele>241</ele>
        <time>2021-09-12T08:06:20.806Z</time>
      </trkpt>
      <trkpt lat="45.88399" lon="5.83607">
        <ele>241</ele>
        <time>2021-09-12T08:06:21.806Z</time>
      </trkpt>
      <trkpt lat="45.88396" lon="5.83602">
        <ele>241</ele>
        <time>2021-09-12T08:06:22.807Z</time>
      </trkpt>
      <trkpt lat="45.88392" lon="5.83597">
        <ele>240</ele>
        <time>2021-09-12T08:06:23.807Z</time>
      </trkpt>
      <trkpt lat="45.88389" lon="5.83593">
        <ele>241</ele>
        <time>2021-09-12T08:06:24.806Z</time>
      </trkpt>
      <trkpt lat="45.88385" lon="5.8359">
        <ele>241</ele>
        <time>2021-09-12T08:06:25.806Z</time>
      </trkpt>
      <trkpt lat="45.8838" lon="5.83588">
        <ele>241</ele>
        <time>2021-09-12T08:06:26.807Z</time>
      </trkpt>
      <trkpt lat="45.88375" lon="5.83587">
        <ele>241</ele>
        <time>2021-09-12T08:06:27.807Z</time>
      </trkpt>
      <trkpt lat="45.8837" lon="5.83586">
        <ele>242</ele>
        <time>2021-09-12T08:06:28.807Z</time>
      </trkpt>
      <trkpt lat="45.88365" lon="5.83586">
        <ele>242</ele>
        <time>2021-09-12T08:06:29.806Z</time>
      </trkpt>
      <trkpt lat="45.88359" lon="5.83587">
        <ele>242</ele>
        <time>2021-09-12T08:06:30.807Z</time>
      </trkpt>
      <trkpt lat="45.88354" lon="5.83587">
        <ele>242</ele>
        <time>2021-09-12T08:06:31.807Z</time>
      </trkpt>
      <trkpt lat="45.88349" lon="5.83586">
        <ele>242</ele>
        <time>2021-09-12T08:06:32.807Z</time>
      </trkpt>
      <trkpt lat="45.88344" lon="5.83585">
        <ele>242</ele>
        <time>2021-09-12T08:06:33.807Z</time>
      </trkpt>
      <trkpt lat="45.88338" lon="5.83584">
        <ele>242</ele>
        <time>2021-09-12T08:06:34.807Z</time>
      </trkpt>
      <trkpt lat="45.88334" lon="5.83581">
        <ele>242</ele>
        <time>2021-09-12T08:06:35.807Z</time>
      </trkpt>
      <trkpt lat="45.8833" lon="5.83577">
        <ele>241</ele>
        <time>2021-09-12T08:06:36.807Z</time>
      </trkpt>
      <trkpt lat="45.88325" lon="5.83573">
        <ele>241</ele>
        <time>2021-09-12T08:06:37.807Z</time>
      </trkpt>
      <trkpt lat="45.88321" lon="5.83568">
        <ele>241</ele>
        <time>2021-09-12T08:06:38.807Z</time>
      </trkpt>
      <trkpt lat="45.88317" lon="5.83563">
        <ele>241</ele>
        <time>2021-09-12T08:06:39.806Z</time>
      </trkpt>
      <trkpt lat="45.88314" lon="5.83558">
        <ele>241</ele>
        <time>2021-09-12T08:06:40.807Z</time>
      </trkpt>
      <trkpt lat="45.88311" lon="5.83553">
        <ele>241</ele>
        <time>2021-09-12T08:06:41.807Z</time>
      </trkpt>
      <trkpt lat="45.88309" lon="5.83547">
        <ele>241</ele>
        <time>2021-09-12T08:06:42.807Z</time>
      </trkpt>
      <trkpt lat="45.88307" lon="5.83541">
        <ele>242</ele>
        <time>2021-09-12T08:06:43.806Z</time>
      </trkpt>
      <trkpt lat="45.88305" lon="5.83535">
        <ele>241</ele>
        <time>2021-09-12T08:06:44.806Z</time>
      </trkpt>
      <trkpt lat="45.88302" lon="5.83528">
        <ele>241</ele>
        <time>2021-09-12T08:06:45.807Z</time>
      </trkpt>
      <trkpt lat="45.88299" lon="5.83522">
        <ele>242</ele>
        <time>2021-09-12T08:06:46.807Z</time>
      </trkpt>
      <trkpt lat="45.88296" lon="5.83515">
        <ele>242</ele>
        <time>2021-09-12T08:06:47.807Z</time>
      </trkpt>
      <trkpt lat="45.88293" lon="5.83508">
        <ele>242</ele>
        <time>2021-09-12T08:06:48.806Z</time>
      </trkpt>
      <trkpt lat="45.8829" lon="5.83501">
        <ele>242</ele>
        <time>2021-09-12T08:06:49.807Z</time>
      </trkpt>
      <trkpt lat="45.88287" lon="5.83495">
        <ele>241</ele>
        <time>2021-09-12T08:06:50.807Z</time>
      </trkpt>
      <trkpt lat="45.88283" lon="5.8349">
        <ele>241</ele>
        <time>2021-09-12T08:06:51.807Z</time>
      </trkpt>
      <trkpt lat="45.88279" lon="5.83485">
        <ele>241</ele>
        <time>2021-09-12T08:06:52.807Z</time>
      </trkpt>
      <trkpt lat="45.88275" lon="5.83481">
        <ele>241</ele>
        <time>2021-09-12T08:06:53.806Z</time>
      </trkpt>
      <trkpt lat="45.8827" lon="5.83478">
        <ele>241</ele>
        <time>2021-09-12T08:06:54.807Z</time>
      </trkpt>
      <trkpt lat="45.88266" lon="5.83474">
        <ele>241</ele>
        <time>2021-09-12T08:06:55.806Z</time>
      </trkpt>
      <trkpt lat="45.88261" lon="5.83471">
        <ele>241</ele>
        <time>2021-09-12T08:06:56.807Z</time>
      </trkpt>
      <trkpt lat="45.88257" lon="5.83468">
        <ele>241</ele>
        <time>2021-09-12T08:06:57.807Z</time>
      </trkpt>
      <trkpt lat="45.88252" lon="5.83466">
        <ele>240</ele>
        <time>2021-09-12T08:06:58.807Z</time>
      </trkpt>
      <trkpt lat="45.88247" lon="5.83463">
        <ele>240</ele>
        <time>2021-09-12T08:06:59.807Z</time>
      </trkpt>
      <trkpt lat="45.88242" lon="5.83461">
        <ele>240</ele>
        <time>2021-09-12T08:07:00.807Z</time>
      </trkpt>
      <trkpt lat="45.88238" lon="5.83459">
        <ele>240</ele>
        <time>2021-09-12T08:07:01.807Z</time>
      </trkpt>
      <trkpt lat="45.88233" lon="5.83457">
        <ele>240</ele>
        <time>2021-09-12T08:07:02.806Z</time>
      </trkpt>
      <trkpt lat="45.88229" lon="5.83454">
        <ele>240</ele>
        <time>2021-09-12T08:07:03.807Z</time>
      </trkpt>
      <trkpt lat="45.88224" lon="5.83452">
        <ele>240</ele>
        <time>2021-09-12T08:07:04.807Z</time>
      </trkpt>
      <trkpt lat="45.8822" lon="5.8345">
        <ele>241</ele>
        <time>2021-09-12T08:07:05.806Z</time>
      </trkpt>
      <trkpt lat="45.88215" lon="5.83448">
        <ele>241</ele>
        <time>2021-09-12T08:07:06.806Z</time>
      </trkpt>
      <trkpt lat="45.88211" lon="5.83446">
        <ele>241</ele>
        <time>2021-09-12T08:07:07.807Z</time>
      </trkpt>
      <trkpt lat="45.88206" lon="5.83444">
        <ele>242</ele>
        <time>2021-09-12T08:07:08.807Z</time>
      </trkpt>
      <trkpt lat="45.88202" lon="5.83442">
        <ele>242</ele>
        <time>2021-09-12T08:07:09.807Z</time>
      </trkpt>
      <trkpt lat="45.88197" lon="5.8344">
        <ele>243</ele>
        <time>2021-09-12T08:07:10.807Z</time>
      </trkpt>
      <trkpt lat="45.88192" lon="5.83438">
        <ele>243</ele>
        <time>2021-09-12T08:07:11.807Z</time>
      </trkpt>
      <trkpt lat="45.88187" lon="5.83436">
        <ele>243</ele>
        <time>2021-09-12T08:07:12.807Z</time>
      </trkpt>
      <trkpt lat="45.88182" lon="5.83433">
        <ele>243</ele>
        <time>2021-09-12T08:07:13.807Z</time>
      </trkpt>
      <trkpt lat="45.88177" lon="5.83431">
        <ele>243</ele>
        <time>2021-09-12T08:07:14.807Z</time>
      </trkpt>
      <trkpt lat="45.88173" lon="5.83429">
        <ele>243</ele>
        <time>2021-09-12T08:07:15.807Z</time>
      </trkpt>
      <trkpt lat="45.88168" lon="5.83426">
        <ele>242</ele>
        <time>2021-09-12T08:07:16.806Z</time>
      </trkpt>
      <trkpt lat="45.88163" lon="5.83424">
        <ele>242</ele>
        <time>2021-09-12T08:07:17.806Z</time>
      </trkpt>
      <trkpt lat="45.88158" lon="5.83421">
        <ele>241</ele>
        <time>2021-09-12T08:07:18.806Z</time>
      </trkpt>
      <trkpt lat="45.88153" lon="5.83418">
        <ele>241</ele>
        <time>2021-09-12T08:07:19.807Z</time>
      </trkpt>
      <trkpt lat="45.88149" lon="5.83415">
        <ele>241</ele>
        <time>2021-09-12T08:07:20.807Z</time>
      </trkpt>
      <trkpt lat="45.88143" lon="5.83412">
        <ele>241</ele>
        <time>2021-09-12T08:07:21.807Z</time>
      </trkpt>
      <trkpt lat="45.88139" lon="5.8341">
        <ele>240</ele>
        <time>2021-09-12T08:07:22.807Z</time>
      </trkpt>
      <trkpt lat="45.88134" lon="5.83408">
        <ele>240</ele>
        <time>2021-09-12T08:07:23.806Z</time>
      </trkpt>
      <trkpt lat="45.88129" lon="5.83405">
        <ele>240</ele>
        <time>2021-09-12T08:07:24.807Z</time>
      </trkpt>
      <trkpt lat="45.88125" lon="5.83403">
        <ele>240</ele>
        <time>2021-09-12T08:07:25.806Z</time>
      </trkpt>
      <trkpt lat="45.8812" lon="5.83401">
        <ele>240</ele>
        <time>2021-09-12T08:07:26.807Z</time>
      </trkpt>
      <trkpt lat="45.88116" lon="5.83399">
        <ele>240</ele>
        <time>2021-09-12T08:07:27.807Z</time>
      </trkpt>
      <trkpt lat="45.88111" lon="5.83398">
        <ele>240</ele>
        <time>2021-09-12T08:07:28.806Z</time>
      </trkpt>
      <trkpt lat="45.88107" lon="5.83396">
        <ele>240</ele>
        <time>2021-09-12T08:07:29.807Z</time>
      </trkpt>
      <trkpt lat="45.88102" lon="5.83394">
        <ele>240</ele>
        <time>2021-09-12T08:07:30.807Z</time>
      </trkpt>
      <trkpt lat="45.88097" lon="5.83393">
        <ele>241</ele>
        <time>2021-09-12T08:07:31.807Z</time>
      </trkpt>
      <trkpt lat="45.88093" lon="5.83391">
        <ele>241</ele>
        <time>2021-09-12T08:07:32.807Z</time>
      </trkpt>
      <trkpt lat="45.88088" lon="5.83389">
        <ele>241</ele>
        <time>2021-09-12T08:07:33.806Z</time>
      </trkpt>
      <trkpt lat="45.88083" lon="5.83386">
        <ele>241</ele>
        <time>2021-09-12T08:07:34.807Z</time>
      </trkpt>
      <trkpt lat="45.88079" lon="5.83383">
        <ele>241</ele>
        <time>2021-09-12T08:07:35.807Z</time>
      </trkpt>
      <trkpt lat="45.88074" lon="5.8338">
        <ele>241</ele>
        <time>2021-09-12T08:07:36.807Z</time>
      </trkpt>
      <trkpt lat="45.8807" lon="5.83376">
        <ele>240</ele>
        <time>2021-09-12T08:07:37.807Z</time>
      </trkpt>
      <trkpt lat="45.88066" lon="5.83372">
        <ele>240</ele>
        <time>2021-09-12T08:07:38.806Z</time>
      </trkpt>
      <trkpt lat="45.88062" lon="5.83369">
        <ele>240</ele>
        <time>2021-09-12T08:07:39.806Z</time>
      </trkpt>
      <trkpt lat="45.88057" lon="5.83365">
        <ele>239</ele>
        <time>2021-09-12T08:07:40.807Z</time>
      </trkpt>
      <trkpt lat="45.88052" lon="5.83363">
        <ele>239</ele>
        <time>2021-09-12T08:07:41.806Z</time>
      </trkpt>
      <trkpt lat="45.88047" lon="5.83361">
        <ele>239</ele>
        <time>2021-09-12T08:07:42.807Z</time>
      </trkpt>
      <trkpt lat="45.88042" lon="5.8336">
        <ele>239</ele>
        <time>2021-09-12T08:07:43.807Z</time>
      </trkpt>
      <trkpt lat="45.88036" lon="5.8336">
        <ele>239</ele>
        <time>2021-09-12T08:07:44.807Z</time>
      </trkpt>
      <trkpt lat="45.88031" lon="5.83359">
        <ele>239</ele>
        <time>2021-09-12T08:07:45.806Z</time>
      </trkpt>
      <trkpt lat="45.88026" lon="5.83358">
        <ele>239</ele>
        <time>2021-09-12T08:07:46.807Z</time>
      </trkpt>
      <trkpt lat="45.88021" lon="5.83358">
        <ele>239</ele>
        <time>2021-09-12T08:07:47.806Z</time>
      </trkpt>
      <trkpt lat="45.88015" lon="5.83357">
        <ele>239</ele>
        <time>2021-09-12T08:07:48.807Z</time>
      </trkpt>
      <trkpt lat="45.8801" lon="5.83357">
        <ele>239</ele>
        <time>2021-09-12T08:07:49.807Z</time>
      </trkpt>
      <trkpt lat="45.88005" lon="5.83356">
        <ele>239</ele>
        <time>2021-09-12T08:07:50.807Z</time>
      </trkpt>
      <trkpt lat="45.88" lon="5.83356">
        <ele>239</ele>
        <time>2021-09-12T08:07:51.807Z</time>
      </trkpt>
      <trkpt lat="45.87995" lon="5.83356">
        <ele>239</ele>
        <time>2021-09-12T08:07:52.807Z</time>
      </trkpt>
      <trkpt lat="45.8799" lon="5.83356">
        <ele>239</ele>
        <time>2021-09-12T08:07:53.807Z</time>
      </trkpt>
      <trkpt lat="45.87984" lon="5.83355">
        <ele>239</ele>
        <time>2021-09-12T08:07:54.807Z</time>
      </trkpt>
      <trkpt lat="45.87979" lon="5.83355">
        <ele>239</ele>
        <time>2021-09-12T08:07:55.807Z</time>
      </trkpt>
      <trkpt lat="45.87974" lon="5.83355">
        <ele>239</ele>
        <time>2021-09-12T08:07:56.807Z</time>
      </trkpt>
      <trkpt lat="45.87969" lon="5.83354">
        <ele>239</ele>
        <time>2021-09-12T08:07:57.807Z</time>
      </trkpt>
      <trkpt lat="45.87963" lon="5.83354">
        <ele>239</ele>
        <time>2021-09-12T08:07:58.807Z</time>
      </trkpt>
      <trkpt lat="45.87958" lon="5.83354">
        <ele>239</ele>
        <time>2021-09-12T08:07:59.807Z</time>
      </trkpt>
      <trkpt lat="45.87953" lon="5.83353">
        <ele>239</ele>
        <time>2021-09-12T08:08:00.806Z</time>
      </trkpt>
      <trkpt lat="45.87947" lon="5.83353">
        <ele>239</ele>
        <time>2021-09-12T08:08:01.806Z</time>
      </trkpt>
      <trkpt lat="45.87942" lon="5.83353">
        <ele>239</ele>
        <time>2021-09-12T08:08:02.806Z</time>
      </trkpt>
      <trkpt lat="45.87937" lon="5.83353">
        <ele>238</ele>
        <time>2021-09-12T08:08:03.806Z</time>
      </trkpt>
      <trkpt lat="45.87931" lon="5.83353">
        <ele>238</ele>
        <time>2021-09-12T08:08:04.807Z</time>
      </trkpt>
      <trkpt lat="45.87926" lon="5.83353">
        <ele>238</ele>
        <time>2021-09-12T08:08:05.807Z</time>
      </trkpt>
      <trkpt lat="45.87921" lon="5.83353">
        <ele>237</ele>
        <time>2021-09-12T08:08:06.807Z</time>
      </trkpt>
      <trkpt lat="45.87915" lon="5.83353">
        <ele>237</ele>
        <time>2021-09-12T08:08:07.807Z</time>
      </trkpt>
      <trkpt lat="45.8791" lon="5.83354">
        <ele>237</ele>
        <time>2021-09-12T08:08:08.807Z</time>
      </trkpt>
      <trkpt lat="45.87904" lon="5.83354">
        <ele>237</ele>
        <time>2021-09-12T08:08:09.807Z</time>
      </trkpt>
      <trkpt lat="45.87899" lon="5.83353">
        <ele>238</ele>
        <time>2021-09-12T08:08:10.807Z</time>
      </trkpt>
      <trkpt lat="45.87893" lon="5.83353">
        <ele>238</ele>
        <time>2021-09-12T08:08:11.806Z</time>
      </trkpt>
      <trkpt lat="45.87888" lon="5.83353">
        <ele>238</ele>
        <time>2021-09-12T08:08:12.806Z</time>
      </trkpt>
      <trkpt lat="45.87882" lon="5.83352">
        <ele>238</ele>
        <time>2021-09-12T08:08:13.807Z</time>
      </trkpt>
      <trkpt lat="45.87878" lon="5.83351">
        <ele>238</ele>
        <time>2021-09-12T08:08:14.806Z</time>
      </trkpt>
      <trkpt lat="45.87873" lon="5.83348">
        <ele>238</ele>
        <time>2021-09-12T08:08:15.806Z</time>
      </trkpt>
      <trkpt lat="45.87869" lon="5.83345">
        <ele>238</ele>
        <time>2021-09-12T08:08:16.807Z</time>
      </trkpt>
      <trkpt lat="45.87866" lon="5.8334">
        <ele>238</ele>
        <time>2021-09-12T08:08:17.807Z</time>
      </trkpt>
      <trkpt lat="45.87863" lon="5.83335">
        <ele>238</ele>
        <time>2021-09-12T08:08:18.807Z</time>
      </trkpt>
      <trkpt lat="45.87861" lon="5.8333">
        <ele>238</ele>
        <time>2021-09-12T08:08:19.807Z</time>
      </trkpt>
      <trkpt lat="45.87859" lon="5.83325">
        <ele>238</ele>
        <time>2021-09-12T08:08:20.806Z</time>
      </trkpt>
      <trkpt lat="45.87858" lon="5.83319">
        <ele>239</ele>
        <time>2021-09-12T08:08:21.806Z</time>
      </trkpt>
      <trkpt lat="45.87856" lon="5.83313">
        <ele>239</ele>
        <time>2021-09-12T08:08:22.807Z</time>
      </trkpt>
      <trkpt lat="45.87855" lon="5.83307">
        <ele>239</ele>
        <time>2021-09-12T08:08:23.807Z</time>
      </trkpt>
      <trkpt lat="45.87854" lon="5.833">
        <ele>239</ele>
        <time>2021-09-12T08:08:24.806Z</time>
      </trkpt>
      <trkpt lat="45.87854" lon="5.83293">
        <ele>239</ele>
        <time>2021-09-12T08:08:25.807Z</time>
      </trkpt>
      <trkpt lat="45.87853" lon="5.83286">
        <ele>240</ele>
        <time>2021-09-12T08:08:26.806Z</time>
      </trkpt>
      <trkpt lat="45.87852" lon="5.83279">
        <ele>240</ele>
        <time>2021-09-12T08:08:27.807Z</time>
      </trkpt>
      <trkpt lat="45.87852" lon="5.83272">
        <ele>240</ele>
        <time>2021-09-12T08:08:28.807Z</time>
      </trkpt>
      <trkpt lat="45.87851" lon="5.83265">
        <ele>240</ele>
        <time>2021-09-12T08:08:29.807Z</time>
      </trkpt>
      <trkpt lat="45.87849" lon="5.83258">
        <ele>240</ele>
        <time>2021-09-12T08:08:30.806Z</time>
      </trkpt>
      <trkpt lat="45.87847" lon="5.83252">
        <ele>240</ele>
        <time>2021-09-12T08:08:31.806Z</time>
      </trkpt>
      <trkpt lat="45.87846" lon="5.83245">
        <ele>239</ele>
        <time>2021-09-12T08:08:32.806Z</time>
      </trkpt>
      <trkpt lat="45.87843" lon="5.83239">
        <ele>239</ele>
        <time>2021-09-12T08:08:33.806Z</time>
      </trkpt>
      <trkpt lat="45.87841" lon="5.83232">
        <ele>239</ele>
        <time>2021-09-12T08:08:34.807Z</time>
      </trkpt>
      <trkpt lat="45.87839" lon="5.83226">
        <ele>238</ele>
        <time>2021-09-12T08:08:35.807Z</time>
      </trkpt>
      <trkpt lat="45.87836" lon="5.83219">
        <ele>238</ele>
        <time>2021-09-12T08:08:36.806Z</time>
      </trkpt>
      <trkpt lat="45.87834" lon="5.83213">
        <ele>239</ele>
        <time>2021-09-12T08:08:37.807Z</time>
      </trkpt>
      <trkpt lat="45.87831" lon="5.83206">
        <ele>239</ele>
        <time>2021-09-12T08:08:38.807Z</time>
      </trkpt>
      <trkpt lat="45.87829" lon="5.832">
        <ele>239</ele>
        <time>2021-09-12T08:08:39.807Z</time>
      </trkpt>
      <trkpt lat="45.87826" lon="5.83194">
        <ele>239</ele>
        <time>2021-09-12T08:08:40.807Z</time>
      </trkpt>
      <trkpt lat="45.87824" lon="5.83187">
        <ele>239</ele>
        <time>2021-09-12T08:08:41.807Z</time>
      </trkpt>
      <trkpt lat="45.87822" lon="5.8318">
        <ele>239</ele>
        <time>2021-09-12T08:08:42.807Z</time>
      </trkpt>
      <trkpt lat="45.8782" lon="5.83174">
        <ele>239</ele>
        <time>2021-09-12T08:08:43.807Z</time>
      </trkpt>
      <trkpt lat="45.87819" lon="5.83167">
        <ele>239</ele>
        <time>2021-09-12T08:08:44.806Z</time>
      </trkpt>
      <trkpt lat="45.87818" lon="5.8316">
        <ele>239</ele>
        <time>2021-09-12T08:08:45.807Z</time>
      </trkpt>
      <trkpt lat="45.87817" lon="5.83153">
        <ele>239</ele>
        <time>2021-09-12T08:08:46.807Z</time>
      </trkpt>
      <trkpt lat="45.87816" lon="5.83146">
        <ele>239</ele>
        <time>2021-09-12T08:08:47.807Z</time>
      </trkpt>
      <trkpt lat="45.87817" lon="5.83139">
        <ele>239</ele>
        <time>2021-09-12T08:08:48.807Z</time>
      </trkpt>
      <trkpt lat="45.87817" lon="5.83132">
        <ele>239</ele>
        <time>2021-09-12T08:08:49.807Z</time>
      </trkpt>
      <trkpt lat="45.87818" lon="5.83124">
        <ele>239</ele>
        <time>2021-09-12T08:08:50.807Z</time>
      </trkpt>
      <trkpt lat="45.87819" lon="5.83118">
        <ele>239</ele>
        <time>2021-09-12T08:08:51.807Z</time>
      </trkpt>
      <trkpt lat="45.87821" lon="5.83111">
        <ele>239</ele>
        <time>2021-09-12T08:08:52.807Z</time>
      </trkpt>
      <trkpt lat="45.87823" lon="5.83104">
        <ele>239</ele>
        <time>2021-09-12T08:08:53.806Z</time>
      </trkpt>
      <trkpt lat="45.87826" lon="5.83098">
        <ele>239</ele>
        <time>2021-09-12T08:08:54.807Z</time>
      </trkpt>
      <trkpt lat="45.87829" lon="5.83091">
        <ele>239</ele>
        <time>2021-09-12T08:08:55.806Z</time>
      </trkpt>
      <trkpt lat="45.87833" lon="5.83085">
        <ele>239</ele>
        <time>2021-09-12T08:08:56.807Z</time>
      </trkpt>
      <trkpt lat="45.87837" lon="5.83079">
        <ele>239</ele>
        <time>2021-09-12T08:08:57.807Z</time>
      </trkpt>
      <trkpt lat="45.8784" lon="5.83073">
        <ele>239</ele>
        <time>2021-09-12T08:08:58.807Z</time>
      </trkpt>
      <trkpt lat="45.87844" lon="5.83068">
        <ele>239</ele>
        <time>2021-09-12T08:08:59.807Z</time>
      </trkpt>
      <trkpt lat="45.87848" lon="5.83062">
        <ele>238</ele>
        <time>2021-09-12T08:09:00.806Z</time>
      </trkpt>
      <trkpt lat="45.87852" lon="5.83056">
        <ele>238</ele>
        <time>2021-09-12T08:09:01.807Z</time>
      </trkpt>
      <trkpt lat="45.87856" lon="5.8305">
        <ele>237</ele>
        <time>2021-09-12T08:09:02.807Z</time>
      </trkpt>
      <trkpt lat="45.87859" lon="5.83045">
        <ele>237</ele>
        <time>2021-09-12T08:09:03.807Z</time>
      </trkpt>
      <trkpt lat="45.87863" lon="5.8304">
        <ele>236</ele>
        <time>2021-09-12T08:09:04.807Z</time>
      </trkpt>
      <trkpt lat="45.87867" lon="5.83035">
        <ele>236</ele>
        <time>2021-09-12T08:09:05.806Z</time>
      </trkpt>
      <trkpt lat="45.87871" lon="5.83029">
        <ele>236</ele>
        <time>2021-09-12T08:09:06.806Z</time>
      </trkpt>
      <trkpt lat="45.87874" lon="5.83024">
        <ele>236</ele>
        <time>2021-09-12T08:09:07.807Z</time>
      </trkpt>
      <trkpt lat="45.87877" lon="5.83018">
        <ele>236</ele>
        <time>2021-09-12T08:09:08.807Z</time>
      </trkpt>
      <trkpt lat="45.87879" lon="5.83011">
        <ele>236</ele>
        <time>2021-09-12T08:09:09.806Z</time>
      </trkpt>
      <trkpt lat="45.87881" lon="5.83004">
        <ele>237</ele>
        <time>2021-09-12T08:09:10.807Z</time>
      </trkpt>
      <trkpt lat="45.87882" lon="5.82997">
        <ele>237</ele>
        <time>2021-09-12T08:09:11.807Z</time>
      </trkpt>
      <trkpt lat="45.87883" lon="5.82989">
        <ele>237</ele>
        <time>2021-09-12T08:09:12.807Z</time>
      </trkpt>
      <trkpt lat="45.87883" lon="5.82981">
        <ele>237</ele>
        <time>2021-09-12T08:09:13.806Z</time>
      </trkpt>
      <trkpt lat="45.87882" lon="5.82973">
        <ele>237</ele>
        <time>2021-09-12T08:09:14.807Z</time>
      </trkpt>
      <trkpt lat="45.87882" lon="5.82965">
        <ele>238</ele>
        <time>2021-09-12T08:09:15.806Z</time>
      </trkpt>
      <trkpt lat="45.87882" lon="5.82957">
        <ele>238</ele>
        <time>2021-09-12T08:09:16.807Z</time>
      </trkpt>
      <trkpt lat="45.87882" lon="5.82948">
        <ele>238</ele>
        <time>2021-09-12T08:09:17.807Z</time>
      </trkpt>
      <trkpt lat="45.87882" lon="5.8294">
        <ele>238</ele>
        <time>2021-09-12T08:09:18.806Z</time>
      </trkpt>
      <trkpt lat="45.87882" lon="5.82933">
        <ele>238</ele>
        <time>2021-09-12T08:09:19.806Z</time>
      </trkpt>
      <trkpt lat="45.87882" lon="5.82927">
        <ele>238</ele>
        <time>2021-09-12T08:09:20.807Z</time>
      </trkpt>
      <trkpt lat="45.87882" lon="5.8292">
        <ele>237</ele>
        <time>2021-09-12T08:09:21.807Z</time>
      </trkpt>
      <trkpt lat="45.87883" lon="5.82911">
        <ele>237</ele>
        <time>2021-09-12T08:09:22.806Z</time>
      </trkpt>
      <trkpt lat="45.87883" lon="5.82904">
        <ele>236</ele>
        <time>2021-09-12T08:09:23.807Z</time>
      </trkpt>
      <trkpt lat="45.87882" lon="5.82898">
        <ele>236</ele>
        <time>2021-09-12T08:09:24.806Z</time>
      </trkpt>
      <trkpt lat="45.87882" lon="5.82892">
        <ele>236</ele>
        <time>2021-09-12T08:09:25.807Z</time>
      </trkpt>
      <trkpt lat="45.87881" lon="5.82885">
        <ele>236</ele>
        <time>2021-09-12T08:09:26.807Z</time>
      </trkpt>
      <trkpt lat="45.87881" lon="5.82879">
        <ele>236</ele>
        <time>2021-09-12T08:09:27.807Z</time>
      </trkpt>
      <trkpt lat="45.87881" lon="5.82874">
        <ele>235</ele>
        <time>2021-09-12T08:09:28.807Z</time>
      </trkpt>
      <trkpt lat="45.87881" lon="5.8287">
        <ele>235</ele>
        <time>2021-09-12T08:09:29.807Z</time>
      </trkpt>
      <trkpt lat="45.8788" lon="5.82863">
        <ele>235</ele>
        <time>2021-09-12T08:09:30.806Z</time>
      </trkpt>
      <trkpt lat="45.8788" lon="5.82857">
        <ele>235</ele>
        <time>2021-09-12T08:09:31.807Z</time>
      </trkpt>
      <trkpt lat="45.87879" lon="5.8285">
        <ele>235</ele>
        <time>2021-09-12T08:09:32.807Z</time>
      </trkpt>
      <trkpt lat="45.87879" lon="5.82845">
        <ele>235</ele>
        <time>2021-09-12T08:09:33.806Z</time>
      </trkpt>
      <trkpt lat="45.87878" lon="5.82838">
        <ele>236</ele>
        <time>2021-09-12T08:09:34.806Z</time>
      </trkpt>
      <trkpt lat="45.87877" lon="5.8283">
        <ele>236</ele>
        <time>2021-09-12T08:09:35.807Z</time>
      </trkpt>
      <trkpt lat="45.87876" lon="5.82823">
        <ele>237</ele>
        <time>2021-09-12T08:09:36.807Z</time>
      </trkpt>
      <trkpt lat="45.87876" lon="5.82817">
        <ele>237</ele>
        <time>2021-09-12T08:09:37.807Z</time>
      </trkpt>
      <trkpt lat="45.87875" lon="5.8281">
        <ele>237</ele>
        <time>2021-09-12T08:09:38.807Z</time>
      </trkpt>
      <trkpt lat="45.87874" lon="5.82801">
        <ele>237</ele>
        <time>2021-09-12T08:09:39.806Z</time>
      </trkpt>
      <trkpt lat="45.87874" lon="5.82794">
        <ele>237</ele>
        <time>2021-09-12T08:09:40.806Z</time>
      </trkpt>
      <trkpt lat="45.87874" lon="5.82787">
        <ele>237</ele>
        <time>2021-09-12T08:09:41.806Z</time>
      </trkpt>
      <trkpt lat="45.87874" lon="5.8278">
        <ele>237</ele>
        <time>2021-09-12T08:09:42.806Z</time>
      </trkpt>
      <trkpt lat="45.87874" lon="5.82775">
        <ele>237</ele>
        <time>2021-09-12T08:09:43.807Z</time>
      </trkpt>
      <trkpt lat="45.87873" lon="5.82767">
        <ele>237</ele>
        <time>2021-09-12T08:09:44.807Z</time>
      </trkpt>
      <trkpt lat="45.87873" lon="5.8276">
        <ele>236</ele>
        <time>2021-09-12T08:09:45.807Z</time>
      </trkpt>
      <trkpt lat="45.87873" lon="5.82753">
        <ele>236</ele>
        <time>2021-09-12T08:09:46.807Z</time>
      </trkpt>
      <trkpt lat="45.87872" lon="5.82748">
        <ele>236</ele>
        <time>2021-09-12T08:09:47.807Z</time>
      </trkpt>
      <trkpt lat="45.87871" lon="5.82739">
        <ele>235</ele>
        <time>2021-09-12T08:09:48.807Z</time>
      </trkpt>
      <trkpt lat="45.87871" lon="5.82732">
        <ele>235</ele>
        <time>2021-09-12T08:09:49.807Z</time>
      </trkpt>
      <trkpt lat="45.8787" lon="5.82725">
        <ele>236</ele>
        <time>2021-09-12T08:09:50.807Z</time>
      </trkpt>
      <trkpt lat="45.87869" lon="5.82718">
        <ele>235</ele>
        <time>2021-09-12T08:09:51.807Z</time>
      </trkpt>
      <trkpt lat="45.87869" lon="5.82712">
        <ele>235</ele>
        <time>2021-09-12T08:09:52.807Z</time>
      </trkpt>
      <trkpt lat="45.87868" lon="5.82704">
        <ele>235</ele>
        <time>2021-09-12T08:09:53.806Z</time>
      </trkpt>
      <trkpt lat="45.87867" lon="5.82696">
        <ele>235</ele>
        <time>2021-09-12T08:09:54.807Z</time>
      </trkpt>
      <trkpt lat="45.87866" lon="5.82689">
        <ele>235</ele>
        <time>2021-09-12T08:09:55.807Z</time>
      </trkpt>
      <trkpt lat="45.87865" lon="5.82682">
        <ele>235</ele>
        <time>2021-09-12T08:09:56.807Z</time>
      </trkpt>
      <trkpt lat="45.87864" lon="5.82675">
        <ele>235</ele>
        <time>2021-09-12T08:09:57.807Z</time>
      </trkpt>
      <trkpt lat="45.87863" lon="5.82668">
        <ele>235</ele>
        <time>2021-09-12T08:09:58.807Z</time>
      </trkpt>
      <trkpt lat="45.87862" lon="5.82661">
        <ele>235</ele>
        <time>2021-09-12T08:09:59.807Z</time>
      </trkpt>
      <trkpt lat="45.87861" lon="5.82655">
        <ele>235</ele>
        <time>2021-09-12T08:10:00.807Z</time>
      </trkpt>
      <trkpt lat="45.87861" lon="5.82646">
        <ele>235</ele>
        <time>2021-09-12T08:10:01.807Z</time>
      </trkpt>
      <trkpt lat="45.8786" lon="5.82638">
        <ele>235</ele>
        <time>2021-09-12T08:10:02.806Z</time>
      </trkpt>
      <trkpt lat="45.8786" lon="5.8263">
        <ele>235</ele>
        <time>2021-09-12T08:10:03.807Z</time>
      </trkpt>
      <trkpt lat="45.87859" lon="5.82622">
        <ele>235</ele>
        <time>2021-09-12T08:10:04.806Z</time>
      </trkpt>
      <trkpt lat="45.87859" lon="5.82616">
        <ele>235</ele>
        <time>2021-09-12T08:10:05.807Z</time>
      </trkpt>
      <trkpt lat="45.87858" lon="5.82607">
        <ele>234</ele>
        <time>2021-09-12T08:10:06.807Z</time>
      </trkpt>
      <trkpt lat="45.87857" lon="5.826">
        <ele>234</ele>
        <time>2021-09-12T08:10:07.807Z</time>
      </trkpt>
      <trkpt lat="45.87856" lon="5.82592">
        <ele>234</ele>
        <time>2021-09-12T08:10:08.807Z</time>
      </trkpt>
      <trkpt lat="45.87854" lon="5.82586">
        <ele>234</ele>
        <time>2021-09-12T08:10:09.806Z</time>
      </trkpt>
      <trkpt lat="45.87852" lon="5.82578">
        <ele>234</ele>
        <time>2021-09-12T08:10:10.807Z</time>
      </trkpt>
      <trkpt lat="45.8785" lon="5.8257">
        <ele>234</ele>
        <time>2021-09-12T08:10:11.807Z</time>
      </trkpt>
      <trkpt lat="45.87847" lon="5.82564">
        <ele>233</ele>
        <time>2021-09-12T08:10:12.807Z</time>
      </trkpt>
      <trkpt lat="45.87845" lon="5.82559">
        <ele>233</ele>
        <time>2021-09-12T08:10:13.807Z</time>
      </trkpt>
      <trkpt lat="45.87841" lon="5.82552">
        <ele>234</ele>
        <time>2021-09-12T08:10:14.807Z</time>
      </trkpt>
      <trkpt lat="45.87837" lon="5.82547">
        <ele>234</ele>
        <time>2021-09-12T08:10:15.807Z</time>
      </trkpt>
      <trkpt lat="45.87832" lon="5.82543">
        <ele>234</ele>
        <time>2021-09-12T08:10:16.807Z</time>
      </trkpt>
      <trkpt lat="45.87828" lon="5.82539">
        <ele>234</ele>
        <time>2021-09-12T08:10:17.806Z</time>
      </trkpt>
      <trkpt lat="45.87824" lon="5.82536">
        <ele>234</ele>
        <time>2021-09-12T08:10:18.806Z</time>
      </trkpt>
      <trkpt lat="45.8782" lon="5.82531">
        <ele>234</ele>
        <time>2021-09-12T08:10:19.807Z</time>
      </trkpt>
      <trkpt lat="45.87814" lon="5.82526">
        <ele>234</ele>
        <time>2021-09-12T08:10:20.807Z</time>
      </trkpt>
      <trkpt lat="45.87809" lon="5.82522">
        <ele>235</ele>
        <time>2021-09-12T08:10:21.807Z</time>
      </trkpt>
      <trkpt lat="45.87805" lon="5.82517">
        <ele>235</ele>
        <time>2021-09-12T08:10:22.807Z</time>
      </trkpt>
      <trkpt lat="45.87801" lon="5.82513">
        <ele>235</ele>
        <time>2021-09-12T08:10:23.806Z</time>
      </trkpt>
      <trkpt lat="45.87797" lon="5.82508">
        <ele>235</ele>
        <time>2021-09-12T08:10:24.806Z</time>
      </trkpt>
      <trkpt lat="45.87794" lon="5.82501">
        <ele>235</ele>
        <time>2021-09-12T08:10:25.807Z</time>
      </trkpt>
      <trkpt lat="45.87791" lon="5.82495">
        <ele>235</ele>
        <time>2021-09-12T08:10:26.806Z</time>
      </trkpt>
      <trkpt lat="45.87787" lon="5.82488">
        <ele>235</ele>
        <time>2021-09-12T08:10:27.807Z</time>
      </trkpt>
      <trkpt lat="45.87784" lon="5.82482">
        <ele>235</ele>
        <time>2021-09-12T08:10:28.807Z</time>
      </trkpt>
      <trkpt lat="45.87781" lon="5.82475">
        <ele>235</ele>
        <time>2021-09-12T08:10:29.807Z</time>
      </trkpt>
      <trkpt lat="45.87778" lon="5.82469">
        <ele>235</ele>
        <time>2021-09-12T08:10:30.807Z</time>
      </trkpt>
      <trkpt lat="45.87775" lon="5.82463">
        <ele>235</ele>
        <time>2021-09-12T08:10:31.807Z</time>
      </trkpt>
      <trkpt lat="45.87771" lon="5.82457">
        <ele>235</ele>
        <time>2021-09-12T08:10:32.807Z</time>
      </trkpt>
      <trkpt lat="45.87768" lon="5.82452">
        <ele>236</ele>
        <time>2021-09-12T08:10:33.807Z</time>
      </trkpt>
      <trkpt lat="45.87763" lon="5.82446">
        <ele>236</ele>
        <time>2021-09-12T08:10:34.807Z</time>
      </trkpt>
      <trkpt lat="45.87759" lon="5.82441">
        <ele>237</ele>
        <time>2021-09-12T08:10:35.807Z</time>
      </trkpt>
      <trkpt lat="45.87755" lon="5.82436">
        <ele>237</ele>
        <time>2021-09-12T08:10:36.807Z</time>
      </trkpt>
      <trkpt lat="45.87751" lon="5.82431">
        <ele>237</ele>
        <time>2021-09-12T08:10:37.807Z</time>
      </trkpt>
      <trkpt lat="45.87748" lon="5.82428">
        <ele>238</ele>
        <time>2021-09-12T08:10:38.807Z</time>
      </trkpt>
      <trkpt lat="45.87743" lon="5.82424">
        <ele>238</ele>
        <time>2021-09-12T08:10:39.807Z</time>
      </trkpt>
      <trkpt lat="45.87739" lon="5.8242">
        <ele>237</ele>
        <time>2021-09-12T08:10:40.806Z</time>
      </trkpt>
      <trkpt lat="45.87734" lon="5.82417">
        <ele>237</ele>
        <time>2021-09-12T08:10:41.807Z</time>
      </trkpt>
      <trkpt lat="45.87729" lon="5.82414">
        <ele>237</ele>
        <time>2021-09-12T08:10:42.807Z</time>
      </trkpt>
      <trkpt lat="45.87724" lon="5.82411">
        <ele>237</ele>
        <time>2021-09-12T08:10:43.807Z</time>
      </trkpt>
      <trkpt lat="45.87719" lon="5.82408">
        <ele>237</ele>
        <time>2021-09-12T08:10:44.807Z</time>
      </trkpt>
      <trkpt lat="45.87714" lon="5.82406">
        <ele>237</ele>
        <time>2021-09-12T08:10:45.806Z</time>
      </trkpt>
      <trkpt lat="45.87709" lon="5.82403">
        <ele>237</ele>
        <time>2021-09-12T08:10:46.807Z</time>
      </trkpt>
      <trkpt lat="45.87704" lon="5.82401">
        <ele>237</ele>
        <time>2021-09-12T08:10:47.807Z</time>
      </trkpt>
      <trkpt lat="45.87699" lon="5.82399">
        <ele>237</ele>
        <time>2021-09-12T08:10:48.807Z</time>
      </trkpt>
      <trkpt lat="45.87694" lon="5.82397">
        <ele>237</ele>
        <time>2021-09-12T08:10:49.807Z</time>
      </trkpt>
      <trkpt lat="45.87688" lon="5.82395">
        <ele>237</ele>
        <time>2021-09-12T08:10:50.806Z</time>
      </trkpt>
      <trkpt lat="45.87683" lon="5.82394">
        <ele>237</ele>
        <time>2021-09-12T08:10:51.807Z</time>
      </trkpt>
      <trkpt lat="45.87678" lon="5.82392">
        <ele>238</ele>
        <time>2021-09-12T08:10:52.807Z</time>
      </trkpt>
      <trkpt lat="45.87673" lon="5.82391">
        <ele>238</ele>
        <time>2021-09-12T08:10:53.807Z</time>
      </trkpt>
      <trkpt lat="45.87668" lon="5.8239">
        <ele>238</ele>
        <time>2021-09-12T08:10:54.807Z</time>
      </trkpt>
      <trkpt lat="45.87662" lon="5.82388">
        <ele>238</ele>
        <time>2021-09-12T08:10:55.807Z</time>
      </trkpt>
      <trkpt lat="45.87657" lon="5.82387">
        <ele>238</ele>
        <time>2021-09-12T08:10:56.807Z</time>
      </trkpt>
      <trkpt lat="45.87652" lon="5.82386">
        <ele>239</ele>
        <time>2021-09-12T08:10:57.807Z</time>
      </trkpt>
      <trkpt lat="45.87647" lon="5.82384">
        <ele>239</ele>
        <time>2021-09-12T08:10:58.806Z</time>
      </trkpt>
      <trkpt lat="45.87642" lon="5.82383">
        <ele>239</ele>
        <time>2021-09-12T08:10:59.806Z</time>
      </trkpt>
      <trkpt lat="45.87638" lon="5.82382">
        <ele>240</ele>
        <time>2021-09-12T08:11:00.807Z</time>
      </trkpt>
      <trkpt lat="45.87634" lon="5.82382">
        <ele>240</ele>
        <time>2021-09-12T08:11:01.807Z</time>
      </trkpt>
      <trkpt lat="45.87629" lon="5.82382">
        <ele>241</ele>
        <time>2021-09-12T08:11:02.807Z</time>
      </trkpt>
      <trkpt lat="45.87625" lon="5.82384">
        <ele>241</ele>
        <time>2021-09-12T08:11:03.807Z</time>
      </trkpt>
      <trkpt lat="45.87621" lon="5.82386">
        <ele>242</ele>
        <time>2021-09-12T08:11:04.807Z</time>
      </trkpt>
      <trkpt lat="45.87616" lon="5.82387">
        <ele>242</ele>
        <time>2021-09-12T08:11:05.807Z</time>
      </trkpt>
      <trkpt lat="45.87611" lon="5.82391">
        <ele>243</ele>
        <time>2021-09-12T08:11:06.807Z</time>
      </trkpt>
      <trkpt lat="45.87607" lon="5.82392">
        <ele>243</ele>
        <time>2021-09-12T08:11:07.806Z</time>
      </trkpt>
      <trkpt lat="45.87602" lon="5.82393">
        <ele>243</ele>
        <time>2021-09-12T08:11:08.807Z</time>
      </trkpt>
      <trkpt lat="45.87597" lon="5.82394">
        <ele>244</ele>
        <time>2021-09-12T08:11:09.807Z</time>
      </trkpt>
      <trkpt lat="45.87592" lon="5.82395">
        <ele>244</ele>
        <time>2021-09-12T08:11:10.807Z</time>
      </trkpt>
      <trkpt lat="45.87587" lon="5.82395">
        <ele>244</ele>
        <time>2021-09-12T08:11:11.807Z</time>
      </trkpt>
      <trkpt lat="45.87581" lon="5.82395">
        <ele>244</ele>
        <time>2021-09-12T08:11:12.807Z</time>
      </trkpt>
      <trkpt lat="45.87576" lon="5.82395">
        <ele>245</ele>
        <time>2021-09-12T08:11:13.806Z</time>
      </trkpt>
      <trkpt lat="45.87571" lon="5.82394">
        <ele>245</ele>
        <time>2021-09-12T08:11:14.807Z</time>
      </trkpt>
      <trkpt lat="45.87566" lon="5.82392">
        <ele>245</ele>
        <time>2021-09-12T08:11:15.807Z</time>
      </trkpt>
      <trkpt lat="45.87561" lon="5.82388">
        <ele>244</ele>
        <time>2021-09-12T08:11:16.807Z</time>
      </trkpt>
      <trkpt lat="45.87556" lon="5.82385">
        <ele>244</ele>
        <time>2021-09-12T08:11:17.807Z</time>
      </trkpt>
      <trkpt lat="45.87553" lon="5.82381">
        <ele>244</ele>
        <time>2021-09-12T08:11:18.806Z</time>
      </trkpt>
      <trkpt lat="45.87549" lon="5.82376">
        <ele>243</ele>
        <time>2021-09-12T08:11:19.806Z</time>
      </trkpt>
      <trkpt lat="45.87545" lon="5.82372">
        <ele>243</ele>
        <time>2021-09-12T08:11:20.806Z</time>
      </trkpt>
      <trkpt lat="45.87541" lon="5.82367">
        <ele>243</ele>
        <time>2021-09-12T08:11:21.807Z</time>
      </trkpt>
      <trkpt lat="45.87537" lon="5.82363">
        <ele>242</ele>
        <time>2021-09-12T08:11:22.807Z</time>
      </trkpt>
      <trkpt lat="45.87533" lon="5.8236">
        <ele>242</ele>
        <time>2021-09-12T08:11:23.807Z</time>
      </trkpt>
      <trkpt lat="45.87529" lon="5.82357">
        <ele>242</ele>
        <time>2021-09-12T08:11:24.807Z</time>
      </trkpt>
      <trkpt lat="45.87524" lon="5.82354">
        <ele>242</ele>
        <time>2021-09-12T08:11:25.806Z</time>
      </trkpt>
      <trkpt lat="45.87519" lon="5.82353">
        <ele>242</ele>
        <time>2021-09-12T08:11:26.807Z</time>
      </trkpt>
      <trkpt lat="45.87514" lon="5.82352">
        <ele>242</ele>
        <time>2021-09-12T08:11:27.807Z</time>
      </trkpt>
      <trkpt lat="45.87509" lon="5.82351">
        <ele>243</ele>
        <time>2021-09-12T08:11:28.806Z</time>
      </trkpt>
      <trkpt lat="45.87504" lon="5.82352">
        <ele>243</ele>
        <time>2021-09-12T08:11:29.806Z</time>
      </trkpt>
      <trkpt lat="45.87499" lon="5.82353">
        <ele>243</ele>
        <time>2021-09-12T08:11:30.806Z</time>
      </trkpt>
      <trkpt lat="45.87494" lon="5.82355">
        <ele>244</ele>
        <time>2021-09-12T08:11:31.807Z</time>
      </trkpt>
      <trkpt lat="45.8749" lon="5.82357">
        <ele>244</ele>
        <time>2021-09-12T08:11:32.807Z</time>
      </trkpt>
      <trkpt lat="45.87485" lon="5.82359">
        <ele>244</ele>
        <time>2021-09-12T08:11:33.807Z</time>
      </trkpt>
      <trkpt lat="45.8748" lon="5.82363">
        <ele>244</ele>
        <time>2021-09-12T08:11:34.806Z</time>
      </trkpt>
      <trkpt lat="45.87476" lon="5.82366">
        <ele>244</ele>
        <time>2021-09-12T08:11:35.807Z</time>
      </trkpt>
      <trkpt lat="45.87471" lon="5.82369">
        <ele>244</ele>
        <time>2021-09-12T08:11:36.806Z</time>
      </trkpt>
      <trkpt lat="45.87466" lon="5.82372">
        <ele>244</ele>
        <time>2021-09-12T08:11:37.807Z</time>
      </trkpt>
      <trkpt lat="45.87462" lon="5.82374">
        <ele>244</ele>
        <time>2021-09-12T08:11:38.806Z</time>
      </trkpt>
      <trkpt lat="45.87457" lon="5.82375">
        <ele>244</ele>
        <time>2021-09-12T08:11:39.806Z</time>
      </trkpt>
      <trkpt lat="45.87452" lon="5.82375">
        <ele>244</ele>
        <time>2021-09-12T08:11:40.807Z</time>
      </trkpt>
      <trkpt lat="45.87448" lon="5.82374">
        <ele>244</ele>
        <time>2021-09-12T08:11:41.807Z</time>
      </trkpt>
      <trkpt lat="45.87444" lon="5.82373">
        <ele>244</ele>
        <time>2021-09-12T08:11:42.806Z</time>
      </trkpt>
      <trkpt lat="45.8744" lon="5.82371">
        <ele>244</ele>
        <time>2021-09-12T08:11:43.807Z</time>
      </trkpt>
      <trkpt lat="45.87436" lon="5.82368">
        <ele>244</ele>
        <time>2021-09-12T08:11:44.806Z</time>
      </trkpt>
      <trkpt lat="45.87432" lon="5.82364">
        <ele>244</ele>
        <time>2021-09-12T08:11:45.807Z</time>
      </trkpt>
      <trkpt lat="45.87428" lon="5.82359">
        <ele>244</ele>
        <time>2021-09-12T08:11:46.806Z</time>
      </trkpt>
      <trkpt lat="45.87425" lon="5.82354">
        <ele>243</ele>
        <time>2021-09-12T08:11:47.807Z</time>
      </trkpt>
      <trkpt lat="45.87422" lon="5.82348">
        <ele>243</ele>
        <time>2021-09-12T08:11:48.807Z</time>
      </trkpt>
      <trkpt lat="45.8742" lon="5.82342">
        <ele>243</ele>
        <time>2021-09-12T08:11:49.807Z</time>
      </trkpt>
      <trkpt lat="45.87418" lon="5.82336">
        <ele>243</ele>
        <time>2021-09-12T08:11:50.807Z</time>
      </trkpt>
      <trkpt lat="45.87415" lon="5.8233">
        <ele>243</ele>
        <time>2021-09-12T08:11:51.807Z</time>
      </trkpt>
      <trkpt lat="45.87412" lon="5.82325">
        <ele>243</ele>
        <time>2021-09-12T08:11:52.806Z</time>
      </trkpt>
      <trkpt lat="45.8741" lon="5.82319">
        <ele>244</ele>
        <time>2021-09-12T08:11:53.806Z</time>
      </trkpt>
      <trkpt lat="45.87407" lon="5.82314">
        <ele>244</ele>
        <time>2021-09-12T08:11:54.806Z</time>
      </trkpt>
      <trkpt lat="45.87404" lon="5.82308">
        <ele>244</ele>
        <time>2021-09-12T08:11:55.807Z</time>
      </trkpt>
      <trkpt lat="45.87401" lon="5.82303">
        <ele>243</ele>
        <time>2021-09-12T08:11:56.806Z</time>
      </trkpt>
      <trkpt lat="45.87398" lon="5.82298">
        <ele>243</ele>
        <time>2021-09-12T08:11:57.806Z</time>
      </trkpt>
      <trkpt lat="45.87395" lon="5.82292">
        <ele>243</ele>
        <time>2021-09-12T08:11:58.807Z</time>
      </trkpt>
      <trkpt lat="45.87392" lon="5.82287">
        <ele>243</ele>
        <time>2021-09-12T08:11:59.807Z</time>
      </trkpt>
      <trkpt lat="45.87389" lon="5.82282">
        <ele>242</ele>
        <time>2021-09-12T08:12:00.806Z</time>
      </trkpt>
      <trkpt lat="45.87386" lon="5.82277">
        <ele>242</ele>
        <time>2021-09-12T08:12:01.806Z</time>
      </trkpt>
      <trkpt lat="45.87383" lon="5.82272">
        <ele>241</ele>
        <time>2021-09-12T08:12:02.807Z</time>
      </trkpt>
      <trkpt lat="45.8738" lon="5.82268">
        <ele>241</ele>
        <time>2021-09-12T08:12:03.807Z</time>
      </trkpt>
      <trkpt lat="45.87376" lon="5.82263">
        <ele>240</ele>
        <time>2021-09-12T08:12:04.807Z</time>
      </trkpt>
      <trkpt lat="45.87372" lon="5.82258">
        <ele>240</ele>
        <time>2021-09-12T08:12:05.807Z</time>
      </trkpt>
      <trkpt lat="45.87369" lon="5.82253">
        <ele>239</ele>
        <time>2021-09-12T08:12:06.807Z</time>
      </trkpt>
      <trkpt lat="45.87366" lon="5.82248">
        <ele>239</ele>
        <time>2021-09-12T08:12:07.807Z</time>
      </trkpt>
      <trkpt lat="45.87362" lon="5.82243">
        <ele>239</ele>
        <time>2021-09-12T08:12:08.807Z</time>
      </trkpt>
      <trkpt lat="45.8736" lon="5.82239">
        <ele>239</ele>
        <time>2021-09-12T08:12:09.806Z</time>
      </trkpt>
      <trkpt lat="45.87356" lon="5.82234">
        <ele>239</ele>
        <time>2021-09-12T08:12:10.807Z</time>
      </trkpt>
      <trkpt lat="45.87352" lon="5.82229">
        <ele>239</ele>
        <time>2021-09-12T08:12:11.807Z</time>
      </trkpt>
      <trkpt lat="45.87349" lon="5.82224">
        <ele>239</ele>
        <time>2021-09-12T08:12:12.806Z</time>
      </trkpt>
      <trkpt lat="45.87345" lon="5.8222">
        <ele>238</ele>
        <time>2021-09-12T08:12:13.806Z</time>
      </trkpt>
      <trkpt lat="45.87342" lon="5.82215">
        <ele>238</ele>
        <time>2021-09-12T08:12:14.806Z</time>
      </trkpt>
      <trkpt lat="45.87339" lon="5.8221">
        <ele>239</ele>
        <time>2021-09-12T08:12:15.807Z</time>
      </trkpt>
      <trkpt lat="45.87335" lon="5.82205">
        <ele>239</ele>
        <time>2021-09-12T08:12:16.807Z</time>
      </trkpt>
      <trkpt lat="45.87332" lon="5.822">
        <ele>239</ele>
        <time>2021-09-12T08:12:17.807Z</time>
      </trkpt>
      <trkpt lat="45.87328" lon="5.82194">
        <ele>239</ele>
        <time>2021-09-12T08:12:18.807Z</time>
      </trkpt>
      <trkpt lat="45.87325" lon="5.82189">
        <ele>239</ele>
        <time>2021-09-12T08:12:19.806Z</time>
      </trkpt>
      <trkpt lat="45.87322" lon="5.82184">
        <ele>240</ele>
        <time>2021-09-12T08:12:20.807Z</time>
      </trkpt>
      <trkpt lat="45.87318" lon="5.82179">
        <ele>240</ele>
        <time>2021-09-12T08:12:21.806Z</time>
      </trkpt>
      <trkpt lat="45.87315" lon="5.82175">
        <ele>241</ele>
        <time>2021-09-12T08:12:22.807Z</time>
      </trkpt>
      <trkpt lat="45.87312" lon="5.82171">
        <ele>241</ele>
        <time>2021-09-12T08:12:23.807Z</time>
      </trkpt>
      <trkpt lat="45.87308" lon="5.82168">
        <ele>242</ele>
        <time>2021-09-12T08:12:24.807Z</time>
      </trkpt>
      <trkpt lat="45.87304" lon="5.82165">
        <ele>242</ele>
        <time>2021-09-12T08:12:25.807Z</time>
      </trkpt>
      <trkpt lat="45.873" lon="5.82162">
        <ele>242</ele>
        <time>2021-09-12T08:12:26.807Z</time>
      </trkpt>
      <trkpt lat="45.87296" lon="5.82159">
        <ele>242</ele>
        <time>2021-09-12T08:12:27.806Z</time>
      </trkpt>
      <trkpt lat="45.87291" lon="5.82157">
        <ele>242</ele>
        <time>2021-09-12T08:12:28.806Z</time>
      </trkpt>
      <trkpt lat="45.87286" lon="5.82156">
        <ele>242</ele>
        <time>2021-09-12T08:12:29.806Z</time>
      </trkpt>
      <trkpt lat="45.87282" lon="5.82154">
        <ele>242</ele>
        <time>2021-09-12T08:12:30.807Z</time>
      </trkpt>
      <trkpt lat="45.87277" lon="5.82153">
        <ele>242</ele>
        <time>2021-09-12T08:12:31.806Z</time>
      </trkpt>
      <trkpt lat="45.87272" lon="5.82152">
        <ele>242</ele>
        <time>2021-09-12T08:12:32.806Z</time>
      </trkpt>
      <trkpt lat="45.87267" lon="5.82152">
        <ele>242</ele>
        <time>2021-09-12T08:12:33.807Z</time>
      </trkpt>
      <trkpt lat="45.87262" lon="5.82152">
        <ele>243</ele>
        <time>2021-09-12T08:12:34.807Z</time>
      </trkpt>
      <trkpt lat="45.87257" lon="5.82152">
        <ele>243</ele>
        <time>2021-09-12T08:12:35.807Z</time>
      </trkpt>
      <trkpt lat="45.87253" lon="5.82153">
        <ele>244</ele>
        <time>2021-09-12T08:12:36.807Z</time>
      </trkpt>
      <trkpt lat="45.87249" lon="5.82156">
        <ele>244</ele>
        <time>2021-09-12T08:12:37.807Z</time>
      </trkpt>
      <trkpt lat="45.87245" lon="5.82159">
        <ele>245</ele>
        <time>2021-09-12T08:12:38.807Z</time>
      </trkpt>
      <trkpt lat="45.87243" lon="5.82163">
        <ele>246</ele>
        <time>2021-09-12T08:12:39.806Z</time>
      </trkpt>
      <trkpt lat="45.87239" lon="5.82167">
        <ele>247</ele>
        <time>2021-09-12T08:12:40.807Z</time>
      </trkpt>
      <trkpt lat="45.87235" lon="5.82169">
        <ele>247</ele>
        <time>2021-09-12T08:12:41.807Z</time>
      </trkpt>
      <trkpt lat="45.87231" lon="5.8217">
        <ele>247</ele>
        <time>2021-09-12T08:12:42.807Z</time>
      </trkpt>
      <trkpt lat="45.87227" lon="5.82169">
        <ele>247</ele>
        <time>2021-09-12T08:12:43.807Z</time>
      </trkpt>
      <trkpt lat="45.87223" lon="5.82167">
        <ele>247</ele>
        <time>2021-09-12T08:12:44.807Z</time>
      </trkpt>
      <trkpt lat="45.87218" lon="5.82166">
        <ele>247</ele>
        <time>2021-09-12T08:12:45.807Z</time>
      </trkpt>
      <trkpt lat="45.87214" lon="5.82164">
        <ele>247</ele>
        <time>2021-09-12T08:12:46.807Z</time>
      </trkpt>
      <trkpt lat="45.87209" lon="5.82162">
        <ele>246</ele>
        <time>2021-09-12T08:12:47.807Z</time>
      </trkpt>
      <trkpt lat="45.87204" lon="5.82161">
        <ele>246</ele>
        <time>2021-09-12T08:12:48.807Z</time>
      </trkpt>
      <trkpt lat="45.87199" lon="5.82159">
        <ele>247</ele>
        <time>2021-09-12T08:12:49.807Z</time>
      </trkpt>
      <trkpt lat="45.87194" lon="5.82157">
        <ele>246</ele>
        <time>2021-09-12T08:12:50.807Z</time>
      </trkpt>
      <trkpt lat="45.8719" lon="5.82155">
        <ele>246</ele>
        <time>2021-09-12T08:12:51.806Z</time>
      </trkpt>
      <trkpt lat="45.87186" lon="5.82153">
        <ele>246</ele>
        <time>2021-09-12T08:12:52.807Z</time>
      </trkpt>
      <trkpt lat="45.87181" lon="5.82151">
        <ele>246</ele>
        <time>2021-09-12T08:12:53.806Z</time>
      </trkpt>
      <trkpt lat="45.87178" lon="5.8215">
        <ele>246</ele>
        <time>2021-09-12T08:12:54.807Z</time>
      </trkpt>
      <trkpt lat="45.87174" lon="5.82148">
        <ele>246</ele>
        <time>2021-09-12T08:12:55.807Z</time>
      </trkpt>
      <trkpt lat="45.8717" lon="5.82146">
        <ele>247</ele>
        <time>2021-09-12T08:12:56.807Z</time>
      </trkpt>
      <trkpt lat="45.87167" lon="5.82145">
        <ele>248</ele>
        <time>2021-09-12T08:12:57.807Z</time>
      </trkpt>
      <trkpt lat="45.87163" lon="5.82143">
        <ele>249</ele>
        <time>2021-09-12T08:12:58.806Z</time>
      </trkpt>
      <trkpt lat="45.8716" lon="5.82142">
        <ele>249</ele>
        <time>2021-09-12T08:12:59.807Z</time>
      </trkpt>
      <trkpt lat="45.87157" lon="5.82141">
        <ele>250</ele>
        <time>2021-09-12T08:13:00.807Z</time>
      </trkpt>
      <trkpt lat="45.87154" lon="5.8214">
        <ele>251</ele>
        <time>2021-09-12T08:13:01.807Z</time>
      </trkpt>
      <trkpt lat="45.87152" lon="5.8214">
        <ele>252</ele>
        <time>2021-09-12T08:13:02.807Z</time>
      </trkpt>
      <trkpt lat="45.87149" lon="5.82139">
        <ele>253</ele>
        <time>2021-09-12T08:13:03.807Z</time>
      </trkpt>
      <trkpt lat="45.87147" lon="5.82138">
        <ele>253</ele>
        <time>2021-09-12T08:13:04.807Z</time>
      </trkpt>
      <trkpt lat="45.87145" lon="5.82137">
        <ele>253</ele>
        <time>2021-09-12T08:13:05.807Z</time>
      </trkpt>
      <trkpt lat="45.87143" lon="5.82136">
        <ele>253</ele>
        <time>2021-09-12T08:13:06.807Z</time>
      </trkpt>
      <trkpt lat="45.87141" lon="5.82135">
        <ele>253</ele>
        <time>2021-09-12T08:13:07.807Z</time>
      </trkpt>
      <trkpt lat="45.87138" lon="5.82135">
        <ele>253</ele>
        <time>2021-09-12T08:13:08.807Z</time>
      </trkpt>
      <trkpt lat="45.87136" lon="5.82134">
        <ele>253</ele>
        <time>2021-09-12T08:13:09.807Z</time>
      </trkpt>
      <trkpt lat="45.87132" lon="5.82133">
        <ele>253</ele>
        <time>2021-09-12T08:13:10.807Z</time>
      </trkpt>
      <trkpt lat="45.87129" lon="5.82132">
        <ele>253</ele>
        <time>2021-09-12T08:13:11.807Z</time>
      </trkpt>
      <trkpt lat="45.87125" lon="5.8213">
        <ele>252</ele>
        <time>2021-09-12T08:13:12.807Z</time>
      </trkpt>
      <trkpt lat="45.8712" lon="5.82128">
        <ele>252</ele>
        <time>2021-09-12T08:13:13.807Z</time>
      </trkpt>
      <trkpt lat="45.87115" lon="5.82126">
        <ele>251</ele>
        <time>2021-09-12T08:13:14.807Z</time>
      </trkpt>
      <trkpt lat="45.8711" lon="5.82124">
        <ele>251</ele>
        <time>2021-09-12T08:13:15.806Z</time>
      </trkpt>
      <trkpt lat="45.87105" lon="5.82122">
        <ele>250</ele>
        <time>2021-09-12T08:13:16.807Z</time>
      </trkpt>
      <trkpt lat="45.871" lon="5.82121">
        <ele>250</ele>
        <time>2021-09-12T08:13:17.807Z</time>
      </trkpt>
      <trkpt lat="45.87095" lon="5.82119">
        <ele>249</ele>
        <time>2021-09-12T08:13:18.807Z</time>
      </trkpt>
      <trkpt lat="45.8709" lon="5.82117">
        <ele>248</ele>
        <time>2021-09-12T08:13:19.807Z</time>
      </trkpt>
      <trkpt lat="45.87086" lon="5.82115">
        <ele>247</ele>
        <time>2021-09-12T08:13:20.807Z</time>
      </trkpt>
      <trkpt lat="45.87081" lon="5.82115">
        <ele>247</ele>
        <time>2021-09-12T08:13:21.807Z</time>
      </trkpt>
      <trkpt lat="45.87077" lon="5.82114">
        <ele>246</ele>
        <time>2021-09-12T08:13:22.807Z</time>
      </trkpt>
      <trkpt lat="45.87072" lon="5.82114">
        <ele>246</ele>
        <time>2021-09-12T08:13:23.807Z</time>
      </trkpt>
      <trkpt lat="45.87068" lon="5.82114">
        <ele>246</ele>
        <time>2021-09-12T08:13:24.807Z</time>
      </trkpt>
      <trkpt lat="45.87065" lon="5.82114">
        <ele>246</ele>
        <time>2021-09-12T08:13:25.806Z</time>
      </trkpt>
      <trkpt lat="45.87062" lon="5.82114">
        <ele>246</ele>
        <time>2021-09-12T08:13:26.806Z</time>
      </trkpt>
      <trkpt lat="45.87059" lon="5.82115">
        <ele>246</ele>
        <time>2021-09-12T08:13:27.807Z</time>
      </trkpt>
      <trkpt lat="45.87056" lon="5.82115">
        <ele>246</ele>
        <time>2021-09-12T08:13:28.807Z</time>
      </trkpt>
      <trkpt lat="45.87055" lon="5.82117">
        <ele>246</ele>
        <time>2021-09-12T08:13:29.807Z</time>
      </trkpt>
      <trkpt lat="45.87054" lon="5.82119">
        <ele>247</ele>
        <time>2021-09-12T08:13:30.807Z</time>
      </trkpt>
      <trkpt lat="45.87053" lon="5.82121">
        <ele>247</ele>
        <time>2021-09-12T08:13:31.807Z</time>
      </trkpt>
      <trkpt lat="45.87052" lon="5.82123">
        <ele>247</ele>
        <time>2021-09-12T08:13:32.806Z</time>
      </trkpt>
      <trkpt lat="45.87052" lon="5.82126">
        <ele>247</ele>
        <time>2021-09-12T08:13:33.807Z</time>
      </trkpt>
      <trkpt lat="45.87052" lon="5.82128">
        <ele>247</ele>
        <time>2021-09-12T08:13:34.807Z</time>
      </trkpt>
      <trkpt lat="45.87052" lon="5.8213">
        <ele>247</ele>
        <time>2021-09-12T08:13:35.806Z</time>
      </trkpt>
      <trkpt lat="45.87051" lon="5.82132">
        <ele>247</ele>
        <time>2021-09-12T08:13:36.807Z</time>
      </trkpt>
      <trkpt lat="45.87049" lon="5.82132">
        <ele>246</ele>
        <time>2021-09-12T08:13:37.807Z</time>
      </trkpt>
      <trkpt lat="45.87048" lon="5.82132">
        <ele>245</ele>
        <time>2021-09-12T08:13:38.807Z</time>
      </trkpt>
      <trkpt lat="45.87046" lon="5.8213">
        <ele>245</ele>
        <time>2021-09-12T08:13:39.807Z</time>
      </trkpt>
      <trkpt lat="45.87045" lon="5.82129">
        <ele>245</ele>
        <time>2021-09-12T08:13:40.806Z</time>
      </trkpt>
      <trkpt lat="45.87043" lon="5.82129">
        <ele>245</ele>
        <time>2021-09-12T08:13:41.807Z</time>
      </trkpt>
      <trkpt lat="45.87041" lon="5.82128">
        <ele>245</ele>
        <time>2021-09-12T08:13:42.806Z</time>
      </trkpt>
      <trkpt lat="45.87039" lon="5.82127">
        <ele>245</ele>
        <time>2021-09-12T08:13:43.807Z</time>
      </trkpt>
      <trkpt lat="45.87037" lon="5.82126">
        <ele>245</ele>
        <time>2021-09-12T08:13:44.806Z</time>
      </trkpt>
      <trkpt lat="45.87035" lon="5.82124">
        <ele>245</ele>
        <time>2021-09-12T08:13:45.807Z</time>
      </trkpt>
      <trkpt lat="45.87034" lon="5.82122">
        <ele>245</ele>
        <time>2021-09-12T08:13:46.806Z</time>
      </trkpt>
      <trkpt lat="45.87032" lon="5.82121">
        <ele>245</ele>
        <time>2021-09-12T08:13:47.807Z</time>
      </trkpt>
      <trkpt lat="45.8703" lon="5.8212">
        <ele>244</ele>
        <time>2021-09-12T08:13:48.806Z</time>
      </trkpt>
      <trkpt lat="45.87027" lon="5.82119">
        <ele>244</ele>
        <time>2021-09-12T08:13:49.807Z</time>
      </trkpt>
      <trkpt lat="45.87025" lon="5.82119">
        <ele>244</ele>
        <time>2021-09-12T08:13:50.807Z</time>
      </trkpt>
      <trkpt lat="45.87023" lon="5.82118">
        <ele>243</ele>
        <time>2021-09-12T08:13:51.807Z</time>
      </trkpt>
      <trkpt lat="45.8702" lon="5.82118">
        <ele>243</ele>
        <time>2021-09-12T08:13:52.807Z</time>
      </trkpt>
      <trkpt lat="45.87018" lon="5.82118">
        <ele>242</ele>
        <time>2021-09-12T08:13:53.807Z</time>
      </trkpt>
      <trkpt lat="45.87015" lon="5.82118">
        <ele>242</ele>
        <time>2021-09-12T08:13:54.807Z</time>
      </trkpt>
      <trkpt lat="45.87013" lon="5.82118">
        <ele>242</ele>
        <time>2021-09-12T08:13:55.807Z</time>
      </trkpt>
      <trkpt lat="45.8701" lon="5.82119">
        <ele>242</ele>
        <time>2021-09-12T08:13:56.807Z</time>
      </trkpt>
      <trkpt lat="45.87008" lon="5.82119">
        <ele>243</ele>
        <time>2021-09-12T08:13:57.807Z</time>
      </trkpt>
      <trkpt lat="45.87005" lon="5.82119">
        <ele>243</ele>
        <time>2021-09-12T08:13:58.806Z</time>
      </trkpt>
      <trkpt lat="45.87003" lon="5.82119">
        <ele>243</ele>
        <time>2021-09-12T08:13:59.806Z</time>
      </trkpt>
      <trkpt lat="45.87" lon="5.8212">
        <ele>243</ele>
        <time>2021-09-12T08:14:00.807Z</time>
      </trkpt>
      <trkpt lat="45.86997" lon="5.8212">
        <ele>242</ele>
        <time>2021-09-12T08:14:01.806Z</time>
      </trkpt>
      <trkpt lat="45.86995" lon="5.8212">
        <ele>242</ele>
        <time>2021-09-12T08:14:02.807Z</time>
      </trkpt>
      <trkpt lat="45.86993" lon="5.8212">
        <ele>242</ele>
        <time>2021-09-12T08:14:03.807Z</time>
      </trkpt>
      <trkpt lat="45.86991" lon="5.8212">
        <ele>242</ele>
        <time>2021-09-12T08:14:04.806Z</time>
      </trkpt>
      <trkpt lat="45.86989" lon="5.82119">
        <ele>242</ele>
        <time>2021-09-12T08:14:05.806Z</time>
      </trkpt>
      <trkpt lat="45.86987" lon="5.82119">
        <ele>242</ele>
        <time>2021-09-12T08:14:06.807Z</time>
      </trkpt>
      <trkpt lat="45.86986" lon="5.82119">
        <ele>242</ele>
        <time>2021-09-12T08:14:07.807Z</time>
      </trkpt>
      <trkpt lat="45.86984" lon="5.82119">
        <ele>242</ele>
        <time>2021-09-12T08:14:08.807Z</time>
      </trkpt>
      <trkpt lat="45.86982" lon="5.82119">
        <ele>242</ele>
        <time>2021-09-12T08:14:09.807Z</time>
      </trkpt>
      <trkpt lat="45.86981" lon="5.82119">
        <ele>242</ele>
        <time>2021-09-12T08:14:10.807Z</time>
      </trkpt>
      <trkpt lat="45.86979" lon="5.82119">
        <ele>242</ele>
        <time>2021-09-12T08:14:11.806Z</time>
      </trkpt>
      <trkpt lat="45.86976" lon="5.82118">
        <ele>242</ele>
        <time>2021-09-12T08:14:12.807Z</time>
      </trkpt>
      <trkpt lat="45.86974" lon="5.82118">
        <ele>242</ele>
        <time>2021-09-12T08:14:13.807Z</time>
      </trkpt>
      <trkpt lat="45.86972" lon="5.82118">
        <ele>242</ele>
        <time>2021-09-12T08:14:14.807Z</time>
      </trkpt>
      <trkpt lat="45.8697" lon="5.82118">
        <ele>242</ele>
        <time>2021-09-12T08:14:15.806Z</time>
      </trkpt>
      <trkpt lat="45.86968" lon="5.82117">
        <ele>242</ele>
        <time>2021-09-12T08:14:16.806Z</time>
      </trkpt>
      <trkpt lat="45.86966" lon="5.82117">
        <ele>242</ele>
        <time>2021-09-12T08:14:17.806Z</time>
      </trkpt>
      <trkpt lat="45.86963" lon="5.82116">
        <ele>242</ele>
        <time>2021-09-12T08:14:18.807Z</time>
      </trkpt>
      <trkpt lat="45.86961" lon="5.82116">
        <ele>241</ele>
        <time>2021-09-12T08:14:19.807Z</time>
      </trkpt>
      <trkpt lat="45.86958" lon="5.82115">
        <ele>241</ele>
        <time>2021-09-12T08:14:20.807Z</time>
      </trkpt>
      <trkpt lat="45.86956" lon="5.82114">
        <ele>241</ele>
        <time>2021-09-12T08:14:21.807Z</time>
      </trkpt>
      <trkpt lat="45.86953" lon="5.82113">
        <ele>241</ele>
        <time>2021-09-12T08:14:22.807Z</time>
      </trkpt>
      <trkpt lat="45.86951" lon="5.82113">
        <ele>241</ele>
        <time>2021-09-12T08:14:23.807Z</time>
      </trkpt>
      <trkpt lat="45.86949" lon="5.82112">
        <ele>240</ele>
        <time>2021-09-12T08:14:24.807Z</time>
      </trkpt>
      <trkpt lat="45.86946" lon="5.82112">
        <ele>240</ele>
        <time>2021-09-12T08:14:25.806Z</time>
      </trkpt>
      <trkpt lat="45.86944" lon="5.82111">
        <ele>240</ele>
        <time>2021-09-12T08:14:26.807Z</time>
      </trkpt>
      <trkpt lat="45.86942" lon="5.8211">
        <ele>240</ele>
        <time>2021-09-12T08:14:27.807Z</time>
      </trkpt>
      <trkpt lat="45.8694" lon="5.82109">
        <ele>240</ele>
        <time>2021-09-12T08:14:28.806Z</time>
      </trkpt>
      <trkpt lat="45.86938" lon="5.82107">
        <ele>240</ele>
        <time>2021-09-12T08:14:29.806Z</time>
      </trkpt>
      <trkpt lat="45.86936" lon="5.82106">
        <ele>241</ele>
        <time>2021-09-12T08:14:30.807Z</time>
      </trkpt>
      <trkpt lat="45.86933" lon="5.82104">
        <ele>241</ele>
        <time>2021-09-12T08:14:31.806Z</time>
      </trkpt>
      <trkpt lat="45.86931" lon="5.82102">
        <ele>241</ele>
        <time>2021-09-12T08:14:32.807Z</time>
      </trkpt>
      <trkpt lat="45.86929" lon="5.82101">
        <ele>241</ele>
        <time>2021-09-12T08:14:33.806Z</time>
      </trkpt>
      <trkpt lat="45.86927" lon="5.82099">
        <ele>241</ele>
        <time>2021-09-12T08:14:34.806Z</time>
      </trkpt>
      <trkpt lat="45.86925" lon="5.82098">
        <ele>240</ele>
        <time>2021-09-12T08:14:35.807Z</time>
      </trkpt>
      <trkpt lat="45.86922" lon="5.82098">
        <ele>241</ele>
        <time>2021-09-12T08:14:36.806Z</time>
      </trkpt>
      <trkpt lat="45.86919" lon="5.82098">
        <ele>241</ele>
        <time>2021-09-12T08:14:37.807Z</time>
      </trkpt>
      <trkpt lat="45.86917" lon="5.82098">
        <ele>241</ele>
        <time>2021-09-12T08:14:38.807Z</time>
      </trkpt>
      <trkpt lat="45.86914" lon="5.821">
        <ele>241</ele>
        <time>2021-09-12T08:14:39.807Z</time>
      </trkpt>
      <trkpt lat="45.86912" lon="5.82101">
        <ele>242</ele>
        <time>2021-09-12T08:14:40.807Z</time>
      </trkpt>
      <trkpt lat="45.86909" lon="5.82102">
        <ele>242</ele>
        <time>2021-09-12T08:14:41.807Z</time>
      </trkpt>
      <trkpt lat="45.86908" lon="5.82102">
        <ele>243</ele>
        <time>2021-09-12T08:14:42.806Z</time>
      </trkpt>
      <trkpt lat="45.86906" lon="5.82101">
        <ele>243</ele>
        <time>2021-09-12T08:14:43.807Z</time>
      </trkpt>
      <trkpt lat="45.86905" lon="5.82099">
        <ele>244</ele>
        <time>2021-09-12T08:14:44.806Z</time>
      </trkpt>
      <trkpt lat="45.86903" lon="5.82097">
        <ele>244</ele>
        <time>2021-09-12T08:14:45.806Z</time>
      </trkpt>
      <trkpt lat="45.869" lon="5.82095">
        <ele>245</ele>
        <time>2021-09-12T08:14:46.806Z</time>
      </trkpt>
      <trkpt lat="45.86898" lon="5.82093">
        <ele>245</ele>
        <time>2021-09-12T08:14:47.806Z</time>
      </trkpt>
      <trkpt lat="45.86895" lon="5.82092">
        <ele>245</ele>
        <time>2021-09-12T08:14:48.807Z</time>
      </trkpt>
      <trkpt lat="45.86892" lon="5.8209">
        <ele>245</ele>
        <time>2021-09-12T08:14:49.807Z</time>
      </trkpt>
      <trkpt lat="45.86889" lon="5.82089">
        <ele>245</ele>
        <time>2021-09-12T08:14:50.807Z</time>
      </trkpt>
      <trkpt lat="45.86886" lon="5.82088">
        <ele>246</ele>
        <time>2021-09-12T08:14:51.807Z</time>
      </trkpt>
      <trkpt lat="45.86882" lon="5.82087">
        <ele>246</ele>
        <time>2021-09-12T08:14:52.807Z</time>
      </trkpt>
      <trkpt lat="45.86879" lon="5.82086">
        <ele>246</ele>
        <time>2021-09-12T08:14:53.807Z</time>
      </trkpt>
      <trkpt lat="45.86875" lon="5.82084">
        <ele>246</ele>
        <time>2021-09-12T08:14:54.807Z</time>
      </trkpt>
      <trkpt lat="45.86872" lon="5.82083">
        <ele>246</ele>
        <time>2021-09-12T08:14:55.807Z</time>
      </trkpt>
      <trkpt lat="45.86868" lon="5.82081">
        <ele>246</ele>
        <time>2021-09-12T08:14:56.807Z</time>
      </trkpt>
      <trkpt lat="45.86865" lon="5.82079">
        <ele>246</ele>
        <time>2021-09-12T08:14:57.807Z</time>
      </trkpt>
      <trkpt lat="45.86861" lon="5.82077">
        <ele>246</ele>
        <time>2021-09-12T08:14:58.807Z</time>
      </trkpt>
      <trkpt lat="45.86858" lon="5.82074">
        <ele>245</ele>
        <time>2021-09-12T08:14:59.807Z</time>
      </trkpt>
      <trkpt lat="45.86854" lon="5.82072">
        <ele>245</ele>
        <time>2021-09-12T08:15:00.807Z</time>
      </trkpt>
      <trkpt lat="45.86851" lon="5.82069">
        <ele>244</ele>
        <time>2021-09-12T08:15:01.807Z</time>
      </trkpt>
      <trkpt lat="45.86847" lon="5.82066">
        <ele>244</ele>
        <time>2021-09-12T08:15:02.807Z</time>
      </trkpt>
      <trkpt lat="45.86843" lon="5.82064">
        <ele>244</ele>
        <time>2021-09-12T08:15:03.807Z</time>
      </trkpt>
      <trkpt lat="45.86838" lon="5.82061">
        <ele>244</ele>
        <time>2021-09-12T08:15:04.807Z</time>
      </trkpt>
      <trkpt lat="45.86833" lon="5.82057">
        <ele>243</ele>
        <time>2021-09-12T08:15:05.807Z</time>
      </trkpt>
      <trkpt lat="45.86829" lon="5.82054">
        <ele>243</ele>
        <time>2021-09-12T08:15:06.807Z</time>
      </trkpt>
      <trkpt lat="45.86824" lon="5.82051">
        <ele>243</ele>
        <time>2021-09-12T08:15:07.807Z</time>
      </trkpt>
      <trkpt lat="45.8682" lon="5.82049">
        <ele>243</ele>
        <time>2021-09-12T08:15:08.807Z</time>
      </trkpt>
      <trkpt lat="45.86815" lon="5.82047">
        <ele>243</ele>
        <time>2021-09-12T08:15:09.807Z</time>
      </trkpt>
      <trkpt lat="45.86811" lon="5.82045">
        <ele>242</ele>
        <time>2021-09-12T08:15:10.807Z</time>
      </trkpt>
      <trkpt lat="45.86807" lon="5.82043">
        <ele>242</ele>
        <time>2021-09-12T08:15:11.807Z</time>
      </trkpt>
      <trkpt lat="45.86804" lon="5.82041">
        <ele>242</ele>
        <time>2021-09-12T08:15:12.806Z</time>
      </trkpt>
      <trkpt lat="45.868" lon="5.8204">
        <ele>242</ele>
        <time>2021-09-12T08:15:13.807Z</time>
      </trkpt>
      <trkpt lat="45.86797" lon="5.82038">
        <ele>242</ele>
        <time>2021-09-12T08:15:14.807Z</time>
      </trkpt>
      <trkpt lat="45.86793" lon="5.82035">
        <ele>242</ele>
        <time>2021-09-12T08:15:15.807Z</time>
      </trkpt>
      <trkpt lat="45.86791" lon="5.82032">
        <ele>243</ele>
        <time>2021-09-12T08:15:16.807Z</time>
      </trkpt>
      <trkpt lat="45.86787" lon="5.82029">
        <ele>242</ele>
        <time>2021-09-12T08:15:17.807Z</time>
      </trkpt>
      <trkpt lat="45.86784" lon="5.82026">
        <ele>242</ele>
        <time>2021-09-12T08:15:18.807Z</time>
      </trkpt>
      <trkpt lat="45.8678" lon="5.82023">
        <ele>242</ele>
        <time>2021-09-12T08:15:19.807Z</time>
      </trkpt>
      <trkpt lat="45.86776" lon="5.82019">
        <ele>241</ele>
        <time>2021-09-12T08:15:20.807Z</time>
      </trkpt>
      <trkpt lat="45.86772" lon="5.82017">
        <ele>241</ele>
        <time>2021-09-12T08:15:21.807Z</time>
      </trkpt>
      <trkpt lat="45.86768" lon="5.82015">
        <ele>241</ele>
        <time>2021-09-12T08:15:22.806Z</time>
      </trkpt>
      <trkpt lat="45.86764" lon="5.82013">
        <ele>241</ele>
        <time>2021-09-12T08:15:23.806Z</time>
      </trkpt>
      <trkpt lat="45.86759" lon="5.82011">
        <ele>241</ele>
        <time>2021-09-12T08:15:24.807Z</time>
      </trkpt>
      <trkpt lat="45.86755" lon="5.8201">
        <ele>241</ele>
        <time>2021-09-12T08:15:25.807Z</time>
      </trkpt>
      <trkpt lat="45.8675" lon="5.82008">
        <ele>241</ele>
        <time>2021-09-12T08:15:26.807Z</time>
      </trkpt>
      <trkpt lat="45.86746" lon="5.82007">
        <ele>242</ele>
        <time>2021-09-12T08:15:27.807Z</time>
      </trkpt>
      <trkpt lat="45.86741" lon="5.82006">
        <ele>242</ele>
        <time>2021-09-12T08:15:28.807Z</time>
      </trkpt>
      <trkpt lat="45.86737" lon="5.82004">
        <ele>242</ele>
        <time>2021-09-12T08:15:29.806Z</time>
      </trkpt>
      <trkpt lat="45.86732" lon="5.82003">
        <ele>242</ele>
        <time>2021-09-12T08:15:30.807Z</time>
      </trkpt>
      <trkpt lat="45.86728" lon="5.82001">
        <ele>241</ele>
        <time>2021-09-12T08:15:31.806Z</time>
      </trkpt>
      <trkpt lat="45.86723" lon="5.81999">
        <ele>241</ele>
        <time>2021-09-12T08:15:32.807Z</time>
      </trkpt>
      <trkpt lat="45.86718" lon="5.81998">
        <ele>242</ele>
        <time>2021-09-12T08:15:33.807Z</time>
      </trkpt>
      <trkpt lat="45.86713" lon="5.81996">
        <ele>242</ele>
        <time>2021-09-12T08:15:34.806Z</time>
      </trkpt>
      <trkpt lat="45.86709" lon="5.81994">
        <ele>242</ele>
        <time>2021-09-12T08:15:35.807Z</time>
      </trkpt>
      <trkpt lat="45.86704" lon="5.81992">
        <ele>242</ele>
        <time>2021-09-12T08:15:36.807Z</time>
      </trkpt>
      <trkpt lat="45.86699" lon="5.81991">
        <ele>242</ele>
        <time>2021-09-12T08:15:37.806Z</time>
      </trkpt>
      <trkpt lat="45.86694" lon="5.81989">
        <ele>242</ele>
        <time>2021-09-12T08:15:38.807Z</time>
      </trkpt>
      <trkpt lat="45.86689" lon="5.81986">
        <ele>243</ele>
        <time>2021-09-12T08:15:39.807Z</time>
      </trkpt>
      <trkpt lat="45.86684" lon="5.81985">
        <ele>243</ele>
        <time>2021-09-12T08:15:40.807Z</time>
      </trkpt>
      <trkpt lat="45.8668" lon="5.81983">
        <ele>243</ele>
        <time>2021-09-12T08:15:41.806Z</time>
      </trkpt>
      <trkpt lat="45.86675" lon="5.81982">
        <ele>244</ele>
        <time>2021-09-12T08:15:42.807Z</time>
      </trkpt>
      <trkpt lat="45.86669" lon="5.8198">
        <ele>245</ele>
        <time>2021-09-12T08:15:43.807Z</time>
      </trkpt>
      <trkpt lat="45.86664" lon="5.81978">
        <ele>245</ele>
        <time>2021-09-12T08:15:44.807Z</time>
      </trkpt>
      <trkpt lat="45.86659" lon="5.81976">
        <ele>246</ele>
        <time>2021-09-12T08:15:45.807Z</time>
      </trkpt>
      <trkpt lat="45.86654" lon="5.81973">
        <ele>245</ele>
        <time>2021-09-12T08:15:46.807Z</time>
      </trkpt>
      <trkpt lat="45.86649" lon="5.81971">
        <ele>245</ele>
        <time>2021-09-12T08:15:47.807Z</time>
      </trkpt>
      <trkpt lat="45.86644" lon="5.81968">
        <ele>245</ele>
        <time>2021-09-12T08:15:48.807Z</time>
      </trkpt>
      <trkpt lat="45.86638" lon="5.81965">
        <ele>244</ele>
        <time>2021-09-12T08:15:49.807Z</time>
      </trkpt>
      <trkpt lat="45.86633" lon="5.81963">
        <ele>244</ele>
        <time>2021-09-12T08:15:50.806Z</time>
      </trkpt>
      <trkpt lat="45.86627" lon="5.8196">
        <ele>244</ele>
        <time>2021-09-12T08:15:51.806Z</time>
      </trkpt>
      <trkpt lat="45.86622" lon="5.81958">
        <ele>243</ele>
        <time>2021-09-12T08:15:52.807Z</time>
      </trkpt>
      <trkpt lat="45.86617" lon="5.81956">
        <ele>243</ele>
        <time>2021-09-12T08:15:53.806Z</time>
      </trkpt>
      <trkpt lat="45.86612" lon="5.81956">
        <ele>243</ele>
        <time>2021-09-12T08:15:54.807Z</time>
      </trkpt>
      <trkpt lat="45.86607" lon="5.81957">
        <ele>243</ele>
        <time>2021-09-12T08:15:55.807Z</time>
      </trkpt>
      <trkpt lat="45.86602" lon="5.81959">
        <ele>244</ele>
        <time>2021-09-12T08:15:56.807Z</time>
      </trkpt>
      <trkpt lat="45.86597" lon="5.81961">
        <ele>244</ele>
        <time>2021-09-12T08:15:57.807Z</time>
      </trkpt>
      <trkpt lat="45.86592" lon="5.81962">
        <ele>243</ele>
        <time>2021-09-12T08:15:58.807Z</time>
      </trkpt>
      <trkpt lat="45.86587" lon="5.81962">
        <ele>243</ele>
        <time>2021-09-12T08:15:59.807Z</time>
      </trkpt>
      <trkpt lat="45.86582" lon="5.81961">
        <ele>243</ele>
        <time>2021-09-12T08:16:00.807Z</time>
      </trkpt>
      <trkpt lat="45.86577" lon="5.8196">
        <ele>242</ele>
        <time>2021-09-12T08:16:01.807Z</time>
      </trkpt>
      <trkpt lat="45.86571" lon="5.81959">
        <ele>242</ele>
        <time>2021-09-12T08:16:02.806Z</time>
      </trkpt>
      <trkpt lat="45.86566" lon="5.81956">
        <ele>242</ele>
        <time>2021-09-12T08:16:03.807Z</time>
      </trkpt>
      <trkpt lat="45.86561" lon="5.81954">
        <ele>242</ele>
        <time>2021-09-12T08:16:04.807Z</time>
      </trkpt>
      <trkpt lat="45.86556" lon="5.81953">
        <ele>242</ele>
        <time>2021-09-12T08:16:05.807Z</time>
      </trkpt>
      <trkpt lat="45.86552" lon="5.81951">
        <ele>242</ele>
        <time>2021-09-12T08:16:06.807Z</time>
      </trkpt>
      <trkpt lat="45.86547" lon="5.81949">
        <ele>243</ele>
        <time>2021-09-12T08:16:07.807Z</time>
      </trkpt>
      <trkpt lat="45.86541" lon="5.81948">
        <ele>243</ele>
        <time>2021-09-12T08:16:08.807Z</time>
      </trkpt>
      <trkpt lat="45.86536" lon="5.81946">
        <ele>243</ele>
        <time>2021-09-12T08:16:09.807Z</time>
      </trkpt>
      <trkpt lat="45.86531" lon="5.81943">
        <ele>244</ele>
        <time>2021-09-12T08:16:10.806Z</time>
      </trkpt>
      <trkpt lat="45.86525" lon="5.81941">
        <ele>244</ele>
        <time>2021-09-12T08:16:11.807Z</time>
      </trkpt>
      <trkpt lat="45.8652" lon="5.81939">
        <ele>244</ele>
        <time>2021-09-12T08:16:12.806Z</time>
      </trkpt>
      <trkpt lat="45.86514" lon="5.81937">
        <ele>244</ele>
        <time>2021-09-12T08:16:13.807Z</time>
      </trkpt>
      <trkpt lat="45.86509" lon="5.81935">
        <ele>244</ele>
        <time>2021-09-12T08:16:14.807Z</time>
      </trkpt>
      <trkpt lat="45.86503" lon="5.81933">
        <ele>244</ele>
        <time>2021-09-12T08:16:15.806Z</time>
      </trkpt>
      <trkpt lat="45.86498" lon="5.81931">
        <ele>244</ele>
        <time>2021-09-12T08:16:16.807Z</time>
      </trkpt>
      <trkpt lat="45.86493" lon="5.81928">
        <ele>244</ele>
        <time>2021-09-12T08:16:17.806Z</time>
      </trkpt>
      <trkpt lat="45.86488" lon="5.81927">
        <ele>244</ele>
        <time>2021-09-12T08:16:18.807Z</time>
      </trkpt>
      <trkpt lat="45.86483" lon="5.81926">
        <ele>244</ele>
        <time>2021-09-12T08:16:19.807Z</time>
      </trkpt>
      <trkpt lat="45.86478" lon="5.81928">
        <ele>244</ele>
        <time>2021-09-12T08:16:20.806Z</time>
      </trkpt>
      <trkpt lat="45.86474" lon="5.81931">
        <ele>243</ele>
        <time>2021-09-12T08:16:21.807Z</time>
      </trkpt>
      <trkpt lat="45.86472" lon="5.81936">
        <ele>243</ele>
        <time>2021-09-12T08:16:22.807Z</time>
      </trkpt>
      <trkpt lat="45.8647" lon="5.81942">
        <ele>243</ele>
        <time>2021-09-12T08:16:23.807Z</time>
      </trkpt>
      <trkpt lat="45.86469" lon="5.81949">
        <ele>243</ele>
        <time>2021-09-12T08:16:24.806Z</time>
      </trkpt>
      <trkpt lat="45.86469" lon="5.81959">
        <ele>243</ele>
        <time>2021-09-12T08:16:25.807Z</time>
      </trkpt>
      <trkpt lat="45.86468" lon="5.81966">
        <ele>243</ele>
        <time>2021-09-12T08:16:26.807Z</time>
      </trkpt>
      <trkpt lat="45.86467" lon="5.81974">
        <ele>243</ele>
        <time>2021-09-12T08:16:27.807Z</time>
      </trkpt>
      <trkpt lat="45.86466" lon="5.81982">
        <ele>243</ele>
        <time>2021-09-12T08:16:28.807Z</time>
      </trkpt>
      <trkpt lat="45.86465" lon="5.8199">
        <ele>243</ele>
        <time>2021-09-12T08:16:29.807Z</time>
      </trkpt>
      <trkpt lat="45.86464" lon="5.81998">
        <ele>244</ele>
        <time>2021-09-12T08:16:30.807Z</time>
      </trkpt>
      <trkpt lat="45.86463" lon="5.82006">
        <ele>244</ele>
        <time>2021-09-12T08:16:31.806Z</time>
      </trkpt>
      <trkpt lat="45.86462" lon="5.82013">
        <ele>244</ele>
        <time>2021-09-12T08:16:32.807Z</time>
      </trkpt>
      <trkpt lat="45.86461" lon="5.8202">
        <ele>244</ele>
        <time>2021-09-12T08:16:33.807Z</time>
      </trkpt>
      <trkpt lat="45.8646" lon="5.82026">
        <ele>245</ele>
        <time>2021-09-12T08:16:34.807Z</time>
      </trkpt>
      <trkpt lat="45.86459" lon="5.82033">
        <ele>245</ele>
        <time>2021-09-12T08:16:35.806Z</time>
      </trkpt>
      <trkpt lat="45.86457" lon="5.8204">
        <ele>245</ele>
        <time>2021-09-12T08:16:36.807Z</time>
      </trkpt>
      <trkpt lat="45.86456" lon="5.82046">
        <ele>244</ele>
        <time>2021-09-12T08:16:37.806Z</time>
      </trkpt>
      <trkpt lat="45.86455" lon="5.82053">
        <ele>244</ele>
        <time>2021-09-12T08:16:38.806Z</time>
      </trkpt>
      <trkpt lat="45.86454" lon="5.8206">
        <ele>244</ele>
        <time>2021-09-12T08:16:39.806Z</time>
      </trkpt>
      <trkpt lat="45.86452" lon="5.82067">
        <ele>243</ele>
        <time>2021-09-12T08:16:40.807Z</time>
      </trkpt>
      <trkpt lat="45.86451" lon="5.82073">
        <ele>243</ele>
        <time>2021-09-12T08:16:41.807Z</time>
      </trkpt>
      <trkpt lat="45.8645" lon="5.8208">
        <ele>243</ele>
        <time>2021-09-12T08:16:42.807Z</time>
      </trkpt>
      <trkpt lat="45.86449" lon="5.82087">
        <ele>243</ele>
        <time>2021-09-12T08:16:43.807Z</time>
      </trkpt>
      <trkpt lat="45.86448" lon="5.82093">
        <ele>243</ele>
        <time>2021-09-12T08:16:44.806Z</time>
      </trkpt>
      <trkpt lat="45.86447" lon="5.821">
        <ele>243</ele>
        <time>2021-09-12T08:16:45.806Z</time>
      </trkpt>
      <trkpt lat="45.86446" lon="5.82107">
        <ele>244</ele>
        <time>2021-09-12T08:16:46.807Z</time>
      </trkpt>
      <trkpt lat="45.86445" lon="5.82114">
        <ele>244</ele>
        <time>2021-09-12T08:16:47.807Z</time>
      </trkpt>
      <trkpt lat="45.86444" lon="5.82121">
        <ele>245</ele>
        <time>2021-09-12T08:16:48.807Z</time>
      </trkpt>
      <trkpt lat="45.86443" lon="5.82128">
        <ele>245</ele>
        <time>2021-09-12T08:16:49.807Z</time>
      </trkpt>
      <trkpt lat="45.86442" lon="5.82135">
        <ele>245</ele>
        <time>2021-09-12T08:16:50.807Z</time>
      </trkpt>
      <trkpt lat="45.8644" lon="5.82142">
        <ele>244</ele>
        <time>2021-09-12T08:16:51.806Z</time>
      </trkpt>
      <trkpt lat="45.86439" lon="5.82149">
        <ele>244</ele>
        <time>2021-09-12T08:16:52.807Z</time>
      </trkpt>
      <trkpt lat="45.86438" lon="5.82156">
        <ele>244</ele>
        <time>2021-09-12T08:16:53.806Z</time>
      </trkpt>
      <trkpt lat="45.86437" lon="5.82163">
        <ele>244</ele>
        <time>2021-09-12T08:16:54.807Z</time>
      </trkpt>
      <trkpt lat="45.86435" lon="5.8217">
        <ele>244</ele>
        <time>2021-09-12T08:16:55.807Z</time>
      </trkpt>
      <trkpt lat="45.86434" lon="5.82178">
        <ele>244</ele>
        <time>2021-09-12T08:16:56.807Z</time>
      </trkpt>
      <trkpt lat="45.86432" lon="5.82185">
        <ele>244</ele>
        <time>2021-09-12T08:16:57.807Z</time>
      </trkpt>
      <trkpt lat="45.86431" lon="5.82192">
        <ele>244</ele>
        <time>2021-09-12T08:16:58.806Z</time>
      </trkpt>
      <trkpt lat="45.86429" lon="5.82199">
        <ele>244</ele>
        <time>2021-09-12T08:16:59.807Z</time>
      </trkpt>
      <trkpt lat="45.86428" lon="5.82206">
        <ele>244</ele>
        <time>2021-09-12T08:17:00.807Z</time>
      </trkpt>
      <trkpt lat="45.86427" lon="5.82213">
        <ele>244</ele>
        <time>2021-09-12T08:17:01.807Z</time>
      </trkpt>
      <trkpt lat="45.86425" lon="5.8222">
        <ele>243</ele>
        <time>2021-09-12T08:17:02.806Z</time>
      </trkpt>
      <trkpt lat="45.86424" lon="5.82228">
        <ele>243</ele>
        <time>2021-09-12T08:17:03.807Z</time>
      </trkpt>
      <trkpt lat="45.86423" lon="5.82235">
        <ele>242</ele>
        <time>2021-09-12T08:17:04.807Z</time>
      </trkpt>
      <trkpt lat="45.86422" lon="5.82243">
        <ele>242</ele>
        <time>2021-09-12T08:17:05.807Z</time>
      </trkpt>
      <trkpt lat="45.86421" lon="5.8225">
        <ele>242</ele>
        <time>2021-09-12T08:17:06.807Z</time>
      </trkpt>
      <trkpt lat="45.8642" lon="5.82257">
        <ele>242</ele>
        <time>2021-09-12T08:17:07.806Z</time>
      </trkpt>
      <trkpt lat="45.86418" lon="5.82264">
        <ele>242</ele>
        <time>2021-09-12T08:17:08.806Z</time>
      </trkpt>
      <trkpt lat="45.86418" lon="5.82271">
        <ele>242</ele>
        <time>2021-09-12T08:17:09.806Z</time>
      </trkpt>
      <trkpt lat="45.86417" lon="5.82279">
        <ele>242</ele>
        <time>2021-09-12T08:17:10.806Z</time>
      </trkpt>
      <trkpt lat="45.86417" lon="5.82286">
        <ele>242</ele>
        <time>2021-09-12T08:17:11.807Z</time>
      </trkpt>
      <trkpt lat="45.86416" lon="5.82294">
        <ele>242</ele>
        <time>2021-09-12T08:17:12.807Z</time>
      </trkpt>
      <trkpt lat="45.86415" lon="5.82301">
        <ele>242</ele>
        <time>2021-09-12T08:17:13.807Z</time>
      </trkpt>
      <trkpt lat="45.86415" lon="5.82308">
        <ele>242</ele>
        <time>2021-09-12T08:17:14.807Z</time>
      </trkpt>
      <trkpt lat="45.86415" lon="5.82316">
        <ele>242</ele>
        <time>2021-09-12T08:17:15.806Z</time>
      </trkpt>
      <trkpt lat="45.86414" lon="5.82322">
        <ele>241</ele>
        <time>2021-09-12T08:17:16.807Z</time>
      </trkpt>
      <trkpt lat="45.86413" lon="5.82329">
        <ele>241</ele>
        <time>2021-09-12T08:17:17.806Z</time>
      </trkpt>
      <trkpt lat="45.86412" lon="5.82336">
        <ele>241</ele>
        <time>2021-09-12T08:17:18.806Z</time>
      </trkpt>
      <trkpt lat="45.86411" lon="5.82343">
        <ele>241</ele>
        <time>2021-09-12T08:17:19.807Z</time>
      </trkpt>
      <trkpt lat="45.86409" lon="5.82349">
        <ele>241</ele>
        <time>2021-09-12T08:17:20.807Z</time>
      </trkpt>
      <trkpt lat="45.86408" lon="5.82356">
        <ele>240</ele>
        <time>2021-09-12T08:17:21.806Z</time>
      </trkpt>
      <trkpt lat="45.86407" lon="5.82363">
        <ele>240</ele>
        <time>2021-09-12T08:17:22.807Z</time>
      </trkpt>
      <trkpt lat="45.86406" lon="5.82371">
        <ele>239</ele>
        <time>2021-09-12T08:17:23.807Z</time>
      </trkpt>
      <trkpt lat="45.86405" lon="5.82378">
        <ele>239</ele>
        <time>2021-09-12T08:17:24.807Z</time>
      </trkpt>
      <trkpt lat="45.86405" lon="5.82386">
        <ele>240</ele>
        <time>2021-09-12T08:17:25.807Z</time>
      </trkpt>
      <trkpt lat="45.86405" lon="5.82393">
        <ele>240</ele>
        <time>2021-09-12T08:17:26.806Z</time>
      </trkpt>
      <trkpt lat="45.86404" lon="5.82401">
        <ele>240</ele>
        <time>2021-09-12T08:17:27.806Z</time>
      </trkpt>
      <trkpt lat="45.86404" lon="5.82408">
        <ele>240</ele>
        <time>2021-09-12T08:17:28.806Z</time>
      </trkpt>
      <trkpt lat="45.86404" lon="5.82416">
        <ele>240</ele>
        <time>2021-09-12T08:17:29.806Z</time>
      </trkpt>
      <trkpt lat="45.86402" lon="5.82422">
        <ele>241</ele>
        <time>2021-09-12T08:17:30.807Z</time>
      </trkpt>
      <trkpt lat="45.864" lon="5.82426">
        <ele>241</ele>
        <time>2021-09-12T08:17:31.807Z</time>
      </trkpt>
      <trkpt lat="45.86397" lon="5.8243">
        <ele>242</ele>
        <time>2021-09-12T08:17:32.806Z</time>
      </trkpt>
      <trkpt lat="45.86395" lon="5.82431">
        <ele>242</ele>
        <time>2021-09-12T08:17:33.807Z</time>
      </trkpt>
      <trkpt lat="45.86391" lon="5.82431">
        <ele>242</ele>
        <time>2021-09-12T08:17:34.806Z</time>
      </trkpt>
      <trkpt lat="45.86388" lon="5.82431">
        <ele>242</ele>
        <time>2021-09-12T08:17:35.807Z</time>
      </trkpt>
      <trkpt lat="45.86384" lon="5.8243">
        <ele>242</ele>
        <time>2021-09-12T08:17:36.806Z</time>
      </trkpt>
      <trkpt lat="45.8638" lon="5.82429">
        <ele>243</ele>
        <time>2021-09-12T08:17:37.807Z</time>
      </trkpt>
      <trkpt lat="45.86376" lon="5.82428">
        <ele>243</ele>
        <time>2021-09-12T08:17:38.807Z</time>
      </trkpt>
      <trkpt lat="45.86371" lon="5.82428">
        <ele>243</ele>
        <time>2021-09-12T08:17:39.807Z</time>
      </trkpt>
      <trkpt lat="45.86367" lon="5.82427">
        <ele>243</ele>
        <time>2021-09-12T08:17:40.807Z</time>
      </trkpt>
      <trkpt lat="45.86362" lon="5.82425">
        <ele>244</ele>
        <time>2021-09-12T08:17:41.807Z</time>
      </trkpt>
      <trkpt lat="45.86357" lon="5.82424">
        <ele>245</ele>
        <time>2021-09-12T08:17:42.806Z</time>
      </trkpt>
      <trkpt lat="45.86351" lon="5.82422">
        <ele>246</ele>
        <time>2021-09-12T08:17:43.806Z</time>
      </trkpt>
      <trkpt lat="45.86347" lon="5.82421">
        <ele>246</ele>
        <time>2021-09-12T08:17:44.807Z</time>
      </trkpt>
      <trkpt lat="45.86343" lon="5.8242">
        <ele>246</ele>
        <time>2021-09-12T08:17:45.807Z</time>
      </trkpt>
      <trkpt lat="45.86337" lon="5.82419">
        <ele>246</ele>
        <time>2021-09-12T08:17:46.806Z</time>
      </trkpt>
      <trkpt lat="45.86334" lon="5.82418">
        <ele>245</ele>
        <time>2021-09-12T08:17:47.807Z</time>
      </trkpt>
      <trkpt lat="45.86328" lon="5.82416">
        <ele>245</ele>
        <time>2021-09-12T08:17:48.807Z</time>
      </trkpt>
      <trkpt lat="45.86323" lon="5.82415">
        <ele>245</ele>
        <time>2021-09-12T08:17:49.806Z</time>
      </trkpt>
      <trkpt lat="45.86317" lon="5.82413">
        <ele>244</ele>
        <time>2021-09-12T08:17:50.807Z</time>
      </trkpt>
      <trkpt lat="45.86312" lon="5.82411">
        <ele>244</ele>
        <time>2021-09-12T08:17:51.807Z</time>
      </trkpt>
      <trkpt lat="45.86308" lon="5.82411">
        <ele>243</ele>
        <time>2021-09-12T08:17:52.807Z</time>
      </trkpt>
      <trkpt lat="45.86303" lon="5.8241">
        <ele>243</ele>
        <time>2021-09-12T08:17:53.807Z</time>
      </trkpt>
      <trkpt lat="45.86298" lon="5.82409">
        <ele>242</ele>
        <time>2021-09-12T08:17:54.807Z</time>
      </trkpt>
      <trkpt lat="45.86294" lon="5.82408">
        <ele>242</ele>
        <time>2021-09-12T08:17:55.807Z</time>
      </trkpt>
      <trkpt lat="45.86289" lon="5.82406">
        <ele>241</ele>
        <time>2021-09-12T08:17:56.806Z</time>
      </trkpt>
      <trkpt lat="45.86284" lon="5.82405">
        <ele>241</ele>
        <time>2021-09-12T08:17:57.807Z</time>
      </trkpt>
      <trkpt lat="45.8628" lon="5.82404">
        <ele>240</ele>
        <time>2021-09-12T08:17:58.807Z</time>
      </trkpt>
      <trkpt lat="45.86275" lon="5.82403">
        <ele>240</ele>
        <time>2021-09-12T08:17:59.807Z</time>
      </trkpt>
      <trkpt lat="45.8627" lon="5.82402">
        <ele>239</ele>
        <time>2021-09-12T08:18:00.807Z</time>
      </trkpt>
      <trkpt lat="45.86265" lon="5.82402">
        <ele>239</ele>
        <time>2021-09-12T08:18:01.806Z</time>
      </trkpt>
      <trkpt lat="45.8626" lon="5.82401">
        <ele>239</ele>
        <time>2021-09-12T08:18:02.806Z</time>
      </trkpt>
      <trkpt lat="45.86255" lon="5.824">
        <ele>239</ele>
        <time>2021-09-12T08:18:03.807Z</time>
      </trkpt>
      <trkpt lat="45.8625" lon="5.82399">
        <ele>240</ele>
        <time>2021-09-12T08:18:04.806Z</time>
      </trkpt>
      <trkpt lat="45.86245" lon="5.82398">
        <ele>239</ele>
        <time>2021-09-12T08:18:05.806Z</time>
      </trkpt>
      <trkpt lat="45.8624" lon="5.82398">
        <ele>239</ele>
        <time>2021-09-12T08:18:06.807Z</time>
      </trkpt>
      <trkpt lat="45.86235" lon="5.82397">
        <ele>240</ele>
        <time>2021-09-12T08:18:07.807Z</time>
      </trkpt>
      <trkpt lat="45.8623" lon="5.82396">
        <ele>240</ele>
        <time>2021-09-12T08:18:08.807Z</time>
      </trkpt>
      <trkpt lat="45.86225" lon="5.82395">
        <ele>239</ele>
        <time>2021-09-12T08:18:09.807Z</time>
      </trkpt>
      <trkpt lat="45.8622" lon="5.82394">
        <ele>239</ele>
        <time>2021-09-12T08:18:10.806Z</time>
      </trkpt>
      <trkpt lat="45.86215" lon="5.82393">
        <ele>240</ele>
        <time>2021-09-12T08:18:11.807Z</time>
      </trkpt>
      <trkpt lat="45.86209" lon="5.82392">
        <ele>240</ele>
        <time>2021-09-12T08:18:12.807Z</time>
      </trkpt>
      <trkpt lat="45.86204" lon="5.82391">
        <ele>240</ele>
        <time>2021-09-12T08:18:13.807Z</time>
      </trkpt>
      <trkpt lat="45.86199" lon="5.8239">
        <ele>241</ele>
        <time>2021-09-12T08:18:14.807Z</time>
      </trkpt>
      <trkpt lat="45.86194" lon="5.82389">
        <ele>242</ele>
        <time>2021-09-12T08:18:15.807Z</time>
      </trkpt>
      <trkpt lat="45.86189" lon="5.82388">
        <ele>243</ele>
        <time>2021-09-12T08:18:16.807Z</time>
      </trkpt>
      <trkpt lat="45.86184" lon="5.82387">
        <ele>243</ele>
        <time>2021-09-12T08:18:17.806Z</time>
      </trkpt>
      <trkpt lat="45.86179" lon="5.82385">
        <ele>244</ele>
        <time>2021-09-12T08:18:18.807Z</time>
      </trkpt>
      <trkpt lat="45.86174" lon="5.82383">
        <ele>245</ele>
        <time>2021-09-12T08:18:19.807Z</time>
      </trkpt>
      <trkpt lat="45.86169" lon="5.82381">
        <ele>245</ele>
        <time>2021-09-12T08:18:20.807Z</time>
      </trkpt>
      <trkpt lat="45.86164" lon="5.82378">
        <ele>245</ele>
        <time>2021-09-12T08:18:21.806Z</time>
      </trkpt>
      <trkpt lat="45.86159" lon="5.82375">
        <ele>245</ele>
        <time>2021-09-12T08:18:22.806Z</time>
      </trkpt>
      <trkpt lat="45.86155" lon="5.82372">
        <ele>246</ele>
        <time>2021-09-12T08:18:23.807Z</time>
      </trkpt>
      <trkpt lat="45.8615" lon="5.82368">
        <ele>245</ele>
        <time>2021-09-12T08:18:24.807Z</time>
      </trkpt>
      <trkpt lat="45.86146" lon="5.82365">
        <ele>245</ele>
        <time>2021-09-12T08:18:25.806Z</time>
      </trkpt>
      <trkpt lat="45.86142" lon="5.82361">
        <ele>245</ele>
        <time>2021-09-12T08:18:26.807Z</time>
      </trkpt>
      <trkpt lat="45.86137" lon="5.82358">
        <ele>245</ele>
        <time>2021-09-12T08:18:27.807Z</time>
      </trkpt>
      <trkpt lat="45.86133" lon="5.82354">
        <ele>245</ele>
        <time>2021-09-12T08:18:28.807Z</time>
      </trkpt>
      <trkpt lat="45.86129" lon="5.8235">
        <ele>245</ele>
        <time>2021-09-12T08:18:29.807Z</time>
      </trkpt>
      <trkpt lat="45.86124" lon="5.82347">
        <ele>245</ele>
        <time>2021-09-12T08:18:30.806Z</time>
      </trkpt>
      <trkpt lat="45.8612" lon="5.82343">
        <ele>244</ele>
        <time>2021-09-12T08:18:31.807Z</time>
      </trkpt>
      <trkpt lat="45.86115" lon="5.82339">
        <ele>244</ele>
        <time>2021-09-12T08:18:32.807Z</time>
      </trkpt>
      <trkpt lat="45.86111" lon="5.82336">
        <ele>243</ele>
        <time>2021-09-12T08:18:33.807Z</time>
      </trkpt>
      <trkpt lat="45.86106" lon="5.82333">
        <ele>242</ele>
        <time>2021-09-12T08:18:34.807Z</time>
      </trkpt>
      <trkpt lat="45.86102" lon="5.82329">
        <ele>242</ele>
        <time>2021-09-12T08:18:35.807Z</time>
      </trkpt>
      <trkpt lat="45.86097" lon="5.82325">
        <ele>241</ele>
        <time>2021-09-12T08:18:36.806Z</time>
      </trkpt>
      <trkpt lat="45.86093" lon="5.82322">
        <ele>241</ele>
        <time>2021-09-12T08:18:37.807Z</time>
      </trkpt>
      <trkpt lat="45.86088" lon="5.82319">
        <ele>240</ele>
        <time>2021-09-12T08:18:38.807Z</time>
      </trkpt>
      <trkpt lat="45.86084" lon="5.82315">
        <ele>240</ele>
        <time>2021-09-12T08:18:39.807Z</time>
      </trkpt>
      <trkpt lat="45.86079" lon="5.82312">
        <ele>240</ele>
        <time>2021-09-12T08:18:40.807Z</time>
      </trkpt>
      <trkpt lat="45.86075" lon="5.82308">
        <ele>240</ele>
        <time>2021-09-12T08:18:41.807Z</time>
      </trkpt>
      <trkpt lat="45.8607" lon="5.82305">
        <ele>240</ele>
        <time>2021-09-12T08:18:42.806Z</time>
      </trkpt>
      <trkpt lat="45.86066" lon="5.82302">
        <ele>240</ele>
        <time>2021-09-12T08:18:43.807Z</time>
      </trkpt>
      <trkpt lat="45.86062" lon="5.82299">
        <ele>241</ele>
        <time>2021-09-12T08:18:44.807Z</time>
      </trkpt>
      <trkpt lat="45.86057" lon="5.82296">
        <ele>241</ele>
        <time>2021-09-12T08:18:45.807Z</time>
      </trkpt>
      <trkpt lat="45.86053" lon="5.82293">
        <ele>242</ele>
        <time>2021-09-12T08:18:46.807Z</time>
      </trkpt>
      <trkpt lat="45.86049" lon="5.8229">
        <ele>242</ele>
        <time>2021-09-12T08:18:47.806Z</time>
      </trkpt>
      <trkpt lat="45.86044" lon="5.82287">
        <ele>242</ele>
        <time>2021-09-12T08:18:48.807Z</time>
      </trkpt>
      <trkpt lat="45.86039" lon="5.82284">
        <ele>242</ele>
        <time>2021-09-12T08:18:49.807Z</time>
      </trkpt>
      <trkpt lat="45.86035" lon="5.8228">
        <ele>242</ele>
        <time>2021-09-12T08:18:50.807Z</time>
      </trkpt>
      <trkpt lat="45.8603" lon="5.82277">
        <ele>242</ele>
        <time>2021-09-12T08:18:51.807Z</time>
      </trkpt>
      <trkpt lat="45.86026" lon="5.82274">
        <ele>242</ele>
        <time>2021-09-12T08:18:52.807Z</time>
      </trkpt>
      <trkpt lat="45.86021" lon="5.82271">
        <ele>242</ele>
        <time>2021-09-12T08:18:53.806Z</time>
      </trkpt>
      <trkpt lat="45.86016" lon="5.82268">
        <ele>242</ele>
        <time>2021-09-12T08:18:54.807Z</time>
      </trkpt>
      <trkpt lat="45.86012" lon="5.82265">
        <ele>242</ele>
        <time>2021-09-12T08:18:55.806Z</time>
      </trkpt>
      <trkpt lat="45.86007" lon="5.82263">
        <ele>242</ele>
        <time>2021-09-12T08:18:56.807Z</time>
      </trkpt>
      <trkpt lat="45.86003" lon="5.8226">
        <ele>242</ele>
        <time>2021-09-12T08:18:57.806Z</time>
      </trkpt>
      <trkpt lat="45.85998" lon="5.82258">
        <ele>242</ele>
        <time>2021-09-12T08:18:58.806Z</time>
      </trkpt>
      <trkpt lat="45.85993" lon="5.82256">
        <ele>242</ele>
        <time>2021-09-12T08:18:59.807Z</time>
      </trkpt>
      <trkpt lat="45.85988" lon="5.82253">
        <ele>242</ele>
        <time>2021-09-12T08:19:00.807Z</time>
      </trkpt>
      <trkpt lat="45.85983" lon="5.82251">
        <ele>242</ele>
        <time>2021-09-12T08:19:01.807Z</time>
      </trkpt>
      <trkpt lat="45.85978" lon="5.82249">
        <ele>241</ele>
        <time>2021-09-12T08:19:02.807Z</time>
      </trkpt>
      <trkpt lat="45.85973" lon="5.82247">
        <ele>241</ele>
        <time>2021-09-12T08:19:03.806Z</time>
      </trkpt>
      <trkpt lat="45.85969" lon="5.82245">
        <ele>240</ele>
        <time>2021-09-12T08:19:04.807Z</time>
      </trkpt>
      <trkpt lat="45.85964" lon="5.82244">
        <ele>240</ele>
        <time>2021-09-12T08:19:05.807Z</time>
      </trkpt>
      <trkpt lat="45.8596" lon="5.82243">
        <ele>240</ele>
        <time>2021-09-12T08:19:06.807Z</time>
      </trkpt>
      <trkpt lat="45.85955" lon="5.82242">
        <ele>240</ele>
        <time>2021-09-12T08:19:07.807Z</time>
      </trkpt>
      <trkpt lat="45.8595" lon="5.8224">
        <ele>241</ele>
        <time>2021-09-12T08:19:08.807Z</time>
      </trkpt>
      <trkpt lat="45.85945" lon="5.82239">
        <ele>241</ele>
        <time>2021-09-12T08:19:09.806Z</time>
      </trkpt>
      <trkpt lat="45.85941" lon="5.82237">
        <ele>241</ele>
        <time>2021-09-12T08:19:10.807Z</time>
      </trkpt>
      <trkpt lat="45.85936" lon="5.82235">
        <ele>241</ele>
        <time>2021-09-12T08:19:11.807Z</time>
      </trkpt>
      <trkpt lat="45.85932" lon="5.82233">
        <ele>241</ele>
        <time>2021-09-12T08:19:12.806Z</time>
      </trkpt>
      <trkpt lat="45.85927" lon="5.82231">
        <ele>241</ele>
        <time>2021-09-12T08:19:13.807Z</time>
      </trkpt>
      <trkpt lat="45.85923" lon="5.82229">
        <ele>241</ele>
        <time>2021-09-12T08:19:14.807Z</time>
      </trkpt>
      <trkpt lat="45.85918" lon="5.82227">
        <ele>241</ele>
        <time>2021-09-12T08:19:15.807Z</time>
      </trkpt>
      <trkpt lat="45.85913" lon="5.82226">
        <ele>240</ele>
        <time>2021-09-12T08:19:16.807Z</time>
      </trkpt>
      <trkpt lat="45.85909" lon="5.82224">
        <ele>240</ele>
        <time>2021-09-12T08:19:17.806Z</time>
      </trkpt>
      <trkpt lat="45.85904" lon="5.82223">
        <ele>240</ele>
        <time>2021-09-12T08:19:18.807Z</time>
      </trkpt>
      <trkpt lat="45.85899" lon="5.82221">
        <ele>240</ele>
        <time>2021-09-12T08:19:19.806Z</time>
      </trkpt>
      <trkpt lat="45.85894" lon="5.8222">
        <ele>240</ele>
        <time>2021-09-12T08:19:20.807Z</time>
      </trkpt>
      <trkpt lat="45.8589" lon="5.82217">
        <ele>240</ele>
        <time>2021-09-12T08:19:21.807Z</time>
      </trkpt>
      <trkpt lat="45.85885" lon="5.82216">
        <ele>239</ele>
        <time>2021-09-12T08:19:22.807Z</time>
      </trkpt>
      <trkpt lat="45.8588" lon="5.82214">
        <ele>239</ele>
        <time>2021-09-12T08:19:23.807Z</time>
      </trkpt>
      <trkpt lat="45.85876" lon="5.82212">
        <ele>239</ele>
        <time>2021-09-12T08:19:24.807Z</time>
      </trkpt>
      <trkpt lat="45.85871" lon="5.82211">
        <ele>238</ele>
        <time>2021-09-12T08:19:25.806Z</time>
      </trkpt>
      <trkpt lat="45.85866" lon="5.82209">
        <ele>238</ele>
        <time>2021-09-12T08:19:26.807Z</time>
      </trkpt>
      <trkpt lat="45.85861" lon="5.82207">
        <ele>238</ele>
        <time>2021-09-12T08:19:27.807Z</time>
      </trkpt>
      <trkpt lat="45.85856" lon="5.82206">
        <ele>238</ele>
        <time>2021-09-12T08:19:28.807Z</time>
      </trkpt>
      <trkpt lat="45.85851" lon="5.82204">
        <ele>238</ele>
        <time>2021-09-12T08:19:29.806Z</time>
      </trkpt>
      <trkpt lat="45.85846" lon="5.82203">
        <ele>238</ele>
        <time>2021-09-12T08:19:30.807Z</time>
      </trkpt>
      <trkpt lat="45.85841" lon="5.82202">
        <ele>238</ele>
        <time>2021-09-12T08:19:31.807Z</time>
      </trkpt>
      <trkpt lat="45.85837" lon="5.822">
        <ele>238</ele>
        <time>2021-09-12T08:19:32.807Z</time>
      </trkpt>
      <trkpt lat="45.85832" lon="5.82199">
        <ele>238</ele>
        <time>2021-09-12T08:19:33.807Z</time>
      </trkpt>
      <trkpt lat="45.85827" lon="5.82197">
        <ele>237</ele>
        <time>2021-09-12T08:19:34.807Z</time>
      </trkpt>
      <trkpt lat="45.85822" lon="5.82196">
        <ele>237</ele>
        <time>2021-09-12T08:19:35.806Z</time>
      </trkpt>
      <trkpt lat="45.85818" lon="5.82195">
        <ele>237</ele>
        <time>2021-09-12T08:19:36.807Z</time>
      </trkpt>
      <trkpt lat="45.85813" lon="5.82194">
        <ele>237</ele>
        <time>2021-09-12T08:19:37.807Z</time>
      </trkpt>
      <trkpt lat="45.85808" lon="5.82193">
        <ele>237</ele>
        <time>2021-09-12T08:19:38.807Z</time>
      </trkpt>
      <trkpt lat="45.85803" lon="5.82192">
        <ele>237</ele>
        <time>2021-09-12T08:19:39.807Z</time>
      </trkpt>
      <trkpt lat="45.85798" lon="5.82191">
        <ele>237</ele>
        <time>2021-09-12T08:19:40.807Z</time>
      </trkpt>
      <trkpt lat="45.85793" lon="5.82191">
        <ele>237</ele>
        <time>2021-09-12T08:19:41.807Z</time>
      </trkpt>
      <trkpt lat="45.85788" lon="5.8219">
        <ele>238</ele>
        <time>2021-09-12T08:19:42.806Z</time>
      </trkpt>
      <trkpt lat="45.85784" lon="5.82189">
        <ele>238</ele>
        <time>2021-09-12T08:19:43.807Z</time>
      </trkpt>
      <trkpt lat="45.85779" lon="5.82188">
        <ele>238</ele>
        <time>2021-09-12T08:19:44.807Z</time>
      </trkpt>
      <trkpt lat="45.85774" lon="5.82187">
        <ele>237</ele>
        <time>2021-09-12T08:19:45.807Z</time>
      </trkpt>
      <trkpt lat="45.85769" lon="5.82186">
        <ele>237</ele>
        <time>2021-09-12T08:19:46.806Z</time>
      </trkpt>
      <trkpt lat="45.85765" lon="5.82185">
        <ele>237</ele>
        <time>2021-09-12T08:19:47.807Z</time>
      </trkpt>
      <trkpt lat="45.8576" lon="5.82183">
        <ele>237</ele>
        <time>2021-09-12T08:19:48.807Z</time>
      </trkpt>
      <trkpt lat="45.85755" lon="5.82182">
        <ele>237</ele>
        <time>2021-09-12T08:19:49.807Z</time>
      </trkpt>
      <trkpt lat="45.8575" lon="5.82181">
        <ele>236</ele>
        <time>2021-09-12T08:19:50.806Z</time>
      </trkpt>
      <trkpt lat="45.85746" lon="5.82179">
        <ele>235</ele>
        <time>2021-09-12T08:19:51.807Z</time>
      </trkpt>
      <trkpt lat="45.85741" lon="5.82178">
        <ele>235</ele>
        <time>2021-09-12T08:19:52.807Z</time>
      </trkpt>
      <trkpt lat="45.85737" lon="5.82176">
        <ele>235</ele>
        <time>2021-09-12T08:19:53.806Z</time>
      </trkpt>
      <trkpt lat="45.85733" lon="5.82175">
        <ele>235</ele>
        <time>2021-09-12T08:19:54.807Z</time>
      </trkpt>
      <trkpt lat="45.85728" lon="5.82173">
        <ele>235</ele>
        <time>2021-09-12T08:19:55.807Z</time>
      </trkpt>
      <trkpt lat="45.85723" lon="5.82172">
        <ele>235</ele>
        <time>2021-09-12T08:19:56.807Z</time>
      </trkpt>
      <trkpt lat="45.85719" lon="5.8217">
        <ele>235</ele>
        <time>2021-09-12T08:19:57.807Z</time>
      </trkpt>
      <trkpt lat="45.85714" lon="5.82169">
        <ele>235</ele>
        <time>2021-09-12T08:19:58.807Z</time>
      </trkpt>
      <trkpt lat="45.8571" lon="5.82168">
        <ele>235</ele>
        <time>2021-09-12T08:19:59.807Z</time>
      </trkpt>
      <trkpt lat="45.85706" lon="5.82166">
        <ele>236</ele>
        <time>2021-09-12T08:20:00.807Z</time>
      </trkpt>
      <trkpt lat="45.85701" lon="5.82164">
        <ele>236</ele>
        <time>2021-09-12T08:20:01.807Z</time>
      </trkpt>
      <trkpt lat="45.85696" lon="5.82163">
        <ele>236</ele>
        <time>2021-09-12T08:20:02.807Z</time>
      </trkpt>
      <trkpt lat="45.85692" lon="5.82161">
        <ele>237</ele>
        <time>2021-09-12T08:20:03.807Z</time>
      </trkpt>
      <trkpt lat="45.85687" lon="5.82159">
        <ele>237</ele>
        <time>2021-09-12T08:20:04.806Z</time>
      </trkpt>
      <trkpt lat="45.85683" lon="5.82158">
        <ele>238</ele>
        <time>2021-09-12T08:20:05.807Z</time>
      </trkpt>
      <trkpt lat="45.85678" lon="5.82156">
        <ele>238</ele>
        <time>2021-09-12T08:20:06.807Z</time>
      </trkpt>
      <trkpt lat="45.85674" lon="5.82155">
        <ele>238</ele>
        <time>2021-09-12T08:20:07.807Z</time>
      </trkpt>
      <trkpt lat="45.85669" lon="5.82153">
        <ele>237</ele>
        <time>2021-09-12T08:20:08.807Z</time>
      </trkpt>
      <trkpt lat="45.85665" lon="5.82152">
        <ele>237</ele>
        <time>2021-09-12T08:20:09.807Z</time>
      </trkpt>
      <trkpt lat="45.8566" lon="5.8215">
        <ele>237</ele>
        <time>2021-09-12T08:20:10.807Z</time>
      </trkpt>
      <trkpt lat="45.85656" lon="5.82149">
        <ele>237</ele>
        <time>2021-09-12T08:20:11.807Z</time>
      </trkpt>
      <trkpt lat="45.85651" lon="5.82148">
        <ele>238</ele>
        <time>2021-09-12T08:20:12.807Z</time>
      </trkpt>
      <trkpt lat="45.85647" lon="5.82147">
        <ele>238</ele>
        <time>2021-09-12T08:20:13.807Z</time>
      </trkpt>
      <trkpt lat="45.85642" lon="5.82145">
        <ele>238</ele>
        <time>2021-09-12T08:20:14.807Z</time>
      </trkpt>
      <trkpt lat="45.85638" lon="5.82144">
        <ele>239</ele>
        <time>2021-09-12T08:20:15.807Z</time>
      </trkpt>
      <trkpt lat="45.85634" lon="5.82142">
        <ele>239</ele>
        <time>2021-09-12T08:20:16.806Z</time>
      </trkpt>
      <trkpt lat="45.85629" lon="5.82141">
        <ele>240</ele>
        <time>2021-09-12T08:20:17.806Z</time>
      </trkpt>
      <trkpt lat="45.85625" lon="5.82139">
        <ele>240</ele>
        <time>2021-09-12T08:20:18.807Z</time>
      </trkpt>
      <trkpt lat="45.8562" lon="5.82138">
        <ele>240</ele>
        <time>2021-09-12T08:20:19.807Z</time>
      </trkpt>
      <trkpt lat="45.85615" lon="5.82136">
        <ele>241</ele>
        <time>2021-09-12T08:20:20.806Z</time>
      </trkpt>
      <trkpt lat="45.85611" lon="5.82134">
        <ele>241</ele>
        <time>2021-09-12T08:20:21.807Z</time>
      </trkpt>
      <trkpt lat="45.85606" lon="5.82132">
        <ele>241</ele>
        <time>2021-09-12T08:20:22.807Z</time>
      </trkpt>
      <trkpt lat="45.85602" lon="5.82131">
        <ele>241</ele>
        <time>2021-09-12T08:20:23.807Z</time>
      </trkpt>
      <trkpt lat="45.85597" lon="5.82129">
        <ele>241</ele>
        <time>2021-09-12T08:20:24.806Z</time>
      </trkpt>
      <trkpt lat="45.85593" lon="5.82127">
        <ele>241</ele>
        <time>2021-09-12T08:20:25.806Z</time>
      </trkpt>
      <trkpt lat="45.85588" lon="5.82126">
        <ele>241</ele>
        <time>2021-09-12T08:20:26.806Z</time>
      </trkpt>
      <trkpt lat="45.85583" lon="5.82124">
        <ele>240</ele>
        <time>2021-09-12T08:20:27.807Z</time>
      </trkpt>
      <trkpt lat="45.85579" lon="5.82123">
        <ele>240</ele>
        <time>2021-09-12T08:20:28.806Z</time>
      </trkpt>
      <trkpt lat="45.85574" lon="5.82121">
        <ele>239</ele>
        <time>2021-09-12T08:20:29.806Z</time>
      </trkpt>
      <trkpt lat="45.8557" lon="5.82119">
        <ele>239</ele>
        <time>2021-09-12T08:20:30.807Z</time>
      </trkpt>
      <trkpt lat="45.85565" lon="5.82118">
        <ele>238</ele>
        <time>2021-09-12T08:20:31.807Z</time>
      </trkpt>
      <trkpt lat="45.85561" lon="5.82116">
        <ele>238</ele>
        <time>2021-09-12T08:20:32.806Z</time>
      </trkpt>
      <trkpt lat="45.85556" lon="5.82115">
        <ele>239</ele>
        <time>2021-09-12T08:20:33.806Z</time>
      </trkpt>
      <trkpt lat="45.85552" lon="5.82113">
        <ele>239</ele>
        <time>2021-09-12T08:20:34.806Z</time>
      </trkpt>
      <trkpt lat="45.85548" lon="5.82112">
        <ele>238</ele>
        <time>2021-09-12T08:20:35.807Z</time>
      </trkpt>
      <trkpt lat="45.85543" lon="5.8211">
        <ele>238</ele>
        <time>2021-09-12T08:20:36.807Z</time>
      </trkpt>
      <trkpt lat="45.85539" lon="5.82108">
        <ele>238</ele>
        <time>2021-09-12T08:20:37.807Z</time>
      </trkpt>
      <trkpt lat="45.85534" lon="5.82106">
        <ele>238</ele>
        <time>2021-09-12T08:20:38.807Z</time>
      </trkpt>
      <trkpt lat="45.85529" lon="5.82104">
        <ele>238</ele>
        <time>2021-09-12T08:20:39.806Z</time>
      </trkpt>
      <trkpt lat="45.85525" lon="5.82102">
        <ele>238</ele>
        <time>2021-09-12T08:20:40.807Z</time>
      </trkpt>
      <trkpt lat="45.8552" lon="5.821">
        <ele>239</ele>
        <time>2021-09-12T08:20:41.807Z</time>
      </trkpt>
      <trkpt lat="45.85516" lon="5.82098">
        <ele>239</ele>
        <time>2021-09-12T08:20:42.807Z</time>
      </trkpt>
      <trkpt lat="45.85511" lon="5.82096">
        <ele>239</ele>
        <time>2021-09-12T08:20:43.807Z</time>
      </trkpt>
      <trkpt lat="45.85507" lon="5.82094">
        <ele>239</ele>
        <time>2021-09-12T08:20:44.807Z</time>
      </trkpt>
      <trkpt lat="45.85502" lon="5.82091">
        <ele>240</ele>
        <time>2021-09-12T08:20:45.807Z</time>
      </trkpt>
      <trkpt lat="45.85497" lon="5.82089">
        <ele>240</ele>
        <time>2021-09-12T08:20:46.807Z</time>
      </trkpt>
      <trkpt lat="45.85492" lon="5.82088">
        <ele>240</ele>
        <time>2021-09-12T08:20:47.806Z</time>
      </trkpt>
      <trkpt lat="45.85487" lon="5.82086">
        <ele>240</ele>
        <time>2021-09-12T08:20:48.806Z</time>
      </trkpt>
      <trkpt lat="45.85483" lon="5.82084">
        <ele>240</ele>
        <time>2021-09-12T08:20:49.807Z</time>
      </trkpt>
      <trkpt lat="45.85478" lon="5.82081">
        <ele>240</ele>
        <time>2021-09-12T08:20:50.807Z</time>
      </trkpt>
      <trkpt lat="45.85473" lon="5.82079">
        <ele>240</ele>
        <time>2021-09-12T08:20:51.807Z</time>
      </trkpt>
      <trkpt lat="45.85468" lon="5.82077">
        <ele>239</ele>
        <time>2021-09-12T08:20:52.807Z</time>
      </trkpt>
      <trkpt lat="45.85464" lon="5.82075">
        <ele>239</ele>
        <time>2021-09-12T08:20:53.807Z</time>
      </trkpt>
      <trkpt lat="45.85459" lon="5.82074">
        <ele>239</ele>
        <time>2021-09-12T08:20:54.807Z</time>
      </trkpt>
      <trkpt lat="45.85454" lon="5.82072">
        <ele>239</ele>
        <time>2021-09-12T08:20:55.807Z</time>
      </trkpt>
      <trkpt lat="45.85449" lon="5.8207">
        <ele>239</ele>
        <time>2021-09-12T08:20:56.807Z</time>
      </trkpt>
      <trkpt lat="45.85444" lon="5.82068">
        <ele>238</ele>
        <time>2021-09-12T08:20:57.806Z</time>
      </trkpt>
      <trkpt lat="45.85439" lon="5.82065">
        <ele>238</ele>
        <time>2021-09-12T08:20:58.806Z</time>
      </trkpt>
      <trkpt lat="45.85434" lon="5.82063">
        <ele>238</ele>
        <time>2021-09-12T08:20:59.807Z</time>
      </trkpt>
      <trkpt lat="45.85429" lon="5.82061">
        <ele>237</ele>
        <time>2021-09-12T08:21:00.806Z</time>
      </trkpt>
      <trkpt lat="45.85424" lon="5.82058">
        <ele>237</ele>
        <time>2021-09-12T08:21:01.807Z</time>
      </trkpt>
      <trkpt lat="45.85419" lon="5.82056">
        <ele>236</ele>
        <time>2021-09-12T08:21:02.807Z</time>
      </trkpt>
      <trkpt lat="45.85414" lon="5.82054">
        <ele>236</ele>
        <time>2021-09-12T08:21:03.807Z</time>
      </trkpt>
      <trkpt lat="45.85409" lon="5.82052">
        <ele>236</ele>
        <time>2021-09-12T08:21:04.807Z</time>
      </trkpt>
      <trkpt lat="45.85404" lon="5.8205">
        <ele>236</ele>
        <time>2021-09-12T08:21:05.807Z</time>
      </trkpt>
      <trkpt lat="45.85399" lon="5.82049">
        <ele>237</ele>
        <time>2021-09-12T08:21:06.807Z</time>
      </trkpt>
      <trkpt lat="45.85394" lon="5.82047">
        <ele>237</ele>
        <time>2021-09-12T08:21:07.806Z</time>
      </trkpt>
      <trkpt lat="45.85389" lon="5.82046">
        <ele>237</ele>
        <time>2021-09-12T08:21:08.807Z</time>
      </trkpt>
      <trkpt lat="45.85384" lon="5.82044">
        <ele>237</ele>
        <time>2021-09-12T08:21:09.806Z</time>
      </trkpt>
      <trkpt lat="45.85379" lon="5.82042">
        <ele>237</ele>
        <time>2021-09-12T08:21:10.806Z</time>
      </trkpt>
      <trkpt lat="45.85375" lon="5.82041">
        <ele>238</ele>
        <time>2021-09-12T08:21:11.807Z</time>
      </trkpt>
      <trkpt lat="45.85369" lon="5.82039">
        <ele>238</ele>
        <time>2021-09-12T08:21:12.807Z</time>
      </trkpt>
      <trkpt lat="45.85364" lon="5.82037">
        <ele>238</ele>
        <time>2021-09-12T08:21:13.806Z</time>
      </trkpt>
      <trkpt lat="45.85358" lon="5.82035">
        <ele>237</ele>
        <time>2021-09-12T08:21:14.806Z</time>
      </trkpt>
      <trkpt lat="45.85352" lon="5.82032">
        <ele>237</ele>
        <time>2021-09-12T08:21:15.807Z</time>
      </trkpt>
      <trkpt lat="45.85346" lon="5.8203">
        <ele>237</ele>
        <time>2021-09-12T08:21:16.807Z</time>
      </trkpt>
      <trkpt lat="45.85339" lon="5.82028">
        <ele>237</ele>
        <time>2021-09-12T08:21:17.807Z</time>
      </trkpt>
      <trkpt lat="45.85333" lon="5.82025">
        <ele>237</ele>
        <time>2021-09-12T08:21:18.807Z</time>
      </trkpt>
      <trkpt lat="45.85327" lon="5.82023">
        <ele>237</ele>
        <time>2021-09-12T08:21:19.807Z</time>
      </trkpt>
      <trkpt lat="45.85321" lon="5.82021">
        <ele>236</ele>
        <time>2021-09-12T08:21:20.807Z</time>
      </trkpt>
      <trkpt lat="45.85315" lon="5.8202">
        <ele>237</ele>
        <time>2021-09-12T08:21:21.807Z</time>
      </trkpt>
      <trkpt lat="45.85309" lon="5.82018">
        <ele>236</ele>
        <time>2021-09-12T08:21:22.806Z</time>
      </trkpt>
      <trkpt lat="45.85303" lon="5.82016">
        <ele>237</ele>
        <time>2021-09-12T08:21:23.807Z</time>
      </trkpt>
      <trkpt lat="45.85297" lon="5.82014">
        <ele>237</ele>
        <time>2021-09-12T08:21:24.807Z</time>
      </trkpt>
      <trkpt lat="45.85292" lon="5.82011">
        <ele>237</ele>
        <time>2021-09-12T08:21:25.806Z</time>
      </trkpt>
      <trkpt lat="45.85286" lon="5.82009">
        <ele>237</ele>
        <time>2021-09-12T08:21:26.807Z</time>
      </trkpt>
      <trkpt lat="45.85281" lon="5.82007">
        <ele>237</ele>
        <time>2021-09-12T08:21:27.807Z</time>
      </trkpt>
      <trkpt lat="45.85276" lon="5.82005">
        <ele>237</ele>
        <time>2021-09-12T08:21:28.806Z</time>
      </trkpt>
      <trkpt lat="45.85271" lon="5.82003">
        <ele>237</ele>
        <time>2021-09-12T08:21:29.806Z</time>
      </trkpt>
      <trkpt lat="45.85266" lon="5.82002">
        <ele>237</ele>
        <time>2021-09-12T08:21:30.806Z</time>
      </trkpt>
      <trkpt lat="45.85261" lon="5.82">
        <ele>237</ele>
        <time>2021-09-12T08:21:31.807Z</time>
      </trkpt>
      <trkpt lat="45.85256" lon="5.81998">
        <ele>237</ele>
        <time>2021-09-12T08:21:32.807Z</time>
      </trkpt>
      <trkpt lat="45.8525" lon="5.81996">
        <ele>236</ele>
        <time>2021-09-12T08:21:33.807Z</time>
      </trkpt>
      <trkpt lat="45.85246" lon="5.81994">
        <ele>236</ele>
        <time>2021-09-12T08:21:34.806Z</time>
      </trkpt>
      <trkpt lat="45.85242" lon="5.81993">
        <ele>236</ele>
        <time>2021-09-12T08:21:35.807Z</time>
      </trkpt>
      <trkpt lat="45.85237" lon="5.81991">
        <ele>236</ele>
        <time>2021-09-12T08:21:36.806Z</time>
      </trkpt>
      <trkpt lat="45.85232" lon="5.81989">
        <ele>237</ele>
        <time>2021-09-12T08:21:37.807Z</time>
      </trkpt>
      <trkpt lat="45.85226" lon="5.81989">
        <ele>238</ele>
        <time>2021-09-12T08:21:38.807Z</time>
      </trkpt>
      <trkpt lat="45.85221" lon="5.81987">
        <ele>239</ele>
        <time>2021-09-12T08:21:39.807Z</time>
      </trkpt>
      <trkpt lat="45.85215" lon="5.81986">
        <ele>239</ele>
        <time>2021-09-12T08:21:40.806Z</time>
      </trkpt>
      <trkpt lat="45.8521" lon="5.81984">
        <ele>240</ele>
        <time>2021-09-12T08:21:41.807Z</time>
      </trkpt>
      <trkpt lat="45.85205" lon="5.81983">
        <ele>240</ele>
        <time>2021-09-12T08:21:42.807Z</time>
      </trkpt>
      <trkpt lat="45.852" lon="5.81981">
        <ele>241</ele>
        <time>2021-09-12T08:21:43.807Z</time>
      </trkpt>
      <trkpt lat="45.85195" lon="5.8198">
        <ele>241</ele>
        <time>2021-09-12T08:21:44.806Z</time>
      </trkpt>
      <trkpt lat="45.8519" lon="5.81979">
        <ele>241</ele>
        <time>2021-09-12T08:21:45.807Z</time>
      </trkpt>
      <trkpt lat="45.85183" lon="5.81978">
        <ele>241</ele>
        <time>2021-09-12T08:21:46.806Z</time>
      </trkpt>
      <trkpt lat="45.85179" lon="5.81977">
        <ele>242</ele>
        <time>2021-09-12T08:21:47.807Z</time>
      </trkpt>
      <trkpt lat="45.85174" lon="5.81976">
        <ele>242</ele>
        <time>2021-09-12T08:21:48.807Z</time>
      </trkpt>
      <trkpt lat="45.8517" lon="5.81975">
        <ele>243</ele>
        <time>2021-09-12T08:21:49.806Z</time>
      </trkpt>
      <trkpt lat="45.85166" lon="5.81974">
        <ele>243</ele>
        <time>2021-09-12T08:21:50.806Z</time>
      </trkpt>
      <trkpt lat="45.85163" lon="5.81971">
        <ele>242</ele>
        <time>2021-09-12T08:21:51.807Z</time>
      </trkpt>
      <trkpt lat="45.85162" lon="5.81968">
        <ele>242</ele>
        <time>2021-09-12T08:21:52.807Z</time>
      </trkpt>
      <trkpt lat="45.85161" lon="5.81964">
        <ele>241</ele>
        <time>2021-09-12T08:21:53.807Z</time>
      </trkpt>
      <trkpt lat="45.85161" lon="5.81961">
        <ele>241</ele>
        <time>2021-09-12T08:21:54.807Z</time>
      </trkpt>
      <trkpt lat="45.85161" lon="5.81957">
        <ele>242</ele>
        <time>2021-09-12T08:21:55.807Z</time>
      </trkpt>
      <trkpt lat="45.85162" lon="5.81954">
        <ele>242</ele>
        <time>2021-09-12T08:21:56.806Z</time>
      </trkpt>
      <trkpt lat="45.85162" lon="5.81951">
        <ele>242</ele>
        <time>2021-09-12T08:21:57.806Z</time>
      </trkpt>
      <trkpt lat="45.85162" lon="5.81948">
        <ele>241</ele>
        <time>2021-09-12T08:21:58.807Z</time>
      </trkpt>
      <trkpt lat="45.85162" lon="5.81945">
        <ele>241</ele>
        <time>2021-09-12T08:21:59.806Z</time>
      </trkpt>
      <trkpt lat="45.85163" lon="5.8194">
        <ele>241</ele>
        <time>2021-09-12T08:22:00.807Z</time>
      </trkpt>
      <trkpt lat="45.85164" lon="5.81936">
        <ele>241</ele>
        <time>2021-09-12T08:22:01.806Z</time>
      </trkpt>
      <trkpt lat="45.85165" lon="5.81931">
        <ele>240</ele>
        <time>2021-09-12T08:22:02.807Z</time>
      </trkpt>
      <trkpt lat="45.85166" lon="5.81926">
        <ele>240</ele>
        <time>2021-09-12T08:22:03.807Z</time>
      </trkpt>
      <trkpt lat="45.85167" lon="5.81921">
        <ele>240</ele>
        <time>2021-09-12T08:22:04.807Z</time>
      </trkpt>
      <trkpt lat="45.85168" lon="5.81916">
        <ele>240</ele>
        <time>2021-09-12T08:22:05.807Z</time>
      </trkpt>
      <trkpt lat="45.8517" lon="5.81911">
        <ele>240</ele>
        <time>2021-09-12T08:22:06.807Z</time>
      </trkpt>
      <trkpt lat="45.85171" lon="5.81906">
        <ele>240</ele>
        <time>2021-09-12T08:22:07.807Z</time>
      </trkpt>
      <trkpt lat="45.85172" lon="5.81902">
        <ele>239</ele>
        <time>2021-09-12T08:22:08.807Z</time>
      </trkpt>
      <trkpt lat="45.85172" lon="5.81897">
        <ele>239</ele>
        <time>2021-09-12T08:22:09.807Z</time>
      </trkpt>
      <trkpt lat="45.85173" lon="5.81892">
        <ele>239</ele>
        <time>2021-09-12T08:22:10.806Z</time>
      </trkpt>
      <trkpt lat="45.85174" lon="5.81888">
        <ele>238</ele>
        <time>2021-09-12T08:22:11.807Z</time>
      </trkpt>
      <trkpt lat="45.85175" lon="5.81884">
        <ele>238</ele>
        <time>2021-09-12T08:22:12.806Z</time>
      </trkpt>
      <trkpt lat="45.85176" lon="5.8188">
        <ele>238</ele>
        <time>2021-09-12T08:22:13.806Z</time>
      </trkpt>
      <trkpt lat="45.85176" lon="5.81876">
        <ele>238</ele>
        <time>2021-09-12T08:22:14.807Z</time>
      </trkpt>
      <trkpt lat="45.85177" lon="5.81871">
        <ele>238</ele>
        <time>2021-09-12T08:22:15.807Z</time>
      </trkpt>
      <trkpt lat="45.85177" lon="5.81868">
        <ele>238</ele>
        <time>2021-09-12T08:22:16.807Z</time>
      </trkpt>
      <trkpt lat="45.85178" lon="5.81864">
        <ele>237</ele>
        <time>2021-09-12T08:22:17.807Z</time>
      </trkpt>
      <trkpt lat="45.85179" lon="5.8186">
        <ele>237</ele>
        <time>2021-09-12T08:22:18.806Z</time>
      </trkpt>
      <trkpt lat="45.85179" lon="5.81856">
        <ele>237</ele>
        <time>2021-09-12T08:22:19.806Z</time>
      </trkpt>
      <trkpt lat="45.8518" lon="5.81853">
        <ele>237</ele>
        <time>2021-09-12T08:22:20.807Z</time>
      </trkpt>
      <trkpt lat="45.85181" lon="5.81849">
        <ele>236</ele>
        <time>2021-09-12T08:22:21.807Z</time>
      </trkpt>
      <trkpt lat="45.85181" lon="5.81846">
        <ele>236</ele>
        <time>2021-09-12T08:22:22.807Z</time>
      </trkpt>
      <trkpt lat="45.85182" lon="5.81842">
        <ele>236</ele>
        <time>2021-09-12T08:22:23.807Z</time>
      </trkpt>
      <trkpt lat="45.85183" lon="5.81838">
        <ele>235</ele>
        <time>2021-09-12T08:22:24.807Z</time>
      </trkpt>
      <trkpt lat="45.85184" lon="5.81833">
        <ele>235</ele>
        <time>2021-09-12T08:22:25.806Z</time>
      </trkpt>
      <trkpt lat="45.85185" lon="5.81828">
        <ele>235</ele>
        <time>2021-09-12T08:22:26.807Z</time>
      </trkpt>
      <trkpt lat="45.85186" lon="5.81823">
        <ele>235</ele>
        <time>2021-09-12T08:22:27.806Z</time>
      </trkpt>
      <trkpt lat="45.85187" lon="5.81817">
        <ele>234</ele>
        <time>2021-09-12T08:22:28.807Z</time>
      </trkpt>
      <trkpt lat="45.85188" lon="5.81812">
        <ele>234</ele>
        <time>2021-09-12T08:22:29.806Z</time>
      </trkpt>
      <trkpt lat="45.85189" lon="5.81807">
        <ele>235</ele>
        <time>2021-09-12T08:22:30.807Z</time>
      </trkpt>
      <trkpt lat="45.8519" lon="5.81802">
        <ele>234</ele>
        <time>2021-09-12T08:22:31.807Z</time>
      </trkpt>
      <trkpt lat="45.85191" lon="5.81796">
        <ele>234</ele>
        <time>2021-09-12T08:22:32.806Z</time>
      </trkpt>
      <trkpt lat="45.85192" lon="5.81791">
        <ele>234</ele>
        <time>2021-09-12T08:22:33.807Z</time>
      </trkpt>
      <trkpt lat="45.85193" lon="5.81786">
        <ele>234</ele>
        <time>2021-09-12T08:22:34.807Z</time>
      </trkpt>
      <trkpt lat="45.85195" lon="5.8178">
        <ele>235</ele>
        <time>2021-09-12T08:22:35.806Z</time>
      </trkpt>
      <trkpt lat="45.85195" lon="5.81774">
        <ele>235</ele>
        <time>2021-09-12T08:22:36.807Z</time>
      </trkpt>
      <trkpt lat="45.85196" lon="5.81769">
        <ele>235</ele>
        <time>2021-09-12T08:22:37.806Z</time>
      </trkpt>
      <trkpt lat="45.85197" lon="5.81763">
        <ele>235</ele>
        <time>2021-09-12T08:22:38.807Z</time>
      </trkpt>
      <trkpt lat="45.85198" lon="5.81757">
        <ele>235</ele>
        <time>2021-09-12T08:22:39.807Z</time>
      </trkpt>
      <trkpt lat="45.85199" lon="5.81751">
        <ele>235</ele>
        <time>2021-09-12T08:22:40.807Z</time>
      </trkpt>
      <trkpt lat="45.852" lon="5.81745">
        <ele>235</ele>
        <time>2021-09-12T08:22:41.807Z</time>
      </trkpt>
      <trkpt lat="45.85201" lon="5.8174">
        <ele>235</ele>
        <time>2021-09-12T08:22:42.806Z</time>
      </trkpt>
      <trkpt lat="45.85202" lon="5.81734">
        <ele>235</ele>
        <time>2021-09-12T08:22:43.807Z</time>
      </trkpt>
      <trkpt lat="45.85204" lon="5.81728">
        <ele>235</ele>
        <time>2021-09-12T08:22:44.806Z</time>
      </trkpt>
      <trkpt lat="45.85205" lon="5.81722">
        <ele>236</ele>
        <time>2021-09-12T08:22:45.807Z</time>
      </trkpt>
      <trkpt lat="45.85206" lon="5.81716">
        <ele>236</ele>
        <time>2021-09-12T08:22:46.807Z</time>
      </trkpt>
      <trkpt lat="45.85207" lon="5.8171">
        <ele>237</ele>
        <time>2021-09-12T08:22:47.806Z</time>
      </trkpt>
      <trkpt lat="45.85208" lon="5.81704">
        <ele>237</ele>
        <time>2021-09-12T08:22:48.807Z</time>
      </trkpt>
      <trkpt lat="45.85209" lon="5.81698">
        <ele>238</ele>
        <time>2021-09-12T08:22:49.806Z</time>
      </trkpt>
      <trkpt lat="45.8521" lon="5.81692">
        <ele>238</ele>
        <time>2021-09-12T08:22:50.807Z</time>
      </trkpt>
      <trkpt lat="45.85211" lon="5.81686">
        <ele>238</ele>
        <time>2021-09-12T08:22:51.807Z</time>
      </trkpt>
      <trkpt lat="45.85212" lon="5.8168">
        <ele>238</ele>
        <time>2021-09-12T08:22:52.807Z</time>
      </trkpt>
      <trkpt lat="45.85213" lon="5.81674">
        <ele>238</ele>
        <time>2021-09-12T08:22:53.807Z</time>
      </trkpt>
      <trkpt lat="45.85214" lon="5.81668">
        <ele>238</ele>
        <time>2021-09-12T08:22:54.807Z</time>
      </trkpt>
      <trkpt lat="45.85215" lon="5.81662">
        <ele>238</ele>
        <time>2021-09-12T08:22:55.806Z</time>
      </trkpt>
      <trkpt lat="45.85216" lon="5.81656">
        <ele>239</ele>
        <time>2021-09-12T08:22:56.807Z</time>
      </trkpt>
      <trkpt lat="45.85217" lon="5.81651">
        <ele>238</ele>
        <time>2021-09-12T08:22:57.807Z</time>
      </trkpt>
      <trkpt lat="45.85219" lon="5.81645">
        <ele>239</ele>
        <time>2021-09-12T08:22:58.807Z</time>
      </trkpt>
      <trkpt lat="45.8522" lon="5.81639">
        <ele>239</ele>
        <time>2021-09-12T08:22:59.806Z</time>
      </trkpt>
      <trkpt lat="45.85222" lon="5.81633">
        <ele>239</ele>
        <time>2021-09-12T08:23:00.807Z</time>
      </trkpt>
      <trkpt lat="45.85223" lon="5.81626">
        <ele>239</ele>
        <time>2021-09-12T08:23:01.806Z</time>
      </trkpt>
      <trkpt lat="45.85225" lon="5.8162">
        <ele>239</ele>
        <time>2021-09-12T08:23:02.807Z</time>
      </trkpt>
      <trkpt lat="45.85226" lon="5.81614">
        <ele>239</ele>
        <time>2021-09-12T08:23:03.806Z</time>
      </trkpt>
      <trkpt lat="45.85227" lon="5.81608">
        <ele>239</ele>
        <time>2021-09-12T08:23:04.807Z</time>
      </trkpt>
      <trkpt lat="45.85229" lon="5.81602">
        <ele>239</ele>
        <time>2021-09-12T08:23:05.807Z</time>
      </trkpt>
      <trkpt lat="45.85231" lon="5.81596">
        <ele>239</ele>
        <time>2021-09-12T08:23:06.807Z</time>
      </trkpt>
      <trkpt lat="45.85233" lon="5.81589">
        <ele>239</ele>
        <time>2021-09-12T08:23:07.807Z</time>
      </trkpt>
      <trkpt lat="45.85234" lon="5.81583">
        <ele>239</ele>
        <time>2021-09-12T08:23:08.807Z</time>
      </trkpt>
      <trkpt lat="45.85236" lon="5.81577">
        <ele>239</ele>
        <time>2021-09-12T08:23:09.807Z</time>
      </trkpt>
      <trkpt lat="45.85238" lon="5.81572">
        <ele>239</ele>
        <time>2021-09-12T08:23:10.806Z</time>
      </trkpt>
      <trkpt lat="45.8524" lon="5.81567">
        <ele>239</ele>
        <time>2021-09-12T08:23:11.807Z</time>
      </trkpt>
      <trkpt lat="45.85242" lon="5.81562">
        <ele>239</ele>
        <time>2021-09-12T08:23:12.807Z</time>
      </trkpt>
      <trkpt lat="45.85244" lon="5.81557">
        <ele>240</ele>
        <time>2021-09-12T08:23:13.806Z</time>
      </trkpt>
      <trkpt lat="45.85246" lon="5.81552">
        <ele>240</ele>
        <time>2021-09-12T08:23:14.807Z</time>
      </trkpt>
      <trkpt lat="45.85249" lon="5.81547">
        <ele>240</ele>
        <time>2021-09-12T08:23:15.807Z</time>
      </trkpt>
      <trkpt lat="45.85251" lon="5.81543">
        <ele>241</ele>
        <time>2021-09-12T08:23:16.806Z</time>
      </trkpt>
      <trkpt lat="45.85254" lon="5.81539">
        <ele>241</ele>
        <time>2021-09-12T08:23:17.806Z</time>
      </trkpt>
      <trkpt lat="45.85257" lon="5.81535">
        <ele>241</ele>
        <time>2021-09-12T08:23:18.807Z</time>
      </trkpt>
      <trkpt lat="45.85259" lon="5.8153">
        <ele>241</ele>
        <time>2021-09-12T08:23:19.807Z</time>
      </trkpt>
      <trkpt lat="45.85262" lon="5.81525">
        <ele>241</ele>
        <time>2021-09-12T08:23:20.806Z</time>
      </trkpt>
      <trkpt lat="45.85265" lon="5.8152">
        <ele>241</ele>
        <time>2021-09-12T08:23:21.807Z</time>
      </trkpt>
      <trkpt lat="45.85267" lon="5.81516">
        <ele>241</ele>
        <time>2021-09-12T08:23:22.807Z</time>
      </trkpt>
      <trkpt lat="45.8527" lon="5.81511">
        <ele>241</ele>
        <time>2021-09-12T08:23:23.807Z</time>
      </trkpt>
      <trkpt lat="45.85272" lon="5.81506">
        <ele>241</ele>
        <time>2021-09-12T08:23:24.807Z</time>
      </trkpt>
      <trkpt lat="45.85275" lon="5.81501">
        <ele>241</ele>
        <time>2021-09-12T08:23:25.807Z</time>
      </trkpt>
      <trkpt lat="45.85278" lon="5.81496">
        <ele>241</ele>
        <time>2021-09-12T08:23:26.807Z</time>
      </trkpt>
      <trkpt lat="45.8528" lon="5.81491">
        <ele>240</ele>
        <time>2021-09-12T08:23:27.807Z</time>
      </trkpt>
      <trkpt lat="45.85283" lon="5.81486">
        <ele>240</ele>
        <time>2021-09-12T08:23:28.807Z</time>
      </trkpt>
      <trkpt lat="45.85286" lon="5.81481">
        <ele>240</ele>
        <time>2021-09-12T08:23:29.807Z</time>
      </trkpt>
      <trkpt lat="45.85288" lon="5.81476">
        <ele>240</ele>
        <time>2021-09-12T08:23:30.807Z</time>
      </trkpt>
      <trkpt lat="45.85291" lon="5.81472">
        <ele>239</ele>
        <time>2021-09-12T08:23:31.807Z</time>
      </trkpt>
      <trkpt lat="45.85294" lon="5.81467">
        <ele>239</ele>
        <time>2021-09-12T08:23:32.807Z</time>
      </trkpt>
      <trkpt lat="45.85296" lon="5.81462">
        <ele>238</ele>
        <time>2021-09-12T08:23:33.806Z</time>
      </trkpt>
      <trkpt lat="45.85299" lon="5.81457">
        <ele>238</ele>
        <time>2021-09-12T08:23:34.807Z</time>
      </trkpt>
      <trkpt lat="45.85301" lon="5.81452">
        <ele>237</ele>
        <time>2021-09-12T08:23:35.806Z</time>
      </trkpt>
      <trkpt lat="45.85304" lon="5.81448">
        <ele>237</ele>
        <time>2021-09-12T08:23:36.806Z</time>
      </trkpt>
      <trkpt lat="45.85307" lon="5.81443">
        <ele>237</ele>
        <time>2021-09-12T08:23:37.807Z</time>
      </trkpt>
      <trkpt lat="45.85309" lon="5.81438">
        <ele>236</ele>
        <time>2021-09-12T08:23:38.807Z</time>
      </trkpt>
      <trkpt lat="45.85312" lon="5.81433">
        <ele>237</ele>
        <time>2021-09-12T08:23:39.807Z</time>
      </trkpt>
      <trkpt lat="45.85315" lon="5.81429">
        <ele>237</ele>
        <time>2021-09-12T08:23:40.807Z</time>
      </trkpt>
      <trkpt lat="45.85317" lon="5.81424">
        <ele>237</ele>
        <time>2021-09-12T08:23:41.806Z</time>
      </trkpt>
      <trkpt lat="45.8532" lon="5.81419">
        <ele>237</ele>
        <time>2021-09-12T08:23:42.807Z</time>
      </trkpt>
      <trkpt lat="45.85322" lon="5.81414">
        <ele>236</ele>
        <time>2021-09-12T08:23:43.807Z</time>
      </trkpt>
      <trkpt lat="45.85325" lon="5.81408">
        <ele>236</ele>
        <time>2021-09-12T08:23:44.807Z</time>
      </trkpt>
      <trkpt lat="45.85328" lon="5.81403">
        <ele>236</ele>
        <time>2021-09-12T08:23:45.806Z</time>
      </trkpt>
      <trkpt lat="45.8533" lon="5.81398">
        <ele>236</ele>
        <time>2021-09-12T08:23:46.806Z</time>
      </trkpt>
      <trkpt lat="45.85333" lon="5.81393">
        <ele>236</ele>
        <time>2021-09-12T08:23:47.807Z</time>
      </trkpt>
      <trkpt lat="45.85336" lon="5.81388">
        <ele>236</ele>
        <time>2021-09-12T08:23:48.806Z</time>
      </trkpt>
      <trkpt lat="45.85338" lon="5.81383">
        <ele>237</ele>
        <time>2021-09-12T08:23:49.806Z</time>
      </trkpt>
      <trkpt lat="45.85341" lon="5.81377">
        <ele>237</ele>
        <time>2021-09-12T08:23:50.806Z</time>
      </trkpt>
      <trkpt lat="45.85343" lon="5.81372">
        <ele>237</ele>
        <time>2021-09-12T08:23:51.806Z</time>
      </trkpt>
      <trkpt lat="45.85345" lon="5.81366">
        <ele>237</ele>
        <time>2021-09-12T08:23:52.806Z</time>
      </trkpt>
      <trkpt lat="45.85347" lon="5.8136">
        <ele>236</ele>
        <time>2021-09-12T08:23:53.806Z</time>
      </trkpt>
      <trkpt lat="45.85349" lon="5.81354">
        <ele>236</ele>
        <time>2021-09-12T08:23:54.806Z</time>
      </trkpt>
      <trkpt lat="45.85351" lon="5.81348">
        <ele>236</ele>
        <time>2021-09-12T08:23:55.806Z</time>
      </trkpt>
      <trkpt lat="45.85353" lon="5.81342">
        <ele>236</ele>
        <time>2021-09-12T08:23:56.807Z</time>
      </trkpt>
      <trkpt lat="45.85354" lon="5.81335">
        <ele>235</ele>
        <time>2021-09-12T08:23:57.807Z</time>
      </trkpt>
      <trkpt lat="45.85355" lon="5.81328">
        <ele>235</ele>
        <time>2021-09-12T08:23:58.806Z</time>
      </trkpt>
      <trkpt lat="45.85356" lon="5.81322">
        <ele>235</ele>
        <time>2021-09-12T08:23:59.807Z</time>
      </trkpt>
      <trkpt lat="45.85357" lon="5.81315">
        <ele>235</ele>
        <time>2021-09-12T08:24:00.807Z</time>
      </trkpt>
      <trkpt lat="45.85358" lon="5.81309">
        <ele>235</ele>
        <time>2021-09-12T08:24:01.806Z</time>
      </trkpt>
      <trkpt lat="45.85359" lon="5.81302">
        <ele>235</ele>
        <time>2021-09-12T08:24:02.807Z</time>
      </trkpt>
      <trkpt lat="45.85359" lon="5.81296">
        <ele>234</ele>
        <time>2021-09-12T08:24:03.806Z</time>
      </trkpt>
      <trkpt lat="45.85359" lon="5.81289">
        <ele>235</ele>
        <time>2021-09-12T08:24:04.806Z</time>
      </trkpt>
      <trkpt lat="45.85359" lon="5.81283">
        <ele>235</ele>
        <time>2021-09-12T08:24:05.806Z</time>
      </trkpt>
      <trkpt lat="45.85359" lon="5.81276">
        <ele>235</ele>
        <time>2021-09-12T08:24:06.806Z</time>
      </trkpt>
      <trkpt lat="45.85359" lon="5.81269">
        <ele>235</ele>
        <time>2021-09-12T08:24:07.807Z</time>
      </trkpt>
      <trkpt lat="45.85359" lon="5.81262">
        <ele>235</ele>
        <time>2021-09-12T08:24:08.807Z</time>
      </trkpt>
      <trkpt lat="45.85359" lon="5.81255">
        <ele>235</ele>
        <time>2021-09-12T08:24:09.807Z</time>
      </trkpt>
      <trkpt lat="45.85358" lon="5.81248">
        <ele>235</ele>
        <time>2021-09-12T08:24:10.807Z</time>
      </trkpt>
      <trkpt lat="45.85357" lon="5.81241">
        <ele>235</ele>
        <time>2021-09-12T08:24:11.807Z</time>
      </trkpt>
      <trkpt lat="45.85356" lon="5.81235">
        <ele>235</ele>
        <time>2021-09-12T08:24:12.806Z</time>
      </trkpt>
      <trkpt lat="45.85355" lon="5.81228">
        <ele>235</ele>
        <time>2021-09-12T08:24:13.807Z</time>
      </trkpt>
      <trkpt lat="45.85354" lon="5.81222">
        <ele>235</ele>
        <time>2021-09-12T08:24:14.807Z</time>
      </trkpt>
      <trkpt lat="45.85352" lon="5.81215">
        <ele>234</ele>
        <time>2021-09-12T08:24:15.806Z</time>
      </trkpt>
      <trkpt lat="45.85351" lon="5.81209">
        <ele>235</ele>
        <time>2021-09-12T08:24:16.806Z</time>
      </trkpt>
      <trkpt lat="45.85349" lon="5.81203">
        <ele>235</ele>
        <time>2021-09-12T08:24:17.807Z</time>
      </trkpt>
      <trkpt lat="45.85347" lon="5.81196">
        <ele>235</ele>
        <time>2021-09-12T08:24:18.807Z</time>
      </trkpt>
      <trkpt lat="45.85345" lon="5.8119">
        <ele>235</ele>
        <time>2021-09-12T08:24:19.807Z</time>
      </trkpt>
      <trkpt lat="45.85343" lon="5.81183">
        <ele>235</ele>
        <time>2021-09-12T08:24:20.807Z</time>
      </trkpt>
      <trkpt lat="45.85341" lon="5.81177">
        <ele>235</ele>
        <time>2021-09-12T08:24:21.807Z</time>
      </trkpt>
      <trkpt lat="45.85339" lon="5.81171">
        <ele>235</ele>
        <time>2021-09-12T08:24:22.807Z</time>
      </trkpt>
      <trkpt lat="45.85336" lon="5.81165">
        <ele>235</ele>
        <time>2021-09-12T08:24:23.807Z</time>
      </trkpt>
      <trkpt lat="45.85334" lon="5.81158">
        <ele>235</ele>
        <time>2021-09-12T08:24:24.806Z</time>
      </trkpt>
      <trkpt lat="45.85332" lon="5.81152">
        <ele>234</ele>
        <time>2021-09-12T08:24:25.807Z</time>
      </trkpt>
      <trkpt lat="45.85329" lon="5.81146">
        <ele>234</ele>
        <time>2021-09-12T08:24:26.807Z</time>
      </trkpt>
      <trkpt lat="45.85327" lon="5.81139">
        <ele>234</ele>
        <time>2021-09-12T08:24:27.807Z</time>
      </trkpt>
      <trkpt lat="45.85325" lon="5.81133">
        <ele>234</ele>
        <time>2021-09-12T08:24:28.806Z</time>
      </trkpt>
      <trkpt lat="45.85322" lon="5.81127">
        <ele>234</ele>
        <time>2021-09-12T08:24:29.807Z</time>
      </trkpt>
      <trkpt lat="45.8532" lon="5.81121">
        <ele>233</ele>
        <time>2021-09-12T08:24:30.807Z</time>
      </trkpt>
      <trkpt lat="45.85318" lon="5.81114">
        <ele>233</ele>
        <time>2021-09-12T08:24:31.806Z</time>
      </trkpt>
      <trkpt lat="45.85315" lon="5.81108">
        <ele>233</ele>
        <time>2021-09-12T08:24:32.807Z</time>
      </trkpt>
      <trkpt lat="45.85313" lon="5.81102">
        <ele>233</ele>
        <time>2021-09-12T08:24:33.806Z</time>
      </trkpt>
      <trkpt lat="45.85311" lon="5.81096">
        <ele>233</ele>
        <time>2021-09-12T08:24:34.807Z</time>
      </trkpt>
      <trkpt lat="45.85309" lon="5.8109">
        <ele>233</ele>
        <time>2021-09-12T08:24:35.807Z</time>
      </trkpt>
      <trkpt lat="45.85307" lon="5.81084">
        <ele>233</ele>
        <time>2021-09-12T08:24:36.806Z</time>
      </trkpt>
      <trkpt lat="45.85304" lon="5.81078">
        <ele>233</ele>
        <time>2021-09-12T08:24:37.807Z</time>
      </trkpt>
      <trkpt lat="45.85302" lon="5.81072">
        <ele>233</ele>
        <time>2021-09-12T08:24:38.806Z</time>
      </trkpt>
      <trkpt lat="45.853" lon="5.81066">
        <ele>233</ele>
        <time>2021-09-12T08:24:39.807Z</time>
      </trkpt>
      <trkpt lat="45.85297" lon="5.81059">
        <ele>233</ele>
        <time>2021-09-12T08:24:40.807Z</time>
      </trkpt>
      <trkpt lat="45.85295" lon="5.81053">
        <ele>233</ele>
        <time>2021-09-12T08:24:41.807Z</time>
      </trkpt>
      <trkpt lat="45.85292" lon="5.81047">
        <ele>233</ele>
        <time>2021-09-12T08:24:42.807Z</time>
      </trkpt>
      <trkpt lat="45.85289" lon="5.81041">
        <ele>233</ele>
        <time>2021-09-12T08:24:43.807Z</time>
      </trkpt>
      <trkpt lat="45.85287" lon="5.81035">
        <ele>233</ele>
        <time>2021-09-12T08:24:44.806Z</time>
      </trkpt>
      <trkpt lat="45.85284" lon="5.81029">
        <ele>233</ele>
        <time>2021-09-12T08:24:45.806Z</time>
      </trkpt>
      <trkpt lat="45.85282" lon="5.81023">
        <ele>233</ele>
        <time>2021-09-12T08:24:46.806Z</time>
      </trkpt>
      <trkpt lat="45.85279" lon="5.81017">
        <ele>234</ele>
        <time>2021-09-12T08:24:47.807Z</time>
      </trkpt>
      <trkpt lat="45.85276" lon="5.81011">
        <ele>234</ele>
        <time>2021-09-12T08:24:48.807Z</time>
      </trkpt>
      <trkpt lat="45.85273" lon="5.81006">
        <ele>234</ele>
        <time>2021-09-12T08:24:49.807Z</time>
      </trkpt>
      <trkpt lat="45.85269" lon="5.81">
        <ele>234</ele>
        <time>2021-09-12T08:24:50.807Z</time>
      </trkpt>
      <trkpt lat="45.85266" lon="5.80994">
        <ele>235</ele>
        <time>2021-09-12T08:24:51.807Z</time>
      </trkpt>
      <trkpt lat="45.85263" lon="5.80989">
        <ele>235</ele>
        <time>2021-09-12T08:24:52.807Z</time>
      </trkpt>
      <trkpt lat="45.8526" lon="5.80984">
        <ele>235</ele>
        <time>2021-09-12T08:24:53.806Z</time>
      </trkpt>
      <trkpt lat="45.85256" lon="5.80979">
        <ele>235</ele>
        <time>2021-09-12T08:24:54.806Z</time>
      </trkpt>
      <trkpt lat="45.85252" lon="5.80974">
        <ele>235</ele>
        <time>2021-09-12T08:24:55.807Z</time>
      </trkpt>
      <trkpt lat="45.85249" lon="5.80968">
        <ele>235</ele>
        <time>2021-09-12T08:24:56.806Z</time>
      </trkpt>
      <trkpt lat="45.85245" lon="5.80963">
        <ele>235</ele>
        <time>2021-09-12T08:24:57.807Z</time>
      </trkpt>
      <trkpt lat="45.85241" lon="5.80958">
        <ele>235</ele>
        <time>2021-09-12T08:24:58.807Z</time>
      </trkpt>
      <trkpt lat="45.85238" lon="5.80953">
        <ele>235</ele>
        <time>2021-09-12T08:24:59.807Z</time>
      </trkpt>
      <trkpt lat="45.85234" lon="5.80949">
        <ele>235</ele>
        <time>2021-09-12T08:25:00.807Z</time>
      </trkpt>
      <trkpt lat="45.8523" lon="5.80944">
        <ele>235</ele>
        <time>2021-09-12T08:25:01.807Z</time>
      </trkpt>
      <trkpt lat="45.85226" lon="5.8094">
        <ele>234</ele>
        <time>2021-09-12T08:25:02.807Z</time>
      </trkpt>
      <trkpt lat="45.85222" lon="5.80934">
        <ele>234</ele>
        <time>2021-09-12T08:25:03.807Z</time>
      </trkpt>
      <trkpt lat="45.85219" lon="5.80929">
        <ele>234</ele>
        <time>2021-09-12T08:25:04.807Z</time>
      </trkpt>
      <trkpt lat="45.85215" lon="5.80924">
        <ele>234</ele>
        <time>2021-09-12T08:25:05.807Z</time>
      </trkpt>
      <trkpt lat="45.85211" lon="5.8092">
        <ele>235</ele>
        <time>2021-09-12T08:25:06.807Z</time>
      </trkpt>
      <trkpt lat="45.85207" lon="5.80915">
        <ele>235</ele>
        <time>2021-09-12T08:25:07.806Z</time>
      </trkpt>
      <trkpt lat="45.85203" lon="5.8091">
        <ele>235</ele>
        <time>2021-09-12T08:25:08.806Z</time>
      </trkpt>
      <trkpt lat="45.85199" lon="5.80905">
        <ele>235</ele>
        <time>2021-09-12T08:25:09.807Z</time>
      </trkpt>
      <trkpt lat="45.85195" lon="5.80901">
        <ele>235</ele>
        <time>2021-09-12T08:25:10.807Z</time>
      </trkpt>
      <trkpt lat="45.85191" lon="5.80896">
        <ele>235</ele>
        <time>2021-09-12T08:25:11.807Z</time>
      </trkpt>
      <trkpt lat="45.85188" lon="5.80891">
        <ele>235</ele>
        <time>2021-09-12T08:25:12.806Z</time>
      </trkpt>
      <trkpt lat="45.85184" lon="5.80886">
        <ele>235</ele>
        <time>2021-09-12T08:25:13.807Z</time>
      </trkpt>
      <trkpt lat="45.8518" lon="5.80881">
        <ele>235</ele>
        <time>2021-09-12T08:25:14.806Z</time>
      </trkpt>
      <trkpt lat="45.85176" lon="5.80876">
        <ele>235</ele>
        <time>2021-09-12T08:25:15.807Z</time>
      </trkpt>
      <trkpt lat="45.85171" lon="5.80871">
        <ele>235</ele>
        <time>2021-09-12T08:25:16.807Z</time>
      </trkpt>
      <trkpt lat="45.85167" lon="5.80867">
        <ele>235</ele>
        <time>2021-09-12T08:25:17.807Z</time>
      </trkpt>
      <trkpt lat="45.85163" lon="5.80862">
        <ele>235</ele>
        <time>2021-09-12T08:25:18.807Z</time>
      </trkpt>
      <trkpt lat="45.85159" lon="5.80858">
        <ele>235</ele>
        <time>2021-09-12T08:25:19.806Z</time>
      </trkpt>
      <trkpt lat="45.85155" lon="5.80853">
        <ele>236</ele>
        <time>2021-09-12T08:25:20.807Z</time>
      </trkpt>
      <trkpt lat="45.85151" lon="5.80849">
        <ele>236</ele>
        <time>2021-09-12T08:25:21.807Z</time>
      </trkpt>
      <trkpt lat="45.85146" lon="5.80845">
        <ele>236</ele>
        <time>2021-09-12T08:25:22.807Z</time>
      </trkpt>
      <trkpt lat="45.85142" lon="5.80841">
        <ele>236</ele>
        <time>2021-09-12T08:25:23.807Z</time>
      </trkpt>
      <trkpt lat="45.85137" lon="5.80837">
        <ele>236</ele>
        <time>2021-09-12T08:25:24.807Z</time>
      </trkpt>
      <trkpt lat="45.85133" lon="5.80834">
        <ele>236</ele>
        <time>2021-09-12T08:25:25.806Z</time>
      </trkpt>
      <trkpt lat="45.85128" lon="5.80831">
        <ele>236</ele>
        <time>2021-09-12T08:25:26.807Z</time>
      </trkpt>
      <trkpt lat="45.85123" lon="5.80828">
        <ele>236</ele>
        <time>2021-09-12T08:25:27.807Z</time>
      </trkpt>
      <trkpt lat="45.85119" lon="5.80825">
        <ele>237</ele>
        <time>2021-09-12T08:25:28.807Z</time>
      </trkpt>
      <trkpt lat="45.85114" lon="5.80822">
        <ele>237</ele>
        <time>2021-09-12T08:25:29.807Z</time>
      </trkpt>
      <trkpt lat="45.85109" lon="5.8082">
        <ele>237</ele>
        <time>2021-09-12T08:25:30.807Z</time>
      </trkpt>
      <trkpt lat="45.85104" lon="5.80817">
        <ele>237</ele>
        <time>2021-09-12T08:25:31.807Z</time>
      </trkpt>
      <trkpt lat="45.851" lon="5.80814">
        <ele>237</ele>
        <time>2021-09-12T08:25:32.807Z</time>
      </trkpt>
      <trkpt lat="45.85095" lon="5.80812">
        <ele>237</ele>
        <time>2021-09-12T08:25:33.807Z</time>
      </trkpt>
      <trkpt lat="45.85091" lon="5.8081">
        <ele>238</ele>
        <time>2021-09-12T08:25:34.807Z</time>
      </trkpt>
      <trkpt lat="45.85086" lon="5.80807">
        <ele>238</ele>
        <time>2021-09-12T08:25:35.806Z</time>
      </trkpt>
      <trkpt lat="45.85081" lon="5.80805">
        <ele>238</ele>
        <time>2021-09-12T08:25:36.807Z</time>
      </trkpt>
      <trkpt lat="45.85077" lon="5.80803">
        <ele>238</ele>
        <time>2021-09-12T08:25:37.807Z</time>
      </trkpt>
      <trkpt lat="45.85071" lon="5.808">
        <ele>238</ele>
        <time>2021-09-12T08:25:38.807Z</time>
      </trkpt>
      <trkpt lat="45.85066" lon="5.80798">
        <ele>238</ele>
        <time>2021-09-12T08:25:39.806Z</time>
      </trkpt>
      <trkpt lat="45.85062" lon="5.80797">
        <ele>237</ele>
        <time>2021-09-12T08:25:40.807Z</time>
      </trkpt>
      <trkpt lat="45.85057" lon="5.80794">
        <ele>238</ele>
        <time>2021-09-12T08:25:41.807Z</time>
      </trkpt>
      <trkpt lat="45.85052" lon="5.80792">
        <ele>238</ele>
        <time>2021-09-12T08:25:42.807Z</time>
      </trkpt>
      <trkpt lat="45.85047" lon="5.8079">
        <ele>238</ele>
        <time>2021-09-12T08:25:43.806Z</time>
      </trkpt>
      <trkpt lat="45.85042" lon="5.80788">
        <ele>238</ele>
        <time>2021-09-12T08:25:44.807Z</time>
      </trkpt>
      <trkpt lat="45.85037" lon="5.80786">
        <ele>238</ele>
        <time>2021-09-12T08:25:45.806Z</time>
      </trkpt>
      <trkpt lat="45.85032" lon="5.80784">
        <ele>238</ele>
        <time>2021-09-12T08:25:46.807Z</time>
      </trkpt>
      <trkpt lat="45.85027" lon="5.80782">
        <ele>239</ele>
        <time>2021-09-12T08:25:47.807Z</time>
      </trkpt>
      <trkpt lat="45.85022" lon="5.8078">
        <ele>239</ele>
        <time>2021-09-12T08:25:48.807Z</time>
      </trkpt>
      <trkpt lat="45.85017" lon="5.80778">
        <ele>238</ele>
        <time>2021-09-12T08:25:49.806Z</time>
      </trkpt>
      <trkpt lat="45.85012" lon="5.80776">
        <ele>238</ele>
        <time>2021-09-12T08:25:50.807Z</time>
      </trkpt>
      <trkpt lat="45.85007" lon="5.80774">
        <ele>238</ele>
        <time>2021-09-12T08:25:51.807Z</time>
      </trkpt>
      <trkpt lat="45.85002" lon="5.80772">
        <ele>237</ele>
        <time>2021-09-12T08:25:52.806Z</time>
      </trkpt>
      <trkpt lat="45.84997" lon="5.80769">
        <ele>237</ele>
        <time>2021-09-12T08:25:53.807Z</time>
      </trkpt>
      <trkpt lat="45.84991" lon="5.80766">
        <ele>237</ele>
        <time>2021-09-12T08:25:54.807Z</time>
      </trkpt>
      <trkpt lat="45.84986" lon="5.80764">
        <ele>237</ele>
        <time>2021-09-12T08:25:55.806Z</time>
      </trkpt>
      <trkpt lat="45.84982" lon="5.80762">
        <ele>237</ele>
        <time>2021-09-12T08:25:56.807Z</time>
      </trkpt>
      <trkpt lat="45.84977" lon="5.8076">
        <ele>236</ele>
        <time>2021-09-12T08:25:57.806Z</time>
      </trkpt>
      <trkpt lat="45.84971" lon="5.80758">
        <ele>236</ele>
        <time>2021-09-12T08:25:58.807Z</time>
      </trkpt>
      <trkpt lat="45.84966" lon="5.80756">
        <ele>236</ele>
        <time>2021-09-12T08:25:59.807Z</time>
      </trkpt>
      <trkpt lat="45.84961" lon="5.80754">
        <ele>236</ele>
        <time>2021-09-12T08:26:00.806Z</time>
      </trkpt>
      <trkpt lat="45.84958" lon="5.80752">
        <ele>235</ele>
        <time>2021-09-12T08:26:01.807Z</time>
      </trkpt>
      <trkpt lat="45.84953" lon="5.8075">
        <ele>235</ele>
        <time>2021-09-12T08:26:02.807Z</time>
      </trkpt>
      <trkpt lat="45.84948" lon="5.80748">
        <ele>235</ele>
        <time>2021-09-12T08:26:03.807Z</time>
      </trkpt>
      <trkpt lat="45.84942" lon="5.80745">
        <ele>235</ele>
        <time>2021-09-12T08:26:04.806Z</time>
      </trkpt>
      <trkpt lat="45.84937" lon="5.80743">
        <ele>235</ele>
        <time>2021-09-12T08:26:05.806Z</time>
      </trkpt>
      <trkpt lat="45.84933" lon="5.80741">
        <ele>235</ele>
        <time>2021-09-12T08:26:06.807Z</time>
      </trkpt>
      <trkpt lat="45.84929" lon="5.8074">
        <ele>236</ele>
        <time>2021-09-12T08:26:07.807Z</time>
      </trkpt>
      <trkpt lat="45.84925" lon="5.80739">
        <ele>236</ele>
        <time>2021-09-12T08:26:08.807Z</time>
      </trkpt>
      <trkpt lat="45.8492" lon="5.80737">
        <ele>236</ele>
        <time>2021-09-12T08:26:09.806Z</time>
      </trkpt>
      <trkpt lat="45.84917" lon="5.80736">
        <ele>237</ele>
        <time>2021-09-12T08:26:10.806Z</time>
      </trkpt>
      <trkpt lat="45.84913" lon="5.80734">
        <ele>237</ele>
        <time>2021-09-12T08:26:11.807Z</time>
      </trkpt>
      <trkpt lat="45.84911" lon="5.80734">
        <ele>237</ele>
        <time>2021-09-12T08:26:12.807Z</time>
      </trkpt>
      <trkpt lat="45.84907" lon="5.80733">
        <ele>237</ele>
        <time>2021-09-12T08:26:13.807Z</time>
      </trkpt>
      <trkpt lat="45.84905" lon="5.80733">
        <ele>237</ele>
        <time>2021-09-12T08:26:14.806Z</time>
      </trkpt>
      <trkpt lat="45.84902" lon="5.80734">
        <ele>238</ele>
        <time>2021-09-12T08:26:15.806Z</time>
      </trkpt>
      <trkpt lat="45.849" lon="5.80735">
        <ele>238</ele>
        <time>2021-09-12T08:26:16.807Z</time>
      </trkpt>
      <trkpt lat="45.84897" lon="5.80737">
        <ele>238</ele>
        <time>2021-09-12T08:26:17.807Z</time>
      </trkpt>
      <trkpt lat="45.84895" lon="5.80739">
        <ele>238</ele>
        <time>2021-09-12T08:26:18.806Z</time>
      </trkpt>
      <trkpt lat="45.84892" lon="5.80741">
        <ele>238</ele>
        <time>2021-09-12T08:26:19.806Z</time>
      </trkpt>
      <trkpt lat="45.8489" lon="5.80744">
        <ele>238</ele>
        <time>2021-09-12T08:26:20.806Z</time>
      </trkpt>
      <trkpt lat="45.84888" lon="5.80747">
        <ele>239</ele>
        <time>2021-09-12T08:26:21.807Z</time>
      </trkpt>
      <trkpt lat="45.84886" lon="5.8075">
        <ele>239</ele>
        <time>2021-09-12T08:26:22.807Z</time>
      </trkpt>
      <trkpt lat="45.84883" lon="5.80754">
        <ele>239</ele>
        <time>2021-09-12T08:26:23.806Z</time>
      </trkpt>
      <trkpt lat="45.84881" lon="5.80758">
        <ele>239</ele>
        <time>2021-09-12T08:26:24.806Z</time>
      </trkpt>
      <trkpt lat="45.84878" lon="5.80762">
        <ele>239</ele>
        <time>2021-09-12T08:26:25.806Z</time>
      </trkpt>
      <trkpt lat="45.84874" lon="5.80766">
        <ele>239</ele>
        <time>2021-09-12T08:26:26.807Z</time>
      </trkpt>
      <trkpt lat="45.84871" lon="5.80768">
        <ele>239</ele>
        <time>2021-09-12T08:26:27.806Z</time>
      </trkpt>
      <trkpt lat="45.84868" lon="5.8077">
        <ele>239</ele>
        <time>2021-09-12T08:26:28.807Z</time>
      </trkpt>
      <trkpt lat="45.84864" lon="5.80772">
        <ele>239</ele>
        <time>2021-09-12T08:26:29.806Z</time>
      </trkpt>
      <trkpt lat="45.84861" lon="5.80773">
        <ele>239</ele>
        <time>2021-09-12T08:26:30.806Z</time>
      </trkpt>
      <trkpt lat="45.84858" lon="5.80774">
        <ele>240</ele>
        <time>2021-09-12T08:26:31.807Z</time>
      </trkpt>
      <trkpt lat="45.84854" lon="5.80773">
        <ele>240</ele>
        <time>2021-09-12T08:26:32.806Z</time>
      </trkpt>
      <trkpt lat="45.84852" lon="5.80773">
        <ele>240</ele>
        <time>2021-09-12T08:26:33.807Z</time>
      </trkpt>
      <trkpt lat="45.84849" lon="5.80772">
        <ele>240</ele>
        <time>2021-09-12T08:26:34.806Z</time>
      </trkpt>
      <trkpt lat="45.84846" lon="5.80772">
        <ele>240</ele>
        <time>2021-09-12T08:26:35.806Z</time>
      </trkpt>
      <trkpt lat="45.84842" lon="5.80771">
        <ele>240</ele>
        <time>2021-09-12T08:26:36.806Z</time>
      </trkpt>
      <trkpt lat="45.84839" lon="5.80769">
        <ele>240</ele>
        <time>2021-09-12T08:26:37.807Z</time>
      </trkpt>
      <trkpt lat="45.84836" lon="5.80766">
        <ele>239</ele>
        <time>2021-09-12T08:26:38.807Z</time>
      </trkpt>
      <trkpt lat="45.84834" lon="5.80762">
        <ele>239</ele>
        <time>2021-09-12T08:26:39.806Z</time>
      </trkpt>
      <trkpt lat="45.84832" lon="5.80758">
        <ele>238</ele>
        <time>2021-09-12T08:26:40.806Z</time>
      </trkpt>
      <trkpt lat="45.84829" lon="5.80754">
        <ele>238</ele>
        <time>2021-09-12T08:26:41.806Z</time>
      </trkpt>
      <trkpt lat="45.84827" lon="5.8075">
        <ele>238</ele>
        <time>2021-09-12T08:26:42.807Z</time>
      </trkpt>
      <trkpt lat="45.84823" lon="5.80746">
        <ele>238</ele>
        <time>2021-09-12T08:26:43.807Z</time>
      </trkpt>
      <trkpt lat="45.8482" lon="5.80743">
        <ele>238</ele>
        <time>2021-09-12T08:26:44.806Z</time>
      </trkpt>
      <trkpt lat="45.84816" lon="5.80742">
        <ele>237</ele>
        <time>2021-09-12T08:26:45.806Z</time>
      </trkpt>
      <trkpt lat="45.84812" lon="5.80742">
        <ele>237</ele>
        <time>2021-09-12T08:26:46.806Z</time>
      </trkpt>
      <trkpt lat="45.84808" lon="5.80743">
        <ele>237</ele>
        <time>2021-09-12T08:26:47.807Z</time>
      </trkpt>
      <trkpt lat="45.84804" lon="5.80745">
        <ele>237</ele>
        <time>2021-09-12T08:26:48.806Z</time>
      </trkpt>
      <trkpt lat="45.848" lon="5.80746">
        <ele>237</ele>
        <time>2021-09-12T08:26:49.806Z</time>
      </trkpt>
      <trkpt lat="45.84794" lon="5.80749">
        <ele>237</ele>
        <time>2021-09-12T08:26:50.806Z</time>
      </trkpt>
      <trkpt lat="45.84789" lon="5.80751">
        <ele>237</ele>
        <time>2021-09-12T08:26:51.806Z</time>
      </trkpt>
      <trkpt lat="45.84785" lon="5.80752">
        <ele>237</ele>
        <time>2021-09-12T08:26:52.807Z</time>
      </trkpt>
      <trkpt lat="45.84779" lon="5.80754">
        <ele>237</ele>
        <time>2021-09-12T08:26:53.807Z</time>
      </trkpt>
      <trkpt lat="45.84774" lon="5.80757">
        <ele>237</ele>
        <time>2021-09-12T08:26:54.806Z</time>
      </trkpt>
      <trkpt lat="45.8477" lon="5.80759">
        <ele>236</ele>
        <time>2021-09-12T08:26:55.806Z</time>
      </trkpt>
      <trkpt lat="45.84764" lon="5.80762">
        <ele>237</ele>
        <time>2021-09-12T08:26:56.806Z</time>
      </trkpt>
      <trkpt lat="45.84759" lon="5.80764">
        <ele>237</ele>
        <time>2021-09-12T08:26:57.806Z</time>
      </trkpt>
      <trkpt lat="45.84754" lon="5.80766">
        <ele>237</ele>
        <time>2021-09-12T08:26:58.806Z</time>
      </trkpt>
      <trkpt lat="45.84749" lon="5.80767">
        <ele>237</ele>
        <time>2021-09-12T08:26:59.807Z</time>
      </trkpt>
      <trkpt lat="45.84743" lon="5.80768">
        <ele>237</ele>
        <time>2021-09-12T08:27:00.806Z</time>
      </trkpt>
      <trkpt lat="45.84739" lon="5.80769">
        <ele>236</ele>
        <time>2021-09-12T08:27:01.806Z</time>
      </trkpt>
      <trkpt lat="45.84734" lon="5.80771">
        <ele>236</ele>
        <time>2021-09-12T08:27:02.807Z</time>
      </trkpt>
      <trkpt lat="45.84729" lon="5.80772">
        <ele>236</ele>
        <time>2021-09-12T08:27:03.806Z</time>
      </trkpt>
      <trkpt lat="45.84724" lon="5.80774">
        <ele>236</ele>
        <time>2021-09-12T08:27:04.806Z</time>
      </trkpt>
      <trkpt lat="45.84719" lon="5.80775">
        <ele>236</ele>
        <time>2021-09-12T08:27:05.806Z</time>
      </trkpt>
      <trkpt lat="45.84714" lon="5.80777">
        <ele>236</ele>
        <time>2021-09-12T08:27:06.806Z</time>
      </trkpt>
      <trkpt lat="45.84709" lon="5.80778">
        <ele>236</ele>
        <time>2021-09-12T08:27:07.806Z</time>
      </trkpt>
      <trkpt lat="45.84703" lon="5.8078">
        <ele>236</ele>
        <time>2021-09-12T08:27:08.807Z</time>
      </trkpt>
      <trkpt lat="45.84698" lon="5.80782">
        <ele>235</ele>
        <time>2021-09-12T08:27:09.807Z</time>
      </trkpt>
      <trkpt lat="45.84693" lon="5.80783">
        <ele>235</ele>
        <time>2021-09-12T08:27:10.807Z</time>
      </trkpt>
      <trkpt lat="45.84688" lon="5.80785">
        <ele>235</ele>
        <time>2021-09-12T08:27:11.806Z</time>
      </trkpt>
      <trkpt lat="45.84682" lon="5.80787">
        <ele>236</ele>
        <time>2021-09-12T08:27:12.806Z</time>
      </trkpt>
      <trkpt lat="45.84677" lon="5.80789">
        <ele>236</ele>
        <time>2021-09-12T08:27:13.807Z</time>
      </trkpt>
      <trkpt lat="45.84672" lon="5.80791">
        <ele>236</ele>
        <time>2021-09-12T08:27:14.806Z</time>
      </trkpt>
      <trkpt lat="45.84667" lon="5.80793">
        <ele>236</ele>
        <time>2021-09-12T08:27:15.806Z</time>
      </trkpt>
      <trkpt lat="45.84661" lon="5.80794">
        <ele>236</ele>
        <time>2021-09-12T08:27:16.807Z</time>
      </trkpt>
      <trkpt lat="45.84656" lon="5.80796">
        <ele>236</ele>
        <time>2021-09-12T08:27:17.806Z</time>
      </trkpt>
      <trkpt lat="45.84651" lon="5.80798">
        <ele>236</ele>
        <time>2021-09-12T08:27:18.807Z</time>
      </trkpt>
      <trkpt lat="45.84645" lon="5.808">
        <ele>236</ele>
        <time>2021-09-12T08:27:19.807Z</time>
      </trkpt>
      <trkpt lat="45.8464" lon="5.80802">
        <ele>235</ele>
        <time>2021-09-12T08:27:20.807Z</time>
      </trkpt>
      <trkpt lat="45.84634" lon="5.80804">
        <ele>235</ele>
        <time>2021-09-12T08:27:21.807Z</time>
      </trkpt>
      <trkpt lat="45.84629" lon="5.80806">
        <ele>235</ele>
        <time>2021-09-12T08:27:22.806Z</time>
      </trkpt>
      <trkpt lat="45.84624" lon="5.80808">
        <ele>235</ele>
        <time>2021-09-12T08:27:23.806Z</time>
      </trkpt>
      <trkpt lat="45.84618" lon="5.8081">
        <ele>234</ele>
        <time>2021-09-12T08:27:24.807Z</time>
      </trkpt>
      <trkpt lat="45.84612" lon="5.80812">
        <ele>234</ele>
        <time>2021-09-12T08:27:25.806Z</time>
      </trkpt>
      <trkpt lat="45.84607" lon="5.80814">
        <ele>234</ele>
        <time>2021-09-12T08:27:26.806Z</time>
      </trkpt>
      <trkpt lat="45.84602" lon="5.80816">
        <ele>234</ele>
        <time>2021-09-12T08:27:27.807Z</time>
      </trkpt>
      <trkpt lat="45.84596" lon="5.80818">
        <ele>234</ele>
        <time>2021-09-12T08:27:28.806Z</time>
      </trkpt>
      <trkpt lat="45.84591" lon="5.8082">
        <ele>234</ele>
        <time>2021-09-12T08:27:29.806Z</time>
      </trkpt>
      <trkpt lat="45.84585" lon="5.80822">
        <ele>234</ele>
        <time>2021-09-12T08:27:30.806Z</time>
      </trkpt>
      <trkpt lat="45.8458" lon="5.80824">
        <ele>233</ele>
        <time>2021-09-12T08:27:31.806Z</time>
      </trkpt>
      <trkpt lat="45.84575" lon="5.80826">
        <ele>233</ele>
        <time>2021-09-12T08:27:32.806Z</time>
      </trkpt>
      <trkpt lat="45.8457" lon="5.80828">
        <ele>233</ele>
        <time>2021-09-12T08:27:33.806Z</time>
      </trkpt>
      <trkpt lat="45.84565" lon="5.8083">
        <ele>233</ele>
        <time>2021-09-12T08:27:34.806Z</time>
      </trkpt>
      <trkpt lat="45.8456" lon="5.80831">
        <ele>233</ele>
        <time>2021-09-12T08:27:35.807Z</time>
      </trkpt>
      <trkpt lat="45.84555" lon="5.80833">
        <ele>233</ele>
        <time>2021-09-12T08:27:36.807Z</time>
      </trkpt>
      <trkpt lat="45.8455" lon="5.80834">
        <ele>233</ele>
        <time>2021-09-12T08:27:37.806Z</time>
      </trkpt>
      <trkpt lat="45.84545" lon="5.80837">
        <ele>233</ele>
        <time>2021-09-12T08:27:38.806Z</time>
      </trkpt>
      <trkpt lat="45.84541" lon="5.80839">
        <ele>233</ele>
        <time>2021-09-12T08:27:39.807Z</time>
      </trkpt>
      <trkpt lat="45.84536" lon="5.80841">
        <ele>234</ele>
        <time>2021-09-12T08:27:40.806Z</time>
      </trkpt>
      <trkpt lat="45.84533" lon="5.80843">
        <ele>234</ele>
        <time>2021-09-12T08:27:41.807Z</time>
      </trkpt>
      <trkpt lat="45.8453" lon="5.80844">
        <ele>234</ele>
        <time>2021-09-12T08:27:42.807Z</time>
      </trkpt>
      <trkpt lat="45.84527" lon="5.80845">
        <ele>234</ele>
        <time>2021-09-12T08:27:43.807Z</time>
      </trkpt>
      <trkpt lat="45.84525" lon="5.80846">
        <ele>233</ele>
        <time>2021-09-12T08:27:44.807Z</time>
      </trkpt>
      <trkpt lat="45.84524" lon="5.80846">
        <ele>233</ele>
        <time>2021-09-12T08:27:45.807Z</time>
      </trkpt>
      <trkpt lat="45.84523" lon="5.80847">
        <ele>233</ele>
        <time>2021-09-12T08:27:46.807Z</time>
      </trkpt>
      <trkpt lat="45.84523" lon="5.80846">
        <ele>234</ele>
        <time>2021-09-12T08:27:47.807Z</time>
      </trkpt>
      <trkpt lat="45.84523" lon="5.80846">
        <ele>233</ele>
        <time>2021-09-12T08:27:48.807Z</time>
      </trkpt>
      <trkpt lat="45.84523" lon="5.80846">
        <ele>233</ele>
        <time>2021-09-12T08:27:49.807Z</time>
      </trkpt>
      <trkpt lat="45.84522" lon="5.80842">
        <ele>232</ele>
        <time>2021-09-12T08:27:50.806Z</time>
      </trkpt>
      <trkpt lat="45.84521" lon="5.8084">
        <ele>232</ele>
        <time>2021-09-12T08:27:51.807Z</time>
      </trkpt>
      <trkpt lat="45.8452" lon="5.80838">
        <ele>232</ele>
        <time>2021-09-12T08:27:52.806Z</time>
      </trkpt>
      <trkpt lat="45.84519" lon="5.80836">
        <ele>232</ele>
        <time>2021-09-12T08:27:53.807Z</time>
      </trkpt>
      <trkpt lat="45.84517" lon="5.80834">
        <ele>233</ele>
        <time>2021-09-12T08:27:54.806Z</time>
      </trkpt>
      <trkpt lat="45.84515" lon="5.80833">
        <ele>233</ele>
        <time>2021-09-12T08:27:55.807Z</time>
      </trkpt>
      <trkpt lat="45.84513" lon="5.80834">
        <ele>234</ele>
        <time>2021-09-12T08:27:56.806Z</time>
      </trkpt>
      <trkpt lat="45.84509" lon="5.80834">
        <ele>234</ele>
        <time>2021-09-12T08:27:57.806Z</time>
      </trkpt>
      <trkpt lat="45.84506" lon="5.80836">
        <ele>234</ele>
        <time>2021-09-12T08:27:58.807Z</time>
      </trkpt>
      <trkpt lat="45.84503" lon="5.80838">
        <ele>235</ele>
        <time>2021-09-12T08:27:59.806Z</time>
      </trkpt>
      <trkpt lat="45.845" lon="5.8084">
        <ele>235</ele>
        <time>2021-09-12T08:28:00.806Z</time>
      </trkpt>
      <trkpt lat="45.84497" lon="5.80842">
        <ele>235</ele>
        <time>2021-09-12T08:28:01.806Z</time>
      </trkpt>
      <trkpt lat="45.84493" lon="5.80845">
        <ele>234</ele>
        <time>2021-09-12T08:28:02.806Z</time>
      </trkpt>
      <trkpt lat="45.84489" lon="5.80848">
        <ele>234</ele>
        <time>2021-09-12T08:28:03.807Z</time>
      </trkpt>
      <trkpt lat="45.84485" lon="5.80851">
        <ele>234</ele>
        <time>2021-09-12T08:28:04.807Z</time>
      </trkpt>
      <trkpt lat="45.84482" lon="5.80854">
        <ele>234</ele>
        <time>2021-09-12T08:28:05.806Z</time>
      </trkpt>
      <trkpt lat="45.84478" lon="5.80857">
        <ele>234</ele>
        <time>2021-09-12T08:28:06.806Z</time>
      </trkpt>
      <trkpt lat="45.84474" lon="5.8086">
        <ele>234</ele>
        <time>2021-09-12T08:28:07.807Z</time>
      </trkpt>
      <trkpt lat="45.8447" lon="5.80863">
        <ele>235</ele>
        <time>2021-09-12T08:28:08.807Z</time>
      </trkpt>
      <trkpt lat="45.84466" lon="5.80866">
        <ele>235</ele>
        <time>2021-09-12T08:28:09.807Z</time>
      </trkpt>
      <trkpt lat="45.84462" lon="5.80869">
        <ele>235</ele>
        <time>2021-09-12T08:28:10.806Z</time>
      </trkpt>
      <trkpt lat="45.84458" lon="5.80872">
        <ele>236</ele>
        <time>2021-09-12T08:28:11.806Z</time>
      </trkpt>
      <trkpt lat="45.84455" lon="5.80875">
        <ele>236</ele>
        <time>2021-09-12T08:28:12.806Z</time>
      </trkpt>
      <trkpt lat="45.84451" lon="5.80878">
        <ele>236</ele>
        <time>2021-09-12T08:28:13.807Z</time>
      </trkpt>
      <trkpt lat="45.84447" lon="5.80881">
        <ele>236</ele>
        <time>2021-09-12T08:28:14.806Z</time>
      </trkpt>
      <trkpt lat="45.84444" lon="5.80884">
        <ele>236</ele>
        <time>2021-09-12T08:28:15.806Z</time>
      </trkpt>
      <trkpt lat="45.8444" lon="5.80887">
        <ele>236</ele>
        <time>2021-09-12T08:28:16.806Z</time>
      </trkpt>
      <trkpt lat="45.84436" lon="5.80891">
        <ele>236</ele>
        <time>2021-09-12T08:28:17.807Z</time>
      </trkpt>
      <trkpt lat="45.84431" lon="5.80895">
        <ele>235</ele>
        <time>2021-09-12T08:28:18.806Z</time>
      </trkpt>
      <trkpt lat="45.84427" lon="5.80898">
        <ele>235</ele>
        <time>2021-09-12T08:28:19.806Z</time>
      </trkpt>
      <trkpt lat="45.84423" lon="5.809">
        <ele>234</ele>
        <time>2021-09-12T08:28:20.807Z</time>
      </trkpt>
      <trkpt lat="45.8442" lon="5.80903">
        <ele>234</ele>
        <time>2021-09-12T08:28:21.807Z</time>
      </trkpt>
      <trkpt lat="45.84415" lon="5.80906">
        <ele>234</ele>
        <time>2021-09-12T08:28:22.806Z</time>
      </trkpt>
      <trkpt lat="45.8441" lon="5.80909">
        <ele>233</ele>
        <time>2021-09-12T08:28:23.806Z</time>
      </trkpt>
      <trkpt lat="45.84407" lon="5.80911">
        <ele>233</ele>
        <time>2021-09-12T08:28:24.807Z</time>
      </trkpt>
      <trkpt lat="45.84404" lon="5.80913">
        <ele>233</ele>
        <time>2021-09-12T08:28:25.807Z</time>
      </trkpt>
      <trkpt lat="45.844" lon="5.80915">
        <ele>233</ele>
        <time>2021-09-12T08:28:26.806Z</time>
      </trkpt>
      <trkpt lat="45.84396" lon="5.80914">
        <ele>233</ele>
        <time>2021-09-12T08:28:27.807Z</time>
      </trkpt>
      <trkpt lat="45.84393" lon="5.80911">
        <ele>233</ele>
        <time>2021-09-12T08:28:28.807Z</time>
      </trkpt>
      <trkpt lat="45.84391" lon="5.80906">
        <ele>233</ele>
        <time>2021-09-12T08:28:29.806Z</time>
      </trkpt>
      <trkpt lat="45.84391" lon="5.80901">
        <ele>233</ele>
        <time>2021-09-12T08:28:30.807Z</time>
      </trkpt>
      <trkpt lat="45.8439" lon="5.80897">
        <ele>232</ele>
        <time>2021-09-12T08:28:31.806Z</time>
      </trkpt>
      <trkpt lat="45.84389" lon="5.80892">
        <ele>232</ele>
        <time>2021-09-12T08:28:32.807Z</time>
      </trkpt>
      <trkpt lat="45.84388" lon="5.80888">
        <ele>232</ele>
        <time>2021-09-12T08:28:33.807Z</time>
      </trkpt>
      <trkpt lat="45.84387" lon="5.80885">
        <ele>232</ele>
        <time>2021-09-12T08:28:34.807Z</time>
      </trkpt>
      <trkpt lat="45.84386" lon="5.80883">
        <ele>232</ele>
        <time>2021-09-12T08:28:35.806Z</time>
      </trkpt>
      <trkpt lat="45.84386" lon="5.80882">
        <ele>232</ele>
        <time>2021-09-12T08:28:36.806Z</time>
      </trkpt>
      <trkpt lat="45.84386" lon="5.80882">
        <ele>232</ele>
        <time>2021-09-12T08:28:37.806Z</time>
      </trkpt>
      <trkpt lat="45.84387" lon="5.80883">
        <ele>232</ele>
        <time>2021-09-12T08:28:38.807Z</time>
      </trkpt>
      <trkpt lat="45.84387" lon="5.80884">
        <ele>233</ele>
        <time>2021-09-12T08:28:39.806Z</time>
      </trkpt>
      <trkpt lat="45.84388" lon="5.80886">
        <ele>233</ele>
        <time>2021-09-12T08:28:40.806Z</time>
      </trkpt>
      <trkpt lat="45.84388" lon="5.80888">
        <ele>233</ele>
        <time>2021-09-12T08:28:41.806Z</time>
      </trkpt>
      <trkpt lat="45.84388" lon="5.80891">
        <ele>233</ele>
        <time>2021-09-12T08:28:42.806Z</time>
      </trkpt>
      <trkpt lat="45.84388" lon="5.80892">
        <ele>233</ele>
        <time>2021-09-12T08:28:43.807Z</time>
      </trkpt>
      <trkpt lat="45.84388" lon="5.80893">
        <ele>233</ele>
        <time>2021-09-12T08:28:44.806Z</time>
      </trkpt>
      <trkpt lat="45.84388" lon="5.80892">
        <ele>233</ele>
        <time>2021-09-12T08:28:45.806Z</time>
      </trkpt>
      <trkpt lat="45.84388" lon="5.80886">
        <ele>230</ele>
        <time>2021-09-12T08:28:46.807Z</time>
      </trkpt>
      <trkpt lat="45.84386" lon="5.80883">
        <ele>230</ele>
        <time>2021-09-12T08:28:47.807Z</time>
      </trkpt>
      <trkpt lat="45.84383" lon="5.80882">
        <ele>230</ele>
        <time>2021-09-12T08:28:48.806Z</time>
      </trkpt>
      <trkpt lat="45.8438" lon="5.80881">
        <ele>230</ele>
        <time>2021-09-12T08:28:49.807Z</time>
      </trkpt>
      <trkpt lat="45.84375" lon="5.80881">
        <ele>231</ele>
        <time>2021-09-12T08:28:50.807Z</time>
      </trkpt>
      <trkpt lat="45.84369" lon="5.80882">
        <ele>231</ele>
        <time>2021-09-12T08:28:51.806Z</time>
      </trkpt>
      <trkpt lat="45.84363" lon="5.80884">
        <ele>231</ele>
        <time>2021-09-12T08:28:52.807Z</time>
      </trkpt>
      <trkpt lat="45.84356" lon="5.80885">
        <ele>231</ele>
        <time>2021-09-12T08:28:53.807Z</time>
      </trkpt>
      <trkpt lat="45.84349" lon="5.80888">
        <ele>232</ele>
        <time>2021-09-12T08:28:54.806Z</time>
      </trkpt>
      <trkpt lat="45.84342" lon="5.80891">
        <ele>232</ele>
        <time>2021-09-12T08:28:55.806Z</time>
      </trkpt>
      <trkpt lat="45.84335" lon="5.80894">
        <ele>232</ele>
        <time>2021-09-12T08:28:56.807Z</time>
      </trkpt>
      <trkpt lat="45.84328" lon="5.80898">
        <ele>233</ele>
        <time>2021-09-12T08:28:57.806Z</time>
      </trkpt>
      <trkpt lat="45.84321" lon="5.80901">
        <ele>233</ele>
        <time>2021-09-12T08:28:58.807Z</time>
      </trkpt>
      <trkpt lat="45.84314" lon="5.80904">
        <ele>234</ele>
        <time>2021-09-12T08:28:59.806Z</time>
      </trkpt>
      <trkpt lat="45.84307" lon="5.80906">
        <ele>234</ele>
        <time>2021-09-12T08:29:00.806Z</time>
      </trkpt>
      <trkpt lat="45.843" lon="5.80908">
        <ele>235</ele>
        <time>2021-09-12T08:29:01.807Z</time>
      </trkpt>
      <trkpt lat="45.84292" lon="5.80909">
        <ele>235</ele>
        <time>2021-09-12T08:29:02.806Z</time>
      </trkpt>
      <trkpt lat="45.84286" lon="5.80911">
        <ele>236</ele>
        <time>2021-09-12T08:29:03.807Z</time>
      </trkpt>
      <trkpt lat="45.84279" lon="5.80912">
        <ele>237</ele>
        <time>2021-09-12T08:29:04.807Z</time>
      </trkpt>
      <trkpt lat="45.84272" lon="5.80913">
        <ele>237</ele>
        <time>2021-09-12T08:29:05.807Z</time>
      </trkpt>
      <trkpt lat="45.84266" lon="5.80914">
        <ele>238</ele>
        <time>2021-09-12T08:29:06.807Z</time>
      </trkpt>
      <trkpt lat="45.84259" lon="5.80914">
        <ele>238</ele>
        <time>2021-09-12T08:29:07.806Z</time>
      </trkpt>
      <trkpt lat="45.84252" lon="5.80914">
        <ele>239</ele>
        <time>2021-09-12T08:29:08.806Z</time>
      </trkpt>
      <trkpt lat="45.84246" lon="5.80913">
        <ele>239</ele>
        <time>2021-09-12T08:29:09.807Z</time>
      </trkpt>
      <trkpt lat="45.84239" lon="5.80911">
        <ele>240</ele>
        <time>2021-09-12T08:29:10.806Z</time>
      </trkpt>
      <trkpt lat="45.84233" lon="5.80908">
        <ele>240</ele>
        <time>2021-09-12T08:29:11.806Z</time>
      </trkpt>
      <trkpt lat="45.84226" lon="5.80905">
        <ele>240</ele>
        <time>2021-09-12T08:29:12.806Z</time>
      </trkpt>
      <trkpt lat="45.8422" lon="5.80901">
        <ele>240</ele>
        <time>2021-09-12T08:29:13.807Z</time>
      </trkpt>
      <trkpt lat="45.84214" lon="5.80897">
        <ele>239</ele>
        <time>2021-09-12T08:29:14.807Z</time>
      </trkpt>
      <trkpt lat="45.84208" lon="5.80893">
        <ele>239</ele>
        <time>2021-09-12T08:29:15.806Z</time>
      </trkpt>
      <trkpt lat="45.84201" lon="5.80889">
        <ele>238</ele>
        <time>2021-09-12T08:29:16.806Z</time>
      </trkpt>
      <trkpt lat="45.84195" lon="5.80886">
        <ele>238</ele>
        <time>2021-09-12T08:29:17.807Z</time>
      </trkpt>
      <trkpt lat="45.84189" lon="5.80883">
        <ele>237</ele>
        <time>2021-09-12T08:29:18.807Z</time>
      </trkpt>
      <trkpt lat="45.84183" lon="5.8088">
        <ele>237</ele>
        <time>2021-09-12T08:29:19.806Z</time>
      </trkpt>
      <trkpt lat="45.84176" lon="5.80877">
        <ele>236</ele>
        <time>2021-09-12T08:29:20.807Z</time>
      </trkpt>
      <trkpt lat="45.8417" lon="5.80874">
        <ele>236</ele>
        <time>2021-09-12T08:29:21.807Z</time>
      </trkpt>
      <trkpt lat="45.84164" lon="5.80871">
        <ele>236</ele>
        <time>2021-09-12T08:29:22.807Z</time>
      </trkpt>
      <trkpt lat="45.84157" lon="5.80869">
        <ele>235</ele>
        <time>2021-09-12T08:29:23.807Z</time>
      </trkpt>
      <trkpt lat="45.84151" lon="5.80866">
        <ele>235</ele>
        <time>2021-09-12T08:29:24.806Z</time>
      </trkpt>
      <trkpt lat="45.84145" lon="5.80865">
        <ele>235</ele>
        <time>2021-09-12T08:29:25.806Z</time>
      </trkpt>
      <trkpt lat="45.84139" lon="5.80863">
        <ele>235</ele>
        <time>2021-09-12T08:29:26.806Z</time>
      </trkpt>
      <trkpt lat="45.84133" lon="5.80862">
        <ele>235</ele>
        <time>2021-09-12T08:29:27.806Z</time>
      </trkpt>
      <trkpt lat="45.84128" lon="5.80861">
        <ele>235</ele>
        <time>2021-09-12T08:29:28.806Z</time>
      </trkpt>
      <trkpt lat="45.84123" lon="5.80861">
        <ele>236</ele>
        <time>2021-09-12T08:29:29.807Z</time>
      </trkpt>
      <trkpt lat="45.84121" lon="5.80861">
        <ele>236</ele>
        <time>2021-09-12T08:29:30.806Z</time>
      </trkpt>
      <trkpt lat="45.84119" lon="5.80861">
        <ele>236</ele>
        <time>2021-09-12T08:29:31.807Z</time>
      </trkpt>
      <trkpt lat="45.84119" lon="5.80861">
        <ele>236</ele>
        <time>2021-09-12T08:29:32.807Z</time>
      </trkpt>
      <trkpt lat="45.84119" lon="5.80861">
        <ele>236</ele>
        <time>2021-09-12T08:29:33.807Z</time>
      </trkpt>
      <trkpt lat="45.84119" lon="5.80862">
        <ele>237</ele>
        <time>2021-09-12T08:29:34.807Z</time>
      </trkpt>
      <trkpt lat="45.84119" lon="5.80862">
        <ele>237</ele>
        <time>2021-09-12T08:29:35.807Z</time>
      </trkpt>
      <trkpt lat="45.84117" lon="5.80862">
        <ele>237</ele>
        <time>2021-09-12T08:29:36.806Z</time>
      </trkpt>
      <trkpt lat="45.84115" lon="5.80862">
        <ele>237</ele>
        <time>2021-09-12T08:29:37.807Z</time>
      </trkpt>
      <trkpt lat="45.84113" lon="5.80863">
        <ele>237</ele>
        <time>2021-09-12T08:29:38.807Z</time>
      </trkpt>
      <trkpt lat="45.8411" lon="5.80863">
        <ele>238</ele>
        <time>2021-09-12T08:29:39.807Z</time>
      </trkpt>
      <trkpt lat="45.84107" lon="5.80863">
        <ele>238</ele>
        <time>2021-09-12T08:29:40.806Z</time>
      </trkpt>
      <trkpt lat="45.84104" lon="5.80864">
        <ele>239</ele>
        <time>2021-09-12T08:29:41.806Z</time>
      </trkpt>
      <trkpt lat="45.84102" lon="5.80864">
        <ele>239</ele>
        <time>2021-09-12T08:29:42.806Z</time>
      </trkpt>
      <trkpt lat="45.84099" lon="5.80864">
        <ele>239</ele>
        <time>2021-09-12T08:29:43.806Z</time>
      </trkpt>
      <trkpt lat="45.84097" lon="5.80864">
        <ele>240</ele>
        <time>2021-09-12T08:29:44.807Z</time>
      </trkpt>
      <trkpt lat="45.84094" lon="5.80864">
        <ele>240</ele>
        <time>2021-09-12T08:29:45.806Z</time>
      </trkpt>
      <trkpt lat="45.84091" lon="5.80864">
        <ele>240</ele>
        <time>2021-09-12T08:29:46.807Z</time>
      </trkpt>
      <trkpt lat="45.84088" lon="5.80864">
        <ele>240</ele>
        <time>2021-09-12T08:29:47.806Z</time>
      </trkpt>
      <trkpt lat="45.84084" lon="5.80864">
        <ele>239</ele>
        <time>2021-09-12T08:29:48.806Z</time>
      </trkpt>
      <trkpt lat="45.8408" lon="5.80865">
        <ele>239</ele>
        <time>2021-09-12T08:29:49.806Z</time>
      </trkpt>
      <trkpt lat="45.84076" lon="5.80866">
        <ele>239</ele>
        <time>2021-09-12T08:29:50.807Z</time>
      </trkpt>
      <trkpt lat="45.84072" lon="5.80867">
        <ele>239</ele>
        <time>2021-09-12T08:29:51.806Z</time>
      </trkpt>
      <trkpt lat="45.84067" lon="5.80868">
        <ele>239</ele>
        <time>2021-09-12T08:29:52.806Z</time>
      </trkpt>
      <trkpt lat="45.84063" lon="5.80869">
        <ele>239</ele>
        <time>2021-09-12T08:29:53.806Z</time>
      </trkpt>
      <trkpt lat="45.84059" lon="5.80869">
        <ele>238</ele>
        <time>2021-09-12T08:29:54.807Z</time>
      </trkpt>
      <trkpt lat="45.84055" lon="5.8087">
        <ele>238</ele>
        <time>2021-09-12T08:29:55.807Z</time>
      </trkpt>
      <trkpt lat="45.84052" lon="5.8087">
        <ele>237</ele>
        <time>2021-09-12T08:29:56.806Z</time>
      </trkpt>
      <trkpt lat="45.84048" lon="5.80871">
        <ele>237</ele>
        <time>2021-09-12T08:29:57.807Z</time>
      </trkpt>
      <trkpt lat="45.84044" lon="5.80871">
        <ele>237</ele>
        <time>2021-09-12T08:29:58.807Z</time>
      </trkpt>
      <trkpt lat="45.84041" lon="5.80873">
        <ele>236</ele>
        <time>2021-09-12T08:29:59.807Z</time>
      </trkpt>
      <trkpt lat="45.84037" lon="5.80873">
        <ele>236</ele>
        <time>2021-09-12T08:30:00.807Z</time>
      </trkpt>
      <trkpt lat="45.84033" lon="5.80874">
        <ele>236</ele>
        <time>2021-09-12T08:30:01.807Z</time>
      </trkpt>
      <trkpt lat="45.84029" lon="5.80874">
        <ele>236</ele>
        <time>2021-09-12T08:30:02.807Z</time>
      </trkpt>
      <trkpt lat="45.84025" lon="5.80875">
        <ele>236</ele>
        <time>2021-09-12T08:30:03.807Z</time>
      </trkpt>
      <trkpt lat="45.84021" lon="5.80875">
        <ele>236</ele>
        <time>2021-09-12T08:30:04.807Z</time>
      </trkpt>
      <trkpt lat="45.84017" lon="5.80876">
        <ele>237</ele>
        <time>2021-09-12T08:30:05.807Z</time>
      </trkpt>
      <trkpt lat="45.84013" lon="5.80876">
        <ele>237</ele>
        <time>2021-09-12T08:30:06.807Z</time>
      </trkpt>
      <trkpt lat="45.84009" lon="5.80876">
        <ele>237</ele>
        <time>2021-09-12T08:30:07.806Z</time>
      </trkpt>
      <trkpt lat="45.84004" lon="5.80876">
        <ele>237</ele>
        <time>2021-09-12T08:30:08.807Z</time>
      </trkpt>
      <trkpt lat="45.84" lon="5.80876">
        <ele>237</ele>
        <time>2021-09-12T08:30:09.807Z</time>
      </trkpt>
      <trkpt lat="45.83996" lon="5.80876">
        <ele>237</ele>
        <time>2021-09-12T08:30:10.807Z</time>
      </trkpt>
      <trkpt lat="45.83992" lon="5.80875">
        <ele>236</ele>
        <time>2021-09-12T08:30:11.806Z</time>
      </trkpt>
      <trkpt lat="45.83988" lon="5.80875">
        <ele>236</ele>
        <time>2021-09-12T08:30:12.807Z</time>
      </trkpt>
      <trkpt lat="45.83983" lon="5.80874">
        <ele>235</ele>
        <time>2021-09-12T08:30:13.807Z</time>
      </trkpt>
      <trkpt lat="45.83979" lon="5.80874">
        <ele>235</ele>
        <time>2021-09-12T08:30:14.806Z</time>
      </trkpt>
      <trkpt lat="45.83974" lon="5.80874">
        <ele>235</ele>
        <time>2021-09-12T08:30:15.806Z</time>
      </trkpt>
      <trkpt lat="45.8397" lon="5.80873">
        <ele>235</ele>
        <time>2021-09-12T08:30:16.806Z</time>
      </trkpt>
      <trkpt lat="45.83965" lon="5.80872">
        <ele>234</ele>
        <time>2021-09-12T08:30:17.806Z</time>
      </trkpt>
      <trkpt lat="45.8396" lon="5.80871">
        <ele>234</ele>
        <time>2021-09-12T08:30:18.806Z</time>
      </trkpt>
      <trkpt lat="45.83956" lon="5.8087">
        <ele>234</ele>
        <time>2021-09-12T08:30:19.807Z</time>
      </trkpt>
      <trkpt lat="45.83951" lon="5.80869">
        <ele>234</ele>
        <time>2021-09-12T08:30:20.806Z</time>
      </trkpt>
      <trkpt lat="45.83947" lon="5.80867">
        <ele>233</ele>
        <time>2021-09-12T08:30:21.807Z</time>
      </trkpt>
      <trkpt lat="45.83942" lon="5.80865">
        <ele>233</ele>
        <time>2021-09-12T08:30:22.807Z</time>
      </trkpt>
      <trkpt lat="45.83938" lon="5.80863">
        <ele>233</ele>
        <time>2021-09-12T08:30:23.807Z</time>
      </trkpt>
      <trkpt lat="45.83934" lon="5.80861">
        <ele>233</ele>
        <time>2021-09-12T08:30:24.807Z</time>
      </trkpt>
      <trkpt lat="45.83929" lon="5.80859">
        <ele>233</ele>
        <time>2021-09-12T08:30:25.806Z</time>
      </trkpt>
      <trkpt lat="45.83925" lon="5.80857">
        <ele>233</ele>
        <time>2021-09-12T08:30:26.806Z</time>
      </trkpt>
      <trkpt lat="45.8392" lon="5.80855">
        <ele>233</ele>
        <time>2021-09-12T08:30:27.807Z</time>
      </trkpt>
      <trkpt lat="45.83915" lon="5.80855">
        <ele>233</ele>
        <time>2021-09-12T08:30:28.806Z</time>
      </trkpt>
      <trkpt lat="45.83911" lon="5.80855">
        <ele>233</ele>
        <time>2021-09-12T08:30:29.807Z</time>
      </trkpt>
      <trkpt lat="45.83906" lon="5.80856">
        <ele>233</ele>
        <time>2021-09-12T08:30:30.807Z</time>
      </trkpt>
      <trkpt lat="45.83902" lon="5.80857">
        <ele>234</ele>
        <time>2021-09-12T08:30:31.806Z</time>
      </trkpt>
      <trkpt lat="45.83897" lon="5.8086">
        <ele>235</ele>
        <time>2021-09-12T08:30:32.806Z</time>
      </trkpt>
      <trkpt lat="45.83893" lon="5.80863">
        <ele>235</ele>
        <time>2021-09-12T08:30:33.806Z</time>
      </trkpt>
      <trkpt lat="45.8389" lon="5.80867">
        <ele>235</ele>
        <time>2021-09-12T08:30:34.807Z</time>
      </trkpt>
      <trkpt lat="45.83886" lon="5.80871">
        <ele>236</ele>
        <time>2021-09-12T08:30:35.807Z</time>
      </trkpt>
      <trkpt lat="45.83883" lon="5.80877">
        <ele>236</ele>
        <time>2021-09-12T08:30:36.806Z</time>
      </trkpt>
      <trkpt lat="45.8388" lon="5.80882">
        <ele>236</ele>
        <time>2021-09-12T08:30:37.806Z</time>
      </trkpt>
      <trkpt lat="45.83877" lon="5.80887">
        <ele>236</ele>
        <time>2021-09-12T08:30:38.806Z</time>
      </trkpt>
      <trkpt lat="45.83873" lon="5.80893">
        <ele>236</ele>
        <time>2021-09-12T08:30:39.807Z</time>
      </trkpt>
      <trkpt lat="45.8387" lon="5.80898">
        <ele>236</ele>
        <time>2021-09-12T08:30:40.807Z</time>
      </trkpt>
      <trkpt lat="45.83866" lon="5.80903">
        <ele>237</ele>
        <time>2021-09-12T08:30:41.806Z</time>
      </trkpt>
      <trkpt lat="45.83862" lon="5.80907">
        <ele>237</ele>
        <time>2021-09-12T08:30:42.807Z</time>
      </trkpt>
      <trkpt lat="45.83857" lon="5.80911">
        <ele>236</ele>
        <time>2021-09-12T08:30:43.806Z</time>
      </trkpt>
      <trkpt lat="45.83853" lon="5.80915">
        <ele>236</ele>
        <time>2021-09-12T08:30:44.807Z</time>
      </trkpt>
      <trkpt lat="45.83848" lon="5.80918">
        <ele>236</ele>
        <time>2021-09-12T08:30:45.807Z</time>
      </trkpt>
      <trkpt lat="45.83844" lon="5.80921">
        <ele>236</ele>
        <time>2021-09-12T08:30:46.807Z</time>
      </trkpt>
      <trkpt lat="45.83839" lon="5.80923">
        <ele>237</ele>
        <time>2021-09-12T08:30:47.807Z</time>
      </trkpt>
      <trkpt lat="45.83834" lon="5.80925">
        <ele>237</ele>
        <time>2021-09-12T08:30:48.806Z</time>
      </trkpt>
      <trkpt lat="45.83829" lon="5.80926">
        <ele>236</ele>
        <time>2021-09-12T08:30:49.807Z</time>
      </trkpt>
      <trkpt lat="45.83824" lon="5.80928">
        <ele>236</ele>
        <time>2021-09-12T08:30:50.807Z</time>
      </trkpt>
      <trkpt lat="45.83819" lon="5.80929">
        <ele>236</ele>
        <time>2021-09-12T08:30:51.806Z</time>
      </trkpt>
      <trkpt lat="45.83814" lon="5.8093">
        <ele>236</ele>
        <time>2021-09-12T08:30:52.806Z</time>
      </trkpt>
      <trkpt lat="45.83809" lon="5.80931">
        <ele>236</ele>
        <time>2021-09-12T08:30:53.806Z</time>
      </trkpt>
      <trkpt lat="45.83804" lon="5.80932">
        <ele>237</ele>
        <time>2021-09-12T08:30:54.806Z</time>
      </trkpt>
      <trkpt lat="45.83799" lon="5.80933">
        <ele>237</ele>
        <time>2021-09-12T08:30:55.806Z</time>
      </trkpt>
      <trkpt lat="45.83794" lon="5.80934">
        <ele>237</ele>
        <time>2021-09-12T08:30:56.806Z</time>
      </trkpt>
      <trkpt lat="45.83789" lon="5.80935">
        <ele>237</ele>
        <time>2021-09-12T08:30:57.806Z</time>
      </trkpt>
      <trkpt lat="45.83784" lon="5.80936">
        <ele>236</ele>
        <time>2021-09-12T08:30:58.806Z</time>
      </trkpt>
      <trkpt lat="45.83779" lon="5.80937">
        <ele>236</ele>
        <time>2021-09-12T08:30:59.807Z</time>
      </trkpt>
      <trkpt lat="45.83774" lon="5.80938">
        <ele>235</ele>
        <time>2021-09-12T08:31:00.806Z</time>
      </trkpt>
      <trkpt lat="45.83769" lon="5.80938">
        <ele>235</ele>
        <time>2021-09-12T08:31:01.806Z</time>
      </trkpt>
      <trkpt lat="45.83764" lon="5.80939">
        <ele>235</ele>
        <time>2021-09-12T08:31:02.806Z</time>
      </trkpt>
      <trkpt lat="45.83759" lon="5.80939">
        <ele>234</ele>
        <time>2021-09-12T08:31:03.806Z</time>
      </trkpt>
      <trkpt lat="45.83755" lon="5.8094">
        <ele>235</ele>
        <time>2021-09-12T08:31:04.806Z</time>
      </trkpt>
      <trkpt lat="45.8375" lon="5.80941">
        <ele>235</ele>
        <time>2021-09-12T08:31:05.806Z</time>
      </trkpt>
      <trkpt lat="45.83746" lon="5.80942">
        <ele>236</ele>
        <time>2021-09-12T08:31:06.807Z</time>
      </trkpt>
      <trkpt lat="45.83741" lon="5.80943">
        <ele>237</ele>
        <time>2021-09-12T08:31:07.806Z</time>
      </trkpt>
      <trkpt lat="45.83737" lon="5.80944">
        <ele>238</ele>
        <time>2021-09-12T08:31:08.807Z</time>
      </trkpt>
      <trkpt lat="45.83733" lon="5.80945">
        <ele>238</ele>
        <time>2021-09-12T08:31:09.807Z</time>
      </trkpt>
      <trkpt lat="45.83728" lon="5.80946">
        <ele>238</ele>
        <time>2021-09-12T08:31:10.807Z</time>
      </trkpt>
      <trkpt lat="45.83723" lon="5.80947">
        <ele>238</ele>
        <time>2021-09-12T08:31:11.806Z</time>
      </trkpt>
      <trkpt lat="45.83718" lon="5.80948">
        <ele>238</ele>
        <time>2021-09-12T08:31:12.806Z</time>
      </trkpt>
      <trkpt lat="45.83713" lon="5.80948">
        <ele>238</ele>
        <time>2021-09-12T08:31:13.806Z</time>
      </trkpt>
      <trkpt lat="45.83708" lon="5.80948">
        <ele>238</ele>
        <time>2021-09-12T08:31:14.806Z</time>
      </trkpt>
      <trkpt lat="45.83702" lon="5.80947">
        <ele>238</ele>
        <time>2021-09-12T08:31:15.807Z</time>
      </trkpt>
      <trkpt lat="45.83696" lon="5.80946">
        <ele>238</ele>
        <time>2021-09-12T08:31:16.806Z</time>
      </trkpt>
      <trkpt lat="45.8369" lon="5.80945">
        <ele>238</ele>
        <time>2021-09-12T08:31:17.807Z</time>
      </trkpt>
      <trkpt lat="45.83685" lon="5.80944">
        <ele>238</ele>
        <time>2021-09-12T08:31:18.806Z</time>
      </trkpt>
      <trkpt lat="45.83679" lon="5.80943">
        <ele>238</ele>
        <time>2021-09-12T08:31:19.806Z</time>
      </trkpt>
      <trkpt lat="45.83674" lon="5.80942">
        <ele>238</ele>
        <time>2021-09-12T08:31:20.806Z</time>
      </trkpt>
      <trkpt lat="45.83669" lon="5.80941">
        <ele>237</ele>
        <time>2021-09-12T08:31:21.806Z</time>
      </trkpt>
      <trkpt lat="45.83663" lon="5.80941">
        <ele>237</ele>
        <time>2021-09-12T08:31:22.806Z</time>
      </trkpt>
      <trkpt lat="45.83658" lon="5.80941">
        <ele>236</ele>
        <time>2021-09-12T08:31:23.806Z</time>
      </trkpt>
      <trkpt lat="45.83653" lon="5.80942">
        <ele>236</ele>
        <time>2021-09-12T08:31:24.806Z</time>
      </trkpt>
      <trkpt lat="45.83648" lon="5.80943">
        <ele>236</ele>
        <time>2021-09-12T08:31:25.807Z</time>
      </trkpt>
      <trkpt lat="45.83643" lon="5.80944">
        <ele>236</ele>
        <time>2021-09-12T08:31:26.806Z</time>
      </trkpt>
      <trkpt lat="45.83638" lon="5.80945">
        <ele>236</ele>
        <time>2021-09-12T08:31:27.806Z</time>
      </trkpt>
      <trkpt lat="45.83633" lon="5.80945">
        <ele>236</ele>
        <time>2021-09-12T08:31:28.806Z</time>
      </trkpt>
      <trkpt lat="45.83628" lon="5.80945">
        <ele>236</ele>
        <time>2021-09-12T08:31:29.806Z</time>
      </trkpt>
      <trkpt lat="45.83623" lon="5.80944">
        <ele>236</ele>
        <time>2021-09-12T08:31:30.807Z</time>
      </trkpt>
      <trkpt lat="45.83619" lon="5.80943">
        <ele>236</ele>
        <time>2021-09-12T08:31:31.807Z</time>
      </trkpt>
      <trkpt lat="45.83614" lon="5.80941">
        <ele>235</ele>
        <time>2021-09-12T08:31:32.807Z</time>
      </trkpt>
      <trkpt lat="45.83609" lon="5.80939">
        <ele>235</ele>
        <time>2021-09-12T08:31:33.806Z</time>
      </trkpt>
      <trkpt lat="45.83604" lon="5.80938">
        <ele>235</ele>
        <time>2021-09-12T08:31:34.806Z</time>
      </trkpt>
      <trkpt lat="45.836" lon="5.80936">
        <ele>235</ele>
        <time>2021-09-12T08:31:35.806Z</time>
      </trkpt>
      <trkpt lat="45.83595" lon="5.80934">
        <ele>235</ele>
        <time>2021-09-12T08:31:36.806Z</time>
      </trkpt>
      <trkpt lat="45.8359" lon="5.80933">
        <ele>235</ele>
        <time>2021-09-12T08:31:37.807Z</time>
      </trkpt>
      <trkpt lat="45.83585" lon="5.80931">
        <ele>235</ele>
        <time>2021-09-12T08:31:38.806Z</time>
      </trkpt>
      <trkpt lat="45.8358" lon="5.80929">
        <ele>235</ele>
        <time>2021-09-12T08:31:39.806Z</time>
      </trkpt>
      <trkpt lat="45.83575" lon="5.80926">
        <ele>236</ele>
        <time>2021-09-12T08:31:40.806Z</time>
      </trkpt>
      <trkpt lat="45.83571" lon="5.80923">
        <ele>236</ele>
        <time>2021-09-12T08:31:41.806Z</time>
      </trkpt>
      <trkpt lat="45.83567" lon="5.80919">
        <ele>237</ele>
        <time>2021-09-12T08:31:42.806Z</time>
      </trkpt>
      <trkpt lat="45.83563" lon="5.80915">
        <ele>237</ele>
        <time>2021-09-12T08:31:43.806Z</time>
      </trkpt>
      <trkpt lat="45.83559" lon="5.80911">
        <ele>237</ele>
        <time>2021-09-12T08:31:44.807Z</time>
      </trkpt>
      <trkpt lat="45.83555" lon="5.80906">
        <ele>238</ele>
        <time>2021-09-12T08:31:45.807Z</time>
      </trkpt>
      <trkpt lat="45.83551" lon="5.80901">
        <ele>238</ele>
        <time>2021-09-12T08:31:46.807Z</time>
      </trkpt>
      <trkpt lat="45.83547" lon="5.80898">
        <ele>238</ele>
        <time>2021-09-12T08:31:47.807Z</time>
      </trkpt>
      <trkpt lat="45.83544" lon="5.80894">
        <ele>238</ele>
        <time>2021-09-12T08:31:48.807Z</time>
      </trkpt>
      <trkpt lat="45.8354" lon="5.80892">
        <ele>238</ele>
        <time>2021-09-12T08:31:49.806Z</time>
      </trkpt>
      <trkpt lat="45.83535" lon="5.80889">
        <ele>238</ele>
        <time>2021-09-12T08:31:50.807Z</time>
      </trkpt>
      <trkpt lat="45.83531" lon="5.80887">
        <ele>238</ele>
        <time>2021-09-12T08:31:51.807Z</time>
      </trkpt>
      <trkpt lat="45.83527" lon="5.80886">
        <ele>237</ele>
        <time>2021-09-12T08:31:52.807Z</time>
      </trkpt>
      <trkpt lat="45.83522" lon="5.80885">
        <ele>237</ele>
        <time>2021-09-12T08:31:53.807Z</time>
      </trkpt>
      <trkpt lat="45.83518" lon="5.80883">
        <ele>237</ele>
        <time>2021-09-12T08:31:54.807Z</time>
      </trkpt>
      <trkpt lat="45.83517" lon="5.80878">
        <ele>237</ele>
        <time>2021-09-12T08:31:55.806Z</time>
      </trkpt>
      <trkpt lat="45.83517" lon="5.80872">
        <ele>237</ele>
        <time>2021-09-12T08:31:56.806Z</time>
      </trkpt>
      <trkpt lat="45.83517" lon="5.80867">
        <ele>237</ele>
        <time>2021-09-12T08:31:57.807Z</time>
      </trkpt>
      <trkpt lat="45.83519" lon="5.80861">
        <ele>237</ele>
        <time>2021-09-12T08:31:58.807Z</time>
      </trkpt>
      <trkpt lat="45.83521" lon="5.80854">
        <ele>237</ele>
        <time>2021-09-12T08:31:59.806Z</time>
      </trkpt>
      <trkpt lat="45.83523" lon="5.80848">
        <ele>236</ele>
        <time>2021-09-12T08:32:00.806Z</time>
      </trkpt>
      <trkpt lat="45.83526" lon="5.80841">
        <ele>236</ele>
        <time>2021-09-12T08:32:01.807Z</time>
      </trkpt>
      <trkpt lat="45.83528" lon="5.80836">
        <ele>236</ele>
        <time>2021-09-12T08:32:02.806Z</time>
      </trkpt>
      <trkpt lat="45.83531" lon="5.80831">
        <ele>236</ele>
        <time>2021-09-12T08:32:03.807Z</time>
      </trkpt>
      <trkpt lat="45.83533" lon="5.80827">
        <ele>236</ele>
        <time>2021-09-12T08:32:04.806Z</time>
      </trkpt>
      <trkpt lat="45.83535" lon="5.80823">
        <ele>236</ele>
        <time>2021-09-12T08:32:05.806Z</time>
      </trkpt>
      <trkpt lat="45.83538" lon="5.80819">
        <ele>236</ele>
        <time>2021-09-12T08:32:06.807Z</time>
      </trkpt>
      <trkpt lat="45.8354" lon="5.80815">
        <ele>236</ele>
        <time>2021-09-12T08:32:07.807Z</time>
      </trkpt>
      <trkpt lat="45.83543" lon="5.80811">
        <ele>236</ele>
        <time>2021-09-12T08:32:08.807Z</time>
      </trkpt>
      <trkpt lat="45.83545" lon="5.80807">
        <ele>236</ele>
        <time>2021-09-12T08:32:09.806Z</time>
      </trkpt>
      <trkpt lat="45.83547" lon="5.80802">
        <ele>236</ele>
        <time>2021-09-12T08:32:10.806Z</time>
      </trkpt>
      <trkpt lat="45.83549" lon="5.80798">
        <ele>236</ele>
        <time>2021-09-12T08:32:11.807Z</time>
      </trkpt>
      <trkpt lat="45.8355" lon="5.80793">
        <ele>236</ele>
        <time>2021-09-12T08:32:12.806Z</time>
      </trkpt>
      <trkpt lat="45.83552" lon="5.80789">
        <ele>236</ele>
        <time>2021-09-12T08:32:13.807Z</time>
      </trkpt>
      <trkpt lat="45.83554" lon="5.80785">
        <ele>236</ele>
        <time>2021-09-12T08:32:14.807Z</time>
      </trkpt>
      <trkpt lat="45.83555" lon="5.8078">
        <ele>236</ele>
        <time>2021-09-12T08:32:15.806Z</time>
      </trkpt>
      <trkpt lat="45.83557" lon="5.80776">
        <ele>236</ele>
        <time>2021-09-12T08:32:16.807Z</time>
      </trkpt>
      <trkpt lat="45.83559" lon="5.80771">
        <ele>236</ele>
        <time>2021-09-12T08:32:17.807Z</time>
      </trkpt>
      <trkpt lat="45.83561" lon="5.80766">
        <ele>235</ele>
        <time>2021-09-12T08:32:18.807Z</time>
      </trkpt>
      <trkpt lat="45.83563" lon="5.80762">
        <ele>235</ele>
        <time>2021-09-12T08:32:19.806Z</time>
      </trkpt>
      <trkpt lat="45.83565" lon="5.80757">
        <ele>235</ele>
        <time>2021-09-12T08:32:20.806Z</time>
      </trkpt>
      <trkpt lat="45.83567" lon="5.80753">
        <ele>235</ele>
        <time>2021-09-12T08:32:21.807Z</time>
      </trkpt>
      <trkpt lat="45.83568" lon="5.80748">
        <ele>235</ele>
        <time>2021-09-12T08:32:22.807Z</time>
      </trkpt>
      <trkpt lat="45.83569" lon="5.80743">
        <ele>235</ele>
        <time>2021-09-12T08:32:23.806Z</time>
      </trkpt>
      <trkpt lat="45.8357" lon="5.80738">
        <ele>235</ele>
        <time>2021-09-12T08:32:24.806Z</time>
      </trkpt>
      <trkpt lat="45.8357" lon="5.80732">
        <ele>235</ele>
        <time>2021-09-12T08:32:25.806Z</time>
      </trkpt>
      <trkpt lat="45.83569" lon="5.80727">
        <ele>235</ele>
        <time>2021-09-12T08:32:26.807Z</time>
      </trkpt>
      <trkpt lat="45.83568" lon="5.80722">
        <ele>234</ele>
        <time>2021-09-12T08:32:27.807Z</time>
      </trkpt>
      <trkpt lat="45.83567" lon="5.80717">
        <ele>234</ele>
        <time>2021-09-12T08:32:28.807Z</time>
      </trkpt>
      <trkpt lat="45.83564" lon="5.80712">
        <ele>234</ele>
        <time>2021-09-12T08:32:29.807Z</time>
      </trkpt>
      <trkpt lat="45.83562" lon="5.80708">
        <ele>234</ele>
        <time>2021-09-12T08:32:30.806Z</time>
      </trkpt>
      <trkpt lat="45.83559" lon="5.80702">
        <ele>234</ele>
        <time>2021-09-12T08:32:31.807Z</time>
      </trkpt>
      <trkpt lat="45.83557" lon="5.80697">
        <ele>233</ele>
        <time>2021-09-12T08:32:32.807Z</time>
      </trkpt>
      <trkpt lat="45.83554" lon="5.80692">
        <ele>233</ele>
        <time>2021-09-12T08:32:33.806Z</time>
      </trkpt>
      <trkpt lat="45.83552" lon="5.80686">
        <ele>233</ele>
        <time>2021-09-12T08:32:34.806Z</time>
      </trkpt>
      <trkpt lat="45.83549" lon="5.8068">
        <ele>233</ele>
        <time>2021-09-12T08:32:35.807Z</time>
      </trkpt>
      <trkpt lat="45.83547" lon="5.80675">
        <ele>233</ele>
        <time>2021-09-12T08:32:36.807Z</time>
      </trkpt>
      <trkpt lat="45.83544" lon="5.8067">
        <ele>233</ele>
        <time>2021-09-12T08:32:37.807Z</time>
      </trkpt>
      <trkpt lat="45.83541" lon="5.80664">
        <ele>233</ele>
        <time>2021-09-12T08:32:38.807Z</time>
      </trkpt>
      <trkpt lat="45.83539" lon="5.80658">
        <ele>234</ele>
        <time>2021-09-12T08:32:39.807Z</time>
      </trkpt>
      <trkpt lat="45.83536" lon="5.80652">
        <ele>234</ele>
        <time>2021-09-12T08:32:40.806Z</time>
      </trkpt>
      <trkpt lat="45.83534" lon="5.80645">
        <ele>234</ele>
        <time>2021-09-12T08:32:41.807Z</time>
      </trkpt>
      <trkpt lat="45.83531" lon="5.80639">
        <ele>234</ele>
        <time>2021-09-12T08:32:42.807Z</time>
      </trkpt>
      <trkpt lat="45.83528" lon="5.80633">
        <ele>235</ele>
        <time>2021-09-12T08:32:43.807Z</time>
      </trkpt>
      <trkpt lat="45.83525" lon="5.80627">
        <ele>235</ele>
        <time>2021-09-12T08:32:44.807Z</time>
      </trkpt>
      <trkpt lat="45.83523" lon="5.80622">
        <ele>236</ele>
        <time>2021-09-12T08:32:45.806Z</time>
      </trkpt>
      <trkpt lat="45.83521" lon="5.80616">
        <ele>237</ele>
        <time>2021-09-12T08:32:46.806Z</time>
      </trkpt>
      <trkpt lat="45.83518" lon="5.8061">
        <ele>237</ele>
        <time>2021-09-12T08:32:47.807Z</time>
      </trkpt>
      <trkpt lat="45.83516" lon="5.80604">
        <ele>237</ele>
        <time>2021-09-12T08:32:48.806Z</time>
      </trkpt>
      <trkpt lat="45.83513" lon="5.80598">
        <ele>237</ele>
        <time>2021-09-12T08:32:49.806Z</time>
      </trkpt>
      <trkpt lat="45.83511" lon="5.80591">
        <ele>238</ele>
        <time>2021-09-12T08:32:50.806Z</time>
      </trkpt>
      <trkpt lat="45.83509" lon="5.80586">
        <ele>238</ele>
        <time>2021-09-12T08:32:51.807Z</time>
      </trkpt>
      <trkpt lat="45.83507" lon="5.8058">
        <ele>239</ele>
        <time>2021-09-12T08:32:52.807Z</time>
      </trkpt>
      <trkpt lat="45.83506" lon="5.80574">
        <ele>239</ele>
        <time>2021-09-12T08:32:53.807Z</time>
      </trkpt>
      <trkpt lat="45.83505" lon="5.80569">
        <ele>239</ele>
        <time>2021-09-12T08:32:54.806Z</time>
      </trkpt>
      <trkpt lat="45.83503" lon="5.80562">
        <ele>239</ele>
        <time>2021-09-12T08:32:55.806Z</time>
      </trkpt>
      <trkpt lat="45.83502" lon="5.80556">
        <ele>239</ele>
        <time>2021-09-12T08:32:56.807Z</time>
      </trkpt>
      <trkpt lat="45.83501" lon="5.80549">
        <ele>239</ele>
        <time>2021-09-12T08:32:57.807Z</time>
      </trkpt>
      <trkpt lat="45.835" lon="5.80543">
        <ele>239</ele>
        <time>2021-09-12T08:32:58.806Z</time>
      </trkpt>
      <trkpt lat="45.835" lon="5.80536">
        <ele>239</ele>
        <time>2021-09-12T08:32:59.807Z</time>
      </trkpt>
      <trkpt lat="45.83499" lon="5.80529">
        <ele>239</ele>
        <time>2021-09-12T08:33:00.806Z</time>
      </trkpt>
      <trkpt lat="45.83498" lon="5.80522">
        <ele>240</ele>
        <time>2021-09-12T08:33:01.807Z</time>
      </trkpt>
      <trkpt lat="45.83497" lon="5.80516">
        <ele>240</ele>
        <time>2021-09-12T08:33:02.807Z</time>
      </trkpt>
      <trkpt lat="45.83497" lon="5.80509">
        <ele>240</ele>
        <time>2021-09-12T08:33:03.807Z</time>
      </trkpt>
      <trkpt lat="45.83495" lon="5.80503">
        <ele>240</ele>
        <time>2021-09-12T08:33:04.807Z</time>
      </trkpt>
      <trkpt lat="45.83495" lon="5.80497">
        <ele>240</ele>
        <time>2021-09-12T08:33:05.807Z</time>
      </trkpt>
      <trkpt lat="45.83494" lon="5.8049">
        <ele>240</ele>
        <time>2021-09-12T08:33:06.807Z</time>
      </trkpt>
      <trkpt lat="45.83493" lon="5.80483">
        <ele>239</ele>
        <time>2021-09-12T08:33:07.807Z</time>
      </trkpt>
      <trkpt lat="45.83491" lon="5.80476">
        <ele>238</ele>
        <time>2021-09-12T08:33:08.807Z</time>
      </trkpt>
      <trkpt lat="45.83489" lon="5.8047">
        <ele>238</ele>
        <time>2021-09-12T08:33:09.807Z</time>
      </trkpt>
      <trkpt lat="45.83488" lon="5.80464">
        <ele>237</ele>
        <time>2021-09-12T08:33:10.806Z</time>
      </trkpt>
      <trkpt lat="45.83486" lon="5.80459">
        <ele>237</ele>
        <time>2021-09-12T08:33:11.807Z</time>
      </trkpt>
      <trkpt lat="45.83484" lon="5.80455">
        <ele>237</ele>
        <time>2021-09-12T08:33:12.806Z</time>
      </trkpt>
      <trkpt lat="45.83481" lon="5.80449">
        <ele>237</ele>
        <time>2021-09-12T08:33:13.807Z</time>
      </trkpt>
      <trkpt lat="45.83479" lon="5.80444">
        <ele>236</ele>
        <time>2021-09-12T08:33:14.806Z</time>
      </trkpt>
      <trkpt lat="45.83477" lon="5.80441">
        <ele>237</ele>
        <time>2021-09-12T08:33:15.806Z</time>
      </trkpt>
      <trkpt lat="45.83474" lon="5.80436">
        <ele>237</ele>
        <time>2021-09-12T08:33:16.807Z</time>
      </trkpt>
      <trkpt lat="45.83471" lon="5.80431">
        <ele>237</ele>
        <time>2021-09-12T08:33:17.807Z</time>
      </trkpt>
      <trkpt lat="45.83468" lon="5.80427">
        <ele>237</ele>
        <time>2021-09-12T08:33:18.807Z</time>
      </trkpt>
      <trkpt lat="45.83465" lon="5.80423">
        <ele>237</ele>
        <time>2021-09-12T08:33:19.806Z</time>
      </trkpt>
      <trkpt lat="45.83462" lon="5.80419">
        <ele>237</ele>
        <time>2021-09-12T08:33:20.806Z</time>
      </trkpt>
      <trkpt lat="45.83459" lon="5.80415">
        <ele>237</ele>
        <time>2021-09-12T08:33:21.807Z</time>
      </trkpt>
      <trkpt lat="45.83456" lon="5.8041">
        <ele>237</ele>
        <time>2021-09-12T08:33:22.807Z</time>
      </trkpt>
      <trkpt lat="45.83452" lon="5.80405">
        <ele>237</ele>
        <time>2021-09-12T08:33:23.807Z</time>
      </trkpt>
      <trkpt lat="45.8345" lon="5.80401">
        <ele>237</ele>
        <time>2021-09-12T08:33:24.806Z</time>
      </trkpt>
      <trkpt lat="45.83447" lon="5.80397">
        <ele>237</ele>
        <time>2021-09-12T08:33:25.806Z</time>
      </trkpt>
      <trkpt lat="45.83444" lon="5.80392">
        <ele>237</ele>
        <time>2021-09-12T08:33:26.806Z</time>
      </trkpt>
      <trkpt lat="45.83441" lon="5.80388">
        <ele>237</ele>
        <time>2021-09-12T08:33:27.806Z</time>
      </trkpt>
      <trkpt lat="45.83437" lon="5.80382">
        <ele>237</ele>
        <time>2021-09-12T08:33:28.806Z</time>
      </trkpt>
      <trkpt lat="45.83434" lon="5.80377">
        <ele>237</ele>
        <time>2021-09-12T08:33:29.806Z</time>
      </trkpt>
      <trkpt lat="45.83431" lon="5.80371">
        <ele>237</ele>
        <time>2021-09-12T08:33:30.806Z</time>
      </trkpt>
      <trkpt lat="45.83428" lon="5.80366">
        <ele>238</ele>
        <time>2021-09-12T08:33:31.807Z</time>
      </trkpt>
      <trkpt lat="45.83425" lon="5.80361">
        <ele>238</ele>
        <time>2021-09-12T08:33:32.807Z</time>
      </trkpt>
      <trkpt lat="45.83422" lon="5.80356">
        <ele>239</ele>
        <time>2021-09-12T08:33:33.807Z</time>
      </trkpt>
      <trkpt lat="45.83419" lon="5.8035">
        <ele>239</ele>
        <time>2021-09-12T08:33:34.807Z</time>
      </trkpt>
      <trkpt lat="45.83416" lon="5.80345">
        <ele>239</ele>
        <time>2021-09-12T08:33:35.807Z</time>
      </trkpt>
      <trkpt lat="45.83412" lon="5.8034">
        <ele>239</ele>
        <time>2021-09-12T08:33:36.807Z</time>
      </trkpt>
      <trkpt lat="45.83409" lon="5.80335">
        <ele>239</ele>
        <time>2021-09-12T08:33:37.806Z</time>
      </trkpt>
      <trkpt lat="45.83406" lon="5.8033">
        <ele>240</ele>
        <time>2021-09-12T08:33:38.807Z</time>
      </trkpt>
      <trkpt lat="45.83402" lon="5.80325">
        <ele>240</ele>
        <time>2021-09-12T08:33:39.807Z</time>
      </trkpt>
      <trkpt lat="45.83399" lon="5.8032">
        <ele>240</ele>
        <time>2021-09-12T08:33:40.807Z</time>
      </trkpt>
      <trkpt lat="45.83395" lon="5.80315">
        <ele>240</ele>
        <time>2021-09-12T08:33:41.807Z</time>
      </trkpt>
      <trkpt lat="45.83391" lon="5.80311">
        <ele>239</ele>
        <time>2021-09-12T08:33:42.807Z</time>
      </trkpt>
      <trkpt lat="45.83386" lon="5.80306">
        <ele>239</ele>
        <time>2021-09-12T08:33:43.807Z</time>
      </trkpt>
      <trkpt lat="45.83383" lon="5.80301">
        <ele>239</ele>
        <time>2021-09-12T08:33:44.807Z</time>
      </trkpt>
      <trkpt lat="45.83379" lon="5.80299">
        <ele>239</ele>
        <time>2021-09-12T08:33:45.807Z</time>
      </trkpt>
      <trkpt lat="45.83375" lon="5.80295">
        <ele>238</ele>
        <time>2021-09-12T08:33:46.807Z</time>
      </trkpt>
      <trkpt lat="45.83371" lon="5.80291">
        <ele>238</ele>
        <time>2021-09-12T08:33:47.807Z</time>
      </trkpt>
      <trkpt lat="45.83367" lon="5.80287">
        <ele>238</ele>
        <time>2021-09-12T08:33:48.807Z</time>
      </trkpt>
      <trkpt lat="45.83363" lon="5.80285">
        <ele>238</ele>
        <time>2021-09-12T08:33:49.806Z</time>
      </trkpt>
      <trkpt lat="45.83359" lon="5.80283">
        <ele>238</ele>
        <time>2021-09-12T08:33:50.806Z</time>
      </trkpt>
      <trkpt lat="45.83356" lon="5.80283">
        <ele>238</ele>
        <time>2021-09-12T08:33:51.806Z</time>
      </trkpt>
      <trkpt lat="45.83351" lon="5.80282">
        <ele>238</ele>
        <time>2021-09-12T08:33:52.807Z</time>
      </trkpt>
      <trkpt lat="45.83346" lon="5.8028">
        <ele>239</ele>
        <time>2021-09-12T08:33:53.807Z</time>
      </trkpt>
      <trkpt lat="45.83341" lon="5.80276">
        <ele>239</ele>
        <time>2021-09-12T08:33:54.806Z</time>
      </trkpt>
      <trkpt lat="45.83337" lon="5.80274">
        <ele>239</ele>
        <time>2021-09-12T08:33:55.807Z</time>
      </trkpt>
      <trkpt lat="45.83335" lon="5.80272">
        <ele>240</ele>
        <time>2021-09-12T08:33:56.807Z</time>
      </trkpt>
      <trkpt lat="45.83331" lon="5.80269">
        <ele>241</ele>
        <time>2021-09-12T08:33:57.807Z</time>
      </trkpt>
      <trkpt lat="45.83327" lon="5.80267">
        <ele>241</ele>
        <time>2021-09-12T08:33:58.807Z</time>
      </trkpt>
      <trkpt lat="45.83321" lon="5.80264">
        <ele>241</ele>
        <time>2021-09-12T08:33:59.807Z</time>
      </trkpt>
      <trkpt lat="45.83316" lon="5.80259">
        <ele>241</ele>
        <time>2021-09-12T08:34:00.806Z</time>
      </trkpt>
      <trkpt lat="45.8331" lon="5.8025">
        <ele>241</ele>
        <time>2021-09-12T08:34:01.806Z</time>
      </trkpt>
      <trkpt lat="45.83306" lon="5.80243">
        <ele>241</ele>
        <time>2021-09-12T08:34:02.807Z</time>
      </trkpt>
      <trkpt lat="45.83303" lon="5.80237">
        <ele>241</ele>
        <time>2021-09-12T08:34:03.807Z</time>
      </trkpt>
      <trkpt lat="45.83301" lon="5.80231">
        <ele>240</ele>
        <time>2021-09-12T08:34:04.807Z</time>
      </trkpt>
      <trkpt lat="45.83298" lon="5.80226">
        <ele>239</ele>
        <time>2021-09-12T08:34:05.807Z</time>
      </trkpt>
      <trkpt lat="45.83296" lon="5.80221">
        <ele>239</ele>
        <time>2021-09-12T08:34:06.807Z</time>
      </trkpt>
      <trkpt lat="45.83294" lon="5.80217">
        <ele>238</ele>
        <time>2021-09-12T08:34:07.807Z</time>
      </trkpt>
      <trkpt lat="45.83292" lon="5.80212">
        <ele>238</ele>
        <time>2021-09-12T08:34:08.807Z</time>
      </trkpt>
      <trkpt lat="45.83291" lon="5.80208">
        <ele>238</ele>
        <time>2021-09-12T08:34:09.807Z</time>
      </trkpt>
      <trkpt lat="45.83289" lon="5.80204">
        <ele>238</ele>
        <time>2021-09-12T08:34:10.807Z</time>
      </trkpt>
      <trkpt lat="45.83288" lon="5.80201">
        <ele>237</ele>
        <time>2021-09-12T08:34:11.807Z</time>
      </trkpt>
      <trkpt lat="45.83286" lon="5.80198">
        <ele>237</ele>
        <time>2021-09-12T08:34:12.806Z</time>
      </trkpt>
      <trkpt lat="45.83284" lon="5.80195">
        <ele>237</ele>
        <time>2021-09-12T08:34:13.807Z</time>
      </trkpt>
      <trkpt lat="45.83282" lon="5.80192">
        <ele>237</ele>
        <time>2021-09-12T08:34:14.806Z</time>
      </trkpt>
      <trkpt lat="45.83281" lon="5.80191">
        <ele>236</ele>
        <time>2021-09-12T08:34:15.807Z</time>
      </trkpt>
      <trkpt lat="45.8328" lon="5.80189">
        <ele>236</ele>
        <time>2021-09-12T08:34:16.807Z</time>
      </trkpt>
      <trkpt lat="45.83279" lon="5.80186">
        <ele>235</ele>
        <time>2021-09-12T08:34:17.807Z</time>
      </trkpt>
      <trkpt lat="45.83278" lon="5.80183">
        <ele>235</ele>
        <time>2021-09-12T08:34:18.806Z</time>
      </trkpt>
      <trkpt lat="45.83277" lon="5.80182">
        <ele>235</ele>
        <time>2021-09-12T08:34:19.807Z</time>
      </trkpt>
      <trkpt lat="45.83276" lon="5.80181">
        <ele>235</ele>
        <time>2021-09-12T08:34:20.806Z</time>
      </trkpt>
      <trkpt lat="45.83274" lon="5.80179">
        <ele>235</ele>
        <time>2021-09-12T08:34:21.807Z</time>
      </trkpt>
      <trkpt lat="45.83273" lon="5.80177">
        <ele>234</ele>
        <time>2021-09-12T08:34:22.806Z</time>
      </trkpt>
      <trkpt lat="45.83271" lon="5.80175">
        <ele>234</ele>
        <time>2021-09-12T08:34:23.807Z</time>
      </trkpt>
      <trkpt lat="45.83269" lon="5.80174">
        <ele>234</ele>
        <time>2021-09-12T08:34:24.806Z</time>
      </trkpt>
      <trkpt lat="45.83268" lon="5.80172">
        <ele>234</ele>
        <time>2021-09-12T08:34:25.807Z</time>
      </trkpt>
      <trkpt lat="45.83266" lon="5.8017">
        <ele>234</ele>
        <time>2021-09-12T08:34:26.807Z</time>
      </trkpt>
      <trkpt lat="45.83264" lon="5.80168">
        <ele>234</ele>
        <time>2021-09-12T08:34:27.806Z</time>
      </trkpt>
      <trkpt lat="45.83263" lon="5.80165">
        <ele>234</ele>
        <time>2021-09-12T08:34:28.806Z</time>
      </trkpt>
      <trkpt lat="45.83261" lon="5.80163">
        <ele>233</ele>
        <time>2021-09-12T08:34:29.807Z</time>
      </trkpt>
      <trkpt lat="45.83259" lon="5.8016">
        <ele>234</ele>
        <time>2021-09-12T08:34:30.806Z</time>
      </trkpt>
      <trkpt lat="45.83257" lon="5.80158">
        <ele>234</ele>
        <time>2021-09-12T08:34:31.807Z</time>
      </trkpt>
      <trkpt lat="45.83255" lon="5.80154">
        <ele>234</ele>
        <time>2021-09-12T08:34:32.806Z</time>
      </trkpt>
      <trkpt lat="45.83252" lon="5.80152">
        <ele>234</ele>
        <time>2021-09-12T08:34:33.807Z</time>
      </trkpt>
      <trkpt lat="45.8325" lon="5.80149">
        <ele>234</ele>
        <time>2021-09-12T08:34:34.806Z</time>
      </trkpt>
      <trkpt lat="45.83249" lon="5.80146">
        <ele>234</ele>
        <time>2021-09-12T08:34:35.806Z</time>
      </trkpt>
      <trkpt lat="45.83247" lon="5.80143">
        <ele>234</ele>
        <time>2021-09-12T08:34:36.807Z</time>
      </trkpt>
      <trkpt lat="45.83244" lon="5.8014">
        <ele>234</ele>
        <time>2021-09-12T08:34:37.806Z</time>
      </trkpt>
      <trkpt lat="45.83242" lon="5.80137">
        <ele>234</ele>
        <time>2021-09-12T08:34:38.807Z</time>
      </trkpt>
      <trkpt lat="45.8324" lon="5.80134">
        <ele>234</ele>
        <time>2021-09-12T08:34:39.806Z</time>
      </trkpt>
      <trkpt lat="45.83238" lon="5.80132">
        <ele>234</ele>
        <time>2021-09-12T08:34:40.807Z</time>
      </trkpt>
      <trkpt lat="45.83236" lon="5.80128">
        <ele>234</ele>
        <time>2021-09-12T08:34:41.806Z</time>
      </trkpt>
      <trkpt lat="45.83233" lon="5.80125">
        <ele>234</ele>
        <time>2021-09-12T08:34:42.807Z</time>
      </trkpt>
      <trkpt lat="45.83231" lon="5.80122">
        <ele>234</ele>
        <time>2021-09-12T08:34:43.807Z</time>
      </trkpt>
      <trkpt lat="45.83229" lon="5.80119">
        <ele>235</ele>
        <time>2021-09-12T08:34:44.807Z</time>
      </trkpt>
      <trkpt lat="45.83227" lon="5.80116">
        <ele>235</ele>
        <time>2021-09-12T08:34:45.807Z</time>
      </trkpt>
      <trkpt lat="45.83226" lon="5.80112">
        <ele>236</ele>
        <time>2021-09-12T08:34:46.807Z</time>
      </trkpt>
      <trkpt lat="45.83224" lon="5.80109">
        <ele>236</ele>
        <time>2021-09-12T08:34:47.807Z</time>
      </trkpt>
      <trkpt lat="45.83222" lon="5.80106">
        <ele>237</ele>
        <time>2021-09-12T08:34:48.806Z</time>
      </trkpt>
      <trkpt lat="45.83221" lon="5.80104">
        <ele>238</ele>
        <time>2021-09-12T08:34:49.807Z</time>
      </trkpt>
      <trkpt lat="45.8322" lon="5.80104">
        <ele>238</ele>
        <time>2021-09-12T08:34:50.807Z</time>
      </trkpt>
      <trkpt lat="45.8322" lon="5.80105">
        <ele>238</ele>
        <time>2021-09-12T08:34:51.807Z</time>
      </trkpt>
      <trkpt lat="45.8322" lon="5.80106">
        <ele>238</ele>
        <time>2021-09-12T08:34:52.807Z</time>
      </trkpt>
      <trkpt lat="45.83221" lon="5.80107">
        <ele>238</ele>
        <time>2021-09-12T08:34:53.807Z</time>
      </trkpt>
      <trkpt lat="45.83222" lon="5.8011">
        <ele>238</ele>
        <time>2021-09-12T08:34:54.807Z</time>
      </trkpt>
      <trkpt lat="45.83224" lon="5.80111">
        <ele>238</ele>
        <time>2021-09-12T08:34:55.806Z</time>
      </trkpt>
      <trkpt lat="45.83225" lon="5.80114">
        <ele>238</ele>
        <time>2021-09-12T08:34:56.807Z</time>
      </trkpt>
      <trkpt lat="45.83226" lon="5.80116">
        <ele>238</ele>
        <time>2021-09-12T08:34:57.806Z</time>
      </trkpt>
      <trkpt lat="45.83227" lon="5.80118">
        <ele>238</ele>
        <time>2021-09-12T08:34:58.807Z</time>
      </trkpt>
      <trkpt lat="45.83228" lon="5.8012">
        <ele>237</ele>
        <time>2021-09-12T08:34:59.807Z</time>
      </trkpt>
      <trkpt lat="45.83229" lon="5.80122">
        <ele>238</ele>
        <time>2021-09-12T08:35:00.806Z</time>
      </trkpt>
      <trkpt lat="45.83229" lon="5.80123">
        <ele>238</ele>
        <time>2021-09-12T08:35:01.806Z</time>
      </trkpt>
      <trkpt lat="45.8323" lon="5.80125">
        <ele>238</ele>
        <time>2021-09-12T08:35:02.807Z</time>
      </trkpt>
      <trkpt lat="45.83231" lon="5.80125">
        <ele>238</ele>
        <time>2021-09-12T08:35:03.806Z</time>
      </trkpt>
      <trkpt lat="45.83231" lon="5.80127">
        <ele>238</ele>
        <time>2021-09-12T08:35:04.807Z</time>
      </trkpt>
      <trkpt lat="45.83231" lon="5.80128">
        <ele>238</ele>
        <time>2021-09-12T08:35:05.807Z</time>
      </trkpt>
      <trkpt lat="45.83232" lon="5.80128">
        <ele>238</ele>
        <time>2021-09-12T08:35:06.806Z</time>
      </trkpt>
      <trkpt lat="45.83232" lon="5.80129">
        <ele>238</ele>
        <time>2021-09-12T08:35:07.806Z</time>
      </trkpt>
      <trkpt lat="45.83232" lon="5.8013">
        <ele>238</ele>
        <time>2021-09-12T08:35:08.806Z</time>
      </trkpt>
      <trkpt lat="45.83231" lon="5.80128">
        <ele>238</ele>
        <time>2021-09-12T08:35:09.807Z</time>
      </trkpt>
      <trkpt lat="45.83231" lon="5.80128">
        <ele>239</ele>
        <time>2021-09-12T08:35:10.807Z</time>
      </trkpt>
      <trkpt lat="45.83231" lon="5.80127">
        <ele>239</ele>
        <time>2021-09-12T08:35:11.806Z</time>
      </trkpt>
      <trkpt lat="45.83231" lon="5.80127">
        <ele>239</ele>
        <time>2021-09-12T08:35:12.807Z</time>
      </trkpt>
      <trkpt lat="45.83231" lon="5.80127">
        <ele>240</ele>
        <time>2021-09-12T08:35:13.807Z</time>
      </trkpt>
      <trkpt lat="45.83231" lon="5.80127">
        <ele>240</ele>
        <time>2021-09-12T08:35:14.807Z</time>
      </trkpt>
      <trkpt lat="45.83231" lon="5.80127">
        <ele>241</ele>
        <time>2021-09-12T08:35:15.807Z</time>
      </trkpt>
      <trkpt lat="45.83231" lon="5.80127">
        <ele>241</ele>
        <time>2021-09-12T08:35:16.807Z</time>
      </trkpt>
      <trkpt lat="45.83231" lon="5.80127">
        <ele>242</ele>
        <time>2021-09-12T08:35:17.807Z</time>
      </trkpt>
      <trkpt lat="45.83231" lon="5.80127">
        <ele>242</ele>
        <time>2021-09-12T08:35:18.806Z</time>
      </trkpt>
      <trkpt lat="45.83231" lon="5.80127">
        <ele>242</ele>
        <time>2021-09-12T08:35:19.806Z</time>
      </trkpt>
      <trkpt lat="45.83231" lon="5.80127">
        <ele>242</ele>
        <time>2021-09-12T08:35:20.807Z</time>
      </trkpt>
      <trkpt lat="45.83232" lon="5.80127">
        <ele>242</ele>
        <time>2021-09-12T08:35:21.807Z</time>
      </trkpt>
      <trkpt lat="45.83232" lon="5.80127">
        <ele>242</ele>
        <time>2021-09-12T08:35:22.807Z</time>
      </trkpt>
      <trkpt lat="45.83232" lon="5.80127">
        <ele>242</ele>
        <time>2021-09-12T08:35:23.807Z</time>
      </trkpt>
      <trkpt lat="45.83232" lon="5.80127">
        <ele>242</ele>
        <time>2021-09-12T08:35:24.807Z</time>
      </trkpt>
      <trkpt lat="45.83232" lon="5.80127">
        <ele>242</ele>
        <time>2021-09-12T08:35:25.807Z</time>
      </trkpt>
      <trkpt lat="45.83232" lon="5.80127">
        <ele>241</ele>
        <time>2021-09-12T08:35:26.807Z</time>
      </trkpt>
      <trkpt lat="45.83232" lon="5.80127">
        <ele>241</ele>
        <time>2021-09-12T08:35:27.807Z</time>
      </trkpt>
      <trkpt lat="45.83232" lon="5.80127">
        <ele>241</ele>
        <time>2021-09-12T08:35:28.807Z</time>
      </trkpt>
      <trkpt lat="45.83232" lon="5.80127">
        <ele>241</ele>
        <time>2021-09-12T08:35:29.806Z</time>
      </trkpt>
      <trkpt lat="45.83232" lon="5.80128">
        <ele>241</ele>
        <time>2021-09-12T08:35:30.806Z</time>
      </trkpt>
      <trkpt lat="45.83232" lon="5.80128">
        <ele>241</ele>
        <time>2021-09-12T08:35:31.807Z</time>
      </trkpt>
      <trkpt lat="45.83232" lon="5.80128">
        <ele>241</ele>
        <time>2021-09-12T08:35:32.806Z</time>
      </trkpt>
      <trkpt lat="45.83232" lon="5.80128">
        <ele>241</ele>
        <time>2021-09-12T08:35:33.807Z</time>
      </trkpt>
      <trkpt lat="45.83232" lon="5.80128">
        <ele>241</ele>
        <time>2021-09-12T08:35:34.806Z</time>
      </trkpt>
      <trkpt lat="45.83232" lon="5.80127">
        <ele>240</ele>
        <time>2021-09-12T08:35:35.806Z</time>
      </trkpt>
      <trkpt lat="45.83231" lon="5.80127">
        <ele>240</ele>
        <time>2021-09-12T08:35:36.807Z</time>
      </trkpt>
      <trkpt lat="45.83231" lon="5.80127">
        <ele>240</ele>
        <time>2021-09-12T08:35:37.806Z</time>
      </trkpt>
      <trkpt lat="45.83231" lon="5.80127">
        <ele>240</ele>
        <time>2021-09-12T08:35:38.806Z</time>
      </trkpt>
      <trkpt lat="45.83231" lon="5.80127">
        <ele>240</ele>
        <time>2021-09-12T08:35:39.807Z</time>
      </trkpt>
      <trkpt lat="45.83231" lon="5.80127">
        <ele>240</ele>
        <time>2021-09-12T08:35:40.807Z</time>
      </trkpt>
      <trkpt lat="45.83231" lon="5.80127">
        <ele>240</ele>
        <time>2021-09-12T08:35:41.807Z</time>
      </trkpt>
      <trkpt lat="45.83231" lon="5.80127">
        <ele>240</ele>
        <time>2021-09-12T08:35:42.807Z</time>
      </trkpt>
      <trkpt lat="45.83231" lon="5.80127">
        <ele>240</ele>
        <time>2021-09-12T08:35:43.807Z</time>
      </trkpt>
      <trkpt lat="45.83231" lon="5.80127">
        <ele>240</ele>
        <time>2021-09-12T08:35:44.806Z</time>
      </trkpt>
      <trkpt lat="45.83231" lon="5.80127">
        <ele>240</ele>
        <time>2021-09-12T08:35:45.807Z</time>
      </trkpt>
      <trkpt lat="45.83231" lon="5.80127">
        <ele>240</ele>
        <time>2021-09-12T08:35:46.807Z</time>
      </trkpt>
      <trkpt lat="45.83231" lon="5.80127">
        <ele>240</ele>
        <time>2021-09-12T08:35:47.806Z</time>
      </trkpt>
      <trkpt lat="45.83231" lon="5.80127">
        <ele>240</ele>
        <time>2021-09-12T08:35:48.807Z</time>
      </trkpt>
      <trkpt lat="45.83231" lon="5.80127">
        <ele>240</ele>
        <time>2021-09-12T08:35:49.807Z</time>
      </trkpt>
      <trkpt lat="45.83231" lon="5.80127">
        <ele>240</ele>
        <time>2021-09-12T08:35:50.807Z</time>
      </trkpt>
      <trkpt lat="45.83231" lon="5.80127">
        <ele>240</ele>
        <time>2021-09-12T08:35:51.806Z</time>
      </trkpt>
      <trkpt lat="45.83231" lon="5.80127">
        <ele>240</ele>
        <time>2021-09-12T08:35:52.807Z</time>
      </trkpt>
      <trkpt lat="45.83231" lon="5.80127">
        <ele>240</ele>
        <time>2021-09-12T08:35:53.807Z</time>
      </trkpt>
      <trkpt lat="45.83231" lon="5.80127">
        <ele>240</ele>
        <time>2021-09-12T08:35:54.807Z</time>
      </trkpt>
      <trkpt lat="45.83231" lon="5.80127">
        <ele>240</ele>
        <time>2021-09-12T08:35:55.807Z</time>
      </trkpt>
      <trkpt lat="45.83231" lon="5.80127">
        <ele>240</ele>
        <time>2021-09-12T08:35:56.807Z</time>
      </trkpt>
      <trkpt lat="45.83231" lon="5.80127">
        <ele>240</ele>
        <time>2021-09-12T08:35:57.807Z</time>
      </trkpt>
      <trkpt lat="45.83231" lon="5.80127">
        <ele>240</ele>
        <time>2021-09-12T08:35:58.807Z</time>
      </trkpt>
      <trkpt lat="45.83231" lon="5.80127">
        <ele>240</ele>
        <time>2021-09-12T08:35:59.807Z</time>
      </trkpt>
      <trkpt lat="45.83231" lon="5.80127">
        <ele>240</ele>
        <time>2021-09-12T08:36:00.807Z</time>
      </trkpt>
      <trkpt lat="45.83231" lon="5.80127">
        <ele>240</ele>
        <time>2021-09-12T08:36:01.806Z</time>
      </trkpt>
      <trkpt lat="45.83231" lon="5.80127">
        <ele>240</ele>
        <time>2021-09-12T08:36:02.806Z</time>
      </trkpt>
      <trkpt lat="45.83231" lon="5.80128">
        <ele>240</ele>
        <time>2021-09-12T08:36:03.806Z</time>
      </trkpt>
      <trkpt lat="45.83231" lon="5.80128">
        <ele>240</ele>
        <time>2021-09-12T08:36:04.807Z</time>
      </trkpt>
      <trkpt lat="45.83231" lon="5.80128">
        <ele>240</ele>
        <time>2021-09-12T08:36:05.806Z</time>
      </trkpt>
      <trkpt lat="45.83231" lon="5.80128">
        <ele>240</ele>
        <time>2021-09-12T08:36:06.806Z</time>
      </trkpt>
      <trkpt lat="45.83231" lon="5.80128">
        <ele>240</ele>
        <time>2021-09-12T08:36:07.806Z</time>
      </trkpt>
      <trkpt lat="45.83231" lon="5.80129">
        <ele>240</ele>
        <time>2021-09-12T08:36:08.807Z</time>
      </trkpt>
      <trkpt lat="45.83231" lon="5.80129">
        <ele>240</ele>
        <time>2021-09-12T08:36:09.806Z</time>
      </trkpt>
      <trkpt lat="45.83231" lon="5.80129">
        <ele>240</ele>
        <time>2021-09-12T08:36:10.806Z</time>
      </trkpt>
      <trkpt lat="45.83231" lon="5.80129">
        <ele>240</ele>
        <time>2021-09-12T08:36:11.806Z</time>
      </trkpt>
      <trkpt lat="45.83231" lon="5.80129">
        <ele>240</ele>
        <time>2021-09-12T08:36:12.807Z</time>
      </trkpt>
      <trkpt lat="45.83231" lon="5.80129">
        <ele>241</ele>
        <time>2021-09-12T08:36:13.807Z</time>
      </trkpt>
      <trkpt lat="45.83231" lon="5.80129">
        <ele>241</ele>
        <time>2021-09-12T08:36:14.806Z</time>
      </trkpt>
      <trkpt lat="45.83231" lon="5.80129">
        <ele>241</ele>
        <time>2021-09-12T08:36:15.807Z</time>
      </trkpt>
      <trkpt lat="45.83231" lon="5.80129">
        <ele>241</ele>
        <time>2021-09-12T08:36:16.807Z</time>
      </trkpt>
      <trkpt lat="45.83231" lon="5.80129">
        <ele>241</ele>
        <time>2021-09-12T08:36:17.807Z</time>
      </trkpt>
      <trkpt lat="45.83232" lon="5.80129">
        <ele>241</ele>
        <time>2021-09-12T08:36:18.807Z</time>
      </trkpt>
      <trkpt lat="45.83233" lon="5.80128">
        <ele>241</ele>
        <time>2021-09-12T08:36:19.806Z</time>
      </trkpt>
      <trkpt lat="45.83234" lon="5.80127">
        <ele>240</ele>
        <time>2021-09-12T08:36:20.806Z</time>
      </trkpt>
      <trkpt lat="45.83234" lon="5.80126">
        <ele>240</ele>
        <time>2021-09-12T08:36:21.807Z</time>
      </trkpt>
      <trkpt lat="45.83234" lon="5.80123">
        <ele>240</ele>
        <time>2021-09-12T08:36:22.807Z</time>
      </trkpt>
      <trkpt lat="45.83234" lon="5.80121">
        <ele>239</ele>
        <time>2021-09-12T08:36:23.807Z</time>
      </trkpt>
      <trkpt lat="45.83234" lon="5.8012">
        <ele>239</ele>
        <time>2021-09-12T08:36:24.807Z</time>
      </trkpt>
      <trkpt lat="45.83233" lon="5.80118">
        <ele>238</ele>
        <time>2021-09-12T08:36:25.807Z</time>
      </trkpt>
      <trkpt lat="45.83233" lon="5.80117">
        <ele>238</ele>
        <time>2021-09-12T08:36:26.807Z</time>
      </trkpt>
      <trkpt lat="45.83233" lon="5.80115">
        <ele>238</ele>
        <time>2021-09-12T08:36:27.806Z</time>
      </trkpt>
      <trkpt lat="45.83232" lon="5.80114">
        <ele>237</ele>
        <time>2021-09-12T08:36:28.806Z</time>
      </trkpt>
      <trkpt lat="45.8323" lon="5.80113">
        <ele>237</ele>
        <time>2021-09-12T08:36:29.807Z</time>
      </trkpt>
      <trkpt lat="45.83229" lon="5.80111">
        <ele>236</ele>
        <time>2021-09-12T08:36:30.807Z</time>
      </trkpt>
      <trkpt lat="45.83227" lon="5.8011">
        <ele>236</ele>
        <time>2021-09-12T08:36:31.806Z</time>
      </trkpt>
      <trkpt lat="45.83225" lon="5.80108">
        <ele>235</ele>
        <time>2021-09-12T08:36:32.807Z</time>
      </trkpt>
      <trkpt lat="45.83224" lon="5.80106">
        <ele>235</ele>
        <time>2021-09-12T08:36:33.807Z</time>
      </trkpt>
      <trkpt lat="45.83222" lon="5.80105">
        <ele>234</ele>
        <time>2021-09-12T08:36:34.807Z</time>
      </trkpt>
      <trkpt lat="45.8322" lon="5.80103">
        <ele>234</ele>
        <time>2021-09-12T08:36:35.807Z</time>
      </trkpt>
      <trkpt lat="45.83219" lon="5.80101">
        <ele>233</ele>
        <time>2021-09-12T08:36:36.807Z</time>
      </trkpt>
      <trkpt lat="45.83217" lon="5.80099">
        <ele>233</ele>
        <time>2021-09-12T08:36:37.807Z</time>
      </trkpt>
      <trkpt lat="45.83215" lon="5.80096">
        <ele>233</ele>
        <time>2021-09-12T08:36:38.806Z</time>
      </trkpt>
      <trkpt lat="45.83214" lon="5.80094">
        <ele>232</ele>
        <time>2021-09-12T08:36:39.807Z</time>
      </trkpt>
      <trkpt lat="45.83212" lon="5.80091">
        <ele>232</ele>
        <time>2021-09-12T08:36:40.807Z</time>
      </trkpt>
      <trkpt lat="45.83211" lon="5.80089">
        <ele>232</ele>
        <time>2021-09-12T08:36:41.807Z</time>
      </trkpt>
      <trkpt lat="45.83209" lon="5.80086">
        <ele>232</ele>
        <time>2021-09-12T08:36:42.807Z</time>
      </trkpt>
      <trkpt lat="45.83207" lon="5.80084">
        <ele>232</ele>
        <time>2021-09-12T08:36:43.806Z</time>
      </trkpt>
      <trkpt lat="45.83206" lon="5.80081">
        <ele>232</ele>
        <time>2021-09-12T08:36:44.807Z</time>
      </trkpt>
      <trkpt lat="45.83205" lon="5.80079">
        <ele>233</ele>
        <time>2021-09-12T08:36:45.807Z</time>
      </trkpt>
      <trkpt lat="45.83204" lon="5.80078">
        <ele>233</ele>
        <time>2021-09-12T08:36:46.806Z</time>
      </trkpt>
      <trkpt lat="45.83203" lon="5.80076">
        <ele>233</ele>
        <time>2021-09-12T08:36:47.807Z</time>
      </trkpt>
      <trkpt lat="45.83201" lon="5.80074">
        <ele>233</ele>
        <time>2021-09-12T08:36:48.806Z</time>
      </trkpt>
      <trkpt lat="45.83199" lon="5.80072">
        <ele>234</ele>
        <time>2021-09-12T08:36:49.807Z</time>
      </trkpt>
      <trkpt lat="45.83198" lon="5.8007">
        <ele>234</ele>
        <time>2021-09-12T08:36:50.807Z</time>
      </trkpt>
      <trkpt lat="45.83197" lon="5.80068">
        <ele>234</ele>
        <time>2021-09-12T08:36:51.807Z</time>
      </trkpt>
      <trkpt lat="45.83196" lon="5.80067">
        <ele>234</ele>
        <time>2021-09-12T08:36:52.807Z</time>
      </trkpt>
      <trkpt lat="45.83194" lon="5.80065">
        <ele>233</ele>
        <time>2021-09-12T08:36:53.806Z</time>
      </trkpt>
      <trkpt lat="45.83193" lon="5.80063">
        <ele>233</ele>
        <time>2021-09-12T08:36:54.807Z</time>
      </trkpt>
      <trkpt lat="45.83192" lon="5.8006">
        <ele>233</ele>
        <time>2021-09-12T08:36:55.807Z</time>
      </trkpt>
      <trkpt lat="45.83191" lon="5.80057">
        <ele>233</ele>
        <time>2021-09-12T08:36:56.806Z</time>
      </trkpt>
      <trkpt lat="45.8319" lon="5.80054">
        <ele>233</ele>
        <time>2021-09-12T08:36:57.807Z</time>
      </trkpt>
      <trkpt lat="45.83189" lon="5.8005">
        <ele>233</ele>
        <time>2021-09-12T08:36:58.807Z</time>
      </trkpt>
      <trkpt lat="45.83188" lon="5.80047">
        <ele>233</ele>
        <time>2021-09-12T08:36:59.806Z</time>
      </trkpt>
      <trkpt lat="45.83187" lon="5.80044">
        <ele>233</ele>
        <time>2021-09-12T08:37:00.807Z</time>
      </trkpt>
      <trkpt lat="45.83186" lon="5.80041">
        <ele>233</ele>
        <time>2021-09-12T08:37:01.806Z</time>
      </trkpt>
      <trkpt lat="45.83185" lon="5.80039">
        <ele>233</ele>
        <time>2021-09-12T08:37:02.806Z</time>
      </trkpt>
      <trkpt lat="45.83184" lon="5.80038">
        <ele>233</ele>
        <time>2021-09-12T08:37:03.807Z</time>
      </trkpt>
      <trkpt lat="45.83184" lon="5.80037">
        <ele>233</ele>
        <time>2021-09-12T08:37:04.807Z</time>
      </trkpt>
      <trkpt lat="45.83184" lon="5.80037">
        <ele>233</ele>
        <time>2021-09-12T08:37:05.806Z</time>
      </trkpt>
      <trkpt lat="45.83184" lon="5.80036">
        <ele>233</ele>
        <time>2021-09-12T08:37:06.807Z</time>
      </trkpt>
      <trkpt lat="45.83184" lon="5.80034">
        <ele>235</ele>
        <time>2021-09-12T08:37:07.807Z</time>
      </trkpt>
      <trkpt lat="45.83183" lon="5.80034">
        <ele>235</ele>
        <time>2021-09-12T08:37:08.808Z</time>
      </trkpt>
      <trkpt lat="45.83183" lon="5.80033">
        <ele>235</ele>
        <time>2021-09-12T08:37:09.808Z</time>
      </trkpt>
      <trkpt lat="45.83182" lon="5.80032">
        <ele>234</ele>
        <time>2021-09-12T08:37:10.809Z</time>
      </trkpt>
      <trkpt lat="45.83182" lon="5.80031">
        <ele>233</ele>
        <time>2021-09-12T08:37:11.809Z</time>
      </trkpt>
      <trkpt lat="45.83178" lon="5.80025">
        <ele>231</ele>
        <time>2021-09-12T08:37:12.808Z</time>
      </trkpt>
      <trkpt lat="45.83176" lon="5.80021">
        <ele>231</ele>
        <time>2021-09-12T08:37:13.809Z</time>
      </trkpt>
      <trkpt lat="45.83173" lon="5.80017">
        <ele>231</ele>
        <time>2021-09-12T08:37:14.809Z</time>
      </trkpt>
      <trkpt lat="45.83171" lon="5.80013">
        <ele>231</ele>
        <time>2021-09-12T08:37:15.809Z</time>
      </trkpt>
      <trkpt lat="45.83168" lon="5.80008">
        <ele>231</ele>
        <time>2021-09-12T08:37:16.809Z</time>
      </trkpt>
      <trkpt lat="45.83165" lon="5.80004">
        <ele>231</ele>
        <time>2021-09-12T08:37:17.809Z</time>
      </trkpt>
      <trkpt lat="45.83162" lon="5.8">
        <ele>231</ele>
        <time>2021-09-12T08:37:18.809Z</time>
      </trkpt>
      <trkpt lat="45.83159" lon="5.79995">
        <ele>231</ele>
        <time>2021-09-12T08:37:19.809Z</time>
      </trkpt>
      <trkpt lat="45.83156" lon="5.79991">
        <ele>231</ele>
        <time>2021-09-12T08:37:20.808Z</time>
      </trkpt>
      <trkpt lat="45.83154" lon="5.79987">
        <ele>231</ele>
        <time>2021-09-12T08:37:21.809Z</time>
      </trkpt>
      <trkpt lat="45.83152" lon="5.79984">
        <ele>231</ele>
        <time>2021-09-12T08:37:22.809Z</time>
      </trkpt>
      <trkpt lat="45.8315" lon="5.7998">
        <ele>231</ele>
        <time>2021-09-12T08:37:23.809Z</time>
      </trkpt>
      <trkpt lat="45.83148" lon="5.79976">
        <ele>231</ele>
        <time>2021-09-12T08:37:24.809Z</time>
      </trkpt>
      <trkpt lat="45.83146" lon="5.79973">
        <ele>231</ele>
        <time>2021-09-12T08:37:25.808Z</time>
      </trkpt>
      <trkpt lat="45.83143" lon="5.79969">
        <ele>231</ele>
        <time>2021-09-12T08:37:26.809Z</time>
      </trkpt>
      <trkpt lat="45.83141" lon="5.79965">
        <ele>231</ele>
        <time>2021-09-12T08:37:27.809Z</time>
      </trkpt>
      <trkpt lat="45.83139" lon="5.79961">
        <ele>231</ele>
        <time>2021-09-12T08:37:28.809Z</time>
      </trkpt>
      <trkpt lat="45.83136" lon="5.79958">
        <ele>230</ele>
        <time>2021-09-12T08:37:29.808Z</time>
      </trkpt>
      <trkpt lat="45.83134" lon="5.79954">
        <ele>230</ele>
        <time>2021-09-12T08:37:30.809Z</time>
      </trkpt>
      <trkpt lat="45.83131" lon="5.7995">
        <ele>230</ele>
        <time>2021-09-12T08:37:31.809Z</time>
      </trkpt>
      <trkpt lat="45.83128" lon="5.79946">
        <ele>230</ele>
        <time>2021-09-12T08:37:32.809Z</time>
      </trkpt>
      <trkpt lat="45.83125" lon="5.79942">
        <ele>230</ele>
        <time>2021-09-12T08:37:33.809Z</time>
      </trkpt>
      <trkpt lat="45.83123" lon="5.79938">
        <ele>230</ele>
        <time>2021-09-12T08:37:34.809Z</time>
      </trkpt>
      <trkpt lat="45.8312" lon="5.79935">
        <ele>230</ele>
        <time>2021-09-12T08:37:35.809Z</time>
      </trkpt>
      <trkpt lat="45.83117" lon="5.7993">
        <ele>231</ele>
        <time>2021-09-12T08:37:36.809Z</time>
      </trkpt>
      <trkpt lat="45.83114" lon="5.79926">
        <ele>231</ele>
        <time>2021-09-12T08:37:37.809Z</time>
      </trkpt>
      <trkpt lat="45.83111" lon="5.79922">
        <ele>231</ele>
        <time>2021-09-12T08:37:38.808Z</time>
      </trkpt>
      <trkpt lat="45.83109" lon="5.79918">
        <ele>231</ele>
        <time>2021-09-12T08:37:39.809Z</time>
      </trkpt>
      <trkpt lat="45.83105" lon="5.79913">
        <ele>231</ele>
        <time>2021-09-12T08:37:40.808Z</time>
      </trkpt>
      <trkpt lat="45.83102" lon="5.79909">
        <ele>232</ele>
        <time>2021-09-12T08:37:41.809Z</time>
      </trkpt>
      <trkpt lat="45.83099" lon="5.79903">
        <ele>231</ele>
        <time>2021-09-12T08:37:42.809Z</time>
      </trkpt>
      <trkpt lat="45.83096" lon="5.79897">
        <ele>231</ele>
        <time>2021-09-12T08:37:43.809Z</time>
      </trkpt>
      <trkpt lat="45.83092" lon="5.79892">
        <ele>231</ele>
        <time>2021-09-12T08:37:44.809Z</time>
      </trkpt>
      <trkpt lat="45.83088" lon="5.79886">
        <ele>231</ele>
        <time>2021-09-12T08:37:45.809Z</time>
      </trkpt>
      <trkpt lat="45.83083" lon="5.79878">
        <ele>231</ele>
        <time>2021-09-12T08:37:46.808Z</time>
      </trkpt>
      <trkpt lat="45.83079" lon="5.79871">
        <ele>231</ele>
        <time>2021-09-12T08:37:47.809Z</time>
      </trkpt>
      <trkpt lat="45.83075" lon="5.79866">
        <ele>231</ele>
        <time>2021-09-12T08:37:48.809Z</time>
      </trkpt>
      <trkpt lat="45.83071" lon="5.7986">
        <ele>231</ele>
        <time>2021-09-12T08:37:49.808Z</time>
      </trkpt>
      <trkpt lat="45.83066" lon="5.79853">
        <ele>232</ele>
        <time>2021-09-12T08:37:50.808Z</time>
      </trkpt>
      <trkpt lat="45.83061" lon="5.79847">
        <ele>232</ele>
        <time>2021-09-12T08:37:51.808Z</time>
      </trkpt>
      <trkpt lat="45.83056" lon="5.7984">
        <ele>232</ele>
        <time>2021-09-12T08:37:52.808Z</time>
      </trkpt>
      <trkpt lat="45.83053" lon="5.79836">
        <ele>232</ele>
        <time>2021-09-12T08:37:53.809Z</time>
      </trkpt>
      <trkpt lat="45.83048" lon="5.79829">
        <ele>232</ele>
        <time>2021-09-12T08:37:54.809Z</time>
      </trkpt>
      <trkpt lat="45.83044" lon="5.79823">
        <ele>233</ele>
        <time>2021-09-12T08:37:55.809Z</time>
      </trkpt>
      <trkpt lat="45.8304" lon="5.79818">
        <ele>233</ele>
        <time>2021-09-12T08:37:56.808Z</time>
      </trkpt>
      <trkpt lat="45.83036" lon="5.79812">
        <ele>233</ele>
        <time>2021-09-12T08:37:57.809Z</time>
      </trkpt>
      <trkpt lat="45.83032" lon="5.79808">
        <ele>234</ele>
        <time>2021-09-12T08:37:58.809Z</time>
      </trkpt>
      <trkpt lat="45.83029" lon="5.79803">
        <ele>234</ele>
        <time>2021-09-12T08:37:59.809Z</time>
      </trkpt>
      <trkpt lat="45.83025" lon="5.79801">
        <ele>234</ele>
        <time>2021-09-12T08:38:00.809Z</time>
      </trkpt>
      <trkpt lat="45.83021" lon="5.798">
        <ele>235</ele>
        <time>2021-09-12T08:38:01.809Z</time>
      </trkpt>
      <trkpt lat="45.83017" lon="5.79801">
        <ele>235</ele>
        <time>2021-09-12T08:38:02.809Z</time>
      </trkpt>
      <trkpt lat="45.83013" lon="5.79804">
        <ele>235</ele>
        <time>2021-09-12T08:38:03.808Z</time>
      </trkpt>
      <trkpt lat="45.83009" lon="5.79809">
        <ele>236</ele>
        <time>2021-09-12T08:38:04.809Z</time>
      </trkpt>
      <trkpt lat="45.83005" lon="5.79814">
        <ele>236</ele>
        <time>2021-09-12T08:38:05.809Z</time>
      </trkpt>
      <trkpt lat="45.83001" lon="5.79821">
        <ele>236</ele>
        <time>2021-09-12T08:38:06.809Z</time>
      </trkpt>
      <trkpt lat="45.82997" lon="5.79828">
        <ele>235</ele>
        <time>2021-09-12T08:38:07.809Z</time>
      </trkpt>
      <trkpt lat="45.82993" lon="5.79835">
        <ele>235</ele>
        <time>2021-09-12T08:38:08.809Z</time>
      </trkpt>
      <trkpt lat="45.82989" lon="5.79842">
        <ele>235</ele>
        <time>2021-09-12T08:38:09.808Z</time>
      </trkpt>
      <trkpt lat="45.82985" lon="5.79849">
        <ele>235</ele>
        <time>2021-09-12T08:38:10.809Z</time>
      </trkpt>
      <trkpt lat="45.82982" lon="5.79854">
        <ele>235</ele>
        <time>2021-09-12T08:38:11.808Z</time>
      </trkpt>
      <trkpt lat="45.82977" lon="5.79863">
        <ele>235</ele>
        <time>2021-09-12T08:38:12.808Z</time>
      </trkpt>
      <trkpt lat="45.82973" lon="5.7987">
        <ele>235</ele>
        <time>2021-09-12T08:38:13.809Z</time>
      </trkpt>
      <trkpt lat="45.8297" lon="5.79878">
        <ele>234</ele>
        <time>2021-09-12T08:38:14.809Z</time>
      </trkpt>
      <trkpt lat="45.82967" lon="5.79884">
        <ele>234</ele>
        <time>2021-09-12T08:38:15.808Z</time>
      </trkpt>
      <trkpt lat="45.82963" lon="5.79891">
        <ele>234</ele>
        <time>2021-09-12T08:38:16.809Z</time>
      </trkpt>
      <trkpt lat="45.82959" lon="5.79899">
        <ele>233</ele>
        <time>2021-09-12T08:38:17.809Z</time>
      </trkpt>
      <trkpt lat="45.82955" lon="5.79906">
        <ele>233</ele>
        <time>2021-09-12T08:38:18.809Z</time>
      </trkpt>
      <trkpt lat="45.82952" lon="5.79912">
        <ele>233</ele>
        <time>2021-09-12T08:38:19.809Z</time>
      </trkpt>
      <trkpt lat="45.82949" lon="5.79916">
        <ele>232</ele>
        <time>2021-09-12T08:38:20.808Z</time>
      </trkpt>
      <trkpt lat="45.82945" lon="5.79923">
        <ele>232</ele>
        <time>2021-09-12T08:38:21.809Z</time>
      </trkpt>
      <trkpt lat="45.82941" lon="5.79928">
        <ele>231</ele>
        <time>2021-09-12T08:38:22.809Z</time>
      </trkpt>
      <trkpt lat="45.82938" lon="5.79933">
        <ele>231</ele>
        <time>2021-09-12T08:38:23.808Z</time>
      </trkpt>
      <trkpt lat="45.82935" lon="5.79937">
        <ele>231</ele>
        <time>2021-09-12T08:38:24.809Z</time>
      </trkpt>
      <trkpt lat="45.82932" lon="5.79941">
        <ele>232</ele>
        <time>2021-09-12T08:38:25.809Z</time>
      </trkpt>
      <trkpt lat="45.82927" lon="5.79947">
        <ele>232</ele>
        <time>2021-09-12T08:38:26.809Z</time>
      </trkpt>
      <trkpt lat="45.82924" lon="5.79952">
        <ele>232</ele>
        <time>2021-09-12T08:38:27.809Z</time>
      </trkpt>
      <trkpt lat="45.8292" lon="5.79956">
        <ele>232</ele>
        <time>2021-09-12T08:38:28.809Z</time>
      </trkpt>
      <trkpt lat="45.82917" lon="5.7996">
        <ele>231</ele>
        <time>2021-09-12T08:38:29.809Z</time>
      </trkpt>
      <trkpt lat="45.82914" lon="5.79963">
        <ele>231</ele>
        <time>2021-09-12T08:38:30.809Z</time>
      </trkpt>
      <trkpt lat="45.82911" lon="5.79966">
        <ele>231</ele>
        <time>2021-09-12T08:38:31.809Z</time>
      </trkpt>
      <trkpt lat="45.82908" lon="5.79969">
        <ele>231</ele>
        <time>2021-09-12T08:38:32.809Z</time>
      </trkpt>
      <trkpt lat="45.82906" lon="5.79972">
        <ele>231</ele>
        <time>2021-09-12T08:38:33.809Z</time>
      </trkpt>
      <trkpt lat="45.82903" lon="5.79974">
        <ele>232</ele>
        <time>2021-09-12T08:38:34.808Z</time>
      </trkpt>
      <trkpt lat="45.82901" lon="5.79977">
        <ele>232</ele>
        <time>2021-09-12T08:38:35.809Z</time>
      </trkpt>
      <trkpt lat="45.82899" lon="5.79979">
        <ele>232</ele>
        <time>2021-09-12T08:38:36.808Z</time>
      </trkpt>
      <trkpt lat="45.82896" lon="5.79983">
        <ele>233</ele>
        <time>2021-09-12T08:38:37.808Z</time>
      </trkpt>
      <trkpt lat="45.82894" lon="5.79986">
        <ele>233</ele>
        <time>2021-09-12T08:38:38.809Z</time>
      </trkpt>
      <trkpt lat="45.82891" lon="5.7999">
        <ele>233</ele>
        <time>2021-09-12T08:38:39.808Z</time>
      </trkpt>
      <trkpt lat="45.82889" lon="5.79994">
        <ele>233</ele>
        <time>2021-09-12T08:38:40.808Z</time>
      </trkpt>
      <trkpt lat="45.82886" lon="5.79999">
        <ele>233</ele>
        <time>2021-09-12T08:38:41.809Z</time>
      </trkpt>
      <trkpt lat="45.82884" lon="5.80004">
        <ele>233</ele>
        <time>2021-09-12T08:38:42.808Z</time>
      </trkpt>
      <trkpt lat="45.82881" lon="5.80009">
        <ele>233</ele>
        <time>2021-09-12T08:38:43.809Z</time>
      </trkpt>
      <trkpt lat="45.82878" lon="5.80015">
        <ele>233</ele>
        <time>2021-09-12T08:38:44.808Z</time>
      </trkpt>
      <trkpt lat="45.82874" lon="5.8002">
        <ele>233</ele>
        <time>2021-09-12T08:38:45.809Z</time>
      </trkpt>
      <trkpt lat="45.82871" lon="5.80026">
        <ele>233</ele>
        <time>2021-09-12T08:38:46.809Z</time>
      </trkpt>
      <trkpt lat="45.82867" lon="5.80032">
        <ele>233</ele>
        <time>2021-09-12T08:38:47.809Z</time>
      </trkpt>
      <trkpt lat="45.82864" lon="5.80038">
        <ele>233</ele>
        <time>2021-09-12T08:38:48.809Z</time>
      </trkpt>
      <trkpt lat="45.8286" lon="5.80043">
        <ele>233</ele>
        <time>2021-09-12T08:38:49.808Z</time>
      </trkpt>
      <trkpt lat="45.82856" lon="5.80049">
        <ele>234</ele>
        <time>2021-09-12T08:38:50.809Z</time>
      </trkpt>
      <trkpt lat="45.82852" lon="5.80054">
        <ele>234</ele>
        <time>2021-09-12T08:38:51.808Z</time>
      </trkpt>
      <trkpt lat="45.82848" lon="5.80059">
        <ele>234</ele>
        <time>2021-09-12T08:38:52.809Z</time>
      </trkpt>
      <trkpt lat="45.82844" lon="5.80065">
        <ele>234</ele>
        <time>2021-09-12T08:38:53.809Z</time>
      </trkpt>
      <trkpt lat="45.82841" lon="5.80071">
        <ele>234</ele>
        <time>2021-09-12T08:38:54.809Z</time>
      </trkpt>
      <trkpt lat="45.82837" lon="5.80075">
        <ele>233</ele>
        <time>2021-09-12T08:38:55.809Z</time>
      </trkpt>
      <trkpt lat="45.82834" lon="5.80079">
        <ele>233</ele>
        <time>2021-09-12T08:38:56.809Z</time>
      </trkpt>
      <trkpt lat="45.8283" lon="5.80081">
        <ele>233</ele>
        <time>2021-09-12T08:38:57.809Z</time>
      </trkpt>
      <trkpt lat="45.82827" lon="5.80081">
        <ele>232</ele>
        <time>2021-09-12T08:38:58.809Z</time>
      </trkpt>
      <trkpt lat="45.82825" lon="5.8008">
        <ele>232</ele>
        <time>2021-09-12T08:38:59.809Z</time>
      </trkpt>
      <trkpt lat="45.82823" lon="5.80078">
        <ele>232</ele>
        <time>2021-09-12T08:39:00.809Z</time>
      </trkpt>
      <trkpt lat="45.82821" lon="5.80076">
        <ele>232</ele>
        <time>2021-09-12T08:39:01.809Z</time>
      </trkpt>
      <trkpt lat="45.82819" lon="5.80074">
        <ele>232</ele>
        <time>2021-09-12T08:39:02.809Z</time>
      </trkpt>
      <trkpt lat="45.82817" lon="5.80072">
        <ele>232</ele>
        <time>2021-09-12T08:39:03.809Z</time>
      </trkpt>
      <trkpt lat="45.82814" lon="5.8007">
        <ele>232</ele>
        <time>2021-09-12T08:39:04.808Z</time>
      </trkpt>
      <trkpt lat="45.82811" lon="5.80068">
        <ele>232</ele>
        <time>2021-09-12T08:39:05.809Z</time>
      </trkpt>
      <trkpt lat="45.82807" lon="5.80066">
        <ele>232</ele>
        <time>2021-09-12T08:39:06.808Z</time>
      </trkpt>
      <trkpt lat="45.82803" lon="5.80064">
        <ele>232</ele>
        <time>2021-09-12T08:39:07.809Z</time>
      </trkpt>
      <trkpt lat="45.82799" lon="5.80062">
        <ele>231</ele>
        <time>2021-09-12T08:39:08.809Z</time>
      </trkpt>
      <trkpt lat="45.82794" lon="5.80061">
        <ele>231</ele>
        <time>2021-09-12T08:39:09.808Z</time>
      </trkpt>
      <trkpt lat="45.8279" lon="5.8006">
        <ele>231</ele>
        <time>2021-09-12T08:39:10.809Z</time>
      </trkpt>
      <trkpt lat="45.82785" lon="5.80059">
        <ele>231</ele>
        <time>2021-09-12T08:39:11.808Z</time>
      </trkpt>
      <trkpt lat="45.8278" lon="5.80059">
        <ele>230</ele>
        <time>2021-09-12T08:39:12.809Z</time>
      </trkpt>
      <trkpt lat="45.82775" lon="5.80058">
        <ele>230</ele>
        <time>2021-09-12T08:39:13.809Z</time>
      </trkpt>
      <trkpt lat="45.8277" lon="5.80056">
        <ele>229</ele>
        <time>2021-09-12T08:39:14.808Z</time>
      </trkpt>
      <trkpt lat="45.82765" lon="5.80055">
        <ele>229</ele>
        <time>2021-09-12T08:39:15.809Z</time>
      </trkpt>
      <trkpt lat="45.8276" lon="5.80053">
        <ele>229</ele>
        <time>2021-09-12T08:39:16.809Z</time>
      </trkpt>
      <trkpt lat="45.82755" lon="5.8005">
        <ele>229</ele>
        <time>2021-09-12T08:39:17.809Z</time>
      </trkpt>
      <trkpt lat="45.8275" lon="5.80048">
        <ele>229</ele>
        <time>2021-09-12T08:39:18.809Z</time>
      </trkpt>
      <trkpt lat="45.82745" lon="5.80045">
        <ele>229</ele>
        <time>2021-09-12T08:39:19.809Z</time>
      </trkpt>
      <trkpt lat="45.8274" lon="5.80043">
        <ele>229</ele>
        <time>2021-09-12T08:39:20.809Z</time>
      </trkpt>
      <trkpt lat="45.82735" lon="5.80039">
        <ele>229</ele>
        <time>2021-09-12T08:39:21.809Z</time>
      </trkpt>
      <trkpt lat="45.82731" lon="5.80035">
        <ele>229</ele>
        <time>2021-09-12T08:39:22.809Z</time>
      </trkpt>
      <trkpt lat="45.82727" lon="5.80031">
        <ele>229</ele>
        <time>2021-09-12T08:39:23.809Z</time>
      </trkpt>
      <trkpt lat="45.82723" lon="5.80027">
        <ele>229</ele>
        <time>2021-09-12T08:39:24.809Z</time>
      </trkpt>
      <trkpt lat="45.82718" lon="5.80023">
        <ele>229</ele>
        <time>2021-09-12T08:39:25.809Z</time>
      </trkpt>
      <trkpt lat="45.82714" lon="5.80019">
        <ele>229</ele>
        <time>2021-09-12T08:39:26.809Z</time>
      </trkpt>
      <trkpt lat="45.8271" lon="5.80015">
        <ele>229</ele>
        <time>2021-09-12T08:39:27.808Z</time>
      </trkpt>
      <trkpt lat="45.82705" lon="5.80011">
        <ele>229</ele>
        <time>2021-09-12T08:39:28.809Z</time>
      </trkpt>
      <trkpt lat="45.82701" lon="5.80008">
        <ele>229</ele>
        <time>2021-09-12T08:39:29.809Z</time>
      </trkpt>
      <trkpt lat="45.82696" lon="5.80005">
        <ele>230</ele>
        <time>2021-09-12T08:39:30.809Z</time>
      </trkpt>
      <trkpt lat="45.82692" lon="5.80001">
        <ele>230</ele>
        <time>2021-09-12T08:39:31.809Z</time>
      </trkpt>
      <trkpt lat="45.82687" lon="5.79999">
        <ele>230</ele>
        <time>2021-09-12T08:39:32.809Z</time>
      </trkpt>
      <trkpt lat="45.82683" lon="5.79996">
        <ele>230</ele>
        <time>2021-09-12T08:39:33.809Z</time>
      </trkpt>
      <trkpt lat="45.82678" lon="5.79994">
        <ele>230</ele>
        <time>2021-09-12T08:39:34.809Z</time>
      </trkpt>
      <trkpt lat="45.82673" lon="5.79992">
        <ele>230</ele>
        <time>2021-09-12T08:39:35.809Z</time>
      </trkpt>
      <trkpt lat="45.82668" lon="5.7999">
        <ele>230</ele>
        <time>2021-09-12T08:39:36.809Z</time>
      </trkpt>
      <trkpt lat="45.82663" lon="5.79989">
        <ele>230</ele>
        <time>2021-09-12T08:39:37.809Z</time>
      </trkpt>
      <trkpt lat="45.82658" lon="5.79987">
        <ele>230</ele>
        <time>2021-09-12T08:39:38.809Z</time>
      </trkpt>
      <trkpt lat="45.82653" lon="5.79986">
        <ele>230</ele>
        <time>2021-09-12T08:39:39.808Z</time>
      </trkpt>
      <trkpt lat="45.82647" lon="5.79985">
        <ele>230</ele>
        <time>2021-09-12T08:39:40.809Z</time>
      </trkpt>
      <trkpt lat="45.82642" lon="5.79985">
        <ele>230</ele>
        <time>2021-09-12T08:39:41.809Z</time>
      </trkpt>
      <trkpt lat="45.82638" lon="5.79984">
        <ele>230</ele>
        <time>2021-09-12T08:39:42.809Z</time>
      </trkpt>
      <trkpt lat="45.82631" lon="5.79982">
        <ele>230</ele>
        <time>2021-09-12T08:39:43.809Z</time>
      </trkpt>
      <trkpt lat="45.82626" lon="5.79981">
        <ele>230</ele>
        <time>2021-09-12T08:39:44.809Z</time>
      </trkpt>
      <trkpt lat="45.82621" lon="5.79979">
        <ele>230</ele>
        <time>2021-09-12T08:39:45.809Z</time>
      </trkpt>
      <trkpt lat="45.82616" lon="5.79977">
        <ele>230</ele>
        <time>2021-09-12T08:39:46.808Z</time>
      </trkpt>
      <trkpt lat="45.82611" lon="5.79975">
        <ele>229</ele>
        <time>2021-09-12T08:39:47.808Z</time>
      </trkpt>
      <trkpt lat="45.82606" lon="5.79972">
        <ele>229</ele>
        <time>2021-09-12T08:39:48.809Z</time>
      </trkpt>
      <trkpt lat="45.82601" lon="5.7997">
        <ele>229</ele>
        <time>2021-09-12T08:39:49.808Z</time>
      </trkpt>
      <trkpt lat="45.82596" lon="5.79967">
        <ele>229</ele>
        <time>2021-09-12T08:39:50.808Z</time>
      </trkpt>
      <trkpt lat="45.82591" lon="5.79964">
        <ele>229</ele>
        <time>2021-09-12T08:39:51.809Z</time>
      </trkpt>
      <trkpt lat="45.82586" lon="5.79961">
        <ele>229</ele>
        <time>2021-09-12T08:39:52.809Z</time>
      </trkpt>
      <trkpt lat="45.82582" lon="5.79958">
        <ele>229</ele>
        <time>2021-09-12T08:39:53.808Z</time>
      </trkpt>
      <trkpt lat="45.82577" lon="5.79955">
        <ele>229</ele>
        <time>2021-09-12T08:39:54.809Z</time>
      </trkpt>
      <trkpt lat="45.82573" lon="5.79953">
        <ele>229</ele>
        <time>2021-09-12T08:39:55.809Z</time>
      </trkpt>
      <trkpt lat="45.82567" lon="5.7995">
        <ele>229</ele>
        <time>2021-09-12T08:39:56.808Z</time>
      </trkpt>
      <trkpt lat="45.82562" lon="5.79948">
        <ele>229</ele>
        <time>2021-09-12T08:39:57.808Z</time>
      </trkpt>
      <trkpt lat="45.82556" lon="5.79946">
        <ele>229</ele>
        <time>2021-09-12T08:39:58.809Z</time>
      </trkpt>
      <trkpt lat="45.82552" lon="5.79944">
        <ele>229</ele>
        <time>2021-09-12T08:39:59.808Z</time>
      </trkpt>
      <trkpt lat="45.82546" lon="5.79942">
        <ele>229</ele>
        <time>2021-09-12T08:40:00.809Z</time>
      </trkpt>
      <trkpt lat="45.8254" lon="5.7994">
        <ele>229</ele>
        <time>2021-09-12T08:40:01.809Z</time>
      </trkpt>
      <trkpt lat="45.82534" lon="5.79938">
        <ele>229</ele>
        <time>2021-09-12T08:40:02.808Z</time>
      </trkpt>
      <trkpt lat="45.82528" lon="5.79937">
        <ele>229</ele>
        <time>2021-09-12T08:40:03.809Z</time>
      </trkpt>
      <trkpt lat="45.82523" lon="5.79935">
        <ele>229</ele>
        <time>2021-09-12T08:40:04.809Z</time>
      </trkpt>
      <trkpt lat="45.82517" lon="5.79932">
        <ele>229</ele>
        <time>2021-09-12T08:40:05.809Z</time>
      </trkpt>
      <trkpt lat="45.82512" lon="5.79929">
        <ele>228</ele>
        <time>2021-09-12T08:40:06.809Z</time>
      </trkpt>
      <trkpt lat="45.82507" lon="5.79926">
        <ele>228</ele>
        <time>2021-09-12T08:40:07.809Z</time>
      </trkpt>
      <trkpt lat="45.82503" lon="5.79922">
        <ele>228</ele>
        <time>2021-09-12T08:40:08.809Z</time>
      </trkpt>
      <trkpt lat="45.82497" lon="5.79917">
        <ele>229</ele>
        <time>2021-09-12T08:40:09.809Z</time>
      </trkpt>
      <trkpt lat="45.82492" lon="5.79912">
        <ele>228</ele>
        <time>2021-09-12T08:40:10.809Z</time>
      </trkpt>
      <trkpt lat="45.82488" lon="5.79907">
        <ele>228</ele>
        <time>2021-09-12T08:40:11.808Z</time>
      </trkpt>
      <trkpt lat="45.82484" lon="5.79902">
        <ele>228</ele>
        <time>2021-09-12T08:40:12.809Z</time>
      </trkpt>
      <trkpt lat="45.8248" lon="5.79897">
        <ele>228</ele>
        <time>2021-09-12T08:40:13.808Z</time>
      </trkpt>
      <trkpt lat="45.82476" lon="5.79892">
        <ele>229</ele>
        <time>2021-09-12T08:40:14.809Z</time>
      </trkpt>
      <trkpt lat="45.82472" lon="5.79886">
        <ele>229</ele>
        <time>2021-09-12T08:40:15.808Z</time>
      </trkpt>
      <trkpt lat="45.82468" lon="5.7988">
        <ele>229</ele>
        <time>2021-09-12T08:40:16.809Z</time>
      </trkpt>
      <trkpt lat="45.82464" lon="5.79874">
        <ele>229</ele>
        <time>2021-09-12T08:40:17.809Z</time>
      </trkpt>
      <trkpt lat="45.82461" lon="5.7987">
        <ele>229</ele>
        <time>2021-09-12T08:40:18.809Z</time>
      </trkpt>
      <trkpt lat="45.82456" lon="5.79864">
        <ele>229</ele>
        <time>2021-09-12T08:40:19.809Z</time>
      </trkpt>
      <trkpt lat="45.82451" lon="5.79861">
        <ele>229</ele>
        <time>2021-09-12T08:40:20.809Z</time>
      </trkpt>
      <trkpt lat="45.82446" lon="5.79858">
        <ele>229</ele>
        <time>2021-09-12T08:40:21.809Z</time>
      </trkpt>
      <trkpt lat="45.8244" lon="5.79857">
        <ele>229</ele>
        <time>2021-09-12T08:40:22.809Z</time>
      </trkpt>
      <trkpt lat="45.82435" lon="5.79857">
        <ele>228</ele>
        <time>2021-09-12T08:40:23.809Z</time>
      </trkpt>
      <trkpt lat="45.82429" lon="5.79858">
        <ele>228</ele>
        <time>2021-09-12T08:40:24.808Z</time>
      </trkpt>
      <trkpt lat="45.82424" lon="5.79859">
        <ele>228</ele>
        <time>2021-09-12T08:40:25.809Z</time>
      </trkpt>
      <trkpt lat="45.8242" lon="5.79859">
        <ele>228</ele>
        <time>2021-09-12T08:40:26.809Z</time>
      </trkpt>
      <trkpt lat="45.82414" lon="5.79858">
        <ele>228</ele>
        <time>2021-09-12T08:40:27.809Z</time>
      </trkpt>
      <trkpt lat="45.82408" lon="5.79856">
        <ele>228</ele>
        <time>2021-09-12T08:40:28.808Z</time>
      </trkpt>
      <trkpt lat="45.82403" lon="5.79853">
        <ele>228</ele>
        <time>2021-09-12T08:40:29.809Z</time>
      </trkpt>
      <trkpt lat="45.82399" lon="5.79849">
        <ele>229</ele>
        <time>2021-09-12T08:40:30.809Z</time>
      </trkpt>
      <trkpt lat="45.82394" lon="5.79844">
        <ele>229</ele>
        <time>2021-09-12T08:40:31.809Z</time>
      </trkpt>
      <trkpt lat="45.82391" lon="5.7984">
        <ele>230</ele>
        <time>2021-09-12T08:40:32.808Z</time>
      </trkpt>
      <trkpt lat="45.82387" lon="5.79834">
        <ele>230</ele>
        <time>2021-09-12T08:40:33.809Z</time>
      </trkpt>
      <trkpt lat="45.82384" lon="5.79828">
        <ele>230</ele>
        <time>2021-09-12T08:40:34.808Z</time>
      </trkpt>
      <trkpt lat="45.82381" lon="5.79823">
        <ele>230</ele>
        <time>2021-09-12T08:40:35.809Z</time>
      </trkpt>
      <trkpt lat="45.82377" lon="5.79816">
        <ele>230</ele>
        <time>2021-09-12T08:40:36.808Z</time>
      </trkpt>
      <trkpt lat="45.82375" lon="5.79809">
        <ele>230</ele>
        <time>2021-09-12T08:40:37.809Z</time>
      </trkpt>
      <trkpt lat="45.82372" lon="5.79802">
        <ele>230</ele>
        <time>2021-09-12T08:40:38.809Z</time>
      </trkpt>
      <trkpt lat="45.8237" lon="5.79795">
        <ele>230</ele>
        <time>2021-09-12T08:40:39.809Z</time>
      </trkpt>
      <trkpt lat="45.82368" lon="5.79789">
        <ele>230</ele>
        <time>2021-09-12T08:40:40.808Z</time>
      </trkpt>
      <trkpt lat="45.82366" lon="5.79781">
        <ele>230</ele>
        <time>2021-09-12T08:40:41.809Z</time>
      </trkpt>
      <trkpt lat="45.82363" lon="5.79774">
        <ele>230</ele>
        <time>2021-09-12T08:40:42.809Z</time>
      </trkpt>
      <trkpt lat="45.82361" lon="5.79769">
        <ele>230</ele>
        <time>2021-09-12T08:40:43.808Z</time>
      </trkpt>
      <trkpt lat="45.82358" lon="5.79763">
        <ele>229</ele>
        <time>2021-09-12T08:40:44.809Z</time>
      </trkpt>
      <trkpt lat="45.82354" lon="5.79757">
        <ele>229</ele>
        <time>2021-09-12T08:40:45.809Z</time>
      </trkpt>
      <trkpt lat="45.82349" lon="5.79751">
        <ele>229</ele>
        <time>2021-09-12T08:40:46.809Z</time>
      </trkpt>
      <trkpt lat="45.82345" lon="5.79746">
        <ele>229</ele>
        <time>2021-09-12T08:40:47.809Z</time>
      </trkpt>
      <trkpt lat="45.82341" lon="5.79741">
        <ele>229</ele>
        <time>2021-09-12T08:40:48.808Z</time>
      </trkpt>
      <trkpt lat="45.82337" lon="5.79736">
        <ele>230</ele>
        <time>2021-09-12T08:40:49.808Z</time>
      </trkpt>
      <trkpt lat="45.82334" lon="5.79732">
        <ele>230</ele>
        <time>2021-09-12T08:40:50.809Z</time>
      </trkpt>
      <trkpt lat="45.82329" lon="5.79726">
        <ele>229</ele>
        <time>2021-09-12T08:40:51.809Z</time>
      </trkpt>
      <trkpt lat="45.82324" lon="5.7972">
        <ele>229</ele>
        <time>2021-09-12T08:40:52.809Z</time>
      </trkpt>
      <trkpt lat="45.8232" lon="5.79715">
        <ele>229</ele>
        <time>2021-09-12T08:40:53.809Z</time>
      </trkpt>
      <trkpt lat="45.82318" lon="5.7971">
        <ele>229</ele>
        <time>2021-09-12T08:40:54.809Z</time>
      </trkpt>
      <trkpt lat="45.82314" lon="5.79702">
        <ele>229</ele>
        <time>2021-09-12T08:40:55.809Z</time>
      </trkpt>
      <trkpt lat="45.82312" lon="5.79694">
        <ele>229</ele>
        <time>2021-09-12T08:40:56.808Z</time>
      </trkpt>
      <trkpt lat="45.8231" lon="5.79687">
        <ele>230</ele>
        <time>2021-09-12T08:40:57.808Z</time>
      </trkpt>
      <trkpt lat="45.82309" lon="5.79679">
        <ele>230</ele>
        <time>2021-09-12T08:40:58.809Z</time>
      </trkpt>
      <trkpt lat="45.82309" lon="5.79673">
        <ele>230</ele>
        <time>2021-09-12T08:40:59.808Z</time>
      </trkpt>
      <trkpt lat="45.82309" lon="5.79663">
        <ele>230</ele>
        <time>2021-09-12T08:41:00.809Z</time>
      </trkpt>
      <trkpt lat="45.8231" lon="5.79655">
        <ele>231</ele>
        <time>2021-09-12T08:41:01.808Z</time>
      </trkpt>
      <trkpt lat="45.82311" lon="5.79647">
        <ele>231</ele>
        <time>2021-09-12T08:41:02.808Z</time>
      </trkpt>
      <trkpt lat="45.82312" lon="5.79639">
        <ele>231</ele>
        <time>2021-09-12T08:41:03.809Z</time>
      </trkpt>
      <trkpt lat="45.82312" lon="5.79633">
        <ele>231</ele>
        <time>2021-09-12T08:41:04.809Z</time>
      </trkpt>
      <trkpt lat="45.82312" lon="5.79626">
        <ele>231</ele>
        <time>2021-09-12T08:41:05.809Z</time>
      </trkpt>
      <trkpt lat="45.8231" lon="5.79618">
        <ele>231</ele>
        <time>2021-09-12T08:41:06.809Z</time>
      </trkpt>
      <trkpt lat="45.82307" lon="5.79614">
        <ele>231</ele>
        <time>2021-09-12T08:41:07.809Z</time>
      </trkpt>
      <trkpt lat="45.82303" lon="5.7961">
        <ele>231</ele>
        <time>2021-09-12T08:41:08.809Z</time>
      </trkpt>
      <trkpt lat="45.82298" lon="5.79608">
        <ele>230</ele>
        <time>2021-09-12T08:41:09.809Z</time>
      </trkpt>
      <trkpt lat="45.82293" lon="5.79607">
        <ele>230</ele>
        <time>2021-09-12T08:41:10.809Z</time>
      </trkpt>
      <trkpt lat="45.82288" lon="5.79605">
        <ele>229</ele>
        <time>2021-09-12T08:41:11.809Z</time>
      </trkpt>
      <trkpt lat="45.82283" lon="5.79602">
        <ele>229</ele>
        <time>2021-09-12T08:41:12.809Z</time>
      </trkpt>
      <trkpt lat="45.82278" lon="5.79598">
        <ele>229</ele>
        <time>2021-09-12T08:41:13.809Z</time>
      </trkpt>
      <trkpt lat="45.82275" lon="5.79594">
        <ele>228</ele>
        <time>2021-09-12T08:41:14.809Z</time>
      </trkpt>
      <trkpt lat="45.82271" lon="5.79588">
        <ele>229</ele>
        <time>2021-09-12T08:41:15.808Z</time>
      </trkpt>
      <trkpt lat="45.82267" lon="5.79582">
        <ele>229</ele>
        <time>2021-09-12T08:41:16.809Z</time>
      </trkpt>
      <trkpt lat="45.82263" lon="5.79577">
        <ele>228</ele>
        <time>2021-09-12T08:41:17.809Z</time>
      </trkpt>
      <trkpt lat="45.82259" lon="5.79572">
        <ele>228</ele>
        <time>2021-09-12T08:41:18.809Z</time>
      </trkpt>
      <trkpt lat="45.82255" lon="5.79569">
        <ele>228</ele>
        <time>2021-09-12T08:41:19.809Z</time>
      </trkpt>
      <trkpt lat="45.8225" lon="5.79566">
        <ele>228</ele>
        <time>2021-09-12T08:41:20.809Z</time>
      </trkpt>
      <trkpt lat="45.82245" lon="5.79564">
        <ele>228</ele>
        <time>2021-09-12T08:41:21.808Z</time>
      </trkpt>
      <trkpt lat="45.8224" lon="5.79562">
        <ele>227</ele>
        <time>2021-09-12T08:41:22.809Z</time>
      </trkpt>
      <trkpt lat="45.82236" lon="5.7956">
        <ele>227</ele>
        <time>2021-09-12T08:41:23.808Z</time>
      </trkpt>
      <trkpt lat="45.82231" lon="5.79558">
        <ele>227</ele>
        <time>2021-09-12T08:41:24.809Z</time>
      </trkpt>
      <trkpt lat="45.82226" lon="5.79556">
        <ele>227</ele>
        <time>2021-09-12T08:41:25.808Z</time>
      </trkpt>
      <trkpt lat="45.82221" lon="5.79553">
        <ele>228</ele>
        <time>2021-09-12T08:41:26.809Z</time>
      </trkpt>
      <trkpt lat="45.82216" lon="5.7955">
        <ele>228</ele>
        <time>2021-09-12T08:41:27.809Z</time>
      </trkpt>
      <trkpt lat="45.82212" lon="5.79545">
        <ele>228</ele>
        <time>2021-09-12T08:41:28.809Z</time>
      </trkpt>
      <trkpt lat="45.82209" lon="5.7954">
        <ele>228</ele>
        <time>2021-09-12T08:41:29.809Z</time>
      </trkpt>
      <trkpt lat="45.82206" lon="5.79534">
        <ele>228</ele>
        <time>2021-09-12T08:41:30.809Z</time>
      </trkpt>
      <trkpt lat="45.82203" lon="5.79527">
        <ele>228</ele>
        <time>2021-09-12T08:41:31.809Z</time>
      </trkpt>
      <trkpt lat="45.82201" lon="5.7952">
        <ele>229</ele>
        <time>2021-09-12T08:41:32.809Z</time>
      </trkpt>
      <trkpt lat="45.822" lon="5.79514">
        <ele>229</ele>
        <time>2021-09-12T08:41:33.808Z</time>
      </trkpt>
      <trkpt lat="45.82197" lon="5.79506">
        <ele>229</ele>
        <time>2021-09-12T08:41:34.809Z</time>
      </trkpt>
      <trkpt lat="45.82195" lon="5.79499">
        <ele>229</ele>
        <time>2021-09-12T08:41:35.809Z</time>
      </trkpt>
      <trkpt lat="45.82192" lon="5.79493">
        <ele>229</ele>
        <time>2021-09-12T08:41:36.809Z</time>
      </trkpt>
      <trkpt lat="45.82189" lon="5.79489">
        <ele>230</ele>
        <time>2021-09-12T08:41:37.808Z</time>
      </trkpt>
      <trkpt lat="45.82184" lon="5.79484">
        <ele>229</ele>
        <time>2021-09-12T08:41:38.809Z</time>
      </trkpt>
      <trkpt lat="45.82179" lon="5.7948">
        <ele>229</ele>
        <time>2021-09-12T08:41:39.809Z</time>
      </trkpt>
      <trkpt lat="45.82175" lon="5.79475">
        <ele>229</ele>
        <time>2021-09-12T08:41:40.809Z</time>
      </trkpt>
      <trkpt lat="45.8217" lon="5.79472">
        <ele>228</ele>
        <time>2021-09-12T08:41:41.809Z</time>
      </trkpt>
      <trkpt lat="45.82166" lon="5.79468">
        <ele>228</ele>
        <time>2021-09-12T08:41:42.808Z</time>
      </trkpt>
      <trkpt lat="45.82162" lon="5.79465">
        <ele>228</ele>
        <time>2021-09-12T08:41:43.808Z</time>
      </trkpt>
      <trkpt lat="45.82157" lon="5.79461">
        <ele>227</ele>
        <time>2021-09-12T08:41:44.809Z</time>
      </trkpt>
      <trkpt lat="45.82153" lon="5.79457">
        <ele>227</ele>
        <time>2021-09-12T08:41:45.809Z</time>
      </trkpt>
      <trkpt lat="45.82148" lon="5.79455">
        <ele>227</ele>
        <time>2021-09-12T08:41:46.808Z</time>
      </trkpt>
      <trkpt lat="45.82144" lon="5.79452">
        <ele>227</ele>
        <time>2021-09-12T08:41:47.809Z</time>
      </trkpt>
      <trkpt lat="45.82141" lon="5.79449">
        <ele>227</ele>
        <time>2021-09-12T08:41:48.809Z</time>
      </trkpt>
      <trkpt lat="45.82135" lon="5.79445">
        <ele>227</ele>
        <time>2021-09-12T08:41:49.809Z</time>
      </trkpt>
      <trkpt lat="45.82131" lon="5.79442">
        <ele>227</ele>
        <time>2021-09-12T08:41:50.808Z</time>
      </trkpt>
      <trkpt lat="45.82127" lon="5.79439">
        <ele>227</ele>
        <time>2021-09-12T08:41:51.809Z</time>
      </trkpt>
      <trkpt lat="45.82122" lon="5.79436">
        <ele>227</ele>
        <time>2021-09-12T08:41:52.809Z</time>
      </trkpt>
      <trkpt lat="45.82117" lon="5.79433">
        <ele>227</ele>
        <time>2021-09-12T08:41:53.809Z</time>
      </trkpt>
      <trkpt lat="45.82113" lon="5.79429">
        <ele>227</ele>
        <time>2021-09-12T08:41:54.809Z</time>
      </trkpt>
      <trkpt lat="45.82109" lon="5.79425">
        <ele>227</ele>
        <time>2021-09-12T08:41:55.809Z</time>
      </trkpt>
      <trkpt lat="45.82105" lon="5.79421">
        <ele>228</ele>
        <time>2021-09-12T08:41:56.809Z</time>
      </trkpt>
      <trkpt lat="45.82102" lon="5.79416">
        <ele>228</ele>
        <time>2021-09-12T08:41:57.809Z</time>
      </trkpt>
      <trkpt lat="45.82098" lon="5.79412">
        <ele>228</ele>
        <time>2021-09-12T08:41:58.809Z</time>
      </trkpt>
      <trkpt lat="45.82095" lon="5.79407">
        <ele>228</ele>
        <time>2021-09-12T08:41:59.809Z</time>
      </trkpt>
      <trkpt lat="45.82092" lon="5.79402">
        <ele>228</ele>
        <time>2021-09-12T08:42:00.809Z</time>
      </trkpt>
      <trkpt lat="45.8209" lon="5.79396">
        <ele>228</ele>
        <time>2021-09-12T08:42:01.808Z</time>
      </trkpt>
      <trkpt lat="45.82087" lon="5.7939">
        <ele>228</ele>
        <time>2021-09-12T08:42:02.809Z</time>
      </trkpt>
      <trkpt lat="45.82084" lon="5.79384">
        <ele>229</ele>
        <time>2021-09-12T08:42:03.809Z</time>
      </trkpt>
      <trkpt lat="45.82081" lon="5.79378">
        <ele>229</ele>
        <time>2021-09-12T08:42:04.809Z</time>
      </trkpt>
      <trkpt lat="45.82079" lon="5.79371">
        <ele>229</ele>
        <time>2021-09-12T08:42:05.808Z</time>
      </trkpt>
      <trkpt lat="45.82076" lon="5.79365">
        <ele>229</ele>
        <time>2021-09-12T08:42:06.809Z</time>
      </trkpt>
      <trkpt lat="45.82072" lon="5.7936">
        <ele>229</ele>
        <time>2021-09-12T08:42:07.809Z</time>
      </trkpt>
      <trkpt lat="45.82068" lon="5.79354">
        <ele>229</ele>
        <time>2021-09-12T08:42:08.809Z</time>
      </trkpt>
      <trkpt lat="45.82064" lon="5.79349">
        <ele>229</ele>
        <time>2021-09-12T08:42:09.809Z</time>
      </trkpt>
      <trkpt lat="45.82059" lon="5.79345">
        <ele>229</ele>
        <time>2021-09-12T08:42:10.809Z</time>
      </trkpt>
      <trkpt lat="45.82054" lon="5.79341">
        <ele>229</ele>
        <time>2021-09-12T08:42:11.809Z</time>
      </trkpt>
      <trkpt lat="45.82048" lon="5.79336">
        <ele>229</ele>
        <time>2021-09-12T08:42:12.808Z</time>
      </trkpt>
      <trkpt lat="45.82044" lon="5.79332">
        <ele>229</ele>
        <time>2021-09-12T08:42:13.809Z</time>
      </trkpt>
      <trkpt lat="45.82039" lon="5.79327">
        <ele>229</ele>
        <time>2021-09-12T08:42:14.809Z</time>
      </trkpt>
      <trkpt lat="45.82034" lon="5.79322">
        <ele>229</ele>
        <time>2021-09-12T08:42:15.808Z</time>
      </trkpt>
      <trkpt lat="45.82029" lon="5.79317">
        <ele>229</ele>
        <time>2021-09-12T08:42:16.809Z</time>
      </trkpt>
      <trkpt lat="45.82025" lon="5.79312">
        <ele>230</ele>
        <time>2021-09-12T08:42:17.809Z</time>
      </trkpt>
      <trkpt lat="45.8202" lon="5.79306">
        <ele>230</ele>
        <time>2021-09-12T08:42:18.809Z</time>
      </trkpt>
      <trkpt lat="45.82016" lon="5.79301">
        <ele>230</ele>
        <time>2021-09-12T08:42:19.809Z</time>
      </trkpt>
      <trkpt lat="45.82011" lon="5.79296">
        <ele>230</ele>
        <time>2021-09-12T08:42:20.809Z</time>
      </trkpt>
      <trkpt lat="45.82007" lon="5.79291">
        <ele>230</ele>
        <time>2021-09-12T08:42:21.809Z</time>
      </trkpt>
      <trkpt lat="45.82002" lon="5.79286">
        <ele>230</ele>
        <time>2021-09-12T08:42:22.809Z</time>
      </trkpt>
      <trkpt lat="45.81998" lon="5.79281">
        <ele>231</ele>
        <time>2021-09-12T08:42:23.809Z</time>
      </trkpt>
      <trkpt lat="45.81993" lon="5.79277">
        <ele>231</ele>
        <time>2021-09-12T08:42:24.809Z</time>
      </trkpt>
      <trkpt lat="45.81988" lon="5.79273">
        <ele>231</ele>
        <time>2021-09-12T08:42:25.809Z</time>
      </trkpt>
      <trkpt lat="45.81984" lon="5.79268">
        <ele>231</ele>
        <time>2021-09-12T08:42:26.809Z</time>
      </trkpt>
      <trkpt lat="45.8198" lon="5.79265">
        <ele>231</ele>
        <time>2021-09-12T08:42:27.808Z</time>
      </trkpt>
      <trkpt lat="45.81974" lon="5.7926">
        <ele>231</ele>
        <time>2021-09-12T08:42:28.808Z</time>
      </trkpt>
      <trkpt lat="45.8197" lon="5.79257">
        <ele>231</ele>
        <time>2021-09-12T08:42:29.808Z</time>
      </trkpt>
      <trkpt lat="45.81965" lon="5.79253">
        <ele>231</ele>
        <time>2021-09-12T08:42:30.809Z</time>
      </trkpt>
      <trkpt lat="45.8196" lon="5.79248">
        <ele>232</ele>
        <time>2021-09-12T08:42:31.809Z</time>
      </trkpt>
      <trkpt lat="45.81955" lon="5.79244">
        <ele>232</ele>
        <time>2021-09-12T08:42:32.809Z</time>
      </trkpt>
      <trkpt lat="45.8195" lon="5.79239">
        <ele>232</ele>
        <time>2021-09-12T08:42:33.808Z</time>
      </trkpt>
      <trkpt lat="45.81946" lon="5.79236">
        <ele>233</ele>
        <time>2021-09-12T08:42:34.809Z</time>
      </trkpt>
      <trkpt lat="45.81941" lon="5.79233">
        <ele>233</ele>
        <time>2021-09-12T08:42:35.809Z</time>
      </trkpt>
      <trkpt lat="45.81935" lon="5.79233">
        <ele>233</ele>
        <time>2021-09-12T08:42:36.809Z</time>
      </trkpt>
      <trkpt lat="45.8193" lon="5.79235">
        <ele>233</ele>
        <time>2021-09-12T08:42:37.809Z</time>
      </trkpt>
      <trkpt lat="45.81925" lon="5.79238">
        <ele>233</ele>
        <time>2021-09-12T08:42:38.809Z</time>
      </trkpt>
      <trkpt lat="45.8192" lon="5.79243">
        <ele>233</ele>
        <time>2021-09-12T08:42:39.809Z</time>
      </trkpt>
      <trkpt lat="45.81915" lon="5.79247">
        <ele>233</ele>
        <time>2021-09-12T08:42:40.809Z</time>
      </trkpt>
      <trkpt lat="45.81909" lon="5.79251">
        <ele>232</ele>
        <time>2021-09-12T08:42:41.809Z</time>
      </trkpt>
      <trkpt lat="45.81904" lon="5.79255">
        <ele>232</ele>
        <time>2021-09-12T08:42:42.809Z</time>
      </trkpt>
      <trkpt lat="45.81898" lon="5.79258">
        <ele>231</ele>
        <time>2021-09-12T08:42:43.809Z</time>
      </trkpt>
      <trkpt lat="45.81893" lon="5.79261">
        <ele>231</ele>
        <time>2021-09-12T08:42:44.809Z</time>
      </trkpt>
      <trkpt lat="45.81887" lon="5.79265">
        <ele>231</ele>
        <time>2021-09-12T08:42:45.809Z</time>
      </trkpt>
      <trkpt lat="45.81883" lon="5.79267">
        <ele>231</ele>
        <time>2021-09-12T08:42:46.809Z</time>
      </trkpt>
      <trkpt lat="45.81876" lon="5.79271">
        <ele>231</ele>
        <time>2021-09-12T08:42:47.809Z</time>
      </trkpt>
      <trkpt lat="45.8187" lon="5.79274">
        <ele>231</ele>
        <time>2021-09-12T08:42:48.809Z</time>
      </trkpt>
      <trkpt lat="45.81865" lon="5.79277">
        <ele>231</ele>
        <time>2021-09-12T08:42:49.809Z</time>
      </trkpt>
      <trkpt lat="45.8186" lon="5.79279">
        <ele>231</ele>
        <time>2021-09-12T08:42:50.809Z</time>
      </trkpt>
      <trkpt lat="45.81854" lon="5.79282">
        <ele>231</ele>
        <time>2021-09-12T08:42:51.809Z</time>
      </trkpt>
      <trkpt lat="45.81847" lon="5.79285">
        <ele>231</ele>
        <time>2021-09-12T08:42:52.809Z</time>
      </trkpt>
      <trkpt lat="45.81842" lon="5.79287">
        <ele>231</ele>
        <time>2021-09-12T08:42:53.809Z</time>
      </trkpt>
      <trkpt lat="45.81836" lon="5.79289">
        <ele>231</ele>
        <time>2021-09-12T08:42:54.809Z</time>
      </trkpt>
      <trkpt lat="45.81831" lon="5.79291">
        <ele>231</ele>
        <time>2021-09-12T08:42:55.808Z</time>
      </trkpt>
      <trkpt lat="45.81826" lon="5.79293">
        <ele>231</ele>
        <time>2021-09-12T08:42:56.809Z</time>
      </trkpt>
      <trkpt lat="45.81821" lon="5.79295">
        <ele>231</ele>
        <time>2021-09-12T08:42:57.809Z</time>
      </trkpt>
      <trkpt lat="45.81814" lon="5.79298">
        <ele>232</ele>
        <time>2021-09-12T08:42:58.809Z</time>
      </trkpt>
      <trkpt lat="45.81809" lon="5.79302">
        <ele>232</ele>
        <time>2021-09-12T08:42:59.808Z</time>
      </trkpt>
      <trkpt lat="45.81805" lon="5.79305">
        <ele>232</ele>
        <time>2021-09-12T08:43:00.809Z</time>
      </trkpt>
      <trkpt lat="45.81801" lon="5.79311">
        <ele>233</ele>
        <time>2021-09-12T08:43:01.809Z</time>
      </trkpt>
      <trkpt lat="45.81796" lon="5.79318">
        <ele>233</ele>
        <time>2021-09-12T08:43:02.808Z</time>
      </trkpt>
      <trkpt lat="45.81793" lon="5.79324">
        <ele>234</ele>
        <time>2021-09-12T08:43:03.809Z</time>
      </trkpt>
      <trkpt lat="45.81788" lon="5.7933">
        <ele>234</ele>
        <time>2021-09-12T08:43:04.809Z</time>
      </trkpt>
      <trkpt lat="45.81784" lon="5.79335">
        <ele>234</ele>
        <time>2021-09-12T08:43:05.809Z</time>
      </trkpt>
      <trkpt lat="45.81779" lon="5.79338">
        <ele>234</ele>
        <time>2021-09-12T08:43:06.809Z</time>
      </trkpt>
      <trkpt lat="45.81774" lon="5.79342">
        <ele>234</ele>
        <time>2021-09-12T08:43:07.809Z</time>
      </trkpt>
      <trkpt lat="45.81768" lon="5.79345">
        <ele>234</ele>
        <time>2021-09-12T08:43:08.809Z</time>
      </trkpt>
      <trkpt lat="45.81762" lon="5.79348">
        <ele>234</ele>
        <time>2021-09-12T08:43:09.809Z</time>
      </trkpt>
      <trkpt lat="45.81757" lon="5.7935">
        <ele>234</ele>
        <time>2021-09-12T08:43:10.809Z</time>
      </trkpt>
      <trkpt lat="45.81752" lon="5.79352">
        <ele>234</ele>
        <time>2021-09-12T08:43:11.809Z</time>
      </trkpt>
      <trkpt lat="45.81747" lon="5.79355">
        <ele>234</ele>
        <time>2021-09-12T08:43:12.808Z</time>
      </trkpt>
      <trkpt lat="45.8174" lon="5.79358">
        <ele>234</ele>
        <time>2021-09-12T08:43:13.809Z</time>
      </trkpt>
      <trkpt lat="45.81734" lon="5.79361">
        <ele>234</ele>
        <time>2021-09-12T08:43:14.809Z</time>
      </trkpt>
      <trkpt lat="45.81728" lon="5.79363">
        <ele>234</ele>
        <time>2021-09-12T08:43:15.809Z</time>
      </trkpt>
      <trkpt lat="45.81722" lon="5.79365">
        <ele>233</ele>
        <time>2021-09-12T08:43:16.809Z</time>
      </trkpt>
      <trkpt lat="45.81717" lon="5.79366">
        <ele>233</ele>
        <time>2021-09-12T08:43:17.809Z</time>
      </trkpt>
      <trkpt lat="45.8171" lon="5.79367">
        <ele>233</ele>
        <time>2021-09-12T08:43:18.809Z</time>
      </trkpt>
      <trkpt lat="45.81704" lon="5.79366">
        <ele>233</ele>
        <time>2021-09-12T08:43:19.808Z</time>
      </trkpt>
      <trkpt lat="45.81698" lon="5.79366">
        <ele>233</ele>
        <time>2021-09-12T08:43:20.809Z</time>
      </trkpt>
      <trkpt lat="45.81693" lon="5.79365">
        <ele>233</ele>
        <time>2021-09-12T08:43:21.809Z</time>
      </trkpt>
      <trkpt lat="45.81685" lon="5.79363">
        <ele>233</ele>
        <time>2021-09-12T08:43:22.809Z</time>
      </trkpt>
      <trkpt lat="45.81679" lon="5.79361">
        <ele>233</ele>
        <time>2021-09-12T08:43:23.809Z</time>
      </trkpt>
      <trkpt lat="45.81673" lon="5.79359">
        <ele>232</ele>
        <time>2021-09-12T08:43:24.808Z</time>
      </trkpt>
      <trkpt lat="45.81667" lon="5.79357">
        <ele>232</ele>
        <time>2021-09-12T08:43:25.809Z</time>
      </trkpt>
      <trkpt lat="45.81662" lon="5.79356">
        <ele>232</ele>
        <time>2021-09-12T08:43:26.808Z</time>
      </trkpt>
      <trkpt lat="45.81656" lon="5.79354">
        <ele>232</ele>
        <time>2021-09-12T08:43:27.809Z</time>
      </trkpt>
      <trkpt lat="45.81649" lon="5.79353">
        <ele>232</ele>
        <time>2021-09-12T08:43:28.809Z</time>
      </trkpt>
      <trkpt lat="45.81643" lon="5.79353">
        <ele>232</ele>
        <time>2021-09-12T08:43:29.808Z</time>
      </trkpt>
      <trkpt lat="45.81637" lon="5.79354">
        <ele>232</ele>
        <time>2021-09-12T08:43:30.808Z</time>
      </trkpt>
      <trkpt lat="45.81632" lon="5.79355">
        <ele>232</ele>
        <time>2021-09-12T08:43:31.808Z</time>
      </trkpt>
      <trkpt lat="45.81625" lon="5.79357">
        <ele>232</ele>
        <time>2021-09-12T08:43:32.809Z</time>
      </trkpt>
      <trkpt lat="45.81619" lon="5.79359">
        <ele>232</ele>
        <time>2021-09-12T08:43:33.809Z</time>
      </trkpt>
      <trkpt lat="45.81613" lon="5.79362">
        <ele>232</ele>
        <time>2021-09-12T08:43:34.809Z</time>
      </trkpt>
      <trkpt lat="45.81608" lon="5.79366">
        <ele>232</ele>
        <time>2021-09-12T08:43:35.809Z</time>
      </trkpt>
      <trkpt lat="45.81603" lon="5.79369">
        <ele>232</ele>
        <time>2021-09-12T08:43:36.809Z</time>
      </trkpt>
      <trkpt lat="45.81597" lon="5.79373">
        <ele>232</ele>
        <time>2021-09-12T08:43:37.808Z</time>
      </trkpt>
      <trkpt lat="45.81591" lon="5.79376">
        <ele>231</ele>
        <time>2021-09-12T08:43:38.809Z</time>
      </trkpt>
      <trkpt lat="45.81585" lon="5.7938">
        <ele>232</ele>
        <time>2021-09-12T08:43:39.808Z</time>
      </trkpt>
      <trkpt lat="45.8158" lon="5.79383">
        <ele>232</ele>
        <time>2021-09-12T08:43:40.809Z</time>
      </trkpt>
      <trkpt lat="45.81576" lon="5.79386">
        <ele>232</ele>
        <time>2021-09-12T08:43:41.809Z</time>
      </trkpt>
      <trkpt lat="45.81569" lon="5.79389">
        <ele>232</ele>
        <time>2021-09-12T08:43:42.808Z</time>
      </trkpt>
      <trkpt lat="45.81564" lon="5.79392">
        <ele>232</ele>
        <time>2021-09-12T08:43:43.809Z</time>
      </trkpt>
      <trkpt lat="45.81558" lon="5.79394">
        <ele>232</ele>
        <time>2021-09-12T08:43:44.809Z</time>
      </trkpt>
      <trkpt lat="45.81554" lon="5.79396">
        <ele>233</ele>
        <time>2021-09-12T08:43:45.809Z</time>
      </trkpt>
      <trkpt lat="45.81548" lon="5.79398">
        <ele>233</ele>
        <time>2021-09-12T08:43:46.808Z</time>
      </trkpt>
      <trkpt lat="45.81543" lon="5.794">
        <ele>234</ele>
        <time>2021-09-12T08:43:47.809Z</time>
      </trkpt>
      <trkpt lat="45.81536" lon="5.79403">
        <ele>234</ele>
        <time>2021-09-12T08:43:48.809Z</time>
      </trkpt>
      <trkpt lat="45.81531" lon="5.79406">
        <ele>234</ele>
        <time>2021-09-12T08:43:49.809Z</time>
      </trkpt>
      <trkpt lat="45.81527" lon="5.79408">
        <ele>235</ele>
        <time>2021-09-12T08:43:50.808Z</time>
      </trkpt>
      <trkpt lat="45.81521" lon="5.79411">
        <ele>235</ele>
        <time>2021-09-12T08:43:51.808Z</time>
      </trkpt>
      <trkpt lat="45.81515" lon="5.79415">
        <ele>235</ele>
        <time>2021-09-12T08:43:52.809Z</time>
      </trkpt>
      <trkpt lat="45.81509" lon="5.79418">
        <ele>235</ele>
        <time>2021-09-12T08:43:53.808Z</time>
      </trkpt>
      <trkpt lat="45.81504" lon="5.79419">
        <ele>235</ele>
        <time>2021-09-12T08:43:54.809Z</time>
      </trkpt>
      <trkpt lat="45.81498" lon="5.79418">
        <ele>235</ele>
        <time>2021-09-12T08:43:55.809Z</time>
      </trkpt>
      <trkpt lat="45.81493" lon="5.79416">
        <ele>235</ele>
        <time>2021-09-12T08:43:56.809Z</time>
      </trkpt>
      <trkpt lat="45.81489" lon="5.79412">
        <ele>235</ele>
        <time>2021-09-12T08:43:57.808Z</time>
      </trkpt>
      <trkpt lat="45.81483" lon="5.79406">
        <ele>234</ele>
        <time>2021-09-12T08:43:58.808Z</time>
      </trkpt>
      <trkpt lat="45.81479" lon="5.79401">
        <ele>234</ele>
        <time>2021-09-12T08:43:59.809Z</time>
      </trkpt>
      <trkpt lat="45.81474" lon="5.79396">
        <ele>234</ele>
        <time>2021-09-12T08:44:00.809Z</time>
      </trkpt>
      <trkpt lat="45.8147" lon="5.79393">
        <ele>233</ele>
        <time>2021-09-12T08:44:01.808Z</time>
      </trkpt>
      <trkpt lat="45.81465" lon="5.7939">
        <ele>233</ele>
        <time>2021-09-12T08:44:02.809Z</time>
      </trkpt>
      <trkpt lat="45.81458" lon="5.79386">
        <ele>233</ele>
        <time>2021-09-12T08:44:03.809Z</time>
      </trkpt>
      <trkpt lat="45.81453" lon="5.79383">
        <ele>233</ele>
        <time>2021-09-12T08:44:04.809Z</time>
      </trkpt>
      <trkpt lat="45.81448" lon="5.7938">
        <ele>233</ele>
        <time>2021-09-12T08:44:05.809Z</time>
      </trkpt>
      <trkpt lat="45.81444" lon="5.79376">
        <ele>233</ele>
        <time>2021-09-12T08:44:06.808Z</time>
      </trkpt>
      <trkpt lat="45.81439" lon="5.79372">
        <ele>232</ele>
        <time>2021-09-12T08:44:07.809Z</time>
      </trkpt>
      <trkpt lat="45.81434" lon="5.79368">
        <ele>232</ele>
        <time>2021-09-12T08:44:08.809Z</time>
      </trkpt>
      <trkpt lat="45.81429" lon="5.79362">
        <ele>232</ele>
        <time>2021-09-12T08:44:09.809Z</time>
      </trkpt>
      <trkpt lat="45.81424" lon="5.79357">
        <ele>232</ele>
        <time>2021-09-12T08:44:10.809Z</time>
      </trkpt>
      <trkpt lat="45.81421" lon="5.79353">
        <ele>232</ele>
        <time>2021-09-12T08:44:11.809Z</time>
      </trkpt>
      <trkpt lat="45.81417" lon="5.79349">
        <ele>232</ele>
        <time>2021-09-12T08:44:12.809Z</time>
      </trkpt>
      <trkpt lat="45.81412" lon="5.79343">
        <ele>232</ele>
        <time>2021-09-12T08:44:13.809Z</time>
      </trkpt>
      <trkpt lat="45.81408" lon="5.79339">
        <ele>232</ele>
        <time>2021-09-12T08:44:14.808Z</time>
      </trkpt>
      <trkpt lat="45.81404" lon="5.79335">
        <ele>232</ele>
        <time>2021-09-12T08:44:15.808Z</time>
      </trkpt>
      <trkpt lat="45.81402" lon="5.79333">
        <ele>232</ele>
        <time>2021-09-12T08:44:16.809Z</time>
      </trkpt>
      <trkpt lat="45.81399" lon="5.79331">
        <ele>232</ele>
        <time>2021-09-12T08:44:17.809Z</time>
      </trkpt>
      <trkpt lat="45.81396" lon="5.7933">
        <ele>232</ele>
        <time>2021-09-12T08:44:18.809Z</time>
      </trkpt>
      <trkpt lat="45.81395" lon="5.7933">
        <ele>232</ele>
        <time>2021-09-12T08:44:19.808Z</time>
      </trkpt>
      <trkpt lat="45.81394" lon="5.7933">
        <ele>232</ele>
        <time>2021-09-12T08:44:20.809Z</time>
      </trkpt>
      <trkpt lat="45.81394" lon="5.7933">
        <ele>232</ele>
        <time>2021-09-12T08:44:21.809Z</time>
      </trkpt>
      <trkpt lat="45.81394" lon="5.7933">
        <ele>233</ele>
        <time>2021-09-12T08:44:22.809Z</time>
      </trkpt>
      <trkpt lat="45.81394" lon="5.79331">
        <ele>233</ele>
        <time>2021-09-12T08:44:23.808Z</time>
      </trkpt>
      <trkpt lat="45.81393" lon="5.79331">
        <ele>233</ele>
        <time>2021-09-12T08:44:24.809Z</time>
      </trkpt>
      <trkpt lat="45.81392" lon="5.79332">
        <ele>233</ele>
        <time>2021-09-12T08:44:25.809Z</time>
      </trkpt>
      <trkpt lat="45.81391" lon="5.79333">
        <ele>234</ele>
        <time>2021-09-12T08:44:26.809Z</time>
      </trkpt>
      <trkpt lat="45.81391" lon="5.79334">
        <ele>234</ele>
        <time>2021-09-12T08:44:27.809Z</time>
      </trkpt>
      <trkpt lat="45.81389" lon="5.79336">
        <ele>234</ele>
        <time>2021-09-12T08:44:28.809Z</time>
      </trkpt>
      <trkpt lat="45.81388" lon="5.79338">
        <ele>234</ele>
        <time>2021-09-12T08:44:29.809Z</time>
      </trkpt>
      <trkpt lat="45.81387" lon="5.79342">
        <ele>233</ele>
        <time>2021-09-12T08:44:30.809Z</time>
      </trkpt>
      <trkpt lat="45.81386" lon="5.79345">
        <ele>234</ele>
        <time>2021-09-12T08:44:31.809Z</time>
      </trkpt>
      <trkpt lat="45.81385" lon="5.7935">
        <ele>235</ele>
        <time>2021-09-12T08:44:32.809Z</time>
      </trkpt>
      <trkpt lat="45.81383" lon="5.79356">
        <ele>235</ele>
        <time>2021-09-12T08:44:33.809Z</time>
      </trkpt>
      <trkpt lat="45.8138" lon="5.79361">
        <ele>235</ele>
        <time>2021-09-12T08:44:34.809Z</time>
      </trkpt>
      <trkpt lat="45.81378" lon="5.79366">
        <ele>235</ele>
        <time>2021-09-12T08:44:35.808Z</time>
      </trkpt>
      <trkpt lat="45.81376" lon="5.79372">
        <ele>235</ele>
        <time>2021-09-12T08:44:36.809Z</time>
      </trkpt>
      <trkpt lat="45.81374" lon="5.79378">
        <ele>235</ele>
        <time>2021-09-12T08:44:37.808Z</time>
      </trkpt>
      <trkpt lat="45.8137" lon="5.79385">
        <ele>235</ele>
        <time>2021-09-12T08:44:38.809Z</time>
      </trkpt>
      <trkpt lat="45.81367" lon="5.7939">
        <ele>235</ele>
        <time>2021-09-12T08:44:39.809Z</time>
      </trkpt>
      <trkpt lat="45.81364" lon="5.79396">
        <ele>235</ele>
        <time>2021-09-12T08:44:40.809Z</time>
      </trkpt>
      <trkpt lat="45.81362" lon="5.79401">
        <ele>235</ele>
        <time>2021-09-12T08:44:41.808Z</time>
      </trkpt>
      <trkpt lat="45.81359" lon="5.79407">
        <ele>235</ele>
        <time>2021-09-12T08:44:42.808Z</time>
      </trkpt>
      <trkpt lat="45.81356" lon="5.79414">
        <ele>236</ele>
        <time>2021-09-12T08:44:43.808Z</time>
      </trkpt>
      <trkpt lat="45.81353" lon="5.79419">
        <ele>236</ele>
        <time>2021-09-12T08:44:44.809Z</time>
      </trkpt>
      <trkpt lat="45.81351" lon="5.79425">
        <ele>235</ele>
        <time>2021-09-12T08:44:45.808Z</time>
      </trkpt>
      <trkpt lat="45.81348" lon="5.7943">
        <ele>235</ele>
        <time>2021-09-12T08:44:46.809Z</time>
      </trkpt>
      <trkpt lat="45.81346" lon="5.79435">
        <ele>235</ele>
        <time>2021-09-12T08:44:47.808Z</time>
      </trkpt>
      <trkpt lat="45.81342" lon="5.79442">
        <ele>236</ele>
        <time>2021-09-12T08:44:48.808Z</time>
      </trkpt>
      <trkpt lat="45.8134" lon="5.79447">
        <ele>236</ele>
        <time>2021-09-12T08:44:49.808Z</time>
      </trkpt>
      <trkpt lat="45.81337" lon="5.79453">
        <ele>235</ele>
        <time>2021-09-12T08:44:50.808Z</time>
      </trkpt>
      <trkpt lat="45.81334" lon="5.79458">
        <ele>235</ele>
        <time>2021-09-12T08:44:51.808Z</time>
      </trkpt>
      <trkpt lat="45.81331" lon="5.79464">
        <ele>235</ele>
        <time>2021-09-12T08:44:52.809Z</time>
      </trkpt>
      <trkpt lat="45.81328" lon="5.79471">
        <ele>235</ele>
        <time>2021-09-12T08:44:53.809Z</time>
      </trkpt>
      <trkpt lat="45.81324" lon="5.79476">
        <ele>235</ele>
        <time>2021-09-12T08:44:54.809Z</time>
      </trkpt>
      <trkpt lat="45.81321" lon="5.79481">
        <ele>235</ele>
        <time>2021-09-12T08:44:55.809Z</time>
      </trkpt>
      <trkpt lat="45.81318" lon="5.79485">
        <ele>235</ele>
        <time>2021-09-12T08:44:56.808Z</time>
      </trkpt>
      <trkpt lat="45.81315" lon="5.79491">
        <ele>234</ele>
        <time>2021-09-12T08:44:57.809Z</time>
      </trkpt>
      <trkpt lat="45.81312" lon="5.79497">
        <ele>235</ele>
        <time>2021-09-12T08:44:58.808Z</time>
      </trkpt>
      <trkpt lat="45.81309" lon="5.79503">
        <ele>235</ele>
        <time>2021-09-12T08:44:59.809Z</time>
      </trkpt>
      <trkpt lat="45.81306" lon="5.79507">
        <ele>235</ele>
        <time>2021-09-12T08:45:00.809Z</time>
      </trkpt>
      <trkpt lat="45.81303" lon="5.7951">
        <ele>235</ele>
        <time>2021-09-12T08:45:01.809Z</time>
      </trkpt>
      <trkpt lat="45.81299" lon="5.79513">
        <ele>234</ele>
        <time>2021-09-12T08:45:02.809Z</time>
      </trkpt>
      <trkpt lat="45.81295" lon="5.79513">
        <ele>234</ele>
        <time>2021-09-12T08:45:03.809Z</time>
      </trkpt>
      <trkpt lat="45.8129" lon="5.79511">
        <ele>234</ele>
        <time>2021-09-12T08:45:04.808Z</time>
      </trkpt>
      <trkpt lat="45.81286" lon="5.79509">
        <ele>233</ele>
        <time>2021-09-12T08:45:05.809Z</time>
      </trkpt>
      <trkpt lat="45.81283" lon="5.79507">
        <ele>232</ele>
        <time>2021-09-12T08:45:06.809Z</time>
      </trkpt>
      <trkpt lat="45.81279" lon="5.79504">
        <ele>232</ele>
        <time>2021-09-12T08:45:07.809Z</time>
      </trkpt>
      <trkpt lat="45.81274" lon="5.79499">
        <ele>232</ele>
        <time>2021-09-12T08:45:08.809Z</time>
      </trkpt>
      <trkpt lat="45.8127" lon="5.79495">
        <ele>232</ele>
        <time>2021-09-12T08:45:09.808Z</time>
      </trkpt>
      <trkpt lat="45.81267" lon="5.79491">
        <ele>232</ele>
        <time>2021-09-12T08:45:10.808Z</time>
      </trkpt>
      <trkpt lat="45.81264" lon="5.79488">
        <ele>232</ele>
        <time>2021-09-12T08:45:11.808Z</time>
      </trkpt>
      <trkpt lat="45.81261" lon="5.79483">
        <ele>232</ele>
        <time>2021-09-12T08:45:12.809Z</time>
      </trkpt>
      <trkpt lat="45.81258" lon="5.79478">
        <ele>232</ele>
        <time>2021-09-12T08:45:13.808Z</time>
      </trkpt>
      <trkpt lat="45.81255" lon="5.79473">
        <ele>231</ele>
        <time>2021-09-12T08:45:14.808Z</time>
      </trkpt>
      <trkpt lat="45.81253" lon="5.79468">
        <ele>231</ele>
        <time>2021-09-12T08:45:15.808Z</time>
      </trkpt>
      <trkpt lat="45.8125" lon="5.79464">
        <ele>231</ele>
        <time>2021-09-12T08:45:16.809Z</time>
      </trkpt>
      <trkpt lat="45.81248" lon="5.7946">
        <ele>231</ele>
        <time>2021-09-12T08:45:17.809Z</time>
      </trkpt>
      <trkpt lat="45.81245" lon="5.79457">
        <ele>231</ele>
        <time>2021-09-12T08:45:18.808Z</time>
      </trkpt>
      <trkpt lat="45.81242" lon="5.79453">
        <ele>231</ele>
        <time>2021-09-12T08:45:19.809Z</time>
      </trkpt>
      <trkpt lat="45.81239" lon="5.7945">
        <ele>231</ele>
        <time>2021-09-12T08:45:20.808Z</time>
      </trkpt>
      <trkpt lat="45.81237" lon="5.79448">
        <ele>231</ele>
        <time>2021-09-12T08:45:21.808Z</time>
      </trkpt>
      <trkpt lat="45.81234" lon="5.79446">
        <ele>230</ele>
        <time>2021-09-12T08:45:22.809Z</time>
      </trkpt>
      <trkpt lat="45.81231" lon="5.79444">
        <ele>231</ele>
        <time>2021-09-12T08:45:23.809Z</time>
      </trkpt>
      <trkpt lat="45.81228" lon="5.79443">
        <ele>231</ele>
        <time>2021-09-12T08:45:24.809Z</time>
      </trkpt>
      <trkpt lat="45.81226" lon="5.79442">
        <ele>231</ele>
        <time>2021-09-12T08:45:25.809Z</time>
      </trkpt>
      <trkpt lat="45.81224" lon="5.79441">
        <ele>231</ele>
        <time>2021-09-12T08:45:26.809Z</time>
      </trkpt>
      <trkpt lat="45.81221" lon="5.79441">
        <ele>231</ele>
        <time>2021-09-12T08:45:27.809Z</time>
      </trkpt>
      <trkpt lat="45.81218" lon="5.7944">
        <ele>231</ele>
        <time>2021-09-12T08:45:28.808Z</time>
      </trkpt>
      <trkpt lat="45.81215" lon="5.79439">
        <ele>232</ele>
        <time>2021-09-12T08:45:29.809Z</time>
      </trkpt>
      <trkpt lat="45.81212" lon="5.79439">
        <ele>231</ele>
        <time>2021-09-12T08:45:30.809Z</time>
      </trkpt>
      <trkpt lat="45.81208" lon="5.79438">
        <ele>231</ele>
        <time>2021-09-12T08:45:31.809Z</time>
      </trkpt>
      <trkpt lat="45.81205" lon="5.79438">
        <ele>231</ele>
        <time>2021-09-12T08:45:32.809Z</time>
      </trkpt>
      <trkpt lat="45.812" lon="5.79437">
        <ele>231</ele>
        <time>2021-09-12T08:45:33.809Z</time>
      </trkpt>
      <trkpt lat="45.81196" lon="5.79437">
        <ele>231</ele>
        <time>2021-09-12T08:45:34.808Z</time>
      </trkpt>
      <trkpt lat="45.81192" lon="5.79437">
        <ele>232</ele>
        <time>2021-09-12T08:45:35.808Z</time>
      </trkpt>
      <trkpt lat="45.81188" lon="5.79438">
        <ele>233</ele>
        <time>2021-09-12T08:45:36.808Z</time>
      </trkpt>
      <trkpt lat="45.81183" lon="5.79438">
        <ele>233</ele>
        <time>2021-09-12T08:45:37.809Z</time>
      </trkpt>
      <trkpt lat="45.81178" lon="5.79439">
        <ele>234</ele>
        <time>2021-09-12T08:45:38.809Z</time>
      </trkpt>
      <trkpt lat="45.81174" lon="5.79439">
        <ele>234</ele>
        <time>2021-09-12T08:45:39.809Z</time>
      </trkpt>
      <trkpt lat="45.81169" lon="5.79439">
        <ele>235</ele>
        <time>2021-09-12T08:45:40.808Z</time>
      </trkpt>
      <trkpt lat="45.81166" lon="5.79439">
        <ele>236</ele>
        <time>2021-09-12T08:45:41.808Z</time>
      </trkpt>
      <trkpt lat="45.81161" lon="5.79439">
        <ele>237</ele>
        <time>2021-09-12T08:45:42.808Z</time>
      </trkpt>
      <trkpt lat="45.81157" lon="5.79439">
        <ele>237</ele>
        <time>2021-09-12T08:45:43.809Z</time>
      </trkpt>
      <trkpt lat="45.81153" lon="5.79439">
        <ele>237</ele>
        <time>2021-09-12T08:45:44.809Z</time>
      </trkpt>
      <trkpt lat="45.81149" lon="5.7944">
        <ele>237</ele>
        <time>2021-09-12T08:45:45.808Z</time>
      </trkpt>
      <trkpt lat="45.81145" lon="5.7944">
        <ele>237</ele>
        <time>2021-09-12T08:45:46.808Z</time>
      </trkpt>
      <trkpt lat="45.8114" lon="5.7944">
        <ele>236</ele>
        <time>2021-09-12T08:45:47.809Z</time>
      </trkpt>
      <trkpt lat="45.81135" lon="5.7944">
        <ele>235</ele>
        <time>2021-09-12T08:45:48.809Z</time>
      </trkpt>
      <trkpt lat="45.8113" lon="5.7944">
        <ele>234</ele>
        <time>2021-09-12T08:45:49.809Z</time>
      </trkpt>
      <trkpt lat="45.81126" lon="5.7944">
        <ele>234</ele>
        <time>2021-09-12T08:45:50.809Z</time>
      </trkpt>
      <trkpt lat="45.81121" lon="5.79441">
        <ele>233</ele>
        <time>2021-09-12T08:45:51.808Z</time>
      </trkpt>
      <trkpt lat="45.81115" lon="5.79442">
        <ele>233</ele>
        <time>2021-09-12T08:45:52.809Z</time>
      </trkpt>
      <trkpt lat="45.8111" lon="5.79443">
        <ele>233</ele>
        <time>2021-09-12T08:45:53.809Z</time>
      </trkpt>
      <trkpt lat="45.81104" lon="5.79443">
        <ele>232</ele>
        <time>2021-09-12T08:45:54.809Z</time>
      </trkpt>
      <trkpt lat="45.811" lon="5.79444">
        <ele>232</ele>
        <time>2021-09-12T08:45:55.809Z</time>
      </trkpt>
      <trkpt lat="45.81095" lon="5.79444">
        <ele>232</ele>
        <time>2021-09-12T08:45:56.808Z</time>
      </trkpt>
      <trkpt lat="45.81088" lon="5.79444">
        <ele>232</ele>
        <time>2021-09-12T08:45:57.809Z</time>
      </trkpt>
      <trkpt lat="45.81083" lon="5.79443">
        <ele>231</ele>
        <time>2021-09-12T08:45:58.809Z</time>
      </trkpt>
      <trkpt lat="45.81078" lon="5.79442">
        <ele>231</ele>
        <time>2021-09-12T08:45:59.808Z</time>
      </trkpt>
      <trkpt lat="45.81074" lon="5.79441">
        <ele>231</ele>
        <time>2021-09-12T08:46:00.808Z</time>
      </trkpt>
      <trkpt lat="45.8107" lon="5.79438">
        <ele>231</ele>
        <time>2021-09-12T08:46:01.808Z</time>
      </trkpt>
      <trkpt lat="45.81065" lon="5.79433">
        <ele>231</ele>
        <time>2021-09-12T08:46:02.809Z</time>
      </trkpt>
      <trkpt lat="45.81062" lon="5.79428">
        <ele>230</ele>
        <time>2021-09-12T08:46:03.809Z</time>
      </trkpt>
      <trkpt lat="45.81058" lon="5.79423">
        <ele>230</ele>
        <time>2021-09-12T08:46:04.809Z</time>
      </trkpt>
      <trkpt lat="45.81056" lon="5.79418">
        <ele>230</ele>
        <time>2021-09-12T08:46:05.808Z</time>
      </trkpt>
      <trkpt lat="45.81053" lon="5.79413">
        <ele>230</ele>
        <time>2021-09-12T08:46:06.808Z</time>
      </trkpt>
      <trkpt lat="45.81049" lon="5.79406">
        <ele>230</ele>
        <time>2021-09-12T08:46:07.809Z</time>
      </trkpt>
      <trkpt lat="45.81046" lon="5.79402">
        <ele>230</ele>
        <time>2021-09-12T08:46:08.808Z</time>
      </trkpt>
      <trkpt lat="45.81043" lon="5.79396">
        <ele>230</ele>
        <time>2021-09-12T08:46:09.809Z</time>
      </trkpt>
      <trkpt lat="45.81039" lon="5.79391">
        <ele>230</ele>
        <time>2021-09-12T08:46:10.809Z</time>
      </trkpt>
      <trkpt lat="45.81036" lon="5.79386">
        <ele>230</ele>
        <time>2021-09-12T08:46:11.808Z</time>
      </trkpt>
      <trkpt lat="45.81031" lon="5.7938">
        <ele>230</ele>
        <time>2021-09-12T08:46:12.809Z</time>
      </trkpt>
      <trkpt lat="45.81028" lon="5.79375">
        <ele>229</ele>
        <time>2021-09-12T08:46:13.809Z</time>
      </trkpt>
      <trkpt lat="45.81025" lon="5.79371">
        <ele>229</ele>
        <time>2021-09-12T08:46:14.808Z</time>
      </trkpt>
      <trkpt lat="45.81021" lon="5.79365">
        <ele>229</ele>
        <time>2021-09-12T08:46:15.809Z</time>
      </trkpt>
      <trkpt lat="45.81017" lon="5.7936">
        <ele>229</ele>
        <time>2021-09-12T08:46:16.809Z</time>
      </trkpt>
      <trkpt lat="45.81012" lon="5.79354">
        <ele>229</ele>
        <time>2021-09-12T08:46:17.809Z</time>
      </trkpt>
      <trkpt lat="45.81008" lon="5.79349">
        <ele>229</ele>
        <time>2021-09-12T08:46:18.809Z</time>
      </trkpt>
      <trkpt lat="45.81004" lon="5.79344">
        <ele>229</ele>
        <time>2021-09-12T08:46:19.808Z</time>
      </trkpt>
      <trkpt lat="45.81" lon="5.79339">
        <ele>229</ele>
        <time>2021-09-12T08:46:20.808Z</time>
      </trkpt>
      <trkpt lat="45.80997" lon="5.79335">
        <ele>229</ele>
        <time>2021-09-12T08:46:21.808Z</time>
      </trkpt>
      <trkpt lat="45.80993" lon="5.79329">
        <ele>229</ele>
        <time>2021-09-12T08:46:22.809Z</time>
      </trkpt>
      <trkpt lat="45.80989" lon="5.79324">
        <ele>230</ele>
        <time>2021-09-12T08:46:23.809Z</time>
      </trkpt>
      <trkpt lat="45.80985" lon="5.79319">
        <ele>229</ele>
        <time>2021-09-12T08:46:24.809Z</time>
      </trkpt>
      <trkpt lat="45.80982" lon="5.79316">
        <ele>229</ele>
        <time>2021-09-12T08:46:25.808Z</time>
      </trkpt>
      <trkpt lat="45.80978" lon="5.7931">
        <ele>229</ele>
        <time>2021-09-12T08:46:26.808Z</time>
      </trkpt>
      <trkpt lat="45.80975" lon="5.79307">
        <ele>229</ele>
        <time>2021-09-12T08:46:27.809Z</time>
      </trkpt>
      <trkpt lat="45.80971" lon="5.79301">
        <ele>229</ele>
        <time>2021-09-12T08:46:28.809Z</time>
      </trkpt>
      <trkpt lat="45.80967" lon="5.79297">
        <ele>229</ele>
        <time>2021-09-12T08:46:29.808Z</time>
      </trkpt>
      <trkpt lat="45.80964" lon="5.79292">
        <ele>229</ele>
        <time>2021-09-12T08:46:30.808Z</time>
      </trkpt>
      <trkpt lat="45.80962" lon="5.79289">
        <ele>230</ele>
        <time>2021-09-12T08:46:31.808Z</time>
      </trkpt>
      <trkpt lat="45.80958" lon="5.79283">
        <ele>230</ele>
        <time>2021-09-12T08:46:32.809Z</time>
      </trkpt>
      <trkpt lat="45.80955" lon="5.79279">
        <ele>229</ele>
        <time>2021-09-12T08:46:33.809Z</time>
      </trkpt>
      <trkpt lat="45.80952" lon="5.79275">
        <ele>229</ele>
        <time>2021-09-12T08:46:34.809Z</time>
      </trkpt>
      <trkpt lat="45.80949" lon="5.7927">
        <ele>229</ele>
        <time>2021-09-12T08:46:35.808Z</time>
      </trkpt>
      <trkpt lat="45.80946" lon="5.79265">
        <ele>229</ele>
        <time>2021-09-12T08:46:36.809Z</time>
      </trkpt>
      <trkpt lat="45.80942" lon="5.79259">
        <ele>229</ele>
        <time>2021-09-12T08:46:37.808Z</time>
      </trkpt>
      <trkpt lat="45.80939" lon="5.79254">
        <ele>229</ele>
        <time>2021-09-12T08:46:38.809Z</time>
      </trkpt>
      <trkpt lat="45.80937" lon="5.79248">
        <ele>229</ele>
        <time>2021-09-12T08:46:39.809Z</time>
      </trkpt>
      <trkpt lat="45.80934" lon="5.79242">
        <ele>229</ele>
        <time>2021-09-12T08:46:40.808Z</time>
      </trkpt>
      <trkpt lat="45.80932" lon="5.79237">
        <ele>229</ele>
        <time>2021-09-12T08:46:41.808Z</time>
      </trkpt>
      <trkpt lat="45.8093" lon="5.79231">
        <ele>229</ele>
        <time>2021-09-12T08:46:42.809Z</time>
      </trkpt>
      <trkpt lat="45.80927" lon="5.79225">
        <ele>229</ele>
        <time>2021-09-12T08:46:43.809Z</time>
      </trkpt>
      <trkpt lat="45.80926" lon="5.7922">
        <ele>229</ele>
        <time>2021-09-12T08:46:44.809Z</time>
      </trkpt>
      <trkpt lat="45.80924" lon="5.79214">
        <ele>230</ele>
        <time>2021-09-12T08:46:45.808Z</time>
      </trkpt>
      <trkpt lat="45.80922" lon="5.79207">
        <ele>230</ele>
        <time>2021-09-12T08:46:46.809Z</time>
      </trkpt>
      <trkpt lat="45.8092" lon="5.79202">
        <ele>231</ele>
        <time>2021-09-12T08:46:47.809Z</time>
      </trkpt>
      <trkpt lat="45.80919" lon="5.79196">
        <ele>230</ele>
        <time>2021-09-12T08:46:48.808Z</time>
      </trkpt>
      <trkpt lat="45.80918" lon="5.79191">
        <ele>230</ele>
        <time>2021-09-12T08:46:49.808Z</time>
      </trkpt>
      <trkpt lat="45.80917" lon="5.79185">
        <ele>230</ele>
        <time>2021-09-12T08:46:50.808Z</time>
      </trkpt>
      <trkpt lat="45.80916" lon="5.79178">
        <ele>230</ele>
        <time>2021-09-12T08:46:51.808Z</time>
      </trkpt>
      <trkpt lat="45.80915" lon="5.79172">
        <ele>231</ele>
        <time>2021-09-12T08:46:52.809Z</time>
      </trkpt>
      <trkpt lat="45.80914" lon="5.79167">
        <ele>231</ele>
        <time>2021-09-12T08:46:53.808Z</time>
      </trkpt>
      <trkpt lat="45.80914" lon="5.79162">
        <ele>231</ele>
        <time>2021-09-12T08:46:54.809Z</time>
      </trkpt>
      <trkpt lat="45.80913" lon="5.79156">
        <ele>231</ele>
        <time>2021-09-12T08:46:55.808Z</time>
      </trkpt>
      <trkpt lat="45.80912" lon="5.79151">
        <ele>231</ele>
        <time>2021-09-12T08:46:56.809Z</time>
      </trkpt>
      <trkpt lat="45.80911" lon="5.79145">
        <ele>231</ele>
        <time>2021-09-12T08:46:57.809Z</time>
      </trkpt>
      <trkpt lat="45.80911" lon="5.7914">
        <ele>231</ele>
        <time>2021-09-12T08:46:58.809Z</time>
      </trkpt>
      <trkpt lat="45.80911" lon="5.79135">
        <ele>231</ele>
        <time>2021-09-12T08:46:59.809Z</time>
      </trkpt>
      <trkpt lat="45.80911" lon="5.79129">
        <ele>231</ele>
        <time>2021-09-12T08:47:00.808Z</time>
      </trkpt>
      <trkpt lat="45.8091" lon="5.79124">
        <ele>232</ele>
        <time>2021-09-12T08:47:01.809Z</time>
      </trkpt>
      <trkpt lat="45.8091" lon="5.79119">
        <ele>232</ele>
        <time>2021-09-12T08:47:02.809Z</time>
      </trkpt>
      <trkpt lat="45.8091" lon="5.79115">
        <ele>232</ele>
        <time>2021-09-12T08:47:03.809Z</time>
      </trkpt>
      <trkpt lat="45.80909" lon="5.79112">
        <ele>232</ele>
        <time>2021-09-12T08:47:04.809Z</time>
      </trkpt>
      <trkpt lat="45.80908" lon="5.79109">
        <ele>232</ele>
        <time>2021-09-12T08:47:05.809Z</time>
      </trkpt>
      <trkpt lat="45.80908" lon="5.79106">
        <ele>232</ele>
        <time>2021-09-12T08:47:06.808Z</time>
      </trkpt>
      <trkpt lat="45.80908" lon="5.79105">
        <ele>232</ele>
        <time>2021-09-12T08:47:07.808Z</time>
      </trkpt>
      <trkpt lat="45.80908" lon="5.79105">
        <ele>232</ele>
        <time>2021-09-12T08:47:08.809Z</time>
      </trkpt>
      <trkpt lat="45.80908" lon="5.79105">
        <ele>233</ele>
        <time>2021-09-12T08:47:09.809Z</time>
      </trkpt>
      <trkpt lat="45.8091" lon="5.79101">
        <ele>231</ele>
        <time>2021-09-12T08:47:10.809Z</time>
      </trkpt>
      <trkpt lat="45.80911" lon="5.79095">
        <ele>231</ele>
        <time>2021-09-12T08:47:11.809Z</time>
      </trkpt>
      <trkpt lat="45.80913" lon="5.7909">
        <ele>231</ele>
        <time>2021-09-12T08:47:12.808Z</time>
      </trkpt>
      <trkpt lat="45.80914" lon="5.79084">
        <ele>231</ele>
        <time>2021-09-12T08:47:13.809Z</time>
      </trkpt>
      <trkpt lat="45.80916" lon="5.79078">
        <ele>231</ele>
        <time>2021-09-12T08:47:14.808Z</time>
      </trkpt>
      <trkpt lat="45.80917" lon="5.79073">
        <ele>231</ele>
        <time>2021-09-12T08:47:15.809Z</time>
      </trkpt>
      <trkpt lat="45.80918" lon="5.79067">
        <ele>232</ele>
        <time>2021-09-12T08:47:16.809Z</time>
      </trkpt>
      <trkpt lat="45.8092" lon="5.79061">
        <ele>232</ele>
        <time>2021-09-12T08:47:17.809Z</time>
      </trkpt>
      <trkpt lat="45.80921" lon="5.79056">
        <ele>232</ele>
        <time>2021-09-12T08:47:18.808Z</time>
      </trkpt>
      <trkpt lat="45.80922" lon="5.79052">
        <ele>232</ele>
        <time>2021-09-12T08:47:19.808Z</time>
      </trkpt>
      <trkpt lat="45.80924" lon="5.79047">
        <ele>232</ele>
        <time>2021-09-12T08:47:20.809Z</time>
      </trkpt>
      <trkpt lat="45.80925" lon="5.79043">
        <ele>232</ele>
        <time>2021-09-12T08:47:21.808Z</time>
      </trkpt>
      <trkpt lat="45.80927" lon="5.79038">
        <ele>232</ele>
        <time>2021-09-12T08:47:22.809Z</time>
      </trkpt>
      <trkpt lat="45.80928" lon="5.79034">
        <ele>232</ele>
        <time>2021-09-12T08:47:23.809Z</time>
      </trkpt>
      <trkpt lat="45.80929" lon="5.79029">
        <ele>232</ele>
        <time>2021-09-12T08:47:24.809Z</time>
      </trkpt>
      <trkpt lat="45.80931" lon="5.79024">
        <ele>232</ele>
        <time>2021-09-12T08:47:25.809Z</time>
      </trkpt>
      <trkpt lat="45.80932" lon="5.79018">
        <ele>232</ele>
        <time>2021-09-12T08:47:26.809Z</time>
      </trkpt>
      <trkpt lat="45.80933" lon="5.79014">
        <ele>232</ele>
        <time>2021-09-12T08:47:27.809Z</time>
      </trkpt>
      <trkpt lat="45.80935" lon="5.79009">
        <ele>232</ele>
        <time>2021-09-12T08:47:28.808Z</time>
      </trkpt>
      <trkpt lat="45.80937" lon="5.79005">
        <ele>232</ele>
        <time>2021-09-12T08:47:29.809Z</time>
      </trkpt>
      <trkpt lat="45.80938" lon="5.79">
        <ele>231</ele>
        <time>2021-09-12T08:47:30.808Z</time>
      </trkpt>
      <trkpt lat="45.8094" lon="5.78995">
        <ele>231</ele>
        <time>2021-09-12T08:47:31.809Z</time>
      </trkpt>
      <trkpt lat="45.80942" lon="5.78991">
        <ele>232</ele>
        <time>2021-09-12T08:47:32.809Z</time>
      </trkpt>
      <trkpt lat="45.80944" lon="5.78986">
        <ele>232</ele>
        <time>2021-09-12T08:47:33.809Z</time>
      </trkpt>
      <trkpt lat="45.80945" lon="5.78981">
        <ele>231</ele>
        <time>2021-09-12T08:47:34.808Z</time>
      </trkpt>
      <trkpt lat="45.80947" lon="5.78977">
        <ele>231</ele>
        <time>2021-09-12T08:47:35.808Z</time>
      </trkpt>
      <trkpt lat="45.80948" lon="5.78972">
        <ele>232</ele>
        <time>2021-09-12T08:47:36.809Z</time>
      </trkpt>
      <trkpt lat="45.8095" lon="5.78967">
        <ele>232</ele>
        <time>2021-09-12T08:47:37.809Z</time>
      </trkpt>
      <trkpt lat="45.80951" lon="5.78964">
        <ele>233</ele>
        <time>2021-09-12T08:47:38.809Z</time>
      </trkpt>
      <trkpt lat="45.80953" lon="5.7896">
        <ele>233</ele>
        <time>2021-09-12T08:47:39.809Z</time>
      </trkpt>
      <trkpt lat="45.80954" lon="5.78956">
        <ele>233</ele>
        <time>2021-09-12T08:47:40.808Z</time>
      </trkpt>
      <trkpt lat="45.80956" lon="5.78951">
        <ele>233</ele>
        <time>2021-09-12T08:47:41.808Z</time>
      </trkpt>
      <trkpt lat="45.80958" lon="5.78947">
        <ele>234</ele>
        <time>2021-09-12T08:47:42.808Z</time>
      </trkpt>
      <trkpt lat="45.80959" lon="5.78944">
        <ele>234</ele>
        <time>2021-09-12T08:47:43.809Z</time>
      </trkpt>
      <trkpt lat="45.80961" lon="5.78941">
        <ele>235</ele>
        <time>2021-09-12T08:47:44.809Z</time>
      </trkpt>
      <trkpt lat="45.80962" lon="5.78938">
        <ele>235</ele>
        <time>2021-09-12T08:47:45.808Z</time>
      </trkpt>
      <trkpt lat="45.80964" lon="5.78936">
        <ele>235</ele>
        <time>2021-09-12T08:47:46.808Z</time>
      </trkpt>
      <trkpt lat="45.80965" lon="5.78933">
        <ele>236</ele>
        <time>2021-09-12T08:47:47.809Z</time>
      </trkpt>
      <trkpt lat="45.80966" lon="5.7893">
        <ele>236</ele>
        <time>2021-09-12T08:47:48.809Z</time>
      </trkpt>
      <trkpt lat="45.80968" lon="5.78927">
        <ele>236</ele>
        <time>2021-09-12T08:47:49.809Z</time>
      </trkpt>
      <trkpt lat="45.80969" lon="5.78924">
        <ele>236</ele>
        <time>2021-09-12T08:47:50.809Z</time>
      </trkpt>
      <trkpt lat="45.8097" lon="5.78921">
        <ele>236</ele>
        <time>2021-09-12T08:47:51.808Z</time>
      </trkpt>
      <trkpt lat="45.80971" lon="5.78919">
        <ele>237</ele>
        <time>2021-09-12T08:47:52.808Z</time>
      </trkpt>
      <trkpt lat="45.80971" lon="5.78916">
        <ele>237</ele>
        <time>2021-09-12T08:47:53.808Z</time>
      </trkpt>
      <trkpt lat="45.80971" lon="5.78914">
        <ele>236</ele>
        <time>2021-09-12T08:47:54.809Z</time>
      </trkpt>
      <trkpt lat="45.80971" lon="5.78912">
        <ele>236</ele>
        <time>2021-09-12T08:47:55.809Z</time>
      </trkpt>
      <trkpt lat="45.80971" lon="5.7891">
        <ele>236</ele>
        <time>2021-09-12T08:47:56.809Z</time>
      </trkpt>
      <trkpt lat="45.80972" lon="5.78908">
        <ele>236</ele>
        <time>2021-09-12T08:47:57.808Z</time>
      </trkpt>
      <trkpt lat="45.80972" lon="5.78906">
        <ele>235</ele>
        <time>2021-09-12T08:47:58.809Z</time>
      </trkpt>
      <trkpt lat="45.80973" lon="5.78904">
        <ele>235</ele>
        <time>2021-09-12T08:47:59.808Z</time>
      </trkpt>
      <trkpt lat="45.80974" lon="5.78903">
        <ele>234</ele>
        <time>2021-09-12T08:48:00.809Z</time>
      </trkpt>
      <trkpt lat="45.80974" lon="5.789">
        <ele>234</ele>
        <time>2021-09-12T08:48:01.809Z</time>
      </trkpt>
      <trkpt lat="45.80975" lon="5.78898">
        <ele>233</ele>
        <time>2021-09-12T08:48:02.809Z</time>
      </trkpt>
      <trkpt lat="45.80975" lon="5.78895">
        <ele>233</ele>
        <time>2021-09-12T08:48:03.808Z</time>
      </trkpt>
      <trkpt lat="45.80976" lon="5.78893">
        <ele>233</ele>
        <time>2021-09-12T08:48:04.809Z</time>
      </trkpt>
      <trkpt lat="45.80976" lon="5.7889">
        <ele>233</ele>
        <time>2021-09-12T08:48:05.809Z</time>
      </trkpt>
      <trkpt lat="45.80976" lon="5.78886">
        <ele>233</ele>
        <time>2021-09-12T08:48:06.809Z</time>
      </trkpt>
      <trkpt lat="45.80976" lon="5.78882">
        <ele>233</ele>
        <time>2021-09-12T08:48:07.808Z</time>
      </trkpt>
      <trkpt lat="45.80976" lon="5.78878">
        <ele>232</ele>
        <time>2021-09-12T08:48:08.808Z</time>
      </trkpt>
      <trkpt lat="45.80977" lon="5.78873">
        <ele>231</ele>
        <time>2021-09-12T08:48:09.808Z</time>
      </trkpt>
      <trkpt lat="45.80977" lon="5.7887">
        <ele>231</ele>
        <time>2021-09-12T08:48:10.808Z</time>
      </trkpt>
      <trkpt lat="45.80977" lon="5.78866">
        <ele>230</ele>
        <time>2021-09-12T08:48:11.809Z</time>
      </trkpt>
      <trkpt lat="45.80977" lon="5.78863">
        <ele>230</ele>
        <time>2021-09-12T08:48:12.809Z</time>
      </trkpt>
      <trkpt lat="45.80977" lon="5.78859">
        <ele>230</ele>
        <time>2021-09-12T08:48:13.809Z</time>
      </trkpt>
      <trkpt lat="45.80977" lon="5.78855">
        <ele>230</ele>
        <time>2021-09-12T08:48:14.808Z</time>
      </trkpt>
      <trkpt lat="45.80978" lon="5.78852">
        <ele>230</ele>
        <time>2021-09-12T08:48:15.808Z</time>
      </trkpt>
      <trkpt lat="45.80978" lon="5.78848">
        <ele>230</ele>
        <time>2021-09-12T08:48:16.809Z</time>
      </trkpt>
      <trkpt lat="45.80978" lon="5.78844">
        <ele>229</ele>
        <time>2021-09-12T08:48:17.808Z</time>
      </trkpt>
      <trkpt lat="45.80977" lon="5.7884">
        <ele>229</ele>
        <time>2021-09-12T08:48:18.809Z</time>
      </trkpt>
      <trkpt lat="45.80977" lon="5.78837">
        <ele>230</ele>
        <time>2021-09-12T08:48:19.809Z</time>
      </trkpt>
      <trkpt lat="45.80977" lon="5.78833">
        <ele>229</ele>
        <time>2021-09-12T08:48:20.809Z</time>
      </trkpt>
      <trkpt lat="45.80977" lon="5.78829">
        <ele>229</ele>
        <time>2021-09-12T08:48:21.809Z</time>
      </trkpt>
      <trkpt lat="45.80977" lon="5.78825">
        <ele>229</ele>
        <time>2021-09-12T08:48:22.809Z</time>
      </trkpt>
      <trkpt lat="45.80976" lon="5.78821">
        <ele>229</ele>
        <time>2021-09-12T08:48:23.809Z</time>
      </trkpt>
      <trkpt lat="45.80976" lon="5.78818">
        <ele>229</ele>
        <time>2021-09-12T08:48:24.808Z</time>
      </trkpt>
      <trkpt lat="45.80975" lon="5.78814">
        <ele>229</ele>
        <time>2021-09-12T08:48:25.808Z</time>
      </trkpt>
      <trkpt lat="45.80975" lon="5.7881">
        <ele>228</ele>
        <time>2021-09-12T08:48:26.809Z</time>
      </trkpt>
      <trkpt lat="45.80974" lon="5.78807">
        <ele>228</ele>
        <time>2021-09-12T08:48:27.809Z</time>
      </trkpt>
      <trkpt lat="45.80974" lon="5.78804">
        <ele>228</ele>
        <time>2021-09-12T08:48:28.809Z</time>
      </trkpt>
      <trkpt lat="45.80974" lon="5.788">
        <ele>228</ele>
        <time>2021-09-12T08:48:29.809Z</time>
      </trkpt>
      <trkpt lat="45.80973" lon="5.78797">
        <ele>228</ele>
        <time>2021-09-12T08:48:30.808Z</time>
      </trkpt>
      <trkpt lat="45.80972" lon="5.78794">
        <ele>228</ele>
        <time>2021-09-12T08:48:31.809Z</time>
      </trkpt>
      <trkpt lat="45.80972" lon="5.78791">
        <ele>228</ele>
        <time>2021-09-12T08:48:32.808Z</time>
      </trkpt>
      <trkpt lat="45.80972" lon="5.78788">
        <ele>228</ele>
        <time>2021-09-12T08:48:33.808Z</time>
      </trkpt>
      <trkpt lat="45.80972" lon="5.78785">
        <ele>228</ele>
        <time>2021-09-12T08:48:34.808Z</time>
      </trkpt>
      <trkpt lat="45.80972" lon="5.78782">
        <ele>228</ele>
        <time>2021-09-12T08:48:35.808Z</time>
      </trkpt>
      <trkpt lat="45.80971" lon="5.78778">
        <ele>229</ele>
        <time>2021-09-12T08:48:36.808Z</time>
      </trkpt>
      <trkpt lat="45.80971" lon="5.78775">
        <ele>230</ele>
        <time>2021-09-12T08:48:37.808Z</time>
      </trkpt>
      <trkpt lat="45.80971" lon="5.78772">
        <ele>230</ele>
        <time>2021-09-12T08:48:38.808Z</time>
      </trkpt>
      <trkpt lat="45.80972" lon="5.78769">
        <ele>230</ele>
        <time>2021-09-12T08:48:39.808Z</time>
      </trkpt>
      <trkpt lat="45.80973" lon="5.78767">
        <ele>231</ele>
        <time>2021-09-12T08:48:40.809Z</time>
      </trkpt>
      <trkpt lat="45.80974" lon="5.78765">
        <ele>231</ele>
        <time>2021-09-12T08:48:41.809Z</time>
      </trkpt>
      <trkpt lat="45.80976" lon="5.78764">
        <ele>231</ele>
        <time>2021-09-12T08:48:42.808Z</time>
      </trkpt>
      <trkpt lat="45.80978" lon="5.78762">
        <ele>231</ele>
        <time>2021-09-12T08:48:43.808Z</time>
      </trkpt>
      <trkpt lat="45.8098" lon="5.78761">
        <ele>231</ele>
        <time>2021-09-12T08:48:44.809Z</time>
      </trkpt>
      <trkpt lat="45.80981" lon="5.7876">
        <ele>232</ele>
        <time>2021-09-12T08:48:45.809Z</time>
      </trkpt>
      <trkpt lat="45.80982" lon="5.78759">
        <ele>232</ele>
        <time>2021-09-12T08:48:46.809Z</time>
      </trkpt>
      <trkpt lat="45.80983" lon="5.78758">
        <ele>232</ele>
        <time>2021-09-12T08:48:47.809Z</time>
      </trkpt>
      <trkpt lat="45.80982" lon="5.78757">
        <ele>232</ele>
        <time>2021-09-12T08:48:48.809Z</time>
      </trkpt>
      <trkpt lat="45.80982" lon="5.78757">
        <ele>232</ele>
        <time>2021-09-12T08:48:49.809Z</time>
      </trkpt>
      <trkpt lat="45.80981" lon="5.78757">
        <ele>232</ele>
        <time>2021-09-12T08:48:50.808Z</time>
      </trkpt>
      <trkpt lat="45.80981" lon="5.78757">
        <ele>232</ele>
        <time>2021-09-12T08:48:51.809Z</time>
      </trkpt>
      <trkpt lat="45.80981" lon="5.78759">
        <ele>230</ele>
        <time>2021-09-12T08:48:52.809Z</time>
      </trkpt>
      <trkpt lat="45.80977" lon="5.78763">
        <ele>236</ele>
        <time>2021-09-12T08:48:53.809Z</time>
      </trkpt>
      <trkpt lat="45.80975" lon="5.78766">
        <ele>236</ele>
        <time>2021-09-12T08:48:54.809Z</time>
      </trkpt>
      <trkpt lat="45.80974" lon="5.78768">
        <ele>236</ele>
        <time>2021-09-12T08:48:55.809Z</time>
      </trkpt>
      <trkpt lat="45.80972" lon="5.78771">
        <ele>236</ele>
        <time>2021-09-12T08:48:56.809Z</time>
      </trkpt>
      <trkpt lat="45.80971" lon="5.78774">
        <ele>236</ele>
        <time>2021-09-12T08:48:57.809Z</time>
      </trkpt>
      <trkpt lat="45.80971" lon="5.78777">
        <ele>235</ele>
        <time>2021-09-12T08:48:58.809Z</time>
      </trkpt>
      <trkpt lat="45.80971" lon="5.7878">
        <ele>235</ele>
        <time>2021-09-12T08:48:59.809Z</time>
      </trkpt>
      <trkpt lat="45.80971" lon="5.78784">
        <ele>235</ele>
        <time>2021-09-12T08:49:00.809Z</time>
      </trkpt>
      <trkpt lat="45.80971" lon="5.78788">
        <ele>235</ele>
        <time>2021-09-12T08:49:01.808Z</time>
      </trkpt>
      <trkpt lat="45.80971" lon="5.78792">
        <ele>235</ele>
        <time>2021-09-12T08:49:02.809Z</time>
      </trkpt>
      <trkpt lat="45.80972" lon="5.78796">
        <ele>235</ele>
        <time>2021-09-12T08:49:03.808Z</time>
      </trkpt>
      <trkpt lat="45.80972" lon="5.78801">
        <ele>235</ele>
        <time>2021-09-12T08:49:04.808Z</time>
      </trkpt>
      <trkpt lat="45.80972" lon="5.78804">
        <ele>235</ele>
        <time>2021-09-12T08:49:05.809Z</time>
      </trkpt>
      <trkpt lat="45.80973" lon="5.78808">
        <ele>235</ele>
        <time>2021-09-12T08:49:06.809Z</time>
      </trkpt>
      <trkpt lat="45.80974" lon="5.78812">
        <ele>235</ele>
        <time>2021-09-12T08:49:07.809Z</time>
      </trkpt>
      <trkpt lat="45.80974" lon="5.78816">
        <ele>235</ele>
        <time>2021-09-12T08:49:08.808Z</time>
      </trkpt>
      <trkpt lat="45.80975" lon="5.7882">
        <ele>235</ele>
        <time>2021-09-12T08:49:09.808Z</time>
      </trkpt>
      <trkpt lat="45.80975" lon="5.78824">
        <ele>235</ele>
        <time>2021-09-12T08:49:10.809Z</time>
      </trkpt>
      <trkpt lat="45.80976" lon="5.78828">
        <ele>235</ele>
        <time>2021-09-12T08:49:11.808Z</time>
      </trkpt>
      <trkpt lat="45.80976" lon="5.78832">
        <ele>235</ele>
        <time>2021-09-12T08:49:12.809Z</time>
      </trkpt>
      <trkpt lat="45.80977" lon="5.78836">
        <ele>235</ele>
        <time>2021-09-12T08:49:13.808Z</time>
      </trkpt>
      <trkpt lat="45.80977" lon="5.7884">
        <ele>234</ele>
        <time>2021-09-12T08:49:14.808Z</time>
      </trkpt>
      <trkpt lat="45.80977" lon="5.78844">
        <ele>234</ele>
        <time>2021-09-12T08:49:15.809Z</time>
      </trkpt>
      <trkpt lat="45.80977" lon="5.78849">
        <ele>235</ele>
        <time>2021-09-12T08:49:16.809Z</time>
      </trkpt>
      <trkpt lat="45.80977" lon="5.78853">
        <ele>235</ele>
        <time>2021-09-12T08:49:17.809Z</time>
      </trkpt>
      <trkpt lat="45.80977" lon="5.78857">
        <ele>235</ele>
        <time>2021-09-12T08:49:18.808Z</time>
      </trkpt>
      <trkpt lat="45.80977" lon="5.78861">
        <ele>234</ele>
        <time>2021-09-12T08:49:19.808Z</time>
      </trkpt>
      <trkpt lat="45.80977" lon="5.78865">
        <ele>234</ele>
        <time>2021-09-12T08:49:20.808Z</time>
      </trkpt>
      <trkpt lat="45.80977" lon="5.7887">
        <ele>234</ele>
        <time>2021-09-12T08:49:21.808Z</time>
      </trkpt>
      <trkpt lat="45.80976" lon="5.78874">
        <ele>234</ele>
        <time>2021-09-12T08:49:22.808Z</time>
      </trkpt>
      <trkpt lat="45.80976" lon="5.78878">
        <ele>234</ele>
        <time>2021-09-12T08:49:23.808Z</time>
      </trkpt>
      <trkpt lat="45.80976" lon="5.78882">
        <ele>234</ele>
        <time>2021-09-12T08:49:24.809Z</time>
      </trkpt>
      <trkpt lat="45.80976" lon="5.78887">
        <ele>235</ele>
        <time>2021-09-12T08:49:25.809Z</time>
      </trkpt>
      <trkpt lat="45.80975" lon="5.78891">
        <ele>235</ele>
        <time>2021-09-12T08:49:26.809Z</time>
      </trkpt>
      <trkpt lat="45.80975" lon="5.78896">
        <ele>236</ele>
        <time>2021-09-12T08:49:27.808Z</time>
      </trkpt>
      <trkpt lat="45.80975" lon="5.78899">
        <ele>236</ele>
        <time>2021-09-12T08:49:28.809Z</time>
      </trkpt>
      <trkpt lat="45.80975" lon="5.78902">
        <ele>236</ele>
        <time>2021-09-12T08:49:29.809Z</time>
      </trkpt>
      <trkpt lat="45.80974" lon="5.78907">
        <ele>237</ele>
        <time>2021-09-12T08:49:30.809Z</time>
      </trkpt>
      <trkpt lat="45.80974" lon="5.7891">
        <ele>237</ele>
        <time>2021-09-12T08:49:31.809Z</time>
      </trkpt>
      <trkpt lat="45.80973" lon="5.78912">
        <ele>237</ele>
        <time>2021-09-12T08:49:32.809Z</time>
      </trkpt>
      <trkpt lat="45.80972" lon="5.78913">
        <ele>237</ele>
        <time>2021-09-12T08:49:33.808Z</time>
      </trkpt>
      <trkpt lat="45.80971" lon="5.78914">
        <ele>236</ele>
        <time>2021-09-12T08:49:34.808Z</time>
      </trkpt>
      <trkpt lat="45.80971" lon="5.78915">
        <ele>236</ele>
        <time>2021-09-12T08:49:35.808Z</time>
      </trkpt>
      <trkpt lat="45.8097" lon="5.78915">
        <ele>236</ele>
        <time>2021-09-12T08:49:36.809Z</time>
      </trkpt>
      <trkpt lat="45.8097" lon="5.78915">
        <ele>236</ele>
        <time>2021-09-12T08:49:37.808Z</time>
      </trkpt>
      <trkpt lat="45.8097" lon="5.78915">
        <ele>236</ele>
        <time>2021-09-12T08:49:38.809Z</time>
      </trkpt>
      <trkpt lat="45.8097" lon="5.78915">
        <ele>231</ele>
        <time>2021-09-12T08:49:39.809Z</time>
      </trkpt>
      <trkpt lat="45.80969" lon="5.78916">
        <ele>231</ele>
        <time>2021-09-12T08:49:40.809Z</time>
      </trkpt>
      <trkpt lat="45.80969" lon="5.78917">
        <ele>231</ele>
        <time>2021-09-12T08:49:41.808Z</time>
      </trkpt>
      <trkpt lat="45.80968" lon="5.78918">
        <ele>232</ele>
        <time>2021-09-12T08:49:42.809Z</time>
      </trkpt>
      <trkpt lat="45.80968" lon="5.78919">
        <ele>231</ele>
        <time>2021-09-12T08:49:43.808Z</time>
      </trkpt>
      <trkpt lat="45.80967" lon="5.78919">
        <ele>232</ele>
        <time>2021-09-12T08:49:44.808Z</time>
      </trkpt>
      <trkpt lat="45.80966" lon="5.78919">
        <ele>232</ele>
        <time>2021-09-12T08:49:45.808Z</time>
      </trkpt>
      <trkpt lat="45.80966" lon="5.78919">
        <ele>232</ele>
        <time>2021-09-12T08:49:46.809Z</time>
      </trkpt>
      <trkpt lat="45.80965" lon="5.78919">
        <ele>233</ele>
        <time>2021-09-12T08:49:47.809Z</time>
      </trkpt>
      <trkpt lat="45.80964" lon="5.78918">
        <ele>233</ele>
        <time>2021-09-12T08:49:48.808Z</time>
      </trkpt>
      <trkpt lat="45.80964" lon="5.78918">
        <ele>233</ele>
        <time>2021-09-12T08:49:49.808Z</time>
      </trkpt>
      <trkpt lat="45.80963" lon="5.78918">
        <ele>234</ele>
        <time>2021-09-12T08:49:50.809Z</time>
      </trkpt>
      <trkpt lat="45.80962" lon="5.78918">
        <ele>234</ele>
        <time>2021-09-12T08:49:51.809Z</time>
      </trkpt>
      <trkpt lat="45.80962" lon="5.78917">
        <ele>234</ele>
        <time>2021-09-12T08:49:52.808Z</time>
      </trkpt>
      <trkpt lat="45.80961" lon="5.78917">
        <ele>234</ele>
        <time>2021-09-12T08:49:53.809Z</time>
      </trkpt>
      <trkpt lat="45.80961" lon="5.78916">
        <ele>234</ele>
        <time>2021-09-12T08:49:54.808Z</time>
      </trkpt>
      <trkpt lat="45.80961" lon="5.78915">
        <ele>235</ele>
        <time>2021-09-12T08:49:55.809Z</time>
      </trkpt>
      <trkpt lat="45.8096" lon="5.78915">
        <ele>235</ele>
        <time>2021-09-12T08:49:56.809Z</time>
      </trkpt>
      <trkpt lat="45.8096" lon="5.78914">
        <ele>236</ele>
        <time>2021-09-12T08:49:57.809Z</time>
      </trkpt>
      <trkpt lat="45.80959" lon="5.78914">
        <ele>236</ele>
        <time>2021-09-12T08:49:58.808Z</time>
      </trkpt>
      <trkpt lat="45.80959" lon="5.78914">
        <ele>236</ele>
        <time>2021-09-12T08:49:59.808Z</time>
      </trkpt>
      <trkpt lat="45.80958" lon="5.78914">
        <ele>237</ele>
        <time>2021-09-12T08:50:00.808Z</time>
      </trkpt>
      <trkpt lat="45.80958" lon="5.78914">
        <ele>237</ele>
        <time>2021-09-12T08:50:01.809Z</time>
      </trkpt>
      <trkpt lat="45.80957" lon="5.78913">
        <ele>237</ele>
        <time>2021-09-12T08:50:02.809Z</time>
      </trkpt>
      <trkpt lat="45.80956" lon="5.78913">
        <ele>236</ele>
        <time>2021-09-12T08:50:03.808Z</time>
      </trkpt>
      <trkpt lat="45.80955" lon="5.78912">
        <ele>236</ele>
        <time>2021-09-12T08:50:04.808Z</time>
      </trkpt>
      <trkpt lat="45.80955" lon="5.78912">
        <ele>236</ele>
        <time>2021-09-12T08:50:05.809Z</time>
      </trkpt>
      <trkpt lat="45.80954" lon="5.78912">
        <ele>236</ele>
        <time>2021-09-12T08:50:06.808Z</time>
      </trkpt>
      <trkpt lat="45.80954" lon="5.78911">
        <ele>236</ele>
        <time>2021-09-12T08:50:07.809Z</time>
      </trkpt>
      <trkpt lat="45.80954" lon="5.78911">
        <ele>236</ele>
        <time>2021-09-12T08:50:08.809Z</time>
      </trkpt>
      <trkpt lat="45.80953" lon="5.78911">
        <ele>237</ele>
        <time>2021-09-12T08:50:09.808Z</time>
      </trkpt>
      <trkpt lat="45.80952" lon="5.7891">
        <ele>237</ele>
        <time>2021-09-12T08:50:10.809Z</time>
      </trkpt>
      <trkpt lat="45.80952" lon="5.78909">
        <ele>237</ele>
        <time>2021-09-12T08:50:11.809Z</time>
      </trkpt>
      <trkpt lat="45.80952" lon="5.78909">
        <ele>238</ele>
        <time>2021-09-12T08:50:12.809Z</time>
      </trkpt>
      <trkpt lat="45.80952" lon="5.78908">
        <ele>238</ele>
        <time>2021-09-12T08:50:13.808Z</time>
      </trkpt>
      <trkpt lat="45.80952" lon="5.78908">
        <ele>239</ele>
        <time>2021-09-12T08:50:14.808Z</time>
      </trkpt>
      <trkpt lat="45.80953" lon="5.78909">
        <ele>239</ele>
        <time>2021-09-12T08:50:15.808Z</time>
      </trkpt>
      <trkpt lat="45.80954" lon="5.7891">
        <ele>239</ele>
        <time>2021-09-12T08:50:16.808Z</time>
      </trkpt>
      <trkpt lat="45.80954" lon="5.7891">
        <ele>239</ele>
        <time>2021-09-12T08:50:17.808Z</time>
      </trkpt>
      <trkpt lat="45.80955" lon="5.78911">
        <ele>238</ele>
        <time>2021-09-12T08:50:18.808Z</time>
      </trkpt>
      <trkpt lat="45.80954" lon="5.78911">
        <ele>238</ele>
        <time>2021-09-12T08:50:19.808Z</time>
      </trkpt>
      <trkpt lat="45.80954" lon="5.7891">
        <ele>238</ele>
        <time>2021-09-12T08:50:20.808Z</time>
      </trkpt>
      <trkpt lat="45.80953" lon="5.7891">
        <ele>238</ele>
        <time>2021-09-12T08:50:21.808Z</time>
      </trkpt>
      <trkpt lat="45.80953" lon="5.7891">
        <ele>237</ele>
        <time>2021-09-12T08:50:22.809Z</time>
      </trkpt>
      <trkpt lat="45.80952" lon="5.78909">
        <ele>237</ele>
        <time>2021-09-12T08:50:23.808Z</time>
      </trkpt>
      <trkpt lat="45.80952" lon="5.78908">
        <ele>237</ele>
        <time>2021-09-12T08:50:24.808Z</time>
      </trkpt>
      <trkpt lat="45.80952" lon="5.78908">
        <ele>237</ele>
        <time>2021-09-12T08:50:25.809Z</time>
      </trkpt>
      <trkpt lat="45.80952" lon="5.78908">
        <ele>237</ele>
        <time>2021-09-12T08:50:26.809Z</time>
      </trkpt>
      <trkpt lat="45.80951" lon="5.78908">
        <ele>237</ele>
        <time>2021-09-12T08:50:27.809Z</time>
      </trkpt>
      <trkpt lat="45.80951" lon="5.78908">
        <ele>237</ele>
        <time>2021-09-12T08:50:28.808Z</time>
      </trkpt>
      <trkpt lat="45.80949" lon="5.78906">
        <ele>237</ele>
        <time>2021-09-12T08:50:29.809Z</time>
      </trkpt>
      <trkpt lat="45.80948" lon="5.78906">
        <ele>237</ele>
        <time>2021-09-12T08:50:30.808Z</time>
      </trkpt>
      <trkpt lat="45.80946" lon="5.78905">
        <ele>237</ele>
        <time>2021-09-12T08:50:31.809Z</time>
      </trkpt>
      <trkpt lat="45.80945" lon="5.78905">
        <ele>237</ele>
        <time>2021-09-12T08:50:32.809Z</time>
      </trkpt>
      <trkpt lat="45.80944" lon="5.78904">
        <ele>237</ele>
        <time>2021-09-12T08:50:33.809Z</time>
      </trkpt>
      <trkpt lat="45.80942" lon="5.78904">
        <ele>237</ele>
        <time>2021-09-12T08:50:34.809Z</time>
      </trkpt>
      <trkpt lat="45.80941" lon="5.78903">
        <ele>237</ele>
        <time>2021-09-12T08:50:35.809Z</time>
      </trkpt>
      <trkpt lat="45.8094" lon="5.78903">
        <ele>237</ele>
        <time>2021-09-12T08:50:36.809Z</time>
      </trkpt>
      <trkpt lat="45.80939" lon="5.78903">
        <ele>237</ele>
        <time>2021-09-12T08:50:37.808Z</time>
      </trkpt>
      <trkpt lat="45.80939" lon="5.78903">
        <ele>237</ele>
        <time>2021-09-12T08:50:38.809Z</time>
      </trkpt>
      <trkpt lat="45.80938" lon="5.78903">
        <ele>236</ele>
        <time>2021-09-12T08:50:39.809Z</time>
      </trkpt>
      <trkpt lat="45.80938" lon="5.78903">
        <ele>236</ele>
        <time>2021-09-12T08:50:40.809Z</time>
      </trkpt>
      <trkpt lat="45.80937" lon="5.78903">
        <ele>236</ele>
        <time>2021-09-12T08:50:41.808Z</time>
      </trkpt>
      <trkpt lat="45.80937" lon="5.78903">
        <ele>236</ele>
        <time>2021-09-12T08:50:42.809Z</time>
      </trkpt>
      <trkpt lat="45.80934" lon="5.78907">
        <ele>238</ele>
        <time>2021-09-12T08:50:43.810Z</time>
      </trkpt>
      <trkpt lat="45.80933" lon="5.78908">
        <ele>238</ele>
        <time>2021-09-12T08:50:44.810Z</time>
      </trkpt>
      <trkpt lat="45.80932" lon="5.78909">
        <ele>238</ele>
        <time>2021-09-12T08:50:45.810Z</time>
      </trkpt>
      <trkpt lat="45.80931" lon="5.7891">
        <ele>238</ele>
        <time>2021-09-12T08:50:46.810Z</time>
      </trkpt>
      <trkpt lat="45.8093" lon="5.78912">
        <ele>238</ele>
        <time>2021-09-12T08:50:47.810Z</time>
      </trkpt>
      <trkpt lat="45.80928" lon="5.78914">
        <ele>238</ele>
        <time>2021-09-12T08:50:48.810Z</time>
      </trkpt>
      <trkpt lat="45.80926" lon="5.78917">
        <ele>238</ele>
        <time>2021-09-12T08:50:49.810Z</time>
      </trkpt>
      <trkpt lat="45.80924" lon="5.7892">
        <ele>238</ele>
        <time>2021-09-12T08:50:50.810Z</time>
      </trkpt>
      <trkpt lat="45.80923" lon="5.78923">
        <ele>238</ele>
        <time>2021-09-12T08:50:51.810Z</time>
      </trkpt>
      <trkpt lat="45.80922" lon="5.78927">
        <ele>238</ele>
        <time>2021-09-12T08:50:52.810Z</time>
      </trkpt>
      <trkpt lat="45.8092" lon="5.78932">
        <ele>238</ele>
        <time>2021-09-12T08:50:53.810Z</time>
      </trkpt>
      <trkpt lat="45.8092" lon="5.78936">
        <ele>238</ele>
        <time>2021-09-12T08:50:54.810Z</time>
      </trkpt>
      <trkpt lat="45.80919" lon="5.78941">
        <ele>238</ele>
        <time>2021-09-12T08:50:55.810Z</time>
      </trkpt>
      <trkpt lat="45.80918" lon="5.78947">
        <ele>237</ele>
        <time>2021-09-12T08:50:56.810Z</time>
      </trkpt>
      <trkpt lat="45.80917" lon="5.78951">
        <ele>237</ele>
        <time>2021-09-12T08:50:57.810Z</time>
      </trkpt>
      <trkpt lat="45.80916" lon="5.78956">
        <ele>237</ele>
        <time>2021-09-12T08:50:58.810Z</time>
      </trkpt>
      <trkpt lat="45.80915" lon="5.78962">
        <ele>236</ele>
        <time>2021-09-12T08:50:59.810Z</time>
      </trkpt>
      <trkpt lat="45.80915" lon="5.78967">
        <ele>236</ele>
        <time>2021-09-12T08:51:00.810Z</time>
      </trkpt>
      <trkpt lat="45.80915" lon="5.78973">
        <ele>236</ele>
        <time>2021-09-12T08:51:01.810Z</time>
      </trkpt>
      <trkpt lat="45.80914" lon="5.78978">
        <ele>235</ele>
        <time>2021-09-12T08:51:02.810Z</time>
      </trkpt>
      <trkpt lat="45.80913" lon="5.78982">
        <ele>235</ele>
        <time>2021-09-12T08:51:03.810Z</time>
      </trkpt>
      <trkpt lat="45.80912" lon="5.78987">
        <ele>235</ele>
        <time>2021-09-12T08:51:04.810Z</time>
      </trkpt>
      <trkpt lat="45.80911" lon="5.78991">
        <ele>235</ele>
        <time>2021-09-12T08:51:05.810Z</time>
      </trkpt>
      <trkpt lat="45.80911" lon="5.78995">
        <ele>235</ele>
        <time>2021-09-12T08:51:06.810Z</time>
      </trkpt>
      <trkpt lat="45.8091" lon="5.78999">
        <ele>235</ele>
        <time>2021-09-12T08:51:07.810Z</time>
      </trkpt>
      <trkpt lat="45.80909" lon="5.79003">
        <ele>235</ele>
        <time>2021-09-12T08:51:08.810Z</time>
      </trkpt>
      <trkpt lat="45.80909" lon="5.79007">
        <ele>235</ele>
        <time>2021-09-12T08:51:09.810Z</time>
      </trkpt>
      <trkpt lat="45.80908" lon="5.7901">
        <ele>235</ele>
        <time>2021-09-12T08:51:10.810Z</time>
      </trkpt>
      <trkpt lat="45.80907" lon="5.79013">
        <ele>236</ele>
        <time>2021-09-12T08:51:11.810Z</time>
      </trkpt>
      <trkpt lat="45.80907" lon="5.79017">
        <ele>236</ele>
        <time>2021-09-12T08:51:12.810Z</time>
      </trkpt>
      <trkpt lat="45.80906" lon="5.79021">
        <ele>236</ele>
        <time>2021-09-12T08:51:13.810Z</time>
      </trkpt>
      <trkpt lat="45.80906" lon="5.79024">
        <ele>236</ele>
        <time>2021-09-12T08:51:14.810Z</time>
      </trkpt>
      <trkpt lat="45.80904" lon="5.79028">
        <ele>236</ele>
        <time>2021-09-12T08:51:15.810Z</time>
      </trkpt>
      <trkpt lat="45.80903" lon="5.79031">
        <ele>236</ele>
        <time>2021-09-12T08:51:16.810Z</time>
      </trkpt>
      <trkpt lat="45.80902" lon="5.79034">
        <ele>235</ele>
        <time>2021-09-12T08:51:17.810Z</time>
      </trkpt>
      <trkpt lat="45.809" lon="5.79037">
        <ele>235</ele>
        <time>2021-09-12T08:51:18.810Z</time>
      </trkpt>
      <trkpt lat="45.80898" lon="5.7904">
        <ele>234</ele>
        <time>2021-09-12T08:51:19.810Z</time>
      </trkpt>
      <trkpt lat="45.80897" lon="5.79043">
        <ele>233</ele>
        <time>2021-09-12T08:51:20.810Z</time>
      </trkpt>
      <trkpt lat="45.80897" lon="5.79047">
        <ele>233</ele>
        <time>2021-09-12T08:51:21.810Z</time>
      </trkpt>
      <trkpt lat="45.80896" lon="5.7905">
        <ele>232</ele>
        <time>2021-09-12T08:51:22.810Z</time>
      </trkpt>
      <trkpt lat="45.80895" lon="5.79055">
        <ele>232</ele>
        <time>2021-09-12T08:51:23.810Z</time>
      </trkpt>
      <trkpt lat="45.80894" lon="5.79059">
        <ele>233</ele>
        <time>2021-09-12T08:51:24.810Z</time>
      </trkpt>
      <trkpt lat="45.80893" lon="5.79062">
        <ele>233</ele>
        <time>2021-09-12T08:51:25.810Z</time>
      </trkpt>
      <trkpt lat="45.80892" lon="5.79065">
        <ele>233</ele>
        <time>2021-09-12T08:51:26.810Z</time>
      </trkpt>
      <trkpt lat="45.80892" lon="5.79069">
        <ele>233</ele>
        <time>2021-09-12T08:51:27.810Z</time>
      </trkpt>
      <trkpt lat="45.80892" lon="5.79073">
        <ele>234</ele>
        <time>2021-09-12T08:51:28.810Z</time>
      </trkpt>
      <trkpt lat="45.80891" lon="5.79077">
        <ele>234</ele>
        <time>2021-09-12T08:51:29.810Z</time>
      </trkpt>
      <trkpt lat="45.80891" lon="5.79081">
        <ele>234</ele>
        <time>2021-09-12T08:51:30.810Z</time>
      </trkpt>
      <trkpt lat="45.8089" lon="5.79085">
        <ele>235</ele>
        <time>2021-09-12T08:51:31.810Z</time>
      </trkpt>
      <trkpt lat="45.80889" lon="5.79088">
        <ele>235</ele>
        <time>2021-09-12T08:51:32.810Z</time>
      </trkpt>
      <trkpt lat="45.80888" lon="5.79091">
        <ele>235</ele>
        <time>2021-09-12T08:51:33.810Z</time>
      </trkpt>
      <trkpt lat="45.80887" lon="5.79093">
        <ele>236</ele>
        <time>2021-09-12T08:51:34.810Z</time>
      </trkpt>
      <trkpt lat="45.80886" lon="5.79096">
        <ele>236</ele>
        <time>2021-09-12T08:51:35.810Z</time>
      </trkpt>
      <trkpt lat="45.80885" lon="5.79098">
        <ele>236</ele>
        <time>2021-09-12T08:51:36.810Z</time>
      </trkpt>
      <trkpt lat="45.80884" lon="5.79101">
        <ele>236</ele>
        <time>2021-09-12T08:51:37.810Z</time>
      </trkpt>
      <trkpt lat="45.80883" lon="5.79103">
        <ele>236</ele>
        <time>2021-09-12T08:51:38.810Z</time>
      </trkpt>
      <trkpt lat="45.80882" lon="5.79106">
        <ele>237</ele>
        <time>2021-09-12T08:51:39.810Z</time>
      </trkpt>
      <trkpt lat="45.80882" lon="5.79108">
        <ele>238</ele>
        <time>2021-09-12T08:51:40.810Z</time>
      </trkpt>
      <trkpt lat="45.80881" lon="5.7911">
        <ele>238</ele>
        <time>2021-09-12T08:51:41.810Z</time>
      </trkpt>
      <trkpt lat="45.8088" lon="5.79111">
        <ele>239</ele>
        <time>2021-09-12T08:51:42.810Z</time>
      </trkpt>
      <trkpt lat="45.80879" lon="5.79111">
        <ele>239</ele>
        <time>2021-09-12T08:51:43.810Z</time>
      </trkpt>
      <trkpt lat="45.80879" lon="5.79111">
        <ele>239</ele>
        <time>2021-09-12T08:51:44.810Z</time>
      </trkpt>
      <trkpt lat="45.80879" lon="5.79111">
        <ele>239</ele>
        <time>2021-09-12T08:51:45.810Z</time>
      </trkpt>
      <trkpt lat="45.80877" lon="5.79112">
        <ele>240</ele>
        <time>2021-09-12T08:51:46.810Z</time>
      </trkpt>
      <trkpt lat="45.80876" lon="5.79111">
        <ele>240</ele>
        <time>2021-09-12T08:51:47.810Z</time>
      </trkpt>
      <trkpt lat="45.80873" lon="5.79111">
        <ele>235</ele>
        <time>2021-09-12T08:51:48.813Z</time>
      </trkpt>
      <trkpt lat="45.80871" lon="5.79111">
        <ele>235</ele>
        <time>2021-09-12T08:51:49.813Z</time>
      </trkpt>
      <trkpt lat="45.8087" lon="5.79111">
        <ele>235</ele>
        <time>2021-09-12T08:51:50.812Z</time>
      </trkpt>
      <trkpt lat="45.80868" lon="5.79111">
        <ele>234</ele>
        <time>2021-09-12T08:51:51.813Z</time>
      </trkpt>
      <trkpt lat="45.80867" lon="5.79111">
        <ele>234</ele>
        <time>2021-09-12T08:51:52.813Z</time>
      </trkpt>
      <trkpt lat="45.80865" lon="5.7911">
        <ele>234</ele>
        <time>2021-09-12T08:51:53.813Z</time>
      </trkpt>
      <trkpt lat="45.80864" lon="5.7911">
        <ele>234</ele>
        <time>2021-09-12T08:51:54.813Z</time>
      </trkpt>
      <trkpt lat="45.80862" lon="5.79109">
        <ele>234</ele>
        <time>2021-09-12T08:51:55.813Z</time>
      </trkpt>
      <trkpt lat="45.80862" lon="5.79108">
        <ele>234</ele>
        <time>2021-09-12T08:51:56.812Z</time>
      </trkpt>
      <trkpt lat="45.80861" lon="5.79108">
        <ele>233</ele>
        <time>2021-09-12T08:51:57.813Z</time>
      </trkpt>
      <trkpt lat="45.8086" lon="5.79107">
        <ele>233</ele>
        <time>2021-09-12T08:51:58.812Z</time>
      </trkpt>
      <trkpt lat="45.80859" lon="5.79106">
        <ele>233</ele>
        <time>2021-09-12T08:51:59.812Z</time>
      </trkpt>
      <trkpt lat="45.80858" lon="5.79106">
        <ele>234</ele>
        <time>2021-09-12T08:52:00.812Z</time>
      </trkpt>
      <trkpt lat="45.80857" lon="5.79105">
        <ele>234</ele>
        <time>2021-09-12T08:52:01.813Z</time>
      </trkpt>
      <trkpt lat="45.80857" lon="5.79105">
        <ele>234</ele>
        <time>2021-09-12T08:52:02.812Z</time>
      </trkpt>
      <trkpt lat="45.80856" lon="5.79105">
        <ele>235</ele>
        <time>2021-09-12T08:52:03.813Z</time>
      </trkpt>
      <trkpt lat="45.80856" lon="5.79106">
        <ele>235</ele>
        <time>2021-09-12T08:52:04.813Z</time>
      </trkpt>
      <trkpt lat="45.80856" lon="5.79106">
        <ele>235</ele>
        <time>2021-09-12T08:52:05.813Z</time>
      </trkpt>
      <trkpt lat="45.80856" lon="5.79106">
        <ele>235</ele>
        <time>2021-09-12T08:52:06.812Z</time>
      </trkpt>
      <trkpt lat="45.80857" lon="5.79106">
        <ele>234</ele>
        <time>2021-09-12T08:52:07.814Z</time>
      </trkpt>
      <trkpt lat="45.80857" lon="5.79106">
        <ele>233</ele>
        <time>2021-09-12T08:52:08.814Z</time>
      </trkpt>
      <trkpt lat="45.80858" lon="5.79105">
        <ele>234</ele>
        <time>2021-09-12T08:52:09.813Z</time>
      </trkpt>
      <trkpt lat="45.8086" lon="5.79105">
        <ele>234</ele>
        <time>2021-09-12T08:52:10.813Z</time>
      </trkpt>
      <trkpt lat="45.80861" lon="5.79106">
        <ele>234</ele>
        <time>2021-09-12T08:52:11.813Z</time>
      </trkpt>
      <trkpt lat="45.80863" lon="5.79106">
        <ele>234</ele>
        <time>2021-09-12T08:52:12.813Z</time>
      </trkpt>
      <trkpt lat="45.80865" lon="5.79107">
        <ele>234</ele>
        <time>2021-09-12T08:52:13.814Z</time>
      </trkpt>
      <trkpt lat="45.80867" lon="5.79106">
        <ele>234</ele>
        <time>2021-09-12T08:52:14.814Z</time>
      </trkpt>
      <trkpt lat="45.80868" lon="5.79106">
        <ele>235</ele>
        <time>2021-09-12T08:52:15.814Z</time>
      </trkpt>
      <trkpt lat="45.80869" lon="5.79106">
        <ele>235</ele>
        <time>2021-09-12T08:52:16.814Z</time>
      </trkpt>
      <trkpt lat="45.8087" lon="5.79106">
        <ele>234</ele>
        <time>2021-09-12T08:52:17.814Z</time>
      </trkpt>
      <trkpt lat="45.80871" lon="5.79106">
        <ele>234</ele>
        <time>2021-09-12T08:52:18.814Z</time>
      </trkpt>
      <trkpt lat="45.80871" lon="5.79105">
        <ele>234</ele>
        <time>2021-09-12T08:52:19.813Z</time>
      </trkpt>
      <trkpt lat="45.80872" lon="5.79104">
        <ele>234</ele>
        <time>2021-09-12T08:52:20.814Z</time>
      </trkpt>
      <trkpt lat="45.80873" lon="5.79104">
        <ele>234</ele>
        <time>2021-09-12T08:52:21.814Z</time>
      </trkpt>
      <trkpt lat="45.80874" lon="5.79103">
        <ele>234</ele>
        <time>2021-09-12T08:52:22.814Z</time>
      </trkpt>
      <trkpt lat="45.80875" lon="5.79102">
        <ele>233</ele>
        <time>2021-09-12T08:52:23.813Z</time>
      </trkpt>
      <trkpt lat="45.80876" lon="5.79102">
        <ele>233</ele>
        <time>2021-09-12T08:52:24.813Z</time>
      </trkpt>
      <trkpt lat="45.80876" lon="5.79101">
        <ele>233</ele>
        <time>2021-09-12T08:52:25.814Z</time>
      </trkpt>
      <trkpt lat="45.80876" lon="5.791">
        <ele>234</ele>
        <time>2021-09-12T08:52:26.814Z</time>
      </trkpt>
      <trkpt lat="45.80877" lon="5.79099">
        <ele>234</ele>
        <time>2021-09-12T08:52:27.814Z</time>
      </trkpt>
      <trkpt lat="45.80877" lon="5.79098">
        <ele>234</ele>
        <time>2021-09-12T08:52:28.814Z</time>
      </trkpt>
      <trkpt lat="45.80878" lon="5.79097">
        <ele>234</ele>
        <time>2021-09-12T08:52:29.814Z</time>
      </trkpt>
      <trkpt lat="45.80878" lon="5.79096">
        <ele>235</ele>
        <time>2021-09-12T08:52:30.813Z</time>
      </trkpt>
      <trkpt lat="45.80878" lon="5.79095">
        <ele>235</ele>
        <time>2021-09-12T08:52:31.814Z</time>
      </trkpt>
      <trkpt lat="45.80879" lon="5.79094">
        <ele>235</ele>
        <time>2021-09-12T08:52:32.813Z</time>
      </trkpt>
      <trkpt lat="45.80879" lon="5.79094">
        <ele>235</ele>
        <time>2021-09-12T08:52:33.813Z</time>
      </trkpt>
      <trkpt lat="45.80879" lon="5.79094">
        <ele>235</ele>
        <time>2021-09-12T08:52:34.814Z</time>
      </trkpt>
      <trkpt lat="45.80879" lon="5.79094">
        <ele>235</ele>
        <time>2021-09-12T08:52:35.813Z</time>
      </trkpt>
      <trkpt lat="45.80879" lon="5.79095">
        <ele>235</ele>
        <time>2021-09-12T08:52:36.814Z</time>
      </trkpt>
      <trkpt lat="45.80881" lon="5.79133">
        <ele>237</ele>
        <time>2021-09-12T08:53:21.814Z</time>
      </trkpt>
      <trkpt lat="45.8088" lon="5.79122">
        <ele>238</ele>
        <time>2021-09-12T08:53:22.814Z</time>
      </trkpt>
      <trkpt lat="45.80881" lon="5.79122">
        <ele>240</ele>
        <time>2021-09-12T08:53:23.813Z</time>
      </trkpt>
      <trkpt lat="45.80881" lon="5.79122">
        <ele>241</ele>
        <time>2021-09-12T08:53:24.814Z</time>
      </trkpt>
      <trkpt lat="45.8088" lon="5.79123">
        <ele>242</ele>
        <time>2021-09-12T08:53:25.814Z</time>
      </trkpt>
      <trkpt lat="45.80878" lon="5.79123">
        <ele>244</ele>
        <time>2021-09-12T08:53:26.814Z</time>
      </trkpt>
      <trkpt lat="45.80875" lon="5.79122">
        <ele>244</ele>
        <time>2021-09-12T08:53:27.813Z</time>
      </trkpt>
      <trkpt lat="45.80872" lon="5.79122">
        <ele>245</ele>
        <time>2021-09-12T08:53:28.813Z</time>
      </trkpt>
      <trkpt lat="45.80871" lon="5.79122">
        <ele>246</ele>
        <time>2021-09-12T08:53:29.813Z</time>
      </trkpt>
      <trkpt lat="45.80869" lon="5.79121">
        <ele>246</ele>
        <time>2021-09-12T08:53:30.813Z</time>
      </trkpt>
      <trkpt lat="45.80867" lon="5.79117">
        <ele>247</ele>
        <time>2021-09-12T08:53:31.814Z</time>
      </trkpt>
      <trkpt lat="45.80867" lon="5.79115">
        <ele>247</ele>
        <time>2021-09-12T08:53:32.814Z</time>
      </trkpt>
      <trkpt lat="45.80866" lon="5.79113">
        <ele>248</ele>
        <time>2021-09-12T08:53:33.814Z</time>
      </trkpt>
      <trkpt lat="45.80866" lon="5.79112">
        <ele>248</ele>
        <time>2021-09-12T08:53:34.814Z</time>
      </trkpt>
      <trkpt lat="45.80866" lon="5.79112">
        <ele>249</ele>
        <time>2021-09-12T08:53:35.814Z</time>
      </trkpt>
      <trkpt lat="45.80866" lon="5.79111">
        <ele>249</ele>
        <time>2021-09-12T08:53:36.814Z</time>
      </trkpt>
      <trkpt lat="45.80867" lon="5.7911">
        <ele>250</ele>
        <time>2021-09-12T08:53:37.814Z</time>
      </trkpt>
      <trkpt lat="45.80867" lon="5.7911">
        <ele>251</ele>
        <time>2021-09-12T08:53:38.814Z</time>
      </trkpt>
      <trkpt lat="45.80866" lon="5.7911">
        <ele>251</ele>
        <time>2021-09-12T08:53:39.814Z</time>
      </trkpt>
      <trkpt lat="45.80866" lon="5.7911">
        <ele>252</ele>
        <time>2021-09-12T08:53:40.814Z</time>
      </trkpt>
      <trkpt lat="45.80865" lon="5.7911">
        <ele>253</ele>
        <time>2021-09-12T08:53:41.813Z</time>
      </trkpt>
      <trkpt lat="45.80865" lon="5.7911">
        <ele>253</ele>
        <time>2021-09-12T08:53:42.814Z</time>
      </trkpt>
      <trkpt lat="45.80865" lon="5.79111">
        <ele>254</ele>
        <time>2021-09-12T08:53:43.813Z</time>
      </trkpt>
      <trkpt lat="45.80859" lon="5.79112">
        <ele>260</ele>
        <time>2021-09-12T08:53:44.815Z</time>
      </trkpt>
      <trkpt lat="45.80859" lon="5.79112">
        <ele>260</ele>
        <time>2021-09-12T08:53:45.815Z</time>
      </trkpt>
      <trkpt lat="45.80861" lon="5.79108">
        <ele>251</ele>
        <time>2021-09-12T08:53:46.815Z</time>
      </trkpt>
      <trkpt lat="45.80861" lon="5.79107">
        <ele>251</ele>
        <time>2021-09-12T08:53:47.815Z</time>
      </trkpt>
      <trkpt lat="45.80863" lon="5.79103">
        <ele>250</ele>
        <time>2021-09-12T08:53:48.816Z</time>
      </trkpt>
      <trkpt lat="45.80863" lon="5.79103">
        <ele>250</ele>
        <time>2021-09-12T08:53:49.815Z</time>
      </trkpt>
      <trkpt lat="45.80862" lon="5.79104">
        <ele>250</ele>
        <time>2021-09-12T08:53:50.816Z</time>
      </trkpt>
      <trkpt lat="45.80861" lon="5.79104">
        <ele>249</ele>
        <time>2021-09-12T08:53:51.816Z</time>
      </trkpt>
      <trkpt lat="45.80861" lon="5.79104">
        <ele>249</ele>
        <time>2021-09-12T08:53:52.815Z</time>
      </trkpt>
      <trkpt lat="45.80861" lon="5.79103">
        <ele>249</ele>
        <time>2021-09-12T08:53:53.815Z</time>
      </trkpt>
      <trkpt lat="45.80862" lon="5.791">
        <ele>249</ele>
        <time>2021-09-12T08:53:54.815Z</time>
      </trkpt>
      <trkpt lat="45.80862" lon="5.79096">
        <ele>249</ele>
        <time>2021-09-12T08:53:55.816Z</time>
      </trkpt>
      <trkpt lat="45.80863" lon="5.79094">
        <ele>248</ele>
        <time>2021-09-12T08:53:56.816Z</time>
      </trkpt>
      <trkpt lat="45.80863" lon="5.79092">
        <ele>248</ele>
        <time>2021-09-12T08:53:57.815Z</time>
      </trkpt>
      <trkpt lat="45.80863" lon="5.7909">
        <ele>248</ele>
        <time>2021-09-12T08:53:58.816Z</time>
      </trkpt>
      <trkpt lat="45.80864" lon="5.7909">
        <ele>247</ele>
        <time>2021-09-12T08:53:59.816Z</time>
      </trkpt>
      <trkpt lat="45.80864" lon="5.79091">
        <ele>247</ele>
        <time>2021-09-12T08:54:00.815Z</time>
      </trkpt>
      <trkpt lat="45.80864" lon="5.79092">
        <ele>247</ele>
        <time>2021-09-12T08:54:01.816Z</time>
      </trkpt>
      <trkpt lat="45.80863" lon="5.79094">
        <ele>246</ele>
        <time>2021-09-12T08:54:02.815Z</time>
      </trkpt>
      <trkpt lat="45.80863" lon="5.79095">
        <ele>246</ele>
        <time>2021-09-12T08:54:03.815Z</time>
      </trkpt>
      <trkpt lat="45.80863" lon="5.79094">
        <ele>245</ele>
        <time>2021-09-12T08:54:04.816Z</time>
      </trkpt>
      <trkpt lat="45.80864" lon="5.79094">
        <ele>244</ele>
        <time>2021-09-12T08:54:05.816Z</time>
      </trkpt>
      <trkpt lat="45.80865" lon="5.79095">
        <ele>244</ele>
        <time>2021-09-12T08:54:06.816Z</time>
      </trkpt>
      <trkpt lat="45.80866" lon="5.79096">
        <ele>243</ele>
        <time>2021-09-12T08:54:07.815Z</time>
      </trkpt>
      <trkpt lat="45.80867" lon="5.79096">
        <ele>243</ele>
        <time>2021-09-12T08:54:08.815Z</time>
      </trkpt>
      <trkpt lat="45.80867" lon="5.79096">
        <ele>242</ele>
        <time>2021-09-12T08:54:09.816Z</time>
      </trkpt>
      <trkpt lat="45.80865" lon="5.79097">
        <ele>242</ele>
        <time>2021-09-12T08:54:10.816Z</time>
      </trkpt>
      <trkpt lat="45.80864" lon="5.79097">
        <ele>242</ele>
        <time>2021-09-12T08:54:11.815Z</time>
      </trkpt>
      <trkpt lat="45.80863" lon="5.79098">
        <ele>242</ele>
        <time>2021-09-12T08:54:12.816Z</time>
      </trkpt>
      <trkpt lat="45.80863" lon="5.79098">
        <ele>243</ele>
        <time>2021-09-12T08:54:13.816Z</time>
      </trkpt>
      <trkpt lat="45.80864" lon="5.79099">
        <ele>243</ele>
        <time>2021-09-12T08:54:14.815Z</time>
      </trkpt>
      <trkpt lat="45.80864" lon="5.791">
        <ele>243</ele>
        <time>2021-09-12T08:54:15.816Z</time>
      </trkpt>
      <trkpt lat="45.80863" lon="5.79102">
        <ele>244</ele>
        <time>2021-09-12T08:54:16.815Z</time>
      </trkpt>
      <trkpt lat="45.80863" lon="5.79102">
        <ele>244</ele>
        <time>2021-09-12T08:54:17.816Z</time>
      </trkpt>
      <trkpt lat="45.80863" lon="5.79101">
        <ele>244</ele>
        <time>2021-09-12T08:54:18.816Z</time>
      </trkpt>
      <trkpt lat="45.80864" lon="5.79101">
        <ele>245</ele>
        <time>2021-09-12T08:54:19.816Z</time>
      </trkpt>
      <trkpt lat="45.80864" lon="5.79101">
        <ele>245</ele>
        <time>2021-09-12T08:54:20.815Z</time>
      </trkpt>
      <trkpt lat="45.80864" lon="5.79101">
        <ele>245</ele>
        <time>2021-09-12T08:54:21.816Z</time>
      </trkpt>
      <trkpt lat="45.80865" lon="5.791">
        <ele>244</ele>
        <time>2021-09-12T08:54:22.815Z</time>
      </trkpt>
      <trkpt lat="45.80865" lon="5.79099">
        <ele>244</ele>
        <time>2021-09-12T08:54:23.816Z</time>
      </trkpt>
      <trkpt lat="45.80866" lon="5.79099">
        <ele>244</ele>
        <time>2021-09-12T08:54:24.816Z</time>
      </trkpt>
      <trkpt lat="45.80866" lon="5.791">
        <ele>243</ele>
        <time>2021-09-12T08:54:25.815Z</time>
      </trkpt>
      <trkpt lat="45.80866" lon="5.791">
        <ele>243</ele>
        <time>2021-09-12T08:54:26.816Z</time>
      </trkpt>
      <trkpt lat="45.80867" lon="5.79099">
        <ele>243</ele>
        <time>2021-09-12T08:54:27.816Z</time>
      </trkpt>
      <trkpt lat="45.80868" lon="5.79099">
        <ele>243</ele>
        <time>2021-09-12T08:54:28.816Z</time>
      </trkpt>
      <trkpt lat="45.80868" lon="5.79098">
        <ele>242</ele>
        <time>2021-09-12T08:54:29.816Z</time>
      </trkpt>
      <trkpt lat="45.80858" lon="5.79114">
        <ele>235</ele>
        <time>2021-09-12T08:54:30.818Z</time>
      </trkpt>
      <trkpt lat="45.80858" lon="5.79114">
        <ele>235</ele>
        <time>2021-09-12T08:54:31.818Z</time>
      </trkpt>
      <trkpt lat="45.80858" lon="5.79114">
        <ele>235</ele>
        <time>2021-09-12T08:54:32.818Z</time>
      </trkpt>
      <trkpt lat="45.80858" lon="5.79114">
        <ele>235</ele>
        <time>2021-09-12T08:54:33.818Z</time>
      </trkpt>
      <trkpt lat="45.80858" lon="5.79114">
        <ele>235</ele>
        <time>2021-09-12T08:54:34.818Z</time>
      </trkpt>
      <trkpt lat="45.80858" lon="5.79114">
        <ele>235</ele>
        <time>2021-09-12T08:54:35.818Z</time>
      </trkpt>
      <trkpt lat="45.80858" lon="5.79114">
        <ele>235</ele>
        <time>2021-09-12T08:54:36.818Z</time>
      </trkpt>
      <trkpt lat="45.80859" lon="5.79114">
        <ele>235</ele>
        <time>2021-09-12T08:54:37.818Z</time>
      </trkpt>
      <trkpt lat="45.80859" lon="5.79114">
        <ele>235</ele>
        <time>2021-09-12T08:54:38.817Z</time>
      </trkpt>
      <trkpt lat="45.80859" lon="5.79115">
        <ele>235</ele>
        <time>2021-09-12T08:54:39.818Z</time>
      </trkpt>
      <trkpt lat="45.80861" lon="5.79116">
        <ele>235</ele>
        <time>2021-09-12T08:54:40.817Z</time>
      </trkpt>
      <trkpt lat="45.80862" lon="5.79118">
        <ele>235</ele>
        <time>2021-09-12T08:54:41.817Z</time>
      </trkpt>
      <trkpt lat="45.80864" lon="5.7912">
        <ele>235</ele>
        <time>2021-09-12T08:54:42.818Z</time>
      </trkpt>
      <trkpt lat="45.80866" lon="5.79122">
        <ele>235</ele>
        <time>2021-09-12T08:54:43.818Z</time>
      </trkpt>
      <trkpt lat="45.80867" lon="5.79123">
        <ele>235</ele>
        <time>2021-09-12T08:54:44.818Z</time>
      </trkpt>
      <trkpt lat="45.80868" lon="5.79124">
        <ele>235</ele>
        <time>2021-09-12T08:54:45.818Z</time>
      </trkpt>
      <trkpt lat="45.80869" lon="5.79124">
        <ele>234</ele>
        <time>2021-09-12T08:54:46.818Z</time>
      </trkpt>
      <trkpt lat="45.80869" lon="5.79125">
        <ele>234</ele>
        <time>2021-09-12T08:54:47.817Z</time>
      </trkpt>
      <trkpt lat="45.8087" lon="5.79125">
        <ele>234</ele>
        <time>2021-09-12T08:54:48.818Z</time>
      </trkpt>
      <trkpt lat="45.8087" lon="5.79125">
        <ele>234</ele>
        <time>2021-09-12T08:54:49.817Z</time>
      </trkpt>
      <trkpt lat="45.8087" lon="5.79125">
        <ele>235</ele>
        <time>2021-09-12T08:54:50.818Z</time>
      </trkpt>
      <trkpt lat="45.8087" lon="5.79124">
        <ele>235</ele>
        <time>2021-09-12T08:54:51.818Z</time>
      </trkpt>
      <trkpt lat="45.80871" lon="5.79124">
        <ele>235</ele>
        <time>2021-09-12T08:54:52.817Z</time>
      </trkpt>
      <trkpt lat="45.80872" lon="5.79123">
        <ele>235</ele>
        <time>2021-09-12T08:54:53.817Z</time>
      </trkpt>
      <trkpt lat="45.80873" lon="5.79123">
        <ele>235</ele>
        <time>2021-09-12T08:54:54.818Z</time>
      </trkpt>
      <trkpt lat="45.80875" lon="5.79123">
        <ele>234</ele>
        <time>2021-09-12T08:54:55.817Z</time>
      </trkpt>
      <trkpt lat="45.80876" lon="5.79125">
        <ele>234</ele>
        <time>2021-09-12T08:54:56.818Z</time>
      </trkpt>
      <trkpt lat="45.80877" lon="5.79128">
        <ele>234</ele>
        <time>2021-09-12T08:54:57.818Z</time>
      </trkpt>
      <trkpt lat="45.80877" lon="5.79131">
        <ele>234</ele>
        <time>2021-09-12T08:54:58.817Z</time>
      </trkpt>
      <trkpt lat="45.80878" lon="5.79134">
        <ele>234</ele>
        <time>2021-09-12T08:54:59.818Z</time>
      </trkpt>
      <trkpt lat="45.80878" lon="5.79138">
        <ele>234</ele>
        <time>2021-09-12T08:55:00.817Z</time>
      </trkpt>
      <trkpt lat="45.80878" lon="5.79142">
        <ele>233</ele>
        <time>2021-09-12T08:55:01.818Z</time>
      </trkpt>
      <trkpt lat="45.80879" lon="5.79147">
        <ele>233</ele>
        <time>2021-09-12T08:55:02.817Z</time>
      </trkpt>
      <trkpt lat="45.80879" lon="5.79152">
        <ele>233</ele>
        <time>2021-09-12T08:55:03.818Z</time>
      </trkpt>
      <trkpt lat="45.8088" lon="5.79157">
        <ele>233</ele>
        <time>2021-09-12T08:55:04.817Z</time>
      </trkpt>
      <trkpt lat="45.80881" lon="5.79162">
        <ele>233</ele>
        <time>2021-09-12T08:55:05.817Z</time>
      </trkpt>
      <trkpt lat="45.80882" lon="5.79166">
        <ele>233</ele>
        <time>2021-09-12T08:55:06.818Z</time>
      </trkpt>
      <trkpt lat="45.80883" lon="5.7917">
        <ele>233</ele>
        <time>2021-09-12T08:55:07.818Z</time>
      </trkpt>
      <trkpt lat="45.80884" lon="5.79175">
        <ele>234</ele>
        <time>2021-09-12T08:55:08.817Z</time>
      </trkpt>
      <trkpt lat="45.80885" lon="5.7918">
        <ele>234</ele>
        <time>2021-09-12T08:55:09.817Z</time>
      </trkpt>
      <trkpt lat="45.80886" lon="5.79185">
        <ele>234</ele>
        <time>2021-09-12T08:55:10.818Z</time>
      </trkpt>
      <trkpt lat="45.80887" lon="5.7919">
        <ele>233</ele>
        <time>2021-09-12T08:55:11.818Z</time>
      </trkpt>
      <trkpt lat="45.80888" lon="5.79195">
        <ele>233</ele>
        <time>2021-09-12T08:55:12.817Z</time>
      </trkpt>
      <trkpt lat="45.80889" lon="5.79199">
        <ele>233</ele>
        <time>2021-09-12T08:55:13.818Z</time>
      </trkpt>
      <trkpt lat="45.8089" lon="5.79204">
        <ele>232</ele>
        <time>2021-09-12T08:55:14.818Z</time>
      </trkpt>
      <trkpt lat="45.80892" lon="5.79208">
        <ele>232</ele>
        <time>2021-09-12T08:55:15.818Z</time>
      </trkpt>
      <trkpt lat="45.80893" lon="5.79213">
        <ele>232</ele>
        <time>2021-09-12T08:55:16.817Z</time>
      </trkpt>
      <trkpt lat="45.80894" lon="5.79217">
        <ele>231</ele>
        <time>2021-09-12T08:55:17.818Z</time>
      </trkpt>
      <trkpt lat="45.80895" lon="5.79221">
        <ele>231</ele>
        <time>2021-09-12T08:55:18.818Z</time>
      </trkpt>
      <trkpt lat="45.80896" lon="5.79223">
        <ele>231</ele>
        <time>2021-09-12T08:55:19.818Z</time>
      </trkpt>
      <trkpt lat="45.80897" lon="5.79225">
        <ele>231</ele>
        <time>2021-09-12T08:55:20.818Z</time>
      </trkpt>
      <trkpt lat="45.80898" lon="5.79227">
        <ele>231</ele>
        <time>2021-09-12T08:55:21.818Z</time>
      </trkpt>
      <trkpt lat="45.80899" lon="5.79231">
        <ele>231</ele>
        <time>2021-09-12T08:55:22.818Z</time>
      </trkpt>
      <trkpt lat="45.809" lon="5.79235">
        <ele>231</ele>
        <time>2021-09-12T08:55:23.818Z</time>
      </trkpt>
      <trkpt lat="45.80901" lon="5.79239">
        <ele>232</ele>
        <time>2021-09-12T08:55:24.818Z</time>
      </trkpt>
      <trkpt lat="45.80902" lon="5.79244">
        <ele>232</ele>
        <time>2021-09-12T08:55:25.818Z</time>
      </trkpt>
      <trkpt lat="45.80903" lon="5.7925">
        <ele>233</ele>
        <time>2021-09-12T08:55:26.818Z</time>
      </trkpt>
      <trkpt lat="45.80905" lon="5.79256">
        <ele>233</ele>
        <time>2021-09-12T08:55:27.817Z</time>
      </trkpt>
      <trkpt lat="45.80906" lon="5.79261">
        <ele>234</ele>
        <time>2021-09-12T08:55:28.818Z</time>
      </trkpt>
      <trkpt lat="45.80907" lon="5.79267">
        <ele>234</ele>
        <time>2021-09-12T08:55:29.818Z</time>
      </trkpt>
      <trkpt lat="45.80908" lon="5.79273">
        <ele>235</ele>
        <time>2021-09-12T08:55:30.817Z</time>
      </trkpt>
      <trkpt lat="45.80908" lon="5.79279">
        <ele>235</ele>
        <time>2021-09-12T08:55:31.817Z</time>
      </trkpt>
      <trkpt lat="45.80909" lon="5.79285">
        <ele>235</ele>
        <time>2021-09-12T08:55:32.817Z</time>
      </trkpt>
      <trkpt lat="45.80909" lon="5.7929">
        <ele>235</ele>
        <time>2021-09-12T08:55:33.818Z</time>
      </trkpt>
      <trkpt lat="45.80909" lon="5.79296">
        <ele>235</ele>
        <time>2021-09-12T08:55:34.817Z</time>
      </trkpt>
      <trkpt lat="45.80909" lon="5.79301">
        <ele>235</ele>
        <time>2021-09-12T08:55:35.818Z</time>
      </trkpt>
      <trkpt lat="45.80909" lon="5.79305">
        <ele>235</ele>
        <time>2021-09-12T08:55:36.818Z</time>
      </trkpt>
      <trkpt lat="45.80909" lon="5.79309">
        <ele>235</ele>
        <time>2021-09-12T08:55:37.817Z</time>
      </trkpt>
      <trkpt lat="45.80909" lon="5.79314">
        <ele>235</ele>
        <time>2021-09-12T08:55:38.818Z</time>
      </trkpt>
      <trkpt lat="45.80909" lon="5.79318">
        <ele>235</ele>
        <time>2021-09-12T08:55:39.818Z</time>
      </trkpt>
      <trkpt lat="45.80909" lon="5.79323">
        <ele>235</ele>
        <time>2021-09-12T08:55:40.818Z</time>
      </trkpt>
      <trkpt lat="45.80908" lon="5.79327">
        <ele>235</ele>
        <time>2021-09-12T08:55:41.818Z</time>
      </trkpt>
      <trkpt lat="45.80908" lon="5.79332">
        <ele>235</ele>
        <time>2021-09-12T08:55:42.818Z</time>
      </trkpt>
      <trkpt lat="45.80907" lon="5.79337">
        <ele>235</ele>
        <time>2021-09-12T08:55:43.818Z</time>
      </trkpt>
      <trkpt lat="45.80906" lon="5.79342">
        <ele>234</ele>
        <time>2021-09-12T08:55:44.818Z</time>
      </trkpt>
      <trkpt lat="45.80905" lon="5.79346">
        <ele>234</ele>
        <time>2021-09-12T08:55:45.818Z</time>
      </trkpt>
      <trkpt lat="45.80905" lon="5.7935">
        <ele>234</ele>
        <time>2021-09-12T08:55:46.818Z</time>
      </trkpt>
      <trkpt lat="45.80904" lon="5.79355">
        <ele>234</ele>
        <time>2021-09-12T08:55:47.818Z</time>
      </trkpt>
      <trkpt lat="45.80904" lon="5.79359">
        <ele>234</ele>
        <time>2021-09-12T08:55:48.818Z</time>
      </trkpt>
      <trkpt lat="45.80903" lon="5.79364">
        <ele>235</ele>
        <time>2021-09-12T08:55:49.817Z</time>
      </trkpt>
      <trkpt lat="45.80903" lon="5.79368">
        <ele>235</ele>
        <time>2021-09-12T08:55:50.818Z</time>
      </trkpt>
      <trkpt lat="45.80903" lon="5.79372">
        <ele>234</ele>
        <time>2021-09-12T08:55:51.818Z</time>
      </trkpt>
      <trkpt lat="45.80903" lon="5.79375">
        <ele>234</ele>
        <time>2021-09-12T08:55:52.818Z</time>
      </trkpt>
      <trkpt lat="45.80902" lon="5.79379">
        <ele>234</ele>
        <time>2021-09-12T08:55:53.818Z</time>
      </trkpt>
      <trkpt lat="45.80902" lon="5.79384">
        <ele>234</ele>
        <time>2021-09-12T08:55:54.817Z</time>
      </trkpt>
      <trkpt lat="45.80902" lon="5.79387">
        <ele>234</ele>
        <time>2021-09-12T08:55:55.817Z</time>
      </trkpt>
      <trkpt lat="45.80902" lon="5.79391">
        <ele>234</ele>
        <time>2021-09-12T08:55:56.818Z</time>
      </trkpt>
      <trkpt lat="45.80903" lon="5.79394">
        <ele>234</ele>
        <time>2021-09-12T08:55:57.818Z</time>
      </trkpt>
      <trkpt lat="45.80904" lon="5.79397">
        <ele>234</ele>
        <time>2021-09-12T08:55:58.817Z</time>
      </trkpt>
      <trkpt lat="45.80905" lon="5.794">
        <ele>235</ele>
        <time>2021-09-12T08:55:59.817Z</time>
      </trkpt>
      <trkpt lat="45.80907" lon="5.79403">
        <ele>235</ele>
        <time>2021-09-12T08:56:00.817Z</time>
      </trkpt>
      <trkpt lat="45.80908" lon="5.79405">
        <ele>235</ele>
        <time>2021-09-12T08:56:01.817Z</time>
      </trkpt>
      <trkpt lat="45.8091" lon="5.79407">
        <ele>235</ele>
        <time>2021-09-12T08:56:02.818Z</time>
      </trkpt>
      <trkpt lat="45.80912" lon="5.7941">
        <ele>236</ele>
        <time>2021-09-12T08:56:03.818Z</time>
      </trkpt>
      <trkpt lat="45.80913" lon="5.79412">
        <ele>236</ele>
        <time>2021-09-12T08:56:04.817Z</time>
      </trkpt>
      <trkpt lat="45.80915" lon="5.79415">
        <ele>237</ele>
        <time>2021-09-12T08:56:05.818Z</time>
      </trkpt>
      <trkpt lat="45.80917" lon="5.79417">
        <ele>237</ele>
        <time>2021-09-12T08:56:06.817Z</time>
      </trkpt>
      <trkpt lat="45.80919" lon="5.79419">
        <ele>237</ele>
        <time>2021-09-12T08:56:07.818Z</time>
      </trkpt>
      <trkpt lat="45.80921" lon="5.79421">
        <ele>237</ele>
        <time>2021-09-12T08:56:08.818Z</time>
      </trkpt>
      <trkpt lat="45.80923" lon="5.79423">
        <ele>237</ele>
        <time>2021-09-12T08:56:09.818Z</time>
      </trkpt>
      <trkpt lat="45.80925" lon="5.79425">
        <ele>238</ele>
        <time>2021-09-12T08:56:10.817Z</time>
      </trkpt>
      <trkpt lat="45.80927" lon="5.79428">
        <ele>238</ele>
        <time>2021-09-12T08:56:11.817Z</time>
      </trkpt>
      <trkpt lat="45.8093" lon="5.79431">
        <ele>238</ele>
        <time>2021-09-12T08:56:12.818Z</time>
      </trkpt>
      <trkpt lat="45.80933" lon="5.79433">
        <ele>238</ele>
        <time>2021-09-12T08:56:13.817Z</time>
      </trkpt>
      <trkpt lat="45.80935" lon="5.79437">
        <ele>238</ele>
        <time>2021-09-12T08:56:14.818Z</time>
      </trkpt>
      <trkpt lat="45.80938" lon="5.79439">
        <ele>237</ele>
        <time>2021-09-12T08:56:15.817Z</time>
      </trkpt>
      <trkpt lat="45.80941" lon="5.79441">
        <ele>237</ele>
        <time>2021-09-12T08:56:16.817Z</time>
      </trkpt>
      <trkpt lat="45.80943" lon="5.79443">
        <ele>237</ele>
        <time>2021-09-12T08:56:17.817Z</time>
      </trkpt>
      <trkpt lat="45.80946" lon="5.79445">
        <ele>237</ele>
        <time>2021-09-12T08:56:18.817Z</time>
      </trkpt>
      <trkpt lat="45.80949" lon="5.79447">
        <ele>237</ele>
        <time>2021-09-12T08:56:19.818Z</time>
      </trkpt>
      <trkpt lat="45.80952" lon="5.79448">
        <ele>237</ele>
        <time>2021-09-12T08:56:20.818Z</time>
      </trkpt>
      <trkpt lat="45.80954" lon="5.79451">
        <ele>237</ele>
        <time>2021-09-12T08:56:21.818Z</time>
      </trkpt>
      <trkpt lat="45.80957" lon="5.79452">
        <ele>238</ele>
        <time>2021-09-12T08:56:22.818Z</time>
      </trkpt>
      <trkpt lat="45.8096" lon="5.79454">
        <ele>238</ele>
        <time>2021-09-12T08:56:23.817Z</time>
      </trkpt>
      <trkpt lat="45.80964" lon="5.79455">
        <ele>238</ele>
        <time>2021-09-12T08:56:24.818Z</time>
      </trkpt>
      <trkpt lat="45.80967" lon="5.79457">
        <ele>238</ele>
        <time>2021-09-12T08:56:25.818Z</time>
      </trkpt>
      <trkpt lat="45.8097" lon="5.79458">
        <ele>238</ele>
        <time>2021-09-12T08:56:26.818Z</time>
      </trkpt>
      <trkpt lat="45.80973" lon="5.7946">
        <ele>238</ele>
        <time>2021-09-12T08:56:27.818Z</time>
      </trkpt>
      <trkpt lat="45.80976" lon="5.79461">
        <ele>238</ele>
        <time>2021-09-12T08:56:28.817Z</time>
      </trkpt>
      <trkpt lat="45.80979" lon="5.79463">
        <ele>238</ele>
        <time>2021-09-12T08:56:29.817Z</time>
      </trkpt>
      <trkpt lat="45.80983" lon="5.79464">
        <ele>238</ele>
        <time>2021-09-12T08:56:30.818Z</time>
      </trkpt>
      <trkpt lat="45.80986" lon="5.79465">
        <ele>238</ele>
        <time>2021-09-12T08:56:31.818Z</time>
      </trkpt>
      <trkpt lat="45.80989" lon="5.79466">
        <ele>238</ele>
        <time>2021-09-12T08:56:32.818Z</time>
      </trkpt>
      <trkpt lat="45.80992" lon="5.79467">
        <ele>238</ele>
        <time>2021-09-12T08:56:33.818Z</time>
      </trkpt>
      <trkpt lat="45.80995" lon="5.79469">
        <ele>238</ele>
        <time>2021-09-12T08:56:34.817Z</time>
      </trkpt>
      <trkpt lat="45.80998" lon="5.7947">
        <ele>238</ele>
        <time>2021-09-12T08:56:35.818Z</time>
      </trkpt>
      <trkpt lat="45.81002" lon="5.79471">
        <ele>238</ele>
        <time>2021-09-12T08:56:36.818Z</time>
      </trkpt>
      <trkpt lat="45.81005" lon="5.79472">
        <ele>239</ele>
        <time>2021-09-12T08:56:37.818Z</time>
      </trkpt>
      <trkpt lat="45.81009" lon="5.79474">
        <ele>239</ele>
        <time>2021-09-12T08:56:38.818Z</time>
      </trkpt>
      <trkpt lat="45.81012" lon="5.79475">
        <ele>239</ele>
        <time>2021-09-12T08:56:39.817Z</time>
      </trkpt>
      <trkpt lat="45.81015" lon="5.79477">
        <ele>239</ele>
        <time>2021-09-12T08:56:40.818Z</time>
      </trkpt>
      <trkpt lat="45.81018" lon="5.79479">
        <ele>239</ele>
        <time>2021-09-12T08:56:41.817Z</time>
      </trkpt>
      <trkpt lat="45.81021" lon="5.79482">
        <ele>239</ele>
        <time>2021-09-12T08:56:42.817Z</time>
      </trkpt>
      <trkpt lat="45.81023" lon="5.79486">
        <ele>238</ele>
        <time>2021-09-12T08:56:43.818Z</time>
      </trkpt>
      <trkpt lat="45.81025" lon="5.79489">
        <ele>238</ele>
        <time>2021-09-12T08:56:44.817Z</time>
      </trkpt>
      <trkpt lat="45.81027" lon="5.79493">
        <ele>238</ele>
        <time>2021-09-12T08:56:45.818Z</time>
      </trkpt>
      <trkpt lat="45.81029" lon="5.79497">
        <ele>237</ele>
        <time>2021-09-12T08:56:46.817Z</time>
      </trkpt>
      <trkpt lat="45.81031" lon="5.79501">
        <ele>237</ele>
        <time>2021-09-12T08:56:47.818Z</time>
      </trkpt>
      <trkpt lat="45.81032" lon="5.79505">
        <ele>237</ele>
        <time>2021-09-12T08:56:48.817Z</time>
      </trkpt>
      <trkpt lat="45.81033" lon="5.7951">
        <ele>237</ele>
        <time>2021-09-12T08:56:49.818Z</time>
      </trkpt>
      <trkpt lat="45.81034" lon="5.79516">
        <ele>237</ele>
        <time>2021-09-12T08:56:50.817Z</time>
      </trkpt>
      <trkpt lat="45.81034" lon="5.79522">
        <ele>237</ele>
        <time>2021-09-12T08:56:51.818Z</time>
      </trkpt>
      <trkpt lat="45.81035" lon="5.79528">
        <ele>237</ele>
        <time>2021-09-12T08:56:52.817Z</time>
      </trkpt>
      <trkpt lat="45.81037" lon="5.79535">
        <ele>237</ele>
        <time>2021-09-12T08:56:53.818Z</time>
      </trkpt>
      <trkpt lat="45.81039" lon="5.79542">
        <ele>237</ele>
        <time>2021-09-12T08:56:54.818Z</time>
      </trkpt>
      <trkpt lat="45.81042" lon="5.7955">
        <ele>237</ele>
        <time>2021-09-12T08:56:55.818Z</time>
      </trkpt>
      <trkpt lat="45.81045" lon="5.79558">
        <ele>237</ele>
        <time>2021-09-12T08:56:56.817Z</time>
      </trkpt>
      <trkpt lat="45.81048" lon="5.79567">
        <ele>237</ele>
        <time>2021-09-12T08:56:57.817Z</time>
      </trkpt>
      <trkpt lat="45.81052" lon="5.79576">
        <ele>236</ele>
        <time>2021-09-12T08:56:58.817Z</time>
      </trkpt>
      <trkpt lat="45.81056" lon="5.79586">
        <ele>236</ele>
        <time>2021-09-12T08:56:59.817Z</time>
      </trkpt>
      <trkpt lat="45.81061" lon="5.79595">
        <ele>235</ele>
        <time>2021-09-12T08:57:00.817Z</time>
      </trkpt>
      <trkpt lat="45.81067" lon="5.79604">
        <ele>235</ele>
        <time>2021-09-12T08:57:01.817Z</time>
      </trkpt>
      <trkpt lat="45.81073" lon="5.79613">
        <ele>234</ele>
        <time>2021-09-12T08:57:02.817Z</time>
      </trkpt>
      <trkpt lat="45.81079" lon="5.79622">
        <ele>234</ele>
        <time>2021-09-12T08:57:03.818Z</time>
      </trkpt>
      <trkpt lat="45.81085" lon="5.7963">
        <ele>233</ele>
        <time>2021-09-12T08:57:04.817Z</time>
      </trkpt>
      <trkpt lat="45.81091" lon="5.79638">
        <ele>233</ele>
        <time>2021-09-12T08:57:05.817Z</time>
      </trkpt>
      <trkpt lat="45.81097" lon="5.79645">
        <ele>233</ele>
        <time>2021-09-12T08:57:06.817Z</time>
      </trkpt>
      <trkpt lat="45.81103" lon="5.79652">
        <ele>233</ele>
        <time>2021-09-12T08:57:07.818Z</time>
      </trkpt>
      <trkpt lat="45.81108" lon="5.79659">
        <ele>232</ele>
        <time>2021-09-12T08:57:08.818Z</time>
      </trkpt>
      <trkpt lat="45.81114" lon="5.79666">
        <ele>233</ele>
        <time>2021-09-12T08:57:09.817Z</time>
      </trkpt>
      <trkpt lat="45.8112" lon="5.79673">
        <ele>233</ele>
        <time>2021-09-12T08:57:10.817Z</time>
      </trkpt>
      <trkpt lat="45.81126" lon="5.79679">
        <ele>233</ele>
        <time>2021-09-12T08:57:11.817Z</time>
      </trkpt>
      <trkpt lat="45.81131" lon="5.79685">
        <ele>233</ele>
        <time>2021-09-12T08:57:12.817Z</time>
      </trkpt>
      <trkpt lat="45.81136" lon="5.79691">
        <ele>233</ele>
        <time>2021-09-12T08:57:13.818Z</time>
      </trkpt>
      <trkpt lat="45.81141" lon="5.79697">
        <ele>233</ele>
        <time>2021-09-12T08:57:14.817Z</time>
      </trkpt>
      <trkpt lat="45.81146" lon="5.79702">
        <ele>233</ele>
        <time>2021-09-12T08:57:15.818Z</time>
      </trkpt>
      <trkpt lat="45.81151" lon="5.79708">
        <ele>233</ele>
        <time>2021-09-12T08:57:16.817Z</time>
      </trkpt>
      <trkpt lat="45.81156" lon="5.79714">
        <ele>233</ele>
        <time>2021-09-12T08:57:17.818Z</time>
      </trkpt>
      <trkpt lat="45.81161" lon="5.79719">
        <ele>233</ele>
        <time>2021-09-12T08:57:18.818Z</time>
      </trkpt>
      <trkpt lat="45.81165" lon="5.79725">
        <ele>232</ele>
        <time>2021-09-12T08:57:19.818Z</time>
      </trkpt>
      <trkpt lat="45.8117" lon="5.7973">
        <ele>232</ele>
        <time>2021-09-12T08:57:20.818Z</time>
      </trkpt>
      <trkpt lat="45.81175" lon="5.79736">
        <ele>232</ele>
        <time>2021-09-12T08:57:21.818Z</time>
      </trkpt>
      <trkpt lat="45.8118" lon="5.79742">
        <ele>231</ele>
        <time>2021-09-12T08:57:22.818Z</time>
      </trkpt>
      <trkpt lat="45.81184" lon="5.79747">
        <ele>231</ele>
        <time>2021-09-12T08:57:23.817Z</time>
      </trkpt>
      <trkpt lat="45.81189" lon="5.79753">
        <ele>231</ele>
        <time>2021-09-12T08:57:24.817Z</time>
      </trkpt>
      <trkpt lat="45.81193" lon="5.79759">
        <ele>231</ele>
        <time>2021-09-12T08:57:25.818Z</time>
      </trkpt>
      <trkpt lat="45.81198" lon="5.79765">
        <ele>231</ele>
        <time>2021-09-12T08:57:26.817Z</time>
      </trkpt>
      <trkpt lat="45.81203" lon="5.79771">
        <ele>231</ele>
        <time>2021-09-12T08:57:27.818Z</time>
      </trkpt>
      <trkpt lat="45.81207" lon="5.79776">
        <ele>231</ele>
        <time>2021-09-12T08:57:28.818Z</time>
      </trkpt>
      <trkpt lat="45.81212" lon="5.79781">
        <ele>232</ele>
        <time>2021-09-12T08:57:29.818Z</time>
      </trkpt>
      <trkpt lat="45.81217" lon="5.79787">
        <ele>232</ele>
        <time>2021-09-12T08:57:30.817Z</time>
      </trkpt>
      <trkpt lat="45.81222" lon="5.79792">
        <ele>232</ele>
        <time>2021-09-12T08:57:31.818Z</time>
      </trkpt>
      <trkpt lat="45.81226" lon="5.79798">
        <ele>232</ele>
        <time>2021-09-12T08:57:32.817Z</time>
      </trkpt>
      <trkpt lat="45.8123" lon="5.79803">
        <ele>232</ele>
        <time>2021-09-12T08:57:33.818Z</time>
      </trkpt>
      <trkpt lat="45.81235" lon="5.79807">
        <ele>232</ele>
        <time>2021-09-12T08:57:34.818Z</time>
      </trkpt>
      <trkpt lat="45.81239" lon="5.79811">
        <ele>232</ele>
        <time>2021-09-12T08:57:35.817Z</time>
      </trkpt>
      <trkpt lat="45.81243" lon="5.79816">
        <ele>231</ele>
        <time>2021-09-12T08:57:36.818Z</time>
      </trkpt>
      <trkpt lat="45.81247" lon="5.7982">
        <ele>231</ele>
        <time>2021-09-12T08:57:37.817Z</time>
      </trkpt>
      <trkpt lat="45.81252" lon="5.79824">
        <ele>231</ele>
        <time>2021-09-12T08:57:38.818Z</time>
      </trkpt>
      <trkpt lat="45.81256" lon="5.79828">
        <ele>231</ele>
        <time>2021-09-12T08:57:39.818Z</time>
      </trkpt>
      <trkpt lat="45.8126" lon="5.79832">
        <ele>232</ele>
        <time>2021-09-12T08:57:40.818Z</time>
      </trkpt>
      <trkpt lat="45.81265" lon="5.79836">
        <ele>232</ele>
        <time>2021-09-12T08:57:41.817Z</time>
      </trkpt>
      <trkpt lat="45.81269" lon="5.7984">
        <ele>232</ele>
        <time>2021-09-12T08:57:42.818Z</time>
      </trkpt>
      <trkpt lat="45.81274" lon="5.79845">
        <ele>232</ele>
        <time>2021-09-12T08:57:43.818Z</time>
      </trkpt>
      <trkpt lat="45.81279" lon="5.79849">
        <ele>232</ele>
        <time>2021-09-12T08:57:44.817Z</time>
      </trkpt>
      <trkpt lat="45.81283" lon="5.79854">
        <ele>231</ele>
        <time>2021-09-12T08:57:45.818Z</time>
      </trkpt>
      <trkpt lat="45.81287" lon="5.79858">
        <ele>231</ele>
        <time>2021-09-12T08:57:46.817Z</time>
      </trkpt>
      <trkpt lat="45.81292" lon="5.79863">
        <ele>231</ele>
        <time>2021-09-12T08:57:47.818Z</time>
      </trkpt>
      <trkpt lat="45.81296" lon="5.79868">
        <ele>232</ele>
        <time>2021-09-12T08:57:48.818Z</time>
      </trkpt>
      <trkpt lat="45.81301" lon="5.79873">
        <ele>232</ele>
        <time>2021-09-12T08:57:49.817Z</time>
      </trkpt>
      <trkpt lat="45.81305" lon="5.79877">
        <ele>232</ele>
        <time>2021-09-12T08:57:50.818Z</time>
      </trkpt>
      <trkpt lat="45.81309" lon="5.79882">
        <ele>232</ele>
        <time>2021-09-12T08:57:51.817Z</time>
      </trkpt>
      <trkpt lat="45.81313" lon="5.79887">
        <ele>232</ele>
        <time>2021-09-12T08:57:52.817Z</time>
      </trkpt>
      <trkpt lat="45.81317" lon="5.79892">
        <ele>232</ele>
        <time>2021-09-12T08:57:53.817Z</time>
      </trkpt>
      <trkpt lat="45.81319" lon="5.79896">
        <ele>232</ele>
        <time>2021-09-12T08:57:54.817Z</time>
      </trkpt>
      <trkpt lat="45.81323" lon="5.79902">
        <ele>232</ele>
        <time>2021-09-12T08:57:55.817Z</time>
      </trkpt>
      <trkpt lat="45.81327" lon="5.79909">
        <ele>232</ele>
        <time>2021-09-12T08:57:56.817Z</time>
      </trkpt>
      <trkpt lat="45.8133" lon="5.79914">
        <ele>232</ele>
        <time>2021-09-12T08:57:57.818Z</time>
      </trkpt>
      <trkpt lat="45.81333" lon="5.79921">
        <ele>232</ele>
        <time>2021-09-12T08:57:58.817Z</time>
      </trkpt>
      <trkpt lat="45.81335" lon="5.79926">
        <ele>232</ele>
        <time>2021-09-12T08:57:59.817Z</time>
      </trkpt>
      <trkpt lat="45.81338" lon="5.79934">
        <ele>233</ele>
        <time>2021-09-12T08:58:00.817Z</time>
      </trkpt>
      <trkpt lat="45.8134" lon="5.7994">
        <ele>233</ele>
        <time>2021-09-12T08:58:01.817Z</time>
      </trkpt>
      <trkpt lat="45.81343" lon="5.79947">
        <ele>233</ele>
        <time>2021-09-12T08:58:02.818Z</time>
      </trkpt>
      <trkpt lat="45.81344" lon="5.79953">
        <ele>233</ele>
        <time>2021-09-12T08:58:03.817Z</time>
      </trkpt>
      <trkpt lat="45.81346" lon="5.7996">
        <ele>233</ele>
        <time>2021-09-12T08:58:04.818Z</time>
      </trkpt>
      <trkpt lat="45.81348" lon="5.79968">
        <ele>233</ele>
        <time>2021-09-12T08:58:05.818Z</time>
      </trkpt>
      <trkpt lat="45.8135" lon="5.79975">
        <ele>233</ele>
        <time>2021-09-12T08:58:06.817Z</time>
      </trkpt>
      <trkpt lat="45.81351" lon="5.79982">
        <ele>233</ele>
        <time>2021-09-12T08:58:07.818Z</time>
      </trkpt>
      <trkpt lat="45.81352" lon="5.79988">
        <ele>232</ele>
        <time>2021-09-12T08:58:08.818Z</time>
      </trkpt>
      <trkpt lat="45.81353" lon="5.79995">
        <ele>232</ele>
        <time>2021-09-12T08:58:09.817Z</time>
      </trkpt>
      <trkpt lat="45.81354" lon="5.80003">
        <ele>232</ele>
        <time>2021-09-12T08:58:10.818Z</time>
      </trkpt>
      <trkpt lat="45.81355" lon="5.8001">
        <ele>232</ele>
        <time>2021-09-12T08:58:11.817Z</time>
      </trkpt>
      <trkpt lat="45.81355" lon="5.80017">
        <ele>233</ele>
        <time>2021-09-12T08:58:12.818Z</time>
      </trkpt>
      <trkpt lat="45.81356" lon="5.80022">
        <ele>232</ele>
        <time>2021-09-12T08:58:13.818Z</time>
      </trkpt>
      <trkpt lat="45.81357" lon="5.80029">
        <ele>232</ele>
        <time>2021-09-12T08:58:14.817Z</time>
      </trkpt>
      <trkpt lat="45.81358" lon="5.80038">
        <ele>232</ele>
        <time>2021-09-12T08:58:15.817Z</time>
      </trkpt>
      <trkpt lat="45.81359" lon="5.80044">
        <ele>232</ele>
        <time>2021-09-12T08:58:16.817Z</time>
      </trkpt>
      <trkpt lat="45.81361" lon="5.80051">
        <ele>232</ele>
        <time>2021-09-12T08:58:17.817Z</time>
      </trkpt>
      <trkpt lat="45.81362" lon="5.80056">
        <ele>232</ele>
        <time>2021-09-12T08:58:18.818Z</time>
      </trkpt>
      <trkpt lat="45.81365" lon="5.80063">
        <ele>232</ele>
        <time>2021-09-12T08:58:19.817Z</time>
      </trkpt>
      <trkpt lat="45.81367" lon="5.8007">
        <ele>232</ele>
        <time>2021-09-12T08:58:20.817Z</time>
      </trkpt>
      <trkpt lat="45.8137" lon="5.80077">
        <ele>232</ele>
        <time>2021-09-12T08:58:21.817Z</time>
      </trkpt>
      <trkpt lat="45.81372" lon="5.80083">
        <ele>232</ele>
        <time>2021-09-12T08:58:22.818Z</time>
      </trkpt>
      <trkpt lat="45.81374" lon="5.80088">
        <ele>232</ele>
        <time>2021-09-12T08:58:23.818Z</time>
      </trkpt>
      <trkpt lat="45.81376" lon="5.80095">
        <ele>232</ele>
        <time>2021-09-12T08:58:24.818Z</time>
      </trkpt>
      <trkpt lat="45.8138" lon="5.80102">
        <ele>232</ele>
        <time>2021-09-12T08:58:25.818Z</time>
      </trkpt>
      <trkpt lat="45.81382" lon="5.80108">
        <ele>232</ele>
        <time>2021-09-12T08:58:26.818Z</time>
      </trkpt>
      <trkpt lat="45.81385" lon="5.80114">
        <ele>232</ele>
        <time>2021-09-12T08:58:27.818Z</time>
      </trkpt>
      <trkpt lat="45.81387" lon="5.80119">
        <ele>232</ele>
        <time>2021-09-12T08:58:28.818Z</time>
      </trkpt>
      <trkpt lat="45.81389" lon="5.80125">
        <ele>232</ele>
        <time>2021-09-12T08:58:29.817Z</time>
      </trkpt>
      <trkpt lat="45.81392" lon="5.80133">
        <ele>233</ele>
        <time>2021-09-12T08:58:30.818Z</time>
      </trkpt>
      <trkpt lat="45.81393" lon="5.8014">
        <ele>232</ele>
        <time>2021-09-12T08:58:31.817Z</time>
      </trkpt>
      <trkpt lat="45.81395" lon="5.80146">
        <ele>232</ele>
        <time>2021-09-12T08:58:32.818Z</time>
      </trkpt>
      <trkpt lat="45.81396" lon="5.80152">
        <ele>232</ele>
        <time>2021-09-12T08:58:33.818Z</time>
      </trkpt>
      <trkpt lat="45.81397" lon="5.80159">
        <ele>232</ele>
        <time>2021-09-12T08:58:34.818Z</time>
      </trkpt>
      <trkpt lat="45.81399" lon="5.80167">
        <ele>232</ele>
        <time>2021-09-12T08:58:35.817Z</time>
      </trkpt>
      <trkpt lat="45.814" lon="5.80174">
        <ele>232</ele>
        <time>2021-09-12T08:58:36.817Z</time>
      </trkpt>
      <trkpt lat="45.814" lon="5.80181">
        <ele>232</ele>
        <time>2021-09-12T08:58:37.818Z</time>
      </trkpt>
      <trkpt lat="45.81401" lon="5.80186">
        <ele>232</ele>
        <time>2021-09-12T08:58:38.818Z</time>
      </trkpt>
      <trkpt lat="45.81402" lon="5.80194">
        <ele>232</ele>
        <time>2021-09-12T08:58:39.817Z</time>
      </trkpt>
      <trkpt lat="45.81402" lon="5.80199">
        <ele>231</ele>
        <time>2021-09-12T08:58:40.817Z</time>
      </trkpt>
      <trkpt lat="45.81404" lon="5.80207">
        <ele>231</ele>
        <time>2021-09-12T08:58:41.818Z</time>
      </trkpt>
      <trkpt lat="45.81404" lon="5.80213">
        <ele>231</ele>
        <time>2021-09-12T08:58:42.817Z</time>
      </trkpt>
      <trkpt lat="45.81404" lon="5.80219">
        <ele>232</ele>
        <time>2021-09-12T08:58:43.817Z</time>
      </trkpt>
      <trkpt lat="45.81405" lon="5.80226">
        <ele>232</ele>
        <time>2021-09-12T08:58:44.817Z</time>
      </trkpt>
      <trkpt lat="45.81405" lon="5.80234">
        <ele>232</ele>
        <time>2021-09-12T08:58:45.817Z</time>
      </trkpt>
      <trkpt lat="45.81405" lon="5.80241">
        <ele>232</ele>
        <time>2021-09-12T08:58:46.817Z</time>
      </trkpt>
      <trkpt lat="45.81405" lon="5.80247">
        <ele>232</ele>
        <time>2021-09-12T08:58:47.818Z</time>
      </trkpt>
      <trkpt lat="45.81405" lon="5.80255">
        <ele>232</ele>
        <time>2021-09-12T08:58:48.817Z</time>
      </trkpt>
      <trkpt lat="45.81405" lon="5.80263">
        <ele>232</ele>
        <time>2021-09-12T08:58:49.817Z</time>
      </trkpt>
      <trkpt lat="45.81405" lon="5.8027">
        <ele>232</ele>
        <time>2021-09-12T08:58:50.817Z</time>
      </trkpt>
      <trkpt lat="45.81404" lon="5.80277">
        <ele>232</ele>
        <time>2021-09-12T08:58:51.818Z</time>
      </trkpt>
      <trkpt lat="45.81404" lon="5.80283">
        <ele>232</ele>
        <time>2021-09-12T08:58:52.818Z</time>
      </trkpt>
      <trkpt lat="45.81404" lon="5.80289">
        <ele>231</ele>
        <time>2021-09-12T08:58:53.817Z</time>
      </trkpt>
      <trkpt lat="45.81403" lon="5.80297">
        <ele>231</ele>
        <time>2021-09-12T08:58:54.818Z</time>
      </trkpt>
      <trkpt lat="45.81402" lon="5.80304">
        <ele>231</ele>
        <time>2021-09-12T08:58:55.818Z</time>
      </trkpt>
      <trkpt lat="45.81401" lon="5.80311">
        <ele>230</ele>
        <time>2021-09-12T08:58:56.817Z</time>
      </trkpt>
      <trkpt lat="45.81401" lon="5.80316">
        <ele>230</ele>
        <time>2021-09-12T08:58:57.817Z</time>
      </trkpt>
      <trkpt lat="45.814" lon="5.80323">
        <ele>231</ele>
        <time>2021-09-12T08:58:58.818Z</time>
      </trkpt>
      <trkpt lat="45.81399" lon="5.80331">
        <ele>231</ele>
        <time>2021-09-12T08:58:59.817Z</time>
      </trkpt>
      <trkpt lat="45.81398" lon="5.80337">
        <ele>231</ele>
        <time>2021-09-12T08:59:00.817Z</time>
      </trkpt>
      <trkpt lat="45.81397" lon="5.80343">
        <ele>231</ele>
        <time>2021-09-12T08:59:01.817Z</time>
      </trkpt>
      <trkpt lat="45.81397" lon="5.80348">
        <ele>231</ele>
        <time>2021-09-12T08:59:02.818Z</time>
      </trkpt>
      <trkpt lat="45.81396" lon="5.80356">
        <ele>231</ele>
        <time>2021-09-12T08:59:03.818Z</time>
      </trkpt>
      <trkpt lat="45.81396" lon="5.80362">
        <ele>231</ele>
        <time>2021-09-12T08:59:04.817Z</time>
      </trkpt>
      <trkpt lat="45.81396" lon="5.80368">
        <ele>232</ele>
        <time>2021-09-12T08:59:05.817Z</time>
      </trkpt>
      <trkpt lat="45.81395" lon="5.80374">
        <ele>232</ele>
        <time>2021-09-12T08:59:06.817Z</time>
      </trkpt>
      <trkpt lat="45.81395" lon="5.8038">
        <ele>232</ele>
        <time>2021-09-12T08:59:07.818Z</time>
      </trkpt>
      <trkpt lat="45.81396" lon="5.80388">
        <ele>232</ele>
        <time>2021-09-12T08:59:08.818Z</time>
      </trkpt>
      <trkpt lat="45.81396" lon="5.80395">
        <ele>232</ele>
        <time>2021-09-12T08:59:09.818Z</time>
      </trkpt>
      <trkpt lat="45.81396" lon="5.80402">
        <ele>232</ele>
        <time>2021-09-12T08:59:10.817Z</time>
      </trkpt>
      <trkpt lat="45.81396" lon="5.80407">
        <ele>232</ele>
        <time>2021-09-12T08:59:11.818Z</time>
      </trkpt>
      <trkpt lat="45.81397" lon="5.80414">
        <ele>232</ele>
        <time>2021-09-12T08:59:12.818Z</time>
      </trkpt>
      <trkpt lat="45.81397" lon="5.80422">
        <ele>232</ele>
        <time>2021-09-12T08:59:13.817Z</time>
      </trkpt>
      <trkpt lat="45.81397" lon="5.8043">
        <ele>232</ele>
        <time>2021-09-12T08:59:14.817Z</time>
      </trkpt>
      <trkpt lat="45.81397" lon="5.80437">
        <ele>231</ele>
        <time>2021-09-12T08:59:15.817Z</time>
      </trkpt>
      <trkpt lat="45.81397" lon="5.80444">
        <ele>231</ele>
        <time>2021-09-12T08:59:16.817Z</time>
      </trkpt>
      <trkpt lat="45.81397" lon="5.8045">
        <ele>231</ele>
        <time>2021-09-12T08:59:17.818Z</time>
      </trkpt>
      <trkpt lat="45.81398" lon="5.80459">
        <ele>231</ele>
        <time>2021-09-12T08:59:18.818Z</time>
      </trkpt>
      <trkpt lat="45.81398" lon="5.80466">
        <ele>232</ele>
        <time>2021-09-12T08:59:19.817Z</time>
      </trkpt>
      <trkpt lat="45.81398" lon="5.80473">
        <ele>232</ele>
        <time>2021-09-12T08:59:20.817Z</time>
      </trkpt>
      <trkpt lat="45.81398" lon="5.80479">
        <ele>233</ele>
        <time>2021-09-12T08:59:21.817Z</time>
      </trkpt>
      <trkpt lat="45.81399" lon="5.80486">
        <ele>233</ele>
        <time>2021-09-12T08:59:22.818Z</time>
      </trkpt>
      <trkpt lat="45.81399" lon="5.80494">
        <ele>234</ele>
        <time>2021-09-12T08:59:23.817Z</time>
      </trkpt>
      <trkpt lat="45.81401" lon="5.80501">
        <ele>234</ele>
        <time>2021-09-12T08:59:24.818Z</time>
      </trkpt>
      <trkpt lat="45.81402" lon="5.80508">
        <ele>234</ele>
        <time>2021-09-12T08:59:25.818Z</time>
      </trkpt>
      <trkpt lat="45.81404" lon="5.80513">
        <ele>235</ele>
        <time>2021-09-12T08:59:26.817Z</time>
      </trkpt>
      <trkpt lat="45.81407" lon="5.8052">
        <ele>235</ele>
        <time>2021-09-12T08:59:27.818Z</time>
      </trkpt>
      <trkpt lat="45.81409" lon="5.80526">
        <ele>235</ele>
        <time>2021-09-12T08:59:28.818Z</time>
      </trkpt>
      <trkpt lat="45.81412" lon="5.80531">
        <ele>235</ele>
        <time>2021-09-12T08:59:29.817Z</time>
      </trkpt>
      <trkpt lat="45.81415" lon="5.80537">
        <ele>235</ele>
        <time>2021-09-12T08:59:30.818Z</time>
      </trkpt>
      <trkpt lat="45.81418" lon="5.80542">
        <ele>235</ele>
        <time>2021-09-12T08:59:31.817Z</time>
      </trkpt>
      <trkpt lat="45.81421" lon="5.80546">
        <ele>235</ele>
        <time>2021-09-12T08:59:32.818Z</time>
      </trkpt>
      <trkpt lat="45.81425" lon="5.80551">
        <ele>236</ele>
        <time>2021-09-12T08:59:33.817Z</time>
      </trkpt>
      <trkpt lat="45.81428" lon="5.80555">
        <ele>236</ele>
        <time>2021-09-12T08:59:34.817Z</time>
      </trkpt>
      <trkpt lat="45.81432" lon="5.80559">
        <ele>235</ele>
        <time>2021-09-12T08:59:35.817Z</time>
      </trkpt>
      <trkpt lat="45.81436" lon="5.80562">
        <ele>236</ele>
        <time>2021-09-12T08:59:36.817Z</time>
      </trkpt>
      <trkpt lat="45.8144" lon="5.80565">
        <ele>236</ele>
        <time>2021-09-12T08:59:37.818Z</time>
      </trkpt>
      <trkpt lat="45.81445" lon="5.80567">
        <ele>236</ele>
        <time>2021-09-12T08:59:38.818Z</time>
      </trkpt>
      <trkpt lat="45.8145" lon="5.80569">
        <ele>237</ele>
        <time>2021-09-12T08:59:39.817Z</time>
      </trkpt>
      <trkpt lat="45.81455" lon="5.80571">
        <ele>237</ele>
        <time>2021-09-12T08:59:40.817Z</time>
      </trkpt>
      <trkpt lat="45.81461" lon="5.80574">
        <ele>237</ele>
        <time>2021-09-12T08:59:41.817Z</time>
      </trkpt>
      <trkpt lat="45.81466" lon="5.80576">
        <ele>237</ele>
        <time>2021-09-12T08:59:42.817Z</time>
      </trkpt>
      <trkpt lat="45.8147" lon="5.80578">
        <ele>237</ele>
        <time>2021-09-12T08:59:43.817Z</time>
      </trkpt>
      <trkpt lat="45.81476" lon="5.8058">
        <ele>237</ele>
        <time>2021-09-12T08:59:44.818Z</time>
      </trkpt>
      <trkpt lat="45.81481" lon="5.80581">
        <ele>237</ele>
        <time>2021-09-12T08:59:45.817Z</time>
      </trkpt>
      <trkpt lat="45.81486" lon="5.80583">
        <ele>237</ele>
        <time>2021-09-12T08:59:46.818Z</time>
      </trkpt>
      <trkpt lat="45.81489" lon="5.80585">
        <ele>236</ele>
        <time>2021-09-12T08:59:47.817Z</time>
      </trkpt>
      <trkpt lat="45.81493" lon="5.80588">
        <ele>234</ele>
        <time>2021-09-12T08:59:48.817Z</time>
      </trkpt>
      <trkpt lat="45.81497" lon="5.8059">
        <ele>234</ele>
        <time>2021-09-12T08:59:49.818Z</time>
      </trkpt>
      <trkpt lat="45.81502" lon="5.80591">
        <ele>233</ele>
        <time>2021-09-12T08:59:50.817Z</time>
      </trkpt>
      <trkpt lat="45.81507" lon="5.80592">
        <ele>233</ele>
        <time>2021-09-12T08:59:51.817Z</time>
      </trkpt>
      <trkpt lat="45.81512" lon="5.80594">
        <ele>232</ele>
        <time>2021-09-12T08:59:52.817Z</time>
      </trkpt>
      <trkpt lat="45.81516" lon="5.80597">
        <ele>232</ele>
        <time>2021-09-12T08:59:53.818Z</time>
      </trkpt>
      <trkpt lat="45.81521" lon="5.806">
        <ele>232</ele>
        <time>2021-09-12T08:59:54.817Z</time>
      </trkpt>
      <trkpt lat="45.81526" lon="5.80602">
        <ele>232</ele>
        <time>2021-09-12T08:59:55.817Z</time>
      </trkpt>
      <trkpt lat="45.81531" lon="5.80605">
        <ele>232</ele>
        <time>2021-09-12T08:59:56.817Z</time>
      </trkpt>
      <trkpt lat="45.81535" lon="5.80608">
        <ele>232</ele>
        <time>2021-09-12T08:59:57.818Z</time>
      </trkpt>
      <trkpt lat="45.8154" lon="5.80611">
        <ele>231</ele>
        <time>2021-09-12T08:59:58.818Z</time>
      </trkpt>
      <trkpt lat="45.81545" lon="5.80614">
        <ele>231</ele>
        <time>2021-09-12T08:59:59.818Z</time>
      </trkpt>
      <trkpt lat="45.81549" lon="5.80617">
        <ele>231</ele>
        <time>2021-09-12T09:00:00.818Z</time>
      </trkpt>
      <trkpt lat="45.81554" lon="5.8062">
        <ele>231</ele>
        <time>2021-09-12T09:00:01.817Z</time>
      </trkpt>
      <trkpt lat="45.81559" lon="5.80624">
        <ele>231</ele>
        <time>2021-09-12T09:00:02.817Z</time>
      </trkpt>
      <trkpt lat="45.81563" lon="5.80628">
        <ele>231</ele>
        <time>2021-09-12T09:00:03.818Z</time>
      </trkpt>
      <trkpt lat="45.81568" lon="5.80631">
        <ele>231</ele>
        <time>2021-09-12T09:00:04.818Z</time>
      </trkpt>
      <trkpt lat="45.81572" lon="5.80635">
        <ele>231</ele>
        <time>2021-09-12T09:00:05.818Z</time>
      </trkpt>
      <trkpt lat="45.81576" lon="5.8064">
        <ele>231</ele>
        <time>2021-09-12T09:00:06.817Z</time>
      </trkpt>
      <trkpt lat="45.81581" lon="5.80644">
        <ele>231</ele>
        <time>2021-09-12T09:00:07.817Z</time>
      </trkpt>
      <trkpt lat="45.81585" lon="5.80648">
        <ele>231</ele>
        <time>2021-09-12T09:00:08.817Z</time>
      </trkpt>
      <trkpt lat="45.81589" lon="5.80652">
        <ele>231</ele>
        <time>2021-09-12T09:00:09.817Z</time>
      </trkpt>
      <trkpt lat="45.81593" lon="5.80656">
        <ele>231</ele>
        <time>2021-09-12T09:00:10.817Z</time>
      </trkpt>
      <trkpt lat="45.81598" lon="5.8066">
        <ele>231</ele>
        <time>2021-09-12T09:00:11.817Z</time>
      </trkpt>
      <trkpt lat="45.81602" lon="5.80664">
        <ele>231</ele>
        <time>2021-09-12T09:00:12.817Z</time>
      </trkpt>
      <trkpt lat="45.81606" lon="5.80668">
        <ele>231</ele>
        <time>2021-09-12T09:00:13.818Z</time>
      </trkpt>
      <trkpt lat="45.81609" lon="5.80673">
        <ele>231</ele>
        <time>2021-09-12T09:00:14.817Z</time>
      </trkpt>
      <trkpt lat="45.81613" lon="5.80677">
        <ele>231</ele>
        <time>2021-09-12T09:00:15.818Z</time>
      </trkpt>
      <trkpt lat="45.81616" lon="5.80681">
        <ele>231</ele>
        <time>2021-09-12T09:00:16.817Z</time>
      </trkpt>
      <trkpt lat="45.8162" lon="5.80686">
        <ele>231</ele>
        <time>2021-09-12T09:00:17.818Z</time>
      </trkpt>
      <trkpt lat="45.81623" lon="5.80691">
        <ele>231</ele>
        <time>2021-09-12T09:00:18.818Z</time>
      </trkpt>
      <trkpt lat="45.81627" lon="5.80698">
        <ele>230</ele>
        <time>2021-09-12T09:00:19.818Z</time>
      </trkpt>
      <trkpt lat="45.81631" lon="5.80703">
        <ele>231</ele>
        <time>2021-09-12T09:00:20.817Z</time>
      </trkpt>
      <trkpt lat="45.81634" lon="5.80708">
        <ele>231</ele>
        <time>2021-09-12T09:00:21.818Z</time>
      </trkpt>
      <trkpt lat="45.81637" lon="5.80714">
        <ele>231</ele>
        <time>2021-09-12T09:00:22.818Z</time>
      </trkpt>
      <trkpt lat="45.81641" lon="5.8072">
        <ele>231</ele>
        <time>2021-09-12T09:00:23.818Z</time>
      </trkpt>
      <trkpt lat="45.81644" lon="5.80726">
        <ele>231</ele>
        <time>2021-09-12T09:00:24.817Z</time>
      </trkpt>
      <trkpt lat="45.81648" lon="5.80731">
        <ele>231</ele>
        <time>2021-09-12T09:00:25.817Z</time>
      </trkpt>
      <trkpt lat="45.8165" lon="5.80736">
        <ele>231</ele>
        <time>2021-09-12T09:00:26.818Z</time>
      </trkpt>
      <trkpt lat="45.81654" lon="5.80742">
        <ele>231</ele>
        <time>2021-09-12T09:00:27.818Z</time>
      </trkpt>
      <trkpt lat="45.81658" lon="5.80748">
        <ele>231</ele>
        <time>2021-09-12T09:00:28.818Z</time>
      </trkpt>
      <trkpt lat="45.81661" lon="5.80753">
        <ele>231</ele>
        <time>2021-09-12T09:00:29.817Z</time>
      </trkpt>
      <trkpt lat="45.81664" lon="5.80757">
        <ele>232</ele>
        <time>2021-09-12T09:00:30.818Z</time>
      </trkpt>
      <trkpt lat="45.81668" lon="5.80762">
        <ele>232</ele>
        <time>2021-09-12T09:00:31.817Z</time>
      </trkpt>
      <trkpt lat="45.81672" lon="5.80768">
        <ele>232</ele>
        <time>2021-09-12T09:00:32.818Z</time>
      </trkpt>
      <trkpt lat="45.81676" lon="5.80773">
        <ele>233</ele>
        <time>2021-09-12T09:00:33.818Z</time>
      </trkpt>
      <trkpt lat="45.8168" lon="5.80779">
        <ele>233</ele>
        <time>2021-09-12T09:00:34.817Z</time>
      </trkpt>
      <trkpt lat="45.81684" lon="5.80784">
        <ele>233</ele>
        <time>2021-09-12T09:00:35.818Z</time>
      </trkpt>
      <trkpt lat="45.81687" lon="5.80788">
        <ele>233</ele>
        <time>2021-09-12T09:00:36.817Z</time>
      </trkpt>
      <trkpt lat="45.81691" lon="5.80794">
        <ele>233</ele>
        <time>2021-09-12T09:00:37.818Z</time>
      </trkpt>
      <trkpt lat="45.81694" lon="5.80799">
        <ele>233</ele>
        <time>2021-09-12T09:00:38.818Z</time>
      </trkpt>
      <trkpt lat="45.81697" lon="5.80804">
        <ele>232</ele>
        <time>2021-09-12T09:00:39.817Z</time>
      </trkpt>
      <trkpt lat="45.817" lon="5.80809">
        <ele>232</ele>
        <time>2021-09-12T09:00:40.818Z</time>
      </trkpt>
      <trkpt lat="45.81703" lon="5.80815">
        <ele>232</ele>
        <time>2021-09-12T09:00:41.817Z</time>
      </trkpt>
      <trkpt lat="45.81706" lon="5.80821">
        <ele>232</ele>
        <time>2021-09-12T09:00:42.817Z</time>
      </trkpt>
      <trkpt lat="45.81708" lon="5.80827">
        <ele>232</ele>
        <time>2021-09-12T09:00:43.818Z</time>
      </trkpt>
      <trkpt lat="45.8171" lon="5.80831">
        <ele>232</ele>
        <time>2021-09-12T09:00:44.817Z</time>
      </trkpt>
      <trkpt lat="45.81712" lon="5.80839">
        <ele>232</ele>
        <time>2021-09-12T09:00:45.817Z</time>
      </trkpt>
      <trkpt lat="45.81714" lon="5.80845">
        <ele>232</ele>
        <time>2021-09-12T09:00:46.817Z</time>
      </trkpt>
      <trkpt lat="45.81715" lon="5.80852">
        <ele>232</ele>
        <time>2021-09-12T09:00:47.817Z</time>
      </trkpt>
      <trkpt lat="45.81715" lon="5.80858">
        <ele>232</ele>
        <time>2021-09-12T09:00:48.818Z</time>
      </trkpt>
      <trkpt lat="45.81716" lon="5.80864">
        <ele>232</ele>
        <time>2021-09-12T09:00:49.817Z</time>
      </trkpt>
      <trkpt lat="45.81716" lon="5.80872">
        <ele>232</ele>
        <time>2021-09-12T09:00:50.817Z</time>
      </trkpt>
      <trkpt lat="45.81716" lon="5.80877">
        <ele>233</ele>
        <time>2021-09-12T09:00:51.818Z</time>
      </trkpt>
      <trkpt lat="45.81716" lon="5.80885">
        <ele>233</ele>
        <time>2021-09-12T09:00:52.818Z</time>
      </trkpt>
      <trkpt lat="45.81715" lon="5.8089">
        <ele>234</ele>
        <time>2021-09-12T09:00:53.818Z</time>
      </trkpt>
      <trkpt lat="45.81714" lon="5.80898">
        <ele>234</ele>
        <time>2021-09-12T09:00:54.818Z</time>
      </trkpt>
      <trkpt lat="45.81713" lon="5.80903">
        <ele>234</ele>
        <time>2021-09-12T09:00:55.817Z</time>
      </trkpt>
      <trkpt lat="45.81712" lon="5.80911">
        <ele>235</ele>
        <time>2021-09-12T09:00:56.817Z</time>
      </trkpt>
      <trkpt lat="45.8171" lon="5.80917">
        <ele>235</ele>
        <time>2021-09-12T09:00:57.817Z</time>
      </trkpt>
      <trkpt lat="45.81708" lon="5.80923">
        <ele>235</ele>
        <time>2021-09-12T09:00:58.818Z</time>
      </trkpt>
      <trkpt lat="45.81706" lon="5.80928">
        <ele>236</ele>
        <time>2021-09-12T09:00:59.818Z</time>
      </trkpt>
      <trkpt lat="45.81704" lon="5.80935">
        <ele>236</ele>
        <time>2021-09-12T09:01:00.817Z</time>
      </trkpt>
      <trkpt lat="45.81702" lon="5.80941">
        <ele>237</ele>
        <time>2021-09-12T09:01:01.817Z</time>
      </trkpt>
      <trkpt lat="45.817" lon="5.80947">
        <ele>237</ele>
        <time>2021-09-12T09:01:02.817Z</time>
      </trkpt>
      <trkpt lat="45.81698" lon="5.80952">
        <ele>238</ele>
        <time>2021-09-12T09:01:03.818Z</time>
      </trkpt>
      <trkpt lat="45.81696" lon="5.80958">
        <ele>238</ele>
        <time>2021-09-12T09:01:04.817Z</time>
      </trkpt>
      <trkpt lat="45.81693" lon="5.80965">
        <ele>238</ele>
        <time>2021-09-12T09:01:05.817Z</time>
      </trkpt>
      <trkpt lat="45.81691" lon="5.80971">
        <ele>238</ele>
        <time>2021-09-12T09:01:06.817Z</time>
      </trkpt>
      <trkpt lat="45.81688" lon="5.80977">
        <ele>239</ele>
        <time>2021-09-12T09:01:07.817Z</time>
      </trkpt>
      <trkpt lat="45.81685" lon="5.80982">
        <ele>238</ele>
        <time>2021-09-12T09:01:08.818Z</time>
      </trkpt>
      <trkpt lat="45.81681" lon="5.80989">
        <ele>238</ele>
        <time>2021-09-12T09:01:09.817Z</time>
      </trkpt>
      <trkpt lat="45.81677" lon="5.80995">
        <ele>238</ele>
        <time>2021-09-12T09:01:10.817Z</time>
      </trkpt>
      <trkpt lat="45.81674" lon="5.81">
        <ele>238</ele>
        <time>2021-09-12T09:01:11.817Z</time>
      </trkpt>
      <trkpt lat="45.81671" lon="5.81004">
        <ele>238</ele>
        <time>2021-09-12T09:01:12.817Z</time>
      </trkpt>
      <trkpt lat="45.81667" lon="5.81009">
        <ele>237</ele>
        <time>2021-09-12T09:01:13.818Z</time>
      </trkpt>
      <trkpt lat="45.81664" lon="5.81013">
        <ele>237</ele>
        <time>2021-09-12T09:01:14.818Z</time>
      </trkpt>
      <trkpt lat="45.8166" lon="5.81019">
        <ele>237</ele>
        <time>2021-09-12T09:01:15.817Z</time>
      </trkpt>
      <trkpt lat="45.81656" lon="5.81024">
        <ele>236</ele>
        <time>2021-09-12T09:01:16.817Z</time>
      </trkpt>
      <trkpt lat="45.81654" lon="5.81029">
        <ele>236</ele>
        <time>2021-09-12T09:01:17.817Z</time>
      </trkpt>
      <trkpt lat="45.81651" lon="5.81034">
        <ele>236</ele>
        <time>2021-09-12T09:01:18.818Z</time>
      </trkpt>
      <trkpt lat="45.81648" lon="5.81041">
        <ele>235</ele>
        <time>2021-09-12T09:01:19.817Z</time>
      </trkpt>
      <trkpt lat="45.81645" lon="5.81048">
        <ele>235</ele>
        <time>2021-09-12T09:01:20.817Z</time>
      </trkpt>
      <trkpt lat="45.81643" lon="5.81054">
        <ele>235</ele>
        <time>2021-09-12T09:01:21.817Z</time>
      </trkpt>
      <trkpt lat="45.81641" lon="5.81059">
        <ele>235</ele>
        <time>2021-09-12T09:01:22.817Z</time>
      </trkpt>
      <trkpt lat="45.81638" lon="5.81066">
        <ele>235</ele>
        <time>2021-09-12T09:01:23.818Z</time>
      </trkpt>
      <trkpt lat="45.81636" lon="5.81072">
        <ele>234</ele>
        <time>2021-09-12T09:01:24.817Z</time>
      </trkpt>
      <trkpt lat="45.81635" lon="5.81079">
        <ele>234</ele>
        <time>2021-09-12T09:01:25.817Z</time>
      </trkpt>
      <trkpt lat="45.81634" lon="5.81084">
        <ele>234</ele>
        <time>2021-09-12T09:01:26.817Z</time>
      </trkpt>
      <trkpt lat="45.81633" lon="5.81091">
        <ele>234</ele>
        <time>2021-09-12T09:01:27.817Z</time>
      </trkpt>
      <trkpt lat="45.81631" lon="5.81099">
        <ele>235</ele>
        <time>2021-09-12T09:01:28.818Z</time>
      </trkpt>
      <trkpt lat="45.8163" lon="5.81106">
        <ele>235</ele>
        <time>2021-09-12T09:01:29.817Z</time>
      </trkpt>
      <trkpt lat="45.81628" lon="5.81113">
        <ele>235</ele>
        <time>2021-09-12T09:01:30.817Z</time>
      </trkpt>
      <trkpt lat="45.81627" lon="5.81119">
        <ele>234</ele>
        <time>2021-09-12T09:01:31.817Z</time>
      </trkpt>
      <trkpt lat="45.81626" lon="5.81126">
        <ele>234</ele>
        <time>2021-09-12T09:01:32.817Z</time>
      </trkpt>
      <trkpt lat="45.81625" lon="5.81135">
        <ele>233</ele>
        <time>2021-09-12T09:01:33.817Z</time>
      </trkpt>
      <trkpt lat="45.81624" lon="5.81142">
        <ele>233</ele>
        <time>2021-09-12T09:01:34.817Z</time>
      </trkpt>
      <trkpt lat="45.81623" lon="5.81149">
        <ele>233</ele>
        <time>2021-09-12T09:01:35.817Z</time>
      </trkpt>
      <trkpt lat="45.81622" lon="5.81155">
        <ele>233</ele>
        <time>2021-09-12T09:01:36.818Z</time>
      </trkpt>
      <trkpt lat="45.81621" lon="5.81164">
        <ele>233</ele>
        <time>2021-09-12T09:01:37.818Z</time>
      </trkpt>
      <trkpt lat="45.81621" lon="5.81171">
        <ele>234</ele>
        <time>2021-09-12T09:01:38.818Z</time>
      </trkpt>
      <trkpt lat="45.8162" lon="5.81179">
        <ele>234</ele>
        <time>2021-09-12T09:01:39.818Z</time>
      </trkpt>
      <trkpt lat="45.81618" lon="5.81185">
        <ele>234</ele>
        <time>2021-09-12T09:01:40.818Z</time>
      </trkpt>
      <trkpt lat="45.81616" lon="5.81192">
        <ele>233</ele>
        <time>2021-09-12T09:01:41.818Z</time>
      </trkpt>
      <trkpt lat="45.81615" lon="5.812">
        <ele>233</ele>
        <time>2021-09-12T09:01:42.818Z</time>
      </trkpt>
      <trkpt lat="45.81613" lon="5.81207">
        <ele>232</ele>
        <time>2021-09-12T09:01:43.817Z</time>
      </trkpt>
      <trkpt lat="45.81612" lon="5.81214">
        <ele>232</ele>
        <time>2021-09-12T09:01:44.818Z</time>
      </trkpt>
      <trkpt lat="45.81611" lon="5.8122">
        <ele>232</ele>
        <time>2021-09-12T09:01:45.818Z</time>
      </trkpt>
      <trkpt lat="45.81609" lon="5.81227">
        <ele>232</ele>
        <time>2021-09-12T09:01:46.818Z</time>
      </trkpt>
      <trkpt lat="45.81608" lon="5.81235">
        <ele>232</ele>
        <time>2021-09-12T09:01:47.818Z</time>
      </trkpt>
      <trkpt lat="45.81606" lon="5.81242">
        <ele>232</ele>
        <time>2021-09-12T09:01:48.818Z</time>
      </trkpt>
      <trkpt lat="45.81605" lon="5.8125">
        <ele>232</ele>
        <time>2021-09-12T09:01:49.818Z</time>
      </trkpt>
      <trkpt lat="45.81603" lon="5.81257">
        <ele>232</ele>
        <time>2021-09-12T09:01:50.818Z</time>
      </trkpt>
      <trkpt lat="45.81602" lon="5.81264">
        <ele>232</ele>
        <time>2021-09-12T09:01:51.818Z</time>
      </trkpt>
      <trkpt lat="45.816" lon="5.81271">
        <ele>232</ele>
        <time>2021-09-12T09:01:52.817Z</time>
      </trkpt>
      <trkpt lat="45.81597" lon="5.81278">
        <ele>232</ele>
        <time>2021-09-12T09:01:53.818Z</time>
      </trkpt>
      <trkpt lat="45.81595" lon="5.81285">
        <ele>233</ele>
        <time>2021-09-12T09:01:54.817Z</time>
      </trkpt>
      <trkpt lat="45.81592" lon="5.81292">
        <ele>233</ele>
        <time>2021-09-12T09:01:55.818Z</time>
      </trkpt>
      <trkpt lat="45.8159" lon="5.81298">
        <ele>234</ele>
        <time>2021-09-12T09:01:56.818Z</time>
      </trkpt>
      <trkpt lat="45.81587" lon="5.81304">
        <ele>234</ele>
        <time>2021-09-12T09:01:57.817Z</time>
      </trkpt>
      <trkpt lat="45.81584" lon="5.8131">
        <ele>235</ele>
        <time>2021-09-12T09:01:58.818Z</time>
      </trkpt>
      <trkpt lat="45.81581" lon="5.81315">
        <ele>235</ele>
        <time>2021-09-12T09:01:59.818Z</time>
      </trkpt>
      <trkpt lat="45.81577" lon="5.8132">
        <ele>235</ele>
        <time>2021-09-12T09:02:00.817Z</time>
      </trkpt>
      <trkpt lat="45.81574" lon="5.81325">
        <ele>235</ele>
        <time>2021-09-12T09:02:01.818Z</time>
      </trkpt>
      <trkpt lat="45.8157" lon="5.8133">
        <ele>236</ele>
        <time>2021-09-12T09:02:02.818Z</time>
      </trkpt>
      <trkpt lat="45.81566" lon="5.81335">
        <ele>236</ele>
        <time>2021-09-12T09:02:03.817Z</time>
      </trkpt>
      <trkpt lat="45.81563" lon="5.81339">
        <ele>236</ele>
        <time>2021-09-12T09:02:04.818Z</time>
      </trkpt>
      <trkpt lat="45.81559" lon="5.81343">
        <ele>236</ele>
        <time>2021-09-12T09:02:05.818Z</time>
      </trkpt>
      <trkpt lat="45.81554" lon="5.81346">
        <ele>237</ele>
        <time>2021-09-12T09:02:06.817Z</time>
      </trkpt>
      <trkpt lat="45.8155" lon="5.8135">
        <ele>237</ele>
        <time>2021-09-12T09:02:07.818Z</time>
      </trkpt>
      <trkpt lat="45.81546" lon="5.81354">
        <ele>237</ele>
        <time>2021-09-12T09:02:08.818Z</time>
      </trkpt>
      <trkpt lat="45.81541" lon="5.81358">
        <ele>238</ele>
        <time>2021-09-12T09:02:09.817Z</time>
      </trkpt>
      <trkpt lat="45.81537" lon="5.81362">
        <ele>238</ele>
        <time>2021-09-12T09:02:10.818Z</time>
      </trkpt>
      <trkpt lat="45.81533" lon="5.81365">
        <ele>237</ele>
        <time>2021-09-12T09:02:11.818Z</time>
      </trkpt>
      <trkpt lat="45.81529" lon="5.81368">
        <ele>237</ele>
        <time>2021-09-12T09:02:12.818Z</time>
      </trkpt>
      <trkpt lat="45.81523" lon="5.81373">
        <ele>237</ele>
        <time>2021-09-12T09:02:13.818Z</time>
      </trkpt>
      <trkpt lat="45.81518" lon="5.81377">
        <ele>237</ele>
        <time>2021-09-12T09:02:14.817Z</time>
      </trkpt>
      <trkpt lat="45.81513" lon="5.81379">
        <ele>236</ele>
        <time>2021-09-12T09:02:15.818Z</time>
      </trkpt>
      <trkpt lat="45.81508" lon="5.81381">
        <ele>236</ele>
        <time>2021-09-12T09:02:16.818Z</time>
      </trkpt>
      <trkpt lat="45.81503" lon="5.81383">
        <ele>236</ele>
        <time>2021-09-12T09:02:17.817Z</time>
      </trkpt>
      <trkpt lat="45.81498" lon="5.81386">
        <ele>235</ele>
        <time>2021-09-12T09:02:18.817Z</time>
      </trkpt>
      <trkpt lat="45.81493" lon="5.81388">
        <ele>235</ele>
        <time>2021-09-12T09:02:19.818Z</time>
      </trkpt>
      <trkpt lat="45.81488" lon="5.81389">
        <ele>234</ele>
        <time>2021-09-12T09:02:20.818Z</time>
      </trkpt>
      <trkpt lat="45.81483" lon="5.81391">
        <ele>234</ele>
        <time>2021-09-12T09:02:21.817Z</time>
      </trkpt>
      <trkpt lat="45.81479" lon="5.81392">
        <ele>233</ele>
        <time>2021-09-12T09:02:22.818Z</time>
      </trkpt>
      <trkpt lat="45.81473" lon="5.81394">
        <ele>233</ele>
        <time>2021-09-12T09:02:23.817Z</time>
      </trkpt>
      <trkpt lat="45.81468" lon="5.81396">
        <ele>232</ele>
        <time>2021-09-12T09:02:24.818Z</time>
      </trkpt>
      <trkpt lat="45.81463" lon="5.81397">
        <ele>232</ele>
        <time>2021-09-12T09:02:25.817Z</time>
      </trkpt>
      <trkpt lat="45.81458" lon="5.81399">
        <ele>232</ele>
        <time>2021-09-12T09:02:26.818Z</time>
      </trkpt>
      <trkpt lat="45.81453" lon="5.814">
        <ele>232</ele>
        <time>2021-09-12T09:02:27.818Z</time>
      </trkpt>
      <trkpt lat="45.81448" lon="5.81401">
        <ele>231</ele>
        <time>2021-09-12T09:02:28.818Z</time>
      </trkpt>
      <trkpt lat="45.81443" lon="5.81402">
        <ele>231</ele>
        <time>2021-09-12T09:02:29.817Z</time>
      </trkpt>
      <trkpt lat="45.81438" lon="5.81404">
        <ele>231</ele>
        <time>2021-09-12T09:02:30.818Z</time>
      </trkpt>
      <trkpt lat="45.81433" lon="5.81405">
        <ele>230</ele>
        <time>2021-09-12T09:02:31.818Z</time>
      </trkpt>
      <trkpt lat="45.81429" lon="5.81406">
        <ele>230</ele>
        <time>2021-09-12T09:02:32.818Z</time>
      </trkpt>
      <trkpt lat="45.81424" lon="5.81407">
        <ele>230</ele>
        <time>2021-09-12T09:02:33.817Z</time>
      </trkpt>
      <trkpt lat="45.81419" lon="5.81408">
        <ele>229</ele>
        <time>2021-09-12T09:02:34.817Z</time>
      </trkpt>
      <trkpt lat="45.81414" lon="5.81409">
        <ele>229</ele>
        <time>2021-09-12T09:02:35.817Z</time>
      </trkpt>
      <trkpt lat="45.8141" lon="5.81411">
        <ele>229</ele>
        <time>2021-09-12T09:02:36.817Z</time>
      </trkpt>
      <trkpt lat="45.81405" lon="5.81413">
        <ele>228</ele>
        <time>2021-09-12T09:02:37.818Z</time>
      </trkpt>
      <trkpt lat="45.814" lon="5.81414">
        <ele>228</ele>
        <time>2021-09-12T09:02:38.817Z</time>
      </trkpt>
      <trkpt lat="45.81396" lon="5.81417">
        <ele>229</ele>
        <time>2021-09-12T09:02:39.817Z</time>
      </trkpt>
      <trkpt lat="45.81391" lon="5.81419">
        <ele>229</ele>
        <time>2021-09-12T09:02:40.818Z</time>
      </trkpt>
      <trkpt lat="45.81387" lon="5.81421">
        <ele>229</ele>
        <time>2021-09-12T09:02:41.817Z</time>
      </trkpt>
      <trkpt lat="45.81383" lon="5.81424">
        <ele>229</ele>
        <time>2021-09-12T09:02:42.818Z</time>
      </trkpt>
      <trkpt lat="45.81378" lon="5.81426">
        <ele>229</ele>
        <time>2021-09-12T09:02:43.817Z</time>
      </trkpt>
      <trkpt lat="45.81374" lon="5.81429">
        <ele>229</ele>
        <time>2021-09-12T09:02:44.817Z</time>
      </trkpt>
      <trkpt lat="45.8137" lon="5.81432">
        <ele>229</ele>
        <time>2021-09-12T09:02:45.818Z</time>
      </trkpt>
      <trkpt lat="45.81366" lon="5.81434">
        <ele>229</ele>
        <time>2021-09-12T09:02:46.818Z</time>
      </trkpt>
      <trkpt lat="45.81361" lon="5.81436">
        <ele>229</ele>
        <time>2021-09-12T09:02:47.818Z</time>
      </trkpt>
      <trkpt lat="45.81357" lon="5.81437">
        <ele>229</ele>
        <time>2021-09-12T09:02:48.818Z</time>
      </trkpt>
      <trkpt lat="45.81351" lon="5.81439">
        <ele>229</ele>
        <time>2021-09-12T09:02:49.817Z</time>
      </trkpt>
      <trkpt lat="45.81346" lon="5.8144">
        <ele>230</ele>
        <time>2021-09-12T09:02:50.818Z</time>
      </trkpt>
      <trkpt lat="45.81341" lon="5.81441">
        <ele>230</ele>
        <time>2021-09-12T09:02:51.817Z</time>
      </trkpt>
      <trkpt lat="45.81338" lon="5.81441">
        <ele>230</ele>
        <time>2021-09-12T09:02:52.817Z</time>
      </trkpt>
      <trkpt lat="45.81333" lon="5.81442">
        <ele>229</ele>
        <time>2021-09-12T09:02:53.818Z</time>
      </trkpt>
      <trkpt lat="45.81327" lon="5.81442">
        <ele>229</ele>
        <time>2021-09-12T09:02:54.818Z</time>
      </trkpt>
      <trkpt lat="45.81322" lon="5.81443">
        <ele>230</ele>
        <time>2021-09-12T09:02:55.818Z</time>
      </trkpt>
      <trkpt lat="45.81316" lon="5.81443">
        <ele>230</ele>
        <time>2021-09-12T09:02:56.818Z</time>
      </trkpt>
      <trkpt lat="45.81311" lon="5.81443">
        <ele>230</ele>
        <time>2021-09-12T09:02:57.818Z</time>
      </trkpt>
      <trkpt lat="45.81307" lon="5.81444">
        <ele>230</ele>
        <time>2021-09-12T09:02:58.818Z</time>
      </trkpt>
      <trkpt lat="45.81302" lon="5.81444">
        <ele>230</ele>
        <time>2021-09-12T09:02:59.817Z</time>
      </trkpt>
      <trkpt lat="45.81297" lon="5.81445">
        <ele>230</ele>
        <time>2021-09-12T09:03:00.817Z</time>
      </trkpt>
      <trkpt lat="45.81292" lon="5.81446">
        <ele>230</ele>
        <time>2021-09-12T09:03:01.818Z</time>
      </trkpt>
      <trkpt lat="45.81287" lon="5.81447">
        <ele>230</ele>
        <time>2021-09-12T09:03:02.818Z</time>
      </trkpt>
      <trkpt lat="45.81282" lon="5.81447">
        <ele>230</ele>
        <time>2021-09-12T09:03:03.818Z</time>
      </trkpt>
      <trkpt lat="45.81277" lon="5.81448">
        <ele>231</ele>
        <time>2021-09-12T09:03:04.818Z</time>
      </trkpt>
      <trkpt lat="45.81272" lon="5.81449">
        <ele>231</ele>
        <time>2021-09-12T09:03:05.818Z</time>
      </trkpt>
      <trkpt lat="45.81267" lon="5.81449">
        <ele>232</ele>
        <time>2021-09-12T09:03:06.817Z</time>
      </trkpt>
      <trkpt lat="45.81262" lon="5.8145">
        <ele>232</ele>
        <time>2021-09-12T09:03:07.818Z</time>
      </trkpt>
      <trkpt lat="45.81257" lon="5.81451">
        <ele>232</ele>
        <time>2021-09-12T09:03:08.818Z</time>
      </trkpt>
      <trkpt lat="45.81253" lon="5.81452">
        <ele>232</ele>
        <time>2021-09-12T09:03:09.817Z</time>
      </trkpt>
      <trkpt lat="45.81248" lon="5.81452">
        <ele>232</ele>
        <time>2021-09-12T09:03:10.817Z</time>
      </trkpt>
      <trkpt lat="45.81243" lon="5.81453">
        <ele>233</ele>
        <time>2021-09-12T09:03:11.817Z</time>
      </trkpt>
      <trkpt lat="45.81238" lon="5.81454">
        <ele>233</ele>
        <time>2021-09-12T09:03:12.817Z</time>
      </trkpt>
      <trkpt lat="45.81233" lon="5.81455">
        <ele>233</ele>
        <time>2021-09-12T09:03:13.817Z</time>
      </trkpt>
      <trkpt lat="45.81228" lon="5.81456">
        <ele>233</ele>
        <time>2021-09-12T09:03:14.817Z</time>
      </trkpt>
      <trkpt lat="45.81223" lon="5.81456">
        <ele>233</ele>
        <time>2021-09-12T09:03:15.817Z</time>
      </trkpt>
      <trkpt lat="45.81218" lon="5.81456">
        <ele>233</ele>
        <time>2021-09-12T09:03:16.818Z</time>
      </trkpt>
      <trkpt lat="45.81213" lon="5.81455">
        <ele>233</ele>
        <time>2021-09-12T09:03:17.818Z</time>
      </trkpt>
      <trkpt lat="45.81209" lon="5.81453">
        <ele>233</ele>
        <time>2021-09-12T09:03:18.817Z</time>
      </trkpt>
      <trkpt lat="45.81204" lon="5.81452">
        <ele>232</ele>
        <time>2021-09-12T09:03:19.817Z</time>
      </trkpt>
      <trkpt lat="45.81199" lon="5.81451">
        <ele>232</ele>
        <time>2021-09-12T09:03:20.818Z</time>
      </trkpt>
      <trkpt lat="45.81194" lon="5.81449">
        <ele>232</ele>
        <time>2021-09-12T09:03:21.818Z</time>
      </trkpt>
      <trkpt lat="45.8119" lon="5.81447">
        <ele>232</ele>
        <time>2021-09-12T09:03:22.817Z</time>
      </trkpt>
      <trkpt lat="45.81185" lon="5.81445">
        <ele>232</ele>
        <time>2021-09-12T09:03:23.817Z</time>
      </trkpt>
      <trkpt lat="45.81182" lon="5.81443">
        <ele>231</ele>
        <time>2021-09-12T09:03:24.818Z</time>
      </trkpt>
      <trkpt lat="45.81176" lon="5.81441">
        <ele>231</ele>
        <time>2021-09-12T09:03:25.817Z</time>
      </trkpt>
      <trkpt lat="45.81171" lon="5.81441">
        <ele>231</ele>
        <time>2021-09-12T09:03:26.817Z</time>
      </trkpt>
      <trkpt lat="45.81166" lon="5.8144">
        <ele>230</ele>
        <time>2021-09-12T09:03:27.817Z</time>
      </trkpt>
      <trkpt lat="45.81161" lon="5.81439">
        <ele>230</ele>
        <time>2021-09-12T09:03:28.817Z</time>
      </trkpt>
      <trkpt lat="45.81156" lon="5.81439">
        <ele>229</ele>
        <time>2021-09-12T09:03:29.817Z</time>
      </trkpt>
      <trkpt lat="45.8115" lon="5.81439">
        <ele>229</ele>
        <time>2021-09-12T09:03:30.818Z</time>
      </trkpt>
      <trkpt lat="45.81144" lon="5.8144">
        <ele>229</ele>
        <time>2021-09-12T09:03:31.818Z</time>
      </trkpt>
      <trkpt lat="45.81139" lon="5.81441">
        <ele>229</ele>
        <time>2021-09-12T09:03:32.818Z</time>
      </trkpt>
      <trkpt lat="45.81134" lon="5.81441">
        <ele>229</ele>
        <time>2021-09-12T09:03:33.817Z</time>
      </trkpt>
      <trkpt lat="45.81129" lon="5.81442">
        <ele>229</ele>
        <time>2021-09-12T09:03:34.818Z</time>
      </trkpt>
      <trkpt lat="45.81124" lon="5.81442">
        <ele>229</ele>
        <time>2021-09-12T09:03:35.818Z</time>
      </trkpt>
      <trkpt lat="45.81119" lon="5.81443">
        <ele>229</ele>
        <time>2021-09-12T09:03:36.818Z</time>
      </trkpt>
      <trkpt lat="45.81114" lon="5.81444">
        <ele>230</ele>
        <time>2021-09-12T09:03:37.818Z</time>
      </trkpt>
      <trkpt lat="45.81109" lon="5.81445">
        <ele>230</ele>
        <time>2021-09-12T09:03:38.818Z</time>
      </trkpt>
      <trkpt lat="45.81104" lon="5.81446">
        <ele>230</ele>
        <time>2021-09-12T09:03:39.817Z</time>
      </trkpt>
      <trkpt lat="45.81099" lon="5.81448">
        <ele>230</ele>
        <time>2021-09-12T09:03:40.818Z</time>
      </trkpt>
      <trkpt lat="45.81094" lon="5.81449">
        <ele>230</ele>
        <time>2021-09-12T09:03:41.817Z</time>
      </trkpt>
      <trkpt lat="45.81089" lon="5.8145">
        <ele>230</ele>
        <time>2021-09-12T09:03:42.817Z</time>
      </trkpt>
      <trkpt lat="45.81084" lon="5.81452">
        <ele>230</ele>
        <time>2021-09-12T09:03:43.817Z</time>
      </trkpt>
      <trkpt lat="45.8108" lon="5.81453">
        <ele>230</ele>
        <time>2021-09-12T09:03:44.818Z</time>
      </trkpt>
      <trkpt lat="45.81075" lon="5.81454">
        <ele>230</ele>
        <time>2021-09-12T09:03:45.817Z</time>
      </trkpt>
      <trkpt lat="45.81071" lon="5.81455">
        <ele>230</ele>
        <time>2021-09-12T09:03:46.818Z</time>
      </trkpt>
      <trkpt lat="45.81066" lon="5.81456">
        <ele>231</ele>
        <time>2021-09-12T09:03:47.818Z</time>
      </trkpt>
      <trkpt lat="45.81061" lon="5.81457">
        <ele>231</ele>
        <time>2021-09-12T09:03:48.818Z</time>
      </trkpt>
      <trkpt lat="45.81057" lon="5.81459">
        <ele>231</ele>
        <time>2021-09-12T09:03:49.818Z</time>
      </trkpt>
      <trkpt lat="45.81052" lon="5.81461">
        <ele>231</ele>
        <time>2021-09-12T09:03:50.818Z</time>
      </trkpt>
      <trkpt lat="45.81047" lon="5.81463">
        <ele>232</ele>
        <time>2021-09-12T09:03:51.817Z</time>
      </trkpt>
      <trkpt lat="45.81042" lon="5.81466">
        <ele>232</ele>
        <time>2021-09-12T09:03:52.818Z</time>
      </trkpt>
      <trkpt lat="45.81037" lon="5.81468">
        <ele>232</ele>
        <time>2021-09-12T09:03:53.818Z</time>
      </trkpt>
      <trkpt lat="45.81032" lon="5.8147">
        <ele>232</ele>
        <time>2021-09-12T09:03:54.817Z</time>
      </trkpt>
      <trkpt lat="45.81027" lon="5.81471">
        <ele>233</ele>
        <time>2021-09-12T09:03:55.818Z</time>
      </trkpt>
      <trkpt lat="45.81022" lon="5.81473">
        <ele>233</ele>
        <time>2021-09-12T09:03:56.818Z</time>
      </trkpt>
      <trkpt lat="45.81018" lon="5.81474">
        <ele>233</ele>
        <time>2021-09-12T09:03:57.818Z</time>
      </trkpt>
      <trkpt lat="45.81013" lon="5.81476">
        <ele>233</ele>
        <time>2021-09-12T09:03:58.818Z</time>
      </trkpt>
      <trkpt lat="45.81008" lon="5.81477">
        <ele>233</ele>
        <time>2021-09-12T09:03:59.818Z</time>
      </trkpt>
      <trkpt lat="45.81003" lon="5.81478">
        <ele>233</ele>
        <time>2021-09-12T09:04:00.818Z</time>
      </trkpt>
      <trkpt lat="45.80997" lon="5.81482">
        <ele>233</ele>
        <time>2021-09-12T09:04:01.818Z</time>
      </trkpt>
      <trkpt lat="45.80991" lon="5.81485">
        <ele>233</ele>
        <time>2021-09-12T09:04:02.817Z</time>
      </trkpt>
      <trkpt lat="45.80986" lon="5.81485">
        <ele>233</ele>
        <time>2021-09-12T09:04:03.818Z</time>
      </trkpt>
      <trkpt lat="45.80982" lon="5.81486">
        <ele>233</ele>
        <time>2021-09-12T09:04:04.818Z</time>
      </trkpt>
      <trkpt lat="45.80978" lon="5.81486">
        <ele>233</ele>
        <time>2021-09-12T09:04:05.818Z</time>
      </trkpt>
      <trkpt lat="45.80972" lon="5.81487">
        <ele>233</ele>
        <time>2021-09-12T09:04:06.817Z</time>
      </trkpt>
      <trkpt lat="45.80967" lon="5.81488">
        <ele>233</ele>
        <time>2021-09-12T09:04:07.818Z</time>
      </trkpt>
      <trkpt lat="45.80962" lon="5.81489">
        <ele>233</ele>
        <time>2021-09-12T09:04:08.817Z</time>
      </trkpt>
      <trkpt lat="45.80957" lon="5.81491">
        <ele>233</ele>
        <time>2021-09-12T09:04:09.818Z</time>
      </trkpt>
      <trkpt lat="45.80953" lon="5.81493">
        <ele>233</ele>
        <time>2021-09-12T09:04:10.818Z</time>
      </trkpt>
      <trkpt lat="45.80948" lon="5.81495">
        <ele>233</ele>
        <time>2021-09-12T09:04:11.817Z</time>
      </trkpt>
      <trkpt lat="45.80942" lon="5.81498">
        <ele>234</ele>
        <time>2021-09-12T09:04:12.818Z</time>
      </trkpt>
      <trkpt lat="45.80938" lon="5.81501">
        <ele>234</ele>
        <time>2021-09-12T09:04:13.818Z</time>
      </trkpt>
      <trkpt lat="45.80934" lon="5.81504">
        <ele>234</ele>
        <time>2021-09-12T09:04:14.817Z</time>
      </trkpt>
      <trkpt lat="45.80928" lon="5.8151">
        <ele>234</ele>
        <time>2021-09-12T09:04:15.818Z</time>
      </trkpt>
      <trkpt lat="45.80924" lon="5.81516">
        <ele>234</ele>
        <time>2021-09-12T09:04:16.818Z</time>
      </trkpt>
      <trkpt lat="45.8092" lon="5.81522">
        <ele>234</ele>
        <time>2021-09-12T09:04:17.818Z</time>
      </trkpt>
      <trkpt lat="45.80916" lon="5.81528">
        <ele>235</ele>
        <time>2021-09-12T09:04:18.817Z</time>
      </trkpt>
      <trkpt lat="45.80912" lon="5.81535">
        <ele>235</ele>
        <time>2021-09-12T09:04:19.818Z</time>
      </trkpt>
      <trkpt lat="45.80909" lon="5.81542">
        <ele>235</ele>
        <time>2021-09-12T09:04:20.818Z</time>
      </trkpt>
      <trkpt lat="45.80905" lon="5.81548">
        <ele>235</ele>
        <time>2021-09-12T09:04:21.817Z</time>
      </trkpt>
      <trkpt lat="45.80901" lon="5.81555">
        <ele>235</ele>
        <time>2021-09-12T09:04:22.818Z</time>
      </trkpt>
      <trkpt lat="45.80897" lon="5.81561">
        <ele>234</ele>
        <time>2021-09-12T09:04:23.818Z</time>
      </trkpt>
      <trkpt lat="45.80892" lon="5.81567">
        <ele>234</ele>
        <time>2021-09-12T09:04:24.817Z</time>
      </trkpt>
      <trkpt lat="45.80887" lon="5.81572">
        <ele>234</ele>
        <time>2021-09-12T09:04:25.817Z</time>
      </trkpt>
      <trkpt lat="45.80882" lon="5.81577">
        <ele>234</ele>
        <time>2021-09-12T09:04:26.817Z</time>
      </trkpt>
      <trkpt lat="45.80877" lon="5.81582">
        <ele>234</ele>
        <time>2021-09-12T09:04:27.818Z</time>
      </trkpt>
      <trkpt lat="45.80871" lon="5.81586">
        <ele>234</ele>
        <time>2021-09-12T09:04:28.817Z</time>
      </trkpt>
      <trkpt lat="45.80866" lon="5.81592">
        <ele>234</ele>
        <time>2021-09-12T09:04:29.818Z</time>
      </trkpt>
      <trkpt lat="45.8086" lon="5.81598">
        <ele>234</ele>
        <time>2021-09-12T09:04:30.818Z</time>
      </trkpt>
      <trkpt lat="45.80855" lon="5.81602">
        <ele>234</ele>
        <time>2021-09-12T09:04:31.818Z</time>
      </trkpt>
      <trkpt lat="45.80849" lon="5.81605">
        <ele>234</ele>
        <time>2021-09-12T09:04:32.818Z</time>
      </trkpt>
      <trkpt lat="45.80844" lon="5.81609">
        <ele>235</ele>
        <time>2021-09-12T09:04:33.818Z</time>
      </trkpt>
      <trkpt lat="45.80839" lon="5.81613">
        <ele>235</ele>
        <time>2021-09-12T09:04:34.818Z</time>
      </trkpt>
      <trkpt lat="45.80834" lon="5.81617">
        <ele>235</ele>
        <time>2021-09-12T09:04:35.817Z</time>
      </trkpt>
      <trkpt lat="45.80829" lon="5.8162">
        <ele>235</ele>
        <time>2021-09-12T09:04:36.817Z</time>
      </trkpt>
      <trkpt lat="45.80824" lon="5.81624">
        <ele>235</ele>
        <time>2021-09-12T09:04:37.817Z</time>
      </trkpt>
      <trkpt lat="45.80819" lon="5.81628">
        <ele>235</ele>
        <time>2021-09-12T09:04:38.818Z</time>
      </trkpt>
      <trkpt lat="45.80814" lon="5.81632">
        <ele>235</ele>
        <time>2021-09-12T09:04:39.817Z</time>
      </trkpt>
      <trkpt lat="45.80809" lon="5.81636">
        <ele>235</ele>
        <time>2021-09-12T09:04:40.817Z</time>
      </trkpt>
      <trkpt lat="45.80804" lon="5.81639">
        <ele>235</ele>
        <time>2021-09-12T09:04:41.818Z</time>
      </trkpt>
      <trkpt lat="45.80799" lon="5.81643">
        <ele>235</ele>
        <time>2021-09-12T09:04:42.818Z</time>
      </trkpt>
      <trkpt lat="45.80794" lon="5.81647">
        <ele>235</ele>
        <time>2021-09-12T09:04:43.817Z</time>
      </trkpt>
      <trkpt lat="45.80789" lon="5.81651">
        <ele>234</ele>
        <time>2021-09-12T09:04:44.818Z</time>
      </trkpt>
      <trkpt lat="45.80784" lon="5.81655">
        <ele>234</ele>
        <time>2021-09-12T09:04:45.818Z</time>
      </trkpt>
      <trkpt lat="45.8078" lon="5.81658">
        <ele>234</ele>
        <time>2021-09-12T09:04:46.817Z</time>
      </trkpt>
      <trkpt lat="45.80776" lon="5.81662">
        <ele>234</ele>
        <time>2021-09-12T09:04:47.818Z</time>
      </trkpt>
      <trkpt lat="45.80771" lon="5.81665">
        <ele>234</ele>
        <time>2021-09-12T09:04:48.818Z</time>
      </trkpt>
      <trkpt lat="45.80766" lon="5.81669">
        <ele>233</ele>
        <time>2021-09-12T09:04:49.818Z</time>
      </trkpt>
      <trkpt lat="45.80761" lon="5.81674">
        <ele>233</ele>
        <time>2021-09-12T09:04:50.817Z</time>
      </trkpt>
      <trkpt lat="45.80757" lon="5.81679">
        <ele>233</ele>
        <time>2021-09-12T09:04:51.817Z</time>
      </trkpt>
      <trkpt lat="45.80753" lon="5.81683">
        <ele>233</ele>
        <time>2021-09-12T09:04:52.818Z</time>
      </trkpt>
      <trkpt lat="45.80748" lon="5.81686">
        <ele>233</ele>
        <time>2021-09-12T09:04:53.818Z</time>
      </trkpt>
      <trkpt lat="45.80744" lon="5.81689">
        <ele>233</ele>
        <time>2021-09-12T09:04:54.817Z</time>
      </trkpt>
      <trkpt lat="45.8074" lon="5.81693">
        <ele>233</ele>
        <time>2021-09-12T09:04:55.818Z</time>
      </trkpt>
      <trkpt lat="45.80735" lon="5.81697">
        <ele>233</ele>
        <time>2021-09-12T09:04:56.817Z</time>
      </trkpt>
      <trkpt lat="45.8073" lon="5.817">
        <ele>233</ele>
        <time>2021-09-12T09:04:57.818Z</time>
      </trkpt>
      <trkpt lat="45.80726" lon="5.81704">
        <ele>232</ele>
        <time>2021-09-12T09:04:58.817Z</time>
      </trkpt>
      <trkpt lat="45.80721" lon="5.81707">
        <ele>232</ele>
        <time>2021-09-12T09:04:59.818Z</time>
      </trkpt>
      <trkpt lat="45.80716" lon="5.81711">
        <ele>231</ele>
        <time>2021-09-12T09:05:00.818Z</time>
      </trkpt>
      <trkpt lat="45.80711" lon="5.81714">
        <ele>231</ele>
        <time>2021-09-12T09:05:01.818Z</time>
      </trkpt>
      <trkpt lat="45.80705" lon="5.81718">
        <ele>231</ele>
        <time>2021-09-12T09:05:02.818Z</time>
      </trkpt>
      <trkpt lat="45.807" lon="5.81721">
        <ele>231</ele>
        <time>2021-09-12T09:05:03.817Z</time>
      </trkpt>
      <trkpt lat="45.80695" lon="5.81725">
        <ele>231</ele>
        <time>2021-09-12T09:05:04.817Z</time>
      </trkpt>
      <trkpt lat="45.8069" lon="5.81728">
        <ele>231</ele>
        <time>2021-09-12T09:05:05.818Z</time>
      </trkpt>
      <trkpt lat="45.80685" lon="5.81731">
        <ele>231</ele>
        <time>2021-09-12T09:05:06.818Z</time>
      </trkpt>
      <trkpt lat="45.8068" lon="5.81732">
        <ele>231</ele>
        <time>2021-09-12T09:05:07.818Z</time>
      </trkpt>
      <trkpt lat="45.80675" lon="5.81734">
        <ele>231</ele>
        <time>2021-09-12T09:05:08.818Z</time>
      </trkpt>
      <trkpt lat="45.8067" lon="5.81735">
        <ele>231</ele>
        <time>2021-09-12T09:05:09.818Z</time>
      </trkpt>
      <trkpt lat="45.80665" lon="5.81736">
        <ele>230</ele>
        <time>2021-09-12T09:05:10.818Z</time>
      </trkpt>
      <trkpt lat="45.80659" lon="5.81736">
        <ele>230</ele>
        <time>2021-09-12T09:05:11.818Z</time>
      </trkpt>
      <trkpt lat="45.80654" lon="5.81736">
        <ele>230</ele>
        <time>2021-09-12T09:05:12.817Z</time>
      </trkpt>
      <trkpt lat="45.80649" lon="5.81736">
        <ele>230</ele>
        <time>2021-09-12T09:05:13.817Z</time>
      </trkpt>
      <trkpt lat="45.80644" lon="5.81735">
        <ele>230</ele>
        <time>2021-09-12T09:05:14.818Z</time>
      </trkpt>
      <trkpt lat="45.80639" lon="5.81733">
        <ele>230</ele>
        <time>2021-09-12T09:05:15.818Z</time>
      </trkpt>
      <trkpt lat="45.80634" lon="5.81731">
        <ele>230</ele>
        <time>2021-09-12T09:05:16.818Z</time>
      </trkpt>
      <trkpt lat="45.80629" lon="5.81729">
        <ele>230</ele>
        <time>2021-09-12T09:05:17.818Z</time>
      </trkpt>
      <trkpt lat="45.80624" lon="5.81727">
        <ele>230</ele>
        <time>2021-09-12T09:05:18.818Z</time>
      </trkpt>
      <trkpt lat="45.80619" lon="5.81725">
        <ele>231</ele>
        <time>2021-09-12T09:05:19.817Z</time>
      </trkpt>
      <trkpt lat="45.80614" lon="5.81723">
        <ele>231</ele>
        <time>2021-09-12T09:05:20.817Z</time>
      </trkpt>
      <trkpt lat="45.8061" lon="5.81721">
        <ele>231</ele>
        <time>2021-09-12T09:05:21.818Z</time>
      </trkpt>
      <trkpt lat="45.80606" lon="5.8172">
        <ele>231</ele>
        <time>2021-09-12T09:05:22.817Z</time>
      </trkpt>
      <trkpt lat="45.80602" lon="5.81719">
        <ele>231</ele>
        <time>2021-09-12T09:05:23.818Z</time>
      </trkpt>
      <trkpt lat="45.80598" lon="5.81718">
        <ele>231</ele>
        <time>2021-09-12T09:05:24.817Z</time>
      </trkpt>
      <trkpt lat="45.80593" lon="5.81717">
        <ele>231</ele>
        <time>2021-09-12T09:05:25.818Z</time>
      </trkpt>
      <trkpt lat="45.80589" lon="5.81718">
        <ele>231</ele>
        <time>2021-09-12T09:05:26.818Z</time>
      </trkpt>
      <trkpt lat="45.80585" lon="5.81718">
        <ele>231</ele>
        <time>2021-09-12T09:05:27.817Z</time>
      </trkpt>
      <trkpt lat="45.80581" lon="5.81719">
        <ele>231</ele>
        <time>2021-09-12T09:05:28.818Z</time>
      </trkpt>
      <trkpt lat="45.80577" lon="5.81721">
        <ele>232</ele>
        <time>2021-09-12T09:05:29.818Z</time>
      </trkpt>
      <trkpt lat="45.80573" lon="5.81723">
        <ele>232</ele>
        <time>2021-09-12T09:05:30.818Z</time>
      </trkpt>
      <trkpt lat="45.8057" lon="5.81724">
        <ele>232</ele>
        <time>2021-09-12T09:05:31.818Z</time>
      </trkpt>
      <trkpt lat="45.80566" lon="5.81726">
        <ele>232</ele>
        <time>2021-09-12T09:05:32.818Z</time>
      </trkpt>
      <trkpt lat="45.80562" lon="5.81729">
        <ele>232</ele>
        <time>2021-09-12T09:05:33.818Z</time>
      </trkpt>
      <trkpt lat="45.80558" lon="5.81731">
        <ele>233</ele>
        <time>2021-09-12T09:05:34.818Z</time>
      </trkpt>
      <trkpt lat="45.80554" lon="5.81733">
        <ele>233</ele>
        <time>2021-09-12T09:05:35.818Z</time>
      </trkpt>
      <trkpt lat="45.80549" lon="5.81735">
        <ele>233</ele>
        <time>2021-09-12T09:05:36.818Z</time>
      </trkpt>
      <trkpt lat="45.80545" lon="5.81737">
        <ele>233</ele>
        <time>2021-09-12T09:05:37.818Z</time>
      </trkpt>
      <trkpt lat="45.80541" lon="5.8174">
        <ele>233</ele>
        <time>2021-09-12T09:05:38.818Z</time>
      </trkpt>
      <trkpt lat="45.80537" lon="5.81742">
        <ele>233</ele>
        <time>2021-09-12T09:05:39.818Z</time>
      </trkpt>
      <trkpt lat="45.80533" lon="5.81745">
        <ele>233</ele>
        <time>2021-09-12T09:05:40.818Z</time>
      </trkpt>
      <trkpt lat="45.80529" lon="5.81747">
        <ele>233</ele>
        <time>2021-09-12T09:05:41.818Z</time>
      </trkpt>
      <trkpt lat="45.80524" lon="5.81749">
        <ele>234</ele>
        <time>2021-09-12T09:05:42.817Z</time>
      </trkpt>
      <trkpt lat="45.8052" lon="5.81751">
        <ele>234</ele>
        <time>2021-09-12T09:05:43.818Z</time>
      </trkpt>
      <trkpt lat="45.80515" lon="5.81753">
        <ele>234</ele>
        <time>2021-09-12T09:05:44.818Z</time>
      </trkpt>
      <trkpt lat="45.80511" lon="5.81754">
        <ele>234</ele>
        <time>2021-09-12T09:05:45.818Z</time>
      </trkpt>
      <trkpt lat="45.80507" lon="5.81755">
        <ele>235</ele>
        <time>2021-09-12T09:05:46.818Z</time>
      </trkpt>
      <trkpt lat="45.80503" lon="5.81756">
        <ele>235</ele>
        <time>2021-09-12T09:05:47.818Z</time>
      </trkpt>
      <trkpt lat="45.80499" lon="5.81757">
        <ele>235</ele>
        <time>2021-09-12T09:05:48.818Z</time>
      </trkpt>
      <trkpt lat="45.80495" lon="5.81757">
        <ele>235</ele>
        <time>2021-09-12T09:05:49.818Z</time>
      </trkpt>
      <trkpt lat="45.80492" lon="5.81756">
        <ele>235</ele>
        <time>2021-09-12T09:05:50.817Z</time>
      </trkpt>
      <trkpt lat="45.8049" lon="5.81755">
        <ele>235</ele>
        <time>2021-09-12T09:05:51.818Z</time>
      </trkpt>
      <trkpt lat="45.8049" lon="5.81755">
        <ele>235</ele>
        <time>2021-09-12T09:05:52.817Z</time>
      </trkpt>
      <trkpt lat="45.80489" lon="5.81755">
        <ele>235</ele>
        <time>2021-09-12T09:05:53.818Z</time>
      </trkpt>
      <trkpt lat="45.8049" lon="5.81755">
        <ele>234</ele>
        <time>2021-09-12T09:05:54.817Z</time>
      </trkpt>
      <trkpt lat="45.80494" lon="5.81753">
        <ele>235</ele>
        <time>2021-09-12T09:05:55.818Z</time>
      </trkpt>
      <trkpt lat="45.80493" lon="5.81752">
        <ele>235</ele>
        <time>2021-09-12T09:05:56.819Z</time>
      </trkpt>
      <trkpt lat="45.80493" lon="5.81752">
        <ele>235</ele>
        <time>2021-09-12T09:05:57.818Z</time>
      </trkpt>
      <trkpt lat="45.80495" lon="5.8176">
        <ele>234</ele>
        <time>2021-09-12T09:05:58.820Z</time>
      </trkpt>
      <trkpt lat="45.80495" lon="5.81762">
        <ele>235</ele>
        <time>2021-09-12T09:05:59.820Z</time>
      </trkpt>
      <trkpt lat="45.80496" lon="5.81763">
        <ele>235</ele>
        <time>2021-09-12T09:06:00.819Z</time>
      </trkpt>
      <trkpt lat="45.80496" lon="5.81764">
        <ele>235</ele>
        <time>2021-09-12T09:06:01.819Z</time>
      </trkpt>
      <trkpt lat="45.80496" lon="5.81766">
        <ele>236</ele>
        <time>2021-09-12T09:06:02.819Z</time>
      </trkpt>
      <trkpt lat="45.80496" lon="5.81769">
        <ele>236</ele>
        <time>2021-09-12T09:06:03.820Z</time>
      </trkpt>
      <trkpt lat="45.80496" lon="5.81773">
        <ele>236</ele>
        <time>2021-09-12T09:06:04.819Z</time>
      </trkpt>
      <trkpt lat="45.80496" lon="5.81776">
        <ele>236</ele>
        <time>2021-09-12T09:06:05.820Z</time>
      </trkpt>
      <trkpt lat="45.80497" lon="5.81779">
        <ele>236</ele>
        <time>2021-09-12T09:06:06.819Z</time>
      </trkpt>
      <trkpt lat="45.80498" lon="5.81782">
        <ele>237</ele>
        <time>2021-09-12T09:06:07.819Z</time>
      </trkpt>
      <trkpt lat="45.80499" lon="5.81786">
        <ele>237</ele>
        <time>2021-09-12T09:06:08.820Z</time>
      </trkpt>
      <trkpt lat="45.80502" lon="5.8179">
        <ele>237</ele>
        <time>2021-09-12T09:06:09.819Z</time>
      </trkpt>
      <trkpt lat="45.80503" lon="5.81792">
        <ele>237</ele>
        <time>2021-09-12T09:06:10.820Z</time>
      </trkpt>
      <trkpt lat="45.80506" lon="5.81795">
        <ele>236</ele>
        <time>2021-09-12T09:06:11.819Z</time>
      </trkpt>
      <trkpt lat="45.80509" lon="5.81798">
        <ele>236</ele>
        <time>2021-09-12T09:06:12.819Z</time>
      </trkpt>
      <trkpt lat="45.80511" lon="5.81801">
        <ele>236</ele>
        <time>2021-09-12T09:06:13.820Z</time>
      </trkpt>
      <trkpt lat="45.80514" lon="5.81804">
        <ele>236</ele>
        <time>2021-09-12T09:06:14.820Z</time>
      </trkpt>
      <trkpt lat="45.80517" lon="5.81808">
        <ele>236</ele>
        <time>2021-09-12T09:06:15.820Z</time>
      </trkpt>
      <trkpt lat="45.80519" lon="5.8181">
        <ele>237</ele>
        <time>2021-09-12T09:06:16.819Z</time>
      </trkpt>
      <trkpt lat="45.80522" lon="5.81813">
        <ele>237</ele>
        <time>2021-09-12T09:06:17.819Z</time>
      </trkpt>
      <trkpt lat="45.80524" lon="5.81815">
        <ele>237</ele>
        <time>2021-09-12T09:06:18.820Z</time>
      </trkpt>
      <trkpt lat="45.80527" lon="5.81818">
        <ele>237</ele>
        <time>2021-09-12T09:06:19.820Z</time>
      </trkpt>
      <trkpt lat="45.80529" lon="5.81821">
        <ele>237</ele>
        <time>2021-09-12T09:06:20.820Z</time>
      </trkpt>
      <trkpt lat="45.80531" lon="5.81824">
        <ele>237</ele>
        <time>2021-09-12T09:06:21.819Z</time>
      </trkpt>
      <trkpt lat="45.80533" lon="5.81826">
        <ele>237</ele>
        <time>2021-09-12T09:06:22.819Z</time>
      </trkpt>
      <trkpt lat="45.80536" lon="5.81829">
        <ele>237</ele>
        <time>2021-09-12T09:06:23.820Z</time>
      </trkpt>
      <trkpt lat="45.80538" lon="5.81831">
        <ele>237</ele>
        <time>2021-09-12T09:06:24.820Z</time>
      </trkpt>
      <trkpt lat="45.8054" lon="5.81833">
        <ele>238</ele>
        <time>2021-09-12T09:06:25.819Z</time>
      </trkpt>
      <trkpt lat="45.80542" lon="5.81836">
        <ele>238</ele>
        <time>2021-09-12T09:06:26.819Z</time>
      </trkpt>
      <trkpt lat="45.80545" lon="5.81838">
        <ele>238</ele>
        <time>2021-09-12T09:06:27.819Z</time>
      </trkpt>
      <trkpt lat="45.80548" lon="5.8184">
        <ele>238</ele>
        <time>2021-09-12T09:06:28.820Z</time>
      </trkpt>
      <trkpt lat="45.8055" lon="5.81843">
        <ele>238</ele>
        <time>2021-09-12T09:06:29.819Z</time>
      </trkpt>
      <trkpt lat="45.80552" lon="5.81845">
        <ele>238</ele>
        <time>2021-09-12T09:06:30.820Z</time>
      </trkpt>
      <trkpt lat="45.80555" lon="5.81848">
        <ele>238</ele>
        <time>2021-09-12T09:06:31.820Z</time>
      </trkpt>
      <trkpt lat="45.80557" lon="5.81851">
        <ele>239</ele>
        <time>2021-09-12T09:06:32.819Z</time>
      </trkpt>
      <trkpt lat="45.8056" lon="5.81854">
        <ele>239</ele>
        <time>2021-09-12T09:06:33.820Z</time>
      </trkpt>
      <trkpt lat="45.80562" lon="5.81857">
        <ele>239</ele>
        <time>2021-09-12T09:06:34.819Z</time>
      </trkpt>
      <trkpt lat="45.80564" lon="5.8186">
        <ele>239</ele>
        <time>2021-09-12T09:06:35.820Z</time>
      </trkpt>
      <trkpt lat="45.80567" lon="5.81863">
        <ele>239</ele>
        <time>2021-09-12T09:06:36.819Z</time>
      </trkpt>
      <trkpt lat="45.80569" lon="5.81866">
        <ele>239</ele>
        <time>2021-09-12T09:06:37.819Z</time>
      </trkpt>
      <trkpt lat="45.80572" lon="5.81868">
        <ele>239</ele>
        <time>2021-09-12T09:06:38.820Z</time>
      </trkpt>
      <trkpt lat="45.80575" lon="5.81872">
        <ele>239</ele>
        <time>2021-09-12T09:06:39.819Z</time>
      </trkpt>
      <trkpt lat="45.80577" lon="5.81874">
        <ele>238</ele>
        <time>2021-09-12T09:06:40.820Z</time>
      </trkpt>
      <trkpt lat="45.8058" lon="5.81878">
        <ele>238</ele>
        <time>2021-09-12T09:06:41.819Z</time>
      </trkpt>
      <trkpt lat="45.80582" lon="5.81881">
        <ele>238</ele>
        <time>2021-09-12T09:06:42.819Z</time>
      </trkpt>
      <trkpt lat="45.80585" lon="5.81885">
        <ele>238</ele>
        <time>2021-09-12T09:06:43.820Z</time>
      </trkpt>
      <trkpt lat="45.80589" lon="5.8189">
        <ele>238</ele>
        <time>2021-09-12T09:06:44.820Z</time>
      </trkpt>
      <trkpt lat="45.80592" lon="5.81894">
        <ele>238</ele>
        <time>2021-09-12T09:06:45.819Z</time>
      </trkpt>
      <trkpt lat="45.80595" lon="5.81897">
        <ele>238</ele>
        <time>2021-09-12T09:06:46.819Z</time>
      </trkpt>
      <trkpt lat="45.80598" lon="5.81902">
        <ele>238</ele>
        <time>2021-09-12T09:06:47.819Z</time>
      </trkpt>
      <trkpt lat="45.80603" lon="5.81908">
        <ele>237</ele>
        <time>2021-09-12T09:06:48.819Z</time>
      </trkpt>
      <trkpt lat="45.80607" lon="5.81913">
        <ele>237</ele>
        <time>2021-09-12T09:06:49.819Z</time>
      </trkpt>
      <trkpt lat="45.8061" lon="5.81919">
        <ele>237</ele>
        <time>2021-09-12T09:06:50.819Z</time>
      </trkpt>
      <trkpt lat="45.80613" lon="5.81924">
        <ele>236</ele>
        <time>2021-09-12T09:06:51.819Z</time>
      </trkpt>
      <trkpt lat="45.80616" lon="5.81931">
        <ele>236</ele>
        <time>2021-09-12T09:06:52.819Z</time>
      </trkpt>
      <trkpt lat="45.80619" lon="5.81938">
        <ele>236</ele>
        <time>2021-09-12T09:06:53.819Z</time>
      </trkpt>
      <trkpt lat="45.80622" lon="5.81946">
        <ele>236</ele>
        <time>2021-09-12T09:06:54.819Z</time>
      </trkpt>
      <trkpt lat="45.80625" lon="5.81954">
        <ele>235</ele>
        <time>2021-09-12T09:06:55.820Z</time>
      </trkpt>
      <trkpt lat="45.80627" lon="5.81963">
        <ele>235</ele>
        <time>2021-09-12T09:06:56.820Z</time>
      </trkpt>
      <trkpt lat="45.80628" lon="5.81972">
        <ele>236</ele>
        <time>2021-09-12T09:06:57.820Z</time>
      </trkpt>
      <trkpt lat="45.80629" lon="5.81982">
        <ele>236</ele>
        <time>2021-09-12T09:06:58.820Z</time>
      </trkpt>
      <trkpt lat="45.80629" lon="5.81992">
        <ele>236</ele>
        <time>2021-09-12T09:06:59.819Z</time>
      </trkpt>
      <trkpt lat="45.80629" lon="5.82002">
        <ele>236</ele>
        <time>2021-09-12T09:07:00.820Z</time>
      </trkpt>
      <trkpt lat="45.80629" lon="5.82012">
        <ele>237</ele>
        <time>2021-09-12T09:07:01.820Z</time>
      </trkpt>
      <trkpt lat="45.80629" lon="5.82022">
        <ele>237</ele>
        <time>2021-09-12T09:07:02.820Z</time>
      </trkpt>
      <trkpt lat="45.8063" lon="5.82032">
        <ele>237</ele>
        <time>2021-09-12T09:07:03.819Z</time>
      </trkpt>
      <trkpt lat="45.8063" lon="5.82042">
        <ele>237</ele>
        <time>2021-09-12T09:07:04.819Z</time>
      </trkpt>
      <trkpt lat="45.8063" lon="5.82053">
        <ele>237</ele>
        <time>2021-09-12T09:07:05.820Z</time>
      </trkpt>
      <trkpt lat="45.80631" lon="5.82061">
        <ele>237</ele>
        <time>2021-09-12T09:07:06.820Z</time>
      </trkpt>
      <trkpt lat="45.80631" lon="5.82071">
        <ele>237</ele>
        <time>2021-09-12T09:07:07.820Z</time>
      </trkpt>
      <trkpt lat="45.80632" lon="5.82083">
        <ele>237</ele>
        <time>2021-09-12T09:07:08.820Z</time>
      </trkpt>
      <trkpt lat="45.80633" lon="5.82092">
        <ele>237</ele>
        <time>2021-09-12T09:07:09.820Z</time>
      </trkpt>
      <trkpt lat="45.80634" lon="5.82099">
        <ele>237</ele>
        <time>2021-09-12T09:07:10.820Z</time>
      </trkpt>
      <trkpt lat="45.80635" lon="5.82108">
        <ele>236</ele>
        <time>2021-09-12T09:07:11.820Z</time>
      </trkpt>
      <trkpt lat="45.80636" lon="5.82119">
        <ele>236</ele>
        <time>2021-09-12T09:07:12.820Z</time>
      </trkpt>
      <trkpt lat="45.80637" lon="5.82126">
        <ele>236</ele>
        <time>2021-09-12T09:07:13.820Z</time>
      </trkpt>
      <trkpt lat="45.80639" lon="5.82137">
        <ele>236</ele>
        <time>2021-09-12T09:07:14.819Z</time>
      </trkpt>
      <trkpt lat="45.8064" lon="5.82144">
        <ele>236</ele>
        <time>2021-09-12T09:07:15.820Z</time>
      </trkpt>
      <trkpt lat="45.80641" lon="5.82153">
        <ele>235</ele>
        <time>2021-09-12T09:07:16.820Z</time>
      </trkpt>
      <trkpt lat="45.80643" lon="5.82165">
        <ele>235</ele>
        <time>2021-09-12T09:07:17.820Z</time>
      </trkpt>
      <trkpt lat="45.80645" lon="5.82172">
        <ele>235</ele>
        <time>2021-09-12T09:07:18.820Z</time>
      </trkpt>
      <trkpt lat="45.80646" lon="5.82182">
        <ele>234</ele>
        <time>2021-09-12T09:07:19.820Z</time>
      </trkpt>
      <trkpt lat="45.80648" lon="5.82191">
        <ele>234</ele>
        <time>2021-09-12T09:07:20.820Z</time>
      </trkpt>
      <trkpt lat="45.80649" lon="5.822">
        <ele>233</ele>
        <time>2021-09-12T09:07:21.820Z</time>
      </trkpt>
      <trkpt lat="45.80651" lon="5.82209">
        <ele>233</ele>
        <time>2021-09-12T09:07:22.819Z</time>
      </trkpt>
      <trkpt lat="45.80652" lon="5.82219">
        <ele>233</ele>
        <time>2021-09-12T09:07:23.820Z</time>
      </trkpt>
      <trkpt lat="45.80654" lon="5.82228">
        <ele>233</ele>
        <time>2021-09-12T09:07:24.820Z</time>
      </trkpt>
      <trkpt lat="45.80655" lon="5.82236">
        <ele>233</ele>
        <time>2021-09-12T09:07:25.820Z</time>
      </trkpt>
      <trkpt lat="45.80657" lon="5.82245">
        <ele>232</ele>
        <time>2021-09-12T09:07:26.820Z</time>
      </trkpt>
      <trkpt lat="45.80658" lon="5.82254">
        <ele>232</ele>
        <time>2021-09-12T09:07:27.819Z</time>
      </trkpt>
      <trkpt lat="45.80659" lon="5.82262">
        <ele>232</ele>
        <time>2021-09-12T09:07:28.820Z</time>
      </trkpt>
      <trkpt lat="45.80661" lon="5.8227">
        <ele>232</ele>
        <time>2021-09-12T09:07:29.820Z</time>
      </trkpt>
      <trkpt lat="45.80662" lon="5.82279">
        <ele>232</ele>
        <time>2021-09-12T09:07:30.820Z</time>
      </trkpt>
      <trkpt lat="45.80663" lon="5.82287">
        <ele>232</ele>
        <time>2021-09-12T09:07:31.820Z</time>
      </trkpt>
      <trkpt lat="45.80665" lon="5.82295">
        <ele>233</ele>
        <time>2021-09-12T09:07:32.820Z</time>
      </trkpt>
      <trkpt lat="45.80667" lon="5.82303">
        <ele>233</ele>
        <time>2021-09-12T09:07:33.819Z</time>
      </trkpt>
      <trkpt lat="45.80668" lon="5.82312">
        <ele>233</ele>
        <time>2021-09-12T09:07:34.820Z</time>
      </trkpt>
      <trkpt lat="45.80669" lon="5.8232">
        <ele>233</ele>
        <time>2021-09-12T09:07:35.820Z</time>
      </trkpt>
      <trkpt lat="45.80671" lon="5.82328">
        <ele>233</ele>
        <time>2021-09-12T09:07:36.820Z</time>
      </trkpt>
      <trkpt lat="45.80672" lon="5.82336">
        <ele>233</ele>
        <time>2021-09-12T09:07:37.820Z</time>
      </trkpt>
      <trkpt lat="45.80673" lon="5.82345">
        <ele>233</ele>
        <time>2021-09-12T09:07:38.820Z</time>
      </trkpt>
      <trkpt lat="45.80675" lon="5.82353">
        <ele>234</ele>
        <time>2021-09-12T09:07:39.820Z</time>
      </trkpt>
      <trkpt lat="45.80676" lon="5.82361">
        <ele>234</ele>
        <time>2021-09-12T09:07:40.820Z</time>
      </trkpt>
      <trkpt lat="45.80678" lon="5.82369">
        <ele>234</ele>
        <time>2021-09-12T09:07:41.819Z</time>
      </trkpt>
      <trkpt lat="45.8068" lon="5.82377">
        <ele>233</ele>
        <time>2021-09-12T09:07:42.820Z</time>
      </trkpt>
      <trkpt lat="45.80682" lon="5.82385">
        <ele>234</ele>
        <time>2021-09-12T09:07:43.820Z</time>
      </trkpt>
      <trkpt lat="45.80685" lon="5.82392">
        <ele>234</ele>
        <time>2021-09-12T09:07:44.819Z</time>
      </trkpt>
      <trkpt lat="45.80689" lon="5.82399">
        <ele>234</ele>
        <time>2021-09-12T09:07:45.819Z</time>
      </trkpt>
      <trkpt lat="45.80692" lon="5.82406">
        <ele>234</ele>
        <time>2021-09-12T09:07:46.819Z</time>
      </trkpt>
      <trkpt lat="45.80696" lon="5.82412">
        <ele>233</ele>
        <time>2021-09-12T09:07:47.819Z</time>
      </trkpt>
      <trkpt lat="45.807" lon="5.82418">
        <ele>233</ele>
        <time>2021-09-12T09:07:48.819Z</time>
      </trkpt>
      <trkpt lat="45.80704" lon="5.82425">
        <ele>233</ele>
        <time>2021-09-12T09:07:49.820Z</time>
      </trkpt>
      <trkpt lat="45.80707" lon="5.82431">
        <ele>233</ele>
        <time>2021-09-12T09:07:50.820Z</time>
      </trkpt>
      <trkpt lat="45.80711" lon="5.82436">
        <ele>233</ele>
        <time>2021-09-12T09:07:51.819Z</time>
      </trkpt>
      <trkpt lat="45.80715" lon="5.82442">
        <ele>233</ele>
        <time>2021-09-12T09:07:52.820Z</time>
      </trkpt>
      <trkpt lat="45.80718" lon="5.82448">
        <ele>233</ele>
        <time>2021-09-12T09:07:53.820Z</time>
      </trkpt>
      <trkpt lat="45.80722" lon="5.82453">
        <ele>232</ele>
        <time>2021-09-12T09:07:54.819Z</time>
      </trkpt>
      <trkpt lat="45.80725" lon="5.82459">
        <ele>232</ele>
        <time>2021-09-12T09:07:55.820Z</time>
      </trkpt>
      <trkpt lat="45.80729" lon="5.82465">
        <ele>231</ele>
        <time>2021-09-12T09:07:56.820Z</time>
      </trkpt>
      <trkpt lat="45.80732" lon="5.8247">
        <ele>231</ele>
        <time>2021-09-12T09:07:57.820Z</time>
      </trkpt>
      <trkpt lat="45.80736" lon="5.82476">
        <ele>230</ele>
        <time>2021-09-12T09:07:58.820Z</time>
      </trkpt>
      <trkpt lat="45.8074" lon="5.82482">
        <ele>230</ele>
        <time>2021-09-12T09:07:59.819Z</time>
      </trkpt>
      <trkpt lat="45.80744" lon="5.82489">
        <ele>231</ele>
        <time>2021-09-12T09:08:00.820Z</time>
      </trkpt>
      <trkpt lat="45.80747" lon="5.82496">
        <ele>231</ele>
        <time>2021-09-12T09:08:01.820Z</time>
      </trkpt>
      <trkpt lat="45.80751" lon="5.82503">
        <ele>231</ele>
        <time>2021-09-12T09:08:02.820Z</time>
      </trkpt>
      <trkpt lat="45.80755" lon="5.8251">
        <ele>232</ele>
        <time>2021-09-12T09:08:03.820Z</time>
      </trkpt>
      <trkpt lat="45.80759" lon="5.82518">
        <ele>232</ele>
        <time>2021-09-12T09:08:04.820Z</time>
      </trkpt>
      <trkpt lat="45.80763" lon="5.82526">
        <ele>232</ele>
        <time>2021-09-12T09:08:05.820Z</time>
      </trkpt>
      <trkpt lat="45.80766" lon="5.82533">
        <ele>232</ele>
        <time>2021-09-12T09:08:06.820Z</time>
      </trkpt>
      <trkpt lat="45.8077" lon="5.82541">
        <ele>232</ele>
        <time>2021-09-12T09:08:07.819Z</time>
      </trkpt>
      <trkpt lat="45.80773" lon="5.82549">
        <ele>232</ele>
        <time>2021-09-12T09:08:08.820Z</time>
      </trkpt>
      <trkpt lat="45.80777" lon="5.82557">
        <ele>232</ele>
        <time>2021-09-12T09:08:09.820Z</time>
      </trkpt>
      <trkpt lat="45.8078" lon="5.82564">
        <ele>232</ele>
        <time>2021-09-12T09:08:10.820Z</time>
      </trkpt>
      <trkpt lat="45.80784" lon="5.82572">
        <ele>232</ele>
        <time>2021-09-12T09:08:11.820Z</time>
      </trkpt>
      <trkpt lat="45.80787" lon="5.8258">
        <ele>232</ele>
        <time>2021-09-12T09:08:12.819Z</time>
      </trkpt>
      <trkpt lat="45.8079" lon="5.82588">
        <ele>232</ele>
        <time>2021-09-12T09:08:13.820Z</time>
      </trkpt>
      <trkpt lat="45.80794" lon="5.82595">
        <ele>232</ele>
        <time>2021-09-12T09:08:14.820Z</time>
      </trkpt>
      <trkpt lat="45.80797" lon="5.82602">
        <ele>232</ele>
        <time>2021-09-12T09:08:15.820Z</time>
      </trkpt>
      <trkpt lat="45.808" lon="5.8261">
        <ele>231</ele>
        <time>2021-09-12T09:08:16.820Z</time>
      </trkpt>
      <trkpt lat="45.80803" lon="5.82617">
        <ele>231</ele>
        <time>2021-09-12T09:08:17.820Z</time>
      </trkpt>
      <trkpt lat="45.80807" lon="5.82624">
        <ele>231</ele>
        <time>2021-09-12T09:08:18.820Z</time>
      </trkpt>
      <trkpt lat="45.8081" lon="5.82632">
        <ele>231</ele>
        <time>2021-09-12T09:08:19.820Z</time>
      </trkpt>
      <trkpt lat="45.80813" lon="5.82639">
        <ele>231</ele>
        <time>2021-09-12T09:08:20.820Z</time>
      </trkpt>
      <trkpt lat="45.80816" lon="5.82646">
        <ele>231</ele>
        <time>2021-09-12T09:08:21.819Z</time>
      </trkpt>
      <trkpt lat="45.80819" lon="5.82653">
        <ele>231</ele>
        <time>2021-09-12T09:08:22.820Z</time>
      </trkpt>
      <trkpt lat="45.80822" lon="5.8266">
        <ele>231</ele>
        <time>2021-09-12T09:08:23.819Z</time>
      </trkpt>
      <trkpt lat="45.80825" lon="5.82668">
        <ele>231</ele>
        <time>2021-09-12T09:08:24.819Z</time>
      </trkpt>
      <trkpt lat="45.80828" lon="5.82675">
        <ele>231</ele>
        <time>2021-09-12T09:08:25.820Z</time>
      </trkpt>
      <trkpt lat="45.80831" lon="5.82682">
        <ele>231</ele>
        <time>2021-09-12T09:08:26.820Z</time>
      </trkpt>
      <trkpt lat="45.80833" lon="5.8269">
        <ele>231</ele>
        <time>2021-09-12T09:08:27.820Z</time>
      </trkpt>
      <trkpt lat="45.80836" lon="5.82697">
        <ele>231</ele>
        <time>2021-09-12T09:08:28.819Z</time>
      </trkpt>
      <trkpt lat="45.80839" lon="5.82704">
        <ele>231</ele>
        <time>2021-09-12T09:08:29.820Z</time>
      </trkpt>
      <trkpt lat="45.80841" lon="5.82711">
        <ele>230</ele>
        <time>2021-09-12T09:08:30.820Z</time>
      </trkpt>
      <trkpt lat="45.80844" lon="5.82718">
        <ele>230</ele>
        <time>2021-09-12T09:08:31.819Z</time>
      </trkpt>
      <trkpt lat="45.80846" lon="5.82725">
        <ele>230</ele>
        <time>2021-09-12T09:08:32.819Z</time>
      </trkpt>
      <trkpt lat="45.80848" lon="5.82732">
        <ele>231</ele>
        <time>2021-09-12T09:08:33.820Z</time>
      </trkpt>
      <trkpt lat="45.8085" lon="5.82739">
        <ele>231</ele>
        <time>2021-09-12T09:08:34.820Z</time>
      </trkpt>
      <trkpt lat="45.80851" lon="5.82746">
        <ele>231</ele>
        <time>2021-09-12T09:08:35.820Z</time>
      </trkpt>
      <trkpt lat="45.80852" lon="5.82752">
        <ele>231</ele>
        <time>2021-09-12T09:08:36.819Z</time>
      </trkpt>
      <trkpt lat="45.80853" lon="5.82759">
        <ele>231</ele>
        <time>2021-09-12T09:08:37.819Z</time>
      </trkpt>
      <trkpt lat="45.80854" lon="5.82766">
        <ele>231</ele>
        <time>2021-09-12T09:08:38.819Z</time>
      </trkpt>
      <trkpt lat="45.80855" lon="5.82774">
        <ele>231</ele>
        <time>2021-09-12T09:08:39.819Z</time>
      </trkpt>
      <trkpt lat="45.80856" lon="5.82781">
        <ele>231</ele>
        <time>2021-09-12T09:08:40.820Z</time>
      </trkpt>
      <trkpt lat="45.80857" lon="5.82789">
        <ele>231</ele>
        <time>2021-09-12T09:08:41.820Z</time>
      </trkpt>
      <trkpt lat="45.80858" lon="5.82797">
        <ele>232</ele>
        <time>2021-09-12T09:08:42.819Z</time>
      </trkpt>
      <trkpt lat="45.80859" lon="5.82805">
        <ele>232</ele>
        <time>2021-09-12T09:08:43.820Z</time>
      </trkpt>
      <trkpt lat="45.80859" lon="5.82814">
        <ele>232</ele>
        <time>2021-09-12T09:08:44.820Z</time>
      </trkpt>
      <trkpt lat="45.8086" lon="5.82823">
        <ele>232</ele>
        <time>2021-09-12T09:08:45.820Z</time>
      </trkpt>
      <trkpt lat="45.80861" lon="5.82832">
        <ele>232</ele>
        <time>2021-09-12T09:08:46.820Z</time>
      </trkpt>
      <trkpt lat="45.80862" lon="5.82841">
        <ele>232</ele>
        <time>2021-09-12T09:08:47.819Z</time>
      </trkpt>
      <trkpt lat="45.80863" lon="5.8285">
        <ele>233</ele>
        <time>2021-09-12T09:08:48.820Z</time>
      </trkpt>
      <trkpt lat="45.80864" lon="5.82859">
        <ele>233</ele>
        <time>2021-09-12T09:08:49.819Z</time>
      </trkpt>
      <trkpt lat="45.80865" lon="5.82868">
        <ele>233</ele>
        <time>2021-09-12T09:08:50.820Z</time>
      </trkpt>
      <trkpt lat="45.80866" lon="5.82877">
        <ele>234</ele>
        <time>2021-09-12T09:08:51.820Z</time>
      </trkpt>
      <trkpt lat="45.80867" lon="5.82885">
        <ele>234</ele>
        <time>2021-09-12T09:08:52.819Z</time>
      </trkpt>
      <trkpt lat="45.80869" lon="5.82893">
        <ele>234</ele>
        <time>2021-09-12T09:08:53.820Z</time>
      </trkpt>
      <trkpt lat="45.8087" lon="5.82901">
        <ele>234</ele>
        <time>2021-09-12T09:08:54.820Z</time>
      </trkpt>
      <trkpt lat="45.80872" lon="5.82909">
        <ele>234</ele>
        <time>2021-09-12T09:08:55.819Z</time>
      </trkpt>
      <trkpt lat="45.80875" lon="5.82916">
        <ele>233</ele>
        <time>2021-09-12T09:08:56.820Z</time>
      </trkpt>
      <trkpt lat="45.80878" lon="5.82924">
        <ele>233</ele>
        <time>2021-09-12T09:08:57.819Z</time>
      </trkpt>
      <trkpt lat="45.80881" lon="5.82931">
        <ele>233</ele>
        <time>2021-09-12T09:08:58.819Z</time>
      </trkpt>
      <trkpt lat="45.80885" lon="5.82938">
        <ele>234</ele>
        <time>2021-09-12T09:08:59.819Z</time>
      </trkpt>
      <trkpt lat="45.80888" lon="5.82945">
        <ele>234</ele>
        <time>2021-09-12T09:09:00.819Z</time>
      </trkpt>
      <trkpt lat="45.80891" lon="5.82951">
        <ele>233</ele>
        <time>2021-09-12T09:09:01.819Z</time>
      </trkpt>
      <trkpt lat="45.80895" lon="5.82958">
        <ele>233</ele>
        <time>2021-09-12T09:09:02.820Z</time>
      </trkpt>
      <trkpt lat="45.80899" lon="5.82964">
        <ele>233</ele>
        <time>2021-09-12T09:09:03.820Z</time>
      </trkpt>
      <trkpt lat="45.80903" lon="5.8297">
        <ele>233</ele>
        <time>2021-09-12T09:09:04.819Z</time>
      </trkpt>
      <trkpt lat="45.80908" lon="5.82975">
        <ele>233</ele>
        <time>2021-09-12T09:09:05.820Z</time>
      </trkpt>
      <trkpt lat="45.80912" lon="5.82981">
        <ele>233</ele>
        <time>2021-09-12T09:09:06.820Z</time>
      </trkpt>
      <trkpt lat="45.80918" lon="5.82986">
        <ele>234</ele>
        <time>2021-09-12T09:09:07.820Z</time>
      </trkpt>
      <trkpt lat="45.80922" lon="5.82991">
        <ele>234</ele>
        <time>2021-09-12T09:09:08.819Z</time>
      </trkpt>
      <trkpt lat="45.80927" lon="5.82996">
        <ele>235</ele>
        <time>2021-09-12T09:09:09.820Z</time>
      </trkpt>
      <trkpt lat="45.80931" lon="5.83">
        <ele>235</ele>
        <time>2021-09-12T09:09:10.820Z</time>
      </trkpt>
      <trkpt lat="45.80936" lon="5.83005">
        <ele>236</ele>
        <time>2021-09-12T09:09:11.819Z</time>
      </trkpt>
      <trkpt lat="45.80942" lon="5.83009">
        <ele>237</ele>
        <time>2021-09-12T09:09:12.819Z</time>
      </trkpt>
      <trkpt lat="45.80947" lon="5.83014">
        <ele>238</ele>
        <time>2021-09-12T09:09:13.820Z</time>
      </trkpt>
      <trkpt lat="45.80952" lon="5.83018">
        <ele>238</ele>
        <time>2021-09-12T09:09:14.819Z</time>
      </trkpt>
      <trkpt lat="45.80958" lon="5.83023">
        <ele>239</ele>
        <time>2021-09-12T09:09:15.819Z</time>
      </trkpt>
      <trkpt lat="45.80962" lon="5.83026">
        <ele>239</ele>
        <time>2021-09-12T09:09:16.820Z</time>
      </trkpt>
      <trkpt lat="45.80968" lon="5.8303">
        <ele>239</ele>
        <time>2021-09-12T09:09:17.820Z</time>
      </trkpt>
      <trkpt lat="45.80973" lon="5.83034">
        <ele>240</ele>
        <time>2021-09-12T09:09:18.819Z</time>
      </trkpt>
      <trkpt lat="45.80978" lon="5.83038">
        <ele>240</ele>
        <time>2021-09-12T09:09:19.819Z</time>
      </trkpt>
      <trkpt lat="45.80984" lon="5.83043">
        <ele>241</ele>
        <time>2021-09-12T09:09:20.819Z</time>
      </trkpt>
      <trkpt lat="45.8099" lon="5.83046">
        <ele>241</ele>
        <time>2021-09-12T09:09:21.819Z</time>
      </trkpt>
      <trkpt lat="45.80996" lon="5.83048">
        <ele>242</ele>
        <time>2021-09-12T09:09:22.820Z</time>
      </trkpt>
      <trkpt lat="45.81002" lon="5.8305">
        <ele>242</ele>
        <time>2021-09-12T09:09:23.819Z</time>
      </trkpt>
      <trkpt lat="45.81008" lon="5.83051">
        <ele>242</ele>
        <time>2021-09-12T09:09:24.820Z</time>
      </trkpt>
      <trkpt lat="45.81014" lon="5.83052">
        <ele>242</ele>
        <time>2021-09-12T09:09:25.820Z</time>
      </trkpt>
      <trkpt lat="45.81021" lon="5.83052">
        <ele>243</ele>
        <time>2021-09-12T09:09:26.819Z</time>
      </trkpt>
      <trkpt lat="45.81027" lon="5.83053">
        <ele>243</ele>
        <time>2021-09-12T09:09:27.819Z</time>
      </trkpt>
      <trkpt lat="45.81033" lon="5.83054">
        <ele>243</ele>
        <time>2021-09-12T09:09:28.819Z</time>
      </trkpt>
      <trkpt lat="45.81038" lon="5.83055">
        <ele>242</ele>
        <time>2021-09-12T09:09:29.820Z</time>
      </trkpt>
      <trkpt lat="45.81044" lon="5.83057">
        <ele>241</ele>
        <time>2021-09-12T09:09:30.820Z</time>
      </trkpt>
      <trkpt lat="45.81049" lon="5.83059">
        <ele>240</ele>
        <time>2021-09-12T09:09:31.819Z</time>
      </trkpt>
      <trkpt lat="45.81055" lon="5.83063">
        <ele>240</ele>
        <time>2021-09-12T09:09:32.820Z</time>
      </trkpt>
      <trkpt lat="45.81059" lon="5.83067">
        <ele>239</ele>
        <time>2021-09-12T09:09:33.820Z</time>
      </trkpt>
      <trkpt lat="45.81063" lon="5.83071">
        <ele>239</ele>
        <time>2021-09-12T09:09:34.820Z</time>
      </trkpt>
      <trkpt lat="45.81067" lon="5.83076">
        <ele>238</ele>
        <time>2021-09-12T09:09:35.819Z</time>
      </trkpt>
      <trkpt lat="45.8107" lon="5.8308">
        <ele>237</ele>
        <time>2021-09-12T09:09:36.820Z</time>
      </trkpt>
      <trkpt lat="45.81072" lon="5.83086">
        <ele>237</ele>
        <time>2021-09-12T09:09:37.819Z</time>
      </trkpt>
      <trkpt lat="45.81074" lon="5.83092">
        <ele>236</ele>
        <time>2021-09-12T09:09:38.819Z</time>
      </trkpt>
      <trkpt lat="45.81076" lon="5.83097">
        <ele>235</ele>
        <time>2021-09-12T09:09:39.820Z</time>
      </trkpt>
      <trkpt lat="45.81077" lon="5.83103">
        <ele>234</ele>
        <time>2021-09-12T09:09:40.820Z</time>
      </trkpt>
      <trkpt lat="45.81078" lon="5.83108">
        <ele>234</ele>
        <time>2021-09-12T09:09:41.820Z</time>
      </trkpt>
      <trkpt lat="45.81078" lon="5.83113">
        <ele>234</ele>
        <time>2021-09-12T09:09:42.820Z</time>
      </trkpt>
      <trkpt lat="45.81078" lon="5.83118">
        <ele>234</ele>
        <time>2021-09-12T09:09:43.820Z</time>
      </trkpt>
      <trkpt lat="45.81078" lon="5.83122">
        <ele>233</ele>
        <time>2021-09-12T09:09:44.820Z</time>
      </trkpt>
      <trkpt lat="45.81077" lon="5.83129">
        <ele>233</ele>
        <time>2021-09-12T09:09:45.820Z</time>
      </trkpt>
      <trkpt lat="45.81077" lon="5.83134">
        <ele>233</ele>
        <time>2021-09-12T09:09:46.819Z</time>
      </trkpt>
      <trkpt lat="45.81076" lon="5.83139">
        <ele>234</ele>
        <time>2021-09-12T09:09:47.820Z</time>
      </trkpt>
      <trkpt lat="45.81076" lon="5.83144">
        <ele>234</ele>
        <time>2021-09-12T09:09:48.820Z</time>
      </trkpt>
      <trkpt lat="45.81075" lon="5.83149">
        <ele>234</ele>
        <time>2021-09-12T09:09:49.820Z</time>
      </trkpt>
      <trkpt lat="45.81075" lon="5.83154">
        <ele>235</ele>
        <time>2021-09-12T09:09:50.820Z</time>
      </trkpt>
      <trkpt lat="45.81074" lon="5.83158">
        <ele>235</ele>
        <time>2021-09-12T09:09:51.820Z</time>
      </trkpt>
      <trkpt lat="45.81073" lon="5.83163">
        <ele>236</ele>
        <time>2021-09-12T09:09:52.820Z</time>
      </trkpt>
      <trkpt lat="45.81072" lon="5.83168">
        <ele>237</ele>
        <time>2021-09-12T09:09:53.820Z</time>
      </trkpt>
      <trkpt lat="45.81071" lon="5.83173">
        <ele>237</ele>
        <time>2021-09-12T09:09:54.820Z</time>
      </trkpt>
      <trkpt lat="45.81071" lon="5.83177">
        <ele>237</ele>
        <time>2021-09-12T09:09:55.820Z</time>
      </trkpt>
      <trkpt lat="45.8107" lon="5.83181">
        <ele>238</ele>
        <time>2021-09-12T09:09:56.819Z</time>
      </trkpt>
      <trkpt lat="45.81071" lon="5.83186">
        <ele>238</ele>
        <time>2021-09-12T09:09:57.820Z</time>
      </trkpt>
      <trkpt lat="45.8107" lon="5.83189">
        <ele>238</ele>
        <time>2021-09-12T09:09:58.820Z</time>
      </trkpt>
      <trkpt lat="45.8107" lon="5.83193">
        <ele>238</ele>
        <time>2021-09-12T09:09:59.819Z</time>
      </trkpt>
      <trkpt lat="45.8107" lon="5.83197">
        <ele>239</ele>
        <time>2021-09-12T09:10:00.820Z</time>
      </trkpt>
      <trkpt lat="45.8107" lon="5.83201">
        <ele>239</ele>
        <time>2021-09-12T09:10:01.820Z</time>
      </trkpt>
      <trkpt lat="45.8107" lon="5.83204">
        <ele>239</ele>
        <time>2021-09-12T09:10:02.820Z</time>
      </trkpt>
      <trkpt lat="45.8107" lon="5.8321">
        <ele>239</ele>
        <time>2021-09-12T09:10:03.819Z</time>
      </trkpt>
      <trkpt lat="45.81071" lon="5.83215">
        <ele>239</ele>
        <time>2021-09-12T09:10:04.819Z</time>
      </trkpt>
      <trkpt lat="45.81071" lon="5.8322">
        <ele>239</ele>
        <time>2021-09-12T09:10:05.819Z</time>
      </trkpt>
      <trkpt lat="45.81072" lon="5.83224">
        <ele>239</ele>
        <time>2021-09-12T09:10:06.820Z</time>
      </trkpt>
      <trkpt lat="45.81072" lon="5.83231">
        <ele>239</ele>
        <time>2021-09-12T09:10:07.820Z</time>
      </trkpt>
      <trkpt lat="45.81072" lon="5.83237">
        <ele>238</ele>
        <time>2021-09-12T09:10:08.819Z</time>
      </trkpt>
      <trkpt lat="45.81072" lon="5.83244">
        <ele>238</ele>
        <time>2021-09-12T09:10:09.820Z</time>
      </trkpt>
      <trkpt lat="45.8107" lon="5.8325">
        <ele>239</ele>
        <time>2021-09-12T09:10:10.820Z</time>
      </trkpt>
      <trkpt lat="45.81068" lon="5.83257">
        <ele>238</ele>
        <time>2021-09-12T09:10:11.820Z</time>
      </trkpt>
      <trkpt lat="45.81064" lon="5.83263">
        <ele>238</ele>
        <time>2021-09-12T09:10:12.820Z</time>
      </trkpt>
      <trkpt lat="45.81058" lon="5.83269">
        <ele>238</ele>
        <time>2021-09-12T09:10:13.820Z</time>
      </trkpt>
      <trkpt lat="45.81053" lon="5.83275">
        <ele>238</ele>
        <time>2021-09-12T09:10:14.819Z</time>
      </trkpt>
      <trkpt lat="45.81047" lon="5.83281">
        <ele>238</ele>
        <time>2021-09-12T09:10:15.820Z</time>
      </trkpt>
      <trkpt lat="45.8104" lon="5.83288">
        <ele>237</ele>
        <time>2021-09-12T09:10:16.819Z</time>
      </trkpt>
      <trkpt lat="45.81034" lon="5.83296">
        <ele>237</ele>
        <time>2021-09-12T09:10:17.820Z</time>
      </trkpt>
      <trkpt lat="45.81027" lon="5.83303">
        <ele>237</ele>
        <time>2021-09-12T09:10:18.820Z</time>
      </trkpt>
      <trkpt lat="45.81021" lon="5.83309">
        <ele>237</ele>
        <time>2021-09-12T09:10:19.820Z</time>
      </trkpt>
      <trkpt lat="45.81012" lon="5.83317">
        <ele>237</ele>
        <time>2021-09-12T09:10:20.820Z</time>
      </trkpt>
      <trkpt lat="45.81005" lon="5.83325">
        <ele>237</ele>
        <time>2021-09-12T09:10:21.819Z</time>
      </trkpt>
      <trkpt lat="45.80998" lon="5.83332">
        <ele>236</ele>
        <time>2021-09-12T09:10:22.819Z</time>
      </trkpt>
      <trkpt lat="45.80992" lon="5.83338">
        <ele>236</ele>
        <time>2021-09-12T09:10:23.820Z</time>
      </trkpt>
      <trkpt lat="45.80985" lon="5.83345">
        <ele>236</ele>
        <time>2021-09-12T09:10:24.819Z</time>
      </trkpt>
      <trkpt lat="45.80978" lon="5.83352">
        <ele>235</ele>
        <time>2021-09-12T09:10:25.820Z</time>
      </trkpt>
      <trkpt lat="45.80972" lon="5.83358">
        <ele>234</ele>
        <time>2021-09-12T09:10:26.820Z</time>
      </trkpt>
      <trkpt lat="45.80965" lon="5.83365">
        <ele>234</ele>
        <time>2021-09-12T09:10:27.819Z</time>
      </trkpt>
      <trkpt lat="45.8096" lon="5.83371">
        <ele>233</ele>
        <time>2021-09-12T09:10:28.819Z</time>
      </trkpt>
      <trkpt lat="45.80953" lon="5.83381">
        <ele>232</ele>
        <time>2021-09-12T09:10:29.819Z</time>
      </trkpt>
      <trkpt lat="45.80948" lon="5.8339">
        <ele>232</ele>
        <time>2021-09-12T09:10:30.820Z</time>
      </trkpt>
      <trkpt lat="45.80943" lon="5.83399">
        <ele>231</ele>
        <time>2021-09-12T09:10:31.820Z</time>
      </trkpt>
      <trkpt lat="45.80938" lon="5.83409">
        <ele>231</ele>
        <time>2021-09-12T09:10:32.820Z</time>
      </trkpt>
      <trkpt lat="45.80934" lon="5.8342">
        <ele>231</ele>
        <time>2021-09-12T09:10:33.819Z</time>
      </trkpt>
      <trkpt lat="45.80931" lon="5.8343">
        <ele>231</ele>
        <time>2021-09-12T09:10:34.820Z</time>
      </trkpt>
      <trkpt lat="45.80927" lon="5.83441">
        <ele>231</ele>
        <time>2021-09-12T09:10:35.819Z</time>
      </trkpt>
      <trkpt lat="45.80924" lon="5.83451">
        <ele>231</ele>
        <time>2021-09-12T09:10:36.820Z</time>
      </trkpt>
      <trkpt lat="45.80921" lon="5.83461">
        <ele>231</ele>
        <time>2021-09-12T09:10:37.820Z</time>
      </trkpt>
      <trkpt lat="45.80918" lon="5.83471">
        <ele>231</ele>
        <time>2021-09-12T09:10:38.819Z</time>
      </trkpt>
      <trkpt lat="45.80914" lon="5.83481">
        <ele>231</ele>
        <time>2021-09-12T09:10:39.820Z</time>
      </trkpt>
      <trkpt lat="45.80912" lon="5.83491">
        <ele>231</ele>
        <time>2021-09-12T09:10:40.820Z</time>
      </trkpt>
      <trkpt lat="45.80909" lon="5.835">
        <ele>232</ele>
        <time>2021-09-12T09:10:41.820Z</time>
      </trkpt>
      <trkpt lat="45.80906" lon="5.83509">
        <ele>232</ele>
        <time>2021-09-12T09:10:42.820Z</time>
      </trkpt>
      <trkpt lat="45.80903" lon="5.83519">
        <ele>232</ele>
        <time>2021-09-12T09:10:43.820Z</time>
      </trkpt>
      <trkpt lat="45.809" lon="5.83528">
        <ele>232</ele>
        <time>2021-09-12T09:10:44.819Z</time>
      </trkpt>
      <trkpt lat="45.80897" lon="5.83537">
        <ele>232</ele>
        <time>2021-09-12T09:10:45.820Z</time>
      </trkpt>
      <trkpt lat="45.80894" lon="5.83547">
        <ele>232</ele>
        <time>2021-09-12T09:10:46.820Z</time>
      </trkpt>
      <trkpt lat="45.80891" lon="5.83555">
        <ele>232</ele>
        <time>2021-09-12T09:10:47.820Z</time>
      </trkpt>
      <trkpt lat="45.80888" lon="5.83564">
        <ele>233</ele>
        <time>2021-09-12T09:10:48.820Z</time>
      </trkpt>
      <trkpt lat="45.80885" lon="5.83573">
        <ele>233</ele>
        <time>2021-09-12T09:10:49.820Z</time>
      </trkpt>
      <trkpt lat="45.80883" lon="5.83581">
        <ele>233</ele>
        <time>2021-09-12T09:10:50.820Z</time>
      </trkpt>
      <trkpt lat="45.80879" lon="5.8359">
        <ele>233</ele>
        <time>2021-09-12T09:10:51.820Z</time>
      </trkpt>
      <trkpt lat="45.80877" lon="5.83598">
        <ele>233</ele>
        <time>2021-09-12T09:10:52.819Z</time>
      </trkpt>
      <trkpt lat="45.80874" lon="5.83607">
        <ele>233</ele>
        <time>2021-09-12T09:10:53.819Z</time>
      </trkpt>
      <trkpt lat="45.80871" lon="5.83616">
        <ele>232</ele>
        <time>2021-09-12T09:10:54.819Z</time>
      </trkpt>
      <trkpt lat="45.80868" lon="5.83624">
        <ele>232</ele>
        <time>2021-09-12T09:10:55.820Z</time>
      </trkpt>
      <trkpt lat="45.80865" lon="5.83633">
        <ele>231</ele>
        <time>2021-09-12T09:10:56.819Z</time>
      </trkpt>
      <trkpt lat="45.80863" lon="5.83639">
        <ele>231</ele>
        <time>2021-09-12T09:10:57.819Z</time>
      </trkpt>
      <trkpt lat="45.8086" lon="5.8365">
        <ele>231</ele>
        <time>2021-09-12T09:10:58.819Z</time>
      </trkpt>
      <trkpt lat="45.80858" lon="5.83656">
        <ele>231</ele>
        <time>2021-09-12T09:10:59.820Z</time>
      </trkpt>
      <trkpt lat="45.80855" lon="5.83665">
        <ele>230</ele>
        <time>2021-09-12T09:11:00.820Z</time>
      </trkpt>
      <trkpt lat="45.80852" lon="5.83673">
        <ele>230</ele>
        <time>2021-09-12T09:11:01.819Z</time>
      </trkpt>
      <trkpt lat="45.80849" lon="5.83681">
        <ele>230</ele>
        <time>2021-09-12T09:11:02.819Z</time>
      </trkpt>
      <trkpt lat="45.80846" lon="5.83691">
        <ele>230</ele>
        <time>2021-09-12T09:11:03.819Z</time>
      </trkpt>
      <trkpt lat="45.80844" lon="5.83698">
        <ele>230</ele>
        <time>2021-09-12T09:11:04.819Z</time>
      </trkpt>
      <trkpt lat="45.80841" lon="5.83706">
        <ele>229</ele>
        <time>2021-09-12T09:11:05.820Z</time>
      </trkpt>
      <trkpt lat="45.80839" lon="5.83714">
        <ele>230</ele>
        <time>2021-09-12T09:11:06.819Z</time>
      </trkpt>
      <trkpt lat="45.80836" lon="5.83722">
        <ele>230</ele>
        <time>2021-09-12T09:11:07.820Z</time>
      </trkpt>
      <trkpt lat="45.80834" lon="5.83731">
        <ele>231</ele>
        <time>2021-09-12T09:11:08.819Z</time>
      </trkpt>
      <trkpt lat="45.80831" lon="5.83739">
        <ele>231</ele>
        <time>2021-09-12T09:11:09.820Z</time>
      </trkpt>
      <trkpt lat="45.80828" lon="5.83747">
        <ele>230</ele>
        <time>2021-09-12T09:11:10.819Z</time>
      </trkpt>
      <trkpt lat="45.80825" lon="5.83756">
        <ele>230</ele>
        <time>2021-09-12T09:11:11.820Z</time>
      </trkpt>
      <trkpt lat="45.80822" lon="5.83764">
        <ele>230</ele>
        <time>2021-09-12T09:11:12.819Z</time>
      </trkpt>
      <trkpt lat="45.80819" lon="5.83772">
        <ele>230</ele>
        <time>2021-09-12T09:11:13.820Z</time>
      </trkpt>
      <trkpt lat="45.80817" lon="5.83781">
        <ele>231</ele>
        <time>2021-09-12T09:11:14.819Z</time>
      </trkpt>
      <trkpt lat="45.80814" lon="5.83789">
        <ele>231</ele>
        <time>2021-09-12T09:11:15.819Z</time>
      </trkpt>
      <trkpt lat="45.80811" lon="5.83797">
        <ele>231</ele>
        <time>2021-09-12T09:11:16.819Z</time>
      </trkpt>
      <trkpt lat="45.80808" lon="5.83807">
        <ele>232</ele>
        <time>2021-09-12T09:11:17.820Z</time>
      </trkpt>
      <trkpt lat="45.80806" lon="5.83813">
        <ele>232</ele>
        <time>2021-09-12T09:11:18.819Z</time>
      </trkpt>
      <trkpt lat="45.80803" lon="5.83822">
        <ele>231</ele>
        <time>2021-09-12T09:11:19.820Z</time>
      </trkpt>
      <trkpt lat="45.80801" lon="5.8383">
        <ele>231</ele>
        <time>2021-09-12T09:11:20.819Z</time>
      </trkpt>
      <trkpt lat="45.80798" lon="5.83838">
        <ele>232</ele>
        <time>2021-09-12T09:11:21.820Z</time>
      </trkpt>
      <trkpt lat="45.80795" lon="5.83846">
        <ele>231</ele>
        <time>2021-09-12T09:11:22.819Z</time>
      </trkpt>
      <trkpt lat="45.80793" lon="5.83853">
        <ele>231</ele>
        <time>2021-09-12T09:11:23.820Z</time>
      </trkpt>
      <trkpt lat="45.80791" lon="5.83861">
        <ele>231</ele>
        <time>2021-09-12T09:11:24.819Z</time>
      </trkpt>
      <trkpt lat="45.80788" lon="5.83869">
        <ele>231</ele>
        <time>2021-09-12T09:11:25.820Z</time>
      </trkpt>
      <trkpt lat="45.80785" lon="5.83877">
        <ele>231</ele>
        <time>2021-09-12T09:11:26.820Z</time>
      </trkpt>
      <trkpt lat="45.80783" lon="5.83885">
        <ele>231</ele>
        <time>2021-09-12T09:11:27.820Z</time>
      </trkpt>
      <trkpt lat="45.8078" lon="5.83892">
        <ele>230</ele>
        <time>2021-09-12T09:11:28.820Z</time>
      </trkpt>
      <trkpt lat="45.80777" lon="5.839">
        <ele>230</ele>
        <time>2021-09-12T09:11:29.819Z</time>
      </trkpt>
      <trkpt lat="45.80774" lon="5.83908">
        <ele>230</ele>
        <time>2021-09-12T09:11:30.820Z</time>
      </trkpt>
      <trkpt lat="45.80771" lon="5.83917">
        <ele>230</ele>
        <time>2021-09-12T09:11:31.820Z</time>
      </trkpt>
      <trkpt lat="45.80769" lon="5.83925">
        <ele>230</ele>
        <time>2021-09-12T09:11:32.820Z</time>
      </trkpt>
      <trkpt lat="45.80766" lon="5.83933">
        <ele>230</ele>
        <time>2021-09-12T09:11:33.820Z</time>
      </trkpt>
      <trkpt lat="45.80763" lon="5.83941">
        <ele>230</ele>
        <time>2021-09-12T09:11:34.820Z</time>
      </trkpt>
      <trkpt lat="45.80761" lon="5.83949">
        <ele>230</ele>
        <time>2021-09-12T09:11:35.819Z</time>
      </trkpt>
      <trkpt lat="45.80758" lon="5.83957">
        <ele>231</ele>
        <time>2021-09-12T09:11:36.819Z</time>
      </trkpt>
      <trkpt lat="45.80755" lon="5.83965">
        <ele>231</ele>
        <time>2021-09-12T09:11:37.820Z</time>
      </trkpt>
      <trkpt lat="45.80753" lon="5.83973">
        <ele>231</ele>
        <time>2021-09-12T09:11:38.820Z</time>
      </trkpt>
      <trkpt lat="45.8075" lon="5.83981">
        <ele>231</ele>
        <time>2021-09-12T09:11:39.820Z</time>
      </trkpt>
      <trkpt lat="45.80748" lon="5.83989">
        <ele>231</ele>
        <time>2021-09-12T09:11:40.820Z</time>
      </trkpt>
      <trkpt lat="45.80745" lon="5.83996">
        <ele>230</ele>
        <time>2021-09-12T09:11:41.820Z</time>
      </trkpt>
      <trkpt lat="45.80742" lon="5.84004">
        <ele>230</ele>
        <time>2021-09-12T09:11:42.819Z</time>
      </trkpt>
      <trkpt lat="45.80739" lon="5.84013">
        <ele>230</ele>
        <time>2021-09-12T09:11:43.820Z</time>
      </trkpt>
      <trkpt lat="45.80736" lon="5.84021">
        <ele>230</ele>
        <time>2021-09-12T09:11:44.819Z</time>
      </trkpt>
      <trkpt lat="45.80734" lon="5.84028">
        <ele>230</ele>
        <time>2021-09-12T09:11:45.820Z</time>
      </trkpt>
      <trkpt lat="45.80731" lon="5.84036">
        <ele>230</ele>
        <time>2021-09-12T09:11:46.820Z</time>
      </trkpt>
      <trkpt lat="45.80729" lon="5.84044">
        <ele>230</ele>
        <time>2021-09-12T09:11:47.820Z</time>
      </trkpt>
      <trkpt lat="45.80726" lon="5.84052">
        <ele>230</ele>
        <time>2021-09-12T09:11:48.820Z</time>
      </trkpt>
      <trkpt lat="45.80724" lon="5.8406">
        <ele>230</ele>
        <time>2021-09-12T09:11:49.820Z</time>
      </trkpt>
      <trkpt lat="45.80721" lon="5.84068">
        <ele>230</ele>
        <time>2021-09-12T09:11:50.820Z</time>
      </trkpt>
      <trkpt lat="45.80719" lon="5.84076">
        <ele>230</ele>
        <time>2021-09-12T09:11:51.820Z</time>
      </trkpt>
      <trkpt lat="45.80716" lon="5.84084">
        <ele>231</ele>
        <time>2021-09-12T09:11:52.820Z</time>
      </trkpt>
      <trkpt lat="45.80714" lon="5.84091">
        <ele>231</ele>
        <time>2021-09-12T09:11:53.820Z</time>
      </trkpt>
      <trkpt lat="45.80711" lon="5.84099">
        <ele>231</ele>
        <time>2021-09-12T09:11:54.820Z</time>
      </trkpt>
      <trkpt lat="45.80709" lon="5.84107">
        <ele>231</ele>
        <time>2021-09-12T09:11:55.819Z</time>
      </trkpt>
      <trkpt lat="45.80707" lon="5.84114">
        <ele>231</ele>
        <time>2021-09-12T09:11:56.820Z</time>
      </trkpt>
      <trkpt lat="45.80704" lon="5.84122">
        <ele>231</ele>
        <time>2021-09-12T09:11:57.820Z</time>
      </trkpt>
      <trkpt lat="45.80702" lon="5.8413">
        <ele>231</ele>
        <time>2021-09-12T09:11:58.819Z</time>
      </trkpt>
      <trkpt lat="45.807" lon="5.84137">
        <ele>231</ele>
        <time>2021-09-12T09:11:59.819Z</time>
      </trkpt>
      <trkpt lat="45.80698" lon="5.84144">
        <ele>231</ele>
        <time>2021-09-12T09:12:00.820Z</time>
      </trkpt>
      <trkpt lat="45.80696" lon="5.84152">
        <ele>231</ele>
        <time>2021-09-12T09:12:01.819Z</time>
      </trkpt>
      <trkpt lat="45.80695" lon="5.8416">
        <ele>231</ele>
        <time>2021-09-12T09:12:02.819Z</time>
      </trkpt>
      <trkpt lat="45.80693" lon="5.84167">
        <ele>231</ele>
        <time>2021-09-12T09:12:03.820Z</time>
      </trkpt>
      <trkpt lat="45.80691" lon="5.84175">
        <ele>232</ele>
        <time>2021-09-12T09:12:04.820Z</time>
      </trkpt>
      <trkpt lat="45.80689" lon="5.84182">
        <ele>232</ele>
        <time>2021-09-12T09:12:05.820Z</time>
      </trkpt>
      <trkpt lat="45.80687" lon="5.84189">
        <ele>232</ele>
        <time>2021-09-12T09:12:06.820Z</time>
      </trkpt>
      <trkpt lat="45.80686" lon="5.84197">
        <ele>232</ele>
        <time>2021-09-12T09:12:07.820Z</time>
      </trkpt>
      <trkpt lat="45.80684" lon="5.84204">
        <ele>233</ele>
        <time>2021-09-12T09:12:08.820Z</time>
      </trkpt>
      <trkpt lat="45.80682" lon="5.84211">
        <ele>233</ele>
        <time>2021-09-12T09:12:09.819Z</time>
      </trkpt>
      <trkpt lat="45.8068" lon="5.84218">
        <ele>233</ele>
        <time>2021-09-12T09:12:10.820Z</time>
      </trkpt>
      <trkpt lat="45.80679" lon="5.84226">
        <ele>233</ele>
        <time>2021-09-12T09:12:11.820Z</time>
      </trkpt>
      <trkpt lat="45.80677" lon="5.84234">
        <ele>233</ele>
        <time>2021-09-12T09:12:12.820Z</time>
      </trkpt>
      <trkpt lat="45.80675" lon="5.84241">
        <ele>233</ele>
        <time>2021-09-12T09:12:13.819Z</time>
      </trkpt>
      <trkpt lat="45.80673" lon="5.84249">
        <ele>232</ele>
        <time>2021-09-12T09:12:14.820Z</time>
      </trkpt>
      <trkpt lat="45.80672" lon="5.84256">
        <ele>232</ele>
        <time>2021-09-12T09:12:15.819Z</time>
      </trkpt>
      <trkpt lat="45.8067" lon="5.84264">
        <ele>232</ele>
        <time>2021-09-12T09:12:16.819Z</time>
      </trkpt>
      <trkpt lat="45.80668" lon="5.84271">
        <ele>232</ele>
        <time>2021-09-12T09:12:17.820Z</time>
      </trkpt>
      <trkpt lat="45.80666" lon="5.84279">
        <ele>233</ele>
        <time>2021-09-12T09:12:18.820Z</time>
      </trkpt>
      <trkpt lat="45.80664" lon="5.84287">
        <ele>233</ele>
        <time>2021-09-12T09:12:19.820Z</time>
      </trkpt>
      <trkpt lat="45.80662" lon="5.84294">
        <ele>233</ele>
        <time>2021-09-12T09:12:20.820Z</time>
      </trkpt>
      <trkpt lat="45.8066" lon="5.84302">
        <ele>233</ele>
        <time>2021-09-12T09:12:21.820Z</time>
      </trkpt>
      <trkpt lat="45.80658" lon="5.8431">
        <ele>233</ele>
        <time>2021-09-12T09:12:22.820Z</time>
      </trkpt>
      <trkpt lat="45.80656" lon="5.84317">
        <ele>233</ele>
        <time>2021-09-12T09:12:23.820Z</time>
      </trkpt>
      <trkpt lat="45.80654" lon="5.84325">
        <ele>233</ele>
        <time>2021-09-12T09:12:24.819Z</time>
      </trkpt>
      <trkpt lat="45.80652" lon="5.84333">
        <ele>233</ele>
        <time>2021-09-12T09:12:25.820Z</time>
      </trkpt>
      <trkpt lat="45.8065" lon="5.8434">
        <ele>233</ele>
        <time>2021-09-12T09:12:26.820Z</time>
      </trkpt>
      <trkpt lat="45.80649" lon="5.84348">
        <ele>233</ele>
        <time>2021-09-12T09:12:27.820Z</time>
      </trkpt>
      <trkpt lat="45.80647" lon="5.84355">
        <ele>233</ele>
        <time>2021-09-12T09:12:28.819Z</time>
      </trkpt>
      <trkpt lat="45.80645" lon="5.84363">
        <ele>233</ele>
        <time>2021-09-12T09:12:29.820Z</time>
      </trkpt>
      <trkpt lat="45.80643" lon="5.84371">
        <ele>233</ele>
        <time>2021-09-12T09:12:30.820Z</time>
      </trkpt>
      <trkpt lat="45.80641" lon="5.84378">
        <ele>233</ele>
        <time>2021-09-12T09:12:31.820Z</time>
      </trkpt>
      <trkpt lat="45.80639" lon="5.84386">
        <ele>234</ele>
        <time>2021-09-12T09:12:32.820Z</time>
      </trkpt>
      <trkpt lat="45.80638" lon="5.84393">
        <ele>234</ele>
        <time>2021-09-12T09:12:33.820Z</time>
      </trkpt>
      <trkpt lat="45.80636" lon="5.84401">
        <ele>234</ele>
        <time>2021-09-12T09:12:34.820Z</time>
      </trkpt>
      <trkpt lat="45.80635" lon="5.84408">
        <ele>235</ele>
        <time>2021-09-12T09:12:35.820Z</time>
      </trkpt>
      <trkpt lat="45.80633" lon="5.84416">
        <ele>235</ele>
        <time>2021-09-12T09:12:36.820Z</time>
      </trkpt>
      <trkpt lat="45.80632" lon="5.84423">
        <ele>234</ele>
        <time>2021-09-12T09:12:37.820Z</time>
      </trkpt>
      <trkpt lat="45.80631" lon="5.8443">
        <ele>234</ele>
        <time>2021-09-12T09:12:38.820Z</time>
      </trkpt>
      <trkpt lat="45.80631" lon="5.84438">
        <ele>234</ele>
        <time>2021-09-12T09:12:39.820Z</time>
      </trkpt>
      <trkpt lat="45.80631" lon="5.84445">
        <ele>235</ele>
        <time>2021-09-12T09:12:40.820Z</time>
      </trkpt>
      <trkpt lat="45.80631" lon="5.84453">
        <ele>235</ele>
        <time>2021-09-12T09:12:41.820Z</time>
      </trkpt>
      <trkpt lat="45.80631" lon="5.8446">
        <ele>236</ele>
        <time>2021-09-12T09:12:42.820Z</time>
      </trkpt>
      <trkpt lat="45.80633" lon="5.84468">
        <ele>236</ele>
        <time>2021-09-12T09:12:43.820Z</time>
      </trkpt>
      <trkpt lat="45.80634" lon="5.84475">
        <ele>237</ele>
        <time>2021-09-12T09:12:44.820Z</time>
      </trkpt>
      <trkpt lat="45.80636" lon="5.84482">
        <ele>238</ele>
        <time>2021-09-12T09:12:45.820Z</time>
      </trkpt>
      <trkpt lat="45.80639" lon="5.84489">
        <ele>238</ele>
        <time>2021-09-12T09:12:46.820Z</time>
      </trkpt>
      <trkpt lat="45.80641" lon="5.84496">
        <ele>238</ele>
        <time>2021-09-12T09:12:47.819Z</time>
      </trkpt>
      <trkpt lat="45.80643" lon="5.84502">
        <ele>237</ele>
        <time>2021-09-12T09:12:48.820Z</time>
      </trkpt>
      <trkpt lat="45.80646" lon="5.84509">
        <ele>237</ele>
        <time>2021-09-12T09:12:49.820Z</time>
      </trkpt>
      <trkpt lat="45.80649" lon="5.84516">
        <ele>237</ele>
        <time>2021-09-12T09:12:50.820Z</time>
      </trkpt>
      <trkpt lat="45.80652" lon="5.84523">
        <ele>237</ele>
        <time>2021-09-12T09:12:51.820Z</time>
      </trkpt>
      <trkpt lat="45.80655" lon="5.8453">
        <ele>237</ele>
        <time>2021-09-12T09:12:52.820Z</time>
      </trkpt>
      <trkpt lat="45.80657" lon="5.84536">
        <ele>236</ele>
        <time>2021-09-12T09:12:53.820Z</time>
      </trkpt>
      <trkpt lat="45.8066" lon="5.84543">
        <ele>236</ele>
        <time>2021-09-12T09:12:54.820Z</time>
      </trkpt>
      <trkpt lat="45.80663" lon="5.8455">
        <ele>235</ele>
        <time>2021-09-12T09:12:55.820Z</time>
      </trkpt>
      <trkpt lat="45.80666" lon="5.84557">
        <ele>235</ele>
        <time>2021-09-12T09:12:56.820Z</time>
      </trkpt>
      <trkpt lat="45.80668" lon="5.84564">
        <ele>235</ele>
        <time>2021-09-12T09:12:57.820Z</time>
      </trkpt>
      <trkpt lat="45.80671" lon="5.8457">
        <ele>234</ele>
        <time>2021-09-12T09:12:58.820Z</time>
      </trkpt>
      <trkpt lat="45.80673" lon="5.84578">
        <ele>234</ele>
        <time>2021-09-12T09:12:59.820Z</time>
      </trkpt>
      <trkpt lat="45.80675" lon="5.84585">
        <ele>234</ele>
        <time>2021-09-12T09:13:00.820Z</time>
      </trkpt>
      <trkpt lat="45.80677" lon="5.84592">
        <ele>234</ele>
        <time>2021-09-12T09:13:01.819Z</time>
      </trkpt>
      <trkpt lat="45.80678" lon="5.846">
        <ele>234</ele>
        <time>2021-09-12T09:13:02.820Z</time>
      </trkpt>
      <trkpt lat="45.80679" lon="5.84608">
        <ele>234</ele>
        <time>2021-09-12T09:13:03.820Z</time>
      </trkpt>
      <trkpt lat="45.80681" lon="5.84615">
        <ele>234</ele>
        <time>2021-09-12T09:13:04.820Z</time>
      </trkpt>
      <trkpt lat="45.80682" lon="5.84623">
        <ele>233</ele>
        <time>2021-09-12T09:13:05.820Z</time>
      </trkpt>
      <trkpt lat="45.80683" lon="5.84631">
        <ele>233</ele>
        <time>2021-09-12T09:13:06.820Z</time>
      </trkpt>
      <trkpt lat="45.80683" lon="5.84638">
        <ele>232</ele>
        <time>2021-09-12T09:13:07.819Z</time>
      </trkpt>
      <trkpt lat="45.80684" lon="5.84646">
        <ele>232</ele>
        <time>2021-09-12T09:13:08.820Z</time>
      </trkpt>
      <trkpt lat="45.80683" lon="5.84653">
        <ele>233</ele>
        <time>2021-09-12T09:13:09.820Z</time>
      </trkpt>
      <trkpt lat="45.80683" lon="5.84661">
        <ele>233</ele>
        <time>2021-09-12T09:13:10.820Z</time>
      </trkpt>
      <trkpt lat="45.80682" lon="5.84668">
        <ele>233</ele>
        <time>2021-09-12T09:13:11.820Z</time>
      </trkpt>
      <trkpt lat="45.8068" lon="5.84675">
        <ele>233</ele>
        <time>2021-09-12T09:13:12.820Z</time>
      </trkpt>
      <trkpt lat="45.80679" lon="5.84682">
        <ele>233</ele>
        <time>2021-09-12T09:13:13.820Z</time>
      </trkpt>
      <trkpt lat="45.80678" lon="5.84689">
        <ele>233</ele>
        <time>2021-09-12T09:13:14.819Z</time>
      </trkpt>
      <trkpt lat="45.80676" lon="5.84696">
        <ele>233</ele>
        <time>2021-09-12T09:13:15.820Z</time>
      </trkpt>
      <trkpt lat="45.80674" lon="5.84702">
        <ele>232</ele>
        <time>2021-09-12T09:13:16.820Z</time>
      </trkpt>
      <trkpt lat="45.8067" lon="5.84707">
        <ele>232</ele>
        <time>2021-09-12T09:13:17.820Z</time>
      </trkpt>
      <trkpt lat="45.80666" lon="5.84709">
        <ele>232</ele>
        <time>2021-09-12T09:13:18.819Z</time>
      </trkpt>
      <trkpt lat="45.80661" lon="5.84711">
        <ele>232</ele>
        <time>2021-09-12T09:13:19.820Z</time>
      </trkpt>
      <trkpt lat="45.80655" lon="5.84712">
        <ele>232</ele>
        <time>2021-09-12T09:13:20.820Z</time>
      </trkpt>
      <trkpt lat="45.8065" lon="5.84711">
        <ele>232</ele>
        <time>2021-09-12T09:13:21.820Z</time>
      </trkpt>
      <trkpt lat="45.80645" lon="5.84711">
        <ele>233</ele>
        <time>2021-09-12T09:13:22.820Z</time>
      </trkpt>
      <trkpt lat="45.8064" lon="5.84712">
        <ele>233</ele>
        <time>2021-09-12T09:13:23.820Z</time>
      </trkpt>
      <trkpt lat="45.80635" lon="5.84712">
        <ele>233</ele>
        <time>2021-09-12T09:13:24.820Z</time>
      </trkpt>
      <trkpt lat="45.80629" lon="5.84711">
        <ele>233</ele>
        <time>2021-09-12T09:13:25.820Z</time>
      </trkpt>
      <trkpt lat="45.80624" lon="5.84711">
        <ele>234</ele>
        <time>2021-09-12T09:13:26.820Z</time>
      </trkpt>
      <trkpt lat="45.8062" lon="5.84711">
        <ele>233</ele>
        <time>2021-09-12T09:13:27.820Z</time>
      </trkpt>
      <trkpt lat="45.80615" lon="5.8471">
        <ele>233</ele>
        <time>2021-09-12T09:13:28.820Z</time>
      </trkpt>
      <trkpt lat="45.8061" lon="5.8471">
        <ele>233</ele>
        <time>2021-09-12T09:13:29.820Z</time>
      </trkpt>
      <trkpt lat="45.80605" lon="5.8471">
        <ele>233</ele>
        <time>2021-09-12T09:13:30.819Z</time>
      </trkpt>
      <trkpt lat="45.80601" lon="5.8471">
        <ele>233</ele>
        <time>2021-09-12T09:13:31.819Z</time>
      </trkpt>
      <trkpt lat="45.80597" lon="5.8471">
        <ele>233</ele>
        <time>2021-09-12T09:13:32.820Z</time>
      </trkpt>
      <trkpt lat="45.80591" lon="5.8471">
        <ele>233</ele>
        <time>2021-09-12T09:13:33.820Z</time>
      </trkpt>
      <trkpt lat="45.80585" lon="5.8471">
        <ele>233</ele>
        <time>2021-09-12T09:13:34.820Z</time>
      </trkpt>
      <trkpt lat="45.80581" lon="5.8471">
        <ele>233</ele>
        <time>2021-09-12T09:13:35.819Z</time>
      </trkpt>
      <trkpt lat="45.80577" lon="5.84711">
        <ele>233</ele>
        <time>2021-09-12T09:13:36.819Z</time>
      </trkpt>
      <trkpt lat="45.80571" lon="5.84711">
        <ele>232</ele>
        <time>2021-09-12T09:13:37.820Z</time>
      </trkpt>
      <trkpt lat="45.80567" lon="5.84711">
        <ele>232</ele>
        <time>2021-09-12T09:13:38.820Z</time>
      </trkpt>
      <trkpt lat="45.80562" lon="5.8471">
        <ele>232</ele>
        <time>2021-09-12T09:13:39.820Z</time>
      </trkpt>
      <trkpt lat="45.80557" lon="5.8471">
        <ele>232</ele>
        <time>2021-09-12T09:13:40.820Z</time>
      </trkpt>
      <trkpt lat="45.80553" lon="5.8471">
        <ele>232</ele>
        <time>2021-09-12T09:13:41.820Z</time>
      </trkpt>
      <trkpt lat="45.80548" lon="5.8471">
        <ele>232</ele>
        <time>2021-09-12T09:13:42.820Z</time>
      </trkpt>
      <trkpt lat="45.80543" lon="5.8471">
        <ele>233</ele>
        <time>2021-09-12T09:13:43.820Z</time>
      </trkpt>
      <trkpt lat="45.80539" lon="5.84709">
        <ele>233</ele>
        <time>2021-09-12T09:13:44.819Z</time>
      </trkpt>
      <trkpt lat="45.80535" lon="5.84709">
        <ele>233</ele>
        <time>2021-09-12T09:13:45.820Z</time>
      </trkpt>
      <trkpt lat="45.8053" lon="5.84709">
        <ele>233</ele>
        <time>2021-09-12T09:13:46.819Z</time>
      </trkpt>
      <trkpt lat="45.80526" lon="5.84709">
        <ele>233</ele>
        <time>2021-09-12T09:13:47.820Z</time>
      </trkpt>
      <trkpt lat="45.80521" lon="5.84709">
        <ele>233</ele>
        <time>2021-09-12T09:13:58.974Z</time>
      </trkpt>
      <trkpt lat="45.80517" lon="5.8471">
        <ele>233</ele>
        <time>2021-09-12T09:14:13.831Z</time>
      </trkpt>
      <trkpt lat="45.80512" lon="5.8471">
        <ele>234</ele>
        <time>2021-09-12T09:14:14.832Z</time>
      </trkpt>
      <trkpt lat="45.80508" lon="5.8471">
        <ele>234</ele>
        <time>2021-09-12T09:14:15.832Z</time>
      </trkpt>
      <trkpt lat="45.80503" lon="5.8471">
        <ele>234</ele>
        <time>2021-09-12T09:14:16.832Z</time>
      </trkpt>
      <trkpt lat="45.80498" lon="5.8471">
        <ele>234</ele>
        <time>2021-09-12T09:14:17.831Z</time>
      </trkpt>
      <trkpt lat="45.80494" lon="5.8471">
        <ele>233</ele>
        <time>2021-09-12T09:14:18.832Z</time>
      </trkpt>
      <trkpt lat="45.80489" lon="5.84709">
        <ele>233</ele>
        <time>2021-09-12T09:14:19.832Z</time>
      </trkpt>
      <trkpt lat="45.80484" lon="5.8471">
        <ele>232</ele>
        <time>2021-09-12T09:14:20.832Z</time>
      </trkpt>
      <trkpt lat="45.8048" lon="5.8471">
        <ele>232</ele>
        <time>2021-09-12T09:14:21.832Z</time>
      </trkpt>
      <trkpt lat="45.80475" lon="5.8471">
        <ele>232</ele>
        <time>2021-09-12T09:14:22.832Z</time>
      </trkpt>
      <trkpt lat="45.8047" lon="5.8471">
        <ele>231</ele>
        <time>2021-09-12T09:14:23.832Z</time>
      </trkpt>
      <trkpt lat="45.80466" lon="5.8471">
        <ele>231</ele>
        <time>2021-09-12T09:14:24.831Z</time>
      </trkpt>
      <trkpt lat="45.80461" lon="5.84711">
        <ele>231</ele>
        <time>2021-09-12T09:14:25.832Z</time>
      </trkpt>
      <trkpt lat="45.80456" lon="5.84711">
        <ele>231</ele>
        <time>2021-09-12T09:14:26.832Z</time>
      </trkpt>
      <trkpt lat="45.80453" lon="5.84711">
        <ele>230</ele>
        <time>2021-09-12T09:14:27.832Z</time>
      </trkpt>
      <trkpt lat="45.80448" lon="5.84712">
        <ele>230</ele>
        <time>2021-09-12T09:14:28.831Z</time>
      </trkpt>
      <trkpt lat="45.80443" lon="5.84712">
        <ele>230</ele>
        <time>2021-09-12T09:14:29.832Z</time>
      </trkpt>
      <trkpt lat="45.80438" lon="5.84712">
        <ele>231</ele>
        <time>2021-09-12T09:14:30.832Z</time>
      </trkpt>
      <trkpt lat="45.80433" lon="5.84712">
        <ele>231</ele>
        <time>2021-09-12T09:14:31.831Z</time>
      </trkpt>
      <trkpt lat="45.80429" lon="5.84712">
        <ele>231</ele>
        <time>2021-09-12T09:14:32.832Z</time>
      </trkpt>
      <trkpt lat="45.80424" lon="5.84712">
        <ele>231</ele>
        <time>2021-09-12T09:14:33.832Z</time>
      </trkpt>
      <trkpt lat="45.80419" lon="5.84712">
        <ele>231</ele>
        <time>2021-09-12T09:14:34.832Z</time>
      </trkpt>
      <trkpt lat="45.80414" lon="5.84712">
        <ele>231</ele>
        <time>2021-09-12T09:14:35.831Z</time>
      </trkpt>
      <trkpt lat="45.8041" lon="5.84711">
        <ele>230</ele>
        <time>2021-09-12T09:14:36.832Z</time>
      </trkpt>
      <trkpt lat="45.80406" lon="5.84711">
        <ele>231</ele>
        <time>2021-09-12T09:14:37.832Z</time>
      </trkpt>
      <trkpt lat="45.80401" lon="5.8471">
        <ele>231</ele>
        <time>2021-09-12T09:14:38.832Z</time>
      </trkpt>
      <trkpt lat="45.80397" lon="5.84709">
        <ele>231</ele>
        <time>2021-09-12T09:14:39.832Z</time>
      </trkpt>
      <trkpt lat="45.80393" lon="5.84708">
        <ele>230</ele>
        <time>2021-09-12T09:14:40.832Z</time>
      </trkpt>
      <trkpt lat="45.80389" lon="5.84706">
        <ele>230</ele>
        <time>2021-09-12T09:14:41.832Z</time>
      </trkpt>
      <trkpt lat="45.80385" lon="5.84704">
        <ele>230</ele>
        <time>2021-09-12T09:14:42.832Z</time>
      </trkpt>
      <trkpt lat="45.80381" lon="5.84702">
        <ele>231</ele>
        <time>2021-09-12T09:14:43.832Z</time>
      </trkpt>
      <trkpt lat="45.80378" lon="5.84698">
        <ele>231</ele>
        <time>2021-09-12T09:14:44.832Z</time>
      </trkpt>
      <trkpt lat="45.80377" lon="5.84694">
        <ele>231</ele>
        <time>2021-09-12T09:14:45.832Z</time>
      </trkpt>
      <trkpt lat="45.80376" lon="5.84689">
        <ele>232</ele>
        <time>2021-09-12T09:14:46.832Z</time>
      </trkpt>
      <trkpt lat="45.80377" lon="5.84684">
        <ele>232</ele>
        <time>2021-09-12T09:14:47.831Z</time>
      </trkpt>
      <trkpt lat="45.80378" lon="5.8468">
        <ele>232</ele>
        <time>2021-09-12T09:14:48.832Z</time>
      </trkpt>
      <trkpt lat="45.8038" lon="5.84675">
        <ele>232</ele>
        <time>2021-09-12T09:14:49.832Z</time>
      </trkpt>
      <trkpt lat="45.80381" lon="5.84671">
        <ele>232</ele>
        <time>2021-09-12T09:14:50.832Z</time>
      </trkpt>
      <trkpt lat="45.80383" lon="5.84667">
        <ele>232</ele>
        <time>2021-09-12T09:14:51.832Z</time>
      </trkpt>
      <trkpt lat="45.80385" lon="5.84663">
        <ele>232</ele>
        <time>2021-09-12T09:14:52.831Z</time>
      </trkpt>
      <trkpt lat="45.80386" lon="5.8466">
        <ele>232</ele>
        <time>2021-09-12T09:14:53.832Z</time>
      </trkpt>
      <trkpt lat="45.80387" lon="5.84657">
        <ele>232</ele>
        <time>2021-09-12T09:14:54.832Z</time>
      </trkpt>
      <trkpt lat="45.80389" lon="5.84653">
        <ele>232</ele>
        <time>2021-09-12T09:14:55.832Z</time>
      </trkpt>
      <trkpt lat="45.8039" lon="5.84649">
        <ele>232</ele>
        <time>2021-09-12T09:14:56.832Z</time>
      </trkpt>
      <trkpt lat="45.80391" lon="5.84645">
        <ele>232</ele>
        <time>2021-09-12T09:14:57.832Z</time>
      </trkpt>
      <trkpt lat="45.80392" lon="5.84642">
        <ele>232</ele>
        <time>2021-09-12T09:14:58.831Z</time>
      </trkpt>
      <trkpt lat="45.80393" lon="5.84638">
        <ele>232</ele>
        <time>2021-09-12T09:14:59.832Z</time>
      </trkpt>
      <trkpt lat="45.80394" lon="5.84634">
        <ele>232</ele>
        <time>2021-09-12T09:15:00.831Z</time>
      </trkpt>
      <trkpt lat="45.80394" lon="5.84629">
        <ele>232</ele>
        <time>2021-09-12T09:15:01.832Z</time>
      </trkpt>
      <trkpt lat="45.80395" lon="5.84626">
        <ele>232</ele>
        <time>2021-09-12T09:15:02.832Z</time>
      </trkpt>
      <trkpt lat="45.80395" lon="5.84622">
        <ele>232</ele>
        <time>2021-09-12T09:15:03.831Z</time>
      </trkpt>
      <trkpt lat="45.80396" lon="5.84618">
        <ele>233</ele>
        <time>2021-09-12T09:15:04.832Z</time>
      </trkpt>
      <trkpt lat="45.80396" lon="5.84614">
        <ele>233</ele>
        <time>2021-09-12T09:15:05.832Z</time>
      </trkpt>
      <trkpt lat="45.80396" lon="5.8461">
        <ele>234</ele>
        <time>2021-09-12T09:15:06.832Z</time>
      </trkpt>
      <trkpt lat="45.80396" lon="5.84606">
        <ele>234</ele>
        <time>2021-09-12T09:15:07.831Z</time>
      </trkpt>
      <trkpt lat="45.80397" lon="5.84602">
        <ele>235</ele>
        <time>2021-09-12T09:15:08.832Z</time>
      </trkpt>
      <trkpt lat="45.80397" lon="5.84598">
        <ele>236</ele>
        <time>2021-09-12T09:15:09.831Z</time>
      </trkpt>
      <trkpt lat="45.80397" lon="5.84594">
        <ele>237</ele>
        <time>2021-09-12T09:15:10.831Z</time>
      </trkpt>
      <trkpt lat="45.80397" lon="5.8459">
        <ele>238</ele>
        <time>2021-09-12T09:15:11.832Z</time>
      </trkpt>
      <trkpt lat="45.80397" lon="5.84586">
        <ele>238</ele>
        <time>2021-09-12T09:15:12.832Z</time>
      </trkpt>
      <trkpt lat="45.80397" lon="5.84582">
        <ele>239</ele>
        <time>2021-09-12T09:15:13.831Z</time>
      </trkpt>
      <trkpt lat="45.80397" lon="5.84578">
        <ele>240</ele>
        <time>2021-09-12T09:15:14.831Z</time>
      </trkpt>
      <trkpt lat="45.80397" lon="5.84573">
        <ele>241</ele>
        <time>2021-09-12T09:15:15.832Z</time>
      </trkpt>
      <trkpt lat="45.80397" lon="5.84569">
        <ele>241</ele>
        <time>2021-09-12T09:15:16.832Z</time>
      </trkpt>
      <trkpt lat="45.80398" lon="5.84565">
        <ele>242</ele>
        <time>2021-09-12T09:15:17.831Z</time>
      </trkpt>
      <trkpt lat="45.80398" lon="5.8456">
        <ele>242</ele>
        <time>2021-09-12T09:15:18.831Z</time>
      </trkpt>
      <trkpt lat="45.80399" lon="5.84556">
        <ele>243</ele>
        <time>2021-09-12T09:15:19.832Z</time>
      </trkpt>
      <trkpt lat="45.80399" lon="5.84552">
        <ele>243</ele>
        <time>2021-09-12T09:15:20.832Z</time>
      </trkpt>
      <trkpt lat="45.804" lon="5.84547">
        <ele>242</ele>
        <time>2021-09-12T09:15:21.831Z</time>
      </trkpt>
      <trkpt lat="45.80401" lon="5.84543">
        <ele>242</ele>
        <time>2021-09-12T09:15:22.832Z</time>
      </trkpt>
      <trkpt lat="45.80402" lon="5.84538">
        <ele>242</ele>
        <time>2021-09-12T09:15:23.831Z</time>
      </trkpt>
      <trkpt lat="45.80404" lon="5.84533">
        <ele>241</ele>
        <time>2021-09-12T09:15:24.832Z</time>
      </trkpt>
      <trkpt lat="45.80405" lon="5.84529">
        <ele>241</ele>
        <time>2021-09-12T09:15:25.832Z</time>
      </trkpt>
      <trkpt lat="45.80406" lon="5.84524">
        <ele>240</ele>
        <time>2021-09-12T09:15:26.832Z</time>
      </trkpt>
      <trkpt lat="45.80407" lon="5.84519">
        <ele>240</ele>
        <time>2021-09-12T09:15:27.832Z</time>
      </trkpt>
      <trkpt lat="45.80408" lon="5.84513">
        <ele>239</ele>
        <time>2021-09-12T09:15:28.832Z</time>
      </trkpt>
      <trkpt lat="45.80409" lon="5.84508">
        <ele>239</ele>
        <time>2021-09-12T09:15:29.832Z</time>
      </trkpt>
      <trkpt lat="45.80409" lon="5.84502">
        <ele>239</ele>
        <time>2021-09-12T09:15:30.832Z</time>
      </trkpt>
      <trkpt lat="45.80409" lon="5.84496">
        <ele>239</ele>
        <time>2021-09-12T09:15:31.832Z</time>
      </trkpt>
      <trkpt lat="45.80408" lon="5.8449">
        <ele>240</ele>
        <time>2021-09-12T09:15:32.832Z</time>
      </trkpt>
      <trkpt lat="45.80405" lon="5.84485">
        <ele>240</ele>
        <time>2021-09-12T09:15:33.832Z</time>
      </trkpt>
      <trkpt lat="45.80402" lon="5.84481">
        <ele>240</ele>
        <time>2021-09-12T09:15:34.832Z</time>
      </trkpt>
      <trkpt lat="45.80398" lon="5.84478">
        <ele>240</ele>
        <time>2021-09-12T09:15:35.832Z</time>
      </trkpt>
      <trkpt lat="45.80393" lon="5.84476">
        <ele>240</ele>
        <time>2021-09-12T09:15:36.832Z</time>
      </trkpt>
      <trkpt lat="45.80388" lon="5.84474">
        <ele>240</ele>
        <time>2021-09-12T09:15:37.832Z</time>
      </trkpt>
      <trkpt lat="45.80384" lon="5.84472">
        <ele>240</ele>
        <time>2021-09-12T09:15:38.832Z</time>
      </trkpt>
      <trkpt lat="45.80379" lon="5.8447">
        <ele>239</ele>
        <time>2021-09-12T09:15:39.832Z</time>
      </trkpt>
      <trkpt lat="45.80374" lon="5.84468">
        <ele>239</ele>
        <time>2021-09-12T09:15:40.832Z</time>
      </trkpt>
      <trkpt lat="45.80369" lon="5.84465">
        <ele>239</ele>
        <time>2021-09-12T09:15:41.832Z</time>
      </trkpt>
      <trkpt lat="45.80364" lon="5.84463">
        <ele>239</ele>
        <time>2021-09-12T09:15:42.832Z</time>
      </trkpt>
      <trkpt lat="45.8036" lon="5.84461">
        <ele>238</ele>
        <time>2021-09-12T09:15:43.832Z</time>
      </trkpt>
      <trkpt lat="45.80355" lon="5.84459">
        <ele>238</ele>
        <time>2021-09-12T09:15:44.832Z</time>
      </trkpt>
      <trkpt lat="45.80351" lon="5.84457">
        <ele>238</ele>
        <time>2021-09-12T09:15:45.832Z</time>
      </trkpt>
      <trkpt lat="45.80346" lon="5.84455">
        <ele>238</ele>
        <time>2021-09-12T09:15:46.832Z</time>
      </trkpt>
      <trkpt lat="45.80342" lon="5.84453">
        <ele>238</ele>
        <time>2021-09-12T09:15:47.832Z</time>
      </trkpt>
      <trkpt lat="45.80337" lon="5.84451">
        <ele>238</ele>
        <time>2021-09-12T09:15:48.832Z</time>
      </trkpt>
      <trkpt lat="45.80332" lon="5.84449">
        <ele>238</ele>
        <time>2021-09-12T09:15:49.832Z</time>
      </trkpt>
      <trkpt lat="45.80328" lon="5.84447">
        <ele>238</ele>
        <time>2021-09-12T09:15:50.832Z</time>
      </trkpt>
      <trkpt lat="45.80323" lon="5.84445">
        <ele>238</ele>
        <time>2021-09-12T09:15:51.831Z</time>
      </trkpt>
      <trkpt lat="45.80318" lon="5.84444">
        <ele>238</ele>
        <time>2021-09-12T09:15:52.832Z</time>
      </trkpt>
      <trkpt lat="45.80313" lon="5.84442">
        <ele>238</ele>
        <time>2021-09-12T09:15:53.832Z</time>
      </trkpt>
      <trkpt lat="45.80308" lon="5.84441">
        <ele>238</ele>
        <time>2021-09-12T09:15:54.832Z</time>
      </trkpt>
      <trkpt lat="45.80303" lon="5.8444">
        <ele>239</ele>
        <time>2021-09-12T09:15:55.832Z</time>
      </trkpt>
      <trkpt lat="45.80298" lon="5.84439">
        <ele>239</ele>
        <time>2021-09-12T09:15:56.832Z</time>
      </trkpt>
      <trkpt lat="45.80294" lon="5.84438">
        <ele>239</ele>
        <time>2021-09-12T09:15:57.832Z</time>
      </trkpt>
      <trkpt lat="45.80289" lon="5.84437">
        <ele>239</ele>
        <time>2021-09-12T09:15:58.832Z</time>
      </trkpt>
      <trkpt lat="45.80284" lon="5.84436">
        <ele>239</ele>
        <time>2021-09-12T09:15:59.831Z</time>
      </trkpt>
      <trkpt lat="45.80279" lon="5.84436">
        <ele>239</ele>
        <time>2021-09-12T09:16:00.832Z</time>
      </trkpt>
      <trkpt lat="45.80274" lon="5.84435">
        <ele>238</ele>
        <time>2021-09-12T09:16:01.832Z</time>
      </trkpt>
      <trkpt lat="45.8027" lon="5.84435">
        <ele>238</ele>
        <time>2021-09-12T09:16:02.831Z</time>
      </trkpt>
      <trkpt lat="45.80265" lon="5.84434">
        <ele>238</ele>
        <time>2021-09-12T09:16:03.832Z</time>
      </trkpt>
      <trkpt lat="45.80261" lon="5.84434">
        <ele>238</ele>
        <time>2021-09-12T09:16:04.832Z</time>
      </trkpt>
      <trkpt lat="45.80257" lon="5.84433">
        <ele>237</ele>
        <time>2021-09-12T09:16:05.832Z</time>
      </trkpt>
      <trkpt lat="45.80253" lon="5.84433">
        <ele>237</ele>
        <time>2021-09-12T09:16:06.831Z</time>
      </trkpt>
      <trkpt lat="45.80249" lon="5.84432">
        <ele>237</ele>
        <time>2021-09-12T09:16:07.832Z</time>
      </trkpt>
      <trkpt lat="45.80245" lon="5.84431">
        <ele>237</ele>
        <time>2021-09-12T09:16:08.832Z</time>
      </trkpt>
      <trkpt lat="45.80241" lon="5.84431">
        <ele>236</ele>
        <time>2021-09-12T09:16:09.832Z</time>
      </trkpt>
      <trkpt lat="45.80236" lon="5.8443">
        <ele>236</ele>
        <time>2021-09-12T09:16:10.831Z</time>
      </trkpt>
      <trkpt lat="45.80233" lon="5.84429">
        <ele>236</ele>
        <time>2021-09-12T09:16:11.832Z</time>
      </trkpt>
      <trkpt lat="45.80229" lon="5.84428">
        <ele>236</ele>
        <time>2021-09-12T09:16:12.832Z</time>
      </trkpt>
      <trkpt lat="45.80225" lon="5.84428">
        <ele>236</ele>
        <time>2021-09-12T09:16:13.832Z</time>
      </trkpt>
      <trkpt lat="45.80221" lon="5.84427">
        <ele>236</ele>
        <time>2021-09-12T09:16:14.831Z</time>
      </trkpt>
      <trkpt lat="45.80218" lon="5.84426">
        <ele>235</ele>
        <time>2021-09-12T09:16:15.832Z</time>
      </trkpt>
      <trkpt lat="45.80214" lon="5.84426">
        <ele>235</ele>
        <time>2021-09-12T09:16:16.831Z</time>
      </trkpt>
      <trkpt lat="45.80211" lon="5.84426">
        <ele>234</ele>
        <time>2021-09-12T09:16:17.831Z</time>
      </trkpt>
      <trkpt lat="45.80208" lon="5.84426">
        <ele>234</ele>
        <time>2021-09-12T09:16:18.832Z</time>
      </trkpt>
      <trkpt lat="45.80204" lon="5.84425">
        <ele>235</ele>
        <time>2021-09-12T09:16:19.832Z</time>
      </trkpt>
      <trkpt lat="45.80201" lon="5.84425">
        <ele>235</ele>
        <time>2021-09-12T09:16:20.832Z</time>
      </trkpt>
      <trkpt lat="45.80198" lon="5.84425">
        <ele>235</ele>
        <time>2021-09-12T09:16:21.832Z</time>
      </trkpt>
      <trkpt lat="45.80194" lon="5.84424">
        <ele>236</ele>
        <time>2021-09-12T09:16:22.832Z</time>
      </trkpt>
      <trkpt lat="45.80191" lon="5.84424">
        <ele>236</ele>
        <time>2021-09-12T09:16:23.832Z</time>
      </trkpt>
      <trkpt lat="45.80188" lon="5.84424">
        <ele>236</ele>
        <time>2021-09-12T09:16:24.832Z</time>
      </trkpt>
      <trkpt lat="45.80185" lon="5.84425">
        <ele>236</ele>
        <time>2021-09-12T09:16:25.831Z</time>
      </trkpt>
      <trkpt lat="45.80182" lon="5.84425">
        <ele>236</ele>
        <time>2021-09-12T09:16:26.831Z</time>
      </trkpt>
      <trkpt lat="45.80179" lon="5.84425">
        <ele>236</ele>
        <time>2021-09-12T09:16:27.832Z</time>
      </trkpt>
      <trkpt lat="45.80176" lon="5.84425">
        <ele>236</ele>
        <time>2021-09-12T09:16:28.832Z</time>
      </trkpt>
      <trkpt lat="45.80172" lon="5.84424">
        <ele>237</ele>
        <time>2021-09-12T09:16:29.832Z</time>
      </trkpt>
      <trkpt lat="45.80169" lon="5.84424">
        <ele>237</ele>
        <time>2021-09-12T09:16:30.832Z</time>
      </trkpt>
      <trkpt lat="45.80166" lon="5.84424">
        <ele>237</ele>
        <time>2021-09-12T09:16:31.831Z</time>
      </trkpt>
      <trkpt lat="45.80163" lon="5.84424">
        <ele>237</ele>
        <time>2021-09-12T09:16:32.831Z</time>
      </trkpt>
      <trkpt lat="45.8016" lon="5.84424">
        <ele>238</ele>
        <time>2021-09-12T09:16:33.832Z</time>
      </trkpt>
      <trkpt lat="45.80156" lon="5.84424">
        <ele>238</ele>
        <time>2021-09-12T09:16:34.832Z</time>
      </trkpt>
      <trkpt lat="45.80153" lon="5.84424">
        <ele>239</ele>
        <time>2021-09-12T09:16:35.832Z</time>
      </trkpt>
      <trkpt lat="45.8015" lon="5.84424">
        <ele>239</ele>
        <time>2021-09-12T09:16:36.832Z</time>
      </trkpt>
      <trkpt lat="45.80146" lon="5.84424">
        <ele>239</ele>
        <time>2021-09-12T09:16:37.832Z</time>
      </trkpt>
      <trkpt lat="45.80143" lon="5.84424">
        <ele>239</ele>
        <time>2021-09-12T09:16:38.832Z</time>
      </trkpt>
      <trkpt lat="45.8014" lon="5.84424">
        <ele>239</ele>
        <time>2021-09-12T09:16:39.832Z</time>
      </trkpt>
      <trkpt lat="45.80137" lon="5.84424">
        <ele>239</ele>
        <time>2021-09-12T09:16:40.832Z</time>
      </trkpt>
      <trkpt lat="45.80134" lon="5.84425">
        <ele>239</ele>
        <time>2021-09-12T09:16:41.832Z</time>
      </trkpt>
      <trkpt lat="45.80131" lon="5.84425">
        <ele>239</ele>
        <time>2021-09-12T09:16:42.832Z</time>
      </trkpt>
      <trkpt lat="45.80128" lon="5.84425">
        <ele>239</ele>
        <time>2021-09-12T09:16:43.831Z</time>
      </trkpt>
      <trkpt lat="45.80125" lon="5.84425">
        <ele>240</ele>
        <time>2021-09-12T09:16:44.831Z</time>
      </trkpt>
      <trkpt lat="45.80122" lon="5.84424">
        <ele>239</ele>
        <time>2021-09-12T09:16:45.832Z</time>
      </trkpt>
      <trkpt lat="45.80119" lon="5.84424">
        <ele>239</ele>
        <time>2021-09-12T09:16:46.832Z</time>
      </trkpt>
      <trkpt lat="45.80116" lon="5.84424">
        <ele>239</ele>
        <time>2021-09-12T09:16:47.831Z</time>
      </trkpt>
      <trkpt lat="45.80113" lon="5.84424">
        <ele>239</ele>
        <time>2021-09-12T09:16:48.832Z</time>
      </trkpt>
      <trkpt lat="45.8011" lon="5.84424">
        <ele>239</ele>
        <time>2021-09-12T09:16:49.832Z</time>
      </trkpt>
      <trkpt lat="45.80107" lon="5.84425">
        <ele>239</ele>
        <time>2021-09-12T09:16:50.831Z</time>
      </trkpt>
      <trkpt lat="45.80105" lon="5.84425">
        <ele>238</ele>
        <time>2021-09-12T09:16:51.832Z</time>
      </trkpt>
      <trkpt lat="45.80102" lon="5.84425">
        <ele>238</ele>
        <time>2021-09-12T09:16:52.832Z</time>
      </trkpt>
      <trkpt lat="45.80099" lon="5.84425">
        <ele>238</ele>
        <time>2021-09-12T09:16:53.832Z</time>
      </trkpt>
      <trkpt lat="45.80096" lon="5.84424">
        <ele>237</ele>
        <time>2021-09-12T09:16:54.832Z</time>
      </trkpt>
      <trkpt lat="45.80094" lon="5.84424">
        <ele>237</ele>
        <time>2021-09-12T09:16:55.832Z</time>
      </trkpt>
      <trkpt lat="45.80091" lon="5.84423">
        <ele>236</ele>
        <time>2021-09-12T09:16:56.832Z</time>
      </trkpt>
      <trkpt lat="45.80088" lon="5.84422">
        <ele>237</ele>
        <time>2021-09-12T09:16:57.832Z</time>
      </trkpt>
      <trkpt lat="45.80086" lon="5.8442">
        <ele>237</ele>
        <time>2021-09-12T09:16:58.832Z</time>
      </trkpt>
      <trkpt lat="45.80083" lon="5.84419">
        <ele>237</ele>
        <time>2021-09-12T09:16:59.832Z</time>
      </trkpt>
      <trkpt lat="45.80081" lon="5.84417">
        <ele>237</ele>
        <time>2021-09-12T09:17:00.832Z</time>
      </trkpt>
      <trkpt lat="45.80079" lon="5.84415">
        <ele>238</ele>
        <time>2021-09-12T09:17:01.831Z</time>
      </trkpt>
      <trkpt lat="45.80077" lon="5.84413">
        <ele>238</ele>
        <time>2021-09-12T09:17:02.832Z</time>
      </trkpt>
      <trkpt lat="45.80075" lon="5.84411">
        <ele>238</ele>
        <time>2021-09-12T09:17:03.832Z</time>
      </trkpt>
      <trkpt lat="45.80074" lon="5.84408">
        <ele>239</ele>
        <time>2021-09-12T09:17:04.832Z</time>
      </trkpt>
      <trkpt lat="45.80072" lon="5.84404">
        <ele>239</ele>
        <time>2021-09-12T09:17:05.832Z</time>
      </trkpt>
      <trkpt lat="45.80071" lon="5.844">
        <ele>240</ele>
        <time>2021-09-12T09:17:06.832Z</time>
      </trkpt>
      <trkpt lat="45.8007" lon="5.84395">
        <ele>240</ele>
        <time>2021-09-12T09:17:07.832Z</time>
      </trkpt>
      <trkpt lat="45.80069" lon="5.84391">
        <ele>241</ele>
        <time>2021-09-12T09:17:08.832Z</time>
      </trkpt>
      <trkpt lat="45.80068" lon="5.84388">
        <ele>242</ele>
        <time>2021-09-12T09:17:09.832Z</time>
      </trkpt>
      <trkpt lat="45.80066" lon="5.84385">
        <ele>242</ele>
        <time>2021-09-12T09:17:10.831Z</time>
      </trkpt>
      <trkpt lat="45.80064" lon="5.84384">
        <ele>242</ele>
        <time>2021-09-12T09:17:11.831Z</time>
      </trkpt>
      <trkpt lat="45.80062" lon="5.84383">
        <ele>242</ele>
        <time>2021-09-12T09:17:12.832Z</time>
      </trkpt>
      <trkpt lat="45.80059" lon="5.84382">
        <ele>242</ele>
        <time>2021-09-12T09:17:13.831Z</time>
      </trkpt>
      <trkpt lat="45.80057" lon="5.84381">
        <ele>242</ele>
        <time>2021-09-12T09:17:14.831Z</time>
      </trkpt>
      <trkpt lat="45.80055" lon="5.84381">
        <ele>242</ele>
        <time>2021-09-12T09:17:15.832Z</time>
      </trkpt>
      <trkpt lat="45.80052" lon="5.8438">
        <ele>242</ele>
        <time>2021-09-12T09:17:16.832Z</time>
      </trkpt>
      <trkpt lat="45.8005" lon="5.84379">
        <ele>242</ele>
        <time>2021-09-12T09:17:17.832Z</time>
      </trkpt>
      <trkpt lat="45.80048" lon="5.84379">
        <ele>242</ele>
        <time>2021-09-12T09:17:18.832Z</time>
      </trkpt>
      <trkpt lat="45.80046" lon="5.84377">
        <ele>242</ele>
        <time>2021-09-12T09:17:19.831Z</time>
      </trkpt>
      <trkpt lat="45.80043" lon="5.84376">
        <ele>242</ele>
        <time>2021-09-12T09:17:20.832Z</time>
      </trkpt>
      <trkpt lat="45.8004" lon="5.84375">
        <ele>242</ele>
        <time>2021-09-12T09:17:21.832Z</time>
      </trkpt>
      <trkpt lat="45.80036" lon="5.84373">
        <ele>241</ele>
        <time>2021-09-12T09:17:22.832Z</time>
      </trkpt>
      <trkpt lat="45.80033" lon="5.84372">
        <ele>241</ele>
        <time>2021-09-12T09:17:23.832Z</time>
      </trkpt>
      <trkpt lat="45.80029" lon="5.8437">
        <ele>241</ele>
        <time>2021-09-12T09:17:24.832Z</time>
      </trkpt>
      <trkpt lat="45.80025" lon="5.84368">
        <ele>241</ele>
        <time>2021-09-12T09:17:25.831Z</time>
      </trkpt>
      <trkpt lat="45.80021" lon="5.84367">
        <ele>241</ele>
        <time>2021-09-12T09:17:26.832Z</time>
      </trkpt>
      <trkpt lat="45.80017" lon="5.84366">
        <ele>241</ele>
        <time>2021-09-12T09:17:27.832Z</time>
      </trkpt>
      <trkpt lat="45.80014" lon="5.84365">
        <ele>240</ele>
        <time>2021-09-12T09:17:28.831Z</time>
      </trkpt>
      <trkpt lat="45.80011" lon="5.84365">
        <ele>240</ele>
        <time>2021-09-12T09:17:29.832Z</time>
      </trkpt>
      <trkpt lat="45.80008" lon="5.84364">
        <ele>240</ele>
        <time>2021-09-12T09:17:30.832Z</time>
      </trkpt>
      <trkpt lat="45.80006" lon="5.84363">
        <ele>240</ele>
        <time>2021-09-12T09:17:31.831Z</time>
      </trkpt>
      <trkpt lat="45.80004" lon="5.84363">
        <ele>239</ele>
        <time>2021-09-12T09:17:32.832Z</time>
      </trkpt>
      <trkpt lat="45.80002" lon="5.84362">
        <ele>239</ele>
        <time>2021-09-12T09:17:33.832Z</time>
      </trkpt>
      <trkpt lat="45.8" lon="5.84363">
        <ele>239</ele>
        <time>2021-09-12T09:17:34.832Z</time>
      </trkpt>
      <trkpt lat="45.79999" lon="5.84364">
        <ele>238</ele>
        <time>2021-09-12T09:17:35.832Z</time>
      </trkpt>
      <trkpt lat="45.79998" lon="5.84367">
        <ele>238</ele>
        <time>2021-09-12T09:17:36.831Z</time>
      </trkpt>
      <trkpt lat="45.79998" lon="5.84369">
        <ele>238</ele>
        <time>2021-09-12T09:17:37.832Z</time>
      </trkpt>
      <trkpt lat="45.79998" lon="5.84371">
        <ele>238</ele>
        <time>2021-09-12T09:17:38.832Z</time>
      </trkpt>
      <trkpt lat="45.79999" lon="5.84373">
        <ele>238</ele>
        <time>2021-09-12T09:17:39.832Z</time>
      </trkpt>
      <trkpt lat="45.79999" lon="5.84374">
        <ele>238</ele>
        <time>2021-09-12T09:17:40.832Z</time>
      </trkpt>
      <trkpt lat="45.79999" lon="5.84375">
        <ele>238</ele>
        <time>2021-09-12T09:17:41.832Z</time>
      </trkpt>
      <trkpt lat="45.79999" lon="5.84375">
        <ele>238</ele>
        <time>2021-09-12T09:17:42.831Z</time>
      </trkpt>
      <trkpt lat="45.79999" lon="5.84375">
        <ele>238</ele>
        <time>2021-09-12T09:18:04.960Z</time>
      </trkpt>
      <trkpt lat="45.79999" lon="5.84383">
        <ele>232</ele>
        <time>2021-09-12T09:18:05.961Z</time>
      </trkpt>
      <trkpt lat="45.79998" lon="5.84387">
        <ele>232</ele>
        <time>2021-09-12T09:18:06.961Z</time>
      </trkpt>
      <trkpt lat="45.79997" lon="5.84391">
        <ele>231</ele>
        <time>2021-09-12T09:18:07.960Z</time>
      </trkpt>
      <trkpt lat="45.79997" lon="5.84395">
        <ele>231</ele>
        <time>2021-09-12T09:18:08.961Z</time>
      </trkpt>
      <trkpt lat="45.79997" lon="5.84399">
        <ele>231</ele>
        <time>2021-09-12T09:18:09.961Z</time>
      </trkpt>
      <trkpt lat="45.79998" lon="5.84403">
        <ele>231</ele>
        <time>2021-09-12T09:18:10.960Z</time>
      </trkpt>
      <trkpt lat="45.79998" lon="5.84408">
        <ele>231</ele>
        <time>2021-09-12T09:18:11.961Z</time>
      </trkpt>
      <trkpt lat="45.79999" lon="5.84412">
        <ele>231</ele>
        <time>2021-09-12T09:18:12.961Z</time>
      </trkpt>
      <trkpt lat="45.79999" lon="5.84416">
        <ele>231</ele>
        <time>2021-09-12T09:18:13.961Z</time>
      </trkpt>
      <trkpt lat="45.8" lon="5.8442">
        <ele>231</ele>
        <time>2021-09-12T09:18:14.960Z</time>
      </trkpt>
      <trkpt lat="45.8" lon="5.84424">
        <ele>231</ele>
        <time>2021-09-12T09:18:15.961Z</time>
      </trkpt>
      <trkpt lat="45.8" lon="5.84428">
        <ele>232</ele>
        <time>2021-09-12T09:18:16.960Z</time>
      </trkpt>
      <trkpt lat="45.8" lon="5.84432">
        <ele>232</ele>
        <time>2021-09-12T09:18:17.960Z</time>
      </trkpt>
      <trkpt lat="45.8" lon="5.84435">
        <ele>232</ele>
        <time>2021-09-12T09:18:18.961Z</time>
      </trkpt>
      <trkpt lat="45.8" lon="5.84439">
        <ele>232</ele>
        <time>2021-09-12T09:18:19.961Z</time>
      </trkpt>
      <trkpt lat="45.8" lon="5.84442">
        <ele>233</ele>
        <time>2021-09-12T09:18:20.961Z</time>
      </trkpt>
      <trkpt lat="45.8" lon="5.84446">
        <ele>233</ele>
        <time>2021-09-12T09:18:21.961Z</time>
      </trkpt>
      <trkpt lat="45.79999" lon="5.84449">
        <ele>233</ele>
        <time>2021-09-12T09:18:22.961Z</time>
      </trkpt>
      <trkpt lat="45.79998" lon="5.84452">
        <ele>234</ele>
        <time>2021-09-12T09:18:23.961Z</time>
      </trkpt>
      <trkpt lat="45.79997" lon="5.84454">
        <ele>234</ele>
        <time>2021-09-12T09:18:24.961Z</time>
      </trkpt>
      <trkpt lat="45.79994" lon="5.84456">
        <ele>234</ele>
        <time>2021-09-12T09:18:25.960Z</time>
      </trkpt>
      <trkpt lat="45.79992" lon="5.84456">
        <ele>234</ele>
        <time>2021-09-12T09:18:26.961Z</time>
      </trkpt>
      <trkpt lat="45.79989" lon="5.84456">
        <ele>233</ele>
        <time>2021-09-12T09:18:27.961Z</time>
      </trkpt>
      <trkpt lat="45.79986" lon="5.84456">
        <ele>234</ele>
        <time>2021-09-12T09:18:28.961Z</time>
      </trkpt>
      <trkpt lat="45.79984" lon="5.84456">
        <ele>234</ele>
        <time>2021-09-12T09:18:29.961Z</time>
      </trkpt>
      <trkpt lat="45.79981" lon="5.84455">
        <ele>234</ele>
        <time>2021-09-12T09:18:30.961Z</time>
      </trkpt>
      <trkpt lat="45.79977" lon="5.84454">
        <ele>234</ele>
        <time>2021-09-12T09:18:31.961Z</time>
      </trkpt>
      <trkpt lat="45.79975" lon="5.84453">
        <ele>234</ele>
        <time>2021-09-12T09:18:32.961Z</time>
      </trkpt>
      <trkpt lat="45.79973" lon="5.84452">
        <ele>234</ele>
        <time>2021-09-12T09:18:33.961Z</time>
      </trkpt>
      <trkpt lat="45.7997" lon="5.84452">
        <ele>233</ele>
        <time>2021-09-12T09:18:34.961Z</time>
      </trkpt>
      <trkpt lat="45.79967" lon="5.84451">
        <ele>233</ele>
        <time>2021-09-12T09:18:35.961Z</time>
      </trkpt>
      <trkpt lat="45.79965" lon="5.8445">
        <ele>233</ele>
        <time>2021-09-12T09:18:36.961Z</time>
      </trkpt>
      <trkpt lat="45.79963" lon="5.8445">
        <ele>234</ele>
        <time>2021-09-12T09:18:37.961Z</time>
      </trkpt>
      <trkpt lat="45.7996" lon="5.84449">
        <ele>234</ele>
        <time>2021-09-12T09:18:38.961Z</time>
      </trkpt>
      <trkpt lat="45.79958" lon="5.84449">
        <ele>234</ele>
        <time>2021-09-12T09:18:39.961Z</time>
      </trkpt>
      <trkpt lat="45.79955" lon="5.84447">
        <ele>234</ele>
        <time>2021-09-12T09:18:40.961Z</time>
      </trkpt>
      <trkpt lat="45.79954" lon="5.84447">
        <ele>235</ele>
        <time>2021-09-12T09:18:41.961Z</time>
      </trkpt>
      <trkpt lat="45.79953" lon="5.84446">
        <ele>235</ele>
        <time>2021-09-12T09:18:42.961Z</time>
      </trkpt>
      <trkpt lat="45.79953" lon="5.84446">
        <ele>236</ele>
        <time>2021-09-12T09:18:43.961Z</time>
      </trkpt>
      <trkpt lat="45.79953" lon="5.84447">
        <ele>236</ele>
        <time>2021-09-12T09:18:44.961Z</time>
      </trkpt>
      <trkpt lat="45.79954" lon="5.84447">
        <ele>236</ele>
        <time>2021-09-12T09:18:45.961Z</time>
      </trkpt>
      <trkpt lat="45.79954" lon="5.84447">
        <ele>236</ele>
        <time>2021-09-12T09:18:46.960Z</time>
      </trkpt>
      <trkpt lat="45.79955" lon="5.84447">
        <ele>236</ele>
        <time>2021-09-12T09:18:47.960Z</time>
      </trkpt>
      <trkpt lat="45.79951" lon="5.84438">
        <ele>236</ele>
        <time>2021-09-12T09:18:48.961Z</time>
      </trkpt>
      <trkpt lat="45.79948" lon="5.84436">
        <ele>236</ele>
        <time>2021-09-12T09:18:49.961Z</time>
      </trkpt>
      <trkpt lat="45.79948" lon="5.84436">
        <ele>236</ele>
        <time>2021-09-12T09:18:50.961Z</time>
      </trkpt>
      <trkpt lat="45.79953" lon="5.84439">
        <ele>234</ele>
        <time>2021-09-12T09:18:51.960Z</time>
      </trkpt>
      <trkpt lat="45.79953" lon="5.84439">
        <ele>234</ele>
        <time>2021-09-12T09:18:52.960Z</time>
      </trkpt>
      <trkpt lat="45.79953" lon="5.84441">
        <ele>237</ele>
        <time>2021-09-12T09:18:53.962Z</time>
      </trkpt>
      <trkpt lat="45.79958" lon="5.84441">
        <ele>241</ele>
        <time>2021-09-12T09:18:54.961Z</time>
      </trkpt>
      <trkpt lat="45.79961" lon="5.84441">
        <ele>241</ele>
        <time>2021-09-12T09:18:55.961Z</time>
      </trkpt>
      <trkpt lat="45.79964" lon="5.84442">
        <ele>241</ele>
        <time>2021-09-12T09:18:56.961Z</time>
      </trkpt>
      <trkpt lat="45.79966" lon="5.84443">
        <ele>242</ele>
        <time>2021-09-12T09:18:57.961Z</time>
      </trkpt>
      <trkpt lat="45.79969" lon="5.84444">
        <ele>242</ele>
        <time>2021-09-12T09:18:58.961Z</time>
      </trkpt>
      <trkpt lat="45.79971" lon="5.84445">
        <ele>242</ele>
        <time>2021-09-12T09:18:59.961Z</time>
      </trkpt>
      <trkpt lat="45.79974" lon="5.84446">
        <ele>241</ele>
        <time>2021-09-12T09:19:00.961Z</time>
      </trkpt>
      <trkpt lat="45.79976" lon="5.84447">
        <ele>241</ele>
        <time>2021-09-12T09:19:01.961Z</time>
      </trkpt>
      <trkpt lat="45.79977" lon="5.84448">
        <ele>241</ele>
        <time>2021-09-12T09:19:02.961Z</time>
      </trkpt>
      <trkpt lat="45.79978" lon="5.84448">
        <ele>241</ele>
        <time>2021-09-12T09:19:03.961Z</time>
      </trkpt>
      <trkpt lat="45.79979" lon="5.84449">
        <ele>241</ele>
        <time>2021-09-12T09:19:04.961Z</time>
      </trkpt>
      <trkpt lat="45.79979" lon="5.84449">
        <ele>241</ele>
        <time>2021-09-12T09:19:05.961Z</time>
      </trkpt>
      <trkpt lat="45.7998" lon="5.84449">
        <ele>242</ele>
        <time>2021-09-12T09:19:06.961Z</time>
      </trkpt>
      <trkpt lat="45.79981" lon="5.84449">
        <ele>242</ele>
        <time>2021-09-12T09:19:07.961Z</time>
      </trkpt>
      <trkpt lat="45.79982" lon="5.8445">
        <ele>241</ele>
        <time>2021-09-12T09:19:08.961Z</time>
      </trkpt>
      <trkpt lat="45.79984" lon="5.8445">
        <ele>241</ele>
        <time>2021-09-12T09:19:09.961Z</time>
      </trkpt>
      <trkpt lat="45.79985" lon="5.8445">
        <ele>241</ele>
        <time>2021-09-12T09:19:10.961Z</time>
      </trkpt>
      <trkpt lat="45.79986" lon="5.8445">
        <ele>241</ele>
        <time>2021-09-12T09:19:11.961Z</time>
      </trkpt>
      <trkpt lat="45.79987" lon="5.8445">
        <ele>241</ele>
        <time>2021-09-12T09:19:12.961Z</time>
      </trkpt>
      <trkpt lat="45.79988" lon="5.84451">
        <ele>241</ele>
        <time>2021-09-12T09:19:13.961Z</time>
      </trkpt>
      <trkpt lat="45.79989" lon="5.84451">
        <ele>241</ele>
        <time>2021-09-12T09:19:14.961Z</time>
      </trkpt>
      <trkpt lat="45.7999" lon="5.84451">
        <ele>241</ele>
        <time>2021-09-12T09:19:15.961Z</time>
      </trkpt>
      <trkpt lat="45.79991" lon="5.84451">
        <ele>241</ele>
        <time>2021-09-12T09:19:16.961Z</time>
      </trkpt>
      <trkpt lat="45.79992" lon="5.84451">
        <ele>241</ele>
        <time>2021-09-12T09:19:17.961Z</time>
      </trkpt>
      <trkpt lat="45.79993" lon="5.84451">
        <ele>241</ele>
        <time>2021-09-12T09:19:18.961Z</time>
      </trkpt>
      <trkpt lat="45.79994" lon="5.84452">
        <ele>241</ele>
        <time>2021-09-12T09:19:19.961Z</time>
      </trkpt>
      <trkpt lat="45.79996" lon="5.84451">
        <ele>240</ele>
        <time>2021-09-12T09:19:20.961Z</time>
      </trkpt>
      <trkpt lat="45.79997" lon="5.84451">
        <ele>240</ele>
        <time>2021-09-12T09:19:21.961Z</time>
      </trkpt>
      <trkpt lat="45.79998" lon="5.8445">
        <ele>239</ele>
        <time>2021-09-12T09:19:22.961Z</time>
      </trkpt>
      <trkpt lat="45.79999" lon="5.84449">
        <ele>239</ele>
        <time>2021-09-12T09:19:23.961Z</time>
      </trkpt>
      <trkpt lat="45.79999" lon="5.8445">
        <ele>239</ele>
        <time>2021-09-12T09:19:24.961Z</time>
      </trkpt>
      <trkpt lat="45.79999" lon="5.84449">
        <ele>239</ele>
        <time>2021-09-12T09:19:25.961Z</time>
      </trkpt>
      <trkpt lat="45.79996" lon="5.84442">
        <ele>253</ele>
        <time>2021-09-12T09:19:26.962Z</time>
      </trkpt>
      <trkpt lat="45.79996" lon="5.84438">
        <ele>253</ele>
        <time>2021-09-12T09:19:27.961Z</time>
      </trkpt>
      <trkpt lat="45.79996" lon="5.84435">
        <ele>252</ele>
        <time>2021-09-12T09:19:28.961Z</time>
      </trkpt>
      <trkpt lat="45.79996" lon="5.84432">
        <ele>252</ele>
        <time>2021-09-12T09:19:29.961Z</time>
      </trkpt>
      <trkpt lat="45.79996" lon="5.84429">
        <ele>251</ele>
        <time>2021-09-12T09:19:30.961Z</time>
      </trkpt>
      <trkpt lat="45.79996" lon="5.84426">
        <ele>250</ele>
        <time>2021-09-12T09:19:31.962Z</time>
      </trkpt>
      <trkpt lat="45.79995" lon="5.84424">
        <ele>250</ele>
        <time>2021-09-12T09:19:32.961Z</time>
      </trkpt>
      <trkpt lat="45.79995" lon="5.84422">
        <ele>249</ele>
        <time>2021-09-12T09:19:33.961Z</time>
      </trkpt>
      <trkpt lat="45.79995" lon="5.8442">
        <ele>248</ele>
        <time>2021-09-12T09:19:34.961Z</time>
      </trkpt>
      <trkpt lat="45.79995" lon="5.84419">
        <ele>247</ele>
        <time>2021-09-12T09:19:35.961Z</time>
      </trkpt>
      <trkpt lat="45.79995" lon="5.84418">
        <ele>246</ele>
        <time>2021-09-12T09:19:36.961Z</time>
      </trkpt>
      <trkpt lat="45.79995" lon="5.84416">
        <ele>246</ele>
        <time>2021-09-12T09:19:37.962Z</time>
      </trkpt>
      <trkpt lat="45.79995" lon="5.84415">
        <ele>245</ele>
        <time>2021-09-12T09:19:38.962Z</time>
      </trkpt>
      <trkpt lat="45.79994" lon="5.84414">
        <ele>245</ele>
        <time>2021-09-12T09:19:39.962Z</time>
      </trkpt>
      <trkpt lat="45.79994" lon="5.84412">
        <ele>245</ele>
        <time>2021-09-12T09:19:40.962Z</time>
      </trkpt>
      <trkpt lat="45.79994" lon="5.8441">
        <ele>245</ele>
        <time>2021-09-12T09:19:41.962Z</time>
      </trkpt>
      <trkpt lat="45.79993" lon="5.84408">
        <ele>245</ele>
        <time>2021-09-12T09:19:42.962Z</time>
      </trkpt>
      <trkpt lat="45.79993" lon="5.84405">
        <ele>246</ele>
        <time>2021-09-12T09:19:43.962Z</time>
      </trkpt>
      <trkpt lat="45.79993" lon="5.84403">
        <ele>246</ele>
        <time>2021-09-12T09:19:44.962Z</time>
      </trkpt>
      <trkpt lat="45.79993" lon="5.84401">
        <ele>246</ele>
        <time>2021-09-12T09:19:45.962Z</time>
      </trkpt>
      <trkpt lat="45.79993" lon="5.84399">
        <ele>246</ele>
        <time>2021-09-12T09:19:46.962Z</time>
      </trkpt>
      <trkpt lat="45.79993" lon="5.84397">
        <ele>245</ele>
        <time>2021-09-12T09:19:47.962Z</time>
      </trkpt>
      <trkpt lat="45.79993" lon="5.84395">
        <ele>245</ele>
        <time>2021-09-12T09:19:48.962Z</time>
      </trkpt>
      <trkpt lat="45.79993" lon="5.84393">
        <ele>244</ele>
        <time>2021-09-12T09:19:49.962Z</time>
      </trkpt>
      <trkpt lat="45.79993" lon="5.8439">
        <ele>244</ele>
        <time>2021-09-12T09:19:50.961Z</time>
      </trkpt>
      <trkpt lat="45.79994" lon="5.84388">
        <ele>244</ele>
        <time>2021-09-12T09:19:51.962Z</time>
      </trkpt>
      <trkpt lat="45.79996" lon="5.84385">
        <ele>244</ele>
        <time>2021-09-12T09:19:52.962Z</time>
      </trkpt>
      <trkpt lat="45.79997" lon="5.84383">
        <ele>245</ele>
        <time>2021-09-12T09:19:53.962Z</time>
      </trkpt>
      <trkpt lat="45.79998" lon="5.84381">
        <ele>244</ele>
        <time>2021-09-12T09:19:54.962Z</time>
      </trkpt>
      <trkpt lat="45.79999" lon="5.84378">
        <ele>244</ele>
        <time>2021-09-12T09:19:55.961Z</time>
      </trkpt>
      <trkpt lat="45.80001" lon="5.84376">
        <ele>243</ele>
        <time>2021-09-12T09:19:56.962Z</time>
      </trkpt>
      <trkpt lat="45.80003" lon="5.84376">
        <ele>243</ele>
        <time>2021-09-12T09:19:57.962Z</time>
      </trkpt>
      <trkpt lat="45.80004" lon="5.84375">
        <ele>243</ele>
        <time>2021-09-12T09:19:58.962Z</time>
      </trkpt>
      <trkpt lat="45.80007" lon="5.84376">
        <ele>243</ele>
        <time>2021-09-12T09:19:59.961Z</time>
      </trkpt>
      <trkpt lat="45.80009" lon="5.84376">
        <ele>242</ele>
        <time>2021-09-12T09:20:00.961Z</time>
      </trkpt>
      <trkpt lat="45.80011" lon="5.84376">
        <ele>242</ele>
        <time>2021-09-12T09:20:01.961Z</time>
      </trkpt>
      <trkpt lat="45.80013" lon="5.84377">
        <ele>242</ele>
        <time>2021-09-12T09:20:02.962Z</time>
      </trkpt>
      <trkpt lat="45.80015" lon="5.84377">
        <ele>242</ele>
        <time>2021-09-12T09:20:03.961Z</time>
      </trkpt>
      <trkpt lat="45.80017" lon="5.84378">
        <ele>242</ele>
        <time>2021-09-12T09:20:04.962Z</time>
      </trkpt>
      <trkpt lat="45.80019" lon="5.84379">
        <ele>242</ele>
        <time>2021-09-12T09:20:05.961Z</time>
      </trkpt>
      <trkpt lat="45.80021" lon="5.8438">
        <ele>242</ele>
        <time>2021-09-12T09:20:06.962Z</time>
      </trkpt>
      <trkpt lat="45.80022" lon="5.8438">
        <ele>242</ele>
        <time>2021-09-12T09:20:07.962Z</time>
      </trkpt>
      <trkpt lat="45.80024" lon="5.84381">
        <ele>242</ele>
        <time>2021-09-12T09:20:08.961Z</time>
      </trkpt>
      <trkpt lat="45.80026" lon="5.84382">
        <ele>242</ele>
        <time>2021-09-12T09:20:09.962Z</time>
      </trkpt>
      <trkpt lat="45.80028" lon="5.84382">
        <ele>242</ele>
        <time>2021-09-12T09:20:10.961Z</time>
      </trkpt>
      <trkpt lat="45.80029" lon="5.84383">
        <ele>242</ele>
        <time>2021-09-12T09:20:11.961Z</time>
      </trkpt>
      <trkpt lat="45.80031" lon="5.84383">
        <ele>242</ele>
        <time>2021-09-12T09:20:12.961Z</time>
      </trkpt>
      <trkpt lat="45.80033" lon="5.84384">
        <ele>242</ele>
        <time>2021-09-12T09:20:13.962Z</time>
      </trkpt>
      <trkpt lat="45.80035" lon="5.84384">
        <ele>242</ele>
        <time>2021-09-12T09:20:14.962Z</time>
      </trkpt>
      <trkpt lat="45.80036" lon="5.84385">
        <ele>241</ele>
        <time>2021-09-12T09:20:15.962Z</time>
      </trkpt>
      <trkpt lat="45.80038" lon="5.84386">
        <ele>241</ele>
        <time>2021-09-12T09:20:16.962Z</time>
      </trkpt>
      <trkpt lat="45.8004" lon="5.84387">
        <ele>242</ele>
        <time>2021-09-12T09:20:17.961Z</time>
      </trkpt>
      <trkpt lat="45.80041" lon="5.84388">
        <ele>242</ele>
        <time>2021-09-12T09:20:18.962Z</time>
      </trkpt>
      <trkpt lat="45.80043" lon="5.84388">
        <ele>242</ele>
        <time>2021-09-12T09:20:19.962Z</time>
      </trkpt>
      <trkpt lat="45.80044" lon="5.84389">
        <ele>242</ele>
        <time>2021-09-12T09:20:20.962Z</time>
      </trkpt>
      <trkpt lat="45.80045" lon="5.8439">
        <ele>242</ele>
        <time>2021-09-12T09:20:21.962Z</time>
      </trkpt>
      <trkpt lat="45.80047" lon="5.8439">
        <ele>242</ele>
        <time>2021-09-12T09:20:22.962Z</time>
      </trkpt>
      <trkpt lat="45.80048" lon="5.8439">
        <ele>242</ele>
        <time>2021-09-12T09:20:23.962Z</time>
      </trkpt>
      <trkpt lat="45.80049" lon="5.8439">
        <ele>243</ele>
        <time>2021-09-12T09:20:24.962Z</time>
      </trkpt>
      <trkpt lat="45.80051" lon="5.8439">
        <ele>242</ele>
        <time>2021-09-12T09:20:25.961Z</time>
      </trkpt>
      <trkpt lat="45.80053" lon="5.8439">
        <ele>242</ele>
        <time>2021-09-12T09:20:26.962Z</time>
      </trkpt>
      <trkpt lat="45.80055" lon="5.8439">
        <ele>242</ele>
        <time>2021-09-12T09:20:27.961Z</time>
      </trkpt>
      <trkpt lat="45.80056" lon="5.84391">
        <ele>243</ele>
        <time>2021-09-12T09:20:28.962Z</time>
      </trkpt>
      <trkpt lat="45.80058" lon="5.84392">
        <ele>243</ele>
        <time>2021-09-12T09:20:29.962Z</time>
      </trkpt>
      <trkpt lat="45.80059" lon="5.84394">
        <ele>243</ele>
        <time>2021-09-12T09:20:30.962Z</time>
      </trkpt>
      <trkpt lat="45.8006" lon="5.84396">
        <ele>243</ele>
        <time>2021-09-12T09:20:31.962Z</time>
      </trkpt>
      <trkpt lat="45.80061" lon="5.84398">
        <ele>243</ele>
        <time>2021-09-12T09:20:32.962Z</time>
      </trkpt>
      <trkpt lat="45.80063" lon="5.844">
        <ele>243</ele>
        <time>2021-09-12T09:20:33.961Z</time>
      </trkpt>
      <trkpt lat="45.80064" lon="5.84401">
        <ele>243</ele>
        <time>2021-09-12T09:20:34.962Z</time>
      </trkpt>
      <trkpt lat="45.80066" lon="5.84403">
        <ele>244</ele>
        <time>2021-09-12T09:20:35.962Z</time>
      </trkpt>
      <trkpt lat="45.80068" lon="5.84404">
        <ele>244</ele>
        <time>2021-09-12T09:20:36.962Z</time>
      </trkpt>
      <trkpt lat="45.8007" lon="5.84406">
        <ele>244</ele>
        <time>2021-09-12T09:20:37.961Z</time>
      </trkpt>
      <trkpt lat="45.80071" lon="5.84408">
        <ele>245</ele>
        <time>2021-09-12T09:20:38.962Z</time>
      </trkpt>
      <trkpt lat="45.80072" lon="5.8441">
        <ele>245</ele>
        <time>2021-09-12T09:20:39.962Z</time>
      </trkpt>
      <trkpt lat="45.80073" lon="5.84413">
        <ele>246</ele>
        <time>2021-09-12T09:20:40.962Z</time>
      </trkpt>
      <trkpt lat="45.80073" lon="5.84415">
        <ele>246</ele>
        <time>2021-09-12T09:20:41.961Z</time>
      </trkpt>
      <trkpt lat="45.80072" lon="5.84416">
        <ele>247</ele>
        <time>2021-09-12T09:20:42.961Z</time>
      </trkpt>
      <trkpt lat="45.80072" lon="5.84417">
        <ele>247</ele>
        <time>2021-09-12T09:20:43.962Z</time>
      </trkpt>
      <trkpt lat="45.80072" lon="5.84417">
        <ele>247</ele>
        <time>2021-09-12T09:20:44.961Z</time>
      </trkpt>
      <trkpt lat="45.80072" lon="5.84417">
        <ele>248</ele>
        <time>2021-09-12T09:20:45.961Z</time>
      </trkpt>
      <trkpt lat="45.8007" lon="5.84417">
        <ele>253</ele>
        <time>2021-09-12T09:20:46.963Z</time>
      </trkpt>
      <trkpt lat="45.80072" lon="5.84418">
        <ele>253</ele>
        <time>2021-09-12T09:20:47.963Z</time>
      </trkpt>
      <trkpt lat="45.80074" lon="5.84419">
        <ele>253</ele>
        <time>2021-09-12T09:20:48.962Z</time>
      </trkpt>
      <trkpt lat="45.80076" lon="5.8442">
        <ele>253</ele>
        <time>2021-09-12T09:20:49.963Z</time>
      </trkpt>
      <trkpt lat="45.80078" lon="5.84421">
        <ele>253</ele>
        <time>2021-09-12T09:20:50.963Z</time>
      </trkpt>
      <trkpt lat="45.80079" lon="5.84422">
        <ele>253</ele>
        <time>2021-09-12T09:20:51.963Z</time>
      </trkpt>
      <trkpt lat="45.8008" lon="5.84423">
        <ele>254</ele>
        <time>2021-09-12T09:20:52.963Z</time>
      </trkpt>
      <trkpt lat="45.80081" lon="5.84424">
        <ele>254</ele>
        <time>2021-09-12T09:20:53.963Z</time>
      </trkpt>
      <trkpt lat="45.80081" lon="5.84424">
        <ele>254</ele>
        <time>2021-09-12T09:20:54.963Z</time>
      </trkpt>
      <trkpt lat="45.80084" lon="5.84421">
        <ele>258</ele>
        <time>2021-09-12T09:20:55.964Z</time>
      </trkpt>
      <trkpt lat="45.80086" lon="5.84421">
        <ele>259</ele>
        <time>2021-09-12T09:20:56.964Z</time>
      </trkpt>
      <trkpt lat="45.80087" lon="5.84421">
        <ele>259</ele>
        <time>2021-09-12T09:20:57.963Z</time>
      </trkpt>
      <trkpt lat="45.80087" lon="5.84422">
        <ele>259</ele>
        <time>2021-09-12T09:20:58.963Z</time>
      </trkpt>
      <trkpt lat="45.80087" lon="5.84421">
        <ele>258</ele>
        <time>2021-09-12T09:20:59.964Z</time>
      </trkpt>
      <trkpt lat="45.80086" lon="5.84422">
        <ele>258</ele>
        <time>2021-09-12T09:21:00.964Z</time>
      </trkpt>
      <trkpt lat="45.80084" lon="5.84422">
        <ele>258</ele>
        <time>2021-09-12T09:21:01.964Z</time>
      </trkpt>
      <trkpt lat="45.80083" lon="5.84423">
        <ele>258</ele>
        <time>2021-09-12T09:21:02.964Z</time>
      </trkpt>
      <trkpt lat="45.80083" lon="5.84422">
        <ele>259</ele>
        <time>2021-09-12T09:21:03.964Z</time>
      </trkpt>
      <trkpt lat="45.80089" lon="5.84424">
        <ele>255</ele>
        <time>2021-09-12T09:21:04.964Z</time>
      </trkpt>
      <trkpt lat="45.80091" lon="5.84424">
        <ele>254</ele>
        <time>2021-09-12T09:21:05.963Z</time>
      </trkpt>
      <trkpt lat="45.80094" lon="5.84425">
        <ele>254</ele>
        <time>2021-09-12T09:21:06.963Z</time>
      </trkpt>
      <trkpt lat="45.80097" lon="5.84425">
        <ele>254</ele>
        <time>2021-09-12T09:21:07.964Z</time>
      </trkpt>
      <trkpt lat="45.801" lon="5.84425">
        <ele>253</ele>
        <time>2021-09-12T09:21:08.964Z</time>
      </trkpt>
      <trkpt lat="45.80104" lon="5.84425">
        <ele>252</ele>
        <time>2021-09-12T09:21:09.964Z</time>
      </trkpt>
      <trkpt lat="45.80107" lon="5.84426">
        <ele>251</ele>
        <time>2021-09-12T09:21:10.963Z</time>
      </trkpt>
      <trkpt lat="45.80111" lon="5.84426">
        <ele>251</ele>
        <time>2021-09-12T09:21:11.963Z</time>
      </trkpt>
      <trkpt lat="45.80113" lon="5.84427">
        <ele>250</ele>
        <time>2021-09-12T09:21:12.963Z</time>
      </trkpt>
      <trkpt lat="45.80115" lon="5.84427">
        <ele>250</ele>
        <time>2021-09-12T09:21:13.964Z</time>
      </trkpt>
      <trkpt lat="45.80117" lon="5.84426">
        <ele>250</ele>
        <time>2021-09-12T09:21:14.964Z</time>
      </trkpt>
      <trkpt lat="45.8012" lon="5.84426">
        <ele>250</ele>
        <time>2021-09-12T09:21:15.964Z</time>
      </trkpt>
      <trkpt lat="45.80122" lon="5.84426">
        <ele>250</ele>
        <time>2021-09-12T09:21:16.964Z</time>
      </trkpt>
      <trkpt lat="45.80125" lon="5.84425">
        <ele>250</ele>
        <time>2021-09-12T09:21:17.964Z</time>
      </trkpt>
      <trkpt lat="45.80128" lon="5.84425">
        <ele>250</ele>
        <time>2021-09-12T09:21:18.964Z</time>
      </trkpt>
      <trkpt lat="45.80131" lon="5.84425">
        <ele>250</ele>
        <time>2021-09-12T09:21:19.964Z</time>
      </trkpt>
      <trkpt lat="45.80134" lon="5.84425">
        <ele>249</ele>
        <time>2021-09-12T09:21:20.964Z</time>
      </trkpt>
      <trkpt lat="45.80137" lon="5.84425">
        <ele>249</ele>
        <time>2021-09-12T09:21:21.964Z</time>
      </trkpt>
      <trkpt lat="45.80141" lon="5.84425">
        <ele>249</ele>
        <time>2021-09-12T09:21:22.964Z</time>
      </trkpt>
      <trkpt lat="45.80145" lon="5.84425">
        <ele>249</ele>
        <time>2021-09-12T09:21:23.964Z</time>
      </trkpt>
      <trkpt lat="45.80149" lon="5.84424">
        <ele>248</ele>
        <time>2021-09-12T09:21:24.964Z</time>
      </trkpt>
      <trkpt lat="45.80153" lon="5.84423">
        <ele>248</ele>
        <time>2021-09-12T09:21:25.964Z</time>
      </trkpt>
      <trkpt lat="45.80157" lon="5.84423">
        <ele>248</ele>
        <time>2021-09-12T09:21:26.964Z</time>
      </trkpt>
      <trkpt lat="45.80163" lon="5.84422">
        <ele>247</ele>
        <time>2021-09-12T09:21:27.964Z</time>
      </trkpt>
      <trkpt lat="45.80168" lon="5.84422">
        <ele>247</ele>
        <time>2021-09-12T09:21:28.964Z</time>
      </trkpt>
      <trkpt lat="45.80174" lon="5.84423">
        <ele>247</ele>
        <time>2021-09-12T09:21:29.963Z</time>
      </trkpt>
      <trkpt lat="45.80179" lon="5.84423">
        <ele>247</ele>
        <time>2021-09-12T09:21:30.963Z</time>
      </trkpt>
      <trkpt lat="45.80185" lon="5.84424">
        <ele>247</ele>
        <time>2021-09-12T09:21:31.964Z</time>
      </trkpt>
      <trkpt lat="45.8019" lon="5.84424">
        <ele>247</ele>
        <time>2021-09-12T09:21:32.964Z</time>
      </trkpt>
      <trkpt lat="45.80196" lon="5.84425">
        <ele>247</ele>
        <time>2021-09-12T09:21:33.963Z</time>
      </trkpt>
      <trkpt lat="45.80202" lon="5.84425">
        <ele>247</ele>
        <time>2021-09-12T09:21:34.964Z</time>
      </trkpt>
      <trkpt lat="45.80207" lon="5.84425">
        <ele>247</ele>
        <time>2021-09-12T09:21:35.964Z</time>
      </trkpt>
      <trkpt lat="45.80213" lon="5.84426">
        <ele>247</ele>
        <time>2021-09-12T09:21:36.964Z</time>
      </trkpt>
      <trkpt lat="45.80219" lon="5.84427">
        <ele>246</ele>
        <time>2021-09-12T09:21:37.964Z</time>
      </trkpt>
      <trkpt lat="45.80225" lon="5.84428">
        <ele>246</ele>
        <time>2021-09-12T09:21:38.963Z</time>
      </trkpt>
      <trkpt lat="45.80231" lon="5.84429">
        <ele>246</ele>
        <time>2021-09-12T09:21:39.964Z</time>
      </trkpt>
      <trkpt lat="45.80237" lon="5.8443">
        <ele>246</ele>
        <time>2021-09-12T09:21:40.964Z</time>
      </trkpt>
      <trkpt lat="45.80242" lon="5.84431">
        <ele>246</ele>
        <time>2021-09-12T09:21:41.963Z</time>
      </trkpt>
      <trkpt lat="45.80249" lon="5.84432">
        <ele>246</ele>
        <time>2021-09-12T09:21:42.964Z</time>
      </trkpt>
      <trkpt lat="45.80255" lon="5.84433">
        <ele>246</ele>
        <time>2021-09-12T09:21:43.963Z</time>
      </trkpt>
      <trkpt lat="45.80261" lon="5.84434">
        <ele>246</ele>
        <time>2021-09-12T09:21:44.964Z</time>
      </trkpt>
      <trkpt lat="45.80267" lon="5.84435">
        <ele>246</ele>
        <time>2021-09-12T09:21:45.964Z</time>
      </trkpt>
      <trkpt lat="45.80273" lon="5.84436">
        <ele>246</ele>
        <time>2021-09-12T09:21:46.964Z</time>
      </trkpt>
      <trkpt lat="45.80279" lon="5.84437">
        <ele>246</ele>
        <time>2021-09-12T09:21:47.964Z</time>
      </trkpt>
      <trkpt lat="45.80284" lon="5.84437">
        <ele>245</ele>
        <time>2021-09-12T09:21:48.964Z</time>
      </trkpt>
      <trkpt lat="45.8029" lon="5.84438">
        <ele>245</ele>
        <time>2021-09-12T09:21:49.964Z</time>
      </trkpt>
      <trkpt lat="45.80294" lon="5.84439">
        <ele>245</ele>
        <time>2021-09-12T09:21:50.964Z</time>
      </trkpt>
      <trkpt lat="45.80299" lon="5.8444">
        <ele>245</ele>
        <time>2021-09-12T09:21:51.964Z</time>
      </trkpt>
      <trkpt lat="45.80304" lon="5.84441">
        <ele>245</ele>
        <time>2021-09-12T09:21:52.964Z</time>
      </trkpt>
      <trkpt lat="45.80309" lon="5.84442">
        <ele>245</ele>
        <time>2021-09-12T09:21:53.964Z</time>
      </trkpt>
      <trkpt lat="45.80313" lon="5.84444">
        <ele>245</ele>
        <time>2021-09-12T09:21:54.963Z</time>
      </trkpt>
      <trkpt lat="45.80316" lon="5.84445">
        <ele>245</ele>
        <time>2021-09-12T09:21:55.964Z</time>
      </trkpt>
      <trkpt lat="45.80321" lon="5.84447">
        <ele>245</ele>
        <time>2021-09-12T09:21:56.963Z</time>
      </trkpt>
      <trkpt lat="45.80325" lon="5.84449">
        <ele>246</ele>
        <time>2021-09-12T09:21:57.964Z</time>
      </trkpt>
      <trkpt lat="45.80329" lon="5.84451">
        <ele>246</ele>
        <time>2021-09-12T09:21:58.963Z</time>
      </trkpt>
      <trkpt lat="45.80334" lon="5.84453">
        <ele>246</ele>
        <time>2021-09-12T09:21:59.963Z</time>
      </trkpt>
      <trkpt lat="45.80337" lon="5.84454">
        <ele>247</ele>
        <time>2021-09-12T09:22:00.964Z</time>
      </trkpt>
      <trkpt lat="45.80342" lon="5.84457">
        <ele>247</ele>
        <time>2021-09-12T09:22:01.963Z</time>
      </trkpt>
      <trkpt lat="45.80347" lon="5.84459">
        <ele>247</ele>
        <time>2021-09-12T09:22:02.964Z</time>
      </trkpt>
      <trkpt lat="45.80351" lon="5.84461">
        <ele>247</ele>
        <time>2021-09-12T09:22:03.963Z</time>
      </trkpt>
      <trkpt lat="45.80355" lon="5.84462">
        <ele>247</ele>
        <time>2021-09-12T09:22:04.963Z</time>
      </trkpt>
      <trkpt lat="45.80359" lon="5.84464">
        <ele>248</ele>
        <time>2021-09-12T09:22:05.964Z</time>
      </trkpt>
      <trkpt lat="45.80363" lon="5.84466">
        <ele>247</ele>
        <time>2021-09-12T09:22:06.963Z</time>
      </trkpt>
      <trkpt lat="45.80367" lon="5.84468">
        <ele>247</ele>
        <time>2021-09-12T09:22:07.964Z</time>
      </trkpt>
      <trkpt lat="45.80371" lon="5.84469">
        <ele>247</ele>
        <time>2021-09-12T09:22:08.963Z</time>
      </trkpt>
      <trkpt lat="45.80375" lon="5.84471">
        <ele>247</ele>
        <time>2021-09-12T09:22:09.964Z</time>
      </trkpt>
      <trkpt lat="45.80379" lon="5.84473">
        <ele>247</ele>
        <time>2021-09-12T09:22:10.964Z</time>
      </trkpt>
      <trkpt lat="45.80383" lon="5.84474">
        <ele>247</ele>
        <time>2021-09-12T09:22:11.963Z</time>
      </trkpt>
      <trkpt lat="45.80388" lon="5.84476">
        <ele>247</ele>
        <time>2021-09-12T09:22:12.963Z</time>
      </trkpt>
      <trkpt lat="45.80392" lon="5.84477">
        <ele>247</ele>
        <time>2021-09-12T09:22:13.964Z</time>
      </trkpt>
      <trkpt lat="45.80396" lon="5.84479">
        <ele>246</ele>
        <time>2021-09-12T09:22:14.963Z</time>
      </trkpt>
      <trkpt lat="45.804" lon="5.84481">
        <ele>246</ele>
        <time>2021-09-12T09:22:15.964Z</time>
      </trkpt>
      <trkpt lat="45.80404" lon="5.84484">
        <ele>246</ele>
        <time>2021-09-12T09:22:16.964Z</time>
      </trkpt>
      <trkpt lat="45.80406" lon="5.84489">
        <ele>246</ele>
        <time>2021-09-12T09:22:17.964Z</time>
      </trkpt>
      <trkpt lat="45.80408" lon="5.84494">
        <ele>246</ele>
        <time>2021-09-12T09:22:18.964Z</time>
      </trkpt>
      <trkpt lat="45.80409" lon="5.845">
        <ele>245</ele>
        <time>2021-09-12T09:22:19.964Z</time>
      </trkpt>
      <trkpt lat="45.80409" lon="5.84506">
        <ele>245</ele>
        <time>2021-09-12T09:22:20.964Z</time>
      </trkpt>
      <trkpt lat="45.80409" lon="5.84512">
        <ele>245</ele>
        <time>2021-09-12T09:22:21.964Z</time>
      </trkpt>
      <trkpt lat="45.80408" lon="5.84518">
        <ele>245</ele>
        <time>2021-09-12T09:22:22.963Z</time>
      </trkpt>
      <trkpt lat="45.80406" lon="5.84524">
        <ele>246</ele>
        <time>2021-09-12T09:22:23.963Z</time>
      </trkpt>
      <trkpt lat="45.80405" lon="5.8453">
        <ele>246</ele>
        <time>2021-09-12T09:22:24.964Z</time>
      </trkpt>
      <trkpt lat="45.80403" lon="5.84536">
        <ele>246</ele>
        <time>2021-09-12T09:22:25.964Z</time>
      </trkpt>
      <trkpt lat="45.80402" lon="5.84542">
        <ele>246</ele>
        <time>2021-09-12T09:22:26.963Z</time>
      </trkpt>
      <trkpt lat="45.80401" lon="5.84549">
        <ele>246</ele>
        <time>2021-09-12T09:22:27.963Z</time>
      </trkpt>
      <trkpt lat="45.804" lon="5.84554">
        <ele>246</ele>
        <time>2021-09-12T09:22:28.963Z</time>
      </trkpt>
      <trkpt lat="45.80399" lon="5.84561">
        <ele>246</ele>
        <time>2021-09-12T09:22:29.964Z</time>
      </trkpt>
      <trkpt lat="45.80398" lon="5.84568">
        <ele>246</ele>
        <time>2021-09-12T09:22:30.964Z</time>
      </trkpt>
      <trkpt lat="45.80397" lon="5.84575">
        <ele>246</ele>
        <time>2021-09-12T09:22:31.963Z</time>
      </trkpt>
      <trkpt lat="45.80397" lon="5.84583">
        <ele>246</ele>
        <time>2021-09-12T09:22:32.964Z</time>
      </trkpt>
      <trkpt lat="45.80396" lon="5.84589">
        <ele>246</ele>
        <time>2021-09-12T09:22:33.964Z</time>
      </trkpt>
      <trkpt lat="45.80395" lon="5.84599">
        <ele>246</ele>
        <time>2021-09-12T09:22:34.964Z</time>
      </trkpt>
      <trkpt lat="45.80395" lon="5.84608">
        <ele>246</ele>
        <time>2021-09-12T09:22:35.964Z</time>
      </trkpt>
      <trkpt lat="45.80394" lon="5.84617">
        <ele>246</ele>
        <time>2021-09-12T09:22:36.964Z</time>
      </trkpt>
      <trkpt lat="45.80392" lon="5.84627">
        <ele>246</ele>
        <time>2021-09-12T09:22:37.964Z</time>
      </trkpt>
      <trkpt lat="45.80391" lon="5.84635">
        <ele>246</ele>
        <time>2021-09-12T09:22:38.964Z</time>
      </trkpt>
      <trkpt lat="45.80389" lon="5.84644">
        <ele>245</ele>
        <time>2021-09-12T09:22:39.964Z</time>
      </trkpt>
      <trkpt lat="45.80387" lon="5.84653">
        <ele>245</ele>
        <time>2021-09-12T09:22:40.963Z</time>
      </trkpt>
      <trkpt lat="45.80384" lon="5.84662">
        <ele>244</ele>
        <time>2021-09-12T09:22:41.964Z</time>
      </trkpt>
      <trkpt lat="45.80381" lon="5.84672">
        <ele>244</ele>
        <time>2021-09-12T09:22:42.964Z</time>
      </trkpt>
      <trkpt lat="45.80378" lon="5.84679">
        <ele>244</ele>
        <time>2021-09-12T09:22:43.964Z</time>
      </trkpt>
      <trkpt lat="45.80376" lon="5.84685">
        <ele>244</ele>
        <time>2021-09-12T09:22:44.963Z</time>
      </trkpt>
      <trkpt lat="45.80374" lon="5.84691">
        <ele>244</ele>
        <time>2021-09-12T09:22:45.964Z</time>
      </trkpt>
      <trkpt lat="45.80374" lon="5.84696">
        <ele>244</ele>
        <time>2021-09-12T09:22:46.963Z</time>
      </trkpt>
      <trkpt lat="45.80375" lon="5.84702">
        <ele>244</ele>
        <time>2021-09-12T09:22:47.964Z</time>
      </trkpt>
      <trkpt lat="45.80378" lon="5.84707">
        <ele>243</ele>
        <time>2021-09-12T09:22:48.963Z</time>
      </trkpt>
      <trkpt lat="45.80382" lon="5.8471">
        <ele>243</ele>
        <time>2021-09-12T09:22:49.963Z</time>
      </trkpt>
      <trkpt lat="45.80386" lon="5.84712">
        <ele>243</ele>
        <time>2021-09-12T09:22:50.964Z</time>
      </trkpt>
      <trkpt lat="45.8039" lon="5.84713">
        <ele>243</ele>
        <time>2021-09-12T09:22:51.963Z</time>
      </trkpt>
      <trkpt lat="45.80394" lon="5.84713">
        <ele>243</ele>
        <time>2021-09-12T09:22:52.964Z</time>
      </trkpt>
      <trkpt lat="45.80398" lon="5.84714">
        <ele>242</ele>
        <time>2021-09-12T09:22:53.964Z</time>
      </trkpt>
      <trkpt lat="45.80401" lon="5.84716">
        <ele>241</ele>
        <time>2021-09-12T09:22:54.964Z</time>
      </trkpt>
      <trkpt lat="45.80405" lon="5.84717">
        <ele>241</ele>
        <time>2021-09-12T09:22:55.964Z</time>
      </trkpt>
      <trkpt lat="45.80409" lon="5.84717">
        <ele>240</ele>
        <time>2021-09-12T09:22:56.963Z</time>
      </trkpt>
      <trkpt lat="45.80414" lon="5.84717">
        <ele>239</ele>
        <time>2021-09-12T09:22:57.964Z</time>
      </trkpt>
      <trkpt lat="45.80418" lon="5.84717">
        <ele>239</ele>
        <time>2021-09-12T09:22:58.963Z</time>
      </trkpt>
      <trkpt lat="45.80423" lon="5.84716">
        <ele>239</ele>
        <time>2021-09-12T09:22:59.964Z</time>
      </trkpt>
      <trkpt lat="45.80427" lon="5.84715">
        <ele>239</ele>
        <time>2021-09-12T09:23:00.963Z</time>
      </trkpt>
      <trkpt lat="45.80433" lon="5.84715">
        <ele>238</ele>
        <time>2021-09-12T09:23:01.964Z</time>
      </trkpt>
      <trkpt lat="45.80437" lon="5.84716">
        <ele>238</ele>
        <time>2021-09-12T09:23:02.964Z</time>
      </trkpt>
      <trkpt lat="45.80442" lon="5.84715">
        <ele>237</ele>
        <time>2021-09-12T09:23:03.964Z</time>
      </trkpt>
      <trkpt lat="45.80447" lon="5.84715">
        <ele>237</ele>
        <time>2021-09-12T09:23:04.963Z</time>
      </trkpt>
      <trkpt lat="45.80452" lon="5.84714">
        <ele>237</ele>
        <time>2021-09-12T09:23:05.964Z</time>
      </trkpt>
      <trkpt lat="45.80456" lon="5.84714">
        <ele>237</ele>
        <time>2021-09-12T09:23:06.964Z</time>
      </trkpt>
      <trkpt lat="45.80461" lon="5.84714">
        <ele>237</ele>
        <time>2021-09-12T09:23:07.964Z</time>
      </trkpt>
      <trkpt lat="45.80466" lon="5.84714">
        <ele>237</ele>
        <time>2021-09-12T09:23:08.963Z</time>
      </trkpt>
      <trkpt lat="45.80471" lon="5.84714">
        <ele>237</ele>
        <time>2021-09-12T09:23:09.964Z</time>
      </trkpt>
      <trkpt lat="45.80476" lon="5.84714">
        <ele>237</ele>
        <time>2021-09-12T09:23:10.963Z</time>
      </trkpt>
      <trkpt lat="45.80482" lon="5.84714">
        <ele>236</ele>
        <time>2021-09-12T09:23:11.964Z</time>
      </trkpt>
      <trkpt lat="45.80487" lon="5.84714">
        <ele>236</ele>
        <time>2021-09-12T09:23:12.964Z</time>
      </trkpt>
      <trkpt lat="45.80492" lon="5.84714">
        <ele>236</ele>
        <time>2021-09-12T09:23:13.963Z</time>
      </trkpt>
      <trkpt lat="45.80498" lon="5.84713">
        <ele>236</ele>
        <time>2021-09-12T09:23:14.964Z</time>
      </trkpt>
      <trkpt lat="45.80503" lon="5.84713">
        <ele>236</ele>
        <time>2021-09-12T09:23:15.964Z</time>
      </trkpt>
      <trkpt lat="45.80508" lon="5.84713">
        <ele>236</ele>
        <time>2021-09-12T09:23:16.964Z</time>
      </trkpt>
      <trkpt lat="45.80514" lon="5.84713">
        <ele>236</ele>
        <time>2021-09-12T09:23:17.964Z</time>
      </trkpt>
      <trkpt lat="45.8052" lon="5.84712">
        <ele>235</ele>
        <time>2021-09-12T09:23:18.963Z</time>
      </trkpt>
      <trkpt lat="45.80525" lon="5.84712">
        <ele>235</ele>
        <time>2021-09-12T09:23:19.964Z</time>
      </trkpt>
      <trkpt lat="45.80531" lon="5.84711">
        <ele>235</ele>
        <time>2021-09-12T09:23:20.964Z</time>
      </trkpt>
      <trkpt lat="45.80536" lon="5.84711">
        <ele>235</ele>
        <time>2021-09-12T09:23:21.963Z</time>
      </trkpt>
      <trkpt lat="45.80542" lon="5.84711">
        <ele>236</ele>
        <time>2021-09-12T09:23:22.963Z</time>
      </trkpt>
      <trkpt lat="45.80547" lon="5.84711">
        <ele>236</ele>
        <time>2021-09-12T09:23:23.964Z</time>
      </trkpt>
      <trkpt lat="45.80553" lon="5.84711">
        <ele>236</ele>
        <time>2021-09-12T09:23:24.964Z</time>
      </trkpt>
      <trkpt lat="45.80558" lon="5.8471">
        <ele>236</ele>
        <time>2021-09-12T09:23:25.963Z</time>
      </trkpt>
      <trkpt lat="45.80563" lon="5.8471">
        <ele>236</ele>
        <time>2021-09-12T09:23:26.964Z</time>
      </trkpt>
      <trkpt lat="45.80569" lon="5.8471">
        <ele>236</ele>
        <time>2021-09-12T09:23:27.964Z</time>
      </trkpt>
      <trkpt lat="45.80575" lon="5.8471">
        <ele>236</ele>
        <time>2021-09-12T09:23:28.964Z</time>
      </trkpt>
      <trkpt lat="45.8058" lon="5.84709">
        <ele>235</ele>
        <time>2021-09-12T09:23:29.964Z</time>
      </trkpt>
      <trkpt lat="45.80585" lon="5.84709">
        <ele>235</ele>
        <time>2021-09-12T09:23:30.963Z</time>
      </trkpt>
      <trkpt lat="45.80591" lon="5.84709">
        <ele>235</ele>
        <time>2021-09-12T09:23:31.964Z</time>
      </trkpt>
      <trkpt lat="45.80596" lon="5.84709">
        <ele>234</ele>
        <time>2021-09-12T09:23:32.964Z</time>
      </trkpt>
      <trkpt lat="45.80602" lon="5.84709">
        <ele>234</ele>
        <time>2021-09-12T09:23:33.964Z</time>
      </trkpt>
      <trkpt lat="45.80607" lon="5.84708">
        <ele>234</ele>
        <time>2021-09-12T09:23:34.964Z</time>
      </trkpt>
      <trkpt lat="45.80612" lon="5.84708">
        <ele>234</ele>
        <time>2021-09-12T09:23:35.964Z</time>
      </trkpt>
      <trkpt lat="45.80617" lon="5.84708">
        <ele>234</ele>
        <time>2021-09-12T09:23:36.963Z</time>
      </trkpt>
      <trkpt lat="45.80622" lon="5.84708">
        <ele>234</ele>
        <time>2021-09-12T09:23:37.964Z</time>
      </trkpt>
      <trkpt lat="45.80628" lon="5.84708">
        <ele>234</ele>
        <time>2021-09-12T09:23:38.963Z</time>
      </trkpt>
      <trkpt lat="45.80633" lon="5.84708">
        <ele>234</ele>
        <time>2021-09-12T09:23:39.963Z</time>
      </trkpt>
      <trkpt lat="45.80638" lon="5.84708">
        <ele>233</ele>
        <time>2021-09-12T09:23:40.964Z</time>
      </trkpt>
      <trkpt lat="45.80643" lon="5.84708">
        <ele>234</ele>
        <time>2021-09-12T09:23:41.964Z</time>
      </trkpt>
      <trkpt lat="45.80647" lon="5.84708">
        <ele>234</ele>
        <time>2021-09-12T09:23:42.964Z</time>
      </trkpt>
      <trkpt lat="45.80652" lon="5.84708">
        <ele>235</ele>
        <time>2021-09-12T09:23:43.964Z</time>
      </trkpt>
      <trkpt lat="45.80657" lon="5.84707">
        <ele>235</ele>
        <time>2021-09-12T09:23:44.964Z</time>
      </trkpt>
      <trkpt lat="45.80662" lon="5.84707">
        <ele>236</ele>
        <time>2021-09-12T09:23:45.964Z</time>
      </trkpt>
      <trkpt lat="45.80666" lon="5.84707">
        <ele>236</ele>
        <time>2021-09-12T09:23:46.964Z</time>
      </trkpt>
      <trkpt lat="45.80671" lon="5.84708">
        <ele>236</ele>
        <time>2021-09-12T09:23:47.963Z</time>
      </trkpt>
      <trkpt lat="45.80674" lon="5.8471">
        <ele>236</ele>
        <time>2021-09-12T09:23:48.964Z</time>
      </trkpt>
      <trkpt lat="45.80678" lon="5.84713">
        <ele>236</ele>
        <time>2021-09-12T09:23:49.964Z</time>
      </trkpt>
      <trkpt lat="45.80681" lon="5.84716">
        <ele>237</ele>
        <time>2021-09-12T09:23:50.964Z</time>
      </trkpt>
      <trkpt lat="45.80684" lon="5.8472">
        <ele>237</ele>
        <time>2021-09-12T09:23:51.963Z</time>
      </trkpt>
      <trkpt lat="45.80687" lon="5.84725">
        <ele>238</ele>
        <time>2021-09-12T09:23:52.964Z</time>
      </trkpt>
      <trkpt lat="45.8069" lon="5.84729">
        <ele>238</ele>
        <time>2021-09-12T09:23:53.963Z</time>
      </trkpt>
      <trkpt lat="45.80694" lon="5.84733">
        <ele>238</ele>
        <time>2021-09-12T09:23:54.963Z</time>
      </trkpt>
      <trkpt lat="45.80698" lon="5.84738">
        <ele>238</ele>
        <time>2021-09-12T09:23:55.964Z</time>
      </trkpt>
      <trkpt lat="45.80701" lon="5.84743">
        <ele>238</ele>
        <time>2021-09-12T09:23:56.964Z</time>
      </trkpt>
      <trkpt lat="45.80705" lon="5.84747">
        <ele>238</ele>
        <time>2021-09-12T09:23:57.964Z</time>
      </trkpt>
      <trkpt lat="45.80709" lon="5.84752">
        <ele>239</ele>
        <time>2021-09-12T09:23:58.964Z</time>
      </trkpt>
      <trkpt lat="45.80712" lon="5.84757">
        <ele>239</ele>
        <time>2021-09-12T09:23:59.963Z</time>
      </trkpt>
      <trkpt lat="45.80716" lon="5.84762">
        <ele>239</ele>
        <time>2021-09-12T09:24:00.963Z</time>
      </trkpt>
      <trkpt lat="45.8072" lon="5.84767">
        <ele>240</ele>
        <time>2021-09-12T09:24:01.964Z</time>
      </trkpt>
      <trkpt lat="45.80724" lon="5.84772">
        <ele>240</ele>
        <time>2021-09-12T09:24:02.964Z</time>
      </trkpt>
      <trkpt lat="45.80727" lon="5.84776">
        <ele>240</ele>
        <time>2021-09-12T09:24:03.964Z</time>
      </trkpt>
      <trkpt lat="45.80731" lon="5.84781">
        <ele>240</ele>
        <time>2021-09-12T09:24:04.963Z</time>
      </trkpt>
      <trkpt lat="45.80734" lon="5.84786">
        <ele>240</ele>
        <time>2021-09-12T09:24:05.964Z</time>
      </trkpt>
      <trkpt lat="45.80738" lon="5.84792">
        <ele>240</ele>
        <time>2021-09-12T09:24:06.964Z</time>
      </trkpt>
      <trkpt lat="45.80742" lon="5.84797">
        <ele>240</ele>
        <time>2021-09-12T09:24:07.964Z</time>
      </trkpt>
      <trkpt lat="45.80746" lon="5.84801">
        <ele>241</ele>
        <time>2021-09-12T09:24:08.964Z</time>
      </trkpt>
      <trkpt lat="45.8075" lon="5.84806">
        <ele>241</ele>
        <time>2021-09-12T09:24:09.964Z</time>
      </trkpt>
      <trkpt lat="45.80753" lon="5.8481">
        <ele>241</ele>
        <time>2021-09-12T09:24:10.963Z</time>
      </trkpt>
      <trkpt lat="45.80757" lon="5.84814">
        <ele>241</ele>
        <time>2021-09-12T09:24:11.964Z</time>
      </trkpt>
      <trkpt lat="45.80761" lon="5.84819">
        <ele>241</ele>
        <time>2021-09-12T09:24:12.964Z</time>
      </trkpt>
      <trkpt lat="45.80764" lon="5.84823">
        <ele>242</ele>
        <time>2021-09-12T09:24:13.963Z</time>
      </trkpt>
      <trkpt lat="45.80768" lon="5.84827">
        <ele>242</ele>
        <time>2021-09-12T09:24:14.964Z</time>
      </trkpt>
      <trkpt lat="45.80771" lon="5.84831">
        <ele>242</ele>
        <time>2021-09-12T09:24:15.964Z</time>
      </trkpt>
      <trkpt lat="45.80774" lon="5.84835">
        <ele>241</ele>
        <time>2021-09-12T09:24:16.964Z</time>
      </trkpt>
      <trkpt lat="45.80777" lon="5.84839">
        <ele>241</ele>
        <time>2021-09-12T09:24:17.964Z</time>
      </trkpt>
      <trkpt lat="45.8078" lon="5.84843">
        <ele>241</ele>
        <time>2021-09-12T09:24:18.963Z</time>
      </trkpt>
      <trkpt lat="45.80783" lon="5.84846">
        <ele>241</ele>
        <time>2021-09-12T09:24:19.964Z</time>
      </trkpt>
      <trkpt lat="45.80786" lon="5.84849">
        <ele>241</ele>
        <time>2021-09-12T09:24:20.963Z</time>
      </trkpt>
      <trkpt lat="45.80789" lon="5.84853">
        <ele>241</ele>
        <time>2021-09-12T09:24:21.964Z</time>
      </trkpt>
      <trkpt lat="45.80791" lon="5.84857">
        <ele>240</ele>
        <time>2021-09-12T09:24:22.963Z</time>
      </trkpt>
      <trkpt lat="45.80794" lon="5.8486">
        <ele>239</ele>
        <time>2021-09-12T09:24:23.964Z</time>
      </trkpt>
      <trkpt lat="45.80796" lon="5.84862">
        <ele>239</ele>
        <time>2021-09-12T09:24:24.964Z</time>
      </trkpt>
      <trkpt lat="45.80798" lon="5.84863">
        <ele>239</ele>
        <time>2021-09-12T09:24:25.964Z</time>
      </trkpt>
      <trkpt lat="45.808" lon="5.84865">
        <ele>239</ele>
        <time>2021-09-12T09:24:26.964Z</time>
      </trkpt>
      <trkpt lat="45.80802" lon="5.84867">
        <ele>239</ele>
        <time>2021-09-12T09:24:27.964Z</time>
      </trkpt>
      <trkpt lat="45.80804" lon="5.84868">
        <ele>239</ele>
        <time>2021-09-12T09:24:28.964Z</time>
      </trkpt>
      <trkpt lat="45.80806" lon="5.8487">
        <ele>239</ele>
        <time>2021-09-12T09:24:29.963Z</time>
      </trkpt>
      <trkpt lat="45.80808" lon="5.84872">
        <ele>239</ele>
        <time>2021-09-12T09:24:30.964Z</time>
      </trkpt>
      <trkpt lat="45.8081" lon="5.84875">
        <ele>239</ele>
        <time>2021-09-12T09:24:31.964Z</time>
      </trkpt>
      <trkpt lat="45.80812" lon="5.84877">
        <ele>239</ele>
        <time>2021-09-12T09:24:32.963Z</time>
      </trkpt>
      <trkpt lat="45.80814" lon="5.84881">
        <ele>239</ele>
        <time>2021-09-12T09:24:33.964Z</time>
      </trkpt>
      <trkpt lat="45.80816" lon="5.84884">
        <ele>239</ele>
        <time>2021-09-12T09:24:34.963Z</time>
      </trkpt>
      <trkpt lat="45.80818" lon="5.84888">
        <ele>239</ele>
        <time>2021-09-12T09:24:35.963Z</time>
      </trkpt>
      <trkpt lat="45.80821" lon="5.84892">
        <ele>238</ele>
        <time>2021-09-12T09:24:36.963Z</time>
      </trkpt>
      <trkpt lat="45.80823" lon="5.84895">
        <ele>238</ele>
        <time>2021-09-12T09:24:37.964Z</time>
      </trkpt>
      <trkpt lat="45.80826" lon="5.84898">
        <ele>237</ele>
        <time>2021-09-12T09:24:38.964Z</time>
      </trkpt>
      <trkpt lat="45.80828" lon="5.84901">
        <ele>237</ele>
        <time>2021-09-12T09:24:39.964Z</time>
      </trkpt>
      <trkpt lat="45.80831" lon="5.84904">
        <ele>237</ele>
        <time>2021-09-12T09:24:40.963Z</time>
      </trkpt>
      <trkpt lat="45.80833" lon="5.84907">
        <ele>237</ele>
        <time>2021-09-12T09:24:41.963Z</time>
      </trkpt>
      <trkpt lat="45.80836" lon="5.8491">
        <ele>237</ele>
        <time>2021-09-12T09:24:42.964Z</time>
      </trkpt>
      <trkpt lat="45.80838" lon="5.84913">
        <ele>237</ele>
        <time>2021-09-12T09:24:43.964Z</time>
      </trkpt>
      <trkpt lat="45.8084" lon="5.84916">
        <ele>236</ele>
        <time>2021-09-12T09:24:44.964Z</time>
      </trkpt>
      <trkpt lat="45.80842" lon="5.84919">
        <ele>236</ele>
        <time>2021-09-12T09:24:45.964Z</time>
      </trkpt>
      <trkpt lat="45.80845" lon="5.84922">
        <ele>236</ele>
        <time>2021-09-12T09:24:46.964Z</time>
      </trkpt>
      <trkpt lat="45.80847" lon="5.84925">
        <ele>236</ele>
        <time>2021-09-12T09:24:47.964Z</time>
      </trkpt>
      <trkpt lat="45.8085" lon="5.84928">
        <ele>236</ele>
        <time>2021-09-12T09:24:48.964Z</time>
      </trkpt>
      <trkpt lat="45.80853" lon="5.84931">
        <ele>236</ele>
        <time>2021-09-12T09:24:49.963Z</time>
      </trkpt>
      <trkpt lat="45.80855" lon="5.84934">
        <ele>236</ele>
        <time>2021-09-12T09:24:50.964Z</time>
      </trkpt>
      <trkpt lat="45.80858" lon="5.84936">
        <ele>237</ele>
        <time>2021-09-12T09:24:51.964Z</time>
      </trkpt>
      <trkpt lat="45.8086" lon="5.84939">
        <ele>237</ele>
        <time>2021-09-12T09:24:52.964Z</time>
      </trkpt>
      <trkpt lat="45.80863" lon="5.84941">
        <ele>237</ele>
        <time>2021-09-12T09:24:53.964Z</time>
      </trkpt>
      <trkpt lat="45.80865" lon="5.84944">
        <ele>237</ele>
        <time>2021-09-12T09:24:54.963Z</time>
      </trkpt>
      <trkpt lat="45.80868" lon="5.84946">
        <ele>238</ele>
        <time>2021-09-12T09:24:55.964Z</time>
      </trkpt>
      <trkpt lat="45.80871" lon="5.84948">
        <ele>238</ele>
        <time>2021-09-12T09:24:56.963Z</time>
      </trkpt>
      <trkpt lat="45.80874" lon="5.84949">
        <ele>238</ele>
        <time>2021-09-12T09:24:57.964Z</time>
      </trkpt>
      <trkpt lat="45.80877" lon="5.84952">
        <ele>238</ele>
        <time>2021-09-12T09:24:58.964Z</time>
      </trkpt>
      <trkpt lat="45.80879" lon="5.84954">
        <ele>239</ele>
        <time>2021-09-12T09:24:59.964Z</time>
      </trkpt>
      <trkpt lat="45.80882" lon="5.84956">
        <ele>239</ele>
        <time>2021-09-12T09:25:00.964Z</time>
      </trkpt>
      <trkpt lat="45.80885" lon="5.84958">
        <ele>239</ele>
        <time>2021-09-12T09:25:01.964Z</time>
      </trkpt>
      <trkpt lat="45.80889" lon="5.8496">
        <ele>239</ele>
        <time>2021-09-12T09:25:02.964Z</time>
      </trkpt>
      <trkpt lat="45.80892" lon="5.84962">
        <ele>239</ele>
        <time>2021-09-12T09:25:03.964Z</time>
      </trkpt>
      <trkpt lat="45.80895" lon="5.84963">
        <ele>239</ele>
        <time>2021-09-12T09:25:04.964Z</time>
      </trkpt>
      <trkpt lat="45.80898" lon="5.84965">
        <ele>240</ele>
        <time>2021-09-12T09:25:05.964Z</time>
      </trkpt>
      <trkpt lat="45.80902" lon="5.84967">
        <ele>240</ele>
        <time>2021-09-12T09:25:06.964Z</time>
      </trkpt>
      <trkpt lat="45.80905" lon="5.84969">
        <ele>240</ele>
        <time>2021-09-12T09:25:07.964Z</time>
      </trkpt>
      <trkpt lat="45.80908" lon="5.84971">
        <ele>240</ele>
        <time>2021-09-12T09:25:08.964Z</time>
      </trkpt>
      <trkpt lat="45.80912" lon="5.84973">
        <ele>240</ele>
        <time>2021-09-12T09:25:09.964Z</time>
      </trkpt>
      <trkpt lat="45.80916" lon="5.84975">
        <ele>241</ele>
        <time>2021-09-12T09:25:10.964Z</time>
      </trkpt>
      <trkpt lat="45.8092" lon="5.84977">
        <ele>241</ele>
        <time>2021-09-12T09:25:11.964Z</time>
      </trkpt>
      <trkpt lat="45.80923" lon="5.84978">
        <ele>241</ele>
        <time>2021-09-12T09:25:12.963Z</time>
      </trkpt>
      <trkpt lat="45.80927" lon="5.8498">
        <ele>242</ele>
        <time>2021-09-12T09:25:13.964Z</time>
      </trkpt>
      <trkpt lat="45.8093" lon="5.84982">
        <ele>242</ele>
        <time>2021-09-12T09:25:14.964Z</time>
      </trkpt>
      <trkpt lat="45.80933" lon="5.84984">
        <ele>243</ele>
        <time>2021-09-12T09:25:15.964Z</time>
      </trkpt>
      <trkpt lat="45.80937" lon="5.84985">
        <ele>243</ele>
        <time>2021-09-12T09:25:16.963Z</time>
      </trkpt>
      <trkpt lat="45.8094" lon="5.84987">
        <ele>243</ele>
        <time>2021-09-12T09:25:17.964Z</time>
      </trkpt>
      <trkpt lat="45.80943" lon="5.84988">
        <ele>244</ele>
        <time>2021-09-12T09:25:18.964Z</time>
      </trkpt>
      <trkpt lat="45.80946" lon="5.8499">
        <ele>244</ele>
        <time>2021-09-12T09:25:19.964Z</time>
      </trkpt>
      <trkpt lat="45.80948" lon="5.84991">
        <ele>244</ele>
        <time>2021-09-12T09:25:20.963Z</time>
      </trkpt>
      <trkpt lat="45.80951" lon="5.84993">
        <ele>244</ele>
        <time>2021-09-12T09:25:21.964Z</time>
      </trkpt>
      <trkpt lat="45.80954" lon="5.84995">
        <ele>244</ele>
        <time>2021-09-12T09:25:22.964Z</time>
      </trkpt>
      <trkpt lat="45.80956" lon="5.84997">
        <ele>244</ele>
        <time>2021-09-12T09:25:23.964Z</time>
      </trkpt>
      <trkpt lat="45.80959" lon="5.84999">
        <ele>244</ele>
        <time>2021-09-12T09:25:24.964Z</time>
      </trkpt>
      <trkpt lat="45.80962" lon="5.85001">
        <ele>243</ele>
        <time>2021-09-12T09:25:25.963Z</time>
      </trkpt>
      <trkpt lat="45.80965" lon="5.85004">
        <ele>244</ele>
        <time>2021-09-12T09:25:26.964Z</time>
      </trkpt>
      <trkpt lat="45.80968" lon="5.85006">
        <ele>244</ele>
        <time>2021-09-12T09:25:27.964Z</time>
      </trkpt>
      <trkpt lat="45.80971" lon="5.85009">
        <ele>244</ele>
        <time>2021-09-12T09:25:28.964Z</time>
      </trkpt>
      <trkpt lat="45.80975" lon="5.85012">
        <ele>244</ele>
        <time>2021-09-12T09:25:29.963Z</time>
      </trkpt>
      <trkpt lat="45.80978" lon="5.85015">
        <ele>245</ele>
        <time>2021-09-12T09:25:30.963Z</time>
      </trkpt>
      <trkpt lat="45.80981" lon="5.85017">
        <ele>245</ele>
        <time>2021-09-12T09:25:31.963Z</time>
      </trkpt>
      <trkpt lat="45.80983" lon="5.8502">
        <ele>245</ele>
        <time>2021-09-12T09:25:32.964Z</time>
      </trkpt>
      <trkpt lat="45.80986" lon="5.85022">
        <ele>245</ele>
        <time>2021-09-12T09:25:33.964Z</time>
      </trkpt>
      <trkpt lat="45.80988" lon="5.85024">
        <ele>245</ele>
        <time>2021-09-12T09:25:34.964Z</time>
      </trkpt>
      <trkpt lat="45.80991" lon="5.85026">
        <ele>245</ele>
        <time>2021-09-12T09:25:35.964Z</time>
      </trkpt>
      <trkpt lat="45.80994" lon="5.85028">
        <ele>246</ele>
        <time>2021-09-12T09:25:36.963Z</time>
      </trkpt>
      <trkpt lat="45.80997" lon="5.8503">
        <ele>246</ele>
        <time>2021-09-12T09:25:37.964Z</time>
      </trkpt>
      <trkpt lat="45.81" lon="5.85033">
        <ele>246</ele>
        <time>2021-09-12T09:25:38.964Z</time>
      </trkpt>
      <trkpt lat="45.81003" lon="5.85035">
        <ele>246</ele>
        <time>2021-09-12T09:25:39.963Z</time>
      </trkpt>
      <trkpt lat="45.81005" lon="5.85038">
        <ele>246</ele>
        <time>2021-09-12T09:25:40.963Z</time>
      </trkpt>
      <trkpt lat="45.81008" lon="5.85041">
        <ele>246</ele>
        <time>2021-09-12T09:25:41.964Z</time>
      </trkpt>
      <trkpt lat="45.8101" lon="5.85043">
        <ele>246</ele>
        <time>2021-09-12T09:25:42.964Z</time>
      </trkpt>
      <trkpt lat="45.81013" lon="5.85046">
        <ele>246</ele>
        <time>2021-09-12T09:25:43.964Z</time>
      </trkpt>
      <trkpt lat="45.81014" lon="5.85047">
        <ele>246</ele>
        <time>2021-09-12T09:25:44.964Z</time>
      </trkpt>
      <trkpt lat="45.81016" lon="5.85048">
        <ele>246</ele>
        <time>2021-09-12T09:25:45.964Z</time>
      </trkpt>
      <trkpt lat="45.81017" lon="5.85049">
        <ele>246</ele>
        <time>2021-09-12T09:25:46.964Z</time>
      </trkpt>
      <trkpt lat="45.81017" lon="5.85049">
        <ele>246</ele>
        <time>2021-09-12T09:25:47.964Z</time>
      </trkpt>
      <trkpt lat="45.81018" lon="5.85049">
        <ele>247</ele>
        <time>2021-09-12T09:25:48.964Z</time>
      </trkpt>
      <trkpt lat="45.81018" lon="5.85049">
        <ele>247</ele>
        <time>2021-09-12T09:25:49.964Z</time>
      </trkpt>
      <trkpt lat="45.81021" lon="5.85051">
        <ele>247</ele>
        <time>2021-09-12T09:25:50.966Z</time>
      </trkpt>
      <trkpt lat="45.81024" lon="5.85053">
        <ele>247</ele>
        <time>2021-09-12T09:25:51.966Z</time>
      </trkpt>
      <trkpt lat="45.81027" lon="5.85055">
        <ele>247</ele>
        <time>2021-09-12T09:25:52.965Z</time>
      </trkpt>
      <trkpt lat="45.8103" lon="5.85057">
        <ele>246</ele>
        <time>2021-09-12T09:25:53.966Z</time>
      </trkpt>
      <trkpt lat="45.81033" lon="5.85058">
        <ele>246</ele>
        <time>2021-09-12T09:25:54.966Z</time>
      </trkpt>
      <trkpt lat="45.81036" lon="5.85059">
        <ele>246</ele>
        <time>2021-09-12T09:25:55.965Z</time>
      </trkpt>
      <trkpt lat="45.81039" lon="5.8506">
        <ele>247</ele>
        <time>2021-09-12T09:25:56.965Z</time>
      </trkpt>
      <trkpt lat="45.81042" lon="5.85061">
        <ele>247</ele>
        <time>2021-09-12T09:25:57.966Z</time>
      </trkpt>
      <trkpt lat="45.81045" lon="5.85063">
        <ele>247</ele>
        <time>2021-09-12T09:25:58.966Z</time>
      </trkpt>
      <trkpt lat="45.81047" lon="5.85066">
        <ele>247</ele>
        <time>2021-09-12T09:25:59.965Z</time>
      </trkpt>
      <trkpt lat="45.81048" lon="5.85069">
        <ele>247</ele>
        <time>2021-09-12T09:26:00.966Z</time>
      </trkpt>
      <trkpt lat="45.81049" lon="5.85072">
        <ele>246</ele>
        <time>2021-09-12T09:26:01.966Z</time>
      </trkpt>
      <trkpt lat="45.8105" lon="5.85076">
        <ele>246</ele>
        <time>2021-09-12T09:26:02.965Z</time>
      </trkpt>
      <trkpt lat="45.8105" lon="5.8508">
        <ele>246</ele>
        <time>2021-09-12T09:26:20.984Z</time>
      </trkpt>
      <trkpt lat="45.81049" lon="5.85084">
        <ele>247</ele>
        <time>2021-09-12T09:26:21.984Z</time>
      </trkpt>
      <trkpt lat="45.81048" lon="5.85088">
        <ele>247</ele>
        <time>2021-09-12T09:26:22.985Z</time>
      </trkpt>
      <trkpt lat="45.81047" lon="5.85091">
        <ele>247</ele>
        <time>2021-09-12T09:26:23.984Z</time>
      </trkpt>
      <trkpt lat="45.81044" lon="5.85094">
        <ele>248</ele>
        <time>2021-09-12T09:26:24.985Z</time>
      </trkpt>
      <trkpt lat="45.81042" lon="5.85097">
        <ele>248</ele>
        <time>2021-09-12T09:26:25.985Z</time>
      </trkpt>
      <trkpt lat="45.81039" lon="5.851">
        <ele>248</ele>
        <time>2021-09-12T09:26:28.980Z</time>
      </trkpt>
      <trkpt lat="45.81036" lon="5.85103">
        <ele>248</ele>
        <time>2021-09-12T09:26:29.980Z</time>
      </trkpt>
      <trkpt lat="45.81033" lon="5.85106">
        <ele>249</ele>
        <time>2021-09-12T09:26:30.980Z</time>
      </trkpt>
      <trkpt lat="45.8103" lon="5.85109">
        <ele>249</ele>
        <time>2021-09-12T09:26:31.980Z</time>
      </trkpt>
      <trkpt lat="45.81027" lon="5.85111">
        <ele>249</ele>
        <time>2021-09-12T09:26:32.980Z</time>
      </trkpt>
      <trkpt lat="45.81024" lon="5.85114">
        <ele>249</ele>
        <time>2021-09-12T09:26:33.980Z</time>
      </trkpt>
      <trkpt lat="45.81022" lon="5.85116">
        <ele>250</ele>
        <time>2021-09-12T09:26:34.979Z</time>
      </trkpt>
      <trkpt lat="45.81018" lon="5.8512">
        <ele>250</ele>
        <time>2021-09-12T09:26:35.980Z</time>
      </trkpt>
      <trkpt lat="45.81015" lon="5.85122">
        <ele>250</ele>
        <time>2021-09-12T09:26:36.979Z</time>
      </trkpt>
      <trkpt lat="45.81012" lon="5.85125">
        <ele>251</ele>
        <time>2021-09-12T09:26:37.980Z</time>
      </trkpt>
      <trkpt lat="45.81009" lon="5.85127">
        <ele>251</ele>
        <time>2021-09-12T09:27:35.126Z</time>
      </trkpt>
      <trkpt lat="45.81006" lon="5.8513">
        <ele>252</ele>
        <time>2021-09-12T09:27:36.126Z</time>
      </trkpt>
      <trkpt lat="45.81002" lon="5.85132">
        <ele>252</ele>
        <time>2021-09-12T09:27:37.125Z</time>
      </trkpt>
      <trkpt lat="45.80999" lon="5.85135">
        <ele>252</ele>
        <time>2021-09-12T09:27:38.126Z</time>
      </trkpt>
      <trkpt lat="45.80995" lon="5.85138">
        <ele>252</ele>
        <time>2021-09-12T09:27:39.126Z</time>
      </trkpt>
      <trkpt lat="45.80991" lon="5.85142">
        <ele>252</ele>
        <time>2021-09-12T09:27:40.126Z</time>
      </trkpt>
      <trkpt lat="45.80987" lon="5.85146">
        <ele>252</ele>
        <time>2021-09-12T09:27:41.125Z</time>
      </trkpt>
      <trkpt lat="45.80983" lon="5.8515">
        <ele>252</ele>
        <time>2021-09-12T09:27:42.126Z</time>
      </trkpt>
      <trkpt lat="45.80979" lon="5.85154">
        <ele>252</ele>
        <time>2021-09-12T09:27:43.126Z</time>
      </trkpt>
      <trkpt lat="45.80975" lon="5.85157">
        <ele>252</ele>
        <time>2021-09-12T09:27:44.126Z</time>
      </trkpt>
      <trkpt lat="45.80971" lon="5.85161">
        <ele>251</ele>
        <time>2021-09-12T09:27:45.125Z</time>
      </trkpt>
      <trkpt lat="45.80967" lon="5.85165">
        <ele>251</ele>
        <time>2021-09-12T09:27:46.126Z</time>
      </trkpt>
      <trkpt lat="45.80963" lon="5.85168">
        <ele>251</ele>
        <time>2021-09-12T09:27:47.126Z</time>
      </trkpt>
      <trkpt lat="45.80958" lon="5.85172">
        <ele>251</ele>
        <time>2021-09-12T09:27:48.126Z</time>
      </trkpt>
      <trkpt lat="45.80954" lon="5.85176">
        <ele>251</ele>
        <time>2021-09-12T09:27:49.126Z</time>
      </trkpt>
      <trkpt lat="45.8095" lon="5.8518">
        <ele>251</ele>
        <time>2021-09-12T09:27:50.126Z</time>
      </trkpt>
      <trkpt lat="45.80945" lon="5.85184">
        <ele>251</ele>
        <time>2021-09-12T09:27:51.126Z</time>
      </trkpt>
      <trkpt lat="45.80941" lon="5.85188">
        <ele>250</ele>
        <time>2021-09-12T09:27:52.126Z</time>
      </trkpt>
      <trkpt lat="45.80937" lon="5.85192">
        <ele>250</ele>
        <time>2021-09-12T09:27:53.125Z</time>
      </trkpt>
      <trkpt lat="45.80932" lon="5.85196">
        <ele>250</ele>
        <time>2021-09-12T09:27:54.125Z</time>
      </trkpt>
      <trkpt lat="45.80928" lon="5.852">
        <ele>250</ele>
        <time>2021-09-12T09:27:55.125Z</time>
      </trkpt>
      <trkpt lat="45.80923" lon="5.85204">
        <ele>251</ele>
        <time>2021-09-12T09:27:56.126Z</time>
      </trkpt>
      <trkpt lat="45.80919" lon="5.85208">
        <ele>251</ele>
        <time>2021-09-12T09:27:57.125Z</time>
      </trkpt>
      <trkpt lat="45.80914" lon="5.85212">
        <ele>251</ele>
        <time>2021-09-12T09:27:58.126Z</time>
      </trkpt>
      <trkpt lat="45.80909" lon="5.85216">
        <ele>251</ele>
        <time>2021-09-12T09:27:59.126Z</time>
      </trkpt>
      <trkpt lat="45.80904" lon="5.85219">
        <ele>252</ele>
        <time>2021-09-12T09:28:00.126Z</time>
      </trkpt>
      <trkpt lat="45.809" lon="5.85223">
        <ele>252</ele>
        <time>2021-09-12T09:28:01.126Z</time>
      </trkpt>
      <trkpt lat="45.80895" lon="5.85228">
        <ele>252</ele>
        <time>2021-09-12T09:28:02.125Z</time>
      </trkpt>
      <trkpt lat="45.8089" lon="5.85232">
        <ele>252</ele>
        <time>2021-09-12T09:28:03.126Z</time>
      </trkpt>
      <trkpt lat="45.80885" lon="5.85236">
        <ele>252</ele>
        <time>2021-09-12T09:28:04.125Z</time>
      </trkpt>
      <trkpt lat="45.8088" lon="5.85241">
        <ele>252</ele>
        <time>2021-09-12T09:28:05.126Z</time>
      </trkpt>
      <trkpt lat="45.80876" lon="5.85245">
        <ele>252</ele>
        <time>2021-09-12T09:28:06.126Z</time>
      </trkpt>
      <trkpt lat="45.80871" lon="5.8525">
        <ele>252</ele>
        <time>2021-09-12T09:28:07.126Z</time>
      </trkpt>
      <trkpt lat="45.80866" lon="5.85254">
        <ele>252</ele>
        <time>2021-09-12T09:28:08.125Z</time>
      </trkpt>
      <trkpt lat="45.80861" lon="5.85258">
        <ele>252</ele>
        <time>2021-09-12T09:28:09.126Z</time>
      </trkpt>
      <trkpt lat="45.80856" lon="5.85263">
        <ele>252</ele>
        <time>2021-09-12T09:28:10.126Z</time>
      </trkpt>
      <trkpt lat="45.80851" lon="5.85267">
        <ele>252</ele>
        <time>2021-09-12T09:28:11.125Z</time>
      </trkpt>
      <trkpt lat="45.80846" lon="5.85272">
        <ele>252</ele>
        <time>2021-09-12T09:28:12.125Z</time>
      </trkpt>
      <trkpt lat="45.80842" lon="5.85276">
        <ele>252</ele>
        <time>2021-09-12T09:28:13.126Z</time>
      </trkpt>
      <trkpt lat="45.80837" lon="5.85279">
        <ele>253</ele>
        <time>2021-09-12T09:28:14.126Z</time>
      </trkpt>
      <trkpt lat="45.80831" lon="5.85285">
        <ele>252</ele>
        <time>2021-09-12T09:28:15.126Z</time>
      </trkpt>
      <trkpt lat="45.80827" lon="5.85289">
        <ele>252</ele>
        <time>2021-09-12T09:28:16.126Z</time>
      </trkpt>
      <trkpt lat="45.80823" lon="5.85293">
        <ele>251</ele>
        <time>2021-09-12T09:28:17.126Z</time>
      </trkpt>
      <trkpt lat="45.80818" lon="5.85297">
        <ele>251</ele>
        <time>2021-09-12T09:28:18.125Z</time>
      </trkpt>
      <trkpt lat="45.80813" lon="5.85302">
        <ele>251</ele>
        <time>2021-09-12T09:28:19.126Z</time>
      </trkpt>
      <trkpt lat="45.80806" lon="5.85306">
        <ele>251</ele>
        <time>2021-09-12T09:28:20.126Z</time>
      </trkpt>
      <trkpt lat="45.80801" lon="5.8531">
        <ele>250</ele>
        <time>2021-09-12T09:28:21.126Z</time>
      </trkpt>
      <trkpt lat="45.80795" lon="5.85314">
        <ele>250</ele>
        <time>2021-09-12T09:28:22.126Z</time>
      </trkpt>
      <trkpt lat="45.80791" lon="5.85316">
        <ele>249</ele>
        <time>2021-09-12T09:28:23.125Z</time>
      </trkpt>
      <trkpt lat="45.80784" lon="5.85319">
        <ele>249</ele>
        <time>2021-09-12T09:28:24.126Z</time>
      </trkpt>
      <trkpt lat="45.80778" lon="5.85322">
        <ele>248</ele>
        <time>2021-09-12T09:28:25.126Z</time>
      </trkpt>
      <trkpt lat="45.80772" lon="5.85324">
        <ele>248</ele>
        <time>2021-09-12T09:28:26.126Z</time>
      </trkpt>
      <trkpt lat="45.80767" lon="5.85326">
        <ele>248</ele>
        <time>2021-09-12T09:28:27.125Z</time>
      </trkpt>
      <trkpt lat="45.80762" lon="5.85328">
        <ele>248</ele>
        <time>2021-09-12T09:28:28.126Z</time>
      </trkpt>
      <trkpt lat="45.80755" lon="5.85329">
        <ele>248</ele>
        <time>2021-09-12T09:28:29.125Z</time>
      </trkpt>
      <trkpt lat="45.8075" lon="5.8533">
        <ele>248</ele>
        <time>2021-09-12T09:28:30.126Z</time>
      </trkpt>
      <trkpt lat="45.80744" lon="5.85331">
        <ele>248</ele>
        <time>2021-09-12T09:28:31.126Z</time>
      </trkpt>
      <trkpt lat="45.80739" lon="5.85332">
        <ele>248</ele>
        <time>2021-09-12T09:28:32.126Z</time>
      </trkpt>
      <trkpt lat="45.80734" lon="5.85333">
        <ele>248</ele>
        <time>2021-09-12T09:28:33.126Z</time>
      </trkpt>
      <trkpt lat="45.80728" lon="5.85334">
        <ele>248</ele>
        <time>2021-09-12T09:28:34.126Z</time>
      </trkpt>
      <trkpt lat="45.80722" lon="5.85335">
        <ele>248</ele>
        <time>2021-09-12T09:28:35.126Z</time>
      </trkpt>
      <trkpt lat="45.80718" lon="5.85335">
        <ele>248</ele>
        <time>2021-09-12T09:28:36.126Z</time>
      </trkpt>
      <trkpt lat="45.80713" lon="5.85337">
        <ele>249</ele>
        <time>2021-09-12T09:28:37.126Z</time>
      </trkpt>
      <trkpt lat="45.80707" lon="5.85338">
        <ele>249</ele>
        <time>2021-09-12T09:28:38.126Z</time>
      </trkpt>
      <trkpt lat="45.80702" lon="5.85339">
        <ele>249</ele>
        <time>2021-09-12T09:28:39.126Z</time>
      </trkpt>
      <trkpt lat="45.80697" lon="5.8534">
        <ele>250</ele>
        <time>2021-09-12T09:28:40.126Z</time>
      </trkpt>
      <trkpt lat="45.80691" lon="5.85342">
        <ele>250</ele>
        <time>2021-09-12T09:28:41.126Z</time>
      </trkpt>
      <trkpt lat="45.80686" lon="5.85343">
        <ele>250</ele>
        <time>2021-09-12T09:28:42.125Z</time>
      </trkpt>
      <trkpt lat="45.80679" lon="5.85344">
        <ele>250</ele>
        <time>2021-09-12T09:28:43.125Z</time>
      </trkpt>
      <trkpt lat="45.80674" lon="5.85346">
        <ele>250</ele>
        <time>2021-09-12T09:28:44.126Z</time>
      </trkpt>
      <trkpt lat="45.80669" lon="5.85346">
        <ele>250</ele>
        <time>2021-09-12T09:28:45.126Z</time>
      </trkpt>
      <trkpt lat="45.80663" lon="5.85348">
        <ele>250</ele>
        <time>2021-09-12T09:28:46.126Z</time>
      </trkpt>
      <trkpt lat="45.80659" lon="5.85348">
        <ele>250</ele>
        <time>2021-09-12T09:28:47.125Z</time>
      </trkpt>
      <trkpt lat="45.80653" lon="5.8535">
        <ele>250</ele>
        <time>2021-09-12T09:28:48.126Z</time>
      </trkpt>
      <trkpt lat="45.80647" lon="5.85352">
        <ele>250</ele>
        <time>2021-09-12T09:28:49.125Z</time>
      </trkpt>
      <trkpt lat="45.80641" lon="5.85354">
        <ele>250</ele>
        <time>2021-09-12T09:28:50.126Z</time>
      </trkpt>
      <trkpt lat="45.80636" lon="5.85355">
        <ele>250</ele>
        <time>2021-09-12T09:28:51.126Z</time>
      </trkpt>
      <trkpt lat="45.8063" lon="5.85357">
        <ele>250</ele>
        <time>2021-09-12T09:28:52.126Z</time>
      </trkpt>
      <trkpt lat="45.80625" lon="5.8536">
        <ele>250</ele>
        <time>2021-09-12T09:28:53.125Z</time>
      </trkpt>
      <trkpt lat="45.80621" lon="5.85362">
        <ele>249</ele>
        <time>2021-09-12T09:28:54.125Z</time>
      </trkpt>
      <trkpt lat="45.80616" lon="5.85365">
        <ele>248</ele>
        <time>2021-09-12T09:28:55.126Z</time>
      </trkpt>
      <trkpt lat="45.80612" lon="5.85368">
        <ele>248</ele>
        <time>2021-09-12T09:28:56.125Z</time>
      </trkpt>
      <trkpt lat="45.80608" lon="5.85371">
        <ele>247</ele>
        <time>2021-09-12T09:28:57.125Z</time>
      </trkpt>
      <trkpt lat="45.80602" lon="5.85375">
        <ele>247</ele>
        <time>2021-09-12T09:28:58.126Z</time>
      </trkpt>
      <trkpt lat="45.80598" lon="5.85379">
        <ele>247</ele>
        <time>2021-09-12T09:28:59.126Z</time>
      </trkpt>
      <trkpt lat="45.80594" lon="5.85382">
        <ele>247</ele>
        <time>2021-09-12T09:29:00.126Z</time>
      </trkpt>
      <trkpt lat="45.80591" lon="5.85386">
        <ele>247</ele>
        <time>2021-09-12T09:29:01.125Z</time>
      </trkpt>
      <trkpt lat="45.80587" lon="5.8539">
        <ele>248</ele>
        <time>2021-09-12T09:29:02.125Z</time>
      </trkpt>
      <trkpt lat="45.80582" lon="5.85395">
        <ele>248</ele>
        <time>2021-09-12T09:29:03.125Z</time>
      </trkpt>
      <trkpt lat="45.80578" lon="5.854">
        <ele>248</ele>
        <time>2021-09-12T09:29:04.126Z</time>
      </trkpt>
      <trkpt lat="45.80574" lon="5.85404">
        <ele>248</ele>
        <time>2021-09-12T09:29:05.126Z</time>
      </trkpt>
      <trkpt lat="45.8057" lon="5.85409">
        <ele>247</ele>
        <time>2021-09-12T09:29:06.126Z</time>
      </trkpt>
      <trkpt lat="45.80567" lon="5.85412">
        <ele>247</ele>
        <time>2021-09-12T09:29:07.125Z</time>
      </trkpt>
      <trkpt lat="45.80562" lon="5.85417">
        <ele>247</ele>
        <time>2021-09-12T09:29:08.126Z</time>
      </trkpt>
      <trkpt lat="45.80557" lon="5.85421">
        <ele>246</ele>
        <time>2021-09-12T09:29:09.126Z</time>
      </trkpt>
      <trkpt lat="45.80553" lon="5.85424">
        <ele>246</ele>
        <time>2021-09-12T09:29:10.126Z</time>
      </trkpt>
      <trkpt lat="45.8055" lon="5.85428">
        <ele>246</ele>
        <time>2021-09-12T09:29:11.125Z</time>
      </trkpt>
      <trkpt lat="45.80544" lon="5.85432">
        <ele>246</ele>
        <time>2021-09-12T09:29:12.126Z</time>
      </trkpt>
      <trkpt lat="45.80539" lon="5.85436">
        <ele>246</ele>
        <time>2021-09-12T09:29:13.125Z</time>
      </trkpt>
      <trkpt lat="45.80535" lon="5.85439">
        <ele>246</ele>
        <time>2021-09-12T09:29:14.126Z</time>
      </trkpt>
      <trkpt lat="45.8053" lon="5.85442">
        <ele>246</ele>
        <time>2021-09-12T09:29:15.126Z</time>
      </trkpt>
      <trkpt lat="45.80526" lon="5.85444">
        <ele>245</ele>
        <time>2021-09-12T09:29:16.126Z</time>
      </trkpt>
      <trkpt lat="45.8052" lon="5.85447">
        <ele>245</ele>
        <time>2021-09-12T09:29:17.126Z</time>
      </trkpt>
      <trkpt lat="45.80515" lon="5.8545">
        <ele>245</ele>
        <time>2021-09-12T09:29:18.126Z</time>
      </trkpt>
      <trkpt lat="45.8051" lon="5.85452">
        <ele>245</ele>
        <time>2021-09-12T09:29:19.126Z</time>
      </trkpt>
      <trkpt lat="45.80505" lon="5.85455">
        <ele>245</ele>
        <time>2021-09-12T09:29:20.126Z</time>
      </trkpt>
      <trkpt lat="45.80501" lon="5.85456">
        <ele>245</ele>
        <time>2021-09-12T09:29:21.126Z</time>
      </trkpt>
      <trkpt lat="45.80496" lon="5.85458">
        <ele>245</ele>
        <time>2021-09-12T09:29:22.126Z</time>
      </trkpt>
      <trkpt lat="45.8049" lon="5.85461">
        <ele>245</ele>
        <time>2021-09-12T09:29:23.126Z</time>
      </trkpt>
      <trkpt lat="45.80485" lon="5.85463">
        <ele>246</ele>
        <time>2021-09-12T09:29:24.126Z</time>
      </trkpt>
      <trkpt lat="45.80481" lon="5.85465">
        <ele>246</ele>
        <time>2021-09-12T09:29:25.126Z</time>
      </trkpt>
      <trkpt lat="45.80476" lon="5.85467">
        <ele>246</ele>
        <time>2021-09-12T09:29:26.126Z</time>
      </trkpt>
      <trkpt lat="45.8047" lon="5.8547">
        <ele>246</ele>
        <time>2021-09-12T09:29:27.125Z</time>
      </trkpt>
      <trkpt lat="45.80465" lon="5.85472">
        <ele>246</ele>
        <time>2021-09-12T09:29:28.126Z</time>
      </trkpt>
      <trkpt lat="45.8046" lon="5.85474">
        <ele>245</ele>
        <time>2021-09-12T09:29:29.125Z</time>
      </trkpt>
      <trkpt lat="45.80457" lon="5.85476">
        <ele>245</ele>
        <time>2021-09-12T09:29:30.125Z</time>
      </trkpt>
      <trkpt lat="45.80451" lon="5.85478">
        <ele>245</ele>
        <time>2021-09-12T09:29:31.125Z</time>
      </trkpt>
      <trkpt lat="45.80446" lon="5.8548">
        <ele>245</ele>
        <time>2021-09-12T09:29:34.239Z</time>
      </trkpt>
      <trkpt lat="45.80441" lon="5.85482">
        <ele>246</ele>
        <time>2021-09-12T09:29:35.239Z</time>
      </trkpt>
      <trkpt lat="45.80437" lon="5.85484">
        <ele>246</ele>
        <time>2021-09-12T09:29:41.130Z</time>
      </trkpt>
      <trkpt lat="45.80432" lon="5.85486">
        <ele>246</ele>
        <time>2021-09-12T09:29:42.130Z</time>
      </trkpt>
      <trkpt lat="45.80427" lon="5.85488">
        <ele>246</ele>
        <time>2021-09-12T09:31:43.960Z</time>
      </trkpt>
      <trkpt lat="45.80422" lon="5.8549">
        <ele>246</ele>
        <time>2021-09-12T09:31:44.959Z</time>
      </trkpt>
      <trkpt lat="45.80417" lon="5.85493">
        <ele>246</ele>
        <time>2021-09-12T09:31:45.960Z</time>
      </trkpt>
      <trkpt lat="45.80413" lon="5.85495">
        <ele>246</ele>
        <time>2021-09-12T09:31:46.960Z</time>
      </trkpt>
      <trkpt lat="45.80409" lon="5.85497">
        <ele>246</ele>
        <time>2021-09-12T09:58:43.291Z</time>
      </trkpt>
      <trkpt lat="45.80403" lon="5.855">
        <ele>247</ele>
        <time>2021-09-12T09:58:44.291Z</time>
      </trkpt>
      <trkpt lat="45.804" lon="5.85502">
        <ele>247</ele>
        <time>2021-09-12T09:58:45.291Z</time>
      </trkpt>
      <trkpt lat="45.80395" lon="5.85505">
        <ele>246</ele>
        <time>2021-09-12T09:58:46.291Z</time>
      </trkpt>
      <trkpt lat="45.80391" lon="5.85507">
        <ele>246</ele>
        <time>2021-09-12T09:58:47.291Z</time>
      </trkpt>
      <trkpt lat="45.80387" lon="5.8551">
        <ele>245</ele>
        <time>2021-09-12T09:58:48.291Z</time>
      </trkpt>
      <trkpt lat="45.80383" lon="5.85512">
        <ele>245</ele>
        <time>2021-09-12T09:58:49.291Z</time>
      </trkpt>
      <trkpt lat="45.80378" lon="5.85516">
        <ele>245</ele>
        <time>2021-09-12T09:58:50.291Z</time>
      </trkpt>
      <trkpt lat="45.80374" lon="5.85518">
        <ele>246</ele>
        <time>2021-09-12T09:58:51.291Z</time>
      </trkpt>
      <trkpt lat="45.80371" lon="5.8552">
        <ele>246</ele>
        <time>2021-09-12T09:58:52.291Z</time>
      </trkpt>
      <trkpt lat="45.80368" lon="5.85523">
        <ele>245</ele>
        <time>2021-09-12T09:58:53.291Z</time>
      </trkpt>
      <trkpt lat="45.80364" lon="5.85526">
        <ele>245</ele>
        <time>2021-09-12T09:58:54.291Z</time>
      </trkpt>
      <trkpt lat="45.80361" lon="5.85528">
        <ele>245</ele>
        <time>2021-09-12T09:58:55.291Z</time>
      </trkpt>
      <trkpt lat="45.80358" lon="5.8553">
        <ele>245</ele>
        <time>2021-09-12T09:58:56.291Z</time>
      </trkpt>
      <trkpt lat="45.80355" lon="5.85532">
        <ele>244</ele>
        <time>2021-09-12T09:58:57.290Z</time>
      </trkpt>
      <trkpt lat="45.80352" lon="5.85535">
        <ele>245</ele>
        <time>2021-09-12T09:58:58.291Z</time>
      </trkpt>
      <trkpt lat="45.80348" lon="5.85538">
        <ele>245</ele>
        <time>2021-09-12T09:58:59.290Z</time>
      </trkpt>
      <trkpt lat="45.80345" lon="5.85541">
        <ele>245</ele>
        <time>2021-09-12T09:59:00.291Z</time>
      </trkpt>
      <trkpt lat="45.80342" lon="5.85543">
        <ele>245</ele>
        <time>2021-09-12T09:59:01.290Z</time>
      </trkpt>
      <trkpt lat="45.8034" lon="5.85546">
        <ele>246</ele>
        <time>2021-09-12T09:59:02.290Z</time>
      </trkpt>
      <trkpt lat="45.80336" lon="5.85549">
        <ele>246</ele>
        <time>2021-09-12T09:59:03.290Z</time>
      </trkpt>
      <trkpt lat="45.80333" lon="5.85551">
        <ele>247</ele>
        <time>2021-09-12T09:59:04.291Z</time>
      </trkpt>
      <trkpt lat="45.80331" lon="5.85554">
        <ele>247</ele>
        <time>2021-09-12T09:59:05.290Z</time>
      </trkpt>
      <trkpt lat="45.80328" lon="5.85556">
        <ele>248</ele>
        <time>2021-09-12T09:59:06.291Z</time>
      </trkpt>
      <trkpt lat="45.80326" lon="5.85559">
        <ele>248</ele>
        <time>2021-09-12T09:59:07.291Z</time>
      </trkpt>
      <trkpt lat="45.80322" lon="5.85562">
        <ele>248</ele>
        <time>2021-09-12T09:59:08.290Z</time>
      </trkpt>
      <trkpt lat="45.8032" lon="5.85565">
        <ele>249</ele>
        <time>2021-09-12T09:59:09.291Z</time>
      </trkpt>
      <trkpt lat="45.80317" lon="5.85567">
        <ele>249</ele>
        <time>2021-09-12T09:59:10.291Z</time>
      </trkpt>
      <trkpt lat="45.80315" lon="5.8557">
        <ele>249</ele>
        <time>2021-09-12T09:59:11.290Z</time>
      </trkpt>
      <trkpt lat="45.80312" lon="5.85573">
        <ele>249</ele>
        <time>2021-09-12T09:59:12.291Z</time>
      </trkpt>
      <trkpt lat="45.8031" lon="5.85575">
        <ele>250</ele>
        <time>2021-09-12T09:59:13.291Z</time>
      </trkpt>
      <trkpt lat="45.80307" lon="5.85578">
        <ele>251</ele>
        <time>2021-09-12T09:59:14.291Z</time>
      </trkpt>
      <trkpt lat="45.80305" lon="5.85582">
        <ele>251</ele>
        <time>2021-09-12T09:59:15.291Z</time>
      </trkpt>
      <trkpt lat="45.80303" lon="5.85584">
        <ele>251</ele>
        <time>2021-09-12T10:01:31.399Z</time>
      </trkpt>
      <trkpt lat="45.80301" lon="5.85587">
        <ele>251</ele>
        <time>2021-09-12T10:01:32.399Z</time>
      </trkpt>
      <trkpt lat="45.80298" lon="5.8559">
        <ele>252</ele>
        <time>2021-09-12T10:01:33.399Z</time>
      </trkpt>
      <trkpt lat="45.80296" lon="5.85593">
        <ele>252</ele>
        <time>2021-09-12T10:01:34.399Z</time>
      </trkpt>
      <trkpt lat="45.80294" lon="5.85596">
        <ele>252</ele>
        <time>2021-09-12T10:01:35.399Z</time>
      </trkpt>
      <trkpt lat="45.80291" lon="5.85599">
        <ele>252</ele>
        <time>2021-09-12T10:01:36.399Z</time>
      </trkpt>
      <trkpt lat="45.80289" lon="5.85602">
        <ele>251</ele>
        <time>2021-09-12T10:01:37.399Z</time>
      </trkpt>
      <trkpt lat="45.80286" lon="5.85605">
        <ele>251</ele>
        <time>2021-09-12T10:01:38.399Z</time>
      </trkpt>
      <trkpt lat="45.80284" lon="5.85608">
        <ele>251</ele>
        <time>2021-09-12T10:01:39.399Z</time>
      </trkpt>
      <trkpt lat="45.80282" lon="5.85612">
        <ele>251</ele>
        <time>2021-09-12T10:01:40.398Z</time>
      </trkpt>
      <trkpt lat="45.80279" lon="5.85615">
        <ele>251</ele>
        <time>2021-09-12T10:01:41.398Z</time>
      </trkpt>
      <trkpt lat="45.80277" lon="5.85618">
        <ele>251</ele>
        <time>2021-09-12T10:01:42.398Z</time>
      </trkpt>
      <trkpt lat="45.80275" lon="5.85622">
        <ele>251</ele>
        <time>2021-09-12T10:01:43.399Z</time>
      </trkpt>
      <trkpt lat="45.80272" lon="5.85625">
        <ele>251</ele>
        <time>2021-09-12T10:01:44.399Z</time>
      </trkpt>
      <trkpt lat="45.8027" lon="5.85628">
        <ele>252</ele>
        <time>2021-09-12T10:01:45.398Z</time>
      </trkpt>
      <trkpt lat="45.80268" lon="5.8563">
        <ele>252</ele>
        <time>2021-09-12T10:01:46.399Z</time>
      </trkpt>
      <trkpt lat="45.80266" lon="5.85634">
        <ele>252</ele>
        <time>2021-09-12T10:01:47.398Z</time>
      </trkpt>
      <trkpt lat="45.80263" lon="5.85638">
        <ele>252</ele>
        <time>2021-09-12T10:01:48.399Z</time>
      </trkpt>
      <trkpt lat="45.80261" lon="5.85641">
        <ele>252</ele>
        <time>2021-09-12T10:01:49.399Z</time>
      </trkpt>
      <trkpt lat="45.80258" lon="5.85645">
        <ele>253</ele>
        <time>2021-09-12T10:01:50.399Z</time>
      </trkpt>
      <trkpt lat="45.80256" lon="5.85648">
        <ele>252</ele>
        <time>2021-09-12T10:01:51.399Z</time>
      </trkpt>
      <trkpt lat="45.80253" lon="5.85652">
        <ele>252</ele>
        <time>2021-09-12T10:01:52.399Z</time>
      </trkpt>
      <trkpt lat="45.80251" lon="5.85655">
        <ele>253</ele>
        <time>2021-09-12T10:01:53.399Z</time>
      </trkpt>
      <trkpt lat="45.80248" lon="5.85659">
        <ele>252</ele>
        <time>2021-09-12T10:01:54.399Z</time>
      </trkpt>
      <trkpt lat="45.80246" lon="5.85661">
        <ele>252</ele>
        <time>2021-09-12T10:01:55.399Z</time>
      </trkpt>
      <trkpt lat="45.80243" lon="5.85665">
        <ele>252</ele>
        <time>2021-09-12T10:01:56.398Z</time>
      </trkpt>
      <trkpt lat="45.8024" lon="5.85667">
        <ele>253</ele>
        <time>2021-09-12T10:01:57.398Z</time>
      </trkpt>
      <trkpt lat="45.80238" lon="5.8567">
        <ele>253</ele>
        <time>2021-09-12T10:01:58.399Z</time>
      </trkpt>
      <trkpt lat="45.80235" lon="5.85672">
        <ele>254</ele>
        <time>2021-09-12T10:01:59.398Z</time>
      </trkpt>
      <trkpt lat="45.80232" lon="5.85673">
        <ele>255</ele>
        <time>2021-09-12T10:02:00.399Z</time>
      </trkpt>
      <trkpt lat="45.80229" lon="5.85676">
        <ele>255</ele>
        <time>2021-09-12T10:02:01.398Z</time>
      </trkpt>
      <trkpt lat="45.80226" lon="5.85678">
        <ele>256</ele>
        <time>2021-09-12T10:02:02.399Z</time>
      </trkpt>
      <trkpt lat="45.80222" lon="5.8568">
        <ele>256</ele>
        <time>2021-09-12T10:02:03.399Z</time>
      </trkpt>
      <trkpt lat="45.8022" lon="5.85681">
        <ele>257</ele>
        <time>2021-09-12T10:02:04.398Z</time>
      </trkpt>
      <trkpt lat="45.80217" lon="5.85682">
        <ele>257</ele>
        <time>2021-09-12T10:02:05.399Z</time>
      </trkpt>
      <trkpt lat="45.80212" lon="5.85684">
        <ele>257</ele>
        <time>2021-09-12T10:02:06.399Z</time>
      </trkpt>
      <trkpt lat="45.80209" lon="5.85685">
        <ele>257</ele>
        <time>2021-09-12T10:02:07.399Z</time>
      </trkpt>
      <trkpt lat="45.80206" lon="5.85686">
        <ele>257</ele>
        <time>2021-09-12T10:02:08.399Z</time>
      </trkpt>
      <trkpt lat="45.80203" lon="5.85686">
        <ele>257</ele>
        <time>2021-09-12T10:02:09.399Z</time>
      </trkpt>
      <trkpt lat="45.80199" lon="5.85687">
        <ele>257</ele>
        <time>2021-09-12T10:02:13.525Z</time>
      </trkpt>
      <trkpt lat="45.80195" lon="5.85688">
        <ele>257</ele>
        <time>2021-09-12T10:02:14.526Z</time>
      </trkpt>
      <trkpt lat="45.80192" lon="5.85688">
        <ele>257</ele>
        <time>2021-09-12T10:02:15.526Z</time>
      </trkpt>
      <trkpt lat="45.80189" lon="5.85689">
        <ele>258</ele>
        <time>2021-09-12T10:02:16.526Z</time>
      </trkpt>
      <trkpt lat="45.80185" lon="5.85689">
        <ele>258</ele>
        <time>2021-09-12T10:02:17.526Z</time>
      </trkpt>
      <trkpt lat="45.80181" lon="5.8569">
        <ele>258</ele>
        <time>2021-09-12T10:02:18.526Z</time>
      </trkpt>
      <trkpt lat="45.80178" lon="5.85691">
        <ele>258</ele>
        <time>2021-09-12T10:02:19.526Z</time>
      </trkpt>
      <trkpt lat="45.80174" lon="5.85692">
        <ele>258</ele>
        <time>2021-09-12T10:02:20.526Z</time>
      </trkpt>
      <trkpt lat="45.80171" lon="5.85693">
        <ele>257</ele>
        <time>2021-09-12T10:02:21.526Z</time>
      </trkpt>
      <trkpt lat="45.80167" lon="5.85694">
        <ele>257</ele>
        <time>2021-09-12T10:02:22.526Z</time>
      </trkpt>
      <trkpt lat="45.80164" lon="5.85695">
        <ele>257</ele>
        <time>2021-09-12T10:02:23.526Z</time>
      </trkpt>
      <trkpt lat="45.8016" lon="5.85695">
        <ele>257</ele>
        <time>2021-09-12T10:02:24.526Z</time>
      </trkpt>
      <trkpt lat="45.80157" lon="5.85696">
        <ele>257</ele>
        <time>2021-09-12T10:02:25.526Z</time>
      </trkpt>
      <trkpt lat="45.80153" lon="5.85697">
        <ele>257</ele>
        <time>2021-09-12T10:02:26.526Z</time>
      </trkpt>
      <trkpt lat="45.8015" lon="5.85698">
        <ele>257</ele>
        <time>2021-09-12T10:02:27.526Z</time>
      </trkpt>
      <trkpt lat="45.80146" lon="5.85699">
        <ele>258</ele>
        <time>2021-09-12T10:02:28.526Z</time>
      </trkpt>
      <trkpt lat="45.80143" lon="5.857">
        <ele>258</ele>
        <time>2021-09-12T10:02:29.526Z</time>
      </trkpt>
      <trkpt lat="45.8014" lon="5.85702">
        <ele>258</ele>
        <time>2021-09-12T10:02:30.526Z</time>
      </trkpt>
      <trkpt lat="45.80137" lon="5.85704">
        <ele>258</ele>
        <time>2021-09-12T10:02:31.526Z</time>
      </trkpt>
      <trkpt lat="45.80135" lon="5.85705">
        <ele>258</ele>
        <time>2021-09-12T10:02:32.526Z</time>
      </trkpt>
      <trkpt lat="45.80132" lon="5.85707">
        <ele>258</ele>
        <time>2021-09-12T10:02:33.525Z</time>
      </trkpt>
      <trkpt lat="45.80128" lon="5.85709">
        <ele>257</ele>
        <time>2021-09-12T10:02:34.526Z</time>
      </trkpt>
      <trkpt lat="45.80125" lon="5.85711">
        <ele>257</ele>
        <time>2021-09-12T10:02:35.526Z</time>
      </trkpt>
      <trkpt lat="45.80123" lon="5.85712">
        <ele>256</ele>
        <time>2021-09-12T10:02:36.526Z</time>
      </trkpt>
      <trkpt lat="45.80119" lon="5.85714">
        <ele>256</ele>
        <time>2021-09-12T10:02:37.526Z</time>
      </trkpt>
      <trkpt lat="45.80116" lon="5.85715">
        <ele>255</ele>
        <time>2021-09-12T10:02:38.526Z</time>
      </trkpt>
      <trkpt lat="45.80113" lon="5.85717">
        <ele>255</ele>
        <time>2021-09-12T10:02:39.525Z</time>
      </trkpt>
      <trkpt lat="45.8011" lon="5.85718">
        <ele>256</ele>
        <time>2021-09-12T10:02:40.526Z</time>
      </trkpt>
      <trkpt lat="45.80108" lon="5.8572">
        <ele>257</ele>
        <time>2021-09-12T10:02:41.526Z</time>
      </trkpt>
      <trkpt lat="45.80105" lon="5.85721">
        <ele>257</ele>
        <time>2021-09-12T10:02:42.525Z</time>
      </trkpt>
      <trkpt lat="45.80101" lon="5.85723">
        <ele>257</ele>
        <time>2021-09-12T10:02:43.526Z</time>
      </trkpt>
      <trkpt lat="45.80098" lon="5.85725">
        <ele>258</ele>
        <time>2021-09-12T10:02:44.526Z</time>
      </trkpt>
      <trkpt lat="45.80096" lon="5.85727">
        <ele>259</ele>
        <time>2021-09-12T10:02:45.526Z</time>
      </trkpt>
      <trkpt lat="45.80093" lon="5.85728">
        <ele>259</ele>
        <time>2021-09-12T10:02:46.526Z</time>
      </trkpt>
      <trkpt lat="45.8009" lon="5.85731">
        <ele>260</ele>
        <time>2021-09-12T10:02:47.525Z</time>
      </trkpt>
      <trkpt lat="45.80087" lon="5.85732">
        <ele>260</ele>
        <time>2021-09-12T10:02:48.526Z</time>
      </trkpt>
      <trkpt lat="45.80084" lon="5.85734">
        <ele>261</ele>
        <time>2021-09-12T10:02:49.525Z</time>
      </trkpt>
      <trkpt lat="45.80082" lon="5.85735">
        <ele>261</ele>
        <time>2021-09-12T10:02:50.526Z</time>
      </trkpt>
      <trkpt lat="45.80079" lon="5.85737">
        <ele>261</ele>
        <time>2021-09-12T10:02:51.526Z</time>
      </trkpt>
      <trkpt lat="45.80076" lon="5.85739">
        <ele>261</ele>
        <time>2021-09-12T10:02:52.525Z</time>
      </trkpt>
      <trkpt lat="45.80073" lon="5.85741">
        <ele>261</ele>
        <time>2021-09-12T10:02:53.526Z</time>
      </trkpt>
      <trkpt lat="45.8007" lon="5.85742">
        <ele>261</ele>
        <time>2021-09-12T10:02:54.526Z</time>
      </trkpt>
      <trkpt lat="45.80068" lon="5.85744">
        <ele>261</ele>
        <time>2021-09-12T10:02:55.526Z</time>
      </trkpt>
      <trkpt lat="45.80066" lon="5.85746">
        <ele>261</ele>
        <time>2021-09-12T10:02:56.526Z</time>
      </trkpt>
      <trkpt lat="45.80063" lon="5.85748">
        <ele>261</ele>
        <time>2021-09-12T10:02:57.526Z</time>
      </trkpt>
      <trkpt lat="45.8006" lon="5.8575">
        <ele>261</ele>
        <time>2021-09-12T10:02:58.526Z</time>
      </trkpt>
      <trkpt lat="45.80057" lon="5.85752">
        <ele>261</ele>
        <time>2021-09-12T10:02:59.526Z</time>
      </trkpt>
      <trkpt lat="45.80055" lon="5.85753">
        <ele>261</ele>
        <time>2021-09-12T10:03:00.526Z</time>
      </trkpt>
      <trkpt lat="45.80052" lon="5.85755">
        <ele>261</ele>
        <time>2021-09-12T10:03:01.526Z</time>
      </trkpt>
      <trkpt lat="45.80049" lon="5.85757">
        <ele>262</ele>
        <time>2021-09-12T10:03:02.526Z</time>
      </trkpt>
      <trkpt lat="45.80046" lon="5.85758">
        <ele>262</ele>
        <time>2021-09-12T10:03:03.526Z</time>
      </trkpt>
      <trkpt lat="45.80044" lon="5.8576">
        <ele>262</ele>
        <time>2021-09-12T10:03:04.526Z</time>
      </trkpt>
      <trkpt lat="45.80041" lon="5.85761">
        <ele>262</ele>
        <time>2021-09-12T10:03:05.526Z</time>
      </trkpt>
      <trkpt lat="45.80039" lon="5.85763">
        <ele>262</ele>
        <time>2021-09-12T10:03:06.526Z</time>
      </trkpt>
      <trkpt lat="45.80035" lon="5.85765">
        <ele>263</ele>
        <time>2021-09-12T10:03:07.525Z</time>
      </trkpt>
      <trkpt lat="45.80033" lon="5.85767">
        <ele>263</ele>
        <time>2021-09-12T10:03:08.526Z</time>
      </trkpt>
      <trkpt lat="45.8003" lon="5.85768">
        <ele>264</ele>
        <time>2021-09-12T10:03:09.526Z</time>
      </trkpt>
      <trkpt lat="45.80028" lon="5.85769">
        <ele>264</ele>
        <time>2021-09-12T10:03:10.526Z</time>
      </trkpt>
      <trkpt lat="45.80025" lon="5.85771">
        <ele>265</ele>
        <time>2021-09-12T10:03:11.526Z</time>
      </trkpt>
      <trkpt lat="45.80022" lon="5.85772">
        <ele>266</ele>
        <time>2021-09-12T10:03:12.526Z</time>
      </trkpt>
      <trkpt lat="45.8002" lon="5.85774">
        <ele>266</ele>
        <time>2021-09-12T10:03:13.525Z</time>
      </trkpt>
      <trkpt lat="45.80017" lon="5.85776">
        <ele>266</ele>
        <time>2021-09-12T10:03:14.526Z</time>
      </trkpt>
      <trkpt lat="45.80015" lon="5.85777">
        <ele>266</ele>
        <time>2021-09-12T10:03:15.525Z</time>
      </trkpt>
      <trkpt lat="45.80012" lon="5.85778">
        <ele>266</ele>
        <time>2021-09-12T10:03:16.526Z</time>
      </trkpt>
      <trkpt lat="45.80009" lon="5.8578">
        <ele>266</ele>
        <time>2021-09-12T10:03:17.526Z</time>
      </trkpt>
      <trkpt lat="45.80007" lon="5.85782">
        <ele>265</ele>
        <time>2021-09-12T10:03:18.526Z</time>
      </trkpt>
      <trkpt lat="45.80004" lon="5.85783">
        <ele>265</ele>
        <time>2021-09-12T10:03:19.526Z</time>
      </trkpt>
      <trkpt lat="45.80002" lon="5.85784">
        <ele>265</ele>
        <time>2021-09-12T10:03:20.526Z</time>
      </trkpt>
      <trkpt lat="45.79999" lon="5.85786">
        <ele>264</ele>
        <time>2021-09-12T10:03:21.526Z</time>
      </trkpt>
      <trkpt lat="45.79997" lon="5.85788">
        <ele>264</ele>
        <time>2021-09-12T10:03:22.525Z</time>
      </trkpt>
      <trkpt lat="45.79994" lon="5.85789">
        <ele>264</ele>
        <time>2021-09-12T10:03:23.526Z</time>
      </trkpt>
      <trkpt lat="45.79991" lon="5.85791">
        <ele>263</ele>
        <time>2021-09-12T10:03:24.526Z</time>
      </trkpt>
      <trkpt lat="45.79989" lon="5.85792">
        <ele>263</ele>
        <time>2021-09-12T10:03:25.525Z</time>
      </trkpt>
      <trkpt lat="45.79987" lon="5.85794">
        <ele>263</ele>
        <time>2021-09-12T10:03:26.525Z</time>
      </trkpt>
      <trkpt lat="45.79984" lon="5.85795">
        <ele>263</ele>
        <time>2021-09-12T10:03:27.525Z</time>
      </trkpt>
      <trkpt lat="45.79981" lon="5.85797">
        <ele>263</ele>
        <time>2021-09-12T10:03:28.526Z</time>
      </trkpt>
      <trkpt lat="45.79979" lon="5.85799">
        <ele>263</ele>
        <time>2021-09-12T10:03:29.526Z</time>
      </trkpt>
      <trkpt lat="45.79977" lon="5.858">
        <ele>263</ele>
        <time>2021-09-12T10:03:30.525Z</time>
      </trkpt>
      <trkpt lat="45.79973" lon="5.85802">
        <ele>264</ele>
        <time>2021-09-12T10:03:31.526Z</time>
      </trkpt>
      <trkpt lat="45.79971" lon="5.85804">
        <ele>264</ele>
        <time>2021-09-12T10:03:32.526Z</time>
      </trkpt>
      <trkpt lat="45.79968" lon="5.85805">
        <ele>265</ele>
        <time>2021-09-12T10:03:33.526Z</time>
      </trkpt>
      <trkpt lat="45.79966" lon="5.85806">
        <ele>265</ele>
        <time>2021-09-12T10:03:34.526Z</time>
      </trkpt>
      <trkpt lat="45.79963" lon="5.85808">
        <ele>265</ele>
        <time>2021-09-12T10:03:35.525Z</time>
      </trkpt>
      <trkpt lat="45.7996" lon="5.85809">
        <ele>265</ele>
        <time>2021-09-12T10:03:36.526Z</time>
      </trkpt>
      <trkpt lat="45.79957" lon="5.85811">
        <ele>266</ele>
        <time>2021-09-12T10:03:37.525Z</time>
      </trkpt>
      <trkpt lat="45.79955" lon="5.85813">
        <ele>267</ele>
        <time>2021-09-12T10:03:38.525Z</time>
      </trkpt>
      <trkpt lat="45.79953" lon="5.85814">
        <ele>267</ele>
        <time>2021-09-12T10:03:39.526Z</time>
      </trkpt>
      <trkpt lat="45.7995" lon="5.85815">
        <ele>268</ele>
        <time>2021-09-12T10:03:40.526Z</time>
      </trkpt>
      <trkpt lat="45.79947" lon="5.85817">
        <ele>268</ele>
        <time>2021-09-12T10:03:41.526Z</time>
      </trkpt>
      <trkpt lat="45.79945" lon="5.85818">
        <ele>268</ele>
        <time>2021-09-12T10:03:42.525Z</time>
      </trkpt>
      <trkpt lat="45.79942" lon="5.8582">
        <ele>268</ele>
        <time>2021-09-12T10:03:43.526Z</time>
      </trkpt>
      <trkpt lat="45.7994" lon="5.85821">
        <ele>268</ele>
        <time>2021-09-12T10:03:44.525Z</time>
      </trkpt>
      <trkpt lat="45.79938" lon="5.85822">
        <ele>268</ele>
        <time>2021-09-12T10:03:45.526Z</time>
      </trkpt>
      <trkpt lat="45.79935" lon="5.85824">
        <ele>268</ele>
        <time>2021-09-12T10:03:46.526Z</time>
      </trkpt>
      <trkpt lat="45.79933" lon="5.85825">
        <ele>268</ele>
        <time>2021-09-12T10:03:47.525Z</time>
      </trkpt>
      <trkpt lat="45.7993" lon="5.85827">
        <ele>268</ele>
        <time>2021-09-12T10:03:48.525Z</time>
      </trkpt>
      <trkpt lat="45.79928" lon="5.85828">
        <ele>269</ele>
        <time>2021-09-12T10:03:49.526Z</time>
      </trkpt>
      <trkpt lat="45.79925" lon="5.8583">
        <ele>269</ele>
        <time>2021-09-12T10:03:50.526Z</time>
      </trkpt>
      <trkpt lat="45.79922" lon="5.85831">
        <ele>269</ele>
        <time>2021-09-12T10:03:51.526Z</time>
      </trkpt>
      <trkpt lat="45.7992" lon="5.85833">
        <ele>269</ele>
        <time>2021-09-12T10:03:52.526Z</time>
      </trkpt>
      <trkpt lat="45.79917" lon="5.85834">
        <ele>270</ele>
        <time>2021-09-12T10:03:53.526Z</time>
      </trkpt>
      <trkpt lat="45.79915" lon="5.85835">
        <ele>270</ele>
        <time>2021-09-12T10:03:54.526Z</time>
      </trkpt>
      <trkpt lat="45.79911" lon="5.85837">
        <ele>270</ele>
        <time>2021-09-12T10:03:55.526Z</time>
      </trkpt>
      <trkpt lat="45.79909" lon="5.85838">
        <ele>270</ele>
        <time>2021-09-12T10:03:56.526Z</time>
      </trkpt>
      <trkpt lat="45.79907" lon="5.8584">
        <ele>270</ele>
        <time>2021-09-12T10:03:57.526Z</time>
      </trkpt>
      <trkpt lat="45.79904" lon="5.85842">
        <ele>270</ele>
        <time>2021-09-12T10:03:58.526Z</time>
      </trkpt>
      <trkpt lat="45.79902" lon="5.85844">
        <ele>270</ele>
        <time>2021-09-12T10:03:59.526Z</time>
      </trkpt>
      <trkpt lat="45.79899" lon="5.85846">
        <ele>270</ele>
        <time>2021-09-12T10:04:00.526Z</time>
      </trkpt>
      <trkpt lat="45.79896" lon="5.85848">
        <ele>270</ele>
        <time>2021-09-12T10:04:01.526Z</time>
      </trkpt>
      <trkpt lat="45.79894" lon="5.85849">
        <ele>270</ele>
        <time>2021-09-12T10:04:02.526Z</time>
      </trkpt>
      <trkpt lat="45.79891" lon="5.85851">
        <ele>271</ele>
        <time>2021-09-12T10:04:03.525Z</time>
      </trkpt>
      <trkpt lat="45.79888" lon="5.85853">
        <ele>271</ele>
        <time>2021-09-12T10:04:04.525Z</time>
      </trkpt>
      <trkpt lat="45.79885" lon="5.85856">
        <ele>272</ele>
        <time>2021-09-12T10:04:05.525Z</time>
      </trkpt>
      <trkpt lat="45.79882" lon="5.85858">
        <ele>272</ele>
        <time>2021-09-12T10:04:06.526Z</time>
      </trkpt>
      <trkpt lat="45.79879" lon="5.8586">
        <ele>273</ele>
        <time>2021-09-12T10:04:07.526Z</time>
      </trkpt>
      <trkpt lat="45.79877" lon="5.85862">
        <ele>273</ele>
        <time>2021-09-12T10:04:08.525Z</time>
      </trkpt>
      <trkpt lat="45.79874" lon="5.85864">
        <ele>272</ele>
        <time>2021-09-12T10:04:09.525Z</time>
      </trkpt>
      <trkpt lat="45.79871" lon="5.85866">
        <ele>272</ele>
        <time>2021-09-12T10:04:10.525Z</time>
      </trkpt>
      <trkpt lat="45.79868" lon="5.85868">
        <ele>272</ele>
        <time>2021-09-12T10:04:11.526Z</time>
      </trkpt>
      <trkpt lat="45.79865" lon="5.8587">
        <ele>272</ele>
        <time>2021-09-12T10:04:12.526Z</time>
      </trkpt>
      <trkpt lat="45.79863" lon="5.85871">
        <ele>272</ele>
        <time>2021-09-12T10:04:13.525Z</time>
      </trkpt>
      <trkpt lat="45.7986" lon="5.85873">
        <ele>272</ele>
        <time>2021-09-12T10:04:14.526Z</time>
      </trkpt>
      <trkpt lat="45.79858" lon="5.85875">
        <ele>272</ele>
        <time>2021-09-12T10:04:15.526Z</time>
      </trkpt>
      <trkpt lat="45.79854" lon="5.85877">
        <ele>272</ele>
        <time>2021-09-12T10:04:16.526Z</time>
      </trkpt>
      <trkpt lat="45.79851" lon="5.85878">
        <ele>272</ele>
        <time>2021-09-12T10:04:17.526Z</time>
      </trkpt>
      <trkpt lat="45.79849" lon="5.85879">
        <ele>272</ele>
        <time>2021-09-12T10:04:18.526Z</time>
      </trkpt>
      <trkpt lat="45.79846" lon="5.85881">
        <ele>272</ele>
        <time>2021-09-12T10:04:19.526Z</time>
      </trkpt>
      <trkpt lat="45.79843" lon="5.85883">
        <ele>273</ele>
        <time>2021-09-12T10:04:20.525Z</time>
      </trkpt>
      <trkpt lat="45.7984" lon="5.85884">
        <ele>273</ele>
        <time>2021-09-12T10:04:21.525Z</time>
      </trkpt>
      <trkpt lat="45.79838" lon="5.85885">
        <ele>273</ele>
        <time>2021-09-12T10:04:22.526Z</time>
      </trkpt>
      <trkpt lat="45.79836" lon="5.85887">
        <ele>273</ele>
        <time>2021-09-12T10:04:23.525Z</time>
      </trkpt>
      <trkpt lat="45.79832" lon="5.85889">
        <ele>273</ele>
        <time>2021-09-12T10:04:24.526Z</time>
      </trkpt>
      <trkpt lat="45.7983" lon="5.8589">
        <ele>272</ele>
        <time>2021-09-12T10:04:25.526Z</time>
      </trkpt>
      <trkpt lat="45.79827" lon="5.85892">
        <ele>272</ele>
        <time>2021-09-12T10:04:26.525Z</time>
      </trkpt>
      <trkpt lat="45.79824" lon="5.85894">
        <ele>273</ele>
        <time>2021-09-12T10:04:27.526Z</time>
      </trkpt>
      <trkpt lat="45.79822" lon="5.85895">
        <ele>273</ele>
        <time>2021-09-12T10:04:28.526Z</time>
      </trkpt>
      <trkpt lat="45.79819" lon="5.85897">
        <ele>273</ele>
        <time>2021-09-12T10:04:29.526Z</time>
      </trkpt>
      <trkpt lat="45.79817" lon="5.85898">
        <ele>273</ele>
        <time>2021-09-12T10:04:30.526Z</time>
      </trkpt>
      <trkpt lat="45.79814" lon="5.85899">
        <ele>273</ele>
        <time>2021-09-12T10:04:31.526Z</time>
      </trkpt>
      <trkpt lat="45.79811" lon="5.859">
        <ele>273</ele>
        <time>2021-09-12T10:04:32.526Z</time>
      </trkpt>
      <trkpt lat="45.79809" lon="5.85902">
        <ele>273</ele>
        <time>2021-09-12T10:04:33.526Z</time>
      </trkpt>
      <trkpt lat="45.79806" lon="5.85903">
        <ele>273</ele>
        <time>2021-09-12T10:04:34.526Z</time>
      </trkpt>
      <trkpt lat="45.79803" lon="5.85904">
        <ele>273</ele>
        <time>2021-09-12T10:04:35.526Z</time>
      </trkpt>
      <trkpt lat="45.798" lon="5.85904">
        <ele>273</ele>
        <time>2021-09-12T10:04:36.525Z</time>
      </trkpt>
      <trkpt lat="45.79798" lon="5.85904">
        <ele>273</ele>
        <time>2021-09-12T10:04:37.525Z</time>
      </trkpt>
      <trkpt lat="45.79795" lon="5.85903">
        <ele>273</ele>
        <time>2021-09-12T10:04:38.525Z</time>
      </trkpt>
      <trkpt lat="45.79792" lon="5.85902">
        <ele>273</ele>
        <time>2021-09-12T10:04:39.526Z</time>
      </trkpt>
      <trkpt lat="45.79789" lon="5.85902">
        <ele>273</ele>
        <time>2021-09-12T10:04:40.526Z</time>
      </trkpt>
      <trkpt lat="45.79787" lon="5.85902">
        <ele>272</ele>
        <time>2021-09-12T10:04:41.525Z</time>
      </trkpt>
      <trkpt lat="45.79785" lon="5.85902">
        <ele>272</ele>
        <time>2021-09-12T10:04:42.525Z</time>
      </trkpt>
      <trkpt lat="45.79781" lon="5.85902">
        <ele>272</ele>
        <time>2021-09-12T10:04:43.526Z</time>
      </trkpt>
      <trkpt lat="45.79779" lon="5.85903">
        <ele>272</ele>
        <time>2021-09-12T10:04:44.526Z</time>
      </trkpt>
      <trkpt lat="45.79776" lon="5.85903">
        <ele>273</ele>
        <time>2021-09-12T10:04:45.526Z</time>
      </trkpt>
      <trkpt lat="45.79774" lon="5.85904">
        <ele>273</ele>
        <time>2021-09-12T10:04:46.526Z</time>
      </trkpt>
      <trkpt lat="45.79771" lon="5.85904">
        <ele>273</ele>
        <time>2021-09-12T10:04:47.526Z</time>
      </trkpt>
      <trkpt lat="45.79768" lon="5.85905">
        <ele>274</ele>
        <time>2021-09-12T10:04:48.526Z</time>
      </trkpt>
      <trkpt lat="45.79765" lon="5.85905">
        <ele>274</ele>
        <time>2021-09-12T10:04:49.526Z</time>
      </trkpt>
      <trkpt lat="45.79762" lon="5.85906">
        <ele>274</ele>
        <time>2021-09-12T10:04:50.525Z</time>
      </trkpt>
      <trkpt lat="45.7976" lon="5.85906">
        <ele>274</ele>
        <time>2021-09-12T10:04:51.526Z</time>
      </trkpt>
      <trkpt lat="45.79757" lon="5.85907">
        <ele>274</ele>
        <time>2021-09-12T10:04:52.526Z</time>
      </trkpt>
      <trkpt lat="45.79753" lon="5.85908">
        <ele>274</ele>
        <time>2021-09-12T10:04:53.526Z</time>
      </trkpt>
      <trkpt lat="45.79751" lon="5.85909">
        <ele>274</ele>
        <time>2021-09-12T10:04:54.525Z</time>
      </trkpt>
      <trkpt lat="45.79748" lon="5.8591">
        <ele>274</ele>
        <time>2021-09-12T10:04:55.525Z</time>
      </trkpt>
      <trkpt lat="45.79745" lon="5.8591">
        <ele>275</ele>
        <time>2021-09-12T10:04:56.526Z</time>
      </trkpt>
      <trkpt lat="45.79743" lon="5.8591">
        <ele>276</ele>
        <time>2021-09-12T10:04:57.526Z</time>
      </trkpt>
      <trkpt lat="45.79739" lon="5.85911">
        <ele>276</ele>
        <time>2021-09-12T10:04:58.525Z</time>
      </trkpt>
      <trkpt lat="45.79736" lon="5.85912">
        <ele>277</ele>
        <time>2021-09-12T10:04:59.525Z</time>
      </trkpt>
      <trkpt lat="45.79734" lon="5.85912">
        <ele>277</ele>
        <time>2021-09-12T10:05:00.526Z</time>
      </trkpt>
      <trkpt lat="45.79731" lon="5.85913">
        <ele>278</ele>
        <time>2021-09-12T10:05:01.526Z</time>
      </trkpt>
      <trkpt lat="45.79728" lon="5.85913">
        <ele>278</ele>
        <time>2021-09-12T10:05:02.526Z</time>
      </trkpt>
      <trkpt lat="45.79725" lon="5.85913">
        <ele>279</ele>
        <time>2021-09-12T10:05:03.526Z</time>
      </trkpt>
      <trkpt lat="45.79722" lon="5.85914">
        <ele>279</ele>
        <time>2021-09-12T10:05:04.526Z</time>
      </trkpt>
      <trkpt lat="45.79719" lon="5.85914">
        <ele>280</ele>
        <time>2021-09-12T10:05:05.525Z</time>
      </trkpt>
      <trkpt lat="45.79717" lon="5.85915">
        <ele>280</ele>
        <time>2021-09-12T10:05:06.525Z</time>
      </trkpt>
      <trkpt lat="45.79714" lon="5.85915">
        <ele>280</ele>
        <time>2021-09-12T10:05:07.525Z</time>
      </trkpt>
      <trkpt lat="45.79711" lon="5.85916">
        <ele>280</ele>
        <time>2021-09-12T10:05:08.526Z</time>
      </trkpt>
      <trkpt lat="45.79708" lon="5.85917">
        <ele>280</ele>
        <time>2021-09-12T10:05:09.525Z</time>
      </trkpt>
      <trkpt lat="45.79706" lon="5.85917">
        <ele>280</ele>
        <time>2021-09-12T10:05:10.526Z</time>
      </trkpt>
      <trkpt lat="45.79704" lon="5.85918">
        <ele>280</ele>
        <time>2021-09-12T10:05:11.525Z</time>
      </trkpt>
      <trkpt lat="45.79701" lon="5.85918">
        <ele>280</ele>
        <time>2021-09-12T10:05:12.526Z</time>
      </trkpt>
      <trkpt lat="45.79698" lon="5.85919">
        <ele>280</ele>
        <time>2021-09-12T10:05:13.526Z</time>
      </trkpt>
      <trkpt lat="45.79695" lon="5.8592">
        <ele>280</ele>
        <time>2021-09-12T10:05:14.526Z</time>
      </trkpt>
      <trkpt lat="45.79692" lon="5.8592">
        <ele>280</ele>
        <time>2021-09-12T10:06:24.656Z</time>
      </trkpt>
      <trkpt lat="45.79689" lon="5.85921">
        <ele>280</ele>
        <time>2021-09-12T10:06:25.657Z</time>
      </trkpt>
      <trkpt lat="45.79686" lon="5.85922">
        <ele>280</ele>
        <time>2021-09-12T10:06:26.657Z</time>
      </trkpt>
      <trkpt lat="45.79684" lon="5.85922">
        <ele>280</ele>
        <time>2021-09-12T10:06:27.656Z</time>
      </trkpt>
      <trkpt lat="45.7968" lon="5.85923">
        <ele>280</ele>
        <time>2021-09-12T10:06:28.656Z</time>
      </trkpt>
      <trkpt lat="45.79678" lon="5.85924">
        <ele>280</ele>
        <time>2021-09-12T10:06:29.657Z</time>
      </trkpt>
      <trkpt lat="45.79675" lon="5.85925">
        <ele>280</ele>
        <time>2021-09-12T10:06:30.657Z</time>
      </trkpt>
      <trkpt lat="45.79672" lon="5.85925">
        <ele>281</ele>
        <time>2021-09-12T10:06:31.657Z</time>
      </trkpt>
      <trkpt lat="45.79669" lon="5.85926">
        <ele>281</ele>
        <time>2021-09-12T10:06:32.656Z</time>
      </trkpt>
      <trkpt lat="45.79666" lon="5.85927">
        <ele>281</ele>
        <time>2021-09-12T10:06:33.657Z</time>
      </trkpt>
      <trkpt lat="45.79663" lon="5.85927">
        <ele>281</ele>
        <time>2021-09-12T10:06:34.657Z</time>
      </trkpt>
      <trkpt lat="45.7966" lon="5.85928">
        <ele>281</ele>
        <time>2021-09-12T10:06:35.657Z</time>
      </trkpt>
      <trkpt lat="45.79657" lon="5.85929">
        <ele>282</ele>
        <time>2021-09-12T10:06:36.656Z</time>
      </trkpt>
      <trkpt lat="45.79654" lon="5.8593">
        <ele>282</ele>
        <time>2021-09-12T10:06:37.656Z</time>
      </trkpt>
      <trkpt lat="45.79651" lon="5.8593">
        <ele>283</ele>
        <time>2021-09-12T10:06:38.657Z</time>
      </trkpt>
      <trkpt lat="45.79648" lon="5.85931">
        <ele>283</ele>
        <time>2021-09-12T10:06:39.657Z</time>
      </trkpt>
      <trkpt lat="45.79645" lon="5.85932">
        <ele>284</ele>
        <time>2021-09-12T10:06:40.656Z</time>
      </trkpt>
      <trkpt lat="45.79642" lon="5.85933">
        <ele>284</ele>
        <time>2021-09-12T10:06:41.657Z</time>
      </trkpt>
      <trkpt lat="45.79639" lon="5.85934">
        <ele>284</ele>
        <time>2021-09-12T10:06:42.657Z</time>
      </trkpt>
      <trkpt lat="45.79636" lon="5.85935">
        <ele>284</ele>
        <time>2021-09-12T10:06:43.657Z</time>
      </trkpt>
      <trkpt lat="45.79633" lon="5.85936">
        <ele>285</ele>
        <time>2021-09-12T10:06:44.656Z</time>
      </trkpt>
      <trkpt lat="45.7963" lon="5.85937">
        <ele>285</ele>
        <time>2021-09-12T10:06:45.657Z</time>
      </trkpt>
      <trkpt lat="45.79628" lon="5.85938">
        <ele>285</ele>
        <time>2021-09-12T10:06:46.657Z</time>
      </trkpt>
      <trkpt lat="45.79625" lon="5.85939">
        <ele>286</ele>
        <time>2021-09-12T10:06:47.657Z</time>
      </trkpt>
      <trkpt lat="45.79622" lon="5.8594">
        <ele>286</ele>
        <time>2021-09-12T10:06:48.657Z</time>
      </trkpt>
      <trkpt lat="45.79619" lon="5.85941">
        <ele>286</ele>
        <time>2021-09-12T10:06:49.656Z</time>
      </trkpt>
      <trkpt lat="45.79617" lon="5.85942">
        <ele>286</ele>
        <time>2021-09-12T10:06:50.657Z</time>
      </trkpt>
      <trkpt lat="45.79613" lon="5.85943">
        <ele>286</ele>
        <time>2021-09-12T10:06:51.657Z</time>
      </trkpt>
      <trkpt lat="45.7961" lon="5.85944">
        <ele>286</ele>
        <time>2021-09-12T10:06:52.657Z</time>
      </trkpt>
      <trkpt lat="45.79608" lon="5.85945">
        <ele>286</ele>
        <time>2021-09-12T10:06:53.657Z</time>
      </trkpt>
      <trkpt lat="45.79604" lon="5.85946">
        <ele>287</ele>
        <time>2021-09-12T10:06:54.657Z</time>
      </trkpt>
      <trkpt lat="45.796" lon="5.85947">
        <ele>287</ele>
        <time>2021-09-12T10:06:55.657Z</time>
      </trkpt>
      <trkpt lat="45.79598" lon="5.85947">
        <ele>287</ele>
        <time>2021-09-12T10:06:56.657Z</time>
      </trkpt>
      <trkpt lat="45.79594" lon="5.85948">
        <ele>287</ele>
        <time>2021-09-12T10:06:57.656Z</time>
      </trkpt>
      <trkpt lat="45.79592" lon="5.85949">
        <ele>287</ele>
        <time>2021-09-12T10:06:58.657Z</time>
      </trkpt>
      <trkpt lat="45.79589" lon="5.8595">
        <ele>287</ele>
        <time>2021-09-12T10:06:59.657Z</time>
      </trkpt>
      <trkpt lat="45.79585" lon="5.85951">
        <ele>287</ele>
        <time>2021-09-12T10:07:00.656Z</time>
      </trkpt>
      <trkpt lat="45.79582" lon="5.85952">
        <ele>287</ele>
        <time>2021-09-12T10:07:01.657Z</time>
      </trkpt>
      <trkpt lat="45.79579" lon="5.85953">
        <ele>287</ele>
        <time>2021-09-12T10:07:02.657Z</time>
      </trkpt>
      <trkpt lat="45.79576" lon="5.85954">
        <ele>288</ele>
        <time>2021-09-12T10:07:03.657Z</time>
      </trkpt>
      <trkpt lat="45.79573" lon="5.85956">
        <ele>289</ele>
        <time>2021-09-12T10:07:04.657Z</time>
      </trkpt>
      <trkpt lat="45.79569" lon="5.85957">
        <ele>289</ele>
        <time>2021-09-12T10:07:05.657Z</time>
      </trkpt>
      <trkpt lat="45.79567" lon="5.85958">
        <ele>290</ele>
        <time>2021-09-12T10:07:06.657Z</time>
      </trkpt>
      <trkpt lat="45.79563" lon="5.85959">
        <ele>290</ele>
        <time>2021-09-12T10:07:07.657Z</time>
      </trkpt>
      <trkpt lat="45.79561" lon="5.8596">
        <ele>291</ele>
        <time>2021-09-12T10:07:08.657Z</time>
      </trkpt>
      <trkpt lat="45.79558" lon="5.85961">
        <ele>291</ele>
        <time>2021-09-12T10:07:09.657Z</time>
      </trkpt>
      <trkpt lat="45.79554" lon="5.85962">
        <ele>292</ele>
        <time>2021-09-12T10:07:10.657Z</time>
      </trkpt>
      <trkpt lat="45.79551" lon="5.85963">
        <ele>292</ele>
        <time>2021-09-12T10:07:11.657Z</time>
      </trkpt>
      <trkpt lat="45.79548" lon="5.85964">
        <ele>292</ele>
        <time>2021-09-12T10:07:12.657Z</time>
      </trkpt>
      <trkpt lat="45.79545" lon="5.85965">
        <ele>292</ele>
        <time>2021-09-12T10:07:13.657Z</time>
      </trkpt>
      <trkpt lat="45.79542" lon="5.85966">
        <ele>292</ele>
        <time>2021-09-12T10:07:14.657Z</time>
      </trkpt>
      <trkpt lat="45.79539" lon="5.85967">
        <ele>292</ele>
        <time>2021-09-12T10:07:15.657Z</time>
      </trkpt>
      <trkpt lat="45.79536" lon="5.85968">
        <ele>292</ele>
        <time>2021-09-12T10:07:16.656Z</time>
      </trkpt>
      <trkpt lat="45.79532" lon="5.85969">
        <ele>292</ele>
        <time>2021-09-12T10:07:17.657Z</time>
      </trkpt>
      <trkpt lat="45.79529" lon="5.8597">
        <ele>292</ele>
        <time>2021-09-12T10:07:18.657Z</time>
      </trkpt>
      <trkpt lat="45.79526" lon="5.8597">
        <ele>292</ele>
        <time>2021-09-12T10:07:19.657Z</time>
      </trkpt>
      <trkpt lat="45.79523" lon="5.85971">
        <ele>292</ele>
        <time>2021-09-12T10:07:20.657Z</time>
      </trkpt>
      <trkpt lat="45.79519" lon="5.85972">
        <ele>292</ele>
        <time>2021-09-12T10:07:21.656Z</time>
      </trkpt>
      <trkpt lat="45.79516" lon="5.85973">
        <ele>292</ele>
        <time>2021-09-12T10:07:22.657Z</time>
      </trkpt>
      <trkpt lat="45.79513" lon="5.85974">
        <ele>292</ele>
        <time>2021-09-12T10:07:23.657Z</time>
      </trkpt>
      <trkpt lat="45.79509" lon="5.85975">
        <ele>292</ele>
        <time>2021-09-12T10:07:24.656Z</time>
      </trkpt>
      <trkpt lat="45.79505" lon="5.85975">
        <ele>291</ele>
        <time>2021-09-12T10:07:25.657Z</time>
      </trkpt>
      <trkpt lat="45.79502" lon="5.85976">
        <ele>291</ele>
        <time>2021-09-12T10:07:26.656Z</time>
      </trkpt>
      <trkpt lat="45.79499" lon="5.85977">
        <ele>291</ele>
        <time>2021-09-12T10:07:27.657Z</time>
      </trkpt>
      <trkpt lat="45.79496" lon="5.85978">
        <ele>290</ele>
        <time>2021-09-12T10:07:28.657Z</time>
      </trkpt>
      <trkpt lat="45.79492" lon="5.85978">
        <ele>290</ele>
        <time>2021-09-12T10:07:29.657Z</time>
      </trkpt>
      <trkpt lat="45.79488" lon="5.85979">
        <ele>290</ele>
        <time>2021-09-12T10:07:30.656Z</time>
      </trkpt>
      <trkpt lat="45.79484" lon="5.8598">
        <ele>290</ele>
        <time>2021-09-12T10:07:31.657Z</time>
      </trkpt>
      <trkpt lat="45.79482" lon="5.8598">
        <ele>290</ele>
        <time>2021-09-12T10:07:32.657Z</time>
      </trkpt>
      <trkpt lat="45.79478" lon="5.85981">
        <ele>289</ele>
        <time>2021-09-12T10:07:33.657Z</time>
      </trkpt>
      <trkpt lat="45.79474" lon="5.85981">
        <ele>289</ele>
        <time>2021-09-12T10:07:34.656Z</time>
      </trkpt>
      <trkpt lat="45.7947" lon="5.85982">
        <ele>289</ele>
        <time>2021-09-12T10:07:35.656Z</time>
      </trkpt>
      <trkpt lat="45.79467" lon="5.85983">
        <ele>290</ele>
        <time>2021-09-12T10:07:36.657Z</time>
      </trkpt>
      <trkpt lat="45.79463" lon="5.85983">
        <ele>290</ele>
        <time>2021-09-12T10:07:37.657Z</time>
      </trkpt>
      <trkpt lat="45.7946" lon="5.85984">
        <ele>290</ele>
        <time>2021-09-12T10:07:38.657Z</time>
      </trkpt>
      <trkpt lat="45.79456" lon="5.85984">
        <ele>290</ele>
        <time>2021-09-12T10:07:39.656Z</time>
      </trkpt>
      <trkpt lat="45.79453" lon="5.85985">
        <ele>290</ele>
        <time>2021-09-12T10:07:40.656Z</time>
      </trkpt>
      <trkpt lat="45.79449" lon="5.85986">
        <ele>290</ele>
        <time>2021-09-12T10:07:41.657Z</time>
      </trkpt>
      <trkpt lat="45.79446" lon="5.85987">
        <ele>290</ele>
        <time>2021-09-12T10:07:42.657Z</time>
      </trkpt>
      <trkpt lat="45.79442" lon="5.85988">
        <ele>290</ele>
        <time>2021-09-12T10:07:43.657Z</time>
      </trkpt>
      <trkpt lat="45.79438" lon="5.85988">
        <ele>290</ele>
        <time>2021-09-12T10:07:44.657Z</time>
      </trkpt>
      <trkpt lat="45.79434" lon="5.85989">
        <ele>290</ele>
        <time>2021-09-12T10:07:45.656Z</time>
      </trkpt>
      <trkpt lat="45.7943" lon="5.85989">
        <ele>290</ele>
        <time>2021-09-12T10:07:46.656Z</time>
      </trkpt>
      <trkpt lat="45.79426" lon="5.8599">
        <ele>290</ele>
        <time>2021-09-12T10:07:47.657Z</time>
      </trkpt>
      <trkpt lat="45.79422" lon="5.8599">
        <ele>290</ele>
        <time>2021-09-12T10:07:48.657Z</time>
      </trkpt>
      <trkpt lat="45.79418" lon="5.85991">
        <ele>291</ele>
        <time>2021-09-12T10:07:49.657Z</time>
      </trkpt>
      <trkpt lat="45.79413" lon="5.85991">
        <ele>291</ele>
        <time>2021-09-12T10:07:50.657Z</time>
      </trkpt>
      <trkpt lat="45.79409" lon="5.85992">
        <ele>291</ele>
        <time>2021-09-12T10:07:51.656Z</time>
      </trkpt>
      <trkpt lat="45.79404" lon="5.85993">
        <ele>291</ele>
        <time>2021-09-12T10:07:52.657Z</time>
      </trkpt>
      <trkpt lat="45.79399" lon="5.85993">
        <ele>292</ele>
        <time>2021-09-12T10:07:53.657Z</time>
      </trkpt>
      <trkpt lat="45.79395" lon="5.85994">
        <ele>292</ele>
        <time>2021-09-12T10:07:54.656Z</time>
      </trkpt>
      <trkpt lat="45.7939" lon="5.85995">
        <ele>292</ele>
        <time>2021-09-12T10:07:55.657Z</time>
      </trkpt>
      <trkpt lat="45.79386" lon="5.85995">
        <ele>292</ele>
        <time>2021-09-12T10:07:56.657Z</time>
      </trkpt>
      <trkpt lat="45.79382" lon="5.85996">
        <ele>292</ele>
        <time>2021-09-12T10:07:57.656Z</time>
      </trkpt>
      <trkpt lat="45.79378" lon="5.85997">
        <ele>292</ele>
        <time>2021-09-12T10:07:58.656Z</time>
      </trkpt>
      <trkpt lat="45.79373" lon="5.85998">
        <ele>292</ele>
        <time>2021-09-12T10:07:59.656Z</time>
      </trkpt>
      <trkpt lat="45.7937" lon="5.85998">
        <ele>292</ele>
        <time>2021-09-12T10:08:00.657Z</time>
      </trkpt>
      <trkpt lat="45.79369" lon="5.85998">
        <ele>292</ele>
        <time>2021-09-12T10:08:01.656Z</time>
      </trkpt>
      <trkpt lat="45.79368" lon="5.85998">
        <ele>292</ele>
        <time>2021-09-12T10:08:02.657Z</time>
      </trkpt>
      <trkpt lat="45.79368" lon="5.85998">
        <ele>293</ele>
        <time>2021-09-12T10:08:03.657Z</time>
      </trkpt>
      <trkpt lat="45.79368" lon="5.85997">
        <ele>293</ele>
        <time>2021-09-12T10:08:04.656Z</time>
      </trkpt>
      <trkpt lat="45.79367" lon="5.85997">
        <ele>292</ele>
        <time>2021-09-12T10:08:05.657Z</time>
      </trkpt>
      <trkpt lat="45.79364" lon="5.85998">
        <ele>292</ele>
        <time>2021-09-12T10:08:06.658Z</time>
      </trkpt>
      <trkpt lat="45.7936" lon="5.85999">
        <ele>292</ele>
        <time>2021-09-12T10:08:07.657Z</time>
      </trkpt>
      <trkpt lat="45.79355" lon="5.86001">
        <ele>292</ele>
        <time>2021-09-12T10:08:08.658Z</time>
      </trkpt>
      <trkpt lat="45.7935" lon="5.86003">
        <ele>292</ele>
        <time>2021-09-12T10:08:09.658Z</time>
      </trkpt>
      <trkpt lat="45.79345" lon="5.86004">
        <ele>292</ele>
        <time>2021-09-12T10:08:10.658Z</time>
      </trkpt>
      <trkpt lat="45.7934" lon="5.86004">
        <ele>291</ele>
        <time>2021-09-12T10:08:11.658Z</time>
      </trkpt>
      <trkpt lat="45.79335" lon="5.86005">
        <ele>291</ele>
        <time>2021-09-12T10:08:12.657Z</time>
      </trkpt>
      <trkpt lat="45.7933" lon="5.86006">
        <ele>291</ele>
        <time>2021-09-12T10:08:13.658Z</time>
      </trkpt>
      <trkpt lat="45.79326" lon="5.86007">
        <ele>291</ele>
        <time>2021-09-12T10:08:14.657Z</time>
      </trkpt>
      <trkpt lat="45.79322" lon="5.86008">
        <ele>291</ele>
        <time>2021-09-12T10:08:15.658Z</time>
      </trkpt>
      <trkpt lat="45.79317" lon="5.86009">
        <ele>291</ele>
        <time>2021-09-12T10:08:16.658Z</time>
      </trkpt>
      <trkpt lat="45.79313" lon="5.8601">
        <ele>290</ele>
        <time>2021-09-12T10:08:17.658Z</time>
      </trkpt>
      <trkpt lat="45.79309" lon="5.86011">
        <ele>290</ele>
        <time>2021-09-12T10:08:18.657Z</time>
      </trkpt>
      <trkpt lat="45.79304" lon="5.86012">
        <ele>289</ele>
        <time>2021-09-12T10:08:19.658Z</time>
      </trkpt>
      <trkpt lat="45.793" lon="5.86013">
        <ele>288</ele>
        <time>2021-09-12T10:08:20.657Z</time>
      </trkpt>
      <trkpt lat="45.79295" lon="5.86014">
        <ele>287</ele>
        <time>2021-09-12T10:08:21.657Z</time>
      </trkpt>
      <trkpt lat="45.7929" lon="5.86014">
        <ele>287</ele>
        <time>2021-09-12T10:08:22.657Z</time>
      </trkpt>
      <trkpt lat="45.79284" lon="5.86015">
        <ele>287</ele>
        <time>2021-09-12T10:08:23.657Z</time>
      </trkpt>
      <trkpt lat="45.79279" lon="5.86016">
        <ele>287</ele>
        <time>2021-09-12T10:08:24.657Z</time>
      </trkpt>
      <trkpt lat="45.79274" lon="5.86016">
        <ele>287</ele>
        <time>2021-09-12T10:08:25.657Z</time>
      </trkpt>
      <trkpt lat="45.79268" lon="5.86018">
        <ele>287</ele>
        <time>2021-09-12T10:08:26.658Z</time>
      </trkpt>
      <trkpt lat="45.79262" lon="5.86019">
        <ele>287</ele>
        <time>2021-09-12T10:08:27.657Z</time>
      </trkpt>
      <trkpt lat="45.79256" lon="5.8602">
        <ele>287</ele>
        <time>2021-09-12T10:08:28.658Z</time>
      </trkpt>
      <trkpt lat="45.79249" lon="5.86021">
        <ele>288</ele>
        <time>2021-09-12T10:08:29.658Z</time>
      </trkpt>
      <trkpt lat="45.79242" lon="5.86022">
        <ele>288</ele>
        <time>2021-09-12T10:08:30.658Z</time>
      </trkpt>
      <trkpt lat="45.79235" lon="5.86023">
        <ele>288</ele>
        <time>2021-09-12T10:08:31.658Z</time>
      </trkpt>
      <trkpt lat="45.79228" lon="5.86024">
        <ele>287</ele>
        <time>2021-09-12T10:08:32.657Z</time>
      </trkpt>
      <trkpt lat="45.79221" lon="5.86026">
        <ele>287</ele>
        <time>2021-09-12T10:08:33.657Z</time>
      </trkpt>
      <trkpt lat="45.79213" lon="5.86027">
        <ele>287</ele>
        <time>2021-09-12T10:08:34.658Z</time>
      </trkpt>
      <trkpt lat="45.79206" lon="5.86028">
        <ele>288</ele>
        <time>2021-09-12T10:08:35.658Z</time>
      </trkpt>
      <trkpt lat="45.79198" lon="5.86029">
        <ele>288</ele>
        <time>2021-09-12T10:08:36.657Z</time>
      </trkpt>
      <trkpt lat="45.7919" lon="5.8603">
        <ele>288</ele>
        <time>2021-09-12T10:08:37.658Z</time>
      </trkpt>
      <trkpt lat="45.79182" lon="5.86032">
        <ele>288</ele>
        <time>2021-09-12T10:08:38.658Z</time>
      </trkpt>
      <trkpt lat="45.79174" lon="5.86033">
        <ele>288</ele>
        <time>2021-09-12T10:08:39.658Z</time>
      </trkpt>
      <trkpt lat="45.79167" lon="5.86034">
        <ele>287</ele>
        <time>2021-09-12T10:08:40.658Z</time>
      </trkpt>
      <trkpt lat="45.79159" lon="5.86035">
        <ele>287</ele>
        <time>2021-09-12T10:08:41.658Z</time>
      </trkpt>
      <trkpt lat="45.79151" lon="5.86036">
        <ele>287</ele>
        <time>2021-09-12T10:08:42.657Z</time>
      </trkpt>
      <trkpt lat="45.79143" lon="5.86037">
        <ele>286</ele>
        <time>2021-09-12T10:08:43.657Z</time>
      </trkpt>
      <trkpt lat="45.79135" lon="5.86037">
        <ele>286</ele>
        <time>2021-09-12T10:08:44.658Z</time>
      </trkpt>
      <trkpt lat="45.79127" lon="5.86038">
        <ele>286</ele>
        <time>2021-09-12T10:08:45.658Z</time>
      </trkpt>
      <trkpt lat="45.7912" lon="5.8604">
        <ele>286</ele>
        <time>2021-09-12T10:08:46.658Z</time>
      </trkpt>
      <trkpt lat="45.79112" lon="5.86041">
        <ele>286</ele>
        <time>2021-09-12T10:08:47.658Z</time>
      </trkpt>
      <trkpt lat="45.79104" lon="5.86042">
        <ele>286</ele>
        <time>2021-09-12T10:08:48.658Z</time>
      </trkpt>
      <trkpt lat="45.79096" lon="5.86043">
        <ele>286</ele>
        <time>2021-09-12T10:08:49.658Z</time>
      </trkpt>
      <trkpt lat="45.79088" lon="5.86044">
        <ele>285</ele>
        <time>2021-09-12T10:08:50.657Z</time>
      </trkpt>
      <trkpt lat="45.79081" lon="5.86045">
        <ele>285</ele>
        <time>2021-09-12T10:08:51.657Z</time>
      </trkpt>
      <trkpt lat="45.79073" lon="5.86046">
        <ele>284</ele>
        <time>2021-09-12T10:08:52.657Z</time>
      </trkpt>
      <trkpt lat="45.79065" lon="5.86047">
        <ele>284</ele>
        <time>2021-09-12T10:10:36.788Z</time>
      </trkpt>
      <trkpt lat="45.79057" lon="5.86048">
        <ele>284</ele>
        <time>2021-09-12T10:10:37.789Z</time>
      </trkpt>
      <trkpt lat="45.7905" lon="5.86049">
        <ele>284</ele>
        <time>2021-09-12T10:10:38.789Z</time>
      </trkpt>
      <trkpt lat="45.79043" lon="5.86049">
        <ele>284</ele>
        <time>2021-09-12T10:10:39.788Z</time>
      </trkpt>
      <trkpt lat="45.79036" lon="5.8605">
        <ele>284</ele>
        <time>2021-09-12T10:10:40.788Z</time>
      </trkpt>
      <trkpt lat="45.79029" lon="5.86051">
        <ele>283</ele>
        <time>2021-09-12T10:10:41.788Z</time>
      </trkpt>
      <trkpt lat="45.7902" lon="5.86053">
        <ele>283</ele>
        <time>2021-09-12T10:10:42.789Z</time>
      </trkpt>
      <trkpt lat="45.79013" lon="5.86054">
        <ele>283</ele>
        <time>2021-09-12T10:10:43.788Z</time>
      </trkpt>
      <trkpt lat="45.79006" lon="5.86055">
        <ele>283</ele>
        <time>2021-09-12T10:10:44.788Z</time>
      </trkpt>
      <trkpt lat="45.78999" lon="5.86057">
        <ele>283</ele>
        <time>2021-09-12T10:10:45.789Z</time>
      </trkpt>
      <trkpt lat="45.78992" lon="5.86058">
        <ele>282</ele>
        <time>2021-09-12T10:10:46.789Z</time>
      </trkpt>
      <trkpt lat="45.78985" lon="5.86059">
        <ele>282</ele>
        <time>2021-09-12T10:10:47.788Z</time>
      </trkpt>
      <trkpt lat="45.78977" lon="5.8606">
        <ele>282</ele>
        <time>2021-09-12T10:10:48.789Z</time>
      </trkpt>
      <trkpt lat="45.7897" lon="5.86061">
        <ele>281</ele>
        <time>2021-09-12T10:10:49.789Z</time>
      </trkpt>
      <trkpt lat="45.78963" lon="5.86062">
        <ele>281</ele>
        <time>2021-09-12T10:10:50.789Z</time>
      </trkpt>
      <trkpt lat="45.78956" lon="5.86063">
        <ele>280</ele>
        <time>2021-09-12T10:10:51.789Z</time>
      </trkpt>
      <trkpt lat="45.78948" lon="5.86064">
        <ele>279</ele>
        <time>2021-09-12T10:10:52.788Z</time>
      </trkpt>
      <trkpt lat="45.7894" lon="5.86066">
        <ele>278</ele>
        <time>2021-09-12T10:10:53.789Z</time>
      </trkpt>
      <trkpt lat="45.78933" lon="5.86067">
        <ele>278</ele>
        <time>2021-09-12T10:10:54.789Z</time>
      </trkpt>
      <trkpt lat="45.78924" lon="5.86069">
        <ele>277</ele>
        <time>2021-09-12T10:10:55.789Z</time>
      </trkpt>
      <trkpt lat="45.78916" lon="5.8607">
        <ele>277</ele>
        <time>2021-09-12T10:10:56.789Z</time>
      </trkpt>
      <trkpt lat="45.78908" lon="5.86072">
        <ele>276</ele>
        <time>2021-09-12T10:10:57.788Z</time>
      </trkpt>
      <trkpt lat="45.78899" lon="5.86073">
        <ele>276</ele>
        <time>2021-09-12T10:10:58.788Z</time>
      </trkpt>
      <trkpt lat="45.7889" lon="5.86074">
        <ele>276</ele>
        <time>2021-09-12T10:10:59.788Z</time>
      </trkpt>
      <trkpt lat="45.78882" lon="5.86075">
        <ele>275</ele>
        <time>2021-09-12T10:11:00.789Z</time>
      </trkpt>
      <trkpt lat="45.78873" lon="5.86077">
        <ele>275</ele>
        <time>2021-09-12T10:11:01.789Z</time>
      </trkpt>
      <trkpt lat="45.78864" lon="5.86078">
        <ele>275</ele>
        <time>2021-09-12T10:11:02.788Z</time>
      </trkpt>
      <trkpt lat="45.78856" lon="5.86079">
        <ele>274</ele>
        <time>2021-09-12T10:11:03.789Z</time>
      </trkpt>
      <trkpt lat="45.78847" lon="5.8608">
        <ele>274</ele>
        <time>2021-09-12T10:11:04.789Z</time>
      </trkpt>
      <trkpt lat="45.78838" lon="5.86081">
        <ele>274</ele>
        <time>2021-09-12T10:11:05.789Z</time>
      </trkpt>
      <trkpt lat="45.7883" lon="5.86082">
        <ele>274</ele>
        <time>2021-09-12T10:11:06.789Z</time>
      </trkpt>
      <trkpt lat="45.78821" lon="5.86084">
        <ele>274</ele>
        <time>2021-09-12T10:11:07.789Z</time>
      </trkpt>
      <trkpt lat="45.78813" lon="5.86085">
        <ele>274</ele>
        <time>2021-09-12T10:11:08.789Z</time>
      </trkpt>
      <trkpt lat="45.78804" lon="5.86087">
        <ele>273</ele>
        <time>2021-09-12T10:11:09.788Z</time>
      </trkpt>
      <trkpt lat="45.78796" lon="5.86088">
        <ele>273</ele>
        <time>2021-09-12T10:11:10.788Z</time>
      </trkpt>
      <trkpt lat="45.78788" lon="5.86089">
        <ele>272</ele>
        <time>2021-09-12T10:11:11.789Z</time>
      </trkpt>
      <trkpt lat="45.7878" lon="5.8609">
        <ele>273</ele>
        <time>2021-09-12T10:11:12.789Z</time>
      </trkpt>
      <trkpt lat="45.78772" lon="5.86091">
        <ele>273</ele>
        <time>2021-09-12T10:11:13.789Z</time>
      </trkpt>
      <trkpt lat="45.78764" lon="5.86092">
        <ele>274</ele>
        <time>2021-09-12T10:11:14.789Z</time>
      </trkpt>
      <trkpt lat="45.78756" lon="5.86093">
        <ele>274</ele>
        <time>2021-09-12T10:11:15.789Z</time>
      </trkpt>
      <trkpt lat="45.78749" lon="5.86094">
        <ele>274</ele>
        <time>2021-09-12T10:11:16.789Z</time>
      </trkpt>
      <trkpt lat="45.78741" lon="5.86095">
        <ele>274</ele>
        <time>2021-09-12T10:11:17.789Z</time>
      </trkpt>
      <trkpt lat="45.78733" lon="5.86096">
        <ele>274</ele>
        <time>2021-09-12T10:11:18.788Z</time>
      </trkpt>
      <trkpt lat="45.78725" lon="5.86097">
        <ele>274</ele>
        <time>2021-09-12T10:11:19.789Z</time>
      </trkpt>
      <trkpt lat="45.78717" lon="5.86098">
        <ele>274</ele>
        <time>2021-09-12T10:11:20.789Z</time>
      </trkpt>
      <trkpt lat="45.78709" lon="5.861">
        <ele>274</ele>
        <time>2021-09-12T10:11:21.789Z</time>
      </trkpt>
      <trkpt lat="45.787" lon="5.86101">
        <ele>273</ele>
        <time>2021-09-12T10:11:22.788Z</time>
      </trkpt>
      <trkpt lat="45.78692" lon="5.86102">
        <ele>273</ele>
        <time>2021-09-12T10:11:23.789Z</time>
      </trkpt>
      <trkpt lat="45.78683" lon="5.86104">
        <ele>272</ele>
        <time>2021-09-12T10:11:24.789Z</time>
      </trkpt>
      <trkpt lat="45.78674" lon="5.86106">
        <ele>272</ele>
        <time>2021-09-12T10:11:25.789Z</time>
      </trkpt>
      <trkpt lat="45.78666" lon="5.86108">
        <ele>271</ele>
        <time>2021-09-12T10:11:26.788Z</time>
      </trkpt>
      <trkpt lat="45.78658" lon="5.86111">
        <ele>271</ele>
        <time>2021-09-12T10:11:27.789Z</time>
      </trkpt>
      <trkpt lat="45.78649" lon="5.86115">
        <ele>270</ele>
        <time>2021-09-12T10:11:28.788Z</time>
      </trkpt>
      <trkpt lat="45.78641" lon="5.86119">
        <ele>270</ele>
        <time>2021-09-12T10:11:29.788Z</time>
      </trkpt>
      <trkpt lat="45.78632" lon="5.86124">
        <ele>269</ele>
        <time>2021-09-12T10:11:30.789Z</time>
      </trkpt>
      <trkpt lat="45.78623" lon="5.86129">
        <ele>269</ele>
        <time>2021-09-12T10:11:31.788Z</time>
      </trkpt>
      <trkpt lat="45.78615" lon="5.86134">
        <ele>268</ele>
        <time>2021-09-12T10:11:32.788Z</time>
      </trkpt>
      <trkpt lat="45.78606" lon="5.8614">
        <ele>268</ele>
        <time>2021-09-12T10:11:33.789Z</time>
      </trkpt>
      <trkpt lat="45.78597" lon="5.86145">
        <ele>269</ele>
        <time>2021-09-12T10:11:34.789Z</time>
      </trkpt>
      <trkpt lat="45.78589" lon="5.8615">
        <ele>269</ele>
        <time>2021-09-12T10:11:35.788Z</time>
      </trkpt>
      <trkpt lat="45.78581" lon="5.86155">
        <ele>269</ele>
        <time>2021-09-12T10:11:36.788Z</time>
      </trkpt>
      <trkpt lat="45.78573" lon="5.8616">
        <ele>268</ele>
        <time>2021-09-12T10:11:37.789Z</time>
      </trkpt>
      <trkpt lat="45.78566" lon="5.86165">
        <ele>268</ele>
        <time>2021-09-12T10:11:38.789Z</time>
      </trkpt>
      <trkpt lat="45.78559" lon="5.8617">
        <ele>267</ele>
        <time>2021-09-12T10:11:39.789Z</time>
      </trkpt>
      <trkpt lat="45.78551" lon="5.86175">
        <ele>266</ele>
        <time>2021-09-12T10:11:40.788Z</time>
      </trkpt>
      <trkpt lat="45.78543" lon="5.8618">
        <ele>265</ele>
        <time>2021-09-12T10:11:41.789Z</time>
      </trkpt>
      <trkpt lat="45.78536" lon="5.86185">
        <ele>264</ele>
        <time>2021-09-12T10:11:42.789Z</time>
      </trkpt>
      <trkpt lat="45.78528" lon="5.86189">
        <ele>263</ele>
        <time>2021-09-12T10:11:43.789Z</time>
      </trkpt>
      <trkpt lat="45.78519" lon="5.86194">
        <ele>262</ele>
        <time>2021-09-12T10:11:44.788Z</time>
      </trkpt>
      <trkpt lat="45.78511" lon="5.86199">
        <ele>262</ele>
        <time>2021-09-12T10:11:45.789Z</time>
      </trkpt>
      <trkpt lat="45.78502" lon="5.86205">
        <ele>262</ele>
        <time>2021-09-12T10:11:46.789Z</time>
      </trkpt>
      <trkpt lat="45.78494" lon="5.86211">
        <ele>262</ele>
        <time>2021-09-12T10:11:47.789Z</time>
      </trkpt>
      <trkpt lat="45.78485" lon="5.86217">
        <ele>261</ele>
        <time>2021-09-12T10:11:48.789Z</time>
      </trkpt>
      <trkpt lat="45.78476" lon="5.86222">
        <ele>261</ele>
        <time>2021-09-12T10:11:49.789Z</time>
      </trkpt>
      <trkpt lat="45.78467" lon="5.86228">
        <ele>260</ele>
        <time>2021-09-12T10:11:50.789Z</time>
      </trkpt>
      <trkpt lat="45.78457" lon="5.86234">
        <ele>260</ele>
        <time>2021-09-12T10:11:51.789Z</time>
      </trkpt>
      <trkpt lat="45.78448" lon="5.8624">
        <ele>259</ele>
        <time>2021-09-12T10:11:52.789Z</time>
      </trkpt>
      <trkpt lat="45.78438" lon="5.86246">
        <ele>258</ele>
        <time>2021-09-12T10:11:53.789Z</time>
      </trkpt>
      <trkpt lat="45.78429" lon="5.86253">
        <ele>257</ele>
        <time>2021-09-12T10:11:54.788Z</time>
      </trkpt>
      <trkpt lat="45.7842" lon="5.86259">
        <ele>256</ele>
        <time>2021-09-12T10:11:55.789Z</time>
      </trkpt>
      <trkpt lat="45.7841" lon="5.86267">
        <ele>256</ele>
        <time>2021-09-12T10:11:56.789Z</time>
      </trkpt>
      <trkpt lat="45.78401" lon="5.86274">
        <ele>256</ele>
        <time>2021-09-12T10:11:57.789Z</time>
      </trkpt>
      <trkpt lat="45.78392" lon="5.86283">
        <ele>255</ele>
        <time>2021-09-12T10:11:58.789Z</time>
      </trkpt>
      <trkpt lat="45.78382" lon="5.86291">
        <ele>254</ele>
        <time>2021-09-12T10:11:59.788Z</time>
      </trkpt>
      <trkpt lat="45.78373" lon="5.86299">
        <ele>253</ele>
        <time>2021-09-12T10:12:00.789Z</time>
      </trkpt>
      <trkpt lat="45.78364" lon="5.86308">
        <ele>253</ele>
        <time>2021-09-12T10:12:01.788Z</time>
      </trkpt>
      <trkpt lat="45.78355" lon="5.86316">
        <ele>252</ele>
        <time>2021-09-12T10:12:02.789Z</time>
      </trkpt>
      <trkpt lat="45.78346" lon="5.86324">
        <ele>251</ele>
        <time>2021-09-12T10:12:03.789Z</time>
      </trkpt>
      <trkpt lat="45.78337" lon="5.86332">
        <ele>250</ele>
        <time>2021-09-12T10:12:04.788Z</time>
      </trkpt>
      <trkpt lat="45.78327" lon="5.86339">
        <ele>250</ele>
        <time>2021-09-12T10:12:05.788Z</time>
      </trkpt>
      <trkpt lat="45.78318" lon="5.86346">
        <ele>249</ele>
        <time>2021-09-12T10:12:06.788Z</time>
      </trkpt>
      <trkpt lat="45.7831" lon="5.8635">
        <ele>249</ele>
        <time>2021-09-12T10:12:07.789Z</time>
      </trkpt>
      <trkpt lat="45.78299" lon="5.86356">
        <ele>249</ele>
        <time>2021-09-12T10:12:08.789Z</time>
      </trkpt>
      <trkpt lat="45.78289" lon="5.86359">
        <ele>248</ele>
        <time>2021-09-12T10:12:09.789Z</time>
      </trkpt>
      <trkpt lat="45.78279" lon="5.86361">
        <ele>248</ele>
        <time>2021-09-12T10:12:10.789Z</time>
      </trkpt>
      <trkpt lat="45.7827" lon="5.86363">
        <ele>247</ele>
        <time>2021-09-12T10:12:11.788Z</time>
      </trkpt>
      <trkpt lat="45.78261" lon="5.86364">
        <ele>247</ele>
        <time>2021-09-12T10:12:12.788Z</time>
      </trkpt>
      <trkpt lat="45.78252" lon="5.86365">
        <ele>247</ele>
        <time>2021-09-12T10:12:13.789Z</time>
      </trkpt>
      <trkpt lat="45.78243" lon="5.86366">
        <ele>247</ele>
        <time>2021-09-12T10:12:14.788Z</time>
      </trkpt>
      <trkpt lat="45.78234" lon="5.86368">
        <ele>246</ele>
        <time>2021-09-12T10:12:15.789Z</time>
      </trkpt>
      <trkpt lat="45.78226" lon="5.8637">
        <ele>246</ele>
        <time>2021-09-12T10:12:16.789Z</time>
      </trkpt>
      <trkpt lat="45.78219" lon="5.86371">
        <ele>246</ele>
        <time>2021-09-12T10:12:17.789Z</time>
      </trkpt>
      <trkpt lat="45.7821" lon="5.86375">
        <ele>246</ele>
        <time>2021-09-12T10:12:18.789Z</time>
      </trkpt>
      <trkpt lat="45.78202" lon="5.86377">
        <ele>245</ele>
        <time>2021-09-12T10:12:19.789Z</time>
      </trkpt>
      <trkpt lat="45.78194" lon="5.86381">
        <ele>244</ele>
        <time>2021-09-12T10:12:20.788Z</time>
      </trkpt>
      <trkpt lat="45.78186" lon="5.86384">
        <ele>244</ele>
        <time>2021-09-12T10:12:21.789Z</time>
      </trkpt>
      <trkpt lat="45.78178" lon="5.86387">
        <ele>243</ele>
        <time>2021-09-12T10:12:22.789Z</time>
      </trkpt>
      <trkpt lat="45.78171" lon="5.86391">
        <ele>243</ele>
        <time>2021-09-12T10:12:23.789Z</time>
      </trkpt>
      <trkpt lat="45.78164" lon="5.86395">
        <ele>242</ele>
        <time>2021-09-12T10:12:24.788Z</time>
      </trkpt>
      <trkpt lat="45.78156" lon="5.86399">
        <ele>241</ele>
        <time>2021-09-12T10:12:25.789Z</time>
      </trkpt>
      <trkpt lat="45.78149" lon="5.86402">
        <ele>241</ele>
        <time>2021-09-12T10:12:26.789Z</time>
      </trkpt>
      <trkpt lat="45.78142" lon="5.86405">
        <ele>241</ele>
        <time>2021-09-12T10:12:27.788Z</time>
      </trkpt>
      <trkpt lat="45.78133" lon="5.8641">
        <ele>241</ele>
        <time>2021-09-12T10:12:28.789Z</time>
      </trkpt>
      <trkpt lat="45.78125" lon="5.86414">
        <ele>241</ele>
        <time>2021-09-12T10:12:29.789Z</time>
      </trkpt>
      <trkpt lat="45.78117" lon="5.86419">
        <ele>241</ele>
        <time>2021-09-12T10:12:30.789Z</time>
      </trkpt>
      <trkpt lat="45.78111" lon="5.86423">
        <ele>240</ele>
        <time>2021-09-12T10:12:31.788Z</time>
      </trkpt>
      <trkpt lat="45.78101" lon="5.86429">
        <ele>240</ele>
        <time>2021-09-12T10:12:32.789Z</time>
      </trkpt>
      <trkpt lat="45.78093" lon="5.86434">
        <ele>239</ele>
        <time>2021-09-12T10:12:33.789Z</time>
      </trkpt>
      <trkpt lat="45.78085" lon="5.86439">
        <ele>238</ele>
        <time>2021-09-12T10:12:34.789Z</time>
      </trkpt>
      <trkpt lat="45.78076" lon="5.86443">
        <ele>238</ele>
        <time>2021-09-12T10:12:35.789Z</time>
      </trkpt>
      <trkpt lat="45.78067" lon="5.86446">
        <ele>238</ele>
        <time>2021-09-12T10:12:36.789Z</time>
      </trkpt>
      <trkpt lat="45.78059" lon="5.8645">
        <ele>237</ele>
        <time>2021-09-12T10:12:37.788Z</time>
      </trkpt>
      <trkpt lat="45.7805" lon="5.86452">
        <ele>237</ele>
        <time>2021-09-12T10:12:38.789Z</time>
      </trkpt>
      <trkpt lat="45.78042" lon="5.86455">
        <ele>237</ele>
        <time>2021-09-12T10:12:39.789Z</time>
      </trkpt>
      <trkpt lat="45.78034" lon="5.86457">
        <ele>236</ele>
        <time>2021-09-12T10:12:40.789Z</time>
      </trkpt>
      <trkpt lat="45.78026" lon="5.86459">
        <ele>236</ele>
        <time>2021-09-12T10:12:41.789Z</time>
      </trkpt>
      <trkpt lat="45.78019" lon="5.86461">
        <ele>237</ele>
        <time>2021-09-12T10:12:42.788Z</time>
      </trkpt>
      <trkpt lat="45.78011" lon="5.86462">
        <ele>237</ele>
        <time>2021-09-12T10:12:43.789Z</time>
      </trkpt>
      <trkpt lat="45.78004" lon="5.86464">
        <ele>236</ele>
        <time>2021-09-12T10:12:44.789Z</time>
      </trkpt>
      <trkpt lat="45.77996" lon="5.86465">
        <ele>236</ele>
        <time>2021-09-12T10:12:45.789Z</time>
      </trkpt>
      <trkpt lat="45.7799" lon="5.86467">
        <ele>236</ele>
        <time>2021-09-12T10:12:46.789Z</time>
      </trkpt>
      <trkpt lat="45.77983" lon="5.86468">
        <ele>235</ele>
        <time>2021-09-12T10:12:47.788Z</time>
      </trkpt>
      <trkpt lat="45.77976" lon="5.86469">
        <ele>235</ele>
        <time>2021-09-12T10:12:48.789Z</time>
      </trkpt>
      <trkpt lat="45.77969" lon="5.86471">
        <ele>235</ele>
        <time>2021-09-12T10:12:49.788Z</time>
      </trkpt>
      <trkpt lat="45.77964" lon="5.86472">
        <ele>235</ele>
        <time>2021-09-12T10:12:50.789Z</time>
      </trkpt>
      <trkpt lat="45.77958" lon="5.86473">
        <ele>236</ele>
        <time>2021-09-12T10:12:51.788Z</time>
      </trkpt>
      <trkpt lat="45.7795" lon="5.86474">
        <ele>237</ele>
        <time>2021-09-12T10:12:52.789Z</time>
      </trkpt>
      <trkpt lat="45.77944" lon="5.86475">
        <ele>238</ele>
        <time>2021-09-12T10:12:53.789Z</time>
      </trkpt>
      <trkpt lat="45.77937" lon="5.86476">
        <ele>238</ele>
        <time>2021-09-12T10:12:54.789Z</time>
      </trkpt>
      <trkpt lat="45.77933" lon="5.86476">
        <ele>239</ele>
        <time>2021-09-12T10:12:55.789Z</time>
      </trkpt>
      <trkpt lat="45.77927" lon="5.86475">
        <ele>240</ele>
        <time>2021-09-12T10:12:56.789Z</time>
      </trkpt>
      <trkpt lat="45.77922" lon="5.86473">
        <ele>240</ele>
        <time>2021-09-12T10:12:57.789Z</time>
      </trkpt>
      <trkpt lat="45.77919" lon="5.8647">
        <ele>240</ele>
        <time>2021-09-12T10:12:58.788Z</time>
      </trkpt>
      <trkpt lat="45.77916" lon="5.86467">
        <ele>241</ele>
        <time>2021-09-12T10:12:59.789Z</time>
      </trkpt>
      <trkpt lat="45.77913" lon="5.86463">
        <ele>241</ele>
        <time>2021-09-12T10:13:00.789Z</time>
      </trkpt>
      <trkpt lat="45.7791" lon="5.86459">
        <ele>241</ele>
        <time>2021-09-12T10:13:01.789Z</time>
      </trkpt>
      <trkpt lat="45.77907" lon="5.86457">
        <ele>242</ele>
        <time>2021-09-12T10:13:02.789Z</time>
      </trkpt>
      <trkpt lat="45.77904" lon="5.86455">
        <ele>242</ele>
        <time>2021-09-12T10:13:03.789Z</time>
      </trkpt>
      <trkpt lat="45.77901" lon="5.86453">
        <ele>242</ele>
        <time>2021-09-12T10:13:04.789Z</time>
      </trkpt>
      <trkpt lat="45.77897" lon="5.86452">
        <ele>242</ele>
        <time>2021-09-12T10:13:05.789Z</time>
      </trkpt>
      <trkpt lat="45.77892" lon="5.86453">
        <ele>242</ele>
        <time>2021-09-12T10:13:06.789Z</time>
      </trkpt>
      <trkpt lat="45.77888" lon="5.86454">
        <ele>242</ele>
        <time>2021-09-12T10:13:07.788Z</time>
      </trkpt>
      <trkpt lat="45.77883" lon="5.86455">
        <ele>242</ele>
        <time>2021-09-12T10:13:08.789Z</time>
      </trkpt>
      <trkpt lat="45.7788" lon="5.86456">
        <ele>242</ele>
        <time>2021-09-12T10:13:09.789Z</time>
      </trkpt>
      <trkpt lat="45.77875" lon="5.86458">
        <ele>242</ele>
        <time>2021-09-12T10:13:10.789Z</time>
      </trkpt>
      <trkpt lat="45.77871" lon="5.8646">
        <ele>242</ele>
        <time>2021-09-12T10:13:11.789Z</time>
      </trkpt>
      <trkpt lat="45.77866" lon="5.86462">
        <ele>243</ele>
        <time>2021-09-12T10:13:12.788Z</time>
      </trkpt>
      <trkpt lat="45.77861" lon="5.86466">
        <ele>243</ele>
        <time>2021-09-12T10:13:13.789Z</time>
      </trkpt>
      <trkpt lat="45.77856" lon="5.86468">
        <ele>243</ele>
        <time>2021-09-12T10:13:14.789Z</time>
      </trkpt>
      <trkpt lat="45.77851" lon="5.86471">
        <ele>243</ele>
        <time>2021-09-12T10:13:15.789Z</time>
      </trkpt>
      <trkpt lat="45.77846" lon="5.86473">
        <ele>242</ele>
        <time>2021-09-12T10:13:16.789Z</time>
      </trkpt>
      <trkpt lat="45.7784" lon="5.86475">
        <ele>242</ele>
        <time>2021-09-12T10:13:17.788Z</time>
      </trkpt>
      <trkpt lat="45.77836" lon="5.86477">
        <ele>242</ele>
        <time>2021-09-12T10:13:18.789Z</time>
      </trkpt>
      <trkpt lat="45.77831" lon="5.86479">
        <ele>243</ele>
        <time>2021-09-12T10:13:19.788Z</time>
      </trkpt>
      <trkpt lat="45.77826" lon="5.86481">
        <ele>243</ele>
        <time>2021-09-12T10:13:20.789Z</time>
      </trkpt>
      <trkpt lat="45.77819" lon="5.86483">
        <ele>243</ele>
        <time>2021-09-12T10:13:21.789Z</time>
      </trkpt>
      <trkpt lat="45.77814" lon="5.86485">
        <ele>243</ele>
        <time>2021-09-12T10:13:22.789Z</time>
      </trkpt>
      <trkpt lat="45.7781" lon="5.86486">
        <ele>244</ele>
        <time>2021-09-12T10:13:23.789Z</time>
      </trkpt>
      <trkpt lat="45.77806" lon="5.86488">
        <ele>244</ele>
        <time>2021-09-12T10:13:24.788Z</time>
      </trkpt>
      <trkpt lat="45.778" lon="5.8649">
        <ele>244</ele>
        <time>2021-09-12T10:13:25.789Z</time>
      </trkpt>
      <trkpt lat="45.77796" lon="5.86492">
        <ele>243</ele>
        <time>2021-09-12T10:13:26.789Z</time>
      </trkpt>
      <trkpt lat="45.77792" lon="5.86494">
        <ele>243</ele>
        <time>2021-09-12T10:13:27.789Z</time>
      </trkpt>
      <trkpt lat="45.77788" lon="5.86496">
        <ele>243</ele>
        <time>2021-09-12T10:13:28.788Z</time>
      </trkpt>
      <trkpt lat="45.77784" lon="5.86498">
        <ele>242</ele>
        <time>2021-09-12T10:13:29.789Z</time>
      </trkpt>
      <trkpt lat="45.77779" lon="5.865">
        <ele>242</ele>
        <time>2021-09-12T10:13:30.789Z</time>
      </trkpt>
      <trkpt lat="45.77774" lon="5.86502">
        <ele>242</ele>
        <time>2021-09-12T10:13:31.789Z</time>
      </trkpt>
      <trkpt lat="45.77769" lon="5.86504">
        <ele>242</ele>
        <time>2021-09-12T10:13:32.789Z</time>
      </trkpt>
      <trkpt lat="45.77764" lon="5.86507">
        <ele>242</ele>
        <time>2021-09-12T10:13:33.788Z</time>
      </trkpt>
      <trkpt lat="45.77759" lon="5.86509">
        <ele>242</ele>
        <time>2021-09-12T10:13:34.789Z</time>
      </trkpt>
      <trkpt lat="45.77755" lon="5.86511">
        <ele>242</ele>
        <time>2021-09-12T10:13:35.788Z</time>
      </trkpt>
      <trkpt lat="45.7775" lon="5.86514">
        <ele>242</ele>
        <time>2021-09-12T10:13:36.789Z</time>
      </trkpt>
      <trkpt lat="45.77745" lon="5.86516">
        <ele>242</ele>
        <time>2021-09-12T10:13:37.789Z</time>
      </trkpt>
      <trkpt lat="45.77739" lon="5.86519">
        <ele>242</ele>
        <time>2021-09-12T10:13:38.789Z</time>
      </trkpt>
      <trkpt lat="45.77734" lon="5.86521">
        <ele>241</ele>
        <time>2021-09-12T10:13:39.789Z</time>
      </trkpt>
      <trkpt lat="45.77729" lon="5.86524">
        <ele>241</ele>
        <time>2021-09-12T10:13:40.789Z</time>
      </trkpt>
      <trkpt lat="45.77724" lon="5.86527">
        <ele>241</ele>
        <time>2021-09-12T10:13:41.789Z</time>
      </trkpt>
      <trkpt lat="45.77719" lon="5.86529">
        <ele>241</ele>
        <time>2021-09-12T10:13:42.788Z</time>
      </trkpt>
      <trkpt lat="45.77714" lon="5.86532">
        <ele>240</ele>
        <time>2021-09-12T10:13:43.789Z</time>
      </trkpt>
      <trkpt lat="45.7771" lon="5.86534">
        <ele>240</ele>
        <time>2021-09-12T10:13:44.789Z</time>
      </trkpt>
      <trkpt lat="45.77703" lon="5.86537">
        <ele>240</ele>
        <time>2021-09-12T10:13:45.789Z</time>
      </trkpt>
      <trkpt lat="45.77698" lon="5.8654">
        <ele>239</ele>
        <time>2021-09-12T10:13:46.789Z</time>
      </trkpt>
      <trkpt lat="45.77694" lon="5.86542">
        <ele>239</ele>
        <time>2021-09-12T10:13:47.789Z</time>
      </trkpt>
      <trkpt lat="45.77689" lon="5.86544">
        <ele>238</ele>
        <time>2021-09-12T10:13:48.789Z</time>
      </trkpt>
      <trkpt lat="45.77684" lon="5.86547">
        <ele>237</ele>
        <time>2021-09-12T10:13:49.789Z</time>
      </trkpt>
      <trkpt lat="45.77679" lon="5.8655">
        <ele>237</ele>
        <time>2021-09-12T10:13:50.789Z</time>
      </trkpt>
      <trkpt lat="45.77674" lon="5.86552">
        <ele>237</ele>
        <time>2021-09-12T10:13:51.789Z</time>
      </trkpt>
      <trkpt lat="45.7767" lon="5.86555">
        <ele>237</ele>
        <time>2021-09-12T10:13:52.788Z</time>
      </trkpt>
      <trkpt lat="45.77665" lon="5.86557">
        <ele>238</ele>
        <time>2021-09-12T10:13:53.789Z</time>
      </trkpt>
      <trkpt lat="45.7766" lon="5.8656">
        <ele>238</ele>
        <time>2021-09-12T10:13:54.789Z</time>
      </trkpt>
      <trkpt lat="45.77654" lon="5.86563">
        <ele>237</ele>
        <time>2021-09-12T10:13:55.788Z</time>
      </trkpt>
      <trkpt lat="45.77649" lon="5.86566">
        <ele>237</ele>
        <time>2021-09-12T10:13:56.789Z</time>
      </trkpt>
      <trkpt lat="45.77645" lon="5.86568">
        <ele>237</ele>
        <time>2021-09-12T10:13:57.788Z</time>
      </trkpt>
      <trkpt lat="45.77639" lon="5.86571">
        <ele>236</ele>
        <time>2021-09-12T10:13:58.789Z</time>
      </trkpt>
      <trkpt lat="45.77633" lon="5.86574">
        <ele>236</ele>
        <time>2021-09-12T10:13:59.788Z</time>
      </trkpt>
      <trkpt lat="45.77627" lon="5.86577">
        <ele>236</ele>
        <time>2021-09-12T10:14:00.789Z</time>
      </trkpt>
      <trkpt lat="45.77623" lon="5.86579">
        <ele>236</ele>
        <time>2021-09-12T10:14:01.789Z</time>
      </trkpt>
      <trkpt lat="45.77617" lon="5.86582">
        <ele>236</ele>
        <time>2021-09-12T10:14:02.789Z</time>
      </trkpt>
      <trkpt lat="45.77612" lon="5.86585">
        <ele>237</ele>
        <time>2021-09-12T10:14:03.789Z</time>
      </trkpt>
      <trkpt lat="45.77605" lon="5.86588">
        <ele>237</ele>
        <time>2021-09-12T10:14:04.789Z</time>
      </trkpt>
      <trkpt lat="45.77601" lon="5.86591">
        <ele>238</ele>
        <time>2021-09-12T10:14:05.789Z</time>
      </trkpt>
      <trkpt lat="45.77595" lon="5.86594">
        <ele>238</ele>
        <time>2021-09-12T10:14:06.789Z</time>
      </trkpt>
      <trkpt lat="45.7759" lon="5.86597">
        <ele>238</ele>
        <time>2021-09-12T10:14:07.789Z</time>
      </trkpt>
      <trkpt lat="45.77584" lon="5.866">
        <ele>237</ele>
        <time>2021-09-12T10:14:08.789Z</time>
      </trkpt>
      <trkpt lat="45.77578" lon="5.86603">
        <ele>237</ele>
        <time>2021-09-12T10:14:09.789Z</time>
      </trkpt>
      <trkpt lat="45.77572" lon="5.86606">
        <ele>238</ele>
        <time>2021-09-12T10:14:10.789Z</time>
      </trkpt>
      <trkpt lat="45.77567" lon="5.86609">
        <ele>238</ele>
        <time>2021-09-12T10:14:11.789Z</time>
      </trkpt>
      <trkpt lat="45.77562" lon="5.86612">
        <ele>237</ele>
        <time>2021-09-12T10:14:12.789Z</time>
      </trkpt>
      <trkpt lat="45.77556" lon="5.86614">
        <ele>237</ele>
        <time>2021-09-12T10:14:13.789Z</time>
      </trkpt>
      <trkpt lat="45.77551" lon="5.86617">
        <ele>237</ele>
        <time>2021-09-12T10:14:14.789Z</time>
      </trkpt>
      <trkpt lat="45.77546" lon="5.8662">
        <ele>236</ele>
        <time>2021-09-12T10:14:15.789Z</time>
      </trkpt>
      <trkpt lat="45.77542" lon="5.86622">
        <ele>236</ele>
        <time>2021-09-12T10:14:16.788Z</time>
      </trkpt>
      <trkpt lat="45.77535" lon="5.86626">
        <ele>235</ele>
        <time>2021-09-12T10:14:17.789Z</time>
      </trkpt>
      <trkpt lat="45.77529" lon="5.86629">
        <ele>235</ele>
        <time>2021-09-12T10:14:18.789Z</time>
      </trkpt>
      <trkpt lat="45.77524" lon="5.86632">
        <ele>236</ele>
        <time>2021-09-12T10:14:19.789Z</time>
      </trkpt>
      <trkpt lat="45.77519" lon="5.86635">
        <ele>235</ele>
        <time>2021-09-12T10:14:20.788Z</time>
      </trkpt>
      <trkpt lat="45.77514" lon="5.86637">
        <ele>235</ele>
        <time>2021-09-12T10:14:21.789Z</time>
      </trkpt>
      <trkpt lat="45.77509" lon="5.8664">
        <ele>235</ele>
        <time>2021-09-12T10:14:22.789Z</time>
      </trkpt>
      <trkpt lat="45.77502" lon="5.86643">
        <ele>235</ele>
        <time>2021-09-12T10:14:23.789Z</time>
      </trkpt>
      <trkpt lat="45.77497" lon="5.86646">
        <ele>235</ele>
        <time>2021-09-12T10:14:24.789Z</time>
      </trkpt>
      <trkpt lat="45.77492" lon="5.86649">
        <ele>235</ele>
        <time>2021-09-12T10:14:25.789Z</time>
      </trkpt>
      <trkpt lat="45.77488" lon="5.86651">
        <ele>235</ele>
        <time>2021-09-12T10:14:26.789Z</time>
      </trkpt>
      <trkpt lat="45.77482" lon="5.86654">
        <ele>235</ele>
        <time>2021-09-12T10:14:27.789Z</time>
      </trkpt>
      <trkpt lat="45.77476" lon="5.86657">
        <ele>236</ele>
        <time>2021-09-12T10:14:28.789Z</time>
      </trkpt>
      <trkpt lat="45.77472" lon="5.8666">
        <ele>236</ele>
        <time>2021-09-12T10:14:29.789Z</time>
      </trkpt>
      <trkpt lat="45.77467" lon="5.86663">
        <ele>236</ele>
        <time>2021-09-12T10:14:30.789Z</time>
      </trkpt>
      <trkpt lat="45.77463" lon="5.86666">
        <ele>236</ele>
        <time>2021-09-12T10:14:31.788Z</time>
      </trkpt>
      <trkpt lat="45.77457" lon="5.86669">
        <ele>236</ele>
        <time>2021-09-12T10:14:32.789Z</time>
      </trkpt>
      <trkpt lat="45.77452" lon="5.86672">
        <ele>237</ele>
        <time>2021-09-12T10:14:33.789Z</time>
      </trkpt>
      <trkpt lat="45.77447" lon="5.86675">
        <ele>238</ele>
        <time>2021-09-12T10:14:34.789Z</time>
      </trkpt>
      <trkpt lat="45.77442" lon="5.86678">
        <ele>239</ele>
        <time>2021-09-12T10:14:35.788Z</time>
      </trkpt>
      <trkpt lat="45.77438" lon="5.86681">
        <ele>240</ele>
        <time>2021-09-12T10:14:36.789Z</time>
      </trkpt>
      <trkpt lat="45.77432" lon="5.86685">
        <ele>241</ele>
        <time>2021-09-12T10:14:37.789Z</time>
      </trkpt>
      <trkpt lat="45.77428" lon="5.86688">
        <ele>242</ele>
        <time>2021-09-12T10:14:38.789Z</time>
      </trkpt>
      <trkpt lat="45.77423" lon="5.86691">
        <ele>242</ele>
        <time>2021-09-12T10:14:39.789Z</time>
      </trkpt>
      <trkpt lat="45.77418" lon="5.86694">
        <ele>242</ele>
        <time>2021-09-12T10:14:40.789Z</time>
      </trkpt>
      <trkpt lat="45.77413" lon="5.86697">
        <ele>243</ele>
        <time>2021-09-12T10:14:41.789Z</time>
      </trkpt>
      <trkpt lat="45.7741" lon="5.86699">
        <ele>243</ele>
        <time>2021-09-12T10:14:42.789Z</time>
      </trkpt>
      <trkpt lat="45.77404" lon="5.86703">
        <ele>243</ele>
        <time>2021-09-12T10:14:43.789Z</time>
      </trkpt>
      <trkpt lat="45.77399" lon="5.86706">
        <ele>243</ele>
        <time>2021-09-12T10:14:44.788Z</time>
      </trkpt>
      <trkpt lat="45.77394" lon="5.8671">
        <ele>244</ele>
        <time>2021-09-12T10:14:45.789Z</time>
      </trkpt>
      <trkpt lat="45.77389" lon="5.86713">
        <ele>244</ele>
        <time>2021-09-12T10:14:46.788Z</time>
      </trkpt>
      <trkpt lat="45.77384" lon="5.86716">
        <ele>244</ele>
        <time>2021-09-12T10:14:47.789Z</time>
      </trkpt>
      <trkpt lat="45.77379" lon="5.8672">
        <ele>244</ele>
        <time>2021-09-12T10:14:48.789Z</time>
      </trkpt>
      <trkpt lat="45.77374" lon="5.86723">
        <ele>244</ele>
        <time>2021-09-12T10:14:49.788Z</time>
      </trkpt>
      <trkpt lat="45.77368" lon="5.86726">
        <ele>244</ele>
        <time>2021-09-12T10:14:50.788Z</time>
      </trkpt>
      <trkpt lat="45.77363" lon="5.86729">
        <ele>244</ele>
        <time>2021-09-12T10:14:51.789Z</time>
      </trkpt>
      <trkpt lat="45.77358" lon="5.86732">
        <ele>244</ele>
        <time>2021-09-12T10:14:52.789Z</time>
      </trkpt>
      <trkpt lat="45.77352" lon="5.86735">
        <ele>244</ele>
        <time>2021-09-12T10:14:53.789Z</time>
      </trkpt>
      <trkpt lat="45.77347" lon="5.86737">
        <ele>244</ele>
        <time>2021-09-12T10:14:54.788Z</time>
      </trkpt>
      <trkpt lat="45.77342" lon="5.8674">
        <ele>244</ele>
        <time>2021-09-12T10:14:55.788Z</time>
      </trkpt>
      <trkpt lat="45.77336" lon="5.86742">
        <ele>244</ele>
        <time>2021-09-12T10:14:56.789Z</time>
      </trkpt>
      <trkpt lat="45.77331" lon="5.86744">
        <ele>244</ele>
        <time>2021-09-12T10:14:57.789Z</time>
      </trkpt>
      <trkpt lat="45.77326" lon="5.86746">
        <ele>243</ele>
        <time>2021-09-12T10:14:58.789Z</time>
      </trkpt>
      <trkpt lat="45.7732" lon="5.86748">
        <ele>243</ele>
        <time>2021-09-12T10:14:59.789Z</time>
      </trkpt>
      <trkpt lat="45.77315" lon="5.8675">
        <ele>243</ele>
        <time>2021-09-12T10:15:00.788Z</time>
      </trkpt>
      <trkpt lat="45.7731" lon="5.86752">
        <ele>243</ele>
        <time>2021-09-12T10:15:01.789Z</time>
      </trkpt>
      <trkpt lat="45.77304" lon="5.86754">
        <ele>243</ele>
        <time>2021-09-12T10:15:02.789Z</time>
      </trkpt>
      <trkpt lat="45.77298" lon="5.86756">
        <ele>243</ele>
        <time>2021-09-12T10:15:03.788Z</time>
      </trkpt>
      <trkpt lat="45.77293" lon="5.86758">
        <ele>242</ele>
        <time>2021-09-12T10:15:04.789Z</time>
      </trkpt>
      <trkpt lat="45.77287" lon="5.8676">
        <ele>242</ele>
        <time>2021-09-12T10:15:05.789Z</time>
      </trkpt>
      <trkpt lat="45.77282" lon="5.86762">
        <ele>242</ele>
        <time>2021-09-12T10:15:06.788Z</time>
      </trkpt>
      <trkpt lat="45.77276" lon="5.86764">
        <ele>242</ele>
        <time>2021-09-12T10:15:07.789Z</time>
      </trkpt>
      <trkpt lat="45.7727" lon="5.86766">
        <ele>242</ele>
        <time>2021-09-12T10:15:08.788Z</time>
      </trkpt>
      <trkpt lat="45.77264" lon="5.86768">
        <ele>242</ele>
        <time>2021-09-12T10:15:09.788Z</time>
      </trkpt>
      <trkpt lat="45.77258" lon="5.86769">
        <ele>242</ele>
        <time>2021-09-12T10:15:10.788Z</time>
      </trkpt>
      <trkpt lat="45.77253" lon="5.86771">
        <ele>241</ele>
        <time>2021-09-12T10:15:11.788Z</time>
      </trkpt>
      <trkpt lat="45.77247" lon="5.86773">
        <ele>241</ele>
        <time>2021-09-12T10:15:12.789Z</time>
      </trkpt>
      <trkpt lat="45.77241" lon="5.86776">
        <ele>241</ele>
        <time>2021-09-12T10:15:13.789Z</time>
      </trkpt>
      <trkpt lat="45.77235" lon="5.86778">
        <ele>241</ele>
        <time>2021-09-12T10:15:14.789Z</time>
      </trkpt>
      <trkpt lat="45.7723" lon="5.86781">
        <ele>242</ele>
        <time>2021-09-12T10:15:15.788Z</time>
      </trkpt>
      <trkpt lat="45.77224" lon="5.86783">
        <ele>242</ele>
        <time>2021-09-12T10:15:16.788Z</time>
      </trkpt>
      <trkpt lat="45.77218" lon="5.86785">
        <ele>242</ele>
        <time>2021-09-12T10:15:17.789Z</time>
      </trkpt>
      <trkpt lat="45.77212" lon="5.86788">
        <ele>243</ele>
        <time>2021-09-12T10:15:18.789Z</time>
      </trkpt>
      <trkpt lat="45.77207" lon="5.8679">
        <ele>243</ele>
        <time>2021-09-12T10:15:19.789Z</time>
      </trkpt>
      <trkpt lat="45.77201" lon="5.86792">
        <ele>243</ele>
        <time>2021-09-12T10:15:20.789Z</time>
      </trkpt>
      <trkpt lat="45.77195" lon="5.86795">
        <ele>243</ele>
        <time>2021-09-12T10:15:21.789Z</time>
      </trkpt>
      <trkpt lat="45.77189" lon="5.86798">
        <ele>243</ele>
        <time>2021-09-12T10:15:22.789Z</time>
      </trkpt>
      <trkpt lat="45.77183" lon="5.868">
        <ele>243</ele>
        <time>2021-09-12T10:15:23.789Z</time>
      </trkpt>
      <trkpt lat="45.77177" lon="5.86803">
        <ele>242</ele>
        <time>2021-09-12T10:15:24.789Z</time>
      </trkpt>
      <trkpt lat="45.77172" lon="5.86806">
        <ele>242</ele>
        <time>2021-09-12T10:15:25.789Z</time>
      </trkpt>
      <trkpt lat="45.77166" lon="5.86809">
        <ele>242</ele>
        <time>2021-09-12T10:15:26.788Z</time>
      </trkpt>
      <trkpt lat="45.77161" lon="5.86812">
        <ele>242</ele>
        <time>2021-09-12T10:15:27.789Z</time>
      </trkpt>
      <trkpt lat="45.77155" lon="5.86815">
        <ele>242</ele>
        <time>2021-09-12T10:15:28.789Z</time>
      </trkpt>
      <trkpt lat="45.77151" lon="5.86815">
        <ele>242</ele>
        <time>2021-09-12T10:15:29.789Z</time>
      </trkpt>
      <trkpt lat="45.77144" lon="5.86817">
        <ele>242</ele>
        <time>2021-09-12T10:15:30.789Z</time>
      </trkpt>
      <trkpt lat="45.77139" lon="5.86819">
        <ele>242</ele>
        <time>2021-09-12T10:15:31.789Z</time>
      </trkpt>
      <trkpt lat="45.77134" lon="5.86822">
        <ele>243</ele>
        <time>2021-09-12T10:15:32.789Z</time>
      </trkpt>
      <trkpt lat="45.77128" lon="5.86824">
        <ele>244</ele>
        <time>2021-09-12T10:15:33.788Z</time>
      </trkpt>
      <trkpt lat="45.77122" lon="5.86828">
        <ele>244</ele>
        <time>2021-09-12T10:15:34.788Z</time>
      </trkpt>
      <trkpt lat="45.77116" lon="5.86831">
        <ele>245</ele>
        <time>2021-09-12T10:15:35.788Z</time>
      </trkpt>
      <trkpt lat="45.7711" lon="5.86835">
        <ele>245</ele>
        <time>2021-09-12T10:15:36.788Z</time>
      </trkpt>
      <trkpt lat="45.77105" lon="5.86838">
        <ele>245</ele>
        <time>2021-09-12T10:15:37.789Z</time>
      </trkpt>
      <trkpt lat="45.771" lon="5.86841">
        <ele>245</ele>
        <time>2021-09-12T10:15:38.789Z</time>
      </trkpt>
      <trkpt lat="45.77095" lon="5.86845">
        <ele>245</ele>
        <time>2021-09-12T10:15:39.788Z</time>
      </trkpt>
      <trkpt lat="45.7709" lon="5.86848">
        <ele>245</ele>
        <time>2021-09-12T10:15:40.788Z</time>
      </trkpt>
      <trkpt lat="45.77085" lon="5.86852">
        <ele>245</ele>
        <time>2021-09-12T10:15:41.788Z</time>
      </trkpt>
      <trkpt lat="45.77079" lon="5.86856">
        <ele>244</ele>
        <time>2021-09-12T10:15:42.789Z</time>
      </trkpt>
      <trkpt lat="45.77074" lon="5.8686">
        <ele>243</ele>
        <time>2021-09-12T10:15:43.789Z</time>
      </trkpt>
      <trkpt lat="45.77069" lon="5.86865">
        <ele>243</ele>
        <time>2021-09-12T10:15:44.788Z</time>
      </trkpt>
      <trkpt lat="45.77063" lon="5.8687">
        <ele>242</ele>
        <time>2021-09-12T10:15:45.789Z</time>
      </trkpt>
      <trkpt lat="45.77057" lon="5.86874">
        <ele>241</ele>
        <time>2021-09-12T10:15:46.788Z</time>
      </trkpt>
      <trkpt lat="45.77052" lon="5.86877">
        <ele>241</ele>
        <time>2021-09-12T10:15:47.789Z</time>
      </trkpt>
      <trkpt lat="45.77047" lon="5.86882">
        <ele>240</ele>
        <time>2021-09-12T10:15:48.788Z</time>
      </trkpt>
      <trkpt lat="45.77042" lon="5.86886">
        <ele>240</ele>
        <time>2021-09-12T10:15:49.789Z</time>
      </trkpt>
      <trkpt lat="45.77037" lon="5.86891">
        <ele>240</ele>
        <time>2021-09-12T10:15:50.789Z</time>
      </trkpt>
      <trkpt lat="45.77031" lon="5.86895">
        <ele>240</ele>
        <time>2021-09-12T10:15:51.789Z</time>
      </trkpt>
      <trkpt lat="45.77025" lon="5.86898">
        <ele>239</ele>
        <time>2021-09-12T10:15:52.789Z</time>
      </trkpt>
      <trkpt lat="45.77019" lon="5.86901">
        <ele>239</ele>
        <time>2021-09-12T10:15:53.789Z</time>
      </trkpt>
      <trkpt lat="45.77013" lon="5.86902">
        <ele>239</ele>
        <time>2021-09-12T10:15:54.789Z</time>
      </trkpt>
      <trkpt lat="45.77006" lon="5.86903">
        <ele>239</ele>
        <time>2021-09-12T10:15:55.788Z</time>
      </trkpt>
      <trkpt lat="45.77001" lon="5.86905">
        <ele>238</ele>
        <time>2021-09-12T10:15:56.789Z</time>
      </trkpt>
      <trkpt lat="45.76995" lon="5.86907">
        <ele>238</ele>
        <time>2021-09-12T10:15:57.789Z</time>
      </trkpt>
      <trkpt lat="45.76991" lon="5.8691">
        <ele>238</ele>
        <time>2021-09-12T10:15:58.789Z</time>
      </trkpt>
      <trkpt lat="45.76986" lon="5.86913">
        <ele>237</ele>
        <time>2021-09-12T10:15:59.788Z</time>
      </trkpt>
      <trkpt lat="45.76981" lon="5.86915">
        <ele>237</ele>
        <time>2021-09-12T10:16:00.788Z</time>
      </trkpt>
      <trkpt lat="45.76975" lon="5.86918">
        <ele>237</ele>
        <time>2021-09-12T10:16:01.788Z</time>
      </trkpt>
      <trkpt lat="45.76968" lon="5.86921">
        <ele>237</ele>
        <time>2021-09-12T10:16:02.788Z</time>
      </trkpt>
      <trkpt lat="45.76962" lon="5.86923">
        <ele>236</ele>
        <time>2021-09-12T10:16:03.789Z</time>
      </trkpt>
      <trkpt lat="45.76958" lon="5.86925">
        <ele>236</ele>
        <time>2021-09-12T10:16:04.788Z</time>
      </trkpt>
      <trkpt lat="45.76951" lon="5.86929">
        <ele>236</ele>
        <time>2021-09-12T10:16:05.789Z</time>
      </trkpt>
      <trkpt lat="45.76945" lon="5.86931">
        <ele>236</ele>
        <time>2021-09-12T10:16:06.788Z</time>
      </trkpt>
      <trkpt lat="45.7694" lon="5.86934">
        <ele>236</ele>
        <time>2021-09-12T10:16:07.788Z</time>
      </trkpt>
      <trkpt lat="45.76934" lon="5.86937">
        <ele>236</ele>
        <time>2021-09-12T10:16:08.789Z</time>
      </trkpt>
      <trkpt lat="45.76929" lon="5.86939">
        <ele>236</ele>
        <time>2021-09-12T10:16:09.788Z</time>
      </trkpt>
      <trkpt lat="45.76923" lon="5.86941">
        <ele>236</ele>
        <time>2021-09-12T10:16:10.788Z</time>
      </trkpt>
      <trkpt lat="45.76917" lon="5.86944">
        <ele>236</ele>
        <time>2021-09-12T10:16:11.788Z</time>
      </trkpt>
      <trkpt lat="45.76911" lon="5.86946">
        <ele>236</ele>
        <time>2021-09-12T10:16:12.788Z</time>
      </trkpt>
      <trkpt lat="45.76906" lon="5.86949">
        <ele>236</ele>
        <time>2021-09-12T10:16:13.789Z</time>
      </trkpt>
      <trkpt lat="45.769" lon="5.86951">
        <ele>237</ele>
        <time>2021-09-12T10:16:14.789Z</time>
      </trkpt>
      <trkpt lat="45.76894" lon="5.86954">
        <ele>237</ele>
        <time>2021-09-12T10:16:15.788Z</time>
      </trkpt>
      <trkpt lat="45.76889" lon="5.86956">
        <ele>238</ele>
        <time>2021-09-12T10:16:16.788Z</time>
      </trkpt>
      <trkpt lat="45.76884" lon="5.86959">
        <ele>238</ele>
        <time>2021-09-12T10:16:17.788Z</time>
      </trkpt>
      <trkpt lat="45.76878" lon="5.86961">
        <ele>238</ele>
        <time>2021-09-12T10:16:18.789Z</time>
      </trkpt>
      <trkpt lat="45.76873" lon="5.86964">
        <ele>238</ele>
        <time>2021-09-12T10:16:19.788Z</time>
      </trkpt>
      <trkpt lat="45.76867" lon="5.86966">
        <ele>238</ele>
        <time>2021-09-12T10:16:20.788Z</time>
      </trkpt>
      <trkpt lat="45.76862" lon="5.86969">
        <ele>238</ele>
        <time>2021-09-12T10:16:21.788Z</time>
      </trkpt>
      <trkpt lat="45.76857" lon="5.86971">
        <ele>238</ele>
        <time>2021-09-12T10:16:22.789Z</time>
      </trkpt>
      <trkpt lat="45.76852" lon="5.86974">
        <ele>239</ele>
        <time>2021-09-12T10:16:23.789Z</time>
      </trkpt>
      <trkpt lat="45.76846" lon="5.86976">
        <ele>239</ele>
        <time>2021-09-12T10:16:24.788Z</time>
      </trkpt>
      <trkpt lat="45.76841" lon="5.86979">
        <ele>240</ele>
        <time>2021-09-12T10:16:25.788Z</time>
      </trkpt>
      <trkpt lat="45.76836" lon="5.86981">
        <ele>240</ele>
        <time>2021-09-12T10:16:26.788Z</time>
      </trkpt>
      <trkpt lat="45.76832" lon="5.86983">
        <ele>240</ele>
        <time>2021-09-12T10:16:27.789Z</time>
      </trkpt>
      <trkpt lat="45.76826" lon="5.86986">
        <ele>241</ele>
        <time>2021-09-12T10:16:28.789Z</time>
      </trkpt>
      <trkpt lat="45.7682" lon="5.86989">
        <ele>241</ele>
        <time>2021-09-12T10:16:29.788Z</time>
      </trkpt>
      <trkpt lat="45.76815" lon="5.86991">
        <ele>241</ele>
        <time>2021-09-12T10:16:30.788Z</time>
      </trkpt>
      <trkpt lat="45.76811" lon="5.86993">
        <ele>241</ele>
        <time>2021-09-12T10:16:31.788Z</time>
      </trkpt>
      <trkpt lat="45.76804" lon="5.86996">
        <ele>241</ele>
        <time>2021-09-12T10:16:32.789Z</time>
      </trkpt>
      <trkpt lat="45.76798" lon="5.86998">
        <ele>241</ele>
        <time>2021-09-12T10:16:33.789Z</time>
      </trkpt>
      <trkpt lat="45.76793" lon="5.87001">
        <ele>241</ele>
        <time>2021-09-12T10:16:34.788Z</time>
      </trkpt>
      <trkpt lat="45.76787" lon="5.87003">
        <ele>241</ele>
        <time>2021-09-12T10:16:35.788Z</time>
      </trkpt>
      <trkpt lat="45.76782" lon="5.87005">
        <ele>240</ele>
        <time>2021-09-12T10:16:36.788Z</time>
      </trkpt>
      <trkpt lat="45.76775" lon="5.87008">
        <ele>240</ele>
        <time>2021-09-12T10:16:37.789Z</time>
      </trkpt>
      <trkpt lat="45.76769" lon="5.8701">
        <ele>239</ele>
        <time>2021-09-12T10:16:38.788Z</time>
      </trkpt>
      <trkpt lat="45.76764" lon="5.87012">
        <ele>239</ele>
        <time>2021-09-12T10:16:39.788Z</time>
      </trkpt>
      <trkpt lat="45.76759" lon="5.87013">
        <ele>239</ele>
        <time>2021-09-12T10:16:40.788Z</time>
      </trkpt>
      <trkpt lat="45.76753" lon="5.87015">
        <ele>239</ele>
        <time>2021-09-12T10:16:41.788Z</time>
      </trkpt>
      <trkpt lat="45.76747" lon="5.87017">
        <ele>238</ele>
        <time>2021-09-12T10:16:42.788Z</time>
      </trkpt>
      <trkpt lat="45.76741" lon="5.87019">
        <ele>238</ele>
        <time>2021-09-12T10:16:43.788Z</time>
      </trkpt>
      <trkpt lat="45.76735" lon="5.87021">
        <ele>238</ele>
        <time>2021-09-12T10:16:44.788Z</time>
      </trkpt>
      <trkpt lat="45.76729" lon="5.87022">
        <ele>238</ele>
        <time>2021-09-12T10:16:45.788Z</time>
      </trkpt>
      <trkpt lat="45.76723" lon="5.87024">
        <ele>237</ele>
        <time>2021-09-12T10:16:46.788Z</time>
      </trkpt>
      <trkpt lat="45.76718" lon="5.87026">
        <ele>237</ele>
        <time>2021-09-12T10:16:47.789Z</time>
      </trkpt>
      <trkpt lat="45.76712" lon="5.87027">
        <ele>237</ele>
        <time>2021-09-12T10:16:48.789Z</time>
      </trkpt>
      <trkpt lat="45.76706" lon="5.87029">
        <ele>236</ele>
        <time>2021-09-12T10:16:49.788Z</time>
      </trkpt>
      <trkpt lat="45.76701" lon="5.8703">
        <ele>236</ele>
        <time>2021-09-12T10:16:50.789Z</time>
      </trkpt>
      <trkpt lat="45.76695" lon="5.87031">
        <ele>236</ele>
        <time>2021-09-12T10:16:51.789Z</time>
      </trkpt>
      <trkpt lat="45.76689" lon="5.87032">
        <ele>236</ele>
        <time>2021-09-12T10:16:52.789Z</time>
      </trkpt>
      <trkpt lat="45.76684" lon="5.87033">
        <ele>236</ele>
        <time>2021-09-12T10:16:53.789Z</time>
      </trkpt>
      <trkpt lat="45.76678" lon="5.87034">
        <ele>236</ele>
        <time>2021-09-12T10:16:54.789Z</time>
      </trkpt>
      <trkpt lat="45.76672" lon="5.87035">
        <ele>235</ele>
        <time>2021-09-12T10:16:55.789Z</time>
      </trkpt>
      <trkpt lat="45.76667" lon="5.87036">
        <ele>235</ele>
        <time>2021-09-12T10:16:56.789Z</time>
      </trkpt>
      <trkpt lat="45.76661" lon="5.87037">
        <ele>235</ele>
        <time>2021-09-12T10:16:57.788Z</time>
      </trkpt>
      <trkpt lat="45.76656" lon="5.87038">
        <ele>235</ele>
        <time>2021-09-12T10:16:58.788Z</time>
      </trkpt>
      <trkpt lat="45.7665" lon="5.87038">
        <ele>235</ele>
        <time>2021-09-12T10:16:59.788Z</time>
      </trkpt>
      <trkpt lat="45.76645" lon="5.87039">
        <ele>235</ele>
        <time>2021-09-12T10:17:00.789Z</time>
      </trkpt>
      <trkpt lat="45.76639" lon="5.8704">
        <ele>236</ele>
        <time>2021-09-12T10:17:01.789Z</time>
      </trkpt>
      <trkpt lat="45.76634" lon="5.8704">
        <ele>236</ele>
        <time>2021-09-12T10:17:02.788Z</time>
      </trkpt>
      <trkpt lat="45.76628" lon="5.87041">
        <ele>237</ele>
        <time>2021-09-12T10:17:03.788Z</time>
      </trkpt>
      <trkpt lat="45.76622" lon="5.87041">
        <ele>237</ele>
        <time>2021-09-12T10:17:04.789Z</time>
      </trkpt>
      <trkpt lat="45.76616" lon="5.87041">
        <ele>237</ele>
        <time>2021-09-12T10:17:05.789Z</time>
      </trkpt>
      <trkpt lat="45.7661" lon="5.87041">
        <ele>237</ele>
        <time>2021-09-12T10:17:06.789Z</time>
      </trkpt>
      <trkpt lat="45.76604" lon="5.87041">
        <ele>238</ele>
        <time>2021-09-12T10:17:07.789Z</time>
      </trkpt>
      <trkpt lat="45.76599" lon="5.87041">
        <ele>238</ele>
        <time>2021-09-12T10:17:08.789Z</time>
      </trkpt>
      <trkpt lat="45.76593" lon="5.87041">
        <ele>238</ele>
        <time>2021-09-12T10:17:09.788Z</time>
      </trkpt>
      <trkpt lat="45.76587" lon="5.87041">
        <ele>238</ele>
        <time>2021-09-12T10:17:10.788Z</time>
      </trkpt>
      <trkpt lat="45.76581" lon="5.87041">
        <ele>239</ele>
        <time>2021-09-12T10:17:11.789Z</time>
      </trkpt>
      <trkpt lat="45.76575" lon="5.87041">
        <ele>239</ele>
        <time>2021-09-12T10:17:12.788Z</time>
      </trkpt>
      <trkpt lat="45.7657" lon="5.87041">
        <ele>239</ele>
        <time>2021-09-12T10:17:13.788Z</time>
      </trkpt>
      <trkpt lat="45.76564" lon="5.8704">
        <ele>239</ele>
        <time>2021-09-12T10:17:14.788Z</time>
      </trkpt>
      <trkpt lat="45.76558" lon="5.8704">
        <ele>239</ele>
        <time>2021-09-12T10:17:15.788Z</time>
      </trkpt>
      <trkpt lat="45.76552" lon="5.87039">
        <ele>239</ele>
        <time>2021-09-12T10:17:16.789Z</time>
      </trkpt>
      <trkpt lat="45.76546" lon="5.87039">
        <ele>238</ele>
        <time>2021-09-12T10:17:17.788Z</time>
      </trkpt>
      <trkpt lat="45.7654" lon="5.87038">
        <ele>238</ele>
        <time>2021-09-12T10:17:18.789Z</time>
      </trkpt>
      <trkpt lat="45.76534" lon="5.87038">
        <ele>238</ele>
        <time>2021-09-12T10:17:19.789Z</time>
      </trkpt>
      <trkpt lat="45.76529" lon="5.87038">
        <ele>238</ele>
        <time>2021-09-12T10:17:20.789Z</time>
      </trkpt>
      <trkpt lat="45.76522" lon="5.87037">
        <ele>238</ele>
        <time>2021-09-12T10:17:21.788Z</time>
      </trkpt>
      <trkpt lat="45.76516" lon="5.87037">
        <ele>238</ele>
        <time>2021-09-12T10:17:22.789Z</time>
      </trkpt>
      <trkpt lat="45.7651" lon="5.87036">
        <ele>238</ele>
        <time>2021-09-12T10:17:23.789Z</time>
      </trkpt>
      <trkpt lat="45.76505" lon="5.87036">
        <ele>238</ele>
        <time>2021-09-12T10:17:24.789Z</time>
      </trkpt>
      <trkpt lat="45.76499" lon="5.87036">
        <ele>238</ele>
        <time>2021-09-12T10:17:25.789Z</time>
      </trkpt>
      <trkpt lat="45.76492" lon="5.87035">
        <ele>238</ele>
        <time>2021-09-12T10:17:26.789Z</time>
      </trkpt>
      <trkpt lat="45.76486" lon="5.87035">
        <ele>238</ele>
        <time>2021-09-12T10:17:27.789Z</time>
      </trkpt>
      <trkpt lat="45.7648" lon="5.87034">
        <ele>238</ele>
        <time>2021-09-12T10:17:28.789Z</time>
      </trkpt>
      <trkpt lat="45.76476" lon="5.87034">
        <ele>238</ele>
        <time>2021-09-12T10:17:29.789Z</time>
      </trkpt>
      <trkpt lat="45.7647" lon="5.87034">
        <ele>238</ele>
        <time>2021-09-12T10:17:30.789Z</time>
      </trkpt>
      <trkpt lat="45.76463" lon="5.87033">
        <ele>238</ele>
        <time>2021-09-12T10:17:31.789Z</time>
      </trkpt>
      <trkpt lat="45.76457" lon="5.87033">
        <ele>238</ele>
        <time>2021-09-12T10:17:32.789Z</time>
      </trkpt>
      <trkpt lat="45.76452" lon="5.87032">
        <ele>238</ele>
        <time>2021-09-12T10:17:33.789Z</time>
      </trkpt>
      <trkpt lat="45.76447" lon="5.87032">
        <ele>237</ele>
        <time>2021-09-12T10:17:34.789Z</time>
      </trkpt>
      <trkpt lat="45.7644" lon="5.87032">
        <ele>237</ele>
        <time>2021-09-12T10:17:35.789Z</time>
      </trkpt>
      <trkpt lat="45.76435" lon="5.87032">
        <ele>237</ele>
        <time>2021-09-12T10:17:36.789Z</time>
      </trkpt>
      <trkpt lat="45.76429" lon="5.87031">
        <ele>237</ele>
        <time>2021-09-12T10:17:37.789Z</time>
      </trkpt>
      <trkpt lat="45.76423" lon="5.87031">
        <ele>236</ele>
        <time>2021-09-12T10:17:38.789Z</time>
      </trkpt>
      <trkpt lat="45.76418" lon="5.87031">
        <ele>236</ele>
        <time>2021-09-12T10:17:39.789Z</time>
      </trkpt>
      <trkpt lat="45.76411" lon="5.8703">
        <ele>236</ele>
        <time>2021-09-12T10:17:40.789Z</time>
      </trkpt>
      <trkpt lat="45.76407" lon="5.8703">
        <ele>236</ele>
        <time>2021-09-12T10:17:41.789Z</time>
      </trkpt>
      <trkpt lat="45.764" lon="5.8703">
        <ele>236</ele>
        <time>2021-09-12T10:17:42.789Z</time>
      </trkpt>
      <trkpt lat="45.76394" lon="5.8703">
        <ele>236</ele>
        <time>2021-09-12T10:17:43.789Z</time>
      </trkpt>
      <trkpt lat="45.7639" lon="5.8703">
        <ele>235</ele>
        <time>2021-09-12T10:17:44.789Z</time>
      </trkpt>
      <trkpt lat="45.76383" lon="5.87029">
        <ele>235</ele>
        <time>2021-09-12T10:17:45.789Z</time>
      </trkpt>
      <trkpt lat="45.76378" lon="5.87029">
        <ele>235</ele>
        <time>2021-09-12T10:17:46.789Z</time>
      </trkpt>
      <trkpt lat="45.76372" lon="5.87029">
        <ele>236</ele>
        <time>2021-09-12T10:17:47.788Z</time>
      </trkpt>
      <trkpt lat="45.76366" lon="5.87029">
        <ele>236</ele>
        <time>2021-09-12T10:17:48.789Z</time>
      </trkpt>
      <trkpt lat="45.76362" lon="5.87029">
        <ele>236</ele>
        <time>2021-09-12T10:17:49.789Z</time>
      </trkpt>
      <trkpt lat="45.76357" lon="5.87029">
        <ele>236</ele>
        <time>2021-09-12T10:17:50.788Z</time>
      </trkpt>
      <trkpt lat="45.7635" lon="5.87029">
        <ele>236</ele>
        <time>2021-09-12T10:17:51.788Z</time>
      </trkpt>
      <trkpt lat="45.76345" lon="5.87029">
        <ele>237</ele>
        <time>2021-09-12T10:17:52.789Z</time>
      </trkpt>
      <trkpt lat="45.7634" lon="5.87029">
        <ele>237</ele>
        <time>2021-09-12T10:17:53.789Z</time>
      </trkpt>
      <trkpt lat="45.76334" lon="5.8703">
        <ele>237</ele>
        <time>2021-09-12T10:17:54.789Z</time>
      </trkpt>
      <trkpt lat="45.76327" lon="5.8703">
        <ele>237</ele>
        <time>2021-09-12T10:17:55.788Z</time>
      </trkpt>
      <trkpt lat="45.76321" lon="5.8703">
        <ele>237</ele>
        <time>2021-09-12T10:17:56.789Z</time>
      </trkpt>
      <trkpt lat="45.76316" lon="5.87031">
        <ele>237</ele>
        <time>2021-09-12T10:17:57.789Z</time>
      </trkpt>
      <trkpt lat="45.76311" lon="5.87031">
        <ele>238</ele>
        <time>2021-09-12T10:17:58.788Z</time>
      </trkpt>
      <trkpt lat="45.76305" lon="5.87032">
        <ele>238</ele>
        <time>2021-09-12T10:17:59.789Z</time>
      </trkpt>
      <trkpt lat="45.76298" lon="5.87033">
        <ele>238</ele>
        <time>2021-09-12T10:18:00.789Z</time>
      </trkpt>
      <trkpt lat="45.76292" lon="5.87034">
        <ele>238</ele>
        <time>2021-09-12T10:18:01.789Z</time>
      </trkpt>
      <trkpt lat="45.76287" lon="5.87034">
        <ele>238</ele>
        <time>2021-09-12T10:18:02.789Z</time>
      </trkpt>
      <trkpt lat="45.76281" lon="5.87035">
        <ele>238</ele>
        <time>2021-09-12T10:18:03.788Z</time>
      </trkpt>
      <trkpt lat="45.76275" lon="5.87036">
        <ele>238</ele>
        <time>2021-09-12T10:18:04.789Z</time>
      </trkpt>
      <trkpt lat="45.7627" lon="5.87037">
        <ele>238</ele>
        <time>2021-09-12T10:18:05.788Z</time>
      </trkpt>
      <trkpt lat="45.76265" lon="5.87037">
        <ele>238</ele>
        <time>2021-09-12T10:18:06.788Z</time>
      </trkpt>
      <trkpt lat="45.7626" lon="5.87038">
        <ele>239</ele>
        <time>2021-09-12T10:18:07.789Z</time>
      </trkpt>
      <trkpt lat="45.76254" lon="5.87039">
        <ele>238</ele>
        <time>2021-09-12T10:18:08.788Z</time>
      </trkpt>
      <trkpt lat="45.76247" lon="5.87041">
        <ele>238</ele>
        <time>2021-09-12T10:18:09.789Z</time>
      </trkpt>
      <trkpt lat="45.76241" lon="5.87041">
        <ele>238</ele>
        <time>2021-09-12T10:18:10.789Z</time>
      </trkpt>
      <trkpt lat="45.76235" lon="5.87042">
        <ele>238</ele>
        <time>2021-09-12T10:18:11.788Z</time>
      </trkpt>
      <trkpt lat="45.7623" lon="5.87043">
        <ele>237</ele>
        <time>2021-09-12T10:18:12.789Z</time>
      </trkpt>
      <trkpt lat="45.76224" lon="5.87044">
        <ele>237</ele>
        <time>2021-09-12T10:18:13.789Z</time>
      </trkpt>
      <trkpt lat="45.76218" lon="5.87045">
        <ele>236</ele>
        <time>2021-09-12T10:18:14.789Z</time>
      </trkpt>
      <trkpt lat="45.76212" lon="5.87046">
        <ele>236</ele>
        <time>2021-09-12T10:18:15.789Z</time>
      </trkpt>
      <trkpt lat="45.76206" lon="5.87047">
        <ele>236</ele>
        <time>2021-09-12T10:18:16.789Z</time>
      </trkpt>
      <trkpt lat="45.76201" lon="5.87048">
        <ele>236</ele>
        <time>2021-09-12T10:18:17.789Z</time>
      </trkpt>
      <trkpt lat="45.76196" lon="5.87048">
        <ele>236</ele>
        <time>2021-09-12T10:18:18.788Z</time>
      </trkpt>
      <trkpt lat="45.76189" lon="5.8705">
        <ele>236</ele>
        <time>2021-09-12T10:18:19.788Z</time>
      </trkpt>
      <trkpt lat="45.76183" lon="5.8705">
        <ele>235</ele>
        <time>2021-09-12T10:18:20.788Z</time>
      </trkpt>
      <trkpt lat="45.76177" lon="5.87051">
        <ele>236</ele>
        <time>2021-09-12T10:18:21.789Z</time>
      </trkpt>
      <trkpt lat="45.76171" lon="5.87052">
        <ele>236</ele>
        <time>2021-09-12T10:18:22.788Z</time>
      </trkpt>
      <trkpt lat="45.76165" lon="5.87053">
        <ele>236</ele>
        <time>2021-09-12T10:18:23.788Z</time>
      </trkpt>
      <trkpt lat="45.76161" lon="5.87054">
        <ele>236</ele>
        <time>2021-09-12T10:18:24.789Z</time>
      </trkpt>
      <trkpt lat="45.76155" lon="5.87055">
        <ele>236</ele>
        <time>2021-09-12T10:18:25.789Z</time>
      </trkpt>
      <trkpt lat="45.76149" lon="5.87055">
        <ele>237</ele>
        <time>2021-09-12T10:18:26.789Z</time>
      </trkpt>
      <trkpt lat="45.76144" lon="5.87056">
        <ele>237</ele>
        <time>2021-09-12T10:18:27.788Z</time>
      </trkpt>
      <trkpt lat="45.76137" lon="5.87058">
        <ele>237</ele>
        <time>2021-09-12T10:18:28.788Z</time>
      </trkpt>
      <trkpt lat="45.76132" lon="5.87059">
        <ele>237</ele>
        <time>2021-09-12T10:18:29.789Z</time>
      </trkpt>
      <trkpt lat="45.76127" lon="5.8706">
        <ele>237</ele>
        <time>2021-09-12T10:18:30.789Z</time>
      </trkpt>
      <trkpt lat="45.76121" lon="5.87062">
        <ele>237</ele>
        <time>2021-09-12T10:18:31.789Z</time>
      </trkpt>
      <trkpt lat="45.76117" lon="5.87063">
        <ele>237</ele>
        <time>2021-09-12T10:18:32.789Z</time>
      </trkpt>
      <trkpt lat="45.7611" lon="5.87065">
        <ele>237</ele>
        <time>2021-09-12T10:18:33.788Z</time>
      </trkpt>
      <trkpt lat="45.76106" lon="5.87067">
        <ele>237</ele>
        <time>2021-09-12T10:18:34.789Z</time>
      </trkpt>
      <trkpt lat="45.76099" lon="5.87069">
        <ele>237</ele>
        <time>2021-09-12T10:18:35.789Z</time>
      </trkpt>
      <trkpt lat="45.76094" lon="5.8707">
        <ele>237</ele>
        <time>2021-09-12T10:18:36.788Z</time>
      </trkpt>
      <trkpt lat="45.76088" lon="5.87071">
        <ele>237</ele>
        <time>2021-09-12T10:18:37.789Z</time>
      </trkpt>
      <trkpt lat="45.76082" lon="5.87073">
        <ele>237</ele>
        <time>2021-09-12T10:18:38.788Z</time>
      </trkpt>
      <trkpt lat="45.76076" lon="5.87073">
        <ele>237</ele>
        <time>2021-09-12T10:18:39.789Z</time>
      </trkpt>
      <trkpt lat="45.7607" lon="5.87073">
        <ele>237</ele>
        <time>2021-09-12T10:18:40.789Z</time>
      </trkpt>
      <trkpt lat="45.76064" lon="5.87074">
        <ele>236</ele>
        <time>2021-09-12T10:18:41.789Z</time>
      </trkpt>
      <trkpt lat="45.7606" lon="5.87074">
        <ele>236</ele>
        <time>2021-09-12T10:18:42.789Z</time>
      </trkpt>
      <trkpt lat="45.76053" lon="5.87073">
        <ele>236</ele>
        <time>2021-09-12T10:18:43.789Z</time>
      </trkpt>
      <trkpt lat="45.76048" lon="5.87073">
        <ele>236</ele>
        <time>2021-09-12T10:18:44.789Z</time>
      </trkpt>
      <trkpt lat="45.76042" lon="5.87072">
        <ele>236</ele>
        <time>2021-09-12T10:18:45.789Z</time>
      </trkpt>
      <trkpt lat="45.76038" lon="5.87072">
        <ele>236</ele>
        <time>2021-09-12T10:18:46.788Z</time>
      </trkpt>
      <trkpt lat="45.76031" lon="5.87072">
        <ele>236</ele>
        <time>2021-09-12T10:18:47.789Z</time>
      </trkpt>
      <trkpt lat="45.76026" lon="5.87071">
        <ele>236</ele>
        <time>2021-09-12T10:18:48.789Z</time>
      </trkpt>
      <trkpt lat="45.7602" lon="5.87072">
        <ele>236</ele>
        <time>2021-09-12T10:18:49.788Z</time>
      </trkpt>
      <trkpt lat="45.76014" lon="5.87072">
        <ele>237</ele>
        <time>2021-09-12T10:18:50.788Z</time>
      </trkpt>
      <trkpt lat="45.76009" lon="5.87072">
        <ele>237</ele>
        <time>2021-09-12T10:18:51.789Z</time>
      </trkpt>
      <trkpt lat="45.76003" lon="5.87072">
        <ele>237</ele>
        <time>2021-09-12T10:18:52.788Z</time>
      </trkpt>
      <trkpt lat="45.75998" lon="5.87072">
        <ele>238</ele>
        <time>2021-09-12T10:18:53.789Z</time>
      </trkpt>
      <trkpt lat="45.75992" lon="5.87073">
        <ele>238</ele>
        <time>2021-09-12T10:18:54.788Z</time>
      </trkpt>
      <trkpt lat="45.75986" lon="5.87073">
        <ele>238</ele>
        <time>2021-09-12T10:18:55.788Z</time>
      </trkpt>
      <trkpt lat="45.75981" lon="5.87073">
        <ele>238</ele>
        <time>2021-09-12T10:18:56.789Z</time>
      </trkpt>
      <trkpt lat="45.75975" lon="5.87073">
        <ele>237</ele>
        <time>2021-09-12T10:18:57.789Z</time>
      </trkpt>
      <trkpt lat="45.75969" lon="5.87071">
        <ele>237</ele>
        <time>2021-09-12T10:18:58.789Z</time>
      </trkpt>
      <trkpt lat="45.75964" lon="5.87069">
        <ele>236</ele>
        <time>2021-09-12T10:18:59.788Z</time>
      </trkpt>
      <trkpt lat="45.75958" lon="5.87067">
        <ele>236</ele>
        <time>2021-09-12T10:19:00.789Z</time>
      </trkpt>
      <trkpt lat="45.75953" lon="5.87064">
        <ele>236</ele>
        <time>2021-09-12T10:19:01.789Z</time>
      </trkpt>
      <trkpt lat="45.75947" lon="5.87061">
        <ele>236</ele>
        <time>2021-09-12T10:19:02.788Z</time>
      </trkpt>
      <trkpt lat="45.75942" lon="5.87059">
        <ele>237</ele>
        <time>2021-09-12T10:19:03.788Z</time>
      </trkpt>
      <trkpt lat="45.75936" lon="5.87059">
        <ele>237</ele>
        <time>2021-09-12T10:19:04.789Z</time>
      </trkpt>
      <trkpt lat="45.75931" lon="5.8706">
        <ele>236</ele>
        <time>2021-09-12T10:19:05.788Z</time>
      </trkpt>
      <trkpt lat="45.75926" lon="5.87063">
        <ele>236</ele>
        <time>2021-09-12T10:19:06.788Z</time>
      </trkpt>
      <trkpt lat="45.75921" lon="5.87067">
        <ele>236</ele>
        <time>2021-09-12T10:19:07.789Z</time>
      </trkpt>
      <trkpt lat="45.75916" lon="5.87072">
        <ele>235</ele>
        <time>2021-09-12T10:19:08.789Z</time>
      </trkpt>
      <trkpt lat="45.75911" lon="5.87076">
        <ele>234</ele>
        <time>2021-09-12T10:19:09.789Z</time>
      </trkpt>
      <trkpt lat="45.75907" lon="5.8708">
        <ele>234</ele>
        <time>2021-09-12T10:19:10.788Z</time>
      </trkpt>
      <trkpt lat="45.75901" lon="5.87087">
        <ele>233</ele>
        <time>2021-09-12T10:19:11.789Z</time>
      </trkpt>
      <trkpt lat="45.75897" lon="5.87093">
        <ele>232</ele>
        <time>2021-09-12T10:19:12.789Z</time>
      </trkpt>
      <trkpt lat="45.75892" lon="5.87101">
        <ele>231</ele>
        <time>2021-09-12T10:19:13.789Z</time>
      </trkpt>
      <trkpt lat="45.75887" lon="5.87107">
        <ele>230</ele>
        <time>2021-09-12T10:19:14.789Z</time>
      </trkpt>
      <trkpt lat="45.75883" lon="5.87112">
        <ele>230</ele>
        <time>2021-09-12T10:19:15.788Z</time>
      </trkpt>
      <trkpt lat="45.75879" lon="5.87118">
        <ele>230</ele>
        <time>2021-09-12T10:19:16.789Z</time>
      </trkpt>
      <trkpt lat="45.75875" lon="5.87123">
        <ele>230</ele>
        <time>2021-09-12T10:19:17.789Z</time>
      </trkpt>
      <trkpt lat="45.75871" lon="5.87127">
        <ele>230</ele>
        <time>2021-09-12T10:19:18.788Z</time>
      </trkpt>
      <trkpt lat="45.75866" lon="5.87131">
        <ele>230</ele>
        <time>2021-09-12T10:19:19.789Z</time>
      </trkpt>
      <trkpt lat="45.75861" lon="5.87135">
        <ele>230</ele>
        <time>2021-09-12T10:19:20.789Z</time>
      </trkpt>
      <trkpt lat="45.75857" lon="5.87138">
        <ele>230</ele>
        <time>2021-09-12T10:19:21.789Z</time>
      </trkpt>
      <trkpt lat="45.75853" lon="5.87141">
        <ele>230</ele>
        <time>2021-09-12T10:19:22.788Z</time>
      </trkpt>
      <trkpt lat="45.75848" lon="5.87144">
        <ele>230</ele>
        <time>2021-09-12T10:19:23.789Z</time>
      </trkpt>
      <trkpt lat="45.75844" lon="5.87148">
        <ele>230</ele>
        <time>2021-09-12T10:19:24.788Z</time>
      </trkpt>
      <trkpt lat="45.75839" lon="5.87152">
        <ele>230</ele>
        <time>2021-09-12T10:19:25.788Z</time>
      </trkpt>
      <trkpt lat="45.75833" lon="5.87157">
        <ele>230</ele>
        <time>2021-09-12T10:19:26.789Z</time>
      </trkpt>
      <trkpt lat="45.75829" lon="5.87161">
        <ele>230</ele>
        <time>2021-09-12T10:19:27.789Z</time>
      </trkpt>
      <trkpt lat="45.75825" lon="5.87165">
        <ele>231</ele>
        <time>2021-09-12T10:19:28.788Z</time>
      </trkpt>
      <trkpt lat="45.7582" lon="5.87171">
        <ele>231</ele>
        <time>2021-09-12T10:19:29.789Z</time>
      </trkpt>
      <trkpt lat="45.75816" lon="5.87175">
        <ele>232</ele>
        <time>2021-09-12T10:19:30.788Z</time>
      </trkpt>
      <trkpt lat="45.75812" lon="5.8718">
        <ele>233</ele>
        <time>2021-09-12T10:19:31.789Z</time>
      </trkpt>
      <trkpt lat="45.75808" lon="5.87186">
        <ele>233</ele>
        <time>2021-09-12T10:19:32.788Z</time>
      </trkpt>
      <trkpt lat="45.75804" lon="5.87192">
        <ele>234</ele>
        <time>2021-09-12T10:19:33.789Z</time>
      </trkpt>
      <trkpt lat="45.75801" lon="5.87198">
        <ele>235</ele>
        <time>2021-09-12T10:19:34.788Z</time>
      </trkpt>
      <trkpt lat="45.75797" lon="5.87206">
        <ele>235</ele>
        <time>2021-09-12T10:19:35.789Z</time>
      </trkpt>
      <trkpt lat="45.75795" lon="5.87212">
        <ele>236</ele>
        <time>2021-09-12T10:19:36.789Z</time>
      </trkpt>
      <trkpt lat="45.75792" lon="5.8722">
        <ele>236</ele>
        <time>2021-09-12T10:19:37.789Z</time>
      </trkpt>
      <trkpt lat="45.7579" lon="5.87226">
        <ele>237</ele>
        <time>2021-09-12T10:19:38.789Z</time>
      </trkpt>
      <trkpt lat="45.75788" lon="5.87233">
        <ele>237</ele>
        <time>2021-09-12T10:19:39.789Z</time>
      </trkpt>
      <trkpt lat="45.75787" lon="5.87242">
        <ele>237</ele>
        <time>2021-09-12T10:19:40.788Z</time>
      </trkpt>
      <trkpt lat="45.75785" lon="5.8725">
        <ele>237</ele>
        <time>2021-09-12T10:19:41.789Z</time>
      </trkpt>
      <trkpt lat="45.75784" lon="5.87258">
        <ele>237</ele>
        <time>2021-09-12T10:19:42.789Z</time>
      </trkpt>
      <trkpt lat="45.75783" lon="5.87265">
        <ele>237</ele>
        <time>2021-09-12T10:19:43.789Z</time>
      </trkpt>
      <trkpt lat="45.75782" lon="5.87274">
        <ele>237</ele>
        <time>2021-09-12T10:19:44.788Z</time>
      </trkpt>
      <trkpt lat="45.75781" lon="5.87282">
        <ele>237</ele>
        <time>2021-09-12T10:19:45.788Z</time>
      </trkpt>
      <trkpt lat="45.75779" lon="5.8729">
        <ele>237</ele>
        <time>2021-09-12T10:19:46.789Z</time>
      </trkpt>
      <trkpt lat="45.75778" lon="5.87298">
        <ele>237</ele>
        <time>2021-09-12T10:19:47.789Z</time>
      </trkpt>
      <trkpt lat="45.75777" lon="5.87304">
        <ele>237</ele>
        <time>2021-09-12T10:19:48.789Z</time>
      </trkpt>
      <trkpt lat="45.75775" lon="5.87313">
        <ele>237</ele>
        <time>2021-09-12T10:19:49.789Z</time>
      </trkpt>
      <trkpt lat="45.75774" lon="5.8732">
        <ele>237</ele>
        <time>2021-09-12T10:19:50.789Z</time>
      </trkpt>
      <trkpt lat="45.75772" lon="5.87327">
        <ele>237</ele>
        <time>2021-09-12T10:19:51.789Z</time>
      </trkpt>
      <trkpt lat="45.75771" lon="5.87334">
        <ele>237</ele>
        <time>2021-09-12T10:19:52.789Z</time>
      </trkpt>
      <trkpt lat="45.7577" lon="5.8734">
        <ele>237</ele>
        <time>2021-09-12T10:19:53.788Z</time>
      </trkpt>
      <trkpt lat="45.75768" lon="5.87348">
        <ele>237</ele>
        <time>2021-09-12T10:19:54.788Z</time>
      </trkpt>
      <trkpt lat="45.75767" lon="5.87355">
        <ele>237</ele>
        <time>2021-09-12T10:19:55.789Z</time>
      </trkpt>
      <trkpt lat="45.75765" lon="5.8736">
        <ele>238</ele>
        <time>2021-09-12T10:19:56.789Z</time>
      </trkpt>
      <trkpt lat="45.75764" lon="5.87366">
        <ele>238</ele>
        <time>2021-09-12T10:19:57.789Z</time>
      </trkpt>
      <trkpt lat="45.75762" lon="5.87373">
        <ele>239</ele>
        <time>2021-09-12T10:19:58.789Z</time>
      </trkpt>
      <trkpt lat="45.7576" lon="5.87381">
        <ele>239</ele>
        <time>2021-09-12T10:19:59.789Z</time>
      </trkpt>
      <trkpt lat="45.75757" lon="5.87388">
        <ele>239</ele>
        <time>2021-09-12T10:20:00.789Z</time>
      </trkpt>
      <trkpt lat="45.75754" lon="5.87395">
        <ele>239</ele>
        <time>2021-09-12T10:20:01.788Z</time>
      </trkpt>
      <trkpt lat="45.75752" lon="5.87401">
        <ele>239</ele>
        <time>2021-09-12T10:20:02.789Z</time>
      </trkpt>
      <trkpt lat="45.75748" lon="5.87408">
        <ele>239</ele>
        <time>2021-09-12T10:20:03.788Z</time>
      </trkpt>
      <trkpt lat="45.75744" lon="5.87417">
        <ele>240</ele>
        <time>2021-09-12T10:20:04.789Z</time>
      </trkpt>
      <trkpt lat="45.75741" lon="5.87424">
        <ele>240</ele>
        <time>2021-09-12T10:20:05.788Z</time>
      </trkpt>
      <trkpt lat="45.75738" lon="5.8743">
        <ele>240</ele>
        <time>2021-09-12T10:20:06.789Z</time>
      </trkpt>
      <trkpt lat="45.75734" lon="5.87436">
        <ele>240</ele>
        <time>2021-09-12T10:20:07.789Z</time>
      </trkpt>
      <trkpt lat="45.75731" lon="5.87443">
        <ele>241</ele>
        <time>2021-09-12T10:20:08.788Z</time>
      </trkpt>
      <trkpt lat="45.75726" lon="5.87451">
        <ele>241</ele>
        <time>2021-09-12T10:20:09.789Z</time>
      </trkpt>
      <trkpt lat="45.75722" lon="5.87458">
        <ele>240</ele>
        <time>2021-09-12T10:20:10.789Z</time>
      </trkpt>
      <trkpt lat="45.75719" lon="5.87463">
        <ele>240</ele>
        <time>2021-09-12T10:20:11.789Z</time>
      </trkpt>
      <trkpt lat="45.75716" lon="5.87469">
        <ele>240</ele>
        <time>2021-09-12T10:20:12.788Z</time>
      </trkpt>
      <trkpt lat="45.75711" lon="5.87477">
        <ele>240</ele>
        <time>2021-09-12T10:20:13.788Z</time>
      </trkpt>
      <trkpt lat="45.75707" lon="5.87483">
        <ele>240</ele>
        <time>2021-09-12T10:20:14.789Z</time>
      </trkpt>
      <trkpt lat="45.75702" lon="5.87489">
        <ele>240</ele>
        <time>2021-09-12T10:20:15.789Z</time>
      </trkpt>
      <trkpt lat="45.75698" lon="5.87494">
        <ele>241</ele>
        <time>2021-09-12T10:20:16.789Z</time>
      </trkpt>
      <trkpt lat="45.75695" lon="5.87499">
        <ele>241</ele>
        <time>2021-09-12T10:20:17.788Z</time>
      </trkpt>
      <trkpt lat="45.7569" lon="5.87505">
        <ele>240</ele>
        <time>2021-09-12T10:20:18.789Z</time>
      </trkpt>
      <trkpt lat="45.75685" lon="5.8751">
        <ele>240</ele>
        <time>2021-09-12T10:20:19.789Z</time>
      </trkpt>
      <trkpt lat="45.75681" lon="5.87515">
        <ele>240</ele>
        <time>2021-09-12T10:20:20.789Z</time>
      </trkpt>
      <trkpt lat="45.75677" lon="5.87519">
        <ele>239</ele>
        <time>2021-09-12T10:20:21.788Z</time>
      </trkpt>
      <trkpt lat="45.75672" lon="5.87525">
        <ele>239</ele>
        <time>2021-09-12T10:20:22.788Z</time>
      </trkpt>
      <trkpt lat="45.75667" lon="5.87529">
        <ele>239</ele>
        <time>2021-09-12T10:20:23.789Z</time>
      </trkpt>
      <trkpt lat="45.75663" lon="5.87532">
        <ele>239</ele>
        <time>2021-09-12T10:20:24.789Z</time>
      </trkpt>
      <trkpt lat="45.75658" lon="5.87536">
        <ele>240</ele>
        <time>2021-09-12T10:20:25.788Z</time>
      </trkpt>
      <trkpt lat="45.75653" lon="5.8754">
        <ele>240</ele>
        <time>2021-09-12T10:20:26.788Z</time>
      </trkpt>
      <trkpt lat="45.75649" lon="5.87545">
        <ele>240</ele>
        <time>2021-09-12T10:20:27.789Z</time>
      </trkpt>
      <trkpt lat="45.75644" lon="5.8755">
        <ele>240</ele>
        <time>2021-09-12T10:20:28.789Z</time>
      </trkpt>
      <trkpt lat="45.75639" lon="5.87555">
        <ele>240</ele>
        <time>2021-09-12T10:20:29.789Z</time>
      </trkpt>
      <trkpt lat="45.75636" lon="5.87559">
        <ele>240</ele>
        <time>2021-09-12T10:20:30.789Z</time>
      </trkpt>
      <trkpt lat="45.75632" lon="5.87565">
        <ele>240</ele>
        <time>2021-09-12T10:20:31.789Z</time>
      </trkpt>
      <trkpt lat="45.75627" lon="5.87572">
        <ele>240</ele>
        <time>2021-09-12T10:20:32.789Z</time>
      </trkpt>
      <trkpt lat="45.75624" lon="5.87577">
        <ele>240</ele>
        <time>2021-09-12T10:20:33.789Z</time>
      </trkpt>
      <trkpt lat="45.7562" lon="5.87583">
        <ele>240</ele>
        <time>2021-09-12T10:20:34.789Z</time>
      </trkpt>
      <trkpt lat="45.75617" lon="5.87588">
        <ele>240</ele>
        <time>2021-09-12T10:20:35.788Z</time>
      </trkpt>
      <trkpt lat="45.75613" lon="5.87593">
        <ele>239</ele>
        <time>2021-09-12T10:20:36.788Z</time>
      </trkpt>
      <trkpt lat="45.75608" lon="5.876">
        <ele>239</ele>
        <time>2021-09-12T10:20:37.788Z</time>
      </trkpt>
      <trkpt lat="45.75605" lon="5.87607">
        <ele>239</ele>
        <time>2021-09-12T10:20:38.789Z</time>
      </trkpt>
      <trkpt lat="45.75602" lon="5.87612">
        <ele>239</ele>
        <time>2021-09-12T10:20:39.789Z</time>
      </trkpt>
      <trkpt lat="45.75599" lon="5.87619">
        <ele>239</ele>
        <time>2021-09-12T10:20:40.789Z</time>
      </trkpt>
      <trkpt lat="45.75595" lon="5.87625">
        <ele>239</ele>
        <time>2021-09-12T10:20:41.789Z</time>
      </trkpt>
      <trkpt lat="45.75591" lon="5.87634">
        <ele>239</ele>
        <time>2021-09-12T10:20:42.789Z</time>
      </trkpt>
      <trkpt lat="45.75587" lon="5.87641">
        <ele>239</ele>
        <time>2021-09-12T10:20:43.789Z</time>
      </trkpt>
      <trkpt lat="45.75584" lon="5.87648">
        <ele>239</ele>
        <time>2021-09-12T10:20:44.789Z</time>
      </trkpt>
      <trkpt lat="45.75581" lon="5.87654">
        <ele>238</ele>
        <time>2021-09-12T10:20:45.789Z</time>
      </trkpt>
      <trkpt lat="45.75578" lon="5.87661">
        <ele>238</ele>
        <time>2021-09-12T10:20:46.789Z</time>
      </trkpt>
      <trkpt lat="45.75573" lon="5.87669">
        <ele>238</ele>
        <time>2021-09-12T10:20:47.789Z</time>
      </trkpt>
      <trkpt lat="45.7557" lon="5.87677">
        <ele>239</ele>
        <time>2021-09-12T10:20:48.789Z</time>
      </trkpt>
      <trkpt lat="45.75567" lon="5.87684">
        <ele>239</ele>
        <time>2021-09-12T10:20:49.788Z</time>
      </trkpt>
      <trkpt lat="45.75564" lon="5.87689">
        <ele>240</ele>
        <time>2021-09-12T10:20:50.789Z</time>
      </trkpt>
      <trkpt lat="45.75561" lon="5.87696">
        <ele>240</ele>
        <time>2021-09-12T10:20:51.788Z</time>
      </trkpt>
      <trkpt lat="45.75558" lon="5.87703">
        <ele>241</ele>
        <time>2021-09-12T10:20:52.789Z</time>
      </trkpt>
      <trkpt lat="45.75554" lon="5.87712">
        <ele>241</ele>
        <time>2021-09-12T10:20:53.789Z</time>
      </trkpt>
      <trkpt lat="45.75551" lon="5.87717">
        <ele>241</ele>
        <time>2021-09-12T10:20:54.788Z</time>
      </trkpt>
      <trkpt lat="45.75548" lon="5.87724">
        <ele>241</ele>
        <time>2021-09-12T10:20:55.789Z</time>
      </trkpt>
      <trkpt lat="45.75545" lon="5.87731">
        <ele>240</ele>
        <time>2021-09-12T10:20:56.789Z</time>
      </trkpt>
      <trkpt lat="45.75541" lon="5.87738">
        <ele>240</ele>
        <time>2021-09-12T10:20:57.789Z</time>
      </trkpt>
      <trkpt lat="45.75538" lon="5.87745">
        <ele>240</ele>
        <time>2021-09-12T10:20:58.788Z</time>
      </trkpt>
      <trkpt lat="45.75535" lon="5.87753">
        <ele>241</ele>
        <time>2021-09-12T10:20:59.789Z</time>
      </trkpt>
      <trkpt lat="45.75533" lon="5.8776">
        <ele>241</ele>
        <time>2021-09-12T10:21:00.789Z</time>
      </trkpt>
      <trkpt lat="45.7553" lon="5.87769">
        <ele>241</ele>
        <time>2021-09-12T10:21:01.788Z</time>
      </trkpt>
      <trkpt lat="45.75528" lon="5.87776">
        <ele>241</ele>
        <time>2021-09-12T10:21:02.789Z</time>
      </trkpt>
      <trkpt lat="45.75526" lon="5.87783">
        <ele>240</ele>
        <time>2021-09-12T10:21:03.788Z</time>
      </trkpt>
      <trkpt lat="45.75524" lon="5.8779">
        <ele>240</ele>
        <time>2021-09-12T10:21:04.788Z</time>
      </trkpt>
      <trkpt lat="45.75522" lon="5.87797">
        <ele>240</ele>
        <time>2021-09-12T10:21:05.789Z</time>
      </trkpt>
      <trkpt lat="45.7552" lon="5.87802">
        <ele>239</ele>
        <time>2021-09-12T10:21:06.789Z</time>
      </trkpt>
      <trkpt lat="45.75518" lon="5.8781">
        <ele>238</ele>
        <time>2021-09-12T10:21:07.789Z</time>
      </trkpt>
      <trkpt lat="45.75517" lon="5.87817">
        <ele>238</ele>
        <time>2021-09-12T10:21:08.788Z</time>
      </trkpt>
      <trkpt lat="45.75515" lon="5.87825">
        <ele>238</ele>
        <time>2021-09-12T10:21:09.788Z</time>
      </trkpt>
      <trkpt lat="45.75514" lon="5.87832">
        <ele>238</ele>
        <time>2021-09-12T10:21:10.789Z</time>
      </trkpt>
      <trkpt lat="45.75512" lon="5.87842">
        <ele>238</ele>
        <time>2021-09-12T10:21:11.789Z</time>
      </trkpt>
      <trkpt lat="45.7551" lon="5.87849">
        <ele>239</ele>
        <time>2021-09-12T10:21:12.789Z</time>
      </trkpt>
      <trkpt lat="45.75509" lon="5.87857">
        <ele>239</ele>
        <time>2021-09-12T10:21:13.789Z</time>
      </trkpt>
      <trkpt lat="45.75507" lon="5.87865">
        <ele>239</ele>
        <time>2021-09-12T10:21:14.788Z</time>
      </trkpt>
      <trkpt lat="45.75505" lon="5.87871">
        <ele>239</ele>
        <time>2021-09-12T10:21:15.789Z</time>
      </trkpt>
      <trkpt lat="45.75503" lon="5.87879">
        <ele>240</ele>
        <time>2021-09-12T10:21:16.788Z</time>
      </trkpt>
      <trkpt lat="45.755" lon="5.87887">
        <ele>241</ele>
        <time>2021-09-12T10:21:17.789Z</time>
      </trkpt>
      <trkpt lat="45.75498" lon="5.87892">
        <ele>241</ele>
        <time>2021-09-12T10:21:18.789Z</time>
      </trkpt>
      <trkpt lat="45.75495" lon="5.87899">
        <ele>242</ele>
        <time>2021-09-12T10:21:19.788Z</time>
      </trkpt>
      <trkpt lat="45.75491" lon="5.87905">
        <ele>243</ele>
        <time>2021-09-12T10:21:20.788Z</time>
      </trkpt>
      <trkpt lat="45.75487" lon="5.87913">
        <ele>243</ele>
        <time>2021-09-12T10:21:21.789Z</time>
      </trkpt>
      <trkpt lat="45.75484" lon="5.87919">
        <ele>244</ele>
        <time>2021-09-12T10:21:22.789Z</time>
      </trkpt>
      <trkpt lat="45.7548" lon="5.87923">
        <ele>244</ele>
        <time>2021-09-12T10:21:23.788Z</time>
      </trkpt>
      <trkpt lat="45.75477" lon="5.87928">
        <ele>244</ele>
        <time>2021-09-12T10:21:24.789Z</time>
      </trkpt>
      <trkpt lat="45.75472" lon="5.87933">
        <ele>244</ele>
        <time>2021-09-12T10:21:25.789Z</time>
      </trkpt>
      <trkpt lat="45.75468" lon="5.87938">
        <ele>243</ele>
        <time>2021-09-12T10:21:26.789Z</time>
      </trkpt>
      <trkpt lat="45.75464" lon="5.87943">
        <ele>243</ele>
        <time>2021-09-12T10:21:27.788Z</time>
      </trkpt>
      <trkpt lat="45.7546" lon="5.87948">
        <ele>243</ele>
        <time>2021-09-12T10:21:28.789Z</time>
      </trkpt>
      <trkpt lat="45.75457" lon="5.87951">
        <ele>243</ele>
        <time>2021-09-12T10:21:29.788Z</time>
      </trkpt>
      <trkpt lat="45.75452" lon="5.87955">
        <ele>243</ele>
        <time>2021-09-12T10:21:30.789Z</time>
      </trkpt>
      <trkpt lat="45.75448" lon="5.87959">
        <ele>243</ele>
        <time>2021-09-12T10:21:31.789Z</time>
      </trkpt>
      <trkpt lat="45.75442" lon="5.87964">
        <ele>243</ele>
        <time>2021-09-12T10:21:32.789Z</time>
      </trkpt>
      <trkpt lat="45.75438" lon="5.87967">
        <ele>243</ele>
        <time>2021-09-12T10:21:33.788Z</time>
      </trkpt>
      <trkpt lat="45.75433" lon="5.87971">
        <ele>243</ele>
        <time>2021-09-12T10:21:34.789Z</time>
      </trkpt>
      <trkpt lat="45.75428" lon="5.87975">
        <ele>243</ele>
        <time>2021-09-12T10:21:35.789Z</time>
      </trkpt>
      <trkpt lat="45.75421" lon="5.87979">
        <ele>243</ele>
        <time>2021-09-12T10:21:36.789Z</time>
      </trkpt>
      <trkpt lat="45.75416" lon="5.87982">
        <ele>244</ele>
        <time>2021-09-12T10:21:37.789Z</time>
      </trkpt>
      <trkpt lat="45.75411" lon="5.87983">
        <ele>244</ele>
        <time>2021-09-12T10:21:38.788Z</time>
      </trkpt>
      <trkpt lat="45.75405" lon="5.87986">
        <ele>244</ele>
        <time>2021-09-12T10:21:39.788Z</time>
      </trkpt>
      <trkpt lat="45.754" lon="5.87988">
        <ele>245</ele>
        <time>2021-09-12T10:21:40.789Z</time>
      </trkpt>
      <trkpt lat="45.75393" lon="5.87991">
        <ele>245</ele>
        <time>2021-09-12T10:21:41.789Z</time>
      </trkpt>
      <trkpt lat="45.75387" lon="5.87993">
        <ele>245</ele>
        <time>2021-09-12T10:21:42.789Z</time>
      </trkpt>
      <trkpt lat="45.75382" lon="5.87995">
        <ele>246</ele>
        <time>2021-09-12T10:21:43.789Z</time>
      </trkpt>
      <trkpt lat="45.75376" lon="5.87997">
        <ele>246</ele>
        <time>2021-09-12T10:21:44.788Z</time>
      </trkpt>
      <trkpt lat="45.75371" lon="5.87999">
        <ele>246</ele>
        <time>2021-09-12T10:21:45.789Z</time>
      </trkpt>
      <trkpt lat="45.75366" lon="5.88001">
        <ele>246</ele>
        <time>2021-09-12T10:21:46.789Z</time>
      </trkpt>
      <trkpt lat="45.7536" lon="5.88003">
        <ele>246</ele>
        <time>2021-09-12T10:21:47.789Z</time>
      </trkpt>
      <trkpt lat="45.75355" lon="5.88005">
        <ele>246</ele>
        <time>2021-09-12T10:21:48.789Z</time>
      </trkpt>
      <trkpt lat="45.7535" lon="5.88008">
        <ele>246</ele>
        <time>2021-09-12T10:21:49.789Z</time>
      </trkpt>
      <trkpt lat="45.75345" lon="5.8801">
        <ele>246</ele>
        <time>2021-09-12T10:21:50.789Z</time>
      </trkpt>
      <trkpt lat="45.7534" lon="5.88011">
        <ele>245</ele>
        <time>2021-09-12T10:21:51.789Z</time>
      </trkpt>
      <trkpt lat="45.75334" lon="5.88013">
        <ele>245</ele>
        <time>2021-09-12T10:21:52.788Z</time>
      </trkpt>
      <trkpt lat="45.75329" lon="5.88013">
        <ele>245</ele>
        <time>2021-09-12T10:21:53.789Z</time>
      </trkpt>
      <trkpt lat="45.75325" lon="5.88014">
        <ele>245</ele>
        <time>2021-09-12T10:21:54.789Z</time>
      </trkpt>
      <trkpt lat="45.75319" lon="5.88015">
        <ele>245</ele>
        <time>2021-09-12T10:21:55.789Z</time>
      </trkpt>
      <trkpt lat="45.75314" lon="5.88015">
        <ele>245</ele>
        <time>2021-09-12T10:21:56.789Z</time>
      </trkpt>
      <trkpt lat="45.75309" lon="5.88015">
        <ele>245</ele>
        <time>2021-09-12T10:21:57.789Z</time>
      </trkpt>
      <trkpt lat="45.75305" lon="5.88017">
        <ele>245</ele>
        <time>2021-09-12T10:21:58.789Z</time>
      </trkpt>
      <trkpt lat="45.753" lon="5.88018">
        <ele>244</ele>
        <time>2021-09-12T10:21:59.789Z</time>
      </trkpt>
      <trkpt lat="45.75294" lon="5.88021">
        <ele>244</ele>
        <time>2021-09-12T10:22:00.789Z</time>
      </trkpt>
      <trkpt lat="45.75289" lon="5.88023">
        <ele>244</ele>
        <time>2021-09-12T10:22:01.789Z</time>
      </trkpt>
      <trkpt lat="45.75284" lon="5.88026">
        <ele>245</ele>
        <time>2021-09-12T10:22:02.789Z</time>
      </trkpt>
      <trkpt lat="45.75279" lon="5.88029">
        <ele>245</ele>
        <time>2021-09-12T10:22:03.789Z</time>
      </trkpt>
      <trkpt lat="45.75275" lon="5.88032">
        <ele>245</ele>
        <time>2021-09-12T10:22:04.789Z</time>
      </trkpt>
      <trkpt lat="45.75269" lon="5.88036">
        <ele>245</ele>
        <time>2021-09-12T10:22:05.788Z</time>
      </trkpt>
      <trkpt lat="45.75264" lon="5.8804">
        <ele>245</ele>
        <time>2021-09-12T10:22:06.789Z</time>
      </trkpt>
      <trkpt lat="45.75259" lon="5.88043">
        <ele>245</ele>
        <time>2021-09-12T10:22:07.789Z</time>
      </trkpt>
      <trkpt lat="45.75254" lon="5.88046">
        <ele>244</ele>
        <time>2021-09-12T10:22:08.789Z</time>
      </trkpt>
      <trkpt lat="45.75248" lon="5.8805">
        <ele>244</ele>
        <time>2021-09-12T10:22:09.789Z</time>
      </trkpt>
      <trkpt lat="45.75242" lon="5.88053">
        <ele>244</ele>
        <time>2021-09-12T10:22:10.789Z</time>
      </trkpt>
      <trkpt lat="45.75237" lon="5.88056">
        <ele>244</ele>
        <time>2021-09-12T10:22:11.789Z</time>
      </trkpt>
      <trkpt lat="45.75233" lon="5.88058">
        <ele>244</ele>
        <time>2021-09-12T10:22:12.789Z</time>
      </trkpt>
      <trkpt lat="45.75227" lon="5.88061">
        <ele>243</ele>
        <time>2021-09-12T10:22:13.789Z</time>
      </trkpt>
      <trkpt lat="45.75221" lon="5.88065">
        <ele>243</ele>
        <time>2021-09-12T10:22:14.789Z</time>
      </trkpt>
      <trkpt lat="45.75216" lon="5.88068">
        <ele>243</ele>
        <time>2021-09-12T10:22:15.789Z</time>
      </trkpt>
      <trkpt lat="45.75211" lon="5.88071">
        <ele>243</ele>
        <time>2021-09-12T10:22:16.789Z</time>
      </trkpt>
      <trkpt lat="45.75207" lon="5.88073">
        <ele>242</ele>
        <time>2021-09-12T10:22:17.789Z</time>
      </trkpt>
      <trkpt lat="45.75202" lon="5.88076">
        <ele>242</ele>
        <time>2021-09-12T10:22:18.789Z</time>
      </trkpt>
      <trkpt lat="45.75197" lon="5.88079">
        <ele>242</ele>
        <time>2021-09-12T10:22:19.789Z</time>
      </trkpt>
      <trkpt lat="45.75191" lon="5.88082">
        <ele>242</ele>
        <time>2021-09-12T10:22:20.789Z</time>
      </trkpt>
      <trkpt lat="45.75187" lon="5.88084">
        <ele>242</ele>
        <time>2021-09-12T10:22:21.789Z</time>
      </trkpt>
      <trkpt lat="45.75182" lon="5.88087">
        <ele>242</ele>
        <time>2021-09-12T10:22:22.789Z</time>
      </trkpt>
      <trkpt lat="45.75176" lon="5.88091">
        <ele>242</ele>
        <time>2021-09-12T10:22:23.788Z</time>
      </trkpt>
      <trkpt lat="45.75172" lon="5.88093">
        <ele>242</ele>
        <time>2021-09-12T10:22:24.788Z</time>
      </trkpt>
      <trkpt lat="45.75166" lon="5.88096">
        <ele>241</ele>
        <time>2021-09-12T10:22:25.789Z</time>
      </trkpt>
      <trkpt lat="45.75161" lon="5.88099">
        <ele>241</ele>
        <time>2021-09-12T10:22:26.789Z</time>
      </trkpt>
      <trkpt lat="45.75156" lon="5.88102">
        <ele>240</ele>
        <time>2021-09-12T10:22:27.788Z</time>
      </trkpt>
      <trkpt lat="45.7515" lon="5.88105">
        <ele>240</ele>
        <time>2021-09-12T10:22:28.788Z</time>
      </trkpt>
      <trkpt lat="45.75145" lon="5.88109">
        <ele>240</ele>
        <time>2021-09-12T10:22:29.788Z</time>
      </trkpt>
      <trkpt lat="45.7514" lon="5.88112">
        <ele>240</ele>
        <time>2021-09-12T10:22:30.789Z</time>
      </trkpt>
      <trkpt lat="45.75135" lon="5.88114">
        <ele>240</ele>
        <time>2021-09-12T10:22:31.788Z</time>
      </trkpt>
      <trkpt lat="45.7513" lon="5.88117">
        <ele>240</ele>
        <time>2021-09-12T10:22:32.789Z</time>
      </trkpt>
      <trkpt lat="45.75124" lon="5.88121">
        <ele>240</ele>
        <time>2021-09-12T10:22:33.788Z</time>
      </trkpt>
      <trkpt lat="45.75119" lon="5.88124">
        <ele>241</ele>
        <time>2021-09-12T10:22:34.789Z</time>
      </trkpt>
      <trkpt lat="45.75114" lon="5.88127">
        <ele>241</ele>
        <time>2021-09-12T10:22:35.789Z</time>
      </trkpt>
      <trkpt lat="45.75109" lon="5.8813">
        <ele>241</ele>
        <time>2021-09-12T10:22:36.789Z</time>
      </trkpt>
      <trkpt lat="45.75104" lon="5.88133">
        <ele>241</ele>
        <time>2021-09-12T10:22:37.789Z</time>
      </trkpt>
      <trkpt lat="45.75098" lon="5.88137">
        <ele>241</ele>
        <time>2021-09-12T10:22:38.789Z</time>
      </trkpt>
      <trkpt lat="45.75092" lon="5.8814">
        <ele>241</ele>
        <time>2021-09-12T10:22:39.789Z</time>
      </trkpt>
      <trkpt lat="45.75086" lon="5.88144">
        <ele>241</ele>
        <time>2021-09-12T10:22:40.788Z</time>
      </trkpt>
      <trkpt lat="45.75082" lon="5.88146">
        <ele>242</ele>
        <time>2021-09-12T10:22:41.789Z</time>
      </trkpt>
      <trkpt lat="45.75076" lon="5.88149">
        <ele>242</ele>
        <time>2021-09-12T10:22:42.788Z</time>
      </trkpt>
      <trkpt lat="45.7507" lon="5.88154">
        <ele>242</ele>
        <time>2021-09-12T10:22:43.788Z</time>
      </trkpt>
      <trkpt lat="45.75064" lon="5.88157">
        <ele>243</ele>
        <time>2021-09-12T10:22:44.788Z</time>
      </trkpt>
      <trkpt lat="45.75059" lon="5.88161">
        <ele>243</ele>
        <time>2021-09-12T10:22:45.788Z</time>
      </trkpt>
      <trkpt lat="45.75055" lon="5.88164">
        <ele>244</ele>
        <time>2021-09-12T10:22:46.788Z</time>
      </trkpt>
      <trkpt lat="45.75048" lon="5.88169">
        <ele>244</ele>
        <time>2021-09-12T10:22:47.788Z</time>
      </trkpt>
      <trkpt lat="45.75043" lon="5.88173">
        <ele>245</ele>
        <time>2021-09-12T10:22:48.789Z</time>
      </trkpt>
      <trkpt lat="45.75038" lon="5.88177">
        <ele>245</ele>
        <time>2021-09-12T10:22:49.789Z</time>
      </trkpt>
      <trkpt lat="45.75034" lon="5.8818">
        <ele>246</ele>
        <time>2021-09-12T10:22:50.789Z</time>
      </trkpt>
      <trkpt lat="45.75028" lon="5.88183">
        <ele>246</ele>
        <time>2021-09-12T10:22:51.789Z</time>
      </trkpt>
      <trkpt lat="45.75022" lon="5.88188">
        <ele>246</ele>
        <time>2021-09-12T10:22:52.789Z</time>
      </trkpt>
      <trkpt lat="45.75016" lon="5.88192">
        <ele>246</ele>
        <time>2021-09-12T10:22:53.789Z</time>
      </trkpt>
      <trkpt lat="45.75011" lon="5.88196">
        <ele>247</ele>
        <time>2021-09-12T10:22:54.788Z</time>
      </trkpt>
      <trkpt lat="45.75007" lon="5.88199">
        <ele>247</ele>
        <time>2021-09-12T10:22:55.788Z</time>
      </trkpt>
      <trkpt lat="45.75001" lon="5.88203">
        <ele>247</ele>
        <time>2021-09-12T10:22:56.789Z</time>
      </trkpt>
      <trkpt lat="45.74995" lon="5.88208">
        <ele>248</ele>
        <time>2021-09-12T10:22:57.789Z</time>
      </trkpt>
      <trkpt lat="45.7499" lon="5.88212">
        <ele>248</ele>
        <time>2021-09-12T10:22:58.788Z</time>
      </trkpt>
      <trkpt lat="45.74986" lon="5.88215">
        <ele>249</ele>
        <time>2021-09-12T10:22:59.789Z</time>
      </trkpt>
      <trkpt lat="45.74981" lon="5.88218">
        <ele>249</ele>
        <time>2021-09-12T10:23:00.789Z</time>
      </trkpt>
      <trkpt lat="45.74976" lon="5.88222">
        <ele>249</ele>
        <time>2021-09-12T10:23:01.788Z</time>
      </trkpt>
      <trkpt lat="45.74971" lon="5.88226">
        <ele>249</ele>
        <time>2021-09-12T10:23:02.788Z</time>
      </trkpt>
      <trkpt lat="45.74966" lon="5.88231">
        <ele>249</ele>
        <time>2021-09-12T10:23:03.789Z</time>
      </trkpt>
      <trkpt lat="45.74961" lon="5.88234">
        <ele>249</ele>
        <time>2021-09-12T10:23:04.789Z</time>
      </trkpt>
      <trkpt lat="45.74957" lon="5.88237">
        <ele>248</ele>
        <time>2021-09-12T10:23:05.789Z</time>
      </trkpt>
      <trkpt lat="45.74952" lon="5.88242">
        <ele>247</ele>
        <time>2021-09-12T10:23:06.788Z</time>
      </trkpt>
      <trkpt lat="45.74947" lon="5.88246">
        <ele>247</ele>
        <time>2021-09-12T10:23:07.789Z</time>
      </trkpt>
      <trkpt lat="45.74942" lon="5.8825">
        <ele>246</ele>
        <time>2021-09-12T10:23:08.789Z</time>
      </trkpt>
      <trkpt lat="45.74937" lon="5.88254">
        <ele>246</ele>
        <time>2021-09-12T10:23:09.789Z</time>
      </trkpt>
      <trkpt lat="45.74933" lon="5.88257">
        <ele>246</ele>
        <time>2021-09-12T10:23:10.788Z</time>
      </trkpt>
      <trkpt lat="45.74927" lon="5.88262">
        <ele>245</ele>
        <time>2021-09-12T10:23:11.788Z</time>
      </trkpt>
      <trkpt lat="45.74922" lon="5.88266">
        <ele>245</ele>
        <time>2021-09-12T10:23:12.788Z</time>
      </trkpt>
      <trkpt lat="45.74917" lon="5.8827">
        <ele>245</ele>
        <time>2021-09-12T10:23:13.789Z</time>
      </trkpt>
      <trkpt lat="45.74913" lon="5.88273">
        <ele>245</ele>
        <time>2021-09-12T10:23:14.788Z</time>
      </trkpt>
      <trkpt lat="45.74907" lon="5.88278">
        <ele>245</ele>
        <time>2021-09-12T10:23:15.789Z</time>
      </trkpt>
      <trkpt lat="45.74902" lon="5.88282">
        <ele>245</ele>
        <time>2021-09-12T10:23:16.789Z</time>
      </trkpt>
      <trkpt lat="45.74897" lon="5.88286">
        <ele>246</ele>
        <time>2021-09-12T10:23:17.789Z</time>
      </trkpt>
      <trkpt lat="45.74893" lon="5.88289">
        <ele>246</ele>
        <time>2021-09-12T10:23:18.788Z</time>
      </trkpt>
      <trkpt lat="45.74887" lon="5.88294">
        <ele>247</ele>
        <time>2021-09-12T10:23:19.789Z</time>
      </trkpt>
      <trkpt lat="45.74882" lon="5.88299">
        <ele>247</ele>
        <time>2021-09-12T10:23:20.789Z</time>
      </trkpt>
      <trkpt lat="45.74876" lon="5.88303">
        <ele>247</ele>
        <time>2021-09-12T10:23:21.789Z</time>
      </trkpt>
      <trkpt lat="45.74871" lon="5.88307">
        <ele>247</ele>
        <time>2021-09-12T10:23:22.789Z</time>
      </trkpt>
      <trkpt lat="45.74867" lon="5.88311">
        <ele>247</ele>
        <time>2021-09-12T10:23:23.789Z</time>
      </trkpt>
      <trkpt lat="45.74863" lon="5.88314">
        <ele>248</ele>
        <time>2021-09-12T10:23:24.788Z</time>
      </trkpt>
      <trkpt lat="45.74857" lon="5.88319">
        <ele>249</ele>
        <time>2021-09-12T10:23:25.789Z</time>
      </trkpt>
      <trkpt lat="45.74852" lon="5.88323">
        <ele>249</ele>
        <time>2021-09-12T10:23:26.789Z</time>
      </trkpt>
      <trkpt lat="45.74847" lon="5.88327">
        <ele>250</ele>
        <time>2021-09-12T10:23:27.789Z</time>
      </trkpt>
      <trkpt lat="45.74843" lon="5.8833">
        <ele>250</ele>
        <time>2021-09-12T10:23:28.789Z</time>
      </trkpt>
      <trkpt lat="45.74837" lon="5.88336">
        <ele>251</ele>
        <time>2021-09-12T10:23:29.788Z</time>
      </trkpt>
      <trkpt lat="45.74832" lon="5.8834">
        <ele>252</ele>
        <time>2021-09-12T10:23:30.789Z</time>
      </trkpt>
      <trkpt lat="45.74827" lon="5.88345">
        <ele>252</ele>
        <time>2021-09-12T10:23:31.789Z</time>
      </trkpt>
      <trkpt lat="45.74823" lon="5.88348">
        <ele>252</ele>
        <time>2021-09-12T10:23:32.789Z</time>
      </trkpt>
      <trkpt lat="45.74818" lon="5.88352">
        <ele>252</ele>
        <time>2021-09-12T10:23:33.789Z</time>
      </trkpt>
      <trkpt lat="45.74813" lon="5.88357">
        <ele>252</ele>
        <time>2021-09-12T10:23:34.789Z</time>
      </trkpt>
      <trkpt lat="45.74808" lon="5.88362">
        <ele>253</ele>
        <time>2021-09-12T10:23:35.788Z</time>
      </trkpt>
      <trkpt lat="45.74803" lon="5.88365">
        <ele>252</ele>
        <time>2021-09-12T10:23:36.789Z</time>
      </trkpt>
      <trkpt lat="45.74799" lon="5.88368">
        <ele>252</ele>
        <time>2021-09-12T10:23:37.788Z</time>
      </trkpt>
      <trkpt lat="45.74794" lon="5.88373">
        <ele>252</ele>
        <time>2021-09-12T10:23:38.789Z</time>
      </trkpt>
      <trkpt lat="45.74789" lon="5.88378">
        <ele>251</ele>
        <time>2021-09-12T10:23:39.789Z</time>
      </trkpt>
      <trkpt lat="45.74786" lon="5.88382">
        <ele>250</ele>
        <time>2021-09-12T10:23:40.789Z</time>
      </trkpt>
      <trkpt lat="45.74781" lon="5.88384">
        <ele>250</ele>
        <time>2021-09-12T10:23:41.789Z</time>
      </trkpt>
      <trkpt lat="45.74777" lon="5.88388">
        <ele>250</ele>
        <time>2021-09-12T10:23:42.789Z</time>
      </trkpt>
      <trkpt lat="45.74773" lon="5.88391">
        <ele>250</ele>
        <time>2021-09-12T10:23:43.788Z</time>
      </trkpt>
      <trkpt lat="45.74767" lon="5.88395">
        <ele>250</ele>
        <time>2021-09-12T10:23:44.788Z</time>
      </trkpt>
      <trkpt lat="45.74763" lon="5.88398">
        <ele>250</ele>
        <time>2021-09-12T10:23:45.789Z</time>
      </trkpt>
      <trkpt lat="45.74758" lon="5.88401">
        <ele>250</ele>
        <time>2021-09-12T10:23:46.789Z</time>
      </trkpt>
      <trkpt lat="45.74753" lon="5.88404">
        <ele>250</ele>
        <time>2021-09-12T10:23:47.788Z</time>
      </trkpt>
      <trkpt lat="45.74748" lon="5.88408">
        <ele>251</ele>
        <time>2021-09-12T10:23:48.788Z</time>
      </trkpt>
      <trkpt lat="45.74743" lon="5.88411">
        <ele>251</ele>
        <time>2021-09-12T10:23:49.788Z</time>
      </trkpt>
      <trkpt lat="45.74738" lon="5.88414">
        <ele>250</ele>
        <time>2021-09-12T10:23:50.789Z</time>
      </trkpt>
      <trkpt lat="45.74733" lon="5.88417">
        <ele>251</ele>
        <time>2021-09-12T10:23:51.788Z</time>
      </trkpt>
      <trkpt lat="45.74727" lon="5.8842">
        <ele>251</ele>
        <time>2021-09-12T10:23:52.789Z</time>
      </trkpt>
      <trkpt lat="45.74722" lon="5.88422">
        <ele>251</ele>
        <time>2021-09-12T10:23:53.789Z</time>
      </trkpt>
      <trkpt lat="45.74717" lon="5.88424">
        <ele>251</ele>
        <time>2021-09-12T10:23:54.789Z</time>
      </trkpt>
      <trkpt lat="45.74712" lon="5.88426">
        <ele>251</ele>
        <time>2021-09-12T10:23:55.789Z</time>
      </trkpt>
      <trkpt lat="45.74707" lon="5.88428">
        <ele>251</ele>
        <time>2021-09-12T10:23:56.789Z</time>
      </trkpt>
      <trkpt lat="45.74702" lon="5.88431">
        <ele>251</ele>
        <time>2021-09-12T10:23:57.789Z</time>
      </trkpt>
      <trkpt lat="45.74697" lon="5.88434">
        <ele>250</ele>
        <time>2021-09-12T10:23:58.788Z</time>
      </trkpt>
      <trkpt lat="45.74692" lon="5.88438">
        <ele>250</ele>
        <time>2021-09-12T10:23:59.789Z</time>
      </trkpt>
      <trkpt lat="45.74687" lon="5.88442">
        <ele>250</ele>
        <time>2021-09-12T10:24:00.789Z</time>
      </trkpt>
      <trkpt lat="45.74682" lon="5.88446">
        <ele>250</ele>
        <time>2021-09-12T10:24:01.789Z</time>
      </trkpt>
      <trkpt lat="45.74678" lon="5.88451">
        <ele>250</ele>
        <time>2021-09-12T10:24:02.789Z</time>
      </trkpt>
      <trkpt lat="45.74673" lon="5.88456">
        <ele>249</ele>
        <time>2021-09-12T10:24:03.788Z</time>
      </trkpt>
      <trkpt lat="45.74669" lon="5.88461">
        <ele>249</ele>
        <time>2021-09-12T10:24:04.789Z</time>
      </trkpt>
      <trkpt lat="45.74665" lon="5.88466">
        <ele>248</ele>
        <time>2021-09-12T10:24:05.788Z</time>
      </trkpt>
      <trkpt lat="45.74661" lon="5.88472">
        <ele>248</ele>
        <time>2021-09-12T10:24:06.789Z</time>
      </trkpt>
      <trkpt lat="45.74656" lon="5.88477">
        <ele>247</ele>
        <time>2021-09-12T10:24:07.789Z</time>
      </trkpt>
      <trkpt lat="45.74652" lon="5.88482">
        <ele>247</ele>
        <time>2021-09-12T10:24:08.789Z</time>
      </trkpt>
      <trkpt lat="45.74647" lon="5.88487">
        <ele>246</ele>
        <time>2021-09-12T10:24:09.788Z</time>
      </trkpt>
      <trkpt lat="45.74642" lon="5.88492">
        <ele>246</ele>
        <time>2021-09-12T10:24:10.789Z</time>
      </trkpt>
      <trkpt lat="45.74637" lon="5.88496">
        <ele>246</ele>
        <time>2021-09-12T10:24:11.789Z</time>
      </trkpt>
      <trkpt lat="45.74631" lon="5.88499">
        <ele>245</ele>
        <time>2021-09-12T10:24:12.788Z</time>
      </trkpt>
      <trkpt lat="45.74625" lon="5.88501">
        <ele>245</ele>
        <time>2021-09-12T10:24:13.789Z</time>
      </trkpt>
      <trkpt lat="45.74619" lon="5.88503">
        <ele>244</ele>
        <time>2021-09-12T10:24:14.789Z</time>
      </trkpt>
      <trkpt lat="45.74614" lon="5.88504">
        <ele>243</ele>
        <time>2021-09-12T10:24:15.789Z</time>
      </trkpt>
      <trkpt lat="45.74608" lon="5.88506">
        <ele>242</ele>
        <time>2021-09-12T10:24:16.789Z</time>
      </trkpt>
      <trkpt lat="45.74603" lon="5.88508">
        <ele>242</ele>
        <time>2021-09-12T10:24:17.789Z</time>
      </trkpt>
      <trkpt lat="45.74597" lon="5.88512">
        <ele>242</ele>
        <time>2021-09-12T10:24:18.789Z</time>
      </trkpt>
      <trkpt lat="45.74593" lon="5.88516">
        <ele>241</ele>
        <time>2021-09-12T10:24:19.788Z</time>
      </trkpt>
      <trkpt lat="45.74588" lon="5.88521">
        <ele>241</ele>
        <time>2021-09-12T10:24:20.788Z</time>
      </trkpt>
      <trkpt lat="45.74583" lon="5.88526">
        <ele>241</ele>
        <time>2021-09-12T10:24:21.789Z</time>
      </trkpt>
      <trkpt lat="45.74578" lon="5.8853">
        <ele>240</ele>
        <time>2021-09-12T10:24:22.789Z</time>
      </trkpt>
      <trkpt lat="45.74573" lon="5.88534">
        <ele>240</ele>
        <time>2021-09-12T10:24:23.789Z</time>
      </trkpt>
      <trkpt lat="45.74568" lon="5.88536">
        <ele>239</ele>
        <time>2021-09-12T10:24:24.789Z</time>
      </trkpt>
      <trkpt lat="45.74563" lon="5.88539">
        <ele>239</ele>
        <time>2021-09-12T10:24:25.789Z</time>
      </trkpt>
      <trkpt lat="45.74558" lon="5.88542">
        <ele>240</ele>
        <time>2021-09-12T10:24:26.789Z</time>
      </trkpt>
      <trkpt lat="45.74552" lon="5.88546">
        <ele>240</ele>
        <time>2021-09-12T10:24:27.789Z</time>
      </trkpt>
      <trkpt lat="45.74547" lon="5.8855">
        <ele>240</ele>
        <time>2021-09-12T10:24:28.789Z</time>
      </trkpt>
      <trkpt lat="45.74542" lon="5.88554">
        <ele>240</ele>
        <time>2021-09-12T10:24:29.789Z</time>
      </trkpt>
      <trkpt lat="45.74537" lon="5.88558">
        <ele>240</ele>
        <time>2021-09-12T10:24:30.788Z</time>
      </trkpt>
      <trkpt lat="45.74532" lon="5.88563">
        <ele>240</ele>
        <time>2021-09-12T10:24:31.789Z</time>
      </trkpt>
      <trkpt lat="45.74528" lon="5.88567">
        <ele>240</ele>
        <time>2021-09-12T10:24:32.789Z</time>
      </trkpt>
      <trkpt lat="45.74523" lon="5.88572">
        <ele>240</ele>
        <time>2021-09-12T10:24:33.789Z</time>
      </trkpt>
      <trkpt lat="45.74519" lon="5.88577">
        <ele>240</ele>
        <time>2021-09-12T10:24:34.788Z</time>
      </trkpt>
      <trkpt lat="45.74514" lon="5.88583">
        <ele>239</ele>
        <time>2021-09-12T10:24:35.789Z</time>
      </trkpt>
      <trkpt lat="45.7451" lon="5.88588">
        <ele>239</ele>
        <time>2021-09-12T10:24:36.789Z</time>
      </trkpt>
      <trkpt lat="45.74506" lon="5.88593">
        <ele>238</ele>
        <time>2021-09-12T10:24:37.789Z</time>
      </trkpt>
      <trkpt lat="45.74501" lon="5.88598">
        <ele>238</ele>
        <time>2021-09-12T10:24:38.789Z</time>
      </trkpt>
      <trkpt lat="45.74498" lon="5.88602">
        <ele>237</ele>
        <time>2021-09-12T10:24:39.789Z</time>
      </trkpt>
      <trkpt lat="45.74493" lon="5.88608">
        <ele>237</ele>
        <time>2021-09-12T10:24:40.789Z</time>
      </trkpt>
      <trkpt lat="45.74488" lon="5.88613">
        <ele>237</ele>
        <time>2021-09-12T10:24:41.788Z</time>
      </trkpt>
      <trkpt lat="45.74484" lon="5.88619">
        <ele>237</ele>
        <time>2021-09-12T10:24:42.789Z</time>
      </trkpt>
      <trkpt lat="45.7448" lon="5.88624">
        <ele>236</ele>
        <time>2021-09-12T10:24:43.789Z</time>
      </trkpt>
      <trkpt lat="45.74477" lon="5.88629">
        <ele>236</ele>
        <time>2021-09-12T10:24:44.789Z</time>
      </trkpt>
      <trkpt lat="45.74473" lon="5.88636">
        <ele>236</ele>
        <time>2021-09-12T10:24:45.789Z</time>
      </trkpt>
      <trkpt lat="45.7447" lon="5.88643">
        <ele>236</ele>
        <time>2021-09-12T10:24:46.789Z</time>
      </trkpt>
      <trkpt lat="45.74466" lon="5.88649">
        <ele>237</ele>
        <time>2021-09-12T10:24:47.789Z</time>
      </trkpt>
      <trkpt lat="45.74462" lon="5.88655">
        <ele>237</ele>
        <time>2021-09-12T10:24:48.789Z</time>
      </trkpt>
      <trkpt lat="45.74458" lon="5.8866">
        <ele>237</ele>
        <time>2021-09-12T10:24:49.789Z</time>
      </trkpt>
      <trkpt lat="45.74454" lon="5.88664">
        <ele>237</ele>
        <time>2021-09-12T10:24:50.789Z</time>
      </trkpt>
      <trkpt lat="45.74449" lon="5.88669">
        <ele>237</ele>
        <time>2021-09-12T10:24:51.789Z</time>
      </trkpt>
      <trkpt lat="45.74444" lon="5.88674">
        <ele>238</ele>
        <time>2021-09-12T10:24:52.788Z</time>
      </trkpt>
      <trkpt lat="45.7444" lon="5.88679">
        <ele>237</ele>
        <time>2021-09-12T10:24:53.789Z</time>
      </trkpt>
      <trkpt lat="45.74436" lon="5.88685">
        <ele>237</ele>
        <time>2021-09-12T10:24:54.788Z</time>
      </trkpt>
      <trkpt lat="45.74434" lon="5.8869">
        <ele>237</ele>
        <time>2021-09-12T10:24:55.789Z</time>
      </trkpt>
      <trkpt lat="45.74429" lon="5.88697">
        <ele>236</ele>
        <time>2021-09-12T10:24:56.789Z</time>
      </trkpt>
      <trkpt lat="45.74425" lon="5.88704">
        <ele>236</ele>
        <time>2021-09-12T10:24:57.788Z</time>
      </trkpt>
      <trkpt lat="45.74421" lon="5.8871">
        <ele>236</ele>
        <time>2021-09-12T10:24:58.788Z</time>
      </trkpt>
      <trkpt lat="45.74418" lon="5.88714">
        <ele>235</ele>
        <time>2021-09-12T10:24:59.788Z</time>
      </trkpt>
      <trkpt lat="45.74413" lon="5.88719">
        <ele>235</ele>
        <time>2021-09-12T10:25:00.789Z</time>
      </trkpt>
      <trkpt lat="45.74408" lon="5.88724">
        <ele>235</ele>
        <time>2021-09-12T10:25:01.789Z</time>
      </trkpt>
      <trkpt lat="45.74402" lon="5.88729">
        <ele>235</ele>
        <time>2021-09-12T10:25:02.788Z</time>
      </trkpt>
      <trkpt lat="45.74397" lon="5.88732">
        <ele>235</ele>
        <time>2021-09-12T10:25:03.788Z</time>
      </trkpt>
      <trkpt lat="45.74392" lon="5.88736">
        <ele>235</ele>
        <time>2021-09-12T10:25:04.789Z</time>
      </trkpt>
      <trkpt lat="45.74386" lon="5.88741">
        <ele>235</ele>
        <time>2021-09-12T10:25:05.789Z</time>
      </trkpt>
      <trkpt lat="45.74381" lon="5.88745">
        <ele>235</ele>
        <time>2021-09-12T10:25:06.788Z</time>
      </trkpt>
      <trkpt lat="45.74376" lon="5.8875">
        <ele>234</ele>
        <time>2021-09-12T10:25:07.789Z</time>
      </trkpt>
      <trkpt lat="45.74372" lon="5.88754">
        <ele>234</ele>
        <time>2021-09-12T10:25:08.789Z</time>
      </trkpt>
      <trkpt lat="45.74368" lon="5.8876">
        <ele>234</ele>
        <time>2021-09-12T10:25:09.789Z</time>
      </trkpt>
      <trkpt lat="45.74363" lon="5.88768">
        <ele>234</ele>
        <time>2021-09-12T10:25:10.788Z</time>
      </trkpt>
      <trkpt lat="45.74359" lon="5.88775">
        <ele>234</ele>
        <time>2021-09-12T10:25:11.789Z</time>
      </trkpt>
      <trkpt lat="45.74355" lon="5.88782">
        <ele>234</ele>
        <time>2021-09-12T10:25:12.789Z</time>
      </trkpt>
      <trkpt lat="45.74352" lon="5.88788">
        <ele>234</ele>
        <time>2021-09-12T10:25:13.789Z</time>
      </trkpt>
      <trkpt lat="45.74348" lon="5.88796">
        <ele>234</ele>
        <time>2021-09-12T10:25:14.788Z</time>
      </trkpt>
      <trkpt lat="45.74343" lon="5.88805">
        <ele>235</ele>
        <time>2021-09-12T10:25:15.789Z</time>
      </trkpt>
      <trkpt lat="45.74339" lon="5.88812">
        <ele>235</ele>
        <time>2021-09-12T10:25:16.789Z</time>
      </trkpt>
      <trkpt lat="45.74335" lon="5.8882">
        <ele>236</ele>
        <time>2021-09-12T10:25:17.789Z</time>
      </trkpt>
      <trkpt lat="45.74332" lon="5.88825">
        <ele>236</ele>
        <time>2021-09-12T10:25:18.788Z</time>
      </trkpt>
      <trkpt lat="45.74327" lon="5.88834">
        <ele>237</ele>
        <time>2021-09-12T10:25:19.788Z</time>
      </trkpt>
      <trkpt lat="45.74322" lon="5.8884">
        <ele>237</ele>
        <time>2021-09-12T10:25:20.788Z</time>
      </trkpt>
      <trkpt lat="45.74317" lon="5.88846">
        <ele>237</ele>
        <time>2021-09-12T10:25:21.789Z</time>
      </trkpt>
      <trkpt lat="45.74312" lon="5.88852">
        <ele>237</ele>
        <time>2021-09-12T10:25:22.789Z</time>
      </trkpt>
      <trkpt lat="45.74308" lon="5.88856">
        <ele>237</ele>
        <time>2021-09-12T10:25:23.789Z</time>
      </trkpt>
      <trkpt lat="45.74301" lon="5.88861">
        <ele>237</ele>
        <time>2021-09-12T10:25:24.789Z</time>
      </trkpt>
      <trkpt lat="45.74296" lon="5.88866">
        <ele>237</ele>
        <time>2021-09-12T10:25:25.788Z</time>
      </trkpt>
      <trkpt lat="45.74291" lon="5.88871">
        <ele>237</ele>
        <time>2021-09-12T10:25:26.788Z</time>
      </trkpt>
      <trkpt lat="45.74286" lon="5.88874">
        <ele>237</ele>
        <time>2021-09-12T10:25:27.789Z</time>
      </trkpt>
      <trkpt lat="45.74281" lon="5.88877">
        <ele>237</ele>
        <time>2021-09-12T10:25:28.789Z</time>
      </trkpt>
      <trkpt lat="45.74275" lon="5.8888">
        <ele>237</ele>
        <time>2021-09-12T10:25:29.789Z</time>
      </trkpt>
      <trkpt lat="45.74269" lon="5.88883">
        <ele>237</ele>
        <time>2021-09-12T10:25:30.788Z</time>
      </trkpt>
      <trkpt lat="45.74262" lon="5.88887">
        <ele>237</ele>
        <time>2021-09-12T10:25:31.788Z</time>
      </trkpt>
      <trkpt lat="45.74258" lon="5.88889">
        <ele>237</ele>
        <time>2021-09-12T10:25:32.788Z</time>
      </trkpt>
      <trkpt lat="45.74252" lon="5.88892">
        <ele>238</ele>
        <time>2021-09-12T10:25:33.789Z</time>
      </trkpt>
      <trkpt lat="45.74246" lon="5.88896">
        <ele>238</ele>
        <time>2021-09-12T10:25:34.788Z</time>
      </trkpt>
      <trkpt lat="45.7424" lon="5.889">
        <ele>238</ele>
        <time>2021-09-12T10:25:35.789Z</time>
      </trkpt>
      <trkpt lat="45.74235" lon="5.88903">
        <ele>238</ele>
        <time>2021-09-12T10:25:36.789Z</time>
      </trkpt>
      <trkpt lat="45.74231" lon="5.88906">
        <ele>238</ele>
        <time>2021-09-12T10:25:37.789Z</time>
      </trkpt>
      <trkpt lat="45.74226" lon="5.8891">
        <ele>238</ele>
        <time>2021-09-12T10:25:38.789Z</time>
      </trkpt>
      <trkpt lat="45.7422" lon="5.88915">
        <ele>238</ele>
        <time>2021-09-12T10:25:39.788Z</time>
      </trkpt>
      <trkpt lat="45.74215" lon="5.88919">
        <ele>238</ele>
        <time>2021-09-12T10:25:40.788Z</time>
      </trkpt>
      <trkpt lat="45.7421" lon="5.88923">
        <ele>238</ele>
        <time>2021-09-12T10:25:41.788Z</time>
      </trkpt>
      <trkpt lat="45.74207" lon="5.88927">
        <ele>238</ele>
        <time>2021-09-12T10:25:42.789Z</time>
      </trkpt>
      <trkpt lat="45.74202" lon="5.88932">
        <ele>238</ele>
        <time>2021-09-12T10:25:43.789Z</time>
      </trkpt>
      <trkpt lat="45.74196" lon="5.88938">
        <ele>238</ele>
        <time>2021-09-12T10:25:44.789Z</time>
      </trkpt>
      <trkpt lat="45.74191" lon="5.88943">
        <ele>238</ele>
        <time>2021-09-12T10:25:45.789Z</time>
      </trkpt>
      <trkpt lat="45.74186" lon="5.88948">
        <ele>238</ele>
        <time>2021-09-12T10:25:46.788Z</time>
      </trkpt>
      <trkpt lat="45.74182" lon="5.88952">
        <ele>239</ele>
        <time>2021-09-12T10:25:47.789Z</time>
      </trkpt>
      <trkpt lat="45.74176" lon="5.88956">
        <ele>239</ele>
        <time>2021-09-12T10:25:48.788Z</time>
      </trkpt>
      <trkpt lat="45.74169" lon="5.88961">
        <ele>239</ele>
        <time>2021-09-12T10:25:49.789Z</time>
      </trkpt>
      <trkpt lat="45.74165" lon="5.88964">
        <ele>239</ele>
        <time>2021-09-12T10:25:50.788Z</time>
      </trkpt>
      <trkpt lat="45.74158" lon="5.88969">
        <ele>239</ele>
        <time>2021-09-12T10:25:51.789Z</time>
      </trkpt>
      <trkpt lat="45.74153" lon="5.88972">
        <ele>239</ele>
        <time>2021-09-12T10:25:52.788Z</time>
      </trkpt>
      <trkpt lat="45.74148" lon="5.88976">
        <ele>239</ele>
        <time>2021-09-12T10:25:53.788Z</time>
      </trkpt>
      <trkpt lat="45.74141" lon="5.88981">
        <ele>239</ele>
        <time>2021-09-12T10:25:54.788Z</time>
      </trkpt>
      <trkpt lat="45.74137" lon="5.88984">
        <ele>240</ele>
        <time>2021-09-12T10:25:55.788Z</time>
      </trkpt>
      <trkpt lat="45.74131" lon="5.88988">
        <ele>240</ele>
        <time>2021-09-12T10:25:56.789Z</time>
      </trkpt>
      <trkpt lat="45.74126" lon="5.88993">
        <ele>240</ele>
        <time>2021-09-12T10:25:57.789Z</time>
      </trkpt>
      <trkpt lat="45.74121" lon="5.88998">
        <ele>240</ele>
        <time>2021-09-12T10:25:58.788Z</time>
      </trkpt>
      <trkpt lat="45.74115" lon="5.89003">
        <ele>240</ele>
        <time>2021-09-12T10:25:59.789Z</time>
      </trkpt>
      <trkpt lat="45.74111" lon="5.89008">
        <ele>240</ele>
        <time>2021-09-12T10:26:00.789Z</time>
      </trkpt>
      <trkpt lat="45.74107" lon="5.89012">
        <ele>240</ele>
        <time>2021-09-12T10:26:01.789Z</time>
      </trkpt>
      <trkpt lat="45.74102" lon="5.89018">
        <ele>239</ele>
        <time>2021-09-12T10:26:02.789Z</time>
      </trkpt>
      <trkpt lat="45.74098" lon="5.89022">
        <ele>239</ele>
        <time>2021-09-12T10:26:03.789Z</time>
      </trkpt>
      <trkpt lat="45.74093" lon="5.89027">
        <ele>239</ele>
        <time>2021-09-12T10:26:04.789Z</time>
      </trkpt>
      <trkpt lat="45.74089" lon="5.89032">
        <ele>239</ele>
        <time>2021-09-12T10:26:05.788Z</time>
      </trkpt>
      <trkpt lat="45.74084" lon="5.89037">
        <ele>238</ele>
        <time>2021-09-12T10:26:06.789Z</time>
      </trkpt>
      <trkpt lat="45.74057" lon="5.89068">
        <ele>238</ele>
        <time>2021-09-12T10:26:15.789Z</time>
      </trkpt>
      <trkpt lat="45.74054" lon="5.8907">
        <ele>239</ele>
        <time>2021-09-12T10:26:16.788Z</time>
      </trkpt>
      <trkpt lat="45.7405" lon="5.89074">
        <ele>239</ele>
        <time>2021-09-12T10:26:17.789Z</time>
      </trkpt>
      <trkpt lat="45.74046" lon="5.89078">
        <ele>239</ele>
        <time>2021-09-12T10:26:18.789Z</time>
      </trkpt>
      <trkpt lat="45.74042" lon="5.89083">
        <ele>239</ele>
        <time>2021-09-12T10:26:19.789Z</time>
      </trkpt>
      <trkpt lat="45.74038" lon="5.89087">
        <ele>240</ele>
        <time>2021-09-12T10:26:20.789Z</time>
      </trkpt>
      <trkpt lat="45.74033" lon="5.89091">
        <ele>240</ele>
        <time>2021-09-12T10:26:21.788Z</time>
      </trkpt>
      <trkpt lat="45.74029" lon="5.89094">
        <ele>240</ele>
        <time>2021-09-12T10:26:22.789Z</time>
      </trkpt>
      <trkpt lat="45.74026" lon="5.89097">
        <ele>241</ele>
        <time>2021-09-12T10:26:23.788Z</time>
      </trkpt>
      <trkpt lat="45.74022" lon="5.89101">
        <ele>241</ele>
        <time>2021-09-12T10:26:24.788Z</time>
      </trkpt>
      <trkpt lat="45.74019" lon="5.89104">
        <ele>242</ele>
        <time>2021-09-12T10:26:25.789Z</time>
      </trkpt>
      <trkpt lat="45.74015" lon="5.89108">
        <ele>243</ele>
        <time>2021-09-12T10:26:26.789Z</time>
      </trkpt>
      <trkpt lat="45.74011" lon="5.89112">
        <ele>244</ele>
        <time>2021-09-12T10:26:27.788Z</time>
      </trkpt>
      <trkpt lat="45.74007" lon="5.89116">
        <ele>244</ele>
        <time>2021-09-12T10:26:28.788Z</time>
      </trkpt>
      <trkpt lat="45.74005" lon="5.89118">
        <ele>245</ele>
        <time>2021-09-12T10:26:29.789Z</time>
      </trkpt>
      <trkpt lat="45.74" lon="5.89121">
        <ele>245</ele>
        <time>2021-09-12T10:26:30.789Z</time>
      </trkpt>
      <trkpt lat="45.73997" lon="5.89123">
        <ele>245</ele>
        <time>2021-09-12T10:26:31.789Z</time>
      </trkpt>
      <trkpt lat="45.73992" lon="5.89126">
        <ele>245</ele>
        <time>2021-09-12T10:26:32.789Z</time>
      </trkpt>
      <trkpt lat="45.73988" lon="5.89129">
        <ele>246</ele>
        <time>2021-09-12T10:26:33.789Z</time>
      </trkpt>
      <trkpt lat="45.73984" lon="5.89131">
        <ele>246</ele>
        <time>2021-09-12T10:26:34.789Z</time>
      </trkpt>
      <trkpt lat="45.73981" lon="5.89133">
        <ele>247</ele>
        <time>2021-09-12T10:26:35.789Z</time>
      </trkpt>
      <trkpt lat="45.73976" lon="5.89136">
        <ele>247</ele>
        <time>2021-09-12T10:26:36.789Z</time>
      </trkpt>
      <trkpt lat="45.73973" lon="5.89138">
        <ele>248</ele>
        <time>2021-09-12T10:26:37.789Z</time>
      </trkpt>
      <trkpt lat="45.73969" lon="5.8914">
        <ele>248</ele>
        <time>2021-09-12T10:26:38.788Z</time>
      </trkpt>
      <trkpt lat="45.73966" lon="5.89142">
        <ele>248</ele>
        <time>2021-09-12T10:26:39.788Z</time>
      </trkpt>
      <trkpt lat="45.73962" lon="5.89145">
        <ele>248</ele>
        <time>2021-09-12T10:26:40.789Z</time>
      </trkpt>
      <trkpt lat="45.73958" lon="5.89149">
        <ele>248</ele>
        <time>2021-09-12T10:26:41.789Z</time>
      </trkpt>
      <trkpt lat="45.73956" lon="5.89152">
        <ele>248</ele>
        <time>2021-09-12T10:26:42.789Z</time>
      </trkpt>
      <trkpt lat="45.73953" lon="5.89156">
        <ele>249</ele>
        <time>2021-09-12T10:26:43.789Z</time>
      </trkpt>
      <trkpt lat="45.73949" lon="5.8916">
        <ele>249</ele>
        <time>2021-09-12T10:26:44.789Z</time>
      </trkpt>
      <trkpt lat="45.73946" lon="5.89164">
        <ele>249</ele>
        <time>2021-09-12T10:26:45.788Z</time>
      </trkpt>
      <trkpt lat="45.73942" lon="5.89168">
        <ele>249</ele>
        <time>2021-09-12T10:26:46.789Z</time>
      </trkpt>
      <trkpt lat="45.73938" lon="5.89173">
        <ele>248</ele>
        <time>2021-09-12T10:26:47.788Z</time>
      </trkpt>
      <trkpt lat="45.73936" lon="5.89176">
        <ele>248</ele>
        <time>2021-09-12T10:26:48.789Z</time>
      </trkpt>
      <trkpt lat="45.73932" lon="5.8918">
        <ele>247</ele>
        <time>2021-09-12T10:26:49.789Z</time>
      </trkpt>
      <trkpt lat="45.73928" lon="5.89184">
        <ele>247</ele>
        <time>2021-09-12T10:26:50.788Z</time>
      </trkpt>
      <trkpt lat="45.73924" lon="5.89187">
        <ele>247</ele>
        <time>2021-09-12T10:26:51.788Z</time>
      </trkpt>
      <trkpt lat="45.73919" lon="5.89191">
        <ele>246</ele>
        <time>2021-09-12T10:26:52.789Z</time>
      </trkpt>
      <trkpt lat="45.73915" lon="5.89193">
        <ele>246</ele>
        <time>2021-09-12T10:26:53.789Z</time>
      </trkpt>
      <trkpt lat="45.7391" lon="5.89196">
        <ele>246</ele>
        <time>2021-09-12T10:26:54.789Z</time>
      </trkpt>
      <trkpt lat="45.73903" lon="5.89199">
        <ele>247</ele>
        <time>2021-09-12T10:26:55.788Z</time>
      </trkpt>
      <trkpt lat="45.73899" lon="5.89201">
        <ele>247</ele>
        <time>2021-09-12T10:26:56.789Z</time>
      </trkpt>
      <trkpt lat="45.73893" lon="5.89204">
        <ele>247</ele>
        <time>2021-09-12T10:26:57.789Z</time>
      </trkpt>
      <trkpt lat="45.73888" lon="5.89206">
        <ele>247</ele>
        <time>2021-09-12T10:26:58.789Z</time>
      </trkpt>
      <trkpt lat="45.73882" lon="5.89209">
        <ele>246</ele>
        <time>2021-09-12T10:26:59.789Z</time>
      </trkpt>
      <trkpt lat="45.73876" lon="5.89212">
        <ele>246</ele>
        <time>2021-09-12T10:27:00.788Z</time>
      </trkpt>
      <trkpt lat="45.7387" lon="5.89215">
        <ele>245</ele>
        <time>2021-09-12T10:27:01.789Z</time>
      </trkpt>
      <trkpt lat="45.73862" lon="5.89219">
        <ele>245</ele>
        <time>2021-09-12T10:27:02.789Z</time>
      </trkpt>
      <trkpt lat="45.73857" lon="5.89221">
        <ele>244</ele>
        <time>2021-09-12T10:27:03.789Z</time>
      </trkpt>
      <trkpt lat="45.73851" lon="5.89224">
        <ele>244</ele>
        <time>2021-09-12T10:27:04.789Z</time>
      </trkpt>
      <trkpt lat="45.73844" lon="5.89227">
        <ele>243</ele>
        <time>2021-09-12T10:27:05.789Z</time>
      </trkpt>
      <trkpt lat="45.73836" lon="5.89231">
        <ele>243</ele>
        <time>2021-09-12T10:27:06.789Z</time>
      </trkpt>
      <trkpt lat="45.73831" lon="5.89234">
        <ele>243</ele>
        <time>2021-09-12T10:27:07.789Z</time>
      </trkpt>
      <trkpt lat="45.73824" lon="5.89237">
        <ele>242</ele>
        <time>2021-09-12T10:27:08.788Z</time>
      </trkpt>
      <trkpt lat="45.73818" lon="5.8924">
        <ele>242</ele>
        <time>2021-09-12T10:27:09.789Z</time>
      </trkpt>
      <trkpt lat="45.73811" lon="5.89243">
        <ele>241</ele>
        <time>2021-09-12T10:27:10.789Z</time>
      </trkpt>
      <trkpt lat="45.73804" lon="5.89247">
        <ele>241</ele>
        <time>2021-09-12T10:27:11.789Z</time>
      </trkpt>
      <trkpt lat="45.73797" lon="5.8925">
        <ele>242</ele>
        <time>2021-09-12T10:27:12.789Z</time>
      </trkpt>
      <trkpt lat="45.7379" lon="5.89253">
        <ele>242</ele>
        <time>2021-09-12T10:27:13.789Z</time>
      </trkpt>
      <trkpt lat="45.73783" lon="5.89257">
        <ele>242</ele>
        <time>2021-09-12T10:27:14.789Z</time>
      </trkpt>
      <trkpt lat="45.73776" lon="5.8926">
        <ele>241</ele>
        <time>2021-09-12T10:27:15.789Z</time>
      </trkpt>
      <trkpt lat="45.73769" lon="5.89263">
        <ele>241</ele>
        <time>2021-09-12T10:27:16.789Z</time>
      </trkpt>
      <trkpt lat="45.73761" lon="5.89266">
        <ele>241</ele>
        <time>2021-09-12T10:27:17.789Z</time>
      </trkpt>
      <trkpt lat="45.73754" lon="5.89268">
        <ele>241</ele>
        <time>2021-09-12T10:27:18.789Z</time>
      </trkpt>
      <trkpt lat="45.73746" lon="5.89271">
        <ele>241</ele>
        <time>2021-09-12T10:27:19.789Z</time>
      </trkpt>
      <trkpt lat="45.73739" lon="5.89273">
        <ele>241</ele>
        <time>2021-09-12T10:27:20.789Z</time>
      </trkpt>
      <trkpt lat="45.73731" lon="5.89275">
        <ele>241</ele>
        <time>2021-09-12T10:27:21.789Z</time>
      </trkpt>
      <trkpt lat="45.73724" lon="5.89278">
        <ele>241</ele>
        <time>2021-09-12T10:27:22.789Z</time>
      </trkpt>
      <trkpt lat="45.73716" lon="5.8928">
        <ele>241</ele>
        <time>2021-09-12T10:27:23.788Z</time>
      </trkpt>
      <trkpt lat="45.73709" lon="5.89283">
        <ele>241</ele>
        <time>2021-09-12T10:27:24.789Z</time>
      </trkpt>
      <trkpt lat="45.73701" lon="5.89285">
        <ele>240</ele>
        <time>2021-09-12T10:27:25.789Z</time>
      </trkpt>
      <trkpt lat="45.73694" lon="5.89287">
        <ele>239</ele>
        <time>2021-09-12T10:27:26.789Z</time>
      </trkpt>
      <trkpt lat="45.73686" lon="5.89289">
        <ele>238</ele>
        <time>2021-09-12T10:27:27.789Z</time>
      </trkpt>
      <trkpt lat="45.73678" lon="5.89291">
        <ele>237</ele>
        <time>2021-09-12T10:27:28.789Z</time>
      </trkpt>
      <trkpt lat="45.73669" lon="5.89293">
        <ele>237</ele>
        <time>2021-09-12T10:27:29.789Z</time>
      </trkpt>
      <trkpt lat="45.73661" lon="5.89295">
        <ele>237</ele>
        <time>2021-09-12T10:27:30.788Z</time>
      </trkpt>
      <trkpt lat="45.73654" lon="5.89296">
        <ele>237</ele>
        <time>2021-09-12T10:27:31.789Z</time>
      </trkpt>
      <trkpt lat="45.73648" lon="5.89297">
        <ele>236</ele>
        <time>2021-09-12T10:27:32.789Z</time>
      </trkpt>
      <trkpt lat="45.7364" lon="5.89297">
        <ele>236</ele>
        <time>2021-09-12T10:27:33.789Z</time>
      </trkpt>
      <trkpt lat="45.73633" lon="5.89296">
        <ele>235</ele>
        <time>2021-09-12T10:27:34.789Z</time>
      </trkpt>
      <trkpt lat="45.73626" lon="5.89295">
        <ele>235</ele>
        <time>2021-09-12T10:27:35.789Z</time>
      </trkpt>
      <trkpt lat="45.73618" lon="5.89294">
        <ele>235</ele>
        <time>2021-09-12T10:27:36.789Z</time>
      </trkpt>
      <trkpt lat="45.73611" lon="5.89292">
        <ele>235</ele>
        <time>2021-09-12T10:27:37.788Z</time>
      </trkpt>
      <trkpt lat="45.73604" lon="5.8929">
        <ele>234</ele>
        <time>2021-09-12T10:27:38.789Z</time>
      </trkpt>
      <trkpt lat="45.73597" lon="5.89287">
        <ele>234</ele>
        <time>2021-09-12T10:27:39.788Z</time>
      </trkpt>
      <trkpt lat="45.7359" lon="5.89284">
        <ele>233</ele>
        <time>2021-09-12T10:27:40.789Z</time>
      </trkpt>
      <trkpt lat="45.73583" lon="5.8928">
        <ele>234</ele>
        <time>2021-09-12T10:27:41.789Z</time>
      </trkpt>
      <trkpt lat="45.73577" lon="5.89277">
        <ele>234</ele>
        <time>2021-09-12T10:27:42.789Z</time>
      </trkpt>
      <trkpt lat="45.73571" lon="5.89273">
        <ele>234</ele>
        <time>2021-09-12T10:27:43.788Z</time>
      </trkpt>
      <trkpt lat="45.73565" lon="5.89268">
        <ele>234</ele>
        <time>2021-09-12T10:27:44.788Z</time>
      </trkpt>
      <trkpt lat="45.73559" lon="5.89263">
        <ele>234</ele>
        <time>2021-09-12T10:27:45.788Z</time>
      </trkpt>
      <trkpt lat="45.73554" lon="5.89257">
        <ele>234</ele>
        <time>2021-09-12T10:27:46.788Z</time>
      </trkpt>
      <trkpt lat="45.73549" lon="5.8925">
        <ele>234</ele>
        <time>2021-09-12T10:27:47.789Z</time>
      </trkpt>
      <trkpt lat="45.73543" lon="5.89244">
        <ele>235</ele>
        <time>2021-09-12T10:27:48.789Z</time>
      </trkpt>
      <trkpt lat="45.73538" lon="5.89237">
        <ele>235</ele>
        <time>2021-09-12T10:27:49.789Z</time>
      </trkpt>
      <trkpt lat="45.73534" lon="5.8923">
        <ele>235</ele>
        <time>2021-09-12T10:27:50.789Z</time>
      </trkpt>
      <trkpt lat="45.73529" lon="5.89223">
        <ele>235</ele>
        <time>2021-09-12T10:27:51.789Z</time>
      </trkpt>
      <trkpt lat="45.73524" lon="5.89216">
        <ele>235</ele>
        <time>2021-09-12T10:27:52.789Z</time>
      </trkpt>
      <trkpt lat="45.7352" lon="5.89209">
        <ele>235</ele>
        <time>2021-09-12T10:27:53.788Z</time>
      </trkpt>
      <trkpt lat="45.73515" lon="5.89203">
        <ele>235</ele>
        <time>2021-09-12T10:27:54.789Z</time>
      </trkpt>
      <trkpt lat="45.73511" lon="5.89196">
        <ele>236</ele>
        <time>2021-09-12T10:27:55.789Z</time>
      </trkpt>
      <trkpt lat="45.73505" lon="5.89187">
        <ele>236</ele>
        <time>2021-09-12T10:27:56.789Z</time>
      </trkpt>
      <trkpt lat="45.73502" lon="5.89182">
        <ele>235</ele>
        <time>2021-09-12T10:27:57.789Z</time>
      </trkpt>
      <trkpt lat="45.73497" lon="5.89176">
        <ele>235</ele>
        <time>2021-09-12T10:27:58.789Z</time>
      </trkpt>
      <trkpt lat="45.73493" lon="5.89169">
        <ele>235</ele>
        <time>2021-09-12T10:27:59.789Z</time>
      </trkpt>
      <trkpt lat="45.73489" lon="5.89163">
        <ele>235</ele>
        <time>2021-09-12T10:28:00.789Z</time>
      </trkpt>
      <trkpt lat="45.73484" lon="5.89156">
        <ele>235</ele>
        <time>2021-09-12T10:28:01.789Z</time>
      </trkpt>
      <trkpt lat="45.73481" lon="5.89152">
        <ele>235</ele>
        <time>2021-09-12T10:28:02.789Z</time>
      </trkpt>
      <trkpt lat="45.73477" lon="5.89147">
        <ele>235</ele>
        <time>2021-09-12T10:28:03.789Z</time>
      </trkpt>
      <trkpt lat="45.73473" lon="5.89142">
        <ele>236</ele>
        <time>2021-09-12T10:28:04.788Z</time>
      </trkpt>
      <trkpt lat="45.7347" lon="5.89137">
        <ele>236</ele>
        <time>2021-09-12T10:28:05.789Z</time>
      </trkpt>
      <trkpt lat="45.73466" lon="5.89132">
        <ele>236</ele>
        <time>2021-09-12T10:28:06.789Z</time>
      </trkpt>
      <trkpt lat="45.73463" lon="5.89128">
        <ele>236</ele>
        <time>2021-09-12T10:28:07.789Z</time>
      </trkpt>
      <trkpt lat="45.73459" lon="5.89123">
        <ele>236</ele>
        <time>2021-09-12T10:28:08.789Z</time>
      </trkpt>
      <trkpt lat="45.73455" lon="5.89119">
        <ele>236</ele>
        <time>2021-09-12T10:28:09.789Z</time>
      </trkpt>
      <trkpt lat="45.7345" lon="5.89115">
        <ele>236</ele>
        <time>2021-09-12T10:28:10.789Z</time>
      </trkpt>
      <trkpt lat="45.73446" lon="5.89111">
        <ele>236</ele>
        <time>2021-09-12T10:28:11.789Z</time>
      </trkpt>
      <trkpt lat="45.73442" lon="5.89107">
        <ele>236</ele>
        <time>2021-09-12T10:28:12.789Z</time>
      </trkpt>
      <trkpt lat="45.73438" lon="5.89103">
        <ele>236</ele>
        <time>2021-09-12T10:28:13.789Z</time>
      </trkpt>
      <trkpt lat="45.73434" lon="5.89099">
        <ele>236</ele>
        <time>2021-09-12T10:28:14.789Z</time>
      </trkpt>
      <trkpt lat="45.7343" lon="5.89095">
        <ele>236</ele>
        <time>2021-09-12T10:28:15.788Z</time>
      </trkpt>
      <trkpt lat="45.73426" lon="5.89091">
        <ele>237</ele>
        <time>2021-09-12T10:28:16.789Z</time>
      </trkpt>
      <trkpt lat="45.73422" lon="5.89087">
        <ele>237</ele>
        <time>2021-09-12T10:28:17.789Z</time>
      </trkpt>
      <trkpt lat="45.73418" lon="5.89083">
        <ele>237</ele>
        <time>2021-09-12T10:28:18.789Z</time>
      </trkpt>
      <trkpt lat="45.73414" lon="5.8908">
        <ele>237</ele>
        <time>2021-09-12T10:28:19.789Z</time>
      </trkpt>
      <trkpt lat="45.7341" lon="5.89076">
        <ele>237</ele>
        <time>2021-09-12T10:28:20.789Z</time>
      </trkpt>
      <trkpt lat="45.73407" lon="5.89073">
        <ele>237</ele>
        <time>2021-09-12T10:28:21.789Z</time>
      </trkpt>
      <trkpt lat="45.73403" lon="5.89069">
        <ele>237</ele>
        <time>2021-09-12T10:28:22.789Z</time>
      </trkpt>
      <trkpt lat="45.734" lon="5.89066">
        <ele>237</ele>
        <time>2021-09-12T10:28:23.788Z</time>
      </trkpt>
      <trkpt lat="45.73396" lon="5.89063">
        <ele>237</ele>
        <time>2021-09-12T10:28:24.789Z</time>
      </trkpt>
      <trkpt lat="45.73393" lon="5.89059">
        <ele>237</ele>
        <time>2021-09-12T10:28:25.788Z</time>
      </trkpt>
      <trkpt lat="45.7339" lon="5.89056">
        <ele>238</ele>
        <time>2021-09-12T10:28:26.788Z</time>
      </trkpt>
      <trkpt lat="45.73386" lon="5.89053">
        <ele>239</ele>
        <time>2021-09-12T10:28:27.789Z</time>
      </trkpt>
      <trkpt lat="45.73383" lon="5.8905">
        <ele>239</ele>
        <time>2021-09-12T10:28:28.788Z</time>
      </trkpt>
      <trkpt lat="45.7338" lon="5.89047">
        <ele>239</ele>
        <time>2021-09-12T10:28:29.789Z</time>
      </trkpt>
      <trkpt lat="45.73377" lon="5.89044">
        <ele>239</ele>
        <time>2021-09-12T10:28:30.789Z</time>
      </trkpt>
      <trkpt lat="45.73375" lon="5.89041">
        <ele>239</ele>
        <time>2021-09-12T10:28:31.789Z</time>
      </trkpt>
      <trkpt lat="45.73371" lon="5.89038">
        <ele>239</ele>
        <time>2021-09-12T10:28:32.788Z</time>
      </trkpt>
      <trkpt lat="45.73369" lon="5.89035">
        <ele>239</ele>
        <time>2021-09-12T10:28:33.789Z</time>
      </trkpt>
      <trkpt lat="45.73366" lon="5.89032">
        <ele>239</ele>
        <time>2021-09-12T10:28:34.789Z</time>
      </trkpt>
      <trkpt lat="45.73363" lon="5.8903">
        <ele>239</ele>
        <time>2021-09-12T10:28:35.788Z</time>
      </trkpt>
      <trkpt lat="45.7336" lon="5.89027">
        <ele>239</ele>
        <time>2021-09-12T10:28:36.789Z</time>
      </trkpt>
      <trkpt lat="45.73358" lon="5.89024">
        <ele>239</ele>
        <time>2021-09-12T10:28:37.789Z</time>
      </trkpt>
      <trkpt lat="45.73355" lon="5.89022">
        <ele>239</ele>
        <time>2021-09-12T10:28:38.789Z</time>
      </trkpt>
      <trkpt lat="45.73352" lon="5.89019">
        <ele>239</ele>
        <time>2021-09-12T10:28:39.789Z</time>
      </trkpt>
      <trkpt lat="45.73349" lon="5.89017">
        <ele>240</ele>
        <time>2021-09-12T10:28:40.789Z</time>
      </trkpt>
      <trkpt lat="45.73346" lon="5.89014">
        <ele>240</ele>
        <time>2021-09-12T10:28:41.789Z</time>
      </trkpt>
      <trkpt lat="45.73344" lon="5.89012">
        <ele>240</ele>
        <time>2021-09-12T10:28:42.789Z</time>
      </trkpt>
      <trkpt lat="45.73341" lon="5.8901">
        <ele>240</ele>
        <time>2021-09-12T10:28:43.789Z</time>
      </trkpt>
      <trkpt lat="45.73339" lon="5.89007">
        <ele>240</ele>
        <time>2021-09-12T10:28:44.788Z</time>
      </trkpt>
      <trkpt lat="45.73336" lon="5.89005">
        <ele>241</ele>
        <time>2021-09-12T10:28:45.789Z</time>
      </trkpt>
      <trkpt lat="45.73334" lon="5.89002">
        <ele>241</ele>
        <time>2021-09-12T10:28:46.789Z</time>
      </trkpt>
      <trkpt lat="45.73332" lon="5.89">
        <ele>241</ele>
        <time>2021-09-12T10:28:47.789Z</time>
      </trkpt>
      <trkpt lat="45.7333" lon="5.88997">
        <ele>241</ele>
        <time>2021-09-12T10:28:48.789Z</time>
      </trkpt>
      <trkpt lat="45.73327" lon="5.88995">
        <ele>241</ele>
        <time>2021-09-12T10:28:49.788Z</time>
      </trkpt>
      <trkpt lat="45.73325" lon="5.88992">
        <ele>242</ele>
        <time>2021-09-12T10:28:50.788Z</time>
      </trkpt>
      <trkpt lat="45.73323" lon="5.8899">
        <ele>242</ele>
        <time>2021-09-12T10:28:51.789Z</time>
      </trkpt>
      <trkpt lat="45.7332" lon="5.88988">
        <ele>242</ele>
        <time>2021-09-12T10:28:52.789Z</time>
      </trkpt>
      <trkpt lat="45.73318" lon="5.88986">
        <ele>243</ele>
        <time>2021-09-12T10:28:53.789Z</time>
      </trkpt>
      <trkpt lat="45.73316" lon="5.88983">
        <ele>243</ele>
        <time>2021-09-12T10:28:54.789Z</time>
      </trkpt>
      <trkpt lat="45.73314" lon="5.88981">
        <ele>244</ele>
        <time>2021-09-12T10:28:55.789Z</time>
      </trkpt>
      <trkpt lat="45.73312" lon="5.88978">
        <ele>244</ele>
        <time>2021-09-12T10:28:56.788Z</time>
      </trkpt>
      <trkpt lat="45.7331" lon="5.88976">
        <ele>245</ele>
        <time>2021-09-12T10:28:57.789Z</time>
      </trkpt>
      <trkpt lat="45.73308" lon="5.88973">
        <ele>245</ele>
        <time>2021-09-12T10:28:58.788Z</time>
      </trkpt>
      <trkpt lat="45.73307" lon="5.88971">
        <ele>246</ele>
        <time>2021-09-12T10:28:59.788Z</time>
      </trkpt>
      <trkpt lat="45.73305" lon="5.88968">
        <ele>246</ele>
        <time>2021-09-12T10:29:00.788Z</time>
      </trkpt>
      <trkpt lat="45.73303" lon="5.88966">
        <ele>246</ele>
        <time>2021-09-12T10:29:01.788Z</time>
      </trkpt>
      <trkpt lat="45.73301" lon="5.88963">
        <ele>247</ele>
        <time>2021-09-12T10:29:02.788Z</time>
      </trkpt>
      <trkpt lat="45.733" lon="5.8896">
        <ele>247</ele>
        <time>2021-09-12T10:29:03.788Z</time>
      </trkpt>
      <trkpt lat="45.73299" lon="5.88958">
        <ele>247</ele>
        <time>2021-09-12T10:29:04.789Z</time>
      </trkpt>
      <trkpt lat="45.73297" lon="5.88955">
        <ele>247</ele>
        <time>2021-09-12T10:29:05.789Z</time>
      </trkpt>
      <trkpt lat="45.73296" lon="5.88952">
        <ele>247</ele>
        <time>2021-09-12T10:29:06.789Z</time>
      </trkpt>
      <trkpt lat="45.73294" lon="5.88949">
        <ele>247</ele>
        <time>2021-09-12T10:29:07.788Z</time>
      </trkpt>
      <trkpt lat="45.73293" lon="5.88946">
        <ele>247</ele>
        <time>2021-09-12T10:29:08.789Z</time>
      </trkpt>
      <trkpt lat="45.73292" lon="5.88943">
        <ele>247</ele>
        <time>2021-09-12T10:29:09.789Z</time>
      </trkpt>
      <trkpt lat="45.7329" lon="5.8894">
        <ele>247</ele>
        <time>2021-09-12T10:29:10.789Z</time>
      </trkpt>
      <trkpt lat="45.73289" lon="5.88937">
        <ele>247</ele>
        <time>2021-09-12T10:29:11.788Z</time>
      </trkpt>
      <trkpt lat="45.73288" lon="5.88934">
        <ele>248</ele>
        <time>2021-09-12T10:29:12.789Z</time>
      </trkpt>
      <trkpt lat="45.73287" lon="5.8893">
        <ele>248</ele>
        <time>2021-09-12T10:29:13.789Z</time>
      </trkpt>
      <trkpt lat="45.73285" lon="5.88927">
        <ele>248</ele>
        <time>2021-09-12T10:29:14.788Z</time>
      </trkpt>
      <trkpt lat="45.73284" lon="5.88924">
        <ele>248</ele>
        <time>2021-09-12T10:29:15.789Z</time>
      </trkpt>
      <trkpt lat="45.73283" lon="5.88921">
        <ele>248</ele>
        <time>2021-09-12T10:29:16.788Z</time>
      </trkpt>
      <trkpt lat="45.73282" lon="5.88917">
        <ele>247</ele>
        <time>2021-09-12T10:29:17.789Z</time>
      </trkpt>
      <trkpt lat="45.73281" lon="5.88914">
        <ele>247</ele>
        <time>2021-09-12T10:29:18.789Z</time>
      </trkpt>
      <trkpt lat="45.73279" lon="5.88911">
        <ele>247</ele>
        <time>2021-09-12T10:29:19.788Z</time>
      </trkpt>
      <trkpt lat="45.73278" lon="5.88907">
        <ele>247</ele>
        <time>2021-09-12T10:29:20.789Z</time>
      </trkpt>
      <trkpt lat="45.73277" lon="5.88903">
        <ele>248</ele>
        <time>2021-09-12T10:29:21.789Z</time>
      </trkpt>
      <trkpt lat="45.73276" lon="5.889">
        <ele>248</ele>
        <time>2021-09-12T10:29:22.788Z</time>
      </trkpt>
      <trkpt lat="45.73275" lon="5.88896">
        <ele>248</ele>
        <time>2021-09-12T10:29:23.789Z</time>
      </trkpt>
      <trkpt lat="45.73275" lon="5.88892">
        <ele>248</ele>
        <time>2021-09-12T10:29:24.788Z</time>
      </trkpt>
      <trkpt lat="45.73274" lon="5.88887">
        <ele>248</ele>
        <time>2021-09-12T10:29:25.788Z</time>
      </trkpt>
      <trkpt lat="45.73273" lon="5.88884">
        <ele>248</ele>
        <time>2021-09-12T10:29:26.788Z</time>
      </trkpt>
      <trkpt lat="45.73272" lon="5.8888">
        <ele>248</ele>
        <time>2021-09-12T10:29:27.789Z</time>
      </trkpt>
      <trkpt lat="45.73271" lon="5.88876">
        <ele>248</ele>
        <time>2021-09-12T10:29:28.789Z</time>
      </trkpt>
      <trkpt lat="45.7327" lon="5.88872">
        <ele>247</ele>
        <time>2021-09-12T10:29:29.789Z</time>
      </trkpt>
      <trkpt lat="45.73269" lon="5.88868">
        <ele>247</ele>
        <time>2021-09-12T10:29:30.788Z</time>
      </trkpt>
      <trkpt lat="45.73268" lon="5.88863">
        <ele>247</ele>
        <time>2021-09-12T10:29:31.788Z</time>
      </trkpt>
      <trkpt lat="45.73267" lon="5.88859">
        <ele>247</ele>
        <time>2021-09-12T10:29:32.788Z</time>
      </trkpt>
      <trkpt lat="45.73266" lon="5.88854">
        <ele>247</ele>
        <time>2021-09-12T10:29:33.788Z</time>
      </trkpt>
      <trkpt lat="45.73265" lon="5.88849">
        <ele>247</ele>
        <time>2021-09-12T10:29:34.789Z</time>
      </trkpt>
      <trkpt lat="45.73264" lon="5.88844">
        <ele>248</ele>
        <time>2021-09-12T10:29:35.788Z</time>
      </trkpt>
      <trkpt lat="45.73263" lon="5.88839">
        <ele>248</ele>
        <time>2021-09-12T10:29:36.788Z</time>
      </trkpt>
      <trkpt lat="45.73262" lon="5.88833">
        <ele>248</ele>
        <time>2021-09-12T10:29:37.789Z</time>
      </trkpt>
      <trkpt lat="45.73261" lon="5.88828">
        <ele>248</ele>
        <time>2021-09-12T10:29:38.789Z</time>
      </trkpt>
      <trkpt lat="45.7326" lon="5.88822">
        <ele>248</ele>
        <time>2021-09-12T10:29:39.789Z</time>
      </trkpt>
      <trkpt lat="45.73258" lon="5.88817">
        <ele>248</ele>
        <time>2021-09-12T10:29:40.789Z</time>
      </trkpt>
      <trkpt lat="45.73257" lon="5.88811">
        <ele>248</ele>
        <time>2021-09-12T10:29:41.788Z</time>
      </trkpt>
      <trkpt lat="45.73256" lon="5.88805">
        <ele>248</ele>
        <time>2021-09-12T10:29:42.789Z</time>
      </trkpt>
      <trkpt lat="45.73255" lon="5.88799">
        <ele>248</ele>
        <time>2021-09-12T10:29:43.789Z</time>
      </trkpt>
      <trkpt lat="45.73254" lon="5.88793">
        <ele>248</ele>
        <time>2021-09-12T10:29:44.789Z</time>
      </trkpt>
      <trkpt lat="45.73253" lon="5.88787">
        <ele>248</ele>
        <time>2021-09-12T10:29:45.788Z</time>
      </trkpt>
      <trkpt lat="45.73253" lon="5.88781">
        <ele>248</ele>
        <time>2021-09-12T10:29:46.788Z</time>
      </trkpt>
      <trkpt lat="45.73252" lon="5.88775">
        <ele>248</ele>
        <time>2021-09-12T10:29:47.789Z</time>
      </trkpt>
      <trkpt lat="45.73251" lon="5.88769">
        <ele>248</ele>
        <time>2021-09-12T10:29:48.788Z</time>
      </trkpt>
      <trkpt lat="45.73251" lon="5.88763">
        <ele>248</ele>
        <time>2021-09-12T10:29:49.789Z</time>
      </trkpt>
      <trkpt lat="45.73251" lon="5.88757">
        <ele>248</ele>
        <time>2021-09-12T10:29:50.789Z</time>
      </trkpt>
      <trkpt lat="45.73251" lon="5.88751">
        <ele>248</ele>
        <time>2021-09-12T10:29:51.789Z</time>
      </trkpt>
      <trkpt lat="45.73252" lon="5.88745">
        <ele>248</ele>
        <time>2021-09-12T10:29:52.789Z</time>
      </trkpt>
      <trkpt lat="45.73252" lon="5.88738">
        <ele>249</ele>
        <time>2021-09-12T10:29:53.789Z</time>
      </trkpt>
      <trkpt lat="45.73252" lon="5.88732">
        <ele>249</ele>
        <time>2021-09-12T10:29:54.789Z</time>
      </trkpt>
      <trkpt lat="45.73253" lon="5.88726">
        <ele>250</ele>
        <time>2021-09-12T10:29:55.788Z</time>
      </trkpt>
      <trkpt lat="45.73254" lon="5.88719">
        <ele>250</ele>
        <time>2021-09-12T10:29:56.789Z</time>
      </trkpt>
      <trkpt lat="45.73255" lon="5.88713">
        <ele>251</ele>
        <time>2021-09-12T10:29:57.789Z</time>
      </trkpt>
      <trkpt lat="45.73257" lon="5.88707">
        <ele>251</ele>
        <time>2021-09-12T10:29:58.788Z</time>
      </trkpt>
      <trkpt lat="45.73259" lon="5.88701">
        <ele>251</ele>
        <time>2021-09-12T10:29:59.788Z</time>
      </trkpt>
      <trkpt lat="45.73262" lon="5.88694">
        <ele>251</ele>
        <time>2021-09-12T10:30:00.789Z</time>
      </trkpt>
      <trkpt lat="45.73264" lon="5.88688">
        <ele>251</ele>
        <time>2021-09-12T10:30:01.788Z</time>
      </trkpt>
      <trkpt lat="45.73266" lon="5.88682">
        <ele>251</ele>
        <time>2021-09-12T10:30:02.789Z</time>
      </trkpt>
      <trkpt lat="45.73269" lon="5.88676">
        <ele>251</ele>
        <time>2021-09-12T10:30:03.789Z</time>
      </trkpt>
      <trkpt lat="45.73271" lon="5.88671">
        <ele>251</ele>
        <time>2021-09-12T10:30:04.789Z</time>
      </trkpt>
      <trkpt lat="45.73274" lon="5.88665">
        <ele>251</ele>
        <time>2021-09-12T10:30:05.789Z</time>
      </trkpt>
      <trkpt lat="45.73277" lon="5.88659">
        <ele>251</ele>
        <time>2021-09-12T10:30:06.789Z</time>
      </trkpt>
      <trkpt lat="45.73279" lon="5.88653">
        <ele>251</ele>
        <time>2021-09-12T10:30:07.789Z</time>
      </trkpt>
      <trkpt lat="45.73282" lon="5.88648">
        <ele>251</ele>
        <time>2021-09-12T10:30:08.789Z</time>
      </trkpt>
      <trkpt lat="45.73284" lon="5.88642">
        <ele>251</ele>
        <time>2021-09-12T10:30:09.788Z</time>
      </trkpt>
      <trkpt lat="45.73287" lon="5.88636">
        <ele>251</ele>
        <time>2021-09-12T10:30:10.789Z</time>
      </trkpt>
      <trkpt lat="45.73289" lon="5.8863">
        <ele>252</ele>
        <time>2021-09-12T10:30:11.789Z</time>
      </trkpt>
      <trkpt lat="45.73292" lon="5.88625">
        <ele>252</ele>
        <time>2021-09-12T10:30:12.789Z</time>
      </trkpt>
      <trkpt lat="45.73295" lon="5.8862">
        <ele>252</ele>
        <time>2021-09-12T10:30:13.789Z</time>
      </trkpt>
      <trkpt lat="45.73297" lon="5.88614">
        <ele>252</ele>
        <time>2021-09-12T10:30:14.788Z</time>
      </trkpt>
      <trkpt lat="45.733" lon="5.88609">
        <ele>252</ele>
        <time>2021-09-12T10:30:15.789Z</time>
      </trkpt>
      <trkpt lat="45.73302" lon="5.88604">
        <ele>252</ele>
        <time>2021-09-12T10:30:16.789Z</time>
      </trkpt>
      <trkpt lat="45.73304" lon="5.88599">
        <ele>252</ele>
        <time>2021-09-12T10:30:17.788Z</time>
      </trkpt>
      <trkpt lat="45.73306" lon="5.88593">
        <ele>252</ele>
        <time>2021-09-12T10:30:18.789Z</time>
      </trkpt>
      <trkpt lat="45.73309" lon="5.88588">
        <ele>253</ele>
        <time>2021-09-12T10:30:19.788Z</time>
      </trkpt>
      <trkpt lat="45.73311" lon="5.88583">
        <ele>253</ele>
        <time>2021-09-12T10:30:20.788Z</time>
      </trkpt>
      <trkpt lat="45.73313" lon="5.88578">
        <ele>253</ele>
        <time>2021-09-12T10:30:21.789Z</time>
      </trkpt>
      <trkpt lat="45.73316" lon="5.88572">
        <ele>253</ele>
        <time>2021-09-12T10:30:22.789Z</time>
      </trkpt>
      <trkpt lat="45.73318" lon="5.88567">
        <ele>253</ele>
        <time>2021-09-12T10:30:23.788Z</time>
      </trkpt>
      <trkpt lat="45.7332" lon="5.88562">
        <ele>252</ele>
        <time>2021-09-12T10:30:24.788Z</time>
      </trkpt>
      <trkpt lat="45.73323" lon="5.88557">
        <ele>252</ele>
        <time>2021-09-12T10:30:25.789Z</time>
      </trkpt>
      <trkpt lat="45.73325" lon="5.88552">
        <ele>252</ele>
        <time>2021-09-12T10:30:26.789Z</time>
      </trkpt>
      <trkpt lat="45.73327" lon="5.88547">
        <ele>253</ele>
        <time>2021-09-12T10:30:27.788Z</time>
      </trkpt>
      <trkpt lat="45.7333" lon="5.88542">
        <ele>253</ele>
        <time>2021-09-12T10:30:28.789Z</time>
      </trkpt>
      <trkpt lat="45.73332" lon="5.88537">
        <ele>252</ele>
        <time>2021-09-12T10:30:29.789Z</time>
      </trkpt>
      <trkpt lat="45.73334" lon="5.88532">
        <ele>252</ele>
        <time>2021-09-12T10:30:30.789Z</time>
      </trkpt>
      <trkpt lat="45.73337" lon="5.88527">
        <ele>252</ele>
        <time>2021-09-12T10:30:31.789Z</time>
      </trkpt>
      <trkpt lat="45.73339" lon="5.88522">
        <ele>253</ele>
        <time>2021-09-12T10:30:32.789Z</time>
      </trkpt>
      <trkpt lat="45.73341" lon="5.88517">
        <ele>253</ele>
        <time>2021-09-12T10:30:33.789Z</time>
      </trkpt>
      <trkpt lat="45.73344" lon="5.88512">
        <ele>254</ele>
        <time>2021-09-12T10:30:34.789Z</time>
      </trkpt>
      <trkpt lat="45.73346" lon="5.88507">
        <ele>254</ele>
        <time>2021-09-12T10:30:35.789Z</time>
      </trkpt>
      <trkpt lat="45.73348" lon="5.88502">
        <ele>254</ele>
        <time>2021-09-12T10:30:36.789Z</time>
      </trkpt>
      <trkpt lat="45.7335" lon="5.88497">
        <ele>255</ele>
        <time>2021-09-12T10:30:37.789Z</time>
      </trkpt>
      <trkpt lat="45.73352" lon="5.88492">
        <ele>255</ele>
        <time>2021-09-12T10:30:38.788Z</time>
      </trkpt>
      <trkpt lat="45.73354" lon="5.88487">
        <ele>255</ele>
        <time>2021-09-12T10:30:39.788Z</time>
      </trkpt>
      <trkpt lat="45.73356" lon="5.88482">
        <ele>255</ele>
        <time>2021-09-12T10:30:40.789Z</time>
      </trkpt>
      <trkpt lat="45.73358" lon="5.88477">
        <ele>254</ele>
        <time>2021-09-12T10:30:41.788Z</time>
      </trkpt>
      <trkpt lat="45.7336" lon="5.88472">
        <ele>254</ele>
        <time>2021-09-12T10:30:42.788Z</time>
      </trkpt>
      <trkpt lat="45.73362" lon="5.88467">
        <ele>253</ele>
        <time>2021-09-12T10:30:43.788Z</time>
      </trkpt>
      <trkpt lat="45.73364" lon="5.88462">
        <ele>253</ele>
        <time>2021-09-12T10:30:44.789Z</time>
      </trkpt>
      <trkpt lat="45.73366" lon="5.88456">
        <ele>253</ele>
        <time>2021-09-12T10:30:45.789Z</time>
      </trkpt>
      <trkpt lat="45.73367" lon="5.88451">
        <ele>253</ele>
        <time>2021-09-12T10:30:46.789Z</time>
      </trkpt>
      <trkpt lat="45.73368" lon="5.88444">
        <ele>253</ele>
        <time>2021-09-12T10:30:47.789Z</time>
      </trkpt>
      <trkpt lat="45.73369" lon="5.88438">
        <ele>253</ele>
        <time>2021-09-12T10:30:48.788Z</time>
      </trkpt>
      <trkpt lat="45.7337" lon="5.88432">
        <ele>253</ele>
        <time>2021-09-12T10:30:49.788Z</time>
      </trkpt>
      <trkpt lat="45.73371" lon="5.88426">
        <ele>253</ele>
        <time>2021-09-12T10:30:50.788Z</time>
      </trkpt>
      <trkpt lat="45.73371" lon="5.8842">
        <ele>253</ele>
        <time>2021-09-12T10:30:51.788Z</time>
      </trkpt>
      <trkpt lat="45.73371" lon="5.88413">
        <ele>254</ele>
        <time>2021-09-12T10:30:52.789Z</time>
      </trkpt>
      <trkpt lat="45.73371" lon="5.88407">
        <ele>254</ele>
        <time>2021-09-12T10:30:53.789Z</time>
      </trkpt>
      <trkpt lat="45.7337" lon="5.884">
        <ele>255</ele>
        <time>2021-09-12T10:30:54.789Z</time>
      </trkpt>
      <trkpt lat="45.7337" lon="5.88394">
        <ele>255</ele>
        <time>2021-09-12T10:30:55.789Z</time>
      </trkpt>
      <trkpt lat="45.73369" lon="5.88388">
        <ele>255</ele>
        <time>2021-09-12T10:30:56.788Z</time>
      </trkpt>
      <trkpt lat="45.73368" lon="5.88381">
        <ele>254</ele>
        <time>2021-09-12T10:30:57.789Z</time>
      </trkpt>
      <trkpt lat="45.73367" lon="5.88375">
        <ele>254</ele>
        <time>2021-09-12T10:30:58.789Z</time>
      </trkpt>
      <trkpt lat="45.73366" lon="5.88368">
        <ele>254</ele>
        <time>2021-09-12T10:30:59.789Z</time>
      </trkpt>
      <trkpt lat="45.73364" lon="5.88362">
        <ele>254</ele>
        <time>2021-09-12T10:31:00.789Z</time>
      </trkpt>
      <trkpt lat="45.73363" lon="5.88355">
        <ele>253</ele>
        <time>2021-09-12T10:31:01.788Z</time>
      </trkpt>
      <trkpt lat="45.73362" lon="5.88349">
        <ele>253</ele>
        <time>2021-09-12T10:31:02.788Z</time>
      </trkpt>
      <trkpt lat="45.73361" lon="5.88342">
        <ele>253</ele>
        <time>2021-09-12T10:31:03.788Z</time>
      </trkpt>
      <trkpt lat="45.73359" lon="5.88335">
        <ele>253</ele>
        <time>2021-09-12T10:31:04.789Z</time>
      </trkpt>
      <trkpt lat="45.73358" lon="5.88329">
        <ele>254</ele>
        <time>2021-09-12T10:31:05.788Z</time>
      </trkpt>
      <trkpt lat="45.73357" lon="5.88322">
        <ele>254</ele>
        <time>2021-09-12T10:31:06.789Z</time>
      </trkpt>
      <trkpt lat="45.73356" lon="5.88316">
        <ele>254</ele>
        <time>2021-09-12T10:31:07.789Z</time>
      </trkpt>
      <trkpt lat="45.73355" lon="5.88309">
        <ele>254</ele>
        <time>2021-09-12T10:31:08.789Z</time>
      </trkpt>
      <trkpt lat="45.73355" lon="5.88301">
        <ele>254</ele>
        <time>2021-09-12T10:31:09.789Z</time>
      </trkpt>
      <trkpt lat="45.73355" lon="5.88294">
        <ele>254</ele>
        <time>2021-09-12T10:31:10.789Z</time>
      </trkpt>
      <trkpt lat="45.73355" lon="5.88287">
        <ele>254</ele>
        <time>2021-09-12T10:31:11.789Z</time>
      </trkpt>
      <trkpt lat="45.73356" lon="5.8828">
        <ele>254</ele>
        <time>2021-09-12T10:31:12.788Z</time>
      </trkpt>
      <trkpt lat="45.73357" lon="5.88273">
        <ele>254</ele>
        <time>2021-09-12T10:31:13.789Z</time>
      </trkpt>
      <trkpt lat="45.73358" lon="5.88266">
        <ele>253</ele>
        <time>2021-09-12T10:31:14.788Z</time>
      </trkpt>
      <trkpt lat="45.7336" lon="5.88259">
        <ele>253</ele>
        <time>2021-09-12T10:31:15.789Z</time>
      </trkpt>
      <trkpt lat="45.73362" lon="5.88252">
        <ele>253</ele>
        <time>2021-09-12T10:31:16.789Z</time>
      </trkpt>
      <trkpt lat="45.73364" lon="5.88245">
        <ele>253</ele>
        <time>2021-09-12T10:31:17.788Z</time>
      </trkpt>
      <trkpt lat="45.73366" lon="5.88239">
        <ele>253</ele>
        <time>2021-09-12T10:31:18.789Z</time>
      </trkpt>
      <trkpt lat="45.73368" lon="5.88233">
        <ele>253</ele>
        <time>2021-09-12T10:31:19.789Z</time>
      </trkpt>
      <trkpt lat="45.73371" lon="5.88227">
        <ele>253</ele>
        <time>2021-09-12T10:31:20.789Z</time>
      </trkpt>
      <trkpt lat="45.73374" lon="5.88222">
        <ele>254</ele>
        <time>2021-09-12T10:31:21.789Z</time>
      </trkpt>
      <trkpt lat="45.73377" lon="5.88216">
        <ele>254</ele>
        <time>2021-09-12T10:31:22.788Z</time>
      </trkpt>
      <trkpt lat="45.73381" lon="5.88211">
        <ele>255</ele>
        <time>2021-09-12T10:31:23.788Z</time>
      </trkpt>
      <trkpt lat="45.73385" lon="5.88206">
        <ele>255</ele>
        <time>2021-09-12T10:31:24.788Z</time>
      </trkpt>
      <trkpt lat="45.73389" lon="5.88201">
        <ele>255</ele>
        <time>2021-09-12T10:31:25.789Z</time>
      </trkpt>
      <trkpt lat="45.73394" lon="5.88196">
        <ele>255</ele>
        <time>2021-09-12T10:31:26.789Z</time>
      </trkpt>
      <trkpt lat="45.73398" lon="5.88191">
        <ele>255</ele>
        <time>2021-09-12T10:31:27.789Z</time>
      </trkpt>
      <trkpt lat="45.73402" lon="5.88186">
        <ele>255</ele>
        <time>2021-09-12T10:31:28.788Z</time>
      </trkpt>
      <trkpt lat="45.73407" lon="5.88181">
        <ele>255</ele>
        <time>2021-09-12T10:31:29.788Z</time>
      </trkpt>
      <trkpt lat="45.73411" lon="5.88177">
        <ele>255</ele>
        <time>2021-09-12T10:31:30.788Z</time>
      </trkpt>
      <trkpt lat="45.73415" lon="5.88172">
        <ele>254</ele>
        <time>2021-09-12T10:31:31.789Z</time>
      </trkpt>
      <trkpt lat="45.73419" lon="5.88167">
        <ele>254</ele>
        <time>2021-09-12T10:31:32.789Z</time>
      </trkpt>
      <trkpt lat="45.73424" lon="5.88162">
        <ele>254</ele>
        <time>2021-09-12T10:31:33.789Z</time>
      </trkpt>
      <trkpt lat="45.73427" lon="5.88156">
        <ele>254</ele>
        <time>2021-09-12T10:31:34.789Z</time>
      </trkpt>
      <trkpt lat="45.73431" lon="5.8815">
        <ele>254</ele>
        <time>2021-09-12T10:31:35.789Z</time>
      </trkpt>
      <trkpt lat="45.73434" lon="5.88144">
        <ele>254</ele>
        <time>2021-09-12T10:31:36.789Z</time>
      </trkpt>
      <trkpt lat="45.73436" lon="5.88137">
        <ele>254</ele>
        <time>2021-09-12T10:31:37.789Z</time>
      </trkpt>
      <trkpt lat="45.73438" lon="5.8813">
        <ele>254</ele>
        <time>2021-09-12T10:31:38.788Z</time>
      </trkpt>
      <trkpt lat="45.73439" lon="5.88122">
        <ele>253</ele>
        <time>2021-09-12T10:31:39.789Z</time>
      </trkpt>
      <trkpt lat="45.73439" lon="5.88114">
        <ele>253</ele>
        <time>2021-09-12T10:31:40.789Z</time>
      </trkpt>
      <trkpt lat="45.73439" lon="5.88107">
        <ele>253</ele>
        <time>2021-09-12T10:31:41.789Z</time>
      </trkpt>
      <trkpt lat="45.73437" lon="5.88099">
        <ele>253</ele>
        <time>2021-09-12T10:31:42.788Z</time>
      </trkpt>
      <trkpt lat="45.73435" lon="5.88092">
        <ele>253</ele>
        <time>2021-09-12T10:31:43.789Z</time>
      </trkpt>
      <trkpt lat="45.73432" lon="5.88085">
        <ele>253</ele>
        <time>2021-09-12T10:31:44.789Z</time>
      </trkpt>
      <trkpt lat="45.73429" lon="5.88079">
        <ele>253</ele>
        <time>2021-09-12T10:31:45.788Z</time>
      </trkpt>
      <trkpt lat="45.73425" lon="5.88074">
        <ele>254</ele>
        <time>2021-09-12T10:31:46.789Z</time>
      </trkpt>
      <trkpt lat="45.7342" lon="5.8807">
        <ele>254</ele>
        <time>2021-09-12T10:31:47.789Z</time>
      </trkpt>
      <trkpt lat="45.73414" lon="5.88067">
        <ele>254</ele>
        <time>2021-09-12T10:31:48.789Z</time>
      </trkpt>
      <trkpt lat="45.73409" lon="5.88065">
        <ele>254</ele>
        <time>2021-09-12T10:31:49.788Z</time>
      </trkpt>
      <trkpt lat="45.73403" lon="5.88063">
        <ele>254</ele>
        <time>2021-09-12T10:31:50.788Z</time>
      </trkpt>
      <trkpt lat="45.73397" lon="5.88063">
        <ele>255</ele>
        <time>2021-09-12T10:31:51.789Z</time>
      </trkpt>
      <trkpt lat="45.73391" lon="5.88064">
        <ele>255</ele>
        <time>2021-09-12T10:31:52.789Z</time>
      </trkpt>
      <trkpt lat="45.73385" lon="5.88066">
        <ele>255</ele>
        <time>2021-09-12T10:31:53.789Z</time>
      </trkpt>
      <trkpt lat="45.73379" lon="5.88067">
        <ele>255</ele>
        <time>2021-09-12T10:31:54.788Z</time>
      </trkpt>
      <trkpt lat="45.73372" lon="5.88069">
        <ele>255</ele>
        <time>2021-09-12T10:31:55.789Z</time>
      </trkpt>
      <trkpt lat="45.73366" lon="5.88071">
        <ele>255</ele>
        <time>2021-09-12T10:31:56.789Z</time>
      </trkpt>
      <trkpt lat="45.73359" lon="5.88073">
        <ele>255</ele>
        <time>2021-09-12T10:31:57.789Z</time>
      </trkpt>
      <trkpt lat="45.73352" lon="5.88075">
        <ele>255</ele>
        <time>2021-09-12T10:31:58.789Z</time>
      </trkpt>
      <trkpt lat="45.73345" lon="5.88077">
        <ele>255</ele>
        <time>2021-09-12T10:31:59.788Z</time>
      </trkpt>
      <trkpt lat="45.73337" lon="5.88078">
        <ele>255</ele>
        <time>2021-09-12T10:32:00.789Z</time>
      </trkpt>
      <trkpt lat="45.7333" lon="5.88081">
        <ele>255</ele>
        <time>2021-09-12T10:32:01.789Z</time>
      </trkpt>
      <trkpt lat="45.73323" lon="5.88083">
        <ele>255</ele>
        <time>2021-09-12T10:32:02.789Z</time>
      </trkpt>
      <trkpt lat="45.73315" lon="5.88084">
        <ele>254</ele>
        <time>2021-09-12T10:32:03.789Z</time>
      </trkpt>
      <trkpt lat="45.73307" lon="5.88085">
        <ele>253</ele>
        <time>2021-09-12T10:32:04.789Z</time>
      </trkpt>
      <trkpt lat="45.733" lon="5.88084">
        <ele>253</ele>
        <time>2021-09-12T10:32:05.789Z</time>
      </trkpt>
      <trkpt lat="45.73292" lon="5.88082">
        <ele>252</ele>
        <time>2021-09-12T10:32:06.789Z</time>
      </trkpt>
      <trkpt lat="45.73284" lon="5.88079">
        <ele>252</ele>
        <time>2021-09-12T10:32:07.789Z</time>
      </trkpt>
      <trkpt lat="45.73276" lon="5.88075">
        <ele>252</ele>
        <time>2021-09-12T10:32:08.788Z</time>
      </trkpt>
      <trkpt lat="45.73269" lon="5.8807">
        <ele>252</ele>
        <time>2021-09-12T10:32:09.789Z</time>
      </trkpt>
      <trkpt lat="45.73262" lon="5.88064">
        <ele>252</ele>
        <time>2021-09-12T10:32:10.789Z</time>
      </trkpt>
      <trkpt lat="45.73256" lon="5.88058">
        <ele>253</ele>
        <time>2021-09-12T10:32:11.789Z</time>
      </trkpt>
      <trkpt lat="45.73249" lon="5.88052">
        <ele>253</ele>
        <time>2021-09-12T10:32:12.789Z</time>
      </trkpt>
      <trkpt lat="45.73243" lon="5.88046">
        <ele>253</ele>
        <time>2021-09-12T10:32:13.789Z</time>
      </trkpt>
      <trkpt lat="45.73237" lon="5.8804">
        <ele>253</ele>
        <time>2021-09-12T10:32:14.788Z</time>
      </trkpt>
      <trkpt lat="45.7323" lon="5.88034">
        <ele>253</ele>
        <time>2021-09-12T10:32:15.788Z</time>
      </trkpt>
      <trkpt lat="45.73224" lon="5.88028">
        <ele>253</ele>
        <time>2021-09-12T10:32:16.788Z</time>
      </trkpt>
      <trkpt lat="45.73218" lon="5.88022">
        <ele>254</ele>
        <time>2021-09-12T10:32:17.789Z</time>
      </trkpt>
      <trkpt lat="45.73211" lon="5.88016">
        <ele>254</ele>
        <time>2021-09-12T10:32:18.789Z</time>
      </trkpt>
      <trkpt lat="45.73205" lon="5.88011">
        <ele>254</ele>
        <time>2021-09-12T10:32:19.788Z</time>
      </trkpt>
      <trkpt lat="45.73198" lon="5.88006">
        <ele>254</ele>
        <time>2021-09-12T10:32:20.789Z</time>
      </trkpt>
      <trkpt lat="45.73192" lon="5.88002">
        <ele>255</ele>
        <time>2021-09-12T10:32:21.788Z</time>
      </trkpt>
      <trkpt lat="45.73185" lon="5.87998">
        <ele>255</ele>
        <time>2021-09-12T10:32:22.789Z</time>
      </trkpt>
      <trkpt lat="45.73178" lon="5.87996">
        <ele>255</ele>
        <time>2021-09-12T10:32:23.789Z</time>
      </trkpt>
      <trkpt lat="45.73171" lon="5.87993">
        <ele>255</ele>
        <time>2021-09-12T10:32:24.789Z</time>
      </trkpt>
      <trkpt lat="45.73164" lon="5.87992">
        <ele>256</ele>
        <time>2021-09-12T10:32:25.789Z</time>
      </trkpt>
      <trkpt lat="45.73158" lon="5.8799">
        <ele>256</ele>
        <time>2021-09-12T10:32:26.788Z</time>
      </trkpt>
      <trkpt lat="45.73151" lon="5.87989">
        <ele>256</ele>
        <time>2021-09-12T10:32:27.789Z</time>
      </trkpt>
      <trkpt lat="45.73145" lon="5.87989">
        <ele>257</ele>
        <time>2021-09-12T10:32:28.788Z</time>
      </trkpt>
      <trkpt lat="45.73138" lon="5.87989">
        <ele>257</ele>
        <time>2021-09-12T10:32:29.789Z</time>
      </trkpt>
      <trkpt lat="45.73132" lon="5.87989">
        <ele>258</ele>
        <time>2021-09-12T10:32:30.789Z</time>
      </trkpt>
      <trkpt lat="45.73126" lon="5.8799">
        <ele>258</ele>
        <time>2021-09-12T10:32:31.789Z</time>
      </trkpt>
      <trkpt lat="45.73119" lon="5.87992">
        <ele>258</ele>
        <time>2021-09-12T10:32:32.789Z</time>
      </trkpt>
      <trkpt lat="45.73113" lon="5.87993">
        <ele>259</ele>
        <time>2021-09-12T10:32:33.788Z</time>
      </trkpt>
      <trkpt lat="45.73107" lon="5.87995">
        <ele>259</ele>
        <time>2021-09-12T10:32:34.788Z</time>
      </trkpt>
      <trkpt lat="45.73101" lon="5.87997">
        <ele>258</ele>
        <time>2021-09-12T10:32:35.789Z</time>
      </trkpt>
      <trkpt lat="45.73095" lon="5.87999">
        <ele>258</ele>
        <time>2021-09-12T10:32:36.789Z</time>
      </trkpt>
      <trkpt lat="45.73089" lon="5.88002">
        <ele>258</ele>
        <time>2021-09-12T10:32:37.789Z</time>
      </trkpt>
      <trkpt lat="45.73084" lon="5.88004">
        <ele>259</ele>
        <time>2021-09-12T10:32:38.788Z</time>
      </trkpt>
      <trkpt lat="45.73078" lon="5.88006">
        <ele>259</ele>
        <time>2021-09-12T10:32:39.788Z</time>
      </trkpt>
      <trkpt lat="45.73072" lon="5.88008">
        <ele>260</ele>
        <time>2021-09-12T10:32:40.789Z</time>
      </trkpt>
      <trkpt lat="45.73066" lon="5.88011">
        <ele>260</ele>
        <time>2021-09-12T10:32:41.789Z</time>
      </trkpt>
      <trkpt lat="45.73061" lon="5.88013">
        <ele>259</ele>
        <time>2021-09-12T10:32:42.789Z</time>
      </trkpt>
      <trkpt lat="45.73055" lon="5.88015">
        <ele>259</ele>
        <time>2021-09-12T10:32:43.788Z</time>
      </trkpt>
      <trkpt lat="45.7305" lon="5.88017">
        <ele>259</ele>
        <time>2021-09-12T10:32:44.789Z</time>
      </trkpt>
      <trkpt lat="45.73044" lon="5.88019">
        <ele>259</ele>
        <time>2021-09-12T10:32:45.789Z</time>
      </trkpt>
      <trkpt lat="45.73039" lon="5.88021">
        <ele>258</ele>
        <time>2021-09-12T10:32:46.788Z</time>
      </trkpt>
      <trkpt lat="45.73033" lon="5.88023">
        <ele>257</ele>
        <time>2021-09-12T10:32:47.788Z</time>
      </trkpt>
      <trkpt lat="45.73028" lon="5.88025">
        <ele>257</ele>
        <time>2021-09-12T10:32:48.789Z</time>
      </trkpt>
      <trkpt lat="45.73023" lon="5.88027">
        <ele>257</ele>
        <time>2021-09-12T10:32:49.789Z</time>
      </trkpt>
      <trkpt lat="45.73018" lon="5.88029">
        <ele>257</ele>
        <time>2021-09-12T10:32:50.789Z</time>
      </trkpt>
      <trkpt lat="45.73013" lon="5.88031">
        <ele>257</ele>
        <time>2021-09-12T10:32:51.789Z</time>
      </trkpt>
      <trkpt lat="45.73008" lon="5.88033">
        <ele>257</ele>
        <time>2021-09-12T10:32:52.788Z</time>
      </trkpt>
      <trkpt lat="45.73002" lon="5.88035">
        <ele>257</ele>
        <time>2021-09-12T10:32:53.789Z</time>
      </trkpt>
      <trkpt lat="45.72997" lon="5.88037">
        <ele>256</ele>
        <time>2021-09-12T10:32:54.789Z</time>
      </trkpt>
      <trkpt lat="45.72992" lon="5.88039">
        <ele>257</ele>
        <time>2021-09-12T10:32:55.789Z</time>
      </trkpt>
      <trkpt lat="45.72986" lon="5.88041">
        <ele>257</ele>
        <time>2021-09-12T10:32:56.788Z</time>
      </trkpt>
      <trkpt lat="45.72981" lon="5.88043">
        <ele>256</ele>
        <time>2021-09-12T10:32:57.789Z</time>
      </trkpt>
      <trkpt lat="45.72976" lon="5.88045">
        <ele>256</ele>
        <time>2021-09-12T10:32:58.789Z</time>
      </trkpt>
      <trkpt lat="45.72971" lon="5.88047">
        <ele>256</ele>
        <time>2021-09-12T10:32:59.789Z</time>
      </trkpt>
      <trkpt lat="45.72965" lon="5.88049">
        <ele>256</ele>
        <time>2021-09-12T10:33:00.788Z</time>
      </trkpt>
      <trkpt lat="45.7296" lon="5.88052">
        <ele>256</ele>
        <time>2021-09-12T10:33:01.788Z</time>
      </trkpt>
      <trkpt lat="45.72955" lon="5.88054">
        <ele>256</ele>
        <time>2021-09-12T10:33:02.788Z</time>
      </trkpt>
      <trkpt lat="45.7295" lon="5.88056">
        <ele>256</ele>
        <time>2021-09-12T10:33:03.789Z</time>
      </trkpt>
      <trkpt lat="45.72945" lon="5.88058">
        <ele>256</ele>
        <time>2021-09-12T10:33:04.789Z</time>
      </trkpt>
      <trkpt lat="45.7294" lon="5.8806">
        <ele>256</ele>
        <time>2021-09-12T10:33:05.789Z</time>
      </trkpt>
      <trkpt lat="45.72935" lon="5.88063">
        <ele>256</ele>
        <time>2021-09-12T10:33:06.788Z</time>
      </trkpt>
      <trkpt lat="45.7293" lon="5.88065">
        <ele>256</ele>
        <time>2021-09-12T10:33:07.789Z</time>
      </trkpt>
      <trkpt lat="45.72925" lon="5.88066">
        <ele>256</ele>
        <time>2021-09-12T10:33:08.789Z</time>
      </trkpt>
      <trkpt lat="45.7292" lon="5.88069">
        <ele>256</ele>
        <time>2021-09-12T10:33:09.789Z</time>
      </trkpt>
      <trkpt lat="45.72915" lon="5.88071">
        <ele>256</ele>
        <time>2021-09-12T10:33:10.788Z</time>
      </trkpt>
      <trkpt lat="45.7291" lon="5.88073">
        <ele>256</ele>
        <time>2021-09-12T10:33:11.789Z</time>
      </trkpt>
      <trkpt lat="45.72905" lon="5.88075">
        <ele>256</ele>
        <time>2021-09-12T10:33:12.788Z</time>
      </trkpt>
      <trkpt lat="45.72901" lon="5.88077">
        <ele>256</ele>
        <time>2021-09-12T10:33:13.788Z</time>
      </trkpt>
      <trkpt lat="45.72896" lon="5.8808">
        <ele>257</ele>
        <time>2021-09-12T10:33:14.789Z</time>
      </trkpt>
      <trkpt lat="45.72891" lon="5.88082">
        <ele>257</ele>
        <time>2021-09-12T10:33:15.789Z</time>
      </trkpt>
      <trkpt lat="45.72887" lon="5.88084">
        <ele>257</ele>
        <time>2021-09-12T10:33:16.789Z</time>
      </trkpt>
      <trkpt lat="45.72883" lon="5.88087">
        <ele>257</ele>
        <time>2021-09-12T10:33:17.789Z</time>
      </trkpt>
      <trkpt lat="45.72878" lon="5.88089">
        <ele>257</ele>
        <time>2021-09-12T10:33:18.789Z</time>
      </trkpt>
      <trkpt lat="45.72874" lon="5.88092">
        <ele>257</ele>
        <time>2021-09-12T10:33:19.789Z</time>
      </trkpt>
      <trkpt lat="45.7287" lon="5.88095">
        <ele>257</ele>
        <time>2021-09-12T10:33:20.789Z</time>
      </trkpt>
      <trkpt lat="45.72866" lon="5.88097">
        <ele>258</ele>
        <time>2021-09-12T10:33:21.789Z</time>
      </trkpt>
      <trkpt lat="45.72862" lon="5.881">
        <ele>258</ele>
        <time>2021-09-12T10:33:22.788Z</time>
      </trkpt>
      <trkpt lat="45.72857" lon="5.88103">
        <ele>259</ele>
        <time>2021-09-12T10:33:23.789Z</time>
      </trkpt>
      <trkpt lat="45.72853" lon="5.88106">
        <ele>259</ele>
        <time>2021-09-12T10:33:24.789Z</time>
      </trkpt>
      <trkpt lat="45.72849" lon="5.88108">
        <ele>260</ele>
        <time>2021-09-12T10:33:25.789Z</time>
      </trkpt>
      <trkpt lat="45.72845" lon="5.8811">
        <ele>260</ele>
        <time>2021-09-12T10:33:26.789Z</time>
      </trkpt>
      <trkpt lat="45.72841" lon="5.88113">
        <ele>260</ele>
        <time>2021-09-12T10:33:27.789Z</time>
      </trkpt>
      <trkpt lat="45.72838" lon="5.88115">
        <ele>260</ele>
        <time>2021-09-12T10:33:28.788Z</time>
      </trkpt>
      <trkpt lat="45.72834" lon="5.88117">
        <ele>260</ele>
        <time>2021-09-12T10:33:29.789Z</time>
      </trkpt>
      <trkpt lat="45.7283" lon="5.88119">
        <ele>260</ele>
        <time>2021-09-12T10:33:30.789Z</time>
      </trkpt>
      <trkpt lat="45.72826" lon="5.88121">
        <ele>259</ele>
        <time>2021-09-12T10:33:31.789Z</time>
      </trkpt>
      <trkpt lat="45.72823" lon="5.88124">
        <ele>259</ele>
        <time>2021-09-12T10:33:32.789Z</time>
      </trkpt>
      <trkpt lat="45.72819" lon="5.88126">
        <ele>259</ele>
        <time>2021-09-12T10:33:33.789Z</time>
      </trkpt>
      <trkpt lat="45.72816" lon="5.88128">
        <ele>259</ele>
        <time>2021-09-12T10:33:34.788Z</time>
      </trkpt>
      <trkpt lat="45.72812" lon="5.8813">
        <ele>258</ele>
        <time>2021-09-12T10:33:35.788Z</time>
      </trkpt>
      <trkpt lat="45.72809" lon="5.88132">
        <ele>259</ele>
        <time>2021-09-12T10:33:36.789Z</time>
      </trkpt>
      <trkpt lat="45.72806" lon="5.88134">
        <ele>259</ele>
        <time>2021-09-12T10:33:37.789Z</time>
      </trkpt>
      <trkpt lat="45.72802" lon="5.88136">
        <ele>259</ele>
        <time>2021-09-12T10:33:38.789Z</time>
      </trkpt>
      <trkpt lat="45.72799" lon="5.88138">
        <ele>259</ele>
        <time>2021-09-12T10:33:39.788Z</time>
      </trkpt>
      <trkpt lat="45.72796" lon="5.8814">
        <ele>259</ele>
        <time>2021-09-12T10:33:40.788Z</time>
      </trkpt>
      <trkpt lat="45.72793" lon="5.88143">
        <ele>260</ele>
        <time>2021-09-12T10:33:41.788Z</time>
      </trkpt>
      <trkpt lat="45.7279" lon="5.88145">
        <ele>261</ele>
        <time>2021-09-12T10:33:42.789Z</time>
      </trkpt>
      <trkpt lat="45.72787" lon="5.88147">
        <ele>261</ele>
        <time>2021-09-12T10:33:43.789Z</time>
      </trkpt>
      <trkpt lat="45.72784" lon="5.88149">
        <ele>262</ele>
        <time>2021-09-12T10:33:44.789Z</time>
      </trkpt>
      <trkpt lat="45.7278" lon="5.88151">
        <ele>262</ele>
        <time>2021-09-12T10:33:45.789Z</time>
      </trkpt>
      <trkpt lat="45.72777" lon="5.88153">
        <ele>262</ele>
        <time>2021-09-12T10:33:46.789Z</time>
      </trkpt>
      <trkpt lat="45.72774" lon="5.88155">
        <ele>262</ele>
        <time>2021-09-12T10:33:47.788Z</time>
      </trkpt>
      <trkpt lat="45.72771" lon="5.88157">
        <ele>263</ele>
        <time>2021-09-12T10:33:48.789Z</time>
      </trkpt>
      <trkpt lat="45.72768" lon="5.88158">
        <ele>263</ele>
        <time>2021-09-12T10:33:49.788Z</time>
      </trkpt>
      <trkpt lat="45.72765" lon="5.8816">
        <ele>263</ele>
        <time>2021-09-12T10:33:50.789Z</time>
      </trkpt>
      <trkpt lat="45.72762" lon="5.88162">
        <ele>263</ele>
        <time>2021-09-12T10:33:51.788Z</time>
      </trkpt>
      <trkpt lat="45.72758" lon="5.88163">
        <ele>263</ele>
        <time>2021-09-12T10:33:52.789Z</time>
      </trkpt>
      <trkpt lat="45.72755" lon="5.88165">
        <ele>263</ele>
        <time>2021-09-12T10:33:53.789Z</time>
      </trkpt>
      <trkpt lat="45.72752" lon="5.88167">
        <ele>263</ele>
        <time>2021-09-12T10:33:54.789Z</time>
      </trkpt>
      <trkpt lat="45.72749" lon="5.88169">
        <ele>263</ele>
        <time>2021-09-12T10:33:55.789Z</time>
      </trkpt>
      <trkpt lat="45.72746" lon="5.88171">
        <ele>262</ele>
        <time>2021-09-12T10:33:56.789Z</time>
      </trkpt>
      <trkpt lat="45.72743" lon="5.88172">
        <ele>262</ele>
        <time>2021-09-12T10:33:57.789Z</time>
      </trkpt>
      <trkpt lat="45.7274" lon="5.88174">
        <ele>263</ele>
        <time>2021-09-12T10:33:58.789Z</time>
      </trkpt>
      <trkpt lat="45.72736" lon="5.88176">
        <ele>263</ele>
        <time>2021-09-12T10:33:59.789Z</time>
      </trkpt>
      <trkpt lat="45.72734" lon="5.88177">
        <ele>263</ele>
        <time>2021-09-12T10:34:00.788Z</time>
      </trkpt>
      <trkpt lat="45.72731" lon="5.88179">
        <ele>264</ele>
        <time>2021-09-12T10:34:01.789Z</time>
      </trkpt>
      <trkpt lat="45.72728" lon="5.88182">
        <ele>264</ele>
        <time>2021-09-12T10:34:02.789Z</time>
      </trkpt>
      <trkpt lat="45.72725" lon="5.88184">
        <ele>264</ele>
        <time>2021-09-12T10:34:03.789Z</time>
      </trkpt>
      <trkpt lat="45.72722" lon="5.88185">
        <ele>264</ele>
        <time>2021-09-12T10:34:04.789Z</time>
      </trkpt>
      <trkpt lat="45.72718" lon="5.88187">
        <ele>264</ele>
        <time>2021-09-12T10:34:05.789Z</time>
      </trkpt>
      <trkpt lat="45.72715" lon="5.88189">
        <ele>264</ele>
        <time>2021-09-12T10:34:06.789Z</time>
      </trkpt>
      <trkpt lat="45.72712" lon="5.8819">
        <ele>264</ele>
        <time>2021-09-12T10:34:07.789Z</time>
      </trkpt>
      <trkpt lat="45.72709" lon="5.88192">
        <ele>265</ele>
        <time>2021-09-12T10:34:08.788Z</time>
      </trkpt>
      <trkpt lat="45.72706" lon="5.88194">
        <ele>265</ele>
        <time>2021-09-12T10:34:09.788Z</time>
      </trkpt>
      <trkpt lat="45.72703" lon="5.88196">
        <ele>265</ele>
        <time>2021-09-12T10:34:10.789Z</time>
      </trkpt>
      <trkpt lat="45.727" lon="5.88198">
        <ele>266</ele>
        <time>2021-09-12T10:34:11.789Z</time>
      </trkpt>
      <trkpt lat="45.72697" lon="5.882">
        <ele>266</ele>
        <time>2021-09-12T10:34:12.788Z</time>
      </trkpt>
      <trkpt lat="45.72694" lon="5.88201">
        <ele>267</ele>
        <time>2021-09-12T10:34:13.789Z</time>
      </trkpt>
      <trkpt lat="45.72691" lon="5.88203">
        <ele>267</ele>
        <time>2021-09-12T10:34:14.789Z</time>
      </trkpt>
      <trkpt lat="45.72688" lon="5.88204">
        <ele>268</ele>
        <time>2021-09-12T10:34:15.789Z</time>
      </trkpt>
      <trkpt lat="45.72685" lon="5.88206">
        <ele>268</ele>
        <time>2021-09-12T10:34:16.789Z</time>
      </trkpt>
      <trkpt lat="45.72681" lon="5.88208">
        <ele>268</ele>
        <time>2021-09-12T10:34:17.788Z</time>
      </trkpt>
      <trkpt lat="45.72679" lon="5.88209">
        <ele>268</ele>
        <time>2021-09-12T10:34:18.789Z</time>
      </trkpt>
      <trkpt lat="45.72676" lon="5.88211">
        <ele>268</ele>
        <time>2021-09-12T10:34:19.789Z</time>
      </trkpt>
      <trkpt lat="45.72673" lon="5.88213">
        <ele>268</ele>
        <time>2021-09-12T10:34:20.788Z</time>
      </trkpt>
      <trkpt lat="45.7267" lon="5.88215">
        <ele>268</ele>
        <time>2021-09-12T10:34:21.788Z</time>
      </trkpt>
      <trkpt lat="45.72666" lon="5.88217">
        <ele>268</ele>
        <time>2021-09-12T10:34:22.788Z</time>
      </trkpt>
      <trkpt lat="45.72663" lon="5.88218">
        <ele>268</ele>
        <time>2021-09-12T10:34:23.789Z</time>
      </trkpt>
      <trkpt lat="45.72659" lon="5.8822">
        <ele>268</ele>
        <time>2021-09-12T10:34:24.789Z</time>
      </trkpt>
      <trkpt lat="45.72656" lon="5.88222">
        <ele>268</ele>
        <time>2021-09-12T10:34:25.789Z</time>
      </trkpt>
      <trkpt lat="45.72652" lon="5.88223">
        <ele>268</ele>
        <time>2021-09-12T10:34:26.789Z</time>
      </trkpt>
      <trkpt lat="45.72648" lon="5.88225">
        <ele>269</ele>
        <time>2021-09-12T10:34:27.789Z</time>
      </trkpt>
      <trkpt lat="45.72644" lon="5.88226">
        <ele>269</ele>
        <time>2021-09-12T10:34:28.788Z</time>
      </trkpt>
      <trkpt lat="45.7264" lon="5.88227">
        <ele>269</ele>
        <time>2021-09-12T10:34:29.789Z</time>
      </trkpt>
      <trkpt lat="45.72636" lon="5.88228">
        <ele>269</ele>
        <time>2021-09-12T10:34:30.789Z</time>
      </trkpt>
      <trkpt lat="45.72631" lon="5.88229">
        <ele>269</ele>
        <time>2021-09-12T10:34:31.789Z</time>
      </trkpt>
      <trkpt lat="45.72627" lon="5.8823">
        <ele>269</ele>
        <time>2021-09-12T10:34:32.788Z</time>
      </trkpt>
      <trkpt lat="45.72623" lon="5.88231">
        <ele>268</ele>
        <time>2021-09-12T10:34:33.789Z</time>
      </trkpt>
      <trkpt lat="45.72618" lon="5.88232">
        <ele>268</ele>
        <time>2021-09-12T10:34:34.788Z</time>
      </trkpt>
      <trkpt lat="45.72614" lon="5.88233">
        <ele>269</ele>
        <time>2021-09-12T10:34:35.789Z</time>
      </trkpt>
      <trkpt lat="45.72609" lon="5.88234">
        <ele>269</ele>
        <time>2021-09-12T10:34:36.789Z</time>
      </trkpt>
      <trkpt lat="45.72605" lon="5.88235">
        <ele>269</ele>
        <time>2021-09-12T10:34:37.789Z</time>
      </trkpt>
      <trkpt lat="45.726" lon="5.88236">
        <ele>270</ele>
        <time>2021-09-12T10:34:38.788Z</time>
      </trkpt>
      <trkpt lat="45.72594" lon="5.88237">
        <ele>270</ele>
        <time>2021-09-12T10:34:39.788Z</time>
      </trkpt>
      <trkpt lat="45.72589" lon="5.88238">
        <ele>271</ele>
        <time>2021-09-12T10:34:40.788Z</time>
      </trkpt>
      <trkpt lat="45.72583" lon="5.88239">
        <ele>271</ele>
        <time>2021-09-12T10:34:41.789Z</time>
      </trkpt>
      <trkpt lat="45.72577" lon="5.8824">
        <ele>271</ele>
        <time>2021-09-12T10:34:42.789Z</time>
      </trkpt>
      <trkpt lat="45.72571" lon="5.88241">
        <ele>272</ele>
        <time>2021-09-12T10:34:43.789Z</time>
      </trkpt>
      <trkpt lat="45.72565" lon="5.88242">
        <ele>272</ele>
        <time>2021-09-12T10:34:44.789Z</time>
      </trkpt>
      <trkpt lat="45.72559" lon="5.88243">
        <ele>272</ele>
        <time>2021-09-12T10:34:45.789Z</time>
      </trkpt>
      <trkpt lat="45.72553" lon="5.88243">
        <ele>272</ele>
        <time>2021-09-12T10:34:46.789Z</time>
      </trkpt>
      <trkpt lat="45.72548" lon="5.88244">
        <ele>272</ele>
        <time>2021-09-12T10:34:47.789Z</time>
      </trkpt>
      <trkpt lat="45.72542" lon="5.88244">
        <ele>272</ele>
        <time>2021-09-12T10:34:48.789Z</time>
      </trkpt>
      <trkpt lat="45.72536" lon="5.88245">
        <ele>271</ele>
        <time>2021-09-12T10:34:49.789Z</time>
      </trkpt>
      <trkpt lat="45.72531" lon="5.88246">
        <ele>271</ele>
        <time>2021-09-12T10:34:50.788Z</time>
      </trkpt>
      <trkpt lat="45.72524" lon="5.88247">
        <ele>271</ele>
        <time>2021-09-12T10:34:51.789Z</time>
      </trkpt>
      <trkpt lat="45.72518" lon="5.88247">
        <ele>271</ele>
        <time>2021-09-12T10:34:52.789Z</time>
      </trkpt>
      <trkpt lat="45.72511" lon="5.88248">
        <ele>272</ele>
        <time>2021-09-12T10:34:53.788Z</time>
      </trkpt>
      <trkpt lat="45.72505" lon="5.88249">
        <ele>271</ele>
        <time>2021-09-12T10:34:54.789Z</time>
      </trkpt>
      <trkpt lat="45.72498" lon="5.8825">
        <ele>270</ele>
        <time>2021-09-12T10:34:55.789Z</time>
      </trkpt>
      <trkpt lat="45.72491" lon="5.8825">
        <ele>270</ele>
        <time>2021-09-12T10:34:56.789Z</time>
      </trkpt>
      <trkpt lat="45.72483" lon="5.88251">
        <ele>270</ele>
        <time>2021-09-12T10:34:57.789Z</time>
      </trkpt>
      <trkpt lat="45.72476" lon="5.88252">
        <ele>270</ele>
        <time>2021-09-12T10:34:58.789Z</time>
      </trkpt>
      <trkpt lat="45.72468" lon="5.88252">
        <ele>270</ele>
        <time>2021-09-12T10:34:59.789Z</time>
      </trkpt>
      <trkpt lat="45.7246" lon="5.88253">
        <ele>270</ele>
        <time>2021-09-12T10:35:00.789Z</time>
      </trkpt>
      <trkpt lat="45.72453" lon="5.88253">
        <ele>270</ele>
        <time>2021-09-12T10:35:01.788Z</time>
      </trkpt>
      <trkpt lat="45.72444" lon="5.88254">
        <ele>269</ele>
        <time>2021-09-12T10:35:02.788Z</time>
      </trkpt>
      <trkpt lat="45.72436" lon="5.88254">
        <ele>269</ele>
        <time>2021-09-12T10:35:03.788Z</time>
      </trkpt>
      <trkpt lat="45.72427" lon="5.88254">
        <ele>269</ele>
        <time>2021-09-12T10:35:04.789Z</time>
      </trkpt>
      <trkpt lat="45.72418" lon="5.88254">
        <ele>269</ele>
        <time>2021-09-12T10:35:05.789Z</time>
      </trkpt>
      <trkpt lat="45.72409" lon="5.88253">
        <ele>269</ele>
        <time>2021-09-12T10:35:06.789Z</time>
      </trkpt>
      <trkpt lat="45.724" lon="5.88252">
        <ele>268</ele>
        <time>2021-09-12T10:35:07.788Z</time>
      </trkpt>
      <trkpt lat="45.72392" lon="5.88251">
        <ele>268</ele>
        <time>2021-09-12T10:35:08.789Z</time>
      </trkpt>
      <trkpt lat="45.72383" lon="5.88249">
        <ele>267</ele>
        <time>2021-09-12T10:35:09.789Z</time>
      </trkpt>
      <trkpt lat="45.72375" lon="5.88246">
        <ele>266</ele>
        <time>2021-09-12T10:35:10.789Z</time>
      </trkpt>
      <trkpt lat="45.72367" lon="5.88243">
        <ele>265</ele>
        <time>2021-09-12T10:35:11.789Z</time>
      </trkpt>
      <trkpt lat="45.72359" lon="5.8824">
        <ele>265</ele>
        <time>2021-09-12T10:35:12.789Z</time>
      </trkpt>
      <trkpt lat="45.7235" lon="5.88237">
        <ele>264</ele>
        <time>2021-09-12T10:35:13.789Z</time>
      </trkpt>
      <trkpt lat="45.72341" lon="5.88232">
        <ele>264</ele>
        <time>2021-09-12T10:35:14.789Z</time>
      </trkpt>
      <trkpt lat="45.72334" lon="5.88229">
        <ele>263</ele>
        <time>2021-09-12T10:35:15.789Z</time>
      </trkpt>
      <trkpt lat="45.72326" lon="5.88224">
        <ele>262</ele>
        <time>2021-09-12T10:35:16.789Z</time>
      </trkpt>
      <trkpt lat="45.72317" lon="5.88218">
        <ele>261</ele>
        <time>2021-09-12T10:35:17.789Z</time>
      </trkpt>
      <trkpt lat="45.72312" lon="5.88214">
        <ele>260</ele>
        <time>2021-09-12T10:35:18.788Z</time>
      </trkpt>
      <trkpt lat="45.72304" lon="5.88209">
        <ele>260</ele>
        <time>2021-09-12T10:35:19.789Z</time>
      </trkpt>
      <trkpt lat="45.72297" lon="5.88203">
        <ele>259</ele>
        <time>2021-09-12T10:35:20.788Z</time>
      </trkpt>
      <trkpt lat="45.7229" lon="5.88197">
        <ele>259</ele>
        <time>2021-09-12T10:35:21.789Z</time>
      </trkpt>
      <trkpt lat="45.72282" lon="5.88191">
        <ele>258</ele>
        <time>2021-09-12T10:35:22.789Z</time>
      </trkpt>
      <trkpt lat="45.72275" lon="5.88185">
        <ele>258</ele>
        <time>2021-09-12T10:35:23.788Z</time>
      </trkpt>
      <trkpt lat="45.72267" lon="5.88178">
        <ele>257</ele>
        <time>2021-09-12T10:35:24.788Z</time>
      </trkpt>
      <trkpt lat="45.72259" lon="5.88172">
        <ele>257</ele>
        <time>2021-09-12T10:35:25.789Z</time>
      </trkpt>
      <trkpt lat="45.72252" lon="5.88165">
        <ele>256</ele>
        <time>2021-09-12T10:35:26.789Z</time>
      </trkpt>
      <trkpt lat="45.72245" lon="5.88159">
        <ele>256</ele>
        <time>2021-09-12T10:35:27.788Z</time>
      </trkpt>
      <trkpt lat="45.72237" lon="5.88153">
        <ele>255</ele>
        <time>2021-09-12T10:35:28.788Z</time>
      </trkpt>
      <trkpt lat="45.7223" lon="5.88148">
        <ele>255</ele>
        <time>2021-09-12T10:35:29.789Z</time>
      </trkpt>
      <trkpt lat="45.72222" lon="5.88145">
        <ele>255</ele>
        <time>2021-09-12T10:35:30.789Z</time>
      </trkpt>
      <trkpt lat="45.72215" lon="5.88144">
        <ele>255</ele>
        <time>2021-09-12T10:35:31.789Z</time>
      </trkpt>
      <trkpt lat="45.72208" lon="5.88144">
        <ele>255</ele>
        <time>2021-09-12T10:35:32.789Z</time>
      </trkpt>
      <trkpt lat="45.722" lon="5.88147">
        <ele>255</ele>
        <time>2021-09-12T10:35:33.789Z</time>
      </trkpt>
      <trkpt lat="45.72194" lon="5.88151">
        <ele>255</ele>
        <time>2021-09-12T10:35:34.789Z</time>
      </trkpt>
      <trkpt lat="45.72187" lon="5.8816">
        <ele>255</ele>
        <time>2021-09-12T10:35:35.788Z</time>
      </trkpt>
      <trkpt lat="45.72182" lon="5.88168">
        <ele>255</ele>
        <time>2021-09-12T10:35:36.789Z</time>
      </trkpt>
      <trkpt lat="45.72177" lon="5.88177">
        <ele>255</ele>
        <time>2021-09-12T10:35:37.789Z</time>
      </trkpt>
      <trkpt lat="45.72173" lon="5.88186">
        <ele>255</ele>
        <time>2021-09-12T10:35:38.789Z</time>
      </trkpt>
      <trkpt lat="45.72168" lon="5.88196">
        <ele>254</ele>
        <time>2021-09-12T10:35:39.789Z</time>
      </trkpt>
      <trkpt lat="45.72164" lon="5.88205">
        <ele>254</ele>
        <time>2021-09-12T10:35:40.789Z</time>
      </trkpt>
      <trkpt lat="45.7216" lon="5.88215">
        <ele>253</ele>
        <time>2021-09-12T10:35:41.788Z</time>
      </trkpt>
      <trkpt lat="45.72156" lon="5.88224">
        <ele>252</ele>
        <time>2021-09-12T10:35:42.788Z</time>
      </trkpt>
      <trkpt lat="45.72151" lon="5.88233">
        <ele>252</ele>
        <time>2021-09-12T10:35:43.789Z</time>
      </trkpt>
      <trkpt lat="45.72147" lon="5.88242">
        <ele>251</ele>
        <time>2021-09-12T10:35:44.788Z</time>
      </trkpt>
      <trkpt lat="45.72143" lon="5.88251">
        <ele>250</ele>
        <time>2021-09-12T10:35:45.789Z</time>
      </trkpt>
      <trkpt lat="45.72139" lon="5.8826">
        <ele>250</ele>
        <time>2021-09-12T10:35:46.789Z</time>
      </trkpt>
      <trkpt lat="45.72135" lon="5.88269">
        <ele>250</ele>
        <time>2021-09-12T10:35:47.788Z</time>
      </trkpt>
      <trkpt lat="45.72131" lon="5.88277">
        <ele>250</ele>
        <time>2021-09-12T10:35:48.789Z</time>
      </trkpt>
      <trkpt lat="45.72127" lon="5.88285">
        <ele>250</ele>
        <time>2021-09-12T10:35:49.789Z</time>
      </trkpt>
      <trkpt lat="45.72124" lon="5.88292">
        <ele>250</ele>
        <time>2021-09-12T10:35:50.789Z</time>
      </trkpt>
      <trkpt lat="45.7212" lon="5.883">
        <ele>251</ele>
        <time>2021-09-12T10:35:51.789Z</time>
      </trkpt>
      <trkpt lat="45.72117" lon="5.88307">
        <ele>251</ele>
        <time>2021-09-12T10:35:52.789Z</time>
      </trkpt>
      <trkpt lat="45.72113" lon="5.88314">
        <ele>251</ele>
        <time>2021-09-12T10:35:53.789Z</time>
      </trkpt>
      <trkpt lat="45.7211" lon="5.88321">
        <ele>252</ele>
        <time>2021-09-12T10:35:54.788Z</time>
      </trkpt>
      <trkpt lat="45.72107" lon="5.88328">
        <ele>252</ele>
        <time>2021-09-12T10:35:55.789Z</time>
      </trkpt>
      <trkpt lat="45.72104" lon="5.88334">
        <ele>253</ele>
        <time>2021-09-12T10:35:56.789Z</time>
      </trkpt>
      <trkpt lat="45.72101" lon="5.8834">
        <ele>254</ele>
        <time>2021-09-12T10:35:57.789Z</time>
      </trkpt>
      <trkpt lat="45.72097" lon="5.88346">
        <ele>254</ele>
        <time>2021-09-12T10:35:58.788Z</time>
      </trkpt>
      <trkpt lat="45.72094" lon="5.88352">
        <ele>253</ele>
        <time>2021-09-12T10:35:59.789Z</time>
      </trkpt>
      <trkpt lat="45.72092" lon="5.88358">
        <ele>253</ele>
        <time>2021-09-12T10:36:00.789Z</time>
      </trkpt>
      <trkpt lat="45.72089" lon="5.88363">
        <ele>253</ele>
        <time>2021-09-12T10:36:01.788Z</time>
      </trkpt>
      <trkpt lat="45.72087" lon="5.88368">
        <ele>252</ele>
        <time>2021-09-12T10:36:02.789Z</time>
      </trkpt>
      <trkpt lat="45.72084" lon="5.88374">
        <ele>252</ele>
        <time>2021-09-12T10:36:03.789Z</time>
      </trkpt>
      <trkpt lat="45.72081" lon="5.88379">
        <ele>252</ele>
        <time>2021-09-12T10:36:04.789Z</time>
      </trkpt>
      <trkpt lat="45.72079" lon="5.88384">
        <ele>252</ele>
        <time>2021-09-12T10:36:05.788Z</time>
      </trkpt>
      <trkpt lat="45.72077" lon="5.88389">
        <ele>252</ele>
        <time>2021-09-12T10:36:06.789Z</time>
      </trkpt>
      <trkpt lat="45.72074" lon="5.88393">
        <ele>252</ele>
        <time>2021-09-12T10:36:07.789Z</time>
      </trkpt>
      <trkpt lat="45.72072" lon="5.88398">
        <ele>253</ele>
        <time>2021-09-12T10:36:08.789Z</time>
      </trkpt>
      <trkpt lat="45.72069" lon="5.88403">
        <ele>253</ele>
        <time>2021-09-12T10:36:09.789Z</time>
      </trkpt>
      <trkpt lat="45.72067" lon="5.88407">
        <ele>253</ele>
        <time>2021-09-12T10:36:10.789Z</time>
      </trkpt>
      <trkpt lat="45.72065" lon="5.88411">
        <ele>253</ele>
        <time>2021-09-12T10:36:11.789Z</time>
      </trkpt>
      <trkpt lat="45.72062" lon="5.88414">
        <ele>254</ele>
        <time>2021-09-12T10:36:12.789Z</time>
      </trkpt>
      <trkpt lat="45.7206" lon="5.88419">
        <ele>254</ele>
        <time>2021-09-12T10:36:13.789Z</time>
      </trkpt>
      <trkpt lat="45.72058" lon="5.88423">
        <ele>255</ele>
        <time>2021-09-12T10:36:14.789Z</time>
      </trkpt>
      <trkpt lat="45.72056" lon="5.88428">
        <ele>255</ele>
        <time>2021-09-12T10:36:15.789Z</time>
      </trkpt>
      <trkpt lat="45.72053" lon="5.88432">
        <ele>255</ele>
        <time>2021-09-12T10:36:16.788Z</time>
      </trkpt>
      <trkpt lat="45.72051" lon="5.88436">
        <ele>255</ele>
        <time>2021-09-12T10:36:17.789Z</time>
      </trkpt>
      <trkpt lat="45.72049" lon="5.88439">
        <ele>255</ele>
        <time>2021-09-12T10:36:18.789Z</time>
      </trkpt>
      <trkpt lat="45.72046" lon="5.88443">
        <ele>255</ele>
        <time>2021-09-12T10:36:19.788Z</time>
      </trkpt>
      <trkpt lat="45.72044" lon="5.88447">
        <ele>255</ele>
        <time>2021-09-12T10:36:20.789Z</time>
      </trkpt>
      <trkpt lat="45.72042" lon="5.88451">
        <ele>255</ele>
        <time>2021-09-12T10:36:21.789Z</time>
      </trkpt>
      <trkpt lat="45.72039" lon="5.88455">
        <ele>255</ele>
        <time>2021-09-12T10:36:22.789Z</time>
      </trkpt>
      <trkpt lat="45.72036" lon="5.88458">
        <ele>255</ele>
        <time>2021-09-12T10:36:23.789Z</time>
      </trkpt>
      <trkpt lat="45.72034" lon="5.88462">
        <ele>255</ele>
        <time>2021-09-12T10:36:24.788Z</time>
      </trkpt>
      <trkpt lat="45.72031" lon="5.88465">
        <ele>256</ele>
        <time>2021-09-12T10:36:25.789Z</time>
      </trkpt>
      <trkpt lat="45.72029" lon="5.88468">
        <ele>257</ele>
        <time>2021-09-12T10:36:26.789Z</time>
      </trkpt>
      <trkpt lat="45.72027" lon="5.88472">
        <ele>258</ele>
        <time>2021-09-12T10:36:27.788Z</time>
      </trkpt>
      <trkpt lat="45.72024" lon="5.88475">
        <ele>259</ele>
        <time>2021-09-12T10:36:28.789Z</time>
      </trkpt>
      <trkpt lat="45.72022" lon="5.88478">
        <ele>260</ele>
        <time>2021-09-12T10:36:29.789Z</time>
      </trkpt>
      <trkpt lat="45.7202" lon="5.88482">
        <ele>260</ele>
        <time>2021-09-12T10:36:30.789Z</time>
      </trkpt>
      <trkpt lat="45.72018" lon="5.88485">
        <ele>260</ele>
        <time>2021-09-12T10:36:31.789Z</time>
      </trkpt>
      <trkpt lat="45.72016" lon="5.88488">
        <ele>260</ele>
        <time>2021-09-12T10:36:32.789Z</time>
      </trkpt>
      <trkpt lat="45.72013" lon="5.88493">
        <ele>260</ele>
        <time>2021-09-12T10:36:33.789Z</time>
      </trkpt>
      <trkpt lat="45.7201" lon="5.88496">
        <ele>260</ele>
        <time>2021-09-12T10:36:34.789Z</time>
      </trkpt>
      <trkpt lat="45.72008" lon="5.885">
        <ele>260</ele>
        <time>2021-09-12T10:36:35.788Z</time>
      </trkpt>
      <trkpt lat="45.72006" lon="5.88505">
        <ele>261</ele>
        <time>2021-09-12T10:36:36.788Z</time>
      </trkpt>
      <trkpt lat="45.72003" lon="5.88508">
        <ele>261</ele>
        <time>2021-09-12T10:36:37.788Z</time>
      </trkpt>
      <trkpt lat="45.72" lon="5.88512">
        <ele>261</ele>
        <time>2021-09-12T10:36:38.789Z</time>
      </trkpt>
      <trkpt lat="45.71997" lon="5.88516">
        <ele>261</ele>
        <time>2021-09-12T10:36:39.789Z</time>
      </trkpt>
      <trkpt lat="45.71994" lon="5.88519">
        <ele>261</ele>
        <time>2021-09-12T10:36:40.789Z</time>
      </trkpt>
      <trkpt lat="45.71991" lon="5.88523">
        <ele>261</ele>
        <time>2021-09-12T10:36:41.788Z</time>
      </trkpt>
      <trkpt lat="45.71989" lon="5.88526">
        <ele>261</ele>
        <time>2021-09-12T10:36:42.788Z</time>
      </trkpt>
      <trkpt lat="45.71986" lon="5.8853">
        <ele>261</ele>
        <time>2021-09-12T10:36:43.789Z</time>
      </trkpt>
      <trkpt lat="45.71983" lon="5.88534">
        <ele>261</ele>
        <time>2021-09-12T10:36:44.788Z</time>
      </trkpt>
      <trkpt lat="45.71979" lon="5.88538">
        <ele>261</ele>
        <time>2021-09-12T10:36:45.789Z</time>
      </trkpt>
      <trkpt lat="45.71976" lon="5.88542">
        <ele>262</ele>
        <time>2021-09-12T10:36:46.789Z</time>
      </trkpt>
      <trkpt lat="45.71974" lon="5.88546">
        <ele>261</ele>
        <time>2021-09-12T10:36:47.789Z</time>
      </trkpt>
      <trkpt lat="45.71972" lon="5.88549">
        <ele>261</ele>
        <time>2021-09-12T10:36:48.789Z</time>
      </trkpt>
      <trkpt lat="45.71968" lon="5.88554">
        <ele>262</ele>
        <time>2021-09-12T10:36:49.788Z</time>
      </trkpt>
      <trkpt lat="45.71966" lon="5.88557">
        <ele>262</ele>
        <time>2021-09-12T10:36:50.788Z</time>
      </trkpt>
      <trkpt lat="45.71962" lon="5.88561">
        <ele>262</ele>
        <time>2021-09-12T10:36:51.789Z</time>
      </trkpt>
      <trkpt lat="45.71959" lon="5.88564">
        <ele>262</ele>
        <time>2021-09-12T10:36:52.789Z</time>
      </trkpt>
      <trkpt lat="45.71955" lon="5.88568">
        <ele>262</ele>
        <time>2021-09-12T10:36:53.789Z</time>
      </trkpt>
      <trkpt lat="45.71952" lon="5.88572">
        <ele>262</ele>
        <time>2021-09-12T10:36:54.789Z</time>
      </trkpt>
      <trkpt lat="45.71948" lon="5.88575">
        <ele>262</ele>
        <time>2021-09-12T10:36:55.789Z</time>
      </trkpt>
      <trkpt lat="45.71944" lon="5.88579">
        <ele>262</ele>
        <time>2021-09-12T10:36:56.788Z</time>
      </trkpt>
      <trkpt lat="45.7194" lon="5.88582">
        <ele>262</ele>
        <time>2021-09-12T10:36:57.789Z</time>
      </trkpt>
      <trkpt lat="45.71936" lon="5.88586">
        <ele>262</ele>
        <time>2021-09-12T10:36:58.788Z</time>
      </trkpt>
      <trkpt lat="45.71932" lon="5.88589">
        <ele>262</ele>
        <time>2021-09-12T10:36:59.788Z</time>
      </trkpt>
      <trkpt lat="45.71929" lon="5.88592">
        <ele>262</ele>
        <time>2021-09-12T10:37:00.789Z</time>
      </trkpt>
      <trkpt lat="45.71925" lon="5.88596">
        <ele>262</ele>
        <time>2021-09-12T10:37:01.789Z</time>
      </trkpt>
      <trkpt lat="45.71921" lon="5.88599">
        <ele>261</ele>
        <time>2021-09-12T10:37:02.789Z</time>
      </trkpt>
      <trkpt lat="45.71917" lon="5.88602">
        <ele>262</ele>
        <time>2021-09-12T10:37:03.788Z</time>
      </trkpt>
      <trkpt lat="45.71913" lon="5.88605">
        <ele>262</ele>
        <time>2021-09-12T10:37:04.789Z</time>
      </trkpt>
      <trkpt lat="45.71909" lon="5.88609">
        <ele>262</ele>
        <time>2021-09-12T10:37:05.788Z</time>
      </trkpt>
      <trkpt lat="45.71905" lon="5.88612">
        <ele>262</ele>
        <time>2021-09-12T10:37:06.788Z</time>
      </trkpt>
      <trkpt lat="45.71902" lon="5.88615">
        <ele>262</ele>
        <time>2021-09-12T10:37:07.789Z</time>
      </trkpt>
      <trkpt lat="45.71898" lon="5.88619">
        <ele>261</ele>
        <time>2021-09-12T10:37:08.788Z</time>
      </trkpt>
      <trkpt lat="45.71894" lon="5.88622">
        <ele>262</ele>
        <time>2021-09-12T10:37:09.788Z</time>
      </trkpt>
      <trkpt lat="45.7189" lon="5.88625">
        <ele>262</ele>
        <time>2021-09-12T10:37:10.789Z</time>
      </trkpt>
      <trkpt lat="45.71887" lon="5.88628">
        <ele>262</ele>
        <time>2021-09-12T10:37:11.788Z</time>
      </trkpt>
      <trkpt lat="45.71883" lon="5.88631">
        <ele>262</ele>
        <time>2021-09-12T10:37:12.789Z</time>
      </trkpt>
      <trkpt lat="45.71879" lon="5.88634">
        <ele>262</ele>
        <time>2021-09-12T10:37:13.789Z</time>
      </trkpt>
      <trkpt lat="45.71876" lon="5.88637">
        <ele>263</ele>
        <time>2021-09-12T10:37:14.789Z</time>
      </trkpt>
      <trkpt lat="45.71872" lon="5.88639">
        <ele>263</ele>
        <time>2021-09-12T10:37:15.789Z</time>
      </trkpt>
      <trkpt lat="45.71869" lon="5.88641">
        <ele>263</ele>
        <time>2021-09-12T10:37:16.789Z</time>
      </trkpt>
      <trkpt lat="45.71866" lon="5.88643">
        <ele>264</ele>
        <time>2021-09-12T10:37:17.789Z</time>
      </trkpt>
      <trkpt lat="45.71863" lon="5.88646">
        <ele>264</ele>
        <time>2021-09-12T10:37:18.789Z</time>
      </trkpt>
      <trkpt lat="45.7186" lon="5.88648">
        <ele>264</ele>
        <time>2021-09-12T10:37:19.788Z</time>
      </trkpt>
      <trkpt lat="45.71856" lon="5.8865">
        <ele>264</ele>
        <time>2021-09-12T10:37:20.789Z</time>
      </trkpt>
      <trkpt lat="45.71853" lon="5.88652">
        <ele>264</ele>
        <time>2021-09-12T10:37:21.788Z</time>
      </trkpt>
      <trkpt lat="45.7185" lon="5.88654">
        <ele>264</ele>
        <time>2021-09-12T10:37:22.789Z</time>
      </trkpt>
      <trkpt lat="45.71847" lon="5.88656">
        <ele>264</ele>
        <time>2021-09-12T10:37:23.789Z</time>
      </trkpt>
      <trkpt lat="45.71844" lon="5.88658">
        <ele>264</ele>
        <time>2021-09-12T10:37:24.788Z</time>
      </trkpt>
      <trkpt lat="45.7184" lon="5.88659">
        <ele>263</ele>
        <time>2021-09-12T10:37:25.788Z</time>
      </trkpt>
      <trkpt lat="45.71836" lon="5.88661">
        <ele>263</ele>
        <time>2021-09-12T10:37:26.789Z</time>
      </trkpt>
      <trkpt lat="45.71832" lon="5.88663">
        <ele>263</ele>
        <time>2021-09-12T10:37:27.789Z</time>
      </trkpt>
      <trkpt lat="45.71828" lon="5.88666">
        <ele>263</ele>
        <time>2021-09-12T10:37:28.789Z</time>
      </trkpt>
      <trkpt lat="45.71824" lon="5.88668">
        <ele>263</ele>
        <time>2021-09-12T10:37:29.789Z</time>
      </trkpt>
      <trkpt lat="45.7182" lon="5.8867">
        <ele>263</ele>
        <time>2021-09-12T10:37:30.789Z</time>
      </trkpt>
      <trkpt lat="45.71816" lon="5.88672">
        <ele>263</ele>
        <time>2021-09-12T10:37:31.788Z</time>
      </trkpt>
      <trkpt lat="45.71812" lon="5.88675">
        <ele>263</ele>
        <time>2021-09-12T10:37:32.789Z</time>
      </trkpt>
      <trkpt lat="45.71808" lon="5.88677">
        <ele>263</ele>
        <time>2021-09-12T10:37:33.789Z</time>
      </trkpt>
      <trkpt lat="45.71804" lon="5.88679">
        <ele>263</ele>
        <time>2021-09-12T10:37:34.789Z</time>
      </trkpt>
      <trkpt lat="45.718" lon="5.88681">
        <ele>262</ele>
        <time>2021-09-12T10:37:35.789Z</time>
      </trkpt>
      <trkpt lat="45.71795" lon="5.88683">
        <ele>262</ele>
        <time>2021-09-12T10:37:36.789Z</time>
      </trkpt>
      <trkpt lat="45.71791" lon="5.88685">
        <ele>262</ele>
        <time>2021-09-12T10:37:37.789Z</time>
      </trkpt>
      <trkpt lat="45.71787" lon="5.88688">
        <ele>261</ele>
        <time>2021-09-12T10:37:38.789Z</time>
      </trkpt>
      <trkpt lat="45.71782" lon="5.8869">
        <ele>261</ele>
        <time>2021-09-12T10:37:39.788Z</time>
      </trkpt>
      <trkpt lat="45.71777" lon="5.88693">
        <ele>261</ele>
        <time>2021-09-12T10:37:40.789Z</time>
      </trkpt>
      <trkpt lat="45.71772" lon="5.88696">
        <ele>261</ele>
        <time>2021-09-12T10:37:41.789Z</time>
      </trkpt>
      <trkpt lat="45.71766" lon="5.88699">
        <ele>261</ele>
        <time>2021-09-12T10:37:42.789Z</time>
      </trkpt>
      <trkpt lat="45.71761" lon="5.88702">
        <ele>261</ele>
        <time>2021-09-12T10:37:43.789Z</time>
      </trkpt>
      <trkpt lat="45.71755" lon="5.88705">
        <ele>261</ele>
        <time>2021-09-12T10:37:44.789Z</time>
      </trkpt>
      <trkpt lat="45.7175" lon="5.88709">
        <ele>261</ele>
        <time>2021-09-12T10:37:45.788Z</time>
      </trkpt>
      <trkpt lat="45.71744" lon="5.88712">
        <ele>261</ele>
        <time>2021-09-12T10:37:46.789Z</time>
      </trkpt>
      <trkpt lat="45.71739" lon="5.88715">
        <ele>261</ele>
        <time>2021-09-12T10:37:47.789Z</time>
      </trkpt>
      <trkpt lat="45.71733" lon="5.88718">
        <ele>260</ele>
        <time>2021-09-12T10:37:48.789Z</time>
      </trkpt>
      <trkpt lat="45.71727" lon="5.88721">
        <ele>260</ele>
        <time>2021-09-12T10:37:49.788Z</time>
      </trkpt>
      <trkpt lat="45.71722" lon="5.88724">
        <ele>260</ele>
        <time>2021-09-12T10:37:50.788Z</time>
      </trkpt>
      <trkpt lat="45.71716" lon="5.88728">
        <ele>260</ele>
        <time>2021-09-12T10:37:51.789Z</time>
      </trkpt>
      <trkpt lat="45.7171" lon="5.88731">
        <ele>260</ele>
        <time>2021-09-12T10:37:52.789Z</time>
      </trkpt>
      <trkpt lat="45.71704" lon="5.88734">
        <ele>260</ele>
        <time>2021-09-12T10:37:53.789Z</time>
      </trkpt>
      <trkpt lat="45.71697" lon="5.88738">
        <ele>261</ele>
        <time>2021-09-12T10:37:54.788Z</time>
      </trkpt>
      <trkpt lat="45.71691" lon="5.88741">
        <ele>261</ele>
        <time>2021-09-12T10:37:55.788Z</time>
      </trkpt>
      <trkpt lat="45.71685" lon="5.88745">
        <ele>262</ele>
        <time>2021-09-12T10:37:56.788Z</time>
      </trkpt>
      <trkpt lat="45.7168" lon="5.88747">
        <ele>262</ele>
        <time>2021-09-12T10:37:57.789Z</time>
      </trkpt>
      <trkpt lat="45.71674" lon="5.88751">
        <ele>262</ele>
        <time>2021-09-12T10:37:58.788Z</time>
      </trkpt>
      <trkpt lat="45.71666" lon="5.88755">
        <ele>262</ele>
        <time>2021-09-12T10:37:59.789Z</time>
      </trkpt>
      <trkpt lat="45.7166" lon="5.88758">
        <ele>262</ele>
        <time>2021-09-12T10:38:00.789Z</time>
      </trkpt>
      <trkpt lat="45.71654" lon="5.88762">
        <ele>262</ele>
        <time>2021-09-12T10:38:01.789Z</time>
      </trkpt>
      <trkpt lat="45.71648" lon="5.88766">
        <ele>262</ele>
        <time>2021-09-12T10:38:02.789Z</time>
      </trkpt>
      <trkpt lat="45.71642" lon="5.88769">
        <ele>262</ele>
        <time>2021-09-12T10:38:03.789Z</time>
      </trkpt>
      <trkpt lat="45.71635" lon="5.88774">
        <ele>262</ele>
        <time>2021-09-12T10:38:04.789Z</time>
      </trkpt>
      <trkpt lat="45.71628" lon="5.88778">
        <ele>262</ele>
        <time>2021-09-12T10:38:05.788Z</time>
      </trkpt>
      <trkpt lat="45.71622" lon="5.88782">
        <ele>262</ele>
        <time>2021-09-12T10:38:06.788Z</time>
      </trkpt>
      <trkpt lat="45.71615" lon="5.88787">
        <ele>262</ele>
        <time>2021-09-12T10:38:07.788Z</time>
      </trkpt>
      <trkpt lat="45.71609" lon="5.88792">
        <ele>262</ele>
        <time>2021-09-12T10:38:08.789Z</time>
      </trkpt>
      <trkpt lat="45.71602" lon="5.88798">
        <ele>262</ele>
        <time>2021-09-12T10:38:09.789Z</time>
      </trkpt>
      <trkpt lat="45.71596" lon="5.88805">
        <ele>261</ele>
        <time>2021-09-12T10:38:10.789Z</time>
      </trkpt>
      <trkpt lat="45.7159" lon="5.88812">
        <ele>261</ele>
        <time>2021-09-12T10:38:11.789Z</time>
      </trkpt>
      <trkpt lat="45.71584" lon="5.8882">
        <ele>261</ele>
        <time>2021-09-12T10:38:12.789Z</time>
      </trkpt>
      <trkpt lat="45.7158" lon="5.88826">
        <ele>261</ele>
        <time>2021-09-12T10:38:13.788Z</time>
      </trkpt>
      <trkpt lat="45.71574" lon="5.88836">
        <ele>261</ele>
        <time>2021-09-12T10:38:14.789Z</time>
      </trkpt>
      <trkpt lat="45.71569" lon="5.88844">
        <ele>262</ele>
        <time>2021-09-12T10:38:15.788Z</time>
      </trkpt>
      <trkpt lat="45.71564" lon="5.88851">
        <ele>262</ele>
        <time>2021-09-12T10:38:16.789Z</time>
      </trkpt>
      <trkpt lat="45.7156" lon="5.88857">
        <ele>261</ele>
        <time>2021-09-12T10:38:17.789Z</time>
      </trkpt>
      <trkpt lat="45.71554" lon="5.88866">
        <ele>261</ele>
        <time>2021-09-12T10:38:18.789Z</time>
      </trkpt>
      <trkpt lat="45.7155" lon="5.88873">
        <ele>260</ele>
        <time>2021-09-12T10:38:19.788Z</time>
      </trkpt>
      <trkpt lat="45.71546" lon="5.88879">
        <ele>260</ele>
        <time>2021-09-12T10:38:20.789Z</time>
      </trkpt>
      <trkpt lat="45.71541" lon="5.88887">
        <ele>260</ele>
        <time>2021-09-12T10:38:21.789Z</time>
      </trkpt>
      <trkpt lat="45.71537" lon="5.88894">
        <ele>260</ele>
        <time>2021-09-12T10:38:22.789Z</time>
      </trkpt>
      <trkpt lat="45.71532" lon="5.88901">
        <ele>260</ele>
        <time>2021-09-12T10:38:23.789Z</time>
      </trkpt>
      <trkpt lat="45.71528" lon="5.88908">
        <ele>260</ele>
        <time>2021-09-12T10:38:24.789Z</time>
      </trkpt>
      <trkpt lat="45.71524" lon="5.88914">
        <ele>260</ele>
        <time>2021-09-12T10:38:25.789Z</time>
      </trkpt>
      <trkpt lat="45.7152" lon="5.88921">
        <ele>260</ele>
        <time>2021-09-12T10:38:26.789Z</time>
      </trkpt>
      <trkpt lat="45.71516" lon="5.88926">
        <ele>260</ele>
        <time>2021-09-12T10:38:27.789Z</time>
      </trkpt>
      <trkpt lat="45.71512" lon="5.88932">
        <ele>259</ele>
        <time>2021-09-12T10:38:28.789Z</time>
      </trkpt>
      <trkpt lat="45.71508" lon="5.88938">
        <ele>260</ele>
        <time>2021-09-12T10:38:29.789Z</time>
      </trkpt>
      <trkpt lat="45.71505" lon="5.88944">
        <ele>260</ele>
        <time>2021-09-12T10:38:30.789Z</time>
      </trkpt>
      <trkpt lat="45.71501" lon="5.88949">
        <ele>261</ele>
        <time>2021-09-12T10:38:31.789Z</time>
      </trkpt>
      <trkpt lat="45.71497" lon="5.88954">
        <ele>261</ele>
        <time>2021-09-12T10:38:32.789Z</time>
      </trkpt>
      <trkpt lat="45.71493" lon="5.88958">
        <ele>262</ele>
        <time>2021-09-12T10:38:33.789Z</time>
      </trkpt>
      <trkpt lat="45.7149" lon="5.88963">
        <ele>262</ele>
        <time>2021-09-12T10:38:34.789Z</time>
      </trkpt>
      <trkpt lat="45.71487" lon="5.88966">
        <ele>262</ele>
        <time>2021-09-12T10:38:35.789Z</time>
      </trkpt>
      <trkpt lat="45.71483" lon="5.8897">
        <ele>262</ele>
        <time>2021-09-12T10:38:36.789Z</time>
      </trkpt>
      <trkpt lat="45.7148" lon="5.88974">
        <ele>262</ele>
        <time>2021-09-12T10:38:37.788Z</time>
      </trkpt>
      <trkpt lat="45.71476" lon="5.88979">
        <ele>262</ele>
        <time>2021-09-12T10:38:38.789Z</time>
      </trkpt>
      <trkpt lat="45.71472" lon="5.88983">
        <ele>262</ele>
        <time>2021-09-12T10:38:39.789Z</time>
      </trkpt>
      <trkpt lat="45.71469" lon="5.88987">
        <ele>262</ele>
        <time>2021-09-12T10:38:40.788Z</time>
      </trkpt>
      <trkpt lat="45.71465" lon="5.88991">
        <ele>262</ele>
        <time>2021-09-12T10:38:41.789Z</time>
      </trkpt>
      <trkpt lat="45.71462" lon="5.88996">
        <ele>263</ele>
        <time>2021-09-12T10:38:42.789Z</time>
      </trkpt>
      <trkpt lat="45.71458" lon="5.89">
        <ele>263</ele>
        <time>2021-09-12T10:38:43.788Z</time>
      </trkpt>
      <trkpt lat="45.71454" lon="5.89004">
        <ele>263</ele>
        <time>2021-09-12T10:38:44.788Z</time>
      </trkpt>
      <trkpt lat="45.7145" lon="5.89009">
        <ele>263</ele>
        <time>2021-09-12T10:38:45.789Z</time>
      </trkpt>
      <trkpt lat="45.71446" lon="5.89013">
        <ele>263</ele>
        <time>2021-09-12T10:38:46.788Z</time>
      </trkpt>
      <trkpt lat="45.71443" lon="5.89017">
        <ele>264</ele>
        <time>2021-09-12T10:38:47.789Z</time>
      </trkpt>
      <trkpt lat="45.71439" lon="5.89022">
        <ele>264</ele>
        <time>2021-09-12T10:38:48.789Z</time>
      </trkpt>
      <trkpt lat="45.71435" lon="5.89026">
        <ele>264</ele>
        <time>2021-09-12T10:38:49.789Z</time>
      </trkpt>
      <trkpt lat="45.71431" lon="5.89031">
        <ele>264</ele>
        <time>2021-09-12T10:38:50.789Z</time>
      </trkpt>
      <trkpt lat="45.71428" lon="5.89035">
        <ele>264</ele>
        <time>2021-09-12T10:38:51.789Z</time>
      </trkpt>
      <trkpt lat="45.71424" lon="5.89039">
        <ele>264</ele>
        <time>2021-09-12T10:38:52.789Z</time>
      </trkpt>
      <trkpt lat="45.7142" lon="5.89043">
        <ele>265</ele>
        <time>2021-09-12T10:38:53.789Z</time>
      </trkpt>
      <trkpt lat="45.71416" lon="5.89048">
        <ele>265</ele>
        <time>2021-09-12T10:38:54.788Z</time>
      </trkpt>
      <trkpt lat="45.71413" lon="5.89052">
        <ele>265</ele>
        <time>2021-09-12T10:38:55.789Z</time>
      </trkpt>
      <trkpt lat="45.71409" lon="5.89056">
        <ele>265</ele>
        <time>2021-09-12T10:38:56.789Z</time>
      </trkpt>
      <trkpt lat="45.71406" lon="5.8906">
        <ele>265</ele>
        <time>2021-09-12T10:38:57.788Z</time>
      </trkpt>
      <trkpt lat="45.71402" lon="5.89064">
        <ele>265</ele>
        <time>2021-09-12T10:38:58.789Z</time>
      </trkpt>
      <trkpt lat="45.71399" lon="5.89069">
        <ele>265</ele>
        <time>2021-09-12T10:38:59.789Z</time>
      </trkpt>
      <trkpt lat="45.71395" lon="5.89073">
        <ele>265</ele>
        <time>2021-09-12T10:39:00.789Z</time>
      </trkpt>
      <trkpt lat="45.71392" lon="5.89077">
        <ele>265</ele>
        <time>2021-09-12T10:39:01.789Z</time>
      </trkpt>
      <trkpt lat="45.71389" lon="5.89081">
        <ele>265</ele>
        <time>2021-09-12T10:39:02.788Z</time>
      </trkpt>
      <trkpt lat="45.71385" lon="5.89085">
        <ele>265</ele>
        <time>2021-09-12T10:39:03.789Z</time>
      </trkpt>
      <trkpt lat="45.71382" lon="5.89088">
        <ele>265</ele>
        <time>2021-09-12T10:39:04.789Z</time>
      </trkpt>
      <trkpt lat="45.71378" lon="5.89092">
        <ele>265</ele>
        <time>2021-09-12T10:39:05.788Z</time>
      </trkpt>
      <trkpt lat="45.71375" lon="5.89096">
        <ele>264</ele>
        <time>2021-09-12T10:39:06.789Z</time>
      </trkpt>
      <trkpt lat="45.71371" lon="5.891">
        <ele>264</ele>
        <time>2021-09-12T10:39:07.788Z</time>
      </trkpt>
      <trkpt lat="45.71368" lon="5.89104">
        <ele>265</ele>
        <time>2021-09-12T10:39:08.789Z</time>
      </trkpt>
      <trkpt lat="45.71364" lon="5.89109">
        <ele>265</ele>
        <time>2021-09-12T10:39:09.789Z</time>
      </trkpt>
      <trkpt lat="45.71361" lon="5.89113">
        <ele>266</ele>
        <time>2021-09-12T10:39:10.789Z</time>
      </trkpt>
      <trkpt lat="45.71357" lon="5.89118">
        <ele>266</ele>
        <time>2021-09-12T10:39:11.789Z</time>
      </trkpt>
      <trkpt lat="45.71354" lon="5.89122">
        <ele>267</ele>
        <time>2021-09-12T10:39:12.788Z</time>
      </trkpt>
      <trkpt lat="45.71351" lon="5.89127">
        <ele>267</ele>
        <time>2021-09-12T10:39:13.789Z</time>
      </trkpt>
      <trkpt lat="45.71348" lon="5.89133">
        <ele>267</ele>
        <time>2021-09-12T10:39:14.789Z</time>
      </trkpt>
      <trkpt lat="45.71345" lon="5.89138">
        <ele>267</ele>
        <time>2021-09-12T10:39:15.789Z</time>
      </trkpt>
      <trkpt lat="45.71342" lon="5.89143">
        <ele>267</ele>
        <time>2021-09-12T10:39:16.788Z</time>
      </trkpt>
      <trkpt lat="45.7134" lon="5.89149">
        <ele>267</ele>
        <time>2021-09-12T10:39:17.789Z</time>
      </trkpt>
      <trkpt lat="45.71337" lon="5.89155">
        <ele>266</ele>
        <time>2021-09-12T10:39:18.789Z</time>
      </trkpt>
      <trkpt lat="45.71335" lon="5.89161">
        <ele>266</ele>
        <time>2021-09-12T10:39:19.789Z</time>
      </trkpt>
      <trkpt lat="45.71333" lon="5.89166">
        <ele>266</ele>
        <time>2021-09-12T10:39:20.789Z</time>
      </trkpt>
      <trkpt lat="45.71331" lon="5.89172">
        <ele>266</ele>
        <time>2021-09-12T10:39:21.789Z</time>
      </trkpt>
      <trkpt lat="45.7133" lon="5.89177">
        <ele>266</ele>
        <time>2021-09-12T10:39:22.789Z</time>
      </trkpt>
      <trkpt lat="45.71328" lon="5.89184">
        <ele>266</ele>
        <time>2021-09-12T10:39:23.789Z</time>
      </trkpt>
      <trkpt lat="45.71327" lon="5.8919">
        <ele>265</ele>
        <time>2021-09-12T10:39:24.788Z</time>
      </trkpt>
      <trkpt lat="45.71326" lon="5.89195">
        <ele>265</ele>
        <time>2021-09-12T10:39:25.788Z</time>
      </trkpt>
      <trkpt lat="45.71325" lon="5.892">
        <ele>265</ele>
        <time>2021-09-12T10:39:26.789Z</time>
      </trkpt>
      <trkpt lat="45.71324" lon="5.89206">
        <ele>265</ele>
        <time>2021-09-12T10:39:27.789Z</time>
      </trkpt>
      <trkpt lat="45.71323" lon="5.89212">
        <ele>265</ele>
        <time>2021-09-12T10:39:28.789Z</time>
      </trkpt>
      <trkpt lat="45.71323" lon="5.89219">
        <ele>266</ele>
        <time>2021-09-12T10:39:29.788Z</time>
      </trkpt>
      <trkpt lat="45.71322" lon="5.89225">
        <ele>266</ele>
        <time>2021-09-12T10:39:30.789Z</time>
      </trkpt>
      <trkpt lat="45.71322" lon="5.89231">
        <ele>266</ele>
        <time>2021-09-12T10:39:31.789Z</time>
      </trkpt>
      <trkpt lat="45.71322" lon="5.89237">
        <ele>267</ele>
        <time>2021-09-12T10:39:32.789Z</time>
      </trkpt>
      <trkpt lat="45.71321" lon="5.89242">
        <ele>267</ele>
        <time>2021-09-12T10:39:33.789Z</time>
      </trkpt>
      <trkpt lat="45.71321" lon="5.89248">
        <ele>268</ele>
        <time>2021-09-12T10:39:34.788Z</time>
      </trkpt>
      <trkpt lat="45.7132" lon="5.89254">
        <ele>268</ele>
        <time>2021-09-12T10:39:35.789Z</time>
      </trkpt>
      <trkpt lat="45.7132" lon="5.8926">
        <ele>269</ele>
        <time>2021-09-12T10:39:36.789Z</time>
      </trkpt>
      <trkpt lat="45.71319" lon="5.89265">
        <ele>270</ele>
        <time>2021-09-12T10:39:37.789Z</time>
      </trkpt>
      <trkpt lat="45.71319" lon="5.89271">
        <ele>270</ele>
        <time>2021-09-12T10:39:38.789Z</time>
      </trkpt>
      <trkpt lat="45.71319" lon="5.89276">
        <ele>271</ele>
        <time>2021-09-12T10:39:39.789Z</time>
      </trkpt>
      <trkpt lat="45.71319" lon="5.89281">
        <ele>271</ele>
        <time>2021-09-12T10:39:40.789Z</time>
      </trkpt>
      <trkpt lat="45.71319" lon="5.89286">
        <ele>271</ele>
        <time>2021-09-12T10:39:41.789Z</time>
      </trkpt>
      <trkpt lat="45.71319" lon="5.89291">
        <ele>271</ele>
        <time>2021-09-12T10:39:42.789Z</time>
      </trkpt>
      <trkpt lat="45.71319" lon="5.89298">
        <ele>271</ele>
        <time>2021-09-12T10:39:43.789Z</time>
      </trkpt>
      <trkpt lat="45.71318" lon="5.89302">
        <ele>271</ele>
        <time>2021-09-12T10:39:44.789Z</time>
      </trkpt>
      <trkpt lat="45.71317" lon="5.89307">
        <ele>272</ele>
        <time>2021-09-12T10:39:45.789Z</time>
      </trkpt>
      <trkpt lat="45.71316" lon="5.8931">
        <ele>272</ele>
        <time>2021-09-12T10:39:46.788Z</time>
      </trkpt>
      <trkpt lat="45.71315" lon="5.89315">
        <ele>272</ele>
        <time>2021-09-12T10:39:47.788Z</time>
      </trkpt>
      <trkpt lat="45.71314" lon="5.8932">
        <ele>272</ele>
        <time>2021-09-12T10:39:48.788Z</time>
      </trkpt>
      <trkpt lat="45.71313" lon="5.89327">
        <ele>272</ele>
        <time>2021-09-12T10:39:49.789Z</time>
      </trkpt>
      <trkpt lat="45.71311" lon="5.89332">
        <ele>272</ele>
        <time>2021-09-12T10:39:50.789Z</time>
      </trkpt>
      <trkpt lat="45.71309" lon="5.89337">
        <ele>272</ele>
        <time>2021-09-12T10:39:51.788Z</time>
      </trkpt>
      <trkpt lat="45.71306" lon="5.89341">
        <ele>272</ele>
        <time>2021-09-12T10:39:52.789Z</time>
      </trkpt>
      <trkpt lat="45.71302" lon="5.89344">
        <ele>272</ele>
        <time>2021-09-12T10:39:53.789Z</time>
      </trkpt>
      <trkpt lat="45.71297" lon="5.89345">
        <ele>273</ele>
        <time>2021-09-12T10:39:54.789Z</time>
      </trkpt>
      <trkpt lat="45.71292" lon="5.89346">
        <ele>273</ele>
        <time>2021-09-12T10:39:55.788Z</time>
      </trkpt>
      <trkpt lat="45.71287" lon="5.89345">
        <ele>273</ele>
        <time>2021-09-12T10:39:56.789Z</time>
      </trkpt>
      <trkpt lat="45.71281" lon="5.89344">
        <ele>273</ele>
        <time>2021-09-12T10:39:57.789Z</time>
      </trkpt>
      <trkpt lat="45.71275" lon="5.89343">
        <ele>272</ele>
        <time>2021-09-12T10:39:58.789Z</time>
      </trkpt>
      <trkpt lat="45.71269" lon="5.89341">
        <ele>272</ele>
        <time>2021-09-12T10:39:59.789Z</time>
      </trkpt>
      <trkpt lat="45.71262" lon="5.89338">
        <ele>271</ele>
        <time>2021-09-12T10:40:00.789Z</time>
      </trkpt>
      <trkpt lat="45.71254" lon="5.89336">
        <ele>271</ele>
        <time>2021-09-12T10:40:01.788Z</time>
      </trkpt>
      <trkpt lat="45.71248" lon="5.89334">
        <ele>272</ele>
        <time>2021-09-12T10:40:02.788Z</time>
      </trkpt>
      <trkpt lat="45.71241" lon="5.89331">
        <ele>272</ele>
        <time>2021-09-12T10:40:03.789Z</time>
      </trkpt>
      <trkpt lat="45.71233" lon="5.89329">
        <ele>272</ele>
        <time>2021-09-12T10:40:04.789Z</time>
      </trkpt>
      <trkpt lat="45.71226" lon="5.89326">
        <ele>272</ele>
        <time>2021-09-12T10:40:05.789Z</time>
      </trkpt>
      <trkpt lat="45.71218" lon="5.89323">
        <ele>272</ele>
        <time>2021-09-12T10:40:06.788Z</time>
      </trkpt>
      <trkpt lat="45.7121" lon="5.89321">
        <ele>272</ele>
        <time>2021-09-12T10:40:07.789Z</time>
      </trkpt>
      <trkpt lat="45.71202" lon="5.89319">
        <ele>271</ele>
        <time>2021-09-12T10:40:08.788Z</time>
      </trkpt>
      <trkpt lat="45.71194" lon="5.89317">
        <ele>271</ele>
        <time>2021-09-12T10:40:09.788Z</time>
      </trkpt>
      <trkpt lat="45.71186" lon="5.89316">
        <ele>271</ele>
        <time>2021-09-12T10:40:10.788Z</time>
      </trkpt>
      <trkpt lat="45.71178" lon="5.89316">
        <ele>270</ele>
        <time>2021-09-12T10:40:11.789Z</time>
      </trkpt>
      <trkpt lat="45.7117" lon="5.89316">
        <ele>270</ele>
        <time>2021-09-12T10:40:12.789Z</time>
      </trkpt>
      <trkpt lat="45.71162" lon="5.89316">
        <ele>270</ele>
        <time>2021-09-12T10:40:13.789Z</time>
      </trkpt>
      <trkpt lat="45.71154" lon="5.89317">
        <ele>270</ele>
        <time>2021-09-12T10:40:14.789Z</time>
      </trkpt>
      <trkpt lat="45.71146" lon="5.89318">
        <ele>270</ele>
        <time>2021-09-12T10:40:15.789Z</time>
      </trkpt>
      <trkpt lat="45.71138" lon="5.8932">
        <ele>270</ele>
        <time>2021-09-12T10:40:16.789Z</time>
      </trkpt>
      <trkpt lat="45.7113" lon="5.89321">
        <ele>270</ele>
        <time>2021-09-12T10:40:17.789Z</time>
      </trkpt>
      <trkpt lat="45.71123" lon="5.89323">
        <ele>269</ele>
        <time>2021-09-12T10:40:18.789Z</time>
      </trkpt>
      <trkpt lat="45.71115" lon="5.89326">
        <ele>269</ele>
        <time>2021-09-12T10:40:19.789Z</time>
      </trkpt>
      <trkpt lat="45.71108" lon="5.89328">
        <ele>268</ele>
        <time>2021-09-12T10:40:20.789Z</time>
      </trkpt>
      <trkpt lat="45.71101" lon="5.8933">
        <ele>268</ele>
        <time>2021-09-12T10:40:21.789Z</time>
      </trkpt>
      <trkpt lat="45.71092" lon="5.89333">
        <ele>267</ele>
        <time>2021-09-12T10:40:22.788Z</time>
      </trkpt>
      <trkpt lat="45.71086" lon="5.89335">
        <ele>266</ele>
        <time>2021-09-12T10:40:23.788Z</time>
      </trkpt>
      <trkpt lat="45.71078" lon="5.89338">
        <ele>266</ele>
        <time>2021-09-12T10:40:24.789Z</time>
      </trkpt>
      <trkpt lat="45.7107" lon="5.89341">
        <ele>265</ele>
        <time>2021-09-12T10:40:25.789Z</time>
      </trkpt>
      <trkpt lat="45.71062" lon="5.89344">
        <ele>265</ele>
        <time>2021-09-12T10:40:26.788Z</time>
      </trkpt>
      <trkpt lat="45.71056" lon="5.89346">
        <ele>265</ele>
        <time>2021-09-12T10:40:27.788Z</time>
      </trkpt>
      <trkpt lat="45.71048" lon="5.89349">
        <ele>265</ele>
        <time>2021-09-12T10:40:28.789Z</time>
      </trkpt>
      <trkpt lat="45.71038" lon="5.89352">
        <ele>265</ele>
        <time>2021-09-12T10:40:29.788Z</time>
      </trkpt>
      <trkpt lat="45.71031" lon="5.89355">
        <ele>264</ele>
        <time>2021-09-12T10:40:30.788Z</time>
      </trkpt>
      <trkpt lat="45.71023" lon="5.89357">
        <ele>264</ele>
        <time>2021-09-12T10:40:31.789Z</time>
      </trkpt>
      <trkpt lat="45.71017" lon="5.89359">
        <ele>263</ele>
        <time>2021-09-12T10:40:32.789Z</time>
      </trkpt>
      <trkpt lat="45.7101" lon="5.89361">
        <ele>262</ele>
        <time>2021-09-12T10:40:33.789Z</time>
      </trkpt>
      <trkpt lat="45.71001" lon="5.89362">
        <ele>262</ele>
        <time>2021-09-12T10:40:34.789Z</time>
      </trkpt>
      <trkpt lat="45.70994" lon="5.89361">
        <ele>261</ele>
        <time>2021-09-12T10:40:35.788Z</time>
      </trkpt>
      <trkpt lat="45.70987" lon="5.8936">
        <ele>260</ele>
        <time>2021-09-12T10:40:36.789Z</time>
      </trkpt>
      <trkpt lat="45.7098" lon="5.89359">
        <ele>259</ele>
        <time>2021-09-12T10:40:37.789Z</time>
      </trkpt>
      <trkpt lat="45.70974" lon="5.89358">
        <ele>259</ele>
        <time>2021-09-12T10:40:38.789Z</time>
      </trkpt>
      <trkpt lat="45.70969" lon="5.89357">
        <ele>258</ele>
        <time>2021-09-12T10:40:39.788Z</time>
      </trkpt>
      <trkpt lat="45.70963" lon="5.89356">
        <ele>258</ele>
        <time>2021-09-12T10:40:40.789Z</time>
      </trkpt>
      <trkpt lat="45.70958" lon="5.89356">
        <ele>257</ele>
        <time>2021-09-12T10:40:41.789Z</time>
      </trkpt>
      <trkpt lat="45.70953" lon="5.89356">
        <ele>256</ele>
        <time>2021-09-12T10:40:42.789Z</time>
      </trkpt>
      <trkpt lat="45.70947" lon="5.89358">
        <ele>256</ele>
        <time>2021-09-12T10:40:43.788Z</time>
      </trkpt>
      <trkpt lat="45.7094" lon="5.8936">
        <ele>256</ele>
        <time>2021-09-12T10:40:44.788Z</time>
      </trkpt>
      <trkpt lat="45.70933" lon="5.89362">
        <ele>255</ele>
        <time>2021-09-12T10:40:45.789Z</time>
      </trkpt>
      <trkpt lat="45.70926" lon="5.89365">
        <ele>254</ele>
        <time>2021-09-12T10:40:46.788Z</time>
      </trkpt>
      <trkpt lat="45.70918" lon="5.89369">
        <ele>254</ele>
        <time>2021-09-12T10:40:47.789Z</time>
      </trkpt>
      <trkpt lat="45.70909" lon="5.89373">
        <ele>253</ele>
        <time>2021-09-12T10:40:48.789Z</time>
      </trkpt>
      <trkpt lat="45.709" lon="5.89376">
        <ele>253</ele>
        <time>2021-09-12T10:40:49.789Z</time>
      </trkpt>
      <trkpt lat="45.70892" lon="5.8938">
        <ele>252</ele>
        <time>2021-09-12T10:40:50.789Z</time>
      </trkpt>
      <trkpt lat="45.70883" lon="5.89384">
        <ele>251</ele>
        <time>2021-09-12T10:40:51.788Z</time>
      </trkpt>
      <trkpt lat="45.70875" lon="5.89387">
        <ele>251</ele>
        <time>2021-09-12T10:40:52.789Z</time>
      </trkpt>
      <trkpt lat="45.70866" lon="5.8939">
        <ele>250</ele>
        <time>2021-09-12T10:40:53.789Z</time>
      </trkpt>
      <trkpt lat="45.70857" lon="5.89392">
        <ele>250</ele>
        <time>2021-09-12T10:40:54.789Z</time>
      </trkpt>
      <trkpt lat="45.70849" lon="5.89394">
        <ele>249</ele>
        <time>2021-09-12T10:40:55.789Z</time>
      </trkpt>
      <trkpt lat="45.7084" lon="5.89395">
        <ele>249</ele>
        <time>2021-09-12T10:40:56.789Z</time>
      </trkpt>
      <trkpt lat="45.70832" lon="5.89396">
        <ele>249</ele>
        <time>2021-09-12T10:40:57.789Z</time>
      </trkpt>
      <trkpt lat="45.70823" lon="5.89397">
        <ele>249</ele>
        <time>2021-09-12T10:40:58.789Z</time>
      </trkpt>
      <trkpt lat="45.70815" lon="5.89398">
        <ele>249</ele>
        <time>2021-09-12T10:40:59.789Z</time>
      </trkpt>
      <trkpt lat="45.70807" lon="5.89398">
        <ele>249</ele>
        <time>2021-09-12T10:41:00.789Z</time>
      </trkpt>
      <trkpt lat="45.70799" lon="5.89398">
        <ele>249</ele>
        <time>2021-09-12T10:41:01.789Z</time>
      </trkpt>
      <trkpt lat="45.70791" lon="5.89398">
        <ele>249</ele>
        <time>2021-09-12T10:41:02.788Z</time>
      </trkpt>
      <trkpt lat="45.70783" lon="5.89398">
        <ele>248</ele>
        <time>2021-09-12T10:41:03.789Z</time>
      </trkpt>
      <trkpt lat="45.70776" lon="5.89398">
        <ele>248</ele>
        <time>2021-09-12T10:41:04.789Z</time>
      </trkpt>
      <trkpt lat="45.70768" lon="5.89398">
        <ele>248</ele>
        <time>2021-09-12T10:41:05.789Z</time>
      </trkpt>
      <trkpt lat="45.70761" lon="5.89398">
        <ele>248</ele>
        <time>2021-09-12T10:41:06.789Z</time>
      </trkpt>
      <trkpt lat="45.70754" lon="5.89399">
        <ele>248</ele>
        <time>2021-09-12T10:41:07.789Z</time>
      </trkpt>
      <trkpt lat="45.70746" lon="5.89399">
        <ele>248</ele>
        <time>2021-09-12T10:41:08.789Z</time>
      </trkpt>
      <trkpt lat="45.70739" lon="5.89399">
        <ele>248</ele>
        <time>2021-09-12T10:41:09.788Z</time>
      </trkpt>
      <trkpt lat="45.70732" lon="5.89399">
        <ele>248</ele>
        <time>2021-09-12T10:41:10.789Z</time>
      </trkpt>
      <trkpt lat="45.70724" lon="5.894">
        <ele>248</ele>
        <time>2021-09-12T10:41:11.789Z</time>
      </trkpt>
      <trkpt lat="45.70717" lon="5.894">
        <ele>248</ele>
        <time>2021-09-12T10:41:12.789Z</time>
      </trkpt>
      <trkpt lat="45.70711" lon="5.894">
        <ele>248</ele>
        <time>2021-09-12T10:41:13.789Z</time>
      </trkpt>
      <trkpt lat="45.70703" lon="5.894">
        <ele>247</ele>
        <time>2021-09-12T10:41:14.789Z</time>
      </trkpt>
      <trkpt lat="45.70696" lon="5.89401">
        <ele>246</ele>
        <time>2021-09-12T10:41:15.789Z</time>
      </trkpt>
      <trkpt lat="45.70689" lon="5.89401">
        <ele>246</ele>
        <time>2021-09-12T10:41:16.789Z</time>
      </trkpt>
      <trkpt lat="45.70682" lon="5.89402">
        <ele>245</ele>
        <time>2021-09-12T10:41:17.789Z</time>
      </trkpt>
      <trkpt lat="45.70675" lon="5.89403">
        <ele>245</ele>
        <time>2021-09-12T10:41:18.789Z</time>
      </trkpt>
      <trkpt lat="45.70668" lon="5.89404">
        <ele>245</ele>
        <time>2021-09-12T10:41:19.789Z</time>
      </trkpt>
      <trkpt lat="45.70662" lon="5.89405">
        <ele>245</ele>
        <time>2021-09-12T10:41:20.789Z</time>
      </trkpt>
      <trkpt lat="45.70655" lon="5.89407">
        <ele>245</ele>
        <time>2021-09-12T10:41:21.789Z</time>
      </trkpt>
      <trkpt lat="45.7065" lon="5.89408">
        <ele>245</ele>
        <time>2021-09-12T10:41:22.788Z</time>
      </trkpt>
      <trkpt lat="45.70643" lon="5.8941">
        <ele>245</ele>
        <time>2021-09-12T10:41:23.788Z</time>
      </trkpt>
      <trkpt lat="45.70637" lon="5.89413">
        <ele>245</ele>
        <time>2021-09-12T10:41:24.789Z</time>
      </trkpt>
      <trkpt lat="45.70631" lon="5.89415">
        <ele>245</ele>
        <time>2021-09-12T10:41:25.789Z</time>
      </trkpt>
      <trkpt lat="45.70626" lon="5.89417">
        <ele>245</ele>
        <time>2021-09-12T10:41:26.789Z</time>
      </trkpt>
      <trkpt lat="45.70621" lon="5.89419">
        <ele>245</ele>
        <time>2021-09-12T10:41:27.789Z</time>
      </trkpt>
      <trkpt lat="45.70615" lon="5.89421">
        <ele>245</ele>
        <time>2021-09-12T10:41:28.789Z</time>
      </trkpt>
      <trkpt lat="45.7061" lon="5.89424">
        <ele>244</ele>
        <time>2021-09-12T10:41:29.789Z</time>
      </trkpt>
      <trkpt lat="45.70604" lon="5.89426">
        <ele>244</ele>
        <time>2021-09-12T10:41:30.789Z</time>
      </trkpt>
      <trkpt lat="45.70598" lon="5.89428">
        <ele>245</ele>
        <time>2021-09-12T10:41:31.789Z</time>
      </trkpt>
      <trkpt lat="45.70593" lon="5.89431">
        <ele>245</ele>
        <time>2021-09-12T10:41:32.788Z</time>
      </trkpt>
      <trkpt lat="45.70587" lon="5.89433">
        <ele>245</ele>
        <time>2021-09-12T10:41:33.789Z</time>
      </trkpt>
      <trkpt lat="45.7058" lon="5.89435">
        <ele>244</ele>
        <time>2021-09-12T10:41:34.788Z</time>
      </trkpt>
      <trkpt lat="45.70574" lon="5.89437">
        <ele>244</ele>
        <time>2021-09-12T10:41:35.788Z</time>
      </trkpt>
      <trkpt lat="45.7057" lon="5.89438">
        <ele>244</ele>
        <time>2021-09-12T10:41:36.788Z</time>
      </trkpt>
      <trkpt lat="45.70562" lon="5.8944">
        <ele>245</ele>
        <time>2021-09-12T10:41:37.789Z</time>
      </trkpt>
      <trkpt lat="45.70556" lon="5.89441">
        <ele>245</ele>
        <time>2021-09-12T10:41:38.788Z</time>
      </trkpt>
      <trkpt lat="45.7055" lon="5.89443">
        <ele>245</ele>
        <time>2021-09-12T10:41:39.788Z</time>
      </trkpt>
      <trkpt lat="45.70544" lon="5.89444">
        <ele>245</ele>
        <time>2021-09-12T10:41:40.789Z</time>
      </trkpt>
      <trkpt lat="45.70539" lon="5.89444">
        <ele>245</ele>
        <time>2021-09-12T10:41:41.789Z</time>
      </trkpt>
      <trkpt lat="45.70533" lon="5.89445">
        <ele>245</ele>
        <time>2021-09-12T10:41:42.789Z</time>
      </trkpt>
      <trkpt lat="45.70526" lon="5.89447">
        <ele>245</ele>
        <time>2021-09-12T10:41:43.789Z</time>
      </trkpt>
      <trkpt lat="45.70521" lon="5.89448">
        <ele>245</ele>
        <time>2021-09-12T10:41:44.789Z</time>
      </trkpt>
      <trkpt lat="45.70515" lon="5.89449">
        <ele>245</ele>
        <time>2021-09-12T10:41:45.789Z</time>
      </trkpt>
      <trkpt lat="45.70509" lon="5.8945">
        <ele>245</ele>
        <time>2021-09-12T10:41:46.789Z</time>
      </trkpt>
      <trkpt lat="45.70504" lon="5.89452">
        <ele>245</ele>
        <time>2021-09-12T10:41:47.788Z</time>
      </trkpt>
      <trkpt lat="45.70498" lon="5.89453">
        <ele>246</ele>
        <time>2021-09-12T10:41:48.789Z</time>
      </trkpt>
      <trkpt lat="45.70492" lon="5.89454">
        <ele>246</ele>
        <time>2021-09-12T10:41:49.789Z</time>
      </trkpt>
      <trkpt lat="45.70486" lon="5.89455">
        <ele>246</ele>
        <time>2021-09-12T10:41:50.789Z</time>
      </trkpt>
      <trkpt lat="45.7048" lon="5.89456">
        <ele>246</ele>
        <time>2021-09-12T10:41:51.788Z</time>
      </trkpt>
      <trkpt lat="45.70474" lon="5.89458">
        <ele>246</ele>
        <time>2021-09-12T10:41:52.788Z</time>
      </trkpt>
      <trkpt lat="45.70468" lon="5.89459">
        <ele>246</ele>
        <time>2021-09-12T10:41:53.789Z</time>
      </trkpt>
      <trkpt lat="45.70462" lon="5.8946">
        <ele>246</ele>
        <time>2021-09-12T10:41:54.788Z</time>
      </trkpt>
      <trkpt lat="45.70457" lon="5.89461">
        <ele>246</ele>
        <time>2021-09-12T10:41:55.789Z</time>
      </trkpt>
      <trkpt lat="45.70453" lon="5.89461">
        <ele>246</ele>
        <time>2021-09-12T10:41:56.789Z</time>
      </trkpt>
      <trkpt lat="45.70448" lon="5.89462">
        <ele>246</ele>
        <time>2021-09-12T10:41:57.789Z</time>
      </trkpt>
      <trkpt lat="45.70444" lon="5.89462">
        <ele>246</ele>
        <time>2021-09-12T10:41:58.788Z</time>
      </trkpt>
      <trkpt lat="45.7044" lon="5.89462">
        <ele>246</ele>
        <time>2021-09-12T10:41:59.788Z</time>
      </trkpt>
      <trkpt lat="45.70437" lon="5.8946">
        <ele>246</ele>
        <time>2021-09-12T10:42:00.789Z</time>
      </trkpt>
      <trkpt lat="45.70434" lon="5.89458">
        <ele>246</ele>
        <time>2021-09-12T10:42:01.789Z</time>
      </trkpt>
      <trkpt lat="45.70431" lon="5.89456">
        <ele>246</ele>
        <time>2021-09-12T10:42:02.788Z</time>
      </trkpt>
      <trkpt lat="45.70427" lon="5.89456">
        <ele>245</ele>
        <time>2021-09-12T10:42:03.789Z</time>
      </trkpt>
      <trkpt lat="45.70424" lon="5.89457">
        <ele>245</ele>
        <time>2021-09-12T10:42:04.789Z</time>
      </trkpt>
      <trkpt lat="45.70421" lon="5.8946">
        <ele>245</ele>
        <time>2021-09-12T10:42:05.789Z</time>
      </trkpt>
      <trkpt lat="45.70419" lon="5.89464">
        <ele>244</ele>
        <time>2021-09-12T10:42:06.789Z</time>
      </trkpt>
      <trkpt lat="45.70418" lon="5.89469">
        <ele>244</ele>
        <time>2021-09-12T10:42:07.789Z</time>
      </trkpt>
      <trkpt lat="45.70419" lon="5.89474">
        <ele>244</ele>
        <time>2021-09-12T10:42:08.789Z</time>
      </trkpt>
      <trkpt lat="45.7042" lon="5.8948">
        <ele>245</ele>
        <time>2021-09-12T10:42:09.788Z</time>
      </trkpt>
      <trkpt lat="45.70422" lon="5.89486">
        <ele>245</ele>
        <time>2021-09-12T10:42:10.789Z</time>
      </trkpt>
      <trkpt lat="45.70423" lon="5.89492">
        <ele>245</ele>
        <time>2021-09-12T10:42:11.789Z</time>
      </trkpt>
      <trkpt lat="45.70425" lon="5.89499">
        <ele>245</ele>
        <time>2021-09-12T10:42:12.789Z</time>
      </trkpt>
      <trkpt lat="45.70426" lon="5.89506">
        <ele>245</ele>
        <time>2021-09-12T10:42:13.788Z</time>
      </trkpt>
      <trkpt lat="45.70427" lon="5.89514">
        <ele>245</ele>
        <time>2021-09-12T10:42:14.789Z</time>
      </trkpt>
      <trkpt lat="45.70427" lon="5.89522">
        <ele>246</ele>
        <time>2021-09-12T10:42:15.789Z</time>
      </trkpt>
      <trkpt lat="45.70427" lon="5.89529">
        <ele>246</ele>
        <time>2021-09-12T10:42:16.789Z</time>
      </trkpt>
      <trkpt lat="45.70427" lon="5.89536">
        <ele>246</ele>
        <time>2021-09-12T10:42:17.789Z</time>
      </trkpt>
      <trkpt lat="45.70427" lon="5.89543">
        <ele>246</ele>
        <time>2021-09-12T10:42:18.789Z</time>
      </trkpt>
      <trkpt lat="45.70426" lon="5.8955">
        <ele>246</ele>
        <time>2021-09-12T10:42:19.789Z</time>
      </trkpt>
      <trkpt lat="45.70426" lon="5.89558">
        <ele>246</ele>
        <time>2021-09-12T10:42:20.789Z</time>
      </trkpt>
      <trkpt lat="45.70425" lon="5.89565">
        <ele>246</ele>
        <time>2021-09-12T10:42:21.789Z</time>
      </trkpt>
      <trkpt lat="45.70425" lon="5.89572">
        <ele>246</ele>
        <time>2021-09-12T10:42:22.789Z</time>
      </trkpt>
      <trkpt lat="45.70424" lon="5.89579">
        <ele>246</ele>
        <time>2021-09-12T10:42:23.788Z</time>
      </trkpt>
      <trkpt lat="45.70423" lon="5.89587">
        <ele>245</ele>
        <time>2021-09-12T10:42:24.789Z</time>
      </trkpt>
      <trkpt lat="45.70423" lon="5.89594">
        <ele>245</ele>
        <time>2021-09-12T10:42:25.788Z</time>
      </trkpt>
      <trkpt lat="45.70422" lon="5.89601">
        <ele>246</ele>
        <time>2021-09-12T10:42:26.789Z</time>
      </trkpt>
      <trkpt lat="45.70422" lon="5.89608">
        <ele>246</ele>
        <time>2021-09-12T10:42:27.789Z</time>
      </trkpt>
      <trkpt lat="45.70421" lon="5.89615">
        <ele>246</ele>
        <time>2021-09-12T10:42:28.788Z</time>
      </trkpt>
      <trkpt lat="45.70421" lon="5.89622">
        <ele>246</ele>
        <time>2021-09-12T10:42:29.789Z</time>
      </trkpt>
      <trkpt lat="45.7042" lon="5.8963">
        <ele>246</ele>
        <time>2021-09-12T10:42:30.789Z</time>
      </trkpt>
      <trkpt lat="45.7042" lon="5.89637">
        <ele>246</ele>
        <time>2021-09-12T10:42:31.789Z</time>
      </trkpt>
      <trkpt lat="45.7042" lon="5.89644">
        <ele>246</ele>
        <time>2021-09-12T10:42:32.789Z</time>
      </trkpt>
      <trkpt lat="45.7042" lon="5.89651">
        <ele>246</ele>
        <time>2021-09-12T10:42:33.789Z</time>
      </trkpt>
      <trkpt lat="45.70419" lon="5.89657">
        <ele>246</ele>
        <time>2021-09-12T10:42:34.789Z</time>
      </trkpt>
      <trkpt lat="45.70419" lon="5.89663">
        <ele>246</ele>
        <time>2021-09-12T10:42:35.789Z</time>
      </trkpt>
      <trkpt lat="45.70418" lon="5.8967">
        <ele>246</ele>
        <time>2021-09-12T10:42:36.788Z</time>
      </trkpt>
      <trkpt lat="45.70417" lon="5.89677">
        <ele>246</ele>
        <time>2021-09-12T10:42:37.789Z</time>
      </trkpt>
      <trkpt lat="45.70417" lon="5.89684">
        <ele>246</ele>
        <time>2021-09-12T10:42:38.789Z</time>
      </trkpt>
      <trkpt lat="45.70416" lon="5.89691">
        <ele>246</ele>
        <time>2021-09-12T10:42:39.789Z</time>
      </trkpt>
      <trkpt lat="45.70415" lon="5.89697">
        <ele>246</ele>
        <time>2021-09-12T10:42:40.788Z</time>
      </trkpt>
      <trkpt lat="45.70415" lon="5.89704">
        <ele>247</ele>
        <time>2021-09-12T10:42:41.789Z</time>
      </trkpt>
      <trkpt lat="45.70414" lon="5.89711">
        <ele>247</ele>
        <time>2021-09-12T10:42:42.789Z</time>
      </trkpt>
      <trkpt lat="45.70414" lon="5.89718">
        <ele>248</ele>
        <time>2021-09-12T10:42:43.788Z</time>
      </trkpt>
      <trkpt lat="45.70413" lon="5.89725">
        <ele>248</ele>
        <time>2021-09-12T10:42:44.789Z</time>
      </trkpt>
      <trkpt lat="45.70412" lon="5.89732">
        <ele>248</ele>
        <time>2021-09-12T10:42:45.788Z</time>
      </trkpt>
      <trkpt lat="45.70412" lon="5.8974">
        <ele>248</ele>
        <time>2021-09-12T10:42:46.789Z</time>
      </trkpt>
      <trkpt lat="45.70411" lon="5.89747">
        <ele>248</ele>
        <time>2021-09-12T10:42:47.789Z</time>
      </trkpt>
      <trkpt lat="45.70411" lon="5.89753">
        <ele>248</ele>
        <time>2021-09-12T10:42:48.789Z</time>
      </trkpt>
      <trkpt lat="45.7041" lon="5.8976">
        <ele>248</ele>
        <time>2021-09-12T10:42:49.789Z</time>
      </trkpt>
      <trkpt lat="45.7041" lon="5.89767">
        <ele>248</ele>
        <time>2021-09-12T10:42:50.788Z</time>
      </trkpt>
      <trkpt lat="45.70409" lon="5.89773">
        <ele>247</ele>
        <time>2021-09-12T10:42:51.788Z</time>
      </trkpt>
      <trkpt lat="45.70409" lon="5.89779">
        <ele>247</ele>
        <time>2021-09-12T10:42:52.789Z</time>
      </trkpt>
      <trkpt lat="45.70409" lon="5.89785">
        <ele>247</ele>
        <time>2021-09-12T10:42:53.788Z</time>
      </trkpt>
      <trkpt lat="45.70408" lon="5.89792">
        <ele>247</ele>
        <time>2021-09-12T10:42:54.788Z</time>
      </trkpt>
      <trkpt lat="45.70407" lon="5.89798">
        <ele>247</ele>
        <time>2021-09-12T10:42:55.789Z</time>
      </trkpt>
      <trkpt lat="45.70406" lon="5.89805">
        <ele>247</ele>
        <time>2021-09-12T10:42:56.789Z</time>
      </trkpt>
      <trkpt lat="45.70406" lon="5.89812">
        <ele>247</ele>
        <time>2021-09-12T10:42:57.789Z</time>
      </trkpt>
      <trkpt lat="45.70405" lon="5.89818">
        <ele>247</ele>
        <time>2021-09-12T10:42:58.789Z</time>
      </trkpt>
      <trkpt lat="45.70404" lon="5.89824">
        <ele>247</ele>
        <time>2021-09-12T10:42:59.788Z</time>
      </trkpt>
      <trkpt lat="45.70403" lon="5.89829">
        <ele>247</ele>
        <time>2021-09-12T10:43:00.789Z</time>
      </trkpt>
      <trkpt lat="45.70403" lon="5.89834">
        <ele>247</ele>
        <time>2021-09-12T10:43:01.789Z</time>
      </trkpt>
      <trkpt lat="45.70402" lon="5.89838">
        <ele>247</ele>
        <time>2021-09-12T10:43:02.789Z</time>
      </trkpt>
      <trkpt lat="45.70401" lon="5.89842">
        <ele>246</ele>
        <time>2021-09-12T10:43:03.789Z</time>
      </trkpt>
      <trkpt lat="45.70398" lon="5.89846">
        <ele>246</ele>
        <time>2021-09-12T10:43:04.788Z</time>
      </trkpt>
      <trkpt lat="45.70396" lon="5.8985">
        <ele>246</ele>
        <time>2021-09-12T10:43:05.789Z</time>
      </trkpt>
      <trkpt lat="45.70394" lon="5.89854">
        <ele>245</ele>
        <time>2021-09-12T10:43:06.789Z</time>
      </trkpt>
      <trkpt lat="45.70392" lon="5.89858">
        <ele>245</ele>
        <time>2021-09-12T10:43:07.789Z</time>
      </trkpt>
      <trkpt lat="45.70389" lon="5.89862">
        <ele>245</ele>
        <time>2021-09-12T10:43:08.789Z</time>
      </trkpt>
      <trkpt lat="45.70387" lon="5.89865">
        <ele>245</ele>
        <time>2021-09-12T10:43:09.789Z</time>
      </trkpt>
      <trkpt lat="45.70384" lon="5.89869">
        <ele>245</ele>
        <time>2021-09-12T10:43:10.789Z</time>
      </trkpt>
      <trkpt lat="45.70381" lon="5.89872">
        <ele>246</ele>
        <time>2021-09-12T10:43:11.788Z</time>
      </trkpt>
      <trkpt lat="45.70378" lon="5.89875">
        <ele>246</ele>
        <time>2021-09-12T10:43:12.788Z</time>
      </trkpt>
      <trkpt lat="45.70375" lon="5.89879">
        <ele>246</ele>
        <time>2021-09-12T10:43:13.789Z</time>
      </trkpt>
      <trkpt lat="45.70372" lon="5.89883">
        <ele>246</ele>
        <time>2021-09-12T10:43:14.789Z</time>
      </trkpt>
      <trkpt lat="45.70369" lon="5.89887">
        <ele>246</ele>
        <time>2021-09-12T10:43:15.789Z</time>
      </trkpt>
      <trkpt lat="45.70365" lon="5.89891">
        <ele>246</ele>
        <time>2021-09-12T10:43:16.789Z</time>
      </trkpt>
      <trkpt lat="45.70362" lon="5.89896">
        <ele>246</ele>
        <time>2021-09-12T10:43:17.789Z</time>
      </trkpt>
      <trkpt lat="45.70358" lon="5.89901">
        <ele>246</ele>
        <time>2021-09-12T10:43:18.788Z</time>
      </trkpt>
      <trkpt lat="45.70354" lon="5.89906">
        <ele>247</ele>
        <time>2021-09-12T10:43:19.788Z</time>
      </trkpt>
      <trkpt lat="45.7035" lon="5.89911">
        <ele>247</ele>
        <time>2021-09-12T10:43:20.789Z</time>
      </trkpt>
      <trkpt lat="45.70347" lon="5.89916">
        <ele>247</ele>
        <time>2021-09-12T10:43:21.789Z</time>
      </trkpt>
      <trkpt lat="45.70343" lon="5.8992">
        <ele>248</ele>
        <time>2021-09-12T10:43:22.789Z</time>
      </trkpt>
      <trkpt lat="45.70339" lon="5.89925">
        <ele>248</ele>
        <time>2021-09-12T10:43:23.789Z</time>
      </trkpt>
      <trkpt lat="45.70335" lon="5.8993">
        <ele>248</ele>
        <time>2021-09-12T10:43:24.788Z</time>
      </trkpt>
      <trkpt lat="45.70331" lon="5.89935">
        <ele>249</ele>
        <time>2021-09-12T10:43:25.789Z</time>
      </trkpt>
      <trkpt lat="45.70326" lon="5.8994">
        <ele>249</ele>
        <time>2021-09-12T10:43:26.789Z</time>
      </trkpt>
      <trkpt lat="45.70322" lon="5.89946">
        <ele>249</ele>
        <time>2021-09-12T10:43:27.789Z</time>
      </trkpt>
      <trkpt lat="45.70318" lon="5.89951">
        <ele>249</ele>
        <time>2021-09-12T10:43:28.788Z</time>
      </trkpt>
      <trkpt lat="45.70313" lon="5.89957">
        <ele>249</ele>
        <time>2021-09-12T10:43:29.789Z</time>
      </trkpt>
      <trkpt lat="45.70309" lon="5.89963">
        <ele>249</ele>
        <time>2021-09-12T10:43:30.788Z</time>
      </trkpt>
      <trkpt lat="45.70304" lon="5.89968">
        <ele>249</ele>
        <time>2021-09-12T10:43:31.788Z</time>
      </trkpt>
      <trkpt lat="45.703" lon="5.89974">
        <ele>249</ele>
        <time>2021-09-12T10:43:32.789Z</time>
      </trkpt>
      <trkpt lat="45.70296" lon="5.89979">
        <ele>248</ele>
        <time>2021-09-12T10:43:33.788Z</time>
      </trkpt>
      <trkpt lat="45.70291" lon="5.89984">
        <ele>248</ele>
        <time>2021-09-12T10:43:34.788Z</time>
      </trkpt>
      <trkpt lat="45.70287" lon="5.89989">
        <ele>247</ele>
        <time>2021-09-12T10:43:35.789Z</time>
      </trkpt>
      <trkpt lat="45.70283" lon="5.89994">
        <ele>247</ele>
        <time>2021-09-12T10:43:36.789Z</time>
      </trkpt>
      <trkpt lat="45.70278" lon="5.9">
        <ele>247</ele>
        <time>2021-09-12T10:43:37.789Z</time>
      </trkpt>
      <trkpt lat="45.70274" lon="5.90005">
        <ele>247</ele>
        <time>2021-09-12T10:43:38.789Z</time>
      </trkpt>
      <trkpt lat="45.70269" lon="5.90011">
        <ele>247</ele>
        <time>2021-09-12T10:43:39.788Z</time>
      </trkpt>
      <trkpt lat="45.70265" lon="5.90016">
        <ele>247</ele>
        <time>2021-09-12T10:43:40.789Z</time>
      </trkpt>
      <trkpt lat="45.7026" lon="5.90022">
        <ele>247</ele>
        <time>2021-09-12T10:43:41.788Z</time>
      </trkpt>
      <trkpt lat="45.70256" lon="5.90028">
        <ele>247</ele>
        <time>2021-09-12T10:43:42.789Z</time>
      </trkpt>
      <trkpt lat="45.70251" lon="5.90034">
        <ele>247</ele>
        <time>2021-09-12T10:43:43.789Z</time>
      </trkpt>
      <trkpt lat="45.70247" lon="5.9004">
        <ele>247</ele>
        <time>2021-09-12T10:43:44.788Z</time>
      </trkpt>
      <trkpt lat="45.70242" lon="5.90045">
        <ele>248</ele>
        <time>2021-09-12T10:43:45.788Z</time>
      </trkpt>
      <trkpt lat="45.70238" lon="5.90051">
        <ele>248</ele>
        <time>2021-09-12T10:43:46.789Z</time>
      </trkpt>
      <trkpt lat="45.70233" lon="5.90057">
        <ele>248</ele>
        <time>2021-09-12T10:43:47.788Z</time>
      </trkpt>
      <trkpt lat="45.70228" lon="5.90063">
        <ele>247</ele>
        <time>2021-09-12T10:43:48.789Z</time>
      </trkpt>
      <trkpt lat="45.70223" lon="5.9007">
        <ele>247</ele>
        <time>2021-09-12T10:43:49.789Z</time>
      </trkpt>
      <trkpt lat="45.70219" lon="5.90076">
        <ele>248</ele>
        <time>2021-09-12T10:43:50.788Z</time>
      </trkpt>
      <trkpt lat="45.70214" lon="5.90082">
        <ele>248</ele>
        <time>2021-09-12T10:43:51.788Z</time>
      </trkpt>
      <trkpt lat="45.7021" lon="5.90088">
        <ele>248</ele>
        <time>2021-09-12T10:43:52.789Z</time>
      </trkpt>
      <trkpt lat="45.70205" lon="5.90093">
        <ele>248</ele>
        <time>2021-09-12T10:43:53.789Z</time>
      </trkpt>
      <trkpt lat="45.70201" lon="5.90098">
        <ele>248</ele>
        <time>2021-09-12T10:43:54.789Z</time>
      </trkpt>
      <trkpt lat="45.70196" lon="5.90103">
        <ele>248</ele>
        <time>2021-09-12T10:43:55.789Z</time>
      </trkpt>
      <trkpt lat="45.70192" lon="5.90108">
        <ele>247</ele>
        <time>2021-09-12T10:43:56.788Z</time>
      </trkpt>
      <trkpt lat="45.70187" lon="5.90114">
        <ele>247</ele>
        <time>2021-09-12T10:43:57.789Z</time>
      </trkpt>
      <trkpt lat="45.70183" lon="5.90119">
        <ele>246</ele>
        <time>2021-09-12T10:43:58.789Z</time>
      </trkpt>
      <trkpt lat="45.70178" lon="5.90124">
        <ele>246</ele>
        <time>2021-09-12T10:43:59.789Z</time>
      </trkpt>
      <trkpt lat="45.70173" lon="5.9013">
        <ele>246</ele>
        <time>2021-09-12T10:44:00.789Z</time>
      </trkpt>
      <trkpt lat="45.70169" lon="5.90136">
        <ele>246</ele>
        <time>2021-09-12T10:44:01.789Z</time>
      </trkpt>
      <trkpt lat="45.70164" lon="5.90143">
        <ele>246</ele>
        <time>2021-09-12T10:44:02.789Z</time>
      </trkpt>
      <trkpt lat="45.7016" lon="5.90148">
        <ele>246</ele>
        <time>2021-09-12T10:44:03.789Z</time>
      </trkpt>
      <trkpt lat="45.70155" lon="5.90154">
        <ele>246</ele>
        <time>2021-09-12T10:44:04.789Z</time>
      </trkpt>
      <trkpt lat="45.7015" lon="5.90159">
        <ele>246</ele>
        <time>2021-09-12T10:44:05.788Z</time>
      </trkpt>
      <trkpt lat="45.70146" lon="5.90165">
        <ele>246</ele>
        <time>2021-09-12T10:44:06.789Z</time>
      </trkpt>
      <trkpt lat="45.70141" lon="5.90171">
        <ele>246</ele>
        <time>2021-09-12T10:44:07.789Z</time>
      </trkpt>
      <trkpt lat="45.70136" lon="5.90176">
        <ele>246</ele>
        <time>2021-09-12T10:44:08.789Z</time>
      </trkpt>
      <trkpt lat="45.70133" lon="5.90181">
        <ele>246</ele>
        <time>2021-09-12T10:44:09.789Z</time>
      </trkpt>
      <trkpt lat="45.70127" lon="5.90188">
        <ele>246</ele>
        <time>2021-09-12T10:44:10.789Z</time>
      </trkpt>
      <trkpt lat="45.70124" lon="5.90193">
        <ele>246</ele>
        <time>2021-09-12T10:44:11.789Z</time>
      </trkpt>
      <trkpt lat="45.70119" lon="5.90199">
        <ele>246</ele>
        <time>2021-09-12T10:44:12.788Z</time>
      </trkpt>
      <trkpt lat="45.70114" lon="5.90205">
        <ele>246</ele>
        <time>2021-09-12T10:44:13.789Z</time>
      </trkpt>
      <trkpt lat="45.7011" lon="5.9021">
        <ele>246</ele>
        <time>2021-09-12T10:44:14.789Z</time>
      </trkpt>
      <trkpt lat="45.70104" lon="5.90218">
        <ele>246</ele>
        <time>2021-09-12T10:44:15.789Z</time>
      </trkpt>
      <trkpt lat="45.701" lon="5.90222">
        <ele>246</ele>
        <time>2021-09-12T10:44:16.789Z</time>
      </trkpt>
      <trkpt lat="45.70094" lon="5.9023">
        <ele>246</ele>
        <time>2021-09-12T10:44:17.788Z</time>
      </trkpt>
      <trkpt lat="45.7009" lon="5.90235">
        <ele>246</ele>
        <time>2021-09-12T10:44:18.789Z</time>
      </trkpt>
      <trkpt lat="45.70085" lon="5.90242">
        <ele>246</ele>
        <time>2021-09-12T10:44:19.789Z</time>
      </trkpt>
      <trkpt lat="45.7008" lon="5.90248">
        <ele>246</ele>
        <time>2021-09-12T10:44:20.789Z</time>
      </trkpt>
      <trkpt lat="45.70075" lon="5.90254">
        <ele>245</ele>
        <time>2021-09-12T10:44:21.788Z</time>
      </trkpt>
      <trkpt lat="45.7007" lon="5.90259">
        <ele>245</ele>
        <time>2021-09-12T10:44:22.789Z</time>
      </trkpt>
      <trkpt lat="45.70065" lon="5.90265">
        <ele>245</ele>
        <time>2021-09-12T10:44:23.789Z</time>
      </trkpt>
      <trkpt lat="45.70061" lon="5.90271">
        <ele>245</ele>
        <time>2021-09-12T10:44:24.788Z</time>
      </trkpt>
      <trkpt lat="45.70056" lon="5.90277">
        <ele>245</ele>
        <time>2021-09-12T10:44:25.789Z</time>
      </trkpt>
      <trkpt lat="45.70052" lon="5.90282">
        <ele>245</ele>
        <time>2021-09-12T10:44:26.789Z</time>
      </trkpt>
      <trkpt lat="45.70047" lon="5.90289">
        <ele>246</ele>
        <time>2021-09-12T10:44:27.789Z</time>
      </trkpt>
      <trkpt lat="45.70043" lon="5.90295">
        <ele>246</ele>
        <time>2021-09-12T10:44:28.789Z</time>
      </trkpt>
      <trkpt lat="45.70037" lon="5.90302">
        <ele>246</ele>
        <time>2021-09-12T10:44:29.788Z</time>
      </trkpt>
      <trkpt lat="45.70032" lon="5.90308">
        <ele>246</ele>
        <time>2021-09-12T10:44:30.789Z</time>
      </trkpt>
      <trkpt lat="45.70026" lon="5.90314">
        <ele>245</ele>
        <time>2021-09-12T10:44:31.789Z</time>
      </trkpt>
      <trkpt lat="45.70021" lon="5.90321">
        <ele>245</ele>
        <time>2021-09-12T10:44:32.789Z</time>
      </trkpt>
      <trkpt lat="45.70016" lon="5.90326">
        <ele>246</ele>
        <time>2021-09-12T10:44:33.789Z</time>
      </trkpt>
      <trkpt lat="45.70011" lon="5.90332">
        <ele>246</ele>
        <time>2021-09-12T10:44:34.789Z</time>
      </trkpt>
      <trkpt lat="45.70007" lon="5.90338">
        <ele>246</ele>
        <time>2021-09-12T10:44:35.789Z</time>
      </trkpt>
      <trkpt lat="45.70002" lon="5.90343">
        <ele>246</ele>
        <time>2021-09-12T10:44:36.789Z</time>
      </trkpt>
      <trkpt lat="45.69998" lon="5.90349">
        <ele>246</ele>
        <time>2021-09-12T10:44:37.789Z</time>
      </trkpt>
      <trkpt lat="45.69993" lon="5.90355">
        <ele>246</ele>
        <time>2021-09-12T10:44:38.789Z</time>
      </trkpt>
      <trkpt lat="45.69988" lon="5.90361">
        <ele>246</ele>
        <time>2021-09-12T10:44:39.789Z</time>
      </trkpt>
      <trkpt lat="45.69983" lon="5.90367">
        <ele>245</ele>
        <time>2021-09-12T10:44:40.788Z</time>
      </trkpt>
      <trkpt lat="45.69979" lon="5.90373">
        <ele>246</ele>
        <time>2021-09-12T10:44:41.789Z</time>
      </trkpt>
      <trkpt lat="45.69974" lon="5.90379">
        <ele>246</ele>
        <time>2021-09-12T10:44:42.789Z</time>
      </trkpt>
      <trkpt lat="45.69969" lon="5.90384">
        <ele>246</ele>
        <time>2021-09-12T10:44:43.789Z</time>
      </trkpt>
      <trkpt lat="45.69965" lon="5.9039">
        <ele>247</ele>
        <time>2021-09-12T10:44:44.788Z</time>
      </trkpt>
      <trkpt lat="45.6996" lon="5.90395">
        <ele>247</ele>
        <time>2021-09-12T10:44:45.789Z</time>
      </trkpt>
      <trkpt lat="45.69956" lon="5.904">
        <ele>247</ele>
        <time>2021-09-12T10:44:46.788Z</time>
      </trkpt>
      <trkpt lat="45.69951" lon="5.90406">
        <ele>247</ele>
        <time>2021-09-12T10:44:47.788Z</time>
      </trkpt>
      <trkpt lat="45.69947" lon="5.90412">
        <ele>247</ele>
        <time>2021-09-12T10:44:48.789Z</time>
      </trkpt>
      <trkpt lat="45.69943" lon="5.90417">
        <ele>247</ele>
        <time>2021-09-12T10:44:49.789Z</time>
      </trkpt>
      <trkpt lat="45.69938" lon="5.90423">
        <ele>247</ele>
        <time>2021-09-12T10:44:50.788Z</time>
      </trkpt>
      <trkpt lat="45.69934" lon="5.90428">
        <ele>246</ele>
        <time>2021-09-12T10:44:51.788Z</time>
      </trkpt>
      <trkpt lat="45.69929" lon="5.90433">
        <ele>246</ele>
        <time>2021-09-12T10:44:52.788Z</time>
      </trkpt>
      <trkpt lat="45.69925" lon="5.90438">
        <ele>246</ele>
        <time>2021-09-12T10:44:53.789Z</time>
      </trkpt>
      <trkpt lat="45.69921" lon="5.90443">
        <ele>246</ele>
        <time>2021-09-12T10:44:54.789Z</time>
      </trkpt>
      <trkpt lat="45.69916" lon="5.90449">
        <ele>247</ele>
        <time>2021-09-12T10:44:55.788Z</time>
      </trkpt>
      <trkpt lat="45.69912" lon="5.90454">
        <ele>247</ele>
        <time>2021-09-12T10:44:56.788Z</time>
      </trkpt>
      <trkpt lat="45.69909" lon="5.90459">
        <ele>247</ele>
        <time>2021-09-12T10:44:57.788Z</time>
      </trkpt>
      <trkpt lat="45.69905" lon="5.90465">
        <ele>247</ele>
        <time>2021-09-12T10:44:58.789Z</time>
      </trkpt>
      <trkpt lat="45.69901" lon="5.90469">
        <ele>247</ele>
        <time>2021-09-12T10:44:59.789Z</time>
      </trkpt>
      <trkpt lat="45.69897" lon="5.90473">
        <ele>247</ele>
        <time>2021-09-12T10:45:00.788Z</time>
      </trkpt>
      <trkpt lat="45.69893" lon="5.90476">
        <ele>247</ele>
        <time>2021-09-12T10:45:01.788Z</time>
      </trkpt>
      <trkpt lat="45.6989" lon="5.90479">
        <ele>248</ele>
        <time>2021-09-12T10:45:02.788Z</time>
      </trkpt>
      <trkpt lat="45.69886" lon="5.90482">
        <ele>248</ele>
        <time>2021-09-12T10:45:03.789Z</time>
      </trkpt>
      <trkpt lat="45.69882" lon="5.90486">
        <ele>248</ele>
        <time>2021-09-12T10:45:04.789Z</time>
      </trkpt>
      <trkpt lat="45.69879" lon="5.90489">
        <ele>247</ele>
        <time>2021-09-12T10:45:05.788Z</time>
      </trkpt>
      <trkpt lat="45.69875" lon="5.90495">
        <ele>247</ele>
        <time>2021-09-12T10:45:06.788Z</time>
      </trkpt>
      <trkpt lat="45.69871" lon="5.905">
        <ele>247</ele>
        <time>2021-09-12T10:45:07.788Z</time>
      </trkpt>
      <trkpt lat="45.69869" lon="5.90504">
        <ele>247</ele>
        <time>2021-09-12T10:45:08.789Z</time>
      </trkpt>
      <trkpt lat="45.69867" lon="5.90508">
        <ele>247</ele>
        <time>2021-09-12T10:45:09.788Z</time>
      </trkpt>
      <trkpt lat="45.69864" lon="5.90514">
        <ele>247</ele>
        <time>2021-09-12T10:45:10.788Z</time>
      </trkpt>
      <trkpt lat="45.69862" lon="5.90518">
        <ele>247</ele>
        <time>2021-09-12T10:45:11.788Z</time>
      </trkpt>
      <trkpt lat="45.6986" lon="5.90522">
        <ele>247</ele>
        <time>2021-09-12T10:45:12.788Z</time>
      </trkpt>
      <trkpt lat="45.69857" lon="5.90526">
        <ele>247</ele>
        <time>2021-09-12T10:45:13.789Z</time>
      </trkpt>
      <trkpt lat="45.69853" lon="5.90531">
        <ele>246</ele>
        <time>2021-09-12T10:45:14.788Z</time>
      </trkpt>
      <trkpt lat="45.69849" lon="5.90536">
        <ele>246</ele>
        <time>2021-09-12T10:45:15.788Z</time>
      </trkpt>
      <trkpt lat="45.69846" lon="5.9054">
        <ele>246</ele>
        <time>2021-09-12T10:45:16.788Z</time>
      </trkpt>
      <trkpt lat="45.69842" lon="5.90544">
        <ele>245</ele>
        <time>2021-09-12T10:45:17.788Z</time>
      </trkpt>
      <trkpt lat="45.69839" lon="5.90549">
        <ele>245</ele>
        <time>2021-09-12T10:45:18.789Z</time>
      </trkpt>
      <trkpt lat="45.69833" lon="5.90556">
        <ele>245</ele>
        <time>2021-09-12T10:45:19.789Z</time>
      </trkpt>
      <trkpt lat="45.69829" lon="5.90561">
        <ele>245</ele>
        <time>2021-09-12T10:45:20.788Z</time>
      </trkpt>
      <trkpt lat="45.69825" lon="5.90566">
        <ele>245</ele>
        <time>2021-09-12T10:45:21.788Z</time>
      </trkpt>
      <trkpt lat="45.69821" lon="5.90571">
        <ele>245</ele>
        <time>2021-09-12T10:45:22.788Z</time>
      </trkpt>
      <trkpt lat="45.69817" lon="5.90575">
        <ele>245</ele>
        <time>2021-09-12T10:45:23.788Z</time>
      </trkpt>
      <trkpt lat="45.69812" lon="5.90581">
        <ele>245</ele>
        <time>2021-09-12T10:45:24.789Z</time>
      </trkpt>
      <trkpt lat="45.69807" lon="5.90587">
        <ele>245</ele>
        <time>2021-09-12T10:45:25.788Z</time>
      </trkpt>
      <trkpt lat="45.69804" lon="5.90592">
        <ele>245</ele>
        <time>2021-09-12T10:45:26.788Z</time>
      </trkpt>
      <trkpt lat="45.698" lon="5.90597">
        <ele>245</ele>
        <time>2021-09-12T10:45:27.788Z</time>
      </trkpt>
      <trkpt lat="45.69795" lon="5.90604">
        <ele>245</ele>
        <time>2021-09-12T10:45:28.788Z</time>
      </trkpt>
      <trkpt lat="45.6979" lon="5.9061">
        <ele>245</ele>
        <time>2021-09-12T10:45:29.788Z</time>
      </trkpt>
      <trkpt lat="45.69786" lon="5.90615">
        <ele>245</ele>
        <time>2021-09-12T10:45:30.789Z</time>
      </trkpt>
      <trkpt lat="45.69782" lon="5.9062">
        <ele>245</ele>
        <time>2021-09-12T10:45:31.788Z</time>
      </trkpt>
      <trkpt lat="45.69778" lon="5.90625">
        <ele>245</ele>
        <time>2021-09-12T10:45:32.789Z</time>
      </trkpt>
      <trkpt lat="45.69772" lon="5.90632">
        <ele>245</ele>
        <time>2021-09-12T10:45:33.789Z</time>
      </trkpt>
      <trkpt lat="45.69768" lon="5.90637">
        <ele>245</ele>
        <time>2021-09-12T10:45:34.789Z</time>
      </trkpt>
      <trkpt lat="45.69764" lon="5.90642">
        <ele>245</ele>
        <time>2021-09-12T10:45:35.789Z</time>
      </trkpt>
      <trkpt lat="45.6976" lon="5.90646">
        <ele>245</ele>
        <time>2021-09-12T10:45:36.788Z</time>
      </trkpt>
      <trkpt lat="45.69755" lon="5.90652">
        <ele>245</ele>
        <time>2021-09-12T10:45:37.789Z</time>
      </trkpt>
      <trkpt lat="45.69751" lon="5.90657">
        <ele>245</ele>
        <time>2021-09-12T10:45:38.789Z</time>
      </trkpt>
      <trkpt lat="45.69746" lon="5.90662">
        <ele>245</ele>
        <time>2021-09-12T10:45:39.789Z</time>
      </trkpt>
      <trkpt lat="45.69743" lon="5.90667">
        <ele>244</ele>
        <time>2021-09-12T10:45:40.789Z</time>
      </trkpt>
      <trkpt lat="45.69738" lon="5.90672">
        <ele>244</ele>
        <time>2021-09-12T10:45:41.788Z</time>
      </trkpt>
      <trkpt lat="45.69733" lon="5.90678">
        <ele>244</ele>
        <time>2021-09-12T10:45:42.788Z</time>
      </trkpt>
      <trkpt lat="45.69729" lon="5.90683">
        <ele>244</ele>
        <time>2021-09-12T10:45:43.789Z</time>
      </trkpt>
      <trkpt lat="45.69725" lon="5.90688">
        <ele>244</ele>
        <time>2021-09-12T10:45:44.789Z</time>
      </trkpt>
      <trkpt lat="45.69722" lon="5.90692">
        <ele>244</ele>
        <time>2021-09-12T10:45:45.788Z</time>
      </trkpt>
      <trkpt lat="45.69717" lon="5.90696">
        <ele>244</ele>
        <time>2021-09-12T10:45:46.788Z</time>
      </trkpt>
      <trkpt lat="45.69712" lon="5.90701">
        <ele>244</ele>
        <time>2021-09-12T10:45:47.789Z</time>
      </trkpt>
      <trkpt lat="45.69708" lon="5.90705">
        <ele>245</ele>
        <time>2021-09-12T10:45:48.789Z</time>
      </trkpt>
      <trkpt lat="45.69705" lon="5.90709">
        <ele>245</ele>
        <time>2021-09-12T10:45:49.789Z</time>
      </trkpt>
      <trkpt lat="45.69701" lon="5.90713">
        <ele>245</ele>
        <time>2021-09-12T10:45:50.789Z</time>
      </trkpt>
      <trkpt lat="45.69698" lon="5.90717">
        <ele>245</ele>
        <time>2021-09-12T10:45:51.788Z</time>
      </trkpt>
      <trkpt lat="45.69695" lon="5.9072">
        <ele>245</ele>
        <time>2021-09-12T10:45:52.789Z</time>
      </trkpt>
      <trkpt lat="45.69692" lon="5.90721">
        <ele>245</ele>
        <time>2021-09-12T10:45:53.789Z</time>
      </trkpt>
      <trkpt lat="45.69691" lon="5.90721">
        <ele>245</ele>
        <time>2021-09-12T10:45:54.789Z</time>
      </trkpt>
      <trkpt lat="45.69689" lon="5.90721">
        <ele>245</ele>
        <time>2021-09-12T10:45:55.789Z</time>
      </trkpt>
      <trkpt lat="45.69688" lon="5.9072">
        <ele>245</ele>
        <time>2021-09-12T10:45:56.789Z</time>
      </trkpt>
      <trkpt lat="45.69688" lon="5.9072">
        <ele>246</ele>
        <time>2021-09-12T10:45:57.789Z</time>
      </trkpt>
      <trkpt lat="45.69688" lon="5.9072">
        <ele>246</ele>
        <time>2021-09-12T10:45:58.789Z</time>
      </trkpt>
      <trkpt lat="45.69688" lon="5.90719">
        <ele>246</ele>
        <time>2021-09-12T10:45:59.789Z</time>
      </trkpt>
      <trkpt lat="45.69688" lon="5.90719">
        <ele>246</ele>
        <time>2021-09-12T10:46:00.788Z</time>
      </trkpt>
      <trkpt lat="45.69685" lon="5.90715">
        <ele>242</ele>
        <time>2021-09-12T10:46:01.789Z</time>
      </trkpt>
      <trkpt lat="45.69683" lon="5.90715">
        <ele>243</ele>
        <time>2021-09-12T10:46:02.790Z</time>
      </trkpt>
      <trkpt lat="45.6968" lon="5.90715">
        <ele>243</ele>
        <time>2021-09-12T10:46:03.790Z</time>
      </trkpt>
      <trkpt lat="45.69677" lon="5.90716">
        <ele>243</ele>
        <time>2021-09-12T10:46:04.790Z</time>
      </trkpt>
      <trkpt lat="45.69674" lon="5.90716">
        <ele>244</ele>
        <time>2021-09-12T10:46:05.790Z</time>
      </trkpt>
      <trkpt lat="45.69671" lon="5.90717">
        <ele>244</ele>
        <time>2021-09-12T10:46:06.789Z</time>
      </trkpt>
      <trkpt lat="45.69668" lon="5.90718">
        <ele>244</ele>
        <time>2021-09-12T10:46:07.789Z</time>
      </trkpt>
      <trkpt lat="45.69665" lon="5.90719">
        <ele>245</ele>
        <time>2021-09-12T10:46:08.790Z</time>
      </trkpt>
      <trkpt lat="45.69663" lon="5.90721">
        <ele>246</ele>
        <time>2021-09-12T10:46:09.790Z</time>
      </trkpt>
      <trkpt lat="45.69662" lon="5.90721">
        <ele>246</ele>
        <time>2021-09-12T10:46:10.790Z</time>
      </trkpt>
      <trkpt lat="45.69662" lon="5.90722">
        <ele>247</ele>
        <time>2021-09-12T10:46:11.790Z</time>
      </trkpt>
      <trkpt lat="45.69661" lon="5.90722">
        <ele>247</ele>
        <time>2021-09-12T10:46:12.790Z</time>
      </trkpt>
      <trkpt lat="45.69661" lon="5.90722">
        <ele>248</ele>
        <time>2021-09-12T10:46:13.790Z</time>
      </trkpt>
      <trkpt lat="45.69661" lon="5.90725">
        <ele>252</ele>
        <time>2021-09-12T10:46:14.791Z</time>
      </trkpt>
      <trkpt lat="45.69661" lon="5.90726">
        <ele>252</ele>
        <time>2021-09-12T10:46:15.791Z</time>
      </trkpt>
      <trkpt lat="45.69658" lon="5.90727">
        <ele>243</ele>
        <time>2021-09-12T10:46:16.791Z</time>
      </trkpt>
      <trkpt lat="45.69655" lon="5.90728">
        <ele>243</ele>
        <time>2021-09-12T10:46:17.791Z</time>
      </trkpt>
      <trkpt lat="45.69653" lon="5.90729">
        <ele>243</ele>
        <time>2021-09-12T10:46:18.791Z</time>
      </trkpt>
      <trkpt lat="45.69651" lon="5.90731">
        <ele>243</ele>
        <time>2021-09-12T10:46:19.791Z</time>
      </trkpt>
      <trkpt lat="45.69649" lon="5.90733">
        <ele>243</ele>
        <time>2021-09-12T10:46:20.791Z</time>
      </trkpt>
      <trkpt lat="45.69647" lon="5.90735">
        <ele>244</ele>
        <time>2021-09-12T10:46:21.790Z</time>
      </trkpt>
      <trkpt lat="45.69645" lon="5.90736">
        <ele>244</ele>
        <time>2021-09-12T10:46:22.790Z</time>
      </trkpt>
      <trkpt lat="45.69642" lon="5.90736">
        <ele>243</ele>
        <time>2021-09-12T10:46:23.791Z</time>
      </trkpt>
      <trkpt lat="45.69639" lon="5.90736">
        <ele>243</ele>
        <time>2021-09-12T10:46:24.790Z</time>
      </trkpt>
      <trkpt lat="45.69635" lon="5.90736">
        <ele>244</ele>
        <time>2021-09-12T10:46:25.791Z</time>
      </trkpt>
      <trkpt lat="45.69631" lon="5.90735">
        <ele>244</ele>
        <time>2021-09-12T10:46:26.791Z</time>
      </trkpt>
      <trkpt lat="45.69626" lon="5.90734">
        <ele>244</ele>
        <time>2021-09-12T10:46:27.791Z</time>
      </trkpt>
      <trkpt lat="45.69622" lon="5.90734">
        <ele>244</ele>
        <time>2021-09-12T10:46:28.791Z</time>
      </trkpt>
      <trkpt lat="45.69617" lon="5.90734">
        <ele>245</ele>
        <time>2021-09-12T10:46:29.791Z</time>
      </trkpt>
      <trkpt lat="45.69611" lon="5.90733">
        <ele>245</ele>
        <time>2021-09-12T10:46:30.791Z</time>
      </trkpt>
      <trkpt lat="45.69605" lon="5.90733">
        <ele>245</ele>
        <time>2021-09-12T10:46:31.791Z</time>
      </trkpt>
      <trkpt lat="45.69599" lon="5.90732">
        <ele>245</ele>
        <time>2021-09-12T10:46:32.791Z</time>
      </trkpt>
      <trkpt lat="45.69592" lon="5.90731">
        <ele>245</ele>
        <time>2021-09-12T10:46:33.791Z</time>
      </trkpt>
      <trkpt lat="45.69585" lon="5.90729">
        <ele>244</ele>
        <time>2021-09-12T10:46:34.791Z</time>
      </trkpt>
      <trkpt lat="45.69578" lon="5.90727">
        <ele>244</ele>
        <time>2021-09-12T10:46:35.791Z</time>
      </trkpt>
      <trkpt lat="45.69571" lon="5.90725">
        <ele>244</ele>
        <time>2021-09-12T10:46:36.791Z</time>
      </trkpt>
      <trkpt lat="45.69565" lon="5.90723">
        <ele>244</ele>
        <time>2021-09-12T10:46:37.790Z</time>
      </trkpt>
      <trkpt lat="45.69559" lon="5.90719">
        <ele>244</ele>
        <time>2021-09-12T10:46:38.790Z</time>
      </trkpt>
      <trkpt lat="45.69553" lon="5.90714">
        <ele>243</ele>
        <time>2021-09-12T10:46:39.791Z</time>
      </trkpt>
      <trkpt lat="45.69548" lon="5.90707">
        <ele>243</ele>
        <time>2021-09-12T10:46:40.790Z</time>
      </trkpt>
      <trkpt lat="45.69543" lon="5.90702">
        <ele>243</ele>
        <time>2021-09-12T10:46:41.791Z</time>
      </trkpt>
      <trkpt lat="45.69537" lon="5.90695">
        <ele>243</ele>
        <time>2021-09-12T10:46:42.791Z</time>
      </trkpt>
      <trkpt lat="45.69531" lon="5.9069">
        <ele>242</ele>
        <time>2021-09-12T10:46:43.791Z</time>
      </trkpt>
      <trkpt lat="45.69524" lon="5.90686">
        <ele>243</ele>
        <time>2021-09-12T10:46:44.791Z</time>
      </trkpt>
      <trkpt lat="45.69517" lon="5.90685">
        <ele>243</ele>
        <time>2021-09-12T10:46:45.790Z</time>
      </trkpt>
      <trkpt lat="45.6951" lon="5.90689">
        <ele>243</ele>
        <time>2021-09-12T10:46:46.791Z</time>
      </trkpt>
      <trkpt lat="45.69505" lon="5.90695">
        <ele>243</ele>
        <time>2021-09-12T10:46:47.791Z</time>
      </trkpt>
      <trkpt lat="45.695" lon="5.90703">
        <ele>243</ele>
        <time>2021-09-12T10:46:48.791Z</time>
      </trkpt>
      <trkpt lat="45.69496" lon="5.90712">
        <ele>243</ele>
        <time>2021-09-12T10:46:49.791Z</time>
      </trkpt>
      <trkpt lat="45.69493" lon="5.90722">
        <ele>243</ele>
        <time>2021-09-12T10:46:50.790Z</time>
      </trkpt>
      <trkpt lat="45.6949" lon="5.90732">
        <ele>243</ele>
        <time>2021-09-12T10:46:51.791Z</time>
      </trkpt>
      <trkpt lat="45.69487" lon="5.90741">
        <ele>243</ele>
        <time>2021-09-12T10:46:52.790Z</time>
      </trkpt>
      <trkpt lat="45.69485" lon="5.90749">
        <ele>244</ele>
        <time>2021-09-12T10:46:53.791Z</time>
      </trkpt>
      <trkpt lat="45.69483" lon="5.90755">
        <ele>244</ele>
        <time>2021-09-12T10:46:54.790Z</time>
      </trkpt>
      <trkpt lat="45.6948" lon="5.90761">
        <ele>244</ele>
        <time>2021-09-12T10:46:55.791Z</time>
      </trkpt>
      <trkpt lat="45.69478" lon="5.90765">
        <ele>244</ele>
        <time>2021-09-12T10:46:56.791Z</time>
      </trkpt>
      <trkpt lat="45.69476" lon="5.90769">
        <ele>244</ele>
        <time>2021-09-12T10:46:57.791Z</time>
      </trkpt>
      <trkpt lat="45.69475" lon="5.90771">
        <ele>244</ele>
        <time>2021-09-12T10:46:58.791Z</time>
      </trkpt>
      <trkpt lat="45.69475" lon="5.90773">
        <ele>244</ele>
        <time>2021-09-12T10:46:59.791Z</time>
      </trkpt>
      <trkpt lat="45.69475" lon="5.90773">
        <ele>244</ele>
        <time>2021-09-12T10:47:00.791Z</time>
      </trkpt>
      <trkpt lat="45.69475" lon="5.90771">
        <ele>244</ele>
        <time>2021-09-12T10:47:01.791Z</time>
      </trkpt>
      <trkpt lat="45.69474" lon="5.90775">
        <ele>241</ele>
        <time>2021-09-12T10:47:02.790Z</time>
      </trkpt>
      <trkpt lat="45.69473" lon="5.9078">
        <ele>240</ele>
        <time>2021-09-12T10:47:03.791Z</time>
      </trkpt>
      <trkpt lat="45.69471" lon="5.90784">
        <ele>240</ele>
        <time>2021-09-12T10:47:04.791Z</time>
      </trkpt>
      <trkpt lat="45.69469" lon="5.90789">
        <ele>240</ele>
        <time>2021-09-12T10:47:05.790Z</time>
      </trkpt>
      <trkpt lat="45.69467" lon="5.90794">
        <ele>240</ele>
        <time>2021-09-12T10:47:06.790Z</time>
      </trkpt>
      <trkpt lat="45.69465" lon="5.90799">
        <ele>240</ele>
        <time>2021-09-12T10:47:07.791Z</time>
      </trkpt>
      <trkpt lat="45.69463" lon="5.90804">
        <ele>240</ele>
        <time>2021-09-12T10:47:08.790Z</time>
      </trkpt>
      <trkpt lat="45.6946" lon="5.90811">
        <ele>240</ele>
        <time>2021-09-12T10:47:09.791Z</time>
      </trkpt>
      <trkpt lat="45.69457" lon="5.90815">
        <ele>240</ele>
        <time>2021-09-12T10:47:10.790Z</time>
      </trkpt>
      <trkpt lat="45.69454" lon="5.9082">
        <ele>241</ele>
        <time>2021-09-12T10:47:11.791Z</time>
      </trkpt>
      <trkpt lat="45.69452" lon="5.90825">
        <ele>241</ele>
        <time>2021-09-12T10:47:12.790Z</time>
      </trkpt>
      <trkpt lat="45.69449" lon="5.90829">
        <ele>241</ele>
        <time>2021-09-12T10:47:13.791Z</time>
      </trkpt>
      <trkpt lat="45.69446" lon="5.90833">
        <ele>241</ele>
        <time>2021-09-12T10:47:14.791Z</time>
      </trkpt>
      <trkpt lat="45.69443" lon="5.90836">
        <ele>241</ele>
        <time>2021-09-12T10:47:15.791Z</time>
      </trkpt>
      <trkpt lat="45.69439" lon="5.90838">
        <ele>241</ele>
        <time>2021-09-12T10:47:16.790Z</time>
      </trkpt>
      <trkpt lat="45.69435" lon="5.90841">
        <ele>241</ele>
        <time>2021-09-12T10:47:17.790Z</time>
      </trkpt>
      <trkpt lat="45.69431" lon="5.90844">
        <ele>241</ele>
        <time>2021-09-12T10:47:18.790Z</time>
      </trkpt>
      <trkpt lat="45.69428" lon="5.90848">
        <ele>242</ele>
        <time>2021-09-12T10:47:19.790Z</time>
      </trkpt>
      <trkpt lat="45.69424" lon="5.90853">
        <ele>242</ele>
        <time>2021-09-12T10:47:20.790Z</time>
      </trkpt>
      <trkpt lat="45.6942" lon="5.90857">
        <ele>243</ele>
        <time>2021-09-12T10:47:21.790Z</time>
      </trkpt>
      <trkpt lat="45.69416" lon="5.90862">
        <ele>243</ele>
        <time>2021-09-12T10:47:22.790Z</time>
      </trkpt>
      <trkpt lat="45.69412" lon="5.90866">
        <ele>243</ele>
        <time>2021-09-12T10:47:23.790Z</time>
      </trkpt>
      <trkpt lat="45.69407" lon="5.9087">
        <ele>243</ele>
        <time>2021-09-12T10:47:24.790Z</time>
      </trkpt>
      <trkpt lat="45.69403" lon="5.90873">
        <ele>244</ele>
        <time>2021-09-12T10:47:25.791Z</time>
      </trkpt>
      <trkpt lat="45.69398" lon="5.90876">
        <ele>244</ele>
        <time>2021-09-12T10:47:26.790Z</time>
      </trkpt>
      <trkpt lat="45.69393" lon="5.90879">
        <ele>244</ele>
        <time>2021-09-12T10:47:27.790Z</time>
      </trkpt>
      <trkpt lat="45.69388" lon="5.90882">
        <ele>245</ele>
        <time>2021-09-12T10:47:28.790Z</time>
      </trkpt>
      <trkpt lat="45.69384" lon="5.90884">
        <ele>245</ele>
        <time>2021-09-12T10:47:29.791Z</time>
      </trkpt>
      <trkpt lat="45.69379" lon="5.90886">
        <ele>246</ele>
        <time>2021-09-12T10:47:30.790Z</time>
      </trkpt>
      <trkpt lat="45.69374" lon="5.90888">
        <ele>246</ele>
        <time>2021-09-12T10:47:31.791Z</time>
      </trkpt>
      <trkpt lat="45.69369" lon="5.9089">
        <ele>246</ele>
        <time>2021-09-12T10:47:32.790Z</time>
      </trkpt>
      <trkpt lat="45.69364" lon="5.90891">
        <ele>246</ele>
        <time>2021-09-12T10:47:33.790Z</time>
      </trkpt>
      <trkpt lat="45.69359" lon="5.90893">
        <ele>246</ele>
        <time>2021-09-12T10:47:34.791Z</time>
      </trkpt>
      <trkpt lat="45.69354" lon="5.90894">
        <ele>247</ele>
        <time>2021-09-12T10:47:35.790Z</time>
      </trkpt>
      <trkpt lat="45.6935" lon="5.90895">
        <ele>248</ele>
        <time>2021-09-12T10:47:36.790Z</time>
      </trkpt>
      <trkpt lat="45.69345" lon="5.90897">
        <ele>249</ele>
        <time>2021-09-12T10:47:37.791Z</time>
      </trkpt>
      <trkpt lat="45.6934" lon="5.90897">
        <ele>250</ele>
        <time>2021-09-12T10:47:38.790Z</time>
      </trkpt>
      <trkpt lat="45.69336" lon="5.90898">
        <ele>250</ele>
        <time>2021-09-12T10:47:39.790Z</time>
      </trkpt>
      <trkpt lat="45.69331" lon="5.90899">
        <ele>251</ele>
        <time>2021-09-12T10:47:40.790Z</time>
      </trkpt>
      <trkpt lat="45.69326" lon="5.90899">
        <ele>251</ele>
        <time>2021-09-12T10:47:41.790Z</time>
      </trkpt>
      <trkpt lat="45.69322" lon="5.909">
        <ele>251</ele>
        <time>2021-09-12T10:47:42.790Z</time>
      </trkpt>
      <trkpt lat="45.69317" lon="5.909">
        <ele>252</ele>
        <time>2021-09-12T10:47:43.790Z</time>
      </trkpt>
      <trkpt lat="45.69313" lon="5.909">
        <ele>252</ele>
        <time>2021-09-12T10:47:44.790Z</time>
      </trkpt>
      <trkpt lat="45.69308" lon="5.909">
        <ele>252</ele>
        <time>2021-09-12T10:47:45.790Z</time>
      </trkpt>
      <trkpt lat="45.69304" lon="5.90901">
        <ele>251</ele>
        <time>2021-09-12T10:47:46.790Z</time>
      </trkpt>
      <trkpt lat="45.69299" lon="5.90901">
        <ele>251</ele>
        <time>2021-09-12T10:47:47.791Z</time>
      </trkpt>
      <trkpt lat="45.69294" lon="5.90901">
        <ele>250</ele>
        <time>2021-09-12T10:47:48.790Z</time>
      </trkpt>
      <trkpt lat="45.6929" lon="5.90902">
        <ele>250</ele>
        <time>2021-09-12T10:47:49.791Z</time>
      </trkpt>
      <trkpt lat="45.69285" lon="5.90902">
        <ele>250</ele>
        <time>2021-09-12T10:47:50.791Z</time>
      </trkpt>
      <trkpt lat="45.6928" lon="5.90903">
        <ele>250</ele>
        <time>2021-09-12T10:47:51.791Z</time>
      </trkpt>
      <trkpt lat="45.69275" lon="5.90904">
        <ele>251</ele>
        <time>2021-09-12T10:47:52.791Z</time>
      </trkpt>
      <trkpt lat="45.69271" lon="5.90905">
        <ele>251</ele>
        <time>2021-09-12T10:47:53.791Z</time>
      </trkpt>
      <trkpt lat="45.69266" lon="5.90905">
        <ele>251</ele>
        <time>2021-09-12T10:47:54.790Z</time>
      </trkpt>
      <trkpt lat="45.69262" lon="5.90906">
        <ele>252</ele>
        <time>2021-09-12T10:47:55.791Z</time>
      </trkpt>
      <trkpt lat="45.69257" lon="5.90906">
        <ele>252</ele>
        <time>2021-09-12T10:47:56.791Z</time>
      </trkpt>
      <trkpt lat="45.69252" lon="5.90907">
        <ele>252</ele>
        <time>2021-09-12T10:47:57.791Z</time>
      </trkpt>
      <trkpt lat="45.69247" lon="5.90908">
        <ele>252</ele>
        <time>2021-09-12T10:47:58.791Z</time>
      </trkpt>
      <trkpt lat="45.69242" lon="5.90908">
        <ele>252</ele>
        <time>2021-09-12T10:47:59.791Z</time>
      </trkpt>
      <trkpt lat="45.69237" lon="5.90909">
        <ele>252</ele>
        <time>2021-09-12T10:48:00.791Z</time>
      </trkpt>
      <trkpt lat="45.69232" lon="5.90909">
        <ele>252</ele>
        <time>2021-09-12T10:48:01.791Z</time>
      </trkpt>
      <trkpt lat="45.69226" lon="5.9091">
        <ele>252</ele>
        <time>2021-09-12T10:48:02.791Z</time>
      </trkpt>
      <trkpt lat="45.69219" lon="5.9091">
        <ele>252</ele>
        <time>2021-09-12T10:48:03.791Z</time>
      </trkpt>
      <trkpt lat="45.69213" lon="5.9091">
        <ele>252</ele>
        <time>2021-09-12T10:48:04.790Z</time>
      </trkpt>
      <trkpt lat="45.69207" lon="5.9091">
        <ele>252</ele>
        <time>2021-09-12T10:48:05.790Z</time>
      </trkpt>
      <trkpt lat="45.69201" lon="5.90911">
        <ele>252</ele>
        <time>2021-09-12T10:48:06.791Z</time>
      </trkpt>
      <trkpt lat="45.69197" lon="5.90911">
        <ele>252</ele>
        <time>2021-09-12T10:48:07.790Z</time>
      </trkpt>
      <trkpt lat="45.69192" lon="5.90911">
        <ele>251</ele>
        <time>2021-09-12T10:48:08.790Z</time>
      </trkpt>
      <trkpt lat="45.69188" lon="5.90911">
        <ele>251</ele>
        <time>2021-09-12T10:48:09.790Z</time>
      </trkpt>
      <trkpt lat="45.69185" lon="5.9091">
        <ele>251</ele>
        <time>2021-09-12T10:48:10.791Z</time>
      </trkpt>
      <trkpt lat="45.69181" lon="5.9091">
        <ele>250</ele>
        <time>2021-09-12T10:48:11.791Z</time>
      </trkpt>
      <trkpt lat="45.69178" lon="5.90909">
        <ele>250</ele>
        <time>2021-09-12T10:48:12.791Z</time>
      </trkpt>
      <trkpt lat="45.69176" lon="5.90909">
        <ele>250</ele>
        <time>2021-09-12T10:48:13.791Z</time>
      </trkpt>
      <trkpt lat="45.69175" lon="5.90909">
        <ele>250</ele>
        <time>2021-09-12T10:48:14.791Z</time>
      </trkpt>
      <trkpt lat="45.69175" lon="5.90908">
        <ele>250</ele>
        <time>2021-09-12T10:48:15.791Z</time>
      </trkpt>
      <trkpt lat="45.69175" lon="5.90908">
        <ele>250</ele>
        <time>2021-09-12T10:48:16.791Z</time>
      </trkpt>
      <trkpt lat="45.69169" lon="5.90916">
        <ele>258</ele>
        <time>2021-09-12T10:48:17.791Z</time>
      </trkpt>
      <trkpt lat="45.69165" lon="5.90917">
        <ele>258</ele>
        <time>2021-09-12T10:48:18.792Z</time>
      </trkpt>
      <trkpt lat="45.6916" lon="5.90918">
        <ele>259</ele>
        <time>2021-09-12T10:48:19.792Z</time>
      </trkpt>
      <trkpt lat="45.69155" lon="5.90918">
        <ele>260</ele>
        <time>2021-09-12T10:48:20.792Z</time>
      </trkpt>
      <trkpt lat="45.6915" lon="5.90919">
        <ele>260</ele>
        <time>2021-09-12T10:48:21.791Z</time>
      </trkpt>
      <trkpt lat="45.69145" lon="5.90919">
        <ele>261</ele>
        <time>2021-09-12T10:48:22.791Z</time>
      </trkpt>
      <trkpt lat="45.6914" lon="5.9092">
        <ele>261</ele>
        <time>2021-09-12T10:48:23.792Z</time>
      </trkpt>
      <trkpt lat="45.69135" lon="5.9092">
        <ele>262</ele>
        <time>2021-09-12T10:48:24.791Z</time>
      </trkpt>
      <trkpt lat="45.6913" lon="5.9092">
        <ele>263</ele>
        <time>2021-09-12T10:48:25.792Z</time>
      </trkpt>
      <trkpt lat="45.69125" lon="5.90921">
        <ele>263</ele>
        <time>2021-09-12T10:48:26.792Z</time>
      </trkpt>
      <trkpt lat="45.6912" lon="5.90922">
        <ele>264</ele>
        <time>2021-09-12T10:48:27.791Z</time>
      </trkpt>
      <trkpt lat="45.69115" lon="5.90922">
        <ele>265</ele>
        <time>2021-09-12T10:48:28.792Z</time>
      </trkpt>
      <trkpt lat="45.6911" lon="5.90922">
        <ele>265</ele>
        <time>2021-09-12T10:48:29.791Z</time>
      </trkpt>
      <trkpt lat="45.69105" lon="5.90923">
        <ele>265</ele>
        <time>2021-09-12T10:48:30.792Z</time>
      </trkpt>
      <trkpt lat="45.691" lon="5.90924">
        <ele>264</ele>
        <time>2021-09-12T10:48:31.792Z</time>
      </trkpt>
      <trkpt lat="45.69095" lon="5.90925">
        <ele>264</ele>
        <time>2021-09-12T10:48:32.791Z</time>
      </trkpt>
      <trkpt lat="45.6909" lon="5.90926">
        <ele>264</ele>
        <time>2021-09-12T10:48:33.791Z</time>
      </trkpt>
      <trkpt lat="45.69085" lon="5.90926">
        <ele>264</ele>
        <time>2021-09-12T10:48:34.791Z</time>
      </trkpt>
      <trkpt lat="45.69079" lon="5.90927">
        <ele>263</ele>
        <time>2021-09-12T10:48:35.791Z</time>
      </trkpt>
      <trkpt lat="45.69074" lon="5.90928">
        <ele>263</ele>
        <time>2021-09-12T10:48:36.792Z</time>
      </trkpt>
      <trkpt lat="45.69069" lon="5.90929">
        <ele>263</ele>
        <time>2021-09-12T10:48:37.791Z</time>
      </trkpt>
      <trkpt lat="45.69063" lon="5.90931">
        <ele>264</ele>
        <time>2021-09-12T10:48:38.791Z</time>
      </trkpt>
      <trkpt lat="45.69057" lon="5.90932">
        <ele>264</ele>
        <time>2021-09-12T10:48:39.791Z</time>
      </trkpt>
      <trkpt lat="45.69052" lon="5.90933">
        <ele>265</ele>
        <time>2021-09-12T10:48:40.791Z</time>
      </trkpt>
      <trkpt lat="45.69046" lon="5.90935">
        <ele>266</ele>
        <time>2021-09-12T10:48:41.791Z</time>
      </trkpt>
      <trkpt lat="45.69041" lon="5.90936">
        <ele>267</ele>
        <time>2021-09-12T10:48:42.792Z</time>
      </trkpt>
      <trkpt lat="45.69035" lon="5.90937">
        <ele>267</ele>
        <time>2021-09-12T10:48:43.791Z</time>
      </trkpt>
      <trkpt lat="45.69029" lon="5.90938">
        <ele>268</ele>
        <time>2021-09-12T10:48:44.791Z</time>
      </trkpt>
      <trkpt lat="45.69025" lon="5.90938">
        <ele>268</ele>
        <time>2021-09-12T10:48:45.792Z</time>
      </trkpt>
      <trkpt lat="45.6902" lon="5.90938">
        <ele>268</ele>
        <time>2021-09-12T10:48:46.792Z</time>
      </trkpt>
      <trkpt lat="45.69015" lon="5.90938">
        <ele>269</ele>
        <time>2021-09-12T10:48:47.792Z</time>
      </trkpt>
      <trkpt lat="45.69009" lon="5.90939">
        <ele>268</ele>
        <time>2021-09-12T10:48:48.792Z</time>
      </trkpt>
      <trkpt lat="45.69004" lon="5.9094">
        <ele>268</ele>
        <time>2021-09-12T10:48:49.792Z</time>
      </trkpt>
      <trkpt lat="45.68999" lon="5.90941">
        <ele>267</ele>
        <time>2021-09-12T10:48:50.792Z</time>
      </trkpt>
      <trkpt lat="45.68993" lon="5.9094">
        <ele>266</ele>
        <time>2021-09-12T10:48:51.791Z</time>
      </trkpt>
      <trkpt lat="45.68989" lon="5.9094">
        <ele>265</ele>
        <time>2021-09-12T10:48:52.791Z</time>
      </trkpt>
      <trkpt lat="45.68984" lon="5.9094">
        <ele>263</ele>
        <time>2021-09-12T10:48:53.791Z</time>
      </trkpt>
      <trkpt lat="45.68979" lon="5.90941">
        <ele>261</ele>
        <time>2021-09-12T10:48:54.791Z</time>
      </trkpt>
      <trkpt lat="45.68973" lon="5.90942">
        <ele>260</ele>
        <time>2021-09-12T10:48:55.792Z</time>
      </trkpt>
      <trkpt lat="45.68968" lon="5.90942">
        <ele>259</ele>
        <time>2021-09-12T10:48:56.792Z</time>
      </trkpt>
      <trkpt lat="45.68963" lon="5.90943">
        <ele>258</ele>
        <time>2021-09-12T10:48:57.791Z</time>
      </trkpt>
      <trkpt lat="45.68958" lon="5.90944">
        <ele>257</ele>
        <time>2021-09-12T10:48:58.791Z</time>
      </trkpt>
      <trkpt lat="45.68953" lon="5.90945">
        <ele>256</ele>
        <time>2021-09-12T10:48:59.792Z</time>
      </trkpt>
      <trkpt lat="45.68948" lon="5.90946">
        <ele>256</ele>
        <time>2021-09-12T10:49:00.792Z</time>
      </trkpt>
      <trkpt lat="45.68944" lon="5.90946">
        <ele>255</ele>
        <time>2021-09-12T10:49:01.792Z</time>
      </trkpt>
      <trkpt lat="45.68939" lon="5.90945">
        <ele>254</ele>
        <time>2021-09-12T10:49:02.791Z</time>
      </trkpt>
      <trkpt lat="45.68935" lon="5.90943">
        <ele>253</ele>
        <time>2021-09-12T10:49:03.791Z</time>
      </trkpt>
      <trkpt lat="45.68931" lon="5.90941">
        <ele>252</ele>
        <time>2021-09-12T10:49:04.792Z</time>
      </trkpt>
      <trkpt lat="45.68927" lon="5.90939">
        <ele>251</ele>
        <time>2021-09-12T10:49:05.791Z</time>
      </trkpt>
      <trkpt lat="45.68923" lon="5.90939">
        <ele>251</ele>
        <time>2021-09-12T10:49:06.791Z</time>
      </trkpt>
      <trkpt lat="45.68918" lon="5.90939">
        <ele>250</ele>
        <time>2021-09-12T10:49:07.792Z</time>
      </trkpt>
      <trkpt lat="45.68914" lon="5.90939">
        <ele>250</ele>
        <time>2021-09-12T10:49:08.792Z</time>
      </trkpt>
      <trkpt lat="45.68909" lon="5.9094">
        <ele>250</ele>
        <time>2021-09-12T10:49:09.791Z</time>
      </trkpt>
      <trkpt lat="45.68904" lon="5.90941">
        <ele>250</ele>
        <time>2021-09-12T10:49:10.791Z</time>
      </trkpt>
      <trkpt lat="45.689" lon="5.90941">
        <ele>250</ele>
        <time>2021-09-12T10:49:11.791Z</time>
      </trkpt>
      <trkpt lat="45.68895" lon="5.90942">
        <ele>250</ele>
        <time>2021-09-12T10:49:12.791Z</time>
      </trkpt>
      <trkpt lat="45.6889" lon="5.90943">
        <ele>250</ele>
        <time>2021-09-12T10:49:13.791Z</time>
      </trkpt>
      <trkpt lat="45.68885" lon="5.90944">
        <ele>251</ele>
        <time>2021-09-12T10:49:14.792Z</time>
      </trkpt>
      <trkpt lat="45.6888" lon="5.90945">
        <ele>251</ele>
        <time>2021-09-12T10:49:15.792Z</time>
      </trkpt>
      <trkpt lat="45.68875" lon="5.90946">
        <ele>251</ele>
        <time>2021-09-12T10:49:16.792Z</time>
      </trkpt>
      <trkpt lat="45.68871" lon="5.90947">
        <ele>251</ele>
        <time>2021-09-12T10:49:17.792Z</time>
      </trkpt>
      <trkpt lat="45.68866" lon="5.90948">
        <ele>252</ele>
        <time>2021-09-12T10:49:18.792Z</time>
      </trkpt>
      <trkpt lat="45.68861" lon="5.90948">
        <ele>253</ele>
        <time>2021-09-12T10:49:19.791Z</time>
      </trkpt>
      <trkpt lat="45.68856" lon="5.90949">
        <ele>253</ele>
        <time>2021-09-12T10:49:20.792Z</time>
      </trkpt>
      <trkpt lat="45.68852" lon="5.9095">
        <ele>253</ele>
        <time>2021-09-12T10:49:21.792Z</time>
      </trkpt>
      <trkpt lat="45.68847" lon="5.9095">
        <ele>253</ele>
        <time>2021-09-12T10:49:22.791Z</time>
      </trkpt>
      <trkpt lat="45.68843" lon="5.9095">
        <ele>254</ele>
        <time>2021-09-12T10:49:23.792Z</time>
      </trkpt>
      <trkpt lat="45.68839" lon="5.90951">
        <ele>253</ele>
        <time>2021-09-12T10:49:24.792Z</time>
      </trkpt>
      <trkpt lat="45.68834" lon="5.90952">
        <ele>254</ele>
        <time>2021-09-12T10:49:25.791Z</time>
      </trkpt>
      <trkpt lat="45.68832" lon="5.90952">
        <ele>254</ele>
        <time>2021-09-12T10:49:26.792Z</time>
      </trkpt>
      <trkpt lat="45.68829" lon="5.90953">
        <ele>254</ele>
        <time>2021-09-12T10:49:27.791Z</time>
      </trkpt>
      <trkpt lat="45.68826" lon="5.90953">
        <ele>255</ele>
        <time>2021-09-12T10:49:28.792Z</time>
      </trkpt>
      <trkpt lat="45.68824" lon="5.90954">
        <ele>255</ele>
        <time>2021-09-12T10:49:29.791Z</time>
      </trkpt>
      <trkpt lat="45.68823" lon="5.90954">
        <ele>255</ele>
        <time>2021-09-12T10:49:30.792Z</time>
      </trkpt>
      <trkpt lat="45.68821" lon="5.90954">
        <ele>255</ele>
        <time>2021-09-12T10:49:31.792Z</time>
      </trkpt>
      <trkpt lat="45.6882" lon="5.90954">
        <ele>255</ele>
        <time>2021-09-12T10:49:32.792Z</time>
      </trkpt>
      <trkpt lat="45.6882" lon="5.90954">
        <ele>254</ele>
        <time>2021-09-12T10:49:33.791Z</time>
      </trkpt>
      <trkpt lat="45.68818" lon="5.90955">
        <ele>253</ele>
        <time>2021-09-12T10:49:34.791Z</time>
      </trkpt>
      <trkpt lat="45.68817" lon="5.90956">
        <ele>252</ele>
        <time>2021-09-12T10:49:35.791Z</time>
      </trkpt>
      <trkpt lat="45.68815" lon="5.90957">
        <ele>252</ele>
        <time>2021-09-12T10:49:36.791Z</time>
      </trkpt>
      <trkpt lat="45.68813" lon="5.9096">
        <ele>251</ele>
        <time>2021-09-12T10:49:37.792Z</time>
      </trkpt>
      <trkpt lat="45.68811" lon="5.90963">
        <ele>251</ele>
        <time>2021-09-12T10:49:38.791Z</time>
      </trkpt>
      <trkpt lat="45.68811" lon="5.90968">
        <ele>250</ele>
        <time>2021-09-12T10:49:39.791Z</time>
      </trkpt>
      <trkpt lat="45.68811" lon="5.90972">
        <ele>250</ele>
        <time>2021-09-12T10:49:40.792Z</time>
      </trkpt>
      <trkpt lat="45.68812" lon="5.90978">
        <ele>249</ele>
        <time>2021-09-12T10:49:41.792Z</time>
      </trkpt>
      <trkpt lat="45.68812" lon="5.90983">
        <ele>249</ele>
        <time>2021-09-12T10:49:42.792Z</time>
      </trkpt>
      <trkpt lat="45.68813" lon="5.90988">
        <ele>248</ele>
        <time>2021-09-12T10:49:43.791Z</time>
      </trkpt>
      <trkpt lat="45.68813" lon="5.90993">
        <ele>248</ele>
        <time>2021-09-12T10:49:44.792Z</time>
      </trkpt>
      <trkpt lat="45.68814" lon="5.90999">
        <ele>248</ele>
        <time>2021-09-12T10:49:45.792Z</time>
      </trkpt>
      <trkpt lat="45.68814" lon="5.91004">
        <ele>248</ele>
        <time>2021-09-12T10:49:46.792Z</time>
      </trkpt>
      <trkpt lat="45.68814" lon="5.91009">
        <ele>248</ele>
        <time>2021-09-12T10:49:47.792Z</time>
      </trkpt>
      <trkpt lat="45.68814" lon="5.91013">
        <ele>248</ele>
        <time>2021-09-12T10:49:48.792Z</time>
      </trkpt>
      <trkpt lat="45.68814" lon="5.91017">
        <ele>248</ele>
        <time>2021-09-12T10:49:49.792Z</time>
      </trkpt>
      <trkpt lat="45.68813" lon="5.91022">
        <ele>248</ele>
        <time>2021-09-12T10:49:50.792Z</time>
      </trkpt>
      <trkpt lat="45.68812" lon="5.91026">
        <ele>248</ele>
        <time>2021-09-12T10:49:51.792Z</time>
      </trkpt>
      <trkpt lat="45.68812" lon="5.91029">
        <ele>248</ele>
        <time>2021-09-12T10:49:52.791Z</time>
      </trkpt>
      <trkpt lat="45.68811" lon="5.91033">
        <ele>248</ele>
        <time>2021-09-12T10:49:53.791Z</time>
      </trkpt>
      <trkpt lat="45.68811" lon="5.91037">
        <ele>249</ele>
        <time>2021-09-12T10:49:54.791Z</time>
      </trkpt>
      <trkpt lat="45.6881" lon="5.91041">
        <ele>249</ele>
        <time>2021-09-12T10:49:55.791Z</time>
      </trkpt>
      <trkpt lat="45.6881" lon="5.91045">
        <ele>249</ele>
        <time>2021-09-12T10:49:56.792Z</time>
      </trkpt>
      <trkpt lat="45.6881" lon="5.91049">
        <ele>248</ele>
        <time>2021-09-12T10:49:57.792Z</time>
      </trkpt>
      <trkpt lat="45.6881" lon="5.91053">
        <ele>248</ele>
        <time>2021-09-12T10:49:58.791Z</time>
      </trkpt>
      <trkpt lat="45.68811" lon="5.91058">
        <ele>247</ele>
        <time>2021-09-12T10:49:59.791Z</time>
      </trkpt>
      <trkpt lat="45.68812" lon="5.91063">
        <ele>246</ele>
        <time>2021-09-12T10:50:00.791Z</time>
      </trkpt>
      <trkpt lat="45.68811" lon="5.91067">
        <ele>246</ele>
        <time>2021-09-12T10:50:01.792Z</time>
      </trkpt>
      <trkpt lat="45.68811" lon="5.91071">
        <ele>246</ele>
        <time>2021-09-12T10:50:02.792Z</time>
      </trkpt>
      <trkpt lat="45.68811" lon="5.91075">
        <ele>246</ele>
        <time>2021-09-12T10:50:03.791Z</time>
      </trkpt>
      <trkpt lat="45.6881" lon="5.9108">
        <ele>246</ele>
        <time>2021-09-12T10:50:04.792Z</time>
      </trkpt>
      <trkpt lat="45.6881" lon="5.91084">
        <ele>246</ele>
        <time>2021-09-12T10:50:05.792Z</time>
      </trkpt>
      <trkpt lat="45.6881" lon="5.91088">
        <ele>247</ele>
        <time>2021-09-12T10:50:06.792Z</time>
      </trkpt>
      <trkpt lat="45.6881" lon="5.91092">
        <ele>248</ele>
        <time>2021-09-12T10:50:07.792Z</time>
      </trkpt>
      <trkpt lat="45.68809" lon="5.91096">
        <ele>248</ele>
        <time>2021-09-12T10:50:08.791Z</time>
      </trkpt>
      <trkpt lat="45.68809" lon="5.911">
        <ele>249</ele>
        <time>2021-09-12T10:50:09.792Z</time>
      </trkpt>
      <trkpt lat="45.68808" lon="5.91105">
        <ele>249</ele>
        <time>2021-09-12T10:50:10.792Z</time>
      </trkpt>
      <trkpt lat="45.68807" lon="5.91108">
        <ele>249</ele>
        <time>2021-09-12T10:50:11.792Z</time>
      </trkpt>
      <trkpt lat="45.68807" lon="5.91112">
        <ele>249</ele>
        <time>2021-09-12T10:50:12.791Z</time>
      </trkpt>
      <trkpt lat="45.68806" lon="5.91117">
        <ele>250</ele>
        <time>2021-09-12T10:50:13.792Z</time>
      </trkpt>
      <trkpt lat="45.68805" lon="5.91121">
        <ele>250</ele>
        <time>2021-09-12T10:50:14.791Z</time>
      </trkpt>
      <trkpt lat="45.68803" lon="5.91125">
        <ele>250</ele>
        <time>2021-09-12T10:50:15.792Z</time>
      </trkpt>
      <trkpt lat="45.68802" lon="5.91128">
        <ele>250</ele>
        <time>2021-09-12T10:50:16.791Z</time>
      </trkpt>
      <trkpt lat="45.68801" lon="5.91129">
        <ele>250</ele>
        <time>2021-09-12T10:50:17.791Z</time>
      </trkpt>
      <trkpt lat="45.688" lon="5.91129">
        <ele>250</ele>
        <time>2021-09-12T10:50:18.791Z</time>
      </trkpt>
      <trkpt lat="45.688" lon="5.91128">
        <ele>250</ele>
        <time>2021-09-12T10:50:19.791Z</time>
      </trkpt>
      <trkpt lat="45.688" lon="5.91128">
        <ele>250</ele>
        <time>2021-09-12T10:50:20.792Z</time>
      </trkpt>
      <trkpt lat="45.68802" lon="5.91127">
        <ele>249</ele>
        <time>2021-09-12T10:50:21.792Z</time>
      </trkpt>
      <trkpt lat="45.68803" lon="5.91127">
        <ele>249</ele>
        <time>2021-09-12T10:50:22.792Z</time>
      </trkpt>
      <trkpt lat="45.68802" lon="5.91137">
        <ele>250</ele>
        <time>2021-09-12T10:50:23.793Z</time>
      </trkpt>
      <trkpt lat="45.68801" lon="5.91141">
        <ele>250</ele>
        <time>2021-09-12T10:50:24.793Z</time>
      </trkpt>
      <trkpt lat="45.68802" lon="5.91146">
        <ele>250</ele>
        <time>2021-09-12T10:50:25.794Z</time>
      </trkpt>
      <trkpt lat="45.68802" lon="5.91151">
        <ele>250</ele>
        <time>2021-09-12T10:50:26.793Z</time>
      </trkpt>
      <trkpt lat="45.68802" lon="5.91157">
        <ele>250</ele>
        <time>2021-09-12T10:50:27.793Z</time>
      </trkpt>
      <trkpt lat="45.68802" lon="5.91162">
        <ele>250</ele>
        <time>2021-09-12T10:50:28.793Z</time>
      </trkpt>
      <trkpt lat="45.68801" lon="5.91167">
        <ele>251</ele>
        <time>2021-09-12T10:50:29.793Z</time>
      </trkpt>
      <trkpt lat="45.68801" lon="5.91171">
        <ele>251</ele>
        <time>2021-09-12T10:50:30.794Z</time>
      </trkpt>
      <trkpt lat="45.688" lon="5.91175">
        <ele>252</ele>
        <time>2021-09-12T10:50:31.794Z</time>
      </trkpt>
      <trkpt lat="45.688" lon="5.9118">
        <ele>252</ele>
        <time>2021-09-12T10:50:32.793Z</time>
      </trkpt>
      <trkpt lat="45.68799" lon="5.91184">
        <ele>253</ele>
        <time>2021-09-12T10:50:33.793Z</time>
      </trkpt>
      <trkpt lat="45.68799" lon="5.91188">
        <ele>253</ele>
        <time>2021-09-12T10:50:34.793Z</time>
      </trkpt>
      <trkpt lat="45.68798" lon="5.91192">
        <ele>253</ele>
        <time>2021-09-12T10:50:35.794Z</time>
      </trkpt>
      <trkpt lat="45.68798" lon="5.91197">
        <ele>253</ele>
        <time>2021-09-12T10:50:36.793Z</time>
      </trkpt>
      <trkpt lat="45.68797" lon="5.91201">
        <ele>253</ele>
        <time>2021-09-12T10:50:37.794Z</time>
      </trkpt>
      <trkpt lat="45.68796" lon="5.91206">
        <ele>253</ele>
        <time>2021-09-12T10:50:38.793Z</time>
      </trkpt>
      <trkpt lat="45.68796" lon="5.91211">
        <ele>253</ele>
        <time>2021-09-12T10:50:39.794Z</time>
      </trkpt>
      <trkpt lat="45.68796" lon="5.91216">
        <ele>254</ele>
        <time>2021-09-12T10:50:40.793Z</time>
      </trkpt>
      <trkpt lat="45.68796" lon="5.9122">
        <ele>254</ele>
        <time>2021-09-12T10:50:41.793Z</time>
      </trkpt>
      <trkpt lat="45.68796" lon="5.91225">
        <ele>254</ele>
        <time>2021-09-12T10:50:42.793Z</time>
      </trkpt>
      <trkpt lat="45.68795" lon="5.91229">
        <ele>254</ele>
        <time>2021-09-12T10:50:43.793Z</time>
      </trkpt>
      <trkpt lat="45.68795" lon="5.91234">
        <ele>254</ele>
        <time>2021-09-12T10:50:44.793Z</time>
      </trkpt>
      <trkpt lat="45.68795" lon="5.91238">
        <ele>255</ele>
        <time>2021-09-12T10:50:45.794Z</time>
      </trkpt>
      <trkpt lat="45.68795" lon="5.91243">
        <ele>255</ele>
        <time>2021-09-12T10:50:46.794Z</time>
      </trkpt>
      <trkpt lat="45.68795" lon="5.91248">
        <ele>255</ele>
        <time>2021-09-12T10:50:47.793Z</time>
      </trkpt>
      <trkpt lat="45.68796" lon="5.91251">
        <ele>255</ele>
        <time>2021-09-12T10:50:48.794Z</time>
      </trkpt>
      <trkpt lat="45.68795" lon="5.91257">
        <ele>255</ele>
        <time>2021-09-12T10:50:49.794Z</time>
      </trkpt>
      <trkpt lat="45.68794" lon="5.9126">
        <ele>255</ele>
        <time>2021-09-12T10:50:50.794Z</time>
      </trkpt>
      <trkpt lat="45.68793" lon="5.91264">
        <ele>255</ele>
        <time>2021-09-12T10:50:51.794Z</time>
      </trkpt>
      <trkpt lat="45.68793" lon="5.91268">
        <ele>256</ele>
        <time>2021-09-12T10:50:52.794Z</time>
      </trkpt>
      <trkpt lat="45.68792" lon="5.91273">
        <ele>257</ele>
        <time>2021-09-12T10:50:53.794Z</time>
      </trkpt>
      <trkpt lat="45.68793" lon="5.91279">
        <ele>257</ele>
        <time>2021-09-12T10:50:54.794Z</time>
      </trkpt>
      <trkpt lat="45.68793" lon="5.91284">
        <ele>258</ele>
        <time>2021-09-12T10:50:55.794Z</time>
      </trkpt>
      <trkpt lat="45.68792" lon="5.91287">
        <ele>258</ele>
        <time>2021-09-12T10:50:56.793Z</time>
      </trkpt>
      <trkpt lat="45.68791" lon="5.91293">
        <ele>259</ele>
        <time>2021-09-12T10:50:57.793Z</time>
      </trkpt>
      <trkpt lat="45.68791" lon="5.91297">
        <ele>259</ele>
        <time>2021-09-12T10:50:58.793Z</time>
      </trkpt>
      <trkpt lat="45.6879" lon="5.91301">
        <ele>259</ele>
        <time>2021-09-12T10:50:59.794Z</time>
      </trkpt>
      <trkpt lat="45.6879" lon="5.91304">
        <ele>260</ele>
        <time>2021-09-12T10:51:00.793Z</time>
      </trkpt>
      <trkpt lat="45.68789" lon="5.91309">
        <ele>260</ele>
        <time>2021-09-12T10:51:01.794Z</time>
      </trkpt>
      <trkpt lat="45.68788" lon="5.91313">
        <ele>260</ele>
        <time>2021-09-12T10:51:02.794Z</time>
      </trkpt>
      <trkpt lat="45.68788" lon="5.91318">
        <ele>261</ele>
        <time>2021-09-12T10:51:03.793Z</time>
      </trkpt>
      <trkpt lat="45.68788" lon="5.91322">
        <ele>261</ele>
        <time>2021-09-12T10:51:04.793Z</time>
      </trkpt>
      <trkpt lat="45.68788" lon="5.91327">
        <ele>262</ele>
        <time>2021-09-12T10:51:05.793Z</time>
      </trkpt>
      <trkpt lat="45.68789" lon="5.9133">
        <ele>262</ele>
        <time>2021-09-12T10:51:06.793Z</time>
      </trkpt>
      <trkpt lat="45.68789" lon="5.91334">
        <ele>262</ele>
        <time>2021-09-12T10:51:07.793Z</time>
      </trkpt>
      <trkpt lat="45.6879" lon="5.91338">
        <ele>263</ele>
        <time>2021-09-12T10:51:08.793Z</time>
      </trkpt>
      <trkpt lat="45.68791" lon="5.91342">
        <ele>263</ele>
        <time>2021-09-12T10:51:09.794Z</time>
      </trkpt>
      <trkpt lat="45.68792" lon="5.91347">
        <ele>263</ele>
        <time>2021-09-12T10:51:10.794Z</time>
      </trkpt>
      <trkpt lat="45.68794" lon="5.91351">
        <ele>264</ele>
        <time>2021-09-12T10:51:11.794Z</time>
      </trkpt>
      <trkpt lat="45.68795" lon="5.91356">
        <ele>264</ele>
        <time>2021-09-12T10:51:12.793Z</time>
      </trkpt>
      <trkpt lat="45.68796" lon="5.91359">
        <ele>264</ele>
        <time>2021-09-12T10:51:13.794Z</time>
      </trkpt>
      <trkpt lat="45.68796" lon="5.91364">
        <ele>265</ele>
        <time>2021-09-12T10:51:14.794Z</time>
      </trkpt>
      <trkpt lat="45.68797" lon="5.91368">
        <ele>265</ele>
        <time>2021-09-12T10:51:15.794Z</time>
      </trkpt>
      <trkpt lat="45.68798" lon="5.91373">
        <ele>265</ele>
        <time>2021-09-12T10:51:16.794Z</time>
      </trkpt>
      <trkpt lat="45.68798" lon="5.91377">
        <ele>266</ele>
        <time>2021-09-12T10:51:17.794Z</time>
      </trkpt>
      <trkpt lat="45.68798" lon="5.91381">
        <ele>266</ele>
        <time>2021-09-12T10:51:18.793Z</time>
      </trkpt>
      <trkpt lat="45.68798" lon="5.91386">
        <ele>266</ele>
        <time>2021-09-12T10:51:19.794Z</time>
      </trkpt>
      <trkpt lat="45.68797" lon="5.91389">
        <ele>266</ele>
        <time>2021-09-12T10:51:20.793Z</time>
      </trkpt>
      <trkpt lat="45.68796" lon="5.91393">
        <ele>267</ele>
        <time>2021-09-12T10:51:21.794Z</time>
      </trkpt>
      <trkpt lat="45.68796" lon="5.91397">
        <ele>267</ele>
        <time>2021-09-12T10:51:22.793Z</time>
      </trkpt>
      <trkpt lat="45.68797" lon="5.91402">
        <ele>267</ele>
        <time>2021-09-12T10:51:23.794Z</time>
      </trkpt>
      <trkpt lat="45.68797" lon="5.91406">
        <ele>267</ele>
        <time>2021-09-12T10:51:24.793Z</time>
      </trkpt>
      <trkpt lat="45.68798" lon="5.91411">
        <ele>266</ele>
        <time>2021-09-12T10:51:25.793Z</time>
      </trkpt>
      <trkpt lat="45.68798" lon="5.91415">
        <ele>266</ele>
        <time>2021-09-12T10:51:26.794Z</time>
      </trkpt>
      <trkpt lat="45.68798" lon="5.9142">
        <ele>265</ele>
        <time>2021-09-12T10:51:27.794Z</time>
      </trkpt>
      <trkpt lat="45.68798" lon="5.91424">
        <ele>265</ele>
        <time>2021-09-12T10:51:28.794Z</time>
      </trkpt>
      <trkpt lat="45.68799" lon="5.9143">
        <ele>265</ele>
        <time>2021-09-12T10:51:29.793Z</time>
      </trkpt>
      <trkpt lat="45.688" lon="5.91433">
        <ele>264</ele>
        <time>2021-09-12T10:51:30.794Z</time>
      </trkpt>
      <trkpt lat="45.688" lon="5.91438">
        <ele>264</ele>
        <time>2021-09-12T10:51:31.794Z</time>
      </trkpt>
      <trkpt lat="45.68801" lon="5.91443">
        <ele>263</ele>
        <time>2021-09-12T10:51:32.794Z</time>
      </trkpt>
      <trkpt lat="45.68801" lon="5.91447">
        <ele>263</ele>
        <time>2021-09-12T10:51:33.794Z</time>
      </trkpt>
      <trkpt lat="45.68802" lon="5.91452">
        <ele>262</ele>
        <time>2021-09-12T10:51:34.794Z</time>
      </trkpt>
      <trkpt lat="45.68802" lon="5.91457">
        <ele>262</ele>
        <time>2021-09-12T10:51:35.794Z</time>
      </trkpt>
      <trkpt lat="45.68803" lon="5.91461">
        <ele>261</ele>
        <time>2021-09-12T10:51:36.793Z</time>
      </trkpt>
      <trkpt lat="45.68804" lon="5.91465">
        <ele>261</ele>
        <time>2021-09-12T10:51:37.793Z</time>
      </trkpt>
      <trkpt lat="45.68804" lon="5.9147">
        <ele>261</ele>
        <time>2021-09-12T10:51:38.793Z</time>
      </trkpt>
      <trkpt lat="45.68805" lon="5.91474">
        <ele>261</ele>
        <time>2021-09-12T10:51:39.794Z</time>
      </trkpt>
      <trkpt lat="45.68806" lon="5.91478">
        <ele>261</ele>
        <time>2021-09-12T10:51:40.794Z</time>
      </trkpt>
      <trkpt lat="45.68806" lon="5.91482">
        <ele>261</ele>
        <time>2021-09-12T10:51:41.794Z</time>
      </trkpt>
      <trkpt lat="45.68807" lon="5.91487">
        <ele>261</ele>
        <time>2021-09-12T10:51:42.793Z</time>
      </trkpt>
      <trkpt lat="45.68808" lon="5.91492">
        <ele>261</ele>
        <time>2021-09-12T10:51:43.794Z</time>
      </trkpt>
      <trkpt lat="45.68808" lon="5.91496">
        <ele>261</ele>
        <time>2021-09-12T10:51:44.794Z</time>
      </trkpt>
      <trkpt lat="45.68809" lon="5.915">
        <ele>261</ele>
        <time>2021-09-12T10:51:45.794Z</time>
      </trkpt>
      <trkpt lat="45.6881" lon="5.91504">
        <ele>262</ele>
        <time>2021-09-12T10:51:46.794Z</time>
      </trkpt>
      <trkpt lat="45.6881" lon="5.91509">
        <ele>262</ele>
        <time>2021-09-12T10:51:47.793Z</time>
      </trkpt>
      <trkpt lat="45.68811" lon="5.91514">
        <ele>262</ele>
        <time>2021-09-12T10:51:48.794Z</time>
      </trkpt>
      <trkpt lat="45.68811" lon="5.91518">
        <ele>262</ele>
        <time>2021-09-12T10:51:49.794Z</time>
      </trkpt>
      <trkpt lat="45.68811" lon="5.91523">
        <ele>262</ele>
        <time>2021-09-12T10:51:50.794Z</time>
      </trkpt>
      <trkpt lat="45.6881" lon="5.91527">
        <ele>263</ele>
        <time>2021-09-12T10:51:51.793Z</time>
      </trkpt>
      <trkpt lat="45.68809" lon="5.91531">
        <ele>264</ele>
        <time>2021-09-12T10:51:52.793Z</time>
      </trkpt>
      <trkpt lat="45.68808" lon="5.91536">
        <ele>265</ele>
        <time>2021-09-12T10:51:53.794Z</time>
      </trkpt>
      <trkpt lat="45.68807" lon="5.9154">
        <ele>265</ele>
        <time>2021-09-12T10:51:54.794Z</time>
      </trkpt>
      <trkpt lat="45.68806" lon="5.91544">
        <ele>266</ele>
        <time>2021-09-12T10:51:55.793Z</time>
      </trkpt>
      <trkpt lat="45.68805" lon="5.91547">
        <ele>267</ele>
        <time>2021-09-12T10:51:56.793Z</time>
      </trkpt>
      <trkpt lat="45.68805" lon="5.9155">
        <ele>268</ele>
        <time>2021-09-12T10:51:57.794Z</time>
      </trkpt>
      <trkpt lat="45.68804" lon="5.91554">
        <ele>269</ele>
        <time>2021-09-12T10:51:58.794Z</time>
      </trkpt>
      <trkpt lat="45.68803" lon="5.91557">
        <ele>270</ele>
        <time>2021-09-12T10:51:59.793Z</time>
      </trkpt>
      <trkpt lat="45.68802" lon="5.91561">
        <ele>271</ele>
        <time>2021-09-12T10:52:00.793Z</time>
      </trkpt>
      <trkpt lat="45.688" lon="5.91565">
        <ele>272</ele>
        <time>2021-09-12T10:52:01.793Z</time>
      </trkpt>
      <trkpt lat="45.68798" lon="5.91568">
        <ele>273</ele>
        <time>2021-09-12T10:52:02.793Z</time>
      </trkpt>
      <trkpt lat="45.68797" lon="5.91571">
        <ele>274</ele>
        <time>2021-09-12T10:52:03.794Z</time>
      </trkpt>
      <trkpt lat="45.68795" lon="5.91575">
        <ele>275</ele>
        <time>2021-09-12T10:52:04.793Z</time>
      </trkpt>
      <trkpt lat="45.68792" lon="5.91579">
        <ele>276</ele>
        <time>2021-09-12T10:52:05.793Z</time>
      </trkpt>
      <trkpt lat="45.6879" lon="5.91583">
        <ele>277</ele>
        <time>2021-09-12T10:52:06.794Z</time>
      </trkpt>
      <trkpt lat="45.68788" lon="5.91587">
        <ele>277</ele>
        <time>2021-09-12T10:52:07.794Z</time>
      </trkpt>
      <trkpt lat="45.68786" lon="5.9159">
        <ele>277</ele>
        <time>2021-09-12T10:52:08.794Z</time>
      </trkpt>
      <trkpt lat="45.68784" lon="5.91592">
        <ele>277</ele>
        <time>2021-09-12T10:52:09.794Z</time>
      </trkpt>
      <trkpt lat="45.68782" lon="5.91595">
        <ele>278</ele>
        <time>2021-09-12T10:52:10.794Z</time>
      </trkpt>
      <trkpt lat="45.68781" lon="5.91598">
        <ele>278</ele>
        <time>2021-09-12T10:52:11.794Z</time>
      </trkpt>
      <trkpt lat="45.68779" lon="5.91601">
        <ele>278</ele>
        <time>2021-09-12T10:52:12.793Z</time>
      </trkpt>
      <trkpt lat="45.68777" lon="5.91603">
        <ele>278</ele>
        <time>2021-09-12T10:52:13.794Z</time>
      </trkpt>
      <trkpt lat="45.68774" lon="5.91607">
        <ele>278</ele>
        <time>2021-09-12T10:52:14.793Z</time>
      </trkpt>
      <trkpt lat="45.68771" lon="5.91609">
        <ele>278</ele>
        <time>2021-09-12T10:52:15.793Z</time>
      </trkpt>
      <trkpt lat="45.68769" lon="5.91611">
        <ele>278</ele>
        <time>2021-09-12T10:52:16.793Z</time>
      </trkpt>
      <trkpt lat="45.68766" lon="5.91614">
        <ele>277</ele>
        <time>2021-09-12T10:52:17.794Z</time>
      </trkpt>
      <trkpt lat="45.68764" lon="5.91616">
        <ele>277</ele>
        <time>2021-09-12T10:52:18.794Z</time>
      </trkpt>
      <trkpt lat="45.68761" lon="5.91618">
        <ele>277</ele>
        <time>2021-09-12T10:52:19.794Z</time>
      </trkpt>
      <trkpt lat="45.68759" lon="5.91621">
        <ele>277</ele>
        <time>2021-09-12T10:52:20.794Z</time>
      </trkpt>
      <trkpt lat="45.68756" lon="5.91623">
        <ele>277</ele>
        <time>2021-09-12T10:52:21.794Z</time>
      </trkpt>
      <trkpt lat="45.68754" lon="5.91625">
        <ele>277</ele>
        <time>2021-09-12T10:52:22.793Z</time>
      </trkpt>
      <trkpt lat="45.68752" lon="5.91627">
        <ele>278</ele>
        <time>2021-09-12T10:52:23.794Z</time>
      </trkpt>
      <trkpt lat="45.6875" lon="5.91627">
        <ele>278</ele>
        <time>2021-09-12T10:52:24.794Z</time>
      </trkpt>
      <trkpt lat="45.68748" lon="5.91627">
        <ele>278</ele>
        <time>2021-09-12T10:52:25.794Z</time>
      </trkpt>
      <trkpt lat="45.68746" lon="5.91627">
        <ele>278</ele>
        <time>2021-09-12T10:52:26.793Z</time>
      </trkpt>
      <trkpt lat="45.68744" lon="5.91628">
        <ele>278</ele>
        <time>2021-09-12T10:52:27.793Z</time>
      </trkpt>
      <trkpt lat="45.68742" lon="5.91629">
        <ele>278</ele>
        <time>2021-09-12T10:52:28.793Z</time>
      </trkpt>
      <trkpt lat="45.68741" lon="5.91629">
        <ele>279</ele>
        <time>2021-09-12T10:52:29.794Z</time>
      </trkpt>
      <trkpt lat="45.6874" lon="5.9163">
        <ele>279</ele>
        <time>2021-09-12T10:52:30.794Z</time>
      </trkpt>
      <trkpt lat="45.68739" lon="5.91631">
        <ele>280</ele>
        <time>2021-09-12T10:52:31.794Z</time>
      </trkpt>
      <trkpt lat="45.68738" lon="5.91631">
        <ele>281</ele>
        <time>2021-09-12T10:52:32.793Z</time>
      </trkpt>
      <trkpt lat="45.68738" lon="5.91632">
        <ele>282</ele>
        <time>2021-09-12T10:52:33.794Z</time>
      </trkpt>
      <trkpt lat="45.68738" lon="5.91632">
        <ele>283</ele>
        <time>2021-09-12T10:52:34.793Z</time>
      </trkpt>
      <trkpt lat="45.68737" lon="5.91631">
        <ele>284</ele>
        <time>2021-09-12T10:52:36.794Z</time>
      </trkpt>
      <trkpt lat="45.68738" lon="5.9163">
        <ele>282</ele>
        <time>2021-09-12T10:52:37.795Z</time>
      </trkpt>
      <trkpt lat="45.68733" lon="5.91634">
        <ele>282</ele>
        <time>2021-09-12T10:52:38.796Z</time>
      </trkpt>
      <trkpt lat="45.6873" lon="5.91635">
        <ele>282</ele>
        <time>2021-09-12T10:52:39.797Z</time>
      </trkpt>
      <trkpt lat="45.68727" lon="5.91636">
        <ele>282</ele>
        <time>2021-09-12T10:52:40.797Z</time>
      </trkpt>
      <trkpt lat="45.68724" lon="5.91636">
        <ele>283</ele>
        <time>2021-09-12T10:52:41.796Z</time>
      </trkpt>
      <trkpt lat="45.6872" lon="5.91637">
        <ele>283</ele>
        <time>2021-09-12T10:52:42.797Z</time>
      </trkpt>
      <trkpt lat="45.68716" lon="5.91638">
        <ele>283</ele>
        <time>2021-09-12T10:52:43.796Z</time>
      </trkpt>
      <trkpt lat="45.68711" lon="5.91638">
        <ele>283</ele>
        <time>2021-09-12T10:52:44.797Z</time>
      </trkpt>
      <trkpt lat="45.68706" lon="5.91639">
        <ele>284</ele>
        <time>2021-09-12T10:52:45.797Z</time>
      </trkpt>
      <trkpt lat="45.68702" lon="5.9164">
        <ele>284</ele>
        <time>2021-09-12T10:52:46.797Z</time>
      </trkpt>
      <trkpt lat="45.68698" lon="5.9164">
        <ele>284</ele>
        <time>2021-09-12T10:52:47.797Z</time>
      </trkpt>
      <trkpt lat="45.68693" lon="5.9164">
        <ele>283</ele>
        <time>2021-09-12T10:52:48.797Z</time>
      </trkpt>
      <trkpt lat="45.68689" lon="5.91639">
        <ele>283</ele>
        <time>2021-09-12T10:52:49.797Z</time>
      </trkpt>
      <trkpt lat="45.68685" lon="5.91639">
        <ele>282</ele>
        <time>2021-09-12T10:52:50.797Z</time>
      </trkpt>
      <trkpt lat="45.6868" lon="5.91638">
        <ele>282</ele>
        <time>2021-09-12T10:52:51.797Z</time>
      </trkpt>
      <trkpt lat="45.68676" lon="5.91637">
        <ele>282</ele>
        <time>2021-09-12T10:52:52.797Z</time>
      </trkpt>
      <trkpt lat="45.68673" lon="5.91636">
        <ele>282</ele>
        <time>2021-09-12T10:52:53.797Z</time>
      </trkpt>
      <trkpt lat="45.68669" lon="5.91636">
        <ele>281</ele>
        <time>2021-09-12T10:52:54.797Z</time>
      </trkpt>
      <trkpt lat="45.68665" lon="5.91635">
        <ele>280</ele>
        <time>2021-09-12T10:52:55.797Z</time>
      </trkpt>
      <trkpt lat="45.68662" lon="5.91633">
        <ele>280</ele>
        <time>2021-09-12T10:52:56.797Z</time>
      </trkpt>
      <trkpt lat="45.68658" lon="5.91631">
        <ele>279</ele>
        <time>2021-09-12T10:52:57.797Z</time>
      </trkpt>
      <trkpt lat="45.68654" lon="5.91629">
        <ele>278</ele>
        <time>2021-09-12T10:52:58.796Z</time>
      </trkpt>
      <trkpt lat="45.6865" lon="5.91627">
        <ele>277</ele>
        <time>2021-09-12T10:52:59.797Z</time>
      </trkpt>
      <trkpt lat="45.68646" lon="5.91625">
        <ele>276</ele>
        <time>2021-09-12T10:53:00.797Z</time>
      </trkpt>
      <trkpt lat="45.68642" lon="5.91624">
        <ele>275</ele>
        <time>2021-09-12T10:53:01.796Z</time>
      </trkpt>
      <trkpt lat="45.68638" lon="5.91622">
        <ele>274</ele>
        <time>2021-09-12T10:53:02.797Z</time>
      </trkpt>
      <trkpt lat="45.68635" lon="5.9162">
        <ele>273</ele>
        <time>2021-09-12T10:53:03.797Z</time>
      </trkpt>
      <trkpt lat="45.68632" lon="5.91619">
        <ele>272</ele>
        <time>2021-09-12T10:53:04.797Z</time>
      </trkpt>
      <trkpt lat="45.68629" lon="5.91618">
        <ele>271</ele>
        <time>2021-09-12T10:53:05.796Z</time>
      </trkpt>
      <trkpt lat="45.68626" lon="5.91617">
        <ele>270</ele>
        <time>2021-09-12T10:53:06.797Z</time>
      </trkpt>
      <trkpt lat="45.68623" lon="5.91616">
        <ele>269</ele>
        <time>2021-09-12T10:53:07.797Z</time>
      </trkpt>
      <trkpt lat="45.6862" lon="5.91615">
        <ele>268</ele>
        <time>2021-09-12T10:53:08.797Z</time>
      </trkpt>
      <trkpt lat="45.68618" lon="5.91614">
        <ele>267</ele>
        <time>2021-09-12T10:53:09.797Z</time>
      </trkpt>
      <trkpt lat="45.68616" lon="5.91613">
        <ele>267</ele>
        <time>2021-09-12T10:53:10.797Z</time>
      </trkpt>
      <trkpt lat="45.68613" lon="5.91612">
        <ele>267</ele>
        <time>2021-09-12T10:53:11.797Z</time>
      </trkpt>
      <trkpt lat="45.68611" lon="5.91611">
        <ele>267</ele>
        <time>2021-09-12T10:53:12.797Z</time>
      </trkpt>
      <trkpt lat="45.68608" lon="5.91611">
        <ele>267</ele>
        <time>2021-09-12T10:53:13.797Z</time>
      </trkpt>
      <trkpt lat="45.68606" lon="5.9161">
        <ele>268</ele>
        <time>2021-09-12T10:53:14.797Z</time>
      </trkpt>
      <trkpt lat="45.68604" lon="5.91609">
        <ele>268</ele>
        <time>2021-09-12T10:53:15.797Z</time>
      </trkpt>
      <trkpt lat="45.68601" lon="5.91608">
        <ele>268</ele>
        <time>2021-09-12T10:53:16.797Z</time>
      </trkpt>
      <trkpt lat="45.68599" lon="5.91606">
        <ele>268</ele>
        <time>2021-09-12T10:53:17.796Z</time>
      </trkpt>
      <trkpt lat="45.68596" lon="5.91604">
        <ele>267</ele>
        <time>2021-09-12T10:53:18.797Z</time>
      </trkpt>
      <trkpt lat="45.68594" lon="5.91602">
        <ele>267</ele>
        <time>2021-09-12T10:53:19.797Z</time>
      </trkpt>
      <trkpt lat="45.68591" lon="5.91599">
        <ele>267</ele>
        <time>2021-09-12T10:53:20.796Z</time>
      </trkpt>
      <trkpt lat="45.68589" lon="5.91596">
        <ele>267</ele>
        <time>2021-09-12T10:53:21.797Z</time>
      </trkpt>
      <trkpt lat="45.68587" lon="5.91593">
        <ele>267</ele>
        <time>2021-09-12T10:53:22.796Z</time>
      </trkpt>
      <trkpt lat="45.68585" lon="5.91591">
        <ele>267</ele>
        <time>2021-09-12T10:53:23.796Z</time>
      </trkpt>
      <trkpt lat="45.68583" lon="5.91588">
        <ele>267</ele>
        <time>2021-09-12T10:53:24.797Z</time>
      </trkpt>
      <trkpt lat="45.68583" lon="5.91587">
        <ele>267</ele>
        <time>2021-09-12T10:53:25.797Z</time>
      </trkpt>
      <trkpt lat="45.68582" lon="5.91586">
        <ele>266</ele>
        <time>2021-09-12T10:53:26.797Z</time>
      </trkpt>
      <trkpt lat="45.68582" lon="5.91586">
        <ele>266</ele>
        <time>2021-09-12T10:53:27.797Z</time>
      </trkpt>
      <trkpt lat="45.68582" lon="5.91585">
        <ele>265</ele>
        <time>2021-09-12T10:53:28.797Z</time>
      </trkpt>
      <trkpt lat="45.68582" lon="5.91585">
        <ele>265</ele>
        <time>2021-09-12T10:53:29.797Z</time>
      </trkpt>
      <trkpt lat="45.68584" lon="5.91588">
        <ele>267</ele>
        <time>2021-09-12T10:53:30.798Z</time>
      </trkpt>
      <trkpt lat="45.68585" lon="5.91589">
        <ele>267</ele>
        <time>2021-09-12T10:53:31.798Z</time>
      </trkpt>
      <trkpt lat="45.68585" lon="5.9159">
        <ele>267</ele>
        <time>2021-09-12T10:53:32.797Z</time>
      </trkpt>
      <trkpt lat="45.68585" lon="5.91591">
        <ele>267</ele>
        <time>2021-09-12T10:53:33.797Z</time>
      </trkpt>
      <trkpt lat="45.68585" lon="5.91592">
        <ele>266</ele>
        <time>2021-09-12T10:53:34.798Z</time>
      </trkpt>
      <trkpt lat="45.68584" lon="5.91593">
        <ele>266</ele>
        <time>2021-09-12T10:53:35.798Z</time>
      </trkpt>
      <trkpt lat="45.68582" lon="5.91589">
        <ele>281</ele>
        <time>2021-09-12T10:53:36.799Z</time>
      </trkpt>
      <trkpt lat="45.68582" lon="5.91588">
        <ele>281</ele>
        <time>2021-09-12T10:53:37.799Z</time>
      </trkpt>
      <trkpt lat="45.68581" lon="5.91587">
        <ele>275</ele>
        <time>2021-09-12T10:53:38.799Z</time>
      </trkpt>
      <trkpt lat="45.68582" lon="5.91587">
        <ele>280</ele>
        <time>2021-09-12T10:53:39.800Z</time>
      </trkpt>
      <trkpt lat="45.68584" lon="5.91585">
        <ele>280</ele>
        <time>2021-09-12T10:53:40.800Z</time>
      </trkpt>
      <trkpt lat="45.68586" lon="5.91582">
        <ele>280</ele>
        <time>2021-09-12T10:53:41.800Z</time>
      </trkpt>
      <trkpt lat="45.6859" lon="5.91572">
        <ele>283</ele>
        <time>2021-09-12T10:53:42.801Z</time>
      </trkpt>
      <trkpt lat="45.6859" lon="5.91574">
        <ele>282</ele>
        <time>2021-09-12T10:53:43.801Z</time>
      </trkpt>
      <trkpt lat="45.68589" lon="5.91574">
        <ele>282</ele>
        <time>2021-09-12T10:53:44.802Z</time>
      </trkpt>
      <trkpt lat="45.68589" lon="5.91574">
        <ele>282</ele>
        <time>2021-09-12T10:53:45.801Z</time>
      </trkpt>
      <trkpt lat="45.68589" lon="5.91575">
        <ele>282</ele>
        <time>2021-09-12T10:53:46.801Z</time>
      </trkpt>
      <trkpt lat="45.6859" lon="5.91575">
        <ele>282</ele>
        <time>2021-09-12T10:53:47.801Z</time>
      </trkpt>
      <trkpt lat="45.6859" lon="5.91575">
        <ele>281</ele>
        <time>2021-09-12T10:53:48.802Z</time>
      </trkpt>
      <trkpt lat="45.68589" lon="5.91574">
        <ele>281</ele>
        <time>2021-09-12T10:53:49.802Z</time>
      </trkpt>
      <trkpt lat="45.68589" lon="5.91574">
        <ele>281</ele>
        <time>2021-09-12T10:53:50.802Z</time>
      </trkpt>
      <trkpt lat="45.68589" lon="5.91574">
        <ele>280</ele>
        <time>2021-09-12T10:53:51.801Z</time>
      </trkpt>
      <trkpt lat="45.68589" lon="5.91575">
        <ele>280</ele>
        <time>2021-09-12T10:53:52.801Z</time>
      </trkpt>
      <trkpt lat="45.68589" lon="5.91575">
        <ele>280</ele>
        <time>2021-09-12T10:53:53.802Z</time>
      </trkpt>
      <trkpt lat="45.68589" lon="5.91575">
        <ele>280</ele>
        <time>2021-09-12T10:53:54.802Z</time>
      </trkpt>
      <trkpt lat="45.68589" lon="5.91575">
        <ele>280</ele>
        <time>2021-09-12T10:53:55.801Z</time>
      </trkpt>
      <trkpt lat="45.68589" lon="5.91575">
        <ele>280</ele>
        <time>2021-09-12T10:53:56.801Z</time>
      </trkpt>
      <trkpt lat="45.68589" lon="5.91575">
        <ele>280</ele>
        <time>2021-09-12T10:53:57.802Z</time>
      </trkpt>
      <trkpt lat="45.68589" lon="5.91575">
        <ele>281</ele>
        <time>2021-09-12T10:53:58.801Z</time>
      </trkpt>
      <trkpt lat="45.68589" lon="5.91575">
        <ele>281</ele>
        <time>2021-09-12T10:53:59.802Z</time>
      </trkpt>
      <trkpt lat="45.68589" lon="5.91575">
        <ele>281</ele>
        <time>2021-09-12T10:54:00.801Z</time>
      </trkpt>
      <trkpt lat="45.68589" lon="5.91575">
        <ele>281</ele>
        <time>2021-09-12T10:54:01.801Z</time>
      </trkpt>
      <trkpt lat="45.68589" lon="5.91575">
        <ele>281</ele>
        <time>2021-09-12T10:54:02.801Z</time>
      </trkpt>
      <trkpt lat="45.68589" lon="5.91575">
        <ele>281</ele>
        <time>2021-09-12T10:54:03.802Z</time>
      </trkpt>
      <trkpt lat="45.68589" lon="5.91575">
        <ele>282</ele>
        <time>2021-09-12T10:54:04.802Z</time>
      </trkpt>
      <trkpt lat="45.68589" lon="5.91575">
        <ele>282</ele>
        <time>2021-09-12T10:54:05.801Z</time>
      </trkpt>
      <trkpt lat="45.68589" lon="5.91575">
        <ele>282</ele>
        <time>2021-09-12T10:54:06.802Z</time>
      </trkpt>
      <trkpt lat="45.68589" lon="5.91575">
        <ele>282</ele>
        <time>2021-09-12T10:54:07.802Z</time>
      </trkpt>
      <trkpt lat="45.6859" lon="5.91575">
        <ele>282</ele>
        <time>2021-09-12T10:54:08.802Z</time>
      </trkpt>
      <trkpt lat="45.6859" lon="5.91575">
        <ele>282</ele>
        <time>2021-09-12T10:54:09.802Z</time>
      </trkpt>
      <trkpt lat="45.6859" lon="5.91575">
        <ele>282</ele>
        <time>2021-09-12T10:54:10.801Z</time>
      </trkpt>
      <trkpt lat="45.6859" lon="5.91575">
        <ele>282</ele>
        <time>2021-09-12T10:54:11.801Z</time>
      </trkpt>
      <trkpt lat="45.6859" lon="5.91575">
        <ele>282</ele>
        <time>2021-09-12T10:54:12.801Z</time>
      </trkpt>
      <trkpt lat="45.68591" lon="5.91575">
        <ele>282</ele>
        <time>2021-09-12T10:54:13.801Z</time>
      </trkpt>
      <trkpt lat="45.68591" lon="5.91575">
        <ele>282</ele>
        <time>2021-09-12T10:54:14.801Z</time>
      </trkpt>
      <trkpt lat="45.68591" lon="5.91575">
        <ele>282</ele>
        <time>2021-09-12T10:54:15.802Z</time>
      </trkpt>
      <trkpt lat="45.68591" lon="5.91574">
        <ele>282</ele>
        <time>2021-09-12T10:54:16.801Z</time>
      </trkpt>
      <trkpt lat="45.68591" lon="5.91574">
        <ele>282</ele>
        <time>2021-09-12T10:54:17.802Z</time>
      </trkpt>
      <trkpt lat="45.68591" lon="5.91574">
        <ele>282</ele>
        <time>2021-09-12T10:54:18.802Z</time>
      </trkpt>
      <trkpt lat="45.68591" lon="5.91574">
        <ele>282</ele>
        <time>2021-09-12T10:54:19.801Z</time>
      </trkpt>
      <trkpt lat="45.68591" lon="5.91574">
        <ele>282</ele>
        <time>2021-09-12T10:54:20.801Z</time>
      </trkpt>
      <trkpt lat="45.68591" lon="5.91574">
        <ele>282</ele>
        <time>2021-09-12T10:54:21.801Z</time>
      </trkpt>
      <trkpt lat="45.68591" lon="5.91574">
        <ele>282</ele>
        <time>2021-09-12T10:54:22.802Z</time>
      </trkpt>
      <trkpt lat="45.68591" lon="5.91574">
        <ele>282</ele>
        <time>2021-09-12T10:54:23.802Z</time>
      </trkpt>
      <trkpt lat="45.68591" lon="5.91574">
        <ele>282</ele>
        <time>2021-09-12T10:54:24.802Z</time>
      </trkpt>
      <trkpt lat="45.68591" lon="5.91574">
        <ele>282</ele>
        <time>2021-09-12T10:54:25.801Z</time>
      </trkpt>
      <trkpt lat="45.68591" lon="5.91574">
        <ele>282</ele>
        <time>2021-09-12T10:54:26.801Z</time>
      </trkpt>
      <trkpt lat="45.68591" lon="5.91574">
        <ele>282</ele>
        <time>2021-09-12T10:54:27.801Z</time>
      </trkpt>
      <trkpt lat="45.68591" lon="5.91574">
        <ele>282</ele>
        <time>2021-09-12T10:54:28.802Z</time>
      </trkpt>
      <trkpt lat="45.68591" lon="5.91574">
        <ele>282</ele>
        <time>2021-09-12T10:54:29.802Z</time>
      </trkpt>
      <trkpt lat="45.68591" lon="5.91574">
        <ele>282</ele>
        <time>2021-09-12T10:54:30.801Z</time>
      </trkpt>
      <trkpt lat="45.68591" lon="5.91574">
        <ele>282</ele>
        <time>2021-09-12T10:54:31.802Z</time>
      </trkpt>
      <trkpt lat="45.68591" lon="5.91574">
        <ele>282</ele>
        <time>2021-09-12T10:54:32.801Z</time>
      </trkpt>
      <trkpt lat="45.68591" lon="5.91574">
        <ele>282</ele>
        <time>2021-09-12T10:54:33.802Z</time>
      </trkpt>
      <trkpt lat="45.68591" lon="5.91574">
        <ele>282</ele>
        <time>2021-09-12T10:54:34.801Z</time>
      </trkpt>
      <trkpt lat="45.68591" lon="5.91574">
        <ele>282</ele>
        <time>2021-09-12T10:54:35.801Z</time>
      </trkpt>
      <trkpt lat="45.68591" lon="5.91574">
        <ele>282</ele>
        <time>2021-09-12T10:54:36.802Z</time>
      </trkpt>
      <trkpt lat="45.68591" lon="5.91574">
        <ele>282</ele>
        <time>2021-09-12T10:54:37.802Z</time>
      </trkpt>
      <trkpt lat="45.68591" lon="5.91574">
        <ele>282</ele>
        <time>2021-09-12T10:54:38.802Z</time>
      </trkpt>
      <trkpt lat="45.68591" lon="5.91574">
        <ele>282</ele>
        <time>2021-09-12T10:54:39.802Z</time>
      </trkpt>
      <trkpt lat="45.68591" lon="5.91574">
        <ele>282</ele>
        <time>2021-09-12T10:54:40.802Z</time>
      </trkpt>
      <trkpt lat="45.68591" lon="5.91574">
        <ele>282</ele>
        <time>2021-09-12T10:54:41.801Z</time>
      </trkpt>
      <trkpt lat="45.68591" lon="5.91574">
        <ele>282</ele>
        <time>2021-09-12T10:54:42.802Z</time>
      </trkpt>
      <trkpt lat="45.68591" lon="5.91574">
        <ele>282</ele>
        <time>2021-09-12T10:54:43.802Z</time>
      </trkpt>
      <trkpt lat="45.68591" lon="5.91573">
        <ele>282</ele>
        <time>2021-09-12T10:54:44.802Z</time>
      </trkpt>
      <trkpt lat="45.68591" lon="5.91573">
        <ele>282</ele>
        <time>2021-09-12T10:54:45.801Z</time>
      </trkpt>
      <trkpt lat="45.68591" lon="5.91573">
        <ele>282</ele>
        <time>2021-09-12T10:54:46.801Z</time>
      </trkpt>
      <trkpt lat="45.68591" lon="5.91573">
        <ele>282</ele>
        <time>2021-09-12T10:54:47.802Z</time>
      </trkpt>
      <trkpt lat="45.68591" lon="5.91573">
        <ele>282</ele>
        <time>2021-09-12T10:54:48.802Z</time>
      </trkpt>
      <trkpt lat="45.68591" lon="5.91573">
        <ele>282</ele>
        <time>2021-09-12T10:54:49.802Z</time>
      </trkpt>
      <trkpt lat="45.68591" lon="5.91573">
        <ele>282</ele>
        <time>2021-09-12T10:54:50.801Z</time>
      </trkpt>
      <trkpt lat="45.68591" lon="5.91573">
        <ele>282</ele>
        <time>2021-09-12T10:54:51.801Z</time>
      </trkpt>
      <trkpt lat="45.68591" lon="5.91573">
        <ele>282</ele>
        <time>2021-09-12T10:54:52.802Z</time>
      </trkpt>
      <trkpt lat="45.6859" lon="5.91573">
        <ele>282</ele>
        <time>2021-09-12T10:54:53.802Z</time>
      </trkpt>
      <trkpt lat="45.6859" lon="5.91573">
        <ele>282</ele>
        <time>2021-09-12T10:54:54.802Z</time>
      </trkpt>
      <trkpt lat="45.6859" lon="5.91573">
        <ele>282</ele>
        <time>2021-09-12T10:54:55.801Z</time>
      </trkpt>
      <trkpt lat="45.6859" lon="5.91573">
        <ele>282</ele>
        <time>2021-09-12T10:54:56.802Z</time>
      </trkpt>
      <trkpt lat="45.6859" lon="5.91573">
        <ele>282</ele>
        <time>2021-09-12T10:54:57.802Z</time>
      </trkpt>
      <trkpt lat="45.6859" lon="5.91573">
        <ele>282</ele>
        <time>2021-09-12T10:54:58.802Z</time>
      </trkpt>
      <trkpt lat="45.6859" lon="5.91574">
        <ele>282</ele>
        <time>2021-09-12T10:54:59.802Z</time>
      </trkpt>
      <trkpt lat="45.68591" lon="5.91571">
        <ele>282</ele>
        <time>2021-09-12T10:55:00.802Z</time>
      </trkpt>
      <trkpt lat="45.68591" lon="5.91568">
        <ele>282</ele>
        <time>2021-09-12T10:55:01.801Z</time>
      </trkpt>
      <trkpt lat="45.68591" lon="5.91565">
        <ele>281</ele>
        <time>2021-09-12T10:55:02.802Z</time>
      </trkpt>
      <trkpt lat="45.68591" lon="5.91561">
        <ele>280</ele>
        <time>2021-09-12T10:55:03.801Z</time>
      </trkpt>
      <trkpt lat="45.68591" lon="5.91556">
        <ele>280</ele>
        <time>2021-09-12T10:55:04.801Z</time>
      </trkpt>
      <trkpt lat="45.6859" lon="5.91551">
        <ele>279</ele>
        <time>2021-09-12T10:55:05.801Z</time>
      </trkpt>
      <trkpt lat="45.68591" lon="5.91547">
        <ele>278</ele>
        <time>2021-09-12T10:55:06.801Z</time>
      </trkpt>
      <trkpt lat="45.68591" lon="5.91543">
        <ele>277</ele>
        <time>2021-09-12T10:55:07.802Z</time>
      </trkpt>
      <trkpt lat="45.68592" lon="5.91541">
        <ele>277</ele>
        <time>2021-09-12T10:55:08.802Z</time>
      </trkpt>
      <trkpt lat="45.68592" lon="5.91539">
        <ele>276</ele>
        <time>2021-09-12T10:55:09.802Z</time>
      </trkpt>
      <trkpt lat="45.68592" lon="5.91536">
        <ele>275</ele>
        <time>2021-09-12T10:55:10.801Z</time>
      </trkpt>
      <trkpt lat="45.68592" lon="5.91533">
        <ele>273</ele>
        <time>2021-09-12T10:55:11.801Z</time>
      </trkpt>
      <trkpt lat="45.68592" lon="5.91528">
        <ele>272</ele>
        <time>2021-09-12T10:55:12.802Z</time>
      </trkpt>
      <trkpt lat="45.68592" lon="5.91523">
        <ele>272</ele>
        <time>2021-09-12T10:55:13.802Z</time>
      </trkpt>
      <trkpt lat="45.68592" lon="5.91518">
        <ele>271</ele>
        <time>2021-09-12T10:55:14.802Z</time>
      </trkpt>
      <trkpt lat="45.68592" lon="5.91512">
        <ele>270</ele>
        <time>2021-09-12T10:55:15.801Z</time>
      </trkpt>
      <trkpt lat="45.68591" lon="5.91506">
        <ele>269</ele>
        <time>2021-09-12T10:55:16.801Z</time>
      </trkpt>
      <trkpt lat="45.68591" lon="5.91502">
        <ele>269</ele>
        <time>2021-09-12T10:55:17.802Z</time>
      </trkpt>
      <trkpt lat="45.68591" lon="5.91498">
        <ele>268</ele>
        <time>2021-09-12T10:55:18.802Z</time>
      </trkpt>
      <trkpt lat="45.68591" lon="5.91494">
        <ele>267</ele>
        <time>2021-09-12T10:55:19.801Z</time>
      </trkpt>
      <trkpt lat="45.68591" lon="5.9149">
        <ele>267</ele>
        <time>2021-09-12T10:55:20.801Z</time>
      </trkpt>
      <trkpt lat="45.68591" lon="5.91486">
        <ele>266</ele>
        <time>2021-09-12T10:55:21.802Z</time>
      </trkpt>
      <trkpt lat="45.68591" lon="5.91482">
        <ele>265</ele>
        <time>2021-09-12T10:55:22.802Z</time>
      </trkpt>
      <trkpt lat="45.68591" lon="5.91479">
        <ele>265</ele>
        <time>2021-09-12T10:55:23.801Z</time>
      </trkpt>
      <trkpt lat="45.68591" lon="5.91474">
        <ele>264</ele>
        <time>2021-09-12T10:55:24.802Z</time>
      </trkpt>
      <trkpt lat="45.68591" lon="5.91471">
        <ele>263</ele>
        <time>2021-09-12T10:55:25.802Z</time>
      </trkpt>
      <trkpt lat="45.68591" lon="5.91468">
        <ele>262</ele>
        <time>2021-09-12T10:55:26.802Z</time>
      </trkpt>
      <trkpt lat="45.68591" lon="5.91465">
        <ele>261</ele>
        <time>2021-09-12T10:55:27.802Z</time>
      </trkpt>
      <trkpt lat="45.68591" lon="5.91463">
        <ele>260</ele>
        <time>2021-09-12T10:55:28.802Z</time>
      </trkpt>
      <trkpt lat="45.68591" lon="5.9146">
        <ele>259</ele>
        <time>2021-09-12T10:55:29.802Z</time>
      </trkpt>
      <trkpt lat="45.68591" lon="5.91457">
        <ele>258</ele>
        <time>2021-09-12T10:55:30.801Z</time>
      </trkpt>
      <trkpt lat="45.68591" lon="5.91454">
        <ele>257</ele>
        <time>2021-09-12T10:55:31.801Z</time>
      </trkpt>
      <trkpt lat="45.68591" lon="5.91452">
        <ele>256</ele>
        <time>2021-09-12T10:55:32.802Z</time>
      </trkpt>
      <trkpt lat="45.68591" lon="5.91449">
        <ele>256</ele>
        <time>2021-09-12T10:55:33.802Z</time>
      </trkpt>
      <trkpt lat="45.6859" lon="5.91446">
        <ele>255</ele>
        <time>2021-09-12T10:55:34.802Z</time>
      </trkpt>
      <trkpt lat="45.6859" lon="5.91443">
        <ele>255</ele>
        <time>2021-09-12T10:55:35.801Z</time>
      </trkpt>
      <trkpt lat="45.68591" lon="5.9144">
        <ele>256</ele>
        <time>2021-09-12T10:55:36.801Z</time>
      </trkpt>
      <trkpt lat="45.68592" lon="5.91438">
        <ele>256</ele>
        <time>2021-09-12T10:55:37.802Z</time>
      </trkpt>
      <trkpt lat="45.68593" lon="5.91437">
        <ele>257</ele>
        <time>2021-09-12T10:55:38.802Z</time>
      </trkpt>
      <trkpt lat="45.68594" lon="5.91436">
        <ele>258</ele>
        <time>2021-09-12T10:55:39.802Z</time>
      </trkpt>
      <trkpt lat="45.68594" lon="5.91435">
        <ele>259</ele>
        <time>2021-09-12T10:55:40.801Z</time>
      </trkpt>
      <trkpt lat="45.68594" lon="5.91434">
        <ele>259</ele>
        <time>2021-09-12T10:55:41.802Z</time>
      </trkpt>
      <trkpt lat="45.68594" lon="5.91434">
        <ele>260</ele>
        <time>2021-09-12T10:55:42.802Z</time>
      </trkpt>
      <trkpt lat="45.68594" lon="5.91433">
        <ele>262</ele>
        <time>2021-09-12T10:55:43.802Z</time>
      </trkpt>
      <trkpt lat="45.68592" lon="5.91432">
        <ele>262</ele>
        <time>2021-09-12T10:55:44.803Z</time>
      </trkpt>
      <trkpt lat="45.68591" lon="5.91431">
        <ele>263</ele>
        <time>2021-09-12T10:55:45.803Z</time>
      </trkpt>
      <trkpt lat="45.68588" lon="5.91432">
        <ele>264</ele>
        <time>2021-09-12T10:55:46.803Z</time>
      </trkpt>
      <trkpt lat="45.68585" lon="5.91432">
        <ele>264</ele>
        <time>2021-09-12T10:55:47.803Z</time>
      </trkpt>
      <trkpt lat="45.68582" lon="5.91432">
        <ele>265</ele>
        <time>2021-09-12T10:55:48.803Z</time>
      </trkpt>
      <trkpt lat="45.6858" lon="5.91432">
        <ele>266</ele>
        <time>2021-09-12T10:55:49.802Z</time>
      </trkpt>
      <trkpt lat="45.68578" lon="5.91432">
        <ele>267</ele>
        <time>2021-09-12T10:55:50.802Z</time>
      </trkpt>
      <trkpt lat="45.68575" lon="5.91432">
        <ele>268</ele>
        <time>2021-09-12T10:55:51.803Z</time>
      </trkpt>
      <trkpt lat="45.68573" lon="5.91432">
        <ele>268</ele>
        <time>2021-09-12T10:55:52.803Z</time>
      </trkpt>
      <trkpt lat="45.6857" lon="5.91432">
        <ele>269</ele>
        <time>2021-09-12T10:55:53.803Z</time>
      </trkpt>
      <trkpt lat="45.68567" lon="5.91432">
        <ele>269</ele>
        <time>2021-09-12T10:55:54.803Z</time>
      </trkpt>
      <trkpt lat="45.68564" lon="5.91431">
        <ele>270</ele>
        <time>2021-09-12T10:55:55.802Z</time>
      </trkpt>
      <trkpt lat="45.6856" lon="5.91431">
        <ele>271</ele>
        <time>2021-09-12T10:55:56.803Z</time>
      </trkpt>
      <trkpt lat="45.68555" lon="5.9143">
        <ele>272</ele>
        <time>2021-09-12T10:55:57.803Z</time>
      </trkpt>
      <trkpt lat="45.68551" lon="5.9143">
        <ele>272</ele>
        <time>2021-09-12T10:55:58.802Z</time>
      </trkpt>
      <trkpt lat="45.68548" lon="5.91429">
        <ele>272</ele>
        <time>2021-09-12T10:55:59.803Z</time>
      </trkpt>
      <trkpt lat="45.68545" lon="5.91428">
        <ele>273</ele>
        <time>2021-09-12T10:56:00.802Z</time>
      </trkpt>
      <trkpt lat="45.68542" lon="5.91427">
        <ele>273</ele>
        <time>2021-09-12T10:56:01.802Z</time>
      </trkpt>
      <trkpt lat="45.68538" lon="5.91425">
        <ele>272</ele>
        <time>2021-09-12T10:56:02.803Z</time>
      </trkpt>
      <trkpt lat="45.68535" lon="5.91423">
        <ele>272</ele>
        <time>2021-09-12T10:56:03.803Z</time>
      </trkpt>
      <trkpt lat="45.68531" lon="5.91422">
        <ele>272</ele>
        <time>2021-09-12T10:56:04.802Z</time>
      </trkpt>
      <trkpt lat="45.68528" lon="5.91421">
        <ele>272</ele>
        <time>2021-09-12T10:56:05.803Z</time>
      </trkpt>
      <trkpt lat="45.68525" lon="5.9142">
        <ele>272</ele>
        <time>2021-09-12T10:56:06.803Z</time>
      </trkpt>
      <trkpt lat="45.68524" lon="5.9142">
        <ele>271</ele>
        <time>2021-09-12T10:56:07.802Z</time>
      </trkpt>
      <trkpt lat="45.68522" lon="5.91419">
        <ele>271</ele>
        <time>2021-09-12T10:56:08.803Z</time>
      </trkpt>
      <trkpt lat="45.6852" lon="5.91419">
        <ele>270</ele>
        <time>2021-09-12T10:56:09.803Z</time>
      </trkpt>
      <trkpt lat="45.68518" lon="5.91419">
        <ele>269</ele>
        <time>2021-09-12T10:56:10.802Z</time>
      </trkpt>
      <trkpt lat="45.68516" lon="5.91418">
        <ele>269</ele>
        <time>2021-09-12T10:56:11.803Z</time>
      </trkpt>
      <trkpt lat="45.68513" lon="5.91418">
        <ele>268</ele>
        <time>2021-09-12T10:56:12.803Z</time>
      </trkpt>
      <trkpt lat="45.6851" lon="5.91417">
        <ele>268</ele>
        <time>2021-09-12T10:56:13.803Z</time>
      </trkpt>
      <trkpt lat="45.68506" lon="5.91416">
        <ele>267</ele>
        <time>2021-09-12T10:56:14.802Z</time>
      </trkpt>
      <trkpt lat="45.68502" lon="5.91415">
        <ele>267</ele>
        <time>2021-09-12T10:56:15.802Z</time>
      </trkpt>
      <trkpt lat="45.68498" lon="5.91414">
        <ele>267</ele>
        <time>2021-09-12T10:56:16.803Z</time>
      </trkpt>
      <trkpt lat="45.68494" lon="5.91413">
        <ele>267</ele>
        <time>2021-09-12T10:56:17.802Z</time>
      </trkpt>
      <trkpt lat="45.68488" lon="5.91411">
        <ele>267</ele>
        <time>2021-09-12T10:56:18.802Z</time>
      </trkpt>
      <trkpt lat="45.68484" lon="5.91409">
        <ele>267</ele>
        <time>2021-09-12T10:56:19.803Z</time>
      </trkpt>
      <trkpt lat="45.68481" lon="5.91408">
        <ele>267</ele>
        <time>2021-09-12T10:56:20.803Z</time>
      </trkpt>
      <trkpt lat="45.68476" lon="5.91407">
        <ele>267</ele>
        <time>2021-09-12T10:56:21.802Z</time>
      </trkpt>
      <trkpt lat="45.68471" lon="5.91406">
        <ele>266</ele>
        <time>2021-09-12T10:56:22.803Z</time>
      </trkpt>
      <trkpt lat="45.68465" lon="5.91406">
        <ele>265</ele>
        <time>2021-09-12T10:56:23.803Z</time>
      </trkpt>
      <trkpt lat="45.6846" lon="5.91404">
        <ele>264</ele>
        <time>2021-09-12T10:56:24.803Z</time>
      </trkpt>
      <trkpt lat="45.68457" lon="5.91401">
        <ele>263</ele>
        <time>2021-09-12T10:56:25.803Z</time>
      </trkpt>
      <trkpt lat="45.68453" lon="5.91399">
        <ele>262</ele>
        <time>2021-09-12T10:56:26.803Z</time>
      </trkpt>
      <trkpt lat="45.68448" lon="5.91397">
        <ele>261</ele>
        <time>2021-09-12T10:56:27.803Z</time>
      </trkpt>
      <trkpt lat="45.68443" lon="5.91394">
        <ele>261</ele>
        <time>2021-09-12T10:56:28.802Z</time>
      </trkpt>
      <trkpt lat="45.6844" lon="5.91392">
        <ele>260</ele>
        <time>2021-09-12T10:56:29.802Z</time>
      </trkpt>
      <trkpt lat="45.68435" lon="5.9139">
        <ele>260</ele>
        <time>2021-09-12T10:56:30.802Z</time>
      </trkpt>
      <trkpt lat="45.6843" lon="5.91388">
        <ele>259</ele>
        <time>2021-09-12T10:56:31.803Z</time>
      </trkpt>
      <trkpt lat="45.68425" lon="5.91386">
        <ele>258</ele>
        <time>2021-09-12T10:56:32.803Z</time>
      </trkpt>
      <trkpt lat="45.6842" lon="5.91384">
        <ele>258</ele>
        <time>2021-09-12T10:56:33.802Z</time>
      </trkpt>
      <trkpt lat="45.68416" lon="5.91382">
        <ele>257</ele>
        <time>2021-09-12T10:56:34.802Z</time>
      </trkpt>
      <trkpt lat="45.68412" lon="5.9138">
        <ele>256</ele>
        <time>2021-09-12T10:56:35.803Z</time>
      </trkpt>
      <trkpt lat="45.68407" lon="5.91379">
        <ele>255</ele>
        <time>2021-09-12T10:56:36.802Z</time>
      </trkpt>
      <trkpt lat="45.68402" lon="5.91376">
        <ele>254</ele>
        <time>2021-09-12T10:56:37.803Z</time>
      </trkpt>
      <trkpt lat="45.68398" lon="5.91375">
        <ele>254</ele>
        <time>2021-09-12T10:56:38.803Z</time>
      </trkpt>
      <trkpt lat="45.68394" lon="5.91372">
        <ele>254</ele>
        <time>2021-09-12T10:56:39.803Z</time>
      </trkpt>
      <trkpt lat="45.68389" lon="5.9137">
        <ele>254</ele>
        <time>2021-09-12T10:56:40.802Z</time>
      </trkpt>
      <trkpt lat="45.68384" lon="5.91368">
        <ele>254</ele>
        <time>2021-09-12T10:56:41.803Z</time>
      </trkpt>
      <trkpt lat="45.68377" lon="5.91366">
        <ele>254</ele>
        <time>2021-09-12T10:56:42.803Z</time>
      </trkpt>
      <trkpt lat="45.68372" lon="5.91364">
        <ele>254</ele>
        <time>2021-09-12T10:56:43.802Z</time>
      </trkpt>
      <trkpt lat="45.68367" lon="5.91363">
        <ele>253</ele>
        <time>2021-09-12T10:56:44.802Z</time>
      </trkpt>
      <trkpt lat="45.6836" lon="5.9136">
        <ele>253</ele>
        <time>2021-09-12T10:56:45.802Z</time>
      </trkpt>
      <trkpt lat="45.68353" lon="5.91358">
        <ele>252</ele>
        <time>2021-09-12T10:56:46.802Z</time>
      </trkpt>
      <trkpt lat="45.68348" lon="5.91355">
        <ele>252</ele>
        <time>2021-09-12T10:56:47.803Z</time>
      </trkpt>
      <trkpt lat="45.68343" lon="5.91354">
        <ele>251</ele>
        <time>2021-09-12T10:56:48.803Z</time>
      </trkpt>
      <trkpt lat="45.68338" lon="5.91352">
        <ele>250</ele>
        <time>2021-09-12T10:56:49.803Z</time>
      </trkpt>
      <trkpt lat="45.68332" lon="5.91349">
        <ele>250</ele>
        <time>2021-09-12T10:56:50.803Z</time>
      </trkpt>
      <trkpt lat="45.68328" lon="5.91348">
        <ele>249</ele>
        <time>2021-09-12T10:56:51.803Z</time>
      </trkpt>
      <trkpt lat="45.68322" lon="5.91345">
        <ele>249</ele>
        <time>2021-09-12T10:56:52.802Z</time>
      </trkpt>
      <trkpt lat="45.68317" lon="5.91342">
        <ele>249</ele>
        <time>2021-09-12T10:56:53.802Z</time>
      </trkpt>
      <trkpt lat="45.68313" lon="5.91338">
        <ele>249</ele>
        <time>2021-09-12T10:56:54.802Z</time>
      </trkpt>
      <trkpt lat="45.68308" lon="5.91333">
        <ele>249</ele>
        <time>2021-09-12T10:56:55.803Z</time>
      </trkpt>
      <trkpt lat="45.68304" lon="5.91328">
        <ele>248</ele>
        <time>2021-09-12T10:56:56.803Z</time>
      </trkpt>
      <trkpt lat="45.683" lon="5.91323">
        <ele>248</ele>
        <time>2021-09-12T10:56:57.803Z</time>
      </trkpt>
      <trkpt lat="45.68297" lon="5.91317">
        <ele>248</ele>
        <time>2021-09-12T10:56:58.803Z</time>
      </trkpt>
      <trkpt lat="45.68294" lon="5.91312">
        <ele>248</ele>
        <time>2021-09-12T10:56:59.802Z</time>
      </trkpt>
      <trkpt lat="45.68291" lon="5.91307">
        <ele>248</ele>
        <time>2021-09-12T10:57:00.803Z</time>
      </trkpt>
      <trkpt lat="45.68288" lon="5.91303">
        <ele>248</ele>
        <time>2021-09-12T10:57:01.803Z</time>
      </trkpt>
      <trkpt lat="45.68285" lon="5.91298">
        <ele>248</ele>
        <time>2021-09-12T10:57:02.802Z</time>
      </trkpt>
      <trkpt lat="45.68283" lon="5.91295">
        <ele>248</ele>
        <time>2021-09-12T10:57:03.803Z</time>
      </trkpt>
      <trkpt lat="45.68281" lon="5.91293">
        <ele>248</ele>
        <time>2021-09-12T10:57:04.803Z</time>
      </trkpt>
      <trkpt lat="45.68279" lon="5.91291">
        <ele>248</ele>
        <time>2021-09-12T10:57:05.803Z</time>
      </trkpt>
      <trkpt lat="45.68279" lon="5.91289">
        <ele>248</ele>
        <time>2021-09-12T10:57:06.803Z</time>
      </trkpt>
      <trkpt lat="45.68279" lon="5.91288">
        <ele>248</ele>
        <time>2021-09-12T10:57:07.802Z</time>
      </trkpt>
      <trkpt lat="45.68278" lon="5.91287">
        <ele>248</ele>
        <time>2021-09-12T10:57:08.803Z</time>
      </trkpt>
      <trkpt lat="45.68277" lon="5.91287">
        <ele>248</ele>
        <time>2021-09-12T10:57:09.802Z</time>
      </trkpt>
      <trkpt lat="45.68276" lon="5.91287">
        <ele>248</ele>
        <time>2021-09-12T10:57:10.802Z</time>
      </trkpt>
      <trkpt lat="45.68274" lon="5.91288">
        <ele>248</ele>
        <time>2021-09-12T10:57:11.803Z</time>
      </trkpt>
      <trkpt lat="45.68272" lon="5.91288">
        <ele>248</ele>
        <time>2021-09-12T10:57:12.803Z</time>
      </trkpt>
      <trkpt lat="45.6827" lon="5.91288">
        <ele>248</ele>
        <time>2021-09-12T10:57:13.803Z</time>
      </trkpt>
      <trkpt lat="45.68268" lon="5.91288">
        <ele>248</ele>
        <time>2021-09-12T10:57:14.803Z</time>
      </trkpt>
      <trkpt lat="45.68266" lon="5.91288">
        <ele>248</ele>
        <time>2021-09-12T10:57:15.802Z</time>
      </trkpt>
      <trkpt lat="45.68264" lon="5.91287">
        <ele>248</ele>
        <time>2021-09-12T10:57:16.803Z</time>
      </trkpt>
      <trkpt lat="45.68262" lon="5.91286">
        <ele>249</ele>
        <time>2021-09-12T10:57:17.803Z</time>
      </trkpt>
      <trkpt lat="45.68259" lon="5.91285">
        <ele>249</ele>
        <time>2021-09-12T10:57:18.803Z</time>
      </trkpt>
      <trkpt lat="45.68256" lon="5.91282">
        <ele>249</ele>
        <time>2021-09-12T10:57:19.803Z</time>
      </trkpt>
      <trkpt lat="45.68253" lon="5.9128">
        <ele>249</ele>
        <time>2021-09-12T10:57:20.802Z</time>
      </trkpt>
      <trkpt lat="45.6825" lon="5.91277">
        <ele>249</ele>
        <time>2021-09-12T10:57:21.803Z</time>
      </trkpt>
      <trkpt lat="45.68247" lon="5.91274">
        <ele>250</ele>
        <time>2021-09-12T10:57:22.803Z</time>
      </trkpt>
      <trkpt lat="45.68243" lon="5.91272">
        <ele>250</ele>
        <time>2021-09-12T10:57:23.802Z</time>
      </trkpt>
      <trkpt lat="45.68239" lon="5.91269">
        <ele>251</ele>
        <time>2021-09-12T10:57:24.803Z</time>
      </trkpt>
      <trkpt lat="45.68236" lon="5.91267">
        <ele>251</ele>
        <time>2021-09-12T10:57:25.803Z</time>
      </trkpt>
      <trkpt lat="45.68232" lon="5.91263">
        <ele>252</ele>
        <time>2021-09-12T10:57:26.802Z</time>
      </trkpt>
      <trkpt lat="45.68229" lon="5.91261">
        <ele>252</ele>
        <time>2021-09-12T10:57:27.803Z</time>
      </trkpt>
      <trkpt lat="45.68226" lon="5.91259">
        <ele>252</ele>
        <time>2021-09-12T10:57:28.803Z</time>
      </trkpt>
      <trkpt lat="45.68223" lon="5.91258">
        <ele>252</ele>
        <time>2021-09-12T10:57:29.803Z</time>
      </trkpt>
      <trkpt lat="45.6822" lon="5.91257">
        <ele>253</ele>
        <time>2021-09-12T10:57:30.803Z</time>
      </trkpt>
      <trkpt lat="45.68217" lon="5.91255">
        <ele>253</ele>
        <time>2021-09-12T10:57:31.803Z</time>
      </trkpt>
      <trkpt lat="45.68214" lon="5.91253">
        <ele>253</ele>
        <time>2021-09-12T10:57:32.803Z</time>
      </trkpt>
      <trkpt lat="45.68212" lon="5.91251">
        <ele>254</ele>
        <time>2021-09-12T10:57:33.803Z</time>
      </trkpt>
      <trkpt lat="45.68209" lon="5.91249">
        <ele>254</ele>
        <time>2021-09-12T10:57:34.802Z</time>
      </trkpt>
      <trkpt lat="45.68206" lon="5.91247">
        <ele>254</ele>
        <time>2021-09-12T10:57:35.803Z</time>
      </trkpt>
      <trkpt lat="45.68204" lon="5.91245">
        <ele>254</ele>
        <time>2021-09-12T10:57:36.803Z</time>
      </trkpt>
      <trkpt lat="45.68202" lon="5.91243">
        <ele>255</ele>
        <time>2021-09-12T10:57:37.803Z</time>
      </trkpt>
      <trkpt lat="45.682" lon="5.91242">
        <ele>255</ele>
        <time>2021-09-12T10:57:38.803Z</time>
      </trkpt>
      <trkpt lat="45.68197" lon="5.91242">
        <ele>254</ele>
        <time>2021-09-12T10:57:39.802Z</time>
      </trkpt>
      <trkpt lat="45.68195" lon="5.91241">
        <ele>254</ele>
        <time>2021-09-12T10:57:40.803Z</time>
      </trkpt>
      <trkpt lat="45.68192" lon="5.9124">
        <ele>253</ele>
        <time>2021-09-12T10:57:41.803Z</time>
      </trkpt>
      <trkpt lat="45.6819" lon="5.91239">
        <ele>253</ele>
        <time>2021-09-12T10:57:42.802Z</time>
      </trkpt>
      <trkpt lat="45.68187" lon="5.91238">
        <ele>253</ele>
        <time>2021-09-12T10:57:43.803Z</time>
      </trkpt>
      <trkpt lat="45.68184" lon="5.91235">
        <ele>252</ele>
        <time>2021-09-12T10:57:44.803Z</time>
      </trkpt>
      <trkpt lat="45.68181" lon="5.91232">
        <ele>252</ele>
        <time>2021-09-12T10:57:45.802Z</time>
      </trkpt>
      <trkpt lat="45.68178" lon="5.9123">
        <ele>252</ele>
        <time>2021-09-12T10:57:46.803Z</time>
      </trkpt>
      <trkpt lat="45.68174" lon="5.91226">
        <ele>252</ele>
        <time>2021-09-12T10:57:47.803Z</time>
      </trkpt>
      <trkpt lat="45.6817" lon="5.91222">
        <ele>252</ele>
        <time>2021-09-12T10:57:48.803Z</time>
      </trkpt>
      <trkpt lat="45.68167" lon="5.91218">
        <ele>251</ele>
        <time>2021-09-12T10:57:49.802Z</time>
      </trkpt>
      <trkpt lat="45.68163" lon="5.91215">
        <ele>251</ele>
        <time>2021-09-12T10:57:50.802Z</time>
      </trkpt>
      <trkpt lat="45.6816" lon="5.91211">
        <ele>250</ele>
        <time>2021-09-12T10:57:51.803Z</time>
      </trkpt>
      <trkpt lat="45.68157" lon="5.91207">
        <ele>250</ele>
        <time>2021-09-12T10:57:52.802Z</time>
      </trkpt>
      <trkpt lat="45.68156" lon="5.91203">
        <ele>249</ele>
        <time>2021-09-12T10:57:53.803Z</time>
      </trkpt>
      <trkpt lat="45.68156" lon="5.91198">
        <ele>249</ele>
        <time>2021-09-12T10:57:54.802Z</time>
      </trkpt>
      <trkpt lat="45.68156" lon="5.91193">
        <ele>249</ele>
        <time>2021-09-12T10:57:55.803Z</time>
      </trkpt>
      <trkpt lat="45.68158" lon="5.91188">
        <ele>248</ele>
        <time>2021-09-12T10:57:56.803Z</time>
      </trkpt>
      <trkpt lat="45.6816" lon="5.91183">
        <ele>248</ele>
        <time>2021-09-12T10:57:57.803Z</time>
      </trkpt>
      <trkpt lat="45.68162" lon="5.91176">
        <ele>248</ele>
        <time>2021-09-12T10:57:58.802Z</time>
      </trkpt>
      <trkpt lat="45.68163" lon="5.9117">
        <ele>248</ele>
        <time>2021-09-12T10:57:59.803Z</time>
      </trkpt>
      <trkpt lat="45.68164" lon="5.91164">
        <ele>248</ele>
        <time>2021-09-12T10:58:00.803Z</time>
      </trkpt>
      <trkpt lat="45.68165" lon="5.9116">
        <ele>248</ele>
        <time>2021-09-12T10:58:01.803Z</time>
      </trkpt>
      <trkpt lat="45.68165" lon="5.91156">
        <ele>248</ele>
        <time>2021-09-12T10:58:02.803Z</time>
      </trkpt>
      <trkpt lat="45.68165" lon="5.91154">
        <ele>247</ele>
        <time>2021-09-12T10:58:03.802Z</time>
      </trkpt>
      <trkpt lat="45.68165" lon="5.91153">
        <ele>247</ele>
        <time>2021-09-12T10:58:04.802Z</time>
      </trkpt>
      <trkpt lat="45.68165" lon="5.91152">
        <ele>247</ele>
        <time>2021-09-12T10:58:05.803Z</time>
      </trkpt>
      <trkpt lat="45.68165" lon="5.91151">
        <ele>247</ele>
        <time>2021-09-12T10:58:06.802Z</time>
      </trkpt>
      <trkpt lat="45.68165" lon="5.91151">
        <ele>247</ele>
        <time>2021-09-12T10:58:07.803Z</time>
      </trkpt>
      <trkpt lat="45.68165" lon="5.91151">
        <ele>247</ele>
        <time>2021-09-12T10:58:08.802Z</time>
      </trkpt>
      <trkpt lat="45.68165" lon="5.9115">
        <ele>248</ele>
        <time>2021-09-12T10:58:09.803Z</time>
      </trkpt>
      <trkpt lat="45.68164" lon="5.9115">
        <ele>248</ele>
        <time>2021-09-12T10:58:10.803Z</time>
      </trkpt>
      <trkpt lat="45.68163" lon="5.91149">
        <ele>248</ele>
        <time>2021-09-12T10:58:11.803Z</time>
      </trkpt>
      <trkpt lat="45.68161" lon="5.91148">
        <ele>249</ele>
        <time>2021-09-12T10:58:12.803Z</time>
      </trkpt>
      <trkpt lat="45.68159" lon="5.91146">
        <ele>249</ele>
        <time>2021-09-12T10:58:13.803Z</time>
      </trkpt>
      <trkpt lat="45.68157" lon="5.91145">
        <ele>250</ele>
        <time>2021-09-12T10:58:14.802Z</time>
      </trkpt>
      <trkpt lat="45.68154" lon="5.91143">
        <ele>250</ele>
        <time>2021-09-12T10:58:15.802Z</time>
      </trkpt>
      <trkpt lat="45.68151" lon="5.91142">
        <ele>250</ele>
        <time>2021-09-12T10:58:16.803Z</time>
      </trkpt>
      <trkpt lat="45.68148" lon="5.91141">
        <ele>250</ele>
        <time>2021-09-12T10:58:17.803Z</time>
      </trkpt>
      <trkpt lat="45.68145" lon="5.91139">
        <ele>250</ele>
        <time>2021-09-12T10:58:18.803Z</time>
      </trkpt>
      <trkpt lat="45.68142" lon="5.91137">
        <ele>250</ele>
        <time>2021-09-12T10:58:19.803Z</time>
      </trkpt>
      <trkpt lat="45.68138" lon="5.91135">
        <ele>250</ele>
        <time>2021-09-12T10:58:20.802Z</time>
      </trkpt>
      <trkpt lat="45.68135" lon="5.91133">
        <ele>251</ele>
        <time>2021-09-12T10:58:21.803Z</time>
      </trkpt>
      <trkpt lat="45.68131" lon="5.91131">
        <ele>251</ele>
        <time>2021-09-12T10:58:22.803Z</time>
      </trkpt>
      <trkpt lat="45.68126" lon="5.91129">
        <ele>251</ele>
        <time>2021-09-12T10:58:23.802Z</time>
      </trkpt>
      <trkpt lat="45.68122" lon="5.91127">
        <ele>251</ele>
        <time>2021-09-12T10:58:24.802Z</time>
      </trkpt>
      <trkpt lat="45.68117" lon="5.91124">
        <ele>251</ele>
        <time>2021-09-12T10:58:25.802Z</time>
      </trkpt>
      <trkpt lat="45.68113" lon="5.91122">
        <ele>251</ele>
        <time>2021-09-12T10:58:26.802Z</time>
      </trkpt>
      <trkpt lat="45.68108" lon="5.9112">
        <ele>252</ele>
        <time>2021-09-12T10:58:27.803Z</time>
      </trkpt>
      <trkpt lat="45.68104" lon="5.91119">
        <ele>253</ele>
        <time>2021-09-12T10:58:28.803Z</time>
      </trkpt>
      <trkpt lat="45.681" lon="5.91116">
        <ele>253</ele>
        <time>2021-09-12T10:58:29.803Z</time>
      </trkpt>
      <trkpt lat="45.68097" lon="5.91112">
        <ele>252</ele>
        <time>2021-09-12T10:58:30.802Z</time>
      </trkpt>
      <trkpt lat="45.68095" lon="5.91109">
        <ele>251</ele>
        <time>2021-09-12T10:58:31.802Z</time>
      </trkpt>
      <trkpt lat="45.68094" lon="5.91106">
        <ele>250</ele>
        <time>2021-09-12T10:58:32.803Z</time>
      </trkpt>
      <trkpt lat="45.68094" lon="5.91103">
        <ele>249</ele>
        <time>2021-09-12T10:58:33.803Z</time>
      </trkpt>
      <trkpt lat="45.68094" lon="5.911">
        <ele>248</ele>
        <time>2021-09-12T10:58:34.803Z</time>
      </trkpt>
      <trkpt lat="45.68094" lon="5.91096">
        <ele>248</ele>
        <time>2021-09-12T10:58:35.803Z</time>
      </trkpt>
      <trkpt lat="45.68094" lon="5.91093">
        <ele>247</ele>
        <time>2021-09-12T10:58:36.803Z</time>
      </trkpt>
      <trkpt lat="45.68096" lon="5.91089">
        <ele>247</ele>
        <time>2021-09-12T10:58:37.802Z</time>
      </trkpt>
      <trkpt lat="45.68097" lon="5.91085">
        <ele>247</ele>
        <time>2021-09-12T10:58:38.803Z</time>
      </trkpt>
      <trkpt lat="45.681" lon="5.91081">
        <ele>247</ele>
        <time>2021-09-12T10:58:39.802Z</time>
      </trkpt>
      <trkpt lat="45.68103" lon="5.91078">
        <ele>247</ele>
        <time>2021-09-12T10:58:40.803Z</time>
      </trkpt>
      <trkpt lat="45.68107" lon="5.91076">
        <ele>247</ele>
        <time>2021-09-12T10:58:41.803Z</time>
      </trkpt>
      <trkpt lat="45.6811" lon="5.91075">
        <ele>248</ele>
        <time>2021-09-12T10:58:42.803Z</time>
      </trkpt>
      <trkpt lat="45.68115" lon="5.91074">
        <ele>248</ele>
        <time>2021-09-12T10:58:43.803Z</time>
      </trkpt>
      <trkpt lat="45.68118" lon="5.91073">
        <ele>248</ele>
        <time>2021-09-12T10:58:44.803Z</time>
      </trkpt>
      <trkpt lat="45.68122" lon="5.91071">
        <ele>249</ele>
        <time>2021-09-12T10:58:45.802Z</time>
      </trkpt>
      <trkpt lat="45.68127" lon="5.9107">
        <ele>249</ele>
        <time>2021-09-12T10:58:46.802Z</time>
      </trkpt>
      <trkpt lat="45.68131" lon="5.9107">
        <ele>249</ele>
        <time>2021-09-12T10:58:47.802Z</time>
      </trkpt>
      <trkpt lat="45.68134" lon="5.9107">
        <ele>248</ele>
        <time>2021-09-12T10:58:48.803Z</time>
      </trkpt>
      <trkpt lat="45.68137" lon="5.9107">
        <ele>248</ele>
        <time>2021-09-12T10:58:49.803Z</time>
      </trkpt>
      <trkpt lat="45.68141" lon="5.91069">
        <ele>248</ele>
        <time>2021-09-12T10:58:50.803Z</time>
      </trkpt>
      <trkpt lat="45.68145" lon="5.91067">
        <ele>249</ele>
        <time>2021-09-12T10:58:51.802Z</time>
      </trkpt>
      <trkpt lat="45.68147" lon="5.91065">
        <ele>249</ele>
        <time>2021-09-12T10:58:52.803Z</time>
      </trkpt>
      <trkpt lat="45.68149" lon="5.91062">
        <ele>250</ele>
        <time>2021-09-12T10:58:53.802Z</time>
      </trkpt>
      <trkpt lat="45.68149" lon="5.9106">
        <ele>250</ele>
        <time>2021-09-12T10:58:54.802Z</time>
      </trkpt>
      <trkpt lat="45.68147" lon="5.91058">
        <ele>250</ele>
        <time>2021-09-12T10:58:55.802Z</time>
      </trkpt>
      <trkpt lat="45.68144" lon="5.91058">
        <ele>251</ele>
        <time>2021-09-12T10:58:56.803Z</time>
      </trkpt>
      <trkpt lat="45.68139" lon="5.91059">
        <ele>251</ele>
        <time>2021-09-12T10:58:57.803Z</time>
      </trkpt>
      <trkpt lat="45.68133" lon="5.91059">
        <ele>251</ele>
        <time>2021-09-12T10:58:58.803Z</time>
      </trkpt>
      <trkpt lat="45.68128" lon="5.9106">
        <ele>251</ele>
        <time>2021-09-12T10:58:59.802Z</time>
      </trkpt>
      <trkpt lat="45.68124" lon="5.91061">
        <ele>251</ele>
        <time>2021-09-12T10:59:00.803Z</time>
      </trkpt>
      <trkpt lat="45.68119" lon="5.91062">
        <ele>252</ele>
        <time>2021-09-12T10:59:01.803Z</time>
      </trkpt>
      <trkpt lat="45.68114" lon="5.91063">
        <ele>253</ele>
        <time>2021-09-12T10:59:02.803Z</time>
      </trkpt>
      <trkpt lat="45.68109" lon="5.91064">
        <ele>253</ele>
        <time>2021-09-12T10:59:03.803Z</time>
      </trkpt>
      <trkpt lat="45.68104" lon="5.91064">
        <ele>254</ele>
        <time>2021-09-12T10:59:04.803Z</time>
      </trkpt>
      <trkpt lat="45.68099" lon="5.91064">
        <ele>254</ele>
        <time>2021-09-12T10:59:05.803Z</time>
      </trkpt>
      <trkpt lat="45.68093" lon="5.91064">
        <ele>254</ele>
        <time>2021-09-12T10:59:06.802Z</time>
      </trkpt>
      <trkpt lat="45.68088" lon="5.91065">
        <ele>255</ele>
        <time>2021-09-12T10:59:07.803Z</time>
      </trkpt>
      <trkpt lat="45.68083" lon="5.91065">
        <ele>255</ele>
        <time>2021-09-12T10:59:08.802Z</time>
      </trkpt>
      <trkpt lat="45.68078" lon="5.91064">
        <ele>254</ele>
        <time>2021-09-12T10:59:09.803Z</time>
      </trkpt>
      <trkpt lat="45.68073" lon="5.91064">
        <ele>254</ele>
        <time>2021-09-12T10:59:10.803Z</time>
      </trkpt>
      <trkpt lat="45.68069" lon="5.91065">
        <ele>254</ele>
        <time>2021-09-12T10:59:11.803Z</time>
      </trkpt>
      <trkpt lat="45.68062" lon="5.91064">
        <ele>254</ele>
        <time>2021-09-12T10:59:12.803Z</time>
      </trkpt>
      <trkpt lat="45.68057" lon="5.91065">
        <ele>254</ele>
        <time>2021-09-12T10:59:13.803Z</time>
      </trkpt>
      <trkpt lat="45.68051" lon="5.91066">
        <ele>254</ele>
        <time>2021-09-12T10:59:14.803Z</time>
      </trkpt>
      <trkpt lat="45.68046" lon="5.91066">
        <ele>254</ele>
        <time>2021-09-12T10:59:15.803Z</time>
      </trkpt>
      <trkpt lat="45.68042" lon="5.91065">
        <ele>254</ele>
        <time>2021-09-12T10:59:16.803Z</time>
      </trkpt>
      <trkpt lat="45.68037" lon="5.91064">
        <ele>253</ele>
        <time>2021-09-12T10:59:17.803Z</time>
      </trkpt>
      <trkpt lat="45.68033" lon="5.91063">
        <ele>252</ele>
        <time>2021-09-12T10:59:18.803Z</time>
      </trkpt>
      <trkpt lat="45.68028" lon="5.91062">
        <ele>251</ele>
        <time>2021-09-12T10:59:19.803Z</time>
      </trkpt>
      <trkpt lat="45.68023" lon="5.91061">
        <ele>250</ele>
        <time>2021-09-12T10:59:20.802Z</time>
      </trkpt>
      <trkpt lat="45.68018" lon="5.9106">
        <ele>250</ele>
        <time>2021-09-12T10:59:21.803Z</time>
      </trkpt>
      <trkpt lat="45.68013" lon="5.91059">
        <ele>249</ele>
        <time>2021-09-12T10:59:22.802Z</time>
      </trkpt>
      <trkpt lat="45.68009" lon="5.91059">
        <ele>248</ele>
        <time>2021-09-12T10:59:23.803Z</time>
      </trkpt>
      <trkpt lat="45.68004" lon="5.91058">
        <ele>248</ele>
        <time>2021-09-12T10:59:24.803Z</time>
      </trkpt>
      <trkpt lat="45.67999" lon="5.91057">
        <ele>248</ele>
        <time>2021-09-12T10:59:25.803Z</time>
      </trkpt>
      <trkpt lat="45.67993" lon="5.91056">
        <ele>247</ele>
        <time>2021-09-12T10:59:26.802Z</time>
      </trkpt>
      <trkpt lat="45.67988" lon="5.91055">
        <ele>247</ele>
        <time>2021-09-12T10:59:27.803Z</time>
      </trkpt>
      <trkpt lat="45.67983" lon="5.91054">
        <ele>247</ele>
        <time>2021-09-12T10:59:28.803Z</time>
      </trkpt>
      <trkpt lat="45.67978" lon="5.91053">
        <ele>247</ele>
        <time>2021-09-12T10:59:29.802Z</time>
      </trkpt>
      <trkpt lat="45.67973" lon="5.91052">
        <ele>247</ele>
        <time>2021-09-12T10:59:30.803Z</time>
      </trkpt>
      <trkpt lat="45.67967" lon="5.91052">
        <ele>247</ele>
        <time>2021-09-12T10:59:31.802Z</time>
      </trkpt>
      <trkpt lat="45.67962" lon="5.9105">
        <ele>247</ele>
        <time>2021-09-12T10:59:32.803Z</time>
      </trkpt>
      <trkpt lat="45.67957" lon="5.91049">
        <ele>248</ele>
        <time>2021-09-12T10:59:33.803Z</time>
      </trkpt>
      <trkpt lat="45.67952" lon="5.91047">
        <ele>248</ele>
        <time>2021-09-12T10:59:34.802Z</time>
      </trkpt>
      <trkpt lat="45.67948" lon="5.91045">
        <ele>248</ele>
        <time>2021-09-12T10:59:35.803Z</time>
      </trkpt>
      <trkpt lat="45.67945" lon="5.91042">
        <ele>248</ele>
        <time>2021-09-12T10:59:36.803Z</time>
      </trkpt>
      <trkpt lat="45.67942" lon="5.9104">
        <ele>248</ele>
        <time>2021-09-12T10:59:37.803Z</time>
      </trkpt>
      <trkpt lat="45.67939" lon="5.91038">
        <ele>248</ele>
        <time>2021-09-12T10:59:38.803Z</time>
      </trkpt>
      <trkpt lat="45.67936" lon="5.91037">
        <ele>249</ele>
        <time>2021-09-12T10:59:39.803Z</time>
      </trkpt>
      <trkpt lat="45.67932" lon="5.91035">
        <ele>249</ele>
        <time>2021-09-12T10:59:40.802Z</time>
      </trkpt>
      <trkpt lat="45.67928" lon="5.91033">
        <ele>249</ele>
        <time>2021-09-12T10:59:41.803Z</time>
      </trkpt>
      <trkpt lat="45.67925" lon="5.91031">
        <ele>249</ele>
        <time>2021-09-12T10:59:42.803Z</time>
      </trkpt>
      <trkpt lat="45.67921" lon="5.9103">
        <ele>249</ele>
        <time>2021-09-12T10:59:43.803Z</time>
      </trkpt>
      <trkpt lat="45.67917" lon="5.91029">
        <ele>249</ele>
        <time>2021-09-12T10:59:44.802Z</time>
      </trkpt>
      <trkpt lat="45.67914" lon="5.91027">
        <ele>249</ele>
        <time>2021-09-12T10:59:45.802Z</time>
      </trkpt>
      <trkpt lat="45.67911" lon="5.91025">
        <ele>248</ele>
        <time>2021-09-12T10:59:46.803Z</time>
      </trkpt>
      <trkpt lat="45.67908" lon="5.91024">
        <ele>248</ele>
        <time>2021-09-12T10:59:47.803Z</time>
      </trkpt>
      <trkpt lat="45.67905" lon="5.91023">
        <ele>248</ele>
        <time>2021-09-12T10:59:48.803Z</time>
      </trkpt>
      <trkpt lat="45.67903" lon="5.91022">
        <ele>248</ele>
        <time>2021-09-12T10:59:49.802Z</time>
      </trkpt>
      <trkpt lat="45.679" lon="5.9102">
        <ele>248</ele>
        <time>2021-09-12T10:59:50.803Z</time>
      </trkpt>
      <trkpt lat="45.67897" lon="5.91019">
        <ele>248</ele>
        <time>2021-09-12T10:59:51.803Z</time>
      </trkpt>
      <trkpt lat="45.67894" lon="5.91018">
        <ele>248</ele>
        <time>2021-09-12T10:59:52.803Z</time>
      </trkpt>
      <trkpt lat="45.6789" lon="5.91017">
        <ele>248</ele>
        <time>2021-09-12T10:59:53.803Z</time>
      </trkpt>
      <trkpt lat="45.67887" lon="5.91016">
        <ele>248</ele>
        <time>2021-09-12T10:59:54.803Z</time>
      </trkpt>
      <trkpt lat="45.67883" lon="5.91014">
        <ele>248</ele>
        <time>2021-09-12T10:59:55.803Z</time>
      </trkpt>
      <trkpt lat="45.6788" lon="5.91012">
        <ele>248</ele>
        <time>2021-09-12T10:59:56.803Z</time>
      </trkpt>
      <trkpt lat="45.67876" lon="5.9101">
        <ele>248</ele>
        <time>2021-09-12T10:59:57.803Z</time>
      </trkpt>
      <trkpt lat="45.67872" lon="5.91008">
        <ele>248</ele>
        <time>2021-09-12T10:59:58.802Z</time>
      </trkpt>
      <trkpt lat="45.67869" lon="5.91006">
        <ele>249</ele>
        <time>2021-09-12T10:59:59.803Z</time>
      </trkpt>
      <trkpt lat="45.67866" lon="5.91005">
        <ele>249</ele>
        <time>2021-09-12T11:00:00.802Z</time>
      </trkpt>
      <trkpt lat="45.67863" lon="5.91004">
        <ele>249</ele>
        <time>2021-09-12T11:00:01.802Z</time>
      </trkpt>
      <trkpt lat="45.6786" lon="5.91002">
        <ele>249</ele>
        <time>2021-09-12T11:00:02.802Z</time>
      </trkpt>
      <trkpt lat="45.67856" lon="5.91">
        <ele>250</ele>
        <time>2021-09-12T11:00:03.802Z</time>
      </trkpt>
      <trkpt lat="45.67853" lon="5.90998">
        <ele>250</ele>
        <time>2021-09-12T11:00:04.803Z</time>
      </trkpt>
      <trkpt lat="45.67849" lon="5.90997">
        <ele>250</ele>
        <time>2021-09-12T11:00:05.802Z</time>
      </trkpt>
      <trkpt lat="45.67845" lon="5.90995">
        <ele>250</ele>
        <time>2021-09-12T11:00:06.803Z</time>
      </trkpt>
      <trkpt lat="45.67842" lon="5.90994">
        <ele>251</ele>
        <time>2021-09-12T11:00:07.803Z</time>
      </trkpt>
      <trkpt lat="45.67838" lon="5.90992">
        <ele>250</ele>
        <time>2021-09-12T11:00:08.802Z</time>
      </trkpt>
      <trkpt lat="45.67834" lon="5.9099">
        <ele>250</ele>
        <time>2021-09-12T11:00:09.803Z</time>
      </trkpt>
      <trkpt lat="45.6783" lon="5.90988">
        <ele>249</ele>
        <time>2021-09-12T11:00:10.803Z</time>
      </trkpt>
      <trkpt lat="45.67827" lon="5.90986">
        <ele>249</ele>
        <time>2021-09-12T11:00:11.803Z</time>
      </trkpt>
      <trkpt lat="45.67822" lon="5.90983">
        <ele>249</ele>
        <time>2021-09-12T11:00:12.803Z</time>
      </trkpt>
      <trkpt lat="45.67818" lon="5.90981">
        <ele>248</ele>
        <time>2021-09-12T11:00:13.803Z</time>
      </trkpt>
      <trkpt lat="45.67814" lon="5.90979">
        <ele>248</ele>
        <time>2021-09-12T11:00:14.803Z</time>
      </trkpt>
      <trkpt lat="45.67811" lon="5.90978">
        <ele>247</ele>
        <time>2021-09-12T11:00:15.803Z</time>
      </trkpt>
      <trkpt lat="45.67805" lon="5.90976">
        <ele>246</ele>
        <time>2021-09-12T11:00:16.802Z</time>
      </trkpt>
      <trkpt lat="45.67801" lon="5.90974">
        <ele>246</ele>
        <time>2021-09-12T11:00:17.803Z</time>
      </trkpt>
      <trkpt lat="45.67798" lon="5.90972">
        <ele>245</ele>
        <time>2021-09-12T11:00:18.803Z</time>
      </trkpt>
      <trkpt lat="45.67794" lon="5.9097">
        <ele>245</ele>
        <time>2021-09-12T11:00:19.802Z</time>
      </trkpt>
      <trkpt lat="45.6779" lon="5.90969">
        <ele>244</ele>
        <time>2021-09-12T11:00:20.803Z</time>
      </trkpt>
      <trkpt lat="45.67786" lon="5.90967">
        <ele>244</ele>
        <time>2021-09-12T11:00:21.802Z</time>
      </trkpt>
      <trkpt lat="45.67782" lon="5.90966">
        <ele>244</ele>
        <time>2021-09-12T11:00:22.802Z</time>
      </trkpt>
      <trkpt lat="45.67779" lon="5.90964">
        <ele>244</ele>
        <time>2021-09-12T11:00:23.802Z</time>
      </trkpt>
      <trkpt lat="45.67776" lon="5.90963">
        <ele>244</ele>
        <time>2021-09-12T11:00:24.803Z</time>
      </trkpt>
      <trkpt lat="45.67772" lon="5.90961">
        <ele>243</ele>
        <time>2021-09-12T11:00:25.802Z</time>
      </trkpt>
      <trkpt lat="45.67769" lon="5.9096">
        <ele>243</ele>
        <time>2021-09-12T11:00:26.802Z</time>
      </trkpt>
      <trkpt lat="45.67766" lon="5.90959">
        <ele>243</ele>
        <time>2021-09-12T11:00:27.803Z</time>
      </trkpt>
      <trkpt lat="45.67763" lon="5.90957">
        <ele>243</ele>
        <time>2021-09-12T11:00:28.803Z</time>
      </trkpt>
      <trkpt lat="45.6776" lon="5.90956">
        <ele>243</ele>
        <time>2021-09-12T11:00:29.802Z</time>
      </trkpt>
      <trkpt lat="45.67757" lon="5.90955">
        <ele>243</ele>
        <time>2021-09-12T11:00:30.803Z</time>
      </trkpt>
      <trkpt lat="45.67754" lon="5.90954">
        <ele>243</ele>
        <time>2021-09-12T11:00:31.802Z</time>
      </trkpt>
      <trkpt lat="45.67751" lon="5.90953">
        <ele>243</ele>
        <time>2021-09-12T11:00:32.803Z</time>
      </trkpt>
      <trkpt lat="45.67748" lon="5.90951">
        <ele>242</ele>
        <time>2021-09-12T11:00:33.803Z</time>
      </trkpt>
      <trkpt lat="45.67745" lon="5.9095">
        <ele>242</ele>
        <time>2021-09-12T11:00:34.803Z</time>
      </trkpt>
      <trkpt lat="45.67742" lon="5.90949">
        <ele>242</ele>
        <time>2021-09-12T11:00:35.803Z</time>
      </trkpt>
      <trkpt lat="45.67739" lon="5.90947">
        <ele>242</ele>
        <time>2021-09-12T11:00:36.803Z</time>
      </trkpt>
      <trkpt lat="45.67735" lon="5.90946">
        <ele>241</ele>
        <time>2021-09-12T11:00:37.803Z</time>
      </trkpt>
      <trkpt lat="45.67733" lon="5.90945">
        <ele>241</ele>
        <time>2021-09-12T11:00:38.802Z</time>
      </trkpt>
      <trkpt lat="45.67729" lon="5.90943">
        <ele>242</ele>
        <time>2021-09-12T11:00:39.803Z</time>
      </trkpt>
      <trkpt lat="45.67725" lon="5.90941">
        <ele>242</ele>
        <time>2021-09-12T11:00:40.802Z</time>
      </trkpt>
      <trkpt lat="45.67722" lon="5.90939">
        <ele>242</ele>
        <time>2021-09-12T11:00:41.803Z</time>
      </trkpt>
      <trkpt lat="45.67718" lon="5.90938">
        <ele>243</ele>
        <time>2021-09-12T11:00:42.803Z</time>
      </trkpt>
      <trkpt lat="45.67715" lon="5.90936">
        <ele>243</ele>
        <time>2021-09-12T11:00:43.803Z</time>
      </trkpt>
      <trkpt lat="45.67711" lon="5.90935">
        <ele>243</ele>
        <time>2021-09-12T11:00:44.803Z</time>
      </trkpt>
      <trkpt lat="45.67707" lon="5.90933">
        <ele>243</ele>
        <time>2021-09-12T11:00:45.802Z</time>
      </trkpt>
      <trkpt lat="45.67704" lon="5.90932">
        <ele>243</ele>
        <time>2021-09-12T11:00:46.802Z</time>
      </trkpt>
      <trkpt lat="45.677" lon="5.9093">
        <ele>243</ele>
        <time>2021-09-12T11:00:47.803Z</time>
      </trkpt>
      <trkpt lat="45.67696" lon="5.90928">
        <ele>243</ele>
        <time>2021-09-12T11:00:48.803Z</time>
      </trkpt>
      <trkpt lat="45.67692" lon="5.90927">
        <ele>243</ele>
        <time>2021-09-12T11:00:49.802Z</time>
      </trkpt>
      <trkpt lat="45.67689" lon="5.90925">
        <ele>243</ele>
        <time>2021-09-12T11:00:50.803Z</time>
      </trkpt>
      <trkpt lat="45.67685" lon="5.90924">
        <ele>243</ele>
        <time>2021-09-12T11:00:51.802Z</time>
      </trkpt>
      <trkpt lat="45.67681" lon="5.90922">
        <ele>243</ele>
        <time>2021-09-12T11:00:52.802Z</time>
      </trkpt>
      <trkpt lat="45.67677" lon="5.90921">
        <ele>243</ele>
        <time>2021-09-12T11:00:53.803Z</time>
      </trkpt>
      <trkpt lat="45.67674" lon="5.90919">
        <ele>243</ele>
        <time>2021-09-12T11:00:54.802Z</time>
      </trkpt>
      <trkpt lat="45.6767" lon="5.90917">
        <ele>243</ele>
        <time>2021-09-12T11:00:55.803Z</time>
      </trkpt>
      <trkpt lat="45.67667" lon="5.90916">
        <ele>243</ele>
        <time>2021-09-12T11:00:56.803Z</time>
      </trkpt>
      <trkpt lat="45.67663" lon="5.90914">
        <ele>243</ele>
        <time>2021-09-12T11:00:57.802Z</time>
      </trkpt>
      <trkpt lat="45.6766" lon="5.90912">
        <ele>243</ele>
        <time>2021-09-12T11:00:58.803Z</time>
      </trkpt>
      <trkpt lat="45.67657" lon="5.9091">
        <ele>243</ele>
        <time>2021-09-12T11:00:59.803Z</time>
      </trkpt>
      <trkpt lat="45.67655" lon="5.90908">
        <ele>243</ele>
        <time>2021-09-12T11:01:00.803Z</time>
      </trkpt>
      <trkpt lat="45.67651" lon="5.90906">
        <ele>243</ele>
        <time>2021-09-12T11:01:01.803Z</time>
      </trkpt>
      <trkpt lat="45.67648" lon="5.90905">
        <ele>242</ele>
        <time>2021-09-12T11:01:02.803Z</time>
      </trkpt>
      <trkpt lat="45.67645" lon="5.90904">
        <ele>242</ele>
        <time>2021-09-12T11:01:03.803Z</time>
      </trkpt>
      <trkpt lat="45.67641" lon="5.90903">
        <ele>242</ele>
        <time>2021-09-12T11:01:04.803Z</time>
      </trkpt>
      <trkpt lat="45.67637" lon="5.90904">
        <ele>242</ele>
        <time>2021-09-12T11:01:05.803Z</time>
      </trkpt>
      <trkpt lat="45.67634" lon="5.90904">
        <ele>242</ele>
        <time>2021-09-12T11:01:06.803Z</time>
      </trkpt>
      <trkpt lat="45.6763" lon="5.90903">
        <ele>243</ele>
        <time>2021-09-12T11:01:07.803Z</time>
      </trkpt>
      <trkpt lat="45.67626" lon="5.90902">
        <ele>243</ele>
        <time>2021-09-12T11:01:08.803Z</time>
      </trkpt>
      <trkpt lat="45.67623" lon="5.90901">
        <ele>243</ele>
        <time>2021-09-12T11:01:09.803Z</time>
      </trkpt>
      <trkpt lat="45.67618" lon="5.909">
        <ele>243</ele>
        <time>2021-09-12T11:01:10.802Z</time>
      </trkpt>
      <trkpt lat="45.67614" lon="5.909">
        <ele>244</ele>
        <time>2021-09-12T11:01:11.803Z</time>
      </trkpt>
      <trkpt lat="45.67608" lon="5.90898">
        <ele>245</ele>
        <time>2021-09-12T11:01:12.803Z</time>
      </trkpt>
      <trkpt lat="45.67603" lon="5.90896">
        <ele>245</ele>
        <time>2021-09-12T11:01:13.803Z</time>
      </trkpt>
      <trkpt lat="45.67598" lon="5.90893">
        <ele>244</ele>
        <time>2021-09-12T11:01:14.803Z</time>
      </trkpt>
      <trkpt lat="45.67593" lon="5.90891">
        <ele>244</ele>
        <time>2021-09-12T11:01:15.803Z</time>
      </trkpt>
      <trkpt lat="45.67588" lon="5.90888">
        <ele>244</ele>
        <time>2021-09-12T11:01:16.802Z</time>
      </trkpt>
      <trkpt lat="45.67584" lon="5.90886">
        <ele>244</ele>
        <time>2021-09-12T11:01:17.803Z</time>
      </trkpt>
      <trkpt lat="45.67579" lon="5.90883">
        <ele>244</ele>
        <time>2021-09-12T11:01:18.803Z</time>
      </trkpt>
      <trkpt lat="45.67575" lon="5.90881">
        <ele>244</ele>
        <time>2021-09-12T11:01:19.803Z</time>
      </trkpt>
      <trkpt lat="45.6757" lon="5.90878">
        <ele>243</ele>
        <time>2021-09-12T11:01:20.802Z</time>
      </trkpt>
      <trkpt lat="45.67565" lon="5.90875">
        <ele>243</ele>
        <time>2021-09-12T11:01:21.803Z</time>
      </trkpt>
      <trkpt lat="45.67561" lon="5.90873">
        <ele>242</ele>
        <time>2021-09-12T11:01:22.803Z</time>
      </trkpt>
      <trkpt lat="45.67556" lon="5.9087">
        <ele>242</ele>
        <time>2021-09-12T11:01:23.803Z</time>
      </trkpt>
      <trkpt lat="45.67551" lon="5.90868">
        <ele>242</ele>
        <time>2021-09-12T11:01:24.802Z</time>
      </trkpt>
      <trkpt lat="45.67546" lon="5.90866">
        <ele>242</ele>
        <time>2021-09-12T11:01:25.803Z</time>
      </trkpt>
      <trkpt lat="45.67541" lon="5.90863">
        <ele>242</ele>
        <time>2021-09-12T11:01:26.802Z</time>
      </trkpt>
      <trkpt lat="45.67536" lon="5.90861">
        <ele>242</ele>
        <time>2021-09-12T11:01:27.803Z</time>
      </trkpt>
      <trkpt lat="45.67531" lon="5.90858">
        <ele>242</ele>
        <time>2021-09-12T11:01:28.803Z</time>
      </trkpt>
      <trkpt lat="45.67526" lon="5.90856">
        <ele>242</ele>
        <time>2021-09-12T11:01:29.803Z</time>
      </trkpt>
      <trkpt lat="45.67521" lon="5.90853">
        <ele>243</ele>
        <time>2021-09-12T11:01:30.803Z</time>
      </trkpt>
      <trkpt lat="45.67516" lon="5.90851">
        <ele>243</ele>
        <time>2021-09-12T11:01:31.802Z</time>
      </trkpt>
      <trkpt lat="45.6751" lon="5.90849">
        <ele>244</ele>
        <time>2021-09-12T11:01:32.803Z</time>
      </trkpt>
      <trkpt lat="45.67505" lon="5.90847">
        <ele>245</ele>
        <time>2021-09-12T11:01:33.802Z</time>
      </trkpt>
      <trkpt lat="45.675" lon="5.90846">
        <ele>245</ele>
        <time>2021-09-12T11:01:34.803Z</time>
      </trkpt>
      <trkpt lat="45.67494" lon="5.90844">
        <ele>246</ele>
        <time>2021-09-12T11:01:35.803Z</time>
      </trkpt>
      <trkpt lat="45.67489" lon="5.90843">
        <ele>247</ele>
        <time>2021-09-12T11:01:36.803Z</time>
      </trkpt>
      <trkpt lat="45.67485" lon="5.90842">
        <ele>248</ele>
        <time>2021-09-12T11:01:37.803Z</time>
      </trkpt>
      <trkpt lat="45.6748" lon="5.9084">
        <ele>249</ele>
        <time>2021-09-12T11:01:38.802Z</time>
      </trkpt>
      <trkpt lat="45.67474" lon="5.90839">
        <ele>250</ele>
        <time>2021-09-12T11:01:39.802Z</time>
      </trkpt>
      <trkpt lat="45.6747" lon="5.90838">
        <ele>251</ele>
        <time>2021-09-12T11:01:40.803Z</time>
      </trkpt>
      <trkpt lat="45.67464" lon="5.90838">
        <ele>251</ele>
        <time>2021-09-12T11:01:41.803Z</time>
      </trkpt>
      <trkpt lat="45.6746" lon="5.90837">
        <ele>252</ele>
        <time>2021-09-12T11:01:42.803Z</time>
      </trkpt>
      <trkpt lat="45.67455" lon="5.90837">
        <ele>253</ele>
        <time>2021-09-12T11:01:43.803Z</time>
      </trkpt>
      <trkpt lat="45.6745" lon="5.90836">
        <ele>254</ele>
        <time>2021-09-12T11:01:44.803Z</time>
      </trkpt>
      <trkpt lat="45.67446" lon="5.90835">
        <ele>254</ele>
        <time>2021-09-12T11:01:45.802Z</time>
      </trkpt>
      <trkpt lat="45.67442" lon="5.90834">
        <ele>255</ele>
        <time>2021-09-12T11:01:46.803Z</time>
      </trkpt>
      <trkpt lat="45.67437" lon="5.90833">
        <ele>254</ele>
        <time>2021-09-12T11:01:47.803Z</time>
      </trkpt>
      <trkpt lat="45.67434" lon="5.90832">
        <ele>254</ele>
        <time>2021-09-12T11:01:48.802Z</time>
      </trkpt>
      <trkpt lat="45.6743" lon="5.90831">
        <ele>253</ele>
        <time>2021-09-12T11:01:49.802Z</time>
      </trkpt>
      <trkpt lat="45.67426" lon="5.90831">
        <ele>252</ele>
        <time>2021-09-12T11:01:50.802Z</time>
      </trkpt>
      <trkpt lat="45.67421" lon="5.9083">
        <ele>252</ele>
        <time>2021-09-12T11:01:51.802Z</time>
      </trkpt>
      <trkpt lat="45.67417" lon="5.9083">
        <ele>251</ele>
        <time>2021-09-12T11:01:52.803Z</time>
      </trkpt>
      <trkpt lat="45.67413" lon="5.9083">
        <ele>251</ele>
        <time>2021-09-12T11:01:53.802Z</time>
      </trkpt>
      <trkpt lat="45.67407" lon="5.9083">
        <ele>251</ele>
        <time>2021-09-12T11:01:54.802Z</time>
      </trkpt>
      <trkpt lat="45.67403" lon="5.9083">
        <ele>250</ele>
        <time>2021-09-12T11:01:55.803Z</time>
      </trkpt>
      <trkpt lat="45.67399" lon="5.9083">
        <ele>250</ele>
        <time>2021-09-12T11:01:56.803Z</time>
      </trkpt>
      <trkpt lat="45.67394" lon="5.9083">
        <ele>250</ele>
        <time>2021-09-12T11:01:57.803Z</time>
      </trkpt>
      <trkpt lat="45.6739" lon="5.9083">
        <ele>251</ele>
        <time>2021-09-12T11:01:58.802Z</time>
      </trkpt>
      <trkpt lat="45.67384" lon="5.9083">
        <ele>251</ele>
        <time>2021-09-12T11:01:59.803Z</time>
      </trkpt>
      <trkpt lat="45.67381" lon="5.9083">
        <ele>251</ele>
        <time>2021-09-12T11:02:00.803Z</time>
      </trkpt>
      <trkpt lat="45.67377" lon="5.9083">
        <ele>250</ele>
        <time>2021-09-12T11:02:01.802Z</time>
      </trkpt>
      <trkpt lat="45.67373" lon="5.9083">
        <ele>250</ele>
        <time>2021-09-12T11:02:02.803Z</time>
      </trkpt>
      <trkpt lat="45.67368" lon="5.9083">
        <ele>250</ele>
        <time>2021-09-12T11:02:03.803Z</time>
      </trkpt>
      <trkpt lat="45.67364" lon="5.9083">
        <ele>250</ele>
        <time>2021-09-12T11:02:04.803Z</time>
      </trkpt>
      <trkpt lat="45.6736" lon="5.9083">
        <ele>250</ele>
        <time>2021-09-12T11:02:05.803Z</time>
      </trkpt>
      <trkpt lat="45.67356" lon="5.9083">
        <ele>251</ele>
        <time>2021-09-12T11:02:06.802Z</time>
      </trkpt>
      <trkpt lat="45.67352" lon="5.9083">
        <ele>251</ele>
        <time>2021-09-12T11:02:07.803Z</time>
      </trkpt>
      <trkpt lat="45.67348" lon="5.90831">
        <ele>252</ele>
        <time>2021-09-12T11:02:08.803Z</time>
      </trkpt>
      <trkpt lat="45.67343" lon="5.90831">
        <ele>252</ele>
        <time>2021-09-12T11:02:09.803Z</time>
      </trkpt>
      <trkpt lat="45.67339" lon="5.90831">
        <ele>252</ele>
        <time>2021-09-12T11:02:10.803Z</time>
      </trkpt>
      <trkpt lat="45.67335" lon="5.90832">
        <ele>253</ele>
        <time>2021-09-12T11:02:11.803Z</time>
      </trkpt>
      <trkpt lat="45.6733" lon="5.90832">
        <ele>253</ele>
        <time>2021-09-12T11:02:12.802Z</time>
      </trkpt>
      <trkpt lat="45.67326" lon="5.90832">
        <ele>253</ele>
        <time>2021-09-12T11:02:13.802Z</time>
      </trkpt>
      <trkpt lat="45.67322" lon="5.90832">
        <ele>252</ele>
        <time>2021-09-12T11:02:14.802Z</time>
      </trkpt>
      <trkpt lat="45.67317" lon="5.90832">
        <ele>252</ele>
        <time>2021-09-12T11:02:15.803Z</time>
      </trkpt>
      <trkpt lat="45.67313" lon="5.90833">
        <ele>253</ele>
        <time>2021-09-12T11:02:16.802Z</time>
      </trkpt>
      <trkpt lat="45.67308" lon="5.90833">
        <ele>253</ele>
        <time>2021-09-12T11:02:17.802Z</time>
      </trkpt>
      <trkpt lat="45.67304" lon="5.90833">
        <ele>252</ele>
        <time>2021-09-12T11:02:18.803Z</time>
      </trkpt>
      <trkpt lat="45.67299" lon="5.90833">
        <ele>252</ele>
        <time>2021-09-12T11:02:19.802Z</time>
      </trkpt>
      <trkpt lat="45.67295" lon="5.90833">
        <ele>252</ele>
        <time>2021-09-12T11:02:20.803Z</time>
      </trkpt>
      <trkpt lat="45.6729" lon="5.90834">
        <ele>252</ele>
        <time>2021-09-12T11:02:21.803Z</time>
      </trkpt>
      <trkpt lat="45.67286" lon="5.90834">
        <ele>252</ele>
        <time>2021-09-12T11:02:22.803Z</time>
      </trkpt>
      <trkpt lat="45.67281" lon="5.90834">
        <ele>252</ele>
        <time>2021-09-12T11:02:23.803Z</time>
      </trkpt>
      <trkpt lat="45.67277" lon="5.90834">
        <ele>252</ele>
        <time>2021-09-12T11:02:24.803Z</time>
      </trkpt>
      <trkpt lat="45.67272" lon="5.90835">
        <ele>253</ele>
        <time>2021-09-12T11:02:25.802Z</time>
      </trkpt>
      <trkpt lat="45.67267" lon="5.90835">
        <ele>253</ele>
        <time>2021-09-12T11:02:26.802Z</time>
      </trkpt>
      <trkpt lat="45.67263" lon="5.90835">
        <ele>253</ele>
        <time>2021-09-12T11:02:27.803Z</time>
      </trkpt>
      <trkpt lat="45.67258" lon="5.90834">
        <ele>252</ele>
        <time>2021-09-12T11:02:28.802Z</time>
      </trkpt>
      <trkpt lat="45.67253" lon="5.90834">
        <ele>252</ele>
        <time>2021-09-12T11:02:29.802Z</time>
      </trkpt>
      <trkpt lat="45.67248" lon="5.90834">
        <ele>252</ele>
        <time>2021-09-12T11:02:30.802Z</time>
      </trkpt>
      <trkpt lat="45.67244" lon="5.90834">
        <ele>251</ele>
        <time>2021-09-12T11:02:31.803Z</time>
      </trkpt>
      <trkpt lat="45.67239" lon="5.90834">
        <ele>251</ele>
        <time>2021-09-12T11:02:32.803Z</time>
      </trkpt>
      <trkpt lat="45.67234" lon="5.90834">
        <ele>251</ele>
        <time>2021-09-12T11:02:33.803Z</time>
      </trkpt>
      <trkpt lat="45.6723" lon="5.90835">
        <ele>252</ele>
        <time>2021-09-12T11:02:34.803Z</time>
      </trkpt>
      <trkpt lat="45.67225" lon="5.90835">
        <ele>252</ele>
        <time>2021-09-12T11:02:35.802Z</time>
      </trkpt>
      <trkpt lat="45.6722" lon="5.90835">
        <ele>252</ele>
        <time>2021-09-12T11:02:36.803Z</time>
      </trkpt>
      <trkpt lat="45.67216" lon="5.90835">
        <ele>252</ele>
        <time>2021-09-12T11:02:37.802Z</time>
      </trkpt>
      <trkpt lat="45.67212" lon="5.90835">
        <ele>252</ele>
        <time>2021-09-12T11:02:38.803Z</time>
      </trkpt>
      <trkpt lat="45.67207" lon="5.90835">
        <ele>252</ele>
        <time>2021-09-12T11:02:39.803Z</time>
      </trkpt>
      <trkpt lat="45.67203" lon="5.90835">
        <ele>252</ele>
        <time>2021-09-12T11:02:40.802Z</time>
      </trkpt>
      <trkpt lat="45.67198" lon="5.90836">
        <ele>252</ele>
        <time>2021-09-12T11:02:41.803Z</time>
      </trkpt>
      <trkpt lat="45.67194" lon="5.90836">
        <ele>252</ele>
        <time>2021-09-12T11:02:42.803Z</time>
      </trkpt>
      <trkpt lat="45.67189" lon="5.90836">
        <ele>252</ele>
        <time>2021-09-12T11:02:43.802Z</time>
      </trkpt>
      <trkpt lat="45.67185" lon="5.90836">
        <ele>252</ele>
        <time>2021-09-12T11:02:44.803Z</time>
      </trkpt>
      <trkpt lat="45.6718" lon="5.90836">
        <ele>252</ele>
        <time>2021-09-12T11:02:45.803Z</time>
      </trkpt>
      <trkpt lat="45.67175" lon="5.90837">
        <ele>252</ele>
        <time>2021-09-12T11:02:46.802Z</time>
      </trkpt>
      <trkpt lat="45.67172" lon="5.90837">
        <ele>252</ele>
        <time>2021-09-12T11:02:47.803Z</time>
      </trkpt>
      <trkpt lat="45.67167" lon="5.90837">
        <ele>252</ele>
        <time>2021-09-12T11:02:48.803Z</time>
      </trkpt>
      <trkpt lat="45.67163" lon="5.90837">
        <ele>253</ele>
        <time>2021-09-12T11:02:49.803Z</time>
      </trkpt>
      <trkpt lat="45.67158" lon="5.90838">
        <ele>253</ele>
        <time>2021-09-12T11:02:50.803Z</time>
      </trkpt>
      <trkpt lat="45.67153" lon="5.90838">
        <ele>253</ele>
        <time>2021-09-12T11:02:51.802Z</time>
      </trkpt>
      <trkpt lat="45.67149" lon="5.90838">
        <ele>253</ele>
        <time>2021-09-12T11:02:52.802Z</time>
      </trkpt>
      <trkpt lat="45.67145" lon="5.90838">
        <ele>253</ele>
        <time>2021-09-12T11:02:53.803Z</time>
      </trkpt>
      <trkpt lat="45.67141" lon="5.90839">
        <ele>252</ele>
        <time>2021-09-12T11:02:54.803Z</time>
      </trkpt>
      <trkpt lat="45.67136" lon="5.9084">
        <ele>253</ele>
        <time>2021-09-12T11:02:55.802Z</time>
      </trkpt>
      <trkpt lat="45.67132" lon="5.9084">
        <ele>253</ele>
        <time>2021-09-12T11:02:56.803Z</time>
      </trkpt>
      <trkpt lat="45.67127" lon="5.9084">
        <ele>253</ele>
        <time>2021-09-12T11:02:57.803Z</time>
      </trkpt>
      <trkpt lat="45.67122" lon="5.90841">
        <ele>253</ele>
        <time>2021-09-12T11:02:58.803Z</time>
      </trkpt>
      <trkpt lat="45.67118" lon="5.90841">
        <ele>254</ele>
        <time>2021-09-12T11:02:59.803Z</time>
      </trkpt>
      <trkpt lat="45.67113" lon="5.90841">
        <ele>254</ele>
        <time>2021-09-12T11:03:00.802Z</time>
      </trkpt>
      <trkpt lat="45.67109" lon="5.90841">
        <ele>255</ele>
        <time>2021-09-12T11:03:01.803Z</time>
      </trkpt>
      <trkpt lat="45.67104" lon="5.90842">
        <ele>255</ele>
        <time>2021-09-12T11:03:02.803Z</time>
      </trkpt>
      <trkpt lat="45.67099" lon="5.90843">
        <ele>254</ele>
        <time>2021-09-12T11:03:03.803Z</time>
      </trkpt>
      <trkpt lat="45.67095" lon="5.90843">
        <ele>254</ele>
        <time>2021-09-12T11:03:04.803Z</time>
      </trkpt>
      <trkpt lat="45.6709" lon="5.90843">
        <ele>254</ele>
        <time>2021-09-12T11:03:05.802Z</time>
      </trkpt>
      <trkpt lat="45.67086" lon="5.90843">
        <ele>254</ele>
        <time>2021-09-12T11:03:06.803Z</time>
      </trkpt>
      <trkpt lat="45.67082" lon="5.90843">
        <ele>253</ele>
        <time>2021-09-12T11:03:07.803Z</time>
      </trkpt>
      <trkpt lat="45.67078" lon="5.90844">
        <ele>253</ele>
        <time>2021-09-12T11:03:08.802Z</time>
      </trkpt>
      <trkpt lat="45.67073" lon="5.90844">
        <ele>253</ele>
        <time>2021-09-12T11:03:09.803Z</time>
      </trkpt>
      <trkpt lat="45.67068" lon="5.90844">
        <ele>253</ele>
        <time>2021-09-12T11:03:10.803Z</time>
      </trkpt>
      <trkpt lat="45.67065" lon="5.90844">
        <ele>253</ele>
        <time>2021-09-12T11:03:11.803Z</time>
      </trkpt>
      <trkpt lat="45.67061" lon="5.90844">
        <ele>252</ele>
        <time>2021-09-12T11:03:12.802Z</time>
      </trkpt>
      <trkpt lat="45.67057" lon="5.90844">
        <ele>252</ele>
        <time>2021-09-12T11:03:13.803Z</time>
      </trkpt>
      <trkpt lat="45.67053" lon="5.90844">
        <ele>252</ele>
        <time>2021-09-12T11:03:14.803Z</time>
      </trkpt>
      <trkpt lat="45.67049" lon="5.90843">
        <ele>252</ele>
        <time>2021-09-12T11:03:15.803Z</time>
      </trkpt>
      <trkpt lat="45.67044" lon="5.90843">
        <ele>251</ele>
        <time>2021-09-12T11:03:16.802Z</time>
      </trkpt>
      <trkpt lat="45.67039" lon="5.90844">
        <ele>251</ele>
        <time>2021-09-12T11:03:17.803Z</time>
      </trkpt>
      <trkpt lat="45.67034" lon="5.90844">
        <ele>251</ele>
        <time>2021-09-12T11:03:18.803Z</time>
      </trkpt>
      <trkpt lat="45.67029" lon="5.90845">
        <ele>251</ele>
        <time>2021-09-12T11:03:19.803Z</time>
      </trkpt>
      <trkpt lat="45.67025" lon="5.90845">
        <ele>251</ele>
        <time>2021-09-12T11:03:20.802Z</time>
      </trkpt>
      <trkpt lat="45.6702" lon="5.90845">
        <ele>251</ele>
        <time>2021-09-12T11:03:21.803Z</time>
      </trkpt>
      <trkpt lat="45.67015" lon="5.90845">
        <ele>252</ele>
        <time>2021-09-12T11:03:22.803Z</time>
      </trkpt>
      <trkpt lat="45.6701" lon="5.90846">
        <ele>252</ele>
        <time>2021-09-12T11:03:23.803Z</time>
      </trkpt>
      <trkpt lat="45.67006" lon="5.90846">
        <ele>252</ele>
        <time>2021-09-12T11:03:24.802Z</time>
      </trkpt>
      <trkpt lat="45.67001" lon="5.90846">
        <ele>252</ele>
        <time>2021-09-12T11:03:25.802Z</time>
      </trkpt>
      <trkpt lat="45.66997" lon="5.90846">
        <ele>253</ele>
        <time>2021-09-12T11:03:26.803Z</time>
      </trkpt>
      <trkpt lat="45.66992" lon="5.90846">
        <ele>253</ele>
        <time>2021-09-12T11:03:27.803Z</time>
      </trkpt>
      <trkpt lat="45.66987" lon="5.90846">
        <ele>253</ele>
        <time>2021-09-12T11:03:28.802Z</time>
      </trkpt>
      <trkpt lat="45.66982" lon="5.90847">
        <ele>254</ele>
        <time>2021-09-12T11:03:29.803Z</time>
      </trkpt>
      <trkpt lat="45.66977" lon="5.90847">
        <ele>254</ele>
        <time>2021-09-12T11:03:30.803Z</time>
      </trkpt>
      <trkpt lat="45.66972" lon="5.90847">
        <ele>255</ele>
        <time>2021-09-12T11:03:31.802Z</time>
      </trkpt>
      <trkpt lat="45.66968" lon="5.90847">
        <ele>255</ele>
        <time>2021-09-12T11:03:32.803Z</time>
      </trkpt>
      <trkpt lat="45.66963" lon="5.90847">
        <ele>255</ele>
        <time>2021-09-12T11:03:33.802Z</time>
      </trkpt>
      <trkpt lat="45.66958" lon="5.90848">
        <ele>255</ele>
        <time>2021-09-12T11:03:34.803Z</time>
      </trkpt>
      <trkpt lat="45.66953" lon="5.90848">
        <ele>255</ele>
        <time>2021-09-12T11:03:35.803Z</time>
      </trkpt>
      <trkpt lat="45.66949" lon="5.90848">
        <ele>255</ele>
        <time>2021-09-12T11:03:36.803Z</time>
      </trkpt>
      <trkpt lat="45.66944" lon="5.90848">
        <ele>255</ele>
        <time>2021-09-12T11:03:37.802Z</time>
      </trkpt>
      <trkpt lat="45.6694" lon="5.90848">
        <ele>255</ele>
        <time>2021-09-12T11:03:38.803Z</time>
      </trkpt>
      <trkpt lat="45.66935" lon="5.90848">
        <ele>255</ele>
        <time>2021-09-12T11:03:39.803Z</time>
      </trkpt>
      <trkpt lat="45.66931" lon="5.90849">
        <ele>255</ele>
        <time>2021-09-12T11:03:40.803Z</time>
      </trkpt>
      <trkpt lat="45.66927" lon="5.90849">
        <ele>255</ele>
        <time>2021-09-12T11:03:41.802Z</time>
      </trkpt>
      <trkpt lat="45.66922" lon="5.90849">
        <ele>255</ele>
        <time>2021-09-12T11:03:42.802Z</time>
      </trkpt>
      <trkpt lat="45.66917" lon="5.90849">
        <ele>255</ele>
        <time>2021-09-12T11:03:43.803Z</time>
      </trkpt>
      <trkpt lat="45.66914" lon="5.90849">
        <ele>255</ele>
        <time>2021-09-12T11:03:44.802Z</time>
      </trkpt>
      <trkpt lat="45.6691" lon="5.9085">
        <ele>255</ele>
        <time>2021-09-12T11:03:45.803Z</time>
      </trkpt>
      <trkpt lat="45.66905" lon="5.9085">
        <ele>255</ele>
        <time>2021-09-12T11:03:46.803Z</time>
      </trkpt>
      <trkpt lat="45.66901" lon="5.9085">
        <ele>255</ele>
        <time>2021-09-12T11:03:47.803Z</time>
      </trkpt>
      <trkpt lat="45.66896" lon="5.9085">
        <ele>255</ele>
        <time>2021-09-12T11:03:48.803Z</time>
      </trkpt>
      <trkpt lat="45.66892" lon="5.90851">
        <ele>255</ele>
        <time>2021-09-12T11:03:49.802Z</time>
      </trkpt>
      <trkpt lat="45.66888" lon="5.90851">
        <ele>255</ele>
        <time>2021-09-12T11:03:50.803Z</time>
      </trkpt>
      <trkpt lat="45.66884" lon="5.90852">
        <ele>256</ele>
        <time>2021-09-12T11:03:51.803Z</time>
      </trkpt>
      <trkpt lat="45.6688" lon="5.90852">
        <ele>256</ele>
        <time>2021-09-12T11:03:52.803Z</time>
      </trkpt>
      <trkpt lat="45.66875" lon="5.90852">
        <ele>256</ele>
        <time>2021-09-12T11:03:53.803Z</time>
      </trkpt>
      <trkpt lat="45.66871" lon="5.90852">
        <ele>256</ele>
        <time>2021-09-12T11:03:54.803Z</time>
      </trkpt>
      <trkpt lat="45.66867" lon="5.90852">
        <ele>256</ele>
        <time>2021-09-12T11:03:55.803Z</time>
      </trkpt>
      <trkpt lat="45.66863" lon="5.90852">
        <ele>256</ele>
        <time>2021-09-12T11:03:56.803Z</time>
      </trkpt>
      <trkpt lat="45.66858" lon="5.90852">
        <ele>256</ele>
        <time>2021-09-12T11:03:57.803Z</time>
      </trkpt>
      <trkpt lat="45.66854" lon="5.90853">
        <ele>256</ele>
        <time>2021-09-12T11:03:58.802Z</time>
      </trkpt>
      <trkpt lat="45.66849" lon="5.90853">
        <ele>256</ele>
        <time>2021-09-12T11:03:59.802Z</time>
      </trkpt>
      <trkpt lat="45.66844" lon="5.90853">
        <ele>257</ele>
        <time>2021-09-12T11:04:00.803Z</time>
      </trkpt>
      <trkpt lat="45.66839" lon="5.90853">
        <ele>257</ele>
        <time>2021-09-12T11:04:01.803Z</time>
      </trkpt>
      <trkpt lat="45.66835" lon="5.90853">
        <ele>256</ele>
        <time>2021-09-12T11:04:02.802Z</time>
      </trkpt>
      <trkpt lat="45.66831" lon="5.90853">
        <ele>256</ele>
        <time>2021-09-12T11:04:03.803Z</time>
      </trkpt>
      <trkpt lat="45.66826" lon="5.90854">
        <ele>256</ele>
        <time>2021-09-12T11:04:13.873Z</time>
      </trkpt>
      <trkpt lat="45.66822" lon="5.90854">
        <ele>256</ele>
        <time>2021-09-12T11:04:14.873Z</time>
      </trkpt>
      <trkpt lat="45.66818" lon="5.90854">
        <ele>256</ele>
        <time>2021-09-12T11:04:15.873Z</time>
      </trkpt>
      <trkpt lat="45.66814" lon="5.90854">
        <ele>256</ele>
        <time>2021-09-12T11:04:16.873Z</time>
      </trkpt>
      <trkpt lat="45.6681" lon="5.90855">
        <ele>257</ele>
        <time>2021-09-12T11:04:17.873Z</time>
      </trkpt>
      <trkpt lat="45.66805" lon="5.90855">
        <ele>257</ele>
        <time>2021-09-12T11:04:18.873Z</time>
      </trkpt>
      <trkpt lat="45.66801" lon="5.90856">
        <ele>258</ele>
        <time>2021-09-12T11:04:19.873Z</time>
      </trkpt>
      <trkpt lat="45.66796" lon="5.90856">
        <ele>259</ele>
        <time>2021-09-12T11:04:20.873Z</time>
      </trkpt>
      <trkpt lat="45.66791" lon="5.90856">
        <ele>259</ele>
        <time>2021-09-12T11:04:21.873Z</time>
      </trkpt>
      <trkpt lat="45.66785" lon="5.90856">
        <ele>259</ele>
        <time>2021-09-12T11:04:22.873Z</time>
      </trkpt>
      <trkpt lat="45.66782" lon="5.90857">
        <ele>259</ele>
        <time>2021-09-12T11:04:23.873Z</time>
      </trkpt>
      <trkpt lat="45.66778" lon="5.90857">
        <ele>259</ele>
        <time>2021-09-12T11:04:24.873Z</time>
      </trkpt>
      <trkpt lat="45.66773" lon="5.90858">
        <ele>260</ele>
        <time>2021-09-12T11:04:25.873Z</time>
      </trkpt>
      <trkpt lat="45.66769" lon="5.90858">
        <ele>260</ele>
        <time>2021-09-12T11:04:26.873Z</time>
      </trkpt>
      <trkpt lat="45.66764" lon="5.90858">
        <ele>260</ele>
        <time>2021-09-12T11:04:27.872Z</time>
      </trkpt>
      <trkpt lat="45.66759" lon="5.90859">
        <ele>260</ele>
        <time>2021-09-12T11:04:28.872Z</time>
      </trkpt>
      <trkpt lat="45.66754" lon="5.90859">
        <ele>260</ele>
        <time>2021-09-12T11:04:29.873Z</time>
      </trkpt>
      <trkpt lat="45.66749" lon="5.90859">
        <ele>260</ele>
        <time>2021-09-12T11:04:30.873Z</time>
      </trkpt>
      <trkpt lat="45.66743" lon="5.9086">
        <ele>260</ele>
        <time>2021-09-12T11:04:31.873Z</time>
      </trkpt>
      <trkpt lat="45.66737" lon="5.9086">
        <ele>260</ele>
        <time>2021-09-12T11:04:32.873Z</time>
      </trkpt>
      <trkpt lat="45.66731" lon="5.90861">
        <ele>260</ele>
        <time>2021-09-12T11:04:33.872Z</time>
      </trkpt>
      <trkpt lat="45.66726" lon="5.90862">
        <ele>261</ele>
        <time>2021-09-12T11:04:34.872Z</time>
      </trkpt>
      <trkpt lat="45.6672" lon="5.90862">
        <ele>261</ele>
        <time>2021-09-12T11:04:35.873Z</time>
      </trkpt>
      <trkpt lat="45.66715" lon="5.90863">
        <ele>261</ele>
        <time>2021-09-12T11:04:36.873Z</time>
      </trkpt>
      <trkpt lat="45.6671" lon="5.90863">
        <ele>260</ele>
        <time>2021-09-12T11:04:37.873Z</time>
      </trkpt>
      <trkpt lat="45.66706" lon="5.90863">
        <ele>260</ele>
        <time>2021-09-12T11:04:38.873Z</time>
      </trkpt>
      <trkpt lat="45.667" lon="5.90863">
        <ele>260</ele>
        <time>2021-09-12T11:04:39.873Z</time>
      </trkpt>
      <trkpt lat="45.66695" lon="5.90863">
        <ele>260</ele>
        <time>2021-09-12T11:04:40.873Z</time>
      </trkpt>
      <trkpt lat="45.66691" lon="5.90864">
        <ele>260</ele>
        <time>2021-09-12T11:04:41.873Z</time>
      </trkpt>
      <trkpt lat="45.66686" lon="5.90864">
        <ele>259</ele>
        <time>2021-09-12T11:04:42.873Z</time>
      </trkpt>
      <trkpt lat="45.6668" lon="5.90864">
        <ele>260</ele>
        <time>2021-09-12T11:04:43.873Z</time>
      </trkpt>
      <trkpt lat="45.66675" lon="5.90865">
        <ele>260</ele>
        <time>2021-09-12T11:04:44.873Z</time>
      </trkpt>
      <trkpt lat="45.6667" lon="5.90865">
        <ele>260</ele>
        <time>2021-09-12T11:04:45.873Z</time>
      </trkpt>
      <trkpt lat="45.66664" lon="5.90865">
        <ele>261</ele>
        <time>2021-09-12T11:04:46.873Z</time>
      </trkpt>
      <trkpt lat="45.6666" lon="5.90865">
        <ele>261</ele>
        <time>2021-09-12T11:04:47.873Z</time>
      </trkpt>
      <trkpt lat="45.66656" lon="5.90865">
        <ele>260</ele>
        <time>2021-09-12T11:04:48.872Z</time>
      </trkpt>
      <trkpt lat="45.6665" lon="5.90866">
        <ele>260</ele>
        <time>2021-09-12T11:04:49.872Z</time>
      </trkpt>
      <trkpt lat="45.66645" lon="5.90866">
        <ele>259</ele>
        <time>2021-09-12T11:04:50.872Z</time>
      </trkpt>
      <trkpt lat="45.6664" lon="5.90866">
        <ele>259</ele>
        <time>2021-09-12T11:04:51.873Z</time>
      </trkpt>
      <trkpt lat="45.66635" lon="5.90867">
        <ele>259</ele>
        <time>2021-09-12T11:04:52.873Z</time>
      </trkpt>
      <trkpt lat="45.6663" lon="5.90867">
        <ele>258</ele>
        <time>2021-09-12T11:04:53.873Z</time>
      </trkpt>
      <trkpt lat="45.66624" lon="5.90867">
        <ele>258</ele>
        <time>2021-09-12T11:04:54.872Z</time>
      </trkpt>
      <trkpt lat="45.6662" lon="5.90867">
        <ele>258</ele>
        <time>2021-09-12T11:04:55.873Z</time>
      </trkpt>
      <trkpt lat="45.66615" lon="5.90867">
        <ele>258</ele>
        <time>2021-09-12T11:04:56.873Z</time>
      </trkpt>
      <trkpt lat="45.6661" lon="5.90867">
        <ele>258</ele>
        <time>2021-09-12T11:04:57.872Z</time>
      </trkpt>
      <trkpt lat="45.66605" lon="5.90867">
        <ele>258</ele>
        <time>2021-09-12T11:04:58.873Z</time>
      </trkpt>
      <trkpt lat="45.66599" lon="5.90867">
        <ele>258</ele>
        <time>2021-09-12T11:04:59.873Z</time>
      </trkpt>
      <trkpt lat="45.66593" lon="5.90867">
        <ele>258</ele>
        <time>2021-09-12T11:05:00.872Z</time>
      </trkpt>
      <trkpt lat="45.66589" lon="5.90867">
        <ele>258</ele>
        <time>2021-09-12T11:05:01.873Z</time>
      </trkpt>
      <trkpt lat="45.66583" lon="5.90867">
        <ele>258</ele>
        <time>2021-09-12T11:05:02.873Z</time>
      </trkpt>
      <trkpt lat="45.66578" lon="5.90867">
        <ele>258</ele>
        <time>2021-09-12T11:05:03.873Z</time>
      </trkpt>
      <trkpt lat="45.66573" lon="5.90867">
        <ele>258</ele>
        <time>2021-09-12T11:05:04.873Z</time>
      </trkpt>
      <trkpt lat="45.66568" lon="5.90867">
        <ele>258</ele>
        <time>2021-09-12T11:05:05.873Z</time>
      </trkpt>
      <trkpt lat="45.66562" lon="5.90867">
        <ele>259</ele>
        <time>2021-09-12T11:05:06.873Z</time>
      </trkpt>
      <trkpt lat="45.66556" lon="5.90866">
        <ele>259</ele>
        <time>2021-09-12T11:05:07.873Z</time>
      </trkpt>
      <trkpt lat="45.66551" lon="5.90865">
        <ele>259</ele>
        <time>2021-09-12T11:05:08.873Z</time>
      </trkpt>
      <trkpt lat="45.66545" lon="5.90864">
        <ele>259</ele>
        <time>2021-09-12T11:05:33.002Z</time>
      </trkpt>
      <trkpt lat="45.66541" lon="5.90863">
        <ele>260</ele>
        <time>2021-09-12T11:05:34.002Z</time>
      </trkpt>
      <trkpt lat="45.66537" lon="5.90864">
        <ele>260</ele>
        <time>2021-09-12T11:05:35.002Z</time>
      </trkpt>
      <trkpt lat="45.66533" lon="5.90865">
        <ele>261</ele>
        <time>2021-09-12T11:05:36.002Z</time>
      </trkpt>
      <trkpt lat="45.6653" lon="5.90868">
        <ele>262</ele>
        <time>2021-09-12T11:05:37.001Z</time>
      </trkpt>
      <trkpt lat="45.66528" lon="5.9087">
        <ele>262</ele>
        <time>2021-09-12T11:05:38.001Z</time>
      </trkpt>
      <trkpt lat="45.66525" lon="5.90871">
        <ele>262</ele>
        <time>2021-09-12T11:05:39.002Z</time>
      </trkpt>
      <trkpt lat="45.66521" lon="5.90872">
        <ele>262</ele>
        <time>2021-09-12T11:05:40.002Z</time>
      </trkpt>
      <trkpt lat="45.66517" lon="5.90872">
        <ele>262</ele>
        <time>2021-09-12T11:05:41.002Z</time>
      </trkpt>
      <trkpt lat="45.66513" lon="5.90873">
        <ele>262</ele>
        <time>2021-09-12T11:05:42.002Z</time>
      </trkpt>
      <trkpt lat="45.66509" lon="5.90873">
        <ele>262</ele>
        <time>2021-09-12T11:05:43.002Z</time>
      </trkpt>
      <trkpt lat="45.66505" lon="5.90873">
        <ele>262</ele>
        <time>2021-09-12T11:05:44.002Z</time>
      </trkpt>
      <trkpt lat="45.665" lon="5.90873">
        <ele>262</ele>
        <time>2021-09-12T11:05:45.002Z</time>
      </trkpt>
      <trkpt lat="45.66496" lon="5.90874">
        <ele>263</ele>
        <time>2021-09-12T11:05:46.002Z</time>
      </trkpt>
      <trkpt lat="45.66491" lon="5.90875">
        <ele>263</ele>
        <time>2021-09-12T11:05:47.002Z</time>
      </trkpt>
      <trkpt lat="45.66486" lon="5.90876">
        <ele>263</ele>
        <time>2021-09-12T11:05:48.002Z</time>
      </trkpt>
      <trkpt lat="45.66482" lon="5.90876">
        <ele>263</ele>
        <time>2021-09-12T11:05:49.001Z</time>
      </trkpt>
      <trkpt lat="45.66477" lon="5.90877">
        <ele>263</ele>
        <time>2021-09-12T11:05:50.002Z</time>
      </trkpt>
      <trkpt lat="45.66472" lon="5.90878">
        <ele>264</ele>
        <time>2021-09-12T11:05:51.001Z</time>
      </trkpt>
      <trkpt lat="45.66467" lon="5.90879">
        <ele>263</ele>
        <time>2021-09-12T11:05:52.002Z</time>
      </trkpt>
      <trkpt lat="45.66463" lon="5.90879">
        <ele>263</ele>
        <time>2021-09-12T11:05:53.002Z</time>
      </trkpt>
      <trkpt lat="45.66458" lon="5.9088">
        <ele>263</ele>
        <time>2021-09-12T11:05:54.002Z</time>
      </trkpt>
      <trkpt lat="45.66453" lon="5.90881">
        <ele>263</ele>
        <time>2021-09-12T11:05:55.002Z</time>
      </trkpt>
      <trkpt lat="45.66448" lon="5.90882">
        <ele>263</ele>
        <time>2021-09-12T11:05:56.002Z</time>
      </trkpt>
      <trkpt lat="45.66444" lon="5.90883">
        <ele>264</ele>
        <time>2021-09-12T11:05:57.002Z</time>
      </trkpt>
      <trkpt lat="45.66439" lon="5.90883">
        <ele>264</ele>
        <time>2021-09-12T11:05:58.002Z</time>
      </trkpt>
      <trkpt lat="45.66435" lon="5.90884">
        <ele>265</ele>
        <time>2021-09-12T11:05:59.002Z</time>
      </trkpt>
      <trkpt lat="45.66431" lon="5.90884">
        <ele>265</ele>
        <time>2021-09-12T11:06:00.002Z</time>
      </trkpt>
      <trkpt lat="45.66426" lon="5.90885">
        <ele>265</ele>
        <time>2021-09-12T11:06:01.002Z</time>
      </trkpt>
      <trkpt lat="45.6642" lon="5.90886">
        <ele>265</ele>
        <time>2021-09-12T11:06:02.001Z</time>
      </trkpt>
      <trkpt lat="45.66416" lon="5.90886">
        <ele>265</ele>
        <time>2021-09-12T11:06:03.002Z</time>
      </trkpt>
      <trkpt lat="45.66412" lon="5.90887">
        <ele>266</ele>
        <time>2021-09-12T11:06:04.002Z</time>
      </trkpt>
      <trkpt lat="45.66407" lon="5.90888">
        <ele>266</ele>
        <time>2021-09-12T11:06:05.002Z</time>
      </trkpt>
      <trkpt lat="45.66403" lon="5.90887">
        <ele>267</ele>
        <time>2021-09-12T11:06:06.002Z</time>
      </trkpt>
      <trkpt lat="45.66399" lon="5.90886">
        <ele>268</ele>
        <time>2021-09-12T11:06:07.001Z</time>
      </trkpt>
      <trkpt lat="45.66395" lon="5.90882">
        <ele>268</ele>
        <time>2021-09-12T11:06:08.002Z</time>
      </trkpt>
      <trkpt lat="45.66391" lon="5.90879">
        <ele>268</ele>
        <time>2021-09-12T11:06:09.002Z</time>
      </trkpt>
      <trkpt lat="45.66387" lon="5.90875">
        <ele>268</ele>
        <time>2021-09-12T11:06:10.001Z</time>
      </trkpt>
      <trkpt lat="45.66383" lon="5.90872">
        <ele>268</ele>
        <time>2021-09-12T11:06:11.001Z</time>
      </trkpt>
      <trkpt lat="45.6638" lon="5.9087">
        <ele>268</ele>
        <time>2021-09-12T11:06:12.002Z</time>
      </trkpt>
      <trkpt lat="45.66376" lon="5.90869">
        <ele>267</ele>
        <time>2021-09-12T11:06:13.001Z</time>
      </trkpt>
      <trkpt lat="45.66372" lon="5.90869">
        <ele>267</ele>
        <time>2021-09-12T11:06:14.002Z</time>
      </trkpt>
      <trkpt lat="45.66368" lon="5.9087">
        <ele>267</ele>
        <time>2021-09-12T11:06:15.001Z</time>
      </trkpt>
      <trkpt lat="45.66363" lon="5.90872">
        <ele>266</ele>
        <time>2021-09-12T11:06:16.002Z</time>
      </trkpt>
      <trkpt lat="45.6636" lon="5.90874">
        <ele>266</ele>
        <time>2021-09-12T11:06:17.002Z</time>
      </trkpt>
      <trkpt lat="45.66356" lon="5.90878">
        <ele>266</ele>
        <time>2021-09-12T11:06:18.001Z</time>
      </trkpt>
      <trkpt lat="45.66351" lon="5.90881">
        <ele>266</ele>
        <time>2021-09-12T11:06:19.002Z</time>
      </trkpt>
      <trkpt lat="45.66348" lon="5.90883">
        <ele>266</ele>
        <time>2021-09-12T11:06:20.002Z</time>
      </trkpt>
      <trkpt lat="45.66343" lon="5.90886">
        <ele>267</ele>
        <time>2021-09-12T11:06:21.001Z</time>
      </trkpt>
      <trkpt lat="45.66337" lon="5.90888">
        <ele>267</ele>
        <time>2021-09-12T11:06:22.001Z</time>
      </trkpt>
      <trkpt lat="45.66332" lon="5.90889">
        <ele>268</ele>
        <time>2021-09-12T11:06:23.002Z</time>
      </trkpt>
      <trkpt lat="45.66328" lon="5.9089">
        <ele>268</ele>
        <time>2021-09-12T11:06:24.002Z</time>
      </trkpt>
      <trkpt lat="45.66325" lon="5.90891">
        <ele>268</ele>
        <time>2021-09-12T11:06:25.002Z</time>
      </trkpt>
      <trkpt lat="45.66322" lon="5.90891">
        <ele>269</ele>
        <time>2021-09-12T11:06:26.002Z</time>
      </trkpt>
      <trkpt lat="45.66319" lon="5.90892">
        <ele>269</ele>
        <time>2021-09-12T11:06:27.002Z</time>
      </trkpt>
      <trkpt lat="45.66316" lon="5.90893">
        <ele>269</ele>
        <time>2021-09-12T11:06:28.002Z</time>
      </trkpt>
      <trkpt lat="45.66313" lon="5.90893">
        <ele>270</ele>
        <time>2021-09-12T11:06:29.002Z</time>
      </trkpt>
      <trkpt lat="45.6631" lon="5.90893">
        <ele>271</ele>
        <time>2021-09-12T11:06:30.002Z</time>
      </trkpt>
      <trkpt lat="45.66308" lon="5.90894">
        <ele>271</ele>
        <time>2021-09-12T11:06:31.002Z</time>
      </trkpt>
      <trkpt lat="45.66306" lon="5.90895">
        <ele>271</ele>
        <time>2021-09-12T11:06:32.001Z</time>
      </trkpt>
      <trkpt lat="45.66303" lon="5.90896">
        <ele>272</ele>
        <time>2021-09-12T11:06:33.002Z</time>
      </trkpt>
      <trkpt lat="45.663" lon="5.90897">
        <ele>272</ele>
        <time>2021-09-12T11:06:34.002Z</time>
      </trkpt>
      <trkpt lat="45.66297" lon="5.90898">
        <ele>273</ele>
        <time>2021-09-12T11:06:35.001Z</time>
      </trkpt>
      <trkpt lat="45.66295" lon="5.90898">
        <ele>273</ele>
        <time>2021-09-12T11:06:36.002Z</time>
      </trkpt>
      <trkpt lat="45.66293" lon="5.90898">
        <ele>274</ele>
        <time>2021-09-12T11:06:37.001Z</time>
      </trkpt>
      <trkpt lat="45.66291" lon="5.90899">
        <ele>274</ele>
        <time>2021-09-12T11:06:38.001Z</time>
      </trkpt>
      <trkpt lat="45.66289" lon="5.909">
        <ele>275</ele>
        <time>2021-09-12T11:06:39.002Z</time>
      </trkpt>
      <trkpt lat="45.66287" lon="5.909">
        <ele>276</ele>
        <time>2021-09-12T11:06:40.002Z</time>
      </trkpt>
      <trkpt lat="45.66286" lon="5.90901">
        <ele>276</ele>
        <time>2021-09-12T11:06:41.002Z</time>
      </trkpt>
      <trkpt lat="45.66284" lon="5.90901">
        <ele>276</ele>
        <time>2021-09-12T11:06:42.001Z</time>
      </trkpt>
      <trkpt lat="45.66282" lon="5.90901">
        <ele>276</ele>
        <time>2021-09-12T11:06:43.002Z</time>
      </trkpt>
      <trkpt lat="45.6628" lon="5.909">
        <ele>276</ele>
        <time>2021-09-12T11:06:44.002Z</time>
      </trkpt>
      <trkpt lat="45.66278" lon="5.909">
        <ele>276</ele>
        <time>2021-09-12T11:06:45.002Z</time>
      </trkpt>
      <trkpt lat="45.66275" lon="5.909">
        <ele>276</ele>
        <time>2021-09-12T11:06:46.001Z</time>
      </trkpt>
      <trkpt lat="45.66272" lon="5.909">
        <ele>276</ele>
        <time>2021-09-12T11:06:47.002Z</time>
      </trkpt>
      <trkpt lat="45.66268" lon="5.909">
        <ele>276</ele>
        <time>2021-09-12T11:06:48.001Z</time>
      </trkpt>
      <trkpt lat="45.66265" lon="5.909">
        <ele>277</ele>
        <time>2021-09-12T11:06:49.002Z</time>
      </trkpt>
      <trkpt lat="45.66262" lon="5.90901">
        <ele>277</ele>
        <time>2021-09-12T11:06:50.002Z</time>
      </trkpt>
      <trkpt lat="45.66259" lon="5.90901">
        <ele>276</ele>
        <time>2021-09-12T11:06:51.001Z</time>
      </trkpt>
      <trkpt lat="45.66256" lon="5.90902">
        <ele>276</ele>
        <time>2021-09-12T11:06:52.002Z</time>
      </trkpt>
      <trkpt lat="45.66253" lon="5.90902">
        <ele>276</ele>
        <time>2021-09-12T11:06:53.002Z</time>
      </trkpt>
      <trkpt lat="45.66249" lon="5.90901">
        <ele>275</ele>
        <time>2021-09-12T11:06:54.002Z</time>
      </trkpt>
      <trkpt lat="45.66246" lon="5.90901">
        <ele>274</ele>
        <time>2021-09-12T11:06:55.002Z</time>
      </trkpt>
      <trkpt lat="45.66242" lon="5.90902">
        <ele>273</ele>
        <time>2021-09-12T11:06:56.002Z</time>
      </trkpt>
      <trkpt lat="45.66238" lon="5.90902">
        <ele>273</ele>
        <time>2021-09-12T11:06:57.002Z</time>
      </trkpt>
      <trkpt lat="45.66234" lon="5.90903">
        <ele>272</ele>
        <time>2021-09-12T11:06:58.002Z</time>
      </trkpt>
      <trkpt lat="45.6623" lon="5.90903">
        <ele>272</ele>
        <time>2021-09-12T11:06:59.001Z</time>
      </trkpt>
      <trkpt lat="45.66227" lon="5.90903">
        <ele>271</ele>
        <time>2021-09-12T11:07:00.001Z</time>
      </trkpt>
      <trkpt lat="45.66223" lon="5.90904">
        <ele>271</ele>
        <time>2021-09-12T11:07:01.001Z</time>
      </trkpt>
      <trkpt lat="45.66218" lon="5.90903">
        <ele>272</ele>
        <time>2021-09-12T11:07:02.002Z</time>
      </trkpt>
      <trkpt lat="45.66214" lon="5.90903">
        <ele>272</ele>
        <time>2021-09-12T11:07:03.002Z</time>
      </trkpt>
      <trkpt lat="45.6621" lon="5.90903">
        <ele>271</ele>
        <time>2021-09-12T11:07:04.002Z</time>
      </trkpt>
      <trkpt lat="45.66207" lon="5.90903">
        <ele>271</ele>
        <time>2021-09-12T11:07:05.002Z</time>
      </trkpt>
      <trkpt lat="45.66203" lon="5.90903">
        <ele>271</ele>
        <time>2021-09-12T11:07:06.002Z</time>
      </trkpt>
      <trkpt lat="45.66199" lon="5.90904">
        <ele>272</ele>
        <time>2021-09-12T11:07:07.001Z</time>
      </trkpt>
      <trkpt lat="45.66196" lon="5.90905">
        <ele>272</ele>
        <time>2021-09-12T11:07:08.001Z</time>
      </trkpt>
      <trkpt lat="45.66192" lon="5.90905">
        <ele>273</ele>
        <time>2021-09-12T11:07:09.001Z</time>
      </trkpt>
      <trkpt lat="45.66188" lon="5.90905">
        <ele>273</ele>
        <time>2021-09-12T11:07:10.002Z</time>
      </trkpt>
      <trkpt lat="45.66183" lon="5.90906">
        <ele>274</ele>
        <time>2021-09-12T11:07:11.002Z</time>
      </trkpt>
      <trkpt lat="45.66178" lon="5.90906">
        <ele>275</ele>
        <time>2021-09-12T11:07:12.001Z</time>
      </trkpt>
      <trkpt lat="45.66174" lon="5.90906">
        <ele>276</ele>
        <time>2021-09-12T11:07:13.002Z</time>
      </trkpt>
      <trkpt lat="45.66169" lon="5.90906">
        <ele>276</ele>
        <time>2021-09-12T11:07:14.002Z</time>
      </trkpt>
      <trkpt lat="45.66164" lon="5.90905">
        <ele>277</ele>
        <time>2021-09-12T11:07:15.001Z</time>
      </trkpt>
      <trkpt lat="45.6616" lon="5.90905">
        <ele>277</ele>
        <time>2021-09-12T11:07:16.001Z</time>
      </trkpt>
      <trkpt lat="45.66156" lon="5.90905">
        <ele>276</ele>
        <time>2021-09-12T11:07:17.001Z</time>
      </trkpt>
      <trkpt lat="45.6615" lon="5.90905">
        <ele>276</ele>
        <time>2021-09-12T11:07:18.001Z</time>
      </trkpt>
      <trkpt lat="45.66147" lon="5.90905">
        <ele>276</ele>
        <time>2021-09-12T11:07:19.002Z</time>
      </trkpt>
      <trkpt lat="45.66142" lon="5.90905">
        <ele>275</ele>
        <time>2021-09-12T11:07:20.001Z</time>
      </trkpt>
      <trkpt lat="45.66138" lon="5.90905">
        <ele>275</ele>
        <time>2021-09-12T11:07:21.001Z</time>
      </trkpt>
      <trkpt lat="45.66133" lon="5.90906">
        <ele>275</ele>
        <time>2021-09-12T11:07:22.001Z</time>
      </trkpt>
      <trkpt lat="45.66129" lon="5.90906">
        <ele>274</ele>
        <time>2021-09-12T11:07:23.002Z</time>
      </trkpt>
      <trkpt lat="45.66124" lon="5.90907">
        <ele>274</ele>
        <time>2021-09-12T11:07:24.001Z</time>
      </trkpt>
      <trkpt lat="45.6612" lon="5.90908">
        <ele>274</ele>
        <time>2021-09-12T11:07:25.002Z</time>
      </trkpt>
      <trkpt lat="45.66115" lon="5.90909">
        <ele>274</ele>
        <time>2021-09-12T11:07:26.002Z</time>
      </trkpt>
      <trkpt lat="45.66111" lon="5.9091">
        <ele>274</ele>
        <time>2021-09-12T11:07:27.001Z</time>
      </trkpt>
      <trkpt lat="45.66107" lon="5.9091">
        <ele>274</ele>
        <time>2021-09-12T11:07:28.001Z</time>
      </trkpt>
      <trkpt lat="45.66103" lon="5.9091">
        <ele>274</ele>
        <time>2021-09-12T11:07:29.002Z</time>
      </trkpt>
      <trkpt lat="45.661" lon="5.90909">
        <ele>273</ele>
        <time>2021-09-12T11:07:30.002Z</time>
      </trkpt>
      <trkpt lat="45.66096" lon="5.90907">
        <ele>273</ele>
        <time>2021-09-12T11:07:31.002Z</time>
      </trkpt>
      <trkpt lat="45.66093" lon="5.90905">
        <ele>272</ele>
        <time>2021-09-12T11:07:32.001Z</time>
      </trkpt>
      <trkpt lat="45.6609" lon="5.90903">
        <ele>272</ele>
        <time>2021-09-12T11:07:33.002Z</time>
      </trkpt>
      <trkpt lat="45.66086" lon="5.90902">
        <ele>271</ele>
        <time>2021-09-12T11:07:34.002Z</time>
      </trkpt>
      <trkpt lat="45.66083" lon="5.90901">
        <ele>271</ele>
        <time>2021-09-12T11:07:35.002Z</time>
      </trkpt>
      <trkpt lat="45.66079" lon="5.90901">
        <ele>270</ele>
        <time>2021-09-12T11:07:36.002Z</time>
      </trkpt>
      <trkpt lat="45.66075" lon="5.90903">
        <ele>270</ele>
        <time>2021-09-12T11:07:37.002Z</time>
      </trkpt>
      <trkpt lat="45.6607" lon="5.90905">
        <ele>270</ele>
        <time>2021-09-12T11:07:38.001Z</time>
      </trkpt>
      <trkpt lat="45.66066" lon="5.90905">
        <ele>270</ele>
        <time>2021-09-12T11:07:39.002Z</time>
      </trkpt>
      <trkpt lat="45.66062" lon="5.90905">
        <ele>270</ele>
        <time>2021-09-12T11:07:40.002Z</time>
      </trkpt>
      <trkpt lat="45.66057" lon="5.90905">
        <ele>269</ele>
        <time>2021-09-12T11:07:41.002Z</time>
      </trkpt>
      <trkpt lat="45.66053" lon="5.90904">
        <ele>269</ele>
        <time>2021-09-12T11:07:42.002Z</time>
      </trkpt>
      <trkpt lat="45.66049" lon="5.90904">
        <ele>269</ele>
        <time>2021-09-12T11:07:43.002Z</time>
      </trkpt>
      <trkpt lat="45.66044" lon="5.90904">
        <ele>269</ele>
        <time>2021-09-12T11:07:44.001Z</time>
      </trkpt>
      <trkpt lat="45.66039" lon="5.90903">
        <ele>269</ele>
        <time>2021-09-12T11:07:45.001Z</time>
      </trkpt>
      <trkpt lat="45.66034" lon="5.90903">
        <ele>269</ele>
        <time>2021-09-12T11:07:46.001Z</time>
      </trkpt>
      <trkpt lat="45.66031" lon="5.90903">
        <ele>269</ele>
        <time>2021-09-12T11:07:47.002Z</time>
      </trkpt>
      <trkpt lat="45.66026" lon="5.90902">
        <ele>269</ele>
        <time>2021-09-12T11:07:48.001Z</time>
      </trkpt>
      <trkpt lat="45.6602" lon="5.90902">
        <ele>269</ele>
        <time>2021-09-12T11:07:49.001Z</time>
      </trkpt>
      <trkpt lat="45.66015" lon="5.90901">
        <ele>269</ele>
        <time>2021-09-12T11:07:50.002Z</time>
      </trkpt>
      <trkpt lat="45.66012" lon="5.90901">
        <ele>269</ele>
        <time>2021-09-12T11:07:51.001Z</time>
      </trkpt>
      <trkpt lat="45.66007" lon="5.90901">
        <ele>269</ele>
        <time>2021-09-12T11:07:52.002Z</time>
      </trkpt>
      <trkpt lat="45.66003" lon="5.90901">
        <ele>269</ele>
        <time>2021-09-12T11:07:53.001Z</time>
      </trkpt>
      <trkpt lat="45.65998" lon="5.90901">
        <ele>269</ele>
        <time>2021-09-12T11:07:54.002Z</time>
      </trkpt>
      <trkpt lat="45.65993" lon="5.90901">
        <ele>269</ele>
        <time>2021-09-12T11:07:55.002Z</time>
      </trkpt>
      <trkpt lat="45.65989" lon="5.90901">
        <ele>269</ele>
        <time>2021-09-12T11:07:56.002Z</time>
      </trkpt>
      <trkpt lat="45.65985" lon="5.90901">
        <ele>270</ele>
        <time>2021-09-12T11:07:57.001Z</time>
      </trkpt>
      <trkpt lat="45.6598" lon="5.90901">
        <ele>270</ele>
        <time>2021-09-12T11:07:58.001Z</time>
      </trkpt>
      <trkpt lat="45.65975" lon="5.909">
        <ele>270</ele>
        <time>2021-09-12T11:07:59.001Z</time>
      </trkpt>
      <trkpt lat="45.65971" lon="5.909">
        <ele>270</ele>
        <time>2021-09-12T11:08:00.002Z</time>
      </trkpt>
      <trkpt lat="45.65966" lon="5.90899">
        <ele>270</ele>
        <time>2021-09-12T11:08:01.002Z</time>
      </trkpt>
      <trkpt lat="45.65962" lon="5.90899">
        <ele>270</ele>
        <time>2021-09-12T11:08:02.001Z</time>
      </trkpt>
      <trkpt lat="45.65957" lon="5.90898">
        <ele>271</ele>
        <time>2021-09-12T11:08:03.001Z</time>
      </trkpt>
      <trkpt lat="45.65952" lon="5.90898">
        <ele>270</ele>
        <time>2021-09-12T11:08:04.001Z</time>
      </trkpt>
      <trkpt lat="45.65949" lon="5.90897">
        <ele>270</ele>
        <time>2021-09-12T11:08:05.001Z</time>
      </trkpt>
      <trkpt lat="45.65944" lon="5.90897">
        <ele>270</ele>
        <time>2021-09-12T11:08:06.001Z</time>
      </trkpt>
      <trkpt lat="45.65939" lon="5.90896">
        <ele>270</ele>
        <time>2021-09-12T11:08:07.002Z</time>
      </trkpt>
      <trkpt lat="45.65935" lon="5.90896">
        <ele>270</ele>
        <time>2021-09-12T11:08:08.002Z</time>
      </trkpt>
      <trkpt lat="45.6593" lon="5.90896">
        <ele>271</ele>
        <time>2021-09-12T11:08:09.002Z</time>
      </trkpt>
      <trkpt lat="45.65927" lon="5.90895">
        <ele>271</ele>
        <time>2021-09-12T11:08:10.002Z</time>
      </trkpt>
      <trkpt lat="45.65923" lon="5.90895">
        <ele>271</ele>
        <time>2021-09-12T11:08:11.002Z</time>
      </trkpt>
      <trkpt lat="45.65918" lon="5.90894">
        <ele>271</ele>
        <time>2021-09-12T11:08:12.002Z</time>
      </trkpt>
      <trkpt lat="45.65913" lon="5.90894">
        <ele>272</ele>
        <time>2021-09-12T11:08:13.001Z</time>
      </trkpt>
      <trkpt lat="45.65909" lon="5.90893">
        <ele>272</ele>
        <time>2021-09-12T11:08:14.002Z</time>
      </trkpt>
      <trkpt lat="45.65904" lon="5.90893">
        <ele>273</ele>
        <time>2021-09-12T11:08:15.002Z</time>
      </trkpt>
      <trkpt lat="45.65899" lon="5.90892">
        <ele>273</ele>
        <time>2021-09-12T11:08:16.002Z</time>
      </trkpt>
      <trkpt lat="45.65895" lon="5.90892">
        <ele>274</ele>
        <time>2021-09-12T11:08:17.002Z</time>
      </trkpt>
      <trkpt lat="45.65891" lon="5.90892">
        <ele>274</ele>
        <time>2021-09-12T11:08:18.001Z</time>
      </trkpt>
      <trkpt lat="45.65886" lon="5.90891">
        <ele>274</ele>
        <time>2021-09-12T11:08:19.002Z</time>
      </trkpt>
      <trkpt lat="45.65882" lon="5.9089">
        <ele>274</ele>
        <time>2021-09-12T11:08:20.002Z</time>
      </trkpt>
      <trkpt lat="45.65877" lon="5.90889">
        <ele>275</ele>
        <time>2021-09-12T11:08:21.002Z</time>
      </trkpt>
      <trkpt lat="45.65872" lon="5.90888">
        <ele>274</ele>
        <time>2021-09-12T11:08:22.001Z</time>
      </trkpt>
      <trkpt lat="45.65868" lon="5.90888">
        <ele>274</ele>
        <time>2021-09-12T11:08:23.001Z</time>
      </trkpt>
      <trkpt lat="45.65864" lon="5.90887">
        <ele>274</ele>
        <time>2021-09-12T11:08:24.001Z</time>
      </trkpt>
      <trkpt lat="45.65859" lon="5.90887">
        <ele>274</ele>
        <time>2021-09-12T11:08:25.002Z</time>
      </trkpt>
      <trkpt lat="45.65855" lon="5.90887">
        <ele>275</ele>
        <time>2021-09-12T11:08:26.001Z</time>
      </trkpt>
      <trkpt lat="45.6585" lon="5.90887">
        <ele>275</ele>
        <time>2021-09-12T11:08:27.001Z</time>
      </trkpt>
      <trkpt lat="45.65846" lon="5.90886">
        <ele>275</ele>
        <time>2021-09-12T11:08:28.001Z</time>
      </trkpt>
      <trkpt lat="45.65841" lon="5.90885">
        <ele>275</ele>
        <time>2021-09-12T11:08:29.001Z</time>
      </trkpt>
      <trkpt lat="45.65836" lon="5.90885">
        <ele>275</ele>
        <time>2021-09-12T11:08:30.002Z</time>
      </trkpt>
      <trkpt lat="45.65831" lon="5.90884">
        <ele>275</ele>
        <time>2021-09-12T11:08:31.002Z</time>
      </trkpt>
      <trkpt lat="45.65827" lon="5.90884">
        <ele>275</ele>
        <time>2021-09-12T11:08:32.002Z</time>
      </trkpt>
      <trkpt lat="45.65822" lon="5.90883">
        <ele>275</ele>
        <time>2021-09-12T11:08:33.001Z</time>
      </trkpt>
      <trkpt lat="45.65817" lon="5.90882">
        <ele>276</ele>
        <time>2021-09-12T11:08:34.002Z</time>
      </trkpt>
      <trkpt lat="45.65813" lon="5.90882">
        <ele>276</ele>
        <time>2021-09-12T11:08:35.002Z</time>
      </trkpt>
      <trkpt lat="45.65808" lon="5.90881">
        <ele>277</ele>
        <time>2021-09-12T11:08:36.002Z</time>
      </trkpt>
      <trkpt lat="45.65803" lon="5.90881">
        <ele>277</ele>
        <time>2021-09-12T11:08:37.002Z</time>
      </trkpt>
      <trkpt lat="45.65798" lon="5.9088">
        <ele>277</ele>
        <time>2021-09-12T11:08:38.002Z</time>
      </trkpt>
      <trkpt lat="45.65793" lon="5.90879">
        <ele>277</ele>
        <time>2021-09-12T11:08:39.002Z</time>
      </trkpt>
      <trkpt lat="45.65787" lon="5.90879">
        <ele>277</ele>
        <time>2021-09-12T11:08:40.001Z</time>
      </trkpt>
      <trkpt lat="45.65782" lon="5.90878">
        <ele>276</ele>
        <time>2021-09-12T11:08:41.002Z</time>
      </trkpt>
      <trkpt lat="45.65777" lon="5.90878">
        <ele>276</ele>
        <time>2021-09-12T11:08:42.001Z</time>
      </trkpt>
      <trkpt lat="45.65772" lon="5.90877">
        <ele>276</ele>
        <time>2021-09-12T11:08:43.002Z</time>
      </trkpt>
      <trkpt lat="45.65766" lon="5.90876">
        <ele>276</ele>
        <time>2021-09-12T11:08:44.001Z</time>
      </trkpt>
      <trkpt lat="45.65761" lon="5.90876">
        <ele>276</ele>
        <time>2021-09-12T11:08:45.002Z</time>
      </trkpt>
      <trkpt lat="45.65755" lon="5.90875">
        <ele>275</ele>
        <time>2021-09-12T11:08:46.002Z</time>
      </trkpt>
      <trkpt lat="45.65751" lon="5.90874">
        <ele>275</ele>
        <time>2021-09-12T11:08:47.001Z</time>
      </trkpt>
      <trkpt lat="45.65745" lon="5.90873">
        <ele>275</ele>
        <time>2021-09-12T11:08:48.002Z</time>
      </trkpt>
      <trkpt lat="45.6574" lon="5.90872">
        <ele>275</ele>
        <time>2021-09-12T11:08:49.001Z</time>
      </trkpt>
      <trkpt lat="45.65735" lon="5.90872">
        <ele>274</ele>
        <time>2021-09-12T11:08:50.002Z</time>
      </trkpt>
      <trkpt lat="45.6573" lon="5.90872">
        <ele>274</ele>
        <time>2021-09-12T11:08:51.001Z</time>
      </trkpt>
      <trkpt lat="45.65725" lon="5.90871">
        <ele>274</ele>
        <time>2021-09-12T11:08:52.002Z</time>
      </trkpt>
      <trkpt lat="45.6572" lon="5.9087">
        <ele>274</ele>
        <time>2021-09-12T11:08:53.002Z</time>
      </trkpt>
      <trkpt lat="45.65714" lon="5.90869">
        <ele>274</ele>
        <time>2021-09-12T11:08:54.002Z</time>
      </trkpt>
      <trkpt lat="45.65709" lon="5.90869">
        <ele>274</ele>
        <time>2021-09-12T11:08:55.001Z</time>
      </trkpt>
      <trkpt lat="45.65704" lon="5.90868">
        <ele>274</ele>
        <time>2021-09-12T11:08:56.001Z</time>
      </trkpt>
      <trkpt lat="45.65697" lon="5.90868">
        <ele>275</ele>
        <time>2021-09-12T11:08:57.002Z</time>
      </trkpt>
      <trkpt lat="45.65693" lon="5.90868">
        <ele>276</ele>
        <time>2021-09-12T11:08:58.002Z</time>
      </trkpt>
      <trkpt lat="45.65688" lon="5.90867">
        <ele>276</ele>
        <time>2021-09-12T11:08:59.001Z</time>
      </trkpt>
      <trkpt lat="45.65682" lon="5.90865">
        <ele>276</ele>
        <time>2021-09-12T11:09:00.002Z</time>
      </trkpt>
      <trkpt lat="45.65676" lon="5.90865">
        <ele>276</ele>
        <time>2021-09-12T11:09:01.002Z</time>
      </trkpt>
      <trkpt lat="45.6567" lon="5.90864">
        <ele>276</ele>
        <time>2021-09-12T11:09:02.001Z</time>
      </trkpt>
      <trkpt lat="45.65665" lon="5.90863">
        <ele>276</ele>
        <time>2021-09-12T11:09:03.001Z</time>
      </trkpt>
      <trkpt lat="45.65659" lon="5.90862">
        <ele>276</ele>
        <time>2021-09-12T11:09:04.002Z</time>
      </trkpt>
      <trkpt lat="45.65653" lon="5.90862">
        <ele>276</ele>
        <time>2021-09-12T11:09:05.001Z</time>
      </trkpt>
      <trkpt lat="45.65646" lon="5.90861">
        <ele>275</ele>
        <time>2021-09-12T11:09:06.002Z</time>
      </trkpt>
      <trkpt lat="45.65641" lon="5.90861">
        <ele>275</ele>
        <time>2021-09-12T11:09:07.001Z</time>
      </trkpt>
      <trkpt lat="45.65635" lon="5.9086">
        <ele>275</ele>
        <time>2021-09-12T11:09:08.002Z</time>
      </trkpt>
      <trkpt lat="45.65631" lon="5.90859">
        <ele>275</ele>
        <time>2021-09-12T11:09:09.002Z</time>
      </trkpt>
      <trkpt lat="45.65625" lon="5.90858">
        <ele>275</ele>
        <time>2021-09-12T11:09:10.002Z</time>
      </trkpt>
      <trkpt lat="45.6562" lon="5.90857">
        <ele>275</ele>
        <time>2021-09-12T11:09:11.001Z</time>
      </trkpt>
      <trkpt lat="45.65614" lon="5.90856">
        <ele>275</ele>
        <time>2021-09-12T11:09:12.002Z</time>
      </trkpt>
      <trkpt lat="45.6561" lon="5.90856">
        <ele>274</ele>
        <time>2021-09-12T11:09:13.002Z</time>
      </trkpt>
      <trkpt lat="45.65605" lon="5.90855">
        <ele>274</ele>
        <time>2021-09-12T11:09:14.001Z</time>
      </trkpt>
      <trkpt lat="45.656" lon="5.90854">
        <ele>274</ele>
        <time>2021-09-12T11:09:15.001Z</time>
      </trkpt>
      <trkpt lat="45.65595" lon="5.90854">
        <ele>274</ele>
        <time>2021-09-12T11:09:16.002Z</time>
      </trkpt>
      <trkpt lat="45.65591" lon="5.90854">
        <ele>274</ele>
        <time>2021-09-12T11:09:17.002Z</time>
      </trkpt>
      <trkpt lat="45.65586" lon="5.90853">
        <ele>274</ele>
        <time>2021-09-12T11:09:18.001Z</time>
      </trkpt>
      <trkpt lat="45.65581" lon="5.90853">
        <ele>274</ele>
        <time>2021-09-12T11:09:19.002Z</time>
      </trkpt>
      <trkpt lat="45.65576" lon="5.90852">
        <ele>274</ele>
        <time>2021-09-12T11:09:20.001Z</time>
      </trkpt>
      <trkpt lat="45.6557" lon="5.90852">
        <ele>274</ele>
        <time>2021-09-12T11:09:21.001Z</time>
      </trkpt>
      <trkpt lat="45.65567" lon="5.90851">
        <ele>274</ele>
        <time>2021-09-12T11:09:22.001Z</time>
      </trkpt>
      <trkpt lat="45.65562" lon="5.9085">
        <ele>275</ele>
        <time>2021-09-12T11:09:23.002Z</time>
      </trkpt>
      <trkpt lat="45.65557" lon="5.9085">
        <ele>274</ele>
        <time>2021-09-12T11:09:24.001Z</time>
      </trkpt>
      <trkpt lat="45.65552" lon="5.90849">
        <ele>274</ele>
        <time>2021-09-12T11:09:25.002Z</time>
      </trkpt>
      <trkpt lat="45.65547" lon="5.90849">
        <ele>275</ele>
        <time>2021-09-12T11:09:26.002Z</time>
      </trkpt>
      <trkpt lat="45.65541" lon="5.90849">
        <ele>275</ele>
        <time>2021-09-12T11:09:27.001Z</time>
      </trkpt>
      <trkpt lat="45.65536" lon="5.90848">
        <ele>275</ele>
        <time>2021-09-12T11:09:28.002Z</time>
      </trkpt>
      <trkpt lat="45.65532" lon="5.90847">
        <ele>275</ele>
        <time>2021-09-12T11:09:29.002Z</time>
      </trkpt>
      <trkpt lat="45.65526" lon="5.90847">
        <ele>275</ele>
        <time>2021-09-12T11:09:30.002Z</time>
      </trkpt>
      <trkpt lat="45.65521" lon="5.90846">
        <ele>275</ele>
        <time>2021-09-12T11:09:31.002Z</time>
      </trkpt>
      <trkpt lat="45.65516" lon="5.90846">
        <ele>274</ele>
        <time>2021-09-12T11:09:32.002Z</time>
      </trkpt>
      <trkpt lat="45.65511" lon="5.90845">
        <ele>274</ele>
        <time>2021-09-12T11:09:33.001Z</time>
      </trkpt>
      <trkpt lat="45.65505" lon="5.90844">
        <ele>274</ele>
        <time>2021-09-12T11:09:34.002Z</time>
      </trkpt>
      <trkpt lat="45.655" lon="5.90844">
        <ele>273</ele>
        <time>2021-09-12T11:09:35.002Z</time>
      </trkpt>
      <trkpt lat="45.65495" lon="5.90843">
        <ele>273</ele>
        <time>2021-09-12T11:09:36.002Z</time>
      </trkpt>
      <trkpt lat="45.65491" lon="5.90842">
        <ele>273</ele>
        <time>2021-09-12T11:09:37.001Z</time>
      </trkpt>
      <trkpt lat="45.65486" lon="5.90842">
        <ele>273</ele>
        <time>2021-09-12T11:09:38.002Z</time>
      </trkpt>
      <trkpt lat="45.65479" lon="5.90841">
        <ele>273</ele>
        <time>2021-09-12T11:09:39.001Z</time>
      </trkpt>
      <trkpt lat="45.65475" lon="5.9084">
        <ele>273</ele>
        <time>2021-09-12T11:09:40.001Z</time>
      </trkpt>
      <trkpt lat="45.6547" lon="5.9084">
        <ele>273</ele>
        <time>2021-09-12T11:09:41.002Z</time>
      </trkpt>
      <trkpt lat="45.65465" lon="5.90839">
        <ele>272</ele>
        <time>2021-09-12T11:09:42.002Z</time>
      </trkpt>
      <trkpt lat="45.65461" lon="5.90838">
        <ele>272</ele>
        <time>2021-09-12T11:09:43.002Z</time>
      </trkpt>
      <trkpt lat="45.65455" lon="5.90838">
        <ele>272</ele>
        <time>2021-09-12T11:09:44.002Z</time>
      </trkpt>
      <trkpt lat="45.6545" lon="5.90837">
        <ele>271</ele>
        <time>2021-09-12T11:09:45.002Z</time>
      </trkpt>
      <trkpt lat="45.65445" lon="5.90837">
        <ele>272</ele>
        <time>2021-09-12T11:09:46.001Z</time>
      </trkpt>
      <trkpt lat="45.6544" lon="5.90836">
        <ele>271</ele>
        <time>2021-09-12T11:09:47.002Z</time>
      </trkpt>
      <trkpt lat="45.65434" lon="5.90835">
        <ele>271</ele>
        <time>2021-09-12T11:09:48.002Z</time>
      </trkpt>
      <trkpt lat="45.65429" lon="5.90834">
        <ele>271</ele>
        <time>2021-09-12T11:09:49.002Z</time>
      </trkpt>
      <trkpt lat="45.65424" lon="5.90834">
        <ele>271</ele>
        <time>2021-09-12T11:09:50.001Z</time>
      </trkpt>
      <trkpt lat="45.65419" lon="5.90834">
        <ele>270</ele>
        <time>2021-09-12T11:09:51.001Z</time>
      </trkpt>
      <trkpt lat="45.65413" lon="5.90833">
        <ele>270</ele>
        <time>2021-09-12T11:09:52.001Z</time>
      </trkpt>
      <trkpt lat="45.65408" lon="5.90833">
        <ele>270</ele>
        <time>2021-09-12T11:09:53.001Z</time>
      </trkpt>
      <trkpt lat="45.65405" lon="5.90832">
        <ele>270</ele>
        <time>2021-09-12T11:09:54.001Z</time>
      </trkpt>
      <trkpt lat="45.654" lon="5.90832">
        <ele>270</ele>
        <time>2021-09-12T11:09:55.002Z</time>
      </trkpt>
      <trkpt lat="45.65395" lon="5.90831">
        <ele>270</ele>
        <time>2021-09-12T11:09:56.001Z</time>
      </trkpt>
      <trkpt lat="45.65391" lon="5.90829">
        <ele>270</ele>
        <time>2021-09-12T11:09:57.001Z</time>
      </trkpt>
      <trkpt lat="45.65386" lon="5.90826">
        <ele>270</ele>
        <time>2021-09-12T11:09:58.002Z</time>
      </trkpt>
      <trkpt lat="45.65383" lon="5.90824">
        <ele>270</ele>
        <time>2021-09-12T11:09:59.002Z</time>
      </trkpt>
      <trkpt lat="45.65379" lon="5.90822">
        <ele>270</ele>
        <time>2021-09-12T11:10:00.002Z</time>
      </trkpt>
      <trkpt lat="45.65374" lon="5.90822">
        <ele>270</ele>
        <time>2021-09-12T11:10:01.002Z</time>
      </trkpt>
      <trkpt lat="45.6537" lon="5.90822">
        <ele>270</ele>
        <time>2021-09-12T11:10:02.002Z</time>
      </trkpt>
      <trkpt lat="45.65365" lon="5.90822">
        <ele>271</ele>
        <time>2021-09-12T11:10:03.001Z</time>
      </trkpt>
      <trkpt lat="45.65362" lon="5.90823">
        <ele>271</ele>
        <time>2021-09-12T11:10:04.002Z</time>
      </trkpt>
      <trkpt lat="45.65357" lon="5.90824">
        <ele>271</ele>
        <time>2021-09-12T11:10:05.001Z</time>
      </trkpt>
      <trkpt lat="45.65353" lon="5.90824">
        <ele>272</ele>
        <time>2021-09-12T11:10:06.002Z</time>
      </trkpt>
      <trkpt lat="45.65348" lon="5.90824">
        <ele>272</ele>
        <time>2021-09-12T11:10:07.002Z</time>
      </trkpt>
      <trkpt lat="45.65343" lon="5.90824">
        <ele>272</ele>
        <time>2021-09-12T11:10:08.002Z</time>
      </trkpt>
      <trkpt lat="45.65339" lon="5.90823">
        <ele>272</ele>
        <time>2021-09-12T11:10:09.001Z</time>
      </trkpt>
      <trkpt lat="45.65335" lon="5.90823">
        <ele>272</ele>
        <time>2021-09-12T11:10:10.002Z</time>
      </trkpt>
      <trkpt lat="45.6533" lon="5.90822">
        <ele>272</ele>
        <time>2021-09-12T11:10:11.002Z</time>
      </trkpt>
      <trkpt lat="45.65326" lon="5.90822">
        <ele>272</ele>
        <time>2021-09-12T11:10:12.002Z</time>
      </trkpt>
      <trkpt lat="45.65322" lon="5.90822">
        <ele>273</ele>
        <time>2021-09-12T11:10:13.002Z</time>
      </trkpt>
      <trkpt lat="45.65318" lon="5.90821">
        <ele>273</ele>
        <time>2021-09-12T11:10:14.001Z</time>
      </trkpt>
      <trkpt lat="45.65314" lon="5.90821">
        <ele>273</ele>
        <time>2021-09-12T11:10:15.001Z</time>
      </trkpt>
      <trkpt lat="45.6531" lon="5.90821">
        <ele>273</ele>
        <time>2021-09-12T11:10:16.002Z</time>
      </trkpt>
      <trkpt lat="45.65305" lon="5.90821">
        <ele>273</ele>
        <time>2021-09-12T11:10:17.002Z</time>
      </trkpt>
      <trkpt lat="45.65301" lon="5.9082">
        <ele>274</ele>
        <time>2021-09-12T11:10:18.002Z</time>
      </trkpt>
      <trkpt lat="45.65297" lon="5.9082">
        <ele>274</ele>
        <time>2021-09-12T11:10:19.002Z</time>
      </trkpt>
      <trkpt lat="45.65293" lon="5.9082">
        <ele>274</ele>
        <time>2021-09-12T11:10:20.001Z</time>
      </trkpt>
      <trkpt lat="45.65287" lon="5.9082">
        <ele>274</ele>
        <time>2021-09-12T11:10:21.002Z</time>
      </trkpt>
      <trkpt lat="45.65284" lon="5.9082">
        <ele>275</ele>
        <time>2021-09-12T11:10:22.002Z</time>
      </trkpt>
      <trkpt lat="45.6528" lon="5.90821">
        <ele>275</ele>
        <time>2021-09-12T11:10:23.002Z</time>
      </trkpt>
      <trkpt lat="45.65276" lon="5.90821">
        <ele>275</ele>
        <time>2021-09-12T11:10:24.002Z</time>
      </trkpt>
      <trkpt lat="45.6527" lon="5.90822">
        <ele>275</ele>
        <time>2021-09-12T11:10:25.002Z</time>
      </trkpt>
      <trkpt lat="45.65266" lon="5.90822">
        <ele>275</ele>
        <time>2021-09-12T11:10:26.001Z</time>
      </trkpt>
      <trkpt lat="45.65262" lon="5.90823">
        <ele>276</ele>
        <time>2021-09-12T11:10:27.002Z</time>
      </trkpt>
      <trkpt lat="45.65257" lon="5.90823">
        <ele>276</ele>
        <time>2021-09-12T11:10:28.002Z</time>
      </trkpt>
      <trkpt lat="45.65253" lon="5.90824">
        <ele>276</ele>
        <time>2021-09-12T11:10:29.002Z</time>
      </trkpt>
      <trkpt lat="45.65248" lon="5.90824">
        <ele>276</ele>
        <time>2021-09-12T11:10:30.001Z</time>
      </trkpt>
      <trkpt lat="45.65244" lon="5.90825">
        <ele>277</ele>
        <time>2021-09-12T11:10:31.002Z</time>
      </trkpt>
      <trkpt lat="45.6524" lon="5.90825">
        <ele>276</ele>
        <time>2021-09-12T11:10:32.002Z</time>
      </trkpt>
      <trkpt lat="45.65235" lon="5.90826">
        <ele>276</ele>
        <time>2021-09-12T11:10:33.002Z</time>
      </trkpt>
      <trkpt lat="45.65231" lon="5.90827">
        <ele>277</ele>
        <time>2021-09-12T11:10:34.001Z</time>
      </trkpt>
      <trkpt lat="45.65226" lon="5.90828">
        <ele>277</ele>
        <time>2021-09-12T11:10:35.001Z</time>
      </trkpt>
      <trkpt lat="45.65222" lon="5.90829">
        <ele>277</ele>
        <time>2021-09-12T11:10:36.001Z</time>
      </trkpt>
      <trkpt lat="45.65217" lon="5.90831">
        <ele>278</ele>
        <time>2021-09-12T11:10:37.002Z</time>
      </trkpt>
      <trkpt lat="45.65213" lon="5.90832">
        <ele>278</ele>
        <time>2021-09-12T11:10:38.001Z</time>
      </trkpt>
      <trkpt lat="45.65209" lon="5.90833">
        <ele>279</ele>
        <time>2021-09-12T11:10:39.002Z</time>
      </trkpt>
      <trkpt lat="45.65205" lon="5.90834">
        <ele>279</ele>
        <time>2021-09-12T11:10:40.002Z</time>
      </trkpt>
      <trkpt lat="45.652" lon="5.90835">
        <ele>280</ele>
        <time>2021-09-12T11:10:41.002Z</time>
      </trkpt>
      <trkpt lat="45.65195" lon="5.90837">
        <ele>279</ele>
        <time>2021-09-12T11:10:42.001Z</time>
      </trkpt>
      <trkpt lat="45.6519" lon="5.90837">
        <ele>279</ele>
        <time>2021-09-12T11:10:43.002Z</time>
      </trkpt>
      <trkpt lat="45.65186" lon="5.90838">
        <ele>279</ele>
        <time>2021-09-12T11:10:44.002Z</time>
      </trkpt>
      <trkpt lat="45.65181" lon="5.90839">
        <ele>278</ele>
        <time>2021-09-12T11:10:45.001Z</time>
      </trkpt>
      <trkpt lat="45.65176" lon="5.9084">
        <ele>278</ele>
        <time>2021-09-12T11:10:46.002Z</time>
      </trkpt>
      <trkpt lat="45.65171" lon="5.90841">
        <ele>278</ele>
        <time>2021-09-12T11:10:47.002Z</time>
      </trkpt>
      <trkpt lat="45.65166" lon="5.90842">
        <ele>278</ele>
        <time>2021-09-12T11:10:48.001Z</time>
      </trkpt>
      <trkpt lat="45.65162" lon="5.90843">
        <ele>277</ele>
        <time>2021-09-12T11:10:49.002Z</time>
      </trkpt>
      <trkpt lat="45.65157" lon="5.90844">
        <ele>277</ele>
        <time>2021-09-12T11:10:50.002Z</time>
      </trkpt>
      <trkpt lat="45.65152" lon="5.90846">
        <ele>277</ele>
        <time>2021-09-12T11:10:51.002Z</time>
      </trkpt>
      <trkpt lat="45.65147" lon="5.90847">
        <ele>277</ele>
        <time>2021-09-12T11:10:52.002Z</time>
      </trkpt>
      <trkpt lat="45.65142" lon="5.90849">
        <ele>277</ele>
        <time>2021-09-12T11:10:53.002Z</time>
      </trkpt>
      <trkpt lat="45.65138" lon="5.90851">
        <ele>277</ele>
        <time>2021-09-12T11:10:54.002Z</time>
      </trkpt>
      <trkpt lat="45.65133" lon="5.90852">
        <ele>277</ele>
        <time>2021-09-12T11:10:55.001Z</time>
      </trkpt>
      <trkpt lat="45.65129" lon="5.90854">
        <ele>277</ele>
        <time>2021-09-12T11:10:56.002Z</time>
      </trkpt>
      <trkpt lat="45.65124" lon="5.90855">
        <ele>277</ele>
        <time>2021-09-12T11:10:57.002Z</time>
      </trkpt>
      <trkpt lat="45.65119" lon="5.90856">
        <ele>277</ele>
        <time>2021-09-12T11:10:58.001Z</time>
      </trkpt>
      <trkpt lat="45.65115" lon="5.90857">
        <ele>277</ele>
        <time>2021-09-12T11:10:59.001Z</time>
      </trkpt>
      <trkpt lat="45.6511" lon="5.90858">
        <ele>277</ele>
        <time>2021-09-12T11:11:00.001Z</time>
      </trkpt>
      <trkpt lat="45.65105" lon="5.90859">
        <ele>277</ele>
        <time>2021-09-12T11:11:01.002Z</time>
      </trkpt>
      <trkpt lat="45.65101" lon="5.90861">
        <ele>278</ele>
        <time>2021-09-12T11:11:02.002Z</time>
      </trkpt>
      <trkpt lat="45.65096" lon="5.90862">
        <ele>278</ele>
        <time>2021-09-12T11:11:03.001Z</time>
      </trkpt>
      <trkpt lat="45.65091" lon="5.90864">
        <ele>278</ele>
        <time>2021-09-12T11:11:04.002Z</time>
      </trkpt>
      <trkpt lat="45.65086" lon="5.90865">
        <ele>279</ele>
        <time>2021-09-12T11:11:05.001Z</time>
      </trkpt>
      <trkpt lat="45.65081" lon="5.90867">
        <ele>279</ele>
        <time>2021-09-12T11:11:06.002Z</time>
      </trkpt>
      <trkpt lat="45.65076" lon="5.90868">
        <ele>279</ele>
        <time>2021-09-12T11:11:07.002Z</time>
      </trkpt>
      <trkpt lat="45.65071" lon="5.90869">
        <ele>279</ele>
        <time>2021-09-12T11:11:08.002Z</time>
      </trkpt>
      <trkpt lat="45.65067" lon="5.9087">
        <ele>279</ele>
        <time>2021-09-12T11:11:09.002Z</time>
      </trkpt>
      <trkpt lat="45.65063" lon="5.90872">
        <ele>279</ele>
        <time>2021-09-12T11:11:10.002Z</time>
      </trkpt>
      <trkpt lat="45.65058" lon="5.90873">
        <ele>279</ele>
        <time>2021-09-12T11:11:11.001Z</time>
      </trkpt>
      <trkpt lat="45.65054" lon="5.90874">
        <ele>279</ele>
        <time>2021-09-12T11:11:12.001Z</time>
      </trkpt>
      <trkpt lat="45.6505" lon="5.90875">
        <ele>279</ele>
        <time>2021-09-12T11:11:13.002Z</time>
      </trkpt>
      <trkpt lat="45.65045" lon="5.90876">
        <ele>279</ele>
        <time>2021-09-12T11:11:14.001Z</time>
      </trkpt>
      <trkpt lat="45.65041" lon="5.90877">
        <ele>279</ele>
        <time>2021-09-12T11:11:15.001Z</time>
      </trkpt>
      <trkpt lat="45.65037" lon="5.90879">
        <ele>279</ele>
        <time>2021-09-12T11:11:16.002Z</time>
      </trkpt>
      <trkpt lat="45.65032" lon="5.9088">
        <ele>278</ele>
        <time>2021-09-12T11:11:17.002Z</time>
      </trkpt>
      <trkpt lat="45.65028" lon="5.90881">
        <ele>278</ele>
        <time>2021-09-12T11:11:18.002Z</time>
      </trkpt>
      <trkpt lat="45.65024" lon="5.90881">
        <ele>278</ele>
        <time>2021-09-12T11:11:19.002Z</time>
      </trkpt>
      <trkpt lat="45.6502" lon="5.90882">
        <ele>278</ele>
        <time>2021-09-12T11:11:20.002Z</time>
      </trkpt>
      <trkpt lat="45.65016" lon="5.90882">
        <ele>278</ele>
        <time>2021-09-12T11:11:21.001Z</time>
      </trkpt>
      <trkpt lat="45.65012" lon="5.90883">
        <ele>278</ele>
        <time>2021-09-12T11:11:22.002Z</time>
      </trkpt>
      <trkpt lat="45.65008" lon="5.90883">
        <ele>278</ele>
        <time>2021-09-12T11:11:23.002Z</time>
      </trkpt>
      <trkpt lat="45.65004" lon="5.90884">
        <ele>278</ele>
        <time>2021-09-12T11:11:24.001Z</time>
      </trkpt>
      <trkpt lat="45.65" lon="5.90886">
        <ele>279</ele>
        <time>2021-09-12T11:11:25.002Z</time>
      </trkpt>
      <trkpt lat="45.64997" lon="5.90887">
        <ele>279</ele>
        <time>2021-09-12T11:11:26.002Z</time>
      </trkpt>
      <trkpt lat="45.64994" lon="5.90889">
        <ele>280</ele>
        <time>2021-09-12T11:11:27.001Z</time>
      </trkpt>
      <trkpt lat="45.64991" lon="5.90891">
        <ele>281</ele>
        <time>2021-09-12T11:11:28.001Z</time>
      </trkpt>
      <trkpt lat="45.64988" lon="5.90891">
        <ele>282</ele>
        <time>2021-09-12T11:11:29.002Z</time>
      </trkpt>
      <trkpt lat="45.64984" lon="5.90892">
        <ele>283</ele>
        <time>2021-09-12T11:11:30.002Z</time>
      </trkpt>
      <trkpt lat="45.64982" lon="5.90892">
        <ele>284</ele>
        <time>2021-09-12T11:11:31.002Z</time>
      </trkpt>
      <trkpt lat="45.64981" lon="5.9089">
        <ele>285</ele>
        <time>2021-09-12T11:11:32.002Z</time>
      </trkpt>
      <trkpt lat="45.6498" lon="5.90886">
        <ele>285</ele>
        <time>2021-09-12T11:11:33.002Z</time>
      </trkpt>
      <trkpt lat="45.6498" lon="5.90882">
        <ele>285</ele>
        <time>2021-09-12T11:11:34.002Z</time>
      </trkpt>
      <trkpt lat="45.64979" lon="5.90877">
        <ele>284</ele>
        <time>2021-09-12T11:11:35.002Z</time>
      </trkpt>
      <trkpt lat="45.64979" lon="5.90873">
        <ele>284</ele>
        <time>2021-09-12T11:11:36.002Z</time>
      </trkpt>
      <trkpt lat="45.64978" lon="5.90869">
        <ele>284</ele>
        <time>2021-09-12T11:11:37.001Z</time>
      </trkpt>
      <trkpt lat="45.64978" lon="5.90864">
        <ele>284</ele>
        <time>2021-09-12T11:11:38.001Z</time>
      </trkpt>
      <trkpt lat="45.64977" lon="5.9086">
        <ele>283</ele>
        <time>2021-09-12T11:11:39.002Z</time>
      </trkpt>
      <trkpt lat="45.64976" lon="5.90856">
        <ele>283</ele>
        <time>2021-09-12T11:11:40.002Z</time>
      </trkpt>
      <trkpt lat="45.64975" lon="5.90851">
        <ele>283</ele>
        <time>2021-09-12T11:11:41.002Z</time>
      </trkpt>
      <trkpt lat="45.64975" lon="5.90846">
        <ele>282</ele>
        <time>2021-09-12T11:11:42.002Z</time>
      </trkpt>
      <trkpt lat="45.64974" lon="5.9084">
        <ele>282</ele>
        <time>2021-09-12T11:11:43.002Z</time>
      </trkpt>
      <trkpt lat="45.64973" lon="5.90834">
        <ele>282</ele>
        <time>2021-09-12T11:11:44.002Z</time>
      </trkpt>
      <trkpt lat="45.64973" lon="5.90828">
        <ele>281</ele>
        <time>2021-09-12T11:11:45.001Z</time>
      </trkpt>
      <trkpt lat="45.64972" lon="5.90822">
        <ele>281</ele>
        <time>2021-09-12T11:11:46.002Z</time>
      </trkpt>
      <trkpt lat="45.64972" lon="5.90816">
        <ele>281</ele>
        <time>2021-09-12T11:11:47.002Z</time>
      </trkpt>
      <trkpt lat="45.64973" lon="5.90811">
        <ele>280</ele>
        <time>2021-09-12T11:11:48.002Z</time>
      </trkpt>
      <trkpt lat="45.64972" lon="5.90805">
        <ele>280</ele>
        <time>2021-09-12T11:11:49.002Z</time>
      </trkpt>
      <trkpt lat="45.64972" lon="5.90799">
        <ele>279</ele>
        <time>2021-09-12T11:11:50.002Z</time>
      </trkpt>
      <trkpt lat="45.64972" lon="5.90793">
        <ele>279</ele>
        <time>2021-09-12T11:11:51.002Z</time>
      </trkpt>
      <trkpt lat="45.64972" lon="5.90787">
        <ele>279</ele>
        <time>2021-09-12T11:11:52.002Z</time>
      </trkpt>
      <trkpt lat="45.64972" lon="5.90781">
        <ele>279</ele>
        <time>2021-09-12T11:11:53.001Z</time>
      </trkpt>
      <trkpt lat="45.64972" lon="5.90775">
        <ele>279</ele>
        <time>2021-09-12T11:11:54.001Z</time>
      </trkpt>
      <trkpt lat="45.64971" lon="5.9077">
        <ele>279</ele>
        <time>2021-09-12T11:12:02.030Z</time>
      </trkpt>
      <trkpt lat="45.64971" lon="5.90765">
        <ele>279</ele>
        <time>2021-09-12T11:12:03.030Z</time>
      </trkpt>
      <trkpt lat="45.64971" lon="5.9076">
        <ele>279</ele>
        <time>2021-09-12T11:12:04.029Z</time>
      </trkpt>
      <trkpt lat="45.6497" lon="5.90755">
        <ele>278</ele>
        <time>2021-09-12T11:12:05.030Z</time>
      </trkpt>
      <trkpt lat="45.6497" lon="5.9075">
        <ele>278</ele>
        <time>2021-09-12T11:12:06.030Z</time>
      </trkpt>
      <trkpt lat="45.64969" lon="5.90746">
        <ele>278</ele>
        <time>2021-09-12T11:12:07.030Z</time>
      </trkpt>
      <trkpt lat="45.64969" lon="5.90741">
        <ele>278</ele>
        <time>2021-09-12T11:12:08.029Z</time>
      </trkpt>
      <trkpt lat="45.64968" lon="5.90736">
        <ele>278</ele>
        <time>2021-09-12T11:12:09.029Z</time>
      </trkpt>
      <trkpt lat="45.64967" lon="5.90731">
        <ele>278</ele>
        <time>2021-09-12T11:12:10.030Z</time>
      </trkpt>
      <trkpt lat="45.64967" lon="5.90726">
        <ele>278</ele>
        <time>2021-09-12T11:12:11.029Z</time>
      </trkpt>
      <trkpt lat="45.64967" lon="5.90721">
        <ele>278</ele>
        <time>2021-09-12T11:12:12.029Z</time>
      </trkpt>
      <trkpt lat="45.64967" lon="5.90716">
        <ele>278</ele>
        <time>2021-09-12T11:12:13.030Z</time>
      </trkpt>
      <trkpt lat="45.64967" lon="5.90709">
        <ele>279</ele>
        <time>2021-09-12T11:12:14.030Z</time>
      </trkpt>
      <trkpt lat="45.64968" lon="5.90704">
        <ele>279</ele>
        <time>2021-09-12T11:12:15.029Z</time>
      </trkpt>
      <trkpt lat="45.64968" lon="5.90699">
        <ele>279</ele>
        <time>2021-09-12T11:12:16.030Z</time>
      </trkpt>
      <trkpt lat="45.64968" lon="5.90693">
        <ele>280</ele>
        <time>2021-09-12T11:12:17.030Z</time>
      </trkpt>
      <trkpt lat="45.64968" lon="5.90687">
        <ele>280</ele>
        <time>2021-09-12T11:12:18.029Z</time>
      </trkpt>
      <trkpt lat="45.64968" lon="5.90681">
        <ele>280</ele>
        <time>2021-09-12T11:12:19.029Z</time>
      </trkpt>
      <trkpt lat="45.64968" lon="5.90676">
        <ele>280</ele>
        <time>2021-09-12T11:12:20.029Z</time>
      </trkpt>
      <trkpt lat="45.64968" lon="5.9067">
        <ele>280</ele>
        <time>2021-09-12T11:12:21.030Z</time>
      </trkpt>
      <trkpt lat="45.64968" lon="5.90664">
        <ele>280</ele>
        <time>2021-09-12T11:12:22.029Z</time>
      </trkpt>
      <trkpt lat="45.64968" lon="5.90659">
        <ele>280</ele>
        <time>2021-09-12T11:12:23.029Z</time>
      </trkpt>
      <trkpt lat="45.64969" lon="5.90654">
        <ele>280</ele>
        <time>2021-09-12T11:12:24.030Z</time>
      </trkpt>
      <trkpt lat="45.64969" lon="5.90649">
        <ele>280</ele>
        <time>2021-09-12T11:12:25.030Z</time>
      </trkpt>
      <trkpt lat="45.64969" lon="5.90644">
        <ele>280</ele>
        <time>2021-09-12T11:12:26.030Z</time>
      </trkpt>
      <trkpt lat="45.64969" lon="5.9064">
        <ele>279</ele>
        <time>2021-09-12T11:12:27.030Z</time>
      </trkpt>
      <trkpt lat="45.64969" lon="5.90634">
        <ele>279</ele>
        <time>2021-09-12T11:12:28.029Z</time>
      </trkpt>
      <trkpt lat="45.64969" lon="5.9063">
        <ele>278</ele>
        <time>2021-09-12T11:12:29.029Z</time>
      </trkpt>
      <trkpt lat="45.6497" lon="5.90625">
        <ele>278</ele>
        <time>2021-09-12T11:12:30.030Z</time>
      </trkpt>
      <trkpt lat="45.64969" lon="5.90619">
        <ele>278</ele>
        <time>2021-09-12T11:12:31.030Z</time>
      </trkpt>
      <trkpt lat="45.64969" lon="5.90614">
        <ele>278</ele>
        <time>2021-09-12T11:12:32.029Z</time>
      </trkpt>
      <trkpt lat="45.64969" lon="5.90608">
        <ele>278</ele>
        <time>2021-09-12T11:12:33.029Z</time>
      </trkpt>
      <trkpt lat="45.64968" lon="5.90603">
        <ele>278</ele>
        <time>2021-09-12T11:12:34.029Z</time>
      </trkpt>
      <trkpt lat="45.64967" lon="5.90597">
        <ele>279</ele>
        <time>2021-09-12T11:12:35.030Z</time>
      </trkpt>
      <trkpt lat="45.64966" lon="5.90591">
        <ele>279</ele>
        <time>2021-09-12T11:12:36.030Z</time>
      </trkpt>
      <trkpt lat="45.64965" lon="5.90584">
        <ele>279</ele>
        <time>2021-09-12T11:12:37.029Z</time>
      </trkpt>
      <trkpt lat="45.64965" lon="5.90577">
        <ele>280</ele>
        <time>2021-09-12T11:12:38.030Z</time>
      </trkpt>
      <trkpt lat="45.64965" lon="5.90569">
        <ele>280</ele>
        <time>2021-09-12T11:12:39.030Z</time>
      </trkpt>
      <trkpt lat="45.64964" lon="5.90563">
        <ele>280</ele>
        <time>2021-09-12T11:12:40.030Z</time>
      </trkpt>
      <trkpt lat="45.64963" lon="5.90556">
        <ele>280</ele>
        <time>2021-09-12T11:12:41.029Z</time>
      </trkpt>
      <trkpt lat="45.64963" lon="5.90548">
        <ele>280</ele>
        <time>2021-09-12T11:12:42.030Z</time>
      </trkpt>
      <trkpt lat="45.64963" lon="5.90541">
        <ele>279</ele>
        <time>2021-09-12T11:12:43.030Z</time>
      </trkpt>
      <trkpt lat="45.64963" lon="5.90533">
        <ele>279</ele>
        <time>2021-09-12T11:12:44.030Z</time>
      </trkpt>
      <trkpt lat="45.64963" lon="5.90528">
        <ele>279</ele>
        <time>2021-09-12T11:12:45.029Z</time>
      </trkpt>
      <trkpt lat="45.64963" lon="5.90524">
        <ele>278</ele>
        <time>2021-09-12T11:12:46.030Z</time>
      </trkpt>
      <trkpt lat="45.64962" lon="5.90521">
        <ele>278</ele>
        <time>2021-09-12T11:12:47.029Z</time>
      </trkpt>
      <trkpt lat="45.64962" lon="5.90519">
        <ele>278</ele>
        <time>2021-09-12T11:12:48.030Z</time>
      </trkpt>
      <trkpt lat="45.6496" lon="5.90516">
        <ele>278</ele>
        <time>2021-09-12T11:12:49.029Z</time>
      </trkpt>
      <trkpt lat="45.64958" lon="5.90514">
        <ele>277</ele>
        <time>2021-09-12T11:12:50.029Z</time>
      </trkpt>
      <trkpt lat="45.64955" lon="5.90513">
        <ele>277</ele>
        <time>2021-09-12T11:12:51.029Z</time>
      </trkpt>
      <trkpt lat="45.64952" lon="5.90512">
        <ele>277</ele>
        <time>2021-09-12T11:12:52.029Z</time>
      </trkpt>
      <trkpt lat="45.64947" lon="5.90513">
        <ele>277</ele>
        <time>2021-09-12T11:12:53.029Z</time>
      </trkpt>
      <trkpt lat="45.64943" lon="5.90513">
        <ele>277</ele>
        <time>2021-09-12T11:12:54.029Z</time>
      </trkpt>
      <trkpt lat="45.64939" lon="5.90514">
        <ele>276</ele>
        <time>2021-09-12T11:12:55.030Z</time>
      </trkpt>
      <trkpt lat="45.64934" lon="5.90514">
        <ele>276</ele>
        <time>2021-09-12T11:12:56.030Z</time>
      </trkpt>
      <trkpt lat="45.6493" lon="5.90515">
        <ele>276</ele>
        <time>2021-09-12T11:12:57.030Z</time>
      </trkpt>
      <trkpt lat="45.64926" lon="5.90515">
        <ele>276</ele>
        <time>2021-09-12T11:12:58.029Z</time>
      </trkpt>
      <trkpt lat="45.64923" lon="5.90515">
        <ele>276</ele>
        <time>2021-09-12T11:12:59.030Z</time>
      </trkpt>
      <trkpt lat="45.6492" lon="5.90515">
        <ele>276</ele>
        <time>2021-09-12T11:13:00.030Z</time>
      </trkpt>
      <trkpt lat="45.64916" lon="5.90515">
        <ele>277</ele>
        <time>2021-09-12T11:13:01.029Z</time>
      </trkpt>
      <trkpt lat="45.64913" lon="5.90516">
        <ele>277</ele>
        <time>2021-09-12T11:13:02.029Z</time>
      </trkpt>
      <trkpt lat="45.6491" lon="5.90517">
        <ele>278</ele>
        <time>2021-09-12T11:13:03.030Z</time>
      </trkpt>
      <trkpt lat="45.64907" lon="5.90517">
        <ele>278</ele>
        <time>2021-09-12T11:13:04.030Z</time>
      </trkpt>
      <trkpt lat="45.64903" lon="5.90518">
        <ele>278</ele>
        <time>2021-09-12T11:13:05.029Z</time>
      </trkpt>
      <trkpt lat="45.64899" lon="5.90519">
        <ele>279</ele>
        <time>2021-09-12T11:13:06.029Z</time>
      </trkpt>
      <trkpt lat="45.64896" lon="5.90519">
        <ele>279</ele>
        <time>2021-09-12T11:13:07.030Z</time>
      </trkpt>
      <trkpt lat="45.64893" lon="5.90519">
        <ele>279</ele>
        <time>2021-09-12T11:13:08.030Z</time>
      </trkpt>
      <trkpt lat="45.6489" lon="5.90518">
        <ele>280</ele>
        <time>2021-09-12T11:13:09.030Z</time>
      </trkpt>
      <trkpt lat="45.64889" lon="5.90516">
        <ele>280</ele>
        <time>2021-09-12T11:13:10.029Z</time>
      </trkpt>
      <trkpt lat="45.64887" lon="5.90514">
        <ele>280</ele>
        <time>2021-09-12T11:13:11.029Z</time>
      </trkpt>
      <trkpt lat="45.64887" lon="5.90513">
        <ele>279</ele>
        <time>2021-09-12T11:13:12.030Z</time>
      </trkpt>
      <trkpt lat="45.64887" lon="5.90511">
        <ele>279</ele>
        <time>2021-09-12T11:13:13.030Z</time>
      </trkpt>
      <trkpt lat="45.64887" lon="5.90511">
        <ele>279</ele>
        <time>2021-09-12T11:13:14.029Z</time>
      </trkpt>
      <trkpt lat="45.64887" lon="5.9051">
        <ele>279</ele>
        <time>2021-09-12T11:13:15.030Z</time>
      </trkpt>
      <trkpt lat="45.64886" lon="5.90507">
        <ele>278</ele>
        <time>2021-09-12T11:13:16.030Z</time>
      </trkpt>
      <trkpt lat="45.64886" lon="5.90504">
        <ele>278</ele>
        <time>2021-09-12T11:13:17.030Z</time>
      </trkpt>
      <trkpt lat="45.64885" lon="5.905">
        <ele>278</ele>
        <time>2021-09-12T11:13:18.030Z</time>
      </trkpt>
      <trkpt lat="45.64885" lon="5.90496">
        <ele>278</ele>
        <time>2021-09-12T11:13:19.030Z</time>
      </trkpt>
      <trkpt lat="45.64885" lon="5.9049">
        <ele>277</ele>
        <time>2021-09-12T11:13:20.030Z</time>
      </trkpt>
      <trkpt lat="45.64886" lon="5.90485">
        <ele>277</ele>
        <time>2021-09-12T11:13:21.029Z</time>
      </trkpt>
      <trkpt lat="45.64886" lon="5.90478">
        <ele>276</ele>
        <time>2021-09-12T11:13:22.029Z</time>
      </trkpt>
      <trkpt lat="45.64887" lon="5.90471">
        <ele>276</ele>
        <time>2021-09-12T11:13:23.029Z</time>
      </trkpt>
      <trkpt lat="45.64888" lon="5.90462">
        <ele>276</ele>
        <time>2021-09-12T11:13:24.029Z</time>
      </trkpt>
      <trkpt lat="45.64888" lon="5.90452">
        <ele>276</ele>
        <time>2021-09-12T11:13:25.030Z</time>
      </trkpt>
      <trkpt lat="45.64888" lon="5.90443">
        <ele>276</ele>
        <time>2021-09-12T11:13:26.029Z</time>
      </trkpt>
      <trkpt lat="45.64886" lon="5.90436">
        <ele>275</ele>
        <time>2021-09-12T11:13:27.029Z</time>
      </trkpt>
      <trkpt lat="45.64883" lon="5.90427">
        <ele>275</ele>
        <time>2021-09-12T11:13:28.030Z</time>
      </trkpt>
      <trkpt lat="45.64879" lon="5.9042">
        <ele>274</ele>
        <time>2021-09-12T11:13:29.030Z</time>
      </trkpt>
      <trkpt lat="45.64875" lon="5.90413">
        <ele>274</ele>
        <time>2021-09-12T11:13:30.030Z</time>
      </trkpt>
      <trkpt lat="45.64873" lon="5.90403">
        <ele>273</ele>
        <time>2021-09-12T11:13:31.029Z</time>
      </trkpt>
      <trkpt lat="45.64873" lon="5.90396">
        <ele>273</ele>
        <time>2021-09-12T11:13:32.029Z</time>
      </trkpt>
      <trkpt lat="45.64875" lon="5.90387">
        <ele>272</ele>
        <time>2021-09-12T11:13:33.030Z</time>
      </trkpt>
      <trkpt lat="45.64878" lon="5.90378">
        <ele>271</ele>
        <time>2021-09-12T11:13:34.030Z</time>
      </trkpt>
      <trkpt lat="45.64881" lon="5.90372">
        <ele>271</ele>
        <time>2021-09-12T11:13:35.030Z</time>
      </trkpt>
      <trkpt lat="45.64885" lon="5.90364">
        <ele>270</ele>
        <time>2021-09-12T11:13:36.030Z</time>
      </trkpt>
      <trkpt lat="45.64888" lon="5.90355">
        <ele>269</ele>
        <time>2021-09-12T11:13:37.030Z</time>
      </trkpt>
      <trkpt lat="45.6489" lon="5.90347">
        <ele>269</ele>
        <time>2021-09-12T11:13:38.030Z</time>
      </trkpt>
      <trkpt lat="45.64892" lon="5.9034">
        <ele>268</ele>
        <time>2021-09-12T11:13:39.029Z</time>
      </trkpt>
      <trkpt lat="45.64892" lon="5.90334">
        <ele>268</ele>
        <time>2021-09-12T11:13:40.030Z</time>
      </trkpt>
      <trkpt lat="45.64893" lon="5.90328">
        <ele>268</ele>
        <time>2021-09-12T11:13:41.030Z</time>
      </trkpt>
      <trkpt lat="45.64894" lon="5.90322">
        <ele>267</ele>
        <time>2021-09-12T11:13:42.029Z</time>
      </trkpt>
      <trkpt lat="45.64894" lon="5.90317">
        <ele>267</ele>
        <time>2021-09-12T11:13:43.029Z</time>
      </trkpt>
      <trkpt lat="45.64893" lon="5.90312">
        <ele>267</ele>
        <time>2021-09-12T11:13:44.030Z</time>
      </trkpt>
      <trkpt lat="45.64891" lon="5.90307">
        <ele>266</ele>
        <time>2021-09-12T11:13:45.029Z</time>
      </trkpt>
      <trkpt lat="45.64888" lon="5.90304">
        <ele>266</ele>
        <time>2021-09-12T11:13:46.029Z</time>
      </trkpt>
      <trkpt lat="45.64884" lon="5.90301">
        <ele>266</ele>
        <time>2021-09-12T11:13:47.030Z</time>
      </trkpt>
      <trkpt lat="45.64881" lon="5.90298">
        <ele>266</ele>
        <time>2021-09-12T11:13:48.029Z</time>
      </trkpt>
      <trkpt lat="45.64876" lon="5.90296">
        <ele>266</ele>
        <time>2021-09-12T11:13:49.029Z</time>
      </trkpt>
      <trkpt lat="45.64871" lon="5.90293">
        <ele>266</ele>
        <time>2021-09-12T11:13:50.030Z</time>
      </trkpt>
      <trkpt lat="45.64865" lon="5.90292">
        <ele>266</ele>
        <time>2021-09-12T11:13:51.029Z</time>
      </trkpt>
      <trkpt lat="45.6486" lon="5.9029">
        <ele>266</ele>
        <time>2021-09-12T11:13:52.029Z</time>
      </trkpt>
      <trkpt lat="45.64853" lon="5.90287">
        <ele>266</ele>
        <time>2021-09-12T11:13:53.029Z</time>
      </trkpt>
      <trkpt lat="45.64847" lon="5.90285">
        <ele>266</ele>
        <time>2021-09-12T11:13:54.029Z</time>
      </trkpt>
      <trkpt lat="45.64842" lon="5.90282">
        <ele>267</ele>
        <time>2021-09-12T11:13:55.029Z</time>
      </trkpt>
      <trkpt lat="45.64836" lon="5.90277">
        <ele>266</ele>
        <time>2021-09-12T11:13:56.030Z</time>
      </trkpt>
      <trkpt lat="45.6483" lon="5.90273">
        <ele>266</ele>
        <time>2021-09-12T11:13:57.030Z</time>
      </trkpt>
      <trkpt lat="45.64824" lon="5.90267">
        <ele>266</ele>
        <time>2021-09-12T11:13:58.030Z</time>
      </trkpt>
      <trkpt lat="45.64818" lon="5.9026">
        <ele>265</ele>
        <time>2021-09-12T11:13:59.030Z</time>
      </trkpt>
      <trkpt lat="45.64812" lon="5.90253">
        <ele>264</ele>
        <time>2021-09-12T11:14:00.030Z</time>
      </trkpt>
      <trkpt lat="45.64807" lon="5.90244">
        <ele>263</ele>
        <time>2021-09-12T11:17:11.148Z</time>
      </trkpt>
      <trkpt lat="45.648" lon="5.90233">
        <ele>263</ele>
        <time>2021-09-12T11:17:12.148Z</time>
      </trkpt>
      <trkpt lat="45.64796" lon="5.90224">
        <ele>262</ele>
        <time>2021-09-12T11:17:13.147Z</time>
      </trkpt>
      <trkpt lat="45.64791" lon="5.90213">
        <ele>261</ele>
        <time>2021-09-12T11:17:17.152Z</time>
      </trkpt>
      <trkpt lat="45.64787" lon="5.90201">
        <ele>261</ele>
        <time>2021-09-12T11:17:18.153Z</time>
      </trkpt>
      <trkpt lat="45.64783" lon="5.90189">
        <ele>260</ele>
        <time>2021-09-12T11:17:33.016Z</time>
      </trkpt>
      <trkpt lat="45.64779" lon="5.90176">
        <ele>260</ele>
        <time>2021-09-12T11:17:34.016Z</time>
      </trkpt>
      <trkpt lat="45.64775" lon="5.90164">
        <ele>260</ele>
        <time>2021-09-12T11:17:35.015Z</time>
      </trkpt>
      <trkpt lat="45.6477" lon="5.9015">
        <ele>260</ele>
        <time>2021-09-12T11:17:36.016Z</time>
      </trkpt>
      <trkpt lat="45.64766" lon="5.90137">
        <ele>259</ele>
        <time>2021-09-12T11:17:37.016Z</time>
      </trkpt>
      <trkpt lat="45.64762" lon="5.90123">
        <ele>259</ele>
        <time>2021-09-12T11:17:38.015Z</time>
      </trkpt>
      <trkpt lat="45.64756" lon="5.90109">
        <ele>259</ele>
        <time>2021-09-12T11:17:39.016Z</time>
      </trkpt>
      <trkpt lat="45.6475" lon="5.90095">
        <ele>258</ele>
        <time>2021-09-12T11:17:40.016Z</time>
      </trkpt>
      <trkpt lat="45.64744" lon="5.90081">
        <ele>258</ele>
        <time>2021-09-12T11:17:41.016Z</time>
      </trkpt>
      <trkpt lat="45.64736" lon="5.90069">
        <ele>257</ele>
        <time>2021-09-12T11:17:42.015Z</time>
      </trkpt>
      <trkpt lat="45.64728" lon="5.90058">
        <ele>256</ele>
        <time>2021-09-12T11:17:43.016Z</time>
      </trkpt>
      <trkpt lat="45.6472" lon="5.90047">
        <ele>255</ele>
        <time>2021-09-12T11:17:44.016Z</time>
      </trkpt>
      <trkpt lat="45.6471" lon="5.90033">
        <ele>255</ele>
        <time>2021-09-12T11:17:45.015Z</time>
      </trkpt>
      <trkpt lat="45.64703" lon="5.90023">
        <ele>254</ele>
        <time>2021-09-12T11:17:46.015Z</time>
      </trkpt>
      <trkpt lat="45.64695" lon="5.90011">
        <ele>254</ele>
        <time>2021-09-12T11:17:47.016Z</time>
      </trkpt>
      <trkpt lat="45.64687" lon="5.89999">
        <ele>253</ele>
        <time>2021-09-12T11:17:48.016Z</time>
      </trkpt>
      <trkpt lat="45.64678" lon="5.89987">
        <ele>253</ele>
        <time>2021-09-12T11:17:49.015Z</time>
      </trkpt>
      <trkpt lat="45.6467" lon="5.89977">
        <ele>252</ele>
        <time>2021-09-12T11:17:50.015Z</time>
      </trkpt>
      <trkpt lat="45.64661" lon="5.89966">
        <ele>251</ele>
        <time>2021-09-12T11:17:51.015Z</time>
      </trkpt>
      <trkpt lat="45.64652" lon="5.89955">
        <ele>250</ele>
        <time>2021-09-12T11:17:52.016Z</time>
      </trkpt>
      <trkpt lat="45.64645" lon="5.89943">
        <ele>249</ele>
        <time>2021-09-12T11:17:53.016Z</time>
      </trkpt>
      <trkpt lat="45.64641" lon="5.89929">
        <ele>249</ele>
        <time>2021-09-12T11:17:54.015Z</time>
      </trkpt>
      <trkpt lat="45.64638" lon="5.89914">
        <ele>248</ele>
        <time>2021-09-12T11:17:55.015Z</time>
      </trkpt>
      <trkpt lat="45.64637" lon="5.899">
        <ele>247</ele>
        <time>2021-09-12T11:17:56.016Z</time>
      </trkpt>
      <trkpt lat="45.64637" lon="5.89885">
        <ele>246</ele>
        <time>2021-09-12T11:17:57.016Z</time>
      </trkpt>
      <trkpt lat="45.64637" lon="5.89871">
        <ele>245</ele>
        <time>2021-09-12T11:17:58.016Z</time>
      </trkpt>
      <trkpt lat="45.64638" lon="5.89854">
        <ele>244</ele>
        <time>2021-09-12T11:17:59.015Z</time>
      </trkpt>
      <trkpt lat="45.64639" lon="5.89841">
        <ele>244</ele>
        <time>2021-09-12T11:18:00.015Z</time>
      </trkpt>
      <trkpt lat="45.64639" lon="5.89831">
        <ele>243</ele>
        <time>2021-09-12T11:18:01.016Z</time>
      </trkpt>
      <trkpt lat="45.64639" lon="5.89819">
        <ele>243</ele>
        <time>2021-09-12T11:18:02.015Z</time>
      </trkpt>
      <trkpt lat="45.6464" lon="5.89807">
        <ele>243</ele>
        <time>2021-09-12T11:18:03.015Z</time>
      </trkpt>
      <trkpt lat="45.64641" lon="5.89794">
        <ele>243</ele>
        <time>2021-09-12T11:18:04.015Z</time>
      </trkpt>
      <trkpt lat="45.64642" lon="5.89783">
        <ele>243</ele>
        <time>2021-09-12T11:18:05.015Z</time>
      </trkpt>
      <trkpt lat="45.64643" lon="5.89772">
        <ele>242</ele>
        <time>2021-09-12T11:18:06.015Z</time>
      </trkpt>
      <trkpt lat="45.64644" lon="5.89761">
        <ele>242</ele>
        <time>2021-09-12T11:18:07.016Z</time>
      </trkpt>
      <trkpt lat="45.64645" lon="5.89751">
        <ele>242</ele>
        <time>2021-09-12T11:18:08.016Z</time>
      </trkpt>
      <trkpt lat="45.64646" lon="5.89741">
        <ele>241</ele>
        <time>2021-09-12T11:18:09.015Z</time>
      </trkpt>
      <trkpt lat="45.64647" lon="5.89731">
        <ele>241</ele>
        <time>2021-09-12T11:18:10.016Z</time>
      </trkpt>
      <trkpt lat="45.64649" lon="5.89722">
        <ele>240</ele>
        <time>2021-09-12T11:18:11.016Z</time>
      </trkpt>
      <trkpt lat="45.64651" lon="5.89713">
        <ele>240</ele>
        <time>2021-09-12T11:18:12.016Z</time>
      </trkpt>
      <trkpt lat="45.64654" lon="5.89704">
        <ele>240</ele>
        <time>2021-09-12T11:18:13.016Z</time>
      </trkpt>
      <trkpt lat="45.64657" lon="5.89695">
        <ele>239</ele>
        <time>2021-09-12T11:18:14.015Z</time>
      </trkpt>
      <trkpt lat="45.6466" lon="5.89686">
        <ele>239</ele>
        <time>2021-09-12T11:18:15.015Z</time>
      </trkpt>
      <trkpt lat="45.64664" lon="5.89679">
        <ele>239</ele>
        <time>2021-09-12T11:18:16.015Z</time>
      </trkpt>
      <trkpt lat="45.64668" lon="5.89671">
        <ele>239</ele>
        <time>2021-09-12T11:18:17.016Z</time>
      </trkpt>
      <trkpt lat="45.64672" lon="5.89664">
        <ele>239</ele>
        <time>2021-09-12T11:18:18.015Z</time>
      </trkpt>
      <trkpt lat="45.64677" lon="5.89657">
        <ele>239</ele>
        <time>2021-09-12T11:18:19.015Z</time>
      </trkpt>
      <trkpt lat="45.64682" lon="5.89651">
        <ele>238</ele>
        <time>2021-09-12T11:18:20.015Z</time>
      </trkpt>
      <trkpt lat="45.64686" lon="5.89644">
        <ele>238</ele>
        <time>2021-09-12T11:18:21.016Z</time>
      </trkpt>
      <trkpt lat="45.64691" lon="5.89637">
        <ele>238</ele>
        <time>2021-09-12T11:18:22.015Z</time>
      </trkpt>
      <trkpt lat="45.64696" lon="5.89631">
        <ele>238</ele>
        <time>2021-09-12T11:18:23.016Z</time>
      </trkpt>
      <trkpt lat="45.64701" lon="5.89623">
        <ele>238</ele>
        <time>2021-09-12T11:18:24.015Z</time>
      </trkpt>
      <trkpt lat="45.64705" lon="5.89618">
        <ele>238</ele>
        <time>2021-09-12T11:18:25.015Z</time>
      </trkpt>
      <trkpt lat="45.6471" lon="5.89611">
        <ele>238</ele>
        <time>2021-09-12T11:18:26.015Z</time>
      </trkpt>
      <trkpt lat="45.64714" lon="5.89605">
        <ele>238</ele>
        <time>2021-09-12T11:18:27.015Z</time>
      </trkpt>
      <trkpt lat="45.64719" lon="5.89598">
        <ele>238</ele>
        <time>2021-09-12T11:18:28.016Z</time>
      </trkpt>
      <trkpt lat="45.64723" lon="5.89591">
        <ele>238</ele>
        <time>2021-09-12T11:18:29.015Z</time>
      </trkpt>
      <trkpt lat="45.64728" lon="5.89584">
        <ele>238</ele>
        <time>2021-09-12T11:18:30.015Z</time>
      </trkpt>
      <trkpt lat="45.64733" lon="5.89578">
        <ele>238</ele>
        <time>2021-09-12T11:18:31.015Z</time>
      </trkpt>
      <trkpt lat="45.64737" lon="5.89571">
        <ele>238</ele>
        <time>2021-09-12T11:18:32.016Z</time>
      </trkpt>
      <trkpt lat="45.64742" lon="5.89565">
        <ele>237</ele>
        <time>2021-09-12T11:18:33.015Z</time>
      </trkpt>
      <trkpt lat="45.64746" lon="5.89558">
        <ele>237</ele>
        <time>2021-09-12T11:18:34.015Z</time>
      </trkpt>
      <trkpt lat="45.64751" lon="5.89552">
        <ele>237</ele>
        <time>2021-09-12T11:18:35.015Z</time>
      </trkpt>
      <trkpt lat="45.64756" lon="5.89545">
        <ele>237</ele>
        <time>2021-09-12T11:18:36.015Z</time>
      </trkpt>
      <trkpt lat="45.6476" lon="5.89538">
        <ele>237</ele>
        <time>2021-09-12T11:18:37.015Z</time>
      </trkpt>
      <trkpt lat="45.64765" lon="5.89531">
        <ele>237</ele>
        <time>2021-09-12T11:18:38.015Z</time>
      </trkpt>
      <trkpt lat="45.6477" lon="5.89524">
        <ele>238</ele>
        <time>2021-09-12T11:18:39.015Z</time>
      </trkpt>
      <trkpt lat="45.64775" lon="5.89518">
        <ele>238</ele>
        <time>2021-09-12T11:18:40.016Z</time>
      </trkpt>
      <trkpt lat="45.64779" lon="5.89511">
        <ele>238</ele>
        <time>2021-09-12T11:18:41.015Z</time>
      </trkpt>
      <trkpt lat="45.64784" lon="5.89505">
        <ele>238</ele>
        <time>2021-09-12T11:18:42.015Z</time>
      </trkpt>
      <trkpt lat="45.64789" lon="5.89498">
        <ele>237</ele>
        <time>2021-09-12T11:18:43.015Z</time>
      </trkpt>
      <trkpt lat="45.64794" lon="5.89489">
        <ele>237</ele>
        <time>2021-09-12T11:18:44.015Z</time>
      </trkpt>
      <trkpt lat="45.64797" lon="5.89482">
        <ele>237</ele>
        <time>2021-09-12T11:18:45.015Z</time>
      </trkpt>
      <trkpt lat="45.648" lon="5.89474">
        <ele>237</ele>
        <time>2021-09-12T11:18:46.015Z</time>
      </trkpt>
      <trkpt lat="45.64802" lon="5.89466">
        <ele>238</ele>
        <time>2021-09-12T11:18:47.015Z</time>
      </trkpt>
      <trkpt lat="45.64805" lon="5.89457">
        <ele>238</ele>
        <time>2021-09-12T11:18:48.015Z</time>
      </trkpt>
      <trkpt lat="45.64806" lon="5.89447">
        <ele>238</ele>
        <time>2021-09-12T11:18:49.016Z</time>
      </trkpt>
      <trkpt lat="45.64807" lon="5.89438">
        <ele>238</ele>
        <time>2021-09-12T11:18:50.015Z</time>
      </trkpt>
      <trkpt lat="45.64807" lon="5.89429">
        <ele>238</ele>
        <time>2021-09-12T11:18:51.015Z</time>
      </trkpt>
      <trkpt lat="45.64806" lon="5.8942">
        <ele>238</ele>
        <time>2021-09-12T11:18:52.016Z</time>
      </trkpt>
      <trkpt lat="45.64804" lon="5.89408">
        <ele>238</ele>
        <time>2021-09-12T11:18:53.016Z</time>
      </trkpt>
      <trkpt lat="45.64801" lon="5.89402">
        <ele>238</ele>
        <time>2021-09-12T11:18:54.015Z</time>
      </trkpt>
      <trkpt lat="45.64798" lon="5.89393">
        <ele>238</ele>
        <time>2021-09-12T11:18:55.015Z</time>
      </trkpt>
      <trkpt lat="45.64795" lon="5.89385">
        <ele>238</ele>
        <time>2021-09-12T11:18:56.016Z</time>
      </trkpt>
      <trkpt lat="45.64791" lon="5.89377">
        <ele>238</ele>
        <time>2021-09-12T11:18:57.015Z</time>
      </trkpt>
      <trkpt lat="45.64787" lon="5.8937">
        <ele>238</ele>
        <time>2021-09-12T11:18:58.015Z</time>
      </trkpt>
      <trkpt lat="45.64784" lon="5.89364">
        <ele>238</ele>
        <time>2021-09-12T11:18:59.016Z</time>
      </trkpt>
      <trkpt lat="45.64782" lon="5.89358">
        <ele>238</ele>
        <time>2021-09-12T11:19:00.015Z</time>
      </trkpt>
      <trkpt lat="45.6478" lon="5.89354">
        <ele>238</ele>
        <time>2021-09-12T11:19:01.016Z</time>
      </trkpt>
      <trkpt lat="45.64779" lon="5.89351">
        <ele>238</ele>
        <time>2021-09-12T11:19:02.015Z</time>
      </trkpt>
      <trkpt lat="45.64779" lon="5.89348">
        <ele>238</ele>
        <time>2021-09-12T11:19:03.015Z</time>
      </trkpt>
      <trkpt lat="45.64779" lon="5.89345">
        <ele>238</ele>
        <time>2021-09-12T11:19:04.015Z</time>
      </trkpt>
      <trkpt lat="45.6478" lon="5.89343">
        <ele>238</ele>
        <time>2021-09-12T11:19:05.015Z</time>
      </trkpt>
      <trkpt lat="45.64781" lon="5.89341">
        <ele>238</ele>
        <time>2021-09-12T11:19:06.015Z</time>
      </trkpt>
      <trkpt lat="45.64782" lon="5.89341">
        <ele>237</ele>
        <time>2021-09-12T11:19:07.015Z</time>
      </trkpt>
      <trkpt lat="45.64783" lon="5.8934">
        <ele>237</ele>
        <time>2021-09-12T11:19:08.016Z</time>
      </trkpt>
      <trkpt lat="45.64783" lon="5.8934">
        <ele>237</ele>
        <time>2021-09-12T11:19:09.016Z</time>
      </trkpt>
      <trkpt lat="45.64783" lon="5.8934">
        <ele>237</ele>
        <time>2021-09-12T11:19:10.016Z</time>
      </trkpt>
      <trkpt lat="45.64788" lon="5.89337">
        <ele>238</ele>
        <time>2021-09-12T11:19:11.016Z</time>
      </trkpt>
      <trkpt lat="45.64791" lon="5.89334">
        <ele>238</ele>
        <time>2021-09-12T11:19:12.016Z</time>
      </trkpt>
      <trkpt lat="45.64795" lon="5.8933">
        <ele>238</ele>
        <time>2021-09-12T11:19:13.015Z</time>
      </trkpt>
      <trkpt lat="45.64798" lon="5.89326">
        <ele>238</ele>
        <time>2021-09-12T11:19:14.015Z</time>
      </trkpt>
      <trkpt lat="45.64801" lon="5.8932">
        <ele>238</ele>
        <time>2021-09-12T11:19:15.015Z</time>
      </trkpt>
      <trkpt lat="45.64803" lon="5.89314">
        <ele>238</ele>
        <time>2021-09-12T11:19:16.016Z</time>
      </trkpt>
      <trkpt lat="45.64804" lon="5.89307">
        <ele>238</ele>
        <time>2021-09-12T11:19:17.016Z</time>
      </trkpt>
      <trkpt lat="45.64805" lon="5.893">
        <ele>238</ele>
        <time>2021-09-12T11:19:18.016Z</time>
      </trkpt>
      <trkpt lat="45.64804" lon="5.89293">
        <ele>238</ele>
        <time>2021-09-12T11:19:19.016Z</time>
      </trkpt>
      <trkpt lat="45.64803" lon="5.89287">
        <ele>237</ele>
        <time>2021-09-12T11:19:20.015Z</time>
      </trkpt>
      <trkpt lat="45.648" lon="5.89279">
        <ele>237</ele>
        <time>2021-09-12T11:19:21.015Z</time>
      </trkpt>
      <trkpt lat="45.64799" lon="5.89272">
        <ele>237</ele>
        <time>2021-09-12T11:19:22.016Z</time>
      </trkpt>
      <trkpt lat="45.64798" lon="5.89265">
        <ele>236</ele>
        <time>2021-09-12T11:19:23.016Z</time>
      </trkpt>
      <trkpt lat="45.64797" lon="5.89257">
        <ele>236</ele>
        <time>2021-09-12T11:19:24.015Z</time>
      </trkpt>
      <trkpt lat="45.64797" lon="5.8925">
        <ele>236</ele>
        <time>2021-09-12T11:19:25.015Z</time>
      </trkpt>
      <trkpt lat="45.64798" lon="5.89242">
        <ele>235</ele>
        <time>2021-09-12T11:19:26.016Z</time>
      </trkpt>
      <trkpt lat="45.64799" lon="5.89234">
        <ele>235</ele>
        <time>2021-09-12T11:19:27.016Z</time>
      </trkpt>
      <trkpt lat="45.648" lon="5.89226">
        <ele>235</ele>
        <time>2021-09-12T11:19:28.015Z</time>
      </trkpt>
      <trkpt lat="45.64802" lon="5.89218">
        <ele>235</ele>
        <time>2021-09-12T11:19:29.015Z</time>
      </trkpt>
      <trkpt lat="45.64803" lon="5.8921">
        <ele>235</ele>
        <time>2021-09-12T11:19:30.016Z</time>
      </trkpt>
      <trkpt lat="45.64805" lon="5.89203">
        <ele>235</ele>
        <time>2021-09-12T11:19:31.016Z</time>
      </trkpt>
      <trkpt lat="45.64807" lon="5.89196">
        <ele>235</ele>
        <time>2021-09-12T11:19:32.015Z</time>
      </trkpt>
      <trkpt lat="45.64809" lon="5.89189">
        <ele>235</ele>
        <time>2021-09-12T11:19:33.015Z</time>
      </trkpt>
      <trkpt lat="45.64812" lon="5.89185">
        <ele>235</ele>
        <time>2021-09-12T11:19:34.015Z</time>
      </trkpt>
      <trkpt lat="45.64816" lon="5.89183">
        <ele>235</ele>
        <time>2021-09-12T11:19:35.015Z</time>
      </trkpt>
      <trkpt lat="45.6482" lon="5.89181">
        <ele>236</ele>
        <time>2021-09-12T11:19:36.015Z</time>
      </trkpt>
      <trkpt lat="45.64823" lon="5.89179">
        <ele>236</ele>
        <time>2021-09-12T11:19:37.015Z</time>
      </trkpt>
      <trkpt lat="45.64827" lon="5.89177">
        <ele>236</ele>
        <time>2021-09-12T11:19:38.015Z</time>
      </trkpt>
      <trkpt lat="45.64829" lon="5.89172">
        <ele>235</ele>
        <time>2021-09-12T11:19:39.016Z</time>
      </trkpt>
      <trkpt lat="45.64831" lon="5.89169">
        <ele>235</ele>
        <time>2021-09-12T11:19:40.015Z</time>
      </trkpt>
      <trkpt lat="45.64832" lon="5.89165">
        <ele>235</ele>
        <time>2021-09-12T11:19:41.016Z</time>
      </trkpt>
      <trkpt lat="45.64833" lon="5.89161">
        <ele>235</ele>
        <time>2021-09-12T11:19:42.016Z</time>
      </trkpt>
      <trkpt lat="45.64833" lon="5.89159">
        <ele>235</ele>
        <time>2021-09-12T11:19:43.015Z</time>
      </trkpt>
      <trkpt lat="45.64833" lon="5.89157">
        <ele>235</ele>
        <time>2021-09-12T11:19:44.015Z</time>
      </trkpt>
      <trkpt lat="45.64833" lon="5.89155">
        <ele>235</ele>
        <time>2021-09-12T11:19:45.016Z</time>
      </trkpt>
      <trkpt lat="45.64833" lon="5.89154">
        <ele>235</ele>
        <time>2021-09-12T11:19:46.016Z</time>
      </trkpt>
      <trkpt lat="45.64833" lon="5.89151">
        <ele>235</ele>
        <time>2021-09-12T11:19:47.015Z</time>
      </trkpt>
      <trkpt lat="45.64832" lon="5.89149">
        <ele>235</ele>
        <time>2021-09-12T11:19:48.016Z</time>
      </trkpt>
      <trkpt lat="45.64832" lon="5.89147">
        <ele>236</ele>
        <time>2021-09-12T11:19:49.015Z</time>
      </trkpt>
      <trkpt lat="45.64831" lon="5.89144">
        <ele>236</ele>
        <time>2021-09-12T11:19:50.015Z</time>
      </trkpt>
      <trkpt lat="45.64829" lon="5.8914">
        <ele>236</ele>
        <time>2021-09-12T11:19:51.016Z</time>
      </trkpt>
      <trkpt lat="45.64827" lon="5.89135">
        <ele>236</ele>
        <time>2021-09-12T11:19:52.016Z</time>
      </trkpt>
      <trkpt lat="45.64825" lon="5.89129">
        <ele>237</ele>
        <time>2021-09-12T11:19:53.015Z</time>
      </trkpt>
      <trkpt lat="45.64824" lon="5.89124">
        <ele>237</ele>
        <time>2021-09-12T11:19:54.015Z</time>
      </trkpt>
      <trkpt lat="45.64823" lon="5.89119">
        <ele>237</ele>
        <time>2021-09-12T11:19:55.015Z</time>
      </trkpt>
      <trkpt lat="45.64824" lon="5.89113">
        <ele>237</ele>
        <time>2021-09-12T11:19:56.015Z</time>
      </trkpt>
      <trkpt lat="45.64824" lon="5.89108">
        <ele>238</ele>
        <time>2021-09-12T11:19:57.015Z</time>
      </trkpt>
      <trkpt lat="45.64824" lon="5.89103">
        <ele>238</ele>
        <time>2021-09-12T11:19:58.015Z</time>
      </trkpt>
      <trkpt lat="45.64824" lon="5.89098">
        <ele>238</ele>
        <time>2021-09-12T11:19:59.016Z</time>
      </trkpt>
      <trkpt lat="45.64824" lon="5.89094">
        <ele>238</ele>
        <time>2021-09-12T11:20:00.015Z</time>
      </trkpt>
      <trkpt lat="45.64824" lon="5.8909">
        <ele>238</ele>
        <time>2021-09-12T11:20:01.015Z</time>
      </trkpt>
      <trkpt lat="45.64824" lon="5.89086">
        <ele>238</ele>
        <time>2021-09-12T11:20:02.015Z</time>
      </trkpt>
      <trkpt lat="45.64825" lon="5.89082">
        <ele>238</ele>
        <time>2021-09-12T11:20:03.016Z</time>
      </trkpt>
      <trkpt lat="45.64825" lon="5.89078">
        <ele>238</ele>
        <time>2021-09-12T11:20:04.015Z</time>
      </trkpt>
      <trkpt lat="45.64824" lon="5.89072">
        <ele>238</ele>
        <time>2021-09-12T11:20:05.015Z</time>
      </trkpt>
      <trkpt lat="45.64825" lon="5.89067">
        <ele>238</ele>
        <time>2021-09-12T11:20:06.015Z</time>
      </trkpt>
      <trkpt lat="45.64824" lon="5.89062">
        <ele>239</ele>
        <time>2021-09-12T11:20:07.016Z</time>
      </trkpt>
      <trkpt lat="45.64824" lon="5.89057">
        <ele>239</ele>
        <time>2021-09-12T11:20:08.016Z</time>
      </trkpt>
      <trkpt lat="45.64824" lon="5.89052">
        <ele>239</ele>
        <time>2021-09-12T11:20:09.016Z</time>
      </trkpt>
      <trkpt lat="45.64824" lon="5.89048">
        <ele>239</ele>
        <time>2021-09-12T11:20:10.015Z</time>
      </trkpt>
      <trkpt lat="45.64824" lon="5.89043">
        <ele>239</ele>
        <time>2021-09-12T11:20:11.016Z</time>
      </trkpt>
      <trkpt lat="45.64824" lon="5.89038">
        <ele>239</ele>
        <time>2021-09-12T11:20:12.016Z</time>
      </trkpt>
      <trkpt lat="45.64824" lon="5.89033">
        <ele>239</ele>
        <time>2021-09-12T11:20:13.016Z</time>
      </trkpt>
      <trkpt lat="45.64824" lon="5.89029">
        <ele>239</ele>
        <time>2021-09-12T11:20:14.015Z</time>
      </trkpt>
      <trkpt lat="45.64824" lon="5.89024">
        <ele>239</ele>
        <time>2021-09-12T11:20:15.016Z</time>
      </trkpt>
      <trkpt lat="45.64824" lon="5.8902">
        <ele>239</ele>
        <time>2021-09-12T11:20:16.016Z</time>
      </trkpt>
      <trkpt lat="45.64824" lon="5.89016">
        <ele>240</ele>
        <time>2021-09-12T11:20:17.016Z</time>
      </trkpt>
      <trkpt lat="45.64824" lon="5.89011">
        <ele>240</ele>
        <time>2021-09-12T11:20:18.016Z</time>
      </trkpt>
      <trkpt lat="45.64824" lon="5.89007">
        <ele>240</ele>
        <time>2021-09-12T11:20:19.016Z</time>
      </trkpt>
      <trkpt lat="45.64824" lon="5.89002">
        <ele>241</ele>
        <time>2021-09-12T11:20:20.016Z</time>
      </trkpt>
      <trkpt lat="45.64824" lon="5.88998">
        <ele>240</ele>
        <time>2021-09-12T11:20:21.016Z</time>
      </trkpt>
      <trkpt lat="45.64824" lon="5.88993">
        <ele>240</ele>
        <time>2021-09-12T11:20:22.016Z</time>
      </trkpt>
      <trkpt lat="45.64824" lon="5.88989">
        <ele>240</ele>
        <time>2021-09-12T11:20:23.016Z</time>
      </trkpt>
      <trkpt lat="45.64823" lon="5.88985">
        <ele>240</ele>
        <time>2021-09-12T11:20:24.016Z</time>
      </trkpt>
      <trkpt lat="45.64823" lon="5.88981">
        <ele>240</ele>
        <time>2021-09-12T11:20:25.016Z</time>
      </trkpt>
      <trkpt lat="45.64823" lon="5.88977">
        <ele>240</ele>
        <time>2021-09-12T11:20:26.015Z</time>
      </trkpt>
      <trkpt lat="45.64823" lon="5.88972">
        <ele>240</ele>
        <time>2021-09-12T11:20:27.016Z</time>
      </trkpt>
      <trkpt lat="45.64824" lon="5.88968">
        <ele>240</ele>
        <time>2021-09-12T11:20:28.015Z</time>
      </trkpt>
      <trkpt lat="45.64824" lon="5.88962">
        <ele>240</ele>
        <time>2021-09-12T11:20:29.015Z</time>
      </trkpt>
      <trkpt lat="45.64824" lon="5.88957">
        <ele>240</ele>
        <time>2021-09-12T11:20:30.015Z</time>
      </trkpt>
      <trkpt lat="45.64824" lon="5.88951">
        <ele>239</ele>
        <time>2021-09-12T11:20:31.016Z</time>
      </trkpt>
      <trkpt lat="45.64824" lon="5.88944">
        <ele>239</ele>
        <time>2021-09-12T11:20:32.016Z</time>
      </trkpt>
      <trkpt lat="45.64824" lon="5.88938">
        <ele>239</ele>
        <time>2021-09-12T11:20:33.016Z</time>
      </trkpt>
      <trkpt lat="45.64824" lon="5.88931">
        <ele>239</ele>
        <time>2021-09-12T11:20:34.016Z</time>
      </trkpt>
      <trkpt lat="45.64824" lon="5.88924">
        <ele>239</ele>
        <time>2021-09-12T11:20:35.016Z</time>
      </trkpt>
      <trkpt lat="45.64825" lon="5.88916">
        <ele>239</ele>
        <time>2021-09-12T11:20:36.015Z</time>
      </trkpt>
      <trkpt lat="45.64825" lon="5.88909">
        <ele>239</ele>
        <time>2021-09-12T11:20:37.016Z</time>
      </trkpt>
      <trkpt lat="45.64825" lon="5.88901">
        <ele>239</ele>
        <time>2021-09-12T11:20:38.016Z</time>
      </trkpt>
      <trkpt lat="45.64825" lon="5.88894">
        <ele>239</ele>
        <time>2021-09-12T11:20:39.015Z</time>
      </trkpt>
      <trkpt lat="45.64825" lon="5.88886">
        <ele>239</ele>
        <time>2021-09-12T11:20:40.016Z</time>
      </trkpt>
      <trkpt lat="45.64825" lon="5.88879">
        <ele>239</ele>
        <time>2021-09-12T11:20:41.016Z</time>
      </trkpt>
      <trkpt lat="45.64825" lon="5.88871">
        <ele>239</ele>
        <time>2021-09-12T11:20:42.016Z</time>
      </trkpt>
      <trkpt lat="45.64825" lon="5.88864">
        <ele>238</ele>
        <time>2021-09-12T11:20:43.016Z</time>
      </trkpt>
      <trkpt lat="45.64825" lon="5.88857">
        <ele>238</ele>
        <time>2021-09-12T11:20:44.016Z</time>
      </trkpt>
      <trkpt lat="45.64825" lon="5.8885">
        <ele>238</ele>
        <time>2021-09-12T11:20:45.016Z</time>
      </trkpt>
      <trkpt lat="45.64825" lon="5.88843">
        <ele>237</ele>
        <time>2021-09-12T11:20:46.016Z</time>
      </trkpt>
      <trkpt lat="45.64825" lon="5.88835">
        <ele>237</ele>
        <time>2021-09-12T11:20:47.016Z</time>
      </trkpt>
      <trkpt lat="45.64825" lon="5.88828">
        <ele>237</ele>
        <time>2021-09-12T11:20:48.016Z</time>
      </trkpt>
      <trkpt lat="45.64825" lon="5.88821">
        <ele>237</ele>
        <time>2021-09-12T11:20:49.016Z</time>
      </trkpt>
      <trkpt lat="45.64825" lon="5.88813">
        <ele>237</ele>
        <time>2021-09-12T11:20:50.015Z</time>
      </trkpt>
      <trkpt lat="45.64826" lon="5.88805">
        <ele>237</ele>
        <time>2021-09-12T11:20:51.016Z</time>
      </trkpt>
      <trkpt lat="45.64826" lon="5.88797">
        <ele>237</ele>
        <time>2021-09-12T11:20:52.016Z</time>
      </trkpt>
      <trkpt lat="45.64826" lon="5.88789">
        <ele>238</ele>
        <time>2021-09-12T11:20:53.015Z</time>
      </trkpt>
      <trkpt lat="45.64826" lon="5.88781">
        <ele>238</ele>
        <time>2021-09-12T11:20:54.016Z</time>
      </trkpt>
      <trkpt lat="45.64826" lon="5.88774">
        <ele>237</ele>
        <time>2021-09-12T11:20:55.016Z</time>
      </trkpt>
      <trkpt lat="45.64826" lon="5.88766">
        <ele>237</ele>
        <time>2021-09-12T11:20:56.016Z</time>
      </trkpt>
      <trkpt lat="45.64826" lon="5.88758">
        <ele>237</ele>
        <time>2021-09-12T11:20:57.016Z</time>
      </trkpt>
      <trkpt lat="45.64826" lon="5.8875">
        <ele>238</ele>
        <time>2021-09-12T11:20:58.016Z</time>
      </trkpt>
      <trkpt lat="45.64826" lon="5.88742">
        <ele>238</ele>
        <time>2021-09-12T11:20:59.016Z</time>
      </trkpt>
      <trkpt lat="45.64826" lon="5.88734">
        <ele>238</ele>
        <time>2021-09-12T11:21:00.016Z</time>
      </trkpt>
      <trkpt lat="45.64826" lon="5.88726">
        <ele>238</ele>
        <time>2021-09-12T11:21:01.016Z</time>
      </trkpt>
      <trkpt lat="45.64826" lon="5.88719">
        <ele>238</ele>
        <time>2021-09-12T11:21:02.016Z</time>
      </trkpt>
      <trkpt lat="45.64826" lon="5.88711">
        <ele>238</ele>
        <time>2021-09-12T11:21:03.016Z</time>
      </trkpt>
      <trkpt lat="45.64826" lon="5.88704">
        <ele>238</ele>
        <time>2021-09-12T11:21:04.016Z</time>
      </trkpt>
      <trkpt lat="45.64825" lon="5.88697">
        <ele>238</ele>
        <time>2021-09-12T11:21:05.016Z</time>
      </trkpt>
      <trkpt lat="45.64824" lon="5.88691">
        <ele>238</ele>
        <time>2021-09-12T11:21:06.016Z</time>
      </trkpt>
      <trkpt lat="45.64823" lon="5.88685">
        <ele>238</ele>
        <time>2021-09-12T11:21:07.016Z</time>
      </trkpt>
      <trkpt lat="45.64822" lon="5.8868">
        <ele>238</ele>
        <time>2021-09-12T11:21:08.016Z</time>
      </trkpt>
      <trkpt lat="45.64822" lon="5.88674">
        <ele>238</ele>
        <time>2021-09-12T11:21:09.015Z</time>
      </trkpt>
      <trkpt lat="45.64822" lon="5.88668">
        <ele>238</ele>
        <time>2021-09-12T11:21:10.016Z</time>
      </trkpt>
      <trkpt lat="45.64822" lon="5.88662">
        <ele>238</ele>
        <time>2021-09-12T11:21:11.015Z</time>
      </trkpt>
      <trkpt lat="45.64822" lon="5.88657">
        <ele>237</ele>
        <time>2021-09-12T11:21:12.016Z</time>
      </trkpt>
      <trkpt lat="45.64822" lon="5.88651">
        <ele>237</ele>
        <time>2021-09-12T11:21:13.016Z</time>
      </trkpt>
      <trkpt lat="45.64822" lon="5.88645">
        <ele>237</ele>
        <time>2021-09-12T11:21:14.015Z</time>
      </trkpt>
      <trkpt lat="45.64821" lon="5.88638">
        <ele>237</ele>
        <time>2021-09-12T11:21:15.016Z</time>
      </trkpt>
      <trkpt lat="45.64821" lon="5.88631">
        <ele>237</ele>
        <time>2021-09-12T11:21:16.015Z</time>
      </trkpt>
      <trkpt lat="45.64821" lon="5.88624">
        <ele>237</ele>
        <time>2021-09-12T11:21:17.016Z</time>
      </trkpt>
      <trkpt lat="45.64821" lon="5.88616">
        <ele>238</ele>
        <time>2021-09-12T11:21:18.016Z</time>
      </trkpt>
      <trkpt lat="45.64821" lon="5.88608">
        <ele>238</ele>
        <time>2021-09-12T11:21:19.015Z</time>
      </trkpt>
      <trkpt lat="45.64822" lon="5.886">
        <ele>238</ele>
        <time>2021-09-12T11:21:20.015Z</time>
      </trkpt>
      <trkpt lat="45.64822" lon="5.88592">
        <ele>238</ele>
        <time>2021-09-12T11:21:21.016Z</time>
      </trkpt>
      <trkpt lat="45.64822" lon="5.88584">
        <ele>239</ele>
        <time>2021-09-12T11:21:22.016Z</time>
      </trkpt>
      <trkpt lat="45.64822" lon="5.88577">
        <ele>239</ele>
        <time>2021-09-12T11:21:23.016Z</time>
      </trkpt>
      <trkpt lat="45.64823" lon="5.8857">
        <ele>239</ele>
        <time>2021-09-12T11:21:24.015Z</time>
      </trkpt>
      <trkpt lat="45.64823" lon="5.88562">
        <ele>239</ele>
        <time>2021-09-12T11:21:25.015Z</time>
      </trkpt>
      <trkpt lat="45.64823" lon="5.88555">
        <ele>239</ele>
        <time>2021-09-12T11:21:26.016Z</time>
      </trkpt>
      <trkpt lat="45.64823" lon="5.88547">
        <ele>239</ele>
        <time>2021-09-12T11:21:27.016Z</time>
      </trkpt>
      <trkpt lat="45.64824" lon="5.88539">
        <ele>239</ele>
        <time>2021-09-12T11:21:28.015Z</time>
      </trkpt>
      <trkpt lat="45.64824" lon="5.88531">
        <ele>238</ele>
        <time>2021-09-12T11:21:29.015Z</time>
      </trkpt>
      <trkpt lat="45.64823" lon="5.88523">
        <ele>238</ele>
        <time>2021-09-12T11:21:30.016Z</time>
      </trkpt>
      <trkpt lat="45.64823" lon="5.88515">
        <ele>238</ele>
        <time>2021-09-12T11:21:31.016Z</time>
      </trkpt>
      <trkpt lat="45.64823" lon="5.88507">
        <ele>237</ele>
        <time>2021-09-12T11:21:32.016Z</time>
      </trkpt>
      <trkpt lat="45.64823" lon="5.88499">
        <ele>237</ele>
        <time>2021-09-12T11:21:33.016Z</time>
      </trkpt>
      <trkpt lat="45.64823" lon="5.88491">
        <ele>237</ele>
        <time>2021-09-12T11:21:34.016Z</time>
      </trkpt>
      <trkpt lat="45.64823" lon="5.88483">
        <ele>237</ele>
        <time>2021-09-12T11:21:35.016Z</time>
      </trkpt>
      <trkpt lat="45.64823" lon="5.88475">
        <ele>237</ele>
        <time>2021-09-12T11:21:36.016Z</time>
      </trkpt>
      <trkpt lat="45.64822" lon="5.88467">
        <ele>237</ele>
        <time>2021-09-12T11:21:37.015Z</time>
      </trkpt>
      <trkpt lat="45.64823" lon="5.88458">
        <ele>237</ele>
        <time>2021-09-12T11:21:38.016Z</time>
      </trkpt>
      <trkpt lat="45.64823" lon="5.8845">
        <ele>238</ele>
        <time>2021-09-12T11:21:39.016Z</time>
      </trkpt>
      <trkpt lat="45.64823" lon="5.88441">
        <ele>239</ele>
        <time>2021-09-12T11:21:40.016Z</time>
      </trkpt>
      <trkpt lat="45.64823" lon="5.88433">
        <ele>239</ele>
        <time>2021-09-12T11:21:41.016Z</time>
      </trkpt>
      <trkpt lat="45.64824" lon="5.88425">
        <ele>239</ele>
        <time>2021-09-12T11:21:42.016Z</time>
      </trkpt>
      <trkpt lat="45.64824" lon="5.88417">
        <ele>239</ele>
        <time>2021-09-12T11:21:43.016Z</time>
      </trkpt>
      <trkpt lat="45.64824" lon="5.88409">
        <ele>239</ele>
        <time>2021-09-12T11:21:44.016Z</time>
      </trkpt>
      <trkpt lat="45.64824" lon="5.88401">
        <ele>239</ele>
        <time>2021-09-12T11:21:45.016Z</time>
      </trkpt>
      <trkpt lat="45.64824" lon="5.88393">
        <ele>239</ele>
        <time>2021-09-12T11:21:46.016Z</time>
      </trkpt>
      <trkpt lat="45.64824" lon="5.88385">
        <ele>239</ele>
        <time>2021-09-12T11:21:47.015Z</time>
      </trkpt>
      <trkpt lat="45.64824" lon="5.88377">
        <ele>239</ele>
        <time>2021-09-12T11:21:48.016Z</time>
      </trkpt>
      <trkpt lat="45.64824" lon="5.88369">
        <ele>238</ele>
        <time>2021-09-12T11:21:49.016Z</time>
      </trkpt>
      <trkpt lat="45.64824" lon="5.88361">
        <ele>238</ele>
        <time>2021-09-12T11:21:50.016Z</time>
      </trkpt>
      <trkpt lat="45.64824" lon="5.88353">
        <ele>237</ele>
        <time>2021-09-12T11:21:51.015Z</time>
      </trkpt>
      <trkpt lat="45.64825" lon="5.88345">
        <ele>237</ele>
        <time>2021-09-12T11:21:52.016Z</time>
      </trkpt>
      <trkpt lat="45.64824" lon="5.88336">
        <ele>236</ele>
        <time>2021-09-12T11:21:53.015Z</time>
      </trkpt>
      <trkpt lat="45.64825" lon="5.88329">
        <ele>236</ele>
        <time>2021-09-12T11:21:54.016Z</time>
      </trkpt>
      <trkpt lat="45.64825" lon="5.8832">
        <ele>236</ele>
        <time>2021-09-12T11:21:55.015Z</time>
      </trkpt>
      <trkpt lat="45.64825" lon="5.88312">
        <ele>236</ele>
        <time>2021-09-12T11:21:56.016Z</time>
      </trkpt>
      <trkpt lat="45.64825" lon="5.88303">
        <ele>236</ele>
        <time>2021-09-12T11:21:57.016Z</time>
      </trkpt>
      <trkpt lat="45.64825" lon="5.88295">
        <ele>237</ele>
        <time>2021-09-12T11:21:58.015Z</time>
      </trkpt>
      <trkpt lat="45.64825" lon="5.88286">
        <ele>237</ele>
        <time>2021-09-12T11:21:59.016Z</time>
      </trkpt>
      <trkpt lat="45.64826" lon="5.88277">
        <ele>237</ele>
        <time>2021-09-12T11:22:00.016Z</time>
      </trkpt>
      <trkpt lat="45.64826" lon="5.88269">
        <ele>237</ele>
        <time>2021-09-12T11:22:01.016Z</time>
      </trkpt>
      <trkpt lat="45.64826" lon="5.88261">
        <ele>237</ele>
        <time>2021-09-12T11:22:02.016Z</time>
      </trkpt>
      <trkpt lat="45.64826" lon="5.88253">
        <ele>237</ele>
        <time>2021-09-12T11:22:03.016Z</time>
      </trkpt>
      <trkpt lat="45.64826" lon="5.88245">
        <ele>237</ele>
        <time>2021-09-12T11:22:04.016Z</time>
      </trkpt>
      <trkpt lat="45.64826" lon="5.88236">
        <ele>237</ele>
        <time>2021-09-12T11:22:05.015Z</time>
      </trkpt>
      <trkpt lat="45.64826" lon="5.88228">
        <ele>238</ele>
        <time>2021-09-12T11:22:06.016Z</time>
      </trkpt>
      <trkpt lat="45.64825" lon="5.8822">
        <ele>238</ele>
        <time>2021-09-12T11:22:07.016Z</time>
      </trkpt>
      <trkpt lat="45.64825" lon="5.88211">
        <ele>238</ele>
        <time>2021-09-12T11:22:08.015Z</time>
      </trkpt>
      <trkpt lat="45.64826" lon="5.88201">
        <ele>239</ele>
        <time>2021-09-12T11:22:09.016Z</time>
      </trkpt>
      <trkpt lat="45.64826" lon="5.88195">
        <ele>239</ele>
        <time>2021-09-12T11:22:10.016Z</time>
      </trkpt>
      <trkpt lat="45.64826" lon="5.88186">
        <ele>239</ele>
        <time>2021-09-12T11:22:11.016Z</time>
      </trkpt>
      <trkpt lat="45.64826" lon="5.88178">
        <ele>238</ele>
        <time>2021-09-12T11:22:12.015Z</time>
      </trkpt>
      <trkpt lat="45.64827" lon="5.88168">
        <ele>238</ele>
        <time>2021-09-12T11:22:13.015Z</time>
      </trkpt>
      <trkpt lat="45.64827" lon="5.88161">
        <ele>238</ele>
        <time>2021-09-12T11:22:14.016Z</time>
      </trkpt>
      <trkpt lat="45.64827" lon="5.88153">
        <ele>238</ele>
        <time>2021-09-12T11:22:15.016Z</time>
      </trkpt>
      <trkpt lat="45.64827" lon="5.88145">
        <ele>237</ele>
        <time>2021-09-12T11:22:16.016Z</time>
      </trkpt>
      <trkpt lat="45.64827" lon="5.88137">
        <ele>237</ele>
        <time>2021-09-12T11:22:17.015Z</time>
      </trkpt>
      <trkpt lat="45.64827" lon="5.88127">
        <ele>236</ele>
        <time>2021-09-12T11:22:18.016Z</time>
      </trkpt>
      <trkpt lat="45.64828" lon="5.88119">
        <ele>236</ele>
        <time>2021-09-12T11:22:19.016Z</time>
      </trkpt>
      <trkpt lat="45.64828" lon="5.88112">
        <ele>237</ele>
        <time>2021-09-12T11:22:20.016Z</time>
      </trkpt>
      <trkpt lat="45.64828" lon="5.88104">
        <ele>237</ele>
        <time>2021-09-12T11:22:21.016Z</time>
      </trkpt>
      <trkpt lat="45.64828" lon="5.88094">
        <ele>237</ele>
        <time>2021-09-12T11:22:22.015Z</time>
      </trkpt>
      <trkpt lat="45.64828" lon="5.88087">
        <ele>237</ele>
        <time>2021-09-12T11:22:23.016Z</time>
      </trkpt>
      <trkpt lat="45.64828" lon="5.8808">
        <ele>237</ele>
        <time>2021-09-12T11:22:24.016Z</time>
      </trkpt>
      <trkpt lat="45.64829" lon="5.88072">
        <ele>237</ele>
        <time>2021-09-12T11:22:25.016Z</time>
      </trkpt>
      <trkpt lat="45.64829" lon="5.88062">
        <ele>237</ele>
        <time>2021-09-12T11:22:26.016Z</time>
      </trkpt>
      <trkpt lat="45.64829" lon="5.88054">
        <ele>237</ele>
        <time>2021-09-12T11:22:27.016Z</time>
      </trkpt>
      <trkpt lat="45.6483" lon="5.88045">
        <ele>237</ele>
        <time>2021-09-12T11:22:28.015Z</time>
      </trkpt>
      <trkpt lat="45.6483" lon="5.88039">
        <ele>237</ele>
        <time>2021-09-12T11:22:29.015Z</time>
      </trkpt>
      <trkpt lat="45.6483" lon="5.8803">
        <ele>237</ele>
        <time>2021-09-12T11:22:30.016Z</time>
      </trkpt>
      <trkpt lat="45.6483" lon="5.88022">
        <ele>237</ele>
        <time>2021-09-12T11:22:31.015Z</time>
      </trkpt>
      <trkpt lat="45.6483" lon="5.88014">
        <ele>237</ele>
        <time>2021-09-12T11:22:32.016Z</time>
      </trkpt>
      <trkpt lat="45.6483" lon="5.88005">
        <ele>237</ele>
        <time>2021-09-12T11:22:33.016Z</time>
      </trkpt>
      <trkpt lat="45.6483" lon="5.87997">
        <ele>237</ele>
        <time>2021-09-12T11:22:34.016Z</time>
      </trkpt>
      <trkpt lat="45.6483" lon="5.87988">
        <ele>237</ele>
        <time>2021-09-12T11:22:35.016Z</time>
      </trkpt>
      <trkpt lat="45.6483" lon="5.87978">
        <ele>238</ele>
        <time>2021-09-12T11:22:36.016Z</time>
      </trkpt>
      <trkpt lat="45.6483" lon="5.8797">
        <ele>238</ele>
        <time>2021-09-12T11:22:37.016Z</time>
      </trkpt>
      <trkpt lat="45.64831" lon="5.87962">
        <ele>238</ele>
        <time>2021-09-12T11:22:38.015Z</time>
      </trkpt>
      <trkpt lat="45.64831" lon="5.87955">
        <ele>238</ele>
        <time>2021-09-12T11:22:39.015Z</time>
      </trkpt>
      <trkpt lat="45.64831" lon="5.87946">
        <ele>238</ele>
        <time>2021-09-12T11:22:40.015Z</time>
      </trkpt>
      <trkpt lat="45.64831" lon="5.87936">
        <ele>238</ele>
        <time>2021-09-12T11:22:41.016Z</time>
      </trkpt>
      <trkpt lat="45.64831" lon="5.87928">
        <ele>239</ele>
        <time>2021-09-12T11:22:42.016Z</time>
      </trkpt>
      <trkpt lat="45.64831" lon="5.87921">
        <ele>239</ele>
        <time>2021-09-12T11:22:43.015Z</time>
      </trkpt>
      <trkpt lat="45.64831" lon="5.87913">
        <ele>239</ele>
        <time>2021-09-12T11:22:44.016Z</time>
      </trkpt>
      <trkpt lat="45.64831" lon="5.87904">
        <ele>239</ele>
        <time>2021-09-12T11:22:45.016Z</time>
      </trkpt>
      <trkpt lat="45.64831" lon="5.87897">
        <ele>239</ele>
        <time>2021-09-12T11:22:46.016Z</time>
      </trkpt>
      <trkpt lat="45.64832" lon="5.87889">
        <ele>239</ele>
        <time>2021-09-12T11:22:47.015Z</time>
      </trkpt>
      <trkpt lat="45.64832" lon="5.87881">
        <ele>238</ele>
        <time>2021-09-12T11:22:48.016Z</time>
      </trkpt>
      <trkpt lat="45.64832" lon="5.87873">
        <ele>238</ele>
        <time>2021-09-12T11:22:49.016Z</time>
      </trkpt>
      <trkpt lat="45.64832" lon="5.87865">
        <ele>238</ele>
        <time>2021-09-12T11:22:50.016Z</time>
      </trkpt>
      <trkpt lat="45.64832" lon="5.87857">
        <ele>237</ele>
        <time>2021-09-12T11:22:51.016Z</time>
      </trkpt>
      <trkpt lat="45.64832" lon="5.87849">
        <ele>237</ele>
        <time>2021-09-12T11:22:52.016Z</time>
      </trkpt>
      <trkpt lat="45.64833" lon="5.87841">
        <ele>237</ele>
        <time>2021-09-12T11:22:53.016Z</time>
      </trkpt>
      <trkpt lat="45.64833" lon="5.87833">
        <ele>237</ele>
        <time>2021-09-12T11:22:54.015Z</time>
      </trkpt>
      <trkpt lat="45.64833" lon="5.87825">
        <ele>237</ele>
        <time>2021-09-12T11:22:55.016Z</time>
      </trkpt>
      <trkpt lat="45.64833" lon="5.87815">
        <ele>237</ele>
        <time>2021-09-12T11:22:56.016Z</time>
      </trkpt>
      <trkpt lat="45.64833" lon="5.87809">
        <ele>237</ele>
        <time>2021-09-12T11:22:57.016Z</time>
      </trkpt>
      <trkpt lat="45.64833" lon="5.878">
        <ele>237</ele>
        <time>2021-09-12T11:22:58.016Z</time>
      </trkpt>
      <trkpt lat="45.64833" lon="5.87792">
        <ele>237</ele>
        <time>2021-09-12T11:22:59.016Z</time>
      </trkpt>
      <trkpt lat="45.64833" lon="5.87782">
        <ele>237</ele>
        <time>2021-09-12T11:23:00.016Z</time>
      </trkpt>
      <trkpt lat="45.64834" lon="5.87773">
        <ele>237</ele>
        <time>2021-09-12T11:23:01.016Z</time>
      </trkpt>
      <trkpt lat="45.64834" lon="5.87766">
        <ele>237</ele>
        <time>2021-09-12T11:23:02.016Z</time>
      </trkpt>
      <trkpt lat="45.64834" lon="5.87758">
        <ele>237</ele>
        <time>2021-09-12T11:23:03.016Z</time>
      </trkpt>
      <trkpt lat="45.64833" lon="5.87748">
        <ele>237</ele>
        <time>2021-09-12T11:23:04.016Z</time>
      </trkpt>
      <trkpt lat="45.64833" lon="5.8774">
        <ele>237</ele>
        <time>2021-09-12T11:23:05.016Z</time>
      </trkpt>
      <trkpt lat="45.64833" lon="5.87733">
        <ele>237</ele>
        <time>2021-09-12T11:23:06.016Z</time>
      </trkpt>
      <trkpt lat="45.64834" lon="5.87724">
        <ele>237</ele>
        <time>2021-09-12T11:23:07.015Z</time>
      </trkpt>
      <trkpt lat="45.64834" lon="5.87714">
        <ele>238</ele>
        <time>2021-09-12T11:23:08.016Z</time>
      </trkpt>
      <trkpt lat="45.64834" lon="5.87707">
        <ele>238</ele>
        <time>2021-09-12T11:23:09.016Z</time>
      </trkpt>
      <trkpt lat="45.64834" lon="5.87697">
        <ele>237</ele>
        <time>2021-09-12T11:23:10.015Z</time>
      </trkpt>
      <trkpt lat="45.64834" lon="5.8769">
        <ele>237</ele>
        <time>2021-09-12T11:23:11.016Z</time>
      </trkpt>
      <trkpt lat="45.64834" lon="5.87682">
        <ele>237</ele>
        <time>2021-09-12T11:23:12.016Z</time>
      </trkpt>
      <trkpt lat="45.64834" lon="5.87674">
        <ele>237</ele>
        <time>2021-09-12T11:23:13.016Z</time>
      </trkpt>
      <trkpt lat="45.64835" lon="5.87664">
        <ele>237</ele>
        <time>2021-09-12T11:23:14.016Z</time>
      </trkpt>
      <trkpt lat="45.64835" lon="5.87657">
        <ele>237</ele>
        <time>2021-09-12T11:23:15.016Z</time>
      </trkpt>
      <trkpt lat="45.64835" lon="5.87649">
        <ele>236</ele>
        <time>2021-09-12T11:23:16.016Z</time>
      </trkpt>
      <trkpt lat="45.64835" lon="5.87641">
        <ele>236</ele>
        <time>2021-09-12T11:23:17.016Z</time>
      </trkpt>
      <trkpt lat="45.64835" lon="5.87632">
        <ele>236</ele>
        <time>2021-09-12T11:23:18.016Z</time>
      </trkpt>
      <trkpt lat="45.64835" lon="5.87622">
        <ele>235</ele>
        <time>2021-09-12T11:23:19.015Z</time>
      </trkpt>
      <trkpt lat="45.64835" lon="5.87616">
        <ele>235</ele>
        <time>2021-09-12T11:23:20.016Z</time>
      </trkpt>
      <trkpt lat="45.64835" lon="5.87607">
        <ele>236</ele>
        <time>2021-09-12T11:23:21.016Z</time>
      </trkpt>
      <trkpt lat="45.64835" lon="5.87599">
        <ele>236</ele>
        <time>2021-09-12T11:23:22.016Z</time>
      </trkpt>
      <trkpt lat="45.64836" lon="5.8759">
        <ele>236</ele>
        <time>2021-09-12T11:23:23.016Z</time>
      </trkpt>
      <trkpt lat="45.64836" lon="5.87582">
        <ele>237</ele>
        <time>2021-09-12T11:23:24.016Z</time>
      </trkpt>
      <trkpt lat="45.64836" lon="5.87574">
        <ele>237</ele>
        <time>2021-09-12T11:23:25.016Z</time>
      </trkpt>
      <trkpt lat="45.64836" lon="5.87565">
        <ele>237</ele>
        <time>2021-09-12T11:23:26.016Z</time>
      </trkpt>
      <trkpt lat="45.64836" lon="5.87557">
        <ele>237</ele>
        <time>2021-09-12T11:23:27.016Z</time>
      </trkpt>
      <trkpt lat="45.64837" lon="5.87547">
        <ele>237</ele>
        <time>2021-09-12T11:23:28.016Z</time>
      </trkpt>
      <trkpt lat="45.64837" lon="5.87538">
        <ele>237</ele>
        <time>2021-09-12T11:23:29.015Z</time>
      </trkpt>
      <trkpt lat="45.64837" lon="5.87532">
        <ele>237</ele>
        <time>2021-09-12T11:23:30.015Z</time>
      </trkpt>
      <trkpt lat="45.64837" lon="5.87522">
        <ele>237</ele>
        <time>2021-09-12T11:23:31.016Z</time>
      </trkpt>
      <trkpt lat="45.64837" lon="5.87515">
        <ele>237</ele>
        <time>2021-09-12T11:23:32.015Z</time>
      </trkpt>
      <trkpt lat="45.64837" lon="5.87507">
        <ele>237</ele>
        <time>2021-09-12T11:23:33.016Z</time>
      </trkpt>
      <trkpt lat="45.64837" lon="5.87499">
        <ele>238</ele>
        <time>2021-09-12T11:23:34.016Z</time>
      </trkpt>
      <trkpt lat="45.64836" lon="5.8749">
        <ele>238</ele>
        <time>2021-09-12T11:23:35.016Z</time>
      </trkpt>
      <trkpt lat="45.64836" lon="5.87482">
        <ele>238</ele>
        <time>2021-09-12T11:23:36.015Z</time>
      </trkpt>
      <trkpt lat="45.64836" lon="5.87474">
        <ele>238</ele>
        <time>2021-09-12T11:23:37.015Z</time>
      </trkpt>
      <trkpt lat="45.64836" lon="5.87466">
        <ele>238</ele>
        <time>2021-09-12T11:23:38.016Z</time>
      </trkpt>
      <trkpt lat="45.64837" lon="5.87458">
        <ele>238</ele>
        <time>2021-09-12T11:23:39.015Z</time>
      </trkpt>
      <trkpt lat="45.64836" lon="5.8745">
        <ele>238</ele>
        <time>2021-09-12T11:23:40.016Z</time>
      </trkpt>
      <trkpt lat="45.64836" lon="5.87442">
        <ele>237</ele>
        <time>2021-09-12T11:23:41.015Z</time>
      </trkpt>
      <trkpt lat="45.64835" lon="5.87432">
        <ele>237</ele>
        <time>2021-09-12T11:23:42.016Z</time>
      </trkpt>
      <trkpt lat="45.64835" lon="5.87425">
        <ele>237</ele>
        <time>2021-09-12T11:23:43.015Z</time>
      </trkpt>
      <trkpt lat="45.64834" lon="5.87419">
        <ele>238</ele>
        <time>2021-09-12T11:23:44.016Z</time>
      </trkpt>
      <trkpt lat="45.64834" lon="5.87412">
        <ele>238</ele>
        <time>2021-09-12T11:23:45.016Z</time>
      </trkpt>
      <trkpt lat="45.64833" lon="5.87404">
        <ele>238</ele>
        <time>2021-09-12T11:23:46.016Z</time>
      </trkpt>
      <trkpt lat="45.64833" lon="5.87397">
        <ele>238</ele>
        <time>2021-09-12T11:23:47.016Z</time>
      </trkpt>
      <trkpt lat="45.64834" lon="5.87391">
        <ele>238</ele>
        <time>2021-09-12T11:23:48.016Z</time>
      </trkpt>
      <trkpt lat="45.64835" lon="5.87385">
        <ele>239</ele>
        <time>2021-09-12T11:23:49.016Z</time>
      </trkpt>
      <trkpt lat="45.64835" lon="5.87378">
        <ele>239</ele>
        <time>2021-09-12T11:23:50.016Z</time>
      </trkpt>
      <trkpt lat="45.64835" lon="5.87375">
        <ele>239</ele>
        <time>2021-09-12T11:23:51.016Z</time>
      </trkpt>
      <trkpt lat="45.64835" lon="5.87372">
        <ele>239</ele>
        <time>2021-09-12T11:23:52.015Z</time>
      </trkpt>
      <trkpt lat="45.64834" lon="5.8737">
        <ele>239</ele>
        <time>2021-09-12T11:23:53.016Z</time>
      </trkpt>
      <trkpt lat="45.64834" lon="5.87367">
        <ele>239</ele>
        <time>2021-09-12T11:23:54.015Z</time>
      </trkpt>
      <trkpt lat="45.64833" lon="5.87365">
        <ele>240</ele>
        <time>2021-09-12T11:23:55.016Z</time>
      </trkpt>
      <trkpt lat="45.64831" lon="5.87363">
        <ele>240</ele>
        <time>2021-09-12T11:23:56.016Z</time>
      </trkpt>
      <trkpt lat="45.6483" lon="5.87364">
        <ele>241</ele>
        <time>2021-09-12T11:23:57.016Z</time>
      </trkpt>
      <trkpt lat="45.64827" lon="5.87363">
        <ele>241</ele>
        <time>2021-09-12T11:23:58.016Z</time>
      </trkpt>
      <trkpt lat="45.64824" lon="5.87361">
        <ele>241</ele>
        <time>2021-09-12T11:23:59.016Z</time>
      </trkpt>
      <trkpt lat="45.64821" lon="5.87358">
        <ele>240</ele>
        <time>2021-09-12T11:24:00.015Z</time>
      </trkpt>
      <trkpt lat="45.64817" lon="5.87356">
        <ele>240</ele>
        <time>2021-09-12T11:24:01.016Z</time>
      </trkpt>
      <trkpt lat="45.64813" lon="5.87354">
        <ele>240</ele>
        <time>2021-09-12T11:24:02.015Z</time>
      </trkpt>
      <trkpt lat="45.64809" lon="5.87353">
        <ele>240</ele>
        <time>2021-09-12T11:24:03.015Z</time>
      </trkpt>
      <trkpt lat="45.64806" lon="5.87353">
        <ele>240</ele>
        <time>2021-09-12T11:24:04.015Z</time>
      </trkpt>
      <trkpt lat="45.64802" lon="5.87354">
        <ele>240</ele>
        <time>2021-09-12T11:24:05.016Z</time>
      </trkpt>
      <trkpt lat="45.64798" lon="5.87356">
        <ele>241</ele>
        <time>2021-09-12T11:24:06.016Z</time>
      </trkpt>
      <trkpt lat="45.64794" lon="5.87359">
        <ele>241</ele>
        <time>2021-09-12T11:24:07.015Z</time>
      </trkpt>
      <trkpt lat="45.64791" lon="5.8736">
        <ele>241</ele>
        <time>2021-09-12T11:24:08.016Z</time>
      </trkpt>
      <trkpt lat="45.64786" lon="5.87361">
        <ele>241</ele>
        <time>2021-09-12T11:24:09.016Z</time>
      </trkpt>
      <trkpt lat="45.64782" lon="5.8736">
        <ele>241</ele>
        <time>2021-09-12T11:24:10.016Z</time>
      </trkpt>
      <trkpt lat="45.64778" lon="5.87358">
        <ele>241</ele>
        <time>2021-09-12T11:24:11.016Z</time>
      </trkpt>
      <trkpt lat="45.64774" lon="5.87354">
        <ele>241</ele>
        <time>2021-09-12T11:24:12.015Z</time>
      </trkpt>
      <trkpt lat="45.6477" lon="5.87349">
        <ele>241</ele>
        <time>2021-09-12T11:24:13.016Z</time>
      </trkpt>
      <trkpt lat="45.64767" lon="5.87345">
        <ele>241</ele>
        <time>2021-09-12T11:24:14.016Z</time>
      </trkpt>
      <trkpt lat="45.64763" lon="5.87341">
        <ele>241</ele>
        <time>2021-09-12T11:24:15.016Z</time>
      </trkpt>
      <trkpt lat="45.64759" lon="5.87337">
        <ele>241</ele>
        <time>2021-09-12T11:24:16.015Z</time>
      </trkpt>
      <trkpt lat="45.64756" lon="5.87331">
        <ele>241</ele>
        <time>2021-09-12T11:24:17.015Z</time>
      </trkpt>
      <trkpt lat="45.64753" lon="5.87326">
        <ele>242</ele>
        <time>2021-09-12T11:24:18.016Z</time>
      </trkpt>
      <trkpt lat="45.6475" lon="5.87321">
        <ele>242</ele>
        <time>2021-09-12T11:24:19.016Z</time>
      </trkpt>
      <trkpt lat="45.64746" lon="5.87315">
        <ele>243</ele>
        <time>2021-09-12T11:24:20.016Z</time>
      </trkpt>
      <trkpt lat="45.64742" lon="5.87309">
        <ele>243</ele>
        <time>2021-09-12T11:24:21.015Z</time>
      </trkpt>
      <trkpt lat="45.64738" lon="5.87305">
        <ele>243</ele>
        <time>2021-09-12T11:24:22.016Z</time>
      </trkpt>
      <trkpt lat="45.64735" lon="5.87301">
        <ele>243</ele>
        <time>2021-09-12T11:24:23.016Z</time>
      </trkpt>
      <trkpt lat="45.64731" lon="5.87296">
        <ele>243</ele>
        <time>2021-09-12T11:24:24.015Z</time>
      </trkpt>
      <trkpt lat="45.64727" lon="5.87291">
        <ele>244</ele>
        <time>2021-09-12T11:24:25.015Z</time>
      </trkpt>
      <trkpt lat="45.64723" lon="5.87284">
        <ele>244</ele>
        <time>2021-09-12T11:24:26.016Z</time>
      </trkpt>
      <trkpt lat="45.64719" lon="5.8728">
        <ele>244</ele>
        <time>2021-09-12T11:24:27.016Z</time>
      </trkpt>
      <trkpt lat="45.64715" lon="5.87275">
        <ele>244</ele>
        <time>2021-09-12T11:24:28.015Z</time>
      </trkpt>
      <trkpt lat="45.6471" lon="5.87268">
        <ele>245</ele>
        <time>2021-09-12T11:24:29.016Z</time>
      </trkpt>
      <trkpt lat="45.64706" lon="5.87263">
        <ele>245</ele>
        <time>2021-09-12T11:24:30.016Z</time>
      </trkpt>
      <trkpt lat="45.64703" lon="5.87258">
        <ele>245</ele>
        <time>2021-09-12T11:24:31.015Z</time>
      </trkpt>
      <trkpt lat="45.64699" lon="5.87253">
        <ele>245</ele>
        <time>2021-09-12T11:24:32.016Z</time>
      </trkpt>
      <trkpt lat="45.64695" lon="5.87247">
        <ele>245</ele>
        <time>2021-09-12T11:24:33.016Z</time>
      </trkpt>
      <trkpt lat="45.6469" lon="5.87241">
        <ele>245</ele>
        <time>2021-09-12T11:24:34.015Z</time>
      </trkpt>
      <trkpt lat="45.64686" lon="5.87237">
        <ele>244</ele>
        <time>2021-09-12T11:24:35.015Z</time>
      </trkpt>
      <trkpt lat="45.64682" lon="5.87232">
        <ele>244</ele>
        <time>2021-09-12T11:24:36.016Z</time>
      </trkpt>
      <trkpt lat="45.64678" lon="5.87227">
        <ele>244</ele>
        <time>2021-09-12T11:24:37.016Z</time>
      </trkpt>
      <trkpt lat="45.64674" lon="5.87222">
        <ele>243</ele>
        <time>2021-09-12T11:24:38.016Z</time>
      </trkpt>
      <trkpt lat="45.64671" lon="5.87217">
        <ele>243</ele>
        <time>2021-09-12T11:24:39.016Z</time>
      </trkpt>
      <trkpt lat="45.64667" lon="5.87211">
        <ele>243</ele>
        <time>2021-09-12T11:24:40.016Z</time>
      </trkpt>
      <trkpt lat="45.64663" lon="5.87205">
        <ele>244</ele>
        <time>2021-09-12T11:24:41.016Z</time>
      </trkpt>
      <trkpt lat="45.64659" lon="5.872">
        <ele>244</ele>
        <time>2021-09-12T11:24:42.015Z</time>
      </trkpt>
      <trkpt lat="45.64655" lon="5.87195">
        <ele>244</ele>
        <time>2021-09-12T11:24:43.016Z</time>
      </trkpt>
      <trkpt lat="45.6465" lon="5.87189">
        <ele>244</ele>
        <time>2021-09-12T11:24:44.016Z</time>
      </trkpt>
      <trkpt lat="45.64646" lon="5.87185">
        <ele>244</ele>
        <time>2021-09-12T11:24:45.016Z</time>
      </trkpt>
      <trkpt lat="45.64643" lon="5.87179">
        <ele>244</ele>
        <time>2021-09-12T11:24:46.015Z</time>
      </trkpt>
      <trkpt lat="45.6464" lon="5.87172">
        <ele>243</ele>
        <time>2021-09-12T11:24:47.016Z</time>
      </trkpt>
      <trkpt lat="45.64638" lon="5.87166">
        <ele>243</ele>
        <time>2021-09-12T11:24:48.015Z</time>
      </trkpt>
      <trkpt lat="45.64636" lon="5.87158">
        <ele>243</ele>
        <time>2021-09-12T11:24:49.016Z</time>
      </trkpt>
      <trkpt lat="45.64634" lon="5.87151">
        <ele>243</ele>
        <time>2021-09-12T11:24:50.016Z</time>
      </trkpt>
      <trkpt lat="45.6463" lon="5.87147">
        <ele>243</ele>
        <time>2021-09-12T11:24:51.016Z</time>
      </trkpt>
      <trkpt lat="45.64626" lon="5.87144">
        <ele>243</ele>
        <time>2021-09-12T11:24:52.016Z</time>
      </trkpt>
      <trkpt lat="45.64621" lon="5.87141">
        <ele>243</ele>
        <time>2021-09-12T11:24:53.016Z</time>
      </trkpt>
      <trkpt lat="45.64616" lon="5.87139">
        <ele>242</ele>
        <time>2021-09-12T11:24:54.016Z</time>
      </trkpt>
      <trkpt lat="45.64611" lon="5.87135">
        <ele>242</ele>
        <time>2021-09-12T11:24:55.016Z</time>
      </trkpt>
      <trkpt lat="45.64607" lon="5.8713">
        <ele>242</ele>
        <time>2021-09-12T11:24:56.016Z</time>
      </trkpt>
      <trkpt lat="45.64603" lon="5.87126">
        <ele>242</ele>
        <time>2021-09-12T11:24:57.016Z</time>
      </trkpt>
      <trkpt lat="45.64598" lon="5.8712">
        <ele>242</ele>
        <time>2021-09-12T11:24:58.015Z</time>
      </trkpt>
      <trkpt lat="45.64595" lon="5.87115">
        <ele>242</ele>
        <time>2021-09-12T11:24:59.016Z</time>
      </trkpt>
      <trkpt lat="45.64591" lon="5.8711">
        <ele>243</ele>
        <time>2021-09-12T11:25:00.015Z</time>
      </trkpt>
      <trkpt lat="45.64587" lon="5.87105">
        <ele>243</ele>
        <time>2021-09-12T11:25:01.016Z</time>
      </trkpt>
      <trkpt lat="45.64583" lon="5.87099">
        <ele>244</ele>
        <time>2021-09-12T11:25:02.016Z</time>
      </trkpt>
      <trkpt lat="45.64579" lon="5.87095">
        <ele>244</ele>
        <time>2021-09-12T11:25:03.016Z</time>
      </trkpt>
      <trkpt lat="45.64575" lon="5.8709">
        <ele>245</ele>
        <time>2021-09-12T11:25:04.015Z</time>
      </trkpt>
      <trkpt lat="45.6457" lon="5.87086">
        <ele>245</ele>
        <time>2021-09-12T11:25:05.016Z</time>
      </trkpt>
      <trkpt lat="45.64566" lon="5.8708">
        <ele>245</ele>
        <time>2021-09-12T11:25:06.016Z</time>
      </trkpt>
      <trkpt lat="45.64563" lon="5.87075">
        <ele>244</ele>
        <time>2021-09-12T11:25:07.015Z</time>
      </trkpt>
      <trkpt lat="45.64559" lon="5.87071">
        <ele>244</ele>
        <time>2021-09-12T11:25:08.016Z</time>
      </trkpt>
      <trkpt lat="45.64555" lon="5.87065">
        <ele>244</ele>
        <time>2021-09-12T11:25:09.016Z</time>
      </trkpt>
      <trkpt lat="45.64551" lon="5.8706">
        <ele>244</ele>
        <time>2021-09-12T11:25:10.016Z</time>
      </trkpt>
      <trkpt lat="45.64547" lon="5.87055">
        <ele>244</ele>
        <time>2021-09-12T11:25:11.015Z</time>
      </trkpt>
      <trkpt lat="45.64542" lon="5.87049">
        <ele>244</ele>
        <time>2021-09-12T11:25:12.015Z</time>
      </trkpt>
      <trkpt lat="45.64539" lon="5.87045">
        <ele>243</ele>
        <time>2021-09-12T11:25:13.016Z</time>
      </trkpt>
      <trkpt lat="45.64535" lon="5.8704">
        <ele>243</ele>
        <time>2021-09-12T11:25:14.016Z</time>
      </trkpt>
      <trkpt lat="45.64531" lon="5.87033">
        <ele>243</ele>
        <time>2021-09-12T11:25:15.015Z</time>
      </trkpt>
      <trkpt lat="45.64527" lon="5.87028">
        <ele>243</ele>
        <time>2021-09-12T11:25:16.016Z</time>
      </trkpt>
      <trkpt lat="45.64523" lon="5.87023">
        <ele>242</ele>
        <time>2021-09-12T11:25:17.016Z</time>
      </trkpt>
      <trkpt lat="45.6452" lon="5.87018">
        <ele>242</ele>
        <time>2021-09-12T11:25:18.015Z</time>
      </trkpt>
      <trkpt lat="45.64516" lon="5.87013">
        <ele>242</ele>
        <time>2021-09-12T11:25:19.016Z</time>
      </trkpt>
      <trkpt lat="45.64512" lon="5.87007">
        <ele>242</ele>
        <time>2021-09-12T11:25:20.016Z</time>
      </trkpt>
      <trkpt lat="45.64508" lon="5.87002">
        <ele>241</ele>
        <time>2021-09-12T11:25:21.016Z</time>
      </trkpt>
      <trkpt lat="45.64504" lon="5.86997">
        <ele>241</ele>
        <time>2021-09-12T11:25:22.016Z</time>
      </trkpt>
      <trkpt lat="45.645" lon="5.86992">
        <ele>241</ele>
        <time>2021-09-12T11:25:23.016Z</time>
      </trkpt>
      <trkpt lat="45.64496" lon="5.86987">
        <ele>241</ele>
        <time>2021-09-12T11:25:24.016Z</time>
      </trkpt>
      <trkpt lat="45.64492" lon="5.86982">
        <ele>241</ele>
        <time>2021-09-12T11:25:25.016Z</time>
      </trkpt>
      <trkpt lat="45.64487" lon="5.86976">
        <ele>241</ele>
        <time>2021-09-12T11:25:26.016Z</time>
      </trkpt>
      <trkpt lat="45.64484" lon="5.86972">
        <ele>241</ele>
        <time>2021-09-12T11:25:27.016Z</time>
      </trkpt>
      <trkpt lat="45.64482" lon="5.86966">
        <ele>241</ele>
        <time>2021-09-12T11:25:28.016Z</time>
      </trkpt>
      <trkpt lat="45.64479" lon="5.86958">
        <ele>240</ele>
        <time>2021-09-12T11:25:29.016Z</time>
      </trkpt>
      <trkpt lat="45.64477" lon="5.86952">
        <ele>240</ele>
        <time>2021-09-12T11:25:30.016Z</time>
      </trkpt>
      <trkpt lat="45.64475" lon="5.86948">
        <ele>240</ele>
        <time>2021-09-12T11:25:31.016Z</time>
      </trkpt>
      <trkpt lat="45.64471" lon="5.86943">
        <ele>240</ele>
        <time>2021-09-12T11:25:32.016Z</time>
      </trkpt>
      <trkpt lat="45.64468" lon="5.86937">
        <ele>239</ele>
        <time>2021-09-12T11:25:33.015Z</time>
      </trkpt>
      <trkpt lat="45.64465" lon="5.86931">
        <ele>239</ele>
        <time>2021-09-12T11:25:34.015Z</time>
      </trkpt>
      <trkpt lat="45.64462" lon="5.86923">
        <ele>239</ele>
        <time>2021-09-12T11:25:35.015Z</time>
      </trkpt>
      <trkpt lat="45.64461" lon="5.86918">
        <ele>239</ele>
        <time>2021-09-12T11:25:36.015Z</time>
      </trkpt>
      <trkpt lat="45.64459" lon="5.86911">
        <ele>239</ele>
        <time>2021-09-12T11:25:37.016Z</time>
      </trkpt>
      <trkpt lat="45.64458" lon="5.86902">
        <ele>239</ele>
        <time>2021-09-12T11:25:38.015Z</time>
      </trkpt>
      <trkpt lat="45.64456" lon="5.86895">
        <ele>239</ele>
        <time>2021-09-12T11:25:39.016Z</time>
      </trkpt>
      <trkpt lat="45.64455" lon="5.86889">
        <ele>239</ele>
        <time>2021-09-12T11:25:40.016Z</time>
      </trkpt>
      <trkpt lat="45.64453" lon="5.86882">
        <ele>239</ele>
        <time>2021-09-12T11:25:41.015Z</time>
      </trkpt>
      <trkpt lat="45.64452" lon="5.86875">
        <ele>239</ele>
        <time>2021-09-12T11:25:42.016Z</time>
      </trkpt>
      <trkpt lat="45.64451" lon="5.86867">
        <ele>239</ele>
        <time>2021-09-12T11:25:43.015Z</time>
      </trkpt>
      <trkpt lat="45.64449" lon="5.8686">
        <ele>239</ele>
        <time>2021-09-12T11:25:44.016Z</time>
      </trkpt>
      <trkpt lat="45.64448" lon="5.86852">
        <ele>238</ele>
        <time>2021-09-12T11:25:45.016Z</time>
      </trkpt>
      <trkpt lat="45.64446" lon="5.86845">
        <ele>238</ele>
        <time>2021-09-12T11:25:46.015Z</time>
      </trkpt>
      <trkpt lat="45.64445" lon="5.86837">
        <ele>238</ele>
        <time>2021-09-12T11:25:47.016Z</time>
      </trkpt>
      <trkpt lat="45.64443" lon="5.8683">
        <ele>239</ele>
        <time>2021-09-12T11:25:48.016Z</time>
      </trkpt>
      <trkpt lat="45.64442" lon="5.86823">
        <ele>239</ele>
        <time>2021-09-12T11:25:49.016Z</time>
      </trkpt>
      <trkpt lat="45.6444" lon="5.86816">
        <ele>238</ele>
        <time>2021-09-12T11:25:50.016Z</time>
      </trkpt>
      <trkpt lat="45.64439" lon="5.86808">
        <ele>238</ele>
        <time>2021-09-12T11:25:51.015Z</time>
      </trkpt>
      <trkpt lat="45.64437" lon="5.868">
        <ele>238</ele>
        <time>2021-09-12T11:25:52.016Z</time>
      </trkpt>
      <trkpt lat="45.64436" lon="5.86794">
        <ele>238</ele>
        <time>2021-09-12T11:25:53.015Z</time>
      </trkpt>
      <trkpt lat="45.64434" lon="5.86787">
        <ele>239</ele>
        <time>2021-09-12T11:25:54.016Z</time>
      </trkpt>
      <trkpt lat="45.64433" lon="5.8678">
        <ele>239</ele>
        <time>2021-09-12T11:25:55.016Z</time>
      </trkpt>
      <trkpt lat="45.64432" lon="5.86773">
        <ele>239</ele>
        <time>2021-09-12T11:25:56.015Z</time>
      </trkpt>
      <trkpt lat="45.6443" lon="5.86766">
        <ele>239</ele>
        <time>2021-09-12T11:25:57.016Z</time>
      </trkpt>
      <trkpt lat="45.64429" lon="5.86759">
        <ele>240</ele>
        <time>2021-09-12T11:25:58.016Z</time>
      </trkpt>
      <trkpt lat="45.64428" lon="5.86752">
        <ele>240</ele>
        <time>2021-09-12T11:25:59.016Z</time>
      </trkpt>
      <trkpt lat="45.64426" lon="5.86745">
        <ele>240</ele>
        <time>2021-09-12T11:26:00.015Z</time>
      </trkpt>
      <trkpt lat="45.64425" lon="5.86738">
        <ele>241</ele>
        <time>2021-09-12T11:26:01.016Z</time>
      </trkpt>
      <trkpt lat="45.64424" lon="5.86731">
        <ele>241</ele>
        <time>2021-09-12T11:26:02.016Z</time>
      </trkpt>
      <trkpt lat="45.64423" lon="5.86725">
        <ele>240</ele>
        <time>2021-09-12T11:26:03.015Z</time>
      </trkpt>
      <trkpt lat="45.64422" lon="5.86718">
        <ele>240</ele>
        <time>2021-09-12T11:26:04.016Z</time>
      </trkpt>
      <trkpt lat="45.6442" lon="5.86712">
        <ele>240</ele>
        <time>2021-09-12T11:26:05.016Z</time>
      </trkpt>
      <trkpt lat="45.64419" lon="5.86705">
        <ele>240</ele>
        <time>2021-09-12T11:26:06.016Z</time>
      </trkpt>
      <trkpt lat="45.64418" lon="5.86699">
        <ele>240</ele>
        <time>2021-09-12T11:26:07.016Z</time>
      </trkpt>
      <trkpt lat="45.64416" lon="5.86694">
        <ele>240</ele>
        <time>2021-09-12T11:26:08.016Z</time>
      </trkpt>
      <trkpt lat="45.64414" lon="5.86688">
        <ele>241</ele>
        <time>2021-09-12T11:26:09.016Z</time>
      </trkpt>
      <trkpt lat="45.64412" lon="5.86682">
        <ele>241</ele>
        <time>2021-09-12T11:26:10.015Z</time>
      </trkpt>
      <trkpt lat="45.6441" lon="5.86677">
        <ele>241</ele>
        <time>2021-09-12T11:26:11.016Z</time>
      </trkpt>
      <trkpt lat="45.64408" lon="5.86672">
        <ele>241</ele>
        <time>2021-09-12T11:26:12.016Z</time>
      </trkpt>
      <trkpt lat="45.64406" lon="5.86669">
        <ele>240</ele>
        <time>2021-09-12T11:26:13.015Z</time>
      </trkpt>
      <trkpt lat="45.64403" lon="5.86666">
        <ele>240</ele>
        <time>2021-09-12T11:26:14.016Z</time>
      </trkpt>
      <trkpt lat="45.64402" lon="5.86665">
        <ele>240</ele>
        <time>2021-09-12T11:26:15.016Z</time>
      </trkpt>
      <trkpt lat="45.64401" lon="5.86666">
        <ele>240</ele>
        <time>2021-09-12T11:26:16.016Z</time>
      </trkpt>
      <trkpt lat="45.64398" lon="5.86667">
        <ele>240</ele>
        <time>2021-09-12T11:26:17.015Z</time>
      </trkpt>
      <trkpt lat="45.64395" lon="5.8667">
        <ele>240</ele>
        <time>2021-09-12T11:26:18.016Z</time>
      </trkpt>
      <trkpt lat="45.64392" lon="5.86673">
        <ele>241</ele>
        <time>2021-09-12T11:26:19.016Z</time>
      </trkpt>
      <trkpt lat="45.64389" lon="5.86675">
        <ele>241</ele>
        <time>2021-09-12T11:26:20.016Z</time>
      </trkpt>
      <trkpt lat="45.64386" lon="5.86677">
        <ele>242</ele>
        <time>2021-09-12T11:26:21.016Z</time>
      </trkpt>
      <trkpt lat="45.64381" lon="5.86678">
        <ele>242</ele>
        <time>2021-09-12T11:26:22.016Z</time>
      </trkpt>
      <trkpt lat="45.64378" lon="5.86679">
        <ele>242</ele>
        <time>2021-09-12T11:26:23.016Z</time>
      </trkpt>
      <trkpt lat="45.64374" lon="5.86681">
        <ele>243</ele>
        <time>2021-09-12T11:26:24.015Z</time>
      </trkpt>
      <trkpt lat="45.64371" lon="5.86682">
        <ele>243</ele>
        <time>2021-09-12T11:26:25.016Z</time>
      </trkpt>
      <trkpt lat="45.64367" lon="5.86683">
        <ele>244</ele>
        <time>2021-09-12T11:26:26.016Z</time>
      </trkpt>
      <trkpt lat="45.64364" lon="5.86684">
        <ele>243</ele>
        <time>2021-09-12T11:26:27.016Z</time>
      </trkpt>
      <trkpt lat="45.6436" lon="5.86686">
        <ele>243</ele>
        <time>2021-09-12T11:26:28.016Z</time>
      </trkpt>
      <trkpt lat="45.64356" lon="5.86688">
        <ele>243</ele>
        <time>2021-09-12T11:26:29.016Z</time>
      </trkpt>
      <trkpt lat="45.64352" lon="5.8669">
        <ele>243</ele>
        <time>2021-09-12T11:26:30.016Z</time>
      </trkpt>
      <trkpt lat="45.64348" lon="5.86692">
        <ele>243</ele>
        <time>2021-09-12T11:26:31.015Z</time>
      </trkpt>
      <trkpt lat="45.64344" lon="5.86695">
        <ele>243</ele>
        <time>2021-09-12T11:26:32.016Z</time>
      </trkpt>
      <trkpt lat="45.64339" lon="5.86697">
        <ele>242</ele>
        <time>2021-09-12T11:26:33.016Z</time>
      </trkpt>
      <trkpt lat="45.64335" lon="5.867">
        <ele>242</ele>
        <time>2021-09-12T11:26:34.015Z</time>
      </trkpt>
      <trkpt lat="45.64331" lon="5.86703">
        <ele>242</ele>
        <time>2021-09-12T11:26:35.016Z</time>
      </trkpt>
      <trkpt lat="45.64326" lon="5.86706">
        <ele>242</ele>
        <time>2021-09-12T11:26:36.016Z</time>
      </trkpt>
      <trkpt lat="45.64322" lon="5.86708">
        <ele>242</ele>
        <time>2021-09-12T11:26:37.016Z</time>
      </trkpt>
      <trkpt lat="45.64317" lon="5.86711">
        <ele>242</ele>
        <time>2021-09-12T11:26:38.016Z</time>
      </trkpt>
      <trkpt lat="45.64311" lon="5.86713">
        <ele>242</ele>
        <time>2021-09-12T11:26:39.016Z</time>
      </trkpt>
      <trkpt lat="45.64306" lon="5.86716">
        <ele>242</ele>
        <time>2021-09-12T11:26:40.016Z</time>
      </trkpt>
      <trkpt lat="45.643" lon="5.86719">
        <ele>243</ele>
        <time>2021-09-12T11:26:41.016Z</time>
      </trkpt>
      <trkpt lat="45.64295" lon="5.86721">
        <ele>243</ele>
        <time>2021-09-12T11:26:42.016Z</time>
      </trkpt>
      <trkpt lat="45.6429" lon="5.86724">
        <ele>243</ele>
        <time>2021-09-12T11:26:43.016Z</time>
      </trkpt>
      <trkpt lat="45.64286" lon="5.86726">
        <ele>243</ele>
        <time>2021-09-12T11:26:44.016Z</time>
      </trkpt>
      <trkpt lat="45.64282" lon="5.86728">
        <ele>243</ele>
        <time>2021-09-12T11:26:45.016Z</time>
      </trkpt>
      <trkpt lat="45.64277" lon="5.86731">
        <ele>243</ele>
        <time>2021-09-12T11:26:46.015Z</time>
      </trkpt>
      <trkpt lat="45.64273" lon="5.86735">
        <ele>242</ele>
        <time>2021-09-12T11:26:47.016Z</time>
      </trkpt>
      <trkpt lat="45.6427" lon="5.86737">
        <ele>242</ele>
        <time>2021-09-12T11:26:48.015Z</time>
      </trkpt>
      <trkpt lat="45.64265" lon="5.86739">
        <ele>242</ele>
        <time>2021-09-12T11:26:49.015Z</time>
      </trkpt>
      <trkpt lat="45.6426" lon="5.86742">
        <ele>242</ele>
        <time>2021-09-12T11:26:50.016Z</time>
      </trkpt>
      <trkpt lat="45.64255" lon="5.86745">
        <ele>242</ele>
        <time>2021-09-12T11:26:51.016Z</time>
      </trkpt>
      <trkpt lat="45.6425" lon="5.86748">
        <ele>242</ele>
        <time>2021-09-12T11:26:52.015Z</time>
      </trkpt>
      <trkpt lat="45.64246" lon="5.86751">
        <ele>243</ele>
        <time>2021-09-12T11:26:53.015Z</time>
      </trkpt>
      <trkpt lat="45.64243" lon="5.86753">
        <ele>243</ele>
        <time>2021-09-12T11:26:54.016Z</time>
      </trkpt>
      <trkpt lat="45.64239" lon="5.86756">
        <ele>243</ele>
        <time>2021-09-12T11:26:55.016Z</time>
      </trkpt>
      <trkpt lat="45.64235" lon="5.86758">
        <ele>243</ele>
        <time>2021-09-12T11:26:56.015Z</time>
      </trkpt>
      <trkpt lat="45.64231" lon="5.8676">
        <ele>243</ele>
        <time>2021-09-12T11:26:57.015Z</time>
      </trkpt>
      <trkpt lat="45.64228" lon="5.86761">
        <ele>243</ele>
        <time>2021-09-12T11:26:58.016Z</time>
      </trkpt>
      <trkpt lat="45.64225" lon="5.86761">
        <ele>243</ele>
        <time>2021-09-12T11:26:59.016Z</time>
      </trkpt>
      <trkpt lat="45.64221" lon="5.86763">
        <ele>244</ele>
        <time>2021-09-12T11:27:00.016Z</time>
      </trkpt>
      <trkpt lat="45.64217" lon="5.86765">
        <ele>244</ele>
        <time>2021-09-12T11:27:01.016Z</time>
      </trkpt>
      <trkpt lat="45.64213" lon="5.86768">
        <ele>244</ele>
        <time>2021-09-12T11:27:02.015Z</time>
      </trkpt>
      <trkpt lat="45.64209" lon="5.8677">
        <ele>244</ele>
        <time>2021-09-12T11:27:03.016Z</time>
      </trkpt>
      <trkpt lat="45.64206" lon="5.86771">
        <ele>244</ele>
        <time>2021-09-12T11:27:04.016Z</time>
      </trkpt>
      <trkpt lat="45.64202" lon="5.86771">
        <ele>244</ele>
        <time>2021-09-12T11:27:05.016Z</time>
      </trkpt>
      <trkpt lat="45.64199" lon="5.86773">
        <ele>243</ele>
        <time>2021-09-12T11:27:06.016Z</time>
      </trkpt>
      <trkpt lat="45.64194" lon="5.86774">
        <ele>243</ele>
        <time>2021-09-12T11:27:07.015Z</time>
      </trkpt>
      <trkpt lat="45.64191" lon="5.86776">
        <ele>243</ele>
        <time>2021-09-12T11:27:08.016Z</time>
      </trkpt>
      <trkpt lat="45.64188" lon="5.86777">
        <ele>243</ele>
        <time>2021-09-12T11:27:09.015Z</time>
      </trkpt>
      <trkpt lat="45.64183" lon="5.86778">
        <ele>243</ele>
        <time>2021-09-12T11:27:10.015Z</time>
      </trkpt>
      <trkpt lat="45.64179" lon="5.8678">
        <ele>243</ele>
        <time>2021-09-12T11:27:11.015Z</time>
      </trkpt>
      <trkpt lat="45.64175" lon="5.86783">
        <ele>243</ele>
        <time>2021-09-12T11:27:12.015Z</time>
      </trkpt>
      <trkpt lat="45.6417" lon="5.86786">
        <ele>243</ele>
        <time>2021-09-12T11:27:13.015Z</time>
      </trkpt>
      <trkpt lat="45.64167" lon="5.86788">
        <ele>243</ele>
        <time>2021-09-12T11:27:14.015Z</time>
      </trkpt>
      <trkpt lat="45.64163" lon="5.86791">
        <ele>243</ele>
        <time>2021-09-12T11:27:15.016Z</time>
      </trkpt>
      <trkpt lat="45.64158" lon="5.86794">
        <ele>243</ele>
        <time>2021-09-12T11:27:16.016Z</time>
      </trkpt>
      <trkpt lat="45.64154" lon="5.86797">
        <ele>243</ele>
        <time>2021-09-12T11:27:17.015Z</time>
      </trkpt>
      <trkpt lat="45.6415" lon="5.868">
        <ele>243</ele>
        <time>2021-09-12T11:27:18.016Z</time>
      </trkpt>
      <trkpt lat="45.64147" lon="5.86803">
        <ele>244</ele>
        <time>2021-09-12T11:27:19.016Z</time>
      </trkpt>
      <trkpt lat="45.64142" lon="5.86806">
        <ele>244</ele>
        <time>2021-09-12T11:27:20.016Z</time>
      </trkpt>
      <trkpt lat="45.64136" lon="5.86809">
        <ele>244</ele>
        <time>2021-09-12T11:27:21.016Z</time>
      </trkpt>
      <trkpt lat="45.64132" lon="5.86812">
        <ele>244</ele>
        <time>2021-09-12T11:27:22.016Z</time>
      </trkpt>
      <trkpt lat="45.64127" lon="5.86814">
        <ele>244</ele>
        <time>2021-09-12T11:27:23.016Z</time>
      </trkpt>
      <trkpt lat="45.64123" lon="5.86816">
        <ele>245</ele>
        <time>2021-09-12T11:27:24.015Z</time>
      </trkpt>
      <trkpt lat="45.64118" lon="5.86819">
        <ele>245</ele>
        <time>2021-09-12T11:27:25.016Z</time>
      </trkpt>
      <trkpt lat="45.64111" lon="5.86824">
        <ele>245</ele>
        <time>2021-09-12T11:27:26.016Z</time>
      </trkpt>
      <trkpt lat="45.64106" lon="5.86827">
        <ele>246</ele>
        <time>2021-09-12T11:27:27.016Z</time>
      </trkpt>
      <trkpt lat="45.64102" lon="5.8683">
        <ele>246</ele>
        <time>2021-09-12T11:27:28.016Z</time>
      </trkpt>
      <trkpt lat="45.64098" lon="5.86833">
        <ele>246</ele>
        <time>2021-09-12T11:27:29.015Z</time>
      </trkpt>
      <trkpt lat="45.64092" lon="5.86837">
        <ele>246</ele>
        <time>2021-09-12T11:27:30.015Z</time>
      </trkpt>
      <trkpt lat="45.64086" lon="5.86841">
        <ele>245</ele>
        <time>2021-09-12T11:35:22.013Z</time>
      </trkpt>
      <trkpt lat="45.64082" lon="5.86843">
        <ele>245</ele>
        <time>2021-09-12T11:35:23.013Z</time>
      </trkpt>
      <trkpt lat="45.64078" lon="5.86845">
        <ele>245</ele>
        <time>2021-09-12T11:35:24.013Z</time>
      </trkpt>
      <trkpt lat="45.64075" lon="5.86847">
        <ele>245</ele>
        <time>2021-09-12T11:35:25.013Z</time>
      </trkpt>
      <trkpt lat="45.64071" lon="5.86849">
        <ele>245</ele>
        <time>2021-09-12T11:35:26.013Z</time>
      </trkpt>
      <trkpt lat="45.64066" lon="5.86852">
        <ele>245</ele>
        <time>2021-09-12T11:35:27.012Z</time>
      </trkpt>
      <trkpt lat="45.64062" lon="5.86856">
        <ele>245</ele>
        <time>2021-09-12T11:35:28.012Z</time>
      </trkpt>
      <trkpt lat="45.64057" lon="5.8686">
        <ele>246</ele>
        <time>2021-09-12T11:35:29.013Z</time>
      </trkpt>
      <trkpt lat="45.64053" lon="5.86863">
        <ele>246</ele>
        <time>2021-09-12T11:35:30.013Z</time>
      </trkpt>
      <trkpt lat="45.64049" lon="5.86866">
        <ele>246</ele>
        <time>2021-09-12T11:35:31.013Z</time>
      </trkpt>
      <trkpt lat="45.64043" lon="5.8687">
        <ele>246</ele>
        <time>2021-09-12T11:35:32.013Z</time>
      </trkpt>
      <trkpt lat="45.64038" lon="5.86873">
        <ele>246</ele>
        <time>2021-09-12T11:35:33.013Z</time>
      </trkpt>
      <trkpt lat="45.64033" lon="5.86876">
        <ele>246</ele>
        <time>2021-09-12T11:35:34.013Z</time>
      </trkpt>
      <trkpt lat="45.64028" lon="5.86879">
        <ele>246</ele>
        <time>2021-09-12T11:35:35.013Z</time>
      </trkpt>
      <trkpt lat="45.64024" lon="5.86883">
        <ele>246</ele>
        <time>2021-09-12T11:35:36.013Z</time>
      </trkpt>
      <trkpt lat="45.64017" lon="5.86887">
        <ele>246</ele>
        <time>2021-09-12T11:35:37.012Z</time>
      </trkpt>
      <trkpt lat="45.64012" lon="5.86889">
        <ele>246</ele>
        <time>2021-09-12T11:35:38.012Z</time>
      </trkpt>
      <trkpt lat="45.64005" lon="5.86892">
        <ele>247</ele>
        <time>2021-09-12T11:35:39.013Z</time>
      </trkpt>
      <trkpt lat="45.64002" lon="5.86892">
        <ele>247</ele>
        <time>2021-09-12T11:35:40.013Z</time>
      </trkpt>
      <trkpt lat="45.63997" lon="5.86893">
        <ele>247</ele>
        <time>2021-09-12T11:35:41.013Z</time>
      </trkpt>
      <trkpt lat="45.6399" lon="5.86894">
        <ele>247</ele>
        <time>2021-09-12T11:35:42.012Z</time>
      </trkpt>
      <trkpt lat="45.63983" lon="5.86896">
        <ele>247</ele>
        <time>2021-09-12T11:35:43.012Z</time>
      </trkpt>
      <trkpt lat="45.63977" lon="5.86898">
        <ele>247</ele>
        <time>2021-09-12T11:35:44.013Z</time>
      </trkpt>
      <trkpt lat="45.63971" lon="5.86901">
        <ele>247</ele>
        <time>2021-09-12T11:35:45.013Z</time>
      </trkpt>
      <trkpt lat="45.63965" lon="5.86902">
        <ele>247</ele>
        <time>2021-09-12T11:35:46.013Z</time>
      </trkpt>
      <trkpt lat="45.63959" lon="5.86902">
        <ele>248</ele>
        <time>2021-09-12T11:35:47.013Z</time>
      </trkpt>
      <trkpt lat="45.63952" lon="5.86902">
        <ele>248</ele>
        <time>2021-09-12T11:35:48.013Z</time>
      </trkpt>
      <trkpt lat="45.63947" lon="5.86902">
        <ele>248</ele>
        <time>2021-09-12T11:35:49.013Z</time>
      </trkpt>
      <trkpt lat="45.63941" lon="5.86902">
        <ele>248</ele>
        <time>2021-09-12T11:35:50.013Z</time>
      </trkpt>
      <trkpt lat="45.63934" lon="5.86903">
        <ele>248</ele>
        <time>2021-09-12T11:35:51.013Z</time>
      </trkpt>
      <trkpt lat="45.63929" lon="5.86904">
        <ele>248</ele>
        <time>2021-09-12T11:35:52.013Z</time>
      </trkpt>
      <trkpt lat="45.63925" lon="5.86907">
        <ele>249</ele>
        <time>2021-09-12T11:35:53.013Z</time>
      </trkpt>
      <trkpt lat="45.63921" lon="5.8691">
        <ele>249</ele>
        <time>2021-09-12T11:35:54.013Z</time>
      </trkpt>
      <trkpt lat="45.63916" lon="5.86915">
        <ele>249</ele>
        <time>2021-09-12T11:35:55.012Z</time>
      </trkpt>
      <trkpt lat="45.63913" lon="5.86921">
        <ele>249</ele>
        <time>2021-09-12T11:35:56.013Z</time>
      </trkpt>
      <trkpt lat="45.6391" lon="5.86927">
        <ele>249</ele>
        <time>2021-09-12T11:35:57.012Z</time>
      </trkpt>
      <trkpt lat="45.63907" lon="5.86932">
        <ele>249</ele>
        <time>2021-09-12T11:35:58.013Z</time>
      </trkpt>
      <trkpt lat="45.63903" lon="5.86937">
        <ele>249</ele>
        <time>2021-09-12T11:35:59.012Z</time>
      </trkpt>
      <trkpt lat="45.639" lon="5.86939">
        <ele>249</ele>
        <time>2021-09-12T11:36:00.013Z</time>
      </trkpt>
      <trkpt lat="45.63897" lon="5.86942">
        <ele>249</ele>
        <time>2021-09-12T11:36:01.013Z</time>
      </trkpt>
      <trkpt lat="45.63892" lon="5.86946">
        <ele>248</ele>
        <time>2021-09-12T11:36:02.013Z</time>
      </trkpt>
      <trkpt lat="45.63888" lon="5.86949">
        <ele>248</ele>
        <time>2021-09-12T11:36:03.013Z</time>
      </trkpt>
      <trkpt lat="45.63884" lon="5.86952">
        <ele>248</ele>
        <time>2021-09-12T11:36:04.013Z</time>
      </trkpt>
      <trkpt lat="45.63881" lon="5.86954">
        <ele>249</ele>
        <time>2021-09-12T11:36:05.012Z</time>
      </trkpt>
      <trkpt lat="45.63877" lon="5.86957">
        <ele>248</ele>
        <time>2021-09-12T11:36:06.013Z</time>
      </trkpt>
      <trkpt lat="45.63873" lon="5.86959">
        <ele>248</ele>
        <time>2021-09-12T11:36:07.013Z</time>
      </trkpt>
      <trkpt lat="45.63868" lon="5.86961">
        <ele>248</ele>
        <time>2021-09-12T11:36:08.013Z</time>
      </trkpt>
      <trkpt lat="45.63863" lon="5.86963">
        <ele>247</ele>
        <time>2021-09-12T11:36:09.013Z</time>
      </trkpt>
      <trkpt lat="45.63858" lon="5.86964">
        <ele>247</ele>
        <time>2021-09-12T11:36:10.013Z</time>
      </trkpt>
      <trkpt lat="45.63853" lon="5.86967">
        <ele>247</ele>
        <time>2021-09-12T11:36:11.013Z</time>
      </trkpt>
      <trkpt lat="45.63849" lon="5.86969">
        <ele>246</ele>
        <time>2021-09-12T11:36:12.013Z</time>
      </trkpt>
      <trkpt lat="45.63845" lon="5.86971">
        <ele>246</ele>
        <time>2021-09-12T11:36:13.012Z</time>
      </trkpt>
      <trkpt lat="45.6384" lon="5.86972">
        <ele>246</ele>
        <time>2021-09-12T11:36:14.013Z</time>
      </trkpt>
      <trkpt lat="45.63837" lon="5.86973">
        <ele>246</ele>
        <time>2021-09-12T11:36:15.013Z</time>
      </trkpt>
      <trkpt lat="45.63832" lon="5.86974">
        <ele>245</ele>
        <time>2021-09-12T11:36:16.013Z</time>
      </trkpt>
      <trkpt lat="45.63827" lon="5.86975">
        <ele>245</ele>
        <time>2021-09-12T11:36:17.013Z</time>
      </trkpt>
      <trkpt lat="45.63822" lon="5.86976">
        <ele>245</ele>
        <time>2021-09-12T11:36:18.013Z</time>
      </trkpt>
      <trkpt lat="45.63818" lon="5.86977">
        <ele>245</ele>
        <time>2021-09-12T11:36:19.012Z</time>
      </trkpt>
      <trkpt lat="45.63814" lon="5.86977">
        <ele>245</ele>
        <time>2021-09-12T11:36:20.013Z</time>
      </trkpt>
      <trkpt lat="45.6381" lon="5.86977">
        <ele>244</ele>
        <time>2021-09-12T11:36:21.013Z</time>
      </trkpt>
      <trkpt lat="45.63806" lon="5.86977">
        <ele>244</ele>
        <time>2021-09-12T11:36:22.013Z</time>
      </trkpt>
      <trkpt lat="45.63802" lon="5.86977">
        <ele>244</ele>
        <time>2021-09-12T11:36:23.013Z</time>
      </trkpt>
      <trkpt lat="45.63797" lon="5.86977">
        <ele>244</ele>
        <time>2021-09-12T11:36:24.013Z</time>
      </trkpt>
      <trkpt lat="45.63793" lon="5.86978">
        <ele>244</ele>
        <time>2021-09-12T11:36:25.012Z</time>
      </trkpt>
      <trkpt lat="45.63787" lon="5.86979">
        <ele>244</ele>
        <time>2021-09-12T11:36:26.013Z</time>
      </trkpt>
      <trkpt lat="45.63783" lon="5.86979">
        <ele>244</ele>
        <time>2021-09-12T11:36:27.013Z</time>
      </trkpt>
      <trkpt lat="45.63778" lon="5.86979">
        <ele>244</ele>
        <time>2021-09-12T11:36:28.013Z</time>
      </trkpt>
      <trkpt lat="45.63773" lon="5.86979">
        <ele>244</ele>
        <time>2021-09-12T11:36:29.013Z</time>
      </trkpt>
      <trkpt lat="45.63768" lon="5.86979">
        <ele>244</ele>
        <time>2021-09-12T11:36:30.013Z</time>
      </trkpt>
      <trkpt lat="45.63764" lon="5.86979">
        <ele>245</ele>
        <time>2021-09-12T11:36:31.012Z</time>
      </trkpt>
      <trkpt lat="45.63759" lon="5.86979">
        <ele>245</ele>
        <time>2021-09-12T11:36:32.013Z</time>
      </trkpt>
      <trkpt lat="45.63754" lon="5.86979">
        <ele>245</ele>
        <time>2021-09-12T11:36:33.012Z</time>
      </trkpt>
      <trkpt lat="45.6375" lon="5.86979">
        <ele>245</ele>
        <time>2021-09-12T11:36:34.013Z</time>
      </trkpt>
      <trkpt lat="45.63746" lon="5.86979">
        <ele>245</ele>
        <time>2021-09-12T11:36:35.013Z</time>
      </trkpt>
      <trkpt lat="45.6374" lon="5.86979">
        <ele>245</ele>
        <time>2021-09-12T11:36:36.013Z</time>
      </trkpt>
      <trkpt lat="45.63735" lon="5.86979">
        <ele>244</ele>
        <time>2021-09-12T11:36:37.013Z</time>
      </trkpt>
      <trkpt lat="45.63731" lon="5.86979">
        <ele>244</ele>
        <time>2021-09-12T11:36:38.013Z</time>
      </trkpt>
      <trkpt lat="45.63726" lon="5.8698">
        <ele>244</ele>
        <time>2021-09-12T11:36:39.013Z</time>
      </trkpt>
      <trkpt lat="45.63721" lon="5.8698">
        <ele>244</ele>
        <time>2021-09-12T11:36:40.012Z</time>
      </trkpt>
      <trkpt lat="45.63716" lon="5.86981">
        <ele>243</ele>
        <time>2021-09-12T11:36:41.013Z</time>
      </trkpt>
      <trkpt lat="45.63711" lon="5.86981">
        <ele>243</ele>
        <time>2021-09-12T11:36:42.013Z</time>
      </trkpt>
      <trkpt lat="45.63707" lon="5.86982">
        <ele>243</ele>
        <time>2021-09-12T11:36:43.013Z</time>
      </trkpt>
      <trkpt lat="45.63702" lon="5.86983">
        <ele>243</ele>
        <time>2021-09-12T11:36:44.013Z</time>
      </trkpt>
      <trkpt lat="45.63697" lon="5.86984">
        <ele>243</ele>
        <time>2021-09-12T11:36:45.013Z</time>
      </trkpt>
      <trkpt lat="45.63692" lon="5.86985">
        <ele>243</ele>
        <time>2021-09-12T11:36:46.013Z</time>
      </trkpt>
      <trkpt lat="45.63687" lon="5.86986">
        <ele>243</ele>
        <time>2021-09-12T11:36:47.013Z</time>
      </trkpt>
      <trkpt lat="45.6368" lon="5.86987">
        <ele>243</ele>
        <time>2021-09-12T11:36:48.012Z</time>
      </trkpt>
      <trkpt lat="45.63676" lon="5.86988">
        <ele>244</ele>
        <time>2021-09-12T11:36:49.012Z</time>
      </trkpt>
      <trkpt lat="45.63671" lon="5.86989">
        <ele>244</ele>
        <time>2021-09-12T11:36:50.013Z</time>
      </trkpt>
      <trkpt lat="45.63665" lon="5.86991">
        <ele>244</ele>
        <time>2021-09-12T11:36:51.013Z</time>
      </trkpt>
      <trkpt lat="45.6366" lon="5.86992">
        <ele>244</ele>
        <time>2021-09-12T11:36:52.013Z</time>
      </trkpt>
      <trkpt lat="45.63656" lon="5.86993">
        <ele>244</ele>
        <time>2021-09-12T11:36:53.013Z</time>
      </trkpt>
      <trkpt lat="45.63651" lon="5.86994">
        <ele>244</ele>
        <time>2021-09-12T11:36:54.012Z</time>
      </trkpt>
      <trkpt lat="45.63646" lon="5.86996">
        <ele>244</ele>
        <time>2021-09-12T11:36:55.013Z</time>
      </trkpt>
      <trkpt lat="45.63639" lon="5.86997">
        <ele>244</ele>
        <time>2021-09-12T11:36:56.013Z</time>
      </trkpt>
      <trkpt lat="45.63634" lon="5.86998">
        <ele>244</ele>
        <time>2021-09-12T11:36:57.013Z</time>
      </trkpt>
      <trkpt lat="45.63629" lon="5.86999">
        <ele>244</ele>
        <time>2021-09-12T11:36:58.013Z</time>
      </trkpt>
      <trkpt lat="45.63624" lon="5.87">
        <ele>244</ele>
        <time>2021-09-12T11:36:59.013Z</time>
      </trkpt>
      <trkpt lat="45.6362" lon="5.87001">
        <ele>244</ele>
        <time>2021-09-12T11:37:00.013Z</time>
      </trkpt>
      <trkpt lat="45.63615" lon="5.87002">
        <ele>243</ele>
        <time>2021-09-12T11:37:01.013Z</time>
      </trkpt>
      <trkpt lat="45.63609" lon="5.87003">
        <ele>243</ele>
        <time>2021-09-12T11:37:02.012Z</time>
      </trkpt>
      <trkpt lat="45.63604" lon="5.87004">
        <ele>243</ele>
        <time>2021-09-12T11:37:03.013Z</time>
      </trkpt>
      <trkpt lat="45.63601" lon="5.87004">
        <ele>242</ele>
        <time>2021-09-12T11:37:10.047Z</time>
      </trkpt>
      <trkpt lat="45.63596" lon="5.87005">
        <ele>242</ele>
        <time>2021-09-12T11:37:24.924Z</time>
      </trkpt>
      <trkpt lat="45.63592" lon="5.87006">
        <ele>241</ele>
        <time>2021-09-12T11:37:25.925Z</time>
      </trkpt>
      <trkpt lat="45.63586" lon="5.87008">
        <ele>241</ele>
        <time>2021-09-12T11:37:26.925Z</time>
      </trkpt>
      <trkpt lat="45.63582" lon="5.87009">
        <ele>241</ele>
        <time>2021-09-12T11:37:27.925Z</time>
      </trkpt>
      <trkpt lat="45.63577" lon="5.8701">
        <ele>241</ele>
        <time>2021-09-12T11:37:28.925Z</time>
      </trkpt>
      <trkpt lat="45.63573" lon="5.87011">
        <ele>241</ele>
        <time>2021-09-12T11:37:29.925Z</time>
      </trkpt>
      <trkpt lat="45.63568" lon="5.87013">
        <ele>241</ele>
        <time>2021-09-12T11:37:30.925Z</time>
      </trkpt>
      <trkpt lat="45.63563" lon="5.87014">
        <ele>241</ele>
        <time>2021-09-12T11:37:31.924Z</time>
      </trkpt>
      <trkpt lat="45.63557" lon="5.87016">
        <ele>242</ele>
        <time>2021-09-12T11:37:32.925Z</time>
      </trkpt>
      <trkpt lat="45.63552" lon="5.87017">
        <ele>242</ele>
        <time>2021-09-12T11:37:33.925Z</time>
      </trkpt>
      <trkpt lat="45.63547" lon="5.87019">
        <ele>242</ele>
        <time>2021-09-12T11:37:34.925Z</time>
      </trkpt>
      <trkpt lat="45.63542" lon="5.87021">
        <ele>241</ele>
        <time>2021-09-12T11:37:35.925Z</time>
      </trkpt>
      <trkpt lat="45.63536" lon="5.87023">
        <ele>241</ele>
        <time>2021-09-12T11:37:36.925Z</time>
      </trkpt>
      <trkpt lat="45.6353" lon="5.87025">
        <ele>241</ele>
        <time>2021-09-12T11:37:37.925Z</time>
      </trkpt>
      <trkpt lat="45.63524" lon="5.87028">
        <ele>241</ele>
        <time>2021-09-12T11:37:38.925Z</time>
      </trkpt>
      <trkpt lat="45.6352" lon="5.8703">
        <ele>241</ele>
        <time>2021-09-12T11:37:39.925Z</time>
      </trkpt>
      <trkpt lat="45.63513" lon="5.87033">
        <ele>241</ele>
        <time>2021-09-12T11:37:40.925Z</time>
      </trkpt>
      <trkpt lat="45.63508" lon="5.87036">
        <ele>241</ele>
        <time>2021-09-12T11:37:41.925Z</time>
      </trkpt>
      <trkpt lat="45.63503" lon="5.87039">
        <ele>241</ele>
        <time>2021-09-12T11:37:42.925Z</time>
      </trkpt>
      <trkpt lat="45.63499" lon="5.87043">
        <ele>241</ele>
        <time>2021-09-12T11:37:43.924Z</time>
      </trkpt>
      <trkpt lat="45.63494" lon="5.87047">
        <ele>241</ele>
        <time>2021-09-12T11:37:44.925Z</time>
      </trkpt>
      <trkpt lat="45.63488" lon="5.87052">
        <ele>241</ele>
        <time>2021-09-12T11:37:45.924Z</time>
      </trkpt>
      <trkpt lat="45.63482" lon="5.87056">
        <ele>242</ele>
        <time>2021-09-12T11:37:46.925Z</time>
      </trkpt>
      <trkpt lat="45.63478" lon="5.8706">
        <ele>242</ele>
        <time>2021-09-12T11:37:47.924Z</time>
      </trkpt>
      <trkpt lat="45.63473" lon="5.87063">
        <ele>241</ele>
        <time>2021-09-12T11:37:48.925Z</time>
      </trkpt>
      <trkpt lat="45.63468" lon="5.87067">
        <ele>241</ele>
        <time>2021-09-12T11:37:49.925Z</time>
      </trkpt>
      <trkpt lat="45.63462" lon="5.87071">
        <ele>241</ele>
        <time>2021-09-12T11:37:50.924Z</time>
      </trkpt>
      <trkpt lat="45.63457" lon="5.87074">
        <ele>241</ele>
        <time>2021-09-12T11:37:51.924Z</time>
      </trkpt>
      <trkpt lat="45.63451" lon="5.87077">
        <ele>240</ele>
        <time>2021-09-12T11:37:52.925Z</time>
      </trkpt>
      <trkpt lat="45.63447" lon="5.87079">
        <ele>240</ele>
        <time>2021-09-12T11:37:53.925Z</time>
      </trkpt>
      <trkpt lat="45.6344" lon="5.87082">
        <ele>240</ele>
        <time>2021-09-12T11:37:54.925Z</time>
      </trkpt>
      <trkpt lat="45.63434" lon="5.87084">
        <ele>240</ele>
        <time>2021-09-12T11:37:55.925Z</time>
      </trkpt>
      <trkpt lat="45.63428" lon="5.87086">
        <ele>240</ele>
        <time>2021-09-12T11:37:56.925Z</time>
      </trkpt>
      <trkpt lat="45.63423" lon="5.87087">
        <ele>240</ele>
        <time>2021-09-12T11:37:57.925Z</time>
      </trkpt>
      <trkpt lat="45.63417" lon="5.87088">
        <ele>240</ele>
        <time>2021-09-12T11:37:58.925Z</time>
      </trkpt>
      <trkpt lat="45.63412" lon="5.87089">
        <ele>241</ele>
        <time>2021-09-12T11:37:59.924Z</time>
      </trkpt>
      <trkpt lat="45.63406" lon="5.87089">
        <ele>241</ele>
        <time>2021-09-12T11:38:00.925Z</time>
      </trkpt>
      <trkpt lat="45.634" lon="5.8709">
        <ele>242</ele>
        <time>2021-09-12T11:38:01.925Z</time>
      </trkpt>
      <trkpt lat="45.63396" lon="5.8709">
        <ele>242</ele>
        <time>2021-09-12T11:38:02.925Z</time>
      </trkpt>
      <trkpt lat="45.63389" lon="5.87091">
        <ele>243</ele>
        <time>2021-09-12T11:38:03.925Z</time>
      </trkpt>
      <trkpt lat="45.63384" lon="5.87091">
        <ele>243</ele>
        <time>2021-09-12T11:38:04.925Z</time>
      </trkpt>
      <trkpt lat="45.63378" lon="5.87092">
        <ele>243</ele>
        <time>2021-09-12T11:38:05.924Z</time>
      </trkpt>
      <trkpt lat="45.63373" lon="5.87092">
        <ele>244</ele>
        <time>2021-09-12T11:38:06.924Z</time>
      </trkpt>
      <trkpt lat="45.63368" lon="5.87093">
        <ele>244</ele>
        <time>2021-09-12T11:38:07.924Z</time>
      </trkpt>
      <trkpt lat="45.63362" lon="5.87093">
        <ele>244</ele>
        <time>2021-09-12T11:38:08.925Z</time>
      </trkpt>
      <trkpt lat="45.63356" lon="5.87094">
        <ele>244</ele>
        <time>2021-09-12T11:38:09.925Z</time>
      </trkpt>
      <trkpt lat="45.6335" lon="5.87096">
        <ele>244</ele>
        <time>2021-09-12T11:38:18.019Z</time>
      </trkpt>
      <trkpt lat="45.63344" lon="5.87097">
        <ele>243</ele>
        <time>2021-09-12T11:38:19.019Z</time>
      </trkpt>
      <trkpt lat="45.63338" lon="5.87098">
        <ele>243</ele>
        <time>2021-09-12T11:38:20.018Z</time>
      </trkpt>
      <trkpt lat="45.63332" lon="5.87098">
        <ele>243</ele>
        <time>2021-09-12T11:38:21.019Z</time>
      </trkpt>
      <trkpt lat="45.63326" lon="5.87099">
        <ele>242</ele>
        <time>2021-09-12T11:38:22.019Z</time>
      </trkpt>
      <trkpt lat="45.6332" lon="5.87099">
        <ele>242</ele>
        <time>2021-09-12T11:38:23.019Z</time>
      </trkpt>
      <trkpt lat="45.63316" lon="5.87099">
        <ele>241</ele>
        <time>2021-09-12T11:38:24.019Z</time>
      </trkpt>
      <trkpt lat="45.6331" lon="5.87099">
        <ele>241</ele>
        <time>2021-09-12T11:38:25.019Z</time>
      </trkpt>
      <trkpt lat="45.63304" lon="5.87099">
        <ele>241</ele>
        <time>2021-09-12T11:38:26.019Z</time>
      </trkpt>
      <trkpt lat="45.63297" lon="5.87099">
        <ele>241</ele>
        <time>2021-09-12T11:38:27.019Z</time>
      </trkpt>
      <trkpt lat="45.63291" lon="5.87099">
        <ele>241</ele>
        <time>2021-09-12T11:38:28.018Z</time>
      </trkpt>
      <trkpt lat="45.63285" lon="5.87099">
        <ele>241</ele>
        <time>2021-09-12T11:38:29.019Z</time>
      </trkpt>
      <trkpt lat="45.63281" lon="5.87099">
        <ele>241</ele>
        <time>2021-09-12T11:38:30.019Z</time>
      </trkpt>
      <trkpt lat="45.63275" lon="5.871">
        <ele>241</ele>
        <time>2021-09-12T11:38:31.019Z</time>
      </trkpt>
      <trkpt lat="45.63269" lon="5.87101">
        <ele>241</ele>
        <time>2021-09-12T11:38:32.018Z</time>
      </trkpt>
      <trkpt lat="45.63263" lon="5.87103">
        <ele>240</ele>
        <time>2021-09-12T11:38:33.019Z</time>
      </trkpt>
      <trkpt lat="45.63258" lon="5.87106">
        <ele>240</ele>
        <time>2021-09-12T11:38:34.019Z</time>
      </trkpt>
      <trkpt lat="45.63253" lon="5.87107">
        <ele>240</ele>
        <time>2021-09-12T11:38:35.019Z</time>
      </trkpt>
      <trkpt lat="45.63248" lon="5.8711">
        <ele>240</ele>
        <time>2021-09-12T11:38:36.019Z</time>
      </trkpt>
      <trkpt lat="45.63243" lon="5.87112">
        <ele>240</ele>
        <time>2021-09-12T11:38:37.019Z</time>
      </trkpt>
      <trkpt lat="45.63236" lon="5.87115">
        <ele>240</ele>
        <time>2021-09-12T11:38:38.019Z</time>
      </trkpt>
      <trkpt lat="45.63231" lon="5.87118">
        <ele>240</ele>
        <time>2021-09-12T11:38:39.018Z</time>
      </trkpt>
      <trkpt lat="45.63227" lon="5.87121">
        <ele>240</ele>
        <time>2021-09-12T11:38:40.019Z</time>
      </trkpt>
      <trkpt lat="45.63222" lon="5.87125">
        <ele>241</ele>
        <time>2021-09-12T11:38:41.019Z</time>
      </trkpt>
      <trkpt lat="45.63215" lon="5.8713">
        <ele>241</ele>
        <time>2021-09-12T11:38:42.019Z</time>
      </trkpt>
      <trkpt lat="45.6321" lon="5.87134">
        <ele>242</ele>
        <time>2021-09-12T11:38:43.019Z</time>
      </trkpt>
      <trkpt lat="45.63204" lon="5.87138">
        <ele>243</ele>
        <time>2021-09-12T11:38:44.019Z</time>
      </trkpt>
      <trkpt lat="45.63198" lon="5.87143">
        <ele>243</ele>
        <time>2021-09-12T11:38:45.019Z</time>
      </trkpt>
      <trkpt lat="45.63193" lon="5.87147">
        <ele>244</ele>
        <time>2021-09-12T11:38:46.018Z</time>
      </trkpt>
      <trkpt lat="45.63188" lon="5.8715">
        <ele>245</ele>
        <time>2021-09-12T11:38:47.019Z</time>
      </trkpt>
      <trkpt lat="45.63183" lon="5.87154">
        <ele>245</ele>
        <time>2021-09-12T11:38:48.019Z</time>
      </trkpt>
      <trkpt lat="45.63177" lon="5.87158">
        <ele>246</ele>
        <time>2021-09-12T11:38:49.019Z</time>
      </trkpt>
      <trkpt lat="45.63173" lon="5.87161">
        <ele>246</ele>
        <time>2021-09-12T11:38:50.019Z</time>
      </trkpt>
      <trkpt lat="45.63169" lon="5.87164">
        <ele>246</ele>
        <time>2021-09-12T11:38:51.018Z</time>
      </trkpt>
      <trkpt lat="45.63165" lon="5.87167">
        <ele>247</ele>
        <time>2021-09-12T11:38:52.019Z</time>
      </trkpt>
      <trkpt lat="45.6316" lon="5.87171">
        <ele>247</ele>
        <time>2021-09-12T11:38:58.039Z</time>
      </trkpt>
      <trkpt lat="45.63155" lon="5.87173">
        <ele>247</ele>
        <time>2021-09-12T11:38:59.040Z</time>
      </trkpt>
      <trkpt lat="45.63151" lon="5.87176">
        <ele>247</ele>
        <time>2021-09-12T11:39:00.040Z</time>
      </trkpt>
      <trkpt lat="45.63147" lon="5.87179">
        <ele>246</ele>
        <time>2021-09-12T11:39:01.040Z</time>
      </trkpt>
      <trkpt lat="45.63142" lon="5.87182">
        <ele>246</ele>
        <time>2021-09-12T11:39:02.039Z</time>
      </trkpt>
      <trkpt lat="45.63137" lon="5.87185">
        <ele>246</ele>
        <time>2021-09-12T11:39:03.040Z</time>
      </trkpt>
      <trkpt lat="45.63132" lon="5.87188">
        <ele>245</ele>
        <time>2021-09-12T11:39:04.040Z</time>
      </trkpt>
      <trkpt lat="45.63127" lon="5.8719">
        <ele>245</ele>
        <time>2021-09-12T11:39:05.039Z</time>
      </trkpt>
      <trkpt lat="45.63123" lon="5.87192">
        <ele>245</ele>
        <time>2021-09-12T11:39:06.040Z</time>
      </trkpt>
      <trkpt lat="45.63118" lon="5.87194">
        <ele>245</ele>
        <time>2021-09-12T11:39:07.040Z</time>
      </trkpt>
      <trkpt lat="45.63113" lon="5.87195">
        <ele>245</ele>
        <time>2021-09-12T11:39:08.040Z</time>
      </trkpt>
      <trkpt lat="45.63108" lon="5.87197">
        <ele>245</ele>
        <time>2021-09-12T11:39:09.040Z</time>
      </trkpt>
      <trkpt lat="45.63103" lon="5.87199">
        <ele>245</ele>
        <time>2021-09-12T11:39:10.040Z</time>
      </trkpt>
      <trkpt lat="45.63097" lon="5.872">
        <ele>246</ele>
        <time>2021-09-12T11:39:11.040Z</time>
      </trkpt>
      <trkpt lat="45.63092" lon="5.87202">
        <ele>246</ele>
        <time>2021-09-12T11:39:12.040Z</time>
      </trkpt>
      <trkpt lat="45.63086" lon="5.87203">
        <ele>246</ele>
        <time>2021-09-12T11:39:58.162Z</time>
      </trkpt>
      <trkpt lat="45.63081" lon="5.87204">
        <ele>246</ele>
        <time>2021-09-12T11:39:59.162Z</time>
      </trkpt>
      <trkpt lat="45.63075" lon="5.87206">
        <ele>246</ele>
        <time>2021-09-12T11:40:00.162Z</time>
      </trkpt>
      <trkpt lat="45.63069" lon="5.87206">
        <ele>247</ele>
        <time>2021-09-12T11:40:01.161Z</time>
      </trkpt>
      <trkpt lat="45.63063" lon="5.87207">
        <ele>247</ele>
        <time>2021-09-12T11:40:02.162Z</time>
      </trkpt>
      <trkpt lat="45.63057" lon="5.87206">
        <ele>247</ele>
        <time>2021-09-12T11:40:03.162Z</time>
      </trkpt>
      <trkpt lat="45.63052" lon="5.87205">
        <ele>247</ele>
        <time>2021-09-12T11:40:04.161Z</time>
      </trkpt>
      <trkpt lat="45.63046" lon="5.87205">
        <ele>248</ele>
        <time>2021-09-12T11:40:05.162Z</time>
      </trkpt>
      <trkpt lat="45.6304" lon="5.87205">
        <ele>248</ele>
        <time>2021-09-12T11:40:06.162Z</time>
      </trkpt>
      <trkpt lat="45.63035" lon="5.87205">
        <ele>247</ele>
        <time>2021-09-12T11:40:07.162Z</time>
      </trkpt>
      <trkpt lat="45.63029" lon="5.87206">
        <ele>247</ele>
        <time>2021-09-12T11:40:08.162Z</time>
      </trkpt>
      <trkpt lat="45.63024" lon="5.87206">
        <ele>247</ele>
        <time>2021-09-12T11:40:09.161Z</time>
      </trkpt>
      <trkpt lat="45.63019" lon="5.87207">
        <ele>246</ele>
        <time>2021-09-12T11:40:10.162Z</time>
      </trkpt>
      <trkpt lat="45.63014" lon="5.87209">
        <ele>246</ele>
        <time>2021-09-12T11:40:11.162Z</time>
      </trkpt>
      <trkpt lat="45.63009" lon="5.87211">
        <ele>246</ele>
        <time>2021-09-12T11:40:37.301Z</time>
      </trkpt>
      <trkpt lat="45.63004" lon="5.87214">
        <ele>245</ele>
        <time>2021-09-12T11:40:38.302Z</time>
      </trkpt>
      <trkpt lat="45.62999" lon="5.87218">
        <ele>245</ele>
        <time>2021-09-12T11:40:39.302Z</time>
      </trkpt>
      <trkpt lat="45.62994" lon="5.87222">
        <ele>245</ele>
        <time>2021-09-12T11:40:40.301Z</time>
      </trkpt>
      <trkpt lat="45.6299" lon="5.87226">
        <ele>245</ele>
        <time>2021-09-12T11:40:41.302Z</time>
      </trkpt>
      <trkpt lat="45.62985" lon="5.87231">
        <ele>244</ele>
        <time>2021-09-12T11:40:42.302Z</time>
      </trkpt>
      <trkpt lat="45.62979" lon="5.87235">
        <ele>244</ele>
        <time>2021-09-12T11:40:43.302Z</time>
      </trkpt>
      <trkpt lat="45.62974" lon="5.87239">
        <ele>244</ele>
        <time>2021-09-12T11:40:44.302Z</time>
      </trkpt>
      <trkpt lat="45.62969" lon="5.87244">
        <ele>244</ele>
        <time>2021-09-12T11:40:45.302Z</time>
      </trkpt>
      <trkpt lat="45.62964" lon="5.87248">
        <ele>244</ele>
        <time>2021-09-12T11:40:46.302Z</time>
      </trkpt>
      <trkpt lat="45.62958" lon="5.87252">
        <ele>244</ele>
        <time>2021-09-12T11:40:47.302Z</time>
      </trkpt>
      <trkpt lat="45.62953" lon="5.87257">
        <ele>244</ele>
        <time>2021-09-12T11:40:48.302Z</time>
      </trkpt>
      <trkpt lat="45.62948" lon="5.87262">
        <ele>245</ele>
        <time>2021-09-12T11:40:49.302Z</time>
      </trkpt>
      <trkpt lat="45.62944" lon="5.87268">
        <ele>245</ele>
        <time>2021-09-12T11:40:50.301Z</time>
      </trkpt>
      <trkpt lat="45.62939" lon="5.87273">
        <ele>245</ele>
        <time>2021-09-12T11:40:51.302Z</time>
      </trkpt>
      <trkpt lat="45.62934" lon="5.87279">
        <ele>245</ele>
        <time>2021-09-12T11:40:52.302Z</time>
      </trkpt>
      <trkpt lat="45.62929" lon="5.87285">
        <ele>245</ele>
        <time>2021-09-12T11:40:53.302Z</time>
      </trkpt>
      <trkpt lat="45.62923" lon="5.87291">
        <ele>245</ele>
        <time>2021-09-12T11:40:54.302Z</time>
      </trkpt>
      <trkpt lat="45.62918" lon="5.87297">
        <ele>245</ele>
        <time>2021-09-12T11:40:55.302Z</time>
      </trkpt>
      <trkpt lat="45.62913" lon="5.87302">
        <ele>245</ele>
        <time>2021-09-12T11:40:56.302Z</time>
      </trkpt>
      <trkpt lat="45.62908" lon="5.87307">
        <ele>245</ele>
        <time>2021-09-12T11:40:57.302Z</time>
      </trkpt>
      <trkpt lat="45.62904" lon="5.87312">
        <ele>245</ele>
        <time>2021-09-12T11:40:58.302Z</time>
      </trkpt>
      <trkpt lat="45.629" lon="5.87317">
        <ele>245</ele>
        <time>2021-09-12T11:40:59.301Z</time>
      </trkpt>
      <trkpt lat="45.62896" lon="5.87322">
        <ele>245</ele>
        <time>2021-09-12T11:41:00.302Z</time>
      </trkpt>
      <trkpt lat="45.62892" lon="5.87326">
        <ele>245</ele>
        <time>2021-09-12T11:41:01.302Z</time>
      </trkpt>
      <trkpt lat="45.62887" lon="5.87332">
        <ele>245</ele>
        <time>2021-09-12T11:41:02.302Z</time>
      </trkpt>
      <trkpt lat="45.62884" lon="5.87336">
        <ele>245</ele>
        <time>2021-09-12T11:41:03.302Z</time>
      </trkpt>
      <trkpt lat="45.62879" lon="5.87341">
        <ele>245</ele>
        <time>2021-09-12T11:41:04.302Z</time>
      </trkpt>
      <trkpt lat="45.62874" lon="5.87346">
        <ele>246</ele>
        <time>2021-09-12T11:41:05.301Z</time>
      </trkpt>
      <trkpt lat="45.6287" lon="5.8735">
        <ele>245</ele>
        <time>2021-09-12T11:41:06.302Z</time>
      </trkpt>
      <trkpt lat="45.62865" lon="5.87354">
        <ele>245</ele>
        <time>2021-09-12T11:41:07.302Z</time>
      </trkpt>
      <trkpt lat="45.6286" lon="5.87358">
        <ele>245</ele>
        <time>2021-09-12T11:41:08.301Z</time>
      </trkpt>
      <trkpt lat="45.62855" lon="5.87361">
        <ele>245</ele>
        <time>2021-09-12T11:41:09.302Z</time>
      </trkpt>
      <trkpt lat="45.62848" lon="5.87364">
        <ele>245</ele>
        <time>2021-09-12T11:41:10.302Z</time>
      </trkpt>
      <trkpt lat="45.62844" lon="5.87365">
        <ele>244</ele>
        <time>2021-09-12T11:41:11.301Z</time>
      </trkpt>
      <trkpt lat="45.62837" lon="5.87367">
        <ele>244</ele>
        <time>2021-09-12T11:41:12.302Z</time>
      </trkpt>
      <trkpt lat="45.62832" lon="5.87368">
        <ele>243</ele>
        <time>2021-09-12T11:41:13.301Z</time>
      </trkpt>
      <trkpt lat="45.62826" lon="5.87369">
        <ele>243</ele>
        <time>2021-09-12T11:41:14.302Z</time>
      </trkpt>
      <trkpt lat="45.62821" lon="5.87369">
        <ele>242</ele>
        <time>2021-09-12T11:41:15.302Z</time>
      </trkpt>
      <trkpt lat="45.62817" lon="5.8737">
        <ele>242</ele>
        <time>2021-09-12T11:41:16.302Z</time>
      </trkpt>
      <trkpt lat="45.62813" lon="5.87371">
        <ele>241</ele>
        <time>2021-09-12T11:41:17.302Z</time>
      </trkpt>
      <trkpt lat="45.62811" lon="5.87371">
        <ele>241</ele>
        <time>2021-09-12T11:41:18.302Z</time>
      </trkpt>
      <trkpt lat="45.62808" lon="5.87371">
        <ele>240</ele>
        <time>2021-09-12T11:41:19.302Z</time>
      </trkpt>
      <trkpt lat="45.62805" lon="5.87371">
        <ele>241</ele>
        <time>2021-09-12T11:41:20.302Z</time>
      </trkpt>
      <trkpt lat="45.62802" lon="5.87372">
        <ele>241</ele>
        <time>2021-09-12T11:41:21.302Z</time>
      </trkpt>
      <trkpt lat="45.62799" lon="5.87372">
        <ele>241</ele>
        <time>2021-09-12T11:41:22.301Z</time>
      </trkpt>
      <trkpt lat="45.62796" lon="5.87372">
        <ele>241</ele>
        <time>2021-09-12T11:41:23.302Z</time>
      </trkpt>
      <trkpt lat="45.62792" lon="5.87372">
        <ele>241</ele>
        <time>2021-09-12T11:41:24.302Z</time>
      </trkpt>
      <trkpt lat="45.62787" lon="5.8737">
        <ele>242</ele>
        <time>2021-09-12T11:41:25.301Z</time>
      </trkpt>
      <trkpt lat="45.62783" lon="5.87368">
        <ele>242</ele>
        <time>2021-09-12T11:41:26.302Z</time>
      </trkpt>
      <trkpt lat="45.62779" lon="5.87366">
        <ele>242</ele>
        <time>2021-09-12T11:41:27.301Z</time>
      </trkpt>
      <trkpt lat="45.62776" lon="5.87364">
        <ele>243</ele>
        <time>2021-09-12T11:41:28.301Z</time>
      </trkpt>
      <trkpt lat="45.62771" lon="5.87361">
        <ele>243</ele>
        <time>2021-09-12T11:41:29.301Z</time>
      </trkpt>
      <trkpt lat="45.62766" lon="5.87358">
        <ele>244</ele>
        <time>2021-09-12T11:41:30.302Z</time>
      </trkpt>
      <trkpt lat="45.62762" lon="5.87355">
        <ele>244</ele>
        <time>2021-09-12T11:41:31.302Z</time>
      </trkpt>
      <trkpt lat="45.62759" lon="5.87353">
        <ele>244</ele>
        <time>2021-09-12T11:41:32.302Z</time>
      </trkpt>
      <trkpt lat="45.62754" lon="5.87351">
        <ele>245</ele>
        <time>2021-09-12T11:41:33.302Z</time>
      </trkpt>
      <trkpt lat="45.6275" lon="5.87348">
        <ele>245</ele>
        <time>2021-09-12T11:41:34.302Z</time>
      </trkpt>
      <trkpt lat="45.62746" lon="5.87346">
        <ele>246</ele>
        <time>2021-09-12T11:41:35.302Z</time>
      </trkpt>
      <trkpt lat="45.62741" lon="5.87343">
        <ele>246</ele>
        <time>2021-09-12T11:41:36.302Z</time>
      </trkpt>
      <trkpt lat="45.62737" lon="5.8734">
        <ele>247</ele>
        <time>2021-09-12T11:41:37.302Z</time>
      </trkpt>
      <trkpt lat="45.62733" lon="5.87337">
        <ele>247</ele>
        <time>2021-09-12T11:41:38.302Z</time>
      </trkpt>
      <trkpt lat="45.62728" lon="5.87333">
        <ele>247</ele>
        <time>2021-09-12T11:41:42.415Z</time>
      </trkpt>
      <trkpt lat="45.62723" lon="5.87331">
        <ele>247</ele>
        <time>2021-09-12T11:41:43.415Z</time>
      </trkpt>
      <trkpt lat="45.62718" lon="5.87329">
        <ele>247</ele>
        <time>2021-09-12T11:41:44.415Z</time>
      </trkpt>
      <trkpt lat="45.62714" lon="5.87327">
        <ele>247</ele>
        <time>2021-09-12T11:42:10.534Z</time>
      </trkpt>
      <trkpt lat="45.62709" lon="5.87325">
        <ele>247</ele>
        <time>2021-09-12T11:42:11.535Z</time>
      </trkpt>
      <trkpt lat="45.62703" lon="5.87323">
        <ele>247</ele>
        <time>2021-09-12T11:42:12.535Z</time>
      </trkpt>
      <trkpt lat="45.62699" lon="5.87322">
        <ele>247</ele>
        <time>2021-09-12T11:42:13.535Z</time>
      </trkpt>
      <trkpt lat="45.62695" lon="5.8732">
        <ele>247</ele>
        <time>2021-09-12T11:42:14.534Z</time>
      </trkpt>
      <trkpt lat="45.62691" lon="5.8732">
        <ele>247</ele>
        <time>2021-09-12T11:42:15.535Z</time>
      </trkpt>
      <trkpt lat="45.62686" lon="5.87319">
        <ele>247</ele>
        <time>2021-09-12T11:42:16.534Z</time>
      </trkpt>
      <trkpt lat="45.62681" lon="5.87319">
        <ele>247</ele>
        <time>2021-09-12T11:42:17.535Z</time>
      </trkpt>
      <trkpt lat="45.62676" lon="5.87319">
        <ele>247</ele>
        <time>2021-09-12T11:42:18.535Z</time>
      </trkpt>
      <trkpt lat="45.62671" lon="5.87319">
        <ele>248</ele>
        <time>2021-09-12T11:42:19.534Z</time>
      </trkpt>
      <trkpt lat="45.62667" lon="5.87319">
        <ele>248</ele>
        <time>2021-09-12T11:42:20.534Z</time>
      </trkpt>
      <trkpt lat="45.62662" lon="5.87319">
        <ele>248</ele>
        <time>2021-09-12T11:42:21.535Z</time>
      </trkpt>
      <trkpt lat="45.62657" lon="5.8732">
        <ele>248</ele>
        <time>2021-09-12T11:42:22.535Z</time>
      </trkpt>
      <trkpt lat="45.62653" lon="5.8732">
        <ele>248</ele>
        <time>2021-09-12T11:42:23.535Z</time>
      </trkpt>
      <trkpt lat="45.62648" lon="5.87321">
        <ele>248</ele>
        <time>2021-09-12T11:42:24.534Z</time>
      </trkpt>
      <trkpt lat="45.62643" lon="5.87321">
        <ele>248</ele>
        <time>2021-09-12T11:42:25.534Z</time>
      </trkpt>
      <trkpt lat="45.62638" lon="5.87322">
        <ele>247</ele>
        <time>2021-09-12T11:42:26.535Z</time>
      </trkpt>
      <trkpt lat="45.62632" lon="5.87322">
        <ele>247</ele>
        <time>2021-09-12T11:42:27.535Z</time>
      </trkpt>
      <trkpt lat="45.62626" lon="5.87323">
        <ele>247</ele>
        <time>2021-09-12T11:42:28.534Z</time>
      </trkpt>
      <trkpt lat="45.6262" lon="5.87324">
        <ele>247</ele>
        <time>2021-09-12T11:42:32.640Z</time>
      </trkpt>
      <trkpt lat="45.62615" lon="5.87326">
        <ele>247</ele>
        <time>2021-09-12T11:42:33.640Z</time>
      </trkpt>
      <trkpt lat="45.6261" lon="5.87327">
        <ele>246</ele>
        <time>2021-09-12T11:43:52.537Z</time>
      </trkpt>
      <trkpt lat="45.62605" lon="5.87328">
        <ele>246</ele>
        <time>2021-09-12T11:43:53.537Z</time>
      </trkpt>
      <trkpt lat="45.626" lon="5.8733">
        <ele>246</ele>
        <time>2021-09-12T11:43:54.536Z</time>
      </trkpt>
      <trkpt lat="45.62596" lon="5.87331">
        <ele>246</ele>
        <time>2021-09-12T11:43:55.537Z</time>
      </trkpt>
      <trkpt lat="45.62591" lon="5.87333">
        <ele>246</ele>
        <time>2021-09-12T11:43:56.537Z</time>
      </trkpt>
      <trkpt lat="45.62584" lon="5.87335">
        <ele>246</ele>
        <time>2021-09-12T11:43:57.537Z</time>
      </trkpt>
      <trkpt lat="45.62579" lon="5.87337">
        <ele>246</ele>
        <time>2021-09-12T11:43:58.537Z</time>
      </trkpt>
      <trkpt lat="45.62575" lon="5.87339">
        <ele>247</ele>
        <time>2021-09-12T11:43:59.537Z</time>
      </trkpt>
      <trkpt lat="45.6257" lon="5.87342">
        <ele>247</ele>
        <time>2021-09-12T11:44:00.537Z</time>
      </trkpt>
      <trkpt lat="45.62564" lon="5.87344">
        <ele>247</ele>
        <time>2021-09-12T11:44:01.537Z</time>
      </trkpt>
      <trkpt lat="45.62558" lon="5.87347">
        <ele>248</ele>
        <time>2021-09-12T11:44:02.537Z</time>
      </trkpt>
      <trkpt lat="45.62552" lon="5.8735">
        <ele>248</ele>
        <time>2021-09-12T11:44:03.537Z</time>
      </trkpt>
      <trkpt lat="45.62547" lon="5.87353">
        <ele>248</ele>
        <time>2021-09-12T11:44:04.536Z</time>
      </trkpt>
      <trkpt lat="45.62543" lon="5.87356">
        <ele>248</ele>
        <time>2021-09-12T11:44:05.537Z</time>
      </trkpt>
      <trkpt lat="45.62536" lon="5.87361">
        <ele>248</ele>
        <time>2021-09-12T11:44:06.536Z</time>
      </trkpt>
      <trkpt lat="45.62531" lon="5.87366">
        <ele>248</ele>
        <time>2021-09-12T11:44:07.537Z</time>
      </trkpt>
      <trkpt lat="45.62526" lon="5.8737">
        <ele>247</ele>
        <time>2021-09-12T11:44:08.537Z</time>
      </trkpt>
      <trkpt lat="45.62521" lon="5.87375">
        <ele>247</ele>
        <time>2021-09-12T11:44:09.537Z</time>
      </trkpt>
      <trkpt lat="45.62516" lon="5.87379">
        <ele>247</ele>
        <time>2021-09-12T11:44:10.537Z</time>
      </trkpt>
      <trkpt lat="45.62511" lon="5.87384">
        <ele>246</ele>
        <time>2021-09-12T11:44:11.537Z</time>
      </trkpt>
      <trkpt lat="45.62506" lon="5.87389">
        <ele>246</ele>
        <time>2021-09-12T11:44:12.537Z</time>
      </trkpt>
      <trkpt lat="45.62501" lon="5.87394">
        <ele>245</ele>
        <time>2021-09-12T11:44:13.537Z</time>
      </trkpt>
      <trkpt lat="45.62496" lon="5.87398">
        <ele>245</ele>
        <time>2021-09-12T11:44:14.537Z</time>
      </trkpt>
      <trkpt lat="45.6249" lon="5.87403">
        <ele>245</ele>
        <time>2021-09-12T11:44:15.537Z</time>
      </trkpt>
      <trkpt lat="45.62485" lon="5.87408">
        <ele>245</ele>
        <time>2021-09-12T11:44:16.537Z</time>
      </trkpt>
      <trkpt lat="45.6248" lon="5.87412">
        <ele>245</ele>
        <time>2021-09-12T11:44:17.537Z</time>
      </trkpt>
      <trkpt lat="45.62475" lon="5.87417">
        <ele>245</ele>
        <time>2021-09-12T11:44:18.537Z</time>
      </trkpt>
      <trkpt lat="45.62469" lon="5.87421">
        <ele>245</ele>
        <time>2021-09-12T11:44:19.537Z</time>
      </trkpt>
      <trkpt lat="45.62464" lon="5.87425">
        <ele>245</ele>
        <time>2021-09-12T11:44:20.537Z</time>
      </trkpt>
      <trkpt lat="45.62459" lon="5.8743">
        <ele>245</ele>
        <time>2021-09-12T11:44:21.537Z</time>
      </trkpt>
      <trkpt lat="45.62454" lon="5.87434">
        <ele>246</ele>
        <time>2021-09-12T11:44:22.537Z</time>
      </trkpt>
      <trkpt lat="45.62449" lon="5.87439">
        <ele>246</ele>
        <time>2021-09-12T11:44:23.537Z</time>
      </trkpt>
      <trkpt lat="45.62444" lon="5.87443">
        <ele>246</ele>
        <time>2021-09-12T11:44:24.536Z</time>
      </trkpt>
      <trkpt lat="45.62439" lon="5.87447">
        <ele>246</ele>
        <time>2021-09-12T11:44:25.536Z</time>
      </trkpt>
      <trkpt lat="45.62434" lon="5.87451">
        <ele>246</ele>
        <time>2021-09-12T11:44:26.537Z</time>
      </trkpt>
      <trkpt lat="45.62429" lon="5.87455">
        <ele>247</ele>
        <time>2021-09-12T11:44:27.537Z</time>
      </trkpt>
      <trkpt lat="45.62423" lon="5.8746">
        <ele>247</ele>
        <time>2021-09-12T11:44:28.537Z</time>
      </trkpt>
      <trkpt lat="45.62419" lon="5.87463">
        <ele>247</ele>
        <time>2021-09-12T11:44:29.537Z</time>
      </trkpt>
      <trkpt lat="45.62413" lon="5.87468">
        <ele>247</ele>
        <time>2021-09-12T11:44:30.537Z</time>
      </trkpt>
      <trkpt lat="45.62408" lon="5.87472">
        <ele>247</ele>
        <time>2021-09-12T11:44:31.537Z</time>
      </trkpt>
      <trkpt lat="45.62404" lon="5.87477">
        <ele>247</ele>
        <time>2021-09-12T11:44:32.536Z</time>
      </trkpt>
      <trkpt lat="45.62399" lon="5.87482">
        <ele>247</ele>
        <time>2021-09-12T11:44:33.537Z</time>
      </trkpt>
      <trkpt lat="45.62396" lon="5.87486">
        <ele>247</ele>
        <time>2021-09-12T11:44:34.537Z</time>
      </trkpt>
      <trkpt lat="45.62391" lon="5.87491">
        <ele>247</ele>
        <time>2021-09-12T11:44:35.537Z</time>
      </trkpt>
      <trkpt lat="45.62385" lon="5.87496">
        <ele>246</ele>
        <time>2021-09-12T11:44:36.537Z</time>
      </trkpt>
      <trkpt lat="45.6238" lon="5.87501">
        <ele>246</ele>
        <time>2021-09-12T11:44:37.537Z</time>
      </trkpt>
      <trkpt lat="45.62375" lon="5.87505">
        <ele>245</ele>
        <time>2021-09-12T11:44:38.536Z</time>
      </trkpt>
      <trkpt lat="45.62371" lon="5.8751">
        <ele>245</ele>
        <time>2021-09-12T11:44:39.536Z</time>
      </trkpt>
      <trkpt lat="45.62367" lon="5.87514">
        <ele>245</ele>
        <time>2021-09-12T11:44:40.537Z</time>
      </trkpt>
      <trkpt lat="45.62361" lon="5.8752">
        <ele>244</ele>
        <time>2021-09-12T11:44:41.537Z</time>
      </trkpt>
      <trkpt lat="45.62356" lon="5.87525">
        <ele>244</ele>
        <time>2021-09-12T11:44:42.537Z</time>
      </trkpt>
      <trkpt lat="45.62351" lon="5.87529">
        <ele>244</ele>
        <time>2021-09-12T11:44:43.536Z</time>
      </trkpt>
      <trkpt lat="45.62347" lon="5.87533">
        <ele>245</ele>
        <time>2021-09-12T11:44:44.536Z</time>
      </trkpt>
      <trkpt lat="45.62342" lon="5.87538">
        <ele>245</ele>
        <time>2021-09-12T11:44:45.537Z</time>
      </trkpt>
      <trkpt lat="45.62336" lon="5.87543">
        <ele>245</ele>
        <time>2021-09-12T11:44:46.537Z</time>
      </trkpt>
      <trkpt lat="45.6233" lon="5.87548">
        <ele>245</ele>
        <time>2021-09-12T11:44:47.536Z</time>
      </trkpt>
      <trkpt lat="45.62326" lon="5.87553">
        <ele>245</ele>
        <time>2021-09-12T11:44:48.537Z</time>
      </trkpt>
      <trkpt lat="45.62321" lon="5.87559">
        <ele>246</ele>
        <time>2021-09-12T11:44:49.536Z</time>
      </trkpt>
      <trkpt lat="45.62317" lon="5.87565">
        <ele>246</ele>
        <time>2021-09-12T11:44:50.536Z</time>
      </trkpt>
      <trkpt lat="45.62313" lon="5.87571">
        <ele>246</ele>
        <time>2021-09-12T11:44:51.537Z</time>
      </trkpt>
      <trkpt lat="45.62308" lon="5.87578">
        <ele>246</ele>
        <time>2021-09-12T11:44:52.537Z</time>
      </trkpt>
      <trkpt lat="45.62303" lon="5.87584">
        <ele>247</ele>
        <time>2021-09-12T11:44:53.537Z</time>
      </trkpt>
      <trkpt lat="45.62299" lon="5.87589">
        <ele>247</ele>
        <time>2021-09-12T11:44:54.537Z</time>
      </trkpt>
      <trkpt lat="45.62294" lon="5.87595">
        <ele>247</ele>
        <time>2021-09-12T11:44:55.537Z</time>
      </trkpt>
      <trkpt lat="45.62289" lon="5.876">
        <ele>247</ele>
        <time>2021-09-12T11:44:56.537Z</time>
      </trkpt>
      <trkpt lat="45.62284" lon="5.87605">
        <ele>248</ele>
        <time>2021-09-12T11:44:57.537Z</time>
      </trkpt>
      <trkpt lat="45.62279" lon="5.8761">
        <ele>248</ele>
        <time>2021-09-12T11:44:58.536Z</time>
      </trkpt>
      <trkpt lat="45.62275" lon="5.87614">
        <ele>249</ele>
        <time>2021-09-12T11:44:59.537Z</time>
      </trkpt>
      <trkpt lat="45.6227" lon="5.8762">
        <ele>249</ele>
        <time>2021-09-12T11:45:00.537Z</time>
      </trkpt>
      <trkpt lat="45.62265" lon="5.87625">
        <ele>249</ele>
        <time>2021-09-12T11:45:01.537Z</time>
      </trkpt>
      <trkpt lat="45.6226" lon="5.8763">
        <ele>249</ele>
        <time>2021-09-12T11:45:02.537Z</time>
      </trkpt>
      <trkpt lat="45.62255" lon="5.87635">
        <ele>249</ele>
        <time>2021-09-12T11:45:03.537Z</time>
      </trkpt>
      <trkpt lat="45.62251" lon="5.8764">
        <ele>249</ele>
        <time>2021-09-12T11:45:04.537Z</time>
      </trkpt>
      <trkpt lat="45.62246" lon="5.87645">
        <ele>249</ele>
        <time>2021-09-12T11:45:05.536Z</time>
      </trkpt>
      <trkpt lat="45.62242" lon="5.87649">
        <ele>249</ele>
        <time>2021-09-12T11:45:06.536Z</time>
      </trkpt>
      <trkpt lat="45.62237" lon="5.87655">
        <ele>250</ele>
        <time>2021-09-12T11:45:07.537Z</time>
      </trkpt>
      <trkpt lat="45.62233" lon="5.87659">
        <ele>250</ele>
        <time>2021-09-12T11:45:08.537Z</time>
      </trkpt>
      <trkpt lat="45.62228" lon="5.87663">
        <ele>250</ele>
        <time>2021-09-12T11:45:09.537Z</time>
      </trkpt>
      <trkpt lat="45.62222" lon="5.87668">
        <ele>249</ele>
        <time>2021-09-12T11:45:10.537Z</time>
      </trkpt>
      <trkpt lat="45.62218" lon="5.87671">
        <ele>248</ele>
        <time>2021-09-12T11:45:11.536Z</time>
      </trkpt>
      <trkpt lat="45.62213" lon="5.87674">
        <ele>247</ele>
        <time>2021-09-12T11:45:12.537Z</time>
      </trkpt>
      <trkpt lat="45.62209" lon="5.87678">
        <ele>247</ele>
        <time>2021-09-12T11:45:13.537Z</time>
      </trkpt>
      <trkpt lat="45.62205" lon="5.87683">
        <ele>246</ele>
        <time>2021-09-12T11:45:14.537Z</time>
      </trkpt>
      <trkpt lat="45.622" lon="5.8769">
        <ele>247</ele>
        <time>2021-09-12T11:45:15.537Z</time>
      </trkpt>
      <trkpt lat="45.62195" lon="5.87695">
        <ele>246</ele>
        <time>2021-09-12T11:45:16.537Z</time>
      </trkpt>
      <trkpt lat="45.62191" lon="5.877">
        <ele>246</ele>
        <time>2021-09-12T11:45:17.537Z</time>
      </trkpt>
      <trkpt lat="45.62188" lon="5.87705">
        <ele>246</ele>
        <time>2021-09-12T11:45:18.536Z</time>
      </trkpt>
      <trkpt lat="45.62184" lon="5.8771">
        <ele>246</ele>
        <time>2021-09-12T11:45:19.536Z</time>
      </trkpt>
      <trkpt lat="45.62178" lon="5.87716">
        <ele>246</ele>
        <time>2021-09-12T11:45:20.536Z</time>
      </trkpt>
      <trkpt lat="45.62173" lon="5.87721">
        <ele>246</ele>
        <time>2021-09-12T11:45:21.536Z</time>
      </trkpt>
      <trkpt lat="45.62169" lon="5.87726">
        <ele>246</ele>
        <time>2021-09-12T11:45:22.537Z</time>
      </trkpt>
      <trkpt lat="45.62165" lon="5.8773">
        <ele>246</ele>
        <time>2021-09-12T11:45:23.537Z</time>
      </trkpt>
      <trkpt lat="45.6216" lon="5.87736">
        <ele>246</ele>
        <time>2021-09-12T11:45:24.537Z</time>
      </trkpt>
      <trkpt lat="45.62155" lon="5.87741">
        <ele>246</ele>
        <time>2021-09-12T11:45:25.536Z</time>
      </trkpt>
      <trkpt lat="45.6215" lon="5.87746">
        <ele>246</ele>
        <time>2021-09-12T11:45:26.537Z</time>
      </trkpt>
      <trkpt lat="45.62146" lon="5.8775">
        <ele>247</ele>
        <time>2021-09-12T11:49:26.639Z</time>
      </trkpt>
      <trkpt lat="45.62142" lon="5.87754">
        <ele>247</ele>
        <time>2021-09-12T11:49:27.640Z</time>
      </trkpt>
      <trkpt lat="45.62136" lon="5.8776">
        <ele>247</ele>
        <time>2021-09-12T11:49:53.518Z</time>
      </trkpt>
      <trkpt lat="45.62132" lon="5.87765">
        <ele>248</ele>
        <time>2021-09-12T11:49:59.412Z</time>
      </trkpt>
      <trkpt lat="45.62127" lon="5.87769">
        <ele>248</ele>
        <time>2021-09-12T11:50:00.411Z</time>
      </trkpt>
      <trkpt lat="45.62122" lon="5.87774">
        <ele>248</ele>
        <time>2021-09-12T11:50:01.412Z</time>
      </trkpt>
      <trkpt lat="45.62118" lon="5.87778">
        <ele>249</ele>
        <time>2021-09-12T11:50:02.412Z</time>
      </trkpt>
      <trkpt lat="45.62113" lon="5.87783">
        <ele>249</ele>
        <time>2021-09-12T11:50:03.412Z</time>
      </trkpt>
      <trkpt lat="45.62108" lon="5.87788">
        <ele>250</ele>
        <time>2021-09-12T11:50:04.412Z</time>
      </trkpt>
      <trkpt lat="45.62103" lon="5.87792">
        <ele>250</ele>
        <time>2021-09-12T11:50:05.412Z</time>
      </trkpt>
      <trkpt lat="45.62098" lon="5.87797">
        <ele>250</ele>
        <time>2021-09-12T11:50:06.412Z</time>
      </trkpt>
      <trkpt lat="45.62094" lon="5.878">
        <ele>250</ele>
        <time>2021-09-12T11:50:07.412Z</time>
      </trkpt>
      <trkpt lat="45.62088" lon="5.87805">
        <ele>250</ele>
        <time>2021-09-12T11:50:08.411Z</time>
      </trkpt>
      <trkpt lat="45.62083" lon="5.8781">
        <ele>249</ele>
        <time>2021-09-12T11:50:09.412Z</time>
      </trkpt>
      <trkpt lat="45.62078" lon="5.87814">
        <ele>249</ele>
        <time>2021-09-12T11:50:10.412Z</time>
      </trkpt>
      <trkpt lat="45.62074" lon="5.87818">
        <ele>249</ele>
        <time>2021-09-12T11:50:11.412Z</time>
      </trkpt>
      <trkpt lat="45.62069" lon="5.87822">
        <ele>249</ele>
        <time>2021-09-12T11:50:12.412Z</time>
      </trkpt>
      <trkpt lat="45.62064" lon="5.87828">
        <ele>249</ele>
        <time>2021-09-12T11:50:13.412Z</time>
      </trkpt>
      <trkpt lat="45.62059" lon="5.87832">
        <ele>249</ele>
        <time>2021-09-12T11:50:14.412Z</time>
      </trkpt>
      <trkpt lat="45.62054" lon="5.87837">
        <ele>249</ele>
        <time>2021-09-12T11:50:15.412Z</time>
      </trkpt>
      <trkpt lat="45.62051" lon="5.87841">
        <ele>249</ele>
        <time>2021-09-12T11:50:16.412Z</time>
      </trkpt>
      <trkpt lat="45.62046" lon="5.87846">
        <ele>249</ele>
        <time>2021-09-12T11:50:17.412Z</time>
      </trkpt>
      <trkpt lat="45.62041" lon="5.8785">
        <ele>249</ele>
        <time>2021-09-12T11:50:18.411Z</time>
      </trkpt>
      <trkpt lat="45.62036" lon="5.87855">
        <ele>249</ele>
        <time>2021-09-12T11:50:19.412Z</time>
      </trkpt>
      <trkpt lat="45.6203" lon="5.8786">
        <ele>250</ele>
        <time>2021-09-12T11:50:20.412Z</time>
      </trkpt>
      <trkpt lat="45.62025" lon="5.87865">
        <ele>249</ele>
        <time>2021-09-12T11:50:21.412Z</time>
      </trkpt>
      <trkpt lat="45.62021" lon="5.87868">
        <ele>249</ele>
        <time>2021-09-12T11:50:22.412Z</time>
      </trkpt>
      <trkpt lat="45.62015" lon="5.87874">
        <ele>249</ele>
        <time>2021-09-12T11:50:23.412Z</time>
      </trkpt>
      <trkpt lat="45.6201" lon="5.87878">
        <ele>249</ele>
        <time>2021-09-12T11:50:24.412Z</time>
      </trkpt>
      <trkpt lat="45.62005" lon="5.87883">
        <ele>249</ele>
        <time>2021-09-12T11:50:25.411Z</time>
      </trkpt>
      <trkpt lat="45.62001" lon="5.87886">
        <ele>249</ele>
        <time>2021-09-12T11:50:26.411Z</time>
      </trkpt>
      <trkpt lat="45.61996" lon="5.87891">
        <ele>249</ele>
        <time>2021-09-12T11:50:27.412Z</time>
      </trkpt>
      <trkpt lat="45.6199" lon="5.87896">
        <ele>249</ele>
        <time>2021-09-12T11:50:28.412Z</time>
      </trkpt>
      <trkpt lat="45.61986" lon="5.87901">
        <ele>249</ele>
        <time>2021-09-12T11:50:29.412Z</time>
      </trkpt>
      <trkpt lat="45.61981" lon="5.87905">
        <ele>250</ele>
        <time>2021-09-12T11:50:30.412Z</time>
      </trkpt>
      <trkpt lat="45.61976" lon="5.8791">
        <ele>250</ele>
        <time>2021-09-12T11:50:31.412Z</time>
      </trkpt>
      <trkpt lat="45.61972" lon="5.87914">
        <ele>250</ele>
        <time>2021-09-12T11:50:32.411Z</time>
      </trkpt>
      <trkpt lat="45.61967" lon="5.87919">
        <ele>250</ele>
        <time>2021-09-12T11:50:33.411Z</time>
      </trkpt>
      <trkpt lat="45.61962" lon="5.87924">
        <ele>250</ele>
        <time>2021-09-12T11:50:34.411Z</time>
      </trkpt>
      <trkpt lat="45.61957" lon="5.87929">
        <ele>250</ele>
        <time>2021-09-12T11:50:35.412Z</time>
      </trkpt>
      <trkpt lat="45.61953" lon="5.87934">
        <ele>249</ele>
        <time>2021-09-12T11:50:36.411Z</time>
      </trkpt>
      <trkpt lat="45.61948" lon="5.8794">
        <ele>250</ele>
        <time>2021-09-12T11:50:37.411Z</time>
      </trkpt>
      <trkpt lat="45.61943" lon="5.87945">
        <ele>250</ele>
        <time>2021-09-12T11:50:39.523Z</time>
      </trkpt>
      <trkpt lat="45.61939" lon="5.87949">
        <ele>250</ele>
        <time>2021-09-12T11:50:40.524Z</time>
      </trkpt>
      <trkpt lat="45.61934" lon="5.87954">
        <ele>250</ele>
        <time>2021-09-12T11:50:41.524Z</time>
      </trkpt>
      <trkpt lat="45.6193" lon="5.87958">
        <ele>251</ele>
        <time>2021-09-12T11:50:42.524Z</time>
      </trkpt>
      <trkpt lat="45.61925" lon="5.87963">
        <ele>250</ele>
        <time>2021-09-12T12:08:56.477Z</time>
      </trkpt>
      <trkpt lat="45.61921" lon="5.87967">
        <ele>250</ele>
        <time>2021-09-12T12:08:57.477Z</time>
      </trkpt>
      <trkpt lat="45.61915" lon="5.87973">
        <ele>250</ele>
        <time>2021-09-12T12:08:58.477Z</time>
      </trkpt>
      <trkpt lat="45.61912" lon="5.87976">
        <ele>250</ele>
        <time>2021-09-12T12:08:59.477Z</time>
      </trkpt>
      <trkpt lat="45.61907" lon="5.87981">
        <ele>250</ele>
        <time>2021-09-12T12:09:00.477Z</time>
      </trkpt>
      <trkpt lat="45.61902" lon="5.87985">
        <ele>250</ele>
        <time>2021-09-12T12:09:01.477Z</time>
      </trkpt>
      <trkpt lat="45.61897" lon="5.87991">
        <ele>250</ele>
        <time>2021-09-12T12:09:02.477Z</time>
      </trkpt>
      <trkpt lat="45.61892" lon="5.87995">
        <ele>250</ele>
        <time>2021-09-12T12:09:03.477Z</time>
      </trkpt>
      <trkpt lat="45.61888" lon="5.87999">
        <ele>251</ele>
        <time>2021-09-12T12:09:04.477Z</time>
      </trkpt>
      <trkpt lat="45.61883" lon="5.88005">
        <ele>251</ele>
        <time>2021-09-12T12:09:05.477Z</time>
      </trkpt>
      <trkpt lat="45.61877" lon="5.88011">
        <ele>251</ele>
        <time>2021-09-12T12:09:06.477Z</time>
      </trkpt>
      <trkpt lat="45.61872" lon="5.88016">
        <ele>251</ele>
        <time>2021-09-12T12:09:07.477Z</time>
      </trkpt>
      <trkpt lat="45.61867" lon="5.88021">
        <ele>251</ele>
        <time>2021-09-12T12:09:08.477Z</time>
      </trkpt>
      <trkpt lat="45.61863" lon="5.88026">
        <ele>251</ele>
        <time>2021-09-12T12:09:09.476Z</time>
      </trkpt>
      <trkpt lat="45.61858" lon="5.8803">
        <ele>251</ele>
        <time>2021-09-12T12:09:10.477Z</time>
      </trkpt>
      <trkpt lat="45.61853" lon="5.88035">
        <ele>251</ele>
        <time>2021-09-12T12:09:11.477Z</time>
      </trkpt>
      <trkpt lat="45.61848" lon="5.8804">
        <ele>251</ele>
        <time>2021-09-12T12:09:12.477Z</time>
      </trkpt>
      <trkpt lat="45.61843" lon="5.88044">
        <ele>251</ele>
        <time>2021-09-12T12:09:13.477Z</time>
      </trkpt>
      <trkpt lat="45.61839" lon="5.88048">
        <ele>251</ele>
        <time>2021-09-12T12:09:14.477Z</time>
      </trkpt>
      <trkpt lat="45.61834" lon="5.88052">
        <ele>250</ele>
        <time>2021-09-12T12:09:15.477Z</time>
      </trkpt>
      <trkpt lat="45.61828" lon="5.88058">
        <ele>250</ele>
        <time>2021-09-12T12:09:16.476Z</time>
      </trkpt>
      <trkpt lat="45.61823" lon="5.88063">
        <ele>250</ele>
        <time>2021-09-12T12:09:17.477Z</time>
      </trkpt>
      <trkpt lat="45.61819" lon="5.88066">
        <ele>250</ele>
        <time>2021-09-12T12:09:18.477Z</time>
      </trkpt>
      <trkpt lat="45.61814" lon="5.88071">
        <ele>250</ele>
        <time>2021-09-12T12:09:19.477Z</time>
      </trkpt>
      <trkpt lat="45.61809" lon="5.88076">
        <ele>250</ele>
        <time>2021-09-12T12:09:20.477Z</time>
      </trkpt>
      <trkpt lat="45.61804" lon="5.88081">
        <ele>250</ele>
        <time>2021-09-12T12:09:21.476Z</time>
      </trkpt>
      <trkpt lat="45.61799" lon="5.88086">
        <ele>251</ele>
        <time>2021-09-12T12:09:22.476Z</time>
      </trkpt>
      <trkpt lat="45.61794" lon="5.88091">
        <ele>251</ele>
        <time>2021-09-12T12:09:23.476Z</time>
      </trkpt>
      <trkpt lat="45.61789" lon="5.88095">
        <ele>252</ele>
        <time>2021-09-12T12:09:24.477Z</time>
      </trkpt>
      <trkpt lat="45.61784" lon="5.88101">
        <ele>252</ele>
        <time>2021-09-12T12:09:25.476Z</time>
      </trkpt>
      <trkpt lat="45.61779" lon="5.88106">
        <ele>252</ele>
        <time>2021-09-12T12:09:26.477Z</time>
      </trkpt>
      <trkpt lat="45.61775" lon="5.88113">
        <ele>252</ele>
        <time>2021-09-12T12:09:27.477Z</time>
      </trkpt>
      <trkpt lat="45.6177" lon="5.88119">
        <ele>253</ele>
        <time>2021-09-12T12:09:28.477Z</time>
      </trkpt>
      <trkpt lat="45.61766" lon="5.88125">
        <ele>253</ele>
        <time>2021-09-12T12:09:29.477Z</time>
      </trkpt>
      <trkpt lat="45.61762" lon="5.88131">
        <ele>253</ele>
        <time>2021-09-12T12:09:30.477Z</time>
      </trkpt>
      <trkpt lat="45.61759" lon="5.88138">
        <ele>253</ele>
        <time>2021-09-12T12:09:31.477Z</time>
      </trkpt>
      <trkpt lat="45.61754" lon="5.88145">
        <ele>253</ele>
        <time>2021-09-12T12:09:32.476Z</time>
      </trkpt>
      <trkpt lat="45.6175" lon="5.88153">
        <ele>253</ele>
        <time>2021-09-12T12:09:33.477Z</time>
      </trkpt>
      <trkpt lat="45.61746" lon="5.8816">
        <ele>253</ele>
        <time>2021-09-12T12:09:34.476Z</time>
      </trkpt>
      <trkpt lat="45.61742" lon="5.88168">
        <ele>254</ele>
        <time>2021-09-12T12:09:35.476Z</time>
      </trkpt>
      <trkpt lat="45.61737" lon="5.88175">
        <ele>254</ele>
        <time>2021-09-12T12:09:36.477Z</time>
      </trkpt>
      <trkpt lat="45.61733" lon="5.88184">
        <ele>254</ele>
        <time>2021-09-12T12:09:37.477Z</time>
      </trkpt>
      <trkpt lat="45.61729" lon="5.88191">
        <ele>254</ele>
        <time>2021-09-12T12:09:38.477Z</time>
      </trkpt>
      <trkpt lat="45.61725" lon="5.88197">
        <ele>254</ele>
        <time>2021-09-12T12:09:39.476Z</time>
      </trkpt>
      <trkpt lat="45.6172" lon="5.88205">
        <ele>253</ele>
        <time>2021-09-12T12:09:40.477Z</time>
      </trkpt>
      <trkpt lat="45.61716" lon="5.88212">
        <ele>253</ele>
        <time>2021-09-12T12:09:41.477Z</time>
      </trkpt>
      <trkpt lat="45.61712" lon="5.88218">
        <ele>253</ele>
        <time>2021-09-12T12:09:42.476Z</time>
      </trkpt>
      <trkpt lat="45.61708" lon="5.88225">
        <ele>252</ele>
        <time>2021-09-12T12:09:43.477Z</time>
      </trkpt>
      <trkpt lat="45.61704" lon="5.88232">
        <ele>252</ele>
        <time>2021-09-12T12:09:44.477Z</time>
      </trkpt>
      <trkpt lat="45.61699" lon="5.8824">
        <ele>252</ele>
        <time>2021-09-12T12:09:45.477Z</time>
      </trkpt>
      <trkpt lat="45.61696" lon="5.88247">
        <ele>252</ele>
        <time>2021-09-12T12:09:46.477Z</time>
      </trkpt>
      <trkpt lat="45.61692" lon="5.88253">
        <ele>251</ele>
        <time>2021-09-12T12:09:47.477Z</time>
      </trkpt>
      <trkpt lat="45.61687" lon="5.88259">
        <ele>251</ele>
        <time>2021-09-12T12:09:48.476Z</time>
      </trkpt>
      <trkpt lat="45.61683" lon="5.88264">
        <ele>251</ele>
        <time>2021-09-12T12:09:49.477Z</time>
      </trkpt>
      <trkpt lat="45.61678" lon="5.88271">
        <ele>251</ele>
        <time>2021-09-12T12:09:50.477Z</time>
      </trkpt>
      <trkpt lat="45.61673" lon="5.88277">
        <ele>251</ele>
        <time>2021-09-12T12:09:51.476Z</time>
      </trkpt>
      <trkpt lat="45.61668" lon="5.88282">
        <ele>251</ele>
        <time>2021-09-12T12:09:52.477Z</time>
      </trkpt>
      <trkpt lat="45.61663" lon="5.88287">
        <ele>251</ele>
        <time>2021-09-12T12:09:53.477Z</time>
      </trkpt>
      <trkpt lat="45.61658" lon="5.88291">
        <ele>250</ele>
        <time>2021-09-12T12:09:54.477Z</time>
      </trkpt>
      <trkpt lat="45.61653" lon="5.88296">
        <ele>251</ele>
        <time>2021-09-12T12:09:55.477Z</time>
      </trkpt>
      <trkpt lat="45.61647" lon="5.883">
        <ele>251</ele>
        <time>2021-09-12T12:09:56.477Z</time>
      </trkpt>
      <trkpt lat="45.61642" lon="5.88304">
        <ele>251</ele>
        <time>2021-09-12T12:09:57.476Z</time>
      </trkpt>
      <trkpt lat="45.61637" lon="5.88307">
        <ele>251</ele>
        <time>2021-09-12T12:09:58.477Z</time>
      </trkpt>
      <trkpt lat="45.61632" lon="5.88311">
        <ele>251</ele>
        <time>2021-09-12T12:09:59.477Z</time>
      </trkpt>
      <trkpt lat="45.61625" lon="5.88316">
        <ele>251</ele>
        <time>2021-09-12T12:10:00.477Z</time>
      </trkpt>
      <trkpt lat="45.6162" lon="5.88319">
        <ele>251</ele>
        <time>2021-09-12T12:10:01.477Z</time>
      </trkpt>
      <trkpt lat="45.61614" lon="5.88323">
        <ele>251</ele>
        <time>2021-09-12T12:10:02.477Z</time>
      </trkpt>
      <trkpt lat="45.6161" lon="5.88325">
        <ele>251</ele>
        <time>2021-09-12T12:10:03.477Z</time>
      </trkpt>
      <trkpt lat="45.61604" lon="5.88328">
        <ele>251</ele>
        <time>2021-09-12T12:10:04.477Z</time>
      </trkpt>
      <trkpt lat="45.61597" lon="5.88331">
        <ele>251</ele>
        <time>2021-09-12T12:10:05.477Z</time>
      </trkpt>
      <trkpt lat="45.61592" lon="5.88332">
        <ele>251</ele>
        <time>2021-09-12T12:10:06.477Z</time>
      </trkpt>
      <trkpt lat="45.61587" lon="5.88334">
        <ele>250</ele>
        <time>2021-09-12T12:10:07.477Z</time>
      </trkpt>
      <trkpt lat="45.61581" lon="5.88335">
        <ele>250</ele>
        <time>2021-09-12T12:10:08.476Z</time>
      </trkpt>
      <trkpt lat="45.61576" lon="5.88336">
        <ele>251</ele>
        <time>2021-09-12T12:10:09.477Z</time>
      </trkpt>
      <trkpt lat="45.6157" lon="5.88336">
        <ele>250</ele>
        <time>2021-09-12T12:10:10.476Z</time>
      </trkpt>
      <trkpt lat="45.61564" lon="5.88337">
        <ele>250</ele>
        <time>2021-09-12T12:10:11.477Z</time>
      </trkpt>
      <trkpt lat="45.61559" lon="5.88337">
        <ele>250</ele>
        <time>2021-09-12T12:10:12.477Z</time>
      </trkpt>
      <trkpt lat="45.61553" lon="5.88337">
        <ele>250</ele>
        <time>2021-09-12T12:10:13.476Z</time>
      </trkpt>
      <trkpt lat="45.61548" lon="5.88337">
        <ele>250</ele>
        <time>2021-09-12T12:10:14.477Z</time>
      </trkpt>
      <trkpt lat="45.61542" lon="5.88337">
        <ele>250</ele>
        <time>2021-09-12T12:10:15.477Z</time>
      </trkpt>
      <trkpt lat="45.61535" lon="5.88337">
        <ele>250</ele>
        <time>2021-09-12T12:10:16.477Z</time>
      </trkpt>
      <trkpt lat="45.61531" lon="5.88337">
        <ele>250</ele>
        <time>2021-09-12T12:10:17.477Z</time>
      </trkpt>
      <trkpt lat="45.61525" lon="5.88337">
        <ele>251</ele>
        <time>2021-09-12T12:10:18.476Z</time>
      </trkpt>
      <trkpt lat="45.61519" lon="5.88337">
        <ele>251</ele>
        <time>2021-09-12T12:10:19.477Z</time>
      </trkpt>
      <trkpt lat="45.61513" lon="5.88336">
        <ele>251</ele>
        <time>2021-09-12T12:10:20.477Z</time>
      </trkpt>
      <trkpt lat="45.61507" lon="5.88336">
        <ele>251</ele>
        <time>2021-09-12T12:10:21.477Z</time>
      </trkpt>
      <trkpt lat="45.61502" lon="5.88336">
        <ele>250</ele>
        <time>2021-09-12T12:10:22.477Z</time>
      </trkpt>
      <trkpt lat="45.61496" lon="5.88336">
        <ele>250</ele>
        <time>2021-09-12T12:10:23.476Z</time>
      </trkpt>
      <trkpt lat="45.6149" lon="5.88336">
        <ele>249</ele>
        <time>2021-09-12T12:10:24.477Z</time>
      </trkpt>
      <trkpt lat="45.61483" lon="5.88337">
        <ele>249</ele>
        <time>2021-09-12T12:10:25.476Z</time>
      </trkpt>
      <trkpt lat="45.61478" lon="5.88337">
        <ele>249</ele>
        <time>2021-09-12T12:10:26.477Z</time>
      </trkpt>
      <trkpt lat="45.61472" lon="5.88337">
        <ele>248</ele>
        <time>2021-09-12T12:10:27.477Z</time>
      </trkpt>
      <trkpt lat="45.61465" lon="5.88338">
        <ele>248</ele>
        <time>2021-09-12T12:10:28.477Z</time>
      </trkpt>
      <trkpt lat="45.61459" lon="5.88338">
        <ele>248</ele>
        <time>2021-09-12T12:10:29.476Z</time>
      </trkpt>
      <trkpt lat="45.61452" lon="5.88338">
        <ele>247</ele>
        <time>2021-09-12T12:10:30.477Z</time>
      </trkpt>
      <trkpt lat="45.61445" lon="5.88338">
        <ele>247</ele>
        <time>2021-09-12T12:10:31.477Z</time>
      </trkpt>
      <trkpt lat="45.61439" lon="5.88338">
        <ele>247</ele>
        <time>2021-09-12T12:10:32.476Z</time>
      </trkpt>
      <trkpt lat="45.61432" lon="5.88338">
        <ele>247</ele>
        <time>2021-09-12T12:10:33.477Z</time>
      </trkpt>
      <trkpt lat="45.61426" lon="5.88338">
        <ele>247</ele>
        <time>2021-09-12T12:10:34.477Z</time>
      </trkpt>
      <trkpt lat="45.61419" lon="5.88338">
        <ele>248</ele>
        <time>2021-09-12T12:10:35.477Z</time>
      </trkpt>
      <trkpt lat="45.61413" lon="5.88338">
        <ele>248</ele>
        <time>2021-09-12T12:10:36.477Z</time>
      </trkpt>
      <trkpt lat="45.61407" lon="5.88338">
        <ele>249</ele>
        <time>2021-09-12T12:10:37.477Z</time>
      </trkpt>
      <trkpt lat="45.614" lon="5.88338">
        <ele>249</ele>
        <time>2021-09-12T12:10:38.477Z</time>
      </trkpt>
      <trkpt lat="45.61394" lon="5.88338">
        <ele>249</ele>
        <time>2021-09-12T12:10:39.477Z</time>
      </trkpt>
      <trkpt lat="45.61388" lon="5.88338">
        <ele>249</ele>
        <time>2021-09-12T12:10:40.476Z</time>
      </trkpt>
      <trkpt lat="45.61381" lon="5.88338">
        <ele>249</ele>
        <time>2021-09-12T12:10:41.477Z</time>
      </trkpt>
      <trkpt lat="45.61373" lon="5.88337">
        <ele>250</ele>
        <time>2021-09-12T12:10:42.477Z</time>
      </trkpt>
      <trkpt lat="45.61368" lon="5.88337">
        <ele>250</ele>
        <time>2021-09-12T12:10:43.477Z</time>
      </trkpt>
      <trkpt lat="45.61362" lon="5.88336">
        <ele>251</ele>
        <time>2021-09-12T12:10:44.477Z</time>
      </trkpt>
      <trkpt lat="45.61355" lon="5.88336">
        <ele>251</ele>
        <time>2021-09-12T12:10:45.477Z</time>
      </trkpt>
      <trkpt lat="45.61349" lon="5.88336">
        <ele>252</ele>
        <time>2021-09-12T12:10:46.477Z</time>
      </trkpt>
      <trkpt lat="45.61343" lon="5.88336">
        <ele>252</ele>
        <time>2021-09-12T12:10:47.477Z</time>
      </trkpt>
      <trkpt lat="45.61337" lon="5.88336">
        <ele>252</ele>
        <time>2021-09-12T12:10:48.477Z</time>
      </trkpt>
      <trkpt lat="45.6133" lon="5.88336">
        <ele>253</ele>
        <time>2021-09-12T12:10:49.476Z</time>
      </trkpt>
      <trkpt lat="45.61324" lon="5.88337">
        <ele>253</ele>
        <time>2021-09-12T12:10:50.476Z</time>
      </trkpt>
      <trkpt lat="45.61317" lon="5.88337">
        <ele>254</ele>
        <time>2021-09-12T12:10:51.477Z</time>
      </trkpt>
      <trkpt lat="45.61311" lon="5.88337">
        <ele>255</ele>
        <time>2021-09-12T12:10:52.477Z</time>
      </trkpt>
      <trkpt lat="45.61304" lon="5.88337">
        <ele>256</ele>
        <time>2021-09-12T12:10:53.477Z</time>
      </trkpt>
      <trkpt lat="45.61298" lon="5.88337">
        <ele>256</ele>
        <time>2021-09-12T12:10:54.477Z</time>
      </trkpt>
      <trkpt lat="45.61291" lon="5.88336">
        <ele>256</ele>
        <time>2021-09-12T12:10:55.477Z</time>
      </trkpt>
      <trkpt lat="45.61285" lon="5.88337">
        <ele>256</ele>
        <time>2021-09-12T12:10:56.476Z</time>
      </trkpt>
      <trkpt lat="45.61278" lon="5.88337">
        <ele>256</ele>
        <time>2021-09-12T12:10:57.477Z</time>
      </trkpt>
      <trkpt lat="45.61271" lon="5.88338">
        <ele>257</ele>
        <time>2021-09-12T12:10:58.476Z</time>
      </trkpt>
      <trkpt lat="45.61264" lon="5.88338">
        <ele>257</ele>
        <time>2021-09-12T12:10:59.476Z</time>
      </trkpt>
      <trkpt lat="45.61257" lon="5.88339">
        <ele>257</ele>
        <time>2021-09-12T12:11:00.476Z</time>
      </trkpt>
      <trkpt lat="45.61252" lon="5.88339">
        <ele>257</ele>
        <time>2021-09-12T12:11:01.477Z</time>
      </trkpt>
      <trkpt lat="45.61244" lon="5.8834">
        <ele>257</ele>
        <time>2021-09-12T12:11:02.476Z</time>
      </trkpt>
      <trkpt lat="45.61238" lon="5.88341">
        <ele>257</ele>
        <time>2021-09-12T12:11:03.476Z</time>
      </trkpt>
      <trkpt lat="45.61233" lon="5.88341">
        <ele>256</ele>
        <time>2021-09-12T12:11:04.476Z</time>
      </trkpt>
      <trkpt lat="45.61225" lon="5.88342">
        <ele>256</ele>
        <time>2021-09-12T12:11:05.476Z</time>
      </trkpt>
      <trkpt lat="45.61219" lon="5.88343">
        <ele>256</ele>
        <time>2021-09-12T12:11:06.477Z</time>
      </trkpt>
      <trkpt lat="45.61213" lon="5.88344">
        <ele>255</ele>
        <time>2021-09-12T12:11:07.477Z</time>
      </trkpt>
      <trkpt lat="45.61206" lon="5.88345">
        <ele>255</ele>
        <time>2021-09-12T12:11:08.477Z</time>
      </trkpt>
      <trkpt lat="45.61201" lon="5.88346">
        <ele>255</ele>
        <time>2021-09-12T12:11:09.477Z</time>
      </trkpt>
      <trkpt lat="45.61195" lon="5.88347">
        <ele>255</ele>
        <time>2021-09-12T12:11:10.477Z</time>
      </trkpt>
      <trkpt lat="45.61188" lon="5.88348">
        <ele>254</ele>
        <time>2021-09-12T12:11:11.477Z</time>
      </trkpt>
      <trkpt lat="45.61182" lon="5.88349">
        <ele>254</ele>
        <time>2021-09-12T12:11:12.477Z</time>
      </trkpt>
      <trkpt lat="45.61175" lon="5.8835">
        <ele>254</ele>
        <time>2021-09-12T12:11:13.477Z</time>
      </trkpt>
      <trkpt lat="45.61169" lon="5.88351">
        <ele>254</ele>
        <time>2021-09-12T12:11:14.477Z</time>
      </trkpt>
      <trkpt lat="45.61163" lon="5.88353">
        <ele>254</ele>
        <time>2021-09-12T12:11:15.477Z</time>
      </trkpt>
      <trkpt lat="45.61156" lon="5.88354">
        <ele>254</ele>
        <time>2021-09-12T12:11:16.477Z</time>
      </trkpt>
      <trkpt lat="45.61149" lon="5.88356">
        <ele>254</ele>
        <time>2021-09-12T12:11:17.476Z</time>
      </trkpt>
      <trkpt lat="45.61144" lon="5.88357">
        <ele>254</ele>
        <time>2021-09-12T12:11:18.477Z</time>
      </trkpt>
      <trkpt lat="45.61138" lon="5.88358">
        <ele>254</ele>
        <time>2021-09-12T12:11:19.477Z</time>
      </trkpt>
      <trkpt lat="45.61131" lon="5.8836">
        <ele>253</ele>
        <time>2021-09-12T12:11:20.477Z</time>
      </trkpt>
      <trkpt lat="45.61123" lon="5.88362">
        <ele>253</ele>
        <time>2021-09-12T12:11:21.477Z</time>
      </trkpt>
      <trkpt lat="45.61117" lon="5.88363">
        <ele>253</ele>
        <time>2021-09-12T12:11:22.477Z</time>
      </trkpt>
      <trkpt lat="45.61112" lon="5.88365">
        <ele>252</ele>
        <time>2021-09-12T12:11:23.477Z</time>
      </trkpt>
      <trkpt lat="45.61105" lon="5.88366">
        <ele>252</ele>
        <time>2021-09-12T12:11:24.476Z</time>
      </trkpt>
      <trkpt lat="45.61099" lon="5.88368">
        <ele>252</ele>
        <time>2021-09-12T12:11:25.477Z</time>
      </trkpt>
      <trkpt lat="45.61091" lon="5.8837">
        <ele>252</ele>
        <time>2021-09-12T12:11:26.477Z</time>
      </trkpt>
      <trkpt lat="45.61086" lon="5.88372">
        <ele>251</ele>
        <time>2021-09-12T12:11:27.477Z</time>
      </trkpt>
      <trkpt lat="45.6108" lon="5.88373">
        <ele>251</ele>
        <time>2021-09-12T12:11:28.476Z</time>
      </trkpt>
      <trkpt lat="45.61075" lon="5.88374">
        <ele>251</ele>
        <time>2021-09-12T12:11:29.477Z</time>
      </trkpt>
      <trkpt lat="45.61068" lon="5.88376">
        <ele>250</ele>
        <time>2021-09-12T12:11:30.476Z</time>
      </trkpt>
      <trkpt lat="45.61063" lon="5.88377">
        <ele>250</ele>
        <time>2021-09-12T12:11:31.477Z</time>
      </trkpt>
      <trkpt lat="45.61057" lon="5.88379">
        <ele>249</ele>
        <time>2021-09-12T12:11:32.477Z</time>
      </trkpt>
      <trkpt lat="45.61052" lon="5.8838">
        <ele>249</ele>
        <time>2021-09-12T12:11:33.477Z</time>
      </trkpt>
      <trkpt lat="45.61047" lon="5.88382">
        <ele>249</ele>
        <time>2021-09-12T12:11:34.477Z</time>
      </trkpt>
      <trkpt lat="45.61041" lon="5.88383">
        <ele>249</ele>
        <time>2021-09-12T12:11:35.477Z</time>
      </trkpt>
      <trkpt lat="45.61035" lon="5.88385">
        <ele>249</ele>
        <time>2021-09-12T12:11:36.476Z</time>
      </trkpt>
      <trkpt lat="45.61029" lon="5.88388">
        <ele>249</ele>
        <time>2021-09-12T12:11:37.476Z</time>
      </trkpt>
      <trkpt lat="45.61023" lon="5.8839">
        <ele>249</ele>
        <time>2021-09-12T12:11:38.477Z</time>
      </trkpt>
      <trkpt lat="45.61018" lon="5.88392">
        <ele>249</ele>
        <time>2021-09-12T12:11:39.477Z</time>
      </trkpt>
      <trkpt lat="45.61011" lon="5.88395">
        <ele>249</ele>
        <time>2021-09-12T12:11:40.477Z</time>
      </trkpt>
      <trkpt lat="45.61005" lon="5.88398">
        <ele>248</ele>
        <time>2021-09-12T12:11:41.476Z</time>
      </trkpt>
      <trkpt lat="45.60999" lon="5.88401">
        <ele>248</ele>
        <time>2021-09-12T12:11:42.477Z</time>
      </trkpt>
      <trkpt lat="45.60993" lon="5.88404">
        <ele>249</ele>
        <time>2021-09-12T12:11:43.477Z</time>
      </trkpt>
      <trkpt lat="45.60989" lon="5.88406">
        <ele>249</ele>
        <time>2021-09-12T12:11:44.477Z</time>
      </trkpt>
      <trkpt lat="45.60983" lon="5.88409">
        <ele>249</ele>
        <time>2021-09-12T12:11:45.476Z</time>
      </trkpt>
      <trkpt lat="45.60976" lon="5.88413">
        <ele>249</ele>
        <time>2021-09-12T12:11:46.477Z</time>
      </trkpt>
      <trkpt lat="45.60971" lon="5.88416">
        <ele>249</ele>
        <time>2021-09-12T12:11:47.477Z</time>
      </trkpt>
      <trkpt lat="45.60966" lon="5.88419">
        <ele>249</ele>
        <time>2021-09-12T12:11:48.477Z</time>
      </trkpt>
      <trkpt lat="45.6096" lon="5.88422">
        <ele>249</ele>
        <time>2021-09-12T12:11:49.477Z</time>
      </trkpt>
      <trkpt lat="45.60954" lon="5.88425">
        <ele>250</ele>
        <time>2021-09-12T12:11:50.476Z</time>
      </trkpt>
      <trkpt lat="45.60949" lon="5.88428">
        <ele>250</ele>
        <time>2021-09-12T12:11:51.477Z</time>
      </trkpt>
      <trkpt lat="45.60943" lon="5.88431">
        <ele>250</ele>
        <time>2021-09-12T12:11:52.477Z</time>
      </trkpt>
      <trkpt lat="45.60938" lon="5.88433">
        <ele>250</ele>
        <time>2021-09-12T12:11:53.476Z</time>
      </trkpt>
      <trkpt lat="45.60932" lon="5.88436">
        <ele>251</ele>
        <time>2021-09-12T12:11:54.477Z</time>
      </trkpt>
      <trkpt lat="45.60927" lon="5.88438">
        <ele>251</ele>
        <time>2021-09-12T12:11:55.477Z</time>
      </trkpt>
      <trkpt lat="45.60922" lon="5.88441">
        <ele>251</ele>
        <time>2021-09-12T12:11:56.477Z</time>
      </trkpt>
      <trkpt lat="45.60916" lon="5.88443">
        <ele>251</ele>
        <time>2021-09-12T12:11:57.477Z</time>
      </trkpt>
      <trkpt lat="45.6091" lon="5.88446">
        <ele>251</ele>
        <time>2021-09-12T12:11:58.477Z</time>
      </trkpt>
      <trkpt lat="45.60905" lon="5.88448">
        <ele>250</ele>
        <time>2021-09-12T12:11:59.477Z</time>
      </trkpt>
      <trkpt lat="45.60899" lon="5.88451">
        <ele>250</ele>
        <time>2021-09-12T12:12:00.477Z</time>
      </trkpt>
      <trkpt lat="45.60893" lon="5.88453">
        <ele>250</ele>
        <time>2021-09-12T12:12:01.477Z</time>
      </trkpt>
      <trkpt lat="45.60887" lon="5.88455">
        <ele>250</ele>
        <time>2021-09-12T12:12:02.477Z</time>
      </trkpt>
      <trkpt lat="45.60881" lon="5.88458">
        <ele>249</ele>
        <time>2021-09-12T12:12:03.476Z</time>
      </trkpt>
      <trkpt lat="45.60875" lon="5.8846">
        <ele>249</ele>
        <time>2021-09-12T12:12:04.477Z</time>
      </trkpt>
      <trkpt lat="45.60869" lon="5.88463">
        <ele>249</ele>
        <time>2021-09-12T12:12:05.477Z</time>
      </trkpt>
      <trkpt lat="45.60864" lon="5.88465">
        <ele>249</ele>
        <time>2021-09-12T12:12:06.477Z</time>
      </trkpt>
      <trkpt lat="45.60858" lon="5.88468">
        <ele>249</ele>
        <time>2021-09-12T12:12:07.476Z</time>
      </trkpt>
      <trkpt lat="45.60853" lon="5.88471">
        <ele>249</ele>
        <time>2021-09-12T12:12:08.477Z</time>
      </trkpt>
      <trkpt lat="45.60847" lon="5.88473">
        <ele>249</ele>
        <time>2021-09-12T12:12:09.476Z</time>
      </trkpt>
      <trkpt lat="45.60841" lon="5.88476">
        <ele>249</ele>
        <time>2021-09-12T12:12:10.477Z</time>
      </trkpt>
      <trkpt lat="45.60836" lon="5.88478">
        <ele>248</ele>
        <time>2021-09-12T12:12:11.477Z</time>
      </trkpt>
      <trkpt lat="45.6083" lon="5.88481">
        <ele>248</ele>
        <time>2021-09-12T12:12:12.477Z</time>
      </trkpt>
      <trkpt lat="45.60825" lon="5.88484">
        <ele>248</ele>
        <time>2021-09-12T12:12:13.477Z</time>
      </trkpt>
      <trkpt lat="45.60819" lon="5.88486">
        <ele>248</ele>
        <time>2021-09-12T12:12:14.476Z</time>
      </trkpt>
      <trkpt lat="45.60813" lon="5.88489">
        <ele>247</ele>
        <time>2021-09-12T12:12:15.477Z</time>
      </trkpt>
      <trkpt lat="45.60808" lon="5.88492">
        <ele>248</ele>
        <time>2021-09-12T12:12:16.477Z</time>
      </trkpt>
      <trkpt lat="45.60802" lon="5.88495">
        <ele>248</ele>
        <time>2021-09-12T12:12:17.477Z</time>
      </trkpt>
      <trkpt lat="45.60796" lon="5.88498">
        <ele>248</ele>
        <time>2021-09-12T12:12:18.477Z</time>
      </trkpt>
      <trkpt lat="45.6079" lon="5.885">
        <ele>248</ele>
        <time>2021-09-12T12:12:19.477Z</time>
      </trkpt>
      <trkpt lat="45.60784" lon="5.88503">
        <ele>248</ele>
        <time>2021-09-12T12:12:20.476Z</time>
      </trkpt>
      <trkpt lat="45.60779" lon="5.88505">
        <ele>248</ele>
        <time>2021-09-12T12:12:21.477Z</time>
      </trkpt>
      <trkpt lat="45.60773" lon="5.88508">
        <ele>248</ele>
        <time>2021-09-12T12:12:22.477Z</time>
      </trkpt>
      <trkpt lat="45.60767" lon="5.88511">
        <ele>248</ele>
        <time>2021-09-12T12:12:23.477Z</time>
      </trkpt>
      <trkpt lat="45.60761" lon="5.88514">
        <ele>248</ele>
        <time>2021-09-12T12:12:24.477Z</time>
      </trkpt>
      <trkpt lat="45.60755" lon="5.88517">
        <ele>248</ele>
        <time>2021-09-12T12:12:25.477Z</time>
      </trkpt>
      <trkpt lat="45.60749" lon="5.8852">
        <ele>248</ele>
        <time>2021-09-12T12:12:26.477Z</time>
      </trkpt>
      <trkpt lat="45.60743" lon="5.88523">
        <ele>248</ele>
        <time>2021-09-12T12:12:27.476Z</time>
      </trkpt>
      <trkpt lat="45.60738" lon="5.88525">
        <ele>248</ele>
        <time>2021-09-12T12:12:28.477Z</time>
      </trkpt>
      <trkpt lat="45.60732" lon="5.88528">
        <ele>248</ele>
        <time>2021-09-12T12:12:29.477Z</time>
      </trkpt>
      <trkpt lat="45.60726" lon="5.8853">
        <ele>248</ele>
        <time>2021-09-12T12:12:30.477Z</time>
      </trkpt>
      <trkpt lat="45.60721" lon="5.88532">
        <ele>248</ele>
        <time>2021-09-12T12:12:31.477Z</time>
      </trkpt>
      <trkpt lat="45.60715" lon="5.88535">
        <ele>248</ele>
        <time>2021-09-12T12:12:32.477Z</time>
      </trkpt>
      <trkpt lat="45.60709" lon="5.88537">
        <ele>248</ele>
        <time>2021-09-12T12:12:33.477Z</time>
      </trkpt>
      <trkpt lat="45.60704" lon="5.88539">
        <ele>249</ele>
        <time>2021-09-12T12:12:34.477Z</time>
      </trkpt>
      <trkpt lat="45.60698" lon="5.88541">
        <ele>249</ele>
        <time>2021-09-12T12:12:35.477Z</time>
      </trkpt>
      <trkpt lat="45.60692" lon="5.88543">
        <ele>249</ele>
        <time>2021-09-12T12:12:36.477Z</time>
      </trkpt>
      <trkpt lat="45.60687" lon="5.88545">
        <ele>248</ele>
        <time>2021-09-12T12:12:37.477Z</time>
      </trkpt>
      <trkpt lat="45.60681" lon="5.88548">
        <ele>248</ele>
        <time>2021-09-12T12:12:38.476Z</time>
      </trkpt>
      <trkpt lat="45.60676" lon="5.8855">
        <ele>248</ele>
        <time>2021-09-12T12:12:39.477Z</time>
      </trkpt>
      <trkpt lat="45.60671" lon="5.88552">
        <ele>248</ele>
        <time>2021-09-12T12:12:40.477Z</time>
      </trkpt>
      <trkpt lat="45.60666" lon="5.88555">
        <ele>248</ele>
        <time>2021-09-12T12:12:41.477Z</time>
      </trkpt>
      <trkpt lat="45.60661" lon="5.88557">
        <ele>248</ele>
        <time>2021-09-12T12:12:42.477Z</time>
      </trkpt>
      <trkpt lat="45.60656" lon="5.88559">
        <ele>247</ele>
        <time>2021-09-12T12:12:43.477Z</time>
      </trkpt>
      <trkpt lat="45.60651" lon="5.88562">
        <ele>247</ele>
        <time>2021-09-12T12:12:44.477Z</time>
      </trkpt>
      <trkpt lat="45.60646" lon="5.88564">
        <ele>248</ele>
        <time>2021-09-12T12:12:45.477Z</time>
      </trkpt>
      <trkpt lat="45.60641" lon="5.88567">
        <ele>248</ele>
        <time>2021-09-12T12:12:46.476Z</time>
      </trkpt>
      <trkpt lat="45.60636" lon="5.88569">
        <ele>249</ele>
        <time>2021-09-12T12:12:47.476Z</time>
      </trkpt>
      <trkpt lat="45.60632" lon="5.88571">
        <ele>249</ele>
        <time>2021-09-12T12:12:48.476Z</time>
      </trkpt>
      <trkpt lat="45.60627" lon="5.88574">
        <ele>249</ele>
        <time>2021-09-12T12:12:49.476Z</time>
      </trkpt>
      <trkpt lat="45.60623" lon="5.88576">
        <ele>250</ele>
        <time>2021-09-12T12:12:50.476Z</time>
      </trkpt>
      <trkpt lat="45.60619" lon="5.88579">
        <ele>250</ele>
        <time>2021-09-12T12:12:51.476Z</time>
      </trkpt>
      <trkpt lat="45.60616" lon="5.88581">
        <ele>251</ele>
        <time>2021-09-12T12:12:52.476Z</time>
      </trkpt>
      <trkpt lat="45.60612" lon="5.88584">
        <ele>251</ele>
        <time>2021-09-12T12:12:53.477Z</time>
      </trkpt>
      <trkpt lat="45.6061" lon="5.88586">
        <ele>252</ele>
        <time>2021-09-12T12:12:54.477Z</time>
      </trkpt>
      <trkpt lat="45.60608" lon="5.88588">
        <ele>253</ele>
        <time>2021-09-12T12:12:55.477Z</time>
      </trkpt>
      <trkpt lat="45.60606" lon="5.8859">
        <ele>253</ele>
        <time>2021-09-12T12:12:56.477Z</time>
      </trkpt>
      <trkpt lat="45.60604" lon="5.88591">
        <ele>253</ele>
        <time>2021-09-12T12:12:57.477Z</time>
      </trkpt>
      <trkpt lat="45.60603" lon="5.88591">
        <ele>254</ele>
        <time>2021-09-12T12:12:58.477Z</time>
      </trkpt>
      <trkpt lat="45.60602" lon="5.88591">
        <ele>254</ele>
        <time>2021-09-12T12:12:59.477Z</time>
      </trkpt>
      <trkpt lat="45.60602" lon="5.88591">
        <ele>254</ele>
        <time>2021-09-12T12:13:00.477Z</time>
      </trkpt>
      <trkpt lat="45.60603" lon="5.88591">
        <ele>253</ele>
        <time>2021-09-12T12:13:01.477Z</time>
      </trkpt>
      <trkpt lat="45.60603" lon="5.88589">
        <ele>251</ele>
        <time>2021-09-12T12:13:02.478Z</time>
      </trkpt>
      <trkpt lat="45.60602" lon="5.88588">
        <ele>251</ele>
        <time>2021-09-12T12:13:03.478Z</time>
      </trkpt>
      <trkpt lat="45.60602" lon="5.88587">
        <ele>252</ele>
        <time>2021-09-12T12:13:04.477Z</time>
      </trkpt>
      <trkpt lat="45.60602" lon="5.88586">
        <ele>252</ele>
        <time>2021-09-12T12:13:05.478Z</time>
      </trkpt>
      <trkpt lat="45.60601" lon="5.88584">
        <ele>252</ele>
        <time>2021-09-12T12:13:06.478Z</time>
      </trkpt>
      <trkpt lat="45.60601" lon="5.88582">
        <ele>252</ele>
        <time>2021-09-12T12:13:07.478Z</time>
      </trkpt>
      <trkpt lat="45.606" lon="5.88579">
        <ele>253</ele>
        <time>2021-09-12T12:13:08.478Z</time>
      </trkpt>
      <trkpt lat="45.606" lon="5.88576">
        <ele>253</ele>
        <time>2021-09-12T12:13:09.478Z</time>
      </trkpt>
      <trkpt lat="45.60599" lon="5.88572">
        <ele>254</ele>
        <time>2021-09-12T12:13:10.478Z</time>
      </trkpt>
      <trkpt lat="45.60598" lon="5.88568">
        <ele>254</ele>
        <time>2021-09-12T12:13:11.477Z</time>
      </trkpt>
      <trkpt lat="45.60597" lon="5.88564">
        <ele>253</ele>
        <time>2021-09-12T12:13:12.477Z</time>
      </trkpt>
      <trkpt lat="45.60596" lon="5.8856">
        <ele>253</ele>
        <time>2021-09-12T12:13:13.478Z</time>
      </trkpt>
      <trkpt lat="45.60595" lon="5.88556">
        <ele>253</ele>
        <time>2021-09-12T12:13:14.478Z</time>
      </trkpt>
      <trkpt lat="45.60594" lon="5.88551">
        <ele>253</ele>
        <time>2021-09-12T12:13:15.478Z</time>
      </trkpt>
      <trkpt lat="45.60594" lon="5.88548">
        <ele>252</ele>
        <time>2021-09-12T12:13:16.478Z</time>
      </trkpt>
      <trkpt lat="45.60593" lon="5.88544">
        <ele>252</ele>
        <time>2021-09-12T12:13:17.478Z</time>
      </trkpt>
      <trkpt lat="45.60592" lon="5.88542">
        <ele>252</ele>
        <time>2021-09-12T12:13:18.478Z</time>
      </trkpt>
      <trkpt lat="45.6059" lon="5.8854">
        <ele>252</ele>
        <time>2021-09-12T12:13:19.478Z</time>
      </trkpt>
      <trkpt lat="45.60588" lon="5.88538">
        <ele>253</ele>
        <time>2021-09-12T12:13:20.478Z</time>
      </trkpt>
      <trkpt lat="45.60584" lon="5.88537">
        <ele>253</ele>
        <time>2021-09-12T12:13:21.477Z</time>
      </trkpt>
      <trkpt lat="45.60581" lon="5.88536">
        <ele>254</ele>
        <time>2021-09-12T12:13:22.478Z</time>
      </trkpt>
      <trkpt lat="45.60576" lon="5.88536">
        <ele>254</ele>
        <time>2021-09-12T12:13:23.478Z</time>
      </trkpt>
      <trkpt lat="45.60571" lon="5.88537">
        <ele>255</ele>
        <time>2021-09-12T12:13:24.478Z</time>
      </trkpt>
      <trkpt lat="45.60566" lon="5.88537">
        <ele>255</ele>
        <time>2021-09-12T12:13:25.478Z</time>
      </trkpt>
      <trkpt lat="45.60562" lon="5.88537">
        <ele>255</ele>
        <time>2021-09-12T12:13:26.478Z</time>
      </trkpt>
      <trkpt lat="45.60558" lon="5.88536">
        <ele>254</ele>
        <time>2021-09-12T12:13:27.478Z</time>
      </trkpt>
      <trkpt lat="45.60555" lon="5.88535">
        <ele>254</ele>
        <time>2021-09-12T12:13:28.478Z</time>
      </trkpt>
      <trkpt lat="45.60552" lon="5.88533">
        <ele>254</ele>
        <time>2021-09-12T12:13:29.478Z</time>
      </trkpt>
      <trkpt lat="45.6055" lon="5.88531">
        <ele>253</ele>
        <time>2021-09-12T12:13:30.478Z</time>
      </trkpt>
      <trkpt lat="45.60549" lon="5.88528">
        <ele>253</ele>
        <time>2021-09-12T12:13:31.478Z</time>
      </trkpt>
      <trkpt lat="45.60548" lon="5.88524">
        <ele>253</ele>
        <time>2021-09-12T12:13:32.477Z</time>
      </trkpt>
      <trkpt lat="45.60549" lon="5.8852">
        <ele>252</ele>
        <time>2021-09-12T12:13:33.478Z</time>
      </trkpt>
      <trkpt lat="45.6055" lon="5.88516">
        <ele>251</ele>
        <time>2021-09-12T12:13:34.478Z</time>
      </trkpt>
      <trkpt lat="45.60551" lon="5.88512">
        <ele>251</ele>
        <time>2021-09-12T12:13:35.477Z</time>
      </trkpt>
      <trkpt lat="45.60552" lon="5.88507">
        <ele>250</ele>
        <time>2021-09-12T12:13:36.478Z</time>
      </trkpt>
      <trkpt lat="45.60553" lon="5.88501">
        <ele>251</ele>
        <time>2021-09-12T12:13:37.477Z</time>
      </trkpt>
      <trkpt lat="45.60554" lon="5.88495">
        <ele>251</ele>
        <time>2021-09-12T12:13:38.478Z</time>
      </trkpt>
      <trkpt lat="45.60556" lon="5.88489">
        <ele>251</ele>
        <time>2021-09-12T12:13:39.478Z</time>
      </trkpt>
      <trkpt lat="45.60558" lon="5.88483">
        <ele>251</ele>
        <time>2021-09-12T12:13:40.478Z</time>
      </trkpt>
      <trkpt lat="45.6056" lon="5.88477">
        <ele>252</ele>
        <time>2021-09-12T12:13:41.477Z</time>
      </trkpt>
      <trkpt lat="45.60562" lon="5.88471">
        <ele>251</ele>
        <time>2021-09-12T12:13:42.477Z</time>
      </trkpt>
      <trkpt lat="45.60565" lon="5.88464">
        <ele>251</ele>
        <time>2021-09-12T12:13:43.478Z</time>
      </trkpt>
      <trkpt lat="45.60567" lon="5.88458">
        <ele>251</ele>
        <time>2021-09-12T12:13:44.478Z</time>
      </trkpt>
      <trkpt lat="45.6057" lon="5.88452">
        <ele>250</ele>
        <time>2021-09-12T12:13:45.478Z</time>
      </trkpt>
      <trkpt lat="45.60572" lon="5.88445">
        <ele>250</ele>
        <time>2021-09-12T12:13:46.478Z</time>
      </trkpt>
      <trkpt lat="45.60575" lon="5.88439">
        <ele>249</ele>
        <time>2021-09-12T12:13:47.478Z</time>
      </trkpt>
      <trkpt lat="45.60577" lon="5.88432">
        <ele>249</ele>
        <time>2021-09-12T12:13:48.478Z</time>
      </trkpt>
      <trkpt lat="45.60579" lon="5.88425">
        <ele>249</ele>
        <time>2021-09-12T12:13:49.478Z</time>
      </trkpt>
      <trkpt lat="45.6058" lon="5.88418">
        <ele>248</ele>
        <time>2021-09-12T12:13:50.478Z</time>
      </trkpt>
      <trkpt lat="45.60582" lon="5.88411">
        <ele>248</ele>
        <time>2021-09-12T12:13:51.478Z</time>
      </trkpt>
      <trkpt lat="45.60583" lon="5.88404">
        <ele>248</ele>
        <time>2021-09-12T12:13:52.478Z</time>
      </trkpt>
      <trkpt lat="45.60584" lon="5.88397">
        <ele>248</ele>
        <time>2021-09-12T12:13:53.478Z</time>
      </trkpt>
      <trkpt lat="45.60585" lon="5.88389">
        <ele>248</ele>
        <time>2021-09-12T12:13:54.477Z</time>
      </trkpt>
      <trkpt lat="45.60585" lon="5.88382">
        <ele>248</ele>
        <time>2021-09-12T12:13:55.478Z</time>
      </trkpt>
      <trkpt lat="45.60585" lon="5.88374">
        <ele>248</ele>
        <time>2021-09-12T12:13:56.478Z</time>
      </trkpt>
      <trkpt lat="45.60585" lon="5.88366">
        <ele>248</ele>
        <time>2021-09-12T12:13:57.478Z</time>
      </trkpt>
      <trkpt lat="45.60585" lon="5.88358">
        <ele>249</ele>
        <time>2021-09-12T12:13:58.478Z</time>
      </trkpt>
      <trkpt lat="45.60585" lon="5.8835">
        <ele>249</ele>
        <time>2021-09-12T12:13:59.478Z</time>
      </trkpt>
      <trkpt lat="45.60584" lon="5.88341">
        <ele>249</ele>
        <time>2021-09-12T12:14:00.478Z</time>
      </trkpt>
      <trkpt lat="45.60583" lon="5.88333">
        <ele>249</ele>
        <time>2021-09-12T12:14:01.478Z</time>
      </trkpt>
      <trkpt lat="45.60582" lon="5.88324">
        <ele>249</ele>
        <time>2021-09-12T12:14:02.477Z</time>
      </trkpt>
      <trkpt lat="45.6058" lon="5.88316">
        <ele>249</ele>
        <time>2021-09-12T12:14:03.478Z</time>
      </trkpt>
      <trkpt lat="45.60578" lon="5.88307">
        <ele>249</ele>
        <time>2021-09-12T12:14:04.478Z</time>
      </trkpt>
      <trkpt lat="45.60576" lon="5.88299">
        <ele>249</ele>
        <time>2021-09-12T12:14:05.478Z</time>
      </trkpt>
      <trkpt lat="45.60574" lon="5.88291">
        <ele>248</ele>
        <time>2021-09-12T12:14:06.478Z</time>
      </trkpt>
      <trkpt lat="45.60572" lon="5.88283">
        <ele>248</ele>
        <time>2021-09-12T12:14:07.478Z</time>
      </trkpt>
      <trkpt lat="45.60569" lon="5.88275">
        <ele>248</ele>
        <time>2021-09-12T12:14:08.478Z</time>
      </trkpt>
      <trkpt lat="45.60566" lon="5.88268">
        <ele>248</ele>
        <time>2021-09-12T12:14:09.477Z</time>
      </trkpt>
      <trkpt lat="45.60562" lon="5.88261">
        <ele>247</ele>
        <time>2021-09-12T12:14:10.477Z</time>
      </trkpt>
      <trkpt lat="45.60559" lon="5.88254">
        <ele>247</ele>
        <time>2021-09-12T12:14:11.478Z</time>
      </trkpt>
      <trkpt lat="45.60555" lon="5.88247">
        <ele>247</ele>
        <time>2021-09-12T12:14:12.478Z</time>
      </trkpt>
      <trkpt lat="45.60551" lon="5.88241">
        <ele>247</ele>
        <time>2021-09-12T12:14:13.478Z</time>
      </trkpt>
      <trkpt lat="45.60546" lon="5.88235">
        <ele>247</ele>
        <time>2021-09-12T12:14:14.477Z</time>
      </trkpt>
      <trkpt lat="45.60541" lon="5.88229">
        <ele>247</ele>
        <time>2021-09-12T12:14:15.478Z</time>
      </trkpt>
      <trkpt lat="45.60537" lon="5.88223">
        <ele>247</ele>
        <time>2021-09-12T12:14:16.478Z</time>
      </trkpt>
      <trkpt lat="45.60532" lon="5.88217">
        <ele>247</ele>
        <time>2021-09-12T12:14:17.478Z</time>
      </trkpt>
      <trkpt lat="45.60527" lon="5.88211">
        <ele>247</ele>
        <time>2021-09-12T12:14:18.478Z</time>
      </trkpt>
      <trkpt lat="45.60522" lon="5.88206">
        <ele>247</ele>
        <time>2021-09-12T12:14:19.478Z</time>
      </trkpt>
      <trkpt lat="45.60517" lon="5.88201">
        <ele>247</ele>
        <time>2021-09-12T12:14:20.478Z</time>
      </trkpt>
      <trkpt lat="45.60511" lon="5.88196">
        <ele>247</ele>
        <time>2021-09-12T12:14:21.478Z</time>
      </trkpt>
      <trkpt lat="45.60506" lon="5.88192">
        <ele>247</ele>
        <time>2021-09-12T12:14:22.478Z</time>
      </trkpt>
      <trkpt lat="45.605" lon="5.88187">
        <ele>247</ele>
        <time>2021-09-12T12:14:23.478Z</time>
      </trkpt>
      <trkpt lat="45.60494" lon="5.88183">
        <ele>247</ele>
        <time>2021-09-12T12:14:24.478Z</time>
      </trkpt>
      <trkpt lat="45.60488" lon="5.88179">
        <ele>247</ele>
        <time>2021-09-12T12:14:25.478Z</time>
      </trkpt>
      <trkpt lat="45.60483" lon="5.88176">
        <ele>247</ele>
        <time>2021-09-12T12:14:26.478Z</time>
      </trkpt>
      <trkpt lat="45.60477" lon="5.88172">
        <ele>246</ele>
        <time>2021-09-12T12:14:27.477Z</time>
      </trkpt>
      <trkpt lat="45.60471" lon="5.88168">
        <ele>246</ele>
        <time>2021-09-12T12:14:28.478Z</time>
      </trkpt>
      <trkpt lat="45.60465" lon="5.88165">
        <ele>246</ele>
        <time>2021-09-12T12:14:29.478Z</time>
      </trkpt>
      <trkpt lat="45.6046" lon="5.88161">
        <ele>246</ele>
        <time>2021-09-12T12:14:30.478Z</time>
      </trkpt>
      <trkpt lat="45.60454" lon="5.88158">
        <ele>246</ele>
        <time>2021-09-12T12:14:31.478Z</time>
      </trkpt>
      <trkpt lat="45.60448" lon="5.88155">
        <ele>246</ele>
        <time>2021-09-12T12:14:32.478Z</time>
      </trkpt>
      <trkpt lat="45.60443" lon="5.88152">
        <ele>246</ele>
        <time>2021-09-12T12:14:33.478Z</time>
      </trkpt>
      <trkpt lat="45.60437" lon="5.88149">
        <ele>246</ele>
        <time>2021-09-12T12:14:34.478Z</time>
      </trkpt>
      <trkpt lat="45.60432" lon="5.88146">
        <ele>246</ele>
        <time>2021-09-12T12:14:35.478Z</time>
      </trkpt>
      <trkpt lat="45.60426" lon="5.88143">
        <ele>246</ele>
        <time>2021-09-12T12:14:36.478Z</time>
      </trkpt>
      <trkpt lat="45.60421" lon="5.8814">
        <ele>247</ele>
        <time>2021-09-12T12:14:37.478Z</time>
      </trkpt>
      <trkpt lat="45.60416" lon="5.88136">
        <ele>247</ele>
        <time>2021-09-12T12:14:38.478Z</time>
      </trkpt>
      <trkpt lat="45.60411" lon="5.88133">
        <ele>247</ele>
        <time>2021-09-12T12:14:39.478Z</time>
      </trkpt>
      <trkpt lat="45.60406" lon="5.88129">
        <ele>247</ele>
        <time>2021-09-12T12:14:40.478Z</time>
      </trkpt>
      <trkpt lat="45.60402" lon="5.88126">
        <ele>247</ele>
        <time>2021-09-12T12:14:41.478Z</time>
      </trkpt>
      <trkpt lat="45.60397" lon="5.88122">
        <ele>247</ele>
        <time>2021-09-12T12:14:42.478Z</time>
      </trkpt>
      <trkpt lat="45.60392" lon="5.88118">
        <ele>247</ele>
        <time>2021-09-12T12:14:43.478Z</time>
      </trkpt>
      <trkpt lat="45.60388" lon="5.88114">
        <ele>247</ele>
        <time>2021-09-12T12:14:44.478Z</time>
      </trkpt>
      <trkpt lat="45.60384" lon="5.88109">
        <ele>247</ele>
        <time>2021-09-12T12:14:45.478Z</time>
      </trkpt>
      <trkpt lat="45.6038" lon="5.88104">
        <ele>247</ele>
        <time>2021-09-12T12:14:46.478Z</time>
      </trkpt>
      <trkpt lat="45.60377" lon="5.88098">
        <ele>247</ele>
        <time>2021-09-12T12:14:47.478Z</time>
      </trkpt>
      <trkpt lat="45.60374" lon="5.88092">
        <ele>247</ele>
        <time>2021-09-12T12:14:48.478Z</time>
      </trkpt>
      <trkpt lat="45.6037" lon="5.88085">
        <ele>247</ele>
        <time>2021-09-12T12:14:49.478Z</time>
      </trkpt>
      <trkpt lat="45.60367" lon="5.88078">
        <ele>247</ele>
        <time>2021-09-12T12:14:50.478Z</time>
      </trkpt>
      <trkpt lat="45.60365" lon="5.88071">
        <ele>248</ele>
        <time>2021-09-12T12:14:51.478Z</time>
      </trkpt>
      <trkpt lat="45.60362" lon="5.88064">
        <ele>248</ele>
        <time>2021-09-12T12:14:52.478Z</time>
      </trkpt>
      <trkpt lat="45.60361" lon="5.88056">
        <ele>248</ele>
        <time>2021-09-12T12:14:53.478Z</time>
      </trkpt>
      <trkpt lat="45.60359" lon="5.88049">
        <ele>249</ele>
        <time>2021-09-12T12:14:54.478Z</time>
      </trkpt>
      <trkpt lat="45.60357" lon="5.88041">
        <ele>249</ele>
        <time>2021-09-12T12:14:55.478Z</time>
      </trkpt>
      <trkpt lat="45.60356" lon="5.88033">
        <ele>250</ele>
        <time>2021-09-12T12:14:56.478Z</time>
      </trkpt>
      <trkpt lat="45.60355" lon="5.88026">
        <ele>250</ele>
        <time>2021-09-12T12:14:57.478Z</time>
      </trkpt>
      <trkpt lat="45.60353" lon="5.88018">
        <ele>249</ele>
        <time>2021-09-12T12:14:58.477Z</time>
      </trkpt>
      <trkpt lat="45.60352" lon="5.8801">
        <ele>249</ele>
        <time>2021-09-12T12:14:59.478Z</time>
      </trkpt>
      <trkpt lat="45.6035" lon="5.88002">
        <ele>249</ele>
        <time>2021-09-12T12:15:00.478Z</time>
      </trkpt>
      <trkpt lat="45.60349" lon="5.87994">
        <ele>249</ele>
        <time>2021-09-12T12:15:01.477Z</time>
      </trkpt>
      <trkpt lat="45.60347" lon="5.87987">
        <ele>249</ele>
        <time>2021-09-12T12:15:02.477Z</time>
      </trkpt>
      <trkpt lat="45.60346" lon="5.87979">
        <ele>249</ele>
        <time>2021-09-12T12:15:03.477Z</time>
      </trkpt>
      <trkpt lat="45.60344" lon="5.87971">
        <ele>250</ele>
        <time>2021-09-12T12:15:04.477Z</time>
      </trkpt>
      <trkpt lat="45.60343" lon="5.87963">
        <ele>250</ele>
        <time>2021-09-12T12:15:05.478Z</time>
      </trkpt>
      <trkpt lat="45.60341" lon="5.87955">
        <ele>250</ele>
        <time>2021-09-12T12:15:06.478Z</time>
      </trkpt>
      <trkpt lat="45.6034" lon="5.87947">
        <ele>250</ele>
        <time>2021-09-12T12:15:07.478Z</time>
      </trkpt>
      <trkpt lat="45.60338" lon="5.87939">
        <ele>250</ele>
        <time>2021-09-12T12:15:08.478Z</time>
      </trkpt>
      <trkpt lat="45.60337" lon="5.87931">
        <ele>250</ele>
        <time>2021-09-12T12:15:09.477Z</time>
      </trkpt>
      <trkpt lat="45.60335" lon="5.87923">
        <ele>250</ele>
        <time>2021-09-12T12:15:10.478Z</time>
      </trkpt>
      <trkpt lat="45.60334" lon="5.87916">
        <ele>249</ele>
        <time>2021-09-12T12:15:11.478Z</time>
      </trkpt>
      <trkpt lat="45.60333" lon="5.87909">
        <ele>249</ele>
        <time>2021-09-12T12:15:12.478Z</time>
      </trkpt>
      <trkpt lat="45.60331" lon="5.87902">
        <ele>249</ele>
        <time>2021-09-12T12:15:13.477Z</time>
      </trkpt>
      <trkpt lat="45.6033" lon="5.87895">
        <ele>249</ele>
        <time>2021-09-12T12:15:14.478Z</time>
      </trkpt>
      <trkpt lat="45.60328" lon="5.87888">
        <ele>250</ele>
        <time>2021-09-12T12:15:15.478Z</time>
      </trkpt>
      <trkpt lat="45.60327" lon="5.87882">
        <ele>250</ele>
        <time>2021-09-12T12:15:16.478Z</time>
      </trkpt>
      <trkpt lat="45.60326" lon="5.87875">
        <ele>250</ele>
        <time>2021-09-12T12:15:17.478Z</time>
      </trkpt>
      <trkpt lat="45.60325" lon="5.87869">
        <ele>250</ele>
        <time>2021-09-12T12:15:18.478Z</time>
      </trkpt>
      <trkpt lat="45.60323" lon="5.87863">
        <ele>250</ele>
        <time>2021-09-12T12:15:19.478Z</time>
      </trkpt>
      <trkpt lat="45.60322" lon="5.87857">
        <ele>250</ele>
        <time>2021-09-12T12:15:20.478Z</time>
      </trkpt>
      <trkpt lat="45.60321" lon="5.87851">
        <ele>251</ele>
        <time>2021-09-12T12:15:21.477Z</time>
      </trkpt>
      <trkpt lat="45.6032" lon="5.87845">
        <ele>251</ele>
        <time>2021-09-12T12:15:22.478Z</time>
      </trkpt>
      <trkpt lat="45.60319" lon="5.87838">
        <ele>251</ele>
        <time>2021-09-12T12:15:23.478Z</time>
      </trkpt>
      <trkpt lat="45.60318" lon="5.87832">
        <ele>251</ele>
        <time>2021-09-12T12:15:24.478Z</time>
      </trkpt>
      <trkpt lat="45.60318" lon="5.87826">
        <ele>251</ele>
        <time>2021-09-12T12:15:25.478Z</time>
      </trkpt>
      <trkpt lat="45.60317" lon="5.87819">
        <ele>251</ele>
        <time>2021-09-12T12:15:26.478Z</time>
      </trkpt>
      <trkpt lat="45.60317" lon="5.87813">
        <ele>251</ele>
        <time>2021-09-12T12:15:27.478Z</time>
      </trkpt>
      <trkpt lat="45.60317" lon="5.87806">
        <ele>251</ele>
        <time>2021-09-12T12:15:28.478Z</time>
      </trkpt>
      <trkpt lat="45.60316" lon="5.878">
        <ele>251</ele>
        <time>2021-09-12T12:15:29.478Z</time>
      </trkpt>
      <trkpt lat="45.60316" lon="5.87793">
        <ele>251</ele>
        <time>2021-09-12T12:15:30.478Z</time>
      </trkpt>
      <trkpt lat="45.60316" lon="5.87787">
        <ele>252</ele>
        <time>2021-09-12T12:15:31.478Z</time>
      </trkpt>
      <trkpt lat="45.60315" lon="5.8778">
        <ele>252</ele>
        <time>2021-09-12T12:15:32.478Z</time>
      </trkpt>
      <trkpt lat="45.60315" lon="5.87773">
        <ele>252</ele>
        <time>2021-09-12T12:15:33.478Z</time>
      </trkpt>
      <trkpt lat="45.60315" lon="5.87767">
        <ele>253</ele>
        <time>2021-09-12T12:15:34.478Z</time>
      </trkpt>
      <trkpt lat="45.60314" lon="5.8776">
        <ele>254</ele>
        <time>2021-09-12T12:15:35.478Z</time>
      </trkpt>
      <trkpt lat="45.60314" lon="5.87754">
        <ele>254</ele>
        <time>2021-09-12T12:15:36.478Z</time>
      </trkpt>
      <trkpt lat="45.60314" lon="5.87747">
        <ele>254</ele>
        <time>2021-09-12T12:15:37.477Z</time>
      </trkpt>
      <trkpt lat="45.60313" lon="5.87741">
        <ele>253</ele>
        <time>2021-09-12T12:15:38.478Z</time>
      </trkpt>
      <trkpt lat="45.60313" lon="5.87734">
        <ele>253</ele>
        <time>2021-09-12T12:15:39.478Z</time>
      </trkpt>
      <trkpt lat="45.60313" lon="5.87727">
        <ele>253</ele>
        <time>2021-09-12T12:15:40.478Z</time>
      </trkpt>
      <trkpt lat="45.60313" lon="5.8772">
        <ele>253</ele>
        <time>2021-09-12T12:15:41.477Z</time>
      </trkpt>
      <trkpt lat="45.60313" lon="5.87714">
        <ele>252</ele>
        <time>2021-09-12T12:15:42.477Z</time>
      </trkpt>
      <trkpt lat="45.60312" lon="5.87707">
        <ele>252</ele>
        <time>2021-09-12T12:15:43.478Z</time>
      </trkpt>
      <trkpt lat="45.60311" lon="5.87701">
        <ele>252</ele>
        <time>2021-09-12T12:15:44.478Z</time>
      </trkpt>
      <trkpt lat="45.60311" lon="5.87695">
        <ele>252</ele>
        <time>2021-09-12T12:15:45.478Z</time>
      </trkpt>
      <trkpt lat="45.6031" lon="5.87689">
        <ele>252</ele>
        <time>2021-09-12T12:15:46.478Z</time>
      </trkpt>
      <trkpt lat="45.6031" lon="5.87683">
        <ele>252</ele>
        <time>2021-09-12T12:15:47.478Z</time>
      </trkpt>
      <trkpt lat="45.60309" lon="5.87677">
        <ele>253</ele>
        <time>2021-09-12T12:15:48.478Z</time>
      </trkpt>
      <trkpt lat="45.60308" lon="5.87671">
        <ele>253</ele>
        <time>2021-09-12T12:15:49.478Z</time>
      </trkpt>
      <trkpt lat="45.60307" lon="5.87666">
        <ele>253</ele>
        <time>2021-09-12T12:15:50.478Z</time>
      </trkpt>
      <trkpt lat="45.60306" lon="5.87661">
        <ele>253</ele>
        <time>2021-09-12T12:15:51.478Z</time>
      </trkpt>
      <trkpt lat="45.60304" lon="5.87656">
        <ele>253</ele>
        <time>2021-09-12T12:15:52.478Z</time>
      </trkpt>
      <trkpt lat="45.60302" lon="5.87653">
        <ele>254</ele>
        <time>2021-09-12T12:15:53.478Z</time>
      </trkpt>
      <trkpt lat="45.60299" lon="5.8765">
        <ele>254</ele>
        <time>2021-09-12T12:15:54.478Z</time>
      </trkpt>
      <trkpt lat="45.60296" lon="5.87647">
        <ele>254</ele>
        <time>2021-09-12T12:15:55.477Z</time>
      </trkpt>
      <trkpt lat="45.60293" lon="5.87645">
        <ele>254</ele>
        <time>2021-09-12T12:15:56.477Z</time>
      </trkpt>
      <trkpt lat="45.6029" lon="5.87644">
        <ele>254</ele>
        <time>2021-09-12T12:15:57.478Z</time>
      </trkpt>
      <trkpt lat="45.60287" lon="5.87643">
        <ele>254</ele>
        <time>2021-09-12T12:15:58.478Z</time>
      </trkpt>
      <trkpt lat="45.60284" lon="5.87642">
        <ele>255</ele>
        <time>2021-09-12T12:15:59.478Z</time>
      </trkpt>
      <trkpt lat="45.60281" lon="5.87643">
        <ele>255</ele>
        <time>2021-09-12T12:16:00.477Z</time>
      </trkpt>
      <trkpt lat="45.60243" lon="5.87647">
        <ele>256</ele>
        <time>2021-09-12T12:16:09.478Z</time>
      </trkpt>
      <trkpt lat="45.60241" lon="5.8765">
        <ele>256</ele>
        <time>2021-09-12T12:16:10.478Z</time>
      </trkpt>
      <trkpt lat="45.60236" lon="5.87646">
        <ele>256</ele>
        <time>2021-09-12T12:16:11.478Z</time>
      </trkpt>
      <trkpt lat="45.60233" lon="5.87645">
        <ele>255</ele>
        <time>2021-09-12T12:16:12.478Z</time>
      </trkpt>
      <trkpt lat="45.60228" lon="5.87643">
        <ele>254</ele>
        <time>2021-09-12T12:16:13.478Z</time>
      </trkpt>
      <trkpt lat="45.60224" lon="5.8764">
        <ele>254</ele>
        <time>2021-09-12T12:16:14.477Z</time>
      </trkpt>
      <trkpt lat="45.60219" lon="5.87637">
        <ele>254</ele>
        <time>2021-09-12T12:16:15.478Z</time>
      </trkpt>
      <trkpt lat="45.60215" lon="5.87636">
        <ele>254</ele>
        <time>2021-09-12T12:16:16.478Z</time>
      </trkpt>
      <trkpt lat="45.6021" lon="5.87637">
        <ele>254</ele>
        <time>2021-09-12T12:16:17.478Z</time>
      </trkpt>
      <trkpt lat="45.60207" lon="5.8764">
        <ele>254</ele>
        <time>2021-09-12T12:16:18.477Z</time>
      </trkpt>
      <trkpt lat="45.60204" lon="5.87643">
        <ele>254</ele>
        <time>2021-09-12T12:16:19.478Z</time>
      </trkpt>
      <trkpt lat="45.60202" lon="5.87649">
        <ele>254</ele>
        <time>2021-09-12T12:16:20.478Z</time>
      </trkpt>
      <trkpt lat="45.60203" lon="5.87655">
        <ele>255</ele>
        <time>2021-09-12T12:16:21.478Z</time>
      </trkpt>
      <trkpt lat="45.60204" lon="5.87661">
        <ele>255</ele>
        <time>2021-09-12T12:16:22.478Z</time>
      </trkpt>
      <trkpt lat="45.60205" lon="5.87667">
        <ele>255</ele>
        <time>2021-09-12T12:16:23.478Z</time>
      </trkpt>
      <trkpt lat="45.60208" lon="5.87672">
        <ele>255</ele>
        <time>2021-09-12T12:16:24.478Z</time>
      </trkpt>
      <trkpt lat="45.60211" lon="5.87678">
        <ele>255</ele>
        <time>2021-09-12T12:16:25.478Z</time>
      </trkpt>
      <trkpt lat="45.60215" lon="5.87683">
        <ele>255</ele>
        <time>2021-09-12T12:16:26.478Z</time>
      </trkpt>
      <trkpt lat="45.60218" lon="5.87689">
        <ele>255</ele>
        <time>2021-09-12T12:16:27.478Z</time>
      </trkpt>
      <trkpt lat="45.60222" lon="5.87696">
        <ele>256</ele>
        <time>2021-09-12T12:16:28.478Z</time>
      </trkpt>
      <trkpt lat="45.60225" lon="5.87704">
        <ele>256</ele>
        <time>2021-09-12T12:16:29.478Z</time>
      </trkpt>
      <trkpt lat="45.60228" lon="5.87711">
        <ele>256</ele>
        <time>2021-09-12T12:16:30.478Z</time>
      </trkpt>
      <trkpt lat="45.60231" lon="5.87718">
        <ele>256</ele>
        <time>2021-09-12T12:16:31.478Z</time>
      </trkpt>
      <trkpt lat="45.60233" lon="5.87726">
        <ele>256</ele>
        <time>2021-09-12T12:16:32.478Z</time>
      </trkpt>
      <trkpt lat="45.60235" lon="5.87734">
        <ele>256</ele>
        <time>2021-09-12T12:16:33.478Z</time>
      </trkpt>
      <trkpt lat="45.60237" lon="5.87742">
        <ele>256</ele>
        <time>2021-09-12T12:16:34.478Z</time>
      </trkpt>
      <trkpt lat="45.60238" lon="5.8775">
        <ele>256</ele>
        <time>2021-09-12T12:16:35.478Z</time>
      </trkpt>
      <trkpt lat="45.60239" lon="5.87758">
        <ele>255</ele>
        <time>2021-09-12T12:16:36.478Z</time>
      </trkpt>
      <trkpt lat="45.6024" lon="5.87767">
        <ele>255</ele>
        <time>2021-09-12T12:16:37.478Z</time>
      </trkpt>
      <trkpt lat="45.60242" lon="5.87775">
        <ele>255</ele>
        <time>2021-09-12T12:16:38.478Z</time>
      </trkpt>
      <trkpt lat="45.60243" lon="5.87784">
        <ele>254</ele>
        <time>2021-09-12T12:16:39.478Z</time>
      </trkpt>
      <trkpt lat="45.60244" lon="5.87793">
        <ele>254</ele>
        <time>2021-09-12T12:16:40.478Z</time>
      </trkpt>
      <trkpt lat="45.60244" lon="5.87803">
        <ele>254</ele>
        <time>2021-09-12T12:16:41.478Z</time>
      </trkpt>
      <trkpt lat="45.60245" lon="5.87812">
        <ele>254</ele>
        <time>2021-09-12T12:16:42.478Z</time>
      </trkpt>
      <trkpt lat="45.60246" lon="5.87821">
        <ele>254</ele>
        <time>2021-09-12T12:16:43.477Z</time>
      </trkpt>
      <trkpt lat="45.60247" lon="5.8783">
        <ele>254</ele>
        <time>2021-09-12T12:16:44.477Z</time>
      </trkpt>
      <trkpt lat="45.60248" lon="5.87839">
        <ele>253</ele>
        <time>2021-09-12T12:16:45.478Z</time>
      </trkpt>
      <trkpt lat="45.60249" lon="5.87848">
        <ele>253</ele>
        <time>2021-09-12T12:16:46.477Z</time>
      </trkpt>
      <trkpt lat="45.6025" lon="5.87857">
        <ele>253</ele>
        <time>2021-09-12T12:16:47.478Z</time>
      </trkpt>
      <trkpt lat="45.60251" lon="5.87866">
        <ele>254</ele>
        <time>2021-09-12T12:16:48.478Z</time>
      </trkpt>
      <trkpt lat="45.60252" lon="5.87874">
        <ele>254</ele>
        <time>2021-09-12T12:16:49.478Z</time>
      </trkpt>
      <trkpt lat="45.60252" lon="5.87883">
        <ele>254</ele>
        <time>2021-09-12T12:16:50.478Z</time>
      </trkpt>
      <trkpt lat="45.60253" lon="5.87892">
        <ele>254</ele>
        <time>2021-09-12T12:16:51.478Z</time>
      </trkpt>
      <trkpt lat="45.60254" lon="5.879">
        <ele>255</ele>
        <time>2021-09-12T12:16:52.477Z</time>
      </trkpt>
      <trkpt lat="45.60255" lon="5.87909">
        <ele>255</ele>
        <time>2021-09-12T12:16:53.478Z</time>
      </trkpt>
      <trkpt lat="45.60256" lon="5.87918">
        <ele>255</ele>
        <time>2021-09-12T12:16:54.478Z</time>
      </trkpt>
      <trkpt lat="45.60257" lon="5.87927">
        <ele>255</ele>
        <time>2021-09-12T12:16:55.478Z</time>
      </trkpt>
      <trkpt lat="45.60258" lon="5.87935">
        <ele>255</ele>
        <time>2021-09-12T12:16:56.478Z</time>
      </trkpt>
      <trkpt lat="45.60259" lon="5.87943">
        <ele>255</ele>
        <time>2021-09-12T12:16:57.477Z</time>
      </trkpt>
      <trkpt lat="45.6026" lon="5.87952">
        <ele>255</ele>
        <time>2021-09-12T12:16:58.478Z</time>
      </trkpt>
      <trkpt lat="45.60261" lon="5.8796">
        <ele>255</ele>
        <time>2021-09-12T12:16:59.478Z</time>
      </trkpt>
      <trkpt lat="45.60262" lon="5.87968">
        <ele>254</ele>
        <time>2021-09-12T12:17:00.477Z</time>
      </trkpt>
      <trkpt lat="45.60263" lon="5.87976">
        <ele>254</ele>
        <time>2021-09-12T12:17:01.478Z</time>
      </trkpt>
      <trkpt lat="45.60264" lon="5.87985">
        <ele>255</ele>
        <time>2021-09-12T12:17:02.478Z</time>
      </trkpt>
      <trkpt lat="45.60265" lon="5.87994">
        <ele>255</ele>
        <time>2021-09-12T12:17:03.478Z</time>
      </trkpt>
      <trkpt lat="45.60266" lon="5.88002">
        <ele>254</ele>
        <time>2021-09-12T12:17:04.478Z</time>
      </trkpt>
      <trkpt lat="45.60266" lon="5.8801">
        <ele>254</ele>
        <time>2021-09-12T12:17:05.478Z</time>
      </trkpt>
      <trkpt lat="45.60268" lon="5.88019">
        <ele>254</ele>
        <time>2021-09-12T12:17:06.478Z</time>
      </trkpt>
      <trkpt lat="45.60269" lon="5.88027">
        <ele>253</ele>
        <time>2021-09-12T12:17:07.478Z</time>
      </trkpt>
      <trkpt lat="45.6027" lon="5.88035">
        <ele>252</ele>
        <time>2021-09-12T12:17:08.478Z</time>
      </trkpt>
      <trkpt lat="45.6027" lon="5.88043">
        <ele>252</ele>
        <time>2021-09-12T12:17:09.478Z</time>
      </trkpt>
      <trkpt lat="45.60271" lon="5.88051">
        <ele>252</ele>
        <time>2021-09-12T12:17:10.477Z</time>
      </trkpt>
      <trkpt lat="45.60272" lon="5.8806">
        <ele>251</ele>
        <time>2021-09-12T12:17:11.478Z</time>
      </trkpt>
      <trkpt lat="45.60273" lon="5.88068">
        <ele>251</ele>
        <time>2021-09-12T12:17:12.477Z</time>
      </trkpt>
      <trkpt lat="45.60274" lon="5.88077">
        <ele>251</ele>
        <time>2021-09-12T12:17:13.478Z</time>
      </trkpt>
      <trkpt lat="45.60274" lon="5.88086">
        <ele>250</ele>
        <time>2021-09-12T12:17:14.477Z</time>
      </trkpt>
      <trkpt lat="45.60275" lon="5.88094">
        <ele>250</ele>
        <time>2021-09-12T12:17:15.478Z</time>
      </trkpt>
      <trkpt lat="45.60275" lon="5.88103">
        <ele>250</ele>
        <time>2021-09-12T12:17:16.477Z</time>
      </trkpt>
      <trkpt lat="45.60274" lon="5.88112">
        <ele>250</ele>
        <time>2021-09-12T12:17:17.478Z</time>
      </trkpt>
      <trkpt lat="45.60273" lon="5.8812">
        <ele>249</ele>
        <time>2021-09-12T12:17:18.478Z</time>
      </trkpt>
      <trkpt lat="45.60271" lon="5.88129">
        <ele>249</ele>
        <time>2021-09-12T12:17:19.478Z</time>
      </trkpt>
      <trkpt lat="45.60268" lon="5.88137">
        <ele>249</ele>
        <time>2021-09-12T12:17:20.478Z</time>
      </trkpt>
      <trkpt lat="45.60265" lon="5.88144">
        <ele>248</ele>
        <time>2021-09-12T12:17:21.478Z</time>
      </trkpt>
      <trkpt lat="45.60262" lon="5.88151">
        <ele>248</ele>
        <time>2021-09-12T12:17:22.478Z</time>
      </trkpt>
      <trkpt lat="45.60257" lon="5.88157">
        <ele>248</ele>
        <time>2021-09-12T12:17:23.478Z</time>
      </trkpt>
      <trkpt lat="45.60253" lon="5.88163">
        <ele>248</ele>
        <time>2021-09-12T12:17:24.478Z</time>
      </trkpt>
      <trkpt lat="45.60248" lon="5.88168">
        <ele>248</ele>
        <time>2021-09-12T12:17:25.477Z</time>
      </trkpt>
      <trkpt lat="45.60243" lon="5.88173">
        <ele>247</ele>
        <time>2021-09-12T12:17:26.478Z</time>
      </trkpt>
      <trkpt lat="45.60238" lon="5.88178">
        <ele>247</ele>
        <time>2021-09-12T12:17:27.478Z</time>
      </trkpt>
      <trkpt lat="45.60233" lon="5.88183">
        <ele>246</ele>
        <time>2021-09-12T12:17:28.478Z</time>
      </trkpt>
      <trkpt lat="45.60228" lon="5.88188">
        <ele>246</ele>
        <time>2021-09-12T12:17:29.478Z</time>
      </trkpt>
      <trkpt lat="45.60224" lon="5.88192">
        <ele>246</ele>
        <time>2021-09-12T12:17:30.477Z</time>
      </trkpt>
      <trkpt lat="45.60219" lon="5.88197">
        <ele>246</ele>
        <time>2021-09-12T12:17:31.478Z</time>
      </trkpt>
      <trkpt lat="45.60215" lon="5.88202">
        <ele>247</ele>
        <time>2021-09-12T12:17:32.478Z</time>
      </trkpt>
      <trkpt lat="45.6021" lon="5.88206">
        <ele>247</ele>
        <time>2021-09-12T12:17:33.477Z</time>
      </trkpt>
      <trkpt lat="45.60206" lon="5.88211">
        <ele>247</ele>
        <time>2021-09-12T12:17:34.478Z</time>
      </trkpt>
      <trkpt lat="45.60201" lon="5.88216">
        <ele>247</ele>
        <time>2021-09-12T12:17:35.478Z</time>
      </trkpt>
      <trkpt lat="45.60197" lon="5.8822">
        <ele>247</ele>
        <time>2021-09-12T12:17:36.478Z</time>
      </trkpt>
      <trkpt lat="45.60193" lon="5.88226">
        <ele>247</ele>
        <time>2021-09-12T12:17:37.477Z</time>
      </trkpt>
      <trkpt lat="45.6019" lon="5.88232">
        <ele>247</ele>
        <time>2021-09-12T12:17:38.477Z</time>
      </trkpt>
      <trkpt lat="45.60187" lon="5.88238">
        <ele>248</ele>
        <time>2021-09-12T12:17:39.478Z</time>
      </trkpt>
      <trkpt lat="45.60184" lon="5.88245">
        <ele>248</ele>
        <time>2021-09-12T12:17:40.478Z</time>
      </trkpt>
      <trkpt lat="45.60182" lon="5.88252">
        <ele>248</ele>
        <time>2021-09-12T12:17:41.478Z</time>
      </trkpt>
      <trkpt lat="45.6018" lon="5.88259">
        <ele>248</ele>
        <time>2021-09-12T12:17:42.478Z</time>
      </trkpt>
      <trkpt lat="45.60178" lon="5.88266">
        <ele>248</ele>
        <time>2021-09-12T12:17:43.478Z</time>
      </trkpt>
      <trkpt lat="45.60177" lon="5.88274">
        <ele>249</ele>
        <time>2021-09-12T12:17:44.477Z</time>
      </trkpt>
      <trkpt lat="45.60176" lon="5.88281">
        <ele>249</ele>
        <time>2021-09-12T12:17:45.478Z</time>
      </trkpt>
      <trkpt lat="45.60175" lon="5.88289">
        <ele>249</ele>
        <time>2021-09-12T12:17:46.478Z</time>
      </trkpt>
      <trkpt lat="45.60175" lon="5.88296">
        <ele>249</ele>
        <time>2021-09-12T12:17:47.478Z</time>
      </trkpt>
      <trkpt lat="45.60174" lon="5.88304">
        <ele>249</ele>
        <time>2021-09-12T12:17:48.478Z</time>
      </trkpt>
      <trkpt lat="45.60173" lon="5.88312">
        <ele>250</ele>
        <time>2021-09-12T12:17:49.477Z</time>
      </trkpt>
      <trkpt lat="45.60172" lon="5.88319">
        <ele>250</ele>
        <time>2021-09-12T12:17:50.478Z</time>
      </trkpt>
      <trkpt lat="45.60171" lon="5.88327">
        <ele>251</ele>
        <time>2021-09-12T12:17:51.477Z</time>
      </trkpt>
      <trkpt lat="45.6017" lon="5.88335">
        <ele>252</ele>
        <time>2021-09-12T12:17:52.477Z</time>
      </trkpt>
      <trkpt lat="45.60169" lon="5.88342">
        <ele>253</ele>
        <time>2021-09-12T12:17:53.478Z</time>
      </trkpt>
      <trkpt lat="45.60169" lon="5.8835">
        <ele>253</ele>
        <time>2021-09-12T12:17:54.478Z</time>
      </trkpt>
      <trkpt lat="45.60168" lon="5.88357">
        <ele>253</ele>
        <time>2021-09-12T12:17:55.477Z</time>
      </trkpt>
      <trkpt lat="45.60167" lon="5.88364">
        <ele>253</ele>
        <time>2021-09-12T12:17:56.478Z</time>
      </trkpt>
      <trkpt lat="45.60167" lon="5.88371">
        <ele>253</ele>
        <time>2021-09-12T12:17:57.478Z</time>
      </trkpt>
      <trkpt lat="45.60166" lon="5.88378">
        <ele>253</ele>
        <time>2021-09-12T12:17:58.478Z</time>
      </trkpt>
      <trkpt lat="45.60166" lon="5.88386">
        <ele>253</ele>
        <time>2021-09-12T12:17:59.478Z</time>
      </trkpt>
      <trkpt lat="45.60165" lon="5.88393">
        <ele>252</ele>
        <time>2021-09-12T12:18:00.477Z</time>
      </trkpt>
      <trkpt lat="45.60164" lon="5.884">
        <ele>252</ele>
        <time>2021-09-12T12:18:01.478Z</time>
      </trkpt>
      <trkpt lat="45.60163" lon="5.88407">
        <ele>251</ele>
        <time>2021-09-12T12:18:02.477Z</time>
      </trkpt>
      <trkpt lat="45.60162" lon="5.88414">
        <ele>251</ele>
        <time>2021-09-12T12:18:03.478Z</time>
      </trkpt>
      <trkpt lat="45.60161" lon="5.88421">
        <ele>251</ele>
        <time>2021-09-12T12:18:04.477Z</time>
      </trkpt>
      <trkpt lat="45.6016" lon="5.88428">
        <ele>252</ele>
        <time>2021-09-12T12:18:05.478Z</time>
      </trkpt>
      <trkpt lat="45.60159" lon="5.88435">
        <ele>252</ele>
        <time>2021-09-12T12:18:06.477Z</time>
      </trkpt>
      <trkpt lat="45.60157" lon="5.88441">
        <ele>252</ele>
        <time>2021-09-12T12:18:07.478Z</time>
      </trkpt>
      <trkpt lat="45.60155" lon="5.88448">
        <ele>251</ele>
        <time>2021-09-12T12:18:08.478Z</time>
      </trkpt>
      <trkpt lat="45.60153" lon="5.88454">
        <ele>251</ele>
        <time>2021-09-12T12:18:09.478Z</time>
      </trkpt>
      <trkpt lat="45.60151" lon="5.8846">
        <ele>251</ele>
        <time>2021-09-12T12:18:10.477Z</time>
      </trkpt>
      <trkpt lat="45.60148" lon="5.88465">
        <ele>251</ele>
        <time>2021-09-12T12:18:11.478Z</time>
      </trkpt>
      <trkpt lat="45.60145" lon="5.88471">
        <ele>251</ele>
        <time>2021-09-12T12:18:12.477Z</time>
      </trkpt>
      <trkpt lat="45.60143" lon="5.88476">
        <ele>251</ele>
        <time>2021-09-12T12:18:13.478Z</time>
      </trkpt>
      <trkpt lat="45.6014" lon="5.88481">
        <ele>251</ele>
        <time>2021-09-12T12:18:14.478Z</time>
      </trkpt>
      <trkpt lat="45.60136" lon="5.88486">
        <ele>252</ele>
        <time>2021-09-12T12:18:15.478Z</time>
      </trkpt>
      <trkpt lat="45.60133" lon="5.88491">
        <ele>252</ele>
        <time>2021-09-12T12:18:16.478Z</time>
      </trkpt>
      <trkpt lat="45.60129" lon="5.88496">
        <ele>252</ele>
        <time>2021-09-12T12:18:17.478Z</time>
      </trkpt>
      <trkpt lat="45.60126" lon="5.88501">
        <ele>253</ele>
        <time>2021-09-12T12:18:18.477Z</time>
      </trkpt>
      <trkpt lat="45.60122" lon="5.88505">
        <ele>253</ele>
        <time>2021-09-12T12:18:19.477Z</time>
      </trkpt>
      <trkpt lat="45.60119" lon="5.8851">
        <ele>253</ele>
        <time>2021-09-12T12:18:20.478Z</time>
      </trkpt>
      <trkpt lat="45.60115" lon="5.88515">
        <ele>253</ele>
        <time>2021-09-12T12:18:21.477Z</time>
      </trkpt>
      <trkpt lat="45.60111" lon="5.88519">
        <ele>254</ele>
        <time>2021-09-12T12:18:22.478Z</time>
      </trkpt>
      <trkpt lat="45.60108" lon="5.88524">
        <ele>253</ele>
        <time>2021-09-12T12:18:23.478Z</time>
      </trkpt>
      <trkpt lat="45.60104" lon="5.88529">
        <ele>253</ele>
        <time>2021-09-12T12:18:24.478Z</time>
      </trkpt>
      <trkpt lat="45.60101" lon="5.88535">
        <ele>252</ele>
        <time>2021-09-12T12:18:25.477Z</time>
      </trkpt>
      <trkpt lat="45.60097" lon="5.8854">
        <ele>252</ele>
        <time>2021-09-12T12:18:26.477Z</time>
      </trkpt>
      <trkpt lat="45.60094" lon="5.88546">
        <ele>252</ele>
        <time>2021-09-12T12:18:27.477Z</time>
      </trkpt>
      <trkpt lat="45.6009" lon="5.88552">
        <ele>252</ele>
        <time>2021-09-12T12:18:28.478Z</time>
      </trkpt>
      <trkpt lat="45.60086" lon="5.88557">
        <ele>253</ele>
        <time>2021-09-12T12:18:29.477Z</time>
      </trkpt>
      <trkpt lat="45.60082" lon="5.88563">
        <ele>252</ele>
        <time>2021-09-12T12:18:30.478Z</time>
      </trkpt>
      <trkpt lat="45.60079" lon="5.88568">
        <ele>252</ele>
        <time>2021-09-12T12:18:31.478Z</time>
      </trkpt>
      <trkpt lat="45.60075" lon="5.88574">
        <ele>252</ele>
        <time>2021-09-12T12:18:32.478Z</time>
      </trkpt>
      <trkpt lat="45.60071" lon="5.8858">
        <ele>251</ele>
        <time>2021-09-12T12:18:33.477Z</time>
      </trkpt>
      <trkpt lat="45.60067" lon="5.88585">
        <ele>251</ele>
        <time>2021-09-12T12:18:34.478Z</time>
      </trkpt>
      <trkpt lat="45.60063" lon="5.88591">
        <ele>251</ele>
        <time>2021-09-12T12:18:35.478Z</time>
      </trkpt>
      <trkpt lat="45.60059" lon="5.88597">
        <ele>252</ele>
        <time>2021-09-12T12:18:36.478Z</time>
      </trkpt>
      <trkpt lat="45.60055" lon="5.88603">
        <ele>252</ele>
        <time>2021-09-12T12:18:37.477Z</time>
      </trkpt>
      <trkpt lat="45.60051" lon="5.88609">
        <ele>252</ele>
        <time>2021-09-12T12:18:38.478Z</time>
      </trkpt>
      <trkpt lat="45.60046" lon="5.88615">
        <ele>252</ele>
        <time>2021-09-12T12:18:39.478Z</time>
      </trkpt>
      <trkpt lat="45.60042" lon="5.88621">
        <ele>252</ele>
        <time>2021-09-12T12:18:40.477Z</time>
      </trkpt>
      <trkpt lat="45.60037" lon="5.88627">
        <ele>252</ele>
        <time>2021-09-12T12:18:41.478Z</time>
      </trkpt>
      <trkpt lat="45.60032" lon="5.88632">
        <ele>252</ele>
        <time>2021-09-12T12:18:42.478Z</time>
      </trkpt>
      <trkpt lat="45.60027" lon="5.88637">
        <ele>253</ele>
        <time>2021-09-12T12:18:43.478Z</time>
      </trkpt>
      <trkpt lat="45.60021" lon="5.88641">
        <ele>253</ele>
        <time>2021-09-12T12:18:44.477Z</time>
      </trkpt>
      <trkpt lat="45.60015" lon="5.88645">
        <ele>253</ele>
        <time>2021-09-12T12:18:45.478Z</time>
      </trkpt>
      <trkpt lat="45.6001" lon="5.88648">
        <ele>254</ele>
        <time>2021-09-12T12:18:46.478Z</time>
      </trkpt>
      <trkpt lat="45.60004" lon="5.8865">
        <ele>254</ele>
        <time>2021-09-12T12:18:47.478Z</time>
      </trkpt>
      <trkpt lat="45.59997" lon="5.88653">
        <ele>254</ele>
        <time>2021-09-12T12:18:48.478Z</time>
      </trkpt>
      <trkpt lat="45.59991" lon="5.88654">
        <ele>254</ele>
        <time>2021-09-12T12:18:49.478Z</time>
      </trkpt>
      <trkpt lat="45.59985" lon="5.88656">
        <ele>254</ele>
        <time>2021-09-12T12:18:50.478Z</time>
      </trkpt>
      <trkpt lat="45.59979" lon="5.88657">
        <ele>254</ele>
        <time>2021-09-12T12:18:51.477Z</time>
      </trkpt>
      <trkpt lat="45.59973" lon="5.88659">
        <ele>254</ele>
        <time>2021-09-12T12:18:52.478Z</time>
      </trkpt>
      <trkpt lat="45.59967" lon="5.88661">
        <ele>253</ele>
        <time>2021-09-12T12:18:53.478Z</time>
      </trkpt>
      <trkpt lat="45.5996" lon="5.88662">
        <ele>253</ele>
        <time>2021-09-12T12:18:54.477Z</time>
      </trkpt>
      <trkpt lat="45.59954" lon="5.88664">
        <ele>253</ele>
        <time>2021-09-12T12:18:55.478Z</time>
      </trkpt>
      <trkpt lat="45.59948" lon="5.88667">
        <ele>253</ele>
        <time>2021-09-12T12:18:56.478Z</time>
      </trkpt>
      <trkpt lat="45.59942" lon="5.88669">
        <ele>253</ele>
        <time>2021-09-12T12:18:57.477Z</time>
      </trkpt>
      <trkpt lat="45.59936" lon="5.88671">
        <ele>253</ele>
        <time>2021-09-12T12:18:58.478Z</time>
      </trkpt>
      <trkpt lat="45.5993" lon="5.88673">
        <ele>253</ele>
        <time>2021-09-12T12:18:59.478Z</time>
      </trkpt>
      <trkpt lat="45.59923" lon="5.88675">
        <ele>253</ele>
        <time>2021-09-12T12:19:00.478Z</time>
      </trkpt>
      <trkpt lat="45.59917" lon="5.88676">
        <ele>253</ele>
        <time>2021-09-12T12:19:01.478Z</time>
      </trkpt>
      <trkpt lat="45.59911" lon="5.88678">
        <ele>253</ele>
        <time>2021-09-12T12:19:02.478Z</time>
      </trkpt>
      <trkpt lat="45.59905" lon="5.8868">
        <ele>253</ele>
        <time>2021-09-12T12:19:03.478Z</time>
      </trkpt>
      <trkpt lat="45.599" lon="5.88682">
        <ele>253</ele>
        <time>2021-09-12T12:19:04.478Z</time>
      </trkpt>
      <trkpt lat="45.59894" lon="5.88684">
        <ele>253</ele>
        <time>2021-09-12T12:19:05.477Z</time>
      </trkpt>
      <trkpt lat="45.59889" lon="5.88686">
        <ele>253</ele>
        <time>2021-09-12T12:19:06.478Z</time>
      </trkpt>
      <trkpt lat="45.59884" lon="5.88688">
        <ele>253</ele>
        <time>2021-09-12T12:19:07.477Z</time>
      </trkpt>
      <trkpt lat="45.59878" lon="5.8869">
        <ele>253</ele>
        <time>2021-09-12T12:19:08.477Z</time>
      </trkpt>
      <trkpt lat="45.59873" lon="5.88692">
        <ele>253</ele>
        <time>2021-09-12T12:19:09.478Z</time>
      </trkpt>
      <trkpt lat="45.59868" lon="5.88694">
        <ele>254</ele>
        <time>2021-09-12T12:19:10.478Z</time>
      </trkpt>
      <trkpt lat="45.59864" lon="5.88697">
        <ele>254</ele>
        <time>2021-09-12T12:19:11.477Z</time>
      </trkpt>
      <trkpt lat="45.59861" lon="5.88701">
        <ele>254</ele>
        <time>2021-09-12T12:19:12.478Z</time>
      </trkpt>
      <trkpt lat="45.59858" lon="5.88705">
        <ele>254</ele>
        <time>2021-09-12T12:19:13.477Z</time>
      </trkpt>
      <trkpt lat="45.59857" lon="5.88711">
        <ele>254</ele>
        <time>2021-09-12T12:19:14.478Z</time>
      </trkpt>
      <trkpt lat="45.59858" lon="5.88717">
        <ele>254</ele>
        <time>2021-09-12T12:19:15.478Z</time>
      </trkpt>
      <trkpt lat="45.5986" lon="5.88724">
        <ele>254</ele>
        <time>2021-09-12T12:19:16.477Z</time>
      </trkpt>
      <trkpt lat="45.59862" lon="5.88731">
        <ele>254</ele>
        <time>2021-09-12T12:19:17.478Z</time>
      </trkpt>
      <trkpt lat="45.59865" lon="5.88739">
        <ele>254</ele>
        <time>2021-09-12T12:19:18.477Z</time>
      </trkpt>
      <trkpt lat="45.59866" lon="5.88746">
        <ele>254</ele>
        <time>2021-09-12T12:19:19.478Z</time>
      </trkpt>
      <trkpt lat="45.59869" lon="5.88754">
        <ele>254</ele>
        <time>2021-09-12T12:19:20.478Z</time>
      </trkpt>
      <trkpt lat="45.59871" lon="5.88761">
        <ele>254</ele>
        <time>2021-09-12T12:19:21.477Z</time>
      </trkpt>
      <trkpt lat="45.59873" lon="5.88769">
        <ele>254</ele>
        <time>2021-09-12T12:19:22.478Z</time>
      </trkpt>
      <trkpt lat="45.59875" lon="5.88776">
        <ele>253</ele>
        <time>2021-09-12T12:19:23.477Z</time>
      </trkpt>
      <trkpt lat="45.59877" lon="5.88784">
        <ele>253</ele>
        <time>2021-09-12T12:19:24.478Z</time>
      </trkpt>
      <trkpt lat="45.59879" lon="5.88791">
        <ele>252</ele>
        <time>2021-09-12T12:19:25.477Z</time>
      </trkpt>
      <trkpt lat="45.59881" lon="5.88799">
        <ele>252</ele>
        <time>2021-09-12T12:19:26.478Z</time>
      </trkpt>
      <trkpt lat="45.59882" lon="5.88806">
        <ele>252</ele>
        <time>2021-09-12T12:19:27.477Z</time>
      </trkpt>
      <trkpt lat="45.59883" lon="5.88814">
        <ele>252</ele>
        <time>2021-09-12T12:19:28.477Z</time>
      </trkpt>
      <trkpt lat="45.59883" lon="5.88821">
        <ele>252</ele>
        <time>2021-09-12T12:19:29.477Z</time>
      </trkpt>
      <trkpt lat="45.59884" lon="5.88829">
        <ele>252</ele>
        <time>2021-09-12T12:19:30.478Z</time>
      </trkpt>
      <trkpt lat="45.59885" lon="5.88836">
        <ele>252</ele>
        <time>2021-09-12T12:19:31.478Z</time>
      </trkpt>
      <trkpt lat="45.59887" lon="5.88842">
        <ele>252</ele>
        <time>2021-09-12T12:19:32.478Z</time>
      </trkpt>
      <trkpt lat="45.5989" lon="5.88849">
        <ele>253</ele>
        <time>2021-09-12T12:19:33.477Z</time>
      </trkpt>
      <trkpt lat="45.59892" lon="5.88854">
        <ele>253</ele>
        <time>2021-09-12T12:19:34.477Z</time>
      </trkpt>
      <trkpt lat="45.59895" lon="5.8886">
        <ele>254</ele>
        <time>2021-09-12T12:19:35.478Z</time>
      </trkpt>
      <trkpt lat="45.59897" lon="5.88866">
        <ele>254</ele>
        <time>2021-09-12T12:19:36.477Z</time>
      </trkpt>
      <trkpt lat="45.599" lon="5.88872">
        <ele>254</ele>
        <time>2021-09-12T12:19:37.478Z</time>
      </trkpt>
      <trkpt lat="45.59902" lon="5.88878">
        <ele>254</ele>
        <time>2021-09-12T12:19:38.478Z</time>
      </trkpt>
      <trkpt lat="45.59904" lon="5.88885">
        <ele>254</ele>
        <time>2021-09-12T12:19:39.478Z</time>
      </trkpt>
      <trkpt lat="45.59906" lon="5.88891">
        <ele>255</ele>
        <time>2021-09-12T12:19:40.478Z</time>
      </trkpt>
      <trkpt lat="45.5991" lon="5.88898">
        <ele>255</ele>
        <time>2021-09-12T12:19:41.477Z</time>
      </trkpt>
      <trkpt lat="45.59913" lon="5.88904">
        <ele>255</ele>
        <time>2021-09-12T12:19:42.477Z</time>
      </trkpt>
      <trkpt lat="45.59915" lon="5.8891">
        <ele>255</ele>
        <time>2021-09-12T12:19:43.478Z</time>
      </trkpt>
      <trkpt lat="45.59918" lon="5.88917">
        <ele>255</ele>
        <time>2021-09-12T12:19:44.478Z</time>
      </trkpt>
      <trkpt lat="45.5992" lon="5.88924">
        <ele>255</ele>
        <time>2021-09-12T12:19:45.478Z</time>
      </trkpt>
      <trkpt lat="45.59923" lon="5.88931">
        <ele>255</ele>
        <time>2021-09-12T12:19:46.478Z</time>
      </trkpt>
      <trkpt lat="45.59925" lon="5.88938">
        <ele>255</ele>
        <time>2021-09-12T12:19:47.478Z</time>
      </trkpt>
      <trkpt lat="45.59928" lon="5.88945">
        <ele>255</ele>
        <time>2021-09-12T12:19:48.478Z</time>
      </trkpt>
      <trkpt lat="45.59931" lon="5.88951">
        <ele>255</ele>
        <time>2021-09-12T12:19:49.478Z</time>
      </trkpt>
      <trkpt lat="45.59933" lon="5.88958">
        <ele>256</ele>
        <time>2021-09-12T12:19:50.478Z</time>
      </trkpt>
      <trkpt lat="45.59936" lon="5.88965">
        <ele>256</ele>
        <time>2021-09-12T12:19:51.478Z</time>
      </trkpt>
      <trkpt lat="45.59939" lon="5.88971">
        <ele>256</ele>
        <time>2021-09-12T12:19:52.478Z</time>
      </trkpt>
      <trkpt lat="45.59942" lon="5.88977">
        <ele>256</ele>
        <time>2021-09-12T12:19:53.478Z</time>
      </trkpt>
      <trkpt lat="45.59945" lon="5.88984">
        <ele>257</ele>
        <time>2021-09-12T12:19:54.478Z</time>
      </trkpt>
      <trkpt lat="45.59948" lon="5.88991">
        <ele>257</ele>
        <time>2021-09-12T12:19:55.478Z</time>
      </trkpt>
      <trkpt lat="45.5995" lon="5.88998">
        <ele>257</ele>
        <time>2021-09-12T12:19:56.477Z</time>
      </trkpt>
      <trkpt lat="45.5995" lon="5.89005">
        <ele>257</ele>
        <time>2021-09-12T12:19:57.478Z</time>
      </trkpt>
      <trkpt lat="45.5995" lon="5.89013">
        <ele>257</ele>
        <time>2021-09-12T12:19:58.477Z</time>
      </trkpt>
      <trkpt lat="45.59947" lon="5.89021">
        <ele>258</ele>
        <time>2021-09-12T12:19:59.478Z</time>
      </trkpt>
      <trkpt lat="45.59944" lon="5.89025">
        <ele>258</ele>
        <time>2021-09-12T12:20:00.478Z</time>
      </trkpt>
      <trkpt lat="45.59939" lon="5.89031">
        <ele>258</ele>
        <time>2021-09-12T12:20:01.477Z</time>
      </trkpt>
      <trkpt lat="45.59934" lon="5.89035">
        <ele>259</ele>
        <time>2021-09-12T12:20:02.478Z</time>
      </trkpt>
      <trkpt lat="45.59928" lon="5.89038">
        <ele>259</ele>
        <time>2021-09-12T12:20:03.478Z</time>
      </trkpt>
      <trkpt lat="45.59923" lon="5.89041">
        <ele>259</ele>
        <time>2021-09-12T12:20:04.478Z</time>
      </trkpt>
      <trkpt lat="45.59918" lon="5.89045">
        <ele>259</ele>
        <time>2021-09-12T12:20:05.478Z</time>
      </trkpt>
      <trkpt lat="45.59913" lon="5.89046">
        <ele>259</ele>
        <time>2021-09-12T12:20:06.477Z</time>
      </trkpt>
      <trkpt lat="45.59907" lon="5.8905">
        <ele>259</ele>
        <time>2021-09-12T12:20:07.478Z</time>
      </trkpt>
      <trkpt lat="45.59901" lon="5.89052">
        <ele>259</ele>
        <time>2021-09-12T12:20:08.478Z</time>
      </trkpt>
      <trkpt lat="45.59896" lon="5.89053">
        <ele>259</ele>
        <time>2021-09-12T12:20:09.478Z</time>
      </trkpt>
      <trkpt lat="45.59891" lon="5.89056">
        <ele>259</ele>
        <time>2021-09-12T12:20:10.478Z</time>
      </trkpt>
      <trkpt lat="45.59886" lon="5.89059">
        <ele>258</ele>
        <time>2021-09-12T12:20:11.478Z</time>
      </trkpt>
      <trkpt lat="45.59882" lon="5.89062">
        <ele>257</ele>
        <time>2021-09-12T12:20:12.477Z</time>
      </trkpt>
      <trkpt lat="45.59877" lon="5.89065">
        <ele>257</ele>
        <time>2021-09-12T12:20:13.478Z</time>
      </trkpt>
      <trkpt lat="45.59873" lon="5.89068">
        <ele>257</ele>
        <time>2021-09-12T12:20:14.478Z</time>
      </trkpt>
      <trkpt lat="45.59869" lon="5.89071">
        <ele>256</ele>
        <time>2021-09-12T12:20:15.478Z</time>
      </trkpt>
      <trkpt lat="45.59864" lon="5.89074">
        <ele>256</ele>
        <time>2021-09-12T12:20:16.478Z</time>
      </trkpt>
      <trkpt lat="45.5986" lon="5.89077">
        <ele>257</ele>
        <time>2021-09-12T12:20:17.478Z</time>
      </trkpt>
      <trkpt lat="45.59856" lon="5.8908">
        <ele>257</ele>
        <time>2021-09-12T12:20:18.478Z</time>
      </trkpt>
      <trkpt lat="45.59852" lon="5.89083">
        <ele>257</ele>
        <time>2021-09-12T12:20:19.478Z</time>
      </trkpt>
      <trkpt lat="45.59847" lon="5.89086">
        <ele>257</ele>
        <time>2021-09-12T12:20:20.478Z</time>
      </trkpt>
      <trkpt lat="45.59843" lon="5.89088">
        <ele>257</ele>
        <time>2021-09-12T12:20:27.586Z</time>
      </trkpt>
      <trkpt lat="45.59838" lon="5.89091">
        <ele>257</ele>
        <time>2021-09-12T12:20:28.585Z</time>
      </trkpt>
      <trkpt lat="45.59833" lon="5.89093">
        <ele>257</ele>
        <time>2021-09-12T12:20:29.586Z</time>
      </trkpt>
      <trkpt lat="45.59829" lon="5.89096">
        <ele>257</ele>
        <time>2021-09-12T12:21:48.711Z</time>
      </trkpt>
      <trkpt lat="45.59824" lon="5.89098">
        <ele>258</ele>
        <time>2021-09-12T12:21:49.712Z</time>
      </trkpt>
      <trkpt lat="45.59819" lon="5.891">
        <ele>258</ele>
        <time>2021-09-12T12:21:50.712Z</time>
      </trkpt>
      <trkpt lat="45.59814" lon="5.89102">
        <ele>258</ele>
        <time>2021-09-12T12:21:51.712Z</time>
      </trkpt>
      <trkpt lat="45.59809" lon="5.89104">
        <ele>258</ele>
        <time>2021-09-12T12:21:52.712Z</time>
      </trkpt>
      <trkpt lat="45.59804" lon="5.89107">
        <ele>258</ele>
        <time>2021-09-12T12:21:53.712Z</time>
      </trkpt>
      <trkpt lat="45.59799" lon="5.89109">
        <ele>258</ele>
        <time>2021-09-12T12:21:54.712Z</time>
      </trkpt>
      <trkpt lat="45.59794" lon="5.89111">
        <ele>258</ele>
        <time>2021-09-12T12:21:55.712Z</time>
      </trkpt>
      <trkpt lat="45.59789" lon="5.89113">
        <ele>259</ele>
        <time>2021-09-12T12:21:56.712Z</time>
      </trkpt>
      <trkpt lat="45.59783" lon="5.89115">
        <ele>259</ele>
        <time>2021-09-12T12:21:57.711Z</time>
      </trkpt>
      <trkpt lat="45.59779" lon="5.89117">
        <ele>259</ele>
        <time>2021-09-12T12:21:58.712Z</time>
      </trkpt>
      <trkpt lat="45.59774" lon="5.89119">
        <ele>259</ele>
        <time>2021-09-12T12:21:59.712Z</time>
      </trkpt>
      <trkpt lat="45.59769" lon="5.89121">
        <ele>259</ele>
        <time>2021-09-12T12:22:00.712Z</time>
      </trkpt>
      <trkpt lat="45.59764" lon="5.89123">
        <ele>259</ele>
        <time>2021-09-12T12:22:01.712Z</time>
      </trkpt>
      <trkpt lat="45.59759" lon="5.89125">
        <ele>259</ele>
        <time>2021-09-12T12:22:02.712Z</time>
      </trkpt>
      <trkpt lat="45.59755" lon="5.89127">
        <ele>259</ele>
        <time>2021-09-12T12:22:03.712Z</time>
      </trkpt>
      <trkpt lat="45.5975" lon="5.89129">
        <ele>259</ele>
        <time>2021-09-12T12:22:04.711Z</time>
      </trkpt>
      <trkpt lat="45.59745" lon="5.89131">
        <ele>258</ele>
        <time>2021-09-12T12:22:05.712Z</time>
      </trkpt>
      <trkpt lat="45.5974" lon="5.89133">
        <ele>258</ele>
        <time>2021-09-12T12:22:06.712Z</time>
      </trkpt>
      <trkpt lat="45.59736" lon="5.89135">
        <ele>258</ele>
        <time>2021-09-12T12:22:07.712Z</time>
      </trkpt>
      <trkpt lat="45.59731" lon="5.89138">
        <ele>258</ele>
        <time>2021-09-12T12:22:08.712Z</time>
      </trkpt>
      <trkpt lat="45.59726" lon="5.8914">
        <ele>258</ele>
        <time>2021-09-12T12:22:09.712Z</time>
      </trkpt>
      <trkpt lat="45.59721" lon="5.89144">
        <ele>258</ele>
        <time>2021-09-12T12:22:10.712Z</time>
      </trkpt>
      <trkpt lat="45.59716" lon="5.89148">
        <ele>258</ele>
        <time>2021-09-12T12:22:11.712Z</time>
      </trkpt>
      <trkpt lat="45.59712" lon="5.89152">
        <ele>258</ele>
        <time>2021-09-12T12:22:12.712Z</time>
      </trkpt>
      <trkpt lat="45.59708" lon="5.89159">
        <ele>258</ele>
        <time>2021-09-12T12:22:13.712Z</time>
      </trkpt>
      <trkpt lat="45.59706" lon="5.89166">
        <ele>258</ele>
        <time>2021-09-12T12:22:14.711Z</time>
      </trkpt>
      <trkpt lat="45.59704" lon="5.89175">
        <ele>258</ele>
        <time>2021-09-12T12:22:15.711Z</time>
      </trkpt>
      <trkpt lat="45.59703" lon="5.8918">
        <ele>258</ele>
        <time>2021-09-12T12:22:16.712Z</time>
      </trkpt>
      <trkpt lat="45.59703" lon="5.89188">
        <ele>259</ele>
        <time>2021-09-12T12:22:17.712Z</time>
      </trkpt>
      <trkpt lat="45.59703" lon="5.89196">
        <ele>258</ele>
        <time>2021-09-12T12:22:18.712Z</time>
      </trkpt>
      <trkpt lat="45.59703" lon="5.89202">
        <ele>258</ele>
        <time>2021-09-12T12:22:19.712Z</time>
      </trkpt>
      <trkpt lat="45.59704" lon="5.89207">
        <ele>258</ele>
        <time>2021-09-12T12:22:20.711Z</time>
      </trkpt>
      <trkpt lat="45.59704" lon="5.89212">
        <ele>258</ele>
        <time>2021-09-12T12:22:21.711Z</time>
      </trkpt>
      <trkpt lat="45.59705" lon="5.89217">
        <ele>258</ele>
        <time>2021-09-12T12:22:22.712Z</time>
      </trkpt>
      <trkpt lat="45.59705" lon="5.89221">
        <ele>258</ele>
        <time>2021-09-12T12:22:23.712Z</time>
      </trkpt>
      <trkpt lat="45.59704" lon="5.89224">
        <ele>258</ele>
        <time>2021-09-12T12:22:24.711Z</time>
      </trkpt>
      <trkpt lat="45.59703" lon="5.89227">
        <ele>259</ele>
        <time>2021-09-12T12:22:25.712Z</time>
      </trkpt>
      <trkpt lat="45.59701" lon="5.89229">
        <ele>259</ele>
        <time>2021-09-12T12:22:26.712Z</time>
      </trkpt>
      <trkpt lat="45.597" lon="5.89231">
        <ele>259</ele>
        <time>2021-09-12T12:22:27.712Z</time>
      </trkpt>
      <trkpt lat="45.59698" lon="5.89233">
        <ele>259</ele>
        <time>2021-09-12T12:22:28.712Z</time>
      </trkpt>
      <trkpt lat="45.59695" lon="5.89234">
        <ele>259</ele>
        <time>2021-09-12T12:22:29.711Z</time>
      </trkpt>
      <trkpt lat="45.59693" lon="5.89235">
        <ele>259</ele>
        <time>2021-09-12T12:22:30.711Z</time>
      </trkpt>
      <trkpt lat="45.59691" lon="5.89236">
        <ele>259</ele>
        <time>2021-09-12T12:22:31.712Z</time>
      </trkpt>
      <trkpt lat="45.59688" lon="5.89237">
        <ele>259</ele>
        <time>2021-09-12T12:22:32.712Z</time>
      </trkpt>
      <trkpt lat="45.59687" lon="5.89238">
        <ele>259</ele>
        <time>2021-09-12T12:22:33.712Z</time>
      </trkpt>
      <trkpt lat="45.59684" lon="5.89239">
        <ele>259</ele>
        <time>2021-09-12T12:22:34.712Z</time>
      </trkpt>
      <trkpt lat="45.59681" lon="5.8924">
        <ele>259</ele>
        <time>2021-09-12T12:22:35.712Z</time>
      </trkpt>
      <trkpt lat="45.59677" lon="5.89241">
        <ele>259</ele>
        <time>2021-09-12T12:22:36.712Z</time>
      </trkpt>
      <trkpt lat="45.59673" lon="5.89241">
        <ele>260</ele>
        <time>2021-09-12T12:22:37.712Z</time>
      </trkpt>
      <trkpt lat="45.59669" lon="5.89242">
        <ele>260</ele>
        <time>2021-09-12T12:22:38.711Z</time>
      </trkpt>
      <trkpt lat="45.59666" lon="5.89243">
        <ele>260</ele>
        <time>2021-09-12T12:22:39.712Z</time>
      </trkpt>
      <trkpt lat="45.59662" lon="5.89245">
        <ele>260</ele>
        <time>2021-09-12T12:22:40.712Z</time>
      </trkpt>
      <trkpt lat="45.59657" lon="5.89246">
        <ele>260</ele>
        <time>2021-09-12T12:22:41.711Z</time>
      </trkpt>
      <trkpt lat="45.59653" lon="5.89247">
        <ele>260</ele>
        <time>2021-09-12T12:22:42.712Z</time>
      </trkpt>
      <trkpt lat="45.59649" lon="5.89248">
        <ele>260</ele>
        <time>2021-09-12T12:22:43.712Z</time>
      </trkpt>
      <trkpt lat="45.59645" lon="5.89249">
        <ele>261</ele>
        <time>2021-09-12T12:22:44.711Z</time>
      </trkpt>
      <trkpt lat="45.59641" lon="5.8925">
        <ele>261</ele>
        <time>2021-09-12T12:22:45.712Z</time>
      </trkpt>
      <trkpt lat="45.59636" lon="5.89251">
        <ele>260</ele>
        <time>2021-09-12T12:22:46.712Z</time>
      </trkpt>
      <trkpt lat="45.59632" lon="5.89252">
        <ele>260</ele>
        <time>2021-09-12T12:22:47.712Z</time>
      </trkpt>
      <trkpt lat="45.59628" lon="5.89252">
        <ele>260</ele>
        <time>2021-09-12T12:22:48.712Z</time>
      </trkpt>
      <trkpt lat="45.59623" lon="5.89253">
        <ele>259</ele>
        <time>2021-09-12T12:22:49.712Z</time>
      </trkpt>
      <trkpt lat="45.5962" lon="5.89253">
        <ele>259</ele>
        <time>2021-09-12T12:22:50.712Z</time>
      </trkpt>
      <trkpt lat="45.59615" lon="5.89253">
        <ele>259</ele>
        <time>2021-09-12T12:22:51.712Z</time>
      </trkpt>
      <trkpt lat="45.5961" lon="5.89253">
        <ele>258</ele>
        <time>2021-09-12T12:22:52.711Z</time>
      </trkpt>
      <trkpt lat="45.59606" lon="5.89253">
        <ele>258</ele>
        <time>2021-09-12T12:22:53.711Z</time>
      </trkpt>
      <trkpt lat="45.59601" lon="5.89253">
        <ele>258</ele>
        <time>2021-09-12T12:22:54.712Z</time>
      </trkpt>
      <trkpt lat="45.59597" lon="5.89254">
        <ele>258</ele>
        <time>2021-09-12T12:22:55.712Z</time>
      </trkpt>
      <trkpt lat="45.59592" lon="5.89255">
        <ele>258</ele>
        <time>2021-09-12T12:22:56.712Z</time>
      </trkpt>
      <trkpt lat="45.59587" lon="5.89256">
        <ele>258</ele>
        <time>2021-09-12T12:22:57.712Z</time>
      </trkpt>
      <trkpt lat="45.59582" lon="5.89257">
        <ele>259</ele>
        <time>2021-09-12T12:22:58.712Z</time>
      </trkpt>
      <trkpt lat="45.59578" lon="5.89258">
        <ele>259</ele>
        <time>2021-09-12T12:22:59.711Z</time>
      </trkpt>
      <trkpt lat="45.59574" lon="5.89259">
        <ele>259</ele>
        <time>2021-09-12T12:23:00.712Z</time>
      </trkpt>
      <trkpt lat="45.59568" lon="5.8926">
        <ele>258</ele>
        <time>2021-09-12T12:23:01.711Z</time>
      </trkpt>
      <trkpt lat="45.59563" lon="5.89261">
        <ele>258</ele>
        <time>2021-09-12T12:23:02.712Z</time>
      </trkpt>
      <trkpt lat="45.59559" lon="5.89262">
        <ele>258</ele>
        <time>2021-09-12T12:23:03.711Z</time>
      </trkpt>
      <trkpt lat="45.59555" lon="5.89263">
        <ele>258</ele>
        <time>2021-09-12T12:23:04.712Z</time>
      </trkpt>
      <trkpt lat="45.5955" lon="5.89264">
        <ele>258</ele>
        <time>2021-09-12T12:23:05.712Z</time>
      </trkpt>
      <trkpt lat="45.59544" lon="5.89265">
        <ele>258</ele>
        <time>2021-09-12T12:23:06.712Z</time>
      </trkpt>
      <trkpt lat="45.59538" lon="5.89267">
        <ele>258</ele>
        <time>2021-09-12T12:23:07.712Z</time>
      </trkpt>
      <trkpt lat="45.59533" lon="5.89268">
        <ele>258</ele>
        <time>2021-09-12T12:23:08.712Z</time>
      </trkpt>
      <trkpt lat="45.59529" lon="5.8927">
        <ele>258</ele>
        <time>2021-09-12T12:23:09.712Z</time>
      </trkpt>
      <trkpt lat="45.59522" lon="5.89271">
        <ele>258</ele>
        <time>2021-09-12T12:23:10.712Z</time>
      </trkpt>
      <trkpt lat="45.59517" lon="5.89273">
        <ele>258</ele>
        <time>2021-09-12T12:23:11.712Z</time>
      </trkpt>
      <trkpt lat="45.59512" lon="5.89274">
        <ele>258</ele>
        <time>2021-09-12T12:23:12.712Z</time>
      </trkpt>
      <trkpt lat="45.59508" lon="5.89275">
        <ele>258</ele>
        <time>2021-09-12T12:23:13.712Z</time>
      </trkpt>
      <trkpt lat="45.59503" lon="5.89277">
        <ele>257</ele>
        <time>2021-09-12T12:23:14.712Z</time>
      </trkpt>
      <trkpt lat="45.59498" lon="5.89281">
        <ele>257</ele>
        <time>2021-09-12T12:23:15.712Z</time>
      </trkpt>
      <trkpt lat="45.59494" lon="5.89283">
        <ele>257</ele>
        <time>2021-09-12T12:23:16.711Z</time>
      </trkpt>
      <trkpt lat="45.59489" lon="5.89286">
        <ele>257</ele>
        <time>2021-09-12T12:23:17.712Z</time>
      </trkpt>
      <trkpt lat="45.59485" lon="5.89286">
        <ele>257</ele>
        <time>2021-09-12T12:23:18.712Z</time>
      </trkpt>
      <trkpt lat="45.5948" lon="5.89287">
        <ele>257</ele>
        <time>2021-09-12T12:23:19.711Z</time>
      </trkpt>
      <trkpt lat="45.59477" lon="5.89289">
        <ele>257</ele>
        <time>2021-09-12T12:23:20.712Z</time>
      </trkpt>
      <trkpt lat="45.59473" lon="5.89292">
        <ele>257</ele>
        <time>2021-09-12T12:23:21.712Z</time>
      </trkpt>
      <trkpt lat="45.59469" lon="5.89294">
        <ele>257</ele>
        <time>2021-09-12T12:23:22.712Z</time>
      </trkpt>
      <trkpt lat="45.59465" lon="5.89296">
        <ele>256</ele>
        <time>2021-09-12T12:23:23.712Z</time>
      </trkpt>
      <trkpt lat="45.5946" lon="5.89299">
        <ele>256</ele>
        <time>2021-09-12T12:23:24.712Z</time>
      </trkpt>
      <trkpt lat="45.59455" lon="5.89302">
        <ele>256</ele>
        <time>2021-09-12T12:23:25.711Z</time>
      </trkpt>
      <trkpt lat="45.5945" lon="5.89307">
        <ele>256</ele>
        <time>2021-09-12T12:23:26.712Z</time>
      </trkpt>
      <trkpt lat="45.59445" lon="5.89311">
        <ele>256</ele>
        <time>2021-09-12T12:23:27.712Z</time>
      </trkpt>
      <trkpt lat="45.5944" lon="5.89315">
        <ele>256</ele>
        <time>2021-09-12T12:23:28.712Z</time>
      </trkpt>
      <trkpt lat="45.59436" lon="5.8932">
        <ele>257</ele>
        <time>2021-09-12T12:23:29.712Z</time>
      </trkpt>
      <trkpt lat="45.59432" lon="5.89324">
        <ele>257</ele>
        <time>2021-09-12T12:23:30.711Z</time>
      </trkpt>
      <trkpt lat="45.59428" lon="5.89329">
        <ele>257</ele>
        <time>2021-09-12T12:23:31.712Z</time>
      </trkpt>
      <trkpt lat="45.59424" lon="5.89334">
        <ele>257</ele>
        <time>2021-09-12T12:23:32.712Z</time>
      </trkpt>
      <trkpt lat="45.5942" lon="5.89338">
        <ele>256</ele>
        <time>2021-09-12T12:23:33.712Z</time>
      </trkpt>
      <trkpt lat="45.59416" lon="5.89342">
        <ele>256</ele>
        <time>2021-09-12T12:23:34.712Z</time>
      </trkpt>
      <trkpt lat="45.59411" lon="5.89347">
        <ele>256</ele>
        <time>2021-09-12T12:23:35.712Z</time>
      </trkpt>
      <trkpt lat="45.59407" lon="5.89351">
        <ele>256</ele>
        <time>2021-09-12T12:23:36.712Z</time>
      </trkpt>
      <trkpt lat="45.59403" lon="5.89355">
        <ele>256</ele>
        <time>2021-09-12T12:23:37.712Z</time>
      </trkpt>
      <trkpt lat="45.59398" lon="5.89359">
        <ele>256</ele>
        <time>2021-09-12T12:23:38.712Z</time>
      </trkpt>
      <trkpt lat="45.59395" lon="5.89363">
        <ele>256</ele>
        <time>2021-09-12T12:23:39.712Z</time>
      </trkpt>
      <trkpt lat="45.5939" lon="5.89368">
        <ele>256</ele>
        <time>2021-09-12T12:23:40.712Z</time>
      </trkpt>
      <trkpt lat="45.59386" lon="5.89372">
        <ele>256</ele>
        <time>2021-09-12T12:23:41.712Z</time>
      </trkpt>
      <trkpt lat="45.59382" lon="5.89377">
        <ele>256</ele>
        <time>2021-09-12T12:23:42.712Z</time>
      </trkpt>
      <trkpt lat="45.59378" lon="5.89382">
        <ele>256</ele>
        <time>2021-09-12T12:23:43.711Z</time>
      </trkpt>
      <trkpt lat="45.59374" lon="5.89387">
        <ele>256</ele>
        <time>2021-09-12T12:23:44.712Z</time>
      </trkpt>
      <trkpt lat="45.59371" lon="5.89393">
        <ele>256</ele>
        <time>2021-09-12T12:23:45.712Z</time>
      </trkpt>
      <trkpt lat="45.59367" lon="5.89398">
        <ele>257</ele>
        <time>2021-09-12T12:23:46.712Z</time>
      </trkpt>
      <trkpt lat="45.59364" lon="5.89402">
        <ele>257</ele>
        <time>2021-09-12T12:23:47.712Z</time>
      </trkpt>
      <trkpt lat="45.5936" lon="5.89407">
        <ele>258</ele>
        <time>2021-09-12T12:23:48.712Z</time>
      </trkpt>
      <trkpt lat="45.59356" lon="5.89413">
        <ele>258</ele>
        <time>2021-09-12T12:23:49.712Z</time>
      </trkpt>
      <trkpt lat="45.59352" lon="5.89418">
        <ele>259</ele>
        <time>2021-09-12T12:23:50.711Z</time>
      </trkpt>
      <trkpt lat="45.59349" lon="5.89423">
        <ele>258</ele>
        <time>2021-09-12T12:23:51.711Z</time>
      </trkpt>
      <trkpt lat="45.59345" lon="5.89429">
        <ele>258</ele>
        <time>2021-09-12T12:23:52.712Z</time>
      </trkpt>
      <trkpt lat="45.59341" lon="5.89434">
        <ele>258</ele>
        <time>2021-09-12T12:23:53.711Z</time>
      </trkpt>
      <trkpt lat="45.59338" lon="5.89439">
        <ele>257</ele>
        <time>2021-09-12T12:23:54.711Z</time>
      </trkpt>
      <trkpt lat="45.59334" lon="5.89445">
        <ele>257</ele>
        <time>2021-09-12T12:23:55.712Z</time>
      </trkpt>
      <trkpt lat="45.5933" lon="5.8945">
        <ele>256</ele>
        <time>2021-09-12T12:23:56.712Z</time>
      </trkpt>
      <trkpt lat="45.59326" lon="5.89455">
        <ele>256</ele>
        <time>2021-09-12T12:23:57.712Z</time>
      </trkpt>
      <trkpt lat="45.59323" lon="5.89461">
        <ele>256</ele>
        <time>2021-09-12T12:23:58.712Z</time>
      </trkpt>
      <trkpt lat="45.59319" lon="5.89465">
        <ele>256</ele>
        <time>2021-09-12T12:23:59.711Z</time>
      </trkpt>
      <trkpt lat="45.59316" lon="5.8947">
        <ele>256</ele>
        <time>2021-09-12T12:24:00.712Z</time>
      </trkpt>
      <trkpt lat="45.59312" lon="5.89476">
        <ele>256</ele>
        <time>2021-09-12T12:24:01.711Z</time>
      </trkpt>
      <trkpt lat="45.59308" lon="5.89481">
        <ele>255</ele>
        <time>2021-09-12T12:24:02.711Z</time>
      </trkpt>
      <trkpt lat="45.59304" lon="5.89487">
        <ele>255</ele>
        <time>2021-09-12T12:24:03.712Z</time>
      </trkpt>
      <trkpt lat="45.59301" lon="5.89492">
        <ele>255</ele>
        <time>2021-09-12T12:24:04.712Z</time>
      </trkpt>
      <trkpt lat="45.59297" lon="5.89497">
        <ele>255</ele>
        <time>2021-09-12T12:24:05.712Z</time>
      </trkpt>
      <trkpt lat="45.59293" lon="5.89503">
        <ele>255</ele>
        <time>2021-09-12T12:24:06.712Z</time>
      </trkpt>
      <trkpt lat="45.59289" lon="5.89508">
        <ele>255</ele>
        <time>2021-09-12T12:24:07.712Z</time>
      </trkpt>
      <trkpt lat="45.59285" lon="5.89513">
        <ele>255</ele>
        <time>2021-09-12T12:24:08.712Z</time>
      </trkpt>
      <trkpt lat="45.59281" lon="5.89519">
        <ele>255</ele>
        <time>2021-09-12T12:24:09.712Z</time>
      </trkpt>
      <trkpt lat="45.59277" lon="5.89524">
        <ele>255</ele>
        <time>2021-09-12T12:24:10.712Z</time>
      </trkpt>
      <trkpt lat="45.59273" lon="5.8953">
        <ele>256</ele>
        <time>2021-09-12T12:24:11.712Z</time>
      </trkpt>
      <trkpt lat="45.59269" lon="5.89536">
        <ele>256</ele>
        <time>2021-09-12T12:24:12.712Z</time>
      </trkpt>
      <trkpt lat="45.59265" lon="5.89541">
        <ele>256</ele>
        <time>2021-09-12T12:24:13.711Z</time>
      </trkpt>
      <trkpt lat="45.59261" lon="5.89546">
        <ele>256</ele>
        <time>2021-09-12T12:24:14.711Z</time>
      </trkpt>
      <trkpt lat="45.59257" lon="5.89553">
        <ele>256</ele>
        <time>2021-09-12T12:24:15.711Z</time>
      </trkpt>
      <trkpt lat="45.59254" lon="5.89557">
        <ele>255</ele>
        <time>2021-09-12T12:24:16.711Z</time>
      </trkpt>
      <trkpt lat="45.5925" lon="5.89562">
        <ele>255</ele>
        <time>2021-09-12T12:24:17.712Z</time>
      </trkpt>
      <trkpt lat="45.59246" lon="5.89568">
        <ele>255</ele>
        <time>2021-09-12T12:24:18.712Z</time>
      </trkpt>
      <trkpt lat="45.59242" lon="5.89574">
        <ele>255</ele>
        <time>2021-09-12T12:24:19.712Z</time>
      </trkpt>
      <trkpt lat="45.59238" lon="5.89579">
        <ele>256</ele>
        <time>2021-09-12T12:24:20.711Z</time>
      </trkpt>
      <trkpt lat="45.59234" lon="5.89585">
        <ele>256</ele>
        <time>2021-09-12T12:24:21.712Z</time>
      </trkpt>
      <trkpt lat="45.5923" lon="5.89591">
        <ele>256</ele>
        <time>2021-09-12T12:24:22.711Z</time>
      </trkpt>
      <trkpt lat="45.59226" lon="5.89596">
        <ele>256</ele>
        <time>2021-09-12T12:24:23.711Z</time>
      </trkpt>
      <trkpt lat="45.59222" lon="5.89602">
        <ele>256</ele>
        <time>2021-09-12T12:24:24.711Z</time>
      </trkpt>
      <trkpt lat="45.59219" lon="5.89607">
        <ele>256</ele>
        <time>2021-09-12T12:24:25.712Z</time>
      </trkpt>
      <trkpt lat="45.59215" lon="5.89613">
        <ele>256</ele>
        <time>2021-09-12T12:24:26.712Z</time>
      </trkpt>
      <trkpt lat="45.59211" lon="5.89618">
        <ele>257</ele>
        <time>2021-09-12T12:24:27.712Z</time>
      </trkpt>
      <trkpt lat="45.59207" lon="5.89624">
        <ele>257</ele>
        <time>2021-09-12T12:24:28.712Z</time>
      </trkpt>
      <trkpt lat="45.59203" lon="5.89629">
        <ele>256</ele>
        <time>2021-09-12T12:24:29.711Z</time>
      </trkpt>
      <trkpt lat="45.59199" lon="5.89634">
        <ele>256</ele>
        <time>2021-09-12T12:24:30.712Z</time>
      </trkpt>
      <trkpt lat="45.59195" lon="5.89639">
        <ele>256</ele>
        <time>2021-09-12T12:24:31.712Z</time>
      </trkpt>
      <trkpt lat="45.59192" lon="5.89645">
        <ele>256</ele>
        <time>2021-09-12T12:24:32.711Z</time>
      </trkpt>
      <trkpt lat="45.59188" lon="5.8965">
        <ele>256</ele>
        <time>2021-09-12T12:24:33.712Z</time>
      </trkpt>
      <trkpt lat="45.59184" lon="5.89656">
        <ele>256</ele>
        <time>2021-09-12T12:24:34.711Z</time>
      </trkpt>
      <trkpt lat="45.5918" lon="5.89661">
        <ele>256</ele>
        <time>2021-09-12T12:24:35.712Z</time>
      </trkpt>
      <trkpt lat="45.59176" lon="5.89666">
        <ele>256</ele>
        <time>2021-09-12T12:24:36.711Z</time>
      </trkpt>
      <trkpt lat="45.59172" lon="5.89671">
        <ele>256</ele>
        <time>2021-09-12T12:24:37.711Z</time>
      </trkpt>
      <trkpt lat="45.59168" lon="5.89677">
        <ele>256</ele>
        <time>2021-09-12T12:24:38.712Z</time>
      </trkpt>
      <trkpt lat="45.59164" lon="5.89683">
        <ele>257</ele>
        <time>2021-09-12T12:24:39.712Z</time>
      </trkpt>
      <trkpt lat="45.5916" lon="5.89688">
        <ele>257</ele>
        <time>2021-09-12T12:24:40.712Z</time>
      </trkpt>
      <trkpt lat="45.59157" lon="5.89692">
        <ele>257</ele>
        <time>2021-09-12T12:24:41.712Z</time>
      </trkpt>
      <trkpt lat="45.59153" lon="5.89697">
        <ele>256</ele>
        <time>2021-09-12T12:24:42.711Z</time>
      </trkpt>
      <trkpt lat="45.59149" lon="5.89702">
        <ele>257</ele>
        <time>2021-09-12T12:24:43.712Z</time>
      </trkpt>
      <trkpt lat="45.59145" lon="5.89707">
        <ele>257</ele>
        <time>2021-09-12T12:24:44.712Z</time>
      </trkpt>
      <trkpt lat="45.59141" lon="5.89712">
        <ele>257</ele>
        <time>2021-09-12T12:24:45.712Z</time>
      </trkpt>
      <trkpt lat="45.59136" lon="5.89717">
        <ele>258</ele>
        <time>2021-09-12T12:24:46.712Z</time>
      </trkpt>
      <trkpt lat="45.59132" lon="5.89723">
        <ele>259</ele>
        <time>2021-09-12T12:24:47.712Z</time>
      </trkpt>
      <trkpt lat="45.59128" lon="5.89728">
        <ele>260</ele>
        <time>2021-09-12T12:24:48.712Z</time>
      </trkpt>
      <trkpt lat="45.59124" lon="5.89733">
        <ele>260</ele>
        <time>2021-09-12T12:24:49.711Z</time>
      </trkpt>
      <trkpt lat="45.5912" lon="5.89738">
        <ele>260</ele>
        <time>2021-09-12T12:24:50.711Z</time>
      </trkpt>
      <trkpt lat="45.59116" lon="5.89742">
        <ele>260</ele>
        <time>2021-09-12T12:24:51.712Z</time>
      </trkpt>
      <trkpt lat="45.59111" lon="5.89747">
        <ele>260</ele>
        <time>2021-09-12T12:24:52.712Z</time>
      </trkpt>
      <trkpt lat="45.59107" lon="5.89751">
        <ele>260</ele>
        <time>2021-09-12T12:24:53.712Z</time>
      </trkpt>
      <trkpt lat="45.59102" lon="5.89756">
        <ele>260</ele>
        <time>2021-09-12T12:24:54.712Z</time>
      </trkpt>
      <trkpt lat="45.59098" lon="5.89761">
        <ele>259</ele>
        <time>2021-09-12T12:24:55.712Z</time>
      </trkpt>
      <trkpt lat="45.59094" lon="5.89765">
        <ele>259</ele>
        <time>2021-09-12T12:24:56.711Z</time>
      </trkpt>
      <trkpt lat="45.59088" lon="5.89771">
        <ele>259</ele>
        <time>2021-09-12T12:24:57.712Z</time>
      </trkpt>
      <trkpt lat="45.59085" lon="5.89775">
        <ele>259</ele>
        <time>2021-09-12T12:24:58.712Z</time>
      </trkpt>
      <trkpt lat="45.5908" lon="5.89782">
        <ele>259</ele>
        <time>2021-09-12T12:24:59.712Z</time>
      </trkpt>
      <trkpt lat="45.59077" lon="5.89786">
        <ele>259</ele>
        <time>2021-09-12T12:25:00.711Z</time>
      </trkpt>
      <trkpt lat="45.59072" lon="5.89791">
        <ele>258</ele>
        <time>2021-09-12T12:25:01.712Z</time>
      </trkpt>
      <trkpt lat="45.59068" lon="5.89796">
        <ele>258</ele>
        <time>2021-09-12T12:25:02.711Z</time>
      </trkpt>
      <trkpt lat="45.59063" lon="5.89802">
        <ele>257</ele>
        <time>2021-09-12T12:25:03.711Z</time>
      </trkpt>
      <trkpt lat="45.5906" lon="5.89806">
        <ele>256</ele>
        <time>2021-09-12T12:25:04.712Z</time>
      </trkpt>
      <trkpt lat="45.59056" lon="5.89811">
        <ele>256</ele>
        <time>2021-09-12T12:25:05.712Z</time>
      </trkpt>
      <trkpt lat="45.59052" lon="5.89816">
        <ele>256</ele>
        <time>2021-09-12T12:25:06.711Z</time>
      </trkpt>
      <trkpt lat="45.59049" lon="5.89822">
        <ele>256</ele>
        <time>2021-09-12T12:25:07.712Z</time>
      </trkpt>
      <trkpt lat="45.59044" lon="5.89828">
        <ele>256</ele>
        <time>2021-09-12T12:25:08.712Z</time>
      </trkpt>
      <trkpt lat="45.59041" lon="5.89833">
        <ele>256</ele>
        <time>2021-09-12T12:25:09.712Z</time>
      </trkpt>
      <trkpt lat="45.59037" lon="5.89838">
        <ele>256</ele>
        <time>2021-09-12T12:25:10.711Z</time>
      </trkpt>
      <trkpt lat="45.59033" lon="5.89843">
        <ele>256</ele>
        <time>2021-09-12T12:25:11.711Z</time>
      </trkpt>
      <trkpt lat="45.59028" lon="5.89849">
        <ele>256</ele>
        <time>2021-09-12T12:25:12.712Z</time>
      </trkpt>
      <trkpt lat="45.59024" lon="5.89854">
        <ele>256</ele>
        <time>2021-09-12T12:25:13.711Z</time>
      </trkpt>
      <trkpt lat="45.5902" lon="5.8986">
        <ele>257</ele>
        <time>2021-09-12T12:25:14.711Z</time>
      </trkpt>
      <trkpt lat="45.59016" lon="5.89865">
        <ele>257</ele>
        <time>2021-09-12T12:25:15.712Z</time>
      </trkpt>
      <trkpt lat="45.59012" lon="5.89871">
        <ele>257</ele>
        <time>2021-09-12T12:25:16.712Z</time>
      </trkpt>
      <trkpt lat="45.59008" lon="5.89876">
        <ele>257</ele>
        <time>2021-09-12T12:25:17.712Z</time>
      </trkpt>
      <trkpt lat="45.59005" lon="5.89882">
        <ele>257</ele>
        <time>2021-09-12T12:25:18.712Z</time>
      </trkpt>
      <trkpt lat="45.59001" lon="5.89888">
        <ele>258</ele>
        <time>2021-09-12T12:25:19.711Z</time>
      </trkpt>
      <trkpt lat="45.58997" lon="5.89894">
        <ele>258</ele>
        <time>2021-09-12T12:25:20.712Z</time>
      </trkpt>
      <trkpt lat="45.58994" lon="5.899">
        <ele>259</ele>
        <time>2021-09-12T12:25:21.712Z</time>
      </trkpt>
      <trkpt lat="45.5899" lon="5.89905">
        <ele>259</ele>
        <time>2021-09-12T12:25:22.712Z</time>
      </trkpt>
      <trkpt lat="45.58986" lon="5.89912">
        <ele>259</ele>
        <time>2021-09-12T12:25:23.712Z</time>
      </trkpt>
      <trkpt lat="45.58983" lon="5.89917">
        <ele>259</ele>
        <time>2021-09-12T12:25:24.711Z</time>
      </trkpt>
      <trkpt lat="45.58979" lon="5.89922">
        <ele>259</ele>
        <time>2021-09-12T12:25:25.712Z</time>
      </trkpt>
      <trkpt lat="45.58975" lon="5.89927">
        <ele>259</ele>
        <time>2021-09-12T12:25:26.711Z</time>
      </trkpt>
      <trkpt lat="45.58971" lon="5.89933">
        <ele>259</ele>
        <time>2021-09-12T12:25:27.712Z</time>
      </trkpt>
      <trkpt lat="45.58967" lon="5.89937">
        <ele>259</ele>
        <time>2021-09-12T12:25:28.712Z</time>
      </trkpt>
      <trkpt lat="45.58964" lon="5.89943">
        <ele>259</ele>
        <time>2021-09-12T12:25:29.712Z</time>
      </trkpt>
      <trkpt lat="45.5896" lon="5.89948">
        <ele>260</ele>
        <time>2021-09-12T12:25:30.711Z</time>
      </trkpt>
      <trkpt lat="45.58956" lon="5.89953">
        <ele>260</ele>
        <time>2021-09-12T12:25:31.712Z</time>
      </trkpt>
      <trkpt lat="45.58952" lon="5.89958">
        <ele>260</ele>
        <time>2021-09-12T12:25:32.712Z</time>
      </trkpt>
      <trkpt lat="45.58948" lon="5.89964">
        <ele>260</ele>
        <time>2021-09-12T12:25:33.711Z</time>
      </trkpt>
      <trkpt lat="45.58945" lon="5.89969">
        <ele>260</ele>
        <time>2021-09-12T12:25:34.711Z</time>
      </trkpt>
      <trkpt lat="45.5894" lon="5.89975">
        <ele>260</ele>
        <time>2021-09-12T12:25:35.711Z</time>
      </trkpt>
      <trkpt lat="45.58937" lon="5.89979">
        <ele>260</ele>
        <time>2021-09-12T12:25:36.711Z</time>
      </trkpt>
      <trkpt lat="45.58933" lon="5.89985">
        <ele>260</ele>
        <time>2021-09-12T12:25:37.711Z</time>
      </trkpt>
      <trkpt lat="45.58929" lon="5.8999">
        <ele>261</ele>
        <time>2021-09-12T12:25:38.711Z</time>
      </trkpt>
      <trkpt lat="45.58926" lon="5.89995">
        <ele>261</ele>
        <time>2021-09-12T12:25:39.712Z</time>
      </trkpt>
      <trkpt lat="45.58922" lon="5.90001">
        <ele>261</ele>
        <time>2021-09-12T12:25:40.711Z</time>
      </trkpt>
      <trkpt lat="45.58918" lon="5.90007">
        <ele>261</ele>
        <time>2021-09-12T12:25:41.711Z</time>
      </trkpt>
      <trkpt lat="45.58915" lon="5.90013">
        <ele>261</ele>
        <time>2021-09-12T12:25:42.711Z</time>
      </trkpt>
      <trkpt lat="45.58912" lon="5.9002">
        <ele>260</ele>
        <time>2021-09-12T12:25:43.712Z</time>
      </trkpt>
      <trkpt lat="45.58909" lon="5.90027">
        <ele>260</ele>
        <time>2021-09-12T12:25:44.711Z</time>
      </trkpt>
      <trkpt lat="45.58906" lon="5.90035">
        <ele>260</ele>
        <time>2021-09-12T12:25:45.711Z</time>
      </trkpt>
      <trkpt lat="45.58901" lon="5.90045">
        <ele>260</ele>
        <time>2021-09-12T12:25:46.711Z</time>
      </trkpt>
      <trkpt lat="45.58898" lon="5.90052">
        <ele>259</ele>
        <time>2021-09-12T12:25:47.711Z</time>
      </trkpt>
      <trkpt lat="45.58894" lon="5.90061">
        <ele>259</ele>
        <time>2021-09-12T12:25:48.712Z</time>
      </trkpt>
      <trkpt lat="45.58888" lon="5.9007">
        <ele>259</ele>
        <time>2021-09-12T12:25:49.711Z</time>
      </trkpt>
      <trkpt lat="45.58883" lon="5.90076">
        <ele>258</ele>
        <time>2021-09-12T12:25:50.711Z</time>
      </trkpt>
      <trkpt lat="45.58879" lon="5.90081">
        <ele>258</ele>
        <time>2021-09-12T12:25:51.711Z</time>
      </trkpt>
      <trkpt lat="45.58873" lon="5.90086">
        <ele>257</ele>
        <time>2021-09-12T12:25:52.711Z</time>
      </trkpt>
      <trkpt lat="45.58868" lon="5.90091">
        <ele>257</ele>
        <time>2021-09-12T12:25:53.712Z</time>
      </trkpt>
      <trkpt lat="45.58863" lon="5.90095">
        <ele>258</ele>
        <time>2021-09-12T12:25:54.711Z</time>
      </trkpt>
      <trkpt lat="45.58858" lon="5.90099">
        <ele>257</ele>
        <time>2021-09-12T12:25:55.711Z</time>
      </trkpt>
      <trkpt lat="45.58853" lon="5.90103">
        <ele>257</ele>
        <time>2021-09-12T12:25:56.712Z</time>
      </trkpt>
      <trkpt lat="45.58848" lon="5.90105">
        <ele>257</ele>
        <time>2021-09-12T12:25:57.711Z</time>
      </trkpt>
      <trkpt lat="45.58844" lon="5.90108">
        <ele>256</ele>
        <time>2021-09-12T12:25:58.712Z</time>
      </trkpt>
      <trkpt lat="45.58838" lon="5.9011">
        <ele>256</ele>
        <time>2021-09-12T12:25:59.711Z</time>
      </trkpt>
      <trkpt lat="45.58832" lon="5.90112">
        <ele>256</ele>
        <time>2021-09-12T12:26:00.712Z</time>
      </trkpt>
      <trkpt lat="45.58829" lon="5.90115">
        <ele>257</ele>
        <time>2021-09-12T12:26:01.712Z</time>
      </trkpt>
      <trkpt lat="45.58824" lon="5.90118">
        <ele>257</ele>
        <time>2021-09-12T12:26:02.712Z</time>
      </trkpt>
      <trkpt lat="45.5882" lon="5.90122">
        <ele>258</ele>
        <time>2021-09-12T12:26:03.712Z</time>
      </trkpt>
      <trkpt lat="45.58816" lon="5.90127">
        <ele>258</ele>
        <time>2021-09-12T12:26:04.712Z</time>
      </trkpt>
      <trkpt lat="45.58812" lon="5.90131">
        <ele>259</ele>
        <time>2021-09-12T12:26:05.712Z</time>
      </trkpt>
      <trkpt lat="45.58809" lon="5.90136">
        <ele>259</ele>
        <time>2021-09-12T12:26:06.711Z</time>
      </trkpt>
      <trkpt lat="45.58805" lon="5.90141">
        <ele>260</ele>
        <time>2021-09-12T12:26:07.712Z</time>
      </trkpt>
      <trkpt lat="45.58801" lon="5.90147">
        <ele>260</ele>
        <time>2021-09-12T12:26:08.712Z</time>
      </trkpt>
      <trkpt lat="45.58797" lon="5.90152">
        <ele>261</ele>
        <time>2021-09-12T12:26:09.711Z</time>
      </trkpt>
      <trkpt lat="45.58792" lon="5.90158">
        <ele>261</ele>
        <time>2021-09-12T12:26:10.712Z</time>
      </trkpt>
      <trkpt lat="45.58788" lon="5.90163">
        <ele>262</ele>
        <time>2021-09-12T12:26:11.711Z</time>
      </trkpt>
      <trkpt lat="45.58784" lon="5.90169">
        <ele>262</ele>
        <time>2021-09-12T12:26:12.712Z</time>
      </trkpt>
      <trkpt lat="45.5878" lon="5.90174">
        <ele>262</ele>
        <time>2021-09-12T12:26:13.711Z</time>
      </trkpt>
      <trkpt lat="45.58776" lon="5.9018">
        <ele>262</ele>
        <time>2021-09-12T12:26:14.711Z</time>
      </trkpt>
      <trkpt lat="45.58772" lon="5.90185">
        <ele>262</ele>
        <time>2021-09-12T12:26:15.711Z</time>
      </trkpt>
      <trkpt lat="45.58768" lon="5.90191">
        <ele>262</ele>
        <time>2021-09-12T12:26:16.711Z</time>
      </trkpt>
      <trkpt lat="45.58764" lon="5.90196">
        <ele>262</ele>
        <time>2021-09-12T12:26:17.711Z</time>
      </trkpt>
      <trkpt lat="45.5876" lon="5.90202">
        <ele>262</ele>
        <time>2021-09-12T12:26:18.711Z</time>
      </trkpt>
      <trkpt lat="45.58755" lon="5.90209">
        <ele>262</ele>
        <time>2021-09-12T12:26:19.711Z</time>
      </trkpt>
      <trkpt lat="45.58751" lon="5.90214">
        <ele>262</ele>
        <time>2021-09-12T12:26:20.711Z</time>
      </trkpt>
      <trkpt lat="45.58747" lon="5.9022">
        <ele>262</ele>
        <time>2021-09-12T12:26:21.712Z</time>
      </trkpt>
      <trkpt lat="45.58743" lon="5.90225">
        <ele>262</ele>
        <time>2021-09-12T12:26:22.711Z</time>
      </trkpt>
      <trkpt lat="45.58739" lon="5.90231">
        <ele>261</ele>
        <time>2021-09-12T12:26:23.711Z</time>
      </trkpt>
      <trkpt lat="45.58735" lon="5.90236">
        <ele>261</ele>
        <time>2021-09-12T12:26:24.712Z</time>
      </trkpt>
      <trkpt lat="45.58731" lon="5.90242">
        <ele>261</ele>
        <time>2021-09-12T12:26:25.712Z</time>
      </trkpt>
      <trkpt lat="45.58727" lon="5.90247">
        <ele>261</ele>
        <time>2021-09-12T12:26:26.711Z</time>
      </trkpt>
      <trkpt lat="45.58723" lon="5.90253">
        <ele>261</ele>
        <time>2021-09-12T12:26:27.712Z</time>
      </trkpt>
      <trkpt lat="45.58719" lon="5.90259">
        <ele>261</ele>
        <time>2021-09-12T12:26:28.712Z</time>
      </trkpt>
      <trkpt lat="45.58714" lon="5.90264">
        <ele>261</ele>
        <time>2021-09-12T12:26:29.712Z</time>
      </trkpt>
      <trkpt lat="45.5871" lon="5.9027">
        <ele>261</ele>
        <time>2021-09-12T12:26:30.712Z</time>
      </trkpt>
      <trkpt lat="45.58706" lon="5.90275">
        <ele>262</ele>
        <time>2021-09-12T12:26:31.711Z</time>
      </trkpt>
      <trkpt lat="45.58702" lon="5.90281">
        <ele>262</ele>
        <time>2021-09-12T12:26:32.711Z</time>
      </trkpt>
      <trkpt lat="45.58698" lon="5.90287">
        <ele>262</ele>
        <time>2021-09-12T12:26:33.712Z</time>
      </trkpt>
      <trkpt lat="45.58693" lon="5.90292">
        <ele>261</ele>
        <time>2021-09-12T12:26:34.712Z</time>
      </trkpt>
      <trkpt lat="45.58689" lon="5.90298">
        <ele>262</ele>
        <time>2021-09-12T12:26:35.712Z</time>
      </trkpt>
      <trkpt lat="45.58685" lon="5.90304">
        <ele>262</ele>
        <time>2021-09-12T12:26:36.712Z</time>
      </trkpt>
      <trkpt lat="45.58681" lon="5.9031">
        <ele>262</ele>
        <time>2021-09-12T12:26:37.711Z</time>
      </trkpt>
      <trkpt lat="45.58677" lon="5.90315">
        <ele>262</ele>
        <time>2021-09-12T12:26:38.711Z</time>
      </trkpt>
      <trkpt lat="45.58673" lon="5.90321">
        <ele>262</ele>
        <time>2021-09-12T12:26:39.711Z</time>
      </trkpt>
      <trkpt lat="45.58669" lon="5.90327">
        <ele>262</ele>
        <time>2021-09-12T12:26:40.712Z</time>
      </trkpt>
      <trkpt lat="45.58665" lon="5.90332">
        <ele>262</ele>
        <time>2021-09-12T12:26:41.711Z</time>
      </trkpt>
      <trkpt lat="45.58661" lon="5.90338">
        <ele>261</ele>
        <time>2021-09-12T12:26:42.711Z</time>
      </trkpt>
      <trkpt lat="45.58658" lon="5.90344">
        <ele>261</ele>
        <time>2021-09-12T12:26:43.711Z</time>
      </trkpt>
      <trkpt lat="45.58654" lon="5.9035">
        <ele>262</ele>
        <time>2021-09-12T12:26:44.712Z</time>
      </trkpt>
      <trkpt lat="45.58651" lon="5.90356">
        <ele>262</ele>
        <time>2021-09-12T12:26:45.712Z</time>
      </trkpt>
      <trkpt lat="45.58648" lon="5.90363">
        <ele>262</ele>
        <time>2021-09-12T12:26:46.712Z</time>
      </trkpt>
      <trkpt lat="45.58645" lon="5.90369">
        <ele>262</ele>
        <time>2021-09-12T12:26:47.711Z</time>
      </trkpt>
      <trkpt lat="45.58642" lon="5.90375">
        <ele>263</ele>
        <time>2021-09-12T12:26:48.712Z</time>
      </trkpt>
      <trkpt lat="45.58639" lon="5.90381">
        <ele>263</ele>
        <time>2021-09-12T12:26:49.712Z</time>
      </trkpt>
      <trkpt lat="45.58636" lon="5.90386">
        <ele>263</ele>
        <time>2021-09-12T12:26:50.711Z</time>
      </trkpt>
      <trkpt lat="45.58632" lon="5.9039">
        <ele>263</ele>
        <time>2021-09-12T12:26:51.712Z</time>
      </trkpt>
      <trkpt lat="45.58629" lon="5.90393">
        <ele>263</ele>
        <time>2021-09-12T12:26:52.712Z</time>
      </trkpt>
      <trkpt lat="45.58625" lon="5.90396">
        <ele>263</ele>
        <time>2021-09-12T12:26:53.712Z</time>
      </trkpt>
      <trkpt lat="45.58622" lon="5.90398">
        <ele>263</ele>
        <time>2021-09-12T12:26:54.712Z</time>
      </trkpt>
      <trkpt lat="45.58618" lon="5.904">
        <ele>262</ele>
        <time>2021-09-12T12:26:55.711Z</time>
      </trkpt>
      <trkpt lat="45.58614" lon="5.904">
        <ele>262</ele>
        <time>2021-09-12T12:26:56.712Z</time>
      </trkpt>
      <trkpt lat="45.5861" lon="5.904">
        <ele>261</ele>
        <time>2021-09-12T12:26:57.712Z</time>
      </trkpt>
      <trkpt lat="45.58606" lon="5.904">
        <ele>261</ele>
        <time>2021-09-12T12:26:58.711Z</time>
      </trkpt>
      <trkpt lat="45.58602" lon="5.90398">
        <ele>260</ele>
        <time>2021-09-12T12:26:59.712Z</time>
      </trkpt>
      <trkpt lat="45.58599" lon="5.90394">
        <ele>260</ele>
        <time>2021-09-12T12:27:00.712Z</time>
      </trkpt>
      <trkpt lat="45.58596" lon="5.90389">
        <ele>260</ele>
        <time>2021-09-12T12:27:01.712Z</time>
      </trkpt>
      <trkpt lat="45.58593" lon="5.90383">
        <ele>260</ele>
        <time>2021-09-12T12:27:02.712Z</time>
      </trkpt>
      <trkpt lat="45.58591" lon="5.90377">
        <ele>260</ele>
        <time>2021-09-12T12:27:03.711Z</time>
      </trkpt>
      <trkpt lat="45.58589" lon="5.90371">
        <ele>260</ele>
        <time>2021-09-12T12:27:04.712Z</time>
      </trkpt>
      <trkpt lat="45.58587" lon="5.90364">
        <ele>260</ele>
        <time>2021-09-12T12:27:05.712Z</time>
      </trkpt>
      <trkpt lat="45.58585" lon="5.90357">
        <ele>259</ele>
        <time>2021-09-12T12:27:06.712Z</time>
      </trkpt>
      <trkpt lat="45.58582" lon="5.9035">
        <ele>259</ele>
        <time>2021-09-12T12:27:07.712Z</time>
      </trkpt>
      <trkpt lat="45.5858" lon="5.90343">
        <ele>259</ele>
        <time>2021-09-12T12:27:08.712Z</time>
      </trkpt>
      <trkpt lat="45.58578" lon="5.90337">
        <ele>259</ele>
        <time>2021-09-12T12:27:09.712Z</time>
      </trkpt>
      <trkpt lat="45.58576" lon="5.90329">
        <ele>259</ele>
        <time>2021-09-12T12:27:10.712Z</time>
      </trkpt>
      <trkpt lat="45.58573" lon="5.90321">
        <ele>259</ele>
        <time>2021-09-12T12:27:11.712Z</time>
      </trkpt>
      <trkpt lat="45.58571" lon="5.90315">
        <ele>259</ele>
        <time>2021-09-12T12:27:12.712Z</time>
      </trkpt>
      <trkpt lat="45.58569" lon="5.90308">
        <ele>259</ele>
        <time>2021-09-12T12:27:13.712Z</time>
      </trkpt>
      <trkpt lat="45.58567" lon="5.90301">
        <ele>259</ele>
        <time>2021-09-12T12:27:14.712Z</time>
      </trkpt>
      <trkpt lat="45.58564" lon="5.90293">
        <ele>259</ele>
        <time>2021-09-12T12:27:15.711Z</time>
      </trkpt>
      <trkpt lat="45.58562" lon="5.90287">
        <ele>259</ele>
        <time>2021-09-12T12:27:16.712Z</time>
      </trkpt>
      <trkpt lat="45.5856" lon="5.90281">
        <ele>260</ele>
        <time>2021-09-12T12:27:17.711Z</time>
      </trkpt>
      <trkpt lat="45.58558" lon="5.90274">
        <ele>260</ele>
        <time>2021-09-12T12:27:18.712Z</time>
      </trkpt>
      <trkpt lat="45.58556" lon="5.90266">
        <ele>260</ele>
        <time>2021-09-12T12:27:19.712Z</time>
      </trkpt>
      <trkpt lat="45.58554" lon="5.90261">
        <ele>261</ele>
        <time>2021-09-12T12:27:20.712Z</time>
      </trkpt>
      <trkpt lat="45.58552" lon="5.90253">
        <ele>261</ele>
        <time>2021-09-12T12:27:21.712Z</time>
      </trkpt>
      <trkpt lat="45.5855" lon="5.90248">
        <ele>261</ele>
        <time>2021-09-12T12:27:22.712Z</time>
      </trkpt>
      <trkpt lat="45.58549" lon="5.90242">
        <ele>261</ele>
        <time>2021-09-12T12:27:23.712Z</time>
      </trkpt>
      <trkpt lat="45.58548" lon="5.90235">
        <ele>261</ele>
        <time>2021-09-12T12:27:24.712Z</time>
      </trkpt>
      <trkpt lat="45.58547" lon="5.90229">
        <ele>260</ele>
        <time>2021-09-12T12:27:25.712Z</time>
      </trkpt>
      <trkpt lat="45.58547" lon="5.90223">
        <ele>259</ele>
        <time>2021-09-12T12:27:26.712Z</time>
      </trkpt>
      <trkpt lat="45.58547" lon="5.90217">
        <ele>258</ele>
        <time>2021-09-12T12:27:27.712Z</time>
      </trkpt>
      <trkpt lat="45.58547" lon="5.90212">
        <ele>258</ele>
        <time>2021-09-12T12:27:28.712Z</time>
      </trkpt>
      <trkpt lat="45.58546" lon="5.90207">
        <ele>258</ele>
        <time>2021-09-12T12:27:29.711Z</time>
      </trkpt>
      <trkpt lat="45.58545" lon="5.90202">
        <ele>259</ele>
        <time>2021-09-12T12:27:30.711Z</time>
      </trkpt>
      <trkpt lat="45.58543" lon="5.90197">
        <ele>259</ele>
        <time>2021-09-12T12:27:31.712Z</time>
      </trkpt>
      <trkpt lat="45.58541" lon="5.90193">
        <ele>259</ele>
        <time>2021-09-12T12:27:32.712Z</time>
      </trkpt>
      <trkpt lat="45.58538" lon="5.90189">
        <ele>259</ele>
        <time>2021-09-12T12:27:33.712Z</time>
      </trkpt>
      <trkpt lat="45.58535" lon="5.90185">
        <ele>259</ele>
        <time>2021-09-12T12:27:34.712Z</time>
      </trkpt>
      <trkpt lat="45.58533" lon="5.90182">
        <ele>259</ele>
        <time>2021-09-12T12:27:35.712Z</time>
      </trkpt>
      <trkpt lat="45.58531" lon="5.90178">
        <ele>259</ele>
        <time>2021-09-12T12:27:36.711Z</time>
      </trkpt>
      <trkpt lat="45.58529" lon="5.90173">
        <ele>260</ele>
        <time>2021-09-12T12:27:37.712Z</time>
      </trkpt>
      <trkpt lat="45.58527" lon="5.90168">
        <ele>260</ele>
        <time>2021-09-12T12:27:38.712Z</time>
      </trkpt>
      <trkpt lat="45.58525" lon="5.90162">
        <ele>261</ele>
        <time>2021-09-12T12:27:39.712Z</time>
      </trkpt>
      <trkpt lat="45.58523" lon="5.90157">
        <ele>261</ele>
        <time>2021-09-12T12:27:40.712Z</time>
      </trkpt>
      <trkpt lat="45.58522" lon="5.90152">
        <ele>262</ele>
        <time>2021-09-12T12:27:41.712Z</time>
      </trkpt>
      <trkpt lat="45.5852" lon="5.90146">
        <ele>262</ele>
        <time>2021-09-12T12:27:42.712Z</time>
      </trkpt>
      <trkpt lat="45.58518" lon="5.9014">
        <ele>262</ele>
        <time>2021-09-12T12:27:43.712Z</time>
      </trkpt>
      <trkpt lat="45.58516" lon="5.90135">
        <ele>262</ele>
        <time>2021-09-12T12:27:44.712Z</time>
      </trkpt>
      <trkpt lat="45.58514" lon="5.9013">
        <ele>262</ele>
        <time>2021-09-12T12:27:45.712Z</time>
      </trkpt>
      <trkpt lat="45.58513" lon="5.90124">
        <ele>262</ele>
        <time>2021-09-12T12:27:46.712Z</time>
      </trkpt>
      <trkpt lat="45.58511" lon="5.90118">
        <ele>262</ele>
        <time>2021-09-12T12:27:47.712Z</time>
      </trkpt>
      <trkpt lat="45.58509" lon="5.90113">
        <ele>262</ele>
        <time>2021-09-12T12:27:48.712Z</time>
      </trkpt>
      <trkpt lat="45.58506" lon="5.90106">
        <ele>263</ele>
        <time>2021-09-12T12:27:49.712Z</time>
      </trkpt>
      <trkpt lat="45.58505" lon="5.90101">
        <ele>263</ele>
        <time>2021-09-12T12:27:50.712Z</time>
      </trkpt>
      <trkpt lat="45.58503" lon="5.90096">
        <ele>264</ele>
        <time>2021-09-12T12:27:51.712Z</time>
      </trkpt>
      <trkpt lat="45.58501" lon="5.90089">
        <ele>264</ele>
        <time>2021-09-12T12:27:52.712Z</time>
      </trkpt>
      <trkpt lat="45.58499" lon="5.90083">
        <ele>264</ele>
        <time>2021-09-12T12:27:53.712Z</time>
      </trkpt>
      <trkpt lat="45.58497" lon="5.90078">
        <ele>264</ele>
        <time>2021-09-12T12:27:54.712Z</time>
      </trkpt>
      <trkpt lat="45.58495" lon="5.90072">
        <ele>263</ele>
        <time>2021-09-12T12:27:55.712Z</time>
      </trkpt>
      <trkpt lat="45.58493" lon="5.90067">
        <ele>263</ele>
        <time>2021-09-12T12:27:56.712Z</time>
      </trkpt>
      <trkpt lat="45.58491" lon="5.9006">
        <ele>263</ele>
        <time>2021-09-12T12:27:57.712Z</time>
      </trkpt>
      <trkpt lat="45.58489" lon="5.90055">
        <ele>264</ele>
        <time>2021-09-12T12:27:58.712Z</time>
      </trkpt>
      <trkpt lat="45.58487" lon="5.90051">
        <ele>264</ele>
        <time>2021-09-12T12:27:59.712Z</time>
      </trkpt>
      <trkpt lat="45.58485" lon="5.90046">
        <ele>265</ele>
        <time>2021-09-12T12:28:00.712Z</time>
      </trkpt>
      <trkpt lat="45.58483" lon="5.90041">
        <ele>266</ele>
        <time>2021-09-12T12:28:01.711Z</time>
      </trkpt>
      <trkpt lat="45.58481" lon="5.90037">
        <ele>266</ele>
        <time>2021-09-12T12:28:02.712Z</time>
      </trkpt>
      <trkpt lat="45.58479" lon="5.90034">
        <ele>265</ele>
        <time>2021-09-12T12:28:03.711Z</time>
      </trkpt>
      <trkpt lat="45.58478" lon="5.90032">
        <ele>264</ele>
        <time>2021-09-12T12:28:04.712Z</time>
      </trkpt>
      <trkpt lat="45.58478" lon="5.90031">
        <ele>264</ele>
        <time>2021-09-12T12:28:05.712Z</time>
      </trkpt>
      <trkpt lat="45.58477" lon="5.90031">
        <ele>263</ele>
        <time>2021-09-12T12:28:06.712Z</time>
      </trkpt>
      <trkpt lat="45.58477" lon="5.9003">
        <ele>263</ele>
        <time>2021-09-12T12:28:07.712Z</time>
      </trkpt>
      <trkpt lat="45.58477" lon="5.9003">
        <ele>262</ele>
        <time>2021-09-12T12:28:08.712Z</time>
      </trkpt>
      <trkpt lat="45.58477" lon="5.90029">
        <ele>262</ele>
        <time>2021-09-12T12:28:09.713Z</time>
      </trkpt>
      <trkpt lat="45.58476" lon="5.90027">
        <ele>262</ele>
        <time>2021-09-12T12:28:10.713Z</time>
      </trkpt>
      <trkpt lat="45.58474" lon="5.90024">
        <ele>262</ele>
        <time>2021-09-12T12:28:11.712Z</time>
      </trkpt>
      <trkpt lat="45.58473" lon="5.9002">
        <ele>261</ele>
        <time>2021-09-12T12:28:12.712Z</time>
      </trkpt>
      <trkpt lat="45.58471" lon="5.90017">
        <ele>260</ele>
        <time>2021-09-12T12:28:13.712Z</time>
      </trkpt>
      <trkpt lat="45.58468" lon="5.90015">
        <ele>259</ele>
        <time>2021-09-12T12:28:14.712Z</time>
      </trkpt>
      <trkpt lat="45.58464" lon="5.90016">
        <ele>258</ele>
        <time>2021-09-12T12:28:15.712Z</time>
      </trkpt>
      <trkpt lat="45.58462" lon="5.90017">
        <ele>258</ele>
        <time>2021-09-12T12:28:16.713Z</time>
      </trkpt>
      <trkpt lat="45.58459" lon="5.9002">
        <ele>257</ele>
        <time>2021-09-12T12:28:17.713Z</time>
      </trkpt>
      <trkpt lat="45.58455" lon="5.90025">
        <ele>257</ele>
        <time>2021-09-12T12:28:18.712Z</time>
      </trkpt>
      <trkpt lat="45.58452" lon="5.9003">
        <ele>257</ele>
        <time>2021-09-12T12:28:19.712Z</time>
      </trkpt>
      <trkpt lat="45.58448" lon="5.90034">
        <ele>257</ele>
        <time>2021-09-12T12:28:20.712Z</time>
      </trkpt>
      <trkpt lat="45.58445" lon="5.90039">
        <ele>257</ele>
        <time>2021-09-12T12:28:21.712Z</time>
      </trkpt>
      <trkpt lat="45.58441" lon="5.90043">
        <ele>257</ele>
        <time>2021-09-12T12:28:22.713Z</time>
      </trkpt>
      <trkpt lat="45.58437" lon="5.90047">
        <ele>257</ele>
        <time>2021-09-12T12:28:23.712Z</time>
      </trkpt>
      <trkpt lat="45.58433" lon="5.90052">
        <ele>257</ele>
        <time>2021-09-12T12:28:24.712Z</time>
      </trkpt>
      <trkpt lat="45.58429" lon="5.90056">
        <ele>257</ele>
        <time>2021-09-12T12:28:25.713Z</time>
      </trkpt>
      <trkpt lat="45.58425" lon="5.9006">
        <ele>257</ele>
        <time>2021-09-12T12:28:26.713Z</time>
      </trkpt>
      <trkpt lat="45.58421" lon="5.90064">
        <ele>257</ele>
        <time>2021-09-12T12:28:27.712Z</time>
      </trkpt>
      <trkpt lat="45.58416" lon="5.90068">
        <ele>257</ele>
        <time>2021-09-12T12:28:28.713Z</time>
      </trkpt>
      <trkpt lat="45.58412" lon="5.90072">
        <ele>256</ele>
        <time>2021-09-12T12:28:29.713Z</time>
      </trkpt>
      <trkpt lat="45.58408" lon="5.90076">
        <ele>256</ele>
        <time>2021-09-12T12:28:30.712Z</time>
      </trkpt>
      <trkpt lat="45.58404" lon="5.9008">
        <ele>257</ele>
        <time>2021-09-12T12:28:31.713Z</time>
      </trkpt>
      <trkpt lat="45.584" lon="5.90085">
        <ele>257</ele>
        <time>2021-09-12T12:28:32.712Z</time>
      </trkpt>
      <trkpt lat="45.58397" lon="5.90089">
        <ele>257</ele>
        <time>2021-09-12T12:28:33.713Z</time>
      </trkpt>
      <trkpt lat="45.58393" lon="5.90094">
        <ele>258</ele>
        <time>2021-09-12T12:28:34.713Z</time>
      </trkpt>
      <trkpt lat="45.5839" lon="5.90098">
        <ele>259</ele>
        <time>2021-09-12T12:28:35.712Z</time>
      </trkpt>
      <trkpt lat="45.58387" lon="5.90102">
        <ele>259</ele>
        <time>2021-09-12T12:28:36.713Z</time>
      </trkpt>
      <trkpt lat="45.58384" lon="5.90107">
        <ele>259</ele>
        <time>2021-09-12T12:28:37.712Z</time>
      </trkpt>
      <trkpt lat="45.5838" lon="5.90113">
        <ele>259</ele>
        <time>2021-09-12T12:28:38.712Z</time>
      </trkpt>
      <trkpt lat="45.58377" lon="5.90117">
        <ele>259</ele>
        <time>2021-09-12T12:28:39.712Z</time>
      </trkpt>
      <trkpt lat="45.58373" lon="5.90121">
        <ele>260</ele>
        <time>2021-09-12T12:28:40.712Z</time>
      </trkpt>
      <trkpt lat="45.5837" lon="5.90126">
        <ele>260</ele>
        <time>2021-09-12T12:28:41.713Z</time>
      </trkpt>
      <trkpt lat="45.58366" lon="5.90131">
        <ele>260</ele>
        <time>2021-09-12T12:28:42.713Z</time>
      </trkpt>
      <trkpt lat="45.58362" lon="5.90136">
        <ele>260</ele>
        <time>2021-09-12T12:28:43.712Z</time>
      </trkpt>
      <trkpt lat="45.58359" lon="5.90141">
        <ele>260</ele>
        <time>2021-09-12T12:28:44.712Z</time>
      </trkpt>
      <trkpt lat="45.58356" lon="5.90146">
        <ele>259</ele>
        <time>2021-09-12T12:28:45.713Z</time>
      </trkpt>
      <trkpt lat="45.58352" lon="5.90151">
        <ele>259</ele>
        <time>2021-09-12T12:28:46.713Z</time>
      </trkpt>
      <trkpt lat="45.58349" lon="5.90156">
        <ele>260</ele>
        <time>2021-09-12T12:28:47.713Z</time>
      </trkpt>
      <trkpt lat="45.58344" lon="5.90162">
        <ele>260</ele>
        <time>2021-09-12T12:28:48.712Z</time>
      </trkpt>
      <trkpt lat="45.58341" lon="5.90168">
        <ele>260</ele>
        <time>2021-09-12T12:28:49.712Z</time>
      </trkpt>
      <trkpt lat="45.58338" lon="5.90173">
        <ele>260</ele>
        <time>2021-09-12T12:28:50.712Z</time>
      </trkpt>
      <trkpt lat="45.58335" lon="5.90177">
        <ele>261</ele>
        <time>2021-09-12T12:28:51.713Z</time>
      </trkpt>
      <trkpt lat="45.58331" lon="5.90182">
        <ele>261</ele>
        <time>2021-09-12T12:28:52.713Z</time>
      </trkpt>
      <trkpt lat="45.58328" lon="5.90187">
        <ele>261</ele>
        <time>2021-09-12T12:28:53.712Z</time>
      </trkpt>
      <trkpt lat="45.58324" lon="5.90192">
        <ele>262</ele>
        <time>2021-09-12T12:28:54.712Z</time>
      </trkpt>
      <trkpt lat="45.58321" lon="5.90197">
        <ele>262</ele>
        <time>2021-09-12T12:28:55.712Z</time>
      </trkpt>
      <trkpt lat="45.58318" lon="5.90203">
        <ele>263</ele>
        <time>2021-09-12T12:28:56.713Z</time>
      </trkpt>
      <trkpt lat="45.58314" lon="5.90208">
        <ele>263</ele>
        <time>2021-09-12T12:28:57.712Z</time>
      </trkpt>
      <trkpt lat="45.5831" lon="5.90214">
        <ele>264</ele>
        <time>2021-09-12T12:28:58.712Z</time>
      </trkpt>
      <trkpt lat="45.58306" lon="5.90219">
        <ele>264</ele>
        <time>2021-09-12T12:28:59.712Z</time>
      </trkpt>
      <trkpt lat="45.58303" lon="5.90225">
        <ele>264</ele>
        <time>2021-09-12T12:29:00.712Z</time>
      </trkpt>
      <trkpt lat="45.583" lon="5.90229">
        <ele>264</ele>
        <time>2021-09-12T12:29:01.713Z</time>
      </trkpt>
      <trkpt lat="45.58296" lon="5.90234">
        <ele>264</ele>
        <time>2021-09-12T12:29:02.712Z</time>
      </trkpt>
      <trkpt lat="45.58292" lon="5.9024">
        <ele>264</ele>
        <time>2021-09-12T12:29:03.712Z</time>
      </trkpt>
      <trkpt lat="45.58288" lon="5.90245">
        <ele>264</ele>
        <time>2021-09-12T12:29:04.712Z</time>
      </trkpt>
      <trkpt lat="45.58285" lon="5.90249">
        <ele>264</ele>
        <time>2021-09-12T12:29:05.712Z</time>
      </trkpt>
      <trkpt lat="45.58281" lon="5.90254">
        <ele>264</ele>
        <time>2021-09-12T12:29:06.712Z</time>
      </trkpt>
      <trkpt lat="45.58276" lon="5.90259">
        <ele>264</ele>
        <time>2021-09-12T12:29:07.713Z</time>
      </trkpt>
      <trkpt lat="45.58272" lon="5.90262">
        <ele>264</ele>
        <time>2021-09-12T12:29:08.712Z</time>
      </trkpt>
      <trkpt lat="45.58267" lon="5.90266">
        <ele>264</ele>
        <time>2021-09-12T12:29:09.712Z</time>
      </trkpt>
      <trkpt lat="45.58263" lon="5.9027">
        <ele>264</ele>
        <time>2021-09-12T12:29:10.712Z</time>
      </trkpt>
      <trkpt lat="45.58258" lon="5.90274">
        <ele>264</ele>
        <time>2021-09-12T12:29:11.713Z</time>
      </trkpt>
      <trkpt lat="45.58254" lon="5.90277">
        <ele>265</ele>
        <time>2021-09-12T12:29:12.712Z</time>
      </trkpt>
      <trkpt lat="45.58249" lon="5.9028">
        <ele>264</ele>
        <time>2021-09-12T12:29:13.712Z</time>
      </trkpt>
      <trkpt lat="45.58245" lon="5.90283">
        <ele>265</ele>
        <time>2021-09-12T12:29:14.713Z</time>
      </trkpt>
      <trkpt lat="45.5824" lon="5.90286">
        <ele>265</ele>
        <time>2021-09-12T12:29:15.712Z</time>
      </trkpt>
      <trkpt lat="45.58234" lon="5.90288">
        <ele>266</ele>
        <time>2021-09-12T12:29:16.712Z</time>
      </trkpt>
      <trkpt lat="45.58229" lon="5.9029">
        <ele>267</ele>
        <time>2021-09-12T12:29:17.712Z</time>
      </trkpt>
      <trkpt lat="45.58224" lon="5.90291">
        <ele>268</ele>
        <time>2021-09-12T12:29:18.712Z</time>
      </trkpt>
      <trkpt lat="45.5822" lon="5.90292">
        <ele>269</ele>
        <time>2021-09-12T12:29:19.712Z</time>
      </trkpt>
      <trkpt lat="45.58212" lon="5.90293">
        <ele>269</ele>
        <time>2021-09-12T12:29:20.712Z</time>
      </trkpt>
      <trkpt lat="45.58206" lon="5.90295">
        <ele>270</ele>
        <time>2021-09-12T12:29:21.712Z</time>
      </trkpt>
      <trkpt lat="45.58201" lon="5.90295">
        <ele>270</ele>
        <time>2021-09-12T12:29:22.712Z</time>
      </trkpt>
      <trkpt lat="45.58196" lon="5.90296">
        <ele>270</ele>
        <time>2021-09-12T12:29:23.712Z</time>
      </trkpt>
      <trkpt lat="45.58191" lon="5.90296">
        <ele>269</ele>
        <time>2021-09-12T12:29:24.713Z</time>
      </trkpt>
      <trkpt lat="45.58184" lon="5.90298">
        <ele>268</ele>
        <time>2021-09-12T12:29:25.713Z</time>
      </trkpt>
      <trkpt lat="45.58179" lon="5.90299">
        <ele>268</ele>
        <time>2021-09-12T12:29:26.713Z</time>
      </trkpt>
      <trkpt lat="45.58174" lon="5.903">
        <ele>268</ele>
        <time>2021-09-12T12:29:27.713Z</time>
      </trkpt>
      <trkpt lat="45.5817" lon="5.903">
        <ele>268</ele>
        <time>2021-09-12T12:29:28.713Z</time>
      </trkpt>
      <trkpt lat="45.58164" lon="5.90301">
        <ele>268</ele>
        <time>2021-09-12T12:29:29.713Z</time>
      </trkpt>
      <trkpt lat="45.58159" lon="5.90302">
        <ele>268</ele>
        <time>2021-09-12T12:29:30.713Z</time>
      </trkpt>
      <trkpt lat="45.58154" lon="5.90304">
        <ele>268</ele>
        <time>2021-09-12T12:29:31.712Z</time>
      </trkpt>
      <trkpt lat="45.58148" lon="5.90305">
        <ele>267</ele>
        <time>2021-09-12T12:29:32.713Z</time>
      </trkpt>
      <trkpt lat="45.58144" lon="5.90306">
        <ele>267</ele>
        <time>2021-09-12T12:29:33.712Z</time>
      </trkpt>
      <trkpt lat="45.58139" lon="5.90307">
        <ele>267</ele>
        <time>2021-09-12T12:29:34.713Z</time>
      </trkpt>
      <trkpt lat="45.58134" lon="5.90307">
        <ele>266</ele>
        <time>2021-09-12T12:29:35.712Z</time>
      </trkpt>
      <trkpt lat="45.58128" lon="5.90309">
        <ele>266</ele>
        <time>2021-09-12T12:29:36.713Z</time>
      </trkpt>
      <trkpt lat="45.58123" lon="5.90309">
        <ele>265</ele>
        <time>2021-09-12T12:29:37.712Z</time>
      </trkpt>
      <trkpt lat="45.5812" lon="5.9031">
        <ele>264</ele>
        <time>2021-09-12T12:29:38.713Z</time>
      </trkpt>
      <trkpt lat="45.58114" lon="5.90311">
        <ele>264</ele>
        <time>2021-09-12T12:29:39.713Z</time>
      </trkpt>
      <trkpt lat="45.58109" lon="5.90312">
        <ele>264</ele>
        <time>2021-09-12T12:29:40.713Z</time>
      </trkpt>
      <trkpt lat="45.58104" lon="5.90314">
        <ele>264</ele>
        <time>2021-09-12T12:29:41.713Z</time>
      </trkpt>
      <trkpt lat="45.581" lon="5.90315">
        <ele>264</ele>
        <time>2021-09-12T12:29:42.713Z</time>
      </trkpt>
      <trkpt lat="45.58095" lon="5.90317">
        <ele>264</ele>
        <time>2021-09-12T12:29:43.712Z</time>
      </trkpt>
      <trkpt lat="45.58088" lon="5.90319">
        <ele>265</ele>
        <time>2021-09-12T12:29:44.713Z</time>
      </trkpt>
      <trkpt lat="45.58084" lon="5.90321">
        <ele>265</ele>
        <time>2021-09-12T12:29:45.712Z</time>
      </trkpt>
      <trkpt lat="45.58079" lon="5.90323">
        <ele>265</ele>
        <time>2021-09-12T12:29:46.713Z</time>
      </trkpt>
      <trkpt lat="45.58075" lon="5.90325">
        <ele>265</ele>
        <time>2021-09-12T12:29:47.712Z</time>
      </trkpt>
      <trkpt lat="45.5807" lon="5.90326">
        <ele>265</ele>
        <time>2021-09-12T12:29:48.712Z</time>
      </trkpt>
      <trkpt lat="45.58066" lon="5.90329">
        <ele>265</ele>
        <time>2021-09-12T12:29:49.712Z</time>
      </trkpt>
      <trkpt lat="45.58061" lon="5.90332">
        <ele>265</ele>
        <time>2021-09-12T12:29:50.713Z</time>
      </trkpt>
      <trkpt lat="45.58057" lon="5.90335">
        <ele>265</ele>
        <time>2021-09-12T12:29:51.713Z</time>
      </trkpt>
      <trkpt lat="45.58053" lon="5.90336">
        <ele>265</ele>
        <time>2021-09-12T12:29:52.713Z</time>
      </trkpt>
      <trkpt lat="45.58047" lon="5.90339">
        <ele>265</ele>
        <time>2021-09-12T12:29:53.713Z</time>
      </trkpt>
      <trkpt lat="45.58043" lon="5.90341">
        <ele>265</ele>
        <time>2021-09-12T12:29:54.713Z</time>
      </trkpt>
      <trkpt lat="45.58038" lon="5.90343">
        <ele>264</ele>
        <time>2021-09-12T12:29:55.713Z</time>
      </trkpt>
      <trkpt lat="45.58033" lon="5.90344">
        <ele>264</ele>
        <time>2021-09-12T12:29:56.712Z</time>
      </trkpt>
      <trkpt lat="45.58029" lon="5.90346">
        <ele>263</ele>
        <time>2021-09-12T12:29:57.712Z</time>
      </trkpt>
      <trkpt lat="45.58024" lon="5.90349">
        <ele>262</ele>
        <time>2021-09-12T12:29:58.712Z</time>
      </trkpt>
      <trkpt lat="45.58019" lon="5.90351">
        <ele>262</ele>
        <time>2021-09-12T12:29:59.713Z</time>
      </trkpt>
      <trkpt lat="45.58015" lon="5.90354">
        <ele>262</ele>
        <time>2021-09-12T12:30:00.713Z</time>
      </trkpt>
      <trkpt lat="45.58012" lon="5.90356">
        <ele>262</ele>
        <time>2021-09-12T12:30:01.713Z</time>
      </trkpt>
      <trkpt lat="45.58007" lon="5.90358">
        <ele>261</ele>
        <time>2021-09-12T12:30:02.712Z</time>
      </trkpt>
      <trkpt lat="45.58002" lon="5.90361">
        <ele>261</ele>
        <time>2021-09-12T12:30:03.713Z</time>
      </trkpt>
      <trkpt lat="45.57997" lon="5.90363">
        <ele>261</ele>
        <time>2021-09-12T12:30:04.713Z</time>
      </trkpt>
      <trkpt lat="45.57994" lon="5.90365">
        <ele>261</ele>
        <time>2021-09-12T12:30:05.712Z</time>
      </trkpt>
      <trkpt lat="45.57989" lon="5.90368">
        <ele>261</ele>
        <time>2021-09-12T12:30:06.713Z</time>
      </trkpt>
      <trkpt lat="45.57985" lon="5.90371">
        <ele>261</ele>
        <time>2021-09-12T12:30:07.713Z</time>
      </trkpt>
      <trkpt lat="45.5798" lon="5.90374">
        <ele>261</ele>
        <time>2021-09-12T12:30:08.713Z</time>
      </trkpt>
      <trkpt lat="45.57976" lon="5.90377">
        <ele>262</ele>
        <time>2021-09-12T12:30:09.712Z</time>
      </trkpt>
      <trkpt lat="45.57972" lon="5.9038">
        <ele>262</ele>
        <time>2021-09-12T12:30:10.713Z</time>
      </trkpt>
      <trkpt lat="45.57968" lon="5.90382">
        <ele>262</ele>
        <time>2021-09-12T12:30:11.712Z</time>
      </trkpt>
      <trkpt lat="45.57963" lon="5.90385">
        <ele>262</ele>
        <time>2021-09-12T12:30:12.712Z</time>
      </trkpt>
      <trkpt lat="45.57959" lon="5.90387">
        <ele>262</ele>
        <time>2021-09-12T12:30:13.713Z</time>
      </trkpt>
      <trkpt lat="45.57955" lon="5.9039">
        <ele>262</ele>
        <time>2021-09-12T12:30:14.713Z</time>
      </trkpt>
      <trkpt lat="45.57952" lon="5.90392">
        <ele>262</ele>
        <time>2021-09-12T12:30:15.713Z</time>
      </trkpt>
      <trkpt lat="45.57948" lon="5.90394">
        <ele>263</ele>
        <time>2021-09-12T12:30:16.712Z</time>
      </trkpt>
      <trkpt lat="45.57943" lon="5.90396">
        <ele>263</ele>
        <time>2021-09-12T12:30:17.712Z</time>
      </trkpt>
      <trkpt lat="45.57939" lon="5.90398">
        <ele>264</ele>
        <time>2021-09-12T12:30:18.713Z</time>
      </trkpt>
      <trkpt lat="45.57935" lon="5.904">
        <ele>265</ele>
        <time>2021-09-12T12:30:19.712Z</time>
      </trkpt>
      <trkpt lat="45.57932" lon="5.90402">
        <ele>265</ele>
        <time>2021-09-12T12:30:20.713Z</time>
      </trkpt>
      <trkpt lat="45.57927" lon="5.90405">
        <ele>265</ele>
        <time>2021-09-12T12:30:21.712Z</time>
      </trkpt>
      <trkpt lat="45.57923" lon="5.90407">
        <ele>265</ele>
        <time>2021-09-12T12:30:22.713Z</time>
      </trkpt>
      <trkpt lat="45.57919" lon="5.90409">
        <ele>265</ele>
        <time>2021-09-12T12:30:23.713Z</time>
      </trkpt>
      <trkpt lat="45.57915" lon="5.90411">
        <ele>265</ele>
        <time>2021-09-12T12:30:24.713Z</time>
      </trkpt>
      <trkpt lat="45.5791" lon="5.90413">
        <ele>265</ele>
        <time>2021-09-12T12:30:25.713Z</time>
      </trkpt>
      <trkpt lat="45.57904" lon="5.90416">
        <ele>265</ele>
        <time>2021-09-12T12:30:26.713Z</time>
      </trkpt>
      <trkpt lat="45.579" lon="5.90419">
        <ele>265</ele>
        <time>2021-09-12T12:30:27.713Z</time>
      </trkpt>
      <trkpt lat="45.57895" lon="5.90421">
        <ele>264</ele>
        <time>2021-09-12T12:30:28.712Z</time>
      </trkpt>
      <trkpt lat="45.57891" lon="5.90423">
        <ele>264</ele>
        <time>2021-09-12T12:30:29.712Z</time>
      </trkpt>
      <trkpt lat="45.57886" lon="5.90425">
        <ele>264</ele>
        <time>2021-09-12T12:30:30.712Z</time>
      </trkpt>
      <trkpt lat="45.57881" lon="5.90427">
        <ele>264</ele>
        <time>2021-09-12T12:30:31.713Z</time>
      </trkpt>
      <trkpt lat="45.57875" lon="5.9043">
        <ele>265</ele>
        <time>2021-09-12T12:30:32.712Z</time>
      </trkpt>
      <trkpt lat="45.57871" lon="5.90431">
        <ele>264</ele>
        <time>2021-09-12T12:30:33.712Z</time>
      </trkpt>
      <trkpt lat="45.57867" lon="5.90433">
        <ele>264</ele>
        <time>2021-09-12T12:30:34.713Z</time>
      </trkpt>
      <trkpt lat="45.57862" lon="5.90433">
        <ele>264</ele>
        <time>2021-09-12T12:30:35.713Z</time>
      </trkpt>
      <trkpt lat="45.57856" lon="5.90433">
        <ele>264</ele>
        <time>2021-09-12T12:30:36.712Z</time>
      </trkpt>
      <trkpt lat="45.57851" lon="5.90432">
        <ele>265</ele>
        <time>2021-09-12T12:30:37.713Z</time>
      </trkpt>
      <trkpt lat="45.57847" lon="5.90431">
        <ele>265</ele>
        <time>2021-09-12T12:30:38.713Z</time>
      </trkpt>
      <trkpt lat="45.57842" lon="5.90429">
        <ele>265</ele>
        <time>2021-09-12T12:30:39.713Z</time>
      </trkpt>
      <trkpt lat="45.57837" lon="5.90427">
        <ele>265</ele>
        <time>2021-09-12T12:30:40.712Z</time>
      </trkpt>
      <trkpt lat="45.57832" lon="5.90424">
        <ele>265</ele>
        <time>2021-09-12T12:30:41.713Z</time>
      </trkpt>
      <trkpt lat="45.57828" lon="5.90422">
        <ele>265</ele>
        <time>2021-09-12T12:30:42.713Z</time>
      </trkpt>
      <trkpt lat="45.57824" lon="5.9042">
        <ele>265</ele>
        <time>2021-09-12T12:30:43.713Z</time>
      </trkpt>
      <trkpt lat="45.57819" lon="5.90417">
        <ele>266</ele>
        <time>2021-09-12T12:30:44.713Z</time>
      </trkpt>
      <trkpt lat="45.57814" lon="5.90414">
        <ele>266</ele>
        <time>2021-09-12T12:30:45.713Z</time>
      </trkpt>
      <trkpt lat="45.5781" lon="5.90411">
        <ele>266</ele>
        <time>2021-09-12T12:30:46.713Z</time>
      </trkpt>
      <trkpt lat="45.57806" lon="5.90409">
        <ele>266</ele>
        <time>2021-09-12T12:30:47.713Z</time>
      </trkpt>
      <trkpt lat="45.57802" lon="5.90406">
        <ele>266</ele>
        <time>2021-09-12T12:30:48.713Z</time>
      </trkpt>
      <trkpt lat="45.57798" lon="5.90403">
        <ele>267</ele>
        <time>2021-09-12T12:30:49.713Z</time>
      </trkpt>
      <trkpt lat="45.57793" lon="5.904">
        <ele>266</ele>
        <time>2021-09-12T12:30:50.713Z</time>
      </trkpt>
      <trkpt lat="45.57788" lon="5.90397">
        <ele>266</ele>
        <time>2021-09-12T12:30:51.713Z</time>
      </trkpt>
      <trkpt lat="45.57783" lon="5.90395">
        <ele>266</ele>
        <time>2021-09-12T12:30:52.713Z</time>
      </trkpt>
      <trkpt lat="45.5778" lon="5.90393">
        <ele>266</ele>
        <time>2021-09-12T12:30:53.713Z</time>
      </trkpt>
      <trkpt lat="45.57775" lon="5.90391">
        <ele>266</ele>
        <time>2021-09-12T12:30:54.713Z</time>
      </trkpt>
      <trkpt lat="45.5777" lon="5.90389">
        <ele>266</ele>
        <time>2021-09-12T12:30:55.713Z</time>
      </trkpt>
      <trkpt lat="45.57766" lon="5.90387">
        <ele>267</ele>
        <time>2021-09-12T12:30:56.712Z</time>
      </trkpt>
      <trkpt lat="45.57762" lon="5.90385">
        <ele>267</ele>
        <time>2021-09-12T12:30:57.712Z</time>
      </trkpt>
      <trkpt lat="45.57758" lon="5.90383">
        <ele>267</ele>
        <time>2021-09-12T12:30:58.713Z</time>
      </trkpt>
      <trkpt lat="45.57753" lon="5.90381">
        <ele>268</ele>
        <time>2021-09-12T12:30:59.713Z</time>
      </trkpt>
      <trkpt lat="45.57748" lon="5.90378">
        <ele>268</ele>
        <time>2021-09-12T12:31:00.713Z</time>
      </trkpt>
      <trkpt lat="45.57744" lon="5.90376">
        <ele>268</ele>
        <time>2021-09-12T12:31:01.712Z</time>
      </trkpt>
      <trkpt lat="45.57741" lon="5.90374">
        <ele>268</ele>
        <time>2021-09-12T12:31:02.713Z</time>
      </trkpt>
      <trkpt lat="45.57736" lon="5.90371">
        <ele>269</ele>
        <time>2021-09-12T12:31:03.713Z</time>
      </trkpt>
      <trkpt lat="45.5773" lon="5.90368">
        <ele>269</ele>
        <time>2021-09-12T12:31:04.713Z</time>
      </trkpt>
      <trkpt lat="45.57726" lon="5.90366">
        <ele>269</ele>
        <time>2021-09-12T12:31:05.713Z</time>
      </trkpt>
      <trkpt lat="45.57721" lon="5.90363">
        <ele>268</ele>
        <time>2021-09-12T12:31:06.712Z</time>
      </trkpt>
      <trkpt lat="45.57718" lon="5.90361">
        <ele>268</ele>
        <time>2021-09-12T12:31:07.712Z</time>
      </trkpt>
      <trkpt lat="45.57713" lon="5.90358">
        <ele>268</ele>
        <time>2021-09-12T12:31:08.713Z</time>
      </trkpt>
      <trkpt lat="45.57709" lon="5.90357">
        <ele>268</ele>
        <time>2021-09-12T12:31:09.712Z</time>
      </trkpt>
      <trkpt lat="45.57704" lon="5.90354">
        <ele>268</ele>
        <time>2021-09-12T12:31:10.713Z</time>
      </trkpt>
      <trkpt lat="45.57701" lon="5.90352">
        <ele>269</ele>
        <time>2021-09-12T12:31:11.713Z</time>
      </trkpt>
      <trkpt lat="45.57696" lon="5.90349">
        <ele>269</ele>
        <time>2021-09-12T12:31:12.712Z</time>
      </trkpt>
      <trkpt lat="45.57692" lon="5.90347">
        <ele>270</ele>
        <time>2021-09-12T12:31:13.713Z</time>
      </trkpt>
      <trkpt lat="45.57687" lon="5.90344">
        <ele>271</ele>
        <time>2021-09-12T12:31:14.713Z</time>
      </trkpt>
      <trkpt lat="45.57682" lon="5.90342">
        <ele>271</ele>
        <time>2021-09-12T12:31:15.713Z</time>
      </trkpt>
      <trkpt lat="45.57679" lon="5.9034">
        <ele>272</ele>
        <time>2021-09-12T12:31:16.713Z</time>
      </trkpt>
      <trkpt lat="45.57674" lon="5.90338">
        <ele>272</ele>
        <time>2021-09-12T12:31:17.713Z</time>
      </trkpt>
      <trkpt lat="45.57668" lon="5.90336">
        <ele>273</ele>
        <time>2021-09-12T12:31:18.713Z</time>
      </trkpt>
      <trkpt lat="45.57665" lon="5.90336">
        <ele>273</ele>
        <time>2021-09-12T12:31:19.713Z</time>
      </trkpt>
      <trkpt lat="45.5766" lon="5.90337">
        <ele>274</ele>
        <time>2021-09-12T12:31:20.713Z</time>
      </trkpt>
      <trkpt lat="45.57655" lon="5.90339">
        <ele>274</ele>
        <time>2021-09-12T12:31:21.713Z</time>
      </trkpt>
      <trkpt lat="45.57651" lon="5.90344">
        <ele>274</ele>
        <time>2021-09-12T12:31:22.713Z</time>
      </trkpt>
      <trkpt lat="45.57648" lon="5.90349">
        <ele>274</ele>
        <time>2021-09-12T12:31:23.713Z</time>
      </trkpt>
      <trkpt lat="45.57646" lon="5.90355">
        <ele>274</ele>
        <time>2021-09-12T12:31:24.713Z</time>
      </trkpt>
      <trkpt lat="45.57645" lon="5.9036">
        <ele>274</ele>
        <time>2021-09-12T12:31:25.712Z</time>
      </trkpt>
      <trkpt lat="45.57643" lon="5.90366">
        <ele>273</ele>
        <time>2021-09-12T12:31:26.713Z</time>
      </trkpt>
      <trkpt lat="45.57642" lon="5.90374">
        <ele>273</ele>
        <time>2021-09-12T12:31:27.713Z</time>
      </trkpt>
      <trkpt lat="45.57641" lon="5.90381">
        <ele>272</ele>
        <time>2021-09-12T12:31:28.713Z</time>
      </trkpt>
      <trkpt lat="45.5764" lon="5.90387">
        <ele>272</ele>
        <time>2021-09-12T12:31:29.713Z</time>
      </trkpt>
      <trkpt lat="45.57639" lon="5.90394">
        <ele>272</ele>
        <time>2021-09-12T12:31:30.713Z</time>
      </trkpt>
      <trkpt lat="45.57638" lon="5.904">
        <ele>271</ele>
        <time>2021-09-12T12:31:31.713Z</time>
      </trkpt>
      <trkpt lat="45.57637" lon="5.90408">
        <ele>271</ele>
        <time>2021-09-12T12:31:32.712Z</time>
      </trkpt>
      <trkpt lat="45.57636" lon="5.90415">
        <ele>271</ele>
        <time>2021-09-12T12:31:33.713Z</time>
      </trkpt>
      <trkpt lat="45.57635" lon="5.90421">
        <ele>271</ele>
        <time>2021-09-12T12:31:34.713Z</time>
      </trkpt>
      <trkpt lat="45.57634" lon="5.90428">
        <ele>271</ele>
        <time>2021-09-12T12:31:35.712Z</time>
      </trkpt>
      <trkpt lat="45.57633" lon="5.90436">
        <ele>271</ele>
        <time>2021-09-12T12:31:36.713Z</time>
      </trkpt>
      <trkpt lat="45.57632" lon="5.90443">
        <ele>270</ele>
        <time>2021-09-12T12:31:37.713Z</time>
      </trkpt>
      <trkpt lat="45.57631" lon="5.9045">
        <ele>270</ele>
        <time>2021-09-12T12:31:38.713Z</time>
      </trkpt>
      <trkpt lat="45.5763" lon="5.90455">
        <ele>270</ele>
        <time>2021-09-12T12:31:39.713Z</time>
      </trkpt>
      <trkpt lat="45.57629" lon="5.90462">
        <ele>270</ele>
        <time>2021-09-12T12:31:40.712Z</time>
      </trkpt>
      <trkpt lat="45.57627" lon="5.9047">
        <ele>270</ele>
        <time>2021-09-12T12:31:41.713Z</time>
      </trkpt>
      <trkpt lat="45.57626" lon="5.90477">
        <ele>270</ele>
        <time>2021-09-12T12:31:42.713Z</time>
      </trkpt>
      <trkpt lat="45.57625" lon="5.90484">
        <ele>270</ele>
        <time>2021-09-12T12:31:43.713Z</time>
      </trkpt>
      <trkpt lat="45.57624" lon="5.9049">
        <ele>270</ele>
        <time>2021-09-12T12:31:44.712Z</time>
      </trkpt>
      <trkpt lat="45.57623" lon="5.90497">
        <ele>269</ele>
        <time>2021-09-12T12:31:45.713Z</time>
      </trkpt>
      <trkpt lat="45.57621" lon="5.90504">
        <ele>270</ele>
        <time>2021-09-12T12:31:46.713Z</time>
      </trkpt>
      <trkpt lat="45.5762" lon="5.90512">
        <ele>270</ele>
        <time>2021-09-12T12:31:47.712Z</time>
      </trkpt>
      <trkpt lat="45.57619" lon="5.90518">
        <ele>269</ele>
        <time>2021-09-12T12:31:48.712Z</time>
      </trkpt>
      <trkpt lat="45.57618" lon="5.90525">
        <ele>269</ele>
        <time>2021-09-12T12:31:49.712Z</time>
      </trkpt>
      <trkpt lat="45.57617" lon="5.90533">
        <ele>269</ele>
        <time>2021-09-12T12:31:50.713Z</time>
      </trkpt>
      <trkpt lat="45.57616" lon="5.90539">
        <ele>269</ele>
        <time>2021-09-12T12:31:51.713Z</time>
      </trkpt>
      <trkpt lat="45.57615" lon="5.90545">
        <ele>269</ele>
        <time>2021-09-12T12:31:52.712Z</time>
      </trkpt>
      <trkpt lat="45.57614" lon="5.90552">
        <ele>269</ele>
        <time>2021-09-12T12:31:53.713Z</time>
      </trkpt>
      <trkpt lat="45.57612" lon="5.90559">
        <ele>270</ele>
        <time>2021-09-12T12:31:54.713Z</time>
      </trkpt>
      <trkpt lat="45.57611" lon="5.90566">
        <ele>270</ele>
        <time>2021-09-12T12:31:55.713Z</time>
      </trkpt>
      <trkpt lat="45.5761" lon="5.90573">
        <ele>270</ele>
        <time>2021-09-12T12:31:56.713Z</time>
      </trkpt>
      <trkpt lat="45.57609" lon="5.9058">
        <ele>271</ele>
        <time>2021-09-12T12:31:57.712Z</time>
      </trkpt>
      <trkpt lat="45.57608" lon="5.90586">
        <ele>271</ele>
        <time>2021-09-12T12:31:58.713Z</time>
      </trkpt>
      <trkpt lat="45.57607" lon="5.90593">
        <ele>271</ele>
        <time>2021-09-12T12:31:59.712Z</time>
      </trkpt>
      <trkpt lat="45.57606" lon="5.90599">
        <ele>271</ele>
        <time>2021-09-12T12:32:00.713Z</time>
      </trkpt>
      <trkpt lat="45.57605" lon="5.90606">
        <ele>271</ele>
        <time>2021-09-12T12:32:01.713Z</time>
      </trkpt>
      <trkpt lat="45.57604" lon="5.90612">
        <ele>271</ele>
        <time>2021-09-12T12:32:02.713Z</time>
      </trkpt>
      <trkpt lat="45.57603" lon="5.90617">
        <ele>272</ele>
        <time>2021-09-12T12:32:03.712Z</time>
      </trkpt>
      <trkpt lat="45.57602" lon="5.90624">
        <ele>272</ele>
        <time>2021-09-12T12:32:04.713Z</time>
      </trkpt>
      <trkpt lat="45.57601" lon="5.90629">
        <ele>272</ele>
        <time>2021-09-12T12:32:05.713Z</time>
      </trkpt>
      <trkpt lat="45.576" lon="5.90636">
        <ele>272</ele>
        <time>2021-09-12T12:32:06.712Z</time>
      </trkpt>
      <trkpt lat="45.57599" lon="5.90642">
        <ele>272</ele>
        <time>2021-09-12T12:32:07.713Z</time>
      </trkpt>
      <trkpt lat="45.57598" lon="5.90647">
        <ele>271</ele>
        <time>2021-09-12T12:32:08.712Z</time>
      </trkpt>
      <trkpt lat="45.57597" lon="5.90651">
        <ele>271</ele>
        <time>2021-09-12T12:32:09.712Z</time>
      </trkpt>
      <trkpt lat="45.57596" lon="5.90656">
        <ele>272</ele>
        <time>2021-09-12T12:32:10.713Z</time>
      </trkpt>
      <trkpt lat="45.57595" lon="5.90661">
        <ele>272</ele>
        <time>2021-09-12T12:32:11.713Z</time>
      </trkpt>
      <trkpt lat="45.57594" lon="5.90667">
        <ele>271</ele>
        <time>2021-09-12T12:32:12.712Z</time>
      </trkpt>
      <trkpt lat="45.57593" lon="5.90672">
        <ele>271</ele>
        <time>2021-09-12T12:32:13.712Z</time>
      </trkpt>
      <trkpt lat="45.57593" lon="5.90676">
        <ele>271</ele>
        <time>2021-09-12T12:32:14.713Z</time>
      </trkpt>
      <trkpt lat="45.57592" lon="5.9068">
        <ele>271</ele>
        <time>2021-09-12T12:32:15.713Z</time>
      </trkpt>
      <trkpt lat="45.57592" lon="5.90684">
        <ele>271</ele>
        <time>2021-09-12T12:32:16.713Z</time>
      </trkpt>
      <trkpt lat="45.57592" lon="5.90685">
        <ele>271</ele>
        <time>2021-09-12T12:32:17.712Z</time>
      </trkpt>
      <trkpt lat="45.57591" lon="5.90686">
        <ele>271</ele>
        <time>2021-09-12T12:32:18.712Z</time>
      </trkpt>
      <trkpt lat="45.5759" lon="5.90687">
        <ele>271</ele>
        <time>2021-09-12T12:32:19.713Z</time>
      </trkpt>
      <trkpt lat="45.5759" lon="5.90686">
        <ele>270</ele>
        <time>2021-09-12T12:32:20.713Z</time>
      </trkpt>
      <trkpt lat="45.57592" lon="5.90688">
        <ele>274</ele>
        <time>2021-09-12T12:32:21.713Z</time>
      </trkpt>
      <trkpt lat="45.57591" lon="5.9069">
        <ele>274</ele>
        <time>2021-09-12T12:32:22.713Z</time>
      </trkpt>
      <trkpt lat="45.5759" lon="5.90693">
        <ele>274</ele>
        <time>2021-09-12T12:32:23.712Z</time>
      </trkpt>
      <trkpt lat="45.57588" lon="5.90697">
        <ele>274</ele>
        <time>2021-09-12T12:32:24.713Z</time>
      </trkpt>
      <trkpt lat="45.57587" lon="5.90701">
        <ele>274</ele>
        <time>2021-09-12T12:32:25.712Z</time>
      </trkpt>
      <trkpt lat="45.57585" lon="5.90706">
        <ele>274</ele>
        <time>2021-09-12T12:32:26.712Z</time>
      </trkpt>
      <trkpt lat="45.57583" lon="5.90713">
        <ele>274</ele>
        <time>2021-09-12T12:32:27.713Z</time>
      </trkpt>
      <trkpt lat="45.57581" lon="5.90719">
        <ele>274</ele>
        <time>2021-09-12T12:32:28.713Z</time>
      </trkpt>
      <trkpt lat="45.5758" lon="5.90724">
        <ele>274</ele>
        <time>2021-09-12T12:32:29.712Z</time>
      </trkpt>
      <trkpt lat="45.57578" lon="5.90731">
        <ele>274</ele>
        <time>2021-09-12T12:32:30.713Z</time>
      </trkpt>
      <trkpt lat="45.57576" lon="5.90738">
        <ele>273</ele>
        <time>2021-09-12T12:32:31.713Z</time>
      </trkpt>
      <trkpt lat="45.57575" lon="5.90745">
        <ele>273</ele>
        <time>2021-09-12T12:32:32.713Z</time>
      </trkpt>
      <trkpt lat="45.57573" lon="5.90754">
        <ele>273</ele>
        <time>2021-09-12T12:32:33.712Z</time>
      </trkpt>
      <trkpt lat="45.57571" lon="5.90762">
        <ele>272</ele>
        <time>2021-09-12T12:32:34.713Z</time>
      </trkpt>
      <trkpt lat="45.5757" lon="5.90768">
        <ele>272</ele>
        <time>2021-09-12T12:32:35.713Z</time>
      </trkpt>
      <trkpt lat="45.57569" lon="5.90776">
        <ele>272</ele>
        <time>2021-09-12T12:32:36.712Z</time>
      </trkpt>
      <trkpt lat="45.57567" lon="5.90786">
        <ele>271</ele>
        <time>2021-09-12T12:32:37.713Z</time>
      </trkpt>
      <trkpt lat="45.57566" lon="5.90794">
        <ele>271</ele>
        <time>2021-09-12T12:32:38.712Z</time>
      </trkpt>
      <trkpt lat="45.57565" lon="5.908">
        <ele>271</ele>
        <time>2021-09-12T12:32:39.713Z</time>
      </trkpt>
      <trkpt lat="45.57563" lon="5.9081">
        <ele>271</ele>
        <time>2021-09-12T12:32:40.712Z</time>
      </trkpt>
      <trkpt lat="45.57561" lon="5.90816">
        <ele>271</ele>
        <time>2021-09-12T12:32:41.713Z</time>
      </trkpt>
      <trkpt lat="45.5756" lon="5.90824">
        <ele>271</ele>
        <time>2021-09-12T12:32:42.713Z</time>
      </trkpt>
      <trkpt lat="45.57559" lon="5.90833">
        <ele>271</ele>
        <time>2021-09-12T12:32:43.713Z</time>
      </trkpt>
      <trkpt lat="45.57557" lon="5.9084">
        <ele>270</ele>
        <time>2021-09-12T12:32:44.713Z</time>
      </trkpt>
      <trkpt lat="45.57556" lon="5.90848">
        <ele>270</ele>
        <time>2021-09-12T12:32:45.713Z</time>
      </trkpt>
      <trkpt lat="45.57554" lon="5.90856">
        <ele>270</ele>
        <time>2021-09-12T12:32:46.713Z</time>
      </trkpt>
      <trkpt lat="45.57552" lon="5.90865">
        <ele>270</ele>
        <time>2021-09-12T12:32:47.713Z</time>
      </trkpt>
      <trkpt lat="45.57551" lon="5.90873">
        <ele>270</ele>
        <time>2021-09-12T12:32:48.713Z</time>
      </trkpt>
      <trkpt lat="45.5755" lon="5.9088">
        <ele>270</ele>
        <time>2021-09-12T12:32:49.713Z</time>
      </trkpt>
      <trkpt lat="45.57548" lon="5.9089">
        <ele>270</ele>
        <time>2021-09-12T12:32:50.713Z</time>
      </trkpt>
      <trkpt lat="45.57547" lon="5.90896">
        <ele>271</ele>
        <time>2021-09-12T12:32:51.713Z</time>
      </trkpt>
      <trkpt lat="45.57545" lon="5.90906">
        <ele>271</ele>
        <time>2021-09-12T12:32:52.713Z</time>
      </trkpt>
      <trkpt lat="45.57543" lon="5.90912">
        <ele>272</ele>
        <time>2021-09-12T12:32:53.712Z</time>
      </trkpt>
      <trkpt lat="45.57542" lon="5.9092">
        <ele>272</ele>
        <time>2021-09-12T12:32:54.713Z</time>
      </trkpt>
      <trkpt lat="45.5754" lon="5.9093">
        <ele>272</ele>
        <time>2021-09-12T12:32:55.713Z</time>
      </trkpt>
      <trkpt lat="45.57539" lon="5.90938">
        <ele>272</ele>
        <time>2021-09-12T12:32:56.712Z</time>
      </trkpt>
      <trkpt lat="45.57537" lon="5.90946">
        <ele>271</ele>
        <time>2021-09-12T12:32:57.712Z</time>
      </trkpt>
      <trkpt lat="45.57536" lon="5.90954">
        <ele>271</ele>
        <time>2021-09-12T12:32:58.713Z</time>
      </trkpt>
      <trkpt lat="45.57534" lon="5.90962">
        <ele>270</ele>
        <time>2021-09-12T12:32:59.713Z</time>
      </trkpt>
      <trkpt lat="45.57533" lon="5.9097">
        <ele>271</ele>
        <time>2021-09-12T12:33:00.713Z</time>
      </trkpt>
      <trkpt lat="45.57532" lon="5.90979">
        <ele>271</ele>
        <time>2021-09-12T12:33:01.712Z</time>
      </trkpt>
      <trkpt lat="45.5753" lon="5.90984">
        <ele>271</ele>
        <time>2021-09-12T12:33:02.713Z</time>
      </trkpt>
      <trkpt lat="45.57528" lon="5.90992">
        <ele>271</ele>
        <time>2021-09-12T12:33:03.713Z</time>
      </trkpt>
      <trkpt lat="45.57527" lon="5.91">
        <ele>271</ele>
        <time>2021-09-12T12:33:04.712Z</time>
      </trkpt>
      <trkpt lat="45.57526" lon="5.91008">
        <ele>272</ele>
        <time>2021-09-12T12:33:05.713Z</time>
      </trkpt>
      <trkpt lat="45.57526" lon="5.91015">
        <ele>272</ele>
        <time>2021-09-12T12:33:06.712Z</time>
      </trkpt>
      <trkpt lat="45.57525" lon="5.91021">
        <ele>272</ele>
        <time>2021-09-12T12:33:07.713Z</time>
      </trkpt>
      <trkpt lat="45.57524" lon="5.91027">
        <ele>272</ele>
        <time>2021-09-12T12:33:08.713Z</time>
      </trkpt>
      <trkpt lat="45.57523" lon="5.91032">
        <ele>272</ele>
        <time>2021-09-12T12:33:09.713Z</time>
      </trkpt>
      <trkpt lat="45.57522" lon="5.91035">
        <ele>272</ele>
        <time>2021-09-12T12:33:26.854Z</time>
      </trkpt>
      <trkpt lat="45.57522" lon="5.91037">
        <ele>272</ele>
        <time>2021-09-12T12:33:27.854Z</time>
      </trkpt>
      <trkpt lat="45.57521" lon="5.9104">
        <ele>271</ele>
        <time>2021-09-12T12:33:28.854Z</time>
      </trkpt>
      <trkpt lat="45.57521" lon="5.91042">
        <ele>271</ele>
        <time>2021-09-12T12:33:29.854Z</time>
      </trkpt>
      <trkpt lat="45.57521" lon="5.91042">
        <ele>271</ele>
        <time>2021-09-12T12:33:30.854Z</time>
      </trkpt>
      <trkpt lat="45.5752" lon="5.91042">
        <ele>271</ele>
        <time>2021-09-12T12:33:31.854Z</time>
      </trkpt>
      <trkpt lat="45.5752" lon="5.91042">
        <ele>272</ele>
        <time>2021-09-12T12:33:32.853Z</time>
      </trkpt>
      <trkpt lat="45.5752" lon="5.91043">
        <ele>272</ele>
        <time>2021-09-12T12:33:33.854Z</time>
      </trkpt>
      <trkpt lat="45.5752" lon="5.91045">
        <ele>272</ele>
        <time>2021-09-12T12:33:34.853Z</time>
      </trkpt>
      <trkpt lat="45.57519" lon="5.91046">
        <ele>273</ele>
        <time>2021-09-12T12:33:35.854Z</time>
      </trkpt>
      <trkpt lat="45.57519" lon="5.91047">
        <ele>273</ele>
        <time>2021-09-12T12:33:36.854Z</time>
      </trkpt>
      <trkpt lat="45.57518" lon="5.91049">
        <ele>272</ele>
        <time>2021-09-12T12:33:37.854Z</time>
      </trkpt>
      <trkpt lat="45.57517" lon="5.91052">
        <ele>272</ele>
        <time>2021-09-12T12:33:38.854Z</time>
      </trkpt>
      <trkpt lat="45.57517" lon="5.91056">
        <ele>272</ele>
        <time>2021-09-12T12:33:39.853Z</time>
      </trkpt>
      <trkpt lat="45.57517" lon="5.9106">
        <ele>271</ele>
        <time>2021-09-12T12:33:40.854Z</time>
      </trkpt>
      <trkpt lat="45.57517" lon="5.91066">
        <ele>271</ele>
        <time>2021-09-12T12:33:41.854Z</time>
      </trkpt>
      <trkpt lat="45.57518" lon="5.91072">
        <ele>271</ele>
        <time>2021-09-12T12:33:42.853Z</time>
      </trkpt>
      <trkpt lat="45.57518" lon="5.91079">
        <ele>270</ele>
        <time>2021-09-12T12:33:43.854Z</time>
      </trkpt>
      <trkpt lat="45.57519" lon="5.91085">
        <ele>270</ele>
        <time>2021-09-12T12:33:44.854Z</time>
      </trkpt>
      <trkpt lat="45.57519" lon="5.91093">
        <ele>271</ele>
        <time>2021-09-12T12:33:45.854Z</time>
      </trkpt>
      <trkpt lat="45.57519" lon="5.911">
        <ele>270</ele>
        <time>2021-09-12T12:33:46.853Z</time>
      </trkpt>
      <trkpt lat="45.57518" lon="5.91105">
        <ele>270</ele>
        <time>2021-09-12T12:33:47.853Z</time>
      </trkpt>
      <trkpt lat="45.57517" lon="5.91112">
        <ele>270</ele>
        <time>2021-09-12T12:33:48.854Z</time>
      </trkpt>
      <trkpt lat="45.57516" lon="5.9112">
        <ele>269</ele>
        <time>2021-09-12T12:33:49.854Z</time>
      </trkpt>
      <trkpt lat="45.57515" lon="5.91127">
        <ele>269</ele>
        <time>2021-09-12T12:33:50.853Z</time>
      </trkpt>
      <trkpt lat="45.57513" lon="5.91134">
        <ele>269</ele>
        <time>2021-09-12T12:33:51.853Z</time>
      </trkpt>
      <trkpt lat="45.57512" lon="5.91141">
        <ele>269</ele>
        <time>2021-09-12T12:33:52.854Z</time>
      </trkpt>
      <trkpt lat="45.57511" lon="5.91149">
        <ele>269</ele>
        <time>2021-09-12T12:33:53.854Z</time>
      </trkpt>
      <trkpt lat="45.5751" lon="5.91157">
        <ele>269</ele>
        <time>2021-09-12T12:33:54.854Z</time>
      </trkpt>
      <trkpt lat="45.57508" lon="5.91163">
        <ele>269</ele>
        <time>2021-09-12T12:33:55.854Z</time>
      </trkpt>
      <trkpt lat="45.57507" lon="5.91172">
        <ele>269</ele>
        <time>2021-09-12T12:33:56.854Z</time>
      </trkpt>
      <trkpt lat="45.57506" lon="5.91179">
        <ele>269</ele>
        <time>2021-09-12T12:33:57.854Z</time>
      </trkpt>
      <trkpt lat="45.57505" lon="5.91186">
        <ele>269</ele>
        <time>2021-09-12T12:33:58.853Z</time>
      </trkpt>
      <trkpt lat="45.57504" lon="5.91193">
        <ele>269</ele>
        <time>2021-09-12T12:33:59.854Z</time>
      </trkpt>
      <trkpt lat="45.57503" lon="5.912">
        <ele>269</ele>
        <time>2021-09-12T12:34:00.854Z</time>
      </trkpt>
      <trkpt lat="45.57502" lon="5.91207">
        <ele>269</ele>
        <time>2021-09-12T12:34:01.854Z</time>
      </trkpt>
      <trkpt lat="45.57501" lon="5.91214">
        <ele>269</ele>
        <time>2021-09-12T12:34:02.854Z</time>
      </trkpt>
      <trkpt lat="45.575" lon="5.9122">
        <ele>269</ele>
        <time>2021-09-12T12:34:03.854Z</time>
      </trkpt>
      <trkpt lat="45.57499" lon="5.91225">
        <ele>269</ele>
        <time>2021-09-12T12:34:04.854Z</time>
      </trkpt>
      <trkpt lat="45.57498" lon="5.91232">
        <ele>268</ele>
        <time>2021-09-12T12:34:05.854Z</time>
      </trkpt>
      <trkpt lat="45.57497" lon="5.91238">
        <ele>269</ele>
        <time>2021-09-12T12:34:12.982Z</time>
      </trkpt>
      <trkpt lat="45.57495" lon="5.91243">
        <ele>269</ele>
        <time>2021-09-12T12:34:13.983Z</time>
      </trkpt>
      <trkpt lat="45.57494" lon="5.91249">
        <ele>269</ele>
        <time>2021-09-12T12:34:14.983Z</time>
      </trkpt>
      <trkpt lat="45.57493" lon="5.91254">
        <ele>270</ele>
        <time>2021-09-12T12:55:16.107Z</time>
      </trkpt>
      <trkpt lat="45.57492" lon="5.91258">
        <ele>270</ele>
        <time>2021-09-12T12:55:21.985Z</time>
      </trkpt>
      <trkpt lat="45.57489" lon="5.91261">
        <ele>270</ele>
        <time>2021-09-12T12:55:22.986Z</time>
      </trkpt>
      <trkpt lat="45.57487" lon="5.91265">
        <ele>270</ele>
        <time>2021-09-12T13:03:28.891Z</time>
      </trkpt>
      <trkpt lat="45.57485" lon="5.91267">
        <ele>271</ele>
        <time>2021-09-12T13:03:29.891Z</time>
      </trkpt>
      <trkpt lat="45.57482" lon="5.9127">
        <ele>271</ele>
        <time>2021-09-12T13:07:51.753Z</time>
      </trkpt>
      <trkpt lat="45.5748" lon="5.91272">
        <ele>271</ele>
        <time>2021-09-12T13:22:30.668Z</time>
      </trkpt>
      <trkpt lat="45.57478" lon="5.91275">
        <ele>271</ele>
        <time>2021-09-12T13:22:31.668Z</time>
      </trkpt>
      <trkpt lat="45.57475" lon="5.91277">
        <ele>271</ele>
        <time>2021-09-12T13:22:32.668Z</time>
      </trkpt>
      <trkpt lat="45.57471" lon="5.9128">
        <ele>272</ele>
        <time>2021-09-12T13:22:33.668Z</time>
      </trkpt>
      <trkpt lat="45.57467" lon="5.91284">
        <ele>272</ele>
        <time>2021-09-12T13:22:34.668Z</time>
      </trkpt>
      <trkpt lat="45.57463" lon="5.91287">
        <ele>272</ele>
        <time>2021-09-12T13:22:35.668Z</time>
      </trkpt>
      <trkpt lat="45.57459" lon="5.9129">
        <ele>273</ele>
        <time>2021-09-12T13:22:36.668Z</time>
      </trkpt>
      <trkpt lat="45.57455" lon="5.91293">
        <ele>273</ele>
        <time>2021-09-12T13:22:37.668Z</time>
      </trkpt>
      <trkpt lat="45.57452" lon="5.91297">
        <ele>273</ele>
        <time>2021-09-12T13:22:38.667Z</time>
      </trkpt>
      <trkpt lat="45.57448" lon="5.913">
        <ele>273</ele>
        <time>2021-09-12T13:22:39.668Z</time>
      </trkpt>
      <trkpt lat="45.57445" lon="5.91303">
        <ele>273</ele>
        <time>2021-09-12T13:22:40.668Z</time>
      </trkpt>
      <trkpt lat="45.57441" lon="5.91306">
        <ele>273</ele>
        <time>2021-09-12T13:22:41.668Z</time>
      </trkpt>
      <trkpt lat="45.57438" lon="5.91309">
        <ele>273</ele>
        <time>2021-09-12T13:22:42.668Z</time>
      </trkpt>
      <trkpt lat="45.57435" lon="5.91312">
        <ele>274</ele>
        <time>2021-09-12T13:22:43.668Z</time>
      </trkpt>
      <trkpt lat="45.57431" lon="5.91315">
        <ele>274</ele>
        <time>2021-09-12T13:22:44.668Z</time>
      </trkpt>
      <trkpt lat="45.57428" lon="5.91318">
        <ele>274</ele>
        <time>2021-09-12T13:22:45.667Z</time>
      </trkpt>
      <trkpt lat="45.57424" lon="5.9132">
        <ele>273</ele>
        <time>2021-09-12T13:22:46.668Z</time>
      </trkpt>
      <trkpt lat="45.5742" lon="5.91323">
        <ele>273</ele>
        <time>2021-09-12T13:22:47.668Z</time>
      </trkpt>
      <trkpt lat="45.57417" lon="5.91326">
        <ele>273</ele>
        <time>2021-09-12T13:22:48.667Z</time>
      </trkpt>
      <trkpt lat="45.57413" lon="5.91327">
        <ele>273</ele>
        <time>2021-09-12T13:22:49.667Z</time>
      </trkpt>
      <trkpt lat="45.5741" lon="5.9133">
        <ele>272</ele>
        <time>2021-09-12T13:22:50.667Z</time>
      </trkpt>
      <trkpt lat="45.57407" lon="5.91332">
        <ele>272</ele>
        <time>2021-09-12T13:22:51.668Z</time>
      </trkpt>
      <trkpt lat="45.57405" lon="5.91335">
        <ele>272</ele>
        <time>2021-09-12T13:22:52.668Z</time>
      </trkpt>
      <trkpt lat="45.57403" lon="5.91338">
        <ele>272</ele>
        <time>2021-09-12T13:22:53.667Z</time>
      </trkpt>
      <trkpt lat="45.57401" lon="5.91341">
        <ele>271</ele>
        <time>2021-09-12T13:22:54.668Z</time>
      </trkpt>
      <trkpt lat="45.57397" lon="5.91343">
        <ele>271</ele>
        <time>2021-09-12T13:22:55.668Z</time>
      </trkpt>
      <trkpt lat="45.57393" lon="5.91345">
        <ele>271</ele>
        <time>2021-09-12T13:22:56.668Z</time>
      </trkpt>
      <trkpt lat="45.57389" lon="5.91348">
        <ele>272</ele>
        <time>2021-09-12T13:22:57.667Z</time>
      </trkpt>
      <trkpt lat="45.57384" lon="5.91351">
        <ele>272</ele>
        <time>2021-09-12T13:22:58.667Z</time>
      </trkpt>
      <trkpt lat="45.57381" lon="5.91354">
        <ele>272</ele>
        <time>2021-09-12T13:22:59.667Z</time>
      </trkpt>
      <trkpt lat="45.57377" lon="5.91358">
        <ele>272</ele>
        <time>2021-09-12T13:23:00.668Z</time>
      </trkpt>
      <trkpt lat="45.57373" lon="5.9136">
        <ele>273</ele>
        <time>2021-09-12T13:23:01.668Z</time>
      </trkpt>
      <trkpt lat="45.57369" lon="5.91363">
        <ele>273</ele>
        <time>2021-09-12T13:23:32.777Z</time>
      </trkpt>
      <trkpt lat="45.57366" lon="5.91364">
        <ele>273</ele>
        <time>2021-09-12T13:23:33.778Z</time>
      </trkpt>
      <trkpt lat="45.57363" lon="5.91365">
        <ele>273</ele>
        <time>2021-09-12T13:23:34.778Z</time>
      </trkpt>
      <trkpt lat="45.57358" lon="5.91367">
        <ele>274</ele>
        <time>2021-09-12T13:23:35.778Z</time>
      </trkpt>
      <trkpt lat="45.57355" lon="5.91369">
        <ele>274</ele>
        <time>2021-09-12T13:23:36.778Z</time>
      </trkpt>
      <trkpt lat="45.57351" lon="5.91372">
        <ele>274</ele>
        <time>2021-09-12T13:23:37.778Z</time>
      </trkpt>
      <trkpt lat="45.57347" lon="5.91374">
        <ele>274</ele>
        <time>2021-09-12T13:23:38.778Z</time>
      </trkpt>
      <trkpt lat="45.57343" lon="5.91376">
        <ele>275</ele>
        <time>2021-09-12T13:23:39.778Z</time>
      </trkpt>
      <trkpt lat="45.5734" lon="5.91377">
        <ele>275</ele>
        <time>2021-09-12T13:23:40.778Z</time>
      </trkpt>
      <trkpt lat="45.57335" lon="5.9138">
        <ele>276</ele>
        <time>2021-09-12T13:23:41.778Z</time>
      </trkpt>
      <trkpt lat="45.57331" lon="5.91381">
        <ele>276</ele>
        <time>2021-09-12T13:23:42.777Z</time>
      </trkpt>
      <trkpt lat="45.57327" lon="5.91383">
        <ele>277</ele>
        <time>2021-09-12T13:23:43.778Z</time>
      </trkpt>
      <trkpt lat="45.57322" lon="5.91384">
        <ele>277</ele>
        <time>2021-09-12T13:23:44.778Z</time>
      </trkpt>
      <trkpt lat="45.57317" lon="5.91387">
        <ele>278</ele>
        <time>2021-09-12T13:23:45.778Z</time>
      </trkpt>
      <trkpt lat="45.57314" lon="5.91392">
        <ele>279</ele>
        <time>2021-09-12T13:23:46.778Z</time>
      </trkpt>
      <trkpt lat="45.5731" lon="5.91399">
        <ele>279</ele>
        <time>2021-09-12T13:23:47.778Z</time>
      </trkpt>
      <trkpt lat="45.57308" lon="5.91405">
        <ele>280</ele>
        <time>2021-09-12T13:23:48.778Z</time>
      </trkpt>
      <trkpt lat="45.57305" lon="5.9141">
        <ele>280</ele>
        <time>2021-09-12T13:23:49.777Z</time>
      </trkpt>
      <trkpt lat="45.57302" lon="5.91415">
        <ele>281</ele>
        <time>2021-09-12T13:23:50.778Z</time>
      </trkpt>
      <trkpt lat="45.57298" lon="5.91419">
        <ele>281</ele>
        <time>2021-09-12T13:23:51.778Z</time>
      </trkpt>
      <trkpt lat="45.57295" lon="5.91422">
        <ele>281</ele>
        <time>2021-09-12T13:23:52.778Z</time>
      </trkpt>
      <trkpt lat="45.57292" lon="5.91425">
        <ele>282</ele>
        <time>2021-09-12T13:23:53.777Z</time>
      </trkpt>
      <trkpt lat="45.57289" lon="5.91428">
        <ele>282</ele>
        <time>2021-09-12T13:23:54.778Z</time>
      </trkpt>
      <trkpt lat="45.57286" lon="5.9143">
        <ele>282</ele>
        <time>2021-09-12T13:23:55.778Z</time>
      </trkpt>
      <trkpt lat="45.57282" lon="5.91434">
        <ele>283</ele>
        <time>2021-09-12T13:23:56.777Z</time>
      </trkpt>
      <trkpt lat="45.57279" lon="5.91438">
        <ele>283</ele>
        <time>2021-09-12T13:23:57.778Z</time>
      </trkpt>
      <trkpt lat="45.57276" lon="5.91442">
        <ele>283</ele>
        <time>2021-09-12T13:23:58.778Z</time>
      </trkpt>
      <trkpt lat="45.57273" lon="5.91445">
        <ele>283</ele>
        <time>2021-09-12T13:23:59.777Z</time>
      </trkpt>
      <trkpt lat="45.5727" lon="5.91448">
        <ele>283</ele>
        <time>2021-09-12T13:24:00.778Z</time>
      </trkpt>
      <trkpt lat="45.57267" lon="5.91451">
        <ele>284</ele>
        <time>2021-09-12T13:24:01.778Z</time>
      </trkpt>
      <trkpt lat="45.57265" lon="5.91455">
        <ele>284</ele>
        <time>2021-09-12T13:24:02.778Z</time>
      </trkpt>
      <trkpt lat="45.57262" lon="5.91458">
        <ele>284</ele>
        <time>2021-09-12T13:24:03.778Z</time>
      </trkpt>
      <trkpt lat="45.57259" lon="5.91462">
        <ele>284</ele>
        <time>2021-09-12T13:24:04.778Z</time>
      </trkpt>
      <trkpt lat="45.57255" lon="5.91465">
        <ele>284</ele>
        <time>2021-09-12T13:24:05.778Z</time>
      </trkpt>
      <trkpt lat="45.5725" lon="5.91468">
        <ele>284</ele>
        <time>2021-09-12T13:24:06.778Z</time>
      </trkpt>
      <trkpt lat="45.57246" lon="5.9147">
        <ele>284</ele>
        <time>2021-09-12T13:24:07.778Z</time>
      </trkpt>
      <trkpt lat="45.57241" lon="5.91475">
        <ele>284</ele>
        <time>2021-09-12T13:24:08.778Z</time>
      </trkpt>
      <trkpt lat="45.57237" lon="5.91478">
        <ele>284</ele>
        <time>2021-09-12T13:24:09.778Z</time>
      </trkpt>
      <trkpt lat="45.57233" lon="5.91482">
        <ele>284</ele>
        <time>2021-09-12T13:24:10.778Z</time>
      </trkpt>
      <trkpt lat="45.57229" lon="5.91486">
        <ele>283</ele>
        <time>2021-09-12T13:24:11.777Z</time>
      </trkpt>
      <trkpt lat="45.57225" lon="5.9149">
        <ele>283</ele>
        <time>2021-09-12T13:24:12.777Z</time>
      </trkpt>
      <trkpt lat="45.5722" lon="5.91494">
        <ele>283</ele>
        <time>2021-09-12T13:24:13.778Z</time>
      </trkpt>
      <trkpt lat="45.57217" lon="5.91499">
        <ele>283</ele>
        <time>2021-09-12T13:24:14.777Z</time>
      </trkpt>
      <trkpt lat="45.57213" lon="5.91504">
        <ele>283</ele>
        <time>2021-09-12T13:24:15.777Z</time>
      </trkpt>
      <trkpt lat="45.5721" lon="5.91507">
        <ele>282</ele>
        <time>2021-09-12T13:24:16.777Z</time>
      </trkpt>
      <trkpt lat="45.57206" lon="5.9151">
        <ele>282</ele>
        <time>2021-09-12T13:24:17.778Z</time>
      </trkpt>
      <trkpt lat="45.57204" lon="5.91514">
        <ele>281</ele>
        <time>2021-09-12T13:24:18.778Z</time>
      </trkpt>
      <trkpt lat="45.57201" lon="5.91518">
        <ele>281</ele>
        <time>2021-09-12T13:24:19.778Z</time>
      </trkpt>
      <trkpt lat="45.57198" lon="5.91523">
        <ele>280</ele>
        <time>2021-09-12T13:24:20.778Z</time>
      </trkpt>
      <trkpt lat="45.57194" lon="5.91527">
        <ele>279</ele>
        <time>2021-09-12T13:24:21.778Z</time>
      </trkpt>
      <trkpt lat="45.57191" lon="5.91531">
        <ele>278</ele>
        <time>2021-09-12T13:24:22.778Z</time>
      </trkpt>
      <trkpt lat="45.57187" lon="5.91535">
        <ele>278</ele>
        <time>2021-09-12T13:24:23.777Z</time>
      </trkpt>
      <trkpt lat="45.57183" lon="5.91538">
        <ele>277</ele>
        <time>2021-09-12T13:24:24.778Z</time>
      </trkpt>
      <trkpt lat="45.5718" lon="5.9154">
        <ele>277</ele>
        <time>2021-09-12T13:24:25.777Z</time>
      </trkpt>
      <trkpt lat="45.57176" lon="5.91543">
        <ele>277</ele>
        <time>2021-09-12T13:24:26.778Z</time>
      </trkpt>
      <trkpt lat="45.57172" lon="5.91546">
        <ele>276</ele>
        <time>2021-09-12T13:24:27.777Z</time>
      </trkpt>
      <trkpt lat="45.57167" lon="5.91551">
        <ele>276</ele>
        <time>2021-09-12T13:24:28.778Z</time>
      </trkpt>
      <trkpt lat="45.57163" lon="5.91554">
        <ele>276</ele>
        <time>2021-09-12T13:24:29.778Z</time>
      </trkpt>
      <trkpt lat="45.5716" lon="5.91557">
        <ele>276</ele>
        <time>2021-09-12T13:24:30.778Z</time>
      </trkpt>
      <trkpt lat="45.57158" lon="5.91559">
        <ele>276</ele>
        <time>2021-09-12T13:24:31.778Z</time>
      </trkpt>
      <trkpt lat="45.57155" lon="5.91561">
        <ele>276</ele>
        <time>2021-09-12T13:24:32.778Z</time>
      </trkpt>
      <trkpt lat="45.57151" lon="5.91564">
        <ele>276</ele>
        <time>2021-09-12T13:24:33.778Z</time>
      </trkpt>
      <trkpt lat="45.57148" lon="5.91566">
        <ele>276</ele>
        <time>2021-09-12T13:24:34.778Z</time>
      </trkpt>
      <trkpt lat="45.57145" lon="5.91568">
        <ele>276</ele>
        <time>2021-09-12T13:24:35.777Z</time>
      </trkpt>
      <trkpt lat="45.57142" lon="5.9157">
        <ele>276</ele>
        <time>2021-09-12T13:24:36.778Z</time>
      </trkpt>
      <trkpt lat="45.5714" lon="5.91572">
        <ele>276</ele>
        <time>2021-09-12T13:24:37.777Z</time>
      </trkpt>
      <trkpt lat="45.57137" lon="5.91574">
        <ele>277</ele>
        <time>2021-09-12T13:24:38.778Z</time>
      </trkpt>
      <trkpt lat="45.57135" lon="5.91576">
        <ele>277</ele>
        <time>2021-09-12T13:24:39.778Z</time>
      </trkpt>
      <trkpt lat="45.57132" lon="5.91578">
        <ele>277</ele>
        <time>2021-09-12T13:24:40.778Z</time>
      </trkpt>
      <trkpt lat="45.57127" lon="5.91581">
        <ele>278</ele>
        <time>2021-09-12T13:24:41.777Z</time>
      </trkpt>
      <trkpt lat="45.57122" lon="5.91584">
        <ele>279</ele>
        <time>2021-09-12T13:24:42.778Z</time>
      </trkpt>
      <trkpt lat="45.57118" lon="5.91586">
        <ele>279</ele>
        <time>2021-09-12T13:24:43.778Z</time>
      </trkpt>
      <trkpt lat="45.57115" lon="5.91589">
        <ele>280</ele>
        <time>2021-09-12T13:24:44.778Z</time>
      </trkpt>
      <trkpt lat="45.57112" lon="5.91592">
        <ele>281</ele>
        <time>2021-09-12T13:24:45.777Z</time>
      </trkpt>
      <trkpt lat="45.57109" lon="5.91595">
        <ele>282</ele>
        <time>2021-09-12T13:24:46.778Z</time>
      </trkpt>
      <trkpt lat="45.57105" lon="5.91599">
        <ele>282</ele>
        <time>2021-09-12T13:24:47.778Z</time>
      </trkpt>
      <trkpt lat="45.57101" lon="5.91603">
        <ele>283</ele>
        <time>2021-09-12T13:24:48.777Z</time>
      </trkpt>
      <trkpt lat="45.57097" lon="5.91606">
        <ele>284</ele>
        <time>2021-09-12T13:24:49.778Z</time>
      </trkpt>
      <trkpt lat="45.57094" lon="5.9161">
        <ele>284</ele>
        <time>2021-09-12T13:24:50.778Z</time>
      </trkpt>
      <trkpt lat="45.5709" lon="5.91614">
        <ele>285</ele>
        <time>2021-09-12T13:24:51.777Z</time>
      </trkpt>
      <trkpt lat="45.57088" lon="5.91618">
        <ele>286</ele>
        <time>2021-09-12T13:28:36.929Z</time>
      </trkpt>
      <trkpt lat="45.57086" lon="5.91622">
        <ele>286</ele>
        <time>2021-09-12T13:28:37.929Z</time>
      </trkpt>
      <trkpt lat="45.57082" lon="5.91624">
        <ele>286</ele>
        <time>2021-09-12T13:28:38.929Z</time>
      </trkpt>
      <trkpt lat="45.57079" lon="5.91625">
        <ele>287</ele>
        <time>2021-09-12T13:28:39.929Z</time>
      </trkpt>
      <trkpt lat="45.57075" lon="5.91626">
        <ele>288</ele>
        <time>2021-09-12T13:28:40.929Z</time>
      </trkpt>
      <trkpt lat="45.57071" lon="5.91627">
        <ele>288</ele>
        <time>2021-09-12T13:28:41.929Z</time>
      </trkpt>
      <trkpt lat="45.57068" lon="5.91628">
        <ele>288</ele>
        <time>2021-09-12T13:28:42.928Z</time>
      </trkpt>
      <trkpt lat="45.57064" lon="5.91629">
        <ele>289</ele>
        <time>2021-09-12T13:28:43.929Z</time>
      </trkpt>
      <trkpt lat="45.5706" lon="5.9163">
        <ele>289</ele>
        <time>2021-09-12T13:28:44.929Z</time>
      </trkpt>
      <trkpt lat="45.57057" lon="5.91631">
        <ele>289</ele>
        <time>2021-09-12T13:28:54.068Z</time>
      </trkpt>
      <trkpt lat="45.57053" lon="5.91634">
        <ele>290</ele>
        <time>2021-09-12T13:28:55.068Z</time>
      </trkpt>
      <trkpt lat="45.5705" lon="5.91638">
        <ele>290</ele>
        <time>2021-09-12T13:28:56.068Z</time>
      </trkpt>
      <trkpt lat="45.57046" lon="5.91641">
        <ele>290</ele>
        <time>2021-09-12T13:28:57.068Z</time>
      </trkpt>
      <trkpt lat="45.57043" lon="5.91644">
        <ele>290</ele>
        <time>2021-09-12T13:28:58.068Z</time>
      </trkpt>
      <trkpt lat="45.5704" lon="5.91648">
        <ele>290</ele>
        <time>2021-09-12T13:28:59.069Z</time>
      </trkpt>
      <trkpt lat="45.57037" lon="5.91651">
        <ele>290</ele>
        <time>2021-09-12T13:29:00.068Z</time>
      </trkpt>
      <trkpt lat="45.57033" lon="5.91655">
        <ele>290</ele>
        <time>2021-09-12T13:29:03.135Z</time>
      </trkpt>
      <trkpt lat="45.5703" lon="5.91658">
        <ele>290</ele>
        <time>2021-09-12T13:29:04.135Z</time>
      </trkpt>
      <trkpt lat="45.57027" lon="5.9166">
        <ele>290</ele>
        <time>2021-09-12T13:29:13.930Z</time>
      </trkpt>
      <trkpt lat="45.57025" lon="5.91663">
        <ele>289</ele>
        <time>2021-09-12T13:29:14.930Z</time>
      </trkpt>
      <trkpt lat="45.57023" lon="5.91667">
        <ele>288</ele>
        <time>2021-09-12T13:29:15.930Z</time>
      </trkpt>
      <trkpt lat="45.57022" lon="5.91671">
        <ele>287</ele>
        <time>2021-09-12T13:29:16.930Z</time>
      </trkpt>
      <trkpt lat="45.57023" lon="5.91676">
        <ele>287</ele>
        <time>2021-09-12T13:29:17.930Z</time>
      </trkpt>
      <trkpt lat="45.57025" lon="5.9168">
        <ele>286</ele>
        <time>2021-09-12T13:29:18.929Z</time>
      </trkpt>
      <trkpt lat="45.57027" lon="5.91685">
        <ele>286</ele>
        <time>2021-09-12T13:29:19.930Z</time>
      </trkpt>
      <trkpt lat="45.57029" lon="5.91689">
        <ele>285</ele>
        <time>2021-09-12T13:29:20.929Z</time>
      </trkpt>
      <trkpt lat="45.57032" lon="5.91694">
        <ele>285</ele>
        <time>2021-09-12T13:29:21.930Z</time>
      </trkpt>
      <trkpt lat="45.57033" lon="5.91699">
        <ele>285</ele>
        <time>2021-09-12T13:29:22.929Z</time>
      </trkpt>
      <trkpt lat="45.57035" lon="5.91702">
        <ele>284</ele>
        <time>2021-09-12T13:29:23.930Z</time>
      </trkpt>
      <trkpt lat="45.57037" lon="5.91707">
        <ele>284</ele>
        <time>2021-09-12T13:29:24.930Z</time>
      </trkpt>
      <trkpt lat="45.57038" lon="5.91712">
        <ele>284</ele>
        <time>2021-09-12T13:29:25.930Z</time>
      </trkpt>
      <trkpt lat="45.5704" lon="5.91716">
        <ele>284</ele>
        <time>2021-09-12T13:29:26.930Z</time>
      </trkpt>
      <trkpt lat="45.57041" lon="5.9172">
        <ele>284</ele>
        <time>2021-09-12T13:29:27.930Z</time>
      </trkpt>
      <trkpt lat="45.57043" lon="5.91724">
        <ele>284</ele>
        <time>2021-09-12T13:29:28.930Z</time>
      </trkpt>
      <trkpt lat="45.57045" lon="5.91729">
        <ele>284</ele>
        <time>2021-09-12T13:29:29.930Z</time>
      </trkpt>
      <trkpt lat="45.57047" lon="5.91733">
        <ele>284</ele>
        <time>2021-09-12T13:29:30.930Z</time>
      </trkpt>
      <trkpt lat="45.57049" lon="5.91737">
        <ele>284</ele>
        <time>2021-09-12T13:29:31.930Z</time>
      </trkpt>
      <trkpt lat="45.57051" lon="5.91739">
        <ele>284</ele>
        <time>2021-09-12T13:29:32.930Z</time>
      </trkpt>
      <trkpt lat="45.57053" lon="5.91742">
        <ele>284</ele>
        <time>2021-09-12T13:29:33.930Z</time>
      </trkpt>
      <trkpt lat="45.57054" lon="5.91745">
        <ele>284</ele>
        <time>2021-09-12T13:29:34.929Z</time>
      </trkpt>
      <trkpt lat="45.57053" lon="5.91749">
        <ele>284</ele>
        <time>2021-09-12T13:29:35.930Z</time>
      </trkpt>
      <trkpt lat="45.57052" lon="5.91753">
        <ele>284</ele>
        <time>2021-09-12T13:29:36.930Z</time>
      </trkpt>
      <trkpt lat="45.57051" lon="5.91756">
        <ele>283</ele>
        <time>2021-09-12T13:29:37.929Z</time>
      </trkpt>
      <trkpt lat="45.57049" lon="5.91759">
        <ele>283</ele>
        <time>2021-09-12T13:29:38.930Z</time>
      </trkpt>
      <trkpt lat="45.57046" lon="5.91763">
        <ele>282</ele>
        <time>2021-09-12T13:29:39.930Z</time>
      </trkpt>
      <trkpt lat="45.57044" lon="5.91765">
        <ele>282</ele>
        <time>2021-09-12T13:29:40.929Z</time>
      </trkpt>
      <trkpt lat="45.57042" lon="5.91768">
        <ele>281</ele>
        <time>2021-09-12T13:29:41.929Z</time>
      </trkpt>
      <trkpt lat="45.57039" lon="5.9177">
        <ele>281</ele>
        <time>2021-09-12T13:29:42.930Z</time>
      </trkpt>
      <trkpt lat="45.57037" lon="5.91772">
        <ele>281</ele>
        <time>2021-09-12T13:29:43.930Z</time>
      </trkpt>
      <trkpt lat="45.57034" lon="5.91775">
        <ele>281</ele>
        <time>2021-09-12T13:29:44.929Z</time>
      </trkpt>
      <trkpt lat="45.5703" lon="5.91777">
        <ele>280</ele>
        <time>2021-09-12T13:29:45.930Z</time>
      </trkpt>
      <trkpt lat="45.57027" lon="5.91779">
        <ele>280</ele>
        <time>2021-09-12T13:29:46.929Z</time>
      </trkpt>
      <trkpt lat="45.57023" lon="5.91781">
        <ele>280</ele>
        <time>2021-09-12T13:29:47.930Z</time>
      </trkpt>
      <trkpt lat="45.57018" lon="5.91784">
        <ele>280</ele>
        <time>2021-09-12T13:29:48.930Z</time>
      </trkpt>
      <trkpt lat="45.57015" lon="5.91786">
        <ele>279</ele>
        <time>2021-09-12T13:29:49.929Z</time>
      </trkpt>
      <trkpt lat="45.57011" lon="5.91791">
        <ele>278</ele>
        <time>2021-09-12T13:29:50.930Z</time>
      </trkpt>
      <trkpt lat="45.57007" lon="5.91794">
        <ele>278</ele>
        <time>2021-09-12T13:29:51.930Z</time>
      </trkpt>
      <trkpt lat="45.57002" lon="5.91798">
        <ele>278</ele>
        <time>2021-09-12T13:29:52.929Z</time>
      </trkpt>
      <trkpt lat="45.56998" lon="5.91802">
        <ele>277</ele>
        <time>2021-09-12T13:29:53.929Z</time>
      </trkpt>
      <trkpt lat="45.56995" lon="5.91805">
        <ele>277</ele>
        <time>2021-09-12T13:29:54.929Z</time>
      </trkpt>
      <trkpt lat="45.5699" lon="5.9181">
        <ele>277</ele>
        <time>2021-09-12T13:29:55.930Z</time>
      </trkpt>
      <trkpt lat="45.56986" lon="5.91813">
        <ele>277</ele>
        <time>2021-09-12T13:29:56.930Z</time>
      </trkpt>
      <trkpt lat="45.56983" lon="5.91815">
        <ele>277</ele>
        <time>2021-09-12T13:29:57.930Z</time>
      </trkpt>
      <trkpt lat="45.56978" lon="5.91819">
        <ele>277</ele>
        <time>2021-09-12T13:29:58.930Z</time>
      </trkpt>
      <trkpt lat="45.56974" lon="5.91821">
        <ele>277</ele>
        <time>2021-09-12T13:29:59.930Z</time>
      </trkpt>
      <trkpt lat="45.56969" lon="5.91825">
        <ele>277</ele>
        <time>2021-09-12T13:30:00.930Z</time>
      </trkpt>
      <trkpt lat="45.56965" lon="5.91829">
        <ele>277</ele>
        <time>2021-09-12T13:30:01.930Z</time>
      </trkpt>
      <trkpt lat="45.56961" lon="5.91832">
        <ele>277</ele>
        <time>2021-09-12T13:30:02.930Z</time>
      </trkpt>
      <trkpt lat="45.56956" lon="5.91838">
        <ele>278</ele>
        <time>2021-09-12T13:30:03.929Z</time>
      </trkpt>
      <trkpt lat="45.56952" lon="5.91841">
        <ele>278</ele>
        <time>2021-09-12T13:30:04.930Z</time>
      </trkpt>
      <trkpt lat="45.56948" lon="5.91844">
        <ele>278</ele>
        <time>2021-09-12T13:30:05.930Z</time>
      </trkpt>
      <trkpt lat="45.56943" lon="5.91848">
        <ele>278</ele>
        <time>2021-09-12T13:30:06.930Z</time>
      </trkpt>
      <trkpt lat="45.56939" lon="5.91852">
        <ele>278</ele>
        <time>2021-09-12T13:30:07.930Z</time>
      </trkpt>
      <trkpt lat="45.56933" lon="5.91857">
        <ele>278</ele>
        <time>2021-09-12T13:30:08.930Z</time>
      </trkpt>
      <trkpt lat="45.56929" lon="5.91862">
        <ele>279</ele>
        <time>2021-09-12T13:30:09.930Z</time>
      </trkpt>
      <trkpt lat="45.56925" lon="5.91865">
        <ele>279</ele>
        <time>2021-09-12T13:30:10.930Z</time>
      </trkpt>
      <trkpt lat="45.56922" lon="5.91869">
        <ele>279</ele>
        <time>2021-09-12T13:30:11.930Z</time>
      </trkpt>
      <trkpt lat="45.56918" lon="5.91873">
        <ele>279</ele>
        <time>2021-09-12T13:30:12.930Z</time>
      </trkpt>
      <trkpt lat="45.56915" lon="5.91877">
        <ele>279</ele>
        <time>2021-09-12T13:30:13.930Z</time>
      </trkpt>
      <trkpt lat="45.56911" lon="5.91883">
        <ele>280</ele>
        <time>2021-09-12T13:30:14.930Z</time>
      </trkpt>
      <trkpt lat="45.56908" lon="5.91886">
        <ele>280</ele>
        <time>2021-09-12T13:30:15.930Z</time>
      </trkpt>
      <trkpt lat="45.56905" lon="5.91891">
        <ele>280</ele>
        <time>2021-09-12T13:30:16.930Z</time>
      </trkpt>
      <trkpt lat="45.56901" lon="5.91895">
        <ele>280</ele>
        <time>2021-09-12T13:30:17.930Z</time>
      </trkpt>
      <trkpt lat="45.56897" lon="5.91898">
        <ele>280</ele>
        <time>2021-09-12T13:30:18.930Z</time>
      </trkpt>
      <trkpt lat="45.56893" lon="5.91901">
        <ele>280</ele>
        <time>2021-09-12T13:30:19.930Z</time>
      </trkpt>
      <trkpt lat="45.56889" lon="5.91905">
        <ele>279</ele>
        <time>2021-09-12T13:30:20.930Z</time>
      </trkpt>
      <trkpt lat="45.56885" lon="5.91908">
        <ele>279</ele>
        <time>2021-09-12T13:30:21.930Z</time>
      </trkpt>
      <trkpt lat="45.56882" lon="5.91913">
        <ele>278</ele>
        <time>2021-09-12T13:30:22.930Z</time>
      </trkpt>
      <trkpt lat="45.56878" lon="5.91919">
        <ele>278</ele>
        <time>2021-09-12T13:30:23.930Z</time>
      </trkpt>
      <trkpt lat="45.56876" lon="5.91924">
        <ele>278</ele>
        <time>2021-09-12T13:30:24.930Z</time>
      </trkpt>
      <trkpt lat="45.56873" lon="5.91931">
        <ele>277</ele>
        <time>2021-09-12T13:30:25.930Z</time>
      </trkpt>
      <trkpt lat="45.56872" lon="5.91936">
        <ele>277</ele>
        <time>2021-09-12T13:30:26.930Z</time>
      </trkpt>
      <trkpt lat="45.56869" lon="5.91941">
        <ele>277</ele>
        <time>2021-09-12T13:30:27.930Z</time>
      </trkpt>
      <trkpt lat="45.56867" lon="5.91947">
        <ele>276</ele>
        <time>2021-09-12T13:30:28.930Z</time>
      </trkpt>
      <trkpt lat="45.56865" lon="5.91953">
        <ele>276</ele>
        <time>2021-09-12T13:30:29.930Z</time>
      </trkpt>
      <trkpt lat="45.56862" lon="5.91958">
        <ele>276</ele>
        <time>2021-09-12T13:30:30.930Z</time>
      </trkpt>
      <trkpt lat="45.5686" lon="5.91964">
        <ele>276</ele>
        <time>2021-09-12T13:30:31.929Z</time>
      </trkpt>
      <trkpt lat="45.56858" lon="5.9197">
        <ele>275</ele>
        <time>2021-09-12T13:30:32.930Z</time>
      </trkpt>
      <trkpt lat="45.56855" lon="5.91976">
        <ele>275</ele>
        <time>2021-09-12T13:30:33.930Z</time>
      </trkpt>
      <trkpt lat="45.56853" lon="5.91983">
        <ele>275</ele>
        <time>2021-09-12T13:30:34.929Z</time>
      </trkpt>
      <trkpt lat="45.56851" lon="5.91987">
        <ele>275</ele>
        <time>2021-09-12T13:30:35.930Z</time>
      </trkpt>
      <trkpt lat="45.56849" lon="5.91993">
        <ele>275</ele>
        <time>2021-09-12T13:30:36.930Z</time>
      </trkpt>
      <trkpt lat="45.56847" lon="5.91999">
        <ele>275</ele>
        <time>2021-09-12T13:30:37.930Z</time>
      </trkpt>
      <trkpt lat="45.56845" lon="5.92007">
        <ele>275</ele>
        <time>2021-09-12T13:30:38.930Z</time>
      </trkpt>
      <trkpt lat="45.56843" lon="5.92014">
        <ele>275</ele>
        <time>2021-09-12T13:30:39.930Z</time>
      </trkpt>
      <trkpt lat="45.56841" lon="5.9202">
        <ele>275</ele>
        <time>2021-09-12T13:30:40.929Z</time>
      </trkpt>
      <trkpt lat="45.56839" lon="5.92025">
        <ele>275</ele>
        <time>2021-09-12T13:30:41.929Z</time>
      </trkpt>
      <trkpt lat="45.56837" lon="5.92032">
        <ele>275</ele>
        <time>2021-09-12T13:30:42.930Z</time>
      </trkpt>
      <trkpt lat="45.56835" lon="5.92039">
        <ele>275</ele>
        <time>2021-09-12T13:30:43.930Z</time>
      </trkpt>
      <trkpt lat="45.56833" lon="5.92044">
        <ele>275</ele>
        <time>2021-09-12T13:30:44.929Z</time>
      </trkpt>
      <trkpt lat="45.56833" lon="5.92049">
        <ele>276</ele>
        <time>2021-09-12T13:30:45.930Z</time>
      </trkpt>
      <trkpt lat="45.56832" lon="5.92054">
        <ele>276</ele>
        <time>2021-09-12T13:30:46.930Z</time>
      </trkpt>
      <trkpt lat="45.56832" lon="5.92059">
        <ele>276</ele>
        <time>2021-09-12T13:30:47.930Z</time>
      </trkpt>
      <trkpt lat="45.56832" lon="5.92064">
        <ele>276</ele>
        <time>2021-09-12T13:30:48.930Z</time>
      </trkpt>
      <trkpt lat="45.56832" lon="5.9207">
        <ele>276</ele>
        <time>2021-09-12T13:30:49.930Z</time>
      </trkpt>
      <trkpt lat="45.56832" lon="5.92075">
        <ele>277</ele>
        <time>2021-09-12T13:30:50.930Z</time>
      </trkpt>
      <trkpt lat="45.5683" lon="5.92082">
        <ele>277</ele>
        <time>2021-09-12T13:30:51.930Z</time>
      </trkpt>
      <trkpt lat="45.5683" lon="5.92088">
        <ele>277</ele>
        <time>2021-09-12T13:30:52.930Z</time>
      </trkpt>
      <trkpt lat="45.56829" lon="5.92093">
        <ele>277</ele>
        <time>2021-09-12T13:30:53.930Z</time>
      </trkpt>
      <trkpt lat="45.56828" lon="5.92097">
        <ele>277</ele>
        <time>2021-09-12T13:30:54.930Z</time>
      </trkpt>
      <trkpt lat="45.56828" lon="5.92101">
        <ele>278</ele>
        <time>2021-09-12T13:30:55.930Z</time>
      </trkpt>
      <trkpt lat="45.56827" lon="5.92106">
        <ele>279</ele>
        <time>2021-09-12T13:30:56.930Z</time>
      </trkpt>
      <trkpt lat="45.56826" lon="5.92111">
        <ele>280</ele>
        <time>2021-09-12T13:30:57.930Z</time>
      </trkpt>
      <trkpt lat="45.56827" lon="5.92115">
        <ele>280</ele>
        <time>2021-09-12T13:30:58.929Z</time>
      </trkpt>
      <trkpt lat="45.56829" lon="5.92119">
        <ele>281</ele>
        <time>2021-09-12T13:30:59.930Z</time>
      </trkpt>
      <trkpt lat="45.56829" lon="5.92124">
        <ele>282</ele>
        <time>2021-09-12T13:31:00.929Z</time>
      </trkpt>
      <trkpt lat="45.5683" lon="5.92129">
        <ele>282</ele>
        <time>2021-09-12T13:31:01.930Z</time>
      </trkpt>
      <trkpt lat="45.56831" lon="5.92134">
        <ele>282</ele>
        <time>2021-09-12T13:31:02.929Z</time>
      </trkpt>
      <trkpt lat="45.56831" lon="5.9214">
        <ele>283</ele>
        <time>2021-09-12T13:31:03.930Z</time>
      </trkpt>
      <trkpt lat="45.5683" lon="5.92146">
        <ele>283</ele>
        <time>2021-09-12T13:31:04.930Z</time>
      </trkpt>
      <trkpt lat="45.56828" lon="5.92152">
        <ele>284</ele>
        <time>2021-09-12T13:31:05.929Z</time>
      </trkpt>
      <trkpt lat="45.56826" lon="5.92158">
        <ele>284</ele>
        <time>2021-09-12T13:31:06.930Z</time>
      </trkpt>
      <trkpt lat="45.56824" lon="5.92163">
        <ele>283</ele>
        <time>2021-09-12T13:31:07.929Z</time>
      </trkpt>
      <trkpt lat="45.56822" lon="5.92168">
        <ele>283</ele>
        <time>2021-09-12T13:31:08.930Z</time>
      </trkpt>
      <trkpt lat="45.5682" lon="5.92173">
        <ele>283</ele>
        <time>2021-09-12T13:31:09.930Z</time>
      </trkpt>
      <trkpt lat="45.56818" lon="5.92178">
        <ele>283</ele>
        <time>2021-09-12T13:31:10.929Z</time>
      </trkpt>
      <trkpt lat="45.56816" lon="5.92183">
        <ele>283</ele>
        <time>2021-09-12T13:31:11.930Z</time>
      </trkpt>
      <trkpt lat="45.56814" lon="5.9219">
        <ele>283</ele>
        <time>2021-09-12T13:31:12.929Z</time>
      </trkpt>
      <trkpt lat="45.56811" lon="5.92195">
        <ele>283</ele>
        <time>2021-09-12T13:31:13.930Z</time>
      </trkpt>
      <trkpt lat="45.56809" lon="5.92202">
        <ele>282</ele>
        <time>2021-09-12T13:31:14.929Z</time>
      </trkpt>
      <trkpt lat="45.56808" lon="5.92206">
        <ele>282</ele>
        <time>2021-09-12T13:31:15.929Z</time>
      </trkpt>
      <trkpt lat="45.56805" lon="5.92213">
        <ele>282</ele>
        <time>2021-09-12T13:31:16.929Z</time>
      </trkpt>
      <trkpt lat="45.56802" lon="5.9222">
        <ele>282</ele>
        <time>2021-09-12T13:31:17.929Z</time>
      </trkpt>
      <trkpt lat="45.56799" lon="5.92226">
        <ele>282</ele>
        <time>2021-09-12T13:31:18.930Z</time>
      </trkpt>
      <trkpt lat="45.56795" lon="5.92232">
        <ele>282</ele>
        <time>2021-09-12T13:31:19.930Z</time>
      </trkpt>
      <trkpt lat="45.56793" lon="5.92237">
        <ele>282</ele>
        <time>2021-09-12T13:31:20.930Z</time>
      </trkpt>
      <trkpt lat="45.56792" lon="5.92242">
        <ele>282</ele>
        <time>2021-09-12T13:31:21.930Z</time>
      </trkpt>
      <trkpt lat="45.5679" lon="5.92248">
        <ele>282</ele>
        <time>2021-09-12T13:31:22.930Z</time>
      </trkpt>
      <trkpt lat="45.56788" lon="5.92253">
        <ele>282</ele>
        <time>2021-09-12T13:31:23.930Z</time>
      </trkpt>
      <trkpt lat="45.56786" lon="5.9226">
        <ele>282</ele>
        <time>2021-09-12T13:31:24.930Z</time>
      </trkpt>
      <trkpt lat="45.56783" lon="5.92265">
        <ele>282</ele>
        <time>2021-09-12T13:31:25.930Z</time>
      </trkpt>
      <trkpt lat="45.5678" lon="5.92272">
        <ele>282</ele>
        <time>2021-09-12T13:31:26.930Z</time>
      </trkpt>
      <trkpt lat="45.56777" lon="5.92279">
        <ele>282</ele>
        <time>2021-09-12T13:31:27.930Z</time>
      </trkpt>
      <trkpt lat="45.56773" lon="5.92285">
        <ele>282</ele>
        <time>2021-09-12T13:31:28.930Z</time>
      </trkpt>
      <trkpt lat="45.5677" lon="5.9229">
        <ele>282</ele>
        <time>2021-09-12T13:31:29.930Z</time>
      </trkpt>
      <trkpt lat="45.56768" lon="5.92295">
        <ele>282</ele>
        <time>2021-09-12T13:31:30.930Z</time>
      </trkpt>
      <trkpt lat="45.56766" lon="5.92301">
        <ele>282</ele>
        <time>2021-09-12T13:31:31.930Z</time>
      </trkpt>
      <trkpt lat="45.56764" lon="5.92309">
        <ele>282</ele>
        <time>2021-09-12T13:31:32.929Z</time>
      </trkpt>
      <trkpt lat="45.56761" lon="5.92315">
        <ele>282</ele>
        <time>2021-09-12T13:31:33.930Z</time>
      </trkpt>
      <trkpt lat="45.56758" lon="5.92321">
        <ele>282</ele>
        <time>2021-09-12T13:31:34.930Z</time>
      </trkpt>
      <trkpt lat="45.56756" lon="5.92325">
        <ele>282</ele>
        <time>2021-09-12T13:31:35.930Z</time>
      </trkpt>
      <trkpt lat="45.56752" lon="5.92331">
        <ele>282</ele>
        <time>2021-09-12T13:31:36.930Z</time>
      </trkpt>
      <trkpt lat="45.5675" lon="5.92337">
        <ele>282</ele>
        <time>2021-09-12T13:31:37.930Z</time>
      </trkpt>
      <trkpt lat="45.56747" lon="5.92343">
        <ele>282</ele>
        <time>2021-09-12T13:31:38.930Z</time>
      </trkpt>
      <trkpt lat="45.56745" lon="5.92349">
        <ele>282</ele>
        <time>2021-09-12T13:31:39.930Z</time>
      </trkpt>
      <trkpt lat="45.56743" lon="5.92355">
        <ele>283</ele>
        <time>2021-09-12T13:31:40.929Z</time>
      </trkpt>
      <trkpt lat="45.56741" lon="5.92362">
        <ele>283</ele>
        <time>2021-09-12T13:31:41.930Z</time>
      </trkpt>
      <trkpt lat="45.5674" lon="5.92367">
        <ele>283</ele>
        <time>2021-09-12T13:31:42.929Z</time>
      </trkpt>
      <trkpt lat="45.56739" lon="5.92375">
        <ele>283</ele>
        <time>2021-09-12T13:31:43.930Z</time>
      </trkpt>
      <trkpt lat="45.56738" lon="5.92381">
        <ele>284</ele>
        <time>2021-09-12T13:31:44.929Z</time>
      </trkpt>
      <trkpt lat="45.56738" lon="5.92385">
        <ele>284</ele>
        <time>2021-09-12T13:31:45.929Z</time>
      </trkpt>
      <trkpt lat="45.56738" lon="5.92393">
        <ele>286</ele>
        <time>2021-09-12T13:31:46.930Z</time>
      </trkpt>
      <trkpt lat="45.56739" lon="5.92399">
        <ele>287</ele>
        <time>2021-09-12T13:31:47.930Z</time>
      </trkpt>
      <trkpt lat="45.56738" lon="5.92405">
        <ele>288</ele>
        <time>2021-09-12T13:31:48.930Z</time>
      </trkpt>
      <trkpt lat="45.56738" lon="5.9241">
        <ele>289</ele>
        <time>2021-09-12T13:31:49.930Z</time>
      </trkpt>
      <trkpt lat="45.56738" lon="5.92417">
        <ele>290</ele>
        <time>2021-09-12T13:31:50.930Z</time>
      </trkpt>
      <trkpt lat="45.56737" lon="5.92423">
        <ele>291</ele>
        <time>2021-09-12T13:31:51.930Z</time>
      </trkpt>
      <trkpt lat="45.56736" lon="5.9243">
        <ele>291</ele>
        <time>2021-09-12T13:31:52.929Z</time>
      </trkpt>
      <trkpt lat="45.56736" lon="5.92437">
        <ele>291</ele>
        <time>2021-09-12T13:31:53.930Z</time>
      </trkpt>
      <trkpt lat="45.56736" lon="5.92443">
        <ele>291</ele>
        <time>2021-09-12T13:31:54.930Z</time>
      </trkpt>
      <trkpt lat="45.56737" lon="5.9245">
        <ele>290</ele>
        <time>2021-09-12T13:31:55.930Z</time>
      </trkpt>
      <trkpt lat="45.56738" lon="5.92457">
        <ele>291</ele>
        <time>2021-09-12T13:31:56.930Z</time>
      </trkpt>
      <trkpt lat="45.56739" lon="5.92463">
        <ele>291</ele>
        <time>2021-09-12T13:31:57.930Z</time>
      </trkpt>
      <trkpt lat="45.5674" lon="5.92469">
        <ele>291</ele>
        <time>2021-09-12T13:31:58.930Z</time>
      </trkpt>
      <trkpt lat="45.56741" lon="5.92474">
        <ele>292</ele>
        <time>2021-09-12T13:31:59.930Z</time>
      </trkpt>
      <trkpt lat="45.56742" lon="5.92482">
        <ele>293</ele>
        <time>2021-09-12T13:32:00.930Z</time>
      </trkpt>
      <trkpt lat="45.56743" lon="5.92488">
        <ele>294</ele>
        <time>2021-09-12T13:32:01.930Z</time>
      </trkpt>
      <trkpt lat="45.56743" lon="5.92493">
        <ele>296</ele>
        <time>2021-09-12T13:32:02.929Z</time>
      </trkpt>
      <trkpt lat="45.56744" lon="5.92499">
        <ele>296</ele>
        <time>2021-09-12T13:32:03.930Z</time>
      </trkpt>
      <trkpt lat="45.56745" lon="5.92506">
        <ele>297</ele>
        <time>2021-09-12T13:32:04.930Z</time>
      </trkpt>
      <trkpt lat="45.56745" lon="5.92513">
        <ele>297</ele>
        <time>2021-09-12T13:32:05.929Z</time>
      </trkpt>
      <trkpt lat="45.56746" lon="5.92522">
        <ele>297</ele>
        <time>2021-09-12T13:32:06.930Z</time>
      </trkpt>
      <trkpt lat="45.56747" lon="5.92529">
        <ele>297</ele>
        <time>2021-09-12T13:32:07.930Z</time>
      </trkpt>
      <trkpt lat="45.56747" lon="5.92536">
        <ele>297</ele>
        <time>2021-09-12T13:32:08.930Z</time>
      </trkpt>
      <trkpt lat="45.56748" lon="5.92544">
        <ele>296</ele>
        <time>2021-09-12T13:32:09.930Z</time>
      </trkpt>
      <trkpt lat="45.56748" lon="5.92551">
        <ele>296</ele>
        <time>2021-09-12T13:32:10.930Z</time>
      </trkpt>
      <trkpt lat="45.56748" lon="5.92559">
        <ele>295</ele>
        <time>2021-09-12T13:32:11.930Z</time>
      </trkpt>
      <trkpt lat="45.56748" lon="5.92566">
        <ele>294</ele>
        <time>2021-09-12T13:32:12.930Z</time>
      </trkpt>
      <trkpt lat="45.56748" lon="5.92572">
        <ele>294</ele>
        <time>2021-09-12T13:32:13.930Z</time>
      </trkpt>
      <trkpt lat="45.56748" lon="5.92581">
        <ele>293</ele>
        <time>2021-09-12T13:32:14.930Z</time>
      </trkpt>
      <trkpt lat="45.56748" lon="5.92589">
        <ele>292</ele>
        <time>2021-09-12T13:32:15.930Z</time>
      </trkpt>
      <trkpt lat="45.56749" lon="5.92596">
        <ele>292</ele>
        <time>2021-09-12T13:32:16.929Z</time>
      </trkpt>
      <trkpt lat="45.56749" lon="5.92602">
        <ele>291</ele>
        <time>2021-09-12T13:32:17.930Z</time>
      </trkpt>
      <trkpt lat="45.5675" lon="5.9261">
        <ele>290</ele>
        <time>2021-09-12T13:32:18.930Z</time>
      </trkpt>
      <trkpt lat="45.56748" lon="5.92618">
        <ele>289</ele>
        <time>2021-09-12T13:32:19.929Z</time>
      </trkpt>
      <trkpt lat="45.56747" lon="5.92625">
        <ele>288</ele>
        <time>2021-09-12T13:32:20.930Z</time>
      </trkpt>
    </trkseg>
  </trk>
</gpx>